<?xml version="1.0" encoding="UTF-8"?>
<gpx version="1.1" creator="https://www.youtrack.es" xsi:schemaLocation="http://www.topografix.com/GPX/1/1 http://www.topografix.com/GPX/1/1/gpx.xsd http://www.garmin.com/xmlschemas/GpxExtensions/v3 http://www.garmin.com/xmlschemas/GpxExtensionsv3.xsd http://www.garmin.com/xmlschemas/TrackPointExtension/v1 http://www.garmin.com/xmlschemas/TrackPointExtensionv1.xsd" xmlns:gpxtpx="http://www.garmin.com/xmlschemas/TrackPointExtension/v1" xmlns:gpxx="http://www.garmin.com/xmlschemas/GpxExtensions/v3" xmlns:xsi="http://www.w3.org/2001/XMLSchema-instance">
  <metadata>
    <link href="https://www.youtrack.es">
      <text>YouTrack.es</text>
    </link>
    <time>2026-05-08T10:29:06Z</time>
  </metadata>
  <trk>
    <src>https://www.youtrack.es</src>
    <link href="https://www.youtrack.es/ruta/26706-via-de-la-plata-granariders-2021">
      <text>YouTrack.es</text>
    </link>
    <trkseg>
      <trkpt lat="37.176156" lon="-3.603455">
        <ele>686.723</ele>
        <time>2021-10-12T06:48:09Z</time>
      </trkpt>
      <trkpt lat="37.176182" lon="-3.603503">
        <ele>687.083</ele>
        <time>2021-10-12T06:49:19Z</time>
      </trkpt>
      <trkpt lat="37.176178" lon="-3.603560">
        <ele>687.111</ele>
        <time>2021-10-12T06:49:30Z</time>
      </trkpt>
      <trkpt lat="37.176231" lon="-3.603615">
        <ele>687.408</ele>
        <time>2021-10-12T06:49:42Z</time>
      </trkpt>
      <trkpt lat="37.176262" lon="-3.603658">
        <ele>687.530</ele>
        <time>2021-10-12T06:49:45Z</time>
      </trkpt>
      <trkpt lat="37.176328" lon="-3.603712">
        <ele>687.828</ele>
        <time>2021-10-12T06:49:46Z</time>
      </trkpt>
      <trkpt lat="37.176409" lon="-3.603778">
        <ele>687.874</ele>
        <time>2021-10-12T06:49:47Z</time>
      </trkpt>
      <trkpt lat="37.176459" lon="-3.603813">
        <ele>687.357</ele>
        <time>2021-10-12T06:49:48Z</time>
      </trkpt>
      <trkpt lat="37.176521" lon="-3.603834">
        <ele>686.743</ele>
        <time>2021-10-12T06:49:50Z</time>
      </trkpt>
      <trkpt lat="37.176604" lon="-3.603820">
        <ele>685.982</ele>
        <time>2021-10-12T06:49:52Z</time>
      </trkpt>
      <trkpt lat="37.176688" lon="-3.603825">
        <ele>684.992</ele>
        <time>2021-10-12T06:49:54Z</time>
      </trkpt>
      <trkpt lat="37.176746" lon="-3.603845">
        <ele>684.033</ele>
        <time>2021-10-12T06:49:55Z</time>
      </trkpt>
      <trkpt lat="37.176813" lon="-3.603874">
        <ele>682.916</ele>
        <time>2021-10-12T06:49:56Z</time>
      </trkpt>
      <trkpt lat="37.176908" lon="-3.603923">
        <ele>681.876</ele>
        <time>2021-10-12T06:49:58Z</time>
      </trkpt>
      <trkpt lat="37.176974" lon="-3.603955">
        <ele>681.513</ele>
        <time>2021-10-12T06:50:00Z</time>
      </trkpt>
      <trkpt lat="37.177021" lon="-3.603979">
        <ele>681.608</ele>
        <time>2021-10-12T06:50:01Z</time>
      </trkpt>
      <trkpt lat="37.177119" lon="-3.604036">
        <ele>681.779</ele>
        <time>2021-10-12T06:50:03Z</time>
      </trkpt>
      <trkpt lat="37.177213" lon="-3.604088">
        <ele>681.737</ele>
        <time>2021-10-12T06:50:05Z</time>
      </trkpt>
      <trkpt lat="37.177292" lon="-3.604148">
        <ele>682.573</ele>
        <time>2021-10-12T06:50:07Z</time>
      </trkpt>
      <trkpt lat="37.177337" lon="-3.604185">
        <ele>682.956</ele>
        <time>2021-10-12T06:50:08Z</time>
      </trkpt>
      <trkpt lat="37.177456" lon="-3.604256">
        <ele>683.852</ele>
        <time>2021-10-12T06:50:10Z</time>
      </trkpt>
      <trkpt lat="37.177526" lon="-3.604289">
        <ele>684.171</ele>
        <time>2021-10-12T06:50:11Z</time>
      </trkpt>
      <trkpt lat="37.177664" lon="-3.604344">
        <ele>684.071</ele>
        <time>2021-10-12T06:50:13Z</time>
      </trkpt>
      <trkpt lat="37.177727" lon="-3.604375">
        <ele>683.812</ele>
        <time>2021-10-12T06:50:14Z</time>
      </trkpt>
      <trkpt lat="37.177834" lon="-3.604448">
        <ele>682.697</ele>
        <time>2021-10-12T06:50:16Z</time>
      </trkpt>
      <trkpt lat="37.177908" lon="-3.604521">
        <ele>681.223</ele>
        <time>2021-10-12T06:50:18Z</time>
      </trkpt>
      <trkpt lat="37.177961" lon="-3.604563">
        <ele>680.425</ele>
        <time>2021-10-12T06:50:20Z</time>
      </trkpt>
      <trkpt lat="37.177983" lon="-3.604617">
        <ele>679.708</ele>
        <time>2021-10-12T06:50:23Z</time>
      </trkpt>
      <trkpt lat="37.177939" lon="-3.604717">
        <ele>678.997</ele>
        <time>2021-10-12T06:50:25Z</time>
      </trkpt>
      <trkpt lat="37.177903" lon="-3.604799">
        <ele>678.515</ele>
        <time>2021-10-12T06:50:26Z</time>
      </trkpt>
      <trkpt lat="37.177781" lon="-3.604995">
        <ele>678.041</ele>
        <time>2021-10-12T06:50:28Z</time>
      </trkpt>
      <trkpt lat="37.177704" lon="-3.605110">
        <ele>678.434</ele>
        <time>2021-10-12T06:50:29Z</time>
      </trkpt>
      <trkpt lat="37.177631" lon="-3.605216">
        <ele>678.830</ele>
        <time>2021-10-12T06:50:30Z</time>
      </trkpt>
      <trkpt lat="37.177508" lon="-3.605388">
        <ele>679.589</ele>
        <time>2021-10-12T06:50:32Z</time>
      </trkpt>
      <trkpt lat="37.177413" lon="-3.605527">
        <ele>680.429</ele>
        <time>2021-10-12T06:50:34Z</time>
      </trkpt>
      <trkpt lat="37.177369" lon="-3.605590">
        <ele>680.750</ele>
        <time>2021-10-12T06:50:35Z</time>
      </trkpt>
      <trkpt lat="37.177271" lon="-3.605729">
        <ele>681.248</ele>
        <time>2021-10-12T06:50:37Z</time>
      </trkpt>
      <trkpt lat="37.177206" lon="-3.605812">
        <ele>681.161</ele>
        <time>2021-10-12T06:50:38Z</time>
      </trkpt>
      <trkpt lat="37.177054" lon="-3.605982">
        <ele>679.117</ele>
        <time>2021-10-12T06:50:40Z</time>
      </trkpt>
      <trkpt lat="37.176858" lon="-3.606146">
        <ele>677.908</ele>
        <time>2021-10-12T06:50:42Z</time>
      </trkpt>
      <trkpt lat="37.176750" lon="-3.606228">
        <ele>678.042</ele>
        <time>2021-10-12T06:50:43Z</time>
      </trkpt>
      <trkpt lat="37.176645" lon="-3.606301">
        <ele>678.580</ele>
        <time>2021-10-12T06:50:44Z</time>
      </trkpt>
      <trkpt lat="37.176470" lon="-3.606429">
        <ele>677.736</ele>
        <time>2021-10-12T06:50:46Z</time>
      </trkpt>
      <trkpt lat="37.176336" lon="-3.606528">
        <ele>677.799</ele>
        <time>2021-10-12T06:50:48Z</time>
      </trkpt>
      <trkpt lat="37.176285" lon="-3.606558">
        <ele>677.695</ele>
        <time>2021-10-12T06:50:49Z</time>
      </trkpt>
      <trkpt lat="37.176237" lon="-3.606608">
        <ele>677.684</ele>
        <time>2021-10-12T06:50:51Z</time>
      </trkpt>
      <trkpt lat="37.176223" lon="-3.606680">
        <ele>677.884</ele>
        <time>2021-10-12T06:50:53Z</time>
      </trkpt>
      <trkpt lat="37.176237" lon="-3.606746">
        <ele>677.655</ele>
        <time>2021-10-12T06:50:54Z</time>
      </trkpt>
      <trkpt lat="37.176263" lon="-3.606846">
        <ele>677.443</ele>
        <time>2021-10-12T06:50:55Z</time>
      </trkpt>
      <trkpt lat="37.176371" lon="-3.607168">
        <ele>674.764</ele>
        <time>2021-10-12T06:50:57Z</time>
      </trkpt>
      <trkpt lat="37.176425" lon="-3.607342">
        <ele>673.710</ele>
        <time>2021-10-12T06:50:58Z</time>
      </trkpt>
      <trkpt lat="37.176516" lon="-3.607619">
        <ele>673.708</ele>
        <time>2021-10-12T06:51:00Z</time>
      </trkpt>
      <trkpt lat="37.176588" lon="-3.607791">
        <ele>674.722</ele>
        <time>2021-10-12T06:51:02Z</time>
      </trkpt>
      <trkpt lat="37.176652" lon="-3.607835">
        <ele>675.070</ele>
        <time>2021-10-12T06:51:04Z</time>
      </trkpt>
      <trkpt lat="37.176719" lon="-3.607783">
        <ele>675.076</ele>
        <time>2021-10-12T06:51:06Z</time>
      </trkpt>
      <trkpt lat="37.176787" lon="-3.607744">
        <ele>674.769</ele>
        <time>2021-10-12T06:51:07Z</time>
      </trkpt>
      <trkpt lat="37.176882" lon="-3.607691">
        <ele>674.325</ele>
        <time>2021-10-12T06:51:08Z</time>
      </trkpt>
      <trkpt lat="37.177073" lon="-3.607596">
        <ele>674.534</ele>
        <time>2021-10-12T06:51:10Z</time>
      </trkpt>
      <trkpt lat="37.177141" lon="-3.607569">
        <ele>674.714</ele>
        <time>2021-10-12T06:51:11Z</time>
      </trkpt>
      <trkpt lat="37.177218" lon="-3.607572">
        <ele>675.295</ele>
        <time>2021-10-12T06:51:13Z</time>
      </trkpt>
      <trkpt lat="37.177287" lon="-3.607631">
        <ele>676.284</ele>
        <time>2021-10-12T06:51:15Z</time>
      </trkpt>
      <trkpt lat="37.177326" lon="-3.607693">
        <ele>676.807</ele>
        <time>2021-10-12T06:51:16Z</time>
      </trkpt>
      <trkpt lat="37.177364" lon="-3.607793">
        <ele>677.417</ele>
        <time>2021-10-12T06:51:17Z</time>
      </trkpt>
      <trkpt lat="37.177397" lon="-3.607911">
        <ele>677.108</ele>
        <time>2021-10-12T06:51:18Z</time>
      </trkpt>
      <trkpt lat="37.177465" lon="-3.608176">
        <ele>675.936</ele>
        <time>2021-10-12T06:51:20Z</time>
      </trkpt>
      <trkpt lat="37.177542" lon="-3.608454">
        <ele>673.234</ele>
        <time>2021-10-12T06:51:22Z</time>
      </trkpt>
      <trkpt lat="37.177618" lon="-3.608700">
        <ele>671.230</ele>
        <time>2021-10-12T06:51:24Z</time>
      </trkpt>
      <trkpt lat="37.177692" lon="-3.608873">
        <ele>671.453</ele>
        <time>2021-10-12T06:51:26Z</time>
      </trkpt>
      <trkpt lat="37.177723" lon="-3.608986">
        <ele>671.689</ele>
        <time>2021-10-12T06:51:28Z</time>
      </trkpt>
      <trkpt lat="37.177726" lon="-3.609065">
        <ele>671.638</ele>
        <time>2021-10-12T06:51:30Z</time>
      </trkpt>
      <trkpt lat="37.177720" lon="-3.609178">
        <ele>671.578</ele>
        <time>2021-10-12T06:51:32Z</time>
      </trkpt>
      <trkpt lat="37.177732" lon="-3.609233">
        <ele>671.259</ele>
        <time>2021-10-12T06:51:33Z</time>
      </trkpt>
      <trkpt lat="37.177759" lon="-3.609281">
        <ele>671.122</ele>
        <time>2021-10-12T06:51:34Z</time>
      </trkpt>
      <trkpt lat="37.177881" lon="-3.609378">
        <ele>670.862</ele>
        <time>2021-10-12T06:51:36Z</time>
      </trkpt>
      <trkpt lat="37.178049" lon="-3.609459">
        <ele>670.808</ele>
        <time>2021-10-12T06:51:38Z</time>
      </trkpt>
      <trkpt lat="37.178180" lon="-3.609446">
        <ele>667.908</ele>
        <time>2021-10-12T06:51:40Z</time>
      </trkpt>
      <trkpt lat="37.178269" lon="-3.609421">
        <ele>665.820</ele>
        <time>2021-10-12T06:51:42Z</time>
      </trkpt>
      <trkpt lat="37.178324" lon="-3.609448">
        <ele>664.348</ele>
        <time>2021-10-12T06:51:44Z</time>
      </trkpt>
      <trkpt lat="37.178327" lon="-3.609516">
        <ele>664.624</ele>
        <time>2021-10-12T06:51:45Z</time>
      </trkpt>
      <trkpt lat="37.178296" lon="-3.609576">
        <ele>665.577</ele>
        <time>2021-10-12T06:51:47Z</time>
      </trkpt>
      <trkpt lat="37.178269" lon="-3.609632">
        <ele>666.093</ele>
        <time>2021-10-12T06:51:48Z</time>
      </trkpt>
      <trkpt lat="37.178245" lon="-3.609686">
        <ele>666.392</ele>
        <time>2021-10-12T06:51:50Z</time>
      </trkpt>
      <trkpt lat="37.178195" lon="-3.609812">
        <ele>666.772</ele>
        <time>2021-10-12T06:52:02Z</time>
      </trkpt>
      <trkpt lat="37.178117" lon="-3.610005">
        <ele>666.533</ele>
        <time>2021-10-12T06:52:04Z</time>
      </trkpt>
      <trkpt lat="37.178077" lon="-3.610104">
        <ele>666.987</ele>
        <time>2021-10-12T06:52:05Z</time>
      </trkpt>
      <trkpt lat="37.178040" lon="-3.610203">
        <ele>667.442</ele>
        <time>2021-10-12T06:52:06Z</time>
      </trkpt>
      <trkpt lat="37.178002" lon="-3.610302">
        <ele>667.826</ele>
        <time>2021-10-12T06:52:07Z</time>
      </trkpt>
      <trkpt lat="37.177964" lon="-3.610411">
        <ele>668.308</ele>
        <time>2021-10-12T06:52:08Z</time>
      </trkpt>
      <trkpt lat="37.177881" lon="-3.610640">
        <ele>668.456</ele>
        <time>2021-10-12T06:52:10Z</time>
      </trkpt>
      <trkpt lat="37.177832" lon="-3.610760">
        <ele>667.794</ele>
        <time>2021-10-12T06:52:11Z</time>
      </trkpt>
      <trkpt lat="37.177732" lon="-3.611016">
        <ele>667.970</ele>
        <time>2021-10-12T06:52:13Z</time>
      </trkpt>
      <trkpt lat="37.177677" lon="-3.611148">
        <ele>668.553</ele>
        <time>2021-10-12T06:52:14Z</time>
      </trkpt>
      <trkpt lat="37.177571" lon="-3.611419">
        <ele>669.459</ele>
        <time>2021-10-12T06:52:16Z</time>
      </trkpt>
      <trkpt lat="37.177517" lon="-3.611559">
        <ele>669.718</ele>
        <time>2021-10-12T06:52:17Z</time>
      </trkpt>
      <trkpt lat="37.177400" lon="-3.611824">
        <ele>667.628</ele>
        <time>2021-10-12T06:52:19Z</time>
      </trkpt>
      <trkpt lat="37.177342" lon="-3.611965">
        <ele>665.619</ele>
        <time>2021-10-12T06:52:20Z</time>
      </trkpt>
      <trkpt lat="37.177226" lon="-3.612256">
        <ele>660.914</ele>
        <time>2021-10-12T06:52:22Z</time>
      </trkpt>
      <trkpt lat="37.177115" lon="-3.612531">
        <ele>660.354</ele>
        <time>2021-10-12T06:52:24Z</time>
      </trkpt>
      <trkpt lat="37.177066" lon="-3.612657">
        <ele>659.909</ele>
        <time>2021-10-12T06:52:25Z</time>
      </trkpt>
      <trkpt lat="37.177022" lon="-3.612772">
        <ele>659.308</ele>
        <time>2021-10-12T06:52:26Z</time>
      </trkpt>
      <trkpt lat="37.176956" lon="-3.612959">
        <ele>658.479</ele>
        <time>2021-10-12T06:52:28Z</time>
      </trkpt>
      <trkpt lat="37.176914" lon="-3.613121">
        <ele>657.867</ele>
        <time>2021-10-12T06:52:30Z</time>
      </trkpt>
      <trkpt lat="37.176906" lon="-3.613201">
        <ele>657.353</ele>
        <time>2021-10-12T06:52:31Z</time>
      </trkpt>
      <trkpt lat="37.176933" lon="-3.613361">
        <ele>655.926</ele>
        <time>2021-10-12T06:52:33Z</time>
      </trkpt>
      <trkpt lat="37.176963" lon="-3.613540">
        <ele>654.742</ele>
        <time>2021-10-12T06:52:35Z</time>
      </trkpt>
      <trkpt lat="37.176953" lon="-3.613637">
        <ele>653.961</ele>
        <time>2021-10-12T06:52:36Z</time>
      </trkpt>
      <trkpt lat="37.176890" lon="-3.613817">
        <ele>652.771</ele>
        <time>2021-10-12T06:52:38Z</time>
      </trkpt>
      <trkpt lat="37.176814" lon="-3.613957">
        <ele>653.062</ele>
        <time>2021-10-12T06:52:40Z</time>
      </trkpt>
      <trkpt lat="37.176775" lon="-3.614102">
        <ele>654.158</ele>
        <time>2021-10-12T06:52:42Z</time>
      </trkpt>
      <trkpt lat="37.176786" lon="-3.614180">
        <ele>654.752</ele>
        <time>2021-10-12T06:52:43Z</time>
      </trkpt>
      <trkpt lat="37.176818" lon="-3.614249">
        <ele>655.017</ele>
        <time>2021-10-12T06:52:44Z</time>
      </trkpt>
      <trkpt lat="37.176936" lon="-3.614373">
        <ele>655.508</ele>
        <time>2021-10-12T06:52:46Z</time>
      </trkpt>
      <trkpt lat="37.177102" lon="-3.614538">
        <ele>655.393</ele>
        <time>2021-10-12T06:52:48Z</time>
      </trkpt>
      <trkpt lat="37.177200" lon="-3.614639">
        <ele>655.021</ele>
        <time>2021-10-12T06:52:49Z</time>
      </trkpt>
      <trkpt lat="37.177305" lon="-3.614744">
        <ele>654.637</ele>
        <time>2021-10-12T06:52:50Z</time>
      </trkpt>
      <trkpt lat="37.177521" lon="-3.614972">
        <ele>654.010</ele>
        <time>2021-10-12T06:52:52Z</time>
      </trkpt>
      <trkpt lat="37.177628" lon="-3.615095">
        <ele>653.336</ele>
        <time>2021-10-12T06:52:53Z</time>
      </trkpt>
      <trkpt lat="37.177730" lon="-3.615217">
        <ele>653.025</ele>
        <time>2021-10-12T06:52:54Z</time>
      </trkpt>
      <trkpt lat="37.177930" lon="-3.615478">
        <ele>652.995</ele>
        <time>2021-10-12T06:52:56Z</time>
      </trkpt>
      <trkpt lat="37.178034" lon="-3.615623">
        <ele>653.836</ele>
        <time>2021-10-12T06:52:57Z</time>
      </trkpt>
      <trkpt lat="37.178256" lon="-3.615943">
        <ele>655.012</ele>
        <time>2021-10-12T06:52:59Z</time>
      </trkpt>
      <trkpt lat="37.178373" lon="-3.616116">
        <ele>655.832</ele>
        <time>2021-10-12T06:53:00Z</time>
      </trkpt>
      <trkpt lat="37.178620" lon="-3.616482">
        <ele>653.305</ele>
        <time>2021-10-12T06:53:02Z</time>
      </trkpt>
      <trkpt lat="37.178744" lon="-3.616672">
        <ele>652.508</ele>
        <time>2021-10-12T06:53:03Z</time>
      </trkpt>
      <trkpt lat="37.179009" lon="-3.617069">
        <ele>652.999</ele>
        <time>2021-10-12T06:53:05Z</time>
      </trkpt>
      <trkpt lat="37.179149" lon="-3.617277">
        <ele>653.737</ele>
        <time>2021-10-12T06:53:06Z</time>
      </trkpt>
      <trkpt lat="37.179434" lon="-3.617717">
        <ele>652.483</ele>
        <time>2021-10-12T06:53:08Z</time>
      </trkpt>
      <trkpt lat="37.179709" lon="-3.618183">
        <ele>651.476</ele>
        <time>2021-10-12T06:53:10Z</time>
      </trkpt>
      <trkpt lat="37.179986" lon="-3.618682">
        <ele>653.122</ele>
        <time>2021-10-12T06:53:12Z</time>
      </trkpt>
      <trkpt lat="37.180127" lon="-3.618944">
        <ele>651.791</ele>
        <time>2021-10-12T06:53:13Z</time>
      </trkpt>
      <trkpt lat="37.180264" lon="-3.619206">
        <ele>650.091</ele>
        <time>2021-10-12T06:53:14Z</time>
      </trkpt>
      <trkpt lat="37.180530" lon="-3.619745">
        <ele>653.272</ele>
        <time>2021-10-12T06:53:16Z</time>
      </trkpt>
      <trkpt lat="37.180665" lon="-3.620026">
        <ele>652.561</ele>
        <time>2021-10-12T06:53:17Z</time>
      </trkpt>
      <trkpt lat="37.180928" lon="-3.620596">
        <ele>654.821</ele>
        <time>2021-10-12T06:53:19Z</time>
      </trkpt>
      <trkpt lat="37.181064" lon="-3.620891">
        <ele>651.913</ele>
        <time>2021-10-12T06:53:20Z</time>
      </trkpt>
      <trkpt lat="37.181334" lon="-3.621477">
        <ele>650.908</ele>
        <time>2021-10-12T06:53:22Z</time>
      </trkpt>
      <trkpt lat="37.181609" lon="-3.622069">
        <ele>653.644</ele>
        <time>2021-10-12T06:53:24Z</time>
      </trkpt>
      <trkpt lat="37.181749" lon="-3.622369">
        <ele>653.922</ele>
        <time>2021-10-12T06:53:25Z</time>
      </trkpt>
      <trkpt lat="37.181888" lon="-3.622667">
        <ele>654.438</ele>
        <time>2021-10-12T06:53:26Z</time>
      </trkpt>
      <trkpt lat="37.182165" lon="-3.623260">
        <ele>646.881</ele>
        <time>2021-10-12T06:53:28Z</time>
      </trkpt>
      <trkpt lat="37.182308" lon="-3.623565">
        <ele>646.377</ele>
        <time>2021-10-12T06:53:29Z</time>
      </trkpt>
      <trkpt lat="37.182588" lon="-3.624166">
        <ele>646.726</ele>
        <time>2021-10-12T06:53:31Z</time>
      </trkpt>
      <trkpt lat="37.182728" lon="-3.624468">
        <ele>645.786</ele>
        <time>2021-10-12T06:53:32Z</time>
      </trkpt>
      <trkpt lat="37.182866" lon="-3.624765">
        <ele>644.777</ele>
        <time>2021-10-12T06:53:33Z</time>
      </trkpt>
      <trkpt lat="37.183136" lon="-3.625345">
        <ele>644.033</ele>
        <time>2021-10-12T06:53:35Z</time>
      </trkpt>
      <trkpt lat="37.183274" lon="-3.625642">
        <ele>642.423</ele>
        <time>2021-10-12T06:53:36Z</time>
      </trkpt>
      <trkpt lat="37.183549" lon="-3.626247">
        <ele>644.315</ele>
        <time>2021-10-12T06:53:38Z</time>
      </trkpt>
      <trkpt lat="37.183831" lon="-3.626847">
        <ele>642.608</ele>
        <time>2021-10-12T06:53:40Z</time>
      </trkpt>
      <trkpt lat="37.183976" lon="-3.627153">
        <ele>642.371</ele>
        <time>2021-10-12T06:53:41Z</time>
      </trkpt>
      <trkpt lat="37.184261" lon="-3.627759">
        <ele>641.399</ele>
        <time>2021-10-12T06:53:43Z</time>
      </trkpt>
      <trkpt lat="37.184405" lon="-3.628069">
        <ele>639.225</ele>
        <time>2021-10-12T06:53:44Z</time>
      </trkpt>
      <trkpt lat="37.184682" lon="-3.628680">
        <ele>640.128</ele>
        <time>2021-10-12T06:53:46Z</time>
      </trkpt>
      <trkpt lat="37.184824" lon="-3.628991">
        <ele>640.874</ele>
        <time>2021-10-12T06:53:47Z</time>
      </trkpt>
      <trkpt lat="37.184967" lon="-3.629294">
        <ele>641.083</ele>
        <time>2021-10-12T06:53:48Z</time>
      </trkpt>
      <trkpt lat="37.185110" lon="-3.629598">
        <ele>640.683</ele>
        <time>2021-10-12T06:53:49Z</time>
      </trkpt>
      <trkpt lat="37.185254" lon="-3.629901">
        <ele>640.144</ele>
        <time>2021-10-12T06:53:50Z</time>
      </trkpt>
      <trkpt lat="37.185554" lon="-3.630491">
        <ele>636.274</ele>
        <time>2021-10-12T06:53:52Z</time>
      </trkpt>
      <trkpt lat="37.185718" lon="-3.630777">
        <ele>636.056</ele>
        <time>2021-10-12T06:53:53Z</time>
      </trkpt>
      <trkpt lat="37.185894" lon="-3.631049">
        <ele>637.021</ele>
        <time>2021-10-12T06:53:54Z</time>
      </trkpt>
      <trkpt lat="37.186293" lon="-3.631562">
        <ele>638.808</ele>
        <time>2021-10-12T06:53:56Z</time>
      </trkpt>
      <trkpt lat="37.186714" lon="-3.631996">
        <ele>637.965</ele>
        <time>2021-10-12T06:53:58Z</time>
      </trkpt>
      <trkpt lat="37.187166" lon="-3.632385">
        <ele>637.893</ele>
        <time>2021-10-12T06:54:00Z</time>
      </trkpt>
      <trkpt lat="37.187631" lon="-3.632702">
        <ele>640.369</ele>
        <time>2021-10-12T06:54:02Z</time>
      </trkpt>
      <trkpt lat="37.188104" lon="-3.632960">
        <ele>641.692</ele>
        <time>2021-10-12T06:54:04Z</time>
      </trkpt>
      <trkpt lat="37.188585" lon="-3.633140">
        <ele>644.738</ele>
        <time>2021-10-12T06:54:06Z</time>
      </trkpt>
      <trkpt lat="37.188833" lon="-3.633203">
        <ele>644.267</ele>
        <time>2021-10-12T06:54:07Z</time>
      </trkpt>
      <trkpt lat="37.189084" lon="-3.633256">
        <ele>642.217</ele>
        <time>2021-10-12T06:54:08Z</time>
      </trkpt>
      <trkpt lat="37.189577" lon="-3.633322">
        <ele>639.628</ele>
        <time>2021-10-12T06:54:10Z</time>
      </trkpt>
      <trkpt lat="37.190069" lon="-3.633335">
        <ele>639.737</ele>
        <time>2021-10-12T06:54:12Z</time>
      </trkpt>
      <trkpt lat="37.190562" lon="-3.633289">
        <ele>644.049</ele>
        <time>2021-10-12T06:54:14Z</time>
      </trkpt>
      <trkpt lat="37.191052" lon="-3.633193">
        <ele>645.113</ele>
        <time>2021-10-12T06:54:16Z</time>
      </trkpt>
      <trkpt lat="37.191299" lon="-3.633131">
        <ele>644.508</ele>
        <time>2021-10-12T06:54:17Z</time>
      </trkpt>
      <trkpt lat="37.191796" lon="-3.632992">
        <ele>645.161</ele>
        <time>2021-10-12T06:54:19Z</time>
      </trkpt>
      <trkpt lat="37.192049" lon="-3.632920">
        <ele>644.689</ele>
        <time>2021-10-12T06:54:20Z</time>
      </trkpt>
      <trkpt lat="37.192544" lon="-3.632784">
        <ele>642.225</ele>
        <time>2021-10-12T06:54:22Z</time>
      </trkpt>
      <trkpt lat="37.192997" lon="-3.632658">
        <ele>645.948</ele>
        <time>2021-10-12T06:54:24Z</time>
      </trkpt>
      <trkpt lat="37.193212" lon="-3.632599">
        <ele>647.094</ele>
        <time>2021-10-12T06:54:25Z</time>
      </trkpt>
      <trkpt lat="37.193420" lon="-3.632541">
        <ele>648.073</ele>
        <time>2021-10-12T06:54:26Z</time>
      </trkpt>
      <trkpt lat="37.193830" lon="-3.632421">
        <ele>646.323</ele>
        <time>2021-10-12T06:54:28Z</time>
      </trkpt>
      <trkpt lat="37.194228" lon="-3.632303">
        <ele>644.264</ele>
        <time>2021-10-12T06:54:30Z</time>
      </trkpt>
      <trkpt lat="37.194411" lon="-3.632242">
        <ele>644.055</ele>
        <time>2021-10-12T06:54:31Z</time>
      </trkpt>
      <trkpt lat="37.194732" lon="-3.632123">
        <ele>643.707</ele>
        <time>2021-10-12T06:54:33Z</time>
      </trkpt>
      <trkpt lat="37.194878" lon="-3.632067">
        <ele>644.017</ele>
        <time>2021-10-12T06:54:34Z</time>
      </trkpt>
      <trkpt lat="37.195017" lon="-3.632009">
        <ele>644.308</ele>
        <time>2021-10-12T06:54:35Z</time>
      </trkpt>
      <trkpt lat="37.195278" lon="-3.631891">
        <ele>646.033</ele>
        <time>2021-10-12T06:54:37Z</time>
      </trkpt>
      <trkpt lat="37.195402" lon="-3.631830">
        <ele>646.461</ele>
        <time>2021-10-12T06:54:38Z</time>
      </trkpt>
      <trkpt lat="37.195639" lon="-3.631720">
        <ele>646.897</ele>
        <time>2021-10-12T06:54:40Z</time>
      </trkpt>
      <trkpt lat="37.195856" lon="-3.631609">
        <ele>645.780</ele>
        <time>2021-10-12T06:54:42Z</time>
      </trkpt>
      <trkpt lat="37.196037" lon="-3.631454">
        <ele>643.936</ele>
        <time>2021-10-12T06:54:44Z</time>
      </trkpt>
      <trkpt lat="37.196198" lon="-3.631311">
        <ele>643.845</ele>
        <time>2021-10-12T06:54:46Z</time>
      </trkpt>
      <trkpt lat="37.196369" lon="-3.631266">
        <ele>644.455</ele>
        <time>2021-10-12T06:54:48Z</time>
      </trkpt>
      <trkpt lat="37.196553" lon="-3.631330">
        <ele>646.396</ele>
        <time>2021-10-12T06:54:50Z</time>
      </trkpt>
      <trkpt lat="37.196708" lon="-3.631485">
        <ele>649.125</ele>
        <time>2021-10-12T06:54:52Z</time>
      </trkpt>
      <trkpt lat="37.196762" lon="-3.631594">
        <ele>650.326</ele>
        <time>2021-10-12T06:54:53Z</time>
      </trkpt>
      <trkpt lat="37.196801" lon="-3.631714">
        <ele>651.008</ele>
        <time>2021-10-12T06:54:54Z</time>
      </trkpt>
      <trkpt lat="37.196809" lon="-3.632004">
        <ele>650.808</ele>
        <time>2021-10-12T06:54:56Z</time>
      </trkpt>
      <trkpt lat="37.196777" lon="-3.632331">
        <ele>649.680</ele>
        <time>2021-10-12T06:54:58Z</time>
      </trkpt>
      <trkpt lat="37.196829" lon="-3.632677">
        <ele>647.748</ele>
        <time>2021-10-12T06:55:00Z</time>
      </trkpt>
      <trkpt lat="37.196938" lon="-3.633047">
        <ele>645.124</ele>
        <time>2021-10-12T06:55:02Z</time>
      </trkpt>
      <trkpt lat="37.197055" lon="-3.633442">
        <ele>642.627</ele>
        <time>2021-10-12T06:55:04Z</time>
      </trkpt>
      <trkpt lat="37.197110" lon="-3.633647">
        <ele>641.863</ele>
        <time>2021-10-12T06:55:05Z</time>
      </trkpt>
      <trkpt lat="37.197216" lon="-3.634075">
        <ele>639.462</ele>
        <time>2021-10-12T06:55:07Z</time>
      </trkpt>
      <trkpt lat="37.197278" lon="-3.634302">
        <ele>639.182</ele>
        <time>2021-10-12T06:55:08Z</time>
      </trkpt>
      <trkpt lat="37.197415" lon="-3.634760">
        <ele>639.893</ele>
        <time>2021-10-12T06:55:10Z</time>
      </trkpt>
      <trkpt lat="37.197487" lon="-3.635002">
        <ele>640.919</ele>
        <time>2021-10-12T06:55:11Z</time>
      </trkpt>
      <trkpt lat="37.197636" lon="-3.635498">
        <ele>638.809</ele>
        <time>2021-10-12T06:55:13Z</time>
      </trkpt>
      <trkpt lat="37.197713" lon="-3.635759">
        <ele>638.119</ele>
        <time>2021-10-12T06:55:14Z</time>
      </trkpt>
      <trkpt lat="37.197856" lon="-3.636265">
        <ele>639.008</ele>
        <time>2021-10-12T06:55:16Z</time>
      </trkpt>
      <trkpt lat="37.197971" lon="-3.636780">
        <ele>640.039</ele>
        <time>2021-10-12T06:55:18Z</time>
      </trkpt>
      <trkpt lat="37.198010" lon="-3.637043">
        <ele>641.327</ele>
        <time>2021-10-12T06:55:19Z</time>
      </trkpt>
      <trkpt lat="37.198035" lon="-3.637315">
        <ele>642.553</ele>
        <time>2021-10-12T06:55:20Z</time>
      </trkpt>
      <trkpt lat="37.198050" lon="-3.637861">
        <ele>641.776</ele>
        <time>2021-10-12T06:55:22Z</time>
      </trkpt>
      <trkpt lat="37.198040" lon="-3.638139">
        <ele>640.762</ele>
        <time>2021-10-12T06:55:23Z</time>
      </trkpt>
      <trkpt lat="37.198006" lon="-3.638700">
        <ele>638.931</ele>
        <time>2021-10-12T06:55:25Z</time>
      </trkpt>
      <trkpt lat="37.197990" lon="-3.638984">
        <ele>638.591</ele>
        <time>2021-10-12T06:55:26Z</time>
      </trkpt>
      <trkpt lat="37.197968" lon="-3.639559">
        <ele>636.942</ele>
        <time>2021-10-12T06:55:28Z</time>
      </trkpt>
      <trkpt lat="37.197977" lon="-3.640147">
        <ele>635.562</ele>
        <time>2021-10-12T06:55:30Z</time>
      </trkpt>
      <trkpt lat="37.197993" lon="-3.640444">
        <ele>634.683</ele>
        <time>2021-10-12T06:55:31Z</time>
      </trkpt>
      <trkpt lat="37.198048" lon="-3.641043">
        <ele>635.711</ele>
        <time>2021-10-12T06:55:33Z</time>
      </trkpt>
      <trkpt lat="37.198129" lon="-3.641644">
        <ele>635.108</ele>
        <time>2021-10-12T06:55:35Z</time>
      </trkpt>
      <trkpt lat="37.198171" lon="-3.641948">
        <ele>635.054</ele>
        <time>2021-10-12T06:55:36Z</time>
      </trkpt>
      <trkpt lat="37.198246" lon="-3.642564">
        <ele>633.312</ele>
        <time>2021-10-12T06:55:38Z</time>
      </trkpt>
      <trkpt lat="37.198292" lon="-3.643186">
        <ele>632.018</ele>
        <time>2021-10-12T06:55:40Z</time>
      </trkpt>
      <trkpt lat="37.198320" lon="-3.643824">
        <ele>632.011</ele>
        <time>2021-10-12T06:55:42Z</time>
      </trkpt>
      <trkpt lat="37.198332" lon="-3.644469">
        <ele>633.067</ele>
        <time>2021-10-12T06:55:44Z</time>
      </trkpt>
      <trkpt lat="37.198286" lon="-3.645118">
        <ele>630.886</ele>
        <time>2021-10-12T06:55:46Z</time>
      </trkpt>
      <trkpt lat="37.198180" lon="-3.645746">
        <ele>629.166</ele>
        <time>2021-10-12T06:55:48Z</time>
      </trkpt>
      <trkpt lat="37.198026" lon="-3.646349">
        <ele>629.647</ele>
        <time>2021-10-12T06:55:50Z</time>
      </trkpt>
      <trkpt lat="37.197823" lon="-3.646931">
        <ele>631.828</ele>
        <time>2021-10-12T06:55:52Z</time>
      </trkpt>
      <trkpt lat="37.197706" lon="-3.647216">
        <ele>629.589</ele>
        <time>2021-10-12T06:55:53Z</time>
      </trkpt>
      <trkpt lat="37.197449" lon="-3.647764">
        <ele>628.217</ele>
        <time>2021-10-12T06:55:55Z</time>
      </trkpt>
      <trkpt lat="37.197154" lon="-3.648261">
        <ele>624.808</ele>
        <time>2021-10-12T06:55:57Z</time>
      </trkpt>
      <trkpt lat="37.196833" lon="-3.648698">
        <ele>622.710</ele>
        <time>2021-10-12T06:55:59Z</time>
      </trkpt>
      <trkpt lat="37.196668" lon="-3.648911">
        <ele>622.018</ele>
        <time>2021-10-12T06:56:00Z</time>
      </trkpt>
      <trkpt lat="37.196337" lon="-3.649334">
        <ele>622.284</ele>
        <time>2021-10-12T06:56:02Z</time>
      </trkpt>
      <trkpt lat="37.196165" lon="-3.649545">
        <ele>621.087</ele>
        <time>2021-10-12T06:56:03Z</time>
      </trkpt>
      <trkpt lat="37.195819" lon="-3.649980">
        <ele>620.963</ele>
        <time>2021-10-12T06:56:05Z</time>
      </trkpt>
      <trkpt lat="37.195463" lon="-3.650442">
        <ele>619.542</ele>
        <time>2021-10-12T06:56:07Z</time>
      </trkpt>
      <trkpt lat="37.195276" lon="-3.650685">
        <ele>618.512</ele>
        <time>2021-10-12T06:56:08Z</time>
      </trkpt>
      <trkpt lat="37.194899" lon="-3.651175">
        <ele>616.723</ele>
        <time>2021-10-12T06:56:10Z</time>
      </trkpt>
      <trkpt lat="37.194700" lon="-3.651434">
        <ele>619.368</ele>
        <time>2021-10-12T06:56:11Z</time>
      </trkpt>
      <trkpt lat="37.194304" lon="-3.651957">
        <ele>618.642</ele>
        <time>2021-10-12T06:56:13Z</time>
      </trkpt>
      <trkpt lat="37.194100" lon="-3.652226">
        <ele>618.326</ele>
        <time>2021-10-12T06:56:14Z</time>
      </trkpt>
      <trkpt lat="37.193697" lon="-3.652758">
        <ele>615.208</ele>
        <time>2021-10-12T06:56:16Z</time>
      </trkpt>
      <trkpt lat="37.193310" lon="-3.653317">
        <ele>614.934</ele>
        <time>2021-10-12T06:56:18Z</time>
      </trkpt>
      <trkpt lat="37.192956" lon="-3.653906">
        <ele>614.622</ele>
        <time>2021-10-12T06:56:20Z</time>
      </trkpt>
      <trkpt lat="37.192651" lon="-3.654511">
        <ele>612.768</ele>
        <time>2021-10-12T06:56:22Z</time>
      </trkpt>
      <trkpt lat="37.192519" lon="-3.654834">
        <ele>611.081</ele>
        <time>2021-10-12T06:56:23Z</time>
      </trkpt>
      <trkpt lat="37.192289" lon="-3.655497">
        <ele>610.837</ele>
        <time>2021-10-12T06:56:25Z</time>
      </trkpt>
      <trkpt lat="37.192186" lon="-3.655839">
        <ele>610.166</ele>
        <time>2021-10-12T06:56:26Z</time>
      </trkpt>
      <trkpt lat="37.192012" lon="-3.656529">
        <ele>610.886</ele>
        <time>2021-10-12T06:56:28Z</time>
      </trkpt>
      <trkpt lat="37.191940" lon="-3.656880">
        <ele>608.767</ele>
        <time>2021-10-12T06:56:29Z</time>
      </trkpt>
      <trkpt lat="37.191822" lon="-3.657591">
        <ele>605.058</ele>
        <time>2021-10-12T06:56:31Z</time>
      </trkpt>
      <trkpt lat="37.191745" lon="-3.658313">
        <ele>607.352</ele>
        <time>2021-10-12T06:56:33Z</time>
      </trkpt>
      <trkpt lat="37.191706" lon="-3.659041">
        <ele>608.017</ele>
        <time>2021-10-12T06:56:35Z</time>
      </trkpt>
      <trkpt lat="37.191686" lon="-3.659786">
        <ele>607.108</ele>
        <time>2021-10-12T06:56:37Z</time>
      </trkpt>
      <trkpt lat="37.191679" lon="-3.660158">
        <ele>606.583</ele>
        <time>2021-10-12T06:56:38Z</time>
      </trkpt>
      <trkpt lat="37.191665" lon="-3.660887">
        <ele>607.091</ele>
        <time>2021-10-12T06:56:40Z</time>
      </trkpt>
      <trkpt lat="37.191653" lon="-3.661257">
        <ele>607.077</ele>
        <time>2021-10-12T06:56:41Z</time>
      </trkpt>
      <trkpt lat="37.191640" lon="-3.661625">
        <ele>607.180</ele>
        <time>2021-10-12T06:56:42Z</time>
      </trkpt>
      <trkpt lat="37.191597" lon="-3.662365">
        <ele>608.356</ele>
        <time>2021-10-12T06:56:44Z</time>
      </trkpt>
      <trkpt lat="37.191561" lon="-3.663094">
        <ele>606.335</ele>
        <time>2021-10-12T06:56:46Z</time>
      </trkpt>
      <trkpt lat="37.191557" lon="-3.663466">
        <ele>604.115</ele>
        <time>2021-10-12T06:56:47Z</time>
      </trkpt>
      <trkpt lat="37.191593" lon="-3.664204">
        <ele>603.776</ele>
        <time>2021-10-12T06:56:49Z</time>
      </trkpt>
      <trkpt lat="37.191650" lon="-3.664579">
        <ele>603.934</ele>
        <time>2021-10-12T06:56:50Z</time>
      </trkpt>
      <trkpt lat="37.191790" lon="-3.665297">
        <ele>603.455</ele>
        <time>2021-10-12T06:56:52Z</time>
      </trkpt>
      <trkpt lat="37.191864" lon="-3.665661">
        <ele>603.010</ele>
        <time>2021-10-12T06:56:53Z</time>
      </trkpt>
      <trkpt lat="37.192000" lon="-3.666389">
        <ele>601.008</ele>
        <time>2021-10-12T06:56:55Z</time>
      </trkpt>
      <trkpt lat="37.192068" lon="-3.666757">
        <ele>602.521</ele>
        <time>2021-10-12T06:56:56Z</time>
      </trkpt>
      <trkpt lat="37.192134" lon="-3.667121">
        <ele>603.819</ele>
        <time>2021-10-12T06:56:57Z</time>
      </trkpt>
      <trkpt lat="37.192259" lon="-3.667845">
        <ele>600.555</ele>
        <time>2021-10-12T06:56:59Z</time>
      </trkpt>
      <trkpt lat="37.192362" lon="-3.668578">
        <ele>600.938</ele>
        <time>2021-10-12T06:57:01Z</time>
      </trkpt>
      <trkpt lat="37.192396" lon="-3.668955">
        <ele>602.264</ele>
        <time>2021-10-12T06:57:02Z</time>
      </trkpt>
      <trkpt lat="37.192413" lon="-3.669333">
        <ele>603.673</ele>
        <time>2021-10-12T06:57:03Z</time>
      </trkpt>
      <trkpt lat="37.192416" lon="-3.669716">
        <ele>604.073</ele>
        <time>2021-10-12T06:57:04Z</time>
      </trkpt>
      <trkpt lat="37.192416" lon="-3.670486">
        <ele>601.014</ele>
        <time>2021-10-12T06:57:06Z</time>
      </trkpt>
      <trkpt lat="37.192421" lon="-3.671258">
        <ele>599.955</ele>
        <time>2021-10-12T06:57:08Z</time>
      </trkpt>
      <trkpt lat="37.192425" lon="-3.672020">
        <ele>599.507</ele>
        <time>2021-10-12T06:57:10Z</time>
      </trkpt>
      <trkpt lat="37.192427" lon="-3.672416">
        <ele>599.017</ele>
        <time>2021-10-12T06:57:11Z</time>
      </trkpt>
      <trkpt lat="37.192428" lon="-3.672812">
        <ele>599.408</ele>
        <time>2021-10-12T06:57:12Z</time>
      </trkpt>
      <trkpt lat="37.192433" lon="-3.673622">
        <ele>600.313</ele>
        <time>2021-10-12T06:57:14Z</time>
      </trkpt>
      <trkpt lat="37.192440" lon="-3.674429">
        <ele>603.781</ele>
        <time>2021-10-12T06:57:16Z</time>
      </trkpt>
      <trkpt lat="37.192444" lon="-3.674840">
        <ele>602.767</ele>
        <time>2021-10-12T06:57:17Z</time>
      </trkpt>
      <trkpt lat="37.192448" lon="-3.675246">
        <ele>601.970</ele>
        <time>2021-10-12T06:57:18Z</time>
      </trkpt>
      <trkpt lat="37.192452" lon="-3.675652">
        <ele>599.376</ele>
        <time>2021-10-12T06:57:19Z</time>
      </trkpt>
      <trkpt lat="37.192456" lon="-3.676064">
        <ele>597.335</ele>
        <time>2021-10-12T06:57:20Z</time>
      </trkpt>
      <trkpt lat="37.192464" lon="-3.676870">
        <ele>598.915</ele>
        <time>2021-10-12T06:57:22Z</time>
      </trkpt>
      <trkpt lat="37.192472" lon="-3.677692">
        <ele>592.766</ele>
        <time>2021-10-12T06:57:24Z</time>
      </trkpt>
      <trkpt lat="37.192487" lon="-3.678519">
        <ele>594.865</ele>
        <time>2021-10-12T06:57:26Z</time>
      </trkpt>
      <trkpt lat="37.192501" lon="-3.679306">
        <ele>597.068</ele>
        <time>2021-10-12T06:57:28Z</time>
      </trkpt>
      <trkpt lat="37.192511" lon="-3.680096">
        <ele>596.314</ele>
        <time>2021-10-12T06:57:30Z</time>
      </trkpt>
      <trkpt lat="37.192514" lon="-3.680488">
        <ele>596.908</ele>
        <time>2021-10-12T06:57:31Z</time>
      </trkpt>
      <trkpt lat="37.192520" lon="-3.681262">
        <ele>598.334</ele>
        <time>2021-10-12T06:57:33Z</time>
      </trkpt>
      <trkpt lat="37.192522" lon="-3.681650">
        <ele>597.832</ele>
        <time>2021-10-12T06:57:34Z</time>
      </trkpt>
      <trkpt lat="37.192524" lon="-3.682036">
        <ele>596.918</ele>
        <time>2021-10-12T06:57:35Z</time>
      </trkpt>
      <trkpt lat="37.192527" lon="-3.682424">
        <ele>596.951</ele>
        <time>2021-10-12T06:57:36Z</time>
      </trkpt>
      <trkpt lat="37.192530" lon="-3.682813">
        <ele>596.787</ele>
        <time>2021-10-12T06:57:37Z</time>
      </trkpt>
      <trkpt lat="37.192533" lon="-3.683199">
        <ele>594.896</ele>
        <time>2021-10-12T06:57:38Z</time>
      </trkpt>
      <trkpt lat="37.192539" lon="-3.683980">
        <ele>593.946</ele>
        <time>2021-10-12T06:57:40Z</time>
      </trkpt>
      <trkpt lat="37.192541" lon="-3.684375">
        <ele>593.377</ele>
        <time>2021-10-12T06:57:41Z</time>
      </trkpt>
      <trkpt lat="37.192545" lon="-3.685172">
        <ele>592.184</ele>
        <time>2021-10-12T06:57:43Z</time>
      </trkpt>
      <trkpt lat="37.192547" lon="-3.685585">
        <ele>592.307</ele>
        <time>2021-10-12T06:57:44Z</time>
      </trkpt>
      <trkpt lat="37.192552" lon="-3.686388">
        <ele>592.217</ele>
        <time>2021-10-12T06:57:46Z</time>
      </trkpt>
      <trkpt lat="37.192558" lon="-3.687203">
        <ele>593.308</ele>
        <time>2021-10-12T06:57:48Z</time>
      </trkpt>
      <trkpt lat="37.192561" lon="-3.687610">
        <ele>594.366</ele>
        <time>2021-10-12T06:57:49Z</time>
      </trkpt>
      <trkpt lat="37.192564" lon="-3.688020">
        <ele>594.994</ele>
        <time>2021-10-12T06:57:50Z</time>
      </trkpt>
      <trkpt lat="37.192570" lon="-3.688823">
        <ele>591.410</ele>
        <time>2021-10-12T06:57:52Z</time>
      </trkpt>
      <trkpt lat="37.192576" lon="-3.689623">
        <ele>591.093</ele>
        <time>2021-10-12T06:57:54Z</time>
      </trkpt>
      <trkpt lat="37.192589" lon="-3.690422">
        <ele>592.759</ele>
        <time>2021-10-12T06:57:56Z</time>
      </trkpt>
      <trkpt lat="37.192599" lon="-3.690828">
        <ele>592.618</ele>
        <time>2021-10-12T06:57:57Z</time>
      </trkpt>
      <trkpt lat="37.192638" lon="-3.691629">
        <ele>589.778</ele>
        <time>2021-10-12T06:57:59Z</time>
      </trkpt>
      <trkpt lat="37.192665" lon="-3.692028">
        <ele>588.049</ele>
        <time>2021-10-12T06:58:00Z</time>
      </trkpt>
      <trkpt lat="37.192693" lon="-3.692429">
        <ele>587.261</ele>
        <time>2021-10-12T06:58:01Z</time>
      </trkpt>
      <trkpt lat="37.192756" lon="-3.693224">
        <ele>586.621</ele>
        <time>2021-10-12T06:58:03Z</time>
      </trkpt>
      <trkpt lat="37.192787" lon="-3.693623">
        <ele>588.113</ele>
        <time>2021-10-12T06:58:04Z</time>
      </trkpt>
      <trkpt lat="37.192818" lon="-3.694022">
        <ele>589.908</ele>
        <time>2021-10-12T06:58:05Z</time>
      </trkpt>
      <trkpt lat="37.192848" lon="-3.694423">
        <ele>590.064</ele>
        <time>2021-10-12T06:58:06Z</time>
      </trkpt>
      <trkpt lat="37.192903" lon="-3.695224">
        <ele>589.852</ele>
        <time>2021-10-12T06:58:08Z</time>
      </trkpt>
      <trkpt lat="37.192958" lon="-3.696012">
        <ele>588.998</ele>
        <time>2021-10-12T06:58:10Z</time>
      </trkpt>
      <trkpt lat="37.192988" lon="-3.696409">
        <ele>586.981</ele>
        <time>2021-10-12T06:58:11Z</time>
      </trkpt>
      <trkpt lat="37.193050" lon="-3.697200">
        <ele>586.167</ele>
        <time>2021-10-12T06:58:13Z</time>
      </trkpt>
      <trkpt lat="37.193083" lon="-3.697601">
        <ele>584.756</ele>
        <time>2021-10-12T06:58:14Z</time>
      </trkpt>
      <trkpt lat="37.193144" lon="-3.698378">
        <ele>584.186</ele>
        <time>2021-10-12T06:58:16Z</time>
      </trkpt>
      <trkpt lat="37.193195" lon="-3.699158">
        <ele>585.087</ele>
        <time>2021-10-12T06:58:18Z</time>
      </trkpt>
      <trkpt lat="37.193195" lon="-3.699945">
        <ele>586.878</ele>
        <time>2021-10-12T06:58:20Z</time>
      </trkpt>
      <trkpt lat="37.193145" lon="-3.700716">
        <ele>585.233</ele>
        <time>2021-10-12T06:58:22Z</time>
      </trkpt>
      <trkpt lat="37.193094" lon="-3.701494">
        <ele>583.226</ele>
        <time>2021-10-12T06:58:24Z</time>
      </trkpt>
      <trkpt lat="37.193049" lon="-3.702225">
        <ele>583.008</ele>
        <time>2021-10-12T06:58:26Z</time>
      </trkpt>
      <trkpt lat="37.193032" lon="-3.702567">
        <ele>583.295</ele>
        <time>2021-10-12T06:58:27Z</time>
      </trkpt>
      <trkpt lat="37.193012" lon="-3.702892">
        <ele>584.053</ele>
        <time>2021-10-12T06:58:28Z</time>
      </trkpt>
      <trkpt lat="37.192973" lon="-3.703525">
        <ele>583.569</ele>
        <time>2021-10-12T06:58:30Z</time>
      </trkpt>
      <trkpt lat="37.192949" lon="-3.703834">
        <ele>583.962</ele>
        <time>2021-10-12T06:58:31Z</time>
      </trkpt>
      <trkpt lat="37.192926" lon="-3.704125">
        <ele>584.418</ele>
        <time>2021-10-12T06:58:32Z</time>
      </trkpt>
      <trkpt lat="37.192875" lon="-3.704656">
        <ele>584.247</ele>
        <time>2021-10-12T06:58:34Z</time>
      </trkpt>
      <trkpt lat="37.192826" lon="-3.705140">
        <ele>583.917</ele>
        <time>2021-10-12T06:58:36Z</time>
      </trkpt>
      <trkpt lat="37.192805" lon="-3.705376">
        <ele>583.998</ele>
        <time>2021-10-12T06:58:37Z</time>
      </trkpt>
      <trkpt lat="37.192763" lon="-3.705836">
        <ele>583.184</ele>
        <time>2021-10-12T06:58:39Z</time>
      </trkpt>
      <trkpt lat="37.192707" lon="-3.706320">
        <ele>582.507</ele>
        <time>2021-10-12T06:58:41Z</time>
      </trkpt>
      <trkpt lat="37.192655" lon="-3.706808">
        <ele>581.917</ele>
        <time>2021-10-12T06:58:43Z</time>
      </trkpt>
      <trkpt lat="37.192635" lon="-3.707042">
        <ele>581.308</ele>
        <time>2021-10-12T06:58:44Z</time>
      </trkpt>
      <trkpt lat="37.192608" lon="-3.707431">
        <ele>581.276</ele>
        <time>2021-10-12T06:58:46Z</time>
      </trkpt>
      <trkpt lat="37.192587" lon="-3.707752">
        <ele>582.044</ele>
        <time>2021-10-12T06:58:48Z</time>
      </trkpt>
      <trkpt lat="37.192571" lon="-3.708004">
        <ele>581.670</ele>
        <time>2021-10-12T06:58:50Z</time>
      </trkpt>
      <trkpt lat="37.192559" lon="-3.708215">
        <ele>581.653</ele>
        <time>2021-10-12T06:58:52Z</time>
      </trkpt>
      <trkpt lat="37.192562" lon="-3.708401">
        <ele>581.439</ele>
        <time>2021-10-12T06:58:54Z</time>
      </trkpt>
      <trkpt lat="37.192580" lon="-3.708497">
        <ele>581.048</ele>
        <time>2021-10-12T06:58:55Z</time>
      </trkpt>
      <trkpt lat="37.192611" lon="-3.708595">
        <ele>580.658</ele>
        <time>2021-10-12T06:58:56Z</time>
      </trkpt>
      <trkpt lat="37.192665" lon="-3.708778">
        <ele>580.889</ele>
        <time>2021-10-12T06:58:58Z</time>
      </trkpt>
      <trkpt lat="37.192685" lon="-3.708875">
        <ele>581.043</ele>
        <time>2021-10-12T06:58:59Z</time>
      </trkpt>
      <trkpt lat="37.192735" lon="-3.709055">
        <ele>581.664</ele>
        <time>2021-10-12T06:59:01Z</time>
      </trkpt>
      <trkpt lat="37.192787" lon="-3.709139">
        <ele>581.910</ele>
        <time>2021-10-12T06:59:03Z</time>
      </trkpt>
      <trkpt lat="37.192827" lon="-3.709190">
        <ele>581.808</ele>
        <time>2021-10-12T06:59:06Z</time>
      </trkpt>
      <trkpt lat="37.192842" lon="-3.709262">
        <ele>581.852</ele>
        <time>2021-10-12T06:59:14Z</time>
      </trkpt>
      <trkpt lat="37.192879" lon="-3.709314">
        <ele>581.670</ele>
        <time>2021-10-12T07:06:04Z</time>
      </trkpt>
      <trkpt lat="37.192831" lon="-3.709336">
        <ele>581.836</ele>
        <time>2021-10-12T07:06:08Z</time>
      </trkpt>
      <trkpt lat="37.192771" lon="-3.709343">
        <ele>582.069</ele>
        <time>2021-10-12T07:06:39Z</time>
      </trkpt>
      <trkpt lat="37.192723" lon="-3.709323">
        <ele>581.965</ele>
        <time>2021-10-12T07:12:10Z</time>
      </trkpt>
      <trkpt lat="37.192696" lon="-3.709371">
        <ele>581.824</ele>
        <time>2021-10-12T07:14:39Z</time>
      </trkpt>
      <trkpt lat="37.192625" lon="-3.709358">
        <ele>581.664</ele>
        <time>2021-10-12T07:15:04Z</time>
      </trkpt>
      <trkpt lat="37.192578" lon="-3.709368">
        <ele>581.565</ele>
        <time>2021-10-12T07:15:06Z</time>
      </trkpt>
      <trkpt lat="37.192553" lon="-3.709497">
        <ele>581.291</ele>
        <time>2021-10-12T07:15:08Z</time>
      </trkpt>
      <trkpt lat="37.192553" lon="-3.709697">
        <ele>581.081</ele>
        <time>2021-10-12T07:15:10Z</time>
      </trkpt>
      <trkpt lat="37.192554" lon="-3.709813">
        <ele>580.919</ele>
        <time>2021-10-12T07:15:11Z</time>
      </trkpt>
      <trkpt lat="37.192553" lon="-3.709933">
        <ele>580.908</ele>
        <time>2021-10-12T07:15:12Z</time>
      </trkpt>
      <trkpt lat="37.192549" lon="-3.710040">
        <ele>580.827</ele>
        <time>2021-10-12T07:15:13Z</time>
      </trkpt>
      <trkpt lat="37.192545" lon="-3.710133">
        <ele>580.995</ele>
        <time>2021-10-12T07:15:14Z</time>
      </trkpt>
      <trkpt lat="37.192545" lon="-3.710285">
        <ele>581.061</ele>
        <time>2021-10-12T07:15:16Z</time>
      </trkpt>
      <trkpt lat="37.192545" lon="-3.710355">
        <ele>581.294</ele>
        <time>2021-10-12T07:15:17Z</time>
      </trkpt>
      <trkpt lat="37.192545" lon="-3.710436">
        <ele>581.570</ele>
        <time>2021-10-12T07:15:18Z</time>
      </trkpt>
      <trkpt lat="37.192546" lon="-3.710599">
        <ele>581.799</ele>
        <time>2021-10-12T07:15:20Z</time>
      </trkpt>
      <trkpt lat="37.192544" lon="-3.710745">
        <ele>581.359</ele>
        <time>2021-10-12T07:15:22Z</time>
      </trkpt>
      <trkpt lat="37.192545" lon="-3.710814">
        <ele>581.170</ele>
        <time>2021-10-12T07:15:23Z</time>
      </trkpt>
      <trkpt lat="37.192543" lon="-3.710958">
        <ele>580.619</ele>
        <time>2021-10-12T07:15:25Z</time>
      </trkpt>
      <trkpt lat="37.192537" lon="-3.711136">
        <ele>580.109</ele>
        <time>2021-10-12T07:15:27Z</time>
      </trkpt>
      <trkpt lat="37.192538" lon="-3.711349">
        <ele>580.919</ele>
        <time>2021-10-12T07:15:29Z</time>
      </trkpt>
      <trkpt lat="37.192539" lon="-3.711466">
        <ele>581.308</ele>
        <time>2021-10-12T07:15:30Z</time>
      </trkpt>
      <trkpt lat="37.192540" lon="-3.711590">
        <ele>581.849</ele>
        <time>2021-10-12T07:15:31Z</time>
      </trkpt>
      <trkpt lat="37.192541" lon="-3.711719">
        <ele>582.337</ele>
        <time>2021-10-12T07:15:32Z</time>
      </trkpt>
      <trkpt lat="37.192542" lon="-3.711853">
        <ele>582.833</ele>
        <time>2021-10-12T07:15:33Z</time>
      </trkpt>
      <trkpt lat="37.192548" lon="-3.712125">
        <ele>582.626</ele>
        <time>2021-10-12T07:15:35Z</time>
      </trkpt>
      <trkpt lat="37.192552" lon="-3.712261">
        <ele>582.252</ele>
        <time>2021-10-12T07:15:36Z</time>
      </trkpt>
      <trkpt lat="37.192558" lon="-3.712393">
        <ele>581.541</ele>
        <time>2021-10-12T07:15:37Z</time>
      </trkpt>
      <trkpt lat="37.192566" lon="-3.712509">
        <ele>581.041</ele>
        <time>2021-10-12T07:15:38Z</time>
      </trkpt>
      <trkpt lat="37.192589" lon="-3.712695">
        <ele>580.862</ele>
        <time>2021-10-12T07:15:40Z</time>
      </trkpt>
      <trkpt lat="37.192606" lon="-3.712797">
        <ele>580.685</ele>
        <time>2021-10-12T07:15:42Z</time>
      </trkpt>
      <trkpt lat="37.192601" lon="-3.712927">
        <ele>580.689</ele>
        <time>2021-10-12T07:15:56Z</time>
      </trkpt>
      <trkpt lat="37.192588" lon="-3.713210">
        <ele>580.717</ele>
        <time>2021-10-12T07:15:58Z</time>
      </trkpt>
      <trkpt lat="37.192589" lon="-3.713405">
        <ele>580.508</ele>
        <time>2021-10-12T07:15:59Z</time>
      </trkpt>
      <trkpt lat="37.192602" lon="-3.713852">
        <ele>580.376</ele>
        <time>2021-10-12T07:16:01Z</time>
      </trkpt>
      <trkpt lat="37.192610" lon="-3.714324">
        <ele>580.794</ele>
        <time>2021-10-12T07:16:03Z</time>
      </trkpt>
      <trkpt lat="37.192613" lon="-3.714565">
        <ele>580.290</ele>
        <time>2021-10-12T07:16:04Z</time>
      </trkpt>
      <trkpt lat="37.192623" lon="-3.715022">
        <ele>580.033</ele>
        <time>2021-10-12T07:16:06Z</time>
      </trkpt>
      <trkpt lat="37.192628" lon="-3.715220">
        <ele>580.019</ele>
        <time>2021-10-12T07:16:07Z</time>
      </trkpt>
      <trkpt lat="37.192633" lon="-3.715400">
        <ele>580.028</ele>
        <time>2021-10-12T07:16:08Z</time>
      </trkpt>
      <trkpt lat="37.192639" lon="-3.715685">
        <ele>580.528</ele>
        <time>2021-10-12T07:16:10Z</time>
      </trkpt>
      <trkpt lat="37.192642" lon="-3.715808">
        <ele>580.959</ele>
        <time>2021-10-12T07:16:11Z</time>
      </trkpt>
      <trkpt lat="37.192645" lon="-3.716007">
        <ele>581.669</ele>
        <time>2021-10-12T07:16:13Z</time>
      </trkpt>
      <trkpt lat="37.192646" lon="-3.716088">
        <ele>581.904</ele>
        <time>2021-10-12T07:16:14Z</time>
      </trkpt>
      <trkpt lat="37.192647" lon="-3.716182">
        <ele>582.124</ele>
        <time>2021-10-12T07:16:16Z</time>
      </trkpt>
      <trkpt lat="37.192647" lon="-3.716304">
        <ele>582.408</ele>
        <time>2021-10-12T07:16:18Z</time>
      </trkpt>
      <trkpt lat="37.192639" lon="-3.716526">
        <ele>581.844</ele>
        <time>2021-10-12T07:16:20Z</time>
      </trkpt>
      <trkpt lat="37.192633" lon="-3.716864">
        <ele>580.372</ele>
        <time>2021-10-12T07:16:22Z</time>
      </trkpt>
      <trkpt lat="37.192639" lon="-3.717246">
        <ele>579.638</ele>
        <time>2021-10-12T07:16:24Z</time>
      </trkpt>
      <trkpt lat="37.192652" lon="-3.717586">
        <ele>580.531</ele>
        <time>2021-10-12T07:16:26Z</time>
      </trkpt>
      <trkpt lat="37.192688" lon="-3.717890">
        <ele>580.437</ele>
        <time>2021-10-12T07:16:28Z</time>
      </trkpt>
      <trkpt lat="37.192708" lon="-3.718184">
        <ele>579.446</ele>
        <time>2021-10-12T07:16:30Z</time>
      </trkpt>
      <trkpt lat="37.192681" lon="-3.718525">
        <ele>578.776</ele>
        <time>2021-10-12T07:16:32Z</time>
      </trkpt>
      <trkpt lat="37.192676" lon="-3.718733">
        <ele>578.317</ele>
        <time>2021-10-12T07:16:33Z</time>
      </trkpt>
      <trkpt lat="37.192682" lon="-3.719218">
        <ele>578.392</ele>
        <time>2021-10-12T07:16:35Z</time>
      </trkpt>
      <trkpt lat="37.192688" lon="-3.719480">
        <ele>578.273</ele>
        <time>2021-10-12T07:16:36Z</time>
      </trkpt>
      <trkpt lat="37.192697" lon="-3.720034">
        <ele>576.020</ele>
        <time>2021-10-12T07:16:38Z</time>
      </trkpt>
      <trkpt lat="37.192706" lon="-3.720532">
        <ele>575.808</ele>
        <time>2021-10-12T07:16:40Z</time>
      </trkpt>
      <trkpt lat="37.192707" lon="-3.720760">
        <ele>575.447</ele>
        <time>2021-10-12T07:16:41Z</time>
      </trkpt>
      <trkpt lat="37.192690" lon="-3.721198">
        <ele>575.375</ele>
        <time>2021-10-12T07:16:43Z</time>
      </trkpt>
      <trkpt lat="37.192674" lon="-3.721423">
        <ele>575.551</ele>
        <time>2021-10-12T07:16:44Z</time>
      </trkpt>
      <trkpt lat="37.192625" lon="-3.721885">
        <ele>576.814</ele>
        <time>2021-10-12T07:16:46Z</time>
      </trkpt>
      <trkpt lat="37.192596" lon="-3.722134">
        <ele>577.040</ele>
        <time>2021-10-12T07:16:47Z</time>
      </trkpt>
      <trkpt lat="37.192547" lon="-3.722662">
        <ele>575.359</ele>
        <time>2021-10-12T07:16:49Z</time>
      </trkpt>
      <trkpt lat="37.192515" lon="-3.722950">
        <ele>574.489</ele>
        <time>2021-10-12T07:16:50Z</time>
      </trkpt>
      <trkpt lat="37.192427" lon="-3.723508">
        <ele>575.070</ele>
        <time>2021-10-12T07:16:52Z</time>
      </trkpt>
      <trkpt lat="37.192370" lon="-3.723797">
        <ele>574.676</ele>
        <time>2021-10-12T07:16:53Z</time>
      </trkpt>
      <trkpt lat="37.192306" lon="-3.724088">
        <ele>575.290</ele>
        <time>2021-10-12T07:16:54Z</time>
      </trkpt>
      <trkpt lat="37.192163" lon="-3.724679">
        <ele>575.119</ele>
        <time>2021-10-12T07:16:56Z</time>
      </trkpt>
      <trkpt lat="37.192083" lon="-3.724983">
        <ele>575.008</ele>
        <time>2021-10-12T07:16:57Z</time>
      </trkpt>
      <trkpt lat="37.191905" lon="-3.725611">
        <ele>573.955</ele>
        <time>2021-10-12T07:16:59Z</time>
      </trkpt>
      <trkpt lat="37.191725" lon="-3.726240">
        <ele>573.143</ele>
        <time>2021-10-12T07:17:01Z</time>
      </trkpt>
      <trkpt lat="37.191634" lon="-3.726561">
        <ele>572.959</ele>
        <time>2021-10-12T07:17:02Z</time>
      </trkpt>
      <trkpt lat="37.191454" lon="-3.727204">
        <ele>572.252</ele>
        <time>2021-10-12T07:17:04Z</time>
      </trkpt>
      <trkpt lat="37.191273" lon="-3.727854">
        <ele>572.058</ele>
        <time>2021-10-12T07:17:06Z</time>
      </trkpt>
      <trkpt lat="37.191089" lon="-3.728515">
        <ele>570.997</ele>
        <time>2021-10-12T07:17:08Z</time>
      </trkpt>
      <trkpt lat="37.190909" lon="-3.729162">
        <ele>572.087</ele>
        <time>2021-10-12T07:17:10Z</time>
      </trkpt>
      <trkpt lat="37.190819" lon="-3.729488">
        <ele>570.938</ele>
        <time>2021-10-12T07:17:11Z</time>
      </trkpt>
      <trkpt lat="37.190654" lon="-3.730137">
        <ele>570.824</ele>
        <time>2021-10-12T07:17:13Z</time>
      </trkpt>
      <trkpt lat="37.190574" lon="-3.730465">
        <ele>572.304</ele>
        <time>2021-10-12T07:17:14Z</time>
      </trkpt>
      <trkpt lat="37.190441" lon="-3.731101">
        <ele>571.614</ele>
        <time>2021-10-12T07:17:16Z</time>
      </trkpt>
      <trkpt lat="37.190329" lon="-3.731745">
        <ele>570.808</ele>
        <time>2021-10-12T07:17:18Z</time>
      </trkpt>
      <trkpt lat="37.190283" lon="-3.732070">
        <ele>570.070</ele>
        <time>2021-10-12T07:17:19Z</time>
      </trkpt>
      <trkpt lat="37.190238" lon="-3.732399">
        <ele>569.348</ele>
        <time>2021-10-12T07:17:20Z</time>
      </trkpt>
      <trkpt lat="37.190177" lon="-3.733039">
        <ele>571.354</ele>
        <time>2021-10-12T07:17:22Z</time>
      </trkpt>
      <trkpt lat="37.190144" lon="-3.733693">
        <ele>572.217</ele>
        <time>2021-10-12T07:17:24Z</time>
      </trkpt>
      <trkpt lat="37.190140" lon="-3.734376">
        <ele>571.563</ele>
        <time>2021-10-12T07:17:26Z</time>
      </trkpt>
      <trkpt lat="37.190163" lon="-3.735052">
        <ele>570.412</ele>
        <time>2021-10-12T07:17:28Z</time>
      </trkpt>
      <trkpt lat="37.190191" lon="-3.735390">
        <ele>570.032</ele>
        <time>2021-10-12T07:17:29Z</time>
      </trkpt>
      <trkpt lat="37.190238" lon="-3.735710">
        <ele>569.813</ele>
        <time>2021-10-12T07:17:30Z</time>
      </trkpt>
      <trkpt lat="37.190310" lon="-3.736005">
        <ele>571.211</ele>
        <time>2021-10-12T07:17:31Z</time>
      </trkpt>
      <trkpt lat="37.190400" lon="-3.736284">
        <ele>571.621</ele>
        <time>2021-10-12T07:17:32Z</time>
      </trkpt>
      <trkpt lat="37.190635" lon="-3.736804">
        <ele>571.403</ele>
        <time>2021-10-12T07:17:34Z</time>
      </trkpt>
      <trkpt lat="37.190775" lon="-3.737053">
        <ele>571.908</ele>
        <time>2021-10-12T07:17:35Z</time>
      </trkpt>
      <trkpt lat="37.190922" lon="-3.737298">
        <ele>572.479</ele>
        <time>2021-10-12T07:17:36Z</time>
      </trkpt>
      <trkpt lat="37.191223" lon="-3.737782">
        <ele>569.697</ele>
        <time>2021-10-12T07:17:38Z</time>
      </trkpt>
      <trkpt lat="37.191485" lon="-3.738220">
        <ele>569.863</ele>
        <time>2021-10-12T07:17:40Z</time>
      </trkpt>
      <trkpt lat="37.191603" lon="-3.738431">
        <ele>571.426</ele>
        <time>2021-10-12T07:17:41Z</time>
      </trkpt>
      <trkpt lat="37.191705" lon="-3.738643">
        <ele>572.862</ele>
        <time>2021-10-12T07:17:42Z</time>
      </trkpt>
      <trkpt lat="37.191787" lon="-3.738862">
        <ele>572.171</ele>
        <time>2021-10-12T07:17:43Z</time>
      </trkpt>
      <trkpt lat="37.191846" lon="-3.739100">
        <ele>571.221</ele>
        <time>2021-10-12T07:17:44Z</time>
      </trkpt>
      <trkpt lat="37.191882" lon="-3.739589">
        <ele>569.612</ele>
        <time>2021-10-12T07:17:46Z</time>
      </trkpt>
      <trkpt lat="37.191859" lon="-3.739842">
        <ele>569.254</ele>
        <time>2021-10-12T07:17:47Z</time>
      </trkpt>
      <trkpt lat="37.191800" lon="-3.740092">
        <ele>568.756</ele>
        <time>2021-10-12T07:17:48Z</time>
      </trkpt>
      <trkpt lat="37.191710" lon="-3.740342">
        <ele>568.011</ele>
        <time>2021-10-12T07:17:49Z</time>
      </trkpt>
      <trkpt lat="37.191593" lon="-3.740597">
        <ele>568.008</ele>
        <time>2021-10-12T07:17:50Z</time>
      </trkpt>
      <trkpt lat="37.191330" lon="-3.741088">
        <ele>568.023</ele>
        <time>2021-10-12T07:17:52Z</time>
      </trkpt>
      <trkpt lat="37.191205" lon="-3.741343">
        <ele>567.761</ele>
        <time>2021-10-12T07:17:53Z</time>
      </trkpt>
      <trkpt lat="37.191019" lon="-3.741847">
        <ele>569.257</ele>
        <time>2021-10-12T07:17:55Z</time>
      </trkpt>
      <trkpt lat="37.190951" lon="-3.742105">
        <ele>569.640</ele>
        <time>2021-10-12T07:17:56Z</time>
      </trkpt>
      <trkpt lat="37.190875" lon="-3.742579">
        <ele>567.776</ele>
        <time>2021-10-12T07:17:58Z</time>
      </trkpt>
      <trkpt lat="37.190863" lon="-3.743051">
        <ele>566.085</ele>
        <time>2021-10-12T07:18:00Z</time>
      </trkpt>
      <trkpt lat="37.190874" lon="-3.743299">
        <ele>565.485</ele>
        <time>2021-10-12T07:18:01Z</time>
      </trkpt>
      <trkpt lat="37.190895" lon="-3.743559">
        <ele>567.156</ele>
        <time>2021-10-12T07:18:02Z</time>
      </trkpt>
      <trkpt lat="37.190948" lon="-3.744108">
        <ele>569.319</ele>
        <time>2021-10-12T07:18:04Z</time>
      </trkpt>
      <trkpt lat="37.190970" lon="-3.744408">
        <ele>568.609</ele>
        <time>2021-10-12T07:18:05Z</time>
      </trkpt>
      <trkpt lat="37.190989" lon="-3.744710">
        <ele>567.119</ele>
        <time>2021-10-12T07:18:06Z</time>
      </trkpt>
      <trkpt lat="37.191040" lon="-3.745336">
        <ele>565.808</ele>
        <time>2021-10-12T07:18:08Z</time>
      </trkpt>
      <trkpt lat="37.191105" lon="-3.745949">
        <ele>564.039</ele>
        <time>2021-10-12T07:18:10Z</time>
      </trkpt>
      <trkpt lat="37.191137" lon="-3.746261">
        <ele>565.387</ele>
        <time>2021-10-12T07:18:11Z</time>
      </trkpt>
      <trkpt lat="37.191199" lon="-3.746863">
        <ele>565.743</ele>
        <time>2021-10-12T07:18:13Z</time>
      </trkpt>
      <trkpt lat="37.191230" lon="-3.747156">
        <ele>563.916</ele>
        <time>2021-10-12T07:18:14Z</time>
      </trkpt>
      <trkpt lat="37.191296" lon="-3.747717">
        <ele>563.442</ele>
        <time>2021-10-12T07:18:16Z</time>
      </trkpt>
      <trkpt lat="37.191328" lon="-3.748005">
        <ele>563.631</ele>
        <time>2021-10-12T07:18:17Z</time>
      </trkpt>
      <trkpt lat="37.191388" lon="-3.748591">
        <ele>564.991</ele>
        <time>2021-10-12T07:18:19Z</time>
      </trkpt>
      <trkpt lat="37.191418" lon="-3.748888">
        <ele>566.112</ele>
        <time>2021-10-12T07:18:20Z</time>
      </trkpt>
      <trkpt lat="37.191478" lon="-3.749473">
        <ele>567.912</ele>
        <time>2021-10-12T07:18:22Z</time>
      </trkpt>
      <trkpt lat="37.191509" lon="-3.749771">
        <ele>567.332</ele>
        <time>2021-10-12T07:18:23Z</time>
      </trkpt>
      <trkpt lat="37.191541" lon="-3.750069">
        <ele>567.005</ele>
        <time>2021-10-12T07:18:24Z</time>
      </trkpt>
      <trkpt lat="37.191576" lon="-3.750369">
        <ele>566.808</ele>
        <time>2021-10-12T07:18:25Z</time>
      </trkpt>
      <trkpt lat="37.191612" lon="-3.750678">
        <ele>566.639</ele>
        <time>2021-10-12T07:18:26Z</time>
      </trkpt>
      <trkpt lat="37.191675" lon="-3.751260">
        <ele>564.987</ele>
        <time>2021-10-12T07:18:28Z</time>
      </trkpt>
      <trkpt lat="37.191706" lon="-3.751560">
        <ele>564.793</ele>
        <time>2021-10-12T07:18:29Z</time>
      </trkpt>
      <trkpt lat="37.191767" lon="-3.752152">
        <ele>564.916</ele>
        <time>2021-10-12T07:18:31Z</time>
      </trkpt>
      <trkpt lat="37.191797" lon="-3.752446">
        <ele>564.282</ele>
        <time>2021-10-12T07:18:32Z</time>
      </trkpt>
      <trkpt lat="37.191825" lon="-3.752738">
        <ele>564.071</ele>
        <time>2021-10-12T07:18:33Z</time>
      </trkpt>
      <trkpt lat="37.191853" lon="-3.753026">
        <ele>564.071</ele>
        <time>2021-10-12T07:18:34Z</time>
      </trkpt>
      <trkpt lat="37.191882" lon="-3.753312">
        <ele>564.092</ele>
        <time>2021-10-12T07:18:35Z</time>
      </trkpt>
      <trkpt lat="37.191932" lon="-3.753884">
        <ele>563.051</ele>
        <time>2021-10-12T07:18:37Z</time>
      </trkpt>
      <trkpt lat="37.191955" lon="-3.754181">
        <ele>563.001</ele>
        <time>2021-10-12T07:18:38Z</time>
      </trkpt>
      <trkpt lat="37.191989" lon="-3.754755">
        <ele>564.011</ele>
        <time>2021-10-12T07:18:40Z</time>
      </trkpt>
      <trkpt lat="37.191998" lon="-3.755049">
        <ele>564.808</ele>
        <time>2021-10-12T07:18:41Z</time>
      </trkpt>
      <trkpt lat="37.192001" lon="-3.755342">
        <ele>564.693</ele>
        <time>2021-10-12T07:18:42Z</time>
      </trkpt>
      <trkpt lat="37.191986" lon="-3.755939">
        <ele>562.951</ele>
        <time>2021-10-12T07:18:44Z</time>
      </trkpt>
      <trkpt lat="37.191960" lon="-3.756527">
        <ele>564.027</ele>
        <time>2021-10-12T07:18:46Z</time>
      </trkpt>
      <trkpt lat="37.191906" lon="-3.757130">
        <ele>565.050</ele>
        <time>2021-10-12T07:18:48Z</time>
      </trkpt>
      <trkpt lat="37.191827" lon="-3.757753">
        <ele>563.516</ele>
        <time>2021-10-12T07:18:50Z</time>
      </trkpt>
      <trkpt lat="37.191749" lon="-3.758370">
        <ele>563.615</ele>
        <time>2021-10-12T07:18:52Z</time>
      </trkpt>
      <trkpt lat="37.191709" lon="-3.758690">
        <ele>562.815</ele>
        <time>2021-10-12T07:18:53Z</time>
      </trkpt>
      <trkpt lat="37.191629" lon="-3.759334">
        <ele>562.976</ele>
        <time>2021-10-12T07:18:55Z</time>
      </trkpt>
      <trkpt lat="37.191585" lon="-3.759670">
        <ele>563.083</ele>
        <time>2021-10-12T07:18:56Z</time>
      </trkpt>
      <trkpt lat="37.191505" lon="-3.760285">
        <ele>563.425</ele>
        <time>2021-10-12T07:18:58Z</time>
      </trkpt>
      <trkpt lat="37.191432" lon="-3.760921">
        <ele>562.317</ele>
        <time>2021-10-12T07:19:00Z</time>
      </trkpt>
      <trkpt lat="37.191378" lon="-3.761557">
        <ele>563.008</ele>
        <time>2021-10-12T07:19:02Z</time>
      </trkpt>
      <trkpt lat="37.191359" lon="-3.761873">
        <ele>563.016</ele>
        <time>2021-10-12T07:19:03Z</time>
      </trkpt>
      <trkpt lat="37.191339" lon="-3.762190">
        <ele>562.124</ele>
        <time>2021-10-12T07:19:04Z</time>
      </trkpt>
      <trkpt lat="37.191285" lon="-3.762832">
        <ele>561.540</ele>
        <time>2021-10-12T07:19:06Z</time>
      </trkpt>
      <trkpt lat="37.191236" lon="-3.763509">
        <ele>560.933</ele>
        <time>2021-10-12T07:19:08Z</time>
      </trkpt>
      <trkpt lat="37.191187" lon="-3.764186">
        <ele>561.059</ele>
        <time>2021-10-12T07:19:10Z</time>
      </trkpt>
      <trkpt lat="37.191139" lon="-3.764528">
        <ele>561.618</ele>
        <time>2021-10-12T07:19:11Z</time>
      </trkpt>
      <trkpt lat="37.190974" lon="-3.765196">
        <ele>565.168</ele>
        <time>2021-10-12T07:19:13Z</time>
      </trkpt>
      <trkpt lat="37.190888" lon="-3.765531">
        <ele>566.629</ele>
        <time>2021-10-12T07:19:14Z</time>
      </trkpt>
      <trkpt lat="37.190762" lon="-3.766180">
        <ele>562.338</ele>
        <time>2021-10-12T07:19:16Z</time>
      </trkpt>
      <trkpt lat="37.190705" lon="-3.766512">
        <ele>560.570</ele>
        <time>2021-10-12T07:19:17Z</time>
      </trkpt>
      <trkpt lat="37.190658" lon="-3.766846">
        <ele>561.317</ele>
        <time>2021-10-12T07:19:18Z</time>
      </trkpt>
      <trkpt lat="37.190633" lon="-3.767531">
        <ele>561.008</ele>
        <time>2021-10-12T07:19:20Z</time>
      </trkpt>
      <trkpt lat="37.190693" lon="-3.768202">
        <ele>561.041</ele>
        <time>2021-10-12T07:19:22Z</time>
      </trkpt>
      <trkpt lat="37.190739" lon="-3.768546">
        <ele>561.069</ele>
        <time>2021-10-12T07:19:23Z</time>
      </trkpt>
      <trkpt lat="37.190795" lon="-3.768883">
        <ele>560.925</ele>
        <time>2021-10-12T07:19:24Z</time>
      </trkpt>
      <trkpt lat="37.190853" lon="-3.769215">
        <ele>560.818</ele>
        <time>2021-10-12T07:19:25Z</time>
      </trkpt>
      <trkpt lat="37.190890" lon="-3.769568">
        <ele>560.084</ele>
        <time>2021-10-12T07:19:26Z</time>
      </trkpt>
      <trkpt lat="37.190906" lon="-3.770241">
        <ele>561.443</ele>
        <time>2021-10-12T07:19:28Z</time>
      </trkpt>
      <trkpt lat="37.190935" lon="-3.770575">
        <ele>561.223</ele>
        <time>2021-10-12T07:19:29Z</time>
      </trkpt>
      <trkpt lat="37.190995" lon="-3.771228">
        <ele>559.294</ele>
        <time>2021-10-12T07:19:31Z</time>
      </trkpt>
      <trkpt lat="37.191034" lon="-3.771559">
        <ele>558.494</ele>
        <time>2021-10-12T07:19:32Z</time>
      </trkpt>
      <trkpt lat="37.191070" lon="-3.772175">
        <ele>559.157</ele>
        <time>2021-10-12T07:19:34Z</time>
      </trkpt>
      <trkpt lat="37.191071" lon="-3.772497">
        <ele>559.122</ele>
        <time>2021-10-12T07:19:35Z</time>
      </trkpt>
      <trkpt lat="37.191013" lon="-3.773156">
        <ele>557.408</ele>
        <time>2021-10-12T07:19:37Z</time>
      </trkpt>
      <trkpt lat="37.190959" lon="-3.773490">
        <ele>558.467</ele>
        <time>2021-10-12T07:19:38Z</time>
      </trkpt>
      <trkpt lat="37.190841" lon="-3.774149">
        <ele>560.925</ele>
        <time>2021-10-12T07:19:40Z</time>
      </trkpt>
      <trkpt lat="37.190791" lon="-3.774477">
        <ele>559.091</ele>
        <time>2021-10-12T07:19:41Z</time>
      </trkpt>
      <trkpt lat="37.190703" lon="-3.775128">
        <ele>558.914</ele>
        <time>2021-10-12T07:19:43Z</time>
      </trkpt>
      <trkpt lat="37.190687" lon="-3.775466">
        <ele>559.820</ele>
        <time>2021-10-12T07:19:44Z</time>
      </trkpt>
      <trkpt lat="37.190727" lon="-3.776103">
        <ele>559.059</ele>
        <time>2021-10-12T07:19:46Z</time>
      </trkpt>
      <trkpt lat="37.190780" lon="-3.776426">
        <ele>559.879</ele>
        <time>2021-10-12T07:19:47Z</time>
      </trkpt>
      <trkpt lat="37.190838" lon="-3.776746">
        <ele>559.760</ele>
        <time>2021-10-12T07:19:48Z</time>
      </trkpt>
      <trkpt lat="37.190946" lon="-3.777392">
        <ele>558.077</ele>
        <time>2021-10-12T07:19:50Z</time>
      </trkpt>
      <trkpt lat="37.191016" lon="-3.778029">
        <ele>559.061</ele>
        <time>2021-10-12T07:19:52Z</time>
      </trkpt>
      <trkpt lat="37.191024" lon="-3.778365">
        <ele>558.127</ele>
        <time>2021-10-12T07:19:53Z</time>
      </trkpt>
      <trkpt lat="37.190973" lon="-3.779033">
        <ele>553.708</ele>
        <time>2021-10-12T07:19:55Z</time>
      </trkpt>
      <trkpt lat="37.190941" lon="-3.779381">
        <ele>553.855</ele>
        <time>2021-10-12T07:19:56Z</time>
      </trkpt>
      <trkpt lat="37.190893" lon="-3.780035">
        <ele>555.343</ele>
        <time>2021-10-12T07:19:58Z</time>
      </trkpt>
      <trkpt lat="37.190863" lon="-3.780718">
        <ele>557.199</ele>
        <time>2021-10-12T07:20:00Z</time>
      </trkpt>
      <trkpt lat="37.190830" lon="-3.781404">
        <ele>558.042</ele>
        <time>2021-10-12T07:20:02Z</time>
      </trkpt>
      <trkpt lat="37.190804" lon="-3.782099">
        <ele>557.068</ele>
        <time>2021-10-12T07:20:04Z</time>
      </trkpt>
      <trkpt lat="37.190829" lon="-3.782459">
        <ele>557.077</ele>
        <time>2021-10-12T07:20:05Z</time>
      </trkpt>
      <trkpt lat="37.190895" lon="-3.782809">
        <ele>557.017</ele>
        <time>2021-10-12T07:20:06Z</time>
      </trkpt>
      <trkpt lat="37.191166" lon="-3.783474">
        <ele>555.328</ele>
        <time>2021-10-12T07:20:08Z</time>
      </trkpt>
      <trkpt lat="37.191433" lon="-3.784117">
        <ele>554.882</ele>
        <time>2021-10-12T07:20:10Z</time>
      </trkpt>
      <trkpt lat="37.191544" lon="-3.784453">
        <ele>555.043</ele>
        <time>2021-10-12T07:20:11Z</time>
      </trkpt>
      <trkpt lat="37.191721" lon="-3.785132">
        <ele>557.117</ele>
        <time>2021-10-12T07:20:13Z</time>
      </trkpt>
      <trkpt lat="37.191814" lon="-3.785480">
        <ele>557.008</ele>
        <time>2021-10-12T07:20:14Z</time>
      </trkpt>
      <trkpt lat="37.191976" lon="-3.786156">
        <ele>556.586</ele>
        <time>2021-10-12T07:20:16Z</time>
      </trkpt>
      <trkpt lat="37.192047" lon="-3.786507">
        <ele>554.674</ele>
        <time>2021-10-12T07:20:17Z</time>
      </trkpt>
      <trkpt lat="37.192163" lon="-3.787219">
        <ele>552.820</ele>
        <time>2021-10-12T07:20:19Z</time>
      </trkpt>
      <trkpt lat="37.192214" lon="-3.787588">
        <ele>553.383</ele>
        <time>2021-10-12T07:20:20Z</time>
      </trkpt>
      <trkpt lat="37.192304" lon="-3.788293">
        <ele>553.929</ele>
        <time>2021-10-12T07:20:22Z</time>
      </trkpt>
      <trkpt lat="37.192351" lon="-3.788644">
        <ele>553.098</ele>
        <time>2021-10-12T07:20:23Z</time>
      </trkpt>
      <trkpt lat="37.192397" lon="-3.788994">
        <ele>553.248</ele>
        <time>2021-10-12T07:20:24Z</time>
      </trkpt>
      <trkpt lat="37.192496" lon="-3.789689">
        <ele>552.189</ele>
        <time>2021-10-12T07:20:26Z</time>
      </trkpt>
      <trkpt lat="37.192607" lon="-3.790382">
        <ele>553.078</ele>
        <time>2021-10-12T07:20:28Z</time>
      </trkpt>
      <trkpt lat="37.192722" lon="-3.791076">
        <ele>551.333</ele>
        <time>2021-10-12T07:20:30Z</time>
      </trkpt>
      <trkpt lat="37.192774" lon="-3.791428">
        <ele>550.226</ele>
        <time>2021-10-12T07:20:31Z</time>
      </trkpt>
      <trkpt lat="37.192825" lon="-3.791782">
        <ele>551.408</ele>
        <time>2021-10-12T07:20:32Z</time>
      </trkpt>
      <trkpt lat="37.192878" lon="-3.792134">
        <ele>552.215</ele>
        <time>2021-10-12T07:20:33Z</time>
      </trkpt>
      <trkpt lat="37.192993" lon="-3.792832">
        <ele>554.533</ele>
        <time>2021-10-12T07:20:35Z</time>
      </trkpt>
      <trkpt lat="37.193054" lon="-3.793179">
        <ele>555.599</ele>
        <time>2021-10-12T07:20:36Z</time>
      </trkpt>
      <trkpt lat="37.193159" lon="-3.793887">
        <ele>551.682</ele>
        <time>2021-10-12T07:20:38Z</time>
      </trkpt>
      <trkpt lat="37.193271" lon="-3.794562">
        <ele>550.758</ele>
        <time>2021-10-12T07:20:40Z</time>
      </trkpt>
      <trkpt lat="37.193328" lon="-3.794904">
        <ele>550.087</ele>
        <time>2021-10-12T07:20:41Z</time>
      </trkpt>
      <trkpt lat="37.193445" lon="-3.795588">
        <ele>551.097</ele>
        <time>2021-10-12T07:20:43Z</time>
      </trkpt>
      <trkpt lat="37.193507" lon="-3.795941">
        <ele>550.468</ele>
        <time>2021-10-12T07:20:44Z</time>
      </trkpt>
      <trkpt lat="37.193625" lon="-3.796617">
        <ele>549.899</ele>
        <time>2021-10-12T07:20:46Z</time>
      </trkpt>
      <trkpt lat="37.193685" lon="-3.796965">
        <ele>551.107</ele>
        <time>2021-10-12T07:20:47Z</time>
      </trkpt>
      <trkpt lat="37.193742" lon="-3.797314">
        <ele>552.327</ele>
        <time>2021-10-12T07:20:48Z</time>
      </trkpt>
      <trkpt lat="37.193851" lon="-3.798029">
        <ele>551.208</ele>
        <time>2021-10-12T07:20:50Z</time>
      </trkpt>
      <trkpt lat="37.193941" lon="-3.798723">
        <ele>550.147</ele>
        <time>2021-10-12T07:20:52Z</time>
      </trkpt>
      <trkpt lat="37.193992" lon="-3.799079">
        <ele>550.355</ele>
        <time>2021-10-12T07:20:53Z</time>
      </trkpt>
      <trkpt lat="37.194114" lon="-3.799791">
        <ele>549.681</ele>
        <time>2021-10-12T07:20:55Z</time>
      </trkpt>
      <trkpt lat="37.194162" lon="-3.800149">
        <ele>550.034</ele>
        <time>2021-10-12T07:20:56Z</time>
      </trkpt>
      <trkpt lat="37.194215" lon="-3.800507">
        <ele>550.510</ele>
        <time>2021-10-12T07:20:57Z</time>
      </trkpt>
      <trkpt lat="37.194267" lon="-3.800861">
        <ele>550.779</ele>
        <time>2021-10-12T07:20:58Z</time>
      </trkpt>
      <trkpt lat="37.194368" lon="-3.801560">
        <ele>550.699</ele>
        <time>2021-10-12T07:21:00Z</time>
      </trkpt>
      <trkpt lat="37.194451" lon="-3.802250">
        <ele>551.190</ele>
        <time>2021-10-12T07:21:02Z</time>
      </trkpt>
      <trkpt lat="37.194500" lon="-3.802936">
        <ele>553.912</ele>
        <time>2021-10-12T07:21:04Z</time>
      </trkpt>
      <trkpt lat="37.194540" lon="-3.803617">
        <ele>555.032</ele>
        <time>2021-10-12T07:21:06Z</time>
      </trkpt>
      <trkpt lat="37.194596" lon="-3.804296">
        <ele>553.305</ele>
        <time>2021-10-12T07:21:08Z</time>
      </trkpt>
      <trkpt lat="37.194679" lon="-3.804951">
        <ele>551.508</ele>
        <time>2021-10-12T07:21:10Z</time>
      </trkpt>
      <trkpt lat="37.194714" lon="-3.805279">
        <ele>550.089</ele>
        <time>2021-10-12T07:21:11Z</time>
      </trkpt>
      <trkpt lat="37.194799" lon="-3.805941">
        <ele>548.837</ele>
        <time>2021-10-12T07:21:13Z</time>
      </trkpt>
      <trkpt lat="37.194840" lon="-3.806282">
        <ele>549.573</ele>
        <time>2021-10-12T07:21:14Z</time>
      </trkpt>
      <trkpt lat="37.194909" lon="-3.806941">
        <ele>549.776</ele>
        <time>2021-10-12T07:21:16Z</time>
      </trkpt>
      <trkpt lat="37.194960" lon="-3.807626">
        <ele>550.182</ele>
        <time>2021-10-12T07:21:18Z</time>
      </trkpt>
      <trkpt lat="37.194989" lon="-3.808324">
        <ele>549.061</ele>
        <time>2021-10-12T07:21:20Z</time>
      </trkpt>
      <trkpt lat="37.195057" lon="-3.809005">
        <ele>549.331</ele>
        <time>2021-10-12T07:21:22Z</time>
      </trkpt>
      <trkpt lat="37.195081" lon="-3.809362">
        <ele>549.222</ele>
        <time>2021-10-12T07:21:23Z</time>
      </trkpt>
      <trkpt lat="37.195118" lon="-3.810101">
        <ele>548.875</ele>
        <time>2021-10-12T07:21:25Z</time>
      </trkpt>
      <trkpt lat="37.195153" lon="-3.810849">
        <ele>548.528</ele>
        <time>2021-10-12T07:21:27Z</time>
      </trkpt>
      <trkpt lat="37.195195" lon="-3.811588">
        <ele>546.320</ele>
        <time>2021-10-12T07:21:29Z</time>
      </trkpt>
      <trkpt lat="37.195227" lon="-3.812318">
        <ele>545.508</ele>
        <time>2021-10-12T07:21:31Z</time>
      </trkpt>
      <trkpt lat="37.195236" lon="-3.812677">
        <ele>546.075</ele>
        <time>2021-10-12T07:21:32Z</time>
      </trkpt>
      <trkpt lat="37.195255" lon="-3.813384">
        <ele>544.863</ele>
        <time>2021-10-12T07:21:34Z</time>
      </trkpt>
      <trkpt lat="37.195275" lon="-3.814097">
        <ele>545.759</ele>
        <time>2021-10-12T07:21:36Z</time>
      </trkpt>
      <trkpt lat="37.195284" lon="-3.814820">
        <ele>547.022</ele>
        <time>2021-10-12T07:21:38Z</time>
      </trkpt>
      <trkpt lat="37.195243" lon="-3.815521">
        <ele>546.988</ele>
        <time>2021-10-12T07:21:40Z</time>
      </trkpt>
      <trkpt lat="37.195170" lon="-3.816237">
        <ele>544.027</ele>
        <time>2021-10-12T07:21:42Z</time>
      </trkpt>
      <trkpt lat="37.195130" lon="-3.816597">
        <ele>544.077</ele>
        <time>2021-10-12T07:21:43Z</time>
      </trkpt>
      <trkpt lat="37.195062" lon="-3.816957">
        <ele>544.688</ele>
        <time>2021-10-12T07:21:44Z</time>
      </trkpt>
      <trkpt lat="37.194895" lon="-3.817637">
        <ele>545.259</ele>
        <time>2021-10-12T07:21:46Z</time>
      </trkpt>
      <trkpt lat="37.194793" lon="-3.817978">
        <ele>543.603</ele>
        <time>2021-10-12T07:21:47Z</time>
      </trkpt>
      <trkpt lat="37.194544" lon="-3.818641">
        <ele>543.423</ele>
        <time>2021-10-12T07:21:49Z</time>
      </trkpt>
      <trkpt lat="37.194399" lon="-3.818975">
        <ele>545.808</ele>
        <time>2021-10-12T07:21:50Z</time>
      </trkpt>
      <trkpt lat="37.194093" lon="-3.819592">
        <ele>546.333</ele>
        <time>2021-10-12T07:21:52Z</time>
      </trkpt>
      <trkpt lat="37.193772" lon="-3.820218">
        <ele>548.531</ele>
        <time>2021-10-12T07:21:54Z</time>
      </trkpt>
      <trkpt lat="37.193612" lon="-3.820531">
        <ele>547.397</ele>
        <time>2021-10-12T07:21:55Z</time>
      </trkpt>
      <trkpt lat="37.193450" lon="-3.820846">
        <ele>546.530</ele>
        <time>2021-10-12T07:21:56Z</time>
      </trkpt>
      <trkpt lat="37.193121" lon="-3.821468">
        <ele>546.386</ele>
        <time>2021-10-12T07:21:58Z</time>
      </trkpt>
      <trkpt lat="37.192957" lon="-3.821775">
        <ele>546.075</ele>
        <time>2021-10-12T07:21:59Z</time>
      </trkpt>
      <trkpt lat="37.192793" lon="-3.822079">
        <ele>546.415</ele>
        <time>2021-10-12T07:22:00Z</time>
      </trkpt>
      <trkpt lat="37.192477" lon="-3.822678">
        <ele>548.086</ele>
        <time>2021-10-12T07:22:02Z</time>
      </trkpt>
      <trkpt lat="37.192174" lon="-3.823271">
        <ele>548.247</ele>
        <time>2021-10-12T07:22:04Z</time>
      </trkpt>
      <trkpt lat="37.192018" lon="-3.823560">
        <ele>547.529</ele>
        <time>2021-10-12T07:22:05Z</time>
      </trkpt>
      <trkpt lat="37.191723" lon="-3.824148">
        <ele>546.021</ele>
        <time>2021-10-12T07:22:07Z</time>
      </trkpt>
      <trkpt lat="37.191569" lon="-3.824448">
        <ele>548.008</ele>
        <time>2021-10-12T07:22:08Z</time>
      </trkpt>
      <trkpt lat="37.191274" lon="-3.825023">
        <ele>553.732</ele>
        <time>2021-10-12T07:22:10Z</time>
      </trkpt>
      <trkpt lat="37.190990" lon="-3.825606">
        <ele>556.280</ele>
        <time>2021-10-12T07:22:12Z</time>
      </trkpt>
      <trkpt lat="37.190846" lon="-3.825892">
        <ele>559.586</ele>
        <time>2021-10-12T07:22:13Z</time>
      </trkpt>
      <trkpt lat="37.190698" lon="-3.826184">
        <ele>563.599</ele>
        <time>2021-10-12T07:22:14Z</time>
      </trkpt>
      <trkpt lat="37.190416" lon="-3.826745">
        <ele>565.165</ele>
        <time>2021-10-12T07:22:16Z</time>
      </trkpt>
      <trkpt lat="37.190120" lon="-3.827316">
        <ele>567.044</ele>
        <time>2021-10-12T07:22:18Z</time>
      </trkpt>
      <trkpt lat="37.189974" lon="-3.827605">
        <ele>568.864</ele>
        <time>2021-10-12T07:22:19Z</time>
      </trkpt>
      <trkpt lat="37.189828" lon="-3.827900">
        <ele>570.625</ele>
        <time>2021-10-12T07:22:20Z</time>
      </trkpt>
      <trkpt lat="37.189529" lon="-3.828472">
        <ele>572.072</ele>
        <time>2021-10-12T07:22:22Z</time>
      </trkpt>
      <trkpt lat="37.189391" lon="-3.828774">
        <ele>569.513</ele>
        <time>2021-10-12T07:22:23Z</time>
      </trkpt>
      <trkpt lat="37.189160" lon="-3.829407">
        <ele>565.914</ele>
        <time>2021-10-12T07:22:25Z</time>
      </trkpt>
      <trkpt lat="37.189067" lon="-3.829762">
        <ele>565.308</ele>
        <time>2021-10-12T07:22:26Z</time>
      </trkpt>
      <trkpt lat="37.188959" lon="-3.830461">
        <ele>565.385</ele>
        <time>2021-10-12T07:22:28Z</time>
      </trkpt>
      <trkpt lat="37.188932" lon="-3.830831">
        <ele>562.033</ele>
        <time>2021-10-12T07:22:29Z</time>
      </trkpt>
      <trkpt lat="37.188924" lon="-3.831203">
        <ele>559.079</ele>
        <time>2021-10-12T07:22:30Z</time>
      </trkpt>
      <trkpt lat="37.188976" lon="-3.831943">
        <ele>561.782</ele>
        <time>2021-10-12T07:22:32Z</time>
      </trkpt>
      <trkpt lat="37.189107" lon="-3.832652">
        <ele>559.178</ele>
        <time>2021-10-12T07:22:34Z</time>
      </trkpt>
      <trkpt lat="37.189317" lon="-3.833310">
        <ele>560.177</ele>
        <time>2021-10-12T07:22:36Z</time>
      </trkpt>
      <trkpt lat="37.189441" lon="-3.833627">
        <ele>562.017</ele>
        <time>2021-10-12T07:22:37Z</time>
      </trkpt>
      <trkpt lat="37.189579" lon="-3.833942">
        <ele>561.058</ele>
        <time>2021-10-12T07:22:38Z</time>
      </trkpt>
      <trkpt lat="37.189890" lon="-3.834516">
        <ele>558.023</ele>
        <time>2021-10-12T07:22:40Z</time>
      </trkpt>
      <trkpt lat="37.190248" lon="-3.835084">
        <ele>557.583</ele>
        <time>2021-10-12T07:22:42Z</time>
      </trkpt>
      <trkpt lat="37.190601" lon="-3.835644">
        <ele>556.211</ele>
        <time>2021-10-12T07:22:44Z</time>
      </trkpt>
      <trkpt lat="37.190960" lon="-3.836187">
        <ele>558.208</ele>
        <time>2021-10-12T07:22:46Z</time>
      </trkpt>
      <trkpt lat="37.191322" lon="-3.836734">
        <ele>555.190</ele>
        <time>2021-10-12T07:22:48Z</time>
      </trkpt>
      <trkpt lat="37.191679" lon="-3.837295">
        <ele>551.288</ele>
        <time>2021-10-12T07:22:50Z</time>
      </trkpt>
      <trkpt lat="37.192017" lon="-3.837848">
        <ele>549.074</ele>
        <time>2021-10-12T07:22:52Z</time>
      </trkpt>
      <trkpt lat="37.192186" lon="-3.838119">
        <ele>547.197</ele>
        <time>2021-10-12T07:22:53Z</time>
      </trkpt>
      <trkpt lat="37.192510" lon="-3.838655">
        <ele>546.233</ele>
        <time>2021-10-12T07:22:55Z</time>
      </trkpt>
      <trkpt lat="37.192673" lon="-3.838912">
        <ele>548.352</ele>
        <time>2021-10-12T07:22:56Z</time>
      </trkpt>
      <trkpt lat="37.192997" lon="-3.839428">
        <ele>552.712</ele>
        <time>2021-10-12T07:22:58Z</time>
      </trkpt>
      <trkpt lat="37.193151" lon="-3.839690">
        <ele>554.373</ele>
        <time>2021-10-12T07:22:59Z</time>
      </trkpt>
      <trkpt lat="37.193451" lon="-3.840252">
        <ele>547.748</ele>
        <time>2021-10-12T07:23:01Z</time>
      </trkpt>
      <trkpt lat="37.193711" lon="-3.840870">
        <ele>544.861</ele>
        <time>2021-10-12T07:23:03Z</time>
      </trkpt>
      <trkpt lat="37.193836" lon="-3.841185">
        <ele>544.317</ele>
        <time>2021-10-12T07:23:04Z</time>
      </trkpt>
      <trkpt lat="37.194070" lon="-3.841830">
        <ele>544.008</ele>
        <time>2021-10-12T07:23:06Z</time>
      </trkpt>
      <trkpt lat="37.194151" lon="-3.842180">
        <ele>543.922</ele>
        <time>2021-10-12T07:23:07Z</time>
      </trkpt>
      <trkpt lat="37.194213" lon="-3.842552">
        <ele>543.590</ele>
        <time>2021-10-12T07:23:08Z</time>
      </trkpt>
      <trkpt lat="37.194288" lon="-3.843293">
        <ele>542.736</ele>
        <time>2021-10-12T07:23:10Z</time>
      </trkpt>
      <trkpt lat="37.194307" lon="-3.843680">
        <ele>541.769</ele>
        <time>2021-10-12T07:23:11Z</time>
      </trkpt>
      <trkpt lat="37.194308" lon="-3.844069">
        <ele>540.715</ele>
        <time>2021-10-12T07:23:12Z</time>
      </trkpt>
      <trkpt lat="37.194295" lon="-3.844818">
        <ele>539.284</ele>
        <time>2021-10-12T07:23:14Z</time>
      </trkpt>
      <trkpt lat="37.194246" lon="-3.845546">
        <ele>535.414</ele>
        <time>2021-10-12T07:23:16Z</time>
      </trkpt>
      <trkpt lat="37.194179" lon="-3.846286">
        <ele>535.915</ele>
        <time>2021-10-12T07:23:18Z</time>
      </trkpt>
      <trkpt lat="37.194139" lon="-3.846652">
        <ele>536.477</ele>
        <time>2021-10-12T07:23:19Z</time>
      </trkpt>
      <trkpt lat="37.194102" lon="-3.847027">
        <ele>535.961</ele>
        <time>2021-10-12T07:23:20Z</time>
      </trkpt>
      <trkpt lat="37.194045" lon="-3.847743">
        <ele>533.927</ele>
        <time>2021-10-12T07:23:22Z</time>
      </trkpt>
      <trkpt lat="37.194030" lon="-3.848111">
        <ele>535.308</ele>
        <time>2021-10-12T07:23:23Z</time>
      </trkpt>
      <trkpt lat="37.194037" lon="-3.848839">
        <ele>534.325</ele>
        <time>2021-10-12T07:23:25Z</time>
      </trkpt>
      <trkpt lat="37.194079" lon="-3.849573">
        <ele>534.153</ele>
        <time>2021-10-12T07:23:27Z</time>
      </trkpt>
      <trkpt lat="37.194120" lon="-3.850291">
        <ele>538.219</ele>
        <time>2021-10-12T07:23:29Z</time>
      </trkpt>
      <trkpt lat="37.194186" lon="-3.851002">
        <ele>539.562</ele>
        <time>2021-10-12T07:23:31Z</time>
      </trkpt>
      <trkpt lat="37.194214" lon="-3.851360">
        <ele>540.098</ele>
        <time>2021-10-12T07:23:32Z</time>
      </trkpt>
      <trkpt lat="37.194261" lon="-3.852070">
        <ele>542.857</ele>
        <time>2021-10-12T07:23:34Z</time>
      </trkpt>
      <trkpt lat="37.194281" lon="-3.852419">
        <ele>543.077</ele>
        <time>2021-10-12T07:23:35Z</time>
      </trkpt>
      <trkpt lat="37.194301" lon="-3.852764">
        <ele>543.528</ele>
        <time>2021-10-12T07:23:36Z</time>
      </trkpt>
      <trkpt lat="37.194315" lon="-3.853109">
        <ele>543.351</ele>
        <time>2021-10-12T07:23:37Z</time>
      </trkpt>
      <trkpt lat="37.194333" lon="-3.853460">
        <ele>542.601</ele>
        <time>2021-10-12T07:23:38Z</time>
      </trkpt>
      <trkpt lat="37.194359" lon="-3.854128">
        <ele>545.111</ele>
        <time>2021-10-12T07:23:40Z</time>
      </trkpt>
      <trkpt lat="37.194372" lon="-3.854470">
        <ele>544.408</ele>
        <time>2021-10-12T07:23:41Z</time>
      </trkpt>
      <trkpt lat="37.194370" lon="-3.855166">
        <ele>541.443</ele>
        <time>2021-10-12T07:23:43Z</time>
      </trkpt>
      <trkpt lat="37.194351" lon="-3.855534">
        <ele>540.771</ele>
        <time>2021-10-12T07:23:44Z</time>
      </trkpt>
      <trkpt lat="37.194344" lon="-3.856241">
        <ele>543.637</ele>
        <time>2021-10-12T07:23:46Z</time>
      </trkpt>
      <trkpt lat="37.194329" lon="-3.856609">
        <ele>542.380</ele>
        <time>2021-10-12T07:23:47Z</time>
      </trkpt>
      <trkpt lat="37.194339" lon="-3.857347">
        <ele>538.396</ele>
        <time>2021-10-12T07:23:49Z</time>
      </trkpt>
      <trkpt lat="37.194340" lon="-3.857727">
        <ele>537.195</ele>
        <time>2021-10-12T07:23:50Z</time>
      </trkpt>
      <trkpt lat="37.194361" lon="-3.858457">
        <ele>535.215</ele>
        <time>2021-10-12T07:23:52Z</time>
      </trkpt>
      <trkpt lat="37.194481" lon="-3.859178">
        <ele>533.076</ele>
        <time>2021-10-12T07:23:54Z</time>
      </trkpt>
      <trkpt lat="37.194568" lon="-3.859529">
        <ele>531.288</ele>
        <time>2021-10-12T07:23:55Z</time>
      </trkpt>
      <trkpt lat="37.194671" lon="-3.859873">
        <ele>530.824</ele>
        <time>2021-10-12T07:23:56Z</time>
      </trkpt>
      <trkpt lat="37.194791" lon="-3.860208">
        <ele>530.126</ele>
        <time>2021-10-12T07:23:57Z</time>
      </trkpt>
      <trkpt lat="37.195031" lon="-3.860879">
        <ele>527.908</ele>
        <time>2021-10-12T07:23:59Z</time>
      </trkpt>
      <trkpt lat="37.195247" lon="-3.861566">
        <ele>529.056</ele>
        <time>2021-10-12T07:24:01Z</time>
      </trkpt>
      <trkpt lat="37.195336" lon="-3.861924">
        <ele>529.784</ele>
        <time>2021-10-12T07:24:02Z</time>
      </trkpt>
      <trkpt lat="37.195521" lon="-3.862628">
        <ele>527.190</ele>
        <time>2021-10-12T07:24:04Z</time>
      </trkpt>
      <trkpt lat="37.195646" lon="-3.863342">
        <ele>526.483</ele>
        <time>2021-10-12T07:24:06Z</time>
      </trkpt>
      <trkpt lat="37.195686" lon="-3.863713">
        <ele>527.139</ele>
        <time>2021-10-12T07:24:07Z</time>
      </trkpt>
      <trkpt lat="37.195710" lon="-3.864094">
        <ele>527.618</ele>
        <time>2021-10-12T07:24:08Z</time>
      </trkpt>
      <trkpt lat="37.195698" lon="-3.864830">
        <ele>531.728</ele>
        <time>2021-10-12T07:24:10Z</time>
      </trkpt>
      <trkpt lat="37.195656" lon="-3.865217">
        <ele>531.579</ele>
        <time>2021-10-12T07:24:11Z</time>
      </trkpt>
      <trkpt lat="37.195600" lon="-3.865604">
        <ele>530.778</ele>
        <time>2021-10-12T07:24:12Z</time>
      </trkpt>
      <trkpt lat="37.195440" lon="-3.866360">
        <ele>530.833</ele>
        <time>2021-10-12T07:24:14Z</time>
      </trkpt>
      <trkpt lat="37.195235" lon="-3.867060">
        <ele>532.226</ele>
        <time>2021-10-12T07:24:16Z</time>
      </trkpt>
      <trkpt lat="37.195106" lon="-3.867398">
        <ele>532.408</ele>
        <time>2021-10-12T07:24:17Z</time>
      </trkpt>
      <trkpt lat="37.194817" lon="-3.868041">
        <ele>534.085</ele>
        <time>2021-10-12T07:24:19Z</time>
      </trkpt>
      <trkpt lat="37.194646" lon="-3.868350">
        <ele>535.313</ele>
        <time>2021-10-12T07:24:20Z</time>
      </trkpt>
      <trkpt lat="37.194293" lon="-3.868907">
        <ele>537.059</ele>
        <time>2021-10-12T07:24:22Z</time>
      </trkpt>
      <trkpt lat="37.194109" lon="-3.869187">
        <ele>537.182</ele>
        <time>2021-10-12T07:24:23Z</time>
      </trkpt>
      <trkpt lat="37.193916" lon="-3.869454">
        <ele>537.818</ele>
        <time>2021-10-12T07:24:24Z</time>
      </trkpt>
      <trkpt lat="37.193523" lon="-3.869969">
        <ele>537.327</ele>
        <time>2021-10-12T07:24:26Z</time>
      </trkpt>
      <trkpt lat="37.193143" lon="-3.870479">
        <ele>540.837</ele>
        <time>2021-10-12T07:24:28Z</time>
      </trkpt>
      <trkpt lat="37.192954" lon="-3.870737">
        <ele>540.258</ele>
        <time>2021-10-12T07:24:29Z</time>
      </trkpt>
      <trkpt lat="37.192770" lon="-3.870996">
        <ele>540.771</ele>
        <time>2021-10-12T07:24:30Z</time>
      </trkpt>
      <trkpt lat="37.192407" lon="-3.871519">
        <ele>543.941</ele>
        <time>2021-10-12T07:24:32Z</time>
      </trkpt>
      <trkpt lat="37.192230" lon="-3.871783">
        <ele>545.315</ele>
        <time>2021-10-12T07:24:33Z</time>
      </trkpt>
      <trkpt lat="37.191878" lon="-3.872309">
        <ele>548.008</ele>
        <time>2021-10-12T07:24:35Z</time>
      </trkpt>
      <trkpt lat="37.191541" lon="-3.872862">
        <ele>549.065</ele>
        <time>2021-10-12T07:24:37Z</time>
      </trkpt>
      <trkpt lat="37.191376" lon="-3.873161">
        <ele>549.323</ele>
        <time>2021-10-12T07:24:38Z</time>
      </trkpt>
      <trkpt lat="37.191080" lon="-3.873783">
        <ele>551.169</ele>
        <time>2021-10-12T07:24:40Z</time>
      </trkpt>
      <trkpt lat="37.190784" lon="-3.874454">
        <ele>551.992</ele>
        <time>2021-10-12T07:24:42Z</time>
      </trkpt>
      <trkpt lat="37.190627" lon="-3.874793">
        <ele>553.728</ele>
        <time>2021-10-12T07:24:43Z</time>
      </trkpt>
      <trkpt lat="37.190466" lon="-3.875138">
        <ele>557.777</ele>
        <time>2021-10-12T07:24:44Z</time>
      </trkpt>
      <trkpt lat="37.190154" lon="-3.875794">
        <ele>559.197</ele>
        <time>2021-10-12T07:24:46Z</time>
      </trkpt>
      <trkpt lat="37.190002" lon="-3.876139">
        <ele>560.168</ele>
        <time>2021-10-12T07:24:47Z</time>
      </trkpt>
      <trkpt lat="37.189851" lon="-3.876482">
        <ele>562.477</ele>
        <time>2021-10-12T07:24:48Z</time>
      </trkpt>
      <trkpt lat="37.189701" lon="-3.876819">
        <ele>564.761</ele>
        <time>2021-10-12T07:24:49Z</time>
      </trkpt>
      <trkpt lat="37.189549" lon="-3.877158">
        <ele>566.127</ele>
        <time>2021-10-12T07:24:50Z</time>
      </trkpt>
      <trkpt lat="37.189255" lon="-3.877799">
        <ele>566.808</ele>
        <time>2021-10-12T07:24:52Z</time>
      </trkpt>
      <trkpt lat="37.188968" lon="-3.878438">
        <ele>570.765</ele>
        <time>2021-10-12T07:24:54Z</time>
      </trkpt>
      <trkpt lat="37.188824" lon="-3.878748">
        <ele>571.643</ele>
        <time>2021-10-12T07:24:55Z</time>
      </trkpt>
      <trkpt lat="37.188680" lon="-3.879070">
        <ele>572.719</ele>
        <time>2021-10-12T07:24:56Z</time>
      </trkpt>
      <trkpt lat="37.188429" lon="-3.879677">
        <ele>570.262</ele>
        <time>2021-10-12T07:24:58Z</time>
      </trkpt>
      <trkpt lat="37.188290" lon="-3.879984">
        <ele>569.278</ele>
        <time>2021-10-12T07:24:59Z</time>
      </trkpt>
      <trkpt lat="37.188150" lon="-3.880291">
        <ele>569.397</ele>
        <time>2021-10-12T07:25:00Z</time>
      </trkpt>
      <trkpt lat="37.187869" lon="-3.880915">
        <ele>568.137</ele>
        <time>2021-10-12T07:25:02Z</time>
      </trkpt>
      <trkpt lat="37.187590" lon="-3.881524">
        <ele>566.588</ele>
        <time>2021-10-12T07:25:04Z</time>
      </trkpt>
      <trkpt lat="37.187448" lon="-3.881838">
        <ele>566.856</ele>
        <time>2021-10-12T07:25:05Z</time>
      </trkpt>
      <trkpt lat="37.187310" lon="-3.882153">
        <ele>566.459</ele>
        <time>2021-10-12T07:25:06Z</time>
      </trkpt>
      <trkpt lat="37.187163" lon="-3.882462">
        <ele>565.614</ele>
        <time>2021-10-12T07:25:07Z</time>
      </trkpt>
      <trkpt lat="37.187012" lon="-3.882776">
        <ele>566.008</ele>
        <time>2021-10-12T07:25:08Z</time>
      </trkpt>
      <trkpt lat="37.186726" lon="-3.883382">
        <ele>563.753</ele>
        <time>2021-10-12T07:25:10Z</time>
      </trkpt>
      <trkpt lat="37.186587" lon="-3.883701">
        <ele>562.171</ele>
        <time>2021-10-12T07:25:11Z</time>
      </trkpt>
      <trkpt lat="37.186445" lon="-3.884016">
        <ele>562.697</ele>
        <time>2021-10-12T07:25:12Z</time>
      </trkpt>
      <trkpt lat="37.186301" lon="-3.884332">
        <ele>563.820</ele>
        <time>2021-10-12T07:25:13Z</time>
      </trkpt>
      <trkpt lat="37.186155" lon="-3.884666">
        <ele>564.956</ele>
        <time>2021-10-12T07:25:14Z</time>
      </trkpt>
      <trkpt lat="37.185857" lon="-3.885300">
        <ele>564.865</ele>
        <time>2021-10-12T07:25:16Z</time>
      </trkpt>
      <trkpt lat="37.185566" lon="-3.885960">
        <ele>564.455</ele>
        <time>2021-10-12T07:25:18Z</time>
      </trkpt>
      <trkpt lat="37.185420" lon="-3.886287">
        <ele>565.386</ele>
        <time>2021-10-12T07:25:19Z</time>
      </trkpt>
      <trkpt lat="37.185265" lon="-3.886623">
        <ele>566.026</ele>
        <time>2021-10-12T07:25:20Z</time>
      </trkpt>
      <trkpt lat="37.184966" lon="-3.887283">
        <ele>568.247</ele>
        <time>2021-10-12T07:25:22Z</time>
      </trkpt>
      <trkpt lat="37.184648" lon="-3.887948">
        <ele>570.911</ele>
        <time>2021-10-12T07:25:24Z</time>
      </trkpt>
      <trkpt lat="37.184490" lon="-3.888284">
        <ele>573.308</ele>
        <time>2021-10-12T07:25:25Z</time>
      </trkpt>
      <trkpt lat="37.184327" lon="-3.888635">
        <ele>574.410</ele>
        <time>2021-10-12T07:25:26Z</time>
      </trkpt>
      <trkpt lat="37.184026" lon="-3.889309">
        <ele>574.798</ele>
        <time>2021-10-12T07:25:28Z</time>
      </trkpt>
      <trkpt lat="37.183871" lon="-3.889659">
        <ele>572.534</ele>
        <time>2021-10-12T07:25:29Z</time>
      </trkpt>
      <trkpt lat="37.183708" lon="-3.890009">
        <ele>571.687</ele>
        <time>2021-10-12T07:25:30Z</time>
      </trkpt>
      <trkpt lat="37.183374" lon="-3.890713">
        <ele>571.163</ele>
        <time>2021-10-12T07:25:32Z</time>
      </trkpt>
      <trkpt lat="37.183062" lon="-3.891394">
        <ele>571.072</ele>
        <time>2021-10-12T07:25:34Z</time>
      </trkpt>
      <trkpt lat="37.182770" lon="-3.892046">
        <ele>572.452</ele>
        <time>2021-10-12T07:25:36Z</time>
      </trkpt>
      <trkpt lat="37.182627" lon="-3.892365">
        <ele>572.333</ele>
        <time>2021-10-12T07:25:37Z</time>
      </trkpt>
      <trkpt lat="37.182485" lon="-3.892687">
        <ele>570.757</ele>
        <time>2021-10-12T07:25:38Z</time>
      </trkpt>
      <trkpt lat="37.182243" lon="-3.893320">
        <ele>570.800</ele>
        <time>2021-10-12T07:25:40Z</time>
      </trkpt>
      <trkpt lat="37.182130" lon="-3.893654">
        <ele>572.220</ele>
        <time>2021-10-12T07:25:41Z</time>
      </trkpt>
      <trkpt lat="37.181931" lon="-3.894319">
        <ele>571.008</ele>
        <time>2021-10-12T07:25:43Z</time>
      </trkpt>
      <trkpt lat="37.181843" lon="-3.894669">
        <ele>568.753</ele>
        <time>2021-10-12T07:25:44Z</time>
      </trkpt>
      <trkpt lat="37.181685" lon="-3.895350">
        <ele>567.691</ele>
        <time>2021-10-12T07:25:46Z</time>
      </trkpt>
      <trkpt lat="37.181516" lon="-3.896037">
        <ele>565.997</ele>
        <time>2021-10-12T07:25:48Z</time>
      </trkpt>
      <trkpt lat="37.181412" lon="-3.896370">
        <ele>566.840</ele>
        <time>2021-10-12T07:25:49Z</time>
      </trkpt>
      <trkpt lat="37.181291" lon="-3.896700">
        <ele>566.576</ele>
        <time>2021-10-12T07:25:50Z</time>
      </trkpt>
      <trkpt lat="37.181019" lon="-3.897310">
        <ele>569.395</ele>
        <time>2021-10-12T07:25:52Z</time>
      </trkpt>
      <trkpt lat="37.180865" lon="-3.897605">
        <ele>569.525</ele>
        <time>2021-10-12T07:25:53Z</time>
      </trkpt>
      <trkpt lat="37.180711" lon="-3.897898">
        <ele>570.196</ele>
        <time>2021-10-12T07:25:54Z</time>
      </trkpt>
      <trkpt lat="37.180558" lon="-3.898191">
        <ele>570.555</ele>
        <time>2021-10-12T07:25:55Z</time>
      </trkpt>
      <trkpt lat="37.180407" lon="-3.898494">
        <ele>568.607</ele>
        <time>2021-10-12T07:25:56Z</time>
      </trkpt>
      <trkpt lat="37.180123" lon="-3.899096">
        <ele>569.317</ele>
        <time>2021-10-12T07:25:58Z</time>
      </trkpt>
      <trkpt lat="37.179978" lon="-3.899401">
        <ele>570.108</ele>
        <time>2021-10-12T07:25:59Z</time>
      </trkpt>
      <trkpt lat="37.179691" lon="-3.900005">
        <ele>569.263</ele>
        <time>2021-10-12T07:26:01Z</time>
      </trkpt>
      <trkpt lat="37.179547" lon="-3.900315">
        <ele>571.441</ele>
        <time>2021-10-12T07:26:02Z</time>
      </trkpt>
      <trkpt lat="37.179270" lon="-3.900907">
        <ele>575.937</ele>
        <time>2021-10-12T07:26:04Z</time>
      </trkpt>
      <trkpt lat="37.179133" lon="-3.901210">
        <ele>577.140</ele>
        <time>2021-10-12T07:26:05Z</time>
      </trkpt>
      <trkpt lat="37.178889" lon="-3.901837">
        <ele>575.836</ele>
        <time>2021-10-12T07:26:07Z</time>
      </trkpt>
      <trkpt lat="37.178784" lon="-3.902189">
        <ele>576.465</ele>
        <time>2021-10-12T07:26:08Z</time>
      </trkpt>
      <trkpt lat="37.178636" lon="-3.902900">
        <ele>581.435</ele>
        <time>2021-10-12T07:26:10Z</time>
      </trkpt>
      <trkpt lat="37.178591" lon="-3.903273">
        <ele>582.886</ele>
        <time>2021-10-12T07:26:11Z</time>
      </trkpt>
      <trkpt lat="37.178549" lon="-3.904026">
        <ele>588.222</ele>
        <time>2021-10-12T07:26:13Z</time>
      </trkpt>
      <trkpt lat="37.178549" lon="-3.904415">
        <ele>589.062</ele>
        <time>2021-10-12T07:26:14Z</time>
      </trkpt>
      <trkpt lat="37.178575" lon="-3.905150">
        <ele>588.508</ele>
        <time>2021-10-12T07:26:16Z</time>
      </trkpt>
      <trkpt lat="37.178612" lon="-3.905870">
        <ele>584.908</ele>
        <time>2021-10-12T07:26:18Z</time>
      </trkpt>
      <trkpt lat="37.178633" lon="-3.906227">
        <ele>583.590</ele>
        <time>2021-10-12T07:26:19Z</time>
      </trkpt>
      <trkpt lat="37.178667" lon="-3.906589">
        <ele>582.198</ele>
        <time>2021-10-12T07:26:20Z</time>
      </trkpt>
      <trkpt lat="37.178740" lon="-3.907281">
        <ele>579.994</ele>
        <time>2021-10-12T07:26:22Z</time>
      </trkpt>
      <trkpt lat="37.178786" lon="-3.907983">
        <ele>579.427</ele>
        <time>2021-10-12T07:26:24Z</time>
      </trkpt>
      <trkpt lat="37.178797" lon="-3.908337">
        <ele>580.023</ele>
        <time>2021-10-12T07:26:25Z</time>
      </trkpt>
      <trkpt lat="37.178820" lon="-3.908707">
        <ele>580.072</ele>
        <time>2021-10-12T07:26:26Z</time>
      </trkpt>
      <trkpt lat="37.178863" lon="-3.909400">
        <ele>578.312</ele>
        <time>2021-10-12T07:26:28Z</time>
      </trkpt>
      <trkpt lat="37.178924" lon="-3.910123">
        <ele>578.293</ele>
        <time>2021-10-12T07:26:30Z</time>
      </trkpt>
      <trkpt lat="37.179007" lon="-3.910864">
        <ele>578.137</ele>
        <time>2021-10-12T07:26:32Z</time>
      </trkpt>
      <trkpt lat="37.179104" lon="-3.911602">
        <ele>577.549</ele>
        <time>2021-10-12T07:26:34Z</time>
      </trkpt>
      <trkpt lat="37.179212" lon="-3.912347">
        <ele>575.113</ele>
        <time>2021-10-12T07:26:36Z</time>
      </trkpt>
      <trkpt lat="37.179278" lon="-3.912718">
        <ele>574.208</ele>
        <time>2021-10-12T07:26:37Z</time>
      </trkpt>
      <trkpt lat="37.179347" lon="-3.913097">
        <ele>576.331</ele>
        <time>2021-10-12T07:26:38Z</time>
      </trkpt>
      <trkpt lat="37.179466" lon="-3.913821">
        <ele>576.039</ele>
        <time>2021-10-12T07:26:40Z</time>
      </trkpt>
      <trkpt lat="37.179519" lon="-3.914189">
        <ele>576.195</ele>
        <time>2021-10-12T07:26:41Z</time>
      </trkpt>
      <trkpt lat="37.179623" lon="-3.914919">
        <ele>576.358</ele>
        <time>2021-10-12T07:26:43Z</time>
      </trkpt>
      <trkpt lat="37.179680" lon="-3.915292">
        <ele>575.354</ele>
        <time>2021-10-12T07:26:44Z</time>
      </trkpt>
      <trkpt lat="37.179780" lon="-3.916011">
        <ele>574.073</ele>
        <time>2021-10-12T07:26:46Z</time>
      </trkpt>
      <trkpt lat="37.179885" lon="-3.916755">
        <ele>574.543</ele>
        <time>2021-10-12T07:26:48Z</time>
      </trkpt>
      <trkpt lat="37.179989" lon="-3.917505">
        <ele>574.034</ele>
        <time>2021-10-12T07:26:50Z</time>
      </trkpt>
      <trkpt lat="37.180089" lon="-3.918228">
        <ele>572.721</ele>
        <time>2021-10-12T07:26:52Z</time>
      </trkpt>
      <trkpt lat="37.180198" lon="-3.918954">
        <ele>572.141</ele>
        <time>2021-10-12T07:26:54Z</time>
      </trkpt>
      <trkpt lat="37.180252" lon="-3.919319">
        <ele>572.105</ele>
        <time>2021-10-12T07:26:55Z</time>
      </trkpt>
      <trkpt lat="37.180312" lon="-3.919698">
        <ele>573.608</ele>
        <time>2021-10-12T07:26:56Z</time>
      </trkpt>
      <trkpt lat="37.180412" lon="-3.920405">
        <ele>574.360</ele>
        <time>2021-10-12T07:26:58Z</time>
      </trkpt>
      <trkpt lat="37.180470" lon="-3.920764">
        <ele>574.328</ele>
        <time>2021-10-12T07:26:59Z</time>
      </trkpt>
      <trkpt lat="37.180585" lon="-3.921474">
        <ele>576.174</ele>
        <time>2021-10-12T07:27:01Z</time>
      </trkpt>
      <trkpt lat="37.180641" lon="-3.921827">
        <ele>576.877</ele>
        <time>2021-10-12T07:27:02Z</time>
      </trkpt>
      <trkpt lat="37.180690" lon="-3.922177">
        <ele>577.043</ele>
        <time>2021-10-12T07:27:03Z</time>
      </trkpt>
      <trkpt lat="37.180776" lon="-3.922881">
        <ele>584.292</ele>
        <time>2021-10-12T07:27:05Z</time>
      </trkpt>
      <trkpt lat="37.180839" lon="-3.923588">
        <ele>583.942</ele>
        <time>2021-10-12T07:27:07Z</time>
      </trkpt>
      <trkpt lat="37.180860" lon="-3.923958">
        <ele>584.513</ele>
        <time>2021-10-12T07:27:08Z</time>
      </trkpt>
      <trkpt lat="37.180898" lon="-3.924664">
        <ele>583.122</ele>
        <time>2021-10-12T07:27:10Z</time>
      </trkpt>
      <trkpt lat="37.180929" lon="-3.925381">
        <ele>586.262</ele>
        <time>2021-10-12T07:27:12Z</time>
      </trkpt>
      <trkpt lat="37.180938" lon="-3.925751">
        <ele>586.208</ele>
        <time>2021-10-12T07:27:13Z</time>
      </trkpt>
      <trkpt lat="37.180944" lon="-3.926128">
        <ele>585.508</ele>
        <time>2021-10-12T07:27:14Z</time>
      </trkpt>
      <trkpt lat="37.180962" lon="-3.926867">
        <ele>586.760</ele>
        <time>2021-10-12T07:27:16Z</time>
      </trkpt>
      <trkpt lat="37.180951" lon="-3.927632">
        <ele>588.998</ele>
        <time>2021-10-12T07:27:18Z</time>
      </trkpt>
      <trkpt lat="37.180929" lon="-3.928407">
        <ele>592.384</ele>
        <time>2021-10-12T07:27:20Z</time>
      </trkpt>
      <trkpt lat="37.180901" lon="-3.929155">
        <ele>592.087</ele>
        <time>2021-10-12T07:27:22Z</time>
      </trkpt>
      <trkpt lat="37.180886" lon="-3.929534">
        <ele>592.313</ele>
        <time>2021-10-12T07:27:23Z</time>
      </trkpt>
      <trkpt lat="37.180868" lon="-3.929908">
        <ele>593.512</ele>
        <time>2021-10-12T07:27:24Z</time>
      </trkpt>
      <trkpt lat="37.180842" lon="-3.930661">
        <ele>591.692</ele>
        <time>2021-10-12T07:27:26Z</time>
      </trkpt>
      <trkpt lat="37.180821" lon="-3.931371">
        <ele>592.933</ele>
        <time>2021-10-12T07:27:28Z</time>
      </trkpt>
      <trkpt lat="37.180798" lon="-3.932097">
        <ele>593.588</ele>
        <time>2021-10-12T07:27:30Z</time>
      </trkpt>
      <trkpt lat="37.180786" lon="-3.932460">
        <ele>593.024</ele>
        <time>2021-10-12T07:27:31Z</time>
      </trkpt>
      <trkpt lat="37.180769" lon="-3.933188">
        <ele>591.126</ele>
        <time>2021-10-12T07:27:33Z</time>
      </trkpt>
      <trkpt lat="37.180755" lon="-3.933912">
        <ele>593.308</ele>
        <time>2021-10-12T07:27:35Z</time>
      </trkpt>
      <trkpt lat="37.180733" lon="-3.934633">
        <ele>589.666</ele>
        <time>2021-10-12T07:27:37Z</time>
      </trkpt>
      <trkpt lat="37.180704" lon="-3.935010">
        <ele>587.524</ele>
        <time>2021-10-12T07:27:38Z</time>
      </trkpt>
      <trkpt lat="37.180610" lon="-3.935734">
        <ele>586.630</ele>
        <time>2021-10-12T07:27:40Z</time>
      </trkpt>
      <trkpt lat="37.180542" lon="-3.936100">
        <ele>584.053</ele>
        <time>2021-10-12T07:27:41Z</time>
      </trkpt>
      <trkpt lat="37.180478" lon="-3.936468">
        <ele>582.629</ele>
        <time>2021-10-12T07:27:42Z</time>
      </trkpt>
      <trkpt lat="37.180429" lon="-3.936841">
        <ele>581.558</ele>
        <time>2021-10-12T07:27:43Z</time>
      </trkpt>
      <trkpt lat="37.180370" lon="-3.937224">
        <ele>579.788</ele>
        <time>2021-10-12T07:27:44Z</time>
      </trkpt>
      <trkpt lat="37.180244" lon="-3.937968">
        <ele>576.199</ele>
        <time>2021-10-12T07:27:46Z</time>
      </trkpt>
      <trkpt lat="37.180165" lon="-3.938744">
        <ele>577.084</ele>
        <time>2021-10-12T07:27:48Z</time>
      </trkpt>
      <trkpt lat="37.180066" lon="-3.939512">
        <ele>580.407</ele>
        <time>2021-10-12T07:27:50Z</time>
      </trkpt>
      <trkpt lat="37.179967" lon="-3.940234">
        <ele>584.717</ele>
        <time>2021-10-12T07:27:52Z</time>
      </trkpt>
      <trkpt lat="37.179914" lon="-3.940596">
        <ele>584.908</ele>
        <time>2021-10-12T07:27:53Z</time>
      </trkpt>
      <trkpt lat="37.179875" lon="-3.940958">
        <ele>584.076</ele>
        <time>2021-10-12T07:27:54Z</time>
      </trkpt>
      <trkpt lat="37.179837" lon="-3.941677">
        <ele>583.024</ele>
        <time>2021-10-12T07:27:56Z</time>
      </trkpt>
      <trkpt lat="37.179871" lon="-3.942399">
        <ele>582.770</ele>
        <time>2021-10-12T07:27:58Z</time>
      </trkpt>
      <trkpt lat="37.179919" lon="-3.942768">
        <ele>582.773</ele>
        <time>2021-10-12T07:27:59Z</time>
      </trkpt>
      <trkpt lat="37.180049" lon="-3.943508">
        <ele>583.269</ele>
        <time>2021-10-12T07:28:01Z</time>
      </trkpt>
      <trkpt lat="37.180136" lon="-3.943875">
        <ele>583.198</ele>
        <time>2021-10-12T07:28:02Z</time>
      </trkpt>
      <trkpt lat="37.180353" lon="-3.944596">
        <ele>577.378</ele>
        <time>2021-10-12T07:28:04Z</time>
      </trkpt>
      <trkpt lat="37.180603" lon="-3.945309">
        <ele>578.289</ele>
        <time>2021-10-12T07:28:06Z</time>
      </trkpt>
      <trkpt lat="37.180859" lon="-3.946033">
        <ele>575.713</ele>
        <time>2021-10-12T07:28:08Z</time>
      </trkpt>
      <trkpt lat="37.181101" lon="-3.946748">
        <ele>575.043</ele>
        <time>2021-10-12T07:28:10Z</time>
      </trkpt>
      <trkpt lat="37.181357" lon="-3.947484">
        <ele>576.807</ele>
        <time>2021-10-12T07:28:12Z</time>
      </trkpt>
      <trkpt lat="37.181497" lon="-3.947851">
        <ele>577.108</ele>
        <time>2021-10-12T07:28:13Z</time>
      </trkpt>
      <trkpt lat="37.181639" lon="-3.948218">
        <ele>578.439</ele>
        <time>2021-10-12T07:28:14Z</time>
      </trkpt>
      <trkpt lat="37.181896" lon="-3.948911">
        <ele>575.827</ele>
        <time>2021-10-12T07:28:16Z</time>
      </trkpt>
      <trkpt lat="37.182019" lon="-3.949265">
        <ele>574.183</ele>
        <time>2021-10-12T07:28:17Z</time>
      </trkpt>
      <trkpt lat="37.182256" lon="-3.949952">
        <ele>574.456</ele>
        <time>2021-10-12T07:28:19Z</time>
      </trkpt>
      <trkpt lat="37.182368" lon="-3.950319">
        <ele>573.262</ele>
        <time>2021-10-12T07:28:20Z</time>
      </trkpt>
      <trkpt lat="37.182581" lon="-3.951014">
        <ele>571.011</ele>
        <time>2021-10-12T07:28:22Z</time>
      </trkpt>
      <trkpt lat="37.182684" lon="-3.951362">
        <ele>571.011</ele>
        <time>2021-10-12T07:28:23Z</time>
      </trkpt>
      <trkpt lat="37.182885" lon="-3.952046">
        <ele>570.112</ele>
        <time>2021-10-12T07:28:25Z</time>
      </trkpt>
      <trkpt lat="37.183101" lon="-3.952725">
        <ele>570.346</ele>
        <time>2021-10-12T07:28:27Z</time>
      </trkpt>
      <trkpt lat="37.183215" lon="-3.953073">
        <ele>569.088</ele>
        <time>2021-10-12T07:28:28Z</time>
      </trkpt>
      <trkpt lat="37.183324" lon="-3.953420">
        <ele>568.016</ele>
        <time>2021-10-12T07:28:29Z</time>
      </trkpt>
      <trkpt lat="37.183543" lon="-3.954113">
        <ele>568.208</ele>
        <time>2021-10-12T07:28:31Z</time>
      </trkpt>
      <trkpt lat="37.183769" lon="-3.954807">
        <ele>568.082</ele>
        <time>2021-10-12T07:28:33Z</time>
      </trkpt>
      <trkpt lat="37.183884" lon="-3.955158">
        <ele>568.090</ele>
        <time>2021-10-12T07:28:34Z</time>
      </trkpt>
      <trkpt lat="37.184107" lon="-3.955865">
        <ele>566.226</ele>
        <time>2021-10-12T07:28:36Z</time>
      </trkpt>
      <trkpt lat="37.184342" lon="-3.956586">
        <ele>566.579</ele>
        <time>2021-10-12T07:28:38Z</time>
      </trkpt>
      <trkpt lat="37.184587" lon="-3.957279">
        <ele>567.235</ele>
        <time>2021-10-12T07:28:40Z</time>
      </trkpt>
      <trkpt lat="37.184873" lon="-3.957969">
        <ele>564.744</ele>
        <time>2021-10-12T07:28:42Z</time>
      </trkpt>
      <trkpt lat="37.185194" lon="-3.958654">
        <ele>565.254</ele>
        <time>2021-10-12T07:28:44Z</time>
      </trkpt>
      <trkpt lat="37.185505" lon="-3.959312">
        <ele>564.055</ele>
        <time>2021-10-12T07:28:46Z</time>
      </trkpt>
      <trkpt lat="37.185665" lon="-3.959646">
        <ele>563.322</ele>
        <time>2021-10-12T07:28:47Z</time>
      </trkpt>
      <trkpt lat="37.185981" lon="-3.960306">
        <ele>561.562</ele>
        <time>2021-10-12T07:28:49Z</time>
      </trkpt>
      <trkpt lat="37.186136" lon="-3.960643">
        <ele>561.008</ele>
        <time>2021-10-12T07:28:50Z</time>
      </trkpt>
      <trkpt lat="37.186434" lon="-3.961284">
        <ele>560.508</ele>
        <time>2021-10-12T07:28:52Z</time>
      </trkpt>
      <trkpt lat="37.186581" lon="-3.961619">
        <ele>562.050</ele>
        <time>2021-10-12T07:28:53Z</time>
      </trkpt>
      <trkpt lat="37.186871" lon="-3.962296">
        <ele>561.188</ele>
        <time>2021-10-12T07:28:55Z</time>
      </trkpt>
      <trkpt lat="37.187143" lon="-3.963010">
        <ele>556.184</ele>
        <time>2021-10-12T07:28:57Z</time>
      </trkpt>
      <trkpt lat="37.187358" lon="-3.963781">
        <ele>554.897</ele>
        <time>2021-10-12T07:28:59Z</time>
      </trkpt>
      <trkpt lat="37.187537" lon="-3.964577">
        <ele>554.843</ele>
        <time>2021-10-12T07:29:01Z</time>
      </trkpt>
      <trkpt lat="37.187628" lon="-3.964977">
        <ele>554.512</ele>
        <time>2021-10-12T07:29:02Z</time>
      </trkpt>
      <trkpt lat="37.187803" lon="-3.965769">
        <ele>554.442</ele>
        <time>2021-10-12T07:29:04Z</time>
      </trkpt>
      <trkpt lat="37.187899" lon="-3.966160">
        <ele>553.313</ele>
        <time>2021-10-12T07:29:05Z</time>
      </trkpt>
      <trkpt lat="37.188127" lon="-3.966915">
        <ele>551.143</ele>
        <time>2021-10-12T07:29:07Z</time>
      </trkpt>
      <trkpt lat="37.188264" lon="-3.967295">
        <ele>549.764</ele>
        <time>2021-10-12T07:29:08Z</time>
      </trkpt>
      <trkpt lat="37.188540" lon="-3.968014">
        <ele>548.010</ele>
        <time>2021-10-12T07:29:10Z</time>
      </trkpt>
      <trkpt lat="37.188813" lon="-3.968742">
        <ele>548.008</ele>
        <time>2021-10-12T07:29:12Z</time>
      </trkpt>
      <trkpt lat="37.189075" lon="-3.969452">
        <ele>547.722</ele>
        <time>2021-10-12T07:29:14Z</time>
      </trkpt>
      <trkpt lat="37.189329" lon="-3.970141">
        <ele>547.330</ele>
        <time>2021-10-12T07:29:16Z</time>
      </trkpt>
      <trkpt lat="37.189593" lon="-3.970837">
        <ele>549.096</ele>
        <time>2021-10-12T07:29:18Z</time>
      </trkpt>
      <trkpt lat="37.189727" lon="-3.971189">
        <ele>550.049</ele>
        <time>2021-10-12T07:29:19Z</time>
      </trkpt>
      <trkpt lat="37.189859" lon="-3.971539">
        <ele>549.835</ele>
        <time>2021-10-12T07:29:20Z</time>
      </trkpt>
      <trkpt lat="37.190113" lon="-3.972204">
        <ele>552.154</ele>
        <time>2021-10-12T07:29:22Z</time>
      </trkpt>
      <trkpt lat="37.190394" lon="-3.972881">
        <ele>552.454</ele>
        <time>2021-10-12T07:29:24Z</time>
      </trkpt>
      <trkpt lat="37.190527" lon="-3.973238">
        <ele>551.975</ele>
        <time>2021-10-12T07:29:25Z</time>
      </trkpt>
      <trkpt lat="37.190785" lon="-3.973954">
        <ele>551.785</ele>
        <time>2021-10-12T07:29:27Z</time>
      </trkpt>
      <trkpt lat="37.190912" lon="-3.974302">
        <ele>552.589</ele>
        <time>2021-10-12T07:29:28Z</time>
      </trkpt>
      <trkpt lat="37.191163" lon="-3.974983">
        <ele>553.817</ele>
        <time>2021-10-12T07:29:30Z</time>
      </trkpt>
      <trkpt lat="37.191417" lon="-3.975652">
        <ele>552.308</ele>
        <time>2021-10-12T07:29:32Z</time>
      </trkpt>
      <trkpt lat="37.191663" lon="-3.976315">
        <ele>553.316</ele>
        <time>2021-10-12T07:29:34Z</time>
      </trkpt>
      <trkpt lat="37.191785" lon="-3.976644">
        <ele>552.554</ele>
        <time>2021-10-12T07:29:35Z</time>
      </trkpt>
      <trkpt lat="37.192026" lon="-3.977306">
        <ele>552.660</ele>
        <time>2021-10-12T07:29:37Z</time>
      </trkpt>
      <trkpt lat="37.192143" lon="-3.977647">
        <ele>553.593</ele>
        <time>2021-10-12T07:29:38Z</time>
      </trkpt>
      <trkpt lat="37.192344" lon="-3.978317">
        <ele>551.429</ele>
        <time>2021-10-12T07:29:40Z</time>
      </trkpt>
      <trkpt lat="37.192483" lon="-3.979027">
        <ele>555.668</ele>
        <time>2021-10-12T07:29:42Z</time>
      </trkpt>
      <trkpt lat="37.192541" lon="-3.979403">
        <ele>555.148</ele>
        <time>2021-10-12T07:29:43Z</time>
      </trkpt>
      <trkpt lat="37.192598" lon="-3.979772">
        <ele>554.659</ele>
        <time>2021-10-12T07:29:44Z</time>
      </trkpt>
      <trkpt lat="37.192707" lon="-3.980495">
        <ele>553.316</ele>
        <time>2021-10-12T07:29:46Z</time>
      </trkpt>
      <trkpt lat="37.192816" lon="-3.981229">
        <ele>551.576</ele>
        <time>2021-10-12T07:29:48Z</time>
      </trkpt>
      <trkpt lat="37.192926" lon="-3.981972">
        <ele>548.913</ele>
        <time>2021-10-12T07:29:50Z</time>
      </trkpt>
      <trkpt lat="37.193034" lon="-3.982681">
        <ele>548.108</ele>
        <time>2021-10-12T07:29:52Z</time>
      </trkpt>
      <trkpt lat="37.193090" lon="-3.983036">
        <ele>547.149</ele>
        <time>2021-10-12T07:29:53Z</time>
      </trkpt>
      <trkpt lat="37.193206" lon="-3.983755">
        <ele>547.087</ele>
        <time>2021-10-12T07:29:55Z</time>
      </trkpt>
      <trkpt lat="37.193267" lon="-3.984138">
        <ele>548.163</ele>
        <time>2021-10-12T07:29:56Z</time>
      </trkpt>
      <trkpt lat="37.193379" lon="-3.984877">
        <ele>546.596</ele>
        <time>2021-10-12T07:29:58Z</time>
      </trkpt>
      <trkpt lat="37.193502" lon="-3.985639">
        <ele>546.062</ele>
        <time>2021-10-12T07:30:00Z</time>
      </trkpt>
      <trkpt lat="37.193622" lon="-3.986389">
        <ele>548.111</ele>
        <time>2021-10-12T07:30:02Z</time>
      </trkpt>
      <trkpt lat="37.193733" lon="-3.987118">
        <ele>546.491</ele>
        <time>2021-10-12T07:30:04Z</time>
      </trkpt>
      <trkpt lat="37.193829" lon="-3.987837">
        <ele>545.852</ele>
        <time>2021-10-12T07:30:06Z</time>
      </trkpt>
      <trkpt lat="37.193869" lon="-3.988198">
        <ele>544.524</ele>
        <time>2021-10-12T07:30:07Z</time>
      </trkpt>
      <trkpt lat="37.193904" lon="-3.988569">
        <ele>543.104</ele>
        <time>2021-10-12T07:30:08Z</time>
      </trkpt>
      <trkpt lat="37.193949" lon="-3.989299">
        <ele>541.714</ele>
        <time>2021-10-12T07:30:10Z</time>
      </trkpt>
      <trkpt lat="37.193959" lon="-3.989674">
        <ele>541.508</ele>
        <time>2021-10-12T07:30:11Z</time>
      </trkpt>
      <trkpt lat="37.193957" lon="-3.990051">
        <ele>540.440</ele>
        <time>2021-10-12T07:30:12Z</time>
      </trkpt>
      <trkpt lat="37.193944" lon="-3.990430">
        <ele>537.938</ele>
        <time>2021-10-12T07:30:13Z</time>
      </trkpt>
      <trkpt lat="37.193919" lon="-3.990817">
        <ele>535.294</ele>
        <time>2021-10-12T07:30:14Z</time>
      </trkpt>
      <trkpt lat="37.193839" lon="-3.991578">
        <ele>537.187</ele>
        <time>2021-10-12T07:30:16Z</time>
      </trkpt>
      <trkpt lat="37.193789" lon="-3.991970">
        <ele>538.333</ele>
        <time>2021-10-12T07:30:17Z</time>
      </trkpt>
      <trkpt lat="37.193675" lon="-3.992740">
        <ele>537.492</ele>
        <time>2021-10-12T07:30:19Z</time>
      </trkpt>
      <trkpt lat="37.193616" lon="-3.993117">
        <ele>535.672</ele>
        <time>2021-10-12T07:30:20Z</time>
      </trkpt>
      <trkpt lat="37.193500" lon="-3.993821">
        <ele>533.293</ele>
        <time>2021-10-12T07:30:22Z</time>
      </trkpt>
      <trkpt lat="37.193443" lon="-3.994179">
        <ele>533.078</ele>
        <time>2021-10-12T07:30:23Z</time>
      </trkpt>
      <trkpt lat="37.193391" lon="-3.994528">
        <ele>531.433</ele>
        <time>2021-10-12T07:30:24Z</time>
      </trkpt>
      <trkpt lat="37.193279" lon="-3.995233">
        <ele>522.326</ele>
        <time>2021-10-12T07:30:26Z</time>
      </trkpt>
      <trkpt lat="37.193172" lon="-3.995913">
        <ele>521.508</ele>
        <time>2021-10-12T07:30:28Z</time>
      </trkpt>
      <trkpt lat="37.193121" lon="-3.996262">
        <ele>518.915</ele>
        <time>2021-10-12T07:30:29Z</time>
      </trkpt>
      <trkpt lat="37.193071" lon="-3.996612">
        <ele>515.643</ele>
        <time>2021-10-12T07:30:30Z</time>
      </trkpt>
      <trkpt lat="37.193025" lon="-3.996967">
        <ele>515.519</ele>
        <time>2021-10-12T07:30:31Z</time>
      </trkpt>
      <trkpt lat="37.192955" lon="-3.997696">
        <ele>511.192</ele>
        <time>2021-10-12T07:30:33Z</time>
      </trkpt>
      <trkpt lat="37.192935" lon="-3.998448">
        <ele>505.728</ele>
        <time>2021-10-12T07:30:35Z</time>
      </trkpt>
      <trkpt lat="37.192943" lon="-3.998835">
        <ele>503.087</ele>
        <time>2021-10-12T07:30:36Z</time>
      </trkpt>
      <trkpt lat="37.192959" lon="-3.999225">
        <ele>500.317</ele>
        <time>2021-10-12T07:30:37Z</time>
      </trkpt>
      <trkpt lat="37.192975" lon="-3.999625">
        <ele>498.448</ele>
        <time>2021-10-12T07:30:38Z</time>
      </trkpt>
      <trkpt lat="37.193003" lon="-4.000413">
        <ele>499.099</ele>
        <time>2021-10-12T07:30:40Z</time>
      </trkpt>
      <trkpt lat="37.193032" lon="-4.001208">
        <ele>495.907</ele>
        <time>2021-10-12T07:30:42Z</time>
      </trkpt>
      <trkpt lat="37.193048" lon="-4.001617">
        <ele>495.127</ele>
        <time>2021-10-12T07:30:43Z</time>
      </trkpt>
      <trkpt lat="37.193063" lon="-4.002018">
        <ele>492.708</ele>
        <time>2021-10-12T07:30:44Z</time>
      </trkpt>
      <trkpt lat="37.193101" lon="-4.002798">
        <ele>493.797</ele>
        <time>2021-10-12T07:30:46Z</time>
      </trkpt>
      <trkpt lat="37.193124" lon="-4.003188">
        <ele>494.345</ele>
        <time>2021-10-12T07:30:47Z</time>
      </trkpt>
      <trkpt lat="37.193206" lon="-4.003957">
        <ele>492.941</ele>
        <time>2021-10-12T07:30:49Z</time>
      </trkpt>
      <trkpt lat="37.193272" lon="-4.004341">
        <ele>490.494</ele>
        <time>2021-10-12T07:30:50Z</time>
      </trkpt>
      <trkpt lat="37.193457" lon="-4.005059">
        <ele>493.210</ele>
        <time>2021-10-12T07:30:52Z</time>
      </trkpt>
      <trkpt lat="37.193705" lon="-4.005754">
        <ele>496.319</ele>
        <time>2021-10-12T07:30:54Z</time>
      </trkpt>
      <trkpt lat="37.193848" lon="-4.006088">
        <ele>496.679</ele>
        <time>2021-10-12T07:30:55Z</time>
      </trkpt>
      <trkpt lat="37.194002" lon="-4.006428">
        <ele>497.040</ele>
        <time>2021-10-12T07:30:56Z</time>
      </trkpt>
      <trkpt lat="37.194296" lon="-4.007065">
        <ele>493.343</ele>
        <time>2021-10-12T07:30:58Z</time>
      </trkpt>
      <trkpt lat="37.194445" lon="-4.007392">
        <ele>493.864</ele>
        <time>2021-10-12T07:30:59Z</time>
      </trkpt>
      <trkpt lat="37.194591" lon="-4.007716">
        <ele>495.510</ele>
        <time>2021-10-12T07:31:00Z</time>
      </trkpt>
      <trkpt lat="37.194735" lon="-4.008039">
        <ele>494.808</ele>
        <time>2021-10-12T07:31:01Z</time>
      </trkpt>
      <trkpt lat="37.194873" lon="-4.008365">
        <ele>496.722</ele>
        <time>2021-10-12T07:31:02Z</time>
      </trkpt>
      <trkpt lat="37.195126" lon="-4.009028">
        <ele>501.590</ele>
        <time>2021-10-12T07:31:04Z</time>
      </trkpt>
      <trkpt lat="37.195335" lon="-4.009728">
        <ele>506.956</ele>
        <time>2021-10-12T07:31:06Z</time>
      </trkpt>
      <trkpt lat="37.195418" lon="-4.010095">
        <ele>509.779</ele>
        <time>2021-10-12T07:31:07Z</time>
      </trkpt>
      <trkpt lat="37.195487" lon="-4.010476">
        <ele>512.485</ele>
        <time>2021-10-12T07:31:08Z</time>
      </trkpt>
      <trkpt lat="37.195574" lon="-4.011233">
        <ele>515.924</ele>
        <time>2021-10-12T07:31:10Z</time>
      </trkpt>
      <trkpt lat="37.195588" lon="-4.011627">
        <ele>517.014</ele>
        <time>2021-10-12T07:31:11Z</time>
      </trkpt>
      <trkpt lat="37.195572" lon="-4.012419">
        <ele>517.225</ele>
        <time>2021-10-12T07:31:13Z</time>
      </trkpt>
      <trkpt lat="37.195552" lon="-4.012820">
        <ele>519.182</ele>
        <time>2021-10-12T07:31:14Z</time>
      </trkpt>
      <trkpt lat="37.195509" lon="-4.013595">
        <ele>522.143</ele>
        <time>2021-10-12T07:31:16Z</time>
      </trkpt>
      <trkpt lat="37.195469" lon="-4.014357">
        <ele>527.017</ele>
        <time>2021-10-12T07:31:18Z</time>
      </trkpt>
      <trkpt lat="37.195451" lon="-4.014730">
        <ele>527.408</ele>
        <time>2021-10-12T07:31:19Z</time>
      </trkpt>
      <trkpt lat="37.195432" lon="-4.015109">
        <ele>528.066</ele>
        <time>2021-10-12T07:31:20Z</time>
      </trkpt>
      <trkpt lat="37.195393" lon="-4.015845">
        <ele>527.614</ele>
        <time>2021-10-12T07:31:22Z</time>
      </trkpt>
      <trkpt lat="37.195369" lon="-4.016221">
        <ele>526.780</ele>
        <time>2021-10-12T07:31:23Z</time>
      </trkpt>
      <trkpt lat="37.195329" lon="-4.016971">
        <ele>523.293</ele>
        <time>2021-10-12T07:31:25Z</time>
      </trkpt>
      <trkpt lat="37.195309" lon="-4.017358">
        <ele>523.069</ele>
        <time>2021-10-12T07:31:26Z</time>
      </trkpt>
      <trkpt lat="37.195248" lon="-4.018094">
        <ele>523.148</ele>
        <time>2021-10-12T07:31:28Z</time>
      </trkpt>
      <trkpt lat="37.195205" lon="-4.018473">
        <ele>522.528</ele>
        <time>2021-10-12T07:31:29Z</time>
      </trkpt>
      <trkpt lat="37.195150" lon="-4.018851">
        <ele>521.519</ele>
        <time>2021-10-12T07:31:30Z</time>
      </trkpt>
      <trkpt lat="37.195084" lon="-4.019229">
        <ele>520.584</ele>
        <time>2021-10-12T07:31:31Z</time>
      </trkpt>
      <trkpt lat="37.194920" lon="-4.019983">
        <ele>521.207</ele>
        <time>2021-10-12T07:31:33Z</time>
      </trkpt>
      <trkpt lat="37.194701" lon="-4.020725">
        <ele>521.017</ele>
        <time>2021-10-12T07:31:35Z</time>
      </trkpt>
      <trkpt lat="37.194572" lon="-4.021091">
        <ele>521.408</ele>
        <time>2021-10-12T07:31:36Z</time>
      </trkpt>
      <trkpt lat="37.194276" lon="-4.021806">
        <ele>519.586</ele>
        <time>2021-10-12T07:31:38Z</time>
      </trkpt>
      <trkpt lat="37.193931" lon="-4.022481">
        <ele>521.694</ele>
        <time>2021-10-12T07:31:40Z</time>
      </trkpt>
      <trkpt lat="37.193736" lon="-4.022814">
        <ele>519.810</ele>
        <time>2021-10-12T07:31:41Z</time>
      </trkpt>
      <trkpt lat="37.193529" lon="-4.023133">
        <ele>517.413</ele>
        <time>2021-10-12T07:31:42Z</time>
      </trkpt>
      <trkpt lat="37.193315" lon="-4.023442">
        <ele>516.389</ele>
        <time>2021-10-12T07:31:43Z</time>
      </trkpt>
      <trkpt lat="37.193089" lon="-4.023745">
        <ele>515.788</ele>
        <time>2021-10-12T07:31:44Z</time>
      </trkpt>
      <trkpt lat="37.192636" lon="-4.024315">
        <ele>513.098</ele>
        <time>2021-10-12T07:31:46Z</time>
      </trkpt>
      <trkpt lat="37.192168" lon="-4.024871">
        <ele>506.989</ele>
        <time>2021-10-12T07:31:48Z</time>
      </trkpt>
      <trkpt lat="37.191698" lon="-4.025420">
        <ele>499.768</ele>
        <time>2021-10-12T07:31:50Z</time>
      </trkpt>
      <trkpt lat="37.191242" lon="-4.025957">
        <ele>501.342</ele>
        <time>2021-10-12T07:31:52Z</time>
      </trkpt>
      <trkpt lat="37.191009" lon="-4.026223">
        <ele>502.326</ele>
        <time>2021-10-12T07:31:53Z</time>
      </trkpt>
      <trkpt lat="37.190542" lon="-4.026754">
        <ele>500.308</ele>
        <time>2021-10-12T07:31:55Z</time>
      </trkpt>
      <trkpt lat="37.190298" lon="-4.027023">
        <ele>499.444</ele>
        <time>2021-10-12T07:31:56Z</time>
      </trkpt>
      <trkpt lat="37.189847" lon="-4.027537">
        <ele>498.532</ele>
        <time>2021-10-12T07:31:58Z</time>
      </trkpt>
      <trkpt lat="37.189378" lon="-4.028072">
        <ele>498.538</ele>
        <time>2021-10-12T07:32:00Z</time>
      </trkpt>
      <trkpt lat="37.189146" lon="-4.028346">
        <ele>500.121</ele>
        <time>2021-10-12T07:32:01Z</time>
      </trkpt>
      <trkpt lat="37.188904" lon="-4.028629">
        <ele>501.937</ele>
        <time>2021-10-12T07:32:02Z</time>
      </trkpt>
      <trkpt lat="37.188448" lon="-4.029163">
        <ele>503.016</ele>
        <time>2021-10-12T07:32:04Z</time>
      </trkpt>
      <trkpt lat="37.187982" lon="-4.029709">
        <ele>500.156</ele>
        <time>2021-10-12T07:32:06Z</time>
      </trkpt>
      <trkpt lat="37.187512" lon="-4.030251">
        <ele>500.117</ele>
        <time>2021-10-12T07:32:08Z</time>
      </trkpt>
      <trkpt lat="37.187056" lon="-4.030780">
        <ele>501.715</ele>
        <time>2021-10-12T07:32:10Z</time>
      </trkpt>
      <trkpt lat="37.186827" lon="-4.031047">
        <ele>500.365</ele>
        <time>2021-10-12T07:32:11Z</time>
      </trkpt>
      <trkpt lat="37.186601" lon="-4.031315">
        <ele>499.911</ele>
        <time>2021-10-12T07:32:12Z</time>
      </trkpt>
      <trkpt lat="37.186150" lon="-4.031844">
        <ele>503.208</ele>
        <time>2021-10-12T07:32:14Z</time>
      </trkpt>
      <trkpt lat="37.185704" lon="-4.032356">
        <ele>506.989</ele>
        <time>2021-10-12T07:32:16Z</time>
      </trkpt>
      <trkpt lat="37.185478" lon="-4.032617">
        <ele>508.527</ele>
        <time>2021-10-12T07:32:17Z</time>
      </trkpt>
      <trkpt lat="37.185025" lon="-4.033139">
        <ele>508.483</ele>
        <time>2021-10-12T07:32:19Z</time>
      </trkpt>
      <trkpt lat="37.184793" lon="-4.033417">
        <ele>509.826</ele>
        <time>2021-10-12T07:32:20Z</time>
      </trkpt>
      <trkpt lat="37.184357" lon="-4.033974">
        <ele>506.152</ele>
        <time>2021-10-12T07:32:22Z</time>
      </trkpt>
      <trkpt lat="37.184145" lon="-4.034271">
        <ele>503.571</ele>
        <time>2021-10-12T07:32:23Z</time>
      </trkpt>
      <trkpt lat="37.183741" lon="-4.034889">
        <ele>500.931</ele>
        <time>2021-10-12T07:32:25Z</time>
      </trkpt>
      <trkpt lat="37.183547" lon="-4.035232">
        <ele>499.712</ele>
        <time>2021-10-12T07:32:26Z</time>
      </trkpt>
      <trkpt lat="37.183209" lon="-4.035900">
        <ele>500.516</ele>
        <time>2021-10-12T07:32:28Z</time>
      </trkpt>
      <trkpt lat="37.182914" lon="-4.036615">
        <ele>500.676</ele>
        <time>2021-10-12T07:32:30Z</time>
      </trkpt>
      <trkpt lat="37.182788" lon="-4.036986">
        <ele>500.813</ele>
        <time>2021-10-12T07:32:31Z</time>
      </trkpt>
      <trkpt lat="37.182576" lon="-4.037744">
        <ele>501.908</ele>
        <time>2021-10-12T07:32:33Z</time>
      </trkpt>
      <trkpt lat="37.182492" lon="-4.038136">
        <ele>502.149</ele>
        <time>2021-10-12T07:32:34Z</time>
      </trkpt>
      <trkpt lat="37.182374" lon="-4.038928">
        <ele>501.837</ele>
        <time>2021-10-12T07:32:36Z</time>
      </trkpt>
      <trkpt lat="37.182330" lon="-4.039328">
        <ele>501.393</ele>
        <time>2021-10-12T07:32:37Z</time>
      </trkpt>
      <trkpt lat="37.182284" lon="-4.039733">
        <ele>499.066</ele>
        <time>2021-10-12T07:32:38Z</time>
      </trkpt>
      <trkpt lat="37.182200" lon="-4.040516">
        <ele>498.132</ele>
        <time>2021-10-12T07:32:40Z</time>
      </trkpt>
      <trkpt lat="37.182159" lon="-4.040916">
        <ele>499.541</ele>
        <time>2021-10-12T07:32:41Z</time>
      </trkpt>
      <trkpt lat="37.182123" lon="-4.041313">
        <ele>502.271</ele>
        <time>2021-10-12T07:32:42Z</time>
      </trkpt>
      <trkpt lat="37.182088" lon="-4.041706">
        <ele>502.782</ele>
        <time>2021-10-12T07:32:43Z</time>
      </trkpt>
      <trkpt lat="37.182051" lon="-4.042104">
        <ele>502.385</ele>
        <time>2021-10-12T07:32:44Z</time>
      </trkpt>
      <trkpt lat="37.181976" lon="-4.042878">
        <ele>504.989</ele>
        <time>2021-10-12T07:32:46Z</time>
      </trkpt>
      <trkpt lat="37.181941" lon="-4.043266">
        <ele>507.517</ele>
        <time>2021-10-12T07:32:47Z</time>
      </trkpt>
      <trkpt lat="37.181907" lon="-4.043646">
        <ele>507.108</ele>
        <time>2021-10-12T07:32:48Z</time>
      </trkpt>
      <trkpt lat="37.181872" lon="-4.044018">
        <ele>505.426</ele>
        <time>2021-10-12T07:32:49Z</time>
      </trkpt>
      <trkpt lat="37.181837" lon="-4.044391">
        <ele>503.724</ele>
        <time>2021-10-12T07:32:50Z</time>
      </trkpt>
      <trkpt lat="37.181770" lon="-4.045099">
        <ele>500.580</ele>
        <time>2021-10-12T07:32:52Z</time>
      </trkpt>
      <trkpt lat="37.181737" lon="-4.045463">
        <ele>497.813</ele>
        <time>2021-10-12T07:32:53Z</time>
      </trkpt>
      <trkpt lat="37.181671" lon="-4.046191">
        <ele>492.439</ele>
        <time>2021-10-12T07:32:55Z</time>
      </trkpt>
      <trkpt lat="37.181604" lon="-4.046922">
        <ele>491.828</ele>
        <time>2021-10-12T07:32:57Z</time>
      </trkpt>
      <trkpt lat="37.181537" lon="-4.047660">
        <ele>491.298</ele>
        <time>2021-10-12T07:32:59Z</time>
      </trkpt>
      <trkpt lat="37.181471" lon="-4.048406">
        <ele>488.989</ele>
        <time>2021-10-12T07:33:01Z</time>
      </trkpt>
      <trkpt lat="37.181437" lon="-4.048779">
        <ele>487.479</ele>
        <time>2021-10-12T07:33:02Z</time>
      </trkpt>
      <trkpt lat="37.181402" lon="-4.049150">
        <ele>485.005</ele>
        <time>2021-10-12T07:33:03Z</time>
      </trkpt>
      <trkpt lat="37.181327" lon="-4.049892">
        <ele>482.525</ele>
        <time>2021-10-12T07:33:05Z</time>
      </trkpt>
      <trkpt lat="37.181257" lon="-4.050629">
        <ele>482.308</ele>
        <time>2021-10-12T07:33:07Z</time>
      </trkpt>
      <trkpt lat="37.181220" lon="-4.051001">
        <ele>482.165</ele>
        <time>2021-10-12T07:33:08Z</time>
      </trkpt>
      <trkpt lat="37.181156" lon="-4.051721">
        <ele>484.013</ele>
        <time>2021-10-12T07:33:10Z</time>
      </trkpt>
      <trkpt lat="37.181122" lon="-4.052087">
        <ele>482.369</ele>
        <time>2021-10-12T07:33:11Z</time>
      </trkpt>
      <trkpt lat="37.181054" lon="-4.052818">
        <ele>480.122</ele>
        <time>2021-10-12T07:33:13Z</time>
      </trkpt>
      <trkpt lat="37.181020" lon="-4.053187">
        <ele>481.228</ele>
        <time>2021-10-12T07:33:14Z</time>
      </trkpt>
      <trkpt lat="37.180952" lon="-4.053902">
        <ele>481.127</ele>
        <time>2021-10-12T07:33:16Z</time>
      </trkpt>
      <trkpt lat="37.180884" lon="-4.054624">
        <ele>479.217</ele>
        <time>2021-10-12T07:33:18Z</time>
      </trkpt>
      <trkpt lat="37.180850" lon="-4.054986">
        <ele>478.948</ele>
        <time>2021-10-12T07:33:19Z</time>
      </trkpt>
      <trkpt lat="37.180816" lon="-4.055351">
        <ele>479.443</ele>
        <time>2021-10-12T07:33:20Z</time>
      </trkpt>
      <trkpt lat="37.180751" lon="-4.056052">
        <ele>482.464</ele>
        <time>2021-10-12T07:33:22Z</time>
      </trkpt>
      <trkpt lat="37.180717" lon="-4.056404">
        <ele>482.610</ele>
        <time>2021-10-12T07:33:23Z</time>
      </trkpt>
      <trkpt lat="37.180684" lon="-4.056754">
        <ele>482.208</ele>
        <time>2021-10-12T07:33:24Z</time>
      </trkpt>
      <trkpt lat="37.180652" lon="-4.057106">
        <ele>482.752</ele>
        <time>2021-10-12T07:33:25Z</time>
      </trkpt>
      <trkpt lat="37.180621" lon="-4.057459">
        <ele>483.070</ele>
        <time>2021-10-12T07:33:26Z</time>
      </trkpt>
      <trkpt lat="37.180590" lon="-4.057816">
        <ele>483.016</ele>
        <time>2021-10-12T07:33:27Z</time>
      </trkpt>
      <trkpt lat="37.180542" lon="-4.058539">
        <ele>482.049</ele>
        <time>2021-10-12T07:33:29Z</time>
      </trkpt>
      <trkpt lat="37.180520" lon="-4.059264">
        <ele>480.825</ele>
        <time>2021-10-12T07:33:31Z</time>
      </trkpt>
      <trkpt lat="37.180512" lon="-4.059629">
        <ele>480.194</ele>
        <time>2021-10-12T07:33:32Z</time>
      </trkpt>
      <trkpt lat="37.180496" lon="-4.060357">
        <ele>481.044</ele>
        <time>2021-10-12T07:33:34Z</time>
      </trkpt>
      <trkpt lat="37.180487" lon="-4.060719">
        <ele>479.955</ele>
        <time>2021-10-12T07:33:35Z</time>
      </trkpt>
      <trkpt lat="37.180478" lon="-4.061081">
        <ele>480.272</ele>
        <time>2021-10-12T07:33:36Z</time>
      </trkpt>
      <trkpt lat="37.180458" lon="-4.061809">
        <ele>478.513</ele>
        <time>2021-10-12T07:33:38Z</time>
      </trkpt>
      <trkpt lat="37.180450" lon="-4.062525">
        <ele>477.314</ele>
        <time>2021-10-12T07:33:40Z</time>
      </trkpt>
      <trkpt lat="37.180436" lon="-4.063250">
        <ele>475.308</ele>
        <time>2021-10-12T07:33:42Z</time>
      </trkpt>
      <trkpt lat="37.180421" lon="-4.063984">
        <ele>476.255</ele>
        <time>2021-10-12T07:33:44Z</time>
      </trkpt>
      <trkpt lat="37.180405" lon="-4.064706">
        <ele>477.553</ele>
        <time>2021-10-12T07:33:46Z</time>
      </trkpt>
      <trkpt lat="37.180398" lon="-4.065074">
        <ele>478.159</ele>
        <time>2021-10-12T07:33:47Z</time>
      </trkpt>
      <trkpt lat="37.180385" lon="-4.065806">
        <ele>478.652</ele>
        <time>2021-10-12T07:33:49Z</time>
      </trkpt>
      <trkpt lat="37.180378" lon="-4.066179">
        <ele>478.328</ele>
        <time>2021-10-12T07:33:50Z</time>
      </trkpt>
      <trkpt lat="37.180364" lon="-4.066901">
        <ele>478.147</ele>
        <time>2021-10-12T07:33:52Z</time>
      </trkpt>
      <trkpt lat="37.180349" lon="-4.067629">
        <ele>479.067</ele>
        <time>2021-10-12T07:33:54Z</time>
      </trkpt>
      <trkpt lat="37.180342" lon="-4.067992">
        <ele>479.088</ele>
        <time>2021-10-12T07:33:55Z</time>
      </trkpt>
      <trkpt lat="37.180333" lon="-4.068719">
        <ele>478.729</ele>
        <time>2021-10-12T07:33:57Z</time>
      </trkpt>
      <trkpt lat="37.180338" lon="-4.069439">
        <ele>477.800</ele>
        <time>2021-10-12T07:33:59Z</time>
      </trkpt>
      <trkpt lat="37.180374" lon="-4.070163">
        <ele>478.220</ele>
        <time>2021-10-12T07:34:01Z</time>
      </trkpt>
      <trkpt lat="37.180434" lon="-4.070885">
        <ele>477.908</ele>
        <time>2021-10-12T07:34:03Z</time>
      </trkpt>
      <trkpt lat="37.180523" lon="-4.071614">
        <ele>477.370</ele>
        <time>2021-10-12T07:34:05Z</time>
      </trkpt>
      <trkpt lat="37.180575" lon="-4.071982">
        <ele>474.948</ele>
        <time>2021-10-12T07:34:06Z</time>
      </trkpt>
      <trkpt lat="37.180694" lon="-4.072718">
        <ele>479.314</ele>
        <time>2021-10-12T07:34:08Z</time>
      </trkpt>
      <trkpt lat="37.180820" lon="-4.073443">
        <ele>480.387</ele>
        <time>2021-10-12T07:34:10Z</time>
      </trkpt>
      <trkpt lat="37.180882" lon="-4.073816">
        <ele>478.063</ele>
        <time>2021-10-12T07:34:11Z</time>
      </trkpt>
      <trkpt lat="37.181006" lon="-4.074556">
        <ele>478.652</ele>
        <time>2021-10-12T07:34:13Z</time>
      </trkpt>
      <trkpt lat="37.181064" lon="-4.074929">
        <ele>477.922</ele>
        <time>2021-10-12T07:34:14Z</time>
      </trkpt>
      <trkpt lat="37.181144" lon="-4.075649">
        <ele>477.553</ele>
        <time>2021-10-12T07:34:16Z</time>
      </trkpt>
      <trkpt lat="37.181159" lon="-4.076015">
        <ele>476.282</ele>
        <time>2021-10-12T07:34:17Z</time>
      </trkpt>
      <trkpt lat="37.181152" lon="-4.076384">
        <ele>476.843</ele>
        <time>2021-10-12T07:34:18Z</time>
      </trkpt>
      <trkpt lat="37.181072" lon="-4.077124">
        <ele>479.017</ele>
        <time>2021-10-12T07:34:20Z</time>
      </trkpt>
      <trkpt lat="37.180906" lon="-4.077821">
        <ele>479.908</ele>
        <time>2021-10-12T07:34:22Z</time>
      </trkpt>
      <trkpt lat="37.180797" lon="-4.078161">
        <ele>480.576</ele>
        <time>2021-10-12T07:34:23Z</time>
      </trkpt>
      <trkpt lat="37.180664" lon="-4.078491">
        <ele>479.484</ele>
        <time>2021-10-12T07:34:24Z</time>
      </trkpt>
      <trkpt lat="37.180350" lon="-4.079104">
        <ele>480.880</ele>
        <time>2021-10-12T07:34:26Z</time>
      </trkpt>
      <trkpt lat="37.179964" lon="-4.079671">
        <ele>484.123</ele>
        <time>2021-10-12T07:34:28Z</time>
      </trkpt>
      <trkpt lat="37.179508" lon="-4.080164">
        <ele>483.389</ele>
        <time>2021-10-12T07:34:30Z</time>
      </trkpt>
      <trkpt lat="37.178997" lon="-4.080574">
        <ele>481.078</ele>
        <time>2021-10-12T07:34:32Z</time>
      </trkpt>
      <trkpt lat="37.178726" lon="-4.080747">
        <ele>479.038</ele>
        <time>2021-10-12T07:34:33Z</time>
      </trkpt>
      <trkpt lat="37.178157" lon="-4.081011">
        <ele>480.279</ele>
        <time>2021-10-12T07:34:35Z</time>
      </trkpt>
      <trkpt lat="37.177862" lon="-4.081112">
        <ele>482.185</ele>
        <time>2021-10-12T07:34:36Z</time>
      </trkpt>
      <trkpt lat="37.177566" lon="-4.081197">
        <ele>483.489</ele>
        <time>2021-10-12T07:34:37Z</time>
      </trkpt>
      <trkpt lat="37.177265" lon="-4.081279">
        <ele>486.617</ele>
        <time>2021-10-12T07:34:38Z</time>
      </trkpt>
      <trkpt lat="37.176679" lon="-4.081448">
        <ele>489.808</ele>
        <time>2021-10-12T07:34:40Z</time>
      </trkpt>
      <trkpt lat="37.176104" lon="-4.081622">
        <ele>489.126</ele>
        <time>2021-10-12T07:34:42Z</time>
      </trkpt>
      <trkpt lat="37.175820" lon="-4.081706">
        <ele>486.464</ele>
        <time>2021-10-12T07:34:43Z</time>
      </trkpt>
      <trkpt lat="37.175534" lon="-4.081791">
        <ele>487.440</ele>
        <time>2021-10-12T07:34:44Z</time>
      </trkpt>
      <trkpt lat="37.174986" lon="-4.081955">
        <ele>488.813</ele>
        <time>2021-10-12T07:34:46Z</time>
      </trkpt>
      <trkpt lat="37.174709" lon="-4.082037">
        <ele>488.119</ele>
        <time>2021-10-12T07:34:47Z</time>
      </trkpt>
      <trkpt lat="37.174432" lon="-4.082120">
        <ele>488.338</ele>
        <time>2021-10-12T07:34:48Z</time>
      </trkpt>
      <trkpt lat="37.173881" lon="-4.082288">
        <ele>486.278</ele>
        <time>2021-10-12T07:34:50Z</time>
      </trkpt>
      <trkpt lat="37.173352" lon="-4.082459">
        <ele>485.959</ele>
        <time>2021-10-12T07:34:52Z</time>
      </trkpt>
      <trkpt lat="37.173085" lon="-4.082554">
        <ele>487.945</ele>
        <time>2021-10-12T07:34:53Z</time>
      </trkpt>
      <trkpt lat="37.172822" lon="-4.082662">
        <ele>489.447</ele>
        <time>2021-10-12T07:34:54Z</time>
      </trkpt>
      <trkpt lat="37.172564" lon="-4.082789">
        <ele>489.511</ele>
        <time>2021-10-12T07:34:55Z</time>
      </trkpt>
      <trkpt lat="37.172304" lon="-4.082942">
        <ele>489.608</ele>
        <time>2021-10-12T07:34:56Z</time>
      </trkpt>
      <trkpt lat="37.171837" lon="-4.083306">
        <ele>495.242</ele>
        <time>2021-10-12T07:34:58Z</time>
      </trkpt>
      <trkpt lat="37.171366" lon="-4.083741">
        <ele>496.090</ele>
        <time>2021-10-12T07:35:00Z</time>
      </trkpt>
      <trkpt lat="37.170897" lon="-4.084185">
        <ele>497.186</ele>
        <time>2021-10-12T07:35:02Z</time>
      </trkpt>
      <trkpt lat="37.170427" lon="-4.084619">
        <ele>494.479</ele>
        <time>2021-10-12T07:35:04Z</time>
      </trkpt>
      <trkpt lat="37.170190" lon="-4.084834">
        <ele>494.645</ele>
        <time>2021-10-12T07:35:05Z</time>
      </trkpt>
      <trkpt lat="37.169954" lon="-4.085048">
        <ele>495.874</ele>
        <time>2021-10-12T07:35:06Z</time>
      </trkpt>
      <trkpt lat="37.169717" lon="-4.085258">
        <ele>493.054</ele>
        <time>2021-10-12T07:35:07Z</time>
      </trkpt>
      <trkpt lat="37.169481" lon="-4.085475">
        <ele>490.655</ele>
        <time>2021-10-12T07:35:08Z</time>
      </trkpt>
      <trkpt lat="37.169033" lon="-4.085889">
        <ele>485.126</ele>
        <time>2021-10-12T07:35:10Z</time>
      </trkpt>
      <trkpt lat="37.168807" lon="-4.086099">
        <ele>483.147</ele>
        <time>2021-10-12T07:35:11Z</time>
      </trkpt>
      <trkpt lat="37.168580" lon="-4.086311">
        <ele>481.511</ele>
        <time>2021-10-12T07:35:12Z</time>
      </trkpt>
      <trkpt lat="37.168356" lon="-4.086527">
        <ele>480.508</ele>
        <time>2021-10-12T07:35:13Z</time>
      </trkpt>
      <trkpt lat="37.168130" lon="-4.086745">
        <ele>479.720</ele>
        <time>2021-10-12T07:35:14Z</time>
      </trkpt>
      <trkpt lat="37.167699" lon="-4.087189">
        <ele>480.038</ele>
        <time>2021-10-12T07:35:16Z</time>
      </trkpt>
      <trkpt lat="37.167494" lon="-4.087432">
        <ele>480.054</ele>
        <time>2021-10-12T07:35:17Z</time>
      </trkpt>
      <trkpt lat="37.167118" lon="-4.087957">
        <ele>484.377</ele>
        <time>2021-10-12T07:35:19Z</time>
      </trkpt>
      <trkpt lat="37.166951" lon="-4.088245">
        <ele>485.353</ele>
        <time>2021-10-12T07:35:20Z</time>
      </trkpt>
      <trkpt lat="37.166674" lon="-4.088853">
        <ele>484.282</ele>
        <time>2021-10-12T07:35:22Z</time>
      </trkpt>
      <trkpt lat="37.166558" lon="-4.089184">
        <ele>484.652</ele>
        <time>2021-10-12T07:35:23Z</time>
      </trkpt>
      <trkpt lat="37.166382" lon="-4.089885">
        <ele>488.133</ele>
        <time>2021-10-12T07:35:25Z</time>
      </trkpt>
      <trkpt lat="37.166323" lon="-4.090252">
        <ele>486.926</ele>
        <time>2021-10-12T07:35:26Z</time>
      </trkpt>
      <trkpt lat="37.166249" lon="-4.091007">
        <ele>481.947</ele>
        <time>2021-10-12T07:35:28Z</time>
      </trkpt>
      <trkpt lat="37.166205" lon="-4.091782">
        <ele>482.911</ele>
        <time>2021-10-12T07:35:30Z</time>
      </trkpt>
      <trkpt lat="37.166189" lon="-4.092170">
        <ele>482.408</ele>
        <time>2021-10-12T07:35:31Z</time>
      </trkpt>
      <trkpt lat="37.166156" lon="-4.092945">
        <ele>481.580</ele>
        <time>2021-10-12T07:35:33Z</time>
      </trkpt>
      <trkpt lat="37.166116" lon="-4.093711">
        <ele>480.078</ele>
        <time>2021-10-12T07:35:35Z</time>
      </trkpt>
      <trkpt lat="37.166099" lon="-4.094092">
        <ele>479.474</ele>
        <time>2021-10-12T07:35:36Z</time>
      </trkpt>
      <trkpt lat="37.166081" lon="-4.094469">
        <ele>479.277</ele>
        <time>2021-10-12T07:35:37Z</time>
      </trkpt>
      <trkpt lat="37.166063" lon="-4.094851">
        <ele>479.983</ele>
        <time>2021-10-12T07:35:38Z</time>
      </trkpt>
      <trkpt lat="37.166016" lon="-4.095576">
        <ele>480.722</ele>
        <time>2021-10-12T07:35:40Z</time>
      </trkpt>
      <trkpt lat="37.165943" lon="-4.096295">
        <ele>480.352</ele>
        <time>2021-10-12T07:35:42Z</time>
      </trkpt>
      <trkpt lat="37.165896" lon="-4.096661">
        <ele>479.423</ele>
        <time>2021-10-12T07:35:43Z</time>
      </trkpt>
      <trkpt lat="37.165838" lon="-4.097030">
        <ele>479.624</ele>
        <time>2021-10-12T07:35:44Z</time>
      </trkpt>
      <trkpt lat="37.165701" lon="-4.097742">
        <ele>478.504</ele>
        <time>2021-10-12T07:35:46Z</time>
      </trkpt>
      <trkpt lat="37.165614" lon="-4.098099">
        <ele>477.514</ele>
        <time>2021-10-12T07:35:47Z</time>
      </trkpt>
      <trkpt lat="37.165515" lon="-4.098438">
        <ele>476.008</ele>
        <time>2021-10-12T07:35:48Z</time>
      </trkpt>
      <trkpt lat="37.165291" lon="-4.099121">
        <ele>475.140</ele>
        <time>2021-10-12T07:35:50Z</time>
      </trkpt>
      <trkpt lat="37.165057" lon="-4.099785">
        <ele>475.088</ele>
        <time>2021-10-12T07:35:52Z</time>
      </trkpt>
      <trkpt lat="37.164926" lon="-4.100110">
        <ele>474.264</ele>
        <time>2021-10-12T07:35:53Z</time>
      </trkpt>
      <trkpt lat="37.164608" lon="-4.100750">
        <ele>476.987</ele>
        <time>2021-10-12T07:35:55Z</time>
      </trkpt>
      <trkpt lat="37.164274" lon="-4.101371">
        <ele>477.643</ele>
        <time>2021-10-12T07:35:57Z</time>
      </trkpt>
      <trkpt lat="37.163942" lon="-4.101990">
        <ele>477.612</ele>
        <time>2021-10-12T07:35:59Z</time>
      </trkpt>
      <trkpt lat="37.163780" lon="-4.102304">
        <ele>477.812</ele>
        <time>2021-10-12T07:36:00Z</time>
      </trkpt>
      <trkpt lat="37.163460" lon="-4.102927">
        <ele>479.533</ele>
        <time>2021-10-12T07:36:02Z</time>
      </trkpt>
      <trkpt lat="37.163302" lon="-4.103239">
        <ele>478.919</ele>
        <time>2021-10-12T07:36:03Z</time>
      </trkpt>
      <trkpt lat="37.163148" lon="-4.103556">
        <ele>479.109</ele>
        <time>2021-10-12T07:36:04Z</time>
      </trkpt>
      <trkpt lat="37.163000" lon="-4.103874">
        <ele>478.519</ele>
        <time>2021-10-12T07:36:05Z</time>
      </trkpt>
      <trkpt lat="37.162730" lon="-4.104524">
        <ele>477.808</ele>
        <time>2021-10-12T07:36:07Z</time>
      </trkpt>
      <trkpt lat="37.162613" lon="-4.104864">
        <ele>479.349</ele>
        <time>2021-10-12T07:36:08Z</time>
      </trkpt>
      <trkpt lat="37.162418" lon="-4.105543">
        <ele>479.377</ele>
        <time>2021-10-12T07:36:10Z</time>
      </trkpt>
      <trkpt lat="37.162335" lon="-4.105893">
        <ele>479.183</ele>
        <time>2021-10-12T07:36:11Z</time>
      </trkpt>
      <trkpt lat="37.162211" lon="-4.106598">
        <ele>478.486</ele>
        <time>2021-10-12T07:36:13Z</time>
      </trkpt>
      <trkpt lat="37.162168" lon="-4.106959">
        <ele>477.952</ele>
        <time>2021-10-12T07:36:14Z</time>
      </trkpt>
      <trkpt lat="37.162110" lon="-4.107663">
        <ele>477.991</ele>
        <time>2021-10-12T07:36:16Z</time>
      </trkpt>
      <trkpt lat="37.162090" lon="-4.108380">
        <ele>482.911</ele>
        <time>2021-10-12T07:36:18Z</time>
      </trkpt>
      <trkpt lat="37.162085" lon="-4.108746">
        <ele>483.062</ele>
        <time>2021-10-12T07:36:19Z</time>
      </trkpt>
      <trkpt lat="37.162083" lon="-4.109113">
        <ele>482.132</ele>
        <time>2021-10-12T07:36:20Z</time>
      </trkpt>
      <trkpt lat="37.162086" lon="-4.109840">
        <ele>479.592</ele>
        <time>2021-10-12T07:36:22Z</time>
      </trkpt>
      <trkpt lat="37.162091" lon="-4.110567">
        <ele>478.511</ele>
        <time>2021-10-12T07:36:24Z</time>
      </trkpt>
      <trkpt lat="37.162105" lon="-4.111288">
        <ele>478.608</ele>
        <time>2021-10-12T07:36:26Z</time>
      </trkpt>
      <trkpt lat="37.162134" lon="-4.111648">
        <ele>477.041</ele>
        <time>2021-10-12T07:36:27Z</time>
      </trkpt>
      <trkpt lat="37.162267" lon="-4.112357">
        <ele>474.039</ele>
        <time>2021-10-12T07:36:29Z</time>
      </trkpt>
      <trkpt lat="37.162357" lon="-4.112703">
        <ele>474.545</ele>
        <time>2021-10-12T07:36:30Z</time>
      </trkpt>
      <trkpt lat="37.162451" lon="-4.113048">
        <ele>477.198</ele>
        <time>2021-10-12T07:36:31Z</time>
      </trkpt>
      <trkpt lat="37.162546" lon="-4.113391">
        <ele>477.974</ele>
        <time>2021-10-12T07:36:32Z</time>
      </trkpt>
      <trkpt lat="37.162724" lon="-4.114081">
        <ele>479.283</ele>
        <time>2021-10-12T07:36:34Z</time>
      </trkpt>
      <trkpt lat="37.162900" lon="-4.114774">
        <ele>483.713</ele>
        <time>2021-10-12T07:36:36Z</time>
      </trkpt>
      <trkpt lat="37.162989" lon="-4.115131">
        <ele>485.044</ele>
        <time>2021-10-12T07:36:37Z</time>
      </trkpt>
      <trkpt lat="37.163074" lon="-4.115497">
        <ele>485.058</ele>
        <time>2021-10-12T07:36:38Z</time>
      </trkpt>
      <trkpt lat="37.163216" lon="-4.116231">
        <ele>485.452</ele>
        <time>2021-10-12T07:36:40Z</time>
      </trkpt>
      <trkpt lat="37.163297" lon="-4.116976">
        <ele>481.417</ele>
        <time>2021-10-12T07:36:42Z</time>
      </trkpt>
      <trkpt lat="37.163312" lon="-4.117729">
        <ele>481.008</ele>
        <time>2021-10-12T07:36:44Z</time>
      </trkpt>
      <trkpt lat="37.163259" lon="-4.118482">
        <ele>480.043</ele>
        <time>2021-10-12T07:36:46Z</time>
      </trkpt>
      <trkpt lat="37.163211" lon="-4.118863">
        <ele>479.951</ele>
        <time>2021-10-12T07:36:47Z</time>
      </trkpt>
      <trkpt lat="37.163149" lon="-4.119240">
        <ele>480.567</ele>
        <time>2021-10-12T07:36:48Z</time>
      </trkpt>
      <trkpt lat="37.163078" lon="-4.119615">
        <ele>481.830</ele>
        <time>2021-10-12T07:36:49Z</time>
      </trkpt>
      <trkpt lat="37.163000" lon="-4.119996">
        <ele>482.886</ele>
        <time>2021-10-12T07:36:50Z</time>
      </trkpt>
      <trkpt lat="37.162837" lon="-4.120726">
        <ele>485.765</ele>
        <time>2021-10-12T07:36:52Z</time>
      </trkpt>
      <trkpt lat="37.162670" lon="-4.121466">
        <ele>488.425</ele>
        <time>2021-10-12T07:36:54Z</time>
      </trkpt>
      <trkpt lat="37.162513" lon="-4.122200">
        <ele>492.016</ele>
        <time>2021-10-12T07:36:56Z</time>
      </trkpt>
      <trkpt lat="37.162436" lon="-4.122569">
        <ele>496.125</ele>
        <time>2021-10-12T07:36:57Z</time>
      </trkpt>
      <trkpt lat="37.162359" lon="-4.122934">
        <ele>499.126</ele>
        <time>2021-10-12T07:36:58Z</time>
      </trkpt>
      <trkpt lat="37.162282" lon="-4.123295">
        <ele>499.208</ele>
        <time>2021-10-12T07:36:59Z</time>
      </trkpt>
      <trkpt lat="37.162132" lon="-4.124009">
        <ele>502.608</ele>
        <time>2021-10-12T07:37:01Z</time>
      </trkpt>
      <trkpt lat="37.161982" lon="-4.124716">
        <ele>501.330</ele>
        <time>2021-10-12T07:37:03Z</time>
      </trkpt>
      <trkpt lat="37.161825" lon="-4.125423">
        <ele>506.138</ele>
        <time>2021-10-12T07:37:05Z</time>
      </trkpt>
      <trkpt lat="37.161665" lon="-4.126146">
        <ele>508.044</ele>
        <time>2021-10-12T07:37:07Z</time>
      </trkpt>
      <trkpt lat="37.161575" lon="-4.126516">
        <ele>509.017</ele>
        <time>2021-10-12T07:37:08Z</time>
      </trkpt>
      <trkpt lat="37.161372" lon="-4.127232">
        <ele>510.023</ele>
        <time>2021-10-12T07:37:10Z</time>
      </trkpt>
      <trkpt lat="37.161246" lon="-4.127591">
        <ele>508.972</ele>
        <time>2021-10-12T07:37:11Z</time>
      </trkpt>
      <trkpt lat="37.160953" lon="-4.128270">
        <ele>506.152</ele>
        <time>2021-10-12T07:37:13Z</time>
      </trkpt>
      <trkpt lat="37.160782" lon="-4.128602">
        <ele>503.763</ele>
        <time>2021-10-12T07:37:14Z</time>
      </trkpt>
      <trkpt lat="37.160434" lon="-4.129226">
        <ele>505.847</ele>
        <time>2021-10-12T07:37:16Z</time>
      </trkpt>
      <trkpt lat="37.160259" lon="-4.129543">
        <ele>507.829</ele>
        <time>2021-10-12T07:37:17Z</time>
      </trkpt>
      <trkpt lat="37.160095" lon="-4.129858">
        <ele>510.021</ele>
        <time>2021-10-12T07:37:18Z</time>
      </trkpt>
      <trkpt lat="37.159796" lon="-4.130511">
        <ele>515.008</ele>
        <time>2021-10-12T07:37:20Z</time>
      </trkpt>
      <trkpt lat="37.159557" lon="-4.131182">
        <ele>518.422</ele>
        <time>2021-10-12T07:37:22Z</time>
      </trkpt>
      <trkpt lat="37.159463" lon="-4.131532">
        <ele>518.420</ele>
        <time>2021-10-12T07:37:23Z</time>
      </trkpt>
      <trkpt lat="37.159342" lon="-4.132263">
        <ele>527.896</ele>
        <time>2021-10-12T07:37:25Z</time>
      </trkpt>
      <trkpt lat="37.159314" lon="-4.132651">
        <ele>532.489</ele>
        <time>2021-10-12T07:37:26Z</time>
      </trkpt>
      <trkpt lat="37.159333" lon="-4.133418">
        <ele>535.765</ele>
        <time>2021-10-12T07:37:28Z</time>
      </trkpt>
      <trkpt lat="37.159438" lon="-4.134180">
        <ele>545.594</ele>
        <time>2021-10-12T07:37:30Z</time>
      </trkpt>
      <trkpt lat="37.159521" lon="-4.134546">
        <ele>552.084</ele>
        <time>2021-10-12T07:37:31Z</time>
      </trkpt>
      <trkpt lat="37.159623" lon="-4.134900">
        <ele>554.355</ele>
        <time>2021-10-12T07:37:32Z</time>
      </trkpt>
      <trkpt lat="37.159861" lon="-4.135557">
        <ele>555.526</ele>
        <time>2021-10-12T07:37:34Z</time>
      </trkpt>
      <trkpt lat="37.160101" lon="-4.136222">
        <ele>563.247</ele>
        <time>2021-10-12T07:37:36Z</time>
      </trkpt>
      <trkpt lat="37.160221" lon="-4.136558">
        <ele>562.911</ele>
        <time>2021-10-12T07:37:37Z</time>
      </trkpt>
      <trkpt lat="37.160340" lon="-4.136901">
        <ele>561.908</ele>
        <time>2021-10-12T07:37:38Z</time>
      </trkpt>
      <trkpt lat="37.160541" lon="-4.137579">
        <ele>559.850</ele>
        <time>2021-10-12T07:37:40Z</time>
      </trkpt>
      <trkpt lat="37.160689" lon="-4.138281">
        <ele>561.888</ele>
        <time>2021-10-12T07:37:42Z</time>
      </trkpt>
      <trkpt lat="37.160776" lon="-4.139001">
        <ele>567.454</ele>
        <time>2021-10-12T07:37:44Z</time>
      </trkpt>
      <trkpt lat="37.160791" lon="-4.139718">
        <ele>569.737</ele>
        <time>2021-10-12T07:37:46Z</time>
      </trkpt>
      <trkpt lat="37.160774" lon="-4.140080">
        <ele>570.863</ele>
        <time>2021-10-12T07:37:47Z</time>
      </trkpt>
      <trkpt lat="37.160688" lon="-4.140803">
        <ele>578.012</ele>
        <time>2021-10-12T07:37:49Z</time>
      </trkpt>
      <trkpt lat="37.160619" lon="-4.141169">
        <ele>580.482</ele>
        <time>2021-10-12T07:37:50Z</time>
      </trkpt>
      <trkpt lat="37.160437" lon="-4.141887">
        <ele>584.343</ele>
        <time>2021-10-12T07:37:52Z</time>
      </trkpt>
      <trkpt lat="37.160328" lon="-4.142243">
        <ele>583.778</ele>
        <time>2021-10-12T07:37:53Z</time>
      </trkpt>
      <trkpt lat="37.160101" lon="-4.142954">
        <ele>585.633</ele>
        <time>2021-10-12T07:37:55Z</time>
      </trkpt>
      <trkpt lat="37.159990" lon="-4.143324">
        <ele>586.526</ele>
        <time>2021-10-12T07:37:56Z</time>
      </trkpt>
      <trkpt lat="37.159778" lon="-4.144012">
        <ele>591.008</ele>
        <time>2021-10-12T07:37:58Z</time>
      </trkpt>
      <trkpt lat="37.159592" lon="-4.144705">
        <ele>593.475</ele>
        <time>2021-10-12T07:38:00Z</time>
      </trkpt>
      <trkpt lat="37.159476" lon="-4.145412">
        <ele>594.483</ele>
        <time>2021-10-12T07:38:02Z</time>
      </trkpt>
      <trkpt lat="37.159433" lon="-4.146123">
        <ele>598.369</ele>
        <time>2021-10-12T07:38:04Z</time>
      </trkpt>
      <trkpt lat="37.159440" lon="-4.146486">
        <ele>595.272</ele>
        <time>2021-10-12T07:38:05Z</time>
      </trkpt>
      <trkpt lat="37.159468" lon="-4.146848">
        <ele>595.828</ele>
        <time>2021-10-12T07:38:06Z</time>
      </trkpt>
      <trkpt lat="37.159572" lon="-4.147587">
        <ele>595.787</ele>
        <time>2021-10-12T07:38:08Z</time>
      </trkpt>
      <trkpt lat="37.159754" lon="-4.148322">
        <ele>595.987</ele>
        <time>2021-10-12T07:38:10Z</time>
      </trkpt>
      <trkpt lat="37.159988" lon="-4.149060">
        <ele>597.318</ele>
        <time>2021-10-12T07:38:12Z</time>
      </trkpt>
      <trkpt lat="37.160109" lon="-4.149432">
        <ele>595.682</ele>
        <time>2021-10-12T07:38:13Z</time>
      </trkpt>
      <trkpt lat="37.160230" lon="-4.149810">
        <ele>594.043</ele>
        <time>2021-10-12T07:38:14Z</time>
      </trkpt>
      <trkpt lat="37.160446" lon="-4.150552">
        <ele>596.817</ele>
        <time>2021-10-12T07:38:16Z</time>
      </trkpt>
      <trkpt lat="37.160599" lon="-4.151299">
        <ele>593.808</ele>
        <time>2021-10-12T07:38:18Z</time>
      </trkpt>
      <trkpt lat="37.160696" lon="-4.152044">
        <ele>595.776</ele>
        <time>2021-10-12T07:38:20Z</time>
      </trkpt>
      <trkpt lat="37.160773" lon="-4.152741">
        <ele>599.054</ele>
        <time>2021-10-12T07:38:22Z</time>
      </trkpt>
      <trkpt lat="37.160853" lon="-4.153377">
        <ele>598.910</ele>
        <time>2021-10-12T07:38:24Z</time>
      </trkpt>
      <trkpt lat="37.160953" lon="-4.153963">
        <ele>597.933</ele>
        <time>2021-10-12T07:38:26Z</time>
      </trkpt>
      <trkpt lat="37.161088" lon="-4.154543">
        <ele>597.089</ele>
        <time>2021-10-12T07:38:28Z</time>
      </trkpt>
      <trkpt lat="37.161171" lon="-4.154842">
        <ele>598.228</ele>
        <time>2021-10-12T07:38:29Z</time>
      </trkpt>
      <trkpt lat="37.161265" lon="-4.155147">
        <ele>602.828</ele>
        <time>2021-10-12T07:38:30Z</time>
      </trkpt>
      <trkpt lat="37.161480" lon="-4.155744">
        <ele>608.349</ele>
        <time>2021-10-12T07:38:32Z</time>
      </trkpt>
      <trkpt lat="37.161720" lon="-4.156296">
        <ele>608.649</ele>
        <time>2021-10-12T07:38:34Z</time>
      </trkpt>
      <trkpt lat="37.161856" lon="-4.156561">
        <ele>611.102</ele>
        <time>2021-10-12T07:38:35Z</time>
      </trkpt>
      <trkpt lat="37.162145" lon="-4.157077">
        <ele>609.222</ele>
        <time>2021-10-12T07:38:37Z</time>
      </trkpt>
      <trkpt lat="37.162301" lon="-4.157336">
        <ele>605.408</ele>
        <time>2021-10-12T07:38:38Z</time>
      </trkpt>
      <trkpt lat="37.162616" lon="-4.157849">
        <ele>599.132</ele>
        <time>2021-10-12T07:38:40Z</time>
      </trkpt>
      <trkpt lat="37.162780" lon="-4.158115">
        <ele>600.050</ele>
        <time>2021-10-12T07:38:41Z</time>
      </trkpt>
      <trkpt lat="37.163114" lon="-4.158671">
        <ele>604.856</ele>
        <time>2021-10-12T07:38:43Z</time>
      </trkpt>
      <trkpt lat="37.163287" lon="-4.158968">
        <ele>602.839</ele>
        <time>2021-10-12T07:38:44Z</time>
      </trkpt>
      <trkpt lat="37.163612" lon="-4.159580">
        <ele>603.025</ele>
        <time>2021-10-12T07:38:46Z</time>
      </trkpt>
      <trkpt lat="37.163909" lon="-4.160213">
        <ele>602.824</ele>
        <time>2021-10-12T07:38:48Z</time>
      </trkpt>
      <trkpt lat="37.164164" lon="-4.160879">
        <ele>603.214</ele>
        <time>2021-10-12T07:38:50Z</time>
      </trkpt>
      <trkpt lat="37.164376" lon="-4.161563">
        <ele>600.355</ele>
        <time>2021-10-12T07:38:52Z</time>
      </trkpt>
      <trkpt lat="37.164470" lon="-4.161921">
        <ele>599.771</ele>
        <time>2021-10-12T07:38:53Z</time>
      </trkpt>
      <trkpt lat="37.164618" lon="-4.162651">
        <ele>597.141</ele>
        <time>2021-10-12T07:38:55Z</time>
      </trkpt>
      <trkpt lat="37.164675" lon="-4.163036">
        <ele>595.715</ele>
        <time>2021-10-12T07:38:56Z</time>
      </trkpt>
      <trkpt lat="37.164751" lon="-4.163781">
        <ele>595.808</ele>
        <time>2021-10-12T07:38:58Z</time>
      </trkpt>
      <trkpt lat="37.164798" lon="-4.164551">
        <ele>594.585</ele>
        <time>2021-10-12T07:39:00Z</time>
      </trkpt>
      <trkpt lat="37.164820" lon="-4.164941">
        <ele>592.933</ele>
        <time>2021-10-12T07:39:01Z</time>
      </trkpt>
      <trkpt lat="37.164843" lon="-4.165332">
        <ele>589.249</ele>
        <time>2021-10-12T07:39:02Z</time>
      </trkpt>
      <trkpt lat="37.164877" lon="-4.166097">
        <ele>585.162</ele>
        <time>2021-10-12T07:39:04Z</time>
      </trkpt>
      <trkpt lat="37.164904" lon="-4.166858">
        <ele>585.058</ele>
        <time>2021-10-12T07:39:06Z</time>
      </trkpt>
      <trkpt lat="37.164950" lon="-4.167632">
        <ele>581.557</ele>
        <time>2021-10-12T07:39:08Z</time>
      </trkpt>
      <trkpt lat="37.165022" lon="-4.168378">
        <ele>582.317</ele>
        <time>2021-10-12T07:39:10Z</time>
      </trkpt>
      <trkpt lat="37.165069" lon="-4.168742">
        <ele>583.878</ele>
        <time>2021-10-12T07:39:11Z</time>
      </trkpt>
      <trkpt lat="37.165192" lon="-4.169453">
        <ele>580.657</ele>
        <time>2021-10-12T07:39:13Z</time>
      </trkpt>
      <trkpt lat="37.165269" lon="-4.169809">
        <ele>579.400</ele>
        <time>2021-10-12T07:39:14Z</time>
      </trkpt>
      <trkpt lat="37.165440" lon="-4.170506">
        <ele>577.220</ele>
        <time>2021-10-12T07:39:16Z</time>
      </trkpt>
      <trkpt lat="37.165531" lon="-4.170856">
        <ele>576.408</ele>
        <time>2021-10-12T07:39:17Z</time>
      </trkpt>
      <trkpt lat="37.165628" lon="-4.171206">
        <ele>575.233</ele>
        <time>2021-10-12T07:39:18Z</time>
      </trkpt>
      <trkpt lat="37.165832" lon="-4.171910">
        <ele>572.071</ele>
        <time>2021-10-12T07:39:20Z</time>
      </trkpt>
      <trkpt lat="37.166031" lon="-4.172605">
        <ele>567.177</ele>
        <time>2021-10-12T07:39:22Z</time>
      </trkpt>
      <trkpt lat="37.166129" lon="-4.172955">
        <ele>564.330</ele>
        <time>2021-10-12T07:39:23Z</time>
      </trkpt>
      <trkpt lat="37.166221" lon="-4.173303">
        <ele>564.516</ele>
        <time>2021-10-12T07:39:24Z</time>
      </trkpt>
      <trkpt lat="37.166392" lon="-4.174008">
        <ele>566.065</ele>
        <time>2021-10-12T07:39:26Z</time>
      </trkpt>
      <trkpt lat="37.166534" lon="-4.174687">
        <ele>560.285</ele>
        <time>2021-10-12T07:39:28Z</time>
      </trkpt>
      <trkpt lat="37.166599" lon="-4.175038">
        <ele>561.386</ele>
        <time>2021-10-12T07:39:29Z</time>
      </trkpt>
      <trkpt lat="37.166657" lon="-4.175390">
        <ele>562.639</ele>
        <time>2021-10-12T07:39:30Z</time>
      </trkpt>
      <trkpt lat="37.166703" lon="-4.175747">
        <ele>563.901</ele>
        <time>2021-10-12T07:39:31Z</time>
      </trkpt>
      <trkpt lat="37.166736" lon="-4.176111">
        <ele>564.321</ele>
        <time>2021-10-12T07:39:32Z</time>
      </trkpt>
      <trkpt lat="37.166775" lon="-4.176858">
        <ele>564.208</ele>
        <time>2021-10-12T07:39:34Z</time>
      </trkpt>
      <trkpt lat="37.166764" lon="-4.177618">
        <ele>563.191</ele>
        <time>2021-10-12T07:39:36Z</time>
      </trkpt>
      <trkpt lat="37.166701" lon="-4.178371">
        <ele>564.759</ele>
        <time>2021-10-12T07:39:38Z</time>
      </trkpt>
      <trkpt lat="37.166583" lon="-4.179091">
        <ele>565.665</ele>
        <time>2021-10-12T07:39:40Z</time>
      </trkpt>
      <trkpt lat="37.166504" lon="-4.179449">
        <ele>565.398</ele>
        <time>2021-10-12T07:39:41Z</time>
      </trkpt>
      <trkpt lat="37.166308" lon="-4.180159">
        <ele>566.364</ele>
        <time>2021-10-12T07:39:43Z</time>
      </trkpt>
      <trkpt lat="37.166189" lon="-4.180522">
        <ele>567.443</ele>
        <time>2021-10-12T07:39:44Z</time>
      </trkpt>
      <trkpt lat="37.165934" lon="-4.181219">
        <ele>569.263</ele>
        <time>2021-10-12T07:39:46Z</time>
      </trkpt>
      <trkpt lat="37.165656" lon="-4.181850">
        <ele>569.554</ele>
        <time>2021-10-12T07:39:48Z</time>
      </trkpt>
      <trkpt lat="37.165507" lon="-4.182152">
        <ele>568.987</ele>
        <time>2021-10-12T07:39:49Z</time>
      </trkpt>
      <trkpt lat="37.165354" lon="-4.182451">
        <ele>569.542</ele>
        <time>2021-10-12T07:39:50Z</time>
      </trkpt>
      <trkpt lat="37.165032" lon="-4.183034">
        <ele>568.026</ele>
        <time>2021-10-12T07:39:52Z</time>
      </trkpt>
      <trkpt lat="37.164858" lon="-4.183334">
        <ele>567.508</ele>
        <time>2021-10-12T07:39:53Z</time>
      </trkpt>
      <trkpt lat="37.164502" lon="-4.183921">
        <ele>570.456</ele>
        <time>2021-10-12T07:39:55Z</time>
      </trkpt>
      <trkpt lat="37.164317" lon="-4.184224">
        <ele>571.634</ele>
        <time>2021-10-12T07:39:56Z</time>
      </trkpt>
      <trkpt lat="37.163970" lon="-4.184793">
        <ele>571.360</ele>
        <time>2021-10-12T07:39:58Z</time>
      </trkpt>
      <trkpt lat="37.163794" lon="-4.185084">
        <ele>571.743</ele>
        <time>2021-10-12T07:39:59Z</time>
      </trkpt>
      <trkpt lat="37.163458" lon="-4.185675">
        <ele>571.569</ele>
        <time>2021-10-12T07:40:01Z</time>
      </trkpt>
      <trkpt lat="37.163145" lon="-4.186289">
        <ele>568.688</ele>
        <time>2021-10-12T07:40:03Z</time>
      </trkpt>
      <trkpt lat="37.162853" lon="-4.186932">
        <ele>566.088</ele>
        <time>2021-10-12T07:40:05Z</time>
      </trkpt>
      <trkpt lat="37.162720" lon="-4.187266">
        <ele>565.449</ele>
        <time>2021-10-12T07:40:06Z</time>
      </trkpt>
      <trkpt lat="37.162485" lon="-4.187967">
        <ele>565.073</ele>
        <time>2021-10-12T07:40:08Z</time>
      </trkpt>
      <trkpt lat="37.162281" lon="-4.188681">
        <ele>560.585</ele>
        <time>2021-10-12T07:40:10Z</time>
      </trkpt>
      <trkpt lat="37.162187" lon="-4.189050">
        <ele>557.013</ele>
        <time>2021-10-12T07:40:11Z</time>
      </trkpt>
      <trkpt lat="37.162014" lon="-4.189802">
        <ele>556.408</ele>
        <time>2021-10-12T07:40:13Z</time>
      </trkpt>
      <trkpt lat="37.161930" lon="-4.190185">
        <ele>552.495</ele>
        <time>2021-10-12T07:40:14Z</time>
      </trkpt>
      <trkpt lat="37.161761" lon="-4.190925">
        <ele>548.773</ele>
        <time>2021-10-12T07:40:16Z</time>
      </trkpt>
      <trkpt lat="37.161677" lon="-4.191299">
        <ele>548.289</ele>
        <time>2021-10-12T07:40:17Z</time>
      </trkpt>
      <trkpt lat="37.161593" lon="-4.191671">
        <ele>547.082</ele>
        <time>2021-10-12T07:40:18Z</time>
      </trkpt>
      <trkpt lat="37.161423" lon="-4.192407">
        <ele>543.698</ele>
        <time>2021-10-12T07:40:20Z</time>
      </trkpt>
      <trkpt lat="37.161266" lon="-4.193109">
        <ele>540.547</ele>
        <time>2021-10-12T07:40:22Z</time>
      </trkpt>
      <trkpt lat="37.161187" lon="-4.193466">
        <ele>539.027</ele>
        <time>2021-10-12T07:40:23Z</time>
      </trkpt>
      <trkpt lat="37.161116" lon="-4.193814">
        <ele>539.798</ele>
        <time>2021-10-12T07:40:24Z</time>
      </trkpt>
      <trkpt lat="37.160959" lon="-4.194497">
        <ele>537.736</ele>
        <time>2021-10-12T07:40:26Z</time>
      </trkpt>
      <trkpt lat="37.160763" lon="-4.195153">
        <ele>536.817</ele>
        <time>2021-10-12T07:40:28Z</time>
      </trkpt>
      <trkpt lat="37.160643" lon="-4.195475">
        <ele>539.618</ele>
        <time>2021-10-12T07:40:29Z</time>
      </trkpt>
      <trkpt lat="37.160517" lon="-4.195786">
        <ele>543.408</ele>
        <time>2021-10-12T07:40:30Z</time>
      </trkpt>
      <trkpt lat="37.160377" lon="-4.196089">
        <ele>544.981</ele>
        <time>2021-10-12T07:40:31Z</time>
      </trkpt>
      <trkpt lat="37.160066" lon="-4.196676">
        <ele>545.589</ele>
        <time>2021-10-12T07:40:33Z</time>
      </trkpt>
      <trkpt lat="37.159899" lon="-4.196963">
        <ele>545.445</ele>
        <time>2021-10-12T07:40:34Z</time>
      </trkpt>
      <trkpt lat="37.159538" lon="-4.197524">
        <ele>545.918</ele>
        <time>2021-10-12T07:40:36Z</time>
      </trkpt>
      <trkpt lat="37.159182" lon="-4.198097">
        <ele>545.444</ele>
        <time>2021-10-12T07:40:38Z</time>
      </trkpt>
      <trkpt lat="37.158871" lon="-4.198687">
        <ele>545.483</ele>
        <time>2021-10-12T07:40:40Z</time>
      </trkpt>
      <trkpt lat="37.158610" lon="-4.199345">
        <ele>543.363</ele>
        <time>2021-10-12T07:40:42Z</time>
      </trkpt>
      <trkpt lat="37.158496" lon="-4.199699">
        <ele>539.984</ele>
        <time>2021-10-12T07:40:43Z</time>
      </trkpt>
      <trkpt lat="37.158393" lon="-4.200069">
        <ele>539.023</ele>
        <time>2021-10-12T07:40:44Z</time>
      </trkpt>
      <trkpt lat="37.158220" lon="-4.200806">
        <ele>535.383</ele>
        <time>2021-10-12T07:40:46Z</time>
      </trkpt>
      <trkpt lat="37.158139" lon="-4.201184">
        <ele>534.211</ele>
        <time>2021-10-12T07:40:47Z</time>
      </trkpt>
      <trkpt lat="37.157960" lon="-4.201925">
        <ele>527.408</ele>
        <time>2021-10-12T07:40:49Z</time>
      </trkpt>
      <trkpt lat="37.157851" lon="-4.202298">
        <ele>527.850</ele>
        <time>2021-10-12T07:40:50Z</time>
      </trkpt>
      <trkpt lat="37.157613" lon="-4.202991">
        <ele>525.958</ele>
        <time>2021-10-12T07:40:52Z</time>
      </trkpt>
      <trkpt lat="37.157489" lon="-4.203343">
        <ele>522.824</ele>
        <time>2021-10-12T07:40:53Z</time>
      </trkpt>
      <trkpt lat="37.157373" lon="-4.203692">
        <ele>520.447</ele>
        <time>2021-10-12T07:40:54Z</time>
      </trkpt>
      <trkpt lat="37.157188" lon="-4.204404">
        <ele>514.553</ele>
        <time>2021-10-12T07:40:56Z</time>
      </trkpt>
      <trkpt lat="37.157127" lon="-4.204768">
        <ele>513.132</ele>
        <time>2021-10-12T07:40:57Z</time>
      </trkpt>
      <trkpt lat="37.157086" lon="-4.205490">
        <ele>505.642</ele>
        <time>2021-10-12T07:40:59Z</time>
      </trkpt>
      <trkpt lat="37.157109" lon="-4.205848">
        <ele>502.733</ele>
        <time>2021-10-12T07:41:00Z</time>
      </trkpt>
      <trkpt lat="37.157244" lon="-4.206546">
        <ele>499.493</ele>
        <time>2021-10-12T07:41:02Z</time>
      </trkpt>
      <trkpt lat="37.157342" lon="-4.206891">
        <ele>496.865</ele>
        <time>2021-10-12T07:41:03Z</time>
      </trkpt>
      <trkpt lat="37.157571" lon="-4.207566">
        <ele>493.721</ele>
        <time>2021-10-12T07:41:05Z</time>
      </trkpt>
      <trkpt lat="37.157693" lon="-4.207900">
        <ele>491.708</ele>
        <time>2021-10-12T07:41:06Z</time>
      </trkpt>
      <trkpt lat="37.157943" lon="-4.208570">
        <ele>486.077</ele>
        <time>2021-10-12T07:41:08Z</time>
      </trkpt>
      <trkpt lat="37.158190" lon="-4.209218">
        <ele>487.175</ele>
        <time>2021-10-12T07:41:10Z</time>
      </trkpt>
      <trkpt lat="37.158435" lon="-4.209864">
        <ele>493.431</ele>
        <time>2021-10-12T07:41:12Z</time>
      </trkpt>
      <trkpt lat="37.158673" lon="-4.210496">
        <ele>497.554</ele>
        <time>2021-10-12T07:41:14Z</time>
      </trkpt>
      <trkpt lat="37.158891" lon="-4.211115">
        <ele>499.020</ele>
        <time>2021-10-12T07:41:16Z</time>
      </trkpt>
      <trkpt lat="37.158994" lon="-4.211439">
        <ele>500.289</ele>
        <time>2021-10-12T07:41:17Z</time>
      </trkpt>
      <trkpt lat="37.159158" lon="-4.212095">
        <ele>503.599</ele>
        <time>2021-10-12T07:41:19Z</time>
      </trkpt>
      <trkpt lat="37.159222" lon="-4.212442">
        <ele>507.170</ele>
        <time>2021-10-12T07:41:20Z</time>
      </trkpt>
      <trkpt lat="37.159302" lon="-4.213136">
        <ele>513.158</ele>
        <time>2021-10-12T07:41:22Z</time>
      </trkpt>
      <trkpt lat="37.159314" lon="-4.213852">
        <ele>517.352</ele>
        <time>2021-10-12T07:41:24Z</time>
      </trkpt>
      <trkpt lat="37.159293" lon="-4.214209">
        <ele>519.317</ele>
        <time>2021-10-12T07:41:25Z</time>
      </trkpt>
      <trkpt lat="37.159213" lon="-4.214920">
        <ele>528.308</ele>
        <time>2021-10-12T07:41:27Z</time>
      </trkpt>
      <trkpt lat="37.159064" lon="-4.215610">
        <ele>530.183</ele>
        <time>2021-10-12T07:41:29Z</time>
      </trkpt>
      <trkpt lat="37.158965" lon="-4.215948">
        <ele>530.621</ele>
        <time>2021-10-12T07:41:30Z</time>
      </trkpt>
      <trkpt lat="37.158848" lon="-4.216277">
        <ele>531.797</ele>
        <time>2021-10-12T07:41:31Z</time>
      </trkpt>
      <trkpt lat="37.158715" lon="-4.216599">
        <ele>532.480</ele>
        <time>2021-10-12T07:41:32Z</time>
      </trkpt>
      <trkpt lat="37.158399" lon="-4.217218">
        <ele>531.696</ele>
        <time>2021-10-12T07:41:34Z</time>
      </trkpt>
      <trkpt lat="37.158217" lon="-4.217520">
        <ele>533.595</ele>
        <time>2021-10-12T07:41:35Z</time>
      </trkpt>
      <trkpt lat="37.157831" lon="-4.218103">
        <ele>541.225</ele>
        <time>2021-10-12T07:41:37Z</time>
      </trkpt>
      <trkpt lat="37.157635" lon="-4.218395">
        <ele>544.766</ele>
        <time>2021-10-12T07:41:38Z</time>
      </trkpt>
      <trkpt lat="37.157269" lon="-4.218980">
        <ele>544.966</ele>
        <time>2021-10-12T07:41:40Z</time>
      </trkpt>
      <trkpt lat="37.157103" lon="-4.219292">
        <ele>545.429</ele>
        <time>2021-10-12T07:41:41Z</time>
      </trkpt>
      <trkpt lat="37.156950" lon="-4.219616">
        <ele>548.221</ele>
        <time>2021-10-12T07:41:42Z</time>
      </trkpt>
      <trkpt lat="37.156673" lon="-4.220293">
        <ele>550.308</ele>
        <time>2021-10-12T07:41:44Z</time>
      </trkpt>
      <trkpt lat="37.156431" lon="-4.220964">
        <ele>554.884</ele>
        <time>2021-10-12T07:41:46Z</time>
      </trkpt>
      <trkpt lat="37.156313" lon="-4.221307">
        <ele>555.972</ele>
        <time>2021-10-12T07:41:47Z</time>
      </trkpt>
      <trkpt lat="37.156196" lon="-4.221644">
        <ele>558.018</ele>
        <time>2021-10-12T07:41:48Z</time>
      </trkpt>
      <trkpt lat="37.155946" lon="-4.222308">
        <ele>566.011</ele>
        <time>2021-10-12T07:41:50Z</time>
      </trkpt>
      <trkpt lat="37.155681" lon="-4.222946">
        <ele>569.267</ele>
        <time>2021-10-12T07:41:52Z</time>
      </trkpt>
      <trkpt lat="37.155531" lon="-4.223261">
        <ele>571.686</ele>
        <time>2021-10-12T07:41:53Z</time>
      </trkpt>
      <trkpt lat="37.155194" lon="-4.223858">
        <ele>573.886</ele>
        <time>2021-10-12T07:41:55Z</time>
      </trkpt>
      <trkpt lat="37.155005" lon="-4.224139">
        <ele>574.887</ele>
        <time>2021-10-12T07:41:56Z</time>
      </trkpt>
      <trkpt lat="37.154593" lon="-4.224651">
        <ele>574.465</ele>
        <time>2021-10-12T07:41:58Z</time>
      </trkpt>
      <trkpt lat="37.154140" lon="-4.225097">
        <ele>575.468</ele>
        <time>2021-10-12T07:42:00Z</time>
      </trkpt>
      <trkpt lat="37.153901" lon="-4.225296">
        <ele>578.114</ele>
        <time>2021-10-12T07:42:01Z</time>
      </trkpt>
      <trkpt lat="37.153652" lon="-4.225474">
        <ele>579.908</ele>
        <time>2021-10-12T07:42:02Z</time>
      </trkpt>
      <trkpt lat="37.153397" lon="-4.225633">
        <ele>583.544</ele>
        <time>2021-10-12T07:42:03Z</time>
      </trkpt>
      <trkpt lat="37.153135" lon="-4.225771">
        <ele>587.072</ele>
        <time>2021-10-12T07:42:04Z</time>
      </trkpt>
      <trkpt lat="37.152599" lon="-4.225998">
        <ele>589.948</ele>
        <time>2021-10-12T07:42:06Z</time>
      </trkpt>
      <trkpt lat="37.152320" lon="-4.226087">
        <ele>590.941</ele>
        <time>2021-10-12T07:42:07Z</time>
      </trkpt>
      <trkpt lat="37.152033" lon="-4.226161">
        <ele>591.537</ele>
        <time>2021-10-12T07:42:08Z</time>
      </trkpt>
      <trkpt lat="37.151470" lon="-4.226280">
        <ele>593.786</ele>
        <time>2021-10-12T07:42:10Z</time>
      </trkpt>
      <trkpt lat="37.150904" lon="-4.226441">
        <ele>595.736</ele>
        <time>2021-10-12T07:42:12Z</time>
      </trkpt>
      <trkpt lat="37.150630" lon="-4.226563">
        <ele>599.177</ele>
        <time>2021-10-12T07:42:13Z</time>
      </trkpt>
      <trkpt lat="37.150363" lon="-4.226721">
        <ele>600.644</ele>
        <time>2021-10-12T07:42:14Z</time>
      </trkpt>
      <trkpt lat="37.149888" lon="-4.227120">
        <ele>602.405</ele>
        <time>2021-10-12T07:42:16Z</time>
      </trkpt>
      <trkpt lat="37.149473" lon="-4.227623">
        <ele>607.715</ele>
        <time>2021-10-12T07:42:18Z</time>
      </trkpt>
      <trkpt lat="37.149292" lon="-4.227912">
        <ele>611.708</ele>
        <time>2021-10-12T07:42:19Z</time>
      </trkpt>
      <trkpt lat="37.149129" lon="-4.228233">
        <ele>615.112</ele>
        <time>2021-10-12T07:42:20Z</time>
      </trkpt>
      <trkpt lat="37.148883" lon="-4.228897">
        <ele>612.970</ele>
        <time>2021-10-12T07:42:22Z</time>
      </trkpt>
      <trkpt lat="37.148723" lon="-4.229631">
        <ele>614.516</ele>
        <time>2021-10-12T07:42:24Z</time>
      </trkpt>
      <trkpt lat="37.148679" lon="-4.230012">
        <ele>618.369</ele>
        <time>2021-10-12T07:42:25Z</time>
      </trkpt>
      <trkpt lat="37.148644" lon="-4.230402">
        <ele>620.035</ele>
        <time>2021-10-12T07:42:26Z</time>
      </trkpt>
      <trkpt lat="37.148540" lon="-4.231125">
        <ele>620.124</ele>
        <time>2021-10-12T07:42:28Z</time>
      </trkpt>
      <trkpt lat="37.148453" lon="-4.231487">
        <ele>622.174</ele>
        <time>2021-10-12T07:42:29Z</time>
      </trkpt>
      <trkpt lat="37.148338" lon="-4.231837">
        <ele>623.695</ele>
        <time>2021-10-12T07:42:30Z</time>
      </trkpt>
      <trkpt lat="37.148042" lon="-4.232499">
        <ele>629.025</ele>
        <time>2021-10-12T07:42:32Z</time>
      </trkpt>
      <trkpt lat="37.147865" lon="-4.232804">
        <ele>632.326</ele>
        <time>2021-10-12T07:42:33Z</time>
      </trkpt>
      <trkpt lat="37.147460" lon="-4.233356">
        <ele>637.508</ele>
        <time>2021-10-12T07:42:35Z</time>
      </trkpt>
      <trkpt lat="37.147009" lon="-4.233851">
        <ele>641.108</ele>
        <time>2021-10-12T07:42:37Z</time>
      </trkpt>
      <trkpt lat="37.146780" lon="-4.234114">
        <ele>643.250</ele>
        <time>2021-10-12T07:42:38Z</time>
      </trkpt>
      <trkpt lat="37.146373" lon="-4.234682">
        <ele>646.468</ele>
        <time>2021-10-12T07:42:40Z</time>
      </trkpt>
      <trkpt lat="37.146186" lon="-4.234994">
        <ele>645.354</ele>
        <time>2021-10-12T07:42:41Z</time>
      </trkpt>
      <trkpt lat="37.145871" lon="-4.235663">
        <ele>647.687</ele>
        <time>2021-10-12T07:42:43Z</time>
      </trkpt>
      <trkpt lat="37.145745" lon="-4.236025">
        <ele>648.673</ele>
        <time>2021-10-12T07:42:44Z</time>
      </trkpt>
      <trkpt lat="37.145571" lon="-4.236748">
        <ele>656.612</ele>
        <time>2021-10-12T07:42:46Z</time>
      </trkpt>
      <trkpt lat="37.145514" lon="-4.237124">
        <ele>660.822</ele>
        <time>2021-10-12T07:42:47Z</time>
      </trkpt>
      <trkpt lat="37.145466" lon="-4.237870">
        <ele>661.023</ele>
        <time>2021-10-12T07:42:49Z</time>
      </trkpt>
      <trkpt lat="37.145473" lon="-4.238250">
        <ele>661.896</ele>
        <time>2021-10-12T07:42:50Z</time>
      </trkpt>
      <trkpt lat="37.145552" lon="-4.238976">
        <ele>662.631</ele>
        <time>2021-10-12T07:42:52Z</time>
      </trkpt>
      <trkpt lat="37.145616" lon="-4.239338">
        <ele>661.724</ele>
        <time>2021-10-12T07:42:53Z</time>
      </trkpt>
      <trkpt lat="37.145750" lon="-4.240051">
        <ele>663.008</ele>
        <time>2021-10-12T07:42:55Z</time>
      </trkpt>
      <trkpt lat="37.145808" lon="-4.240420">
        <ele>663.797</ele>
        <time>2021-10-12T07:42:56Z</time>
      </trkpt>
      <trkpt lat="37.145861" lon="-4.241139">
        <ele>669.495</ele>
        <time>2021-10-12T07:42:58Z</time>
      </trkpt>
      <trkpt lat="37.145860" lon="-4.241516">
        <ele>672.271</ele>
        <time>2021-10-12T07:42:59Z</time>
      </trkpt>
      <trkpt lat="37.145801" lon="-4.242274">
        <ele>674.964</ele>
        <time>2021-10-12T07:43:01Z</time>
      </trkpt>
      <trkpt lat="37.145753" lon="-4.242653">
        <ele>676.760</ele>
        <time>2021-10-12T07:43:02Z</time>
      </trkpt>
      <trkpt lat="37.145699" lon="-4.243032">
        <ele>678.949</ele>
        <time>2021-10-12T07:43:03Z</time>
      </trkpt>
      <trkpt lat="37.145634" lon="-4.243789">
        <ele>683.789</ele>
        <time>2021-10-12T07:43:05Z</time>
      </trkpt>
      <trkpt lat="37.145656" lon="-4.244541">
        <ele>690.070</ele>
        <time>2021-10-12T07:43:07Z</time>
      </trkpt>
      <trkpt lat="37.145695" lon="-4.244915">
        <ele>693.438</ele>
        <time>2021-10-12T07:43:08Z</time>
      </trkpt>
      <trkpt lat="37.145823" lon="-4.245631">
        <ele>695.470</ele>
        <time>2021-10-12T07:43:10Z</time>
      </trkpt>
      <trkpt lat="37.145904" lon="-4.245986">
        <ele>694.917</ele>
        <time>2021-10-12T07:43:11Z</time>
      </trkpt>
      <trkpt lat="37.145992" lon="-4.246337">
        <ele>697.208</ele>
        <time>2021-10-12T07:43:12Z</time>
      </trkpt>
      <trkpt lat="37.146079" lon="-4.246690">
        <ele>700.111</ele>
        <time>2021-10-12T07:43:13Z</time>
      </trkpt>
      <trkpt lat="37.146164" lon="-4.247048">
        <ele>702.439</ele>
        <time>2021-10-12T07:43:14Z</time>
      </trkpt>
      <trkpt lat="37.146311" lon="-4.247758">
        <ele>705.615</ele>
        <time>2021-10-12T07:43:16Z</time>
      </trkpt>
      <trkpt lat="37.146422" lon="-4.248478">
        <ele>711.238</ele>
        <time>2021-10-12T07:43:18Z</time>
      </trkpt>
      <trkpt lat="37.146509" lon="-4.249204">
        <ele>713.534</ele>
        <time>2021-10-12T07:43:20Z</time>
      </trkpt>
      <trkpt lat="37.146562" lon="-4.249918">
        <ele>715.723</ele>
        <time>2021-10-12T07:43:22Z</time>
      </trkpt>
      <trkpt lat="37.146581" lon="-4.250285">
        <ele>718.073</ele>
        <time>2021-10-12T07:43:23Z</time>
      </trkpt>
      <trkpt lat="37.146594" lon="-4.251010">
        <ele>719.314</ele>
        <time>2021-10-12T07:43:25Z</time>
      </trkpt>
      <trkpt lat="37.146584" lon="-4.251377">
        <ele>718.383</ele>
        <time>2021-10-12T07:43:26Z</time>
      </trkpt>
      <trkpt lat="37.146544" lon="-4.252069">
        <ele>716.725</ele>
        <time>2021-10-12T07:43:28Z</time>
      </trkpt>
      <trkpt lat="37.146476" lon="-4.252764">
        <ele>717.017</ele>
        <time>2021-10-12T07:43:30Z</time>
      </trkpt>
      <trkpt lat="37.146434" lon="-4.253108">
        <ele>717.808</ele>
        <time>2021-10-12T07:43:31Z</time>
      </trkpt>
      <trkpt lat="37.146387" lon="-4.253449">
        <ele>716.656</ele>
        <time>2021-10-12T07:43:32Z</time>
      </trkpt>
      <trkpt lat="37.146271" lon="-4.254121">
        <ele>721.454</ele>
        <time>2021-10-12T07:43:34Z</time>
      </trkpt>
      <trkpt lat="37.146203" lon="-4.254453">
        <ele>723.410</ele>
        <time>2021-10-12T07:43:35Z</time>
      </trkpt>
      <trkpt lat="37.146046" lon="-4.255110">
        <ele>725.843</ele>
        <time>2021-10-12T07:43:37Z</time>
      </trkpt>
      <trkpt lat="37.145960" lon="-4.255438">
        <ele>726.679</ele>
        <time>2021-10-12T07:43:38Z</time>
      </trkpt>
      <trkpt lat="37.145765" lon="-4.256080">
        <ele>726.578</ele>
        <time>2021-10-12T07:43:40Z</time>
      </trkpt>
      <trkpt lat="37.145653" lon="-4.256403">
        <ele>725.098</ele>
        <time>2021-10-12T07:43:41Z</time>
      </trkpt>
      <trkpt lat="37.145408" lon="-4.257039">
        <ele>725.589</ele>
        <time>2021-10-12T07:43:43Z</time>
      </trkpt>
      <trkpt lat="37.145262" lon="-4.257362">
        <ele>725.532</ele>
        <time>2021-10-12T07:43:44Z</time>
      </trkpt>
      <trkpt lat="37.144946" lon="-4.258028">
        <ele>725.792</ele>
        <time>2021-10-12T07:43:46Z</time>
      </trkpt>
      <trkpt lat="37.144632" lon="-4.258711">
        <ele>726.511</ele>
        <time>2021-10-12T07:43:48Z</time>
      </trkpt>
      <trkpt lat="37.144339" lon="-4.259391">
        <ele>728.608</ele>
        <time>2021-10-12T07:43:50Z</time>
      </trkpt>
      <trkpt lat="37.144089" lon="-4.260069">
        <ele>728.491</ele>
        <time>2021-10-12T07:43:52Z</time>
      </trkpt>
      <trkpt lat="37.143979" lon="-4.260419">
        <ele>725.869</ele>
        <time>2021-10-12T07:43:53Z</time>
      </trkpt>
      <trkpt lat="37.143807" lon="-4.261126">
        <ele>724.245</ele>
        <time>2021-10-12T07:43:55Z</time>
      </trkpt>
      <trkpt lat="37.143731" lon="-4.261493">
        <ele>726.498</ele>
        <time>2021-10-12T07:43:56Z</time>
      </trkpt>
      <trkpt lat="37.143602" lon="-4.262191">
        <ele>730.244</ele>
        <time>2021-10-12T07:43:58Z</time>
      </trkpt>
      <trkpt lat="37.143488" lon="-4.262908">
        <ele>732.563</ele>
        <time>2021-10-12T07:44:00Z</time>
      </trkpt>
      <trkpt lat="37.143431" lon="-4.263263">
        <ele>732.853</ele>
        <time>2021-10-12T07:44:01Z</time>
      </trkpt>
      <trkpt lat="37.143316" lon="-4.263964">
        <ele>734.414</ele>
        <time>2021-10-12T07:44:03Z</time>
      </trkpt>
      <trkpt lat="37.143198" lon="-4.264631">
        <ele>736.255</ele>
        <time>2021-10-12T07:44:05Z</time>
      </trkpt>
      <trkpt lat="37.143069" lon="-4.265278">
        <ele>740.907</ele>
        <time>2021-10-12T07:44:07Z</time>
      </trkpt>
      <trkpt lat="37.142997" lon="-4.265598">
        <ele>741.217</ele>
        <time>2021-10-12T07:44:08Z</time>
      </trkpt>
      <trkpt lat="37.142835" lon="-4.266228">
        <ele>743.508</ele>
        <time>2021-10-12T07:44:10Z</time>
      </trkpt>
      <trkpt lat="37.142743" lon="-4.266548">
        <ele>745.623</ele>
        <time>2021-10-12T07:44:11Z</time>
      </trkpt>
      <trkpt lat="37.142534" lon="-4.267191">
        <ele>746.181</ele>
        <time>2021-10-12T07:44:13Z</time>
      </trkpt>
      <trkpt lat="37.142419" lon="-4.267523">
        <ele>746.347</ele>
        <time>2021-10-12T07:44:14Z</time>
      </trkpt>
      <trkpt lat="37.142183" lon="-4.268181">
        <ele>751.070</ele>
        <time>2021-10-12T07:44:16Z</time>
      </trkpt>
      <trkpt lat="37.141928" lon="-4.268848">
        <ele>753.176</ele>
        <time>2021-10-12T07:44:18Z</time>
      </trkpt>
      <trkpt lat="37.141668" lon="-4.269516">
        <ele>751.575</ele>
        <time>2021-10-12T07:44:20Z</time>
      </trkpt>
      <trkpt lat="37.141418" lon="-4.270168">
        <ele>750.585</ele>
        <time>2021-10-12T07:44:22Z</time>
      </trkpt>
      <trkpt lat="37.141297" lon="-4.270500">
        <ele>751.796</ele>
        <time>2021-10-12T07:44:23Z</time>
      </trkpt>
      <trkpt lat="37.141063" lon="-4.271158">
        <ele>750.537</ele>
        <time>2021-10-12T07:44:25Z</time>
      </trkpt>
      <trkpt lat="37.140945" lon="-4.271497">
        <ele>751.449</ele>
        <time>2021-10-12T07:44:26Z</time>
      </trkpt>
      <trkpt lat="37.140732" lon="-4.272137">
        <ele>753.213</ele>
        <time>2021-10-12T07:44:28Z</time>
      </trkpt>
      <trkpt lat="37.140625" lon="-4.272468">
        <ele>754.008</ele>
        <time>2021-10-12T07:44:29Z</time>
      </trkpt>
      <trkpt lat="37.140426" lon="-4.273123">
        <ele>755.061</ele>
        <time>2021-10-12T07:44:31Z</time>
      </trkpt>
      <trkpt lat="37.140325" lon="-4.273466">
        <ele>754.139</ele>
        <time>2021-10-12T07:44:32Z</time>
      </trkpt>
      <trkpt lat="37.140135" lon="-4.274124">
        <ele>750.115</ele>
        <time>2021-10-12T07:44:34Z</time>
      </trkpt>
      <trkpt lat="37.139932" lon="-4.274815">
        <ele>751.438</ele>
        <time>2021-10-12T07:44:36Z</time>
      </trkpt>
      <trkpt lat="37.139828" lon="-4.275162">
        <ele>749.874</ele>
        <time>2021-10-12T07:44:37Z</time>
      </trkpt>
      <trkpt lat="37.139717" lon="-4.275514">
        <ele>748.273</ele>
        <time>2021-10-12T07:44:38Z</time>
      </trkpt>
      <trkpt lat="37.139484" lon="-4.276201">
        <ele>743.693</ele>
        <time>2021-10-12T07:44:40Z</time>
      </trkpt>
      <trkpt lat="37.139219" lon="-4.276893">
        <ele>738.484</ele>
        <time>2021-10-12T07:44:42Z</time>
      </trkpt>
      <trkpt lat="37.139077" lon="-4.277237">
        <ele>737.098</ele>
        <time>2021-10-12T07:44:43Z</time>
      </trkpt>
      <trkpt lat="37.138923" lon="-4.277584">
        <ele>736.615</ele>
        <time>2021-10-12T07:44:44Z</time>
      </trkpt>
      <trkpt lat="37.138605" lon="-4.278249">
        <ele>731.626</ele>
        <time>2021-10-12T07:44:46Z</time>
      </trkpt>
      <trkpt lat="37.138264" lon="-4.278914">
        <ele>728.308</ele>
        <time>2021-10-12T07:44:48Z</time>
      </trkpt>
      <trkpt lat="37.138088" lon="-4.279243">
        <ele>726.917</ele>
        <time>2021-10-12T07:44:49Z</time>
      </trkpt>
      <trkpt lat="37.137909" lon="-4.279577">
        <ele>724.335</ele>
        <time>2021-10-12T07:44:50Z</time>
      </trkpt>
      <trkpt lat="37.137560" lon="-4.280216">
        <ele>724.091</ele>
        <time>2021-10-12T07:44:52Z</time>
      </trkpt>
      <trkpt lat="37.137380" lon="-4.280530">
        <ele>723.064</ele>
        <time>2021-10-12T07:44:53Z</time>
      </trkpt>
      <trkpt lat="37.137201" lon="-4.280839">
        <ele>723.150</ele>
        <time>2021-10-12T07:44:54Z</time>
      </trkpt>
      <trkpt lat="37.136841" lon="-4.281440">
        <ele>722.979</ele>
        <time>2021-10-12T07:44:56Z</time>
      </trkpt>
      <trkpt lat="37.136492" lon="-4.282003">
        <ele>724.349</ele>
        <time>2021-10-12T07:44:58Z</time>
      </trkpt>
      <trkpt lat="37.136312" lon="-4.282284">
        <ele>726.690</ele>
        <time>2021-10-12T07:44:59Z</time>
      </trkpt>
      <trkpt lat="37.136132" lon="-4.282564">
        <ele>728.911</ele>
        <time>2021-10-12T07:45:00Z</time>
      </trkpt>
      <trkpt lat="37.135765" lon="-4.283110">
        <ele>726.621</ele>
        <time>2021-10-12T07:45:02Z</time>
      </trkpt>
      <trkpt lat="37.135376" lon="-4.283627">
        <ele>721.003</ele>
        <time>2021-10-12T07:45:04Z</time>
      </trkpt>
      <trkpt lat="37.134952" lon="-4.284100">
        <ele>722.408</ele>
        <time>2021-10-12T07:45:06Z</time>
      </trkpt>
      <trkpt lat="37.134724" lon="-4.284324">
        <ele>721.949</ele>
        <time>2021-10-12T07:45:07Z</time>
      </trkpt>
      <trkpt lat="37.134487" lon="-4.284540">
        <ele>721.277</ele>
        <time>2021-10-12T07:45:08Z</time>
      </trkpt>
      <trkpt lat="37.133998" lon="-4.284927">
        <ele>720.763</ele>
        <time>2021-10-12T07:45:10Z</time>
      </trkpt>
      <trkpt lat="37.133476" lon="-4.285270">
        <ele>723.096</ele>
        <time>2021-10-12T07:45:12Z</time>
      </trkpt>
      <trkpt lat="37.132944" lon="-4.285583">
        <ele>725.862</ele>
        <time>2021-10-12T07:45:14Z</time>
      </trkpt>
      <trkpt lat="37.132424" lon="-4.285890">
        <ele>727.931</ele>
        <time>2021-10-12T07:45:16Z</time>
      </trkpt>
      <trkpt lat="37.131912" lon="-4.286222">
        <ele>726.921</ele>
        <time>2021-10-12T07:45:18Z</time>
      </trkpt>
      <trkpt lat="37.131656" lon="-4.286409">
        <ele>726.192</ele>
        <time>2021-10-12T07:45:19Z</time>
      </trkpt>
      <trkpt lat="37.131415" lon="-4.286609">
        <ele>727.028</ele>
        <time>2021-10-12T07:45:20Z</time>
      </trkpt>
      <trkpt lat="37.130974" lon="-4.287035">
        <ele>727.389</ele>
        <time>2021-10-12T07:45:22Z</time>
      </trkpt>
      <trkpt lat="37.130564" lon="-4.287511">
        <ele>726.917</ele>
        <time>2021-10-12T07:45:24Z</time>
      </trkpt>
      <trkpt lat="37.130183" lon="-4.288036">
        <ele>727.908</ele>
        <time>2021-10-12T07:45:26Z</time>
      </trkpt>
      <trkpt lat="37.129816" lon="-4.288588">
        <ele>725.180</ele>
        <time>2021-10-12T07:45:28Z</time>
      </trkpt>
      <trkpt lat="37.129632" lon="-4.288872">
        <ele>724.348</ele>
        <time>2021-10-12T07:45:29Z</time>
      </trkpt>
      <trkpt lat="37.129261" lon="-4.289444">
        <ele>725.374</ele>
        <time>2021-10-12T07:45:31Z</time>
      </trkpt>
      <trkpt lat="37.129078" lon="-4.289737">
        <ele>726.247</ele>
        <time>2021-10-12T07:45:32Z</time>
      </trkpt>
      <trkpt lat="37.128743" lon="-4.290344">
        <ele>724.753</ele>
        <time>2021-10-12T07:45:34Z</time>
      </trkpt>
      <trkpt lat="37.128473" lon="-4.290995">
        <ele>727.442</ele>
        <time>2021-10-12T07:45:36Z</time>
      </trkpt>
      <trkpt lat="37.128288" lon="-4.291685">
        <ele>734.232</ele>
        <time>2021-10-12T07:45:38Z</time>
      </trkpt>
      <trkpt lat="37.128185" lon="-4.292398">
        <ele>737.493</ele>
        <time>2021-10-12T07:45:40Z</time>
      </trkpt>
      <trkpt lat="37.128164" lon="-4.292769">
        <ele>738.017</ele>
        <time>2021-10-12T07:45:41Z</time>
      </trkpt>
      <trkpt lat="37.128160" lon="-4.293144">
        <ele>737.587</ele>
        <time>2021-10-12T07:45:42Z</time>
      </trkpt>
      <trkpt lat="37.128168" lon="-4.293912">
        <ele>738.915</ele>
        <time>2021-10-12T07:45:44Z</time>
      </trkpt>
      <trkpt lat="37.128178" lon="-4.294673">
        <ele>749.308</ele>
        <time>2021-10-12T07:45:46Z</time>
      </trkpt>
      <trkpt lat="37.128187" lon="-4.295057">
        <ele>750.129</ele>
        <time>2021-10-12T07:45:47Z</time>
      </trkpt>
      <trkpt lat="37.128211" lon="-4.295818">
        <ele>742.557</ele>
        <time>2021-10-12T07:45:49Z</time>
      </trkpt>
      <trkpt lat="37.128223" lon="-4.296201">
        <ele>740.043</ele>
        <time>2021-10-12T07:45:50Z</time>
      </trkpt>
      <trkpt lat="37.128234" lon="-4.296926">
        <ele>742.186</ele>
        <time>2021-10-12T07:45:52Z</time>
      </trkpt>
      <trkpt lat="37.128242" lon="-4.297626">
        <ele>751.492</ele>
        <time>2021-10-12T07:45:54Z</time>
      </trkpt>
      <trkpt lat="37.128249" lon="-4.298303">
        <ele>756.621</ele>
        <time>2021-10-12T07:45:56Z</time>
      </trkpt>
      <trkpt lat="37.128255" lon="-4.298970">
        <ele>757.261</ele>
        <time>2021-10-12T07:45:58Z</time>
      </trkpt>
      <trkpt lat="37.128260" lon="-4.299637">
        <ele>758.022</ele>
        <time>2021-10-12T07:46:00Z</time>
      </trkpt>
      <trkpt lat="37.128264" lon="-4.299977">
        <ele>757.563</ele>
        <time>2021-10-12T07:46:01Z</time>
      </trkpt>
      <trkpt lat="37.128267" lon="-4.300323">
        <ele>756.644</ele>
        <time>2021-10-12T07:46:02Z</time>
      </trkpt>
      <trkpt lat="37.128273" lon="-4.301026">
        <ele>754.218</ele>
        <time>2021-10-12T07:46:04Z</time>
      </trkpt>
      <trkpt lat="37.128276" lon="-4.301379">
        <ele>753.208</ele>
        <time>2021-10-12T07:46:05Z</time>
      </trkpt>
      <trkpt lat="37.128278" lon="-4.301731">
        <ele>754.414</ele>
        <time>2021-10-12T07:46:06Z</time>
      </trkpt>
      <trkpt lat="37.128279" lon="-4.302082">
        <ele>755.772</ele>
        <time>2021-10-12T07:46:07Z</time>
      </trkpt>
      <trkpt lat="37.128275" lon="-4.302438">
        <ele>757.088</ele>
        <time>2021-10-12T07:46:08Z</time>
      </trkpt>
      <trkpt lat="37.128243" lon="-4.303129">
        <ele>755.581</ele>
        <time>2021-10-12T07:46:10Z</time>
      </trkpt>
      <trkpt lat="37.128204" lon="-4.303476">
        <ele>755.227</ele>
        <time>2021-10-12T07:46:11Z</time>
      </trkpt>
      <trkpt lat="37.128150" lon="-4.303818">
        <ele>755.686</ele>
        <time>2021-10-12T07:46:12Z</time>
      </trkpt>
      <trkpt lat="37.127996" lon="-4.304501">
        <ele>757.046</ele>
        <time>2021-10-12T07:46:14Z</time>
      </trkpt>
      <trkpt lat="37.127788" lon="-4.305169">
        <ele>757.967</ele>
        <time>2021-10-12T07:46:16Z</time>
      </trkpt>
      <trkpt lat="37.127658" lon="-4.305503">
        <ele>758.036</ele>
        <time>2021-10-12T07:46:17Z</time>
      </trkpt>
      <trkpt lat="37.127349" lon="-4.306154">
        <ele>758.217</ele>
        <time>2021-10-12T07:46:19Z</time>
      </trkpt>
      <trkpt lat="37.127171" lon="-4.306471">
        <ele>759.718</ele>
        <time>2021-10-12T07:46:20Z</time>
      </trkpt>
      <trkpt lat="37.126795" lon="-4.307071">
        <ele>761.208</ele>
        <time>2021-10-12T07:46:22Z</time>
      </trkpt>
      <trkpt lat="37.126601" lon="-4.307372">
        <ele>760.551</ele>
        <time>2021-10-12T07:46:23Z</time>
      </trkpt>
      <trkpt lat="37.126225" lon="-4.307973">
        <ele>756.699</ele>
        <time>2021-10-12T07:46:25Z</time>
      </trkpt>
      <trkpt lat="37.126037" lon="-4.308266">
        <ele>758.865</ele>
        <time>2021-10-12T07:46:26Z</time>
      </trkpt>
      <trkpt lat="37.125666" lon="-4.308842">
        <ele>759.888</ele>
        <time>2021-10-12T07:46:28Z</time>
      </trkpt>
      <trkpt lat="37.125481" lon="-4.309130">
        <ele>758.494</ele>
        <time>2021-10-12T07:46:29Z</time>
      </trkpt>
      <trkpt lat="37.125119" lon="-4.309713">
        <ele>758.623</ele>
        <time>2021-10-12T07:46:31Z</time>
      </trkpt>
      <trkpt lat="37.124948" lon="-4.310019">
        <ele>757.463</ele>
        <time>2021-10-12T07:46:32Z</time>
      </trkpt>
      <trkpt lat="37.124647" lon="-4.310652">
        <ele>757.844</ele>
        <time>2021-10-12T07:46:34Z</time>
      </trkpt>
      <trkpt lat="37.124522" lon="-4.310989">
        <ele>756.474</ele>
        <time>2021-10-12T07:46:35Z</time>
      </trkpt>
      <trkpt lat="37.124317" lon="-4.311683">
        <ele>751.056</ele>
        <time>2021-10-12T07:46:37Z</time>
      </trkpt>
      <trkpt lat="37.124239" lon="-4.312047">
        <ele>751.621</ele>
        <time>2021-10-12T07:46:38Z</time>
      </trkpt>
      <trkpt lat="37.124128" lon="-4.312782">
        <ele>752.908</ele>
        <time>2021-10-12T07:46:40Z</time>
      </trkpt>
      <trkpt lat="37.124081" lon="-4.313547">
        <ele>754.845</ele>
        <time>2021-10-12T07:46:42Z</time>
      </trkpt>
      <trkpt lat="37.124083" lon="-4.313933">
        <ele>754.473</ele>
        <time>2021-10-12T07:46:43Z</time>
      </trkpt>
      <trkpt lat="37.124106" lon="-4.314321">
        <ele>753.419</ele>
        <time>2021-10-12T07:46:44Z</time>
      </trkpt>
      <trkpt lat="37.124198" lon="-4.315077">
        <ele>748.822</ele>
        <time>2021-10-12T07:46:46Z</time>
      </trkpt>
      <trkpt lat="37.124266" lon="-4.315450">
        <ele>746.268</ele>
        <time>2021-10-12T07:46:47Z</time>
      </trkpt>
      <trkpt lat="37.124431" lon="-4.316183">
        <ele>745.087</ele>
        <time>2021-10-12T07:46:49Z</time>
      </trkpt>
      <trkpt lat="37.124529" lon="-4.316545">
        <ele>745.067</ele>
        <time>2021-10-12T07:46:50Z</time>
      </trkpt>
      <trkpt lat="37.124754" lon="-4.317225">
        <ele>746.278</ele>
        <time>2021-10-12T07:46:52Z</time>
      </trkpt>
      <trkpt lat="37.125030" lon="-4.317878">
        <ele>746.386</ele>
        <time>2021-10-12T07:46:54Z</time>
      </trkpt>
      <trkpt lat="37.125330" lon="-4.318505">
        <ele>741.160</ele>
        <time>2021-10-12T07:46:56Z</time>
      </trkpt>
      <trkpt lat="37.125481" lon="-4.318819">
        <ele>739.326</ele>
        <time>2021-10-12T07:46:57Z</time>
      </trkpt>
      <trkpt lat="37.125783" lon="-4.319459">
        <ele>739.908</ele>
        <time>2021-10-12T07:46:59Z</time>
      </trkpt>
      <trkpt lat="37.126070" lon="-4.320114">
        <ele>738.376</ele>
        <time>2021-10-12T07:47:01Z</time>
      </trkpt>
      <trkpt lat="37.126339" lon="-4.320785">
        <ele>739.954</ele>
        <time>2021-10-12T07:47:03Z</time>
      </trkpt>
      <trkpt lat="37.126582" lon="-4.321455">
        <ele>739.760</ele>
        <time>2021-10-12T07:47:05Z</time>
      </trkpt>
      <trkpt lat="37.126694" lon="-4.321789">
        <ele>740.573</ele>
        <time>2021-10-12T07:47:06Z</time>
      </trkpt>
      <trkpt lat="37.126905" lon="-4.322469">
        <ele>741.079</ele>
        <time>2021-10-12T07:47:08Z</time>
      </trkpt>
      <trkpt lat="37.127093" lon="-4.323167">
        <ele>741.868</ele>
        <time>2021-10-12T07:47:10Z</time>
      </trkpt>
      <trkpt lat="37.127179" lon="-4.323528">
        <ele>741.648</ele>
        <time>2021-10-12T07:47:11Z</time>
      </trkpt>
      <trkpt lat="37.127330" lon="-4.324264">
        <ele>746.229</ele>
        <time>2021-10-12T07:47:13Z</time>
      </trkpt>
      <trkpt lat="37.127400" lon="-4.324642">
        <ele>745.042</ele>
        <time>2021-10-12T07:47:14Z</time>
      </trkpt>
      <trkpt lat="37.127510" lon="-4.325386">
        <ele>745.022</ele>
        <time>2021-10-12T07:47:16Z</time>
      </trkpt>
      <trkpt lat="37.127553" lon="-4.325772">
        <ele>744.814</ele>
        <time>2021-10-12T07:47:17Z</time>
      </trkpt>
      <trkpt lat="37.127632" lon="-4.326543">
        <ele>743.508</ele>
        <time>2021-10-12T07:47:19Z</time>
      </trkpt>
      <trkpt lat="37.127666" lon="-4.326940">
        <ele>743.032</ele>
        <time>2021-10-12T07:47:20Z</time>
      </trkpt>
      <trkpt lat="37.127736" lon="-4.327713">
        <ele>740.120</ele>
        <time>2021-10-12T07:47:22Z</time>
      </trkpt>
      <trkpt lat="37.127777" lon="-4.328103">
        <ele>740.236</ele>
        <time>2021-10-12T07:47:23Z</time>
      </trkpt>
      <trkpt lat="37.127818" lon="-4.328491">
        <ele>740.679</ele>
        <time>2021-10-12T07:47:24Z</time>
      </trkpt>
      <trkpt lat="37.127897" lon="-4.329269">
        <ele>739.325</ele>
        <time>2021-10-12T07:47:26Z</time>
      </trkpt>
      <trkpt lat="37.127972" lon="-4.330008">
        <ele>736.864</ele>
        <time>2021-10-12T07:47:28Z</time>
      </trkpt>
      <trkpt lat="37.128010" lon="-4.330382">
        <ele>733.774</ele>
        <time>2021-10-12T07:47:29Z</time>
      </trkpt>
      <trkpt lat="37.128083" lon="-4.331133">
        <ele>729.945</ele>
        <time>2021-10-12T07:47:31Z</time>
      </trkpt>
      <trkpt lat="37.128123" lon="-4.331510">
        <ele>730.153</ele>
        <time>2021-10-12T07:47:32Z</time>
      </trkpt>
      <trkpt lat="37.128202" lon="-4.332257">
        <ele>731.004</ele>
        <time>2021-10-12T07:47:34Z</time>
      </trkpt>
      <trkpt lat="37.128287" lon="-4.332999">
        <ele>733.314</ele>
        <time>2021-10-12T07:47:36Z</time>
      </trkpt>
      <trkpt lat="37.128377" lon="-4.333745">
        <ele>732.608</ele>
        <time>2021-10-12T07:47:38Z</time>
      </trkpt>
      <trkpt lat="37.128453" lon="-4.334485">
        <ele>732.973</ele>
        <time>2021-10-12T07:47:40Z</time>
      </trkpt>
      <trkpt lat="37.128487" lon="-4.334862">
        <ele>733.461</ele>
        <time>2021-10-12T07:47:41Z</time>
      </trkpt>
      <trkpt lat="37.128521" lon="-4.335238">
        <ele>734.967</ele>
        <time>2021-10-12T07:47:42Z</time>
      </trkpt>
      <trkpt lat="37.128598" lon="-4.335988">
        <ele>736.960</ele>
        <time>2021-10-12T07:47:44Z</time>
      </trkpt>
      <trkpt lat="37.128692" lon="-4.336710">
        <ele>735.316</ele>
        <time>2021-10-12T07:47:46Z</time>
      </trkpt>
      <trkpt lat="37.128798" lon="-4.337424">
        <ele>729.935</ele>
        <time>2021-10-12T07:47:48Z</time>
      </trkpt>
      <trkpt lat="37.128851" lon="-4.337785">
        <ele>729.165</ele>
        <time>2021-10-12T07:47:49Z</time>
      </trkpt>
      <trkpt lat="37.128904" lon="-4.338147">
        <ele>725.846</ele>
        <time>2021-10-12T07:47:50Z</time>
      </trkpt>
      <trkpt lat="37.129006" lon="-4.338858">
        <ele>725.071</ele>
        <time>2021-10-12T07:47:52Z</time>
      </trkpt>
      <trkpt lat="37.129103" lon="-4.339592">
        <ele>720.141</ele>
        <time>2021-10-12T07:47:54Z</time>
      </trkpt>
      <trkpt lat="37.129153" lon="-4.339966">
        <ele>717.215</ele>
        <time>2021-10-12T07:47:55Z</time>
      </trkpt>
      <trkpt lat="37.129203" lon="-4.340340">
        <ele>716.108</ele>
        <time>2021-10-12T07:47:56Z</time>
      </trkpt>
      <trkpt lat="37.129305" lon="-4.341095">
        <ele>712.685</ele>
        <time>2021-10-12T07:47:58Z</time>
      </trkpt>
      <trkpt lat="37.129357" lon="-4.341476">
        <ele>711.813</ele>
        <time>2021-10-12T07:47:59Z</time>
      </trkpt>
      <trkpt lat="37.129464" lon="-4.342246">
        <ele>707.789</ele>
        <time>2021-10-12T07:48:01Z</time>
      </trkpt>
      <trkpt lat="37.129568" lon="-4.343003">
        <ele>701.822</ele>
        <time>2021-10-12T07:48:03Z</time>
      </trkpt>
      <trkpt lat="37.129614" lon="-4.343381">
        <ele>701.498</ele>
        <time>2021-10-12T07:48:04Z</time>
      </trkpt>
      <trkpt lat="37.129683" lon="-4.344130">
        <ele>701.797</ele>
        <time>2021-10-12T07:48:06Z</time>
      </trkpt>
      <trkpt lat="37.129705" lon="-4.344501">
        <ele>701.757</ele>
        <time>2021-10-12T07:48:07Z</time>
      </trkpt>
      <trkpt lat="37.129722" lon="-4.344871">
        <ele>701.548</ele>
        <time>2021-10-12T07:48:08Z</time>
      </trkpt>
      <trkpt lat="37.129755" lon="-4.345578">
        <ele>707.399</ele>
        <time>2021-10-12T07:48:10Z</time>
      </trkpt>
      <trkpt lat="37.129789" lon="-4.346283">
        <ele>708.907</ele>
        <time>2021-10-12T07:48:12Z</time>
      </trkpt>
      <trkpt lat="37.129823" lon="-4.346992">
        <ele>710.427</ele>
        <time>2021-10-12T07:48:14Z</time>
      </trkpt>
      <trkpt lat="37.129855" lon="-4.347704">
        <ele>710.008</ele>
        <time>2021-10-12T07:48:16Z</time>
      </trkpt>
      <trkpt lat="37.129889" lon="-4.348450">
        <ele>709.767</ele>
        <time>2021-10-12T07:48:18Z</time>
      </trkpt>
      <trkpt lat="37.129908" lon="-4.348829">
        <ele>711.585</ele>
        <time>2021-10-12T07:48:19Z</time>
      </trkpt>
      <trkpt lat="37.129928" lon="-4.349213">
        <ele>713.331</ele>
        <time>2021-10-12T07:48:20Z</time>
      </trkpt>
      <trkpt lat="37.129980" lon="-4.349974">
        <ele>716.884</ele>
        <time>2021-10-12T07:48:22Z</time>
      </trkpt>
      <trkpt lat="37.130014" lon="-4.350360">
        <ele>718.130</ele>
        <time>2021-10-12T07:48:23Z</time>
      </trkpt>
      <trkpt lat="37.130106" lon="-4.351124">
        <ele>718.219</ele>
        <time>2021-10-12T07:48:25Z</time>
      </trkpt>
      <trkpt lat="37.130158" lon="-4.351498">
        <ele>720.349</ele>
        <time>2021-10-12T07:48:26Z</time>
      </trkpt>
      <trkpt lat="37.130211" lon="-4.351869">
        <ele>721.540</ele>
        <time>2021-10-12T07:48:27Z</time>
      </trkpt>
      <trkpt lat="37.130328" lon="-4.352592">
        <ele>723.463</ele>
        <time>2021-10-12T07:48:29Z</time>
      </trkpt>
      <trkpt lat="37.130443" lon="-4.353304">
        <ele>725.944</ele>
        <time>2021-10-12T07:48:31Z</time>
      </trkpt>
      <trkpt lat="37.130494" lon="-4.353661">
        <ele>726.518</ele>
        <time>2021-10-12T07:48:32Z</time>
      </trkpt>
      <trkpt lat="37.130564" lon="-4.354389">
        <ele>725.308</ele>
        <time>2021-10-12T07:48:34Z</time>
      </trkpt>
      <trkpt lat="37.130578" lon="-4.354758">
        <ele>724.494</ele>
        <time>2021-10-12T07:48:35Z</time>
      </trkpt>
      <trkpt lat="37.130581" lon="-4.355130">
        <ele>725.792</ele>
        <time>2021-10-12T07:48:36Z</time>
      </trkpt>
      <trkpt lat="37.130574" lon="-4.355503">
        <ele>726.178</ele>
        <time>2021-10-12T07:48:37Z</time>
      </trkpt>
      <trkpt lat="37.130555" lon="-4.355882">
        <ele>725.671</ele>
        <time>2021-10-12T07:48:38Z</time>
      </trkpt>
      <trkpt lat="37.130479" lon="-4.356622">
        <ele>721.047</ele>
        <time>2021-10-12T07:48:40Z</time>
      </trkpt>
      <trkpt lat="37.130423" lon="-4.356995">
        <ele>718.396</ele>
        <time>2021-10-12T07:48:41Z</time>
      </trkpt>
      <trkpt lat="37.130270" lon="-4.357728">
        <ele>722.436</ele>
        <time>2021-10-12T07:48:43Z</time>
      </trkpt>
      <trkpt lat="37.130176" lon="-4.358098">
        <ele>726.357</ele>
        <time>2021-10-12T07:48:44Z</time>
      </trkpt>
      <trkpt lat="37.129953" lon="-4.358802">
        <ele>726.287</ele>
        <time>2021-10-12T07:48:46Z</time>
      </trkpt>
      <trkpt lat="37.129820" lon="-4.359152">
        <ele>728.642</ele>
        <time>2021-10-12T07:48:47Z</time>
      </trkpt>
      <trkpt lat="37.129529" lon="-4.359827">
        <ele>734.526</ele>
        <time>2021-10-12T07:48:49Z</time>
      </trkpt>
      <trkpt lat="37.129370" lon="-4.360158">
        <ele>736.708</ele>
        <time>2021-10-12T07:48:50Z</time>
      </trkpt>
      <trkpt lat="37.129066" lon="-4.360790">
        <ele>738.746</ele>
        <time>2021-10-12T07:48:52Z</time>
      </trkpt>
      <trkpt lat="37.128766" lon="-4.361415">
        <ele>742.584</ele>
        <time>2021-10-12T07:48:54Z</time>
      </trkpt>
      <trkpt lat="37.128620" lon="-4.361721">
        <ele>746.460</ele>
        <time>2021-10-12T07:48:55Z</time>
      </trkpt>
      <trkpt lat="37.128474" lon="-4.362028">
        <ele>748.353</ele>
        <time>2021-10-12T07:48:56Z</time>
      </trkpt>
      <trkpt lat="37.128324" lon="-4.362332">
        <ele>748.779</ele>
        <time>2021-10-12T07:48:57Z</time>
      </trkpt>
      <trkpt lat="37.128035" lon="-4.362937">
        <ele>752.838</ele>
        <time>2021-10-12T07:48:59Z</time>
      </trkpt>
      <trkpt lat="37.127889" lon="-4.363250">
        <ele>753.478</ele>
        <time>2021-10-12T07:49:00Z</time>
      </trkpt>
      <trkpt lat="37.127611" lon="-4.363886">
        <ele>754.229</ele>
        <time>2021-10-12T07:49:02Z</time>
      </trkpt>
      <trkpt lat="37.127481" lon="-4.364217">
        <ele>755.033</ele>
        <time>2021-10-12T07:49:03Z</time>
      </trkpt>
      <trkpt lat="37.127239" lon="-4.364896">
        <ele>756.423</ele>
        <time>2021-10-12T07:49:05Z</time>
      </trkpt>
      <trkpt lat="37.127016" lon="-4.365598">
        <ele>757.415</ele>
        <time>2021-10-12T07:49:07Z</time>
      </trkpt>
      <trkpt lat="37.126904" lon="-4.365953">
        <ele>758.708</ele>
        <time>2021-10-12T07:49:08Z</time>
      </trkpt>
      <trkpt lat="37.126673" lon="-4.366647">
        <ele>761.921</ele>
        <time>2021-10-12T07:49:10Z</time>
      </trkpt>
      <trkpt lat="37.126557" lon="-4.366998">
        <ele>765.889</ele>
        <time>2021-10-12T07:49:11Z</time>
      </trkpt>
      <trkpt lat="37.126440" lon="-4.367349">
        <ele>770.385</ele>
        <time>2021-10-12T07:49:12Z</time>
      </trkpt>
      <trkpt lat="37.126204" lon="-4.368061">
        <ele>773.758</ele>
        <time>2021-10-12T07:49:14Z</time>
      </trkpt>
      <trkpt lat="37.125968" lon="-4.368747">
        <ele>772.494</ele>
        <time>2021-10-12T07:49:16Z</time>
      </trkpt>
      <trkpt lat="37.125716" lon="-4.369416">
        <ele>768.593</ele>
        <time>2021-10-12T07:49:18Z</time>
      </trkpt>
      <trkpt lat="37.125577" lon="-4.369743">
        <ele>764.963</ele>
        <time>2021-10-12T07:49:19Z</time>
      </trkpt>
      <trkpt lat="37.125430" lon="-4.370071">
        <ele>762.964</ele>
        <time>2021-10-12T07:49:20Z</time>
      </trkpt>
      <trkpt lat="37.125112" lon="-4.370701">
        <ele>757.768</ele>
        <time>2021-10-12T07:49:22Z</time>
      </trkpt>
      <trkpt lat="37.124938" lon="-4.371009">
        <ele>753.642</ele>
        <time>2021-10-12T07:49:23Z</time>
      </trkpt>
      <trkpt lat="37.124755" lon="-4.371309">
        <ele>752.226</ele>
        <time>2021-10-12T07:49:24Z</time>
      </trkpt>
      <trkpt lat="37.124369" lon="-4.371891">
        <ele>751.608</ele>
        <time>2021-10-12T07:49:26Z</time>
      </trkpt>
      <trkpt lat="37.124171" lon="-4.372187">
        <ele>749.554</ele>
        <time>2021-10-12T07:49:27Z</time>
      </trkpt>
      <trkpt lat="37.123975" lon="-4.372483">
        <ele>748.082</ele>
        <time>2021-10-12T07:49:28Z</time>
      </trkpt>
      <trkpt lat="37.123783" lon="-4.372782">
        <ele>744.438</ele>
        <time>2021-10-12T07:49:29Z</time>
      </trkpt>
      <trkpt lat="37.123429" lon="-4.373402">
        <ele>740.151</ele>
        <time>2021-10-12T07:49:31Z</time>
      </trkpt>
      <trkpt lat="37.123262" lon="-4.373731">
        <ele>738.287</ele>
        <time>2021-10-12T07:49:32Z</time>
      </trkpt>
      <trkpt lat="37.122960" lon="-4.374387">
        <ele>734.126</ele>
        <time>2021-10-12T07:49:34Z</time>
      </trkpt>
      <trkpt lat="37.122723" lon="-4.375065">
        <ele>730.376</ele>
        <time>2021-10-12T07:49:36Z</time>
      </trkpt>
      <trkpt lat="37.122535" lon="-4.375781">
        <ele>727.377</ele>
        <time>2021-10-12T07:49:38Z</time>
      </trkpt>
      <trkpt lat="37.122363" lon="-4.376471">
        <ele>721.618</ele>
        <time>2021-10-12T07:49:40Z</time>
      </trkpt>
      <trkpt lat="37.122177" lon="-4.377161">
        <ele>718.998</ele>
        <time>2021-10-12T07:49:42Z</time>
      </trkpt>
      <trkpt lat="37.122079" lon="-4.377502">
        <ele>720.117</ele>
        <time>2021-10-12T07:49:43Z</time>
      </trkpt>
      <trkpt lat="37.121972" lon="-4.377842">
        <ele>718.508</ele>
        <time>2021-10-12T07:49:44Z</time>
      </trkpt>
      <trkpt lat="37.121762" lon="-4.378499">
        <ele>713.419</ele>
        <time>2021-10-12T07:49:46Z</time>
      </trkpt>
      <trkpt lat="37.121658" lon="-4.378827">
        <ele>711.147</ele>
        <time>2021-10-12T07:49:47Z</time>
      </trkpt>
      <trkpt lat="37.121453" lon="-4.379470">
        <ele>707.123</ele>
        <time>2021-10-12T07:49:49Z</time>
      </trkpt>
      <trkpt lat="37.121347" lon="-4.379797">
        <ele>706.696</ele>
        <time>2021-10-12T07:49:50Z</time>
      </trkpt>
      <trkpt lat="37.121142" lon="-4.380436">
        <ele>704.682</ele>
        <time>2021-10-12T07:49:52Z</time>
      </trkpt>
      <trkpt lat="37.121038" lon="-4.380758">
        <ele>703.971</ele>
        <time>2021-10-12T07:49:53Z</time>
      </trkpt>
      <trkpt lat="37.120825" lon="-4.381406">
        <ele>698.951</ele>
        <time>2021-10-12T07:49:55Z</time>
      </trkpt>
      <trkpt lat="37.120713" lon="-4.381748">
        <ele>696.672</ele>
        <time>2021-10-12T07:49:56Z</time>
      </trkpt>
      <trkpt lat="37.120504" lon="-4.382402">
        <ele>691.735</ele>
        <time>2021-10-12T07:49:58Z</time>
      </trkpt>
      <trkpt lat="37.120396" lon="-4.382739">
        <ele>689.786</ele>
        <time>2021-10-12T07:49:59Z</time>
      </trkpt>
      <trkpt lat="37.120180" lon="-4.383415">
        <ele>692.414</ele>
        <time>2021-10-12T07:50:01Z</time>
      </trkpt>
      <trkpt lat="37.120071" lon="-4.383756">
        <ele>690.208</ele>
        <time>2021-10-12T07:50:02Z</time>
      </trkpt>
      <trkpt lat="37.119856" lon="-4.384425">
        <ele>685.711</ele>
        <time>2021-10-12T07:50:04Z</time>
      </trkpt>
      <trkpt lat="37.119750" lon="-4.384756">
        <ele>683.089</ele>
        <time>2021-10-12T07:50:05Z</time>
      </trkpt>
      <trkpt lat="37.119536" lon="-4.385383">
        <ele>680.295</ele>
        <time>2021-10-12T07:50:07Z</time>
      </trkpt>
      <trkpt lat="37.119411" lon="-4.385697">
        <ele>678.018</ele>
        <time>2021-10-12T07:50:08Z</time>
      </trkpt>
      <trkpt lat="37.119120" lon="-4.386285">
        <ele>676.084</ele>
        <time>2021-10-12T07:50:10Z</time>
      </trkpt>
      <trkpt lat="37.118747" lon="-4.386836">
        <ele>674.293</ele>
        <time>2021-10-12T07:50:12Z</time>
      </trkpt>
      <trkpt lat="37.118537" lon="-4.387093">
        <ele>671.173</ele>
        <time>2021-10-12T07:50:13Z</time>
      </trkpt>
      <trkpt lat="37.118308" lon="-4.387337">
        <ele>670.464</ele>
        <time>2021-10-12T07:50:14Z</time>
      </trkpt>
      <trkpt lat="37.117819" lon="-4.387759">
        <ele>666.956</ele>
        <time>2021-10-12T07:50:16Z</time>
      </trkpt>
      <trkpt lat="37.117279" lon="-4.388100">
        <ele>665.259</ele>
        <time>2021-10-12T07:50:18Z</time>
      </trkpt>
      <trkpt lat="37.116998" lon="-4.388254">
        <ele>662.814</ele>
        <time>2021-10-12T07:50:19Z</time>
      </trkpt>
      <trkpt lat="37.116718" lon="-4.388406">
        <ele>662.108</ele>
        <time>2021-10-12T07:50:20Z</time>
      </trkpt>
      <trkpt lat="37.116181" lon="-4.388764">
        <ele>662.493</ele>
        <time>2021-10-12T07:50:22Z</time>
      </trkpt>
      <trkpt lat="37.115686" lon="-4.389220">
        <ele>657.551</ele>
        <time>2021-10-12T07:50:24Z</time>
      </trkpt>
      <trkpt lat="37.115247" lon="-4.389763">
        <ele>656.867</ele>
        <time>2021-10-12T07:50:26Z</time>
      </trkpt>
      <trkpt lat="37.114864" lon="-4.390325">
        <ele>654.190</ele>
        <time>2021-10-12T07:50:28Z</time>
      </trkpt>
      <trkpt lat="37.114669" lon="-4.390613">
        <ele>652.626</ele>
        <time>2021-10-12T07:50:29Z</time>
      </trkpt>
      <trkpt lat="37.114472" lon="-4.390901">
        <ele>650.855</ele>
        <time>2021-10-12T07:50:30Z</time>
      </trkpt>
      <trkpt lat="37.114274" lon="-4.391188">
        <ele>649.815</ele>
        <time>2021-10-12T07:50:31Z</time>
      </trkpt>
      <trkpt lat="37.114073" lon="-4.391480">
        <ele>648.986</ele>
        <time>2021-10-12T07:50:32Z</time>
      </trkpt>
      <trkpt lat="37.113675" lon="-4.392056">
        <ele>645.732</ele>
        <time>2021-10-12T07:50:34Z</time>
      </trkpt>
      <trkpt lat="37.113470" lon="-4.392347">
        <ele>642.592</ele>
        <time>2021-10-12T07:50:35Z</time>
      </trkpt>
      <trkpt lat="37.113064" lon="-4.392940">
        <ele>641.411</ele>
        <time>2021-10-12T07:50:37Z</time>
      </trkpt>
      <trkpt lat="37.112858" lon="-4.393239">
        <ele>639.208</ele>
        <time>2021-10-12T07:50:38Z</time>
      </trkpt>
      <trkpt lat="37.112450" lon="-4.393824">
        <ele>632.831</ele>
        <time>2021-10-12T07:50:40Z</time>
      </trkpt>
      <trkpt lat="37.112037" lon="-4.394411">
        <ele>630.849</ele>
        <time>2021-10-12T07:50:42Z</time>
      </trkpt>
      <trkpt lat="37.111826" lon="-4.394695">
        <ele>626.445</ele>
        <time>2021-10-12T07:50:43Z</time>
      </trkpt>
      <trkpt lat="37.111606" lon="-4.394976">
        <ele>626.938</ele>
        <time>2021-10-12T07:50:44Z</time>
      </trkpt>
      <trkpt lat="37.111153" lon="-4.395490">
        <ele>624.224</ele>
        <time>2021-10-12T07:50:46Z</time>
      </trkpt>
      <trkpt lat="37.110676" lon="-4.395981">
        <ele>620.113</ele>
        <time>2021-10-12T07:50:48Z</time>
      </trkpt>
      <trkpt lat="37.110435" lon="-4.396227">
        <ele>616.183</ele>
        <time>2021-10-12T07:50:49Z</time>
      </trkpt>
      <trkpt lat="37.110193" lon="-4.396474">
        <ele>612.224</ele>
        <time>2021-10-12T07:50:50Z</time>
      </trkpt>
      <trkpt lat="37.109712" lon="-4.396969">
        <ele>607.096</ele>
        <time>2021-10-12T07:50:52Z</time>
      </trkpt>
      <trkpt lat="37.109244" lon="-4.397484">
        <ele>607.531</ele>
        <time>2021-10-12T07:50:54Z</time>
      </trkpt>
      <trkpt lat="37.108792" lon="-4.398029">
        <ele>603.824</ele>
        <time>2021-10-12T07:50:56Z</time>
      </trkpt>
      <trkpt lat="37.108368" lon="-4.398580">
        <ele>597.408</ele>
        <time>2021-10-12T07:50:58Z</time>
      </trkpt>
      <trkpt lat="37.108161" lon="-4.398862">
        <ele>596.437</ele>
        <time>2021-10-12T07:50:59Z</time>
      </trkpt>
      <trkpt lat="37.107754" lon="-4.399424">
        <ele>594.655</ele>
        <time>2021-10-12T07:51:01Z</time>
      </trkpt>
      <trkpt lat="37.107558" lon="-4.399701">
        <ele>593.631</ele>
        <time>2021-10-12T07:51:02Z</time>
      </trkpt>
      <trkpt lat="37.107182" lon="-4.400212">
        <ele>594.874</ele>
        <time>2021-10-12T07:51:04Z</time>
      </trkpt>
      <trkpt lat="37.106982" lon="-4.400458">
        <ele>593.870</ele>
        <time>2021-10-12T07:51:05Z</time>
      </trkpt>
      <trkpt lat="37.106776" lon="-4.400697">
        <ele>592.749</ele>
        <time>2021-10-12T07:51:06Z</time>
      </trkpt>
      <trkpt lat="37.106343" lon="-4.401164">
        <ele>589.529</ele>
        <time>2021-10-12T07:51:08Z</time>
      </trkpt>
      <trkpt lat="37.105894" lon="-4.401611">
        <ele>584.770</ele>
        <time>2021-10-12T07:51:10Z</time>
      </trkpt>
      <trkpt lat="37.105661" lon="-4.401838">
        <ele>584.555</ele>
        <time>2021-10-12T07:51:11Z</time>
      </trkpt>
      <trkpt lat="37.105195" lon="-4.402293">
        <ele>580.107</ele>
        <time>2021-10-12T07:51:13Z</time>
      </trkpt>
      <trkpt lat="37.104955" lon="-4.402524">
        <ele>579.017</ele>
        <time>2021-10-12T07:51:14Z</time>
      </trkpt>
      <trkpt lat="37.104488" lon="-4.402979">
        <ele>577.408</ele>
        <time>2021-10-12T07:51:16Z</time>
      </trkpt>
      <trkpt lat="37.104011" lon="-4.403439">
        <ele>576.293</ele>
        <time>2021-10-12T07:51:18Z</time>
      </trkpt>
      <trkpt lat="37.103529" lon="-4.403905">
        <ele>576.241</ele>
        <time>2021-10-12T07:51:20Z</time>
      </trkpt>
      <trkpt lat="37.103058" lon="-4.404357">
        <ele>576.397</ele>
        <time>2021-10-12T07:51:22Z</time>
      </trkpt>
      <trkpt lat="37.102814" lon="-4.404579">
        <ele>575.520</ele>
        <time>2021-10-12T07:51:23Z</time>
      </trkpt>
      <trkpt lat="37.102566" lon="-4.404794">
        <ele>573.086</ele>
        <time>2021-10-12T07:51:24Z</time>
      </trkpt>
      <trkpt lat="37.102044" lon="-4.405195">
        <ele>568.675</ele>
        <time>2021-10-12T07:51:26Z</time>
      </trkpt>
      <trkpt lat="37.101523" lon="-4.405548">
        <ele>562.555</ele>
        <time>2021-10-12T07:51:28Z</time>
      </trkpt>
      <trkpt lat="37.101248" lon="-4.405713">
        <ele>560.156</ele>
        <time>2021-10-12T07:51:29Z</time>
      </trkpt>
      <trkpt lat="37.100967" lon="-4.405867">
        <ele>558.741</ele>
        <time>2021-10-12T07:51:30Z</time>
      </trkpt>
      <trkpt lat="37.100683" lon="-4.406015">
        <ele>557.081</ele>
        <time>2021-10-12T07:51:31Z</time>
      </trkpt>
      <trkpt lat="37.100106" lon="-4.406283">
        <ele>555.409</ele>
        <time>2021-10-12T07:51:33Z</time>
      </trkpt>
      <trkpt lat="37.099817" lon="-4.406414">
        <ele>555.608</ele>
        <time>2021-10-12T07:51:34Z</time>
      </trkpt>
      <trkpt lat="37.099263" lon="-4.406665">
        <ele>553.722</ele>
        <time>2021-10-12T07:51:36Z</time>
      </trkpt>
      <trkpt lat="37.099005" lon="-4.406784">
        <ele>552.550</ele>
        <time>2021-10-12T07:51:37Z</time>
      </trkpt>
      <trkpt lat="37.098749" lon="-4.406902">
        <ele>551.966</ele>
        <time>2021-10-12T07:51:38Z</time>
      </trkpt>
      <trkpt lat="37.098256" lon="-4.407131">
        <ele>553.669</ele>
        <time>2021-10-12T07:51:40Z</time>
      </trkpt>
      <trkpt lat="37.098006" lon="-4.407247">
        <ele>554.155</ele>
        <time>2021-10-12T07:51:41Z</time>
      </trkpt>
      <trkpt lat="37.097509" lon="-4.407479">
        <ele>553.114</ele>
        <time>2021-10-12T07:51:43Z</time>
      </trkpt>
      <trkpt lat="37.097255" lon="-4.407597">
        <ele>551.564</ele>
        <time>2021-10-12T07:51:44Z</time>
      </trkpt>
      <trkpt lat="37.096754" lon="-4.407831">
        <ele>551.665</ele>
        <time>2021-10-12T07:51:46Z</time>
      </trkpt>
      <trkpt lat="37.096496" lon="-4.407951">
        <ele>552.621</ele>
        <time>2021-10-12T07:51:47Z</time>
      </trkpt>
      <trkpt lat="37.096239" lon="-4.408071">
        <ele>552.441</ele>
        <time>2021-10-12T07:51:48Z</time>
      </trkpt>
      <trkpt lat="37.095722" lon="-4.408335">
        <ele>551.005</ele>
        <time>2021-10-12T07:51:50Z</time>
      </trkpt>
      <trkpt lat="37.095221" lon="-4.408655">
        <ele>548.708</ele>
        <time>2021-10-12T07:51:52Z</time>
      </trkpt>
      <trkpt lat="37.094970" lon="-4.408842">
        <ele>548.280</ele>
        <time>2021-10-12T07:51:53Z</time>
      </trkpt>
      <trkpt lat="37.094723" lon="-4.409045">
        <ele>548.028</ele>
        <time>2021-10-12T07:51:54Z</time>
      </trkpt>
      <trkpt lat="37.094226" lon="-4.409488">
        <ele>546.074</ele>
        <time>2021-10-12T07:51:56Z</time>
      </trkpt>
      <trkpt lat="37.093770" lon="-4.409973">
        <ele>545.637</ele>
        <time>2021-10-12T07:51:58Z</time>
      </trkpt>
      <trkpt lat="37.093542" lon="-4.410253">
        <ele>543.853</ele>
        <time>2021-10-12T07:51:59Z</time>
      </trkpt>
      <trkpt lat="37.093320" lon="-4.410549">
        <ele>541.072</ele>
        <time>2021-10-12T07:52:00Z</time>
      </trkpt>
      <trkpt lat="37.092909" lon="-4.411193">
        <ele>538.982</ele>
        <time>2021-10-12T07:52:02Z</time>
      </trkpt>
      <trkpt lat="37.092545" lon="-4.411884">
        <ele>539.713</ele>
        <time>2021-10-12T07:52:04Z</time>
      </trkpt>
      <trkpt lat="37.092384" lon="-4.412245">
        <ele>538.345</ele>
        <time>2021-10-12T07:52:05Z</time>
      </trkpt>
      <trkpt lat="37.092231" lon="-4.412610">
        <ele>537.047</ele>
        <time>2021-10-12T07:52:06Z</time>
      </trkpt>
      <trkpt lat="37.091948" lon="-4.413351">
        <ele>534.911</ele>
        <time>2021-10-12T07:52:08Z</time>
      </trkpt>
      <trkpt lat="37.091679" lon="-4.414076">
        <ele>532.008</ele>
        <time>2021-10-12T07:52:10Z</time>
      </trkpt>
      <trkpt lat="37.091405" lon="-4.414806">
        <ele>529.452</ele>
        <time>2021-10-12T07:52:12Z</time>
      </trkpt>
      <trkpt lat="37.091129" lon="-4.415534">
        <ele>527.040</ele>
        <time>2021-10-12T07:52:14Z</time>
      </trkpt>
      <trkpt lat="37.090861" lon="-4.416247">
        <ele>521.986</ele>
        <time>2021-10-12T07:52:16Z</time>
      </trkpt>
      <trkpt lat="37.090729" lon="-4.416610">
        <ele>522.579</ele>
        <time>2021-10-12T07:52:17Z</time>
      </trkpt>
      <trkpt lat="37.090597" lon="-4.416971">
        <ele>521.825</ele>
        <time>2021-10-12T07:52:18Z</time>
      </trkpt>
      <trkpt lat="37.090337" lon="-4.417685">
        <ele>518.334</ele>
        <time>2021-10-12T07:52:20Z</time>
      </trkpt>
      <trkpt lat="37.090081" lon="-4.418388">
        <ele>519.464</ele>
        <time>2021-10-12T07:52:22Z</time>
      </trkpt>
      <trkpt lat="37.089953" lon="-4.418737">
        <ele>519.445</ele>
        <time>2021-10-12T07:52:23Z</time>
      </trkpt>
      <trkpt lat="37.089826" lon="-4.419082">
        <ele>517.755</ele>
        <time>2021-10-12T07:52:24Z</time>
      </trkpt>
      <trkpt lat="37.089698" lon="-4.419426">
        <ele>517.007</ele>
        <time>2021-10-12T07:52:25Z</time>
      </trkpt>
      <trkpt lat="37.089564" lon="-4.419777">
        <ele>516.917</ele>
        <time>2021-10-12T07:52:26Z</time>
      </trkpt>
      <trkpt lat="37.089313" lon="-4.420435">
        <ele>514.208</ele>
        <time>2021-10-12T07:52:28Z</time>
      </trkpt>
      <trkpt lat="37.089183" lon="-4.420775">
        <ele>514.033</ele>
        <time>2021-10-12T07:52:29Z</time>
      </trkpt>
      <trkpt lat="37.088930" lon="-4.421445">
        <ele>513.921</ele>
        <time>2021-10-12T07:52:31Z</time>
      </trkpt>
      <trkpt lat="37.088805" lon="-4.421780">
        <ele>513.897</ele>
        <time>2021-10-12T07:52:32Z</time>
      </trkpt>
      <trkpt lat="37.088562" lon="-4.422447">
        <ele>511.060</ele>
        <time>2021-10-12T07:52:34Z</time>
      </trkpt>
      <trkpt lat="37.088437" lon="-4.422780">
        <ele>509.036</ele>
        <time>2021-10-12T07:52:35Z</time>
      </trkpt>
      <trkpt lat="37.088311" lon="-4.423114">
        <ele>507.895</ele>
        <time>2021-10-12T07:52:36Z</time>
      </trkpt>
      <trkpt lat="37.088069" lon="-4.423783">
        <ele>507.695</ele>
        <time>2021-10-12T07:52:38Z</time>
      </trkpt>
      <trkpt lat="37.087835" lon="-4.424453">
        <ele>507.066</ele>
        <time>2021-10-12T07:52:40Z</time>
      </trkpt>
      <trkpt lat="37.087720" lon="-4.424795">
        <ele>507.471</ele>
        <time>2021-10-12T07:52:41Z</time>
      </trkpt>
      <trkpt lat="37.087501" lon="-4.425488">
        <ele>508.241</ele>
        <time>2021-10-12T07:52:43Z</time>
      </trkpt>
      <trkpt lat="37.087389" lon="-4.425846">
        <ele>506.415</ele>
        <time>2021-10-12T07:52:44Z</time>
      </trkpt>
      <trkpt lat="37.087166" lon="-4.426566">
        <ele>506.008</ele>
        <time>2021-10-12T07:52:46Z</time>
      </trkpt>
      <trkpt lat="37.086940" lon="-4.427301">
        <ele>503.755</ele>
        <time>2021-10-12T07:52:48Z</time>
      </trkpt>
      <trkpt lat="37.086716" lon="-4.428034">
        <ele>503.253</ele>
        <time>2021-10-12T07:52:50Z</time>
      </trkpt>
      <trkpt lat="37.086489" lon="-4.428755">
        <ele>503.119</ele>
        <time>2021-10-12T07:52:52Z</time>
      </trkpt>
      <trkpt lat="37.086375" lon="-4.429119">
        <ele>502.252</ele>
        <time>2021-10-12T07:52:53Z</time>
      </trkpt>
      <trkpt lat="37.086155" lon="-4.429849">
        <ele>501.298</ele>
        <time>2021-10-12T07:52:55Z</time>
      </trkpt>
      <trkpt lat="37.086053" lon="-4.430220">
        <ele>502.227</ele>
        <time>2021-10-12T07:52:56Z</time>
      </trkpt>
      <trkpt lat="37.085892" lon="-4.430970">
        <ele>504.257</ele>
        <time>2021-10-12T07:52:58Z</time>
      </trkpt>
      <trkpt lat="37.085831" lon="-4.431353">
        <ele>503.158</ele>
        <time>2021-10-12T07:52:59Z</time>
      </trkpt>
      <trkpt lat="37.085738" lon="-4.432124">
        <ele>501.245</ele>
        <time>2021-10-12T07:53:01Z</time>
      </trkpt>
      <trkpt lat="37.085700" lon="-4.432512">
        <ele>501.047</ele>
        <time>2021-10-12T07:53:02Z</time>
      </trkpt>
      <trkpt lat="37.085620" lon="-4.433288">
        <ele>501.011</ele>
        <time>2021-10-12T07:53:04Z</time>
      </trkpt>
      <trkpt lat="37.085579" lon="-4.433674">
        <ele>500.108</ele>
        <time>2021-10-12T07:53:05Z</time>
      </trkpt>
      <trkpt lat="37.085489" lon="-4.434449">
        <ele>499.052</ele>
        <time>2021-10-12T07:53:07Z</time>
      </trkpt>
      <trkpt lat="37.085448" lon="-4.434841">
        <ele>498.230</ele>
        <time>2021-10-12T07:53:08Z</time>
      </trkpt>
      <trkpt lat="37.085367" lon="-4.435607">
        <ele>495.766</ele>
        <time>2021-10-12T07:53:10Z</time>
      </trkpt>
      <trkpt lat="37.085284" lon="-4.436377">
        <ele>497.029</ele>
        <time>2021-10-12T07:53:12Z</time>
      </trkpt>
      <trkpt lat="37.085194" lon="-4.437146">
        <ele>496.965</ele>
        <time>2021-10-12T07:53:14Z</time>
      </trkpt>
      <trkpt lat="37.085110" lon="-4.437901">
        <ele>494.884</ele>
        <time>2021-10-12T07:53:16Z</time>
      </trkpt>
      <trkpt lat="37.085031" lon="-4.438662">
        <ele>495.274</ele>
        <time>2021-10-12T07:53:18Z</time>
      </trkpt>
      <trkpt lat="37.084940" lon="-4.439422">
        <ele>494.195</ele>
        <time>2021-10-12T07:53:20Z</time>
      </trkpt>
      <trkpt lat="37.084835" lon="-4.440165">
        <ele>493.619</ele>
        <time>2021-10-12T07:53:22Z</time>
      </trkpt>
      <trkpt lat="37.084777" lon="-4.440540">
        <ele>493.809</ele>
        <time>2021-10-12T07:53:23Z</time>
      </trkpt>
      <trkpt lat="37.084713" lon="-4.440916">
        <ele>493.719</ele>
        <time>2021-10-12T07:53:24Z</time>
      </trkpt>
      <trkpt lat="37.084567" lon="-4.441686">
        <ele>492.408</ele>
        <time>2021-10-12T07:53:26Z</time>
      </trkpt>
      <trkpt lat="37.084407" lon="-4.442467">
        <ele>490.429</ele>
        <time>2021-10-12T07:53:28Z</time>
      </trkpt>
      <trkpt lat="37.084246" lon="-4.443231">
        <ele>490.187</ele>
        <time>2021-10-12T07:53:30Z</time>
      </trkpt>
      <trkpt lat="37.084167" lon="-4.443611">
        <ele>490.093</ele>
        <time>2021-10-12T07:53:31Z</time>
      </trkpt>
      <trkpt lat="37.084088" lon="-4.443987">
        <ele>490.436</ele>
        <time>2021-10-12T07:53:32Z</time>
      </trkpt>
      <trkpt lat="37.083932" lon="-4.444743">
        <ele>488.522</ele>
        <time>2021-10-12T07:53:34Z</time>
      </trkpt>
      <trkpt lat="37.083787" lon="-4.445493">
        <ele>490.921</ele>
        <time>2021-10-12T07:53:36Z</time>
      </trkpt>
      <trkpt lat="37.083636" lon="-4.446246">
        <ele>489.611</ele>
        <time>2021-10-12T07:53:38Z</time>
      </trkpt>
      <trkpt lat="37.083477" lon="-4.446983">
        <ele>487.942</ele>
        <time>2021-10-12T07:53:40Z</time>
      </trkpt>
      <trkpt lat="37.083322" lon="-4.447724">
        <ele>486.072</ele>
        <time>2021-10-12T07:53:42Z</time>
      </trkpt>
      <trkpt lat="37.083245" lon="-4.448096">
        <ele>487.613</ele>
        <time>2021-10-12T07:53:43Z</time>
      </trkpt>
      <trkpt lat="37.083167" lon="-4.448473">
        <ele>490.114</ele>
        <time>2021-10-12T07:53:44Z</time>
      </trkpt>
      <trkpt lat="37.083035" lon="-4.449215">
        <ele>490.708</ele>
        <time>2021-10-12T07:53:46Z</time>
      </trkpt>
      <trkpt lat="37.082987" lon="-4.449601">
        <ele>489.135</ele>
        <time>2021-10-12T07:53:47Z</time>
      </trkpt>
      <trkpt lat="37.082952" lon="-4.449987">
        <ele>488.093</ele>
        <time>2021-10-12T07:53:48Z</time>
      </trkpt>
      <trkpt lat="37.082926" lon="-4.450769">
        <ele>488.449</ele>
        <time>2021-10-12T07:53:50Z</time>
      </trkpt>
      <trkpt lat="37.082957" lon="-4.451540">
        <ele>486.262</ele>
        <time>2021-10-12T07:53:52Z</time>
      </trkpt>
      <trkpt lat="37.082999" lon="-4.451926">
        <ele>485.358</ele>
        <time>2021-10-12T07:53:53Z</time>
      </trkpt>
      <trkpt lat="37.083055" lon="-4.452310">
        <ele>483.747</ele>
        <time>2021-10-12T07:53:54Z</time>
      </trkpt>
      <trkpt lat="37.083214" lon="-4.453065">
        <ele>483.627</ele>
        <time>2021-10-12T07:53:56Z</time>
      </trkpt>
      <trkpt lat="37.083308" lon="-4.453443">
        <ele>485.548</ele>
        <time>2021-10-12T07:53:57Z</time>
      </trkpt>
      <trkpt lat="37.083482" lon="-4.454184">
        <ele>481.959</ele>
        <time>2021-10-12T07:53:59Z</time>
      </trkpt>
      <trkpt lat="37.083560" lon="-4.454559">
        <ele>480.703</ele>
        <time>2021-10-12T07:54:00Z</time>
      </trkpt>
      <trkpt lat="37.083690" lon="-4.455308">
        <ele>482.523</ele>
        <time>2021-10-12T07:54:02Z</time>
      </trkpt>
      <trkpt lat="37.083778" lon="-4.456050">
        <ele>482.508</ele>
        <time>2021-10-12T07:54:04Z</time>
      </trkpt>
      <trkpt lat="37.083811" lon="-4.456425">
        <ele>481.293</ele>
        <time>2021-10-12T07:54:05Z</time>
      </trkpt>
      <trkpt lat="37.083844" lon="-4.456799">
        <ele>480.231</ele>
        <time>2021-10-12T07:54:06Z</time>
      </trkpt>
      <trkpt lat="37.083911" lon="-4.457550">
        <ele>482.067</ele>
        <time>2021-10-12T07:54:08Z</time>
      </trkpt>
      <trkpt lat="37.083979" lon="-4.458291">
        <ele>481.290</ele>
        <time>2021-10-12T07:54:10Z</time>
      </trkpt>
      <trkpt lat="37.084015" lon="-4.458662">
        <ele>480.546</ele>
        <time>2021-10-12T07:54:11Z</time>
      </trkpt>
      <trkpt lat="37.084083" lon="-4.459401">
        <ele>481.065</ele>
        <time>2021-10-12T07:54:13Z</time>
      </trkpt>
      <trkpt lat="37.084114" lon="-4.459777">
        <ele>480.065</ele>
        <time>2021-10-12T07:54:14Z</time>
      </trkpt>
      <trkpt lat="37.084178" lon="-4.460506">
        <ele>479.026</ele>
        <time>2021-10-12T07:54:16Z</time>
      </trkpt>
      <trkpt lat="37.084235" lon="-4.461227">
        <ele>478.462</ele>
        <time>2021-10-12T07:54:18Z</time>
      </trkpt>
      <trkpt lat="37.084293" lon="-4.461940">
        <ele>480.083</ele>
        <time>2021-10-12T07:54:20Z</time>
      </trkpt>
      <trkpt lat="37.084356" lon="-4.462627">
        <ele>477.511</ele>
        <time>2021-10-12T07:54:22Z</time>
      </trkpt>
      <trkpt lat="37.084418" lon="-4.463309">
        <ele>478.708</ele>
        <time>2021-10-12T07:54:24Z</time>
      </trkpt>
      <trkpt lat="37.084445" lon="-4.463651">
        <ele>478.114</ele>
        <time>2021-10-12T07:54:25Z</time>
      </trkpt>
      <trkpt lat="37.084476" lon="-4.463990">
        <ele>479.442</ele>
        <time>2021-10-12T07:54:26Z</time>
      </trkpt>
      <trkpt lat="37.084537" lon="-4.464675">
        <ele>480.438</ele>
        <time>2021-10-12T07:54:28Z</time>
      </trkpt>
      <trkpt lat="37.084599" lon="-4.465380">
        <ele>481.141</ele>
        <time>2021-10-12T07:54:30Z</time>
      </trkpt>
      <trkpt lat="37.084631" lon="-4.465745">
        <ele>480.977</ele>
        <time>2021-10-12T07:54:31Z</time>
      </trkpt>
      <trkpt lat="37.084694" lon="-4.466483">
        <ele>479.666</ele>
        <time>2021-10-12T07:54:33Z</time>
      </trkpt>
      <trkpt lat="37.084748" lon="-4.467224">
        <ele>480.376</ele>
        <time>2021-10-12T07:54:35Z</time>
      </trkpt>
      <trkpt lat="37.084776" lon="-4.467601">
        <ele>479.287</ele>
        <time>2021-10-12T07:54:36Z</time>
      </trkpt>
      <trkpt lat="37.084841" lon="-4.468366">
        <ele>477.876</ele>
        <time>2021-10-12T07:54:38Z</time>
      </trkpt>
      <trkpt lat="37.084909" lon="-4.469127">
        <ele>479.590</ele>
        <time>2021-10-12T07:54:40Z</time>
      </trkpt>
      <trkpt lat="37.084944" lon="-4.469520">
        <ele>480.919</ele>
        <time>2021-10-12T07:54:41Z</time>
      </trkpt>
      <trkpt lat="37.084979" lon="-4.469910">
        <ele>479.208</ele>
        <time>2021-10-12T07:54:42Z</time>
      </trkpt>
      <trkpt lat="37.085014" lon="-4.470298">
        <ele>480.165</ele>
        <time>2021-10-12T07:54:43Z</time>
      </trkpt>
      <trkpt lat="37.085045" lon="-4.470690">
        <ele>479.053</ele>
        <time>2021-10-12T07:54:44Z</time>
      </trkpt>
      <trkpt lat="37.085114" lon="-4.471455">
        <ele>477.699</ele>
        <time>2021-10-12T07:54:46Z</time>
      </trkpt>
      <trkpt lat="37.085148" lon="-4.471843">
        <ele>479.562</ele>
        <time>2021-10-12T07:54:47Z</time>
      </trkpt>
      <trkpt lat="37.085181" lon="-4.472230">
        <ele>480.038</ele>
        <time>2021-10-12T07:54:48Z</time>
      </trkpt>
      <trkpt lat="37.085213" lon="-4.472615">
        <ele>480.077</ele>
        <time>2021-10-12T07:54:49Z</time>
      </trkpt>
      <trkpt lat="37.085241" lon="-4.472997">
        <ele>481.527</ele>
        <time>2021-10-12T07:54:50Z</time>
      </trkpt>
      <trkpt lat="37.085277" lon="-4.473735">
        <ele>484.028</ele>
        <time>2021-10-12T07:54:52Z</time>
      </trkpt>
      <trkpt lat="37.085279" lon="-4.474466">
        <ele>483.134</ele>
        <time>2021-10-12T07:54:54Z</time>
      </trkpt>
      <trkpt lat="37.085246" lon="-4.475207">
        <ele>485.255</ele>
        <time>2021-10-12T07:54:56Z</time>
      </trkpt>
      <trkpt lat="37.085174" lon="-4.475920">
        <ele>487.710</ele>
        <time>2021-10-12T07:54:58Z</time>
      </trkpt>
      <trkpt lat="37.085126" lon="-4.476285">
        <ele>490.708</ele>
        <time>2021-10-12T07:54:59Z</time>
      </trkpt>
      <trkpt lat="37.085068" lon="-4.476646">
        <ele>493.121</ele>
        <time>2021-10-12T07:55:00Z</time>
      </trkpt>
      <trkpt lat="37.084919" lon="-4.477363">
        <ele>496.669</ele>
        <time>2021-10-12T07:55:02Z</time>
      </trkpt>
      <trkpt lat="37.084829" lon="-4.477720">
        <ele>495.955</ele>
        <time>2021-10-12T07:55:03Z</time>
      </trkpt>
      <trkpt lat="37.084617" lon="-4.478429">
        <ele>497.578</ele>
        <time>2021-10-12T07:55:05Z</time>
      </trkpt>
      <trkpt lat="37.084369" lon="-4.479131">
        <ele>500.234</ele>
        <time>2021-10-12T07:55:07Z</time>
      </trkpt>
      <trkpt lat="37.084232" lon="-4.479474">
        <ele>500.333</ele>
        <time>2021-10-12T07:55:08Z</time>
      </trkpt>
      <trkpt lat="37.083936" lon="-4.480130">
        <ele>500.713</ele>
        <time>2021-10-12T07:55:10Z</time>
      </trkpt>
      <trkpt lat="37.083782" lon="-4.480454">
        <ele>498.734</ele>
        <time>2021-10-12T07:55:11Z</time>
      </trkpt>
      <trkpt lat="37.083633" lon="-4.480781">
        <ele>498.573</ele>
        <time>2021-10-12T07:55:12Z</time>
      </trkpt>
      <trkpt lat="37.083339" lon="-4.481440">
        <ele>502.385</ele>
        <time>2021-10-12T07:55:14Z</time>
      </trkpt>
      <trkpt lat="37.083051" lon="-4.482086">
        <ele>509.913</ele>
        <time>2021-10-12T07:55:16Z</time>
      </trkpt>
      <trkpt lat="37.082903" lon="-4.482411">
        <ele>509.708</ele>
        <time>2021-10-12T07:55:17Z</time>
      </trkpt>
      <trkpt lat="37.082756" lon="-4.482734">
        <ele>509.795</ele>
        <time>2021-10-12T07:55:18Z</time>
      </trkpt>
      <trkpt lat="37.082462" lon="-4.483380">
        <ele>510.013</ele>
        <time>2021-10-12T07:55:20Z</time>
      </trkpt>
      <trkpt lat="37.082177" lon="-4.484004">
        <ele>512.029</ele>
        <time>2021-10-12T07:55:22Z</time>
      </trkpt>
      <trkpt lat="37.081896" lon="-4.484620">
        <ele>515.452</ele>
        <time>2021-10-12T07:55:24Z</time>
      </trkpt>
      <trkpt lat="37.081756" lon="-4.484927">
        <ele>518.368</ele>
        <time>2021-10-12T07:55:25Z</time>
      </trkpt>
      <trkpt lat="37.081616" lon="-4.485235">
        <ele>521.947</ele>
        <time>2021-10-12T07:55:26Z</time>
      </trkpt>
      <trkpt lat="37.081352" lon="-4.485820">
        <ele>525.317</ele>
        <time>2021-10-12T07:55:28Z</time>
      </trkpt>
      <trkpt lat="37.081217" lon="-4.486118">
        <ele>524.288</ele>
        <time>2021-10-12T07:55:29Z</time>
      </trkpt>
      <trkpt lat="37.081081" lon="-4.486418">
        <ele>524.142</ele>
        <time>2021-10-12T07:55:30Z</time>
      </trkpt>
      <trkpt lat="37.080814" lon="-4.487033">
        <ele>527.822</ele>
        <time>2021-10-12T07:55:32Z</time>
      </trkpt>
      <trkpt lat="37.080566" lon="-4.487677">
        <ele>532.014</ele>
        <time>2021-10-12T07:55:34Z</time>
      </trkpt>
      <trkpt lat="37.080453" lon="-4.488012">
        <ele>534.708</ele>
        <time>2021-10-12T07:55:35Z</time>
      </trkpt>
      <trkpt lat="37.080257" lon="-4.488697">
        <ele>541.592</ele>
        <time>2021-10-12T07:55:37Z</time>
      </trkpt>
      <trkpt lat="37.080172" lon="-4.489049">
        <ele>541.450</ele>
        <time>2021-10-12T07:55:38Z</time>
      </trkpt>
      <trkpt lat="37.080035" lon="-4.489746">
        <ele>543.736</ele>
        <time>2021-10-12T07:55:40Z</time>
      </trkpt>
      <trkpt lat="37.079930" lon="-4.490460">
        <ele>547.639</ele>
        <time>2021-10-12T07:55:42Z</time>
      </trkpt>
      <trkpt lat="37.079884" lon="-4.490818">
        <ele>549.615</ele>
        <time>2021-10-12T07:55:43Z</time>
      </trkpt>
      <trkpt lat="37.079837" lon="-4.491180">
        <ele>549.744</ele>
        <time>2021-10-12T07:55:44Z</time>
      </trkpt>
      <trkpt lat="37.079728" lon="-4.491871">
        <ele>551.314</ele>
        <time>2021-10-12T07:55:46Z</time>
      </trkpt>
      <trkpt lat="37.079658" lon="-4.492216">
        <ele>554.535</ele>
        <time>2021-10-12T07:55:47Z</time>
      </trkpt>
      <trkpt lat="37.079489" lon="-4.492897">
        <ele>552.796</ele>
        <time>2021-10-12T07:55:49Z</time>
      </trkpt>
      <trkpt lat="37.079388" lon="-4.493237">
        <ele>554.831</ele>
        <time>2021-10-12T07:55:50Z</time>
      </trkpt>
      <trkpt lat="37.079152" lon="-4.493903">
        <ele>555.824</ele>
        <time>2021-10-12T07:55:52Z</time>
      </trkpt>
      <trkpt lat="37.078874" lon="-4.494570">
        <ele>551.108</ele>
        <time>2021-10-12T07:55:54Z</time>
      </trkpt>
      <trkpt lat="37.078546" lon="-4.495232">
        <ele>552.377</ele>
        <time>2021-10-12T07:55:56Z</time>
      </trkpt>
      <trkpt lat="37.078186" lon="-4.495848">
        <ele>549.915</ele>
        <time>2021-10-12T07:55:58Z</time>
      </trkpt>
      <trkpt lat="37.077778" lon="-4.496442">
        <ele>544.031</ele>
        <time>2021-10-12T07:56:00Z</time>
      </trkpt>
      <trkpt lat="37.077565" lon="-4.496731">
        <ele>545.264</ele>
        <time>2021-10-12T07:56:01Z</time>
      </trkpt>
      <trkpt lat="37.077127" lon="-4.497292">
        <ele>541.070</ele>
        <time>2021-10-12T07:56:03Z</time>
      </trkpt>
      <trkpt lat="37.076908" lon="-4.497569">
        <ele>539.819</ele>
        <time>2021-10-12T07:56:04Z</time>
      </trkpt>
      <trkpt lat="37.076472" lon="-4.498124">
        <ele>535.719</ele>
        <time>2021-10-12T07:56:06Z</time>
      </trkpt>
      <trkpt lat="37.076251" lon="-4.498401">
        <ele>533.680</ele>
        <time>2021-10-12T07:56:07Z</time>
      </trkpt>
      <trkpt lat="37.076031" lon="-4.498681">
        <ele>530.125</ele>
        <time>2021-10-12T07:56:08Z</time>
      </trkpt>
      <trkpt lat="37.075609" lon="-4.499237">
        <ele>528.026</ele>
        <time>2021-10-12T07:56:10Z</time>
      </trkpt>
      <trkpt lat="37.075196" lon="-4.499799">
        <ele>523.908</ele>
        <time>2021-10-12T07:56:12Z</time>
      </trkpt>
      <trkpt lat="37.074803" lon="-4.500374">
        <ele>518.808</ele>
        <time>2021-10-12T07:56:14Z</time>
      </trkpt>
      <trkpt lat="37.074433" lon="-4.500948">
        <ele>516.360</ele>
        <time>2021-10-12T07:56:16Z</time>
      </trkpt>
      <trkpt lat="37.074253" lon="-4.501247">
        <ele>515.898</ele>
        <time>2021-10-12T07:56:17Z</time>
      </trkpt>
      <trkpt lat="37.074077" lon="-4.501548">
        <ele>512.944</ele>
        <time>2021-10-12T07:56:18Z</time>
      </trkpt>
      <trkpt lat="37.073731" lon="-4.502162">
        <ele>510.467</ele>
        <time>2021-10-12T07:56:20Z</time>
      </trkpt>
      <trkpt lat="37.073407" lon="-4.502777">
        <ele>507.023</ele>
        <time>2021-10-12T07:56:22Z</time>
      </trkpt>
      <trkpt lat="37.073100" lon="-4.503427">
        <ele>506.352</ele>
        <time>2021-10-12T07:56:24Z</time>
      </trkpt>
      <trkpt lat="37.072804" lon="-4.504099">
        <ele>500.312</ele>
        <time>2021-10-12T07:56:26Z</time>
      </trkpt>
      <trkpt lat="37.072529" lon="-4.504761">
        <ele>496.523</ele>
        <time>2021-10-12T07:56:28Z</time>
      </trkpt>
      <trkpt lat="37.072264" lon="-4.505458">
        <ele>492.576</ele>
        <time>2021-10-12T07:56:30Z</time>
      </trkpt>
      <trkpt lat="37.072019" lon="-4.506168">
        <ele>487.890</ele>
        <time>2021-10-12T07:56:32Z</time>
      </trkpt>
      <trkpt lat="37.071902" lon="-4.506530">
        <ele>485.219</ele>
        <time>2021-10-12T07:56:33Z</time>
      </trkpt>
      <trkpt lat="37.071681" lon="-4.507263">
        <ele>481.608</ele>
        <time>2021-10-12T07:56:35Z</time>
      </trkpt>
      <trkpt lat="37.071482" lon="-4.508007">
        <ele>476.575</ele>
        <time>2021-10-12T07:56:37Z</time>
      </trkpt>
      <trkpt lat="37.071393" lon="-4.508385">
        <ele>475.613</ele>
        <time>2021-10-12T07:56:38Z</time>
      </trkpt>
      <trkpt lat="37.071237" lon="-4.509118">
        <ele>471.359</ele>
        <time>2021-10-12T07:56:40Z</time>
      </trkpt>
      <trkpt lat="37.071169" lon="-4.509487">
        <ele>470.392</ele>
        <time>2021-10-12T07:56:41Z</time>
      </trkpt>
      <trkpt lat="37.071042" lon="-4.510220">
        <ele>465.688</ele>
        <time>2021-10-12T07:56:43Z</time>
      </trkpt>
      <trkpt lat="37.070979" lon="-4.510589">
        <ele>464.417</ele>
        <time>2021-10-12T07:56:44Z</time>
      </trkpt>
      <trkpt lat="37.070878" lon="-4.511325">
        <ele>462.277</ele>
        <time>2021-10-12T07:56:46Z</time>
      </trkpt>
      <trkpt lat="37.070795" lon="-4.512073">
        <ele>460.898</ele>
        <time>2021-10-12T07:56:48Z</time>
      </trkpt>
      <trkpt lat="37.070736" lon="-4.512834">
        <ele>460.423</ele>
        <time>2021-10-12T07:56:50Z</time>
      </trkpt>
      <trkpt lat="37.070698" lon="-4.513595">
        <ele>458.583</ele>
        <time>2021-10-12T07:56:52Z</time>
      </trkpt>
      <trkpt lat="37.070685" lon="-4.513983">
        <ele>457.911</ele>
        <time>2021-10-12T07:56:53Z</time>
      </trkpt>
      <trkpt lat="37.070675" lon="-4.514767">
        <ele>456.008</ele>
        <time>2021-10-12T07:56:55Z</time>
      </trkpt>
      <trkpt lat="37.070680" lon="-4.515179">
        <ele>456.470</ele>
        <time>2021-10-12T07:56:56Z</time>
      </trkpt>
      <trkpt lat="37.070708" lon="-4.515985">
        <ele>456.898</ele>
        <time>2021-10-12T07:56:58Z</time>
      </trkpt>
      <trkpt lat="37.070730" lon="-4.516394">
        <ele>455.644</ele>
        <time>2021-10-12T07:56:59Z</time>
      </trkpt>
      <trkpt lat="37.070753" lon="-4.516797">
        <ele>452.867</ele>
        <time>2021-10-12T07:57:00Z</time>
      </trkpt>
      <trkpt lat="37.070807" lon="-4.517608">
        <ele>452.963</ele>
        <time>2021-10-12T07:57:02Z</time>
      </trkpt>
      <trkpt lat="37.070857" lon="-4.518389">
        <ele>449.292</ele>
        <time>2021-10-12T07:57:04Z</time>
      </trkpt>
      <trkpt lat="37.070882" lon="-4.518789">
        <ele>449.942</ele>
        <time>2021-10-12T07:57:05Z</time>
      </trkpt>
      <trkpt lat="37.070906" lon="-4.519186">
        <ele>450.423</ele>
        <time>2021-10-12T07:57:06Z</time>
      </trkpt>
      <trkpt lat="37.070924" lon="-4.519583">
        <ele>449.233</ele>
        <time>2021-10-12T07:57:07Z</time>
      </trkpt>
      <trkpt lat="37.070935" lon="-4.519990">
        <ele>448.023</ele>
        <time>2021-10-12T07:57:08Z</time>
      </trkpt>
      <trkpt lat="37.070932" lon="-4.520792">
        <ele>450.515</ele>
        <time>2021-10-12T07:57:10Z</time>
      </trkpt>
      <trkpt lat="37.070904" lon="-4.521603">
        <ele>447.508</ele>
        <time>2021-10-12T07:57:12Z</time>
      </trkpt>
      <trkpt lat="37.070875" lon="-4.522415">
        <ele>447.651</ele>
        <time>2021-10-12T07:57:14Z</time>
      </trkpt>
      <trkpt lat="37.070845" lon="-4.523214">
        <ele>444.199</ele>
        <time>2021-10-12T07:57:16Z</time>
      </trkpt>
      <trkpt lat="37.070830" lon="-4.523621">
        <ele>444.035</ele>
        <time>2021-10-12T07:57:17Z</time>
      </trkpt>
      <trkpt lat="37.070801" lon="-4.524422">
        <ele>444.258</ele>
        <time>2021-10-12T07:57:19Z</time>
      </trkpt>
      <trkpt lat="37.070786" lon="-4.524830">
        <ele>445.224</ele>
        <time>2021-10-12T07:57:20Z</time>
      </trkpt>
      <trkpt lat="37.070753" lon="-4.525617">
        <ele>445.583</ele>
        <time>2021-10-12T07:57:22Z</time>
      </trkpt>
      <trkpt lat="37.070738" lon="-4.526024">
        <ele>443.393</ele>
        <time>2021-10-12T07:57:23Z</time>
      </trkpt>
      <trkpt lat="37.070723" lon="-4.526422">
        <ele>442.054</ele>
        <time>2021-10-12T07:57:24Z</time>
      </trkpt>
      <trkpt lat="37.070708" lon="-4.526817">
        <ele>443.396</ele>
        <time>2021-10-12T07:57:25Z</time>
      </trkpt>
      <trkpt lat="37.070692" lon="-4.527226">
        <ele>445.531</ele>
        <time>2021-10-12T07:57:26Z</time>
      </trkpt>
      <trkpt lat="37.070663" lon="-4.528000">
        <ele>445.324</ele>
        <time>2021-10-12T07:57:28Z</time>
      </trkpt>
      <trkpt lat="37.070635" lon="-4.528787">
        <ele>443.908</ele>
        <time>2021-10-12T07:57:30Z</time>
      </trkpt>
      <trkpt lat="37.070621" lon="-4.529188">
        <ele>444.367</ele>
        <time>2021-10-12T07:57:31Z</time>
      </trkpt>
      <trkpt lat="37.070592" lon="-4.529980">
        <ele>444.355</ele>
        <time>2021-10-12T07:57:33Z</time>
      </trkpt>
      <trkpt lat="37.070577" lon="-4.530373">
        <ele>444.421</ele>
        <time>2021-10-12T07:57:34Z</time>
      </trkpt>
      <trkpt lat="37.070561" lon="-4.530764">
        <ele>445.014</ele>
        <time>2021-10-12T07:57:35Z</time>
      </trkpt>
      <trkpt lat="37.070529" lon="-4.531551">
        <ele>443.630</ele>
        <time>2021-10-12T07:57:37Z</time>
      </trkpt>
      <trkpt lat="37.070514" lon="-4.531950">
        <ele>444.039</ele>
        <time>2021-10-12T07:57:38Z</time>
      </trkpt>
      <trkpt lat="37.070481" lon="-4.532731">
        <ele>442.979</ele>
        <time>2021-10-12T07:57:40Z</time>
      </trkpt>
      <trkpt lat="37.070447" lon="-4.533520">
        <ele>444.870</ele>
        <time>2021-10-12T07:57:42Z</time>
      </trkpt>
      <trkpt lat="37.070436" lon="-4.533913">
        <ele>445.668</ele>
        <time>2021-10-12T07:57:43Z</time>
      </trkpt>
      <trkpt lat="37.070424" lon="-4.534308">
        <ele>445.542</ele>
        <time>2021-10-12T07:57:44Z</time>
      </trkpt>
      <trkpt lat="37.070392" lon="-4.535077">
        <ele>447.326</ele>
        <time>2021-10-12T07:57:46Z</time>
      </trkpt>
      <trkpt lat="37.070375" lon="-4.535463">
        <ele>449.008</ele>
        <time>2021-10-12T07:57:47Z</time>
      </trkpt>
      <trkpt lat="37.070361" lon="-4.535845">
        <ele>451.064</ele>
        <time>2021-10-12T07:57:48Z</time>
      </trkpt>
      <trkpt lat="37.070333" lon="-4.536594">
        <ele>450.022</ele>
        <time>2021-10-12T07:57:50Z</time>
      </trkpt>
      <trkpt lat="37.070307" lon="-4.537282">
        <ele>451.118</ele>
        <time>2021-10-12T07:57:52Z</time>
      </trkpt>
      <trkpt lat="37.070284" lon="-4.537983">
        <ele>454.891</ele>
        <time>2021-10-12T07:57:54Z</time>
      </trkpt>
      <trkpt lat="37.070278" lon="-4.538341">
        <ele>455.047</ele>
        <time>2021-10-12T07:57:55Z</time>
      </trkpt>
      <trkpt lat="37.070276" lon="-4.538703">
        <ele>453.316</ele>
        <time>2021-10-12T07:57:56Z</time>
      </trkpt>
      <trkpt lat="37.070292" lon="-4.539436">
        <ele>450.216</ele>
        <time>2021-10-12T07:57:58Z</time>
      </trkpt>
      <trkpt lat="37.070312" lon="-4.539808">
        <ele>449.667</ele>
        <time>2021-10-12T07:57:59Z</time>
      </trkpt>
      <trkpt lat="37.070368" lon="-4.540563">
        <ele>449.317</ele>
        <time>2021-10-12T07:58:01Z</time>
      </trkpt>
      <trkpt lat="37.070413" lon="-4.540949">
        <ele>448.587</ele>
        <time>2021-10-12T07:58:02Z</time>
      </trkpt>
      <trkpt lat="37.070533" lon="-4.541733">
        <ele>445.715</ele>
        <time>2021-10-12T07:58:04Z</time>
      </trkpt>
      <trkpt lat="37.070685" lon="-4.542523">
        <ele>443.808</ele>
        <time>2021-10-12T07:58:06Z</time>
      </trkpt>
      <trkpt lat="37.070766" lon="-4.542921">
        <ele>443.049</ele>
        <time>2021-10-12T07:58:07Z</time>
      </trkpt>
      <trkpt lat="37.070857" lon="-4.543316">
        <ele>443.227</ele>
        <time>2021-10-12T07:58:08Z</time>
      </trkpt>
      <trkpt lat="37.071049" lon="-4.544086">
        <ele>439.023</ele>
        <time>2021-10-12T07:58:10Z</time>
      </trkpt>
      <trkpt lat="37.071154" lon="-4.544466">
        <ele>437.486</ele>
        <time>2021-10-12T07:58:11Z</time>
      </trkpt>
      <trkpt lat="37.071378" lon="-4.545213">
        <ele>435.532</ele>
        <time>2021-10-12T07:58:13Z</time>
      </trkpt>
      <trkpt lat="37.071498" lon="-4.545590">
        <ele>433.421</ele>
        <time>2021-10-12T07:58:14Z</time>
      </trkpt>
      <trkpt lat="37.071719" lon="-4.546275">
        <ele>434.241</ele>
        <time>2021-10-12T07:58:16Z</time>
      </trkpt>
      <trkpt lat="37.071826" lon="-4.546610">
        <ele>434.632</ele>
        <time>2021-10-12T07:58:17Z</time>
      </trkpt>
      <trkpt lat="37.071931" lon="-4.546942">
        <ele>434.073</ele>
        <time>2021-10-12T07:58:18Z</time>
      </trkpt>
      <trkpt lat="37.072134" lon="-4.547611">
        <ele>431.985</ele>
        <time>2021-10-12T07:58:20Z</time>
      </trkpt>
      <trkpt lat="37.072324" lon="-4.548273">
        <ele>433.613</ele>
        <time>2021-10-12T07:58:22Z</time>
      </trkpt>
      <trkpt lat="37.072502" lon="-4.548972">
        <ele>434.008</ele>
        <time>2021-10-12T07:58:24Z</time>
      </trkpt>
      <trkpt lat="37.072658" lon="-4.549716">
        <ele>433.085</ele>
        <time>2021-10-12T07:58:26Z</time>
      </trkpt>
      <trkpt lat="37.072775" lon="-4.550491">
        <ele>434.063</ele>
        <time>2021-10-12T07:58:28Z</time>
      </trkpt>
      <trkpt lat="37.072824" lon="-4.550875">
        <ele>432.139</ele>
        <time>2021-10-12T07:58:29Z</time>
      </trkpt>
      <trkpt lat="37.072869" lon="-4.551260">
        <ele>432.042</ele>
        <time>2021-10-12T07:58:30Z</time>
      </trkpt>
      <trkpt lat="37.072943" lon="-4.552042">
        <ele>436.618</ele>
        <time>2021-10-12T07:58:32Z</time>
      </trkpt>
      <trkpt lat="37.072986" lon="-4.552833">
        <ele>436.367</ele>
        <time>2021-10-12T07:58:34Z</time>
      </trkpt>
      <trkpt lat="37.072996" lon="-4.553231">
        <ele>432.957</ele>
        <time>2021-10-12T07:58:35Z</time>
      </trkpt>
      <trkpt lat="37.072983" lon="-4.554033">
        <ele>432.068</ele>
        <time>2021-10-12T07:58:37Z</time>
      </trkpt>
      <trkpt lat="37.072964" lon="-4.554441">
        <ele>431.399</ele>
        <time>2021-10-12T07:58:38Z</time>
      </trkpt>
      <trkpt lat="37.072905" lon="-4.555229">
        <ele>425.607</ele>
        <time>2021-10-12T07:58:40Z</time>
      </trkpt>
      <trkpt lat="37.072872" lon="-4.555625">
        <ele>426.327</ele>
        <time>2021-10-12T07:58:41Z</time>
      </trkpt>
      <trkpt lat="37.072807" lon="-4.556405">
        <ele>427.008</ele>
        <time>2021-10-12T07:58:43Z</time>
      </trkpt>
      <trkpt lat="37.072777" lon="-4.556799">
        <ele>427.597</ele>
        <time>2021-10-12T07:58:44Z</time>
      </trkpt>
      <trkpt lat="37.072710" lon="-4.557559">
        <ele>426.055</ele>
        <time>2021-10-12T07:58:46Z</time>
      </trkpt>
      <trkpt lat="37.072631" lon="-4.558317">
        <ele>424.651</ele>
        <time>2021-10-12T07:58:48Z</time>
      </trkpt>
      <trkpt lat="37.072552" lon="-4.559071">
        <ele>427.754</ele>
        <time>2021-10-12T07:58:50Z</time>
      </trkpt>
      <trkpt lat="37.072476" lon="-4.559806">
        <ele>426.530</ele>
        <time>2021-10-12T07:58:52Z</time>
      </trkpt>
      <trkpt lat="37.072438" lon="-4.560179">
        <ele>424.129</ele>
        <time>2021-10-12T07:58:53Z</time>
      </trkpt>
      <trkpt lat="37.072400" lon="-4.560553">
        <ele>422.759</ele>
        <time>2021-10-12T07:58:54Z</time>
      </trkpt>
      <trkpt lat="37.072321" lon="-4.561308">
        <ele>425.690</ele>
        <time>2021-10-12T07:58:56Z</time>
      </trkpt>
      <trkpt lat="37.072243" lon="-4.562061">
        <ele>425.841</ele>
        <time>2021-10-12T07:58:58Z</time>
      </trkpt>
      <trkpt lat="37.072164" lon="-4.562810">
        <ele>422.881</ele>
        <time>2021-10-12T07:59:00Z</time>
      </trkpt>
      <trkpt lat="37.072092" lon="-4.563558">
        <ele>426.209</ele>
        <time>2021-10-12T07:59:02Z</time>
      </trkpt>
      <trkpt lat="37.072058" lon="-4.563931">
        <ele>427.408</ele>
        <time>2021-10-12T07:59:03Z</time>
      </trkpt>
      <trkpt lat="37.071998" lon="-4.564672">
        <ele>429.032</ele>
        <time>2021-10-12T07:59:05Z</time>
      </trkpt>
      <trkpt lat="37.071960" lon="-4.565413">
        <ele>427.680</ele>
        <time>2021-10-12T07:59:07Z</time>
      </trkpt>
      <trkpt lat="37.071950" lon="-4.565790">
        <ele>427.066</ele>
        <time>2021-10-12T07:59:08Z</time>
      </trkpt>
      <trkpt lat="37.071945" lon="-4.566526">
        <ele>426.059</ele>
        <time>2021-10-12T07:59:10Z</time>
      </trkpt>
      <trkpt lat="37.071951" lon="-4.566897">
        <ele>426.045</ele>
        <time>2021-10-12T07:59:11Z</time>
      </trkpt>
      <trkpt lat="37.071979" lon="-4.567634">
        <ele>424.374</ele>
        <time>2021-10-12T07:59:13Z</time>
      </trkpt>
      <trkpt lat="37.071993" lon="-4.568008">
        <ele>422.334</ele>
        <time>2021-10-12T07:59:14Z</time>
      </trkpt>
      <trkpt lat="37.072022" lon="-4.568735">
        <ele>421.425</ele>
        <time>2021-10-12T07:59:16Z</time>
      </trkpt>
      <trkpt lat="37.072037" lon="-4.569112">
        <ele>422.063</ele>
        <time>2021-10-12T07:59:17Z</time>
      </trkpt>
      <trkpt lat="37.072065" lon="-4.569856">
        <ele>422.644</ele>
        <time>2021-10-12T07:59:19Z</time>
      </trkpt>
      <trkpt lat="37.072080" lon="-4.570237">
        <ele>422.118</ele>
        <time>2021-10-12T07:59:20Z</time>
      </trkpt>
      <trkpt lat="37.072109" lon="-4.570976">
        <ele>421.308</ele>
        <time>2021-10-12T07:59:22Z</time>
      </trkpt>
      <trkpt lat="37.072123" lon="-4.571350">
        <ele>421.024</ele>
        <time>2021-10-12T07:59:23Z</time>
      </trkpt>
      <trkpt lat="37.072151" lon="-4.572099">
        <ele>421.432</ele>
        <time>2021-10-12T07:59:25Z</time>
      </trkpt>
      <trkpt lat="37.072165" lon="-4.572475">
        <ele>421.498</ele>
        <time>2021-10-12T07:59:26Z</time>
      </trkpt>
      <trkpt lat="37.072193" lon="-4.573218">
        <ele>420.521</ele>
        <time>2021-10-12T07:59:28Z</time>
      </trkpt>
      <trkpt lat="37.072204" lon="-4.573592">
        <ele>420.017</ele>
        <time>2021-10-12T07:59:29Z</time>
      </trkpt>
      <trkpt lat="37.072201" lon="-4.574342">
        <ele>421.736</ele>
        <time>2021-10-12T07:59:31Z</time>
      </trkpt>
      <trkpt lat="37.072183" lon="-4.574718">
        <ele>422.046</ele>
        <time>2021-10-12T07:59:32Z</time>
      </trkpt>
      <trkpt lat="37.072115" lon="-4.575465">
        <ele>422.887</ele>
        <time>2021-10-12T07:59:34Z</time>
      </trkpt>
      <trkpt lat="37.072065" lon="-4.575842">
        <ele>424.499</ele>
        <time>2021-10-12T07:59:35Z</time>
      </trkpt>
      <trkpt lat="37.072005" lon="-4.576216">
        <ele>424.207</ele>
        <time>2021-10-12T07:59:36Z</time>
      </trkpt>
      <trkpt lat="37.071939" lon="-4.576588">
        <ele>424.727</ele>
        <time>2021-10-12T07:59:37Z</time>
      </trkpt>
      <trkpt lat="37.071792" lon="-4.577330">
        <ele>421.508</ele>
        <time>2021-10-12T07:59:39Z</time>
      </trkpt>
      <trkpt lat="37.071643" lon="-4.578078">
        <ele>424.197</ele>
        <time>2021-10-12T07:59:41Z</time>
      </trkpt>
      <trkpt lat="37.071502" lon="-4.578824">
        <ele>422.055</ele>
        <time>2021-10-12T07:59:43Z</time>
      </trkpt>
      <trkpt lat="37.071392" lon="-4.579568">
        <ele>422.921</ele>
        <time>2021-10-12T07:59:45Z</time>
      </trkpt>
      <trkpt lat="37.071313" lon="-4.580310">
        <ele>421.154</ele>
        <time>2021-10-12T07:59:47Z</time>
      </trkpt>
      <trkpt lat="37.071281" lon="-4.580681">
        <ele>420.620</ele>
        <time>2021-10-12T07:59:48Z</time>
      </trkpt>
      <trkpt lat="37.071214" lon="-4.581417">
        <ele>419.369</ele>
        <time>2021-10-12T07:59:50Z</time>
      </trkpt>
      <trkpt lat="37.071148" lon="-4.582144">
        <ele>417.619</ele>
        <time>2021-10-12T07:59:52Z</time>
      </trkpt>
      <trkpt lat="37.071080" lon="-4.582883">
        <ele>418.610</ele>
        <time>2021-10-12T07:59:54Z</time>
      </trkpt>
      <trkpt lat="37.071012" lon="-4.583623">
        <ele>416.774</ele>
        <time>2021-10-12T07:59:56Z</time>
      </trkpt>
      <trkpt lat="37.070946" lon="-4.584335">
        <ele>416.856</ele>
        <time>2021-10-12T07:59:58Z</time>
      </trkpt>
      <trkpt lat="37.070913" lon="-4.584699">
        <ele>416.721</ele>
        <time>2021-10-12T07:59:59Z</time>
      </trkpt>
      <trkpt lat="37.070848" lon="-4.585423">
        <ele>417.908</ele>
        <time>2021-10-12T08:00:01Z</time>
      </trkpt>
      <trkpt lat="37.070779" lon="-4.586131">
        <ele>416.275</ele>
        <time>2021-10-12T08:00:03Z</time>
      </trkpt>
      <trkpt lat="37.070741" lon="-4.586497">
        <ele>415.763</ele>
        <time>2021-10-12T08:00:04Z</time>
      </trkpt>
      <trkpt lat="37.070703" lon="-4.586858">
        <ele>415.269</ele>
        <time>2021-10-12T08:00:05Z</time>
      </trkpt>
      <trkpt lat="37.070623" lon="-4.587596">
        <ele>417.762</ele>
        <time>2021-10-12T08:00:07Z</time>
      </trkpt>
      <trkpt lat="37.070581" lon="-4.587979">
        <ele>416.438</ele>
        <time>2021-10-12T08:00:08Z</time>
      </trkpt>
      <trkpt lat="37.070539" lon="-4.588366">
        <ele>416.087</ele>
        <time>2021-10-12T08:00:09Z</time>
      </trkpt>
      <trkpt lat="37.070464" lon="-4.589136">
        <ele>415.477</ele>
        <time>2021-10-12T08:00:11Z</time>
      </trkpt>
      <trkpt lat="37.070427" lon="-4.589537">
        <ele>415.148</ele>
        <time>2021-10-12T08:00:12Z</time>
      </trkpt>
      <trkpt lat="37.070358" lon="-4.590304">
        <ele>414.544</ele>
        <time>2021-10-12T08:00:14Z</time>
      </trkpt>
      <trkpt lat="37.070291" lon="-4.591058">
        <ele>416.005</ele>
        <time>2021-10-12T08:00:16Z</time>
      </trkpt>
      <trkpt lat="37.070233" lon="-4.591807">
        <ele>415.515</ele>
        <time>2021-10-12T08:00:18Z</time>
      </trkpt>
      <trkpt lat="37.070213" lon="-4.592180">
        <ele>414.208</ele>
        <time>2021-10-12T08:00:19Z</time>
      </trkpt>
      <trkpt lat="37.070200" lon="-4.592551">
        <ele>414.032</ele>
        <time>2021-10-12T08:00:20Z</time>
      </trkpt>
      <trkpt lat="37.070191" lon="-4.592922">
        <ele>414.080</ele>
        <time>2021-10-12T08:00:21Z</time>
      </trkpt>
      <trkpt lat="37.070190" lon="-4.593657">
        <ele>414.486</ele>
        <time>2021-10-12T08:00:23Z</time>
      </trkpt>
      <trkpt lat="37.070201" lon="-4.594029">
        <ele>414.449</ele>
        <time>2021-10-12T08:00:24Z</time>
      </trkpt>
      <trkpt lat="37.070216" lon="-4.594400">
        <ele>415.185</ele>
        <time>2021-10-12T08:00:25Z</time>
      </trkpt>
      <trkpt lat="37.070236" lon="-4.594773">
        <ele>416.064</ele>
        <time>2021-10-12T08:00:26Z</time>
      </trkpt>
      <trkpt lat="37.070291" lon="-4.595529">
        <ele>415.034</ele>
        <time>2021-10-12T08:00:28Z</time>
      </trkpt>
      <trkpt lat="37.070364" lon="-4.596290">
        <ele>412.675</ele>
        <time>2021-10-12T08:00:30Z</time>
      </trkpt>
      <trkpt lat="37.070462" lon="-4.597039">
        <ele>412.679</ele>
        <time>2021-10-12T08:00:32Z</time>
      </trkpt>
      <trkpt lat="37.070587" lon="-4.597783">
        <ele>413.105</ele>
        <time>2021-10-12T08:00:34Z</time>
      </trkpt>
      <trkpt lat="37.070732" lon="-4.598519">
        <ele>414.625</ele>
        <time>2021-10-12T08:00:36Z</time>
      </trkpt>
      <trkpt lat="37.070898" lon="-4.599250">
        <ele>414.008</ele>
        <time>2021-10-12T08:00:38Z</time>
      </trkpt>
      <trkpt lat="37.071097" lon="-4.599980">
        <ele>413.065</ele>
        <time>2021-10-12T08:00:40Z</time>
      </trkpt>
      <trkpt lat="37.071205" lon="-4.600351">
        <ele>412.783</ele>
        <time>2021-10-12T08:00:41Z</time>
      </trkpt>
      <trkpt lat="37.071432" lon="-4.601065">
        <ele>411.159</ele>
        <time>2021-10-12T08:00:43Z</time>
      </trkpt>
      <trkpt lat="37.071553" lon="-4.601420">
        <ele>411.032</ele>
        <time>2021-10-12T08:00:44Z</time>
      </trkpt>
      <trkpt lat="37.071801" lon="-4.602098">
        <ele>412.098</ele>
        <time>2021-10-12T08:00:46Z</time>
      </trkpt>
      <trkpt lat="37.072071" lon="-4.602754">
        <ele>412.567</ele>
        <time>2021-10-12T08:00:48Z</time>
      </trkpt>
      <trkpt lat="37.072220" lon="-4.603070">
        <ele>412.937</ele>
        <time>2021-10-12T08:00:49Z</time>
      </trkpt>
      <trkpt lat="37.072375" lon="-4.603378">
        <ele>412.538</ele>
        <time>2021-10-12T08:00:50Z</time>
      </trkpt>
      <trkpt lat="37.072687" lon="-4.603989">
        <ele>412.383</ele>
        <time>2021-10-12T08:00:52Z</time>
      </trkpt>
      <trkpt lat="37.072845" lon="-4.604296">
        <ele>411.925</ele>
        <time>2021-10-12T08:00:53Z</time>
      </trkpt>
      <trkpt lat="37.073008" lon="-4.604601">
        <ele>411.217</ele>
        <time>2021-10-12T08:00:54Z</time>
      </trkpt>
      <trkpt lat="37.073345" lon="-4.605201">
        <ele>411.008</ele>
        <time>2021-10-12T08:00:56Z</time>
      </trkpt>
      <trkpt lat="37.073706" lon="-4.605791">
        <ele>413.296</ele>
        <time>2021-10-12T08:00:58Z</time>
      </trkpt>
      <trkpt lat="37.073894" lon="-4.606085">
        <ele>412.064</ele>
        <time>2021-10-12T08:00:59Z</time>
      </trkpt>
      <trkpt lat="37.074087" lon="-4.606374">
        <ele>410.370</ele>
        <time>2021-10-12T08:01:00Z</time>
      </trkpt>
      <trkpt lat="37.074488" lon="-4.606942">
        <ele>409.253</ele>
        <time>2021-10-12T08:01:02Z</time>
      </trkpt>
      <trkpt lat="37.074697" lon="-4.607220">
        <ele>409.969</ele>
        <time>2021-10-12T08:01:03Z</time>
      </trkpt>
      <trkpt lat="37.075119" lon="-4.607758">
        <ele>409.438</ele>
        <time>2021-10-12T08:01:05Z</time>
      </trkpt>
      <trkpt lat="37.075331" lon="-4.608024">
        <ele>410.998</ele>
        <time>2021-10-12T08:01:06Z</time>
      </trkpt>
      <trkpt lat="37.075545" lon="-4.608285">
        <ele>411.079</ele>
        <time>2021-10-12T08:01:07Z</time>
      </trkpt>
      <trkpt lat="37.075969" lon="-4.608801">
        <ele>410.024</ele>
        <time>2021-10-12T08:01:09Z</time>
      </trkpt>
      <trkpt lat="37.076398" lon="-4.609310">
        <ele>412.004</ele>
        <time>2021-10-12T08:01:11Z</time>
      </trkpt>
      <trkpt lat="37.076839" lon="-4.609787">
        <ele>410.814</ele>
        <time>2021-10-12T08:01:13Z</time>
      </trkpt>
      <trkpt lat="37.077067" lon="-4.610016">
        <ele>409.508</ele>
        <time>2021-10-12T08:01:14Z</time>
      </trkpt>
      <trkpt lat="37.077300" lon="-4.610242">
        <ele>407.860</ele>
        <time>2021-10-12T08:01:15Z</time>
      </trkpt>
      <trkpt lat="37.077535" lon="-4.610466">
        <ele>407.728</ele>
        <time>2021-10-12T08:01:16Z</time>
      </trkpt>
      <trkpt lat="37.078001" lon="-4.610926">
        <ele>408.534</ele>
        <time>2021-10-12T08:01:18Z</time>
      </trkpt>
      <trkpt lat="37.078470" lon="-4.611389">
        <ele>409.067</ele>
        <time>2021-10-12T08:01:20Z</time>
      </trkpt>
      <trkpt lat="37.078929" lon="-4.611846">
        <ele>408.063</ele>
        <time>2021-10-12T08:01:22Z</time>
      </trkpt>
      <trkpt lat="37.079161" lon="-4.612079">
        <ele>408.052</ele>
        <time>2021-10-12T08:01:23Z</time>
      </trkpt>
      <trkpt lat="37.079614" lon="-4.612552">
        <ele>407.992</ele>
        <time>2021-10-12T08:01:25Z</time>
      </trkpt>
      <trkpt lat="37.079835" lon="-4.612799">
        <ele>407.483</ele>
        <time>2021-10-12T08:01:26Z</time>
      </trkpt>
      <trkpt lat="37.080273" lon="-4.613308">
        <ele>410.173</ele>
        <time>2021-10-12T08:01:28Z</time>
      </trkpt>
      <trkpt lat="37.080702" lon="-4.613852">
        <ele>409.585</ele>
        <time>2021-10-12T08:01:30Z</time>
      </trkpt>
      <trkpt lat="37.081116" lon="-4.614416">
        <ele>410.213</ele>
        <time>2021-10-12T08:01:32Z</time>
      </trkpt>
      <trkpt lat="37.081319" lon="-4.614705">
        <ele>408.408</ele>
        <time>2021-10-12T08:01:33Z</time>
      </trkpt>
      <trkpt lat="37.081713" lon="-4.615298">
        <ele>408.795</ele>
        <time>2021-10-12T08:01:35Z</time>
      </trkpt>
      <trkpt lat="37.081903" lon="-4.615603">
        <ele>409.173</ele>
        <time>2021-10-12T08:01:36Z</time>
      </trkpt>
      <trkpt lat="37.082085" lon="-4.615914">
        <ele>409.559</ele>
        <time>2021-10-12T08:01:37Z</time>
      </trkpt>
      <trkpt lat="37.082442" lon="-4.616548">
        <ele>408.752</ele>
        <time>2021-10-12T08:01:39Z</time>
      </trkpt>
      <trkpt lat="37.082792" lon="-4.617191">
        <ele>409.058</ele>
        <time>2021-10-12T08:01:41Z</time>
      </trkpt>
      <trkpt lat="37.083139" lon="-4.617826">
        <ele>407.587</ele>
        <time>2021-10-12T08:01:43Z</time>
      </trkpt>
      <trkpt lat="37.083313" lon="-4.618140">
        <ele>409.927</ele>
        <time>2021-10-12T08:01:44Z</time>
      </trkpt>
      <trkpt lat="37.083669" lon="-4.618755">
        <ele>408.718</ele>
        <time>2021-10-12T08:01:46Z</time>
      </trkpt>
      <trkpt lat="37.083855" lon="-4.619062">
        <ele>407.742</ele>
        <time>2021-10-12T08:01:47Z</time>
      </trkpt>
      <trkpt lat="37.084242" lon="-4.619643">
        <ele>408.522</ele>
        <time>2021-10-12T08:01:49Z</time>
      </trkpt>
      <trkpt lat="37.084450" lon="-4.619919">
        <ele>410.014</ele>
        <time>2021-10-12T08:01:50Z</time>
      </trkpt>
      <trkpt lat="37.084882" lon="-4.620449">
        <ele>407.208</ele>
        <time>2021-10-12T08:01:52Z</time>
      </trkpt>
      <trkpt lat="37.085104" lon="-4.620709">
        <ele>407.022</ele>
        <time>2021-10-12T08:01:53Z</time>
      </trkpt>
      <trkpt lat="37.085562" lon="-4.621203">
        <ele>408.760</ele>
        <time>2021-10-12T08:01:55Z</time>
      </trkpt>
      <trkpt lat="37.086028" lon="-4.621682">
        <ele>408.336</ele>
        <time>2021-10-12T08:01:57Z</time>
      </trkpt>
      <trkpt lat="37.086264" lon="-4.621924">
        <ele>408.989</ele>
        <time>2021-10-12T08:01:58Z</time>
      </trkpt>
      <trkpt lat="37.086506" lon="-4.622164">
        <ele>408.965</ele>
        <time>2021-10-12T08:01:59Z</time>
      </trkpt>
      <trkpt lat="37.086747" lon="-4.622403">
        <ele>408.664</ele>
        <time>2021-10-12T08:02:00Z</time>
      </trkpt>
      <trkpt lat="37.087232" lon="-4.622886">
        <ele>408.044</ele>
        <time>2021-10-12T08:02:02Z</time>
      </trkpt>
      <trkpt lat="37.087712" lon="-4.623373">
        <ele>408.675</ele>
        <time>2021-10-12T08:02:04Z</time>
      </trkpt>
      <trkpt lat="37.088197" lon="-4.623867">
        <ele>410.082</ele>
        <time>2021-10-12T08:02:06Z</time>
      </trkpt>
      <trkpt lat="37.088442" lon="-4.624109">
        <ele>408.743</ele>
        <time>2021-10-12T08:02:07Z</time>
      </trkpt>
      <trkpt lat="37.088688" lon="-4.624350">
        <ele>409.617</ele>
        <time>2021-10-12T08:02:08Z</time>
      </trkpt>
      <trkpt lat="37.088936" lon="-4.624582">
        <ele>411.108</ele>
        <time>2021-10-12T08:02:09Z</time>
      </trkpt>
      <trkpt lat="37.089191" lon="-4.624803">
        <ele>410.446</ele>
        <time>2021-10-12T08:02:10Z</time>
      </trkpt>
      <trkpt lat="37.089724" lon="-4.625203">
        <ele>408.094</ele>
        <time>2021-10-12T08:02:12Z</time>
      </trkpt>
      <trkpt lat="37.089997" lon="-4.625380">
        <ele>409.070</ele>
        <time>2021-10-12T08:02:13Z</time>
      </trkpt>
      <trkpt lat="37.090273" lon="-4.625555">
        <ele>409.043</ele>
        <time>2021-10-12T08:02:14Z</time>
      </trkpt>
      <trkpt lat="37.090812" lon="-4.625901">
        <ele>412.989</ele>
        <time>2021-10-12T08:02:16Z</time>
      </trkpt>
      <trkpt lat="37.091080" lon="-4.626081">
        <ele>411.298</ele>
        <time>2021-10-12T08:02:17Z</time>
      </trkpt>
      <trkpt lat="37.091613" lon="-4.626450">
        <ele>409.078</ele>
        <time>2021-10-12T08:02:19Z</time>
      </trkpt>
      <trkpt lat="37.091879" lon="-4.626639">
        <ele>408.229</ele>
        <time>2021-10-12T08:02:20Z</time>
      </trkpt>
      <trkpt lat="37.092400" lon="-4.627036">
        <ele>411.055</ele>
        <time>2021-10-12T08:02:22Z</time>
      </trkpt>
      <trkpt lat="37.092908" lon="-4.627484">
        <ele>410.507</ele>
        <time>2021-10-12T08:02:24Z</time>
      </trkpt>
      <trkpt lat="37.093161" lon="-4.627725">
        <ele>410.017</ele>
        <time>2021-10-12T08:02:25Z</time>
      </trkpt>
      <trkpt lat="37.093412" lon="-4.627982">
        <ele>409.708</ele>
        <time>2021-10-12T08:02:26Z</time>
      </trkpt>
      <trkpt lat="37.093876" lon="-4.628504">
        <ele>410.363</ele>
        <time>2021-10-12T08:02:28Z</time>
      </trkpt>
      <trkpt lat="37.094321" lon="-4.629065">
        <ele>409.841</ele>
        <time>2021-10-12T08:02:30Z</time>
      </trkpt>
      <trkpt lat="37.094537" lon="-4.629358">
        <ele>409.237</ele>
        <time>2021-10-12T08:02:31Z</time>
      </trkpt>
      <trkpt lat="37.094750" lon="-4.629667">
        <ele>410.920</ele>
        <time>2021-10-12T08:02:32Z</time>
      </trkpt>
      <trkpt lat="37.095137" lon="-4.630283">
        <ele>410.096</ele>
        <time>2021-10-12T08:02:34Z</time>
      </trkpt>
      <trkpt lat="37.095498" lon="-4.630935">
        <ele>411.265</ele>
        <time>2021-10-12T08:02:36Z</time>
      </trkpt>
      <trkpt lat="37.095838" lon="-4.631609">
        <ele>411.815</ele>
        <time>2021-10-12T08:02:38Z</time>
      </trkpt>
      <trkpt lat="37.096146" lon="-4.632319">
        <ele>413.436</ele>
        <time>2021-10-12T08:02:40Z</time>
      </trkpt>
      <trkpt lat="37.096288" lon="-4.632688">
        <ele>414.018</ele>
        <time>2021-10-12T08:02:41Z</time>
      </trkpt>
      <trkpt lat="37.096421" lon="-4.633065">
        <ele>414.298</ele>
        <time>2021-10-12T08:02:42Z</time>
      </trkpt>
      <trkpt lat="37.096544" lon="-4.633446">
        <ele>414.017</ele>
        <time>2021-10-12T08:02:43Z</time>
      </trkpt>
      <trkpt lat="37.096659" lon="-4.633828">
        <ele>414.808</ele>
        <time>2021-10-12T08:02:44Z</time>
      </trkpt>
      <trkpt lat="37.096855" lon="-4.634592">
        <ele>416.019</ele>
        <time>2021-10-12T08:02:46Z</time>
      </trkpt>
      <trkpt lat="37.096942" lon="-4.634970">
        <ele>416.167</ele>
        <time>2021-10-12T08:02:47Z</time>
      </trkpt>
      <trkpt lat="37.097029" lon="-4.635348">
        <ele>415.733</ele>
        <time>2021-10-12T08:02:48Z</time>
      </trkpt>
      <trkpt lat="37.097194" lon="-4.636106">
        <ele>415.056</ele>
        <time>2021-10-12T08:02:50Z</time>
      </trkpt>
      <trkpt lat="37.097359" lon="-4.636856">
        <ele>417.722</ele>
        <time>2021-10-12T08:02:52Z</time>
      </trkpt>
      <trkpt lat="37.097443" lon="-4.637237">
        <ele>420.271</ele>
        <time>2021-10-12T08:02:53Z</time>
      </trkpt>
      <trkpt lat="37.097617" lon="-4.637985">
        <ele>424.081</ele>
        <time>2021-10-12T08:02:55Z</time>
      </trkpt>
      <trkpt lat="37.097716" lon="-4.638372">
        <ele>423.252</ele>
        <time>2021-10-12T08:02:56Z</time>
      </trkpt>
      <trkpt lat="37.097933" lon="-4.639096">
        <ele>425.652</ele>
        <time>2021-10-12T08:02:58Z</time>
      </trkpt>
      <trkpt lat="37.098208" lon="-4.639813">
        <ele>426.053</ele>
        <time>2021-10-12T08:03:00Z</time>
      </trkpt>
      <trkpt lat="37.098361" lon="-4.640168">
        <ele>427.308</ele>
        <time>2021-10-12T08:03:01Z</time>
      </trkpt>
      <trkpt lat="37.098521" lon="-4.640518">
        <ele>428.208</ele>
        <time>2021-10-12T08:03:02Z</time>
      </trkpt>
      <trkpt lat="37.098872" lon="-4.641177">
        <ele>428.763</ele>
        <time>2021-10-12T08:03:04Z</time>
      </trkpt>
      <trkpt lat="37.099063" lon="-4.641503">
        <ele>429.091</ele>
        <time>2021-10-12T08:03:05Z</time>
      </trkpt>
      <trkpt lat="37.099454" lon="-4.642143">
        <ele>428.677</ele>
        <time>2021-10-12T08:03:07Z</time>
      </trkpt>
      <trkpt lat="37.099842" lon="-4.642774">
        <ele>427.050</ele>
        <time>2021-10-12T08:03:09Z</time>
      </trkpt>
      <trkpt lat="37.100225" lon="-4.643398">
        <ele>430.766</ele>
        <time>2021-10-12T08:03:11Z</time>
      </trkpt>
      <trkpt lat="37.100415" lon="-4.643709">
        <ele>433.755</ele>
        <time>2021-10-12T08:03:12Z</time>
      </trkpt>
      <trkpt lat="37.100792" lon="-4.644326">
        <ele>433.425</ele>
        <time>2021-10-12T08:03:14Z</time>
      </trkpt>
      <trkpt lat="37.100978" lon="-4.644628">
        <ele>434.046</ele>
        <time>2021-10-12T08:03:15Z</time>
      </trkpt>
      <trkpt lat="37.101349" lon="-4.645221">
        <ele>436.573</ele>
        <time>2021-10-12T08:03:17Z</time>
      </trkpt>
      <trkpt lat="37.101533" lon="-4.645522">
        <ele>437.585</ele>
        <time>2021-10-12T08:03:18Z</time>
      </trkpt>
      <trkpt lat="37.101896" lon="-4.646117">
        <ele>437.813</ele>
        <time>2021-10-12T08:03:20Z</time>
      </trkpt>
      <trkpt lat="37.102258" lon="-4.646712">
        <ele>440.108</ele>
        <time>2021-10-12T08:03:22Z</time>
      </trkpt>
      <trkpt lat="37.102441" lon="-4.647010">
        <ele>441.645</ele>
        <time>2021-10-12T08:03:23Z</time>
      </trkpt>
      <trkpt lat="37.102622" lon="-4.647306">
        <ele>443.233</ele>
        <time>2021-10-12T08:03:24Z</time>
      </trkpt>
      <trkpt lat="37.102984" lon="-4.647896">
        <ele>448.249</ele>
        <time>2021-10-12T08:03:26Z</time>
      </trkpt>
      <trkpt lat="37.103340" lon="-4.648477">
        <ele>452.692</ele>
        <time>2021-10-12T08:03:28Z</time>
      </trkpt>
      <trkpt lat="37.103519" lon="-4.648771">
        <ele>454.178</ele>
        <time>2021-10-12T08:03:29Z</time>
      </trkpt>
      <trkpt lat="37.103875" lon="-4.649361">
        <ele>458.017</ele>
        <time>2021-10-12T08:03:31Z</time>
      </trkpt>
      <trkpt lat="37.104059" lon="-4.649661">
        <ele>460.117</ele>
        <time>2021-10-12T08:03:32Z</time>
      </trkpt>
      <trkpt lat="37.104415" lon="-4.650244">
        <ele>460.988</ele>
        <time>2021-10-12T08:03:34Z</time>
      </trkpt>
      <trkpt lat="37.104782" lon="-4.650861">
        <ele>462.257</ele>
        <time>2021-10-12T08:03:36Z</time>
      </trkpt>
      <trkpt lat="37.104967" lon="-4.651185">
        <ele>460.800</ele>
        <time>2021-10-12T08:03:37Z</time>
      </trkpt>
      <trkpt lat="37.105356" lon="-4.651839">
        <ele>462.620</ele>
        <time>2021-10-12T08:03:39Z</time>
      </trkpt>
      <trkpt lat="37.105764" lon="-4.652501">
        <ele>462.008</ele>
        <time>2021-10-12T08:03:41Z</time>
      </trkpt>
      <trkpt lat="37.105971" lon="-4.652836">
        <ele>464.343</ele>
        <time>2021-10-12T08:03:42Z</time>
      </trkpt>
      <trkpt lat="37.106387" lon="-4.653505">
        <ele>468.021</ele>
        <time>2021-10-12T08:03:44Z</time>
      </trkpt>
      <trkpt lat="37.106603" lon="-4.653826">
        <ele>471.147</ele>
        <time>2021-10-12T08:03:45Z</time>
      </trkpt>
      <trkpt lat="37.107059" lon="-4.654440">
        <ele>470.850</ele>
        <time>2021-10-12T08:03:47Z</time>
      </trkpt>
      <trkpt lat="37.107539" lon="-4.655012">
        <ele>467.186</ele>
        <time>2021-10-12T08:03:49Z</time>
      </trkpt>
      <trkpt lat="37.107789" lon="-4.655288">
        <ele>467.045</ele>
        <time>2021-10-12T08:03:50Z</time>
      </trkpt>
      <trkpt lat="37.108308" lon="-4.655804">
        <ele>464.285</ele>
        <time>2021-10-12T08:03:52Z</time>
      </trkpt>
      <trkpt lat="37.108852" lon="-4.656278">
        <ele>463.376</ele>
        <time>2021-10-12T08:03:54Z</time>
      </trkpt>
      <trkpt lat="37.109428" lon="-4.656716">
        <ele>461.073</ele>
        <time>2021-10-12T08:03:56Z</time>
      </trkpt>
      <trkpt lat="37.109990" lon="-4.657125">
        <ele>459.085</ele>
        <time>2021-10-12T08:03:58Z</time>
      </trkpt>
      <trkpt lat="37.110554" lon="-4.657533">
        <ele>459.113</ele>
        <time>2021-10-12T08:04:00Z</time>
      </trkpt>
      <trkpt lat="37.110828" lon="-4.657733">
        <ele>458.908</ele>
        <time>2021-10-12T08:04:01Z</time>
      </trkpt>
      <trkpt lat="37.111103" lon="-4.657936">
        <ele>459.285</ele>
        <time>2021-10-12T08:04:02Z</time>
      </trkpt>
      <trkpt lat="37.111618" lon="-4.658317">
        <ele>459.043</ele>
        <time>2021-10-12T08:04:04Z</time>
      </trkpt>
      <trkpt lat="37.111871" lon="-4.658507">
        <ele>461.049</ele>
        <time>2021-10-12T08:04:05Z</time>
      </trkpt>
      <trkpt lat="37.112388" lon="-4.658918">
        <ele>464.352</ele>
        <time>2021-10-12T08:04:07Z</time>
      </trkpt>
      <trkpt lat="37.112919" lon="-4.659373">
        <ele>467.018</ele>
        <time>2021-10-12T08:04:09Z</time>
      </trkpt>
      <trkpt lat="37.113442" lon="-4.659871">
        <ele>467.537</ele>
        <time>2021-10-12T08:04:11Z</time>
      </trkpt>
      <trkpt lat="37.113929" lon="-4.660413">
        <ele>468.897</ele>
        <time>2021-10-12T08:04:13Z</time>
      </trkpt>
      <trkpt lat="37.114162" lon="-4.660702">
        <ele>470.158</ele>
        <time>2021-10-12T08:04:14Z</time>
      </trkpt>
      <trkpt lat="37.114597" lon="-4.661293">
        <ele>467.842</ele>
        <time>2021-10-12T08:04:16Z</time>
      </trkpt>
      <trkpt lat="37.115011" lon="-4.661902">
        <ele>466.022</ele>
        <time>2021-10-12T08:04:18Z</time>
      </trkpt>
      <trkpt lat="37.115394" lon="-4.662524">
        <ele>469.314</ele>
        <time>2021-10-12T08:04:20Z</time>
      </trkpt>
      <trkpt lat="37.115761" lon="-4.663156">
        <ele>471.708</ele>
        <time>2021-10-12T08:04:22Z</time>
      </trkpt>
      <trkpt lat="37.115937" lon="-4.663483">
        <ele>472.382</ele>
        <time>2021-10-12T08:04:23Z</time>
      </trkpt>
      <trkpt lat="37.116286" lon="-4.664131">
        <ele>470.870</ele>
        <time>2021-10-12T08:04:25Z</time>
      </trkpt>
      <trkpt lat="37.116469" lon="-4.664465">
        <ele>469.056</ele>
        <time>2021-10-12T08:04:26Z</time>
      </trkpt>
      <trkpt lat="37.116811" lon="-4.665086">
        <ele>466.139</ele>
        <time>2021-10-12T08:04:28Z</time>
      </trkpt>
      <trkpt lat="37.116990" lon="-4.665409">
        <ele>466.195</ele>
        <time>2021-10-12T08:04:29Z</time>
      </trkpt>
      <trkpt lat="37.117340" lon="-4.666044">
        <ele>465.554</ele>
        <time>2021-10-12T08:04:31Z</time>
      </trkpt>
      <trkpt lat="37.117514" lon="-4.666364">
        <ele>463.994</ele>
        <time>2021-10-12T08:04:32Z</time>
      </trkpt>
      <trkpt lat="37.117853" lon="-4.666982">
        <ele>466.095</ele>
        <time>2021-10-12T08:04:34Z</time>
      </trkpt>
      <trkpt lat="37.118019" lon="-4.667284">
        <ele>466.886</ele>
        <time>2021-10-12T08:04:35Z</time>
      </trkpt>
      <trkpt lat="37.118180" lon="-4.667586">
        <ele>466.260</ele>
        <time>2021-10-12T08:04:36Z</time>
      </trkpt>
      <trkpt lat="37.118504" lon="-4.668194">
        <ele>464.226</ele>
        <time>2021-10-12T08:04:38Z</time>
      </trkpt>
      <trkpt lat="37.118673" lon="-4.668511">
        <ele>465.008</ele>
        <time>2021-10-12T08:04:39Z</time>
      </trkpt>
      <trkpt lat="37.119015" lon="-4.669146">
        <ele>471.356</ele>
        <time>2021-10-12T08:04:41Z</time>
      </trkpt>
      <trkpt lat="37.119185" lon="-4.669462">
        <ele>472.164</ele>
        <time>2021-10-12T08:04:42Z</time>
      </trkpt>
      <trkpt lat="37.119520" lon="-4.670072">
        <ele>474.830</ele>
        <time>2021-10-12T08:04:44Z</time>
      </trkpt>
      <trkpt lat="37.119685" lon="-4.670372">
        <ele>476.713</ele>
        <time>2021-10-12T08:04:45Z</time>
      </trkpt>
      <trkpt lat="37.119847" lon="-4.670667">
        <ele>477.069</ele>
        <time>2021-10-12T08:04:46Z</time>
      </trkpt>
      <trkpt lat="37.120163" lon="-4.671244">
        <ele>476.848</ele>
        <time>2021-10-12T08:04:48Z</time>
      </trkpt>
      <trkpt lat="37.120319" lon="-4.671531">
        <ele>477.738</ele>
        <time>2021-10-12T08:04:49Z</time>
      </trkpt>
      <trkpt lat="37.120472" lon="-4.671821">
        <ele>478.049</ele>
        <time>2021-10-12T08:04:50Z</time>
      </trkpt>
      <trkpt lat="37.120786" lon="-4.672402">
        <ele>479.282</ele>
        <time>2021-10-12T08:04:52Z</time>
      </trkpt>
      <trkpt lat="37.120948" lon="-4.672696">
        <ele>479.943</ele>
        <time>2021-10-12T08:04:53Z</time>
      </trkpt>
      <trkpt lat="37.121276" lon="-4.673295">
        <ele>481.717</ele>
        <time>2021-10-12T08:04:55Z</time>
      </trkpt>
      <trkpt lat="37.121448" lon="-4.673612">
        <ele>480.608</ele>
        <time>2021-10-12T08:04:56Z</time>
      </trkpt>
      <trkpt lat="37.121780" lon="-4.674216">
        <ele>476.556</ele>
        <time>2021-10-12T08:04:58Z</time>
      </trkpt>
      <trkpt lat="37.121951" lon="-4.674527">
        <ele>476.314</ele>
        <time>2021-10-12T08:04:59Z</time>
      </trkpt>
      <trkpt lat="37.122288" lon="-4.675141">
        <ele>476.590</ele>
        <time>2021-10-12T08:05:01Z</time>
      </trkpt>
      <trkpt lat="37.122459" lon="-4.675449">
        <ele>475.413</ele>
        <time>2021-10-12T08:05:02Z</time>
      </trkpt>
      <trkpt lat="37.122808" lon="-4.676038">
        <ele>473.979</ele>
        <time>2021-10-12T08:05:04Z</time>
      </trkpt>
      <trkpt lat="37.122995" lon="-4.676327">
        <ele>474.058</ele>
        <time>2021-10-12T08:05:05Z</time>
      </trkpt>
      <trkpt lat="37.123381" lon="-4.676876">
        <ele>475.628</ele>
        <time>2021-10-12T08:05:07Z</time>
      </trkpt>
      <trkpt lat="37.123582" lon="-4.677143">
        <ele>475.169</ele>
        <time>2021-10-12T08:05:08Z</time>
      </trkpt>
      <trkpt lat="37.124001" lon="-4.677650">
        <ele>474.449</ele>
        <time>2021-10-12T08:05:10Z</time>
      </trkpt>
      <trkpt lat="37.124433" lon="-4.678118">
        <ele>475.702</ele>
        <time>2021-10-12T08:05:12Z</time>
      </trkpt>
      <trkpt lat="37.124653" lon="-4.678347">
        <ele>475.022</ele>
        <time>2021-10-12T08:05:13Z</time>
      </trkpt>
      <trkpt lat="37.124876" lon="-4.678565">
        <ele>474.108</ele>
        <time>2021-10-12T08:05:14Z</time>
      </trkpt>
      <trkpt lat="37.125326" lon="-4.678984">
        <ele>475.532</ele>
        <time>2021-10-12T08:05:16Z</time>
      </trkpt>
      <trkpt lat="37.125803" lon="-4.679393">
        <ele>475.110</ele>
        <time>2021-10-12T08:05:18Z</time>
      </trkpt>
      <trkpt lat="37.126054" lon="-4.679597">
        <ele>473.526</ele>
        <time>2021-10-12T08:05:19Z</time>
      </trkpt>
      <trkpt lat="37.126563" lon="-4.680001">
        <ele>472.439</ele>
        <time>2021-10-12T08:05:21Z</time>
      </trkpt>
      <trkpt lat="37.126817" lon="-4.680206">
        <ele>472.555</ele>
        <time>2021-10-12T08:05:22Z</time>
      </trkpt>
      <trkpt lat="37.127314" lon="-4.680624">
        <ele>473.574</ele>
        <time>2021-10-12T08:05:24Z</time>
      </trkpt>
      <trkpt lat="37.127798" lon="-4.681060">
        <ele>473.444</ele>
        <time>2021-10-12T08:05:26Z</time>
      </trkpt>
      <trkpt lat="37.128262" lon="-4.681534">
        <ele>473.245</ele>
        <time>2021-10-12T08:05:28Z</time>
      </trkpt>
      <trkpt lat="37.128490" lon="-4.681785">
        <ele>474.095</ele>
        <time>2021-10-12T08:05:29Z</time>
      </trkpt>
      <trkpt lat="37.128933" lon="-4.682317">
        <ele>473.149</ele>
        <time>2021-10-12T08:05:31Z</time>
      </trkpt>
      <trkpt lat="37.129356" lon="-4.682879">
        <ele>473.023</ele>
        <time>2021-10-12T08:05:33Z</time>
      </trkpt>
      <trkpt lat="37.129560" lon="-4.683173">
        <ele>472.208</ele>
        <time>2021-10-12T08:05:34Z</time>
      </trkpt>
      <trkpt lat="37.129760" lon="-4.683472">
        <ele>471.447</ele>
        <time>2021-10-12T08:05:35Z</time>
      </trkpt>
      <trkpt lat="37.130138" lon="-4.684091">
        <ele>471.195</ele>
        <time>2021-10-12T08:05:37Z</time>
      </trkpt>
      <trkpt lat="37.130318" lon="-4.684414">
        <ele>470.041</ele>
        <time>2021-10-12T08:05:38Z</time>
      </trkpt>
      <trkpt lat="37.130655" lon="-4.685067">
        <ele>465.814</ele>
        <time>2021-10-12T08:05:40Z</time>
      </trkpt>
      <trkpt lat="37.130815" lon="-4.685401">
        <ele>465.030</ele>
        <time>2021-10-12T08:05:41Z</time>
      </trkpt>
      <trkpt lat="37.131120" lon="-4.686075">
        <ele>464.329</ele>
        <time>2021-10-12T08:05:43Z</time>
      </trkpt>
      <trkpt lat="37.131264" lon="-4.686417">
        <ele>463.629</ele>
        <time>2021-10-12T08:05:44Z</time>
      </trkpt>
      <trkpt lat="37.131519" lon="-4.687107">
        <ele>464.170</ele>
        <time>2021-10-12T08:05:46Z</time>
      </trkpt>
      <trkpt lat="37.131628" lon="-4.687449">
        <ele>462.344</ele>
        <time>2021-10-12T08:05:47Z</time>
      </trkpt>
      <trkpt lat="37.131820" lon="-4.688140">
        <ele>462.805</ele>
        <time>2021-10-12T08:05:49Z</time>
      </trkpt>
      <trkpt lat="37.131904" lon="-4.688491">
        <ele>462.115</ele>
        <time>2021-10-12T08:05:50Z</time>
      </trkpt>
      <trkpt lat="37.132052" lon="-4.689194">
        <ele>461.308</ele>
        <time>2021-10-12T08:05:52Z</time>
      </trkpt>
      <trkpt lat="37.132173" lon="-4.689894">
        <ele>458.592</ele>
        <time>2021-10-12T08:05:54Z</time>
      </trkpt>
      <trkpt lat="37.132228" lon="-4.690254">
        <ele>457.130</ele>
        <time>2021-10-12T08:05:55Z</time>
      </trkpt>
      <trkpt lat="37.132328" lon="-4.690962">
        <ele>457.716</ele>
        <time>2021-10-12T08:05:57Z</time>
      </trkpt>
      <trkpt lat="37.132425" lon="-4.691666">
        <ele>457.719</ele>
        <time>2021-10-12T08:05:59Z</time>
      </trkpt>
      <trkpt lat="37.132521" lon="-4.692371">
        <ele>459.525</ele>
        <time>2021-10-12T08:06:01Z</time>
      </trkpt>
      <trkpt lat="37.132569" lon="-4.692726">
        <ele>459.054</ele>
        <time>2021-10-12T08:06:02Z</time>
      </trkpt>
      <trkpt lat="37.132667" lon="-4.693436">
        <ele>457.344</ele>
        <time>2021-10-12T08:06:04Z</time>
      </trkpt>
      <trkpt lat="37.132717" lon="-4.693800">
        <ele>456.375</ele>
        <time>2021-10-12T08:06:05Z</time>
      </trkpt>
      <trkpt lat="37.132817" lon="-4.694526">
        <ele>451.731</ele>
        <time>2021-10-12T08:06:07Z</time>
      </trkpt>
      <trkpt lat="37.132918" lon="-4.695255">
        <ele>450.161</ele>
        <time>2021-10-12T08:06:09Z</time>
      </trkpt>
      <trkpt lat="37.133017" lon="-4.695984">
        <ele>452.307</ele>
        <time>2021-10-12T08:06:11Z</time>
      </trkpt>
      <trkpt lat="37.133116" lon="-4.696700">
        <ele>452.908</ele>
        <time>2021-10-12T08:06:13Z</time>
      </trkpt>
      <trkpt lat="37.133215" lon="-4.697415">
        <ele>449.741</ele>
        <time>2021-10-12T08:06:15Z</time>
      </trkpt>
      <trkpt lat="37.133313" lon="-4.698116">
        <ele>450.289</ele>
        <time>2021-10-12T08:06:17Z</time>
      </trkpt>
      <trkpt lat="37.133368" lon="-4.698469">
        <ele>451.335</ele>
        <time>2021-10-12T08:06:18Z</time>
      </trkpt>
      <trkpt lat="37.133484" lon="-4.699156">
        <ele>451.488</ele>
        <time>2021-10-12T08:06:20Z</time>
      </trkpt>
      <trkpt lat="37.133609" lon="-4.699837">
        <ele>451.444</ele>
        <time>2021-10-12T08:06:22Z</time>
      </trkpt>
      <trkpt lat="37.133677" lon="-4.700177">
        <ele>452.513</ele>
        <time>2021-10-12T08:06:23Z</time>
      </trkpt>
      <trkpt lat="37.133747" lon="-4.700510">
        <ele>452.543</ele>
        <time>2021-10-12T08:06:24Z</time>
      </trkpt>
      <trkpt lat="37.133890" lon="-4.701172">
        <ele>450.064</ele>
        <time>2021-10-12T08:06:26Z</time>
      </trkpt>
      <trkpt lat="37.133967" lon="-4.701514">
        <ele>450.321</ele>
        <time>2021-10-12T08:06:27Z</time>
      </trkpt>
      <trkpt lat="37.134049" lon="-4.701853">
        <ele>451.541</ele>
        <time>2021-10-12T08:06:28Z</time>
      </trkpt>
      <trkpt lat="37.134219" lon="-4.702536">
        <ele>451.705</ele>
        <time>2021-10-12T08:06:30Z</time>
      </trkpt>
      <trkpt lat="37.134411" lon="-4.703222">
        <ele>447.908</ele>
        <time>2021-10-12T08:06:32Z</time>
      </trkpt>
      <trkpt lat="37.134509" lon="-4.703566">
        <ele>446.590</ele>
        <time>2021-10-12T08:06:33Z</time>
      </trkpt>
      <trkpt lat="37.134708" lon="-4.704258">
        <ele>446.768</ele>
        <time>2021-10-12T08:06:35Z</time>
      </trkpt>
      <trkpt lat="37.134809" lon="-4.704611">
        <ele>445.764</ele>
        <time>2021-10-12T08:06:36Z</time>
      </trkpt>
      <trkpt lat="37.135014" lon="-4.705336">
        <ele>445.967</ele>
        <time>2021-10-12T08:06:38Z</time>
      </trkpt>
      <trkpt lat="37.135221" lon="-4.706068">
        <ele>446.853</ele>
        <time>2021-10-12T08:06:40Z</time>
      </trkpt>
      <trkpt lat="37.135429" lon="-4.706802">
        <ele>444.042</ele>
        <time>2021-10-12T08:06:42Z</time>
      </trkpt>
      <trkpt lat="37.135529" lon="-4.707172">
        <ele>442.232</ele>
        <time>2021-10-12T08:06:43Z</time>
      </trkpt>
      <trkpt lat="37.135630" lon="-4.707541">
        <ele>443.083</ele>
        <time>2021-10-12T08:06:44Z</time>
      </trkpt>
      <trkpt lat="37.135838" lon="-4.708280">
        <ele>443.053</ele>
        <time>2021-10-12T08:06:46Z</time>
      </trkpt>
      <trkpt lat="37.135937" lon="-4.708654">
        <ele>443.404</ele>
        <time>2021-10-12T08:06:47Z</time>
      </trkpt>
      <trkpt lat="37.136120" lon="-4.709394">
        <ele>444.014</ele>
        <time>2021-10-12T08:06:49Z</time>
      </trkpt>
      <trkpt lat="37.136207" lon="-4.709761">
        <ele>444.508</ele>
        <time>2021-10-12T08:06:50Z</time>
      </trkpt>
      <trkpt lat="37.136380" lon="-4.710488">
        <ele>446.743</ele>
        <time>2021-10-12T08:06:52Z</time>
      </trkpt>
      <trkpt lat="37.136543" lon="-4.711216">
        <ele>448.691</ele>
        <time>2021-10-12T08:06:54Z</time>
      </trkpt>
      <trkpt lat="37.136617" lon="-4.711582">
        <ele>448.997</ele>
        <time>2021-10-12T08:06:55Z</time>
      </trkpt>
      <trkpt lat="37.136692" lon="-4.711949">
        <ele>449.120</ele>
        <time>2021-10-12T08:06:56Z</time>
      </trkpt>
      <trkpt lat="37.136833" lon="-4.712683">
        <ele>451.046</ele>
        <time>2021-10-12T08:06:58Z</time>
      </trkpt>
      <trkpt lat="37.136960" lon="-4.713422">
        <ele>450.895</ele>
        <time>2021-10-12T08:07:00Z</time>
      </trkpt>
      <trkpt lat="37.137080" lon="-4.714169">
        <ele>449.515</ele>
        <time>2021-10-12T08:07:02Z</time>
      </trkpt>
      <trkpt lat="37.137144" lon="-4.714565">
        <ele>449.546</ele>
        <time>2021-10-12T08:07:03Z</time>
      </trkpt>
      <trkpt lat="37.137275" lon="-4.715347">
        <ele>450.535</ele>
        <time>2021-10-12T08:07:05Z</time>
      </trkpt>
      <trkpt lat="37.137380" lon="-4.716138">
        <ele>449.886</ele>
        <time>2021-10-12T08:07:07Z</time>
      </trkpt>
      <trkpt lat="37.137426" lon="-4.716534">
        <ele>449.114</ele>
        <time>2021-10-12T08:07:08Z</time>
      </trkpt>
      <trkpt lat="37.137473" lon="-4.716929">
        <ele>449.208</ele>
        <time>2021-10-12T08:07:09Z</time>
      </trkpt>
      <trkpt lat="37.137569" lon="-4.717712">
        <ele>448.831</ele>
        <time>2021-10-12T08:07:11Z</time>
      </trkpt>
      <trkpt lat="37.137622" lon="-4.718097">
        <ele>449.029</ele>
        <time>2021-10-12T08:07:12Z</time>
      </trkpt>
      <trkpt lat="37.137721" lon="-4.718828">
        <ele>445.655</ele>
        <time>2021-10-12T08:07:14Z</time>
      </trkpt>
      <trkpt lat="37.137812" lon="-4.719527">
        <ele>444.738</ele>
        <time>2021-10-12T08:07:16Z</time>
      </trkpt>
      <trkpt lat="37.137852" lon="-4.719873">
        <ele>444.064</ele>
        <time>2021-10-12T08:07:17Z</time>
      </trkpt>
      <trkpt lat="37.137894" lon="-4.720216">
        <ele>444.513</ele>
        <time>2021-10-12T08:07:18Z</time>
      </trkpt>
      <trkpt lat="37.137981" lon="-4.720894">
        <ele>445.093</ele>
        <time>2021-10-12T08:07:20Z</time>
      </trkpt>
      <trkpt lat="37.138070" lon="-4.721566">
        <ele>444.994</ele>
        <time>2021-10-12T08:07:22Z</time>
      </trkpt>
      <trkpt lat="37.138158" lon="-4.722238">
        <ele>444.499</ele>
        <time>2021-10-12T08:07:24Z</time>
      </trkpt>
      <trkpt lat="37.138200" lon="-4.722578">
        <ele>444.807</ele>
        <time>2021-10-12T08:07:25Z</time>
      </trkpt>
      <trkpt lat="37.138248" lon="-4.722936">
        <ele>443.227</ele>
        <time>2021-10-12T08:07:26Z</time>
      </trkpt>
      <trkpt lat="37.138348" lon="-4.723626">
        <ele>438.208</ele>
        <time>2021-10-12T08:07:28Z</time>
      </trkpt>
      <trkpt lat="37.138465" lon="-4.724333">
        <ele>439.317</ele>
        <time>2021-10-12T08:07:30Z</time>
      </trkpt>
      <trkpt lat="37.138537" lon="-4.724688">
        <ele>440.185</ele>
        <time>2021-10-12T08:07:31Z</time>
      </trkpt>
      <trkpt lat="37.138620" lon="-4.725045">
        <ele>440.051</ele>
        <time>2021-10-12T08:07:32Z</time>
      </trkpt>
      <trkpt lat="37.138806" lon="-4.725761">
        <ele>437.944</ele>
        <time>2021-10-12T08:07:34Z</time>
      </trkpt>
      <trkpt lat="37.139031" lon="-4.726473">
        <ele>434.240</ele>
        <time>2021-10-12T08:07:36Z</time>
      </trkpt>
      <trkpt lat="37.139158" lon="-4.726826">
        <ele>433.099</ele>
        <time>2021-10-12T08:07:37Z</time>
      </trkpt>
      <trkpt lat="37.139433" lon="-4.727518">
        <ele>432.129</ele>
        <time>2021-10-12T08:07:39Z</time>
      </trkpt>
      <trkpt lat="37.139589" lon="-4.727864">
        <ele>432.010</ele>
        <time>2021-10-12T08:07:40Z</time>
      </trkpt>
      <trkpt lat="37.139750" lon="-4.728197">
        <ele>431.975</ele>
        <time>2021-10-12T08:07:41Z</time>
      </trkpt>
      <trkpt lat="37.139917" lon="-4.728528">
        <ele>429.728</ele>
        <time>2021-10-12T08:07:42Z</time>
      </trkpt>
      <trkpt lat="37.140094" lon="-4.728854">
        <ele>427.720</ele>
        <time>2021-10-12T08:07:43Z</time>
      </trkpt>
      <trkpt lat="37.140458" lon="-4.729487">
        <ele>425.508</ele>
        <time>2021-10-12T08:07:45Z</time>
      </trkpt>
      <trkpt lat="37.140651" lon="-4.729791">
        <ele>424.775</ele>
        <time>2021-10-12T08:07:46Z</time>
      </trkpt>
      <trkpt lat="37.140851" lon="-4.730086">
        <ele>423.613</ele>
        <time>2021-10-12T08:07:47Z</time>
      </trkpt>
      <trkpt lat="37.141269" lon="-4.730650">
        <ele>422.879</ele>
        <time>2021-10-12T08:07:49Z</time>
      </trkpt>
      <trkpt lat="37.141487" lon="-4.730922">
        <ele>421.112</ele>
        <time>2021-10-12T08:07:50Z</time>
      </trkpt>
      <trkpt lat="37.141936" lon="-4.731456">
        <ele>418.388</ele>
        <time>2021-10-12T08:07:52Z</time>
      </trkpt>
      <trkpt lat="37.142382" lon="-4.731961">
        <ele>419.427</ele>
        <time>2021-10-12T08:07:54Z</time>
      </trkpt>
      <trkpt lat="37.142601" lon="-4.732199">
        <ele>417.437</ele>
        <time>2021-10-12T08:07:55Z</time>
      </trkpt>
      <trkpt lat="37.142825" lon="-4.732435">
        <ele>416.098</ele>
        <time>2021-10-12T08:07:56Z</time>
      </trkpt>
      <trkpt lat="37.143259" lon="-4.732895">
        <ele>415.018</ele>
        <time>2021-10-12T08:07:58Z</time>
      </trkpt>
      <trkpt lat="37.143480" lon="-4.733130">
        <ele>415.398</ele>
        <time>2021-10-12T08:07:59Z</time>
      </trkpt>
      <trkpt lat="37.143915" lon="-4.733594">
        <ele>415.917</ele>
        <time>2021-10-12T08:08:01Z</time>
      </trkpt>
      <trkpt lat="37.144135" lon="-4.733829">
        <ele>415.908</ele>
        <time>2021-10-12T08:08:02Z</time>
      </trkpt>
      <trkpt lat="37.144353" lon="-4.734061">
        <ele>415.499</ele>
        <time>2021-10-12T08:08:03Z</time>
      </trkpt>
      <trkpt lat="37.144785" lon="-4.734529">
        <ele>414.117</ele>
        <time>2021-10-12T08:08:05Z</time>
      </trkpt>
      <trkpt lat="37.145216" lon="-4.734990">
        <ele>416.093</ele>
        <time>2021-10-12T08:08:07Z</time>
      </trkpt>
      <trkpt lat="37.145432" lon="-4.735219">
        <ele>415.326</ele>
        <time>2021-10-12T08:08:08Z</time>
      </trkpt>
      <trkpt lat="37.145863" lon="-4.735677">
        <ele>413.762</ele>
        <time>2021-10-12T08:08:10Z</time>
      </trkpt>
      <trkpt lat="37.146078" lon="-4.735905">
        <ele>414.541</ele>
        <time>2021-10-12T08:08:11Z</time>
      </trkpt>
      <trkpt lat="37.146292" lon="-4.736134">
        <ele>414.751</ele>
        <time>2021-10-12T08:08:12Z</time>
      </trkpt>
      <trkpt lat="37.146717" lon="-4.736588">
        <ele>415.712</ele>
        <time>2021-10-12T08:08:14Z</time>
      </trkpt>
      <trkpt lat="37.147142" lon="-4.737039">
        <ele>416.993</ele>
        <time>2021-10-12T08:08:16Z</time>
      </trkpt>
      <trkpt lat="37.147357" lon="-4.737267">
        <ele>416.965</ele>
        <time>2021-10-12T08:08:17Z</time>
      </trkpt>
      <trkpt lat="37.147787" lon="-4.737725">
        <ele>416.821</ele>
        <time>2021-10-12T08:08:19Z</time>
      </trkpt>
      <trkpt lat="37.148003" lon="-4.737956">
        <ele>417.408</ele>
        <time>2021-10-12T08:08:20Z</time>
      </trkpt>
      <trkpt lat="37.148431" lon="-4.738426">
        <ele>418.447</ele>
        <time>2021-10-12T08:08:22Z</time>
      </trkpt>
      <trkpt lat="37.148649" lon="-4.738657">
        <ele>417.785</ele>
        <time>2021-10-12T08:08:23Z</time>
      </trkpt>
      <trkpt lat="37.148868" lon="-4.738890">
        <ele>416.131</ele>
        <time>2021-10-12T08:08:24Z</time>
      </trkpt>
      <trkpt lat="37.149088" lon="-4.739124">
        <ele>415.374</ele>
        <time>2021-10-12T08:08:25Z</time>
      </trkpt>
      <trkpt lat="37.149316" lon="-4.739367">
        <ele>415.010</ele>
        <time>2021-10-12T08:08:26Z</time>
      </trkpt>
      <trkpt lat="37.149752" lon="-4.739833">
        <ele>415.399</ele>
        <time>2021-10-12T08:08:28Z</time>
      </trkpt>
      <trkpt lat="37.150198" lon="-4.740312">
        <ele>413.749</ele>
        <time>2021-10-12T08:08:30Z</time>
      </trkpt>
      <trkpt lat="37.150651" lon="-4.740802">
        <ele>413.950</ele>
        <time>2021-10-12T08:08:32Z</time>
      </trkpt>
      <trkpt lat="37.151121" lon="-4.741301">
        <ele>415.089</ele>
        <time>2021-10-12T08:08:34Z</time>
      </trkpt>
      <trkpt lat="37.151596" lon="-4.741808">
        <ele>412.006</ele>
        <time>2021-10-12T08:08:36Z</time>
      </trkpt>
      <trkpt lat="37.152061" lon="-4.742326">
        <ele>412.226</ele>
        <time>2021-10-12T08:08:38Z</time>
      </trkpt>
      <trkpt lat="37.152289" lon="-4.742589">
        <ele>412.208</ele>
        <time>2021-10-12T08:08:39Z</time>
      </trkpt>
      <trkpt lat="37.152738" lon="-4.743114">
        <ele>411.856</ele>
        <time>2021-10-12T08:08:41Z</time>
      </trkpt>
      <trkpt lat="37.152961" lon="-4.743380">
        <ele>411.024</ele>
        <time>2021-10-12T08:08:42Z</time>
      </trkpt>
      <trkpt lat="37.153400" lon="-4.743911">
        <ele>413.140</ele>
        <time>2021-10-12T08:08:44Z</time>
      </trkpt>
      <trkpt lat="37.153836" lon="-4.744430">
        <ele>413.043</ele>
        <time>2021-10-12T08:08:46Z</time>
      </trkpt>
      <trkpt lat="37.154270" lon="-4.744950">
        <ele>413.819</ele>
        <time>2021-10-12T08:08:48Z</time>
      </trkpt>
      <trkpt lat="37.154698" lon="-4.745460">
        <ele>413.838</ele>
        <time>2021-10-12T08:08:50Z</time>
      </trkpt>
      <trkpt lat="37.155127" lon="-4.745966">
        <ele>414.798</ele>
        <time>2021-10-12T08:08:52Z</time>
      </trkpt>
      <trkpt lat="37.155557" lon="-4.746470">
        <ele>415.039</ele>
        <time>2021-10-12T08:08:54Z</time>
      </trkpt>
      <trkpt lat="37.155776" lon="-4.746717">
        <ele>415.127</ele>
        <time>2021-10-12T08:08:55Z</time>
      </trkpt>
      <trkpt lat="37.156008" lon="-4.746972">
        <ele>415.368</ele>
        <time>2021-10-12T08:08:56Z</time>
      </trkpt>
      <trkpt lat="37.156458" lon="-4.747438">
        <ele>417.014</ele>
        <time>2021-10-12T08:08:58Z</time>
      </trkpt>
      <trkpt lat="37.156944" lon="-4.747905">
        <ele>419.508</ele>
        <time>2021-10-12T08:09:00Z</time>
      </trkpt>
      <trkpt lat="37.157445" lon="-4.748355">
        <ele>420.380</ele>
        <time>2021-10-12T08:09:02Z</time>
      </trkpt>
      <trkpt lat="37.157702" lon="-4.748575">
        <ele>421.618</ele>
        <time>2021-10-12T08:09:03Z</time>
      </trkpt>
      <trkpt lat="37.158221" lon="-4.749007">
        <ele>424.854</ele>
        <time>2021-10-12T08:09:05Z</time>
      </trkpt>
      <trkpt lat="37.158484" lon="-4.749216">
        <ele>426.567</ele>
        <time>2021-10-12T08:09:06Z</time>
      </trkpt>
      <trkpt lat="37.158746" lon="-4.749424">
        <ele>427.013</ele>
        <time>2021-10-12T08:09:07Z</time>
      </trkpt>
      <trkpt lat="37.159008" lon="-4.749632">
        <ele>426.942</ele>
        <time>2021-10-12T08:09:08Z</time>
      </trkpt>
      <trkpt lat="37.159268" lon="-4.749838">
        <ele>427.432</ele>
        <time>2021-10-12T08:09:09Z</time>
      </trkpt>
      <trkpt lat="37.159782" lon="-4.750244">
        <ele>430.113</ele>
        <time>2021-10-12T08:09:11Z</time>
      </trkpt>
      <trkpt lat="37.160038" lon="-4.750446">
        <ele>431.722</ele>
        <time>2021-10-12T08:09:12Z</time>
      </trkpt>
      <trkpt lat="37.160292" lon="-4.750646">
        <ele>433.462</ele>
        <time>2021-10-12T08:09:13Z</time>
      </trkpt>
      <trkpt lat="37.160544" lon="-4.750846">
        <ele>435.008</ele>
        <time>2021-10-12T08:09:14Z</time>
      </trkpt>
      <trkpt lat="37.161040" lon="-4.751241">
        <ele>437.808</ele>
        <time>2021-10-12T08:09:16Z</time>
      </trkpt>
      <trkpt lat="37.161531" lon="-4.751637">
        <ele>440.420</ele>
        <time>2021-10-12T08:09:18Z</time>
      </trkpt>
      <trkpt lat="37.161779" lon="-4.751833">
        <ele>441.688</ele>
        <time>2021-10-12T08:09:19Z</time>
      </trkpt>
      <trkpt lat="37.162269" lon="-4.752220">
        <ele>445.214</ele>
        <time>2021-10-12T08:09:21Z</time>
      </trkpt>
      <trkpt lat="37.162758" lon="-4.752608">
        <ele>448.357</ele>
        <time>2021-10-12T08:09:23Z</time>
      </trkpt>
      <trkpt lat="37.163000" lon="-4.752807">
        <ele>449.153</ele>
        <time>2021-10-12T08:09:24Z</time>
      </trkpt>
      <trkpt lat="37.163496" lon="-4.753203">
        <ele>451.092</ele>
        <time>2021-10-12T08:09:26Z</time>
      </trkpt>
      <trkpt lat="37.163971" lon="-4.753584">
        <ele>452.542</ele>
        <time>2021-10-12T08:09:28Z</time>
      </trkpt>
      <trkpt lat="37.164461" lon="-4.753972">
        <ele>458.423</ele>
        <time>2021-10-12T08:09:30Z</time>
      </trkpt>
      <trkpt lat="37.164963" lon="-4.754369">
        <ele>461.912</ele>
        <time>2021-10-12T08:09:32Z</time>
      </trkpt>
      <trkpt lat="37.165446" lon="-4.754752">
        <ele>465.932</ele>
        <time>2021-10-12T08:09:34Z</time>
      </trkpt>
      <trkpt lat="37.165944" lon="-4.755146">
        <ele>468.305</ele>
        <time>2021-10-12T08:09:36Z</time>
      </trkpt>
      <trkpt lat="37.166440" lon="-4.755542">
        <ele>467.008</ele>
        <time>2021-10-12T08:09:38Z</time>
      </trkpt>
      <trkpt lat="37.166691" lon="-4.755745">
        <ele>466.989</ele>
        <time>2021-10-12T08:09:39Z</time>
      </trkpt>
      <trkpt lat="37.167188" lon="-4.756159">
        <ele>465.087</ele>
        <time>2021-10-12T08:09:41Z</time>
      </trkpt>
      <trkpt lat="37.167436" lon="-4.756374">
        <ele>465.723</ele>
        <time>2021-10-12T08:09:42Z</time>
      </trkpt>
      <trkpt lat="37.167925" lon="-4.756821">
        <ele>469.076</ele>
        <time>2021-10-12T08:09:44Z</time>
      </trkpt>
      <trkpt lat="37.168175" lon="-4.757063">
        <ele>469.232</ele>
        <time>2021-10-12T08:09:45Z</time>
      </trkpt>
      <trkpt lat="37.168420" lon="-4.757307">
        <ele>469.611</ele>
        <time>2021-10-12T08:09:46Z</time>
      </trkpt>
      <trkpt lat="37.168906" lon="-4.757801">
        <ele>473.071</ele>
        <time>2021-10-12T08:09:48Z</time>
      </trkpt>
      <trkpt lat="37.169148" lon="-4.758058">
        <ele>473.912</ele>
        <time>2021-10-12T08:09:49Z</time>
      </trkpt>
      <trkpt lat="37.169389" lon="-4.758317">
        <ele>474.897</ele>
        <time>2021-10-12T08:09:50Z</time>
      </trkpt>
      <trkpt lat="37.169861" lon="-4.758843">
        <ele>475.123</ele>
        <time>2021-10-12T08:09:52Z</time>
      </trkpt>
      <trkpt lat="37.170313" lon="-4.759357">
        <ele>475.025</ele>
        <time>2021-10-12T08:09:54Z</time>
      </trkpt>
      <trkpt lat="37.170538" lon="-4.759608">
        <ele>474.408</ele>
        <time>2021-10-12T08:09:55Z</time>
      </trkpt>
      <trkpt lat="37.170767" lon="-4.759862">
        <ele>475.497</ele>
        <time>2021-10-12T08:09:56Z</time>
      </trkpt>
      <trkpt lat="37.171197" lon="-4.760338">
        <ele>476.365</ele>
        <time>2021-10-12T08:09:58Z</time>
      </trkpt>
      <trkpt lat="37.171413" lon="-4.760578">
        <ele>474.841</ele>
        <time>2021-10-12T08:09:59Z</time>
      </trkpt>
      <trkpt lat="37.171840" lon="-4.761064">
        <ele>473.984</ele>
        <time>2021-10-12T08:10:01Z</time>
      </trkpt>
      <trkpt lat="37.172056" lon="-4.761310">
        <ele>475.240</ele>
        <time>2021-10-12T08:10:02Z</time>
      </trkpt>
      <trkpt lat="37.172276" lon="-4.761560">
        <ele>476.429</ele>
        <time>2021-10-12T08:10:03Z</time>
      </trkpt>
      <trkpt lat="37.172725" lon="-4.762060">
        <ele>480.299</ele>
        <time>2021-10-12T08:10:05Z</time>
      </trkpt>
      <trkpt lat="37.172952" lon="-4.762312">
        <ele>481.220</ele>
        <time>2021-10-12T08:10:06Z</time>
      </trkpt>
      <trkpt lat="37.173181" lon="-4.762567">
        <ele>482.192</ele>
        <time>2021-10-12T08:10:07Z</time>
      </trkpt>
      <trkpt lat="37.173413" lon="-4.762826">
        <ele>483.173</ele>
        <time>2021-10-12T08:10:08Z</time>
      </trkpt>
      <trkpt lat="37.173876" lon="-4.763352">
        <ele>481.120</ele>
        <time>2021-10-12T08:10:10Z</time>
      </trkpt>
      <trkpt lat="37.174338" lon="-4.763884">
        <ele>481.408</ele>
        <time>2021-10-12T08:10:12Z</time>
      </trkpt>
      <trkpt lat="37.174780" lon="-4.764431">
        <ele>481.537</ele>
        <time>2021-10-12T08:10:14Z</time>
      </trkpt>
      <trkpt lat="37.175180" lon="-4.765025">
        <ele>480.455</ele>
        <time>2021-10-12T08:10:16Z</time>
      </trkpt>
      <trkpt lat="37.175366" lon="-4.765338">
        <ele>481.031</ele>
        <time>2021-10-12T08:10:17Z</time>
      </trkpt>
      <trkpt lat="37.175701" lon="-4.765988">
        <ele>479.864</ele>
        <time>2021-10-12T08:10:19Z</time>
      </trkpt>
      <trkpt lat="37.175996" lon="-4.766669">
        <ele>481.070</ele>
        <time>2021-10-12T08:10:21Z</time>
      </trkpt>
      <trkpt lat="37.176262" lon="-4.767368">
        <ele>480.019</ele>
        <time>2021-10-12T08:10:23Z</time>
      </trkpt>
      <trkpt lat="37.176527" lon="-4.768062">
        <ele>479.099</ele>
        <time>2021-10-12T08:10:25Z</time>
      </trkpt>
      <trkpt lat="37.176664" lon="-4.768404">
        <ele>478.780</ele>
        <time>2021-10-12T08:10:26Z</time>
      </trkpt>
      <trkpt lat="37.176938" lon="-4.769078">
        <ele>477.374</ele>
        <time>2021-10-12T08:10:28Z</time>
      </trkpt>
      <trkpt lat="37.177228" lon="-4.769732">
        <ele>475.056</ele>
        <time>2021-10-12T08:10:30Z</time>
      </trkpt>
      <trkpt lat="37.177387" lon="-4.770050">
        <ele>474.421</ele>
        <time>2021-10-12T08:10:31Z</time>
      </trkpt>
      <trkpt lat="37.177724" lon="-4.770664">
        <ele>474.008</ele>
        <time>2021-10-12T08:10:33Z</time>
      </trkpt>
      <trkpt lat="37.178073" lon="-4.771271">
        <ele>474.565</ele>
        <time>2021-10-12T08:10:35Z</time>
      </trkpt>
      <trkpt lat="37.178247" lon="-4.771575">
        <ele>474.223</ele>
        <time>2021-10-12T08:10:36Z</time>
      </trkpt>
      <trkpt lat="37.178605" lon="-4.772179">
        <ele>474.869</ele>
        <time>2021-10-12T08:10:38Z</time>
      </trkpt>
      <trkpt lat="37.178793" lon="-4.772477">
        <ele>475.092</ele>
        <time>2021-10-12T08:10:39Z</time>
      </trkpt>
      <trkpt lat="37.178987" lon="-4.772771">
        <ele>474.018</ele>
        <time>2021-10-12T08:10:40Z</time>
      </trkpt>
      <trkpt lat="37.179397" lon="-4.773340">
        <ele>474.077</ele>
        <time>2021-10-12T08:10:42Z</time>
      </trkpt>
      <trkpt lat="37.179833" lon="-4.773885">
        <ele>475.077</ele>
        <time>2021-10-12T08:10:44Z</time>
      </trkpt>
      <trkpt lat="37.180059" lon="-4.774148">
        <ele>475.718</ele>
        <time>2021-10-12T08:10:45Z</time>
      </trkpt>
      <trkpt lat="37.180507" lon="-4.774676">
        <ele>476.078</ele>
        <time>2021-10-12T08:10:47Z</time>
      </trkpt>
      <trkpt lat="37.180730" lon="-4.774943">
        <ele>476.333</ele>
        <time>2021-10-12T08:10:48Z</time>
      </trkpt>
      <trkpt lat="37.181165" lon="-4.775478">
        <ele>476.826</ele>
        <time>2021-10-12T08:10:50Z</time>
      </trkpt>
      <trkpt lat="37.181590" lon="-4.776012">
        <ele>476.708</ele>
        <time>2021-10-12T08:10:52Z</time>
      </trkpt>
      <trkpt lat="37.182002" lon="-4.776535">
        <ele>477.845</ele>
        <time>2021-10-12T08:10:54Z</time>
      </trkpt>
      <trkpt lat="37.182212" lon="-4.776791">
        <ele>478.543</ele>
        <time>2021-10-12T08:10:55Z</time>
      </trkpt>
      <trkpt lat="37.182425" lon="-4.777049">
        <ele>477.379</ele>
        <time>2021-10-12T08:10:56Z</time>
      </trkpt>
      <trkpt lat="37.182853" lon="-4.777571">
        <ele>476.342</ele>
        <time>2021-10-12T08:10:58Z</time>
      </trkpt>
      <trkpt lat="37.183293" lon="-4.778110">
        <ele>477.928</ele>
        <time>2021-10-12T08:11:00Z</time>
      </trkpt>
      <trkpt lat="37.183511" lon="-4.778379">
        <ele>477.297</ele>
        <time>2021-10-12T08:11:01Z</time>
      </trkpt>
      <trkpt lat="37.183727" lon="-4.778650">
        <ele>475.917</ele>
        <time>2021-10-12T08:11:02Z</time>
      </trkpt>
      <trkpt lat="37.184138" lon="-4.779206">
        <ele>474.198</ele>
        <time>2021-10-12T08:11:04Z</time>
      </trkpt>
      <trkpt lat="37.184332" lon="-4.779501">
        <ele>475.972</ele>
        <time>2021-10-12T08:11:05Z</time>
      </trkpt>
      <trkpt lat="37.184514" lon="-4.779807">
        <ele>477.913</ele>
        <time>2021-10-12T08:11:06Z</time>
      </trkpt>
      <trkpt lat="37.184689" lon="-4.780121">
        <ele>476.714</ele>
        <time>2021-10-12T08:11:07Z</time>
      </trkpt>
      <trkpt lat="37.185015" lon="-4.780719">
        <ele>471.308</ele>
        <time>2021-10-12T08:11:09Z</time>
      </trkpt>
      <trkpt lat="37.185172" lon="-4.781000">
        <ele>470.115</ele>
        <time>2021-10-12T08:11:10Z</time>
      </trkpt>
      <trkpt lat="37.185333" lon="-4.781265">
        <ele>469.733</ele>
        <time>2021-10-12T08:11:11Z</time>
      </trkpt>
      <trkpt lat="37.185682" lon="-4.781761">
        <ele>470.219</ele>
        <time>2021-10-12T08:11:13Z</time>
      </trkpt>
      <trkpt lat="37.185874" lon="-4.781994">
        <ele>469.212</ele>
        <time>2021-10-12T08:11:14Z</time>
      </trkpt>
      <trkpt lat="37.186076" lon="-4.782223">
        <ele>466.258</ele>
        <time>2021-10-12T08:11:15Z</time>
      </trkpt>
      <trkpt lat="37.186288" lon="-4.782449">
        <ele>465.127</ele>
        <time>2021-10-12T08:11:16Z</time>
      </trkpt>
      <trkpt lat="37.186749" lon="-4.782877">
        <ele>462.597</ele>
        <time>2021-10-12T08:11:18Z</time>
      </trkpt>
      <trkpt lat="37.186998" lon="-4.783073">
        <ele>460.798</ele>
        <time>2021-10-12T08:11:19Z</time>
      </trkpt>
      <trkpt lat="37.187517" lon="-4.783439">
        <ele>457.953</ele>
        <time>2021-10-12T08:11:21Z</time>
      </trkpt>
      <trkpt lat="37.187786" lon="-4.783609">
        <ele>456.004</ele>
        <time>2021-10-12T08:11:22Z</time>
      </trkpt>
      <trkpt lat="37.188330" lon="-4.783941">
        <ele>452.614</ele>
        <time>2021-10-12T08:11:24Z</time>
      </trkpt>
      <trkpt lat="37.188607" lon="-4.784112">
        <ele>450.208</ele>
        <time>2021-10-12T08:11:25Z</time>
      </trkpt>
      <trkpt lat="37.188885" lon="-4.784285">
        <ele>448.673</ele>
        <time>2021-10-12T08:11:26Z</time>
      </trkpt>
      <trkpt lat="37.189431" lon="-4.784642">
        <ele>446.331</ele>
        <time>2021-10-12T08:11:28Z</time>
      </trkpt>
      <trkpt lat="37.189694" lon="-4.784833">
        <ele>446.037</ele>
        <time>2021-10-12T08:11:29Z</time>
      </trkpt>
      <trkpt lat="37.190176" lon="-4.785242">
        <ele>444.410</ele>
        <time>2021-10-12T08:11:31Z</time>
      </trkpt>
      <trkpt lat="37.190403" lon="-4.785469">
        <ele>443.356</ele>
        <time>2021-10-12T08:11:32Z</time>
      </trkpt>
      <trkpt lat="37.190828" lon="-4.785952">
        <ele>439.665</ele>
        <time>2021-10-12T08:11:34Z</time>
      </trkpt>
      <trkpt lat="37.191222" lon="-4.786478">
        <ele>437.215</ele>
        <time>2021-10-12T08:11:36Z</time>
      </trkpt>
      <trkpt lat="37.191580" lon="-4.787062">
        <ele>434.266</ele>
        <time>2021-10-12T08:11:38Z</time>
      </trkpt>
      <trkpt lat="37.191749" lon="-4.787376">
        <ele>432.044</ele>
        <time>2021-10-12T08:11:39Z</time>
      </trkpt>
      <trkpt lat="37.192055" lon="-4.788041">
        <ele>427.805</ele>
        <time>2021-10-12T08:11:41Z</time>
      </trkpt>
      <trkpt lat="37.192333" lon="-4.788733">
        <ele>424.015</ele>
        <time>2021-10-12T08:11:43Z</time>
      </trkpt>
      <trkpt lat="37.192465" lon="-4.789085">
        <ele>422.208</ele>
        <time>2021-10-12T08:11:44Z</time>
      </trkpt>
      <trkpt lat="37.192719" lon="-4.789782">
        <ele>420.422</ele>
        <time>2021-10-12T08:11:46Z</time>
      </trkpt>
      <trkpt lat="37.192952" lon="-4.790446">
        <ele>416.460</ele>
        <time>2021-10-12T08:11:48Z</time>
      </trkpt>
      <trkpt lat="37.193068" lon="-4.790766">
        <ele>415.066</ele>
        <time>2021-10-12T08:11:49Z</time>
      </trkpt>
      <trkpt lat="37.193188" lon="-4.791080">
        <ele>413.649</ele>
        <time>2021-10-12T08:11:50Z</time>
      </trkpt>
      <trkpt lat="37.193440" lon="-4.791691">
        <ele>412.245</ele>
        <time>2021-10-12T08:11:52Z</time>
      </trkpt>
      <trkpt lat="37.193718" lon="-4.792282">
        <ele>413.384</ele>
        <time>2021-10-12T08:11:54Z</time>
      </trkpt>
      <trkpt lat="37.193874" lon="-4.792564">
        <ele>414.174</ele>
        <time>2021-10-12T08:11:55Z</time>
      </trkpt>
      <trkpt lat="37.194042" lon="-4.792846">
        <ele>413.485</ele>
        <time>2021-10-12T08:11:56Z</time>
      </trkpt>
      <trkpt lat="37.194402" lon="-4.793366">
        <ele>413.923</ele>
        <time>2021-10-12T08:11:58Z</time>
      </trkpt>
      <trkpt lat="37.194604" lon="-4.793623">
        <ele>414.683</ele>
        <time>2021-10-12T08:11:59Z</time>
      </trkpt>
      <trkpt lat="37.194814" lon="-4.793872">
        <ele>414.111</ele>
        <time>2021-10-12T08:12:00Z</time>
      </trkpt>
      <trkpt lat="37.195034" lon="-4.794113">
        <ele>414.008</ele>
        <time>2021-10-12T08:12:01Z</time>
      </trkpt>
      <trkpt lat="37.195513" lon="-4.794558">
        <ele>414.810</ele>
        <time>2021-10-12T08:12:03Z</time>
      </trkpt>
      <trkpt lat="37.195775" lon="-4.794762">
        <ele>416.748</ele>
        <time>2021-10-12T08:12:04Z</time>
      </trkpt>
      <trkpt lat="37.196311" lon="-4.795112">
        <ele>416.464</ele>
        <time>2021-10-12T08:12:06Z</time>
      </trkpt>
      <trkpt lat="37.196861" lon="-4.795403">
        <ele>416.827</ele>
        <time>2021-10-12T08:12:08Z</time>
      </trkpt>
      <trkpt lat="37.197440" lon="-4.795626">
        <ele>413.593</ele>
        <time>2021-10-12T08:12:10Z</time>
      </trkpt>
      <trkpt lat="37.197736" lon="-4.795713">
        <ele>412.162</ele>
        <time>2021-10-12T08:12:11Z</time>
      </trkpt>
      <trkpt lat="37.198032" lon="-4.795780">
        <ele>411.892</ele>
        <time>2021-10-12T08:12:12Z</time>
      </trkpt>
      <trkpt lat="37.198615" lon="-4.795862">
        <ele>411.183</ele>
        <time>2021-10-12T08:12:14Z</time>
      </trkpt>
      <trkpt lat="37.198907" lon="-4.795894">
        <ele>410.268</ele>
        <time>2021-10-12T08:12:15Z</time>
      </trkpt>
      <trkpt lat="37.199196" lon="-4.795927">
        <ele>410.442</ele>
        <time>2021-10-12T08:12:16Z</time>
      </trkpt>
      <trkpt lat="37.199483" lon="-4.795962">
        <ele>411.126</ele>
        <time>2021-10-12T08:12:17Z</time>
      </trkpt>
      <trkpt lat="37.199772" lon="-4.795999">
        <ele>411.608</ele>
        <time>2021-10-12T08:12:18Z</time>
      </trkpt>
      <trkpt lat="37.200067" lon="-4.796046">
        <ele>412.224</ele>
        <time>2021-10-12T08:12:19Z</time>
      </trkpt>
      <trkpt lat="37.200369" lon="-4.796111">
        <ele>411.762</ele>
        <time>2021-10-12T08:12:20Z</time>
      </trkpt>
      <trkpt lat="37.200968" lon="-4.796307">
        <ele>411.268</ele>
        <time>2021-10-12T08:12:22Z</time>
      </trkpt>
      <trkpt lat="37.201261" lon="-4.796428">
        <ele>411.151</ele>
        <time>2021-10-12T08:12:23Z</time>
      </trkpt>
      <trkpt lat="37.201839" lon="-4.796677">
        <ele>413.677</ele>
        <time>2021-10-12T08:12:25Z</time>
      </trkpt>
      <trkpt lat="37.202140" lon="-4.796803">
        <ele>413.986</ele>
        <time>2021-10-12T08:12:26Z</time>
      </trkpt>
      <trkpt lat="37.202727" lon="-4.797007">
        <ele>414.076</ele>
        <time>2021-10-12T08:12:28Z</time>
      </trkpt>
      <trkpt lat="37.203332" lon="-4.797133">
        <ele>414.067</ele>
        <time>2021-10-12T08:12:30Z</time>
      </trkpt>
      <trkpt lat="37.203950" lon="-4.797151">
        <ele>417.016</ele>
        <time>2021-10-12T08:12:32Z</time>
      </trkpt>
      <trkpt lat="37.204552" lon="-4.797114">
        <ele>418.476</ele>
        <time>2021-10-12T08:12:34Z</time>
      </trkpt>
      <trkpt lat="37.204856" lon="-4.797076">
        <ele>417.513</ele>
        <time>2021-10-12T08:12:35Z</time>
      </trkpt>
      <trkpt lat="37.205448" lon="-4.796944">
        <ele>416.008</ele>
        <time>2021-10-12T08:12:37Z</time>
      </trkpt>
      <trkpt lat="37.205745" lon="-4.796853">
        <ele>415.359</ele>
        <time>2021-10-12T08:12:38Z</time>
      </trkpt>
      <trkpt lat="37.206299" lon="-4.796623">
        <ele>415.747</ele>
        <time>2021-10-12T08:12:40Z</time>
      </trkpt>
      <trkpt lat="37.206569" lon="-4.796480">
        <ele>416.023</ele>
        <time>2021-10-12T08:12:41Z</time>
      </trkpt>
      <trkpt lat="37.207084" lon="-4.796154">
        <ele>416.496</ele>
        <time>2021-10-12T08:12:43Z</time>
      </trkpt>
      <trkpt lat="37.207339" lon="-4.795965">
        <ele>416.092</ele>
        <time>2021-10-12T08:12:44Z</time>
      </trkpt>
      <trkpt lat="37.207808" lon="-4.795563">
        <ele>416.981</ele>
        <time>2021-10-12T08:12:46Z</time>
      </trkpt>
      <trkpt lat="37.208039" lon="-4.795346">
        <ele>416.171</ele>
        <time>2021-10-12T08:12:47Z</time>
      </trkpt>
      <trkpt lat="37.208268" lon="-4.795123">
        <ele>415.232</ele>
        <time>2021-10-12T08:12:48Z</time>
      </trkpt>
      <trkpt lat="37.208722" lon="-4.794665">
        <ele>415.289</ele>
        <time>2021-10-12T08:12:50Z</time>
      </trkpt>
      <trkpt lat="37.209163" lon="-4.794196">
        <ele>415.906</ele>
        <time>2021-10-12T08:12:52Z</time>
      </trkpt>
      <trkpt lat="37.209385" lon="-4.793956">
        <ele>415.226</ele>
        <time>2021-10-12T08:12:53Z</time>
      </trkpt>
      <trkpt lat="37.209833" lon="-4.793484">
        <ele>413.908</ele>
        <time>2021-10-12T08:12:55Z</time>
      </trkpt>
      <trkpt lat="37.210067" lon="-4.793244">
        <ele>413.696</ele>
        <time>2021-10-12T08:12:56Z</time>
      </trkpt>
      <trkpt lat="37.210522" lon="-4.792805">
        <ele>413.174</ele>
        <time>2021-10-12T08:12:58Z</time>
      </trkpt>
      <trkpt lat="37.210764" lon="-4.792582">
        <ele>413.210</ele>
        <time>2021-10-12T08:12:59Z</time>
      </trkpt>
      <trkpt lat="37.211257" lon="-4.792151">
        <ele>411.463</ele>
        <time>2021-10-12T08:13:01Z</time>
      </trkpt>
      <trkpt lat="37.211514" lon="-4.791952">
        <ele>411.029</ele>
        <time>2021-10-12T08:13:02Z</time>
      </trkpt>
      <trkpt lat="37.212049" lon="-4.791586">
        <ele>408.448</ele>
        <time>2021-10-12T08:13:04Z</time>
      </trkpt>
      <trkpt lat="37.212596" lon="-4.791270">
        <ele>409.918</ele>
        <time>2021-10-12T08:13:06Z</time>
      </trkpt>
      <trkpt lat="37.212869" lon="-4.791127">
        <ele>410.349</ele>
        <time>2021-10-12T08:13:07Z</time>
      </trkpt>
      <trkpt lat="37.213147" lon="-4.790995">
        <ele>409.094</ele>
        <time>2021-10-12T08:13:08Z</time>
      </trkpt>
      <trkpt lat="37.213686" lon="-4.790749">
        <ele>406.957</ele>
        <time>2021-10-12T08:13:10Z</time>
      </trkpt>
      <trkpt lat="37.214233" lon="-4.790507">
        <ele>405.822</ele>
        <time>2021-10-12T08:13:12Z</time>
      </trkpt>
      <trkpt lat="37.214508" lon="-4.790388">
        <ele>405.608</ele>
        <time>2021-10-12T08:13:13Z</time>
      </trkpt>
      <trkpt lat="37.214784" lon="-4.790267">
        <ele>406.237</ele>
        <time>2021-10-12T08:13:14Z</time>
      </trkpt>
      <trkpt lat="37.215324" lon="-4.790026">
        <ele>408.055</ele>
        <time>2021-10-12T08:13:16Z</time>
      </trkpt>
      <trkpt lat="37.215593" lon="-4.789898">
        <ele>408.121</ele>
        <time>2021-10-12T08:13:17Z</time>
      </trkpt>
      <trkpt lat="37.215860" lon="-4.789764">
        <ele>406.854</ele>
        <time>2021-10-12T08:13:18Z</time>
      </trkpt>
      <trkpt lat="37.216391" lon="-4.789468">
        <ele>405.930</ele>
        <time>2021-10-12T08:13:20Z</time>
      </trkpt>
      <trkpt lat="37.216905" lon="-4.789136">
        <ele>405.019</ele>
        <time>2021-10-12T08:13:22Z</time>
      </trkpt>
      <trkpt lat="37.217409" lon="-4.788754">
        <ele>405.099</ele>
        <time>2021-10-12T08:13:24Z</time>
      </trkpt>
      <trkpt lat="37.217656" lon="-4.788552">
        <ele>404.920</ele>
        <time>2021-10-12T08:13:25Z</time>
      </trkpt>
      <trkpt lat="37.217905" lon="-4.788341">
        <ele>405.536</ele>
        <time>2021-10-12T08:13:26Z</time>
      </trkpt>
      <trkpt lat="37.218377" lon="-4.787927">
        <ele>405.517</ele>
        <time>2021-10-12T08:13:28Z</time>
      </trkpt>
      <trkpt lat="37.218619" lon="-4.787710">
        <ele>404.718</ele>
        <time>2021-10-12T08:13:29Z</time>
      </trkpt>
      <trkpt lat="37.219096" lon="-4.787280">
        <ele>401.508</ele>
        <time>2021-10-12T08:13:31Z</time>
      </trkpt>
      <trkpt lat="37.219338" lon="-4.787058">
        <ele>400.461</ele>
        <time>2021-10-12T08:13:32Z</time>
      </trkpt>
      <trkpt lat="37.219802" lon="-4.786645">
        <ele>401.029</ele>
        <time>2021-10-12T08:13:34Z</time>
      </trkpt>
      <trkpt lat="37.220041" lon="-4.786441">
        <ele>401.015</ele>
        <time>2021-10-12T08:13:35Z</time>
      </trkpt>
      <trkpt lat="37.220527" lon="-4.786060">
        <ele>399.868</ele>
        <time>2021-10-12T08:13:37Z</time>
      </trkpt>
      <trkpt lat="37.220775" lon="-4.785879">
        <ele>400.054</ele>
        <time>2021-10-12T08:13:38Z</time>
      </trkpt>
      <trkpt lat="37.221269" lon="-4.785545">
        <ele>401.573</ele>
        <time>2021-10-12T08:13:40Z</time>
      </trkpt>
      <trkpt lat="37.221791" lon="-4.785243">
        <ele>400.933</ele>
        <time>2021-10-12T08:13:42Z</time>
      </trkpt>
      <trkpt lat="37.222064" lon="-4.785107">
        <ele>400.174</ele>
        <time>2021-10-12T08:13:43Z</time>
      </trkpt>
      <trkpt lat="37.222350" lon="-4.784979">
        <ele>398.947</ele>
        <time>2021-10-12T08:13:44Z</time>
      </trkpt>
      <trkpt lat="37.222930" lon="-4.784762">
        <ele>399.129</ele>
        <time>2021-10-12T08:13:46Z</time>
      </trkpt>
      <trkpt lat="37.223234" lon="-4.784665">
        <ele>400.221</ele>
        <time>2021-10-12T08:13:47Z</time>
      </trkpt>
      <trkpt lat="37.223544" lon="-4.784578">
        <ele>402.008</ele>
        <time>2021-10-12T08:13:48Z</time>
      </trkpt>
      <trkpt lat="37.224167" lon="-4.784436">
        <ele>400.042</ele>
        <time>2021-10-12T08:13:50Z</time>
      </trkpt>
      <trkpt lat="37.224800" lon="-4.784363">
        <ele>399.190</ele>
        <time>2021-10-12T08:13:52Z</time>
      </trkpt>
      <trkpt lat="37.225443" lon="-4.784342">
        <ele>399.026</ele>
        <time>2021-10-12T08:13:54Z</time>
      </trkpt>
      <trkpt lat="37.225764" lon="-4.784346">
        <ele>398.269</ele>
        <time>2021-10-12T08:13:55Z</time>
      </trkpt>
      <trkpt lat="37.226086" lon="-4.784360">
        <ele>396.875</ele>
        <time>2021-10-12T08:13:56Z</time>
      </trkpt>
      <trkpt lat="37.226405" lon="-4.784376">
        <ele>395.854</ele>
        <time>2021-10-12T08:13:57Z</time>
      </trkpt>
      <trkpt lat="37.227038" lon="-4.784427">
        <ele>395.024</ele>
        <time>2021-10-12T08:13:59Z</time>
      </trkpt>
      <trkpt lat="37.227360" lon="-4.784460">
        <ele>395.095</ele>
        <time>2021-10-12T08:14:00Z</time>
      </trkpt>
      <trkpt lat="37.227993" lon="-4.784522">
        <ele>393.265</ele>
        <time>2021-10-12T08:14:02Z</time>
      </trkpt>
      <trkpt lat="37.228620" lon="-4.784583">
        <ele>394.568</ele>
        <time>2021-10-12T08:14:04Z</time>
      </trkpt>
      <trkpt lat="37.228929" lon="-4.784607">
        <ele>392.914</ele>
        <time>2021-10-12T08:14:05Z</time>
      </trkpt>
      <trkpt lat="37.229540" lon="-4.784658">
        <ele>393.308</ele>
        <time>2021-10-12T08:14:07Z</time>
      </trkpt>
      <trkpt lat="37.229848" lon="-4.784690">
        <ele>394.364</ele>
        <time>2021-10-12T08:14:08Z</time>
      </trkpt>
      <trkpt lat="37.230450" lon="-4.784750">
        <ele>395.952</ele>
        <time>2021-10-12T08:14:10Z</time>
      </trkpt>
      <trkpt lat="37.231055" lon="-4.784808">
        <ele>392.418</ele>
        <time>2021-10-12T08:14:12Z</time>
      </trkpt>
      <trkpt lat="37.231660" lon="-4.784867">
        <ele>392.041</ele>
        <time>2021-10-12T08:14:14Z</time>
      </trkpt>
      <trkpt lat="37.232266" lon="-4.784945">
        <ele>389.867</ele>
        <time>2021-10-12T08:14:16Z</time>
      </trkpt>
      <trkpt lat="37.232574" lon="-4.784997">
        <ele>389.756</ele>
        <time>2021-10-12T08:14:17Z</time>
      </trkpt>
      <trkpt lat="37.232883" lon="-4.785055">
        <ele>389.326</ele>
        <time>2021-10-12T08:14:18Z</time>
      </trkpt>
      <trkpt lat="37.233512" lon="-4.785181">
        <ele>390.097</ele>
        <time>2021-10-12T08:14:20Z</time>
      </trkpt>
      <trkpt lat="37.234130" lon="-4.785304">
        <ele>387.968</ele>
        <time>2021-10-12T08:14:22Z</time>
      </trkpt>
      <trkpt lat="37.234439" lon="-4.785368">
        <ele>388.042</ele>
        <time>2021-10-12T08:14:23Z</time>
      </trkpt>
      <trkpt lat="37.235032" lon="-4.785492">
        <ele>390.026</ele>
        <time>2021-10-12T08:14:25Z</time>
      </trkpt>
      <trkpt lat="37.235326" lon="-4.785554">
        <ele>390.008</ele>
        <time>2021-10-12T08:14:26Z</time>
      </trkpt>
      <trkpt lat="37.235899" lon="-4.785673">
        <ele>388.724</ele>
        <time>2021-10-12T08:14:28Z</time>
      </trkpt>
      <trkpt lat="37.236478" lon="-4.785791">
        <ele>387.372</ele>
        <time>2021-10-12T08:14:30Z</time>
      </trkpt>
      <trkpt lat="37.237072" lon="-4.785907">
        <ele>384.438</ele>
        <time>2021-10-12T08:14:32Z</time>
      </trkpt>
      <trkpt lat="37.237375" lon="-4.785970">
        <ele>384.651</ele>
        <time>2021-10-12T08:14:33Z</time>
      </trkpt>
      <trkpt lat="37.237989" lon="-4.786085">
        <ele>385.327</ele>
        <time>2021-10-12T08:14:35Z</time>
      </trkpt>
      <trkpt lat="37.238301" lon="-4.786133">
        <ele>384.176</ele>
        <time>2021-10-12T08:14:36Z</time>
      </trkpt>
      <trkpt lat="37.238932" lon="-4.786184">
        <ele>383.696</ele>
        <time>2021-10-12T08:14:38Z</time>
      </trkpt>
      <trkpt lat="37.239552" lon="-4.786211">
        <ele>383.257</ele>
        <time>2021-10-12T08:14:40Z</time>
      </trkpt>
      <trkpt lat="37.239870" lon="-4.786226">
        <ele>383.059</ele>
        <time>2021-10-12T08:14:41Z</time>
      </trkpt>
      <trkpt lat="37.240184" lon="-4.786242">
        <ele>382.303</ele>
        <time>2021-10-12T08:14:42Z</time>
      </trkpt>
      <trkpt lat="37.240496" lon="-4.786258">
        <ele>382.023</ele>
        <time>2021-10-12T08:14:43Z</time>
      </trkpt>
      <trkpt lat="37.240811" lon="-4.786274">
        <ele>381.608</ele>
        <time>2021-10-12T08:14:44Z</time>
      </trkpt>
      <trkpt lat="37.241423" lon="-4.786306">
        <ele>378.933</ele>
        <time>2021-10-12T08:14:46Z</time>
      </trkpt>
      <trkpt lat="37.241738" lon="-4.786323">
        <ele>378.251</ele>
        <time>2021-10-12T08:14:47Z</time>
      </trkpt>
      <trkpt lat="37.242045" lon="-4.786340">
        <ele>378.147</ele>
        <time>2021-10-12T08:14:48Z</time>
      </trkpt>
      <trkpt lat="37.242655" lon="-4.786374">
        <ele>380.690</ele>
        <time>2021-10-12T08:14:50Z</time>
      </trkpt>
      <trkpt lat="37.243255" lon="-4.786406">
        <ele>378.596</ele>
        <time>2021-10-12T08:14:52Z</time>
      </trkpt>
      <trkpt lat="37.243554" lon="-4.786422">
        <ele>378.085</ele>
        <time>2021-10-12T08:14:53Z</time>
      </trkpt>
      <trkpt lat="37.244155" lon="-4.786457">
        <ele>379.025</ele>
        <time>2021-10-12T08:14:55Z</time>
      </trkpt>
      <trkpt lat="37.244466" lon="-4.786483">
        <ele>379.466</ele>
        <time>2021-10-12T08:14:56Z</time>
      </trkpt>
      <trkpt lat="37.245058" lon="-4.786578">
        <ele>381.551</ele>
        <time>2021-10-12T08:14:58Z</time>
      </trkpt>
      <trkpt lat="37.245362" lon="-4.786658">
        <ele>380.701</ele>
        <time>2021-10-12T08:14:59Z</time>
      </trkpt>
      <trkpt lat="37.245950" lon="-4.786886">
        <ele>379.711</ele>
        <time>2021-10-12T08:15:01Z</time>
      </trkpt>
      <trkpt lat="37.246249" lon="-4.787022">
        <ele>379.008</ele>
        <time>2021-10-12T08:15:02Z</time>
      </trkpt>
      <trkpt lat="37.246826" lon="-4.787274">
        <ele>377.533</ele>
        <time>2021-10-12T08:15:04Z</time>
      </trkpt>
      <trkpt lat="37.247120" lon="-4.787401">
        <ele>377.921</ele>
        <time>2021-10-12T08:15:05Z</time>
      </trkpt>
      <trkpt lat="37.247706" lon="-4.787663">
        <ele>376.547</ele>
        <time>2021-10-12T08:15:07Z</time>
      </trkpt>
      <trkpt lat="37.248004" lon="-4.787796">
        <ele>376.070</ele>
        <time>2021-10-12T08:15:08Z</time>
      </trkpt>
      <trkpt lat="37.248586" lon="-4.788056">
        <ele>377.016</ele>
        <time>2021-10-12T08:15:10Z</time>
      </trkpt>
      <trkpt lat="37.249171" lon="-4.788314">
        <ele>376.975</ele>
        <time>2021-10-12T08:15:12Z</time>
      </trkpt>
      <trkpt lat="37.249463" lon="-4.788441">
        <ele>378.485</ele>
        <time>2021-10-12T08:15:13Z</time>
      </trkpt>
      <trkpt lat="37.249759" lon="-4.788570">
        <ele>378.916</ele>
        <time>2021-10-12T08:15:14Z</time>
      </trkpt>
      <trkpt lat="37.250335" lon="-4.788812">
        <ele>378.556</ele>
        <time>2021-10-12T08:15:16Z</time>
      </trkpt>
      <trkpt lat="37.250625" lon="-4.788934">
        <ele>378.059</ele>
        <time>2021-10-12T08:15:17Z</time>
      </trkpt>
      <trkpt lat="37.251203" lon="-4.789178">
        <ele>380.714</ele>
        <time>2021-10-12T08:15:19Z</time>
      </trkpt>
      <trkpt lat="37.251499" lon="-4.789304">
        <ele>379.408</ele>
        <time>2021-10-12T08:15:20Z</time>
      </trkpt>
      <trkpt lat="37.252078" lon="-4.789564">
        <ele>378.713</ele>
        <time>2021-10-12T08:15:22Z</time>
      </trkpt>
      <trkpt lat="37.252372" lon="-4.789702">
        <ele>379.631</ele>
        <time>2021-10-12T08:15:23Z</time>
      </trkpt>
      <trkpt lat="37.252966" lon="-4.789970">
        <ele>383.677</ele>
        <time>2021-10-12T08:15:25Z</time>
      </trkpt>
      <trkpt lat="37.253276" lon="-4.790105">
        <ele>385.250</ele>
        <time>2021-10-12T08:15:26Z</time>
      </trkpt>
      <trkpt lat="37.253873" lon="-4.790356">
        <ele>384.326</ele>
        <time>2021-10-12T08:15:28Z</time>
      </trkpt>
      <trkpt lat="37.254489" lon="-4.790615">
        <ele>383.325</ele>
        <time>2021-10-12T08:15:30Z</time>
      </trkpt>
      <trkpt lat="37.255110" lon="-4.790862">
        <ele>385.145</ele>
        <time>2021-10-12T08:15:32Z</time>
      </trkpt>
      <trkpt lat="37.255711" lon="-4.791086">
        <ele>385.316</ele>
        <time>2021-10-12T08:15:34Z</time>
      </trkpt>
      <trkpt lat="37.256309" lon="-4.791361">
        <ele>386.468</ele>
        <time>2021-10-12T08:15:36Z</time>
      </trkpt>
      <trkpt lat="37.256899" lon="-4.791670">
        <ele>387.242</ele>
        <time>2021-10-12T08:15:38Z</time>
      </trkpt>
      <trkpt lat="37.257487" lon="-4.791960">
        <ele>385.126</ele>
        <time>2021-10-12T08:15:40Z</time>
      </trkpt>
      <trkpt lat="37.258074" lon="-4.792252">
        <ele>383.108</ele>
        <time>2021-10-12T08:15:42Z</time>
      </trkpt>
      <trkpt lat="37.258674" lon="-4.792554">
        <ele>383.364</ele>
        <time>2021-10-12T08:15:44Z</time>
      </trkpt>
      <trkpt lat="37.259234" lon="-4.792828">
        <ele>382.922</ele>
        <time>2021-10-12T08:15:46Z</time>
      </trkpt>
      <trkpt lat="37.259510" lon="-4.792966">
        <ele>382.788</ele>
        <time>2021-10-12T08:15:47Z</time>
      </trkpt>
      <trkpt lat="37.259781" lon="-4.793106">
        <ele>382.851</ele>
        <time>2021-10-12T08:15:48Z</time>
      </trkpt>
      <trkpt lat="37.260338" lon="-4.793381">
        <ele>380.097</ele>
        <time>2021-10-12T08:15:50Z</time>
      </trkpt>
      <trkpt lat="37.260911" lon="-4.793665">
        <ele>378.696</ele>
        <time>2021-10-12T08:15:52Z</time>
      </trkpt>
      <trkpt lat="37.261209" lon="-4.793814">
        <ele>377.786</ele>
        <time>2021-10-12T08:15:53Z</time>
      </trkpt>
      <trkpt lat="37.261510" lon="-4.793966">
        <ele>377.317</ele>
        <time>2021-10-12T08:15:54Z</time>
      </trkpt>
      <trkpt lat="37.261809" lon="-4.794121">
        <ele>375.096</ele>
        <time>2021-10-12T08:15:55Z</time>
      </trkpt>
      <trkpt lat="37.262115" lon="-4.794273">
        <ele>373.431</ele>
        <time>2021-10-12T08:15:56Z</time>
      </trkpt>
      <trkpt lat="37.262716" lon="-4.794572">
        <ele>372.424</ele>
        <time>2021-10-12T08:15:58Z</time>
      </trkpt>
      <trkpt lat="37.263019" lon="-4.794723">
        <ele>372.108</ele>
        <time>2021-10-12T08:15:59Z</time>
      </trkpt>
      <trkpt lat="37.263320" lon="-4.794873">
        <ele>371.277</ele>
        <time>2021-10-12T08:16:00Z</time>
      </trkpt>
      <trkpt lat="37.263923" lon="-4.795178">
        <ele>369.995</ele>
        <time>2021-10-12T08:16:02Z</time>
      </trkpt>
      <trkpt lat="37.264499" lon="-4.795471">
        <ele>369.081</ele>
        <time>2021-10-12T08:16:04Z</time>
      </trkpt>
      <trkpt lat="37.265085" lon="-4.795765">
        <ele>368.144</ele>
        <time>2021-10-12T08:16:06Z</time>
      </trkpt>
      <trkpt lat="37.265379" lon="-4.795914">
        <ele>367.790</ele>
        <time>2021-10-12T08:16:07Z</time>
      </trkpt>
      <trkpt lat="37.265668" lon="-4.796065">
        <ele>367.689</ele>
        <time>2021-10-12T08:16:08Z</time>
      </trkpt>
      <trkpt lat="37.266239" lon="-4.796353">
        <ele>366.129</ele>
        <time>2021-10-12T08:16:10Z</time>
      </trkpt>
      <trkpt lat="37.266810" lon="-4.796646">
        <ele>366.010</ele>
        <time>2021-10-12T08:16:12Z</time>
      </trkpt>
      <trkpt lat="37.267094" lon="-4.796790">
        <ele>366.483</ele>
        <time>2021-10-12T08:16:13Z</time>
      </trkpt>
      <trkpt lat="37.267385" lon="-4.796933">
        <ele>366.425</ele>
        <time>2021-10-12T08:16:14Z</time>
      </trkpt>
      <trkpt lat="37.267946" lon="-4.797212">
        <ele>366.017</ele>
        <time>2021-10-12T08:16:16Z</time>
      </trkpt>
      <trkpt lat="37.268230" lon="-4.797359">
        <ele>367.108</ele>
        <time>2021-10-12T08:16:17Z</time>
      </trkpt>
      <trkpt lat="37.268790" lon="-4.797647">
        <ele>371.046</ele>
        <time>2021-10-12T08:16:19Z</time>
      </trkpt>
      <trkpt lat="37.269076" lon="-4.797793">
        <ele>369.694</ele>
        <time>2021-10-12T08:16:20Z</time>
      </trkpt>
      <trkpt lat="37.269629" lon="-4.798075">
        <ele>369.890</ele>
        <time>2021-10-12T08:16:22Z</time>
      </trkpt>
      <trkpt lat="37.269910" lon="-4.798218">
        <ele>370.993</ele>
        <time>2021-10-12T08:16:23Z</time>
      </trkpt>
      <trkpt lat="37.270197" lon="-4.798360">
        <ele>371.579</ele>
        <time>2021-10-12T08:16:24Z</time>
      </trkpt>
      <trkpt lat="37.270793" lon="-4.798658">
        <ele>371.988</ele>
        <time>2021-10-12T08:16:26Z</time>
      </trkpt>
      <trkpt lat="37.271383" lon="-4.798954">
        <ele>378.758</ele>
        <time>2021-10-12T08:16:28Z</time>
      </trkpt>
      <trkpt lat="37.271990" lon="-4.799259">
        <ele>380.219</ele>
        <time>2021-10-12T08:16:30Z</time>
      </trkpt>
      <trkpt lat="37.272292" lon="-4.799411">
        <ele>381.913</ele>
        <time>2021-10-12T08:16:31Z</time>
      </trkpt>
      <trkpt lat="37.272594" lon="-4.799569">
        <ele>382.343</ele>
        <time>2021-10-12T08:16:32Z</time>
      </trkpt>
      <trkpt lat="37.273153" lon="-4.799883">
        <ele>383.407</ele>
        <time>2021-10-12T08:16:34Z</time>
      </trkpt>
      <trkpt lat="37.273427" lon="-4.800062">
        <ele>383.708</ele>
        <time>2021-10-12T08:16:35Z</time>
      </trkpt>
      <trkpt lat="37.273691" lon="-4.800260">
        <ele>385.559</ele>
        <time>2021-10-12T08:16:36Z</time>
      </trkpt>
      <trkpt lat="37.274193" lon="-4.800719">
        <ele>389.687</ele>
        <time>2021-10-12T08:16:38Z</time>
      </trkpt>
      <trkpt lat="37.274649" lon="-4.801243">
        <ele>391.933</ele>
        <time>2021-10-12T08:16:40Z</time>
      </trkpt>
      <trkpt lat="37.274868" lon="-4.801537">
        <ele>392.086</ele>
        <time>2021-10-12T08:16:41Z</time>
      </trkpt>
      <trkpt lat="37.275255" lon="-4.802166">
        <ele>395.652</ele>
        <time>2021-10-12T08:16:43Z</time>
      </trkpt>
      <trkpt lat="37.275430" lon="-4.802509">
        <ele>397.511</ele>
        <time>2021-10-12T08:16:44Z</time>
      </trkpt>
      <trkpt lat="37.275719" lon="-4.803220">
        <ele>398.181</ele>
        <time>2021-10-12T08:16:46Z</time>
      </trkpt>
      <trkpt lat="37.275839" lon="-4.803600">
        <ele>398.122</ele>
        <time>2021-10-12T08:16:47Z</time>
      </trkpt>
      <trkpt lat="37.275944" lon="-4.803985">
        <ele>400.065</ele>
        <time>2021-10-12T08:16:48Z</time>
      </trkpt>
      <trkpt lat="37.276102" lon="-4.804767">
        <ele>398.268</ele>
        <time>2021-10-12T08:16:50Z</time>
      </trkpt>
      <trkpt lat="37.276181" lon="-4.805532">
        <ele>400.414</ele>
        <time>2021-10-12T08:16:52Z</time>
      </trkpt>
      <trkpt lat="37.276185" lon="-4.806299">
        <ele>400.308</ele>
        <time>2021-10-12T08:16:54Z</time>
      </trkpt>
      <trkpt lat="37.276126" lon="-4.807037">
        <ele>403.154</ele>
        <time>2021-10-12T08:16:56Z</time>
      </trkpt>
      <trkpt lat="37.276040" lon="-4.807688">
        <ele>400.392</ele>
        <time>2021-10-12T08:16:58Z</time>
      </trkpt>
      <trkpt lat="37.275994" lon="-4.808011">
        <ele>399.598</ele>
        <time>2021-10-12T08:16:59Z</time>
      </trkpt>
      <trkpt lat="37.275913" lon="-4.808661">
        <ele>398.321</ele>
        <time>2021-10-12T08:17:01Z</time>
      </trkpt>
      <trkpt lat="37.275834" lon="-4.809316">
        <ele>393.487</ele>
        <time>2021-10-12T08:17:03Z</time>
      </trkpt>
      <trkpt lat="37.275794" lon="-4.809645">
        <ele>390.996</ele>
        <time>2021-10-12T08:17:04Z</time>
      </trkpt>
      <trkpt lat="37.275714" lon="-4.810306">
        <ele>389.146</ele>
        <time>2021-10-12T08:17:06Z</time>
      </trkpt>
      <trkpt lat="37.275635" lon="-4.810969">
        <ele>387.997</ele>
        <time>2021-10-12T08:17:08Z</time>
      </trkpt>
      <trkpt lat="37.275556" lon="-4.811616">
        <ele>389.075</ele>
        <time>2021-10-12T08:17:10Z</time>
      </trkpt>
      <trkpt lat="37.275469" lon="-4.812260">
        <ele>390.828</ele>
        <time>2021-10-12T08:17:12Z</time>
      </trkpt>
      <trkpt lat="37.275427" lon="-4.812582">
        <ele>392.120</ele>
        <time>2021-10-12T08:17:13Z</time>
      </trkpt>
      <trkpt lat="37.275388" lon="-4.812909">
        <ele>392.808</ele>
        <time>2021-10-12T08:17:14Z</time>
      </trkpt>
      <trkpt lat="37.275311" lon="-4.813547">
        <ele>396.515</ele>
        <time>2021-10-12T08:17:16Z</time>
      </trkpt>
      <trkpt lat="37.275271" lon="-4.813873">
        <ele>400.733</ele>
        <time>2021-10-12T08:17:17Z</time>
      </trkpt>
      <trkpt lat="37.275192" lon="-4.814515">
        <ele>404.619</ele>
        <time>2021-10-12T08:17:19Z</time>
      </trkpt>
      <trkpt lat="37.275151" lon="-4.814842">
        <ele>405.992</ele>
        <time>2021-10-12T08:17:20Z</time>
      </trkpt>
      <trkpt lat="37.275070" lon="-4.815465">
        <ele>407.968</ele>
        <time>2021-10-12T08:17:22Z</time>
      </trkpt>
      <trkpt lat="37.274993" lon="-4.816103">
        <ele>408.017</ele>
        <time>2021-10-12T08:17:24Z</time>
      </trkpt>
      <trkpt lat="37.274954" lon="-4.816425">
        <ele>409.277</ele>
        <time>2021-10-12T08:17:25Z</time>
      </trkpt>
      <trkpt lat="37.274913" lon="-4.816761">
        <ele>410.848</ele>
        <time>2021-10-12T08:17:26Z</time>
      </trkpt>
      <trkpt lat="37.274830" lon="-4.817409">
        <ele>413.595</ele>
        <time>2021-10-12T08:17:28Z</time>
      </trkpt>
      <trkpt lat="37.274749" lon="-4.818087">
        <ele>413.149</ele>
        <time>2021-10-12T08:17:30Z</time>
      </trkpt>
      <trkpt lat="37.274666" lon="-4.818777">
        <ele>412.923</ele>
        <time>2021-10-12T08:17:32Z</time>
      </trkpt>
      <trkpt lat="37.274581" lon="-4.819468">
        <ele>414.208</ele>
        <time>2021-10-12T08:17:34Z</time>
      </trkpt>
      <trkpt lat="37.274499" lon="-4.820160">
        <ele>419.637</ele>
        <time>2021-10-12T08:17:36Z</time>
      </trkpt>
      <trkpt lat="37.274429" lon="-4.820862">
        <ele>419.985</ele>
        <time>2021-10-12T08:17:38Z</time>
      </trkpt>
      <trkpt lat="37.274387" lon="-4.821553">
        <ele>420.521</ele>
        <time>2021-10-12T08:17:40Z</time>
      </trkpt>
      <trkpt lat="37.274385" lon="-4.821909">
        <ele>422.154</ele>
        <time>2021-10-12T08:17:41Z</time>
      </trkpt>
      <trkpt lat="37.274420" lon="-4.822617">
        <ele>426.870</ele>
        <time>2021-10-12T08:17:43Z</time>
      </trkpt>
      <trkpt lat="37.274454" lon="-4.822976">
        <ele>428.019</ele>
        <time>2021-10-12T08:17:44Z</time>
      </trkpt>
      <trkpt lat="37.274540" lon="-4.823668">
        <ele>431.719</ele>
        <time>2021-10-12T08:17:46Z</time>
      </trkpt>
      <trkpt lat="37.274642" lon="-4.824368">
        <ele>434.110</ele>
        <time>2021-10-12T08:17:48Z</time>
      </trkpt>
      <trkpt lat="37.274744" lon="-4.825067">
        <ele>435.293</ele>
        <time>2021-10-12T08:17:50Z</time>
      </trkpt>
      <trkpt lat="37.274835" lon="-4.825746">
        <ele>438.065</ele>
        <time>2021-10-12T08:17:52Z</time>
      </trkpt>
      <trkpt lat="37.274883" lon="-4.826089">
        <ele>439.421</ele>
        <time>2021-10-12T08:17:53Z</time>
      </trkpt>
      <trkpt lat="37.274982" lon="-4.826774">
        <ele>445.108</ele>
        <time>2021-10-12T08:17:55Z</time>
      </trkpt>
      <trkpt lat="37.275075" lon="-4.827459">
        <ele>449.447</ele>
        <time>2021-10-12T08:17:57Z</time>
      </trkpt>
      <trkpt lat="37.275122" lon="-4.827800">
        <ele>449.955</ele>
        <time>2021-10-12T08:17:58Z</time>
      </trkpt>
      <trkpt lat="37.275216" lon="-4.828483">
        <ele>452.441</ele>
        <time>2021-10-12T08:18:00Z</time>
      </trkpt>
      <trkpt lat="37.275313" lon="-4.829157">
        <ele>458.474</ele>
        <time>2021-10-12T08:18:02Z</time>
      </trkpt>
      <trkpt lat="37.275407" lon="-4.829834">
        <ele>461.030</ele>
        <time>2021-10-12T08:18:04Z</time>
      </trkpt>
      <trkpt lat="37.275452" lon="-4.830172">
        <ele>463.669</ele>
        <time>2021-10-12T08:18:05Z</time>
      </trkpt>
      <trkpt lat="37.275498" lon="-4.830512">
        <ele>465.659</ele>
        <time>2021-10-12T08:18:06Z</time>
      </trkpt>
      <trkpt lat="37.275590" lon="-4.831191">
        <ele>465.410</ele>
        <time>2021-10-12T08:18:08Z</time>
      </trkpt>
      <trkpt lat="37.275680" lon="-4.831851">
        <ele>468.621</ele>
        <time>2021-10-12T08:18:10Z</time>
      </trkpt>
      <trkpt lat="37.275726" lon="-4.832180">
        <ele>469.841</ele>
        <time>2021-10-12T08:18:11Z</time>
      </trkpt>
      <trkpt lat="37.275822" lon="-4.832837">
        <ele>472.305</ele>
        <time>2021-10-12T08:18:13Z</time>
      </trkpt>
      <trkpt lat="37.275868" lon="-4.833174">
        <ele>475.708</ele>
        <time>2021-10-12T08:18:14Z</time>
      </trkpt>
      <trkpt lat="37.275966" lon="-4.833830">
        <ele>478.470</ele>
        <time>2021-10-12T08:18:16Z</time>
      </trkpt>
      <trkpt lat="37.276015" lon="-4.834166">
        <ele>478.618</ele>
        <time>2021-10-12T08:18:17Z</time>
      </trkpt>
      <trkpt lat="37.276065" lon="-4.834501">
        <ele>479.394</ele>
        <time>2021-10-12T08:18:18Z</time>
      </trkpt>
      <trkpt lat="37.276175" lon="-4.835174">
        <ele>481.127</ele>
        <time>2021-10-12T08:18:20Z</time>
      </trkpt>
      <trkpt lat="37.276329" lon="-4.835832">
        <ele>483.343</ele>
        <time>2021-10-12T08:18:22Z</time>
      </trkpt>
      <trkpt lat="37.276425" lon="-4.836167">
        <ele>485.352</ele>
        <time>2021-10-12T08:18:23Z</time>
      </trkpt>
      <trkpt lat="37.276531" lon="-4.836503">
        <ele>485.922</ele>
        <time>2021-10-12T08:18:24Z</time>
      </trkpt>
      <trkpt lat="37.276766" lon="-4.837181">
        <ele>486.183</ele>
        <time>2021-10-12T08:18:26Z</time>
      </trkpt>
      <trkpt lat="37.276893" lon="-4.837531">
        <ele>489.168</ele>
        <time>2021-10-12T08:18:27Z</time>
      </trkpt>
      <trkpt lat="37.277020" lon="-4.837882">
        <ele>488.642</ele>
        <time>2021-10-12T08:18:28Z</time>
      </trkpt>
      <trkpt lat="37.277278" lon="-4.838598">
        <ele>488.226</ele>
        <time>2021-10-12T08:18:30Z</time>
      </trkpt>
      <trkpt lat="37.277534" lon="-4.839322">
        <ele>489.508</ele>
        <time>2021-10-12T08:18:32Z</time>
      </trkpt>
      <trkpt lat="37.277792" lon="-4.840027">
        <ele>492.254</ele>
        <time>2021-10-12T08:18:34Z</time>
      </trkpt>
      <trkpt lat="37.278047" lon="-4.840729">
        <ele>495.022</ele>
        <time>2021-10-12T08:18:36Z</time>
      </trkpt>
      <trkpt lat="37.278306" lon="-4.841455">
        <ele>497.718</ele>
        <time>2021-10-12T08:18:38Z</time>
      </trkpt>
      <trkpt lat="37.278551" lon="-4.842155">
        <ele>502.051</ele>
        <time>2021-10-12T08:18:40Z</time>
      </trkpt>
      <trkpt lat="37.278680" lon="-4.842511">
        <ele>502.097</ele>
        <time>2021-10-12T08:18:41Z</time>
      </trkpt>
      <trkpt lat="37.278934" lon="-4.843230">
        <ele>502.536</ele>
        <time>2021-10-12T08:18:43Z</time>
      </trkpt>
      <trkpt lat="37.279066" lon="-4.843603">
        <ele>502.426</ele>
        <time>2021-10-12T08:18:44Z</time>
      </trkpt>
      <trkpt lat="37.279311" lon="-4.844296">
        <ele>500.757</ele>
        <time>2021-10-12T08:18:46Z</time>
      </trkpt>
      <trkpt lat="37.279562" lon="-4.844974">
        <ele>500.744</ele>
        <time>2021-10-12T08:18:48Z</time>
      </trkpt>
      <trkpt lat="37.279819" lon="-4.845671">
        <ele>497.705</ele>
        <time>2021-10-12T08:18:50Z</time>
      </trkpt>
      <trkpt lat="37.280074" lon="-4.846363">
        <ele>497.615</ele>
        <time>2021-10-12T08:18:52Z</time>
      </trkpt>
      <trkpt lat="37.280204" lon="-4.846720">
        <ele>499.908</ele>
        <time>2021-10-12T08:18:53Z</time>
      </trkpt>
      <trkpt lat="37.280455" lon="-4.847425">
        <ele>501.462</ele>
        <time>2021-10-12T08:18:55Z</time>
      </trkpt>
      <trkpt lat="37.280582" lon="-4.847775">
        <ele>503.060</ele>
        <time>2021-10-12T08:18:56Z</time>
      </trkpt>
      <trkpt lat="37.280835" lon="-4.848470">
        <ele>505.036</ele>
        <time>2021-10-12T08:18:58Z</time>
      </trkpt>
      <trkpt lat="37.280961" lon="-4.848819">
        <ele>506.789</ele>
        <time>2021-10-12T08:18:59Z</time>
      </trkpt>
      <trkpt lat="37.281086" lon="-4.849167">
        <ele>507.935</ele>
        <time>2021-10-12T08:19:00Z</time>
      </trkpt>
      <trkpt lat="37.281211" lon="-4.849515">
        <ele>509.924</ele>
        <time>2021-10-12T08:19:01Z</time>
      </trkpt>
      <trkpt lat="37.281337" lon="-4.849866">
        <ele>512.484</ele>
        <time>2021-10-12T08:19:02Z</time>
      </trkpt>
      <trkpt lat="37.281462" lon="-4.850217">
        <ele>514.415</ele>
        <time>2021-10-12T08:19:03Z</time>
      </trkpt>
      <trkpt lat="37.281708" lon="-4.850923">
        <ele>515.076</ele>
        <time>2021-10-12T08:19:05Z</time>
      </trkpt>
      <trkpt lat="37.281960" lon="-4.851614">
        <ele>515.990</ele>
        <time>2021-10-12T08:19:07Z</time>
      </trkpt>
      <trkpt lat="37.282090" lon="-4.851969">
        <ele>512.819</ele>
        <time>2021-10-12T08:19:08Z</time>
      </trkpt>
      <trkpt lat="37.282341" lon="-4.852660">
        <ele>510.508</ele>
        <time>2021-10-12T08:19:10Z</time>
      </trkpt>
      <trkpt lat="37.282589" lon="-4.853369">
        <ele>505.975</ele>
        <time>2021-10-12T08:19:12Z</time>
      </trkpt>
      <trkpt lat="37.282715" lon="-4.853726">
        <ele>504.293</ele>
        <time>2021-10-12T08:19:13Z</time>
      </trkpt>
      <trkpt lat="37.282845" lon="-4.854085">
        <ele>504.159</ele>
        <time>2021-10-12T08:19:14Z</time>
      </trkpt>
      <trkpt lat="37.283103" lon="-4.854806">
        <ele>501.422</ele>
        <time>2021-10-12T08:19:16Z</time>
      </trkpt>
      <trkpt lat="37.283369" lon="-4.855534">
        <ele>497.468</ele>
        <time>2021-10-12T08:19:18Z</time>
      </trkpt>
      <trkpt lat="37.283665" lon="-4.856251">
        <ele>496.027</ele>
        <time>2021-10-12T08:19:20Z</time>
      </trkpt>
      <trkpt lat="37.284023" lon="-4.856903">
        <ele>492.177</ele>
        <time>2021-10-12T08:19:22Z</time>
      </trkpt>
      <trkpt lat="37.284238" lon="-4.857206">
        <ele>490.018</ele>
        <time>2021-10-12T08:19:23Z</time>
      </trkpt>
      <trkpt lat="37.284710" lon="-4.857745">
        <ele>486.422</ele>
        <time>2021-10-12T08:19:25Z</time>
      </trkpt>
      <trkpt lat="37.285230" lon="-4.858180">
        <ele>483.062</ele>
        <time>2021-10-12T08:19:27Z</time>
      </trkpt>
      <trkpt lat="37.285507" lon="-4.858362">
        <ele>482.908</ele>
        <time>2021-10-12T08:19:28Z</time>
      </trkpt>
      <trkpt lat="37.286090" lon="-4.858651">
        <ele>478.908</ele>
        <time>2021-10-12T08:19:30Z</time>
      </trkpt>
      <trkpt lat="37.286391" lon="-4.858770">
        <ele>476.850</ele>
        <time>2021-10-12T08:19:31Z</time>
      </trkpt>
      <trkpt lat="37.286695" lon="-4.858873">
        <ele>475.158</ele>
        <time>2021-10-12T08:19:32Z</time>
      </trkpt>
      <trkpt lat="37.287309" lon="-4.859074">
        <ele>473.184</ele>
        <time>2021-10-12T08:19:34Z</time>
      </trkpt>
      <trkpt lat="37.287929" lon="-4.859278">
        <ele>470.647</ele>
        <time>2021-10-12T08:19:36Z</time>
      </trkpt>
      <trkpt lat="37.288559" lon="-4.859489">
        <ele>468.053</ele>
        <time>2021-10-12T08:19:38Z</time>
      </trkpt>
      <trkpt lat="37.289183" lon="-4.859701">
        <ele>467.872</ele>
        <time>2021-10-12T08:19:40Z</time>
      </trkpt>
      <trkpt lat="37.289815" lon="-4.859906">
        <ele>466.142</ele>
        <time>2021-10-12T08:19:42Z</time>
      </trkpt>
      <trkpt lat="37.290136" lon="-4.860006">
        <ele>464.643</ele>
        <time>2021-10-12T08:19:43Z</time>
      </trkpt>
      <trkpt lat="37.290458" lon="-4.860097">
        <ele>465.377</ele>
        <time>2021-10-12T08:19:44Z</time>
      </trkpt>
      <trkpt lat="37.291101" lon="-4.860229">
        <ele>467.161</ele>
        <time>2021-10-12T08:19:46Z</time>
      </trkpt>
      <trkpt lat="37.291429" lon="-4.860267">
        <ele>465.927</ele>
        <time>2021-10-12T08:19:47Z</time>
      </trkpt>
      <trkpt lat="37.291757" lon="-4.860292">
        <ele>465.808</ele>
        <time>2021-10-12T08:19:48Z</time>
      </trkpt>
      <trkpt lat="37.292411" lon="-4.860307">
        <ele>464.755</ele>
        <time>2021-10-12T08:19:50Z</time>
      </trkpt>
      <trkpt lat="37.293054" lon="-4.860281">
        <ele>462.063</ele>
        <time>2021-10-12T08:19:52Z</time>
      </trkpt>
      <trkpt lat="37.293384" lon="-4.860258">
        <ele>459.699</ele>
        <time>2021-10-12T08:19:53Z</time>
      </trkpt>
      <trkpt lat="37.293713" lon="-4.860236">
        <ele>458.282</ele>
        <time>2021-10-12T08:19:54Z</time>
      </trkpt>
      <trkpt lat="37.294378" lon="-4.860196">
        <ele>457.488</ele>
        <time>2021-10-12T08:19:56Z</time>
      </trkpt>
      <trkpt lat="37.295008" lon="-4.860173">
        <ele>454.847</ele>
        <time>2021-10-12T08:19:58Z</time>
      </trkpt>
      <trkpt lat="37.295326" lon="-4.860174">
        <ele>452.557</ele>
        <time>2021-10-12T08:19:59Z</time>
      </trkpt>
      <trkpt lat="37.295954" lon="-4.860241">
        <ele>450.818</ele>
        <time>2021-10-12T08:20:01Z</time>
      </trkpt>
      <trkpt lat="37.296273" lon="-4.860320">
        <ele>449.549</ele>
        <time>2021-10-12T08:20:02Z</time>
      </trkpt>
      <trkpt lat="37.296883" lon="-4.860574">
        <ele>447.002</ele>
        <time>2021-10-12T08:20:04Z</time>
      </trkpt>
      <trkpt lat="37.297181" lon="-4.860744">
        <ele>447.322</ele>
        <time>2021-10-12T08:20:05Z</time>
      </trkpt>
      <trkpt lat="37.297748" lon="-4.861154">
        <ele>444.808</ele>
        <time>2021-10-12T08:20:07Z</time>
      </trkpt>
      <trkpt lat="37.298015" lon="-4.861395">
        <ele>442.182</ele>
        <time>2021-10-12T08:20:08Z</time>
      </trkpt>
      <trkpt lat="37.298499" lon="-4.861936">
        <ele>438.110</ele>
        <time>2021-10-12T08:20:10Z</time>
      </trkpt>
      <trkpt lat="37.298958" lon="-4.862513">
        <ele>433.526</ele>
        <time>2021-10-12T08:20:12Z</time>
      </trkpt>
      <trkpt lat="37.299194" lon="-4.862811">
        <ele>430.949</ele>
        <time>2021-10-12T08:20:13Z</time>
      </trkpt>
      <trkpt lat="37.299431" lon="-4.863108">
        <ele>429.175</ele>
        <time>2021-10-12T08:20:14Z</time>
      </trkpt>
      <trkpt lat="37.299884" lon="-4.863679">
        <ele>424.244</ele>
        <time>2021-10-12T08:20:16Z</time>
      </trkpt>
      <trkpt lat="37.300311" lon="-4.864244">
        <ele>421.774</ele>
        <time>2021-10-12T08:20:18Z</time>
      </trkpt>
      <trkpt lat="37.300680" lon="-4.864858">
        <ele>421.695</ele>
        <time>2021-10-12T08:20:20Z</time>
      </trkpt>
      <trkpt lat="37.300966" lon="-4.865512">
        <ele>422.524</ele>
        <time>2021-10-12T08:20:22Z</time>
      </trkpt>
      <trkpt lat="37.301081" lon="-4.865861">
        <ele>424.304</ele>
        <time>2021-10-12T08:20:23Z</time>
      </trkpt>
      <trkpt lat="37.301181" lon="-4.866218">
        <ele>426.314</ele>
        <time>2021-10-12T08:20:24Z</time>
      </trkpt>
      <trkpt lat="37.301266" lon="-4.866584">
        <ele>429.308</ele>
        <time>2021-10-12T08:20:25Z</time>
      </trkpt>
      <trkpt lat="37.301334" lon="-4.866971">
        <ele>432.160</ele>
        <time>2021-10-12T08:20:26Z</time>
      </trkpt>
      <trkpt lat="37.301402" lon="-4.867726">
        <ele>437.698</ele>
        <time>2021-10-12T08:20:28Z</time>
      </trkpt>
      <trkpt lat="37.301399" lon="-4.868503">
        <ele>440.024</ele>
        <time>2021-10-12T08:20:30Z</time>
      </trkpt>
      <trkpt lat="37.301347" lon="-4.869275">
        <ele>440.537</ele>
        <time>2021-10-12T08:20:32Z</time>
      </trkpt>
      <trkpt lat="37.301312" lon="-4.870018">
        <ele>441.613</ele>
        <time>2021-10-12T08:20:34Z</time>
      </trkpt>
      <trkpt lat="37.301294" lon="-4.870386">
        <ele>442.142</ele>
        <time>2021-10-12T08:20:35Z</time>
      </trkpt>
      <trkpt lat="37.301278" lon="-4.870740">
        <ele>443.762</ele>
        <time>2021-10-12T08:20:36Z</time>
      </trkpt>
      <trkpt lat="37.301267" lon="-4.871091">
        <ele>444.813</ele>
        <time>2021-10-12T08:20:37Z</time>
      </trkpt>
      <trkpt lat="37.301269" lon="-4.871444">
        <ele>447.674</ele>
        <time>2021-10-12T08:20:38Z</time>
      </trkpt>
      <trkpt lat="37.301327" lon="-4.872116">
        <ele>450.856</ele>
        <time>2021-10-12T08:20:40Z</time>
      </trkpt>
      <trkpt lat="37.301386" lon="-4.872457">
        <ele>452.721</ele>
        <time>2021-10-12T08:20:41Z</time>
      </trkpt>
      <trkpt lat="37.301550" lon="-4.873143">
        <ele>456.608</ele>
        <time>2021-10-12T08:20:43Z</time>
      </trkpt>
      <trkpt lat="37.301650" lon="-4.873495">
        <ele>459.115</ele>
        <time>2021-10-12T08:20:44Z</time>
      </trkpt>
      <trkpt lat="37.301856" lon="-4.874186">
        <ele>460.833</ele>
        <time>2021-10-12T08:20:46Z</time>
      </trkpt>
      <trkpt lat="37.301960" lon="-4.874538">
        <ele>462.459</ele>
        <time>2021-10-12T08:20:47Z</time>
      </trkpt>
      <trkpt lat="37.302060" lon="-4.874893">
        <ele>463.052</ele>
        <time>2021-10-12T08:20:48Z</time>
      </trkpt>
      <trkpt lat="37.302257" lon="-4.875619">
        <ele>462.188</ele>
        <time>2021-10-12T08:20:50Z</time>
      </trkpt>
      <trkpt lat="37.302427" lon="-4.876348">
        <ele>463.717</ele>
        <time>2021-10-12T08:20:52Z</time>
      </trkpt>
      <trkpt lat="37.302561" lon="-4.877103">
        <ele>459.647</ele>
        <time>2021-10-12T08:20:54Z</time>
      </trkpt>
      <trkpt lat="37.302652" lon="-4.877873">
        <ele>456.018</ele>
        <time>2021-10-12T08:20:56Z</time>
      </trkpt>
      <trkpt lat="37.302704" lon="-4.878614">
        <ele>454.043</ele>
        <time>2021-10-12T08:20:58Z</time>
      </trkpt>
      <trkpt lat="37.302713" lon="-4.878991">
        <ele>454.164</ele>
        <time>2021-10-12T08:20:59Z</time>
      </trkpt>
      <trkpt lat="37.302700" lon="-4.879738">
        <ele>451.210</ele>
        <time>2021-10-12T08:21:01Z</time>
      </trkpt>
      <trkpt lat="37.302681" lon="-4.880111">
        <ele>449.708</ele>
        <time>2021-10-12T08:21:02Z</time>
      </trkpt>
      <trkpt lat="37.302613" lon="-4.880855">
        <ele>446.522</ele>
        <time>2021-10-12T08:21:04Z</time>
      </trkpt>
      <trkpt lat="37.302541" lon="-4.881603">
        <ele>446.750</ele>
        <time>2021-10-12T08:21:06Z</time>
      </trkpt>
      <trkpt lat="37.302474" lon="-4.882357">
        <ele>448.186</ele>
        <time>2021-10-12T08:21:08Z</time>
      </trkpt>
      <trkpt lat="37.302374" lon="-4.883085">
        <ele>449.429</ele>
        <time>2021-10-12T08:21:10Z</time>
      </trkpt>
      <trkpt lat="37.302306" lon="-4.883454">
        <ele>448.295</ele>
        <time>2021-10-12T08:21:11Z</time>
      </trkpt>
      <trkpt lat="37.302148" lon="-4.884189">
        <ele>450.394</ele>
        <time>2021-10-12T08:21:13Z</time>
      </trkpt>
      <trkpt lat="37.302055" lon="-4.884556">
        <ele>450.224</ele>
        <time>2021-10-12T08:21:14Z</time>
      </trkpt>
      <trkpt lat="37.301834" lon="-4.885259">
        <ele>446.245</ele>
        <time>2021-10-12T08:21:16Z</time>
      </trkpt>
      <trkpt lat="37.301710" lon="-4.885617">
        <ele>445.095</ele>
        <time>2021-10-12T08:21:17Z</time>
      </trkpt>
      <trkpt lat="37.301444" lon="-4.886298">
        <ele>443.549</ele>
        <time>2021-10-12T08:21:19Z</time>
      </trkpt>
      <trkpt lat="37.301292" lon="-4.886633">
        <ele>443.123</ele>
        <time>2021-10-12T08:21:20Z</time>
      </trkpt>
      <trkpt lat="37.300983" lon="-4.887241">
        <ele>438.408</ele>
        <time>2021-10-12T08:21:22Z</time>
      </trkpt>
      <trkpt lat="37.300646" lon="-4.887814">
        <ele>437.127</ele>
        <time>2021-10-12T08:21:24Z</time>
      </trkpt>
      <trkpt lat="37.300465" lon="-4.888094">
        <ele>435.275</ele>
        <time>2021-10-12T08:21:25Z</time>
      </trkpt>
      <trkpt lat="37.300274" lon="-4.888380">
        <ele>431.531</ele>
        <time>2021-10-12T08:21:26Z</time>
      </trkpt>
      <trkpt lat="37.299898" lon="-4.888923">
        <ele>424.544</ele>
        <time>2021-10-12T08:21:28Z</time>
      </trkpt>
      <trkpt lat="37.299500" lon="-4.889466">
        <ele>420.860</ele>
        <time>2021-10-12T08:21:30Z</time>
      </trkpt>
      <trkpt lat="37.299306" lon="-4.889740">
        <ele>420.489</ele>
        <time>2021-10-12T08:21:31Z</time>
      </trkpt>
      <trkpt lat="37.299114" lon="-4.890012">
        <ele>422.129</ele>
        <time>2021-10-12T08:21:32Z</time>
      </trkpt>
      <trkpt lat="37.298746" lon="-4.890529">
        <ele>422.170</ele>
        <time>2021-10-12T08:21:34Z</time>
      </trkpt>
      <trkpt lat="37.298385" lon="-4.891028">
        <ele>422.895</ele>
        <time>2021-10-12T08:21:36Z</time>
      </trkpt>
      <trkpt lat="37.298217" lon="-4.891266">
        <ele>422.849</ele>
        <time>2021-10-12T08:21:37Z</time>
      </trkpt>
      <trkpt lat="37.298050" lon="-4.891509">
        <ele>423.223</ele>
        <time>2021-10-12T08:21:38Z</time>
      </trkpt>
      <trkpt lat="37.297711" lon="-4.891985">
        <ele>421.408</ele>
        <time>2021-10-12T08:21:40Z</time>
      </trkpt>
      <trkpt lat="37.297535" lon="-4.892231">
        <ele>421.977</ele>
        <time>2021-10-12T08:21:41Z</time>
      </trkpt>
      <trkpt lat="37.297175" lon="-4.892725">
        <ele>429.115</ele>
        <time>2021-10-12T08:21:43Z</time>
      </trkpt>
      <trkpt lat="37.296987" lon="-4.892992">
        <ele>430.781</ele>
        <time>2021-10-12T08:21:44Z</time>
      </trkpt>
      <trkpt lat="37.296630" lon="-4.893498">
        <ele>431.184</ele>
        <time>2021-10-12T08:21:46Z</time>
      </trkpt>
      <trkpt lat="37.296274" lon="-4.893991">
        <ele>432.880</ele>
        <time>2021-10-12T08:21:48Z</time>
      </trkpt>
      <trkpt lat="37.296096" lon="-4.894244">
        <ele>434.469</ele>
        <time>2021-10-12T08:21:49Z</time>
      </trkpt>
      <trkpt lat="37.295920" lon="-4.894505">
        <ele>435.499</ele>
        <time>2021-10-12T08:21:50Z</time>
      </trkpt>
      <trkpt lat="37.295607" lon="-4.895036">
        <ele>437.320</ele>
        <time>2021-10-12T08:21:52Z</time>
      </trkpt>
      <trkpt lat="37.295458" lon="-4.895316">
        <ele>438.493</ele>
        <time>2021-10-12T08:21:53Z</time>
      </trkpt>
      <trkpt lat="37.295177" lon="-4.895880">
        <ele>437.365</ele>
        <time>2021-10-12T08:21:55Z</time>
      </trkpt>
      <trkpt lat="37.295042" lon="-4.896178">
        <ele>438.221</ele>
        <time>2021-10-12T08:21:56Z</time>
      </trkpt>
      <trkpt lat="37.294805" lon="-4.896761">
        <ele>439.608</ele>
        <time>2021-10-12T08:21:58Z</time>
      </trkpt>
      <trkpt lat="37.294593" lon="-4.897366">
        <ele>444.767</ele>
        <time>2021-10-12T08:22:00Z</time>
      </trkpt>
      <trkpt lat="37.294409" lon="-4.898000">
        <ele>448.175</ele>
        <time>2021-10-12T08:22:02Z</time>
      </trkpt>
      <trkpt lat="37.294260" lon="-4.898622">
        <ele>451.811</ele>
        <time>2021-10-12T08:22:04Z</time>
      </trkpt>
      <trkpt lat="37.294133" lon="-4.899275">
        <ele>456.534</ele>
        <time>2021-10-12T08:22:06Z</time>
      </trkpt>
      <trkpt lat="37.294034" lon="-4.899950">
        <ele>459.810</ele>
        <time>2021-10-12T08:22:08Z</time>
      </trkpt>
      <trkpt lat="37.293954" lon="-4.900625">
        <ele>462.789</ele>
        <time>2021-10-12T08:22:10Z</time>
      </trkpt>
      <trkpt lat="37.293919" lon="-4.900973">
        <ele>464.289</ele>
        <time>2021-10-12T08:22:11Z</time>
      </trkpt>
      <trkpt lat="37.293843" lon="-4.901671">
        <ele>469.720</ele>
        <time>2021-10-12T08:22:13Z</time>
      </trkpt>
      <trkpt lat="37.293800" lon="-4.902025">
        <ele>471.285</ele>
        <time>2021-10-12T08:22:14Z</time>
      </trkpt>
      <trkpt lat="37.293718" lon="-4.902703">
        <ele>474.889</ele>
        <time>2021-10-12T08:22:16Z</time>
      </trkpt>
      <trkpt lat="37.293633" lon="-4.903353">
        <ele>480.817</ele>
        <time>2021-10-12T08:22:18Z</time>
      </trkpt>
      <trkpt lat="37.293507" lon="-4.903984">
        <ele>484.508</ele>
        <time>2021-10-12T08:22:20Z</time>
      </trkpt>
      <trkpt lat="37.293318" lon="-4.904578">
        <ele>478.736</ele>
        <time>2021-10-12T08:22:22Z</time>
      </trkpt>
      <trkpt lat="37.293204" lon="-4.904873">
        <ele>478.394</ele>
        <time>2021-10-12T08:22:23Z</time>
      </trkpt>
      <trkpt lat="37.292942" lon="-4.905452">
        <ele>482.280</ele>
        <time>2021-10-12T08:22:25Z</time>
      </trkpt>
      <trkpt lat="37.292784" lon="-4.905740">
        <ele>483.653</ele>
        <time>2021-10-12T08:22:26Z</time>
      </trkpt>
      <trkpt lat="37.292442" lon="-4.906247">
        <ele>486.859</ele>
        <time>2021-10-12T08:22:28Z</time>
      </trkpt>
      <trkpt lat="37.292238" lon="-4.906498">
        <ele>485.628</ele>
        <time>2021-10-12T08:22:29Z</time>
      </trkpt>
      <trkpt lat="37.291800" lon="-4.906954">
        <ele>481.418</ele>
        <time>2021-10-12T08:22:31Z</time>
      </trkpt>
      <trkpt lat="37.291567" lon="-4.907160">
        <ele>478.989</ele>
        <time>2021-10-12T08:22:32Z</time>
      </trkpt>
      <trkpt lat="37.291091" lon="-4.907563">
        <ele>476.253</ele>
        <time>2021-10-12T08:22:34Z</time>
      </trkpt>
      <trkpt lat="37.290609" lon="-4.907960">
        <ele>472.404</ele>
        <time>2021-10-12T08:22:36Z</time>
      </trkpt>
      <trkpt lat="37.290147" lon="-4.908327">
        <ele>471.014</ele>
        <time>2021-10-12T08:22:38Z</time>
      </trkpt>
      <trkpt lat="37.289699" lon="-4.908676">
        <ele>469.208</ele>
        <time>2021-10-12T08:22:40Z</time>
      </trkpt>
      <trkpt lat="37.289472" lon="-4.908858">
        <ele>467.253</ele>
        <time>2021-10-12T08:22:41Z</time>
      </trkpt>
      <trkpt lat="37.289028" lon="-4.909271">
        <ele>464.211</ele>
        <time>2021-10-12T08:22:43Z</time>
      </trkpt>
      <trkpt lat="37.288814" lon="-4.909508">
        <ele>463.167</ele>
        <time>2021-10-12T08:22:44Z</time>
      </trkpt>
      <trkpt lat="37.288399" lon="-4.909975">
        <ele>461.260</ele>
        <time>2021-10-12T08:22:46Z</time>
      </trkpt>
      <trkpt lat="37.287979" lon="-4.910442">
        <ele>458.266</ele>
        <time>2021-10-12T08:22:48Z</time>
      </trkpt>
      <trkpt lat="37.287551" lon="-4.910918">
        <ele>456.515</ele>
        <time>2021-10-12T08:22:50Z</time>
      </trkpt>
      <trkpt lat="37.287134" lon="-4.911382">
        <ele>452.115</ele>
        <time>2021-10-12T08:22:52Z</time>
      </trkpt>
      <trkpt lat="37.286710" lon="-4.911842">
        <ele>449.446</ele>
        <time>2021-10-12T08:22:54Z</time>
      </trkpt>
      <trkpt lat="37.286499" lon="-4.912066">
        <ele>449.142</ele>
        <time>2021-10-12T08:22:55Z</time>
      </trkpt>
      <trkpt lat="37.286286" lon="-4.912275">
        <ele>448.422</ele>
        <time>2021-10-12T08:22:56Z</time>
      </trkpt>
      <trkpt lat="37.285841" lon="-4.912652">
        <ele>446.414</ele>
        <time>2021-10-12T08:22:58Z</time>
      </trkpt>
      <trkpt lat="37.285381" lon="-4.913007">
        <ele>448.608</ele>
        <time>2021-10-12T08:23:00Z</time>
      </trkpt>
      <trkpt lat="37.285151" lon="-4.913193">
        <ele>449.722</ele>
        <time>2021-10-12T08:23:01Z</time>
      </trkpt>
      <trkpt lat="37.284929" lon="-4.913386">
        <ele>449.120</ele>
        <time>2021-10-12T08:23:02Z</time>
      </trkpt>
      <trkpt lat="37.284506" lon="-4.913803">
        <ele>448.616</ele>
        <time>2021-10-12T08:23:04Z</time>
      </trkpt>
      <trkpt lat="37.284311" lon="-4.914037">
        <ele>447.219</ele>
        <time>2021-10-12T08:23:05Z</time>
      </trkpt>
      <trkpt lat="37.283939" lon="-4.914555">
        <ele>445.355</ele>
        <time>2021-10-12T08:23:07Z</time>
      </trkpt>
      <trkpt lat="37.283764" lon="-4.914839">
        <ele>444.894</ele>
        <time>2021-10-12T08:23:08Z</time>
      </trkpt>
      <trkpt lat="37.283459" lon="-4.915440">
        <ele>445.834</ele>
        <time>2021-10-12T08:23:10Z</time>
      </trkpt>
      <trkpt lat="37.283317" lon="-4.915764">
        <ele>446.135</ele>
        <time>2021-10-12T08:23:11Z</time>
      </trkpt>
      <trkpt lat="37.283035" lon="-4.916430">
        <ele>447.349</ele>
        <time>2021-10-12T08:23:13Z</time>
      </trkpt>
      <trkpt lat="37.282894" lon="-4.916778">
        <ele>447.702</ele>
        <time>2021-10-12T08:23:14Z</time>
      </trkpt>
      <trkpt lat="37.282610" lon="-4.917475">
        <ele>444.722</ele>
        <time>2021-10-12T08:23:16Z</time>
      </trkpt>
      <trkpt lat="37.282467" lon="-4.917836">
        <ele>443.908</ele>
        <time>2021-10-12T08:23:17Z</time>
      </trkpt>
      <trkpt lat="37.282326" lon="-4.918190">
        <ele>443.112</ele>
        <time>2021-10-12T08:23:18Z</time>
      </trkpt>
      <trkpt lat="37.282044" lon="-4.918897">
        <ele>440.960</ele>
        <time>2021-10-12T08:23:20Z</time>
      </trkpt>
      <trkpt lat="37.281763" lon="-4.919597">
        <ele>441.046</ele>
        <time>2021-10-12T08:23:22Z</time>
      </trkpt>
      <trkpt lat="37.281618" lon="-4.919955">
        <ele>437.549</ele>
        <time>2021-10-12T08:23:23Z</time>
      </trkpt>
      <trkpt lat="37.281328" lon="-4.920670">
        <ele>433.985</ele>
        <time>2021-10-12T08:23:25Z</time>
      </trkpt>
      <trkpt lat="37.281046" lon="-4.921394">
        <ele>431.984</ele>
        <time>2021-10-12T08:23:27Z</time>
      </trkpt>
      <trkpt lat="37.280917" lon="-4.921761">
        <ele>429.354</ele>
        <time>2021-10-12T08:23:28Z</time>
      </trkpt>
      <trkpt lat="37.280697" lon="-4.922500">
        <ele>426.565</ele>
        <time>2021-10-12T08:23:30Z</time>
      </trkpt>
      <trkpt lat="37.280516" lon="-4.923244">
        <ele>428.994</ele>
        <time>2021-10-12T08:23:32Z</time>
      </trkpt>
      <trkpt lat="37.280336" lon="-4.923964">
        <ele>431.457</ele>
        <time>2021-10-12T08:23:34Z</time>
      </trkpt>
      <trkpt lat="37.280243" lon="-4.924318">
        <ele>431.022</ele>
        <time>2021-10-12T08:23:35Z</time>
      </trkpt>
      <trkpt lat="37.280151" lon="-4.924667">
        <ele>430.708</ele>
        <time>2021-10-12T08:23:36Z</time>
      </trkpt>
      <trkpt lat="37.280060" lon="-4.925012">
        <ele>430.637</ele>
        <time>2021-10-12T08:23:37Z</time>
      </trkpt>
      <trkpt lat="37.279969" lon="-4.925355">
        <ele>430.875</ele>
        <time>2021-10-12T08:23:38Z</time>
      </trkpt>
      <trkpt lat="37.279794" lon="-4.926021">
        <ele>427.861</ele>
        <time>2021-10-12T08:23:40Z</time>
      </trkpt>
      <trkpt lat="37.279709" lon="-4.926362">
        <ele>427.954</ele>
        <time>2021-10-12T08:23:41Z</time>
      </trkpt>
      <trkpt lat="37.279541" lon="-4.927031">
        <ele>426.140</ele>
        <time>2021-10-12T08:23:43Z</time>
      </trkpt>
      <trkpt lat="37.279453" lon="-4.927377">
        <ele>423.919</ele>
        <time>2021-10-12T08:23:44Z</time>
      </trkpt>
      <trkpt lat="37.279278" lon="-4.928063">
        <ele>421.679</ele>
        <time>2021-10-12T08:23:46Z</time>
      </trkpt>
      <trkpt lat="37.279095" lon="-4.928771">
        <ele>417.860</ele>
        <time>2021-10-12T08:23:48Z</time>
      </trkpt>
      <trkpt lat="37.278907" lon="-4.929496">
        <ele>415.966</ele>
        <time>2021-10-12T08:23:50Z</time>
      </trkpt>
      <trkpt lat="37.278721" lon="-4.930211">
        <ele>415.829</ele>
        <time>2021-10-12T08:23:52Z</time>
      </trkpt>
      <trkpt lat="37.278629" lon="-4.930575">
        <ele>415.521</ele>
        <time>2021-10-12T08:23:53Z</time>
      </trkpt>
      <trkpt lat="37.278441" lon="-4.931291">
        <ele>411.308</ele>
        <time>2021-10-12T08:23:55Z</time>
      </trkpt>
      <trkpt lat="37.278346" lon="-4.931647">
        <ele>410.024</ele>
        <time>2021-10-12T08:23:56Z</time>
      </trkpt>
      <trkpt lat="37.278160" lon="-4.932354">
        <ele>408.972</ele>
        <time>2021-10-12T08:23:58Z</time>
      </trkpt>
      <trkpt lat="37.277981" lon="-4.933062">
        <ele>405.568</ele>
        <time>2021-10-12T08:24:00Z</time>
      </trkpt>
      <trkpt lat="37.277802" lon="-4.933764">
        <ele>402.811</ele>
        <time>2021-10-12T08:24:02Z</time>
      </trkpt>
      <trkpt lat="37.277710" lon="-4.934110">
        <ele>400.737</ele>
        <time>2021-10-12T08:24:03Z</time>
      </trkpt>
      <trkpt lat="37.277527" lon="-4.934801">
        <ele>398.316</ele>
        <time>2021-10-12T08:24:05Z</time>
      </trkpt>
      <trkpt lat="37.277348" lon="-4.935513">
        <ele>393.816</ele>
        <time>2021-10-12T08:24:07Z</time>
      </trkpt>
      <trkpt lat="37.277255" lon="-4.935879">
        <ele>393.297</ele>
        <time>2021-10-12T08:24:08Z</time>
      </trkpt>
      <trkpt lat="37.277070" lon="-4.936605">
        <ele>394.571</ele>
        <time>2021-10-12T08:24:10Z</time>
      </trkpt>
      <trkpt lat="37.276973" lon="-4.936972">
        <ele>394.041</ele>
        <time>2021-10-12T08:24:11Z</time>
      </trkpt>
      <trkpt lat="37.276790" lon="-4.937700">
        <ele>393.715</ele>
        <time>2021-10-12T08:24:13Z</time>
      </trkpt>
      <trkpt lat="37.276697" lon="-4.938067">
        <ele>393.908</ele>
        <time>2021-10-12T08:24:14Z</time>
      </trkpt>
      <trkpt lat="37.276514" lon="-4.938765">
        <ele>395.995</ele>
        <time>2021-10-12T08:24:16Z</time>
      </trkpt>
      <trkpt lat="37.276324" lon="-4.939468">
        <ele>398.943</ele>
        <time>2021-10-12T08:24:18Z</time>
      </trkpt>
      <trkpt lat="37.276223" lon="-4.939816">
        <ele>398.739</ele>
        <time>2021-10-12T08:24:19Z</time>
      </trkpt>
      <trkpt lat="37.276106" lon="-4.940169">
        <ele>397.562</ele>
        <time>2021-10-12T08:24:20Z</time>
      </trkpt>
      <trkpt lat="37.275817" lon="-4.940820">
        <ele>399.118</ele>
        <time>2021-10-12T08:24:22Z</time>
      </trkpt>
      <trkpt lat="37.275637" lon="-4.941129">
        <ele>396.827</ele>
        <time>2021-10-12T08:24:23Z</time>
      </trkpt>
      <trkpt lat="37.275442" lon="-4.941424">
        <ele>393.797</ele>
        <time>2021-10-12T08:24:24Z</time>
      </trkpt>
      <trkpt lat="37.275024" lon="-4.941983">
        <ele>393.588</ele>
        <time>2021-10-12T08:24:26Z</time>
      </trkpt>
      <trkpt lat="37.274613" lon="-4.942526">
        <ele>394.368</ele>
        <time>2021-10-12T08:24:28Z</time>
      </trkpt>
      <trkpt lat="37.274418" lon="-4.942819">
        <ele>394.842</ele>
        <time>2021-10-12T08:24:29Z</time>
      </trkpt>
      <trkpt lat="37.274079" lon="-4.943449">
        <ele>391.826</ele>
        <time>2021-10-12T08:24:31Z</time>
      </trkpt>
      <trkpt lat="37.273919" lon="-4.943785">
        <ele>390.108</ele>
        <time>2021-10-12T08:24:32Z</time>
      </trkpt>
      <trkpt lat="37.273598" lon="-4.944433">
        <ele>387.934</ele>
        <time>2021-10-12T08:24:34Z</time>
      </trkpt>
      <trkpt lat="37.273434" lon="-4.944756">
        <ele>384.912</ele>
        <time>2021-10-12T08:24:35Z</time>
      </trkpt>
      <trkpt lat="37.273268" lon="-4.945081">
        <ele>379.938</ele>
        <time>2021-10-12T08:24:36Z</time>
      </trkpt>
      <trkpt lat="37.272937" lon="-4.945734">
        <ele>373.981</ele>
        <time>2021-10-12T08:24:38Z</time>
      </trkpt>
      <trkpt lat="37.272614" lon="-4.946364">
        <ele>374.167</ele>
        <time>2021-10-12T08:24:40Z</time>
      </trkpt>
      <trkpt lat="37.272445" lon="-4.946682">
        <ele>373.456</ele>
        <time>2021-10-12T08:24:41Z</time>
      </trkpt>
      <trkpt lat="37.272099" lon="-4.947298">
        <ele>371.046</ele>
        <time>2021-10-12T08:24:43Z</time>
      </trkpt>
      <trkpt lat="37.271914" lon="-4.947607">
        <ele>369.397</ele>
        <time>2021-10-12T08:24:44Z</time>
      </trkpt>
      <trkpt lat="37.271556" lon="-4.948196">
        <ele>363.537</ele>
        <time>2021-10-12T08:24:46Z</time>
      </trkpt>
      <trkpt lat="37.271373" lon="-4.948495">
        <ele>362.549</ele>
        <time>2021-10-12T08:24:47Z</time>
      </trkpt>
      <trkpt lat="37.271018" lon="-4.949096">
        <ele>361.813</ele>
        <time>2021-10-12T08:24:49Z</time>
      </trkpt>
      <trkpt lat="37.270838" lon="-4.949399">
        <ele>361.308</ele>
        <time>2021-10-12T08:24:50Z</time>
      </trkpt>
      <trkpt lat="37.270488" lon="-4.949977">
        <ele>357.221</ele>
        <time>2021-10-12T08:24:52Z</time>
      </trkpt>
      <trkpt lat="37.270138" lon="-4.950560">
        <ele>359.539</ele>
        <time>2021-10-12T08:24:54Z</time>
      </trkpt>
      <trkpt lat="37.269963" lon="-4.950844">
        <ele>359.135</ele>
        <time>2021-10-12T08:24:55Z</time>
      </trkpt>
      <trkpt lat="37.269784" lon="-4.951136">
        <ele>359.278</ele>
        <time>2021-10-12T08:24:56Z</time>
      </trkpt>
      <trkpt lat="37.269446" lon="-4.951689">
        <ele>359.994</ele>
        <time>2021-10-12T08:24:58Z</time>
      </trkpt>
      <trkpt lat="37.269097" lon="-4.952252">
        <ele>358.973</ele>
        <time>2021-10-12T08:25:00Z</time>
      </trkpt>
      <trkpt lat="37.268908" lon="-4.952532">
        <ele>358.093</ele>
        <time>2021-10-12T08:25:01Z</time>
      </trkpt>
      <trkpt lat="37.268707" lon="-4.952806">
        <ele>357.914</ele>
        <time>2021-10-12T08:25:02Z</time>
      </trkpt>
      <trkpt lat="37.268300" lon="-4.953317">
        <ele>356.112</ele>
        <time>2021-10-12T08:25:04Z</time>
      </trkpt>
      <trkpt lat="37.268091" lon="-4.953577">
        <ele>355.232</ele>
        <time>2021-10-12T08:25:05Z</time>
      </trkpt>
      <trkpt lat="37.267680" lon="-4.954095">
        <ele>352.305</ele>
        <time>2021-10-12T08:25:07Z</time>
      </trkpt>
      <trkpt lat="37.267469" lon="-4.954361">
        <ele>351.308</ele>
        <time>2021-10-12T08:25:08Z</time>
      </trkpt>
      <trkpt lat="37.267079" lon="-4.954885">
        <ele>347.939</ele>
        <time>2021-10-12T08:25:10Z</time>
      </trkpt>
      <trkpt lat="37.266894" lon="-4.955175">
        <ele>346.237</ele>
        <time>2021-10-12T08:25:11Z</time>
      </trkpt>
      <trkpt lat="37.266721" lon="-4.955479">
        <ele>343.923</ele>
        <time>2021-10-12T08:25:12Z</time>
      </trkpt>
      <trkpt lat="37.266395" lon="-4.956104">
        <ele>339.126</ele>
        <time>2021-10-12T08:25:14Z</time>
      </trkpt>
      <trkpt lat="37.266079" lon="-4.956712">
        <ele>339.742</ele>
        <time>2021-10-12T08:25:16Z</time>
      </trkpt>
      <trkpt lat="37.265918" lon="-4.957019">
        <ele>338.241</ele>
        <time>2021-10-12T08:25:17Z</time>
      </trkpt>
      <trkpt lat="37.265597" lon="-4.957633">
        <ele>334.061</ele>
        <time>2021-10-12T08:25:19Z</time>
      </trkpt>
      <trkpt lat="37.265435" lon="-4.957943">
        <ele>333.662</ele>
        <time>2021-10-12T08:25:20Z</time>
      </trkpt>
      <trkpt lat="37.265123" lon="-4.958536">
        <ele>334.822</ele>
        <time>2021-10-12T08:25:22Z</time>
      </trkpt>
      <trkpt lat="37.264967" lon="-4.958834">
        <ele>335.062</ele>
        <time>2021-10-12T08:25:23Z</time>
      </trkpt>
      <trkpt lat="37.264657" lon="-4.959423">
        <ele>332.108</ele>
        <time>2021-10-12T08:25:25Z</time>
      </trkpt>
      <trkpt lat="37.264501" lon="-4.959732">
        <ele>331.208</ele>
        <time>2021-10-12T08:25:26Z</time>
      </trkpt>
      <trkpt lat="37.264226" lon="-4.960342">
        <ele>329.830</ele>
        <time>2021-10-12T08:25:28Z</time>
      </trkpt>
      <trkpt lat="37.264003" lon="-4.961029">
        <ele>326.038</ele>
        <time>2021-10-12T08:25:30Z</time>
      </trkpt>
      <trkpt lat="37.263908" lon="-4.961388">
        <ele>325.014</ele>
        <time>2021-10-12T08:25:31Z</time>
      </trkpt>
      <trkpt lat="37.263726" lon="-4.962105">
        <ele>323.387</ele>
        <time>2021-10-12T08:25:33Z</time>
      </trkpt>
      <trkpt lat="37.263632" lon="-4.962461">
        <ele>322.113</ele>
        <time>2021-10-12T08:25:34Z</time>
      </trkpt>
      <trkpt lat="37.263448" lon="-4.963151">
        <ele>320.832</ele>
        <time>2021-10-12T08:25:36Z</time>
      </trkpt>
      <trkpt lat="37.263350" lon="-4.963500">
        <ele>320.122</ele>
        <time>2021-10-12T08:25:37Z</time>
      </trkpt>
      <trkpt lat="37.263252" lon="-4.963853">
        <ele>320.023</ele>
        <time>2021-10-12T08:25:38Z</time>
      </trkpt>
      <trkpt lat="37.263073" lon="-4.964535">
        <ele>318.754</ele>
        <time>2021-10-12T08:25:40Z</time>
      </trkpt>
      <trkpt lat="37.262980" lon="-4.964889">
        <ele>317.356</ele>
        <time>2021-10-12T08:25:41Z</time>
      </trkpt>
      <trkpt lat="37.262794" lon="-4.965595">
        <ele>315.111</ele>
        <time>2021-10-12T08:25:43Z</time>
      </trkpt>
      <trkpt lat="37.262695" lon="-4.965963">
        <ele>314.108</ele>
        <time>2021-10-12T08:25:44Z</time>
      </trkpt>
      <trkpt lat="37.262505" lon="-4.966684">
        <ele>314.093</ele>
        <time>2021-10-12T08:25:46Z</time>
      </trkpt>
      <trkpt lat="37.262412" lon="-4.967055">
        <ele>313.661</ele>
        <time>2021-10-12T08:25:47Z</time>
      </trkpt>
      <trkpt lat="37.262313" lon="-4.967426">
        <ele>311.797</ele>
        <time>2021-10-12T08:25:48Z</time>
      </trkpt>
      <trkpt lat="37.262110" lon="-4.968172">
        <ele>307.990</ele>
        <time>2021-10-12T08:25:50Z</time>
      </trkpt>
      <trkpt lat="37.261910" lon="-4.968903">
        <ele>308.966</ele>
        <time>2021-10-12T08:25:52Z</time>
      </trkpt>
      <trkpt lat="37.261810" lon="-4.969270">
        <ele>307.685</ele>
        <time>2021-10-12T08:25:53Z</time>
      </trkpt>
      <trkpt lat="37.261614" lon="-4.969993">
        <ele>304.835</ele>
        <time>2021-10-12T08:25:55Z</time>
      </trkpt>
      <trkpt lat="37.261515" lon="-4.970363">
        <ele>303.776</ele>
        <time>2021-10-12T08:25:56Z</time>
      </trkpt>
      <trkpt lat="37.261326" lon="-4.971070">
        <ele>302.113</ele>
        <time>2021-10-12T08:25:58Z</time>
      </trkpt>
      <trkpt lat="37.261229" lon="-4.971430">
        <ele>301.243</ele>
        <time>2021-10-12T08:25:59Z</time>
      </trkpt>
      <trkpt lat="37.261133" lon="-4.971789">
        <ele>299.607</ele>
        <time>2021-10-12T08:26:00Z</time>
      </trkpt>
      <trkpt lat="37.260937" lon="-4.972518">
        <ele>297.708</ele>
        <time>2021-10-12T08:26:02Z</time>
      </trkpt>
      <trkpt lat="37.260742" lon="-4.973246">
        <ele>295.729</ele>
        <time>2021-10-12T08:26:04Z</time>
      </trkpt>
      <trkpt lat="37.260541" lon="-4.973997">
        <ele>293.617</ele>
        <time>2021-10-12T08:26:06Z</time>
      </trkpt>
      <trkpt lat="37.260339" lon="-4.974753">
        <ele>289.943</ele>
        <time>2021-10-12T08:26:08Z</time>
      </trkpt>
      <trkpt lat="37.260143" lon="-4.975482">
        <ele>289.416</ele>
        <time>2021-10-12T08:26:10Z</time>
      </trkpt>
      <trkpt lat="37.260044" lon="-4.975849">
        <ele>289.822</ele>
        <time>2021-10-12T08:26:11Z</time>
      </trkpt>
      <trkpt lat="37.259946" lon="-4.976213">
        <ele>290.441</ele>
        <time>2021-10-12T08:26:12Z</time>
      </trkpt>
      <trkpt lat="37.259752" lon="-4.976939">
        <ele>292.941</ele>
        <time>2021-10-12T08:26:14Z</time>
      </trkpt>
      <trkpt lat="37.259564" lon="-4.977642">
        <ele>296.022</ele>
        <time>2021-10-12T08:26:16Z</time>
      </trkpt>
      <trkpt lat="37.259466" lon="-4.978005">
        <ele>296.812</ele>
        <time>2021-10-12T08:26:17Z</time>
      </trkpt>
      <trkpt lat="37.259266" lon="-4.978740">
        <ele>299.232</ele>
        <time>2021-10-12T08:26:19Z</time>
      </trkpt>
      <trkpt lat="37.259164" lon="-4.979117">
        <ele>299.805</ele>
        <time>2021-10-12T08:26:20Z</time>
      </trkpt>
      <trkpt lat="37.258968" lon="-4.979847">
        <ele>303.408</ele>
        <time>2021-10-12T08:26:22Z</time>
      </trkpt>
      <trkpt lat="37.258868" lon="-4.980216">
        <ele>300.789</ele>
        <time>2021-10-12T08:26:23Z</time>
      </trkpt>
      <trkpt lat="37.258671" lon="-4.980949">
        <ele>298.667</ele>
        <time>2021-10-12T08:26:25Z</time>
      </trkpt>
      <trkpt lat="37.258574" lon="-4.981315">
        <ele>297.143</ele>
        <time>2021-10-12T08:26:26Z</time>
      </trkpt>
      <trkpt lat="37.258383" lon="-4.982040">
        <ele>295.016</ele>
        <time>2021-10-12T08:26:28Z</time>
      </trkpt>
      <trkpt lat="37.258191" lon="-4.982769">
        <ele>295.592</ele>
        <time>2021-10-12T08:26:30Z</time>
      </trkpt>
      <trkpt lat="37.258096" lon="-4.983139">
        <ele>294.121</ele>
        <time>2021-10-12T08:26:31Z</time>
      </trkpt>
      <trkpt lat="37.258012" lon="-4.983515">
        <ele>290.741</ele>
        <time>2021-10-12T08:26:32Z</time>
      </trkpt>
      <trkpt lat="37.257939" lon="-4.983895">
        <ele>288.032</ele>
        <time>2021-10-12T08:26:33Z</time>
      </trkpt>
      <trkpt lat="37.257881" lon="-4.984281">
        <ele>286.058</ele>
        <time>2021-10-12T08:26:34Z</time>
      </trkpt>
      <trkpt lat="37.257792" lon="-4.985052">
        <ele>286.052</ele>
        <time>2021-10-12T08:26:36Z</time>
      </trkpt>
      <trkpt lat="37.257744" lon="-4.985840">
        <ele>283.317</ele>
        <time>2021-10-12T08:26:38Z</time>
      </trkpt>
      <trkpt lat="37.257737" lon="-4.986616">
        <ele>282.308</ele>
        <time>2021-10-12T08:26:40Z</time>
      </trkpt>
      <trkpt lat="37.257735" lon="-4.987009">
        <ele>280.933</ele>
        <time>2021-10-12T08:26:41Z</time>
      </trkpt>
      <trkpt lat="37.257721" lon="-4.987793">
        <ele>278.411</ele>
        <time>2021-10-12T08:26:43Z</time>
      </trkpt>
      <trkpt lat="37.257713" lon="-4.988197">
        <ele>277.077</ele>
        <time>2021-10-12T08:26:44Z</time>
      </trkpt>
      <trkpt lat="37.257700" lon="-4.988969">
        <ele>274.910</ele>
        <time>2021-10-12T08:26:46Z</time>
      </trkpt>
      <trkpt lat="37.257694" lon="-4.989359">
        <ele>273.116</ele>
        <time>2021-10-12T08:26:47Z</time>
      </trkpt>
      <trkpt lat="37.257692" lon="-4.989749">
        <ele>271.335</ele>
        <time>2021-10-12T08:26:48Z</time>
      </trkpt>
      <trkpt lat="37.257686" lon="-4.990536">
        <ele>271.485</ele>
        <time>2021-10-12T08:26:50Z</time>
      </trkpt>
      <trkpt lat="37.257681" lon="-4.991306">
        <ele>268.156</ele>
        <time>2021-10-12T08:26:52Z</time>
      </trkpt>
      <trkpt lat="37.257673" lon="-4.992082">
        <ele>267.666</ele>
        <time>2021-10-12T08:26:54Z</time>
      </trkpt>
      <trkpt lat="37.257668" lon="-4.992469">
        <ele>266.529</ele>
        <time>2021-10-12T08:26:55Z</time>
      </trkpt>
      <trkpt lat="37.257641" lon="-4.993243">
        <ele>265.021</ele>
        <time>2021-10-12T08:26:57Z</time>
      </trkpt>
      <trkpt lat="37.257574" lon="-4.994015">
        <ele>261.408</ele>
        <time>2021-10-12T08:26:59Z</time>
      </trkpt>
      <trkpt lat="37.257526" lon="-4.994397">
        <ele>259.314</ele>
        <time>2021-10-12T08:27:00Z</time>
      </trkpt>
      <trkpt lat="37.257405" lon="-4.995149">
        <ele>257.072</ele>
        <time>2021-10-12T08:27:02Z</time>
      </trkpt>
      <trkpt lat="37.257326" lon="-4.995531">
        <ele>257.088</ele>
        <time>2021-10-12T08:27:03Z</time>
      </trkpt>
      <trkpt lat="37.257239" lon="-4.995902">
        <ele>256.591</ele>
        <time>2021-10-12T08:27:04Z</time>
      </trkpt>
      <trkpt lat="37.257033" lon="-4.996632">
        <ele>255.067</ele>
        <time>2021-10-12T08:27:06Z</time>
      </trkpt>
      <trkpt lat="37.256778" lon="-4.997351">
        <ele>251.176</ele>
        <time>2021-10-12T08:27:08Z</time>
      </trkpt>
      <trkpt lat="37.256500" lon="-4.998030">
        <ele>249.786</ele>
        <time>2021-10-12T08:27:10Z</time>
      </trkpt>
      <trkpt lat="37.256346" lon="-4.998371">
        <ele>250.187</ele>
        <time>2021-10-12T08:27:11Z</time>
      </trkpt>
      <trkpt lat="37.256019" lon="-4.999020">
        <ele>249.059</ele>
        <time>2021-10-12T08:27:13Z</time>
      </trkpt>
      <trkpt lat="37.255846" lon="-4.999354">
        <ele>248.003</ele>
        <time>2021-10-12T08:27:14Z</time>
      </trkpt>
      <trkpt lat="37.255510" lon="-4.999983">
        <ele>249.123</ele>
        <time>2021-10-12T08:27:16Z</time>
      </trkpt>
      <trkpt lat="37.255149" lon="-5.000574">
        <ele>250.508</ele>
        <time>2021-10-12T08:27:18Z</time>
      </trkpt>
      <trkpt lat="37.254946" lon="-5.000841">
        <ele>249.873</ele>
        <time>2021-10-12T08:27:19Z</time>
      </trkpt>
      <trkpt lat="37.254727" lon="-5.001094">
        <ele>248.151</ele>
        <time>2021-10-12T08:27:20Z</time>
      </trkpt>
      <trkpt lat="37.254278" lon="-5.001537">
        <ele>249.927</ele>
        <time>2021-10-12T08:27:22Z</time>
      </trkpt>
      <trkpt lat="37.253791" lon="-5.001932">
        <ele>250.660</ele>
        <time>2021-10-12T08:27:24Z</time>
      </trkpt>
      <trkpt lat="37.253540" lon="-5.002115">
        <ele>249.156</ele>
        <time>2021-10-12T08:27:25Z</time>
      </trkpt>
      <trkpt lat="37.253278" lon="-5.002303">
        <ele>247.725</ele>
        <time>2021-10-12T08:27:26Z</time>
      </trkpt>
      <trkpt lat="37.252781" lon="-5.002666">
        <ele>248.075</ele>
        <time>2021-10-12T08:27:28Z</time>
      </trkpt>
      <trkpt lat="37.252286" lon="-5.003063">
        <ele>248.886</ele>
        <time>2021-10-12T08:27:30Z</time>
      </trkpt>
      <trkpt lat="37.252052" lon="-5.003282">
        <ele>248.274</ele>
        <time>2021-10-12T08:27:31Z</time>
      </trkpt>
      <trkpt lat="37.251824" lon="-5.003523">
        <ele>247.356</ele>
        <time>2021-10-12T08:27:32Z</time>
      </trkpt>
      <trkpt lat="37.251434" lon="-5.004042">
        <ele>247.721</ele>
        <time>2021-10-12T08:27:34Z</time>
      </trkpt>
      <trkpt lat="37.251259" lon="-5.004339">
        <ele>248.508</ele>
        <time>2021-10-12T08:27:35Z</time>
      </trkpt>
      <trkpt lat="37.250944" lon="-5.004986">
        <ele>247.795</ele>
        <time>2021-10-12T08:27:37Z</time>
      </trkpt>
      <trkpt lat="37.250795" lon="-5.005326">
        <ele>247.163</ele>
        <time>2021-10-12T08:27:38Z</time>
      </trkpt>
      <trkpt lat="37.250519" lon="-5.005972">
        <ele>246.639</ele>
        <time>2021-10-12T08:27:40Z</time>
      </trkpt>
      <trkpt lat="37.250310" lon="-5.006660">
        <ele>245.952</ele>
        <time>2021-10-12T08:27:42Z</time>
      </trkpt>
      <trkpt lat="37.250238" lon="-5.007015">
        <ele>245.848</ele>
        <time>2021-10-12T08:27:43Z</time>
      </trkpt>
      <trkpt lat="37.250190" lon="-5.007377">
        <ele>246.217</ele>
        <time>2021-10-12T08:27:44Z</time>
      </trkpt>
      <trkpt lat="37.250144" lon="-5.008080">
        <ele>248.077</ele>
        <time>2021-10-12T08:27:46Z</time>
      </trkpt>
      <trkpt lat="37.250110" lon="-5.008796">
        <ele>247.898</ele>
        <time>2021-10-12T08:27:48Z</time>
      </trkpt>
      <trkpt lat="37.250079" lon="-5.009156">
        <ele>249.031</ele>
        <time>2021-10-12T08:27:49Z</time>
      </trkpt>
      <trkpt lat="37.250031" lon="-5.009521">
        <ele>250.261</ele>
        <time>2021-10-12T08:27:50Z</time>
      </trkpt>
      <trkpt lat="37.249888" lon="-5.010222">
        <ele>249.807</ele>
        <time>2021-10-12T08:27:52Z</time>
      </trkpt>
      <trkpt lat="37.249771" lon="-5.010575">
        <ele>248.808</ele>
        <time>2021-10-12T08:27:53Z</time>
      </trkpt>
      <trkpt lat="37.249480" lon="-5.011245">
        <ele>248.391</ele>
        <time>2021-10-12T08:27:55Z</time>
      </trkpt>
      <trkpt lat="37.249307" lon="-5.011562">
        <ele>248.279</ele>
        <time>2021-10-12T08:27:56Z</time>
      </trkpt>
      <trkpt lat="37.248939" lon="-5.012120">
        <ele>246.565</ele>
        <time>2021-10-12T08:27:58Z</time>
      </trkpt>
      <trkpt lat="37.248741" lon="-5.012390">
        <ele>246.838</ele>
        <time>2021-10-12T08:27:59Z</time>
      </trkpt>
      <trkpt lat="37.248359" lon="-5.012930">
        <ele>248.544</ele>
        <time>2021-10-12T08:28:01Z</time>
      </trkpt>
      <trkpt lat="37.248177" lon="-5.013227">
        <ele>250.033</ele>
        <time>2021-10-12T08:28:02Z</time>
      </trkpt>
      <trkpt lat="37.247879" lon="-5.013852">
        <ele>252.073</ele>
        <time>2021-10-12T08:28:04Z</time>
      </trkpt>
      <trkpt lat="37.247650" lon="-5.014552">
        <ele>250.254</ele>
        <time>2021-10-12T08:28:06Z</time>
      </trkpt>
      <trkpt lat="37.247565" lon="-5.014921">
        <ele>251.595</ele>
        <time>2021-10-12T08:28:07Z</time>
      </trkpt>
      <trkpt lat="37.247492" lon="-5.015301">
        <ele>252.049</ele>
        <time>2021-10-12T08:28:08Z</time>
      </trkpt>
      <trkpt lat="37.247365" lon="-5.016026">
        <ele>250.623</ele>
        <time>2021-10-12T08:28:10Z</time>
      </trkpt>
      <trkpt lat="37.247301" lon="-5.016388">
        <ele>250.008</ele>
        <time>2021-10-12T08:28:11Z</time>
      </trkpt>
      <trkpt lat="37.247170" lon="-5.017080">
        <ele>252.517</ele>
        <time>2021-10-12T08:28:13Z</time>
      </trkpt>
      <trkpt lat="37.247107" lon="-5.017407">
        <ele>253.445</ele>
        <time>2021-10-12T08:28:14Z</time>
      </trkpt>
      <trkpt lat="37.246993" lon="-5.018005">
        <ele>253.261</ele>
        <time>2021-10-12T08:28:16Z</time>
      </trkpt>
      <trkpt lat="37.246929" lon="-5.018310">
        <ele>253.994</ele>
        <time>2021-10-12T08:28:17Z</time>
      </trkpt>
      <trkpt lat="37.246859" lon="-5.018618">
        <ele>254.780</ele>
        <time>2021-10-12T08:28:18Z</time>
      </trkpt>
      <trkpt lat="37.246702" lon="-5.019245">
        <ele>253.819</ele>
        <time>2021-10-12T08:28:20Z</time>
      </trkpt>
      <trkpt lat="37.246526" lon="-5.019865">
        <ele>253.349</ele>
        <time>2021-10-12T08:28:22Z</time>
      </trkpt>
      <trkpt lat="37.246430" lon="-5.020179">
        <ele>253.760</ele>
        <time>2021-10-12T08:28:23Z</time>
      </trkpt>
      <trkpt lat="37.246329" lon="-5.020492">
        <ele>254.027</ele>
        <time>2021-10-12T08:28:24Z</time>
      </trkpt>
      <trkpt lat="37.246110" lon="-5.021123">
        <ele>255.068</ele>
        <time>2021-10-12T08:28:26Z</time>
      </trkpt>
      <trkpt lat="37.245876" lon="-5.021738">
        <ele>255.814</ele>
        <time>2021-10-12T08:28:28Z</time>
      </trkpt>
      <trkpt lat="37.245746" lon="-5.022047">
        <ele>256.408</ele>
        <time>2021-10-12T08:28:29Z</time>
      </trkpt>
      <trkpt lat="37.245472" lon="-5.022662">
        <ele>258.470</ele>
        <time>2021-10-12T08:28:31Z</time>
      </trkpt>
      <trkpt lat="37.245323" lon="-5.022976">
        <ele>258.898</ele>
        <time>2021-10-12T08:28:32Z</time>
      </trkpt>
      <trkpt lat="37.245018" lon="-5.023575">
        <ele>260.954</ele>
        <time>2021-10-12T08:28:34Z</time>
      </trkpt>
      <trkpt lat="37.244854" lon="-5.023876">
        <ele>261.177</ele>
        <time>2021-10-12T08:28:35Z</time>
      </trkpt>
      <trkpt lat="37.244506" lon="-5.024470">
        <ele>262.923</ele>
        <time>2021-10-12T08:28:37Z</time>
      </trkpt>
      <trkpt lat="37.244318" lon="-5.024773">
        <ele>262.312</ele>
        <time>2021-10-12T08:28:38Z</time>
      </trkpt>
      <trkpt lat="37.243965" lon="-5.025346">
        <ele>262.032</ele>
        <time>2021-10-12T08:28:40Z</time>
      </trkpt>
      <trkpt lat="37.243625" lon="-5.025938">
        <ele>262.973</ele>
        <time>2021-10-12T08:28:42Z</time>
      </trkpt>
      <trkpt lat="37.243308" lon="-5.026559">
        <ele>264.137</ele>
        <time>2021-10-12T08:28:44Z</time>
      </trkpt>
      <trkpt lat="37.243022" lon="-5.027164">
        <ele>265.149</ele>
        <time>2021-10-12T08:28:46Z</time>
      </trkpt>
      <trkpt lat="37.242879" lon="-5.027486">
        <ele>266.613</ele>
        <time>2021-10-12T08:28:47Z</time>
      </trkpt>
      <trkpt lat="37.242614" lon="-5.028122">
        <ele>268.808</ele>
        <time>2021-10-12T08:28:49Z</time>
      </trkpt>
      <trkpt lat="37.242476" lon="-5.028454">
        <ele>269.961</ele>
        <time>2021-10-12T08:28:50Z</time>
      </trkpt>
      <trkpt lat="37.242215" lon="-5.029079">
        <ele>269.729</ele>
        <time>2021-10-12T08:28:52Z</time>
      </trkpt>
      <trkpt lat="37.242077" lon="-5.029397">
        <ele>270.775</ele>
        <time>2021-10-12T08:28:53Z</time>
      </trkpt>
      <trkpt lat="37.241941" lon="-5.029713">
        <ele>271.098</ele>
        <time>2021-10-12T08:28:54Z</time>
      </trkpt>
      <trkpt lat="37.241665" lon="-5.030358">
        <ele>272.344</ele>
        <time>2021-10-12T08:28:56Z</time>
      </trkpt>
      <trkpt lat="37.241405" lon="-5.030991">
        <ele>272.153</ele>
        <time>2021-10-12T08:28:58Z</time>
      </trkpt>
      <trkpt lat="37.241136" lon="-5.031642">
        <ele>272.133</ele>
        <time>2021-10-12T08:29:00Z</time>
      </trkpt>
      <trkpt lat="37.241000" lon="-5.031967">
        <ele>271.794</ele>
        <time>2021-10-12T08:29:01Z</time>
      </trkpt>
      <trkpt lat="37.240861" lon="-5.032299">
        <ele>272.148</ele>
        <time>2021-10-12T08:29:02Z</time>
      </trkpt>
      <trkpt lat="37.240588" lon="-5.032952">
        <ele>274.561</ele>
        <time>2021-10-12T08:29:04Z</time>
      </trkpt>
      <trkpt lat="37.240450" lon="-5.033289">
        <ele>276.717</ele>
        <time>2021-10-12T08:29:05Z</time>
      </trkpt>
      <trkpt lat="37.240190" lon="-5.033962">
        <ele>276.408</ele>
        <time>2021-10-12T08:29:07Z</time>
      </trkpt>
      <trkpt lat="37.240061" lon="-5.034298">
        <ele>275.612</ele>
        <time>2021-10-12T08:29:08Z</time>
      </trkpt>
      <trkpt lat="37.239803" lon="-5.034948">
        <ele>277.120</ele>
        <time>2021-10-12T08:29:10Z</time>
      </trkpt>
      <trkpt lat="37.239673" lon="-5.035276">
        <ele>278.086</ele>
        <time>2021-10-12T08:29:11Z</time>
      </trkpt>
      <trkpt lat="37.239417" lon="-5.035934">
        <ele>278.089</ele>
        <time>2021-10-12T08:29:13Z</time>
      </trkpt>
      <trkpt lat="37.239288" lon="-5.036266">
        <ele>277.465</ele>
        <time>2021-10-12T08:29:14Z</time>
      </trkpt>
      <trkpt lat="37.239040" lon="-5.036905">
        <ele>277.464</ele>
        <time>2021-10-12T08:29:16Z</time>
      </trkpt>
      <trkpt lat="37.238911" lon="-5.037226">
        <ele>278.184</ele>
        <time>2021-10-12T08:29:17Z</time>
      </trkpt>
      <trkpt lat="37.238671" lon="-5.037844">
        <ele>279.225</ele>
        <time>2021-10-12T08:29:19Z</time>
      </trkpt>
      <trkpt lat="37.238551" lon="-5.038154">
        <ele>279.048</ele>
        <time>2021-10-12T08:29:20Z</time>
      </trkpt>
      <trkpt lat="37.238310" lon="-5.038749">
        <ele>280.661</ele>
        <time>2021-10-12T08:29:22Z</time>
      </trkpt>
      <trkpt lat="37.238186" lon="-5.039054">
        <ele>280.917</ele>
        <time>2021-10-12T08:29:23Z</time>
      </trkpt>
      <trkpt lat="37.237944" lon="-5.039655">
        <ele>279.508</ele>
        <time>2021-10-12T08:29:25Z</time>
      </trkpt>
      <trkpt lat="37.237819" lon="-5.039968">
        <ele>280.932</ele>
        <time>2021-10-12T08:29:26Z</time>
      </trkpt>
      <trkpt lat="37.237579" lon="-5.040577">
        <ele>282.350</ele>
        <time>2021-10-12T08:29:28Z</time>
      </trkpt>
      <trkpt lat="37.237333" lon="-5.041214">
        <ele>282.456</ele>
        <time>2021-10-12T08:29:30Z</time>
      </trkpt>
      <trkpt lat="37.237209" lon="-5.041539">
        <ele>283.589</ele>
        <time>2021-10-12T08:29:31Z</time>
      </trkpt>
      <trkpt lat="37.237082" lon="-5.041862">
        <ele>285.115</ele>
        <time>2021-10-12T08:29:32Z</time>
      </trkpt>
      <trkpt lat="37.236829" lon="-5.042514">
        <ele>286.734</ele>
        <time>2021-10-12T08:29:34Z</time>
      </trkpt>
      <trkpt lat="37.236578" lon="-5.043174">
        <ele>289.534</ele>
        <time>2021-10-12T08:29:36Z</time>
      </trkpt>
      <trkpt lat="37.236463" lon="-5.043519">
        <ele>292.345</ele>
        <time>2021-10-12T08:29:37Z</time>
      </trkpt>
      <trkpt lat="37.236355" lon="-5.043880">
        <ele>294.855</ele>
        <time>2021-10-12T08:29:38Z</time>
      </trkpt>
      <trkpt lat="37.236174" lon="-5.044594">
        <ele>295.207</ele>
        <time>2021-10-12T08:29:40Z</time>
      </trkpt>
      <trkpt lat="37.236084" lon="-5.044956">
        <ele>295.017</ele>
        <time>2021-10-12T08:29:41Z</time>
      </trkpt>
      <trkpt lat="37.235994" lon="-5.045316">
        <ele>295.508</ele>
        <time>2021-10-12T08:29:42Z</time>
      </trkpt>
      <trkpt lat="37.235816" lon="-5.046013">
        <ele>296.653</ele>
        <time>2021-10-12T08:29:44Z</time>
      </trkpt>
      <trkpt lat="37.235653" lon="-5.046646">
        <ele>298.911</ele>
        <time>2021-10-12T08:29:46Z</time>
      </trkpt>
      <trkpt lat="37.235492" lon="-5.047281">
        <ele>299.227</ele>
        <time>2021-10-12T08:29:48Z</time>
      </trkpt>
      <trkpt lat="37.235413" lon="-5.047599">
        <ele>300.480</ele>
        <time>2021-10-12T08:29:49Z</time>
      </trkpt>
      <trkpt lat="37.235344" lon="-5.047927">
        <ele>301.966</ele>
        <time>2021-10-12T08:29:50Z</time>
      </trkpt>
      <trkpt lat="37.235251" lon="-5.048571">
        <ele>303.065</ele>
        <time>2021-10-12T08:29:52Z</time>
      </trkpt>
      <trkpt lat="37.235225" lon="-5.048914">
        <ele>302.865</ele>
        <time>2021-10-12T08:29:53Z</time>
      </trkpt>
      <trkpt lat="37.235202" lon="-5.049610">
        <ele>302.796</ele>
        <time>2021-10-12T08:29:55Z</time>
      </trkpt>
      <trkpt lat="37.235198" lon="-5.049977">
        <ele>302.116</ele>
        <time>2021-10-12T08:29:56Z</time>
      </trkpt>
      <trkpt lat="37.235193" lon="-5.050677">
        <ele>301.776</ele>
        <time>2021-10-12T08:29:58Z</time>
      </trkpt>
      <trkpt lat="37.235186" lon="-5.051398">
        <ele>301.313</ele>
        <time>2021-10-12T08:30:00Z</time>
      </trkpt>
      <trkpt lat="37.235179" lon="-5.052131">
        <ele>301.208</ele>
        <time>2021-10-12T08:30:02Z</time>
      </trkpt>
      <trkpt lat="37.235168" lon="-5.052854">
        <ele>301.239</ele>
        <time>2021-10-12T08:30:04Z</time>
      </trkpt>
      <trkpt lat="37.235155" lon="-5.053572">
        <ele>303.097</ele>
        <time>2021-10-12T08:30:06Z</time>
      </trkpt>
      <trkpt lat="37.235144" lon="-5.054291">
        <ele>303.223</ele>
        <time>2021-10-12T08:30:08Z</time>
      </trkpt>
      <trkpt lat="37.235141" lon="-5.054983">
        <ele>306.436</ele>
        <time>2021-10-12T08:30:10Z</time>
      </trkpt>
      <trkpt lat="37.235139" lon="-5.055339">
        <ele>306.342</ele>
        <time>2021-10-12T08:30:11Z</time>
      </trkpt>
      <trkpt lat="37.235133" lon="-5.056054">
        <ele>303.221</ele>
        <time>2021-10-12T08:30:13Z</time>
      </trkpt>
      <trkpt lat="37.235130" lon="-5.056426">
        <ele>302.591</ele>
        <time>2021-10-12T08:30:14Z</time>
      </trkpt>
      <trkpt lat="37.235122" lon="-5.057159">
        <ele>302.132</ele>
        <time>2021-10-12T08:30:16Z</time>
      </trkpt>
      <trkpt lat="37.235110" lon="-5.057912">
        <ele>299.735</ele>
        <time>2021-10-12T08:30:18Z</time>
      </trkpt>
      <trkpt lat="37.235107" lon="-5.058288">
        <ele>298.786</ele>
        <time>2021-10-12T08:30:19Z</time>
      </trkpt>
      <trkpt lat="37.235103" lon="-5.058670">
        <ele>298.014</ele>
        <time>2021-10-12T08:30:20Z</time>
      </trkpt>
      <trkpt lat="37.235096" lon="-5.059412">
        <ele>301.108</ele>
        <time>2021-10-12T08:30:22Z</time>
      </trkpt>
      <trkpt lat="37.235094" lon="-5.059791">
        <ele>301.061</ele>
        <time>2021-10-12T08:30:23Z</time>
      </trkpt>
      <trkpt lat="37.235098" lon="-5.060168">
        <ele>299.419</ele>
        <time>2021-10-12T08:30:24Z</time>
      </trkpt>
      <trkpt lat="37.235133" lon="-5.060915">
        <ele>299.075</ele>
        <time>2021-10-12T08:30:26Z</time>
      </trkpt>
      <trkpt lat="37.235210" lon="-5.061607">
        <ele>299.028</ele>
        <time>2021-10-12T08:30:28Z</time>
      </trkpt>
      <trkpt lat="37.235307" lon="-5.062282">
        <ele>298.224</ele>
        <time>2021-10-12T08:30:30Z</time>
      </trkpt>
      <trkpt lat="37.235431" lon="-5.062952">
        <ele>298.613</ele>
        <time>2021-10-12T08:30:32Z</time>
      </trkpt>
      <trkpt lat="37.235591" lon="-5.063644">
        <ele>299.063</ele>
        <time>2021-10-12T08:30:34Z</time>
      </trkpt>
      <trkpt lat="37.235667" lon="-5.064006">
        <ele>298.294</ele>
        <time>2021-10-12T08:30:35Z</time>
      </trkpt>
      <trkpt lat="37.235817" lon="-5.064733">
        <ele>296.177</ele>
        <time>2021-10-12T08:30:37Z</time>
      </trkpt>
      <trkpt lat="37.235895" lon="-5.065116">
        <ele>296.161</ele>
        <time>2021-10-12T08:30:38Z</time>
      </trkpt>
      <trkpt lat="37.236045" lon="-5.065844">
        <ele>294.327</ele>
        <time>2021-10-12T08:30:40Z</time>
      </trkpt>
      <trkpt lat="37.236194" lon="-5.066562">
        <ele>294.108</ele>
        <time>2021-10-12T08:30:42Z</time>
      </trkpt>
      <trkpt lat="37.236341" lon="-5.067281">
        <ele>292.085</ele>
        <time>2021-10-12T08:30:44Z</time>
      </trkpt>
      <trkpt lat="37.236485" lon="-5.067978">
        <ele>291.773</ele>
        <time>2021-10-12T08:30:46Z</time>
      </trkpt>
      <trkpt lat="37.236627" lon="-5.068671">
        <ele>292.359</ele>
        <time>2021-10-12T08:30:48Z</time>
      </trkpt>
      <trkpt lat="37.236760" lon="-5.069326">
        <ele>292.292</ele>
        <time>2021-10-12T08:30:50Z</time>
      </trkpt>
      <trkpt lat="37.236890" lon="-5.069967">
        <ele>294.028</ele>
        <time>2021-10-12T08:30:52Z</time>
      </trkpt>
      <trkpt lat="37.237028" lon="-5.070631">
        <ele>291.587</ele>
        <time>2021-10-12T08:30:54Z</time>
      </trkpt>
      <trkpt lat="37.237099" lon="-5.070971">
        <ele>290.757</ele>
        <time>2021-10-12T08:30:55Z</time>
      </trkpt>
      <trkpt lat="37.237171" lon="-5.071316">
        <ele>290.268</ele>
        <time>2021-10-12T08:30:56Z</time>
      </trkpt>
      <trkpt lat="37.237243" lon="-5.071659">
        <ele>289.016</ele>
        <time>2021-10-12T08:30:57Z</time>
      </trkpt>
      <trkpt lat="37.237375" lon="-5.072327">
        <ele>287.876</ele>
        <time>2021-10-12T08:30:59Z</time>
      </trkpt>
      <trkpt lat="37.237484" lon="-5.072983">
        <ele>286.313</ele>
        <time>2021-10-12T08:31:01Z</time>
      </trkpt>
      <trkpt lat="37.237514" lon="-5.073315">
        <ele>286.008</ele>
        <time>2021-10-12T08:31:02Z</time>
      </trkpt>
      <trkpt lat="37.237517" lon="-5.073984">
        <ele>286.949</ele>
        <time>2021-10-12T08:31:04Z</time>
      </trkpt>
      <trkpt lat="37.237488" lon="-5.074319">
        <ele>287.647</ele>
        <time>2021-10-12T08:31:05Z</time>
      </trkpt>
      <trkpt lat="37.237385" lon="-5.074972">
        <ele>289.993</ele>
        <time>2021-10-12T08:31:07Z</time>
      </trkpt>
      <trkpt lat="37.237310" lon="-5.075298">
        <ele>290.026</ele>
        <time>2021-10-12T08:31:08Z</time>
      </trkpt>
      <trkpt lat="37.237129" lon="-5.075926">
        <ele>290.762</ele>
        <time>2021-10-12T08:31:10Z</time>
      </trkpt>
      <trkpt lat="37.237027" lon="-5.076242">
        <ele>289.881</ele>
        <time>2021-10-12T08:31:11Z</time>
      </trkpt>
      <trkpt lat="37.236836" lon="-5.076878">
        <ele>287.671</ele>
        <time>2021-10-12T08:31:13Z</time>
      </trkpt>
      <trkpt lat="37.236737" lon="-5.077204">
        <ele>288.062</ele>
        <time>2021-10-12T08:31:14Z</time>
      </trkpt>
      <trkpt lat="37.236539" lon="-5.077832">
        <ele>289.025</ele>
        <time>2021-10-12T08:31:16Z</time>
      </trkpt>
      <trkpt lat="37.236439" lon="-5.078152">
        <ele>288.226</ele>
        <time>2021-10-12T08:31:17Z</time>
      </trkpt>
      <trkpt lat="37.236248" lon="-5.078774">
        <ele>288.808</ele>
        <time>2021-10-12T08:31:19Z</time>
      </trkpt>
      <trkpt lat="37.236151" lon="-5.079084">
        <ele>289.008</ele>
        <time>2021-10-12T08:31:20Z</time>
      </trkpt>
      <trkpt lat="37.235956" lon="-5.079680">
        <ele>290.810</ele>
        <time>2021-10-12T08:31:22Z</time>
      </trkpt>
      <trkpt lat="37.235843" lon="-5.079985">
        <ele>292.928</ele>
        <time>2021-10-12T08:31:23Z</time>
      </trkpt>
      <trkpt lat="37.235599" lon="-5.080586">
        <ele>296.964</ele>
        <time>2021-10-12T08:31:25Z</time>
      </trkpt>
      <trkpt lat="37.235468" lon="-5.080886">
        <ele>299.237</ele>
        <time>2021-10-12T08:31:26Z</time>
      </trkpt>
      <trkpt lat="37.235205" lon="-5.081482">
        <ele>301.633</ele>
        <time>2021-10-12T08:31:28Z</time>
      </trkpt>
      <trkpt lat="37.235069" lon="-5.081771">
        <ele>302.612</ele>
        <time>2021-10-12T08:31:29Z</time>
      </trkpt>
      <trkpt lat="37.234809" lon="-5.082314">
        <ele>303.442</ele>
        <time>2021-10-12T08:31:31Z</time>
      </trkpt>
      <trkpt lat="37.234681" lon="-5.082573">
        <ele>304.353</ele>
        <time>2021-10-12T08:31:32Z</time>
      </trkpt>
      <trkpt lat="37.234429" lon="-5.083105">
        <ele>305.029</ele>
        <time>2021-10-12T08:31:34Z</time>
      </trkpt>
      <trkpt lat="37.234296" lon="-5.083383">
        <ele>305.000</ele>
        <time>2021-10-12T08:31:35Z</time>
      </trkpt>
      <trkpt lat="37.234159" lon="-5.083661">
        <ele>304.820</ele>
        <time>2021-10-12T08:31:36Z</time>
      </trkpt>
      <trkpt lat="37.234021" lon="-5.083944">
        <ele>303.508</ele>
        <time>2021-10-12T08:31:37Z</time>
      </trkpt>
      <trkpt lat="37.233878" lon="-5.084240">
        <ele>303.170</ele>
        <time>2021-10-12T08:31:38Z</time>
      </trkpt>
      <trkpt lat="37.233604" lon="-5.084812">
        <ele>303.688</ele>
        <time>2021-10-12T08:31:40Z</time>
      </trkpt>
      <trkpt lat="37.233325" lon="-5.085382">
        <ele>302.594</ele>
        <time>2021-10-12T08:31:42Z</time>
      </trkpt>
      <trkpt lat="37.233040" lon="-5.085966">
        <ele>295.527</ele>
        <time>2021-10-12T08:31:44Z</time>
      </trkpt>
      <trkpt lat="37.232763" lon="-5.086539">
        <ele>293.453</ele>
        <time>2021-10-12T08:31:46Z</time>
      </trkpt>
      <trkpt lat="37.232621" lon="-5.086831">
        <ele>291.312</ele>
        <time>2021-10-12T08:31:47Z</time>
      </trkpt>
      <trkpt lat="37.232350" lon="-5.087381">
        <ele>289.552</ele>
        <time>2021-10-12T08:31:49Z</time>
      </trkpt>
      <trkpt lat="37.232208" lon="-5.087665">
        <ele>290.533</ele>
        <time>2021-10-12T08:31:50Z</time>
      </trkpt>
      <trkpt lat="37.231925" lon="-5.088229">
        <ele>289.317</ele>
        <time>2021-10-12T08:31:52Z</time>
      </trkpt>
      <trkpt lat="37.231778" lon="-5.088522">
        <ele>287.787</ele>
        <time>2021-10-12T08:31:53Z</time>
      </trkpt>
      <trkpt lat="37.231475" lon="-5.089093">
        <ele>284.715</ele>
        <time>2021-10-12T08:31:55Z</time>
      </trkpt>
      <trkpt lat="37.231326" lon="-5.089369">
        <ele>283.508</ele>
        <time>2021-10-12T08:31:56Z</time>
      </trkpt>
      <trkpt lat="37.231183" lon="-5.089635">
        <ele>282.529</ele>
        <time>2021-10-12T08:31:57Z</time>
      </trkpt>
      <trkpt lat="37.231040" lon="-5.089889">
        <ele>280.327</ele>
        <time>2021-10-12T08:31:58Z</time>
      </trkpt>
      <trkpt lat="37.230758" lon="-5.090382">
        <ele>277.783</ele>
        <time>2021-10-12T08:32:00Z</time>
      </trkpt>
      <trkpt lat="37.230617" lon="-5.090632">
        <ele>277.076</ele>
        <time>2021-10-12T08:32:01Z</time>
      </trkpt>
      <trkpt lat="37.230482" lon="-5.090877">
        <ele>276.112</ele>
        <time>2021-10-12T08:32:02Z</time>
      </trkpt>
      <trkpt lat="37.230218" lon="-5.091337">
        <ele>276.571</ele>
        <time>2021-10-12T08:32:04Z</time>
      </trkpt>
      <trkpt lat="37.230087" lon="-5.091557">
        <ele>275.691</ele>
        <time>2021-10-12T08:32:05Z</time>
      </trkpt>
      <trkpt lat="37.229834" lon="-5.091990">
        <ele>273.852</ele>
        <time>2021-10-12T08:32:07Z</time>
      </trkpt>
      <trkpt lat="37.229708" lon="-5.092216">
        <ele>272.994</ele>
        <time>2021-10-12T08:32:08Z</time>
      </trkpt>
      <trkpt lat="37.229475" lon="-5.092646">
        <ele>271.657</ele>
        <time>2021-10-12T08:32:10Z</time>
      </trkpt>
      <trkpt lat="37.229254" lon="-5.093097">
        <ele>271.722</ele>
        <time>2021-10-12T08:32:12Z</time>
      </trkpt>
      <trkpt lat="37.229077" lon="-5.093589">
        <ele>271.708</ele>
        <time>2021-10-12T08:32:14Z</time>
      </trkpt>
      <trkpt lat="37.228939" lon="-5.094143">
        <ele>272.317</ele>
        <time>2021-10-12T08:32:16Z</time>
      </trkpt>
      <trkpt lat="37.228881" lon="-5.094449">
        <ele>272.995</ele>
        <time>2021-10-12T08:32:17Z</time>
      </trkpt>
      <trkpt lat="37.228793" lon="-5.095103">
        <ele>272.611</ele>
        <time>2021-10-12T08:32:19Z</time>
      </trkpt>
      <trkpt lat="37.228768" lon="-5.095454">
        <ele>272.734</ele>
        <time>2021-10-12T08:32:20Z</time>
      </trkpt>
      <trkpt lat="37.228754" lon="-5.096164">
        <ele>271.410</ele>
        <time>2021-10-12T08:32:22Z</time>
      </trkpt>
      <trkpt lat="37.228748" lon="-5.096534">
        <ele>269.239</ele>
        <time>2021-10-12T08:32:23Z</time>
      </trkpt>
      <trkpt lat="37.228742" lon="-5.096904">
        <ele>265.829</ele>
        <time>2021-10-12T08:32:24Z</time>
      </trkpt>
      <trkpt lat="37.228720" lon="-5.097668">
        <ele>266.550</ele>
        <time>2021-10-12T08:32:26Z</time>
      </trkpt>
      <trkpt lat="37.228692" lon="-5.098418">
        <ele>264.464</ele>
        <time>2021-10-12T08:32:28Z</time>
      </trkpt>
      <trkpt lat="37.228685" lon="-5.098806">
        <ele>262.306</ele>
        <time>2021-10-12T08:32:29Z</time>
      </trkpt>
      <trkpt lat="37.228664" lon="-5.099566">
        <ele>259.616</ele>
        <time>2021-10-12T08:32:31Z</time>
      </trkpt>
      <trkpt lat="37.228617" lon="-5.100308">
        <ele>257.908</ele>
        <time>2021-10-12T08:32:33Z</time>
      </trkpt>
      <trkpt lat="37.228566" lon="-5.100670">
        <ele>256.474</ele>
        <time>2021-10-12T08:32:34Z</time>
      </trkpt>
      <trkpt lat="37.228412" lon="-5.101386">
        <ele>253.382</ele>
        <time>2021-10-12T08:32:36Z</time>
      </trkpt>
      <trkpt lat="37.228219" lon="-5.102110">
        <ele>255.218</ele>
        <time>2021-10-12T08:32:38Z</time>
      </trkpt>
      <trkpt lat="37.228022" lon="-5.102810">
        <ele>254.541</ele>
        <time>2021-10-12T08:32:40Z</time>
      </trkpt>
      <trkpt lat="37.227875" lon="-5.103529">
        <ele>253.547</ele>
        <time>2021-10-12T08:32:42Z</time>
      </trkpt>
      <trkpt lat="37.227812" lon="-5.104260">
        <ele>252.816</ele>
        <time>2021-10-12T08:32:44Z</time>
      </trkpt>
      <trkpt lat="37.227820" lon="-5.104952">
        <ele>251.386</ele>
        <time>2021-10-12T08:32:46Z</time>
      </trkpt>
      <trkpt lat="37.227842" lon="-5.105298">
        <ele>250.417</ele>
        <time>2021-10-12T08:32:47Z</time>
      </trkpt>
      <trkpt lat="37.227892" lon="-5.105991">
        <ele>248.323</ele>
        <time>2021-10-12T08:32:49Z</time>
      </trkpt>
      <trkpt lat="37.227919" lon="-5.106347">
        <ele>247.683</ele>
        <time>2021-10-12T08:32:50Z</time>
      </trkpt>
      <trkpt lat="37.227963" lon="-5.107040">
        <ele>248.711</ele>
        <time>2021-10-12T08:32:52Z</time>
      </trkpt>
      <trkpt lat="37.227986" lon="-5.107398">
        <ele>249.508</ele>
        <time>2021-10-12T08:32:53Z</time>
      </trkpt>
      <trkpt lat="37.228009" lon="-5.107756">
        <ele>248.980</ele>
        <time>2021-10-12T08:32:54Z</time>
      </trkpt>
      <trkpt lat="37.228032" lon="-5.108113">
        <ele>247.678</ele>
        <time>2021-10-12T08:32:55Z</time>
      </trkpt>
      <trkpt lat="37.228057" lon="-5.108481">
        <ele>246.574</ele>
        <time>2021-10-12T08:32:56Z</time>
      </trkpt>
      <trkpt lat="37.228103" lon="-5.109178">
        <ele>244.037</ele>
        <time>2021-10-12T08:32:58Z</time>
      </trkpt>
      <trkpt lat="37.228127" lon="-5.109532">
        <ele>242.973</ele>
        <time>2021-10-12T08:32:59Z</time>
      </trkpt>
      <trkpt lat="37.228151" lon="-5.109886">
        <ele>242.972</ele>
        <time>2021-10-12T08:33:00Z</time>
      </trkpt>
      <trkpt lat="37.228208" lon="-5.110582">
        <ele>243.582</ele>
        <time>2021-10-12T08:33:02Z</time>
      </trkpt>
      <trkpt lat="37.228242" lon="-5.110927">
        <ele>243.433</ele>
        <time>2021-10-12T08:33:03Z</time>
      </trkpt>
      <trkpt lat="37.228326" lon="-5.111611">
        <ele>243.028</ele>
        <time>2021-10-12T08:33:05Z</time>
      </trkpt>
      <trkpt lat="37.228421" lon="-5.112288">
        <ele>238.989</ele>
        <time>2021-10-12T08:33:07Z</time>
      </trkpt>
      <trkpt lat="37.228475" lon="-5.112635">
        <ele>238.517</ele>
        <time>2021-10-12T08:33:08Z</time>
      </trkpt>
      <trkpt lat="37.228595" lon="-5.113314">
        <ele>239.908</ele>
        <time>2021-10-12T08:33:10Z</time>
      </trkpt>
      <trkpt lat="37.228661" lon="-5.113655">
        <ele>239.740</ele>
        <time>2021-10-12T08:33:11Z</time>
      </trkpt>
      <trkpt lat="37.228728" lon="-5.113997">
        <ele>238.838</ele>
        <time>2021-10-12T08:33:12Z</time>
      </trkpt>
      <trkpt lat="37.228877" lon="-5.114687">
        <ele>239.034</ele>
        <time>2021-10-12T08:33:14Z</time>
      </trkpt>
      <trkpt lat="37.229028" lon="-5.115370">
        <ele>238.727</ele>
        <time>2021-10-12T08:33:16Z</time>
      </trkpt>
      <trkpt lat="37.229110" lon="-5.115716">
        <ele>236.873</ele>
        <time>2021-10-12T08:33:17Z</time>
      </trkpt>
      <trkpt lat="37.229284" lon="-5.116402">
        <ele>235.062</ele>
        <time>2021-10-12T08:33:19Z</time>
      </trkpt>
      <trkpt lat="37.229381" lon="-5.116753">
        <ele>235.552</ele>
        <time>2021-10-12T08:33:20Z</time>
      </trkpt>
      <trkpt lat="37.229587" lon="-5.117431">
        <ele>234.233</ele>
        <time>2021-10-12T08:33:22Z</time>
      </trkpt>
      <trkpt lat="37.229699" lon="-5.117779">
        <ele>233.973</ele>
        <time>2021-10-12T08:33:23Z</time>
      </trkpt>
      <trkpt lat="37.229927" lon="-5.118466">
        <ele>231.885</ele>
        <time>2021-10-12T08:33:25Z</time>
      </trkpt>
      <trkpt lat="37.230050" lon="-5.118827">
        <ele>230.213</ele>
        <time>2021-10-12T08:33:26Z</time>
      </trkpt>
      <trkpt lat="37.230307" lon="-5.119514">
        <ele>230.108</ele>
        <time>2021-10-12T08:33:28Z</time>
      </trkpt>
      <trkpt lat="37.230448" lon="-5.119866">
        <ele>230.915</ele>
        <time>2021-10-12T08:33:29Z</time>
      </trkpt>
      <trkpt lat="37.230590" lon="-5.120217">
        <ele>230.313</ele>
        <time>2021-10-12T08:33:30Z</time>
      </trkpt>
      <trkpt lat="37.230738" lon="-5.120567">
        <ele>230.749</ele>
        <time>2021-10-12T08:33:31Z</time>
      </trkpt>
      <trkpt lat="37.230892" lon="-5.120915">
        <ele>231.492</ele>
        <time>2021-10-12T08:33:32Z</time>
      </trkpt>
      <trkpt lat="37.231051" lon="-5.121261">
        <ele>230.728</ele>
        <time>2021-10-12T08:33:33Z</time>
      </trkpt>
      <trkpt lat="37.231378" lon="-5.121945">
        <ele>226.087</ele>
        <time>2021-10-12T08:33:35Z</time>
      </trkpt>
      <trkpt lat="37.231717" lon="-5.122616">
        <ele>226.497</ele>
        <time>2021-10-12T08:33:37Z</time>
      </trkpt>
      <trkpt lat="37.231891" lon="-5.122954">
        <ele>227.068</ele>
        <time>2021-10-12T08:33:38Z</time>
      </trkpt>
      <trkpt lat="37.232229" lon="-5.123592">
        <ele>224.245</ele>
        <time>2021-10-12T08:33:40Z</time>
      </trkpt>
      <trkpt lat="37.232403" lon="-5.123909">
        <ele>225.047</ele>
        <time>2021-10-12T08:33:41Z</time>
      </trkpt>
      <trkpt lat="37.232769" lon="-5.124532">
        <ele>226.711</ele>
        <time>2021-10-12T08:33:43Z</time>
      </trkpt>
      <trkpt lat="37.232970" lon="-5.124853">
        <ele>224.808</ele>
        <time>2021-10-12T08:33:44Z</time>
      </trkpt>
      <trkpt lat="37.233375" lon="-5.125461">
        <ele>223.132</ele>
        <time>2021-10-12T08:33:46Z</time>
      </trkpt>
      <trkpt lat="37.233590" lon="-5.125773">
        <ele>224.090</ele>
        <time>2021-10-12T08:33:47Z</time>
      </trkpt>
      <trkpt lat="37.234003" lon="-5.126379">
        <ele>226.466</ele>
        <time>2021-10-12T08:33:49Z</time>
      </trkpt>
      <trkpt lat="37.234217" lon="-5.126697">
        <ele>226.549</ele>
        <time>2021-10-12T08:33:50Z</time>
      </trkpt>
      <trkpt lat="37.234614" lon="-5.127300">
        <ele>225.365</ele>
        <time>2021-10-12T08:33:52Z</time>
      </trkpt>
      <trkpt lat="37.235025" lon="-5.127898">
        <ele>220.614</ele>
        <time>2021-10-12T08:33:54Z</time>
      </trkpt>
      <trkpt lat="37.235232" lon="-5.128190">
        <ele>220.034</ele>
        <time>2021-10-12T08:33:55Z</time>
      </trkpt>
      <trkpt lat="37.235441" lon="-5.128485">
        <ele>219.555</ele>
        <time>2021-10-12T08:33:56Z</time>
      </trkpt>
      <trkpt lat="37.235814" lon="-5.129051">
        <ele>218.513</ele>
        <time>2021-10-12T08:33:58Z</time>
      </trkpt>
      <trkpt lat="37.236121" lon="-5.129693">
        <ele>220.143</ele>
        <time>2021-10-12T08:34:00Z</time>
      </trkpt>
      <trkpt lat="37.236351" lon="-5.130391">
        <ele>215.707</ele>
        <time>2021-10-12T08:34:02Z</time>
      </trkpt>
      <trkpt lat="37.236504" lon="-5.131132">
        <ele>216.908</ele>
        <time>2021-10-12T08:34:04Z</time>
      </trkpt>
      <trkpt lat="37.236554" lon="-5.131508">
        <ele>217.919</ele>
        <time>2021-10-12T08:34:05Z</time>
      </trkpt>
      <trkpt lat="37.236599" lon="-5.132267">
        <ele>216.857</ele>
        <time>2021-10-12T08:34:07Z</time>
      </trkpt>
      <trkpt lat="37.236606" lon="-5.132655">
        <ele>217.043</ele>
        <time>2021-10-12T08:34:08Z</time>
      </trkpt>
      <trkpt lat="37.236625" lon="-5.133412">
        <ele>216.736</ele>
        <time>2021-10-12T08:34:10Z</time>
      </trkpt>
      <trkpt lat="37.236636" lon="-5.133792">
        <ele>215.992</ele>
        <time>2021-10-12T08:34:11Z</time>
      </trkpt>
      <trkpt lat="37.236661" lon="-5.134541">
        <ele>215.721</ele>
        <time>2021-10-12T08:34:13Z</time>
      </trkpt>
      <trkpt lat="37.236673" lon="-5.134915">
        <ele>214.381</ele>
        <time>2021-10-12T08:34:14Z</time>
      </trkpt>
      <trkpt lat="37.236696" lon="-5.135633">
        <ele>213.952</ele>
        <time>2021-10-12T08:34:16Z</time>
      </trkpt>
      <trkpt lat="37.236717" lon="-5.136357">
        <ele>213.816</ele>
        <time>2021-10-12T08:34:18Z</time>
      </trkpt>
      <trkpt lat="37.236740" lon="-5.137076">
        <ele>211.876</ele>
        <time>2021-10-12T08:34:20Z</time>
      </trkpt>
      <trkpt lat="37.236762" lon="-5.137777">
        <ele>210.713</ele>
        <time>2021-10-12T08:34:22Z</time>
      </trkpt>
      <trkpt lat="37.236786" lon="-5.138482">
        <ele>211.208</ele>
        <time>2021-10-12T08:34:24Z</time>
      </trkpt>
      <trkpt lat="37.236811" lon="-5.139218">
        <ele>210.029</ele>
        <time>2021-10-12T08:34:26Z</time>
      </trkpt>
      <trkpt lat="37.236834" lon="-5.139933">
        <ele>209.467</ele>
        <time>2021-10-12T08:34:28Z</time>
      </trkpt>
      <trkpt lat="37.236843" lon="-5.140304">
        <ele>209.363</ele>
        <time>2021-10-12T08:34:29Z</time>
      </trkpt>
      <trkpt lat="37.236876" lon="-5.141047">
        <ele>207.186</ele>
        <time>2021-10-12T08:34:31Z</time>
      </trkpt>
      <trkpt lat="37.236889" lon="-5.141432">
        <ele>207.092</ele>
        <time>2021-10-12T08:34:32Z</time>
      </trkpt>
      <trkpt lat="37.236887" lon="-5.142160">
        <ele>207.091</ele>
        <time>2021-10-12T08:34:34Z</time>
      </trkpt>
      <trkpt lat="37.236863" lon="-5.142536">
        <ele>207.031</ele>
        <time>2021-10-12T08:34:35Z</time>
      </trkpt>
      <trkpt lat="37.236766" lon="-5.143270">
        <ele>206.022</ele>
        <time>2021-10-12T08:34:37Z</time>
      </trkpt>
      <trkpt lat="37.236695" lon="-5.143639">
        <ele>206.152</ele>
        <time>2021-10-12T08:34:38Z</time>
      </trkpt>
      <trkpt lat="37.236559" lon="-5.144349">
        <ele>207.053</ele>
        <time>2021-10-12T08:34:40Z</time>
      </trkpt>
      <trkpt lat="37.236490" lon="-5.144710">
        <ele>207.608</ele>
        <time>2021-10-12T08:34:41Z</time>
      </trkpt>
      <trkpt lat="37.236426" lon="-5.145067">
        <ele>207.908</ele>
        <time>2021-10-12T08:34:42Z</time>
      </trkpt>
      <trkpt lat="37.236298" lon="-5.145778">
        <ele>208.343</ele>
        <time>2021-10-12T08:34:44Z</time>
      </trkpt>
      <trkpt lat="37.236175" lon="-5.146462">
        <ele>209.061</ele>
        <time>2021-10-12T08:34:46Z</time>
      </trkpt>
      <trkpt lat="37.236051" lon="-5.147148">
        <ele>210.717</ele>
        <time>2021-10-12T08:34:48Z</time>
      </trkpt>
      <trkpt lat="37.235920" lon="-5.147829">
        <ele>208.920</ele>
        <time>2021-10-12T08:34:50Z</time>
      </trkpt>
      <trkpt lat="37.235794" lon="-5.148499">
        <ele>210.656</ele>
        <time>2021-10-12T08:34:52Z</time>
      </trkpt>
      <trkpt lat="37.235732" lon="-5.148845">
        <ele>211.345</ele>
        <time>2021-10-12T08:34:53Z</time>
      </trkpt>
      <trkpt lat="37.235607" lon="-5.149539">
        <ele>211.925</ele>
        <time>2021-10-12T08:34:55Z</time>
      </trkpt>
      <trkpt lat="37.235543" lon="-5.149901">
        <ele>211.466</ele>
        <time>2021-10-12T08:34:56Z</time>
      </trkpt>
      <trkpt lat="37.235419" lon="-5.150601">
        <ele>210.264</ele>
        <time>2021-10-12T08:34:58Z</time>
      </trkpt>
      <trkpt lat="37.235355" lon="-5.150957">
        <ele>211.706</ele>
        <time>2021-10-12T08:34:59Z</time>
      </trkpt>
      <trkpt lat="37.235219" lon="-5.151655">
        <ele>210.516</ele>
        <time>2021-10-12T08:35:01Z</time>
      </trkpt>
      <trkpt lat="37.235094" lon="-5.152345">
        <ele>212.808</ele>
        <time>2021-10-12T08:35:03Z</time>
      </trkpt>
      <trkpt lat="37.234973" lon="-5.153035">
        <ele>213.074</ele>
        <time>2021-10-12T08:35:05Z</time>
      </trkpt>
      <trkpt lat="37.234843" lon="-5.153719">
        <ele>211.662</ele>
        <time>2021-10-12T08:35:07Z</time>
      </trkpt>
      <trkpt lat="37.234776" lon="-5.154069">
        <ele>212.598</ele>
        <time>2021-10-12T08:35:08Z</time>
      </trkpt>
      <trkpt lat="37.234654" lon="-5.154749">
        <ele>212.811</ele>
        <time>2021-10-12T08:35:10Z</time>
      </trkpt>
      <trkpt lat="37.234532" lon="-5.155449">
        <ele>211.787</ele>
        <time>2021-10-12T08:35:12Z</time>
      </trkpt>
      <trkpt lat="37.234415" lon="-5.156168">
        <ele>212.496</ele>
        <time>2021-10-12T08:35:14Z</time>
      </trkpt>
      <trkpt lat="37.234339" lon="-5.156864">
        <ele>212.936</ele>
        <time>2021-10-12T08:35:16Z</time>
      </trkpt>
      <trkpt lat="37.234314" lon="-5.157218">
        <ele>212.987</ele>
        <time>2021-10-12T08:35:17Z</time>
      </trkpt>
      <trkpt lat="37.234262" lon="-5.157919">
        <ele>212.576</ele>
        <time>2021-10-12T08:35:19Z</time>
      </trkpt>
      <trkpt lat="37.234234" lon="-5.158279">
        <ele>212.190</ele>
        <time>2021-10-12T08:35:20Z</time>
      </trkpt>
      <trkpt lat="37.234179" lon="-5.158973">
        <ele>212.019</ele>
        <time>2021-10-12T08:35:22Z</time>
      </trkpt>
      <trkpt lat="37.234152" lon="-5.159323">
        <ele>212.008</ele>
        <time>2021-10-12T08:35:23Z</time>
      </trkpt>
      <trkpt lat="37.234094" lon="-5.160022">
        <ele>212.045</ele>
        <time>2021-10-12T08:35:25Z</time>
      </trkpt>
      <trkpt lat="37.234027" lon="-5.160726">
        <ele>211.743</ele>
        <time>2021-10-12T08:35:27Z</time>
      </trkpt>
      <trkpt lat="37.233935" lon="-5.161419">
        <ele>213.179</ele>
        <time>2021-10-12T08:35:29Z</time>
      </trkpt>
      <trkpt lat="37.233872" lon="-5.161770">
        <ele>213.692</ele>
        <time>2021-10-12T08:35:30Z</time>
      </trkpt>
      <trkpt lat="37.233726" lon="-5.162467">
        <ele>213.038</ele>
        <time>2021-10-12T08:35:32Z</time>
      </trkpt>
      <trkpt lat="37.233580" lon="-5.163169">
        <ele>214.057</ele>
        <time>2021-10-12T08:35:34Z</time>
      </trkpt>
      <trkpt lat="37.233508" lon="-5.163521">
        <ele>214.347</ele>
        <time>2021-10-12T08:35:35Z</time>
      </trkpt>
      <trkpt lat="37.233438" lon="-5.163877">
        <ele>215.258</ele>
        <time>2021-10-12T08:35:36Z</time>
      </trkpt>
      <trkpt lat="37.233283" lon="-5.164588">
        <ele>216.467</ele>
        <time>2021-10-12T08:35:38Z</time>
      </trkpt>
      <trkpt lat="37.233110" lon="-5.165277">
        <ele>214.281</ele>
        <time>2021-10-12T08:35:40Z</time>
      </trkpt>
      <trkpt lat="37.233014" lon="-5.165631">
        <ele>212.619</ele>
        <time>2021-10-12T08:35:41Z</time>
      </trkpt>
      <trkpt lat="37.232833" lon="-5.166340">
        <ele>209.808</ele>
        <time>2021-10-12T08:35:43Z</time>
      </trkpt>
      <trkpt lat="37.232740" lon="-5.166703">
        <ele>210.494</ele>
        <time>2021-10-12T08:35:44Z</time>
      </trkpt>
      <trkpt lat="37.232570" lon="-5.167412">
        <ele>212.072</ele>
        <time>2021-10-12T08:35:46Z</time>
      </trkpt>
      <trkpt lat="37.232503" lon="-5.167781">
        <ele>213.058</ele>
        <time>2021-10-12T08:35:47Z</time>
      </trkpt>
      <trkpt lat="37.232448" lon="-5.168153">
        <ele>214.041</ele>
        <time>2021-10-12T08:35:48Z</time>
      </trkpt>
      <trkpt lat="37.232386" lon="-5.168917">
        <ele>214.417</ele>
        <time>2021-10-12T08:35:50Z</time>
      </trkpt>
      <trkpt lat="37.232370" lon="-5.169666">
        <ele>213.146</ele>
        <time>2021-10-12T08:35:52Z</time>
      </trkpt>
      <trkpt lat="37.232360" lon="-5.170432">
        <ele>212.596</ele>
        <time>2021-10-12T08:35:54Z</time>
      </trkpt>
      <trkpt lat="37.232351" lon="-5.170815">
        <ele>213.027</ele>
        <time>2021-10-12T08:35:55Z</time>
      </trkpt>
      <trkpt lat="37.232334" lon="-5.171580">
        <ele>211.974</ele>
        <time>2021-10-12T08:35:57Z</time>
      </trkpt>
      <trkpt lat="37.232326" lon="-5.172351">
        <ele>211.856</ele>
        <time>2021-10-12T08:35:59Z</time>
      </trkpt>
      <trkpt lat="37.232333" lon="-5.172736">
        <ele>212.021</ele>
        <time>2021-10-12T08:36:00Z</time>
      </trkpt>
      <trkpt lat="37.232355" lon="-5.173120">
        <ele>212.108</ele>
        <time>2021-10-12T08:36:01Z</time>
      </trkpt>
      <trkpt lat="37.232400" lon="-5.173492">
        <ele>212.885</ele>
        <time>2021-10-12T08:36:02Z</time>
      </trkpt>
      <trkpt lat="37.232466" lon="-5.173854">
        <ele>213.063</ele>
        <time>2021-10-12T08:36:03Z</time>
      </trkpt>
      <trkpt lat="37.232637" lon="-5.174553">
        <ele>213.459</ele>
        <time>2021-10-12T08:36:05Z</time>
      </trkpt>
      <trkpt lat="37.232728" lon="-5.174899">
        <ele>214.042</ele>
        <time>2021-10-12T08:36:06Z</time>
      </trkpt>
      <trkpt lat="37.232907" lon="-5.175589">
        <ele>214.038</ele>
        <time>2021-10-12T08:36:08Z</time>
      </trkpt>
      <trkpt lat="37.233073" lon="-5.176257">
        <ele>215.167</ele>
        <time>2021-10-12T08:36:10Z</time>
      </trkpt>
      <trkpt lat="37.233155" lon="-5.176603">
        <ele>216.237</ele>
        <time>2021-10-12T08:36:11Z</time>
      </trkpt>
      <trkpt lat="37.233233" lon="-5.176945">
        <ele>218.028</ele>
        <time>2021-10-12T08:36:12Z</time>
      </trkpt>
      <trkpt lat="37.233340" lon="-5.177652">
        <ele>219.099</ele>
        <time>2021-10-12T08:36:14Z</time>
      </trkpt>
      <trkpt lat="37.233404" lon="-5.178357">
        <ele>218.307</ele>
        <time>2021-10-12T08:36:16Z</time>
      </trkpt>
      <trkpt lat="37.233442" lon="-5.178720">
        <ele>219.027</ele>
        <time>2021-10-12T08:36:17Z</time>
      </trkpt>
      <trkpt lat="37.233519" lon="-5.179447">
        <ele>218.708</ele>
        <time>2021-10-12T08:36:19Z</time>
      </trkpt>
      <trkpt lat="37.233544" lon="-5.179828">
        <ele>217.497</ele>
        <time>2021-10-12T08:36:20Z</time>
      </trkpt>
      <trkpt lat="37.233542" lon="-5.180570">
        <ele>216.015</ele>
        <time>2021-10-12T08:36:22Z</time>
      </trkpt>
      <trkpt lat="37.233517" lon="-5.180949">
        <ele>214.911</ele>
        <time>2021-10-12T08:36:23Z</time>
      </trkpt>
      <trkpt lat="37.233483" lon="-5.181327">
        <ele>213.734</ele>
        <time>2021-10-12T08:36:24Z</time>
      </trkpt>
      <trkpt lat="37.233447" lon="-5.181702">
        <ele>212.930</ele>
        <time>2021-10-12T08:36:25Z</time>
      </trkpt>
      <trkpt lat="37.233417" lon="-5.182074">
        <ele>212.829</ele>
        <time>2021-10-12T08:36:26Z</time>
      </trkpt>
      <trkpt lat="37.233360" lon="-5.182807">
        <ele>213.059</ele>
        <time>2021-10-12T08:36:28Z</time>
      </trkpt>
      <trkpt lat="37.233308" lon="-5.183516">
        <ele>212.890</ele>
        <time>2021-10-12T08:36:30Z</time>
      </trkpt>
      <trkpt lat="37.233288" lon="-5.183868">
        <ele>212.547</ele>
        <time>2021-10-12T08:36:31Z</time>
      </trkpt>
      <trkpt lat="37.233274" lon="-5.184224">
        <ele>211.929</ele>
        <time>2021-10-12T08:36:32Z</time>
      </trkpt>
      <trkpt lat="37.233250" lon="-5.184942">
        <ele>209.221</ele>
        <time>2021-10-12T08:36:34Z</time>
      </trkpt>
      <trkpt lat="37.233237" lon="-5.185304">
        <ele>206.208</ele>
        <time>2021-10-12T08:36:35Z</time>
      </trkpt>
      <trkpt lat="37.233207" lon="-5.186027">
        <ele>205.472</ele>
        <time>2021-10-12T08:36:37Z</time>
      </trkpt>
      <trkpt lat="37.233195" lon="-5.186399">
        <ele>205.030</ele>
        <time>2021-10-12T08:36:38Z</time>
      </trkpt>
      <trkpt lat="37.233173" lon="-5.187111">
        <ele>203.486</ele>
        <time>2021-10-12T08:36:40Z</time>
      </trkpt>
      <trkpt lat="37.233207" lon="-5.187846">
        <ele>202.949</ele>
        <time>2021-10-12T08:36:42Z</time>
      </trkpt>
      <trkpt lat="37.233254" lon="-5.188219">
        <ele>201.955</ele>
        <time>2021-10-12T08:36:43Z</time>
      </trkpt>
      <trkpt lat="37.233307" lon="-5.188588">
        <ele>202.084</ele>
        <time>2021-10-12T08:36:44Z</time>
      </trkpt>
      <trkpt lat="37.233403" lon="-5.189290">
        <ele>202.594</ele>
        <time>2021-10-12T08:36:46Z</time>
      </trkpt>
      <trkpt lat="37.233495" lon="-5.189996">
        <ele>202.335</ele>
        <time>2021-10-12T08:36:48Z</time>
      </trkpt>
      <trkpt lat="37.233585" lon="-5.190703">
        <ele>202.178</ele>
        <time>2021-10-12T08:36:50Z</time>
      </trkpt>
      <trkpt lat="37.233671" lon="-5.191391">
        <ele>204.633</ele>
        <time>2021-10-12T08:36:52Z</time>
      </trkpt>
      <trkpt lat="37.233708" lon="-5.191745">
        <ele>204.126</ele>
        <time>2021-10-12T08:36:53Z</time>
      </trkpt>
      <trkpt lat="37.233738" lon="-5.192105">
        <ele>203.508</ele>
        <time>2021-10-12T08:36:54Z</time>
      </trkpt>
      <trkpt lat="37.233763" lon="-5.192855">
        <ele>200.735</ele>
        <time>2021-10-12T08:36:56Z</time>
      </trkpt>
      <trkpt lat="37.233731" lon="-5.193615">
        <ele>197.053</ele>
        <time>2021-10-12T08:36:58Z</time>
      </trkpt>
      <trkpt lat="37.233652" lon="-5.194406">
        <ele>195.019</ele>
        <time>2021-10-12T08:37:00Z</time>
      </trkpt>
      <trkpt lat="37.233608" lon="-5.194801">
        <ele>194.092</ele>
        <time>2021-10-12T08:37:01Z</time>
      </trkpt>
      <trkpt lat="37.233534" lon="-5.195563">
        <ele>194.748</ele>
        <time>2021-10-12T08:37:03Z</time>
      </trkpt>
      <trkpt lat="37.233498" lon="-5.195936">
        <ele>195.057</ele>
        <time>2021-10-12T08:37:04Z</time>
      </trkpt>
      <trkpt lat="37.233457" lon="-5.196308">
        <ele>194.417</ele>
        <time>2021-10-12T08:37:05Z</time>
      </trkpt>
      <trkpt lat="37.233372" lon="-5.197051">
        <ele>194.978</ele>
        <time>2021-10-12T08:37:07Z</time>
      </trkpt>
      <trkpt lat="37.233332" lon="-5.197432">
        <ele>195.062</ele>
        <time>2021-10-12T08:37:08Z</time>
      </trkpt>
      <trkpt lat="37.233258" lon="-5.198155">
        <ele>194.183</ele>
        <time>2021-10-12T08:37:10Z</time>
      </trkpt>
      <trkpt lat="37.233223" lon="-5.198536">
        <ele>195.411</ele>
        <time>2021-10-12T08:37:11Z</time>
      </trkpt>
      <trkpt lat="37.233188" lon="-5.198920">
        <ele>196.508</ele>
        <time>2021-10-12T08:37:12Z</time>
      </trkpt>
      <trkpt lat="37.233118" lon="-5.199690">
        <ele>196.674</ele>
        <time>2021-10-12T08:37:14Z</time>
      </trkpt>
      <trkpt lat="37.233047" lon="-5.200447">
        <ele>197.652</ele>
        <time>2021-10-12T08:37:16Z</time>
      </trkpt>
      <trkpt lat="37.232977" lon="-5.201226">
        <ele>198.198</ele>
        <time>2021-10-12T08:37:18Z</time>
      </trkpt>
      <trkpt lat="37.232908" lon="-5.202004">
        <ele>201.611</ele>
        <time>2021-10-12T08:37:20Z</time>
      </trkpt>
      <trkpt lat="37.232838" lon="-5.202762">
        <ele>205.757</ele>
        <time>2021-10-12T08:37:22Z</time>
      </trkpt>
      <trkpt lat="37.232802" lon="-5.203157">
        <ele>207.336</ele>
        <time>2021-10-12T08:37:23Z</time>
      </trkpt>
      <trkpt lat="37.232767" lon="-5.203556">
        <ele>208.036</ele>
        <time>2021-10-12T08:37:24Z</time>
      </trkpt>
      <trkpt lat="37.232739" lon="-5.203957">
        <ele>209.467</ele>
        <time>2021-10-12T08:37:25Z</time>
      </trkpt>
      <trkpt lat="37.232726" lon="-5.204371">
        <ele>210.329</ele>
        <time>2021-10-12T08:37:26Z</time>
      </trkpt>
      <trkpt lat="37.232764" lon="-5.205164">
        <ele>212.100</ele>
        <time>2021-10-12T08:37:28Z</time>
      </trkpt>
      <trkpt lat="37.232798" lon="-5.205572">
        <ele>212.820</ele>
        <time>2021-10-12T08:37:29Z</time>
      </trkpt>
      <trkpt lat="37.232831" lon="-5.205976">
        <ele>212.408</ele>
        <time>2021-10-12T08:37:30Z</time>
      </trkpt>
      <trkpt lat="37.232896" lon="-5.206794">
        <ele>215.410</ele>
        <time>2021-10-12T08:37:32Z</time>
      </trkpt>
      <trkpt lat="37.232954" lon="-5.207567">
        <ele>219.078</ele>
        <time>2021-10-12T08:37:34Z</time>
      </trkpt>
      <trkpt lat="37.232982" lon="-5.207952">
        <ele>220.274</ele>
        <time>2021-10-12T08:37:35Z</time>
      </trkpt>
      <trkpt lat="37.233037" lon="-5.208704">
        <ele>222.817</ele>
        <time>2021-10-12T08:37:37Z</time>
      </trkpt>
      <trkpt lat="37.233060" lon="-5.209086">
        <ele>224.753</ele>
        <time>2021-10-12T08:37:38Z</time>
      </trkpt>
      <trkpt lat="37.233105" lon="-5.209804">
        <ele>226.992</ele>
        <time>2021-10-12T08:37:40Z</time>
      </trkpt>
      <trkpt lat="37.233126" lon="-5.210164">
        <ele>227.772</ele>
        <time>2021-10-12T08:37:41Z</time>
      </trkpt>
      <trkpt lat="37.233138" lon="-5.210522">
        <ele>229.883</ele>
        <time>2021-10-12T08:37:42Z</time>
      </trkpt>
      <trkpt lat="37.233109" lon="-5.211251">
        <ele>229.862</ele>
        <time>2021-10-12T08:37:44Z</time>
      </trkpt>
      <trkpt lat="37.233055" lon="-5.211962">
        <ele>230.083</ele>
        <time>2021-10-12T08:37:46Z</time>
      </trkpt>
      <trkpt lat="37.233031" lon="-5.212341">
        <ele>230.411</ele>
        <time>2021-10-12T08:37:47Z</time>
      </trkpt>
      <trkpt lat="37.233008" lon="-5.212712">
        <ele>231.108</ele>
        <time>2021-10-12T08:37:48Z</time>
      </trkpt>
      <trkpt lat="37.232959" lon="-5.213478">
        <ele>230.224</ele>
        <time>2021-10-12T08:37:50Z</time>
      </trkpt>
      <trkpt lat="37.232900" lon="-5.214244">
        <ele>229.332</ele>
        <time>2021-10-12T08:37:52Z</time>
      </trkpt>
      <trkpt lat="37.232873" lon="-5.214644">
        <ele>228.548</ele>
        <time>2021-10-12T08:37:53Z</time>
      </trkpt>
      <trkpt lat="37.232843" lon="-5.215052">
        <ele>227.211</ele>
        <time>2021-10-12T08:37:54Z</time>
      </trkpt>
      <trkpt lat="37.232790" lon="-5.215887">
        <ele>225.887</ele>
        <time>2021-10-12T08:37:56Z</time>
      </trkpt>
      <trkpt lat="37.232719" lon="-5.216687">
        <ele>225.286</ele>
        <time>2021-10-12T08:37:58Z</time>
      </trkpt>
      <trkpt lat="37.232671" lon="-5.217089">
        <ele>225.036</ele>
        <time>2021-10-12T08:37:59Z</time>
      </trkpt>
      <trkpt lat="37.232552" lon="-5.217879">
        <ele>224.117</ele>
        <time>2021-10-12T08:38:01Z</time>
      </trkpt>
      <trkpt lat="37.232496" lon="-5.218269">
        <ele>223.264</ele>
        <time>2021-10-12T08:38:02Z</time>
      </trkpt>
      <trkpt lat="37.232400" lon="-5.219040">
        <ele>222.006</ele>
        <time>2021-10-12T08:38:04Z</time>
      </trkpt>
      <trkpt lat="37.232283" lon="-5.219801">
        <ele>219.516</ele>
        <time>2021-10-12T08:38:06Z</time>
      </trkpt>
      <trkpt lat="37.232168" lon="-5.220560">
        <ele>217.008</ele>
        <time>2021-10-12T08:38:08Z</time>
      </trkpt>
      <trkpt lat="37.232110" lon="-5.221295">
        <ele>214.994</ele>
        <time>2021-10-12T08:38:10Z</time>
      </trkpt>
      <trkpt lat="37.232135" lon="-5.222051">
        <ele>214.762</ele>
        <time>2021-10-12T08:38:12Z</time>
      </trkpt>
      <trkpt lat="37.232154" lon="-5.222425">
        <ele>214.018</ele>
        <time>2021-10-12T08:38:13Z</time>
      </trkpt>
      <trkpt lat="37.232167" lon="-5.222811">
        <ele>212.761</ele>
        <time>2021-10-12T08:38:14Z</time>
      </trkpt>
      <trkpt lat="37.232207" lon="-5.223556">
        <ele>211.187</ele>
        <time>2021-10-12T08:38:16Z</time>
      </trkpt>
      <trkpt lat="37.232254" lon="-5.224319">
        <ele>210.076</ele>
        <time>2021-10-12T08:38:18Z</time>
      </trkpt>
      <trkpt lat="37.232304" lon="-5.225094">
        <ele>207.396</ele>
        <time>2021-10-12T08:38:20Z</time>
      </trkpt>
      <trkpt lat="37.232361" lon="-5.225840">
        <ele>205.587</ele>
        <time>2021-10-12T08:38:22Z</time>
      </trkpt>
      <trkpt lat="37.232380" lon="-5.226220">
        <ele>205.056</ele>
        <time>2021-10-12T08:38:23Z</time>
      </trkpt>
      <trkpt lat="37.232384" lon="-5.226599">
        <ele>205.359</ele>
        <time>2021-10-12T08:38:24Z</time>
      </trkpt>
      <trkpt lat="37.232359" lon="-5.227348">
        <ele>205.514</ele>
        <time>2021-10-12T08:38:26Z</time>
      </trkpt>
      <trkpt lat="37.232321" lon="-5.228060">
        <ele>203.308</ele>
        <time>2021-10-12T08:38:28Z</time>
      </trkpt>
      <trkpt lat="37.232297" lon="-5.228776">
        <ele>201.423</ele>
        <time>2021-10-12T08:38:30Z</time>
      </trkpt>
      <trkpt lat="37.232273" lon="-5.229505">
        <ele>197.481</ele>
        <time>2021-10-12T08:38:32Z</time>
      </trkpt>
      <trkpt lat="37.232248" lon="-5.230216">
        <ele>200.087</ele>
        <time>2021-10-12T08:38:34Z</time>
      </trkpt>
      <trkpt lat="37.232221" lon="-5.230954">
        <ele>197.650</ele>
        <time>2021-10-12T08:38:36Z</time>
      </trkpt>
      <trkpt lat="37.232192" lon="-5.231702">
        <ele>196.086</ele>
        <time>2021-10-12T08:38:38Z</time>
      </trkpt>
      <trkpt lat="37.232161" lon="-5.232437">
        <ele>194.295</ele>
        <time>2021-10-12T08:38:40Z</time>
      </trkpt>
      <trkpt lat="37.232134" lon="-5.233184">
        <ele>191.595</ele>
        <time>2021-10-12T08:38:42Z</time>
      </trkpt>
      <trkpt lat="37.232119" lon="-5.233558">
        <ele>191.336</ele>
        <time>2021-10-12T08:38:43Z</time>
      </trkpt>
      <trkpt lat="37.232104" lon="-5.233940">
        <ele>191.926</ele>
        <time>2021-10-12T08:38:44Z</time>
      </trkpt>
      <trkpt lat="37.232079" lon="-5.234668">
        <ele>190.647</ele>
        <time>2021-10-12T08:38:46Z</time>
      </trkpt>
      <trkpt lat="37.232053" lon="-5.235409">
        <ele>191.811</ele>
        <time>2021-10-12T08:38:48Z</time>
      </trkpt>
      <trkpt lat="37.232019" lon="-5.236149">
        <ele>193.008</ele>
        <time>2021-10-12T08:38:50Z</time>
      </trkpt>
      <trkpt lat="37.231986" lon="-5.236864">
        <ele>192.370</ele>
        <time>2021-10-12T08:38:52Z</time>
      </trkpt>
      <trkpt lat="37.231928" lon="-5.237592">
        <ele>192.318</ele>
        <time>2021-10-12T08:38:54Z</time>
      </trkpt>
      <trkpt lat="37.231811" lon="-5.238322">
        <ele>190.624</ele>
        <time>2021-10-12T08:38:56Z</time>
      </trkpt>
      <trkpt lat="37.231672" lon="-5.239028">
        <ele>184.177</ele>
        <time>2021-10-12T08:38:58Z</time>
      </trkpt>
      <trkpt lat="37.231545" lon="-5.239743">
        <ele>181.513</ele>
        <time>2021-10-12T08:39:00Z</time>
      </trkpt>
      <trkpt lat="37.231426" lon="-5.240446">
        <ele>177.842</ele>
        <time>2021-10-12T08:39:02Z</time>
      </trkpt>
      <trkpt lat="37.231363" lon="-5.240811">
        <ele>175.172</ele>
        <time>2021-10-12T08:39:03Z</time>
      </trkpt>
      <trkpt lat="37.231275" lon="-5.241534">
        <ele>172.013</ele>
        <time>2021-10-12T08:39:05Z</time>
      </trkpt>
      <trkpt lat="37.231259" lon="-5.241909">
        <ele>171.594</ele>
        <time>2021-10-12T08:39:06Z</time>
      </trkpt>
      <trkpt lat="37.231284" lon="-5.242679">
        <ele>169.457</ele>
        <time>2021-10-12T08:39:08Z</time>
      </trkpt>
      <trkpt lat="37.231346" lon="-5.243433">
        <ele>167.722</ele>
        <time>2021-10-12T08:39:10Z</time>
      </trkpt>
      <trkpt lat="37.231408" lon="-5.244183">
        <ele>167.108</ele>
        <time>2021-10-12T08:39:12Z</time>
      </trkpt>
      <trkpt lat="37.231465" lon="-5.244921">
        <ele>169.777</ele>
        <time>2021-10-12T08:39:14Z</time>
      </trkpt>
      <trkpt lat="37.231510" lon="-5.245627">
        <ele>167.745</ele>
        <time>2021-10-12T08:39:16Z</time>
      </trkpt>
      <trkpt lat="37.231527" lon="-5.245986">
        <ele>166.061</ele>
        <time>2021-10-12T08:39:17Z</time>
      </trkpt>
      <trkpt lat="37.231550" lon="-5.246695">
        <ele>166.974</ele>
        <time>2021-10-12T08:39:19Z</time>
      </trkpt>
      <trkpt lat="37.231549" lon="-5.247055">
        <ele>167.450</ele>
        <time>2021-10-12T08:39:20Z</time>
      </trkpt>
      <trkpt lat="37.231540" lon="-5.247737">
        <ele>170.389</ele>
        <time>2021-10-12T08:39:22Z</time>
      </trkpt>
      <trkpt lat="37.231532" lon="-5.248085">
        <ele>172.829</ele>
        <time>2021-10-12T08:39:23Z</time>
      </trkpt>
      <trkpt lat="37.231522" lon="-5.248775">
        <ele>176.530</ele>
        <time>2021-10-12T08:39:25Z</time>
      </trkpt>
      <trkpt lat="37.231514" lon="-5.249117">
        <ele>177.431</ele>
        <time>2021-10-12T08:39:26Z</time>
      </trkpt>
      <trkpt lat="37.231506" lon="-5.249458">
        <ele>177.461</ele>
        <time>2021-10-12T08:39:27Z</time>
      </trkpt>
      <trkpt lat="37.231487" lon="-5.250129">
        <ele>179.507</ele>
        <time>2021-10-12T08:39:29Z</time>
      </trkpt>
      <trkpt lat="37.231474" lon="-5.250799">
        <ele>179.908</ele>
        <time>2021-10-12T08:39:31Z</time>
      </trkpt>
      <trkpt lat="37.231467" lon="-5.251140">
        <ele>179.991</ele>
        <time>2021-10-12T08:39:32Z</time>
      </trkpt>
      <trkpt lat="37.231440" lon="-5.251818">
        <ele>183.599</ele>
        <time>2021-10-12T08:39:34Z</time>
      </trkpt>
      <trkpt lat="37.231423" lon="-5.252164">
        <ele>185.765</ele>
        <time>2021-10-12T08:39:35Z</time>
      </trkpt>
      <trkpt lat="37.231405" lon="-5.252513">
        <ele>186.228</ele>
        <time>2021-10-12T08:39:36Z</time>
      </trkpt>
      <trkpt lat="37.231350" lon="-5.253225">
        <ele>186.624</ele>
        <time>2021-10-12T08:39:38Z</time>
      </trkpt>
      <trkpt lat="37.231273" lon="-5.253932">
        <ele>185.753</ele>
        <time>2021-10-12T08:39:40Z</time>
      </trkpt>
      <trkpt lat="37.231221" lon="-5.254295">
        <ele>184.683</ele>
        <time>2021-10-12T08:39:41Z</time>
      </trkpt>
      <trkpt lat="37.231108" lon="-5.255028">
        <ele>186.014</ele>
        <time>2021-10-12T08:39:43Z</time>
      </trkpt>
      <trkpt lat="37.231052" lon="-5.255405">
        <ele>186.737</ele>
        <time>2021-10-12T08:39:44Z</time>
      </trkpt>
      <trkpt lat="37.230944" lon="-5.256129">
        <ele>189.149</ele>
        <time>2021-10-12T08:39:46Z</time>
      </trkpt>
      <trkpt lat="37.230806" lon="-5.256849">
        <ele>190.013</ele>
        <time>2021-10-12T08:39:48Z</time>
      </trkpt>
      <trkpt lat="37.230720" lon="-5.257204">
        <ele>190.408</ele>
        <time>2021-10-12T08:39:49Z</time>
      </trkpt>
      <trkpt lat="37.230619" lon="-5.257559">
        <ele>190.651</ele>
        <time>2021-10-12T08:39:50Z</time>
      </trkpt>
      <trkpt lat="37.230395" lon="-5.258253">
        <ele>187.399</ele>
        <time>2021-10-12T08:39:52Z</time>
      </trkpt>
      <trkpt lat="37.230157" lon="-5.258957">
        <ele>187.695</ele>
        <time>2021-10-12T08:39:54Z</time>
      </trkpt>
      <trkpt lat="37.230036" lon="-5.259315">
        <ele>185.838</ele>
        <time>2021-10-12T08:39:55Z</time>
      </trkpt>
      <trkpt lat="37.229914" lon="-5.259678">
        <ele>185.134</ele>
        <time>2021-10-12T08:39:56Z</time>
      </trkpt>
      <trkpt lat="37.229683" lon="-5.260368">
        <ele>185.093</ele>
        <time>2021-10-12T08:39:58Z</time>
      </trkpt>
      <trkpt lat="37.229571" lon="-5.260728">
        <ele>184.263</ele>
        <time>2021-10-12T08:39:59Z</time>
      </trkpt>
      <trkpt lat="37.229385" lon="-5.261459">
        <ele>185.024</ele>
        <time>2021-10-12T08:40:01Z</time>
      </trkpt>
      <trkpt lat="37.229310" lon="-5.261841">
        <ele>185.058</ele>
        <time>2021-10-12T08:40:02Z</time>
      </trkpt>
      <trkpt lat="37.229195" lon="-5.262568">
        <ele>184.852</ele>
        <time>2021-10-12T08:40:04Z</time>
      </trkpt>
      <trkpt lat="37.229142" lon="-5.262938">
        <ele>184.017</ele>
        <time>2021-10-12T08:40:05Z</time>
      </trkpt>
      <trkpt lat="37.229088" lon="-5.263302">
        <ele>184.908</ele>
        <time>2021-10-12T08:40:06Z</time>
      </trkpt>
      <trkpt lat="37.228970" lon="-5.264028">
        <ele>186.113</ele>
        <time>2021-10-12T08:40:08Z</time>
      </trkpt>
      <trkpt lat="37.228855" lon="-5.264732">
        <ele>188.061</ele>
        <time>2021-10-12T08:40:10Z</time>
      </trkpt>
      <trkpt lat="37.228739" lon="-5.265441">
        <ele>189.697</ele>
        <time>2021-10-12T08:40:12Z</time>
      </trkpt>
      <trkpt lat="37.228680" lon="-5.265804">
        <ele>190.950</ele>
        <time>2021-10-12T08:40:13Z</time>
      </trkpt>
      <trkpt lat="37.228622" lon="-5.266163">
        <ele>191.056</ele>
        <time>2021-10-12T08:40:14Z</time>
      </trkpt>
      <trkpt lat="37.228511" lon="-5.266847">
        <ele>188.615</ele>
        <time>2021-10-12T08:40:16Z</time>
      </trkpt>
      <trkpt lat="37.228456" lon="-5.267182">
        <ele>190.225</ele>
        <time>2021-10-12T08:40:17Z</time>
      </trkpt>
      <trkpt lat="37.228403" lon="-5.267507">
        <ele>191.846</ele>
        <time>2021-10-12T08:40:18Z</time>
      </trkpt>
      <trkpt lat="37.228296" lon="-5.268156">
        <ele>191.436</ele>
        <time>2021-10-12T08:40:20Z</time>
      </trkpt>
      <trkpt lat="37.228189" lon="-5.268797">
        <ele>191.017</ele>
        <time>2021-10-12T08:40:22Z</time>
      </trkpt>
      <trkpt lat="37.228134" lon="-5.269134">
        <ele>190.418</ele>
        <time>2021-10-12T08:40:23Z</time>
      </trkpt>
      <trkpt lat="37.228023" lon="-5.269826">
        <ele>190.308</ele>
        <time>2021-10-12T08:40:25Z</time>
      </trkpt>
      <trkpt lat="37.227965" lon="-5.270194">
        <ele>190.741</ele>
        <time>2021-10-12T08:40:26Z</time>
      </trkpt>
      <trkpt lat="37.227853" lon="-5.270911">
        <ele>188.049</ele>
        <time>2021-10-12T08:40:28Z</time>
      </trkpt>
      <trkpt lat="37.227793" lon="-5.271281">
        <ele>186.595</ele>
        <time>2021-10-12T08:40:29Z</time>
      </trkpt>
      <trkpt lat="37.227733" lon="-5.271652">
        <ele>186.868</ele>
        <time>2021-10-12T08:40:30Z</time>
      </trkpt>
      <trkpt lat="37.227673" lon="-5.272024">
        <ele>187.484</ele>
        <time>2021-10-12T08:40:31Z</time>
      </trkpt>
      <trkpt lat="37.227611" lon="-5.272406">
        <ele>187.143</ele>
        <time>2021-10-12T08:40:32Z</time>
      </trkpt>
      <trkpt lat="37.227492" lon="-5.273141">
        <ele>186.043</ele>
        <time>2021-10-12T08:40:34Z</time>
      </trkpt>
      <trkpt lat="37.227370" lon="-5.273890">
        <ele>185.554</ele>
        <time>2021-10-12T08:40:36Z</time>
      </trkpt>
      <trkpt lat="37.227310" lon="-5.274261">
        <ele>184.217</ele>
        <time>2021-10-12T08:40:37Z</time>
      </trkpt>
      <trkpt lat="37.227249" lon="-5.274637">
        <ele>183.387</ele>
        <time>2021-10-12T08:40:38Z</time>
      </trkpt>
      <trkpt lat="37.227139" lon="-5.275355">
        <ele>182.015</ele>
        <time>2021-10-12T08:40:40Z</time>
      </trkpt>
      <trkpt lat="37.227084" lon="-5.275719">
        <ele>182.308</ele>
        <time>2021-10-12T08:40:41Z</time>
      </trkpt>
      <trkpt lat="37.227028" lon="-5.276080">
        <ele>182.399</ele>
        <time>2021-10-12T08:40:42Z</time>
      </trkpt>
      <trkpt lat="37.226907" lon="-5.276804">
        <ele>179.057</ele>
        <time>2021-10-12T08:40:44Z</time>
      </trkpt>
      <trkpt lat="37.226793" lon="-5.277512">
        <ele>179.573</ele>
        <time>2021-10-12T08:40:46Z</time>
      </trkpt>
      <trkpt lat="37.226676" lon="-5.278235">
        <ele>178.746</ele>
        <time>2021-10-12T08:40:48Z</time>
      </trkpt>
      <trkpt lat="37.226555" lon="-5.278977">
        <ele>176.092</ele>
        <time>2021-10-12T08:40:50Z</time>
      </trkpt>
      <trkpt lat="37.226435" lon="-5.279723">
        <ele>175.031</ele>
        <time>2021-10-12T08:40:52Z</time>
      </trkpt>
      <trkpt lat="37.226373" lon="-5.280107">
        <ele>174.171</ele>
        <time>2021-10-12T08:40:53Z</time>
      </trkpt>
      <trkpt lat="37.226313" lon="-5.280493">
        <ele>174.852</ele>
        <time>2021-10-12T08:40:54Z</time>
      </trkpt>
      <trkpt lat="37.226230" lon="-5.281282">
        <ele>173.956</ele>
        <time>2021-10-12T08:40:56Z</time>
      </trkpt>
      <trkpt lat="37.226227" lon="-5.282054">
        <ele>173.359</ele>
        <time>2021-10-12T08:40:58Z</time>
      </trkpt>
      <trkpt lat="37.226286" lon="-5.282829">
        <ele>174.714</ele>
        <time>2021-10-12T08:41:00Z</time>
      </trkpt>
      <trkpt lat="37.226319" lon="-5.283212">
        <ele>174.108</ele>
        <time>2021-10-12T08:41:01Z</time>
      </trkpt>
      <trkpt lat="37.226350" lon="-5.283605">
        <ele>174.543</ele>
        <time>2021-10-12T08:41:02Z</time>
      </trkpt>
      <trkpt lat="37.226387" lon="-5.284356">
        <ele>172.081</ele>
        <time>2021-10-12T08:41:04Z</time>
      </trkpt>
      <trkpt lat="37.226390" lon="-5.284739">
        <ele>170.167</ele>
        <time>2021-10-12T08:41:05Z</time>
      </trkpt>
      <trkpt lat="37.226383" lon="-5.285123">
        <ele>173.030</ele>
        <time>2021-10-12T08:41:06Z</time>
      </trkpt>
      <trkpt lat="37.226357" lon="-5.285897">
        <ele>174.036</ele>
        <time>2021-10-12T08:41:08Z</time>
      </trkpt>
      <trkpt lat="37.226335" lon="-5.286645">
        <ele>173.535</ele>
        <time>2021-10-12T08:41:10Z</time>
      </trkpt>
      <trkpt lat="37.226313" lon="-5.287027">
        <ele>174.225</ele>
        <time>2021-10-12T08:41:11Z</time>
      </trkpt>
      <trkpt lat="37.226274" lon="-5.287407">
        <ele>173.356</ele>
        <time>2021-10-12T08:41:12Z</time>
      </trkpt>
      <trkpt lat="37.226137" lon="-5.288162">
        <ele>169.562</ele>
        <time>2021-10-12T08:41:14Z</time>
      </trkpt>
      <trkpt lat="37.225952" lon="-5.288875">
        <ele>167.183</ele>
        <time>2021-10-12T08:41:16Z</time>
      </trkpt>
      <trkpt lat="37.225757" lon="-5.289580">
        <ele>166.811</ele>
        <time>2021-10-12T08:41:18Z</time>
      </trkpt>
      <trkpt lat="37.225575" lon="-5.290254">
        <ele>166.108</ele>
        <time>2021-10-12T08:41:20Z</time>
      </trkpt>
      <trkpt lat="37.225406" lon="-5.290881">
        <ele>166.194</ele>
        <time>2021-10-12T08:41:22Z</time>
      </trkpt>
      <trkpt lat="37.225323" lon="-5.291195">
        <ele>163.352</ele>
        <time>2021-10-12T08:41:23Z</time>
      </trkpt>
      <trkpt lat="37.225185" lon="-5.291836">
        <ele>161.038</ele>
        <time>2021-10-12T08:41:25Z</time>
      </trkpt>
      <trkpt lat="37.225140" lon="-5.292176">
        <ele>161.041</ele>
        <time>2021-10-12T08:41:26Z</time>
      </trkpt>
      <trkpt lat="37.225104" lon="-5.292848">
        <ele>160.777</ele>
        <time>2021-10-12T08:41:28Z</time>
      </trkpt>
      <trkpt lat="37.225116" lon="-5.293198">
        <ele>159.386</ele>
        <time>2021-10-12T08:41:29Z</time>
      </trkpt>
      <trkpt lat="37.225146" lon="-5.293549">
        <ele>156.996</ele>
        <time>2021-10-12T08:41:30Z</time>
      </trkpt>
      <trkpt lat="37.225190" lon="-5.293903">
        <ele>155.047</ele>
        <time>2021-10-12T08:41:31Z</time>
      </trkpt>
      <trkpt lat="37.225251" lon="-5.294261">
        <ele>154.378</ele>
        <time>2021-10-12T08:41:32Z</time>
      </trkpt>
      <trkpt lat="37.225431" lon="-5.294944">
        <ele>153.233</ele>
        <time>2021-10-12T08:41:34Z</time>
      </trkpt>
      <trkpt lat="37.225546" lon="-5.295286">
        <ele>153.126</ele>
        <time>2021-10-12T08:41:35Z</time>
      </trkpt>
      <trkpt lat="37.225816" lon="-5.295963">
        <ele>153.008</ele>
        <time>2021-10-12T08:41:37Z</time>
      </trkpt>
      <trkpt lat="37.225963" lon="-5.296302">
        <ele>151.595</ele>
        <time>2021-10-12T08:41:38Z</time>
      </trkpt>
      <trkpt lat="37.226292" lon="-5.296937">
        <ele>151.013</ele>
        <time>2021-10-12T08:41:40Z</time>
      </trkpt>
      <trkpt lat="37.226485" lon="-5.297239">
        <ele>150.079</ele>
        <time>2021-10-12T08:41:41Z</time>
      </trkpt>
      <trkpt lat="37.226922" lon="-5.297782">
        <ele>149.022</ele>
        <time>2021-10-12T08:41:43Z</time>
      </trkpt>
      <trkpt lat="37.227166" lon="-5.298023">
        <ele>149.048</ele>
        <time>2021-10-12T08:41:44Z</time>
      </trkpt>
      <trkpt lat="37.227662" lon="-5.298421">
        <ele>149.397</ele>
        <time>2021-10-12T08:41:46Z</time>
      </trkpt>
      <trkpt lat="37.227925" lon="-5.298589">
        <ele>150.557</ele>
        <time>2021-10-12T08:41:47Z</time>
      </trkpt>
      <trkpt lat="37.228194" lon="-5.298735">
        <ele>151.588</ele>
        <time>2021-10-12T08:41:48Z</time>
      </trkpt>
      <trkpt lat="37.228748" lon="-5.299008">
        <ele>150.555</ele>
        <time>2021-10-12T08:41:50Z</time>
      </trkpt>
      <trkpt lat="37.229254" lon="-5.299276">
        <ele>151.807</ele>
        <time>2021-10-12T08:41:52Z</time>
      </trkpt>
      <trkpt lat="37.229504" lon="-5.299419">
        <ele>152.317</ele>
        <time>2021-10-12T08:41:53Z</time>
      </trkpt>
      <trkpt lat="37.229986" lon="-5.299711">
        <ele>153.008</ele>
        <time>2021-10-12T08:41:55Z</time>
      </trkpt>
      <trkpt lat="37.230229" lon="-5.299886">
        <ele>153.313</ele>
        <time>2021-10-12T08:41:56Z</time>
      </trkpt>
      <trkpt lat="37.230672" lon="-5.300280">
        <ele>154.451</ele>
        <time>2021-10-12T08:41:58Z</time>
      </trkpt>
      <trkpt lat="37.230887" lon="-5.300507">
        <ele>156.757</ele>
        <time>2021-10-12T08:41:59Z</time>
      </trkpt>
      <trkpt lat="37.231292" lon="-5.301004">
        <ele>156.550</ele>
        <time>2021-10-12T08:42:01Z</time>
      </trkpt>
      <trkpt lat="37.231645" lon="-5.301570">
        <ele>158.216</ele>
        <time>2021-10-12T08:42:03Z</time>
      </trkpt>
      <trkpt lat="37.231795" lon="-5.301873">
        <ele>159.385</ele>
        <time>2021-10-12T08:42:04Z</time>
      </trkpt>
      <trkpt lat="37.232056" lon="-5.302503">
        <ele>160.445</ele>
        <time>2021-10-12T08:42:06Z</time>
      </trkpt>
      <trkpt lat="37.232270" lon="-5.303175">
        <ele>158.366</ele>
        <time>2021-10-12T08:42:08Z</time>
      </trkpt>
      <trkpt lat="37.232472" lon="-5.303868">
        <ele>158.831</ele>
        <time>2021-10-12T08:42:10Z</time>
      </trkpt>
      <trkpt lat="37.232581" lon="-5.304221">
        <ele>159.861</ele>
        <time>2021-10-12T08:42:11Z</time>
      </trkpt>
      <trkpt lat="37.232793" lon="-5.304912">
        <ele>163.807</ele>
        <time>2021-10-12T08:42:13Z</time>
      </trkpt>
      <trkpt lat="37.232895" lon="-5.305260">
        <ele>165.408</ele>
        <time>2021-10-12T08:42:14Z</time>
      </trkpt>
      <trkpt lat="37.233092" lon="-5.305920">
        <ele>165.821</ele>
        <time>2021-10-12T08:42:16Z</time>
      </trkpt>
      <trkpt lat="37.233191" lon="-5.306246">
        <ele>165.029</ele>
        <time>2021-10-12T08:42:17Z</time>
      </trkpt>
      <trkpt lat="37.233387" lon="-5.306887">
        <ele>165.495</ele>
        <time>2021-10-12T08:42:19Z</time>
      </trkpt>
      <trkpt lat="37.233483" lon="-5.307207">
        <ele>166.168</ele>
        <time>2021-10-12T08:42:20Z</time>
      </trkpt>
      <trkpt lat="37.233670" lon="-5.307831">
        <ele>166.654</ele>
        <time>2021-10-12T08:42:22Z</time>
      </trkpt>
      <trkpt lat="37.233850" lon="-5.308495">
        <ele>167.623</ele>
        <time>2021-10-12T08:42:24Z</time>
      </trkpt>
      <trkpt lat="37.233972" lon="-5.309208">
        <ele>168.253</ele>
        <time>2021-10-12T08:42:26Z</time>
      </trkpt>
      <trkpt lat="37.234017" lon="-5.309923">
        <ele>168.484</ele>
        <time>2021-10-12T08:42:28Z</time>
      </trkpt>
      <trkpt lat="37.234031" lon="-5.310299">
        <ele>168.075</ele>
        <time>2021-10-12T08:42:29Z</time>
      </trkpt>
      <trkpt lat="37.234063" lon="-5.311052">
        <ele>167.328</ele>
        <time>2021-10-12T08:42:31Z</time>
      </trkpt>
      <trkpt lat="37.234090" lon="-5.311792">
        <ele>166.620</ele>
        <time>2021-10-12T08:42:33Z</time>
      </trkpt>
      <trkpt lat="37.234100" lon="-5.312145">
        <ele>166.008</ele>
        <time>2021-10-12T08:42:34Z</time>
      </trkpt>
      <trkpt lat="37.234102" lon="-5.312497">
        <ele>165.095</ele>
        <time>2021-10-12T08:42:35Z</time>
      </trkpt>
      <trkpt lat="37.234061" lon="-5.313202">
        <ele>164.663</ele>
        <time>2021-10-12T08:42:37Z</time>
      </trkpt>
      <trkpt lat="37.234018" lon="-5.313556">
        <ele>164.059</ele>
        <time>2021-10-12T08:42:38Z</time>
      </trkpt>
      <trkpt lat="37.233894" lon="-5.314253">
        <ele>162.092</ele>
        <time>2021-10-12T08:42:40Z</time>
      </trkpt>
      <trkpt lat="37.233706" lon="-5.314951">
        <ele>161.068</ele>
        <time>2021-10-12T08:42:42Z</time>
      </trkpt>
      <trkpt lat="37.233589" lon="-5.315299">
        <ele>158.817</ele>
        <time>2021-10-12T08:42:43Z</time>
      </trkpt>
      <trkpt lat="37.233467" lon="-5.315651">
        <ele>155.197</ele>
        <time>2021-10-12T08:42:44Z</time>
      </trkpt>
      <trkpt lat="37.233233" lon="-5.316320">
        <ele>148.678</ele>
        <time>2021-10-12T08:42:46Z</time>
      </trkpt>
      <trkpt lat="37.233003" lon="-5.316989">
        <ele>146.918</ele>
        <time>2021-10-12T08:42:48Z</time>
      </trkpt>
      <trkpt lat="37.232890" lon="-5.317325">
        <ele>145.998</ele>
        <time>2021-10-12T08:42:49Z</time>
      </trkpt>
      <trkpt lat="37.232771" lon="-5.317666">
        <ele>144.817</ele>
        <time>2021-10-12T08:42:50Z</time>
      </trkpt>
      <trkpt lat="37.232544" lon="-5.318326">
        <ele>142.908</ele>
        <time>2021-10-12T08:42:52Z</time>
      </trkpt>
      <trkpt lat="37.232432" lon="-5.318662">
        <ele>143.299</ele>
        <time>2021-10-12T08:42:53Z</time>
      </trkpt>
      <trkpt lat="37.232209" lon="-5.319314">
        <ele>144.057</ele>
        <time>2021-10-12T08:42:55Z</time>
      </trkpt>
      <trkpt lat="37.232096" lon="-5.319646">
        <ele>144.143</ele>
        <time>2021-10-12T08:42:56Z</time>
      </trkpt>
      <trkpt lat="37.231882" lon="-5.320276">
        <ele>144.296</ele>
        <time>2021-10-12T08:42:58Z</time>
      </trkpt>
      <trkpt lat="37.231771" lon="-5.320603">
        <ele>145.552</ele>
        <time>2021-10-12T08:42:59Z</time>
      </trkpt>
      <trkpt lat="37.231662" lon="-5.320933">
        <ele>148.171</ele>
        <time>2021-10-12T08:43:00Z</time>
      </trkpt>
      <trkpt lat="37.231547" lon="-5.321261">
        <ele>151.561</ele>
        <time>2021-10-12T08:43:01Z</time>
      </trkpt>
      <trkpt lat="37.231431" lon="-5.321585">
        <ele>154.462</ele>
        <time>2021-10-12T08:43:02Z</time>
      </trkpt>
      <trkpt lat="37.231305" lon="-5.321897">
        <ele>157.037</ele>
        <time>2021-10-12T08:43:03Z</time>
      </trkpt>
      <trkpt lat="37.231010" lon="-5.322460">
        <ele>158.149</ele>
        <time>2021-10-12T08:43:05Z</time>
      </trkpt>
      <trkpt lat="37.230835" lon="-5.322711">
        <ele>157.213</ele>
        <time>2021-10-12T08:43:06Z</time>
      </trkpt>
      <trkpt lat="37.230444" lon="-5.323186">
        <ele>158.608</ele>
        <time>2021-10-12T08:43:08Z</time>
      </trkpt>
      <trkpt lat="37.230038" lon="-5.323641">
        <ele>159.151</ele>
        <time>2021-10-12T08:43:10Z</time>
      </trkpt>
      <trkpt lat="37.229829" lon="-5.323887">
        <ele>159.499</ele>
        <time>2021-10-12T08:43:11Z</time>
      </trkpt>
      <trkpt lat="37.229430" lon="-5.324415">
        <ele>160.855</ele>
        <time>2021-10-12T08:43:13Z</time>
      </trkpt>
      <trkpt lat="37.229242" lon="-5.324712">
        <ele>161.978</ele>
        <time>2021-10-12T08:43:14Z</time>
      </trkpt>
      <trkpt lat="37.228921" lon="-5.325344">
        <ele>161.994</ele>
        <time>2021-10-12T08:43:16Z</time>
      </trkpt>
      <trkpt lat="37.228795" lon="-5.325692">
        <ele>162.593</ele>
        <time>2021-10-12T08:43:17Z</time>
      </trkpt>
      <trkpt lat="37.228689" lon="-5.326045">
        <ele>162.753</ele>
        <time>2021-10-12T08:43:18Z</time>
      </trkpt>
      <trkpt lat="37.228495" lon="-5.326752">
        <ele>161.764</ele>
        <time>2021-10-12T08:43:20Z</time>
      </trkpt>
      <trkpt lat="37.228298" lon="-5.327431">
        <ele>161.892</ele>
        <time>2021-10-12T08:43:22Z</time>
      </trkpt>
      <trkpt lat="37.228198" lon="-5.327772">
        <ele>160.573</ele>
        <time>2021-10-12T08:43:23Z</time>
      </trkpt>
      <trkpt lat="37.228097" lon="-5.328111">
        <ele>158.820</ele>
        <time>2021-10-12T08:43:24Z</time>
      </trkpt>
      <trkpt lat="37.227995" lon="-5.328450">
        <ele>156.108</ele>
        <time>2021-10-12T08:43:25Z</time>
      </trkpt>
      <trkpt lat="37.227895" lon="-5.328788">
        <ele>153.127</ele>
        <time>2021-10-12T08:43:26Z</time>
      </trkpt>
      <trkpt lat="37.227695" lon="-5.329469">
        <ele>154.725</ele>
        <time>2021-10-12T08:43:28Z</time>
      </trkpt>
      <trkpt lat="37.227595" lon="-5.329811">
        <ele>155.721</ele>
        <time>2021-10-12T08:43:29Z</time>
      </trkpt>
      <trkpt lat="37.227395" lon="-5.330488">
        <ele>155.694</ele>
        <time>2021-10-12T08:43:31Z</time>
      </trkpt>
      <trkpt lat="37.227196" lon="-5.331156">
        <ele>156.270</ele>
        <time>2021-10-12T08:43:33Z</time>
      </trkpt>
      <trkpt lat="37.227033" lon="-5.331833">
        <ele>158.939</ele>
        <time>2021-10-12T08:43:35Z</time>
      </trkpt>
      <trkpt lat="37.226946" lon="-5.332527">
        <ele>162.279</ele>
        <time>2021-10-12T08:43:37Z</time>
      </trkpt>
      <trkpt lat="37.226915" lon="-5.332887">
        <ele>164.630</ele>
        <time>2021-10-12T08:43:38Z</time>
      </trkpt>
      <trkpt lat="37.226841" lon="-5.333603">
        <ele>165.354</ele>
        <time>2021-10-12T08:43:40Z</time>
      </trkpt>
      <trkpt lat="37.226802" lon="-5.333974">
        <ele>166.056</ele>
        <time>2021-10-12T08:43:41Z</time>
      </trkpt>
      <trkpt lat="37.226764" lon="-5.334347">
        <ele>167.611</ele>
        <time>2021-10-12T08:43:42Z</time>
      </trkpt>
      <trkpt lat="37.226699" lon="-5.335105">
        <ele>168.108</ele>
        <time>2021-10-12T08:43:44Z</time>
      </trkpt>
      <trkpt lat="37.226678" lon="-5.335842">
        <ele>170.023</ele>
        <time>2021-10-12T08:43:46Z</time>
      </trkpt>
      <trkpt lat="37.226693" lon="-5.336216">
        <ele>171.351</ele>
        <time>2021-10-12T08:43:47Z</time>
      </trkpt>
      <trkpt lat="37.226784" lon="-5.336952">
        <ele>170.187</ele>
        <time>2021-10-12T08:43:49Z</time>
      </trkpt>
      <trkpt lat="37.226863" lon="-5.337316">
        <ele>168.220</ele>
        <time>2021-10-12T08:43:50Z</time>
      </trkpt>
      <trkpt lat="37.227041" lon="-5.338016">
        <ele>168.866</ele>
        <time>2021-10-12T08:43:52Z</time>
      </trkpt>
      <trkpt lat="37.227230" lon="-5.338719">
        <ele>171.065</ele>
        <time>2021-10-12T08:43:54Z</time>
      </trkpt>
      <trkpt lat="37.227391" lon="-5.339427">
        <ele>172.285</ele>
        <time>2021-10-12T08:43:56Z</time>
      </trkpt>
      <trkpt lat="37.227468" lon="-5.339780">
        <ele>171.926</ele>
        <time>2021-10-12T08:43:57Z</time>
      </trkpt>
      <trkpt lat="37.227621" lon="-5.340477">
        <ele>173.117</ele>
        <time>2021-10-12T08:43:59Z</time>
      </trkpt>
      <trkpt lat="37.227769" lon="-5.341151">
        <ele>171.087</ele>
        <time>2021-10-12T08:44:01Z</time>
      </trkpt>
      <trkpt lat="37.227842" lon="-5.341479">
        <ele>171.215</ele>
        <time>2021-10-12T08:44:02Z</time>
      </trkpt>
      <trkpt lat="37.227915" lon="-5.341805">
        <ele>171.508</ele>
        <time>2021-10-12T08:44:03Z</time>
      </trkpt>
      <trkpt lat="37.228060" lon="-5.342459">
        <ele>173.719</ele>
        <time>2021-10-12T08:44:05Z</time>
      </trkpt>
      <trkpt lat="37.228133" lon="-5.342791">
        <ele>175.387</ele>
        <time>2021-10-12T08:44:06Z</time>
      </trkpt>
      <trkpt lat="37.228285" lon="-5.343479">
        <ele>176.023</ele>
        <time>2021-10-12T08:44:08Z</time>
      </trkpt>
      <trkpt lat="37.228436" lon="-5.344159">
        <ele>176.836</ele>
        <time>2021-10-12T08:44:10Z</time>
      </trkpt>
      <trkpt lat="37.228512" lon="-5.344505">
        <ele>176.912</ele>
        <time>2021-10-12T08:44:11Z</time>
      </trkpt>
      <trkpt lat="37.228661" lon="-5.345182">
        <ele>177.911</ele>
        <time>2021-10-12T08:44:13Z</time>
      </trkpt>
      <trkpt lat="37.228740" lon="-5.345537">
        <ele>178.061</ele>
        <time>2021-10-12T08:44:14Z</time>
      </trkpt>
      <trkpt lat="37.228889" lon="-5.346200">
        <ele>181.012</ele>
        <time>2021-10-12T08:44:16Z</time>
      </trkpt>
      <trkpt lat="37.229044" lon="-5.346877">
        <ele>180.289</ele>
        <time>2021-10-12T08:44:18Z</time>
      </trkpt>
      <trkpt lat="37.229207" lon="-5.347566">
        <ele>180.106</ele>
        <time>2021-10-12T08:44:20Z</time>
      </trkpt>
      <trkpt lat="37.229361" lon="-5.348252">
        <ele>181.926</ele>
        <time>2021-10-12T08:44:22Z</time>
      </trkpt>
      <trkpt lat="37.229439" lon="-5.348605">
        <ele>182.008</ele>
        <time>2021-10-12T08:44:23Z</time>
      </trkpt>
      <trkpt lat="37.229594" lon="-5.349308">
        <ele>182.016</ele>
        <time>2021-10-12T08:44:25Z</time>
      </trkpt>
      <trkpt lat="37.229672" lon="-5.349662">
        <ele>183.024</ele>
        <time>2021-10-12T08:44:26Z</time>
      </trkpt>
      <trkpt lat="37.229833" lon="-5.350366">
        <ele>182.980</ele>
        <time>2021-10-12T08:44:28Z</time>
      </trkpt>
      <trkpt lat="37.229911" lon="-5.350718">
        <ele>184.133</ele>
        <time>2021-10-12T08:44:29Z</time>
      </trkpt>
      <trkpt lat="37.230064" lon="-5.351419">
        <ele>186.899</ele>
        <time>2021-10-12T08:44:31Z</time>
      </trkpt>
      <trkpt lat="37.230139" lon="-5.351778">
        <ele>186.818</ele>
        <time>2021-10-12T08:44:32Z</time>
      </trkpt>
      <trkpt lat="37.230311" lon="-5.352460">
        <ele>184.998</ele>
        <time>2021-10-12T08:44:34Z</time>
      </trkpt>
      <trkpt lat="37.230551" lon="-5.353133">
        <ele>182.719</ele>
        <time>2021-10-12T08:44:36Z</time>
      </trkpt>
      <trkpt lat="37.230682" lon="-5.353467">
        <ele>181.582</ele>
        <time>2021-10-12T08:44:37Z</time>
      </trkpt>
      <trkpt lat="37.230818" lon="-5.353805">
        <ele>181.043</ele>
        <time>2021-10-12T08:44:38Z</time>
      </trkpt>
      <trkpt lat="37.231071" lon="-5.354461">
        <ele>179.317</ele>
        <time>2021-10-12T08:44:40Z</time>
      </trkpt>
      <trkpt lat="37.231321" lon="-5.355134">
        <ele>182.008</ele>
        <time>2021-10-12T08:44:42Z</time>
      </trkpt>
      <trkpt lat="37.231444" lon="-5.355471">
        <ele>182.496</ele>
        <time>2021-10-12T08:44:43Z</time>
      </trkpt>
      <trkpt lat="37.231569" lon="-5.355812">
        <ele>181.454</ele>
        <time>2021-10-12T08:44:44Z</time>
      </trkpt>
      <trkpt lat="37.231816" lon="-5.356470">
        <ele>181.870</ele>
        <time>2021-10-12T08:44:46Z</time>
      </trkpt>
      <trkpt lat="37.231946" lon="-5.356811">
        <ele>182.053</ele>
        <time>2021-10-12T08:44:47Z</time>
      </trkpt>
      <trkpt lat="37.232079" lon="-5.357156">
        <ele>181.869</ele>
        <time>2021-10-12T08:44:48Z</time>
      </trkpt>
      <trkpt lat="37.232355" lon="-5.357847">
        <ele>183.568</ele>
        <time>2021-10-12T08:44:50Z</time>
      </trkpt>
      <trkpt lat="37.232642" lon="-5.358512">
        <ele>183.338</ele>
        <time>2021-10-12T08:44:52Z</time>
      </trkpt>
      <trkpt lat="37.232949" lon="-5.359159">
        <ele>183.019</ele>
        <time>2021-10-12T08:44:54Z</time>
      </trkpt>
      <trkpt lat="37.233277" lon="-5.359774">
        <ele>180.061</ele>
        <time>2021-10-12T08:44:56Z</time>
      </trkpt>
      <trkpt lat="37.233614" lon="-5.360337">
        <ele>178.821</ele>
        <time>2021-10-12T08:44:58Z</time>
      </trkpt>
      <trkpt lat="37.233790" lon="-5.360620">
        <ele>179.113</ele>
        <time>2021-10-12T08:44:59Z</time>
      </trkpt>
      <trkpt lat="37.233965" lon="-5.360906">
        <ele>180.008</ele>
        <time>2021-10-12T08:45:00Z</time>
      </trkpt>
      <trkpt lat="37.234303" lon="-5.361490">
        <ele>178.674</ele>
        <time>2021-10-12T08:45:02Z</time>
      </trkpt>
      <trkpt lat="37.234650" lon="-5.362080">
        <ele>174.312</ele>
        <time>2021-10-12T08:45:04Z</time>
      </trkpt>
      <trkpt lat="37.234824" lon="-5.362377">
        <ele>172.658</ele>
        <time>2021-10-12T08:45:05Z</time>
      </trkpt>
      <trkpt lat="37.235163" lon="-5.362975">
        <ele>173.871</ele>
        <time>2021-10-12T08:45:07Z</time>
      </trkpt>
      <trkpt lat="37.235321" lon="-5.363288">
        <ele>175.227</ele>
        <time>2021-10-12T08:45:08Z</time>
      </trkpt>
      <trkpt lat="37.235571" lon="-5.363929">
        <ele>171.816</ele>
        <time>2021-10-12T08:45:10Z</time>
      </trkpt>
      <trkpt lat="37.235665" lon="-5.364272">
        <ele>170.596</ele>
        <time>2021-10-12T08:45:11Z</time>
      </trkpt>
      <trkpt lat="37.235741" lon="-5.364627">
        <ele>170.527</ele>
        <time>2021-10-12T08:45:12Z</time>
      </trkpt>
      <trkpt lat="37.235838" lon="-5.365366">
        <ele>170.393</ele>
        <time>2021-10-12T08:45:14Z</time>
      </trkpt>
      <trkpt lat="37.235854" lon="-5.366118">
        <ele>167.865</ele>
        <time>2021-10-12T08:45:16Z</time>
      </trkpt>
      <trkpt lat="37.235772" lon="-5.366874">
        <ele>163.921</ele>
        <time>2021-10-12T08:45:18Z</time>
      </trkpt>
      <trkpt lat="37.235604" lon="-5.367590">
        <ele>161.608</ele>
        <time>2021-10-12T08:45:20Z</time>
      </trkpt>
      <trkpt lat="37.235388" lon="-5.368232">
        <ele>159.757</ele>
        <time>2021-10-12T08:45:22Z</time>
      </trkpt>
      <trkpt lat="37.235268" lon="-5.368551">
        <ele>160.725</ele>
        <time>2021-10-12T08:45:23Z</time>
      </trkpt>
      <trkpt lat="37.235036" lon="-5.369194">
        <ele>159.841</ele>
        <time>2021-10-12T08:45:25Z</time>
      </trkpt>
      <trkpt lat="37.234921" lon="-5.369529">
        <ele>159.394</ele>
        <time>2021-10-12T08:45:26Z</time>
      </trkpt>
      <trkpt lat="37.234732" lon="-5.370181">
        <ele>161.690</ele>
        <time>2021-10-12T08:45:28Z</time>
      </trkpt>
      <trkpt lat="37.234661" lon="-5.370526">
        <ele>161.579</ele>
        <time>2021-10-12T08:45:29Z</time>
      </trkpt>
      <trkpt lat="37.234577" lon="-5.371221">
        <ele>161.479</ele>
        <time>2021-10-12T08:45:31Z</time>
      </trkpt>
      <trkpt lat="37.234569" lon="-5.371571">
        <ele>160.650</ele>
        <time>2021-10-12T08:45:32Z</time>
      </trkpt>
      <trkpt lat="37.234604" lon="-5.372270">
        <ele>159.894</ele>
        <time>2021-10-12T08:45:34Z</time>
      </trkpt>
      <trkpt lat="37.234653" lon="-5.372620">
        <ele>160.057</ele>
        <time>2021-10-12T08:45:35Z</time>
      </trkpt>
      <trkpt lat="37.234812" lon="-5.373308">
        <ele>159.722</ele>
        <time>2021-10-12T08:45:37Z</time>
      </trkpt>
      <trkpt lat="37.234922" lon="-5.373653">
        <ele>159.408</ele>
        <time>2021-10-12T08:45:38Z</time>
      </trkpt>
      <trkpt lat="37.235195" lon="-5.374298">
        <ele>160.897</ele>
        <time>2021-10-12T08:45:40Z</time>
      </trkpt>
      <trkpt lat="37.235367" lon="-5.374612">
        <ele>160.365</ele>
        <time>2021-10-12T08:45:41Z</time>
      </trkpt>
      <trkpt lat="37.235749" lon="-5.375199">
        <ele>159.041</ele>
        <time>2021-10-12T08:45:43Z</time>
      </trkpt>
      <trkpt lat="37.235965" lon="-5.375478">
        <ele>159.744</ele>
        <time>2021-10-12T08:45:44Z</time>
      </trkpt>
      <trkpt lat="37.236395" lon="-5.376010">
        <ele>160.650</ele>
        <time>2021-10-12T08:45:46Z</time>
      </trkpt>
      <trkpt lat="37.236820" lon="-5.376539">
        <ele>163.069</ele>
        <time>2021-10-12T08:45:48Z</time>
      </trkpt>
      <trkpt lat="37.237241" lon="-5.377068">
        <ele>163.449</ele>
        <time>2021-10-12T08:45:50Z</time>
      </trkpt>
      <trkpt lat="37.237631" lon="-5.377581">
        <ele>164.340</ele>
        <time>2021-10-12T08:45:52Z</time>
      </trkpt>
      <trkpt lat="37.237822" lon="-5.377842">
        <ele>164.526</ele>
        <time>2021-10-12T08:45:53Z</time>
      </trkpt>
      <trkpt lat="37.238189" lon="-5.378372">
        <ele>167.647</ele>
        <time>2021-10-12T08:45:55Z</time>
      </trkpt>
      <trkpt lat="37.238372" lon="-5.378655">
        <ele>166.911</ele>
        <time>2021-10-12T08:45:56Z</time>
      </trkpt>
      <trkpt lat="37.238706" lon="-5.379217">
        <ele>169.908</ele>
        <time>2021-10-12T08:45:58Z</time>
      </trkpt>
      <trkpt lat="37.238873" lon="-5.379513">
        <ele>172.480</ele>
        <time>2021-10-12T08:45:59Z</time>
      </trkpt>
      <trkpt lat="37.239205" lon="-5.380103">
        <ele>175.628</ele>
        <time>2021-10-12T08:46:01Z</time>
      </trkpt>
      <trkpt lat="37.239373" lon="-5.380399">
        <ele>176.254</ele>
        <time>2021-10-12T08:46:02Z</time>
      </trkpt>
      <trkpt lat="37.239705" lon="-5.380986">
        <ele>176.297</ele>
        <time>2021-10-12T08:46:04Z</time>
      </trkpt>
      <trkpt lat="37.239871" lon="-5.381278">
        <ele>177.413</ele>
        <time>2021-10-12T08:46:05Z</time>
      </trkpt>
      <trkpt lat="37.240035" lon="-5.381566">
        <ele>178.632</ele>
        <time>2021-10-12T08:46:06Z</time>
      </trkpt>
      <trkpt lat="37.240362" lon="-5.382143">
        <ele>178.532</ele>
        <time>2021-10-12T08:46:08Z</time>
      </trkpt>
      <trkpt lat="37.240682" lon="-5.382705">
        <ele>178.993</ele>
        <time>2021-10-12T08:46:10Z</time>
      </trkpt>
      <trkpt lat="37.240844" lon="-5.382990">
        <ele>179.843</ele>
        <time>2021-10-12T08:46:11Z</time>
      </trkpt>
      <trkpt lat="37.241161" lon="-5.383558">
        <ele>181.964</ele>
        <time>2021-10-12T08:46:13Z</time>
      </trkpt>
      <trkpt lat="37.241324" lon="-5.383843">
        <ele>180.610</ele>
        <time>2021-10-12T08:46:14Z</time>
      </trkpt>
      <trkpt lat="37.241639" lon="-5.384393">
        <ele>179.508</ele>
        <time>2021-10-12T08:46:16Z</time>
      </trkpt>
      <trkpt lat="37.241800" lon="-5.384673">
        <ele>180.582</ele>
        <time>2021-10-12T08:46:17Z</time>
      </trkpt>
      <trkpt lat="37.242122" lon="-5.385233">
        <ele>180.010</ele>
        <time>2021-10-12T08:46:19Z</time>
      </trkpt>
      <trkpt lat="37.242288" lon="-5.385519">
        <ele>182.036</ele>
        <time>2021-10-12T08:46:20Z</time>
      </trkpt>
      <trkpt lat="37.242620" lon="-5.386074">
        <ele>185.429</ele>
        <time>2021-10-12T08:46:22Z</time>
      </trkpt>
      <trkpt lat="37.242979" lon="-5.386636">
        <ele>185.655</ele>
        <time>2021-10-12T08:46:24Z</time>
      </trkpt>
      <trkpt lat="37.243163" lon="-5.386923">
        <ele>187.324</ele>
        <time>2021-10-12T08:46:25Z</time>
      </trkpt>
      <trkpt lat="37.243352" lon="-5.387221">
        <ele>187.934</ele>
        <time>2021-10-12T08:46:26Z</time>
      </trkpt>
      <trkpt lat="37.243706" lon="-5.387814">
        <ele>181.545</ele>
        <time>2021-10-12T08:46:28Z</time>
      </trkpt>
      <trkpt lat="37.243887" lon="-5.388123">
        <ele>179.887</ele>
        <time>2021-10-12T08:46:29Z</time>
      </trkpt>
      <trkpt lat="37.244246" lon="-5.388749">
        <ele>177.342</ele>
        <time>2021-10-12T08:46:31Z</time>
      </trkpt>
      <trkpt lat="37.244425" lon="-5.389061">
        <ele>178.626</ele>
        <time>2021-10-12T08:46:32Z</time>
      </trkpt>
      <trkpt lat="37.244778" lon="-5.389676">
        <ele>178.608</ele>
        <time>2021-10-12T08:46:34Z</time>
      </trkpt>
      <trkpt lat="37.245124" lon="-5.390282">
        <ele>181.066</ele>
        <time>2021-10-12T08:46:36Z</time>
      </trkpt>
      <trkpt lat="37.245468" lon="-5.390886">
        <ele>178.664</ele>
        <time>2021-10-12T08:46:38Z</time>
      </trkpt>
      <trkpt lat="37.245803" lon="-5.391474">
        <ele>178.150</ele>
        <time>2021-10-12T08:46:40Z</time>
      </trkpt>
      <trkpt lat="37.245971" lon="-5.391770">
        <ele>178.963</ele>
        <time>2021-10-12T08:46:41Z</time>
      </trkpt>
      <trkpt lat="37.246139" lon="-5.392066">
        <ele>180.129</ele>
        <time>2021-10-12T08:46:42Z</time>
      </trkpt>
      <trkpt lat="37.246476" lon="-5.392657">
        <ele>180.128</ele>
        <time>2021-10-12T08:46:44Z</time>
      </trkpt>
      <trkpt lat="37.246810" lon="-5.393245">
        <ele>179.028</ele>
        <time>2021-10-12T08:46:46Z</time>
      </trkpt>
      <trkpt lat="37.246981" lon="-5.393543">
        <ele>177.739</ele>
        <time>2021-10-12T08:46:47Z</time>
      </trkpt>
      <trkpt lat="37.247152" lon="-5.393841">
        <ele>177.393</ele>
        <time>2021-10-12T08:46:48Z</time>
      </trkpt>
      <trkpt lat="37.247500" lon="-5.394447">
        <ele>178.065</ele>
        <time>2021-10-12T08:46:50Z</time>
      </trkpt>
      <trkpt lat="37.247843" lon="-5.395045">
        <ele>176.421</ele>
        <time>2021-10-12T08:46:52Z</time>
      </trkpt>
      <trkpt lat="37.248018" lon="-5.395349">
        <ele>174.908</ele>
        <time>2021-10-12T08:46:53Z</time>
      </trkpt>
      <trkpt lat="37.248365" lon="-5.395954">
        <ele>173.067</ele>
        <time>2021-10-12T08:46:55Z</time>
      </trkpt>
      <trkpt lat="37.248542" lon="-5.396268">
        <ele>173.625</ele>
        <time>2021-10-12T08:46:56Z</time>
      </trkpt>
      <trkpt lat="37.248883" lon="-5.396867">
        <ele>174.021</ele>
        <time>2021-10-12T08:46:58Z</time>
      </trkpt>
      <trkpt lat="37.249234" lon="-5.397481">
        <ele>174.234</ele>
        <time>2021-10-12T08:47:00Z</time>
      </trkpt>
      <trkpt lat="37.249411" lon="-5.397790">
        <ele>173.130</ele>
        <time>2021-10-12T08:47:01Z</time>
      </trkpt>
      <trkpt lat="37.249591" lon="-5.398105">
        <ele>168.869</ele>
        <time>2021-10-12T08:47:02Z</time>
      </trkpt>
      <trkpt lat="37.249937" lon="-5.398713">
        <ele>169.129</ele>
        <time>2021-10-12T08:47:04Z</time>
      </trkpt>
      <trkpt lat="37.250284" lon="-5.399326">
        <ele>167.030</ele>
        <time>2021-10-12T08:47:06Z</time>
      </trkpt>
      <trkpt lat="37.250632" lon="-5.399944">
        <ele>164.964</ele>
        <time>2021-10-12T08:47:08Z</time>
      </trkpt>
      <trkpt lat="37.250956" lon="-5.400559">
        <ele>164.006</ele>
        <time>2021-10-12T08:47:10Z</time>
      </trkpt>
      <trkpt lat="37.251111" lon="-5.400879">
        <ele>164.216</ele>
        <time>2021-10-12T08:47:11Z</time>
      </trkpt>
      <trkpt lat="37.251417" lon="-5.401520">
        <ele>164.908</ele>
        <time>2021-10-12T08:47:13Z</time>
      </trkpt>
      <trkpt lat="37.251573" lon="-5.401850">
        <ele>164.864</ele>
        <time>2021-10-12T08:47:14Z</time>
      </trkpt>
      <trkpt lat="37.251874" lon="-5.402480">
        <ele>164.322</ele>
        <time>2021-10-12T08:47:16Z</time>
      </trkpt>
      <trkpt lat="37.252189" lon="-5.403131">
        <ele>162.158</ele>
        <time>2021-10-12T08:47:18Z</time>
      </trkpt>
      <trkpt lat="37.252502" lon="-5.403787">
        <ele>160.431</ele>
        <time>2021-10-12T08:47:20Z</time>
      </trkpt>
      <trkpt lat="37.252816" lon="-5.404430">
        <ele>158.237</ele>
        <time>2021-10-12T08:47:22Z</time>
      </trkpt>
      <trkpt lat="37.252975" lon="-5.404759">
        <ele>158.746</ele>
        <time>2021-10-12T08:47:23Z</time>
      </trkpt>
      <trkpt lat="37.253134" lon="-5.405088">
        <ele>159.526</ele>
        <time>2021-10-12T08:47:24Z</time>
      </trkpt>
      <trkpt lat="37.253453" lon="-5.405766">
        <ele>158.897</ele>
        <time>2021-10-12T08:47:26Z</time>
      </trkpt>
      <trkpt lat="37.253768" lon="-5.406420">
        <ele>157.077</ele>
        <time>2021-10-12T08:47:28Z</time>
      </trkpt>
      <trkpt lat="37.253927" lon="-5.406757">
        <ele>157.861</ele>
        <time>2021-10-12T08:47:29Z</time>
      </trkpt>
      <trkpt lat="37.254087" lon="-5.407094">
        <ele>158.227</ele>
        <time>2021-10-12T08:47:30Z</time>
      </trkpt>
      <trkpt lat="37.254415" lon="-5.407773">
        <ele>157.108</ele>
        <time>2021-10-12T08:47:32Z</time>
      </trkpt>
      <trkpt lat="37.254747" lon="-5.408461">
        <ele>159.535</ele>
        <time>2021-10-12T08:47:34Z</time>
      </trkpt>
      <trkpt lat="37.255083" lon="-5.409152">
        <ele>159.013</ele>
        <time>2021-10-12T08:47:36Z</time>
      </trkpt>
      <trkpt lat="37.255249" lon="-5.409496">
        <ele>158.799</ele>
        <time>2021-10-12T08:47:37Z</time>
      </trkpt>
      <trkpt lat="37.255416" lon="-5.409842">
        <ele>158.372</ele>
        <time>2021-10-12T08:47:38Z</time>
      </trkpt>
      <trkpt lat="37.255732" lon="-5.410506">
        <ele>158.068</ele>
        <time>2021-10-12T08:47:40Z</time>
      </trkpt>
      <trkpt lat="37.255893" lon="-5.410837">
        <ele>157.827</ele>
        <time>2021-10-12T08:47:41Z</time>
      </trkpt>
      <trkpt lat="37.256049" lon="-5.411160">
        <ele>157.227</ele>
        <time>2021-10-12T08:47:42Z</time>
      </trkpt>
      <trkpt lat="37.256200" lon="-5.411483">
        <ele>157.188</ele>
        <time>2021-10-12T08:47:43Z</time>
      </trkpt>
      <trkpt lat="37.256353" lon="-5.411808">
        <ele>158.445</ele>
        <time>2021-10-12T08:47:44Z</time>
      </trkpt>
      <trkpt lat="37.256654" lon="-5.412445">
        <ele>157.447</ele>
        <time>2021-10-12T08:47:46Z</time>
      </trkpt>
      <trkpt lat="37.256808" lon="-5.412770">
        <ele>155.011</ele>
        <time>2021-10-12T08:47:47Z</time>
      </trkpt>
      <trkpt lat="37.257123" lon="-5.413427">
        <ele>155.108</ele>
        <time>2021-10-12T08:47:49Z</time>
      </trkpt>
      <trkpt lat="37.257288" lon="-5.413762">
        <ele>155.062</ele>
        <time>2021-10-12T08:47:50Z</time>
      </trkpt>
      <trkpt lat="37.257608" lon="-5.414413">
        <ele>155.520</ele>
        <time>2021-10-12T08:47:52Z</time>
      </trkpt>
      <trkpt lat="37.257770" lon="-5.414745">
        <ele>156.066</ele>
        <time>2021-10-12T08:47:53Z</time>
      </trkpt>
      <trkpt lat="37.258088" lon="-5.415405">
        <ele>154.549</ele>
        <time>2021-10-12T08:47:55Z</time>
      </trkpt>
      <trkpt lat="37.258254" lon="-5.415744">
        <ele>153.585</ele>
        <time>2021-10-12T08:47:56Z</time>
      </trkpt>
      <trkpt lat="37.258572" lon="-5.416391">
        <ele>154.314</ele>
        <time>2021-10-12T08:47:58Z</time>
      </trkpt>
      <trkpt lat="37.258733" lon="-5.416720">
        <ele>152.764</ele>
        <time>2021-10-12T08:47:59Z</time>
      </trkpt>
      <trkpt lat="37.259046" lon="-5.417358">
        <ele>151.785</ele>
        <time>2021-10-12T08:48:01Z</time>
      </trkpt>
      <trkpt lat="37.259354" lon="-5.417989">
        <ele>152.321</ele>
        <time>2021-10-12T08:48:03Z</time>
      </trkpt>
      <trkpt lat="37.259659" lon="-5.418615">
        <ele>151.041</ele>
        <time>2021-10-12T08:48:05Z</time>
      </trkpt>
      <trkpt lat="37.259811" lon="-5.418931">
        <ele>150.505</ele>
        <time>2021-10-12T08:48:06Z</time>
      </trkpt>
      <trkpt lat="37.260108" lon="-5.419592">
        <ele>151.008</ele>
        <time>2021-10-12T08:48:08Z</time>
      </trkpt>
      <trkpt lat="37.260387" lon="-5.420264">
        <ele>151.670</ele>
        <time>2021-10-12T08:48:10Z</time>
      </trkpt>
      <trkpt lat="37.260529" lon="-5.420611">
        <ele>150.958</ele>
        <time>2021-10-12T08:48:11Z</time>
      </trkpt>
      <trkpt lat="37.260812" lon="-5.421277">
        <ele>151.034</ele>
        <time>2021-10-12T08:48:13Z</time>
      </trkpt>
      <trkpt lat="37.260964" lon="-5.421605">
        <ele>151.837</ele>
        <time>2021-10-12T08:48:14Z</time>
      </trkpt>
      <trkpt lat="37.261269" lon="-5.422222">
        <ele>152.023</ele>
        <time>2021-10-12T08:48:16Z</time>
      </trkpt>
      <trkpt lat="37.261578" lon="-5.422853">
        <ele>150.312</ele>
        <time>2021-10-12T08:48:18Z</time>
      </trkpt>
      <trkpt lat="37.261733" lon="-5.423168">
        <ele>150.242</ele>
        <time>2021-10-12T08:48:19Z</time>
      </trkpt>
      <trkpt lat="37.261891" lon="-5.423487">
        <ele>150.463</ele>
        <time>2021-10-12T08:48:20Z</time>
      </trkpt>
      <trkpt lat="37.262207" lon="-5.424109">
        <ele>148.238</ele>
        <time>2021-10-12T08:48:22Z</time>
      </trkpt>
      <trkpt lat="37.262369" lon="-5.424430">
        <ele>148.070</ele>
        <time>2021-10-12T08:48:23Z</time>
      </trkpt>
      <trkpt lat="37.262530" lon="-5.424757">
        <ele>148.217</ele>
        <time>2021-10-12T08:48:24Z</time>
      </trkpt>
      <trkpt lat="37.262696" lon="-5.425085">
        <ele>149.608</ele>
        <time>2021-10-12T08:48:25Z</time>
      </trkpt>
      <trkpt lat="37.262863" lon="-5.425423">
        <ele>148.721</ele>
        <time>2021-10-12T08:48:26Z</time>
      </trkpt>
      <trkpt lat="37.263192" lon="-5.426078">
        <ele>144.589</ele>
        <time>2021-10-12T08:48:28Z</time>
      </trkpt>
      <trkpt lat="37.263360" lon="-5.426416">
        <ele>144.185</ele>
        <time>2021-10-12T08:48:29Z</time>
      </trkpt>
      <trkpt lat="37.263528" lon="-5.426753">
        <ele>144.958</ele>
        <time>2021-10-12T08:48:30Z</time>
      </trkpt>
      <trkpt lat="37.263694" lon="-5.427085">
        <ele>145.524</ele>
        <time>2021-10-12T08:48:31Z</time>
      </trkpt>
      <trkpt lat="37.264027" lon="-5.427739">
        <ele>145.593</ele>
        <time>2021-10-12T08:48:33Z</time>
      </trkpt>
      <trkpt lat="37.264357" lon="-5.428382">
        <ele>144.643</ele>
        <time>2021-10-12T08:48:35Z</time>
      </trkpt>
      <trkpt lat="37.264520" lon="-5.428702">
        <ele>144.224</ele>
        <time>2021-10-12T08:48:36Z</time>
      </trkpt>
      <trkpt lat="37.264681" lon="-5.429021">
        <ele>144.023</ele>
        <time>2021-10-12T08:48:37Z</time>
      </trkpt>
      <trkpt lat="37.264839" lon="-5.429344">
        <ele>143.883</ele>
        <time>2021-10-12T08:48:38Z</time>
      </trkpt>
      <trkpt lat="37.265142" lon="-5.429964">
        <ele>142.311</ele>
        <time>2021-10-12T08:48:40Z</time>
      </trkpt>
      <trkpt lat="37.265456" lon="-5.430583">
        <ele>141.308</ele>
        <time>2021-10-12T08:48:42Z</time>
      </trkpt>
      <trkpt lat="37.265616" lon="-5.430899">
        <ele>141.230</ele>
        <time>2021-10-12T08:48:43Z</time>
      </trkpt>
      <trkpt lat="37.265782" lon="-5.431225">
        <ele>141.068</ele>
        <time>2021-10-12T08:48:44Z</time>
      </trkpt>
      <trkpt lat="37.266107" lon="-5.431858">
        <ele>142.034</ele>
        <time>2021-10-12T08:48:46Z</time>
      </trkpt>
      <trkpt lat="37.266270" lon="-5.432177">
        <ele>140.247</ele>
        <time>2021-10-12T08:48:47Z</time>
      </trkpt>
      <trkpt lat="37.266594" lon="-5.432811">
        <ele>140.143</ele>
        <time>2021-10-12T08:48:49Z</time>
      </trkpt>
      <trkpt lat="37.266764" lon="-5.433133">
        <ele>140.732</ele>
        <time>2021-10-12T08:48:50Z</time>
      </trkpt>
      <trkpt lat="37.267095" lon="-5.433745">
        <ele>140.092</ele>
        <time>2021-10-12T08:48:52Z</time>
      </trkpt>
      <trkpt lat="37.267433" lon="-5.434347">
        <ele>139.453</ele>
        <time>2021-10-12T08:48:54Z</time>
      </trkpt>
      <trkpt lat="37.267603" lon="-5.434647">
        <ele>139.386</ele>
        <time>2021-10-12T08:48:55Z</time>
      </trkpt>
      <trkpt lat="37.267773" lon="-5.434948">
        <ele>140.860</ele>
        <time>2021-10-12T08:48:56Z</time>
      </trkpt>
      <trkpt lat="37.268107" lon="-5.435552">
        <ele>142.226</ele>
        <time>2021-10-12T08:48:58Z</time>
      </trkpt>
      <trkpt lat="37.268272" lon="-5.435865">
        <ele>141.208</ele>
        <time>2021-10-12T08:48:59Z</time>
      </trkpt>
      <trkpt lat="37.268434" lon="-5.436175">
        <ele>141.826</ele>
        <time>2021-10-12T08:49:00Z</time>
      </trkpt>
      <trkpt lat="37.268593" lon="-5.436488">
        <ele>144.694</ele>
        <time>2021-10-12T08:49:01Z</time>
      </trkpt>
      <trkpt lat="37.268914" lon="-5.437118">
        <ele>144.430</ele>
        <time>2021-10-12T08:49:03Z</time>
      </trkpt>
      <trkpt lat="37.269239" lon="-5.437757">
        <ele>142.793</ele>
        <time>2021-10-12T08:49:05Z</time>
      </trkpt>
      <trkpt lat="37.269565" lon="-5.438412">
        <ele>142.619</ele>
        <time>2021-10-12T08:49:07Z</time>
      </trkpt>
      <trkpt lat="37.269734" lon="-5.438745">
        <ele>139.328</ele>
        <time>2021-10-12T08:49:08Z</time>
      </trkpt>
      <trkpt lat="37.270068" lon="-5.439403">
        <ele>131.148</ele>
        <time>2021-10-12T08:49:10Z</time>
      </trkpt>
      <trkpt lat="37.270414" lon="-5.440056">
        <ele>130.629</ele>
        <time>2021-10-12T08:49:12Z</time>
      </trkpt>
      <trkpt lat="37.270797" lon="-5.440677">
        <ele>129.482</ele>
        <time>2021-10-12T08:49:14Z</time>
      </trkpt>
      <trkpt lat="37.271196" lon="-5.441253">
        <ele>127.043</ele>
        <time>2021-10-12T08:49:16Z</time>
      </trkpt>
      <trkpt lat="37.271599" lon="-5.441827">
        <ele>124.417</ele>
        <time>2021-10-12T08:49:18Z</time>
      </trkpt>
      <trkpt lat="37.271993" lon="-5.442387">
        <ele>125.908</ele>
        <time>2021-10-12T08:49:20Z</time>
      </trkpt>
      <trkpt lat="37.272364" lon="-5.442929">
        <ele>124.856</ele>
        <time>2021-10-12T08:49:22Z</time>
      </trkpt>
      <trkpt lat="37.272551" lon="-5.443199">
        <ele>126.284</ele>
        <time>2021-10-12T08:49:23Z</time>
      </trkpt>
      <trkpt lat="37.272926" lon="-5.443730">
        <ele>126.060</ele>
        <time>2021-10-12T08:49:25Z</time>
      </trkpt>
      <trkpt lat="37.273121" lon="-5.444009">
        <ele>126.233</ele>
        <time>2021-10-12T08:49:26Z</time>
      </trkpt>
      <trkpt lat="37.273501" lon="-5.444549">
        <ele>126.229</ele>
        <time>2021-10-12T08:49:28Z</time>
      </trkpt>
      <trkpt lat="37.273895" lon="-5.445110">
        <ele>127.028</ele>
        <time>2021-10-12T08:49:30Z</time>
      </trkpt>
      <trkpt lat="37.274091" lon="-5.445396">
        <ele>127.528</ele>
        <time>2021-10-12T08:49:31Z</time>
      </trkpt>
      <trkpt lat="37.274291" lon="-5.445680">
        <ele>127.979</ele>
        <time>2021-10-12T08:49:32Z</time>
      </trkpt>
      <trkpt lat="37.274489" lon="-5.445963">
        <ele>129.458</ele>
        <time>2021-10-12T08:49:33Z</time>
      </trkpt>
      <trkpt lat="37.274874" lon="-5.446516">
        <ele>132.652</ele>
        <time>2021-10-12T08:49:35Z</time>
      </trkpt>
      <trkpt lat="37.275240" lon="-5.447053">
        <ele>135.617</ele>
        <time>2021-10-12T08:49:37Z</time>
      </trkpt>
      <trkpt lat="37.275424" lon="-5.447320">
        <ele>134.308</ele>
        <time>2021-10-12T08:49:38Z</time>
      </trkpt>
      <trkpt lat="37.275771" lon="-5.447824">
        <ele>134.673</ele>
        <time>2021-10-12T08:49:40Z</time>
      </trkpt>
      <trkpt lat="37.276128" lon="-5.448329">
        <ele>138.081</ele>
        <time>2021-10-12T08:49:42Z</time>
      </trkpt>
      <trkpt lat="37.276488" lon="-5.448851">
        <ele>141.157</ele>
        <time>2021-10-12T08:49:44Z</time>
      </trkpt>
      <trkpt lat="37.276839" lon="-5.449371">
        <ele>142.710</ele>
        <time>2021-10-12T08:49:46Z</time>
      </trkpt>
      <trkpt lat="37.277163" lon="-5.449929">
        <ele>142.486</ele>
        <time>2021-10-12T08:49:48Z</time>
      </trkpt>
      <trkpt lat="37.277429" lon="-5.450550">
        <ele>143.215</ele>
        <time>2021-10-12T08:49:50Z</time>
      </trkpt>
      <trkpt lat="37.277642" lon="-5.451203">
        <ele>145.285</ele>
        <time>2021-10-12T08:49:52Z</time>
      </trkpt>
      <trkpt lat="37.277788" lon="-5.451916">
        <ele>146.126</ele>
        <time>2021-10-12T08:49:54Z</time>
      </trkpt>
      <trkpt lat="37.277833" lon="-5.452289">
        <ele>146.872</ele>
        <time>2021-10-12T08:49:55Z</time>
      </trkpt>
      <trkpt lat="37.277856" lon="-5.452675">
        <ele>146.913</ele>
        <time>2021-10-12T08:49:56Z</time>
      </trkpt>
      <trkpt lat="37.277845" lon="-5.453441">
        <ele>143.714</ele>
        <time>2021-10-12T08:49:58Z</time>
      </trkpt>
      <trkpt lat="37.277803" lon="-5.454237">
        <ele>140.208</ele>
        <time>2021-10-12T08:50:00Z</time>
      </trkpt>
      <trkpt lat="37.277782" lon="-5.454638">
        <ele>141.775</ele>
        <time>2021-10-12T08:50:01Z</time>
      </trkpt>
      <trkpt lat="37.277766" lon="-5.455046">
        <ele>142.363</ele>
        <time>2021-10-12T08:50:02Z</time>
      </trkpt>
      <trkpt lat="37.277736" lon="-5.455817">
        <ele>142.279</ele>
        <time>2021-10-12T08:50:04Z</time>
      </trkpt>
      <trkpt lat="37.277700" lon="-5.456570">
        <ele>140.392</ele>
        <time>2021-10-12T08:50:06Z</time>
      </trkpt>
      <trkpt lat="37.277673" lon="-5.457304">
        <ele>140.738</ele>
        <time>2021-10-12T08:50:08Z</time>
      </trkpt>
      <trkpt lat="37.277648" lon="-5.458021">
        <ele>139.457</ele>
        <time>2021-10-12T08:50:10Z</time>
      </trkpt>
      <trkpt lat="37.277634" lon="-5.458385">
        <ele>141.557</ele>
        <time>2021-10-12T08:50:11Z</time>
      </trkpt>
      <trkpt lat="37.277616" lon="-5.458753">
        <ele>140.498</ele>
        <time>2021-10-12T08:50:12Z</time>
      </trkpt>
      <trkpt lat="37.277586" lon="-5.459512">
        <ele>140.534</ele>
        <time>2021-10-12T08:50:14Z</time>
      </trkpt>
      <trkpt lat="37.277560" lon="-5.460272">
        <ele>141.855</ele>
        <time>2021-10-12T08:50:16Z</time>
      </trkpt>
      <trkpt lat="37.277547" lon="-5.460662">
        <ele>140.510</ele>
        <time>2021-10-12T08:50:17Z</time>
      </trkpt>
      <trkpt lat="37.277521" lon="-5.461449">
        <ele>138.808</ele>
        <time>2021-10-12T08:50:19Z</time>
      </trkpt>
      <trkpt lat="37.277506" lon="-5.461853">
        <ele>137.331</ele>
        <time>2021-10-12T08:50:20Z</time>
      </trkpt>
      <trkpt lat="37.277470" lon="-5.462630">
        <ele>136.479</ele>
        <time>2021-10-12T08:50:22Z</time>
      </trkpt>
      <trkpt lat="37.277452" lon="-5.463024">
        <ele>135.745</ele>
        <time>2021-10-12T08:50:23Z</time>
      </trkpt>
      <trkpt lat="37.277435" lon="-5.463417">
        <ele>135.898</ele>
        <time>2021-10-12T08:50:24Z</time>
      </trkpt>
      <trkpt lat="37.277406" lon="-5.464196">
        <ele>135.954</ele>
        <time>2021-10-12T08:50:26Z</time>
      </trkpt>
      <trkpt lat="37.277374" lon="-5.464935">
        <ele>133.713</ele>
        <time>2021-10-12T08:50:28Z</time>
      </trkpt>
      <trkpt lat="37.277360" lon="-5.465314">
        <ele>132.513</ele>
        <time>2021-10-12T08:50:29Z</time>
      </trkpt>
      <trkpt lat="37.277331" lon="-5.466065">
        <ele>132.334</ele>
        <time>2021-10-12T08:50:31Z</time>
      </trkpt>
      <trkpt lat="37.277312" lon="-5.466448">
        <ele>131.577</ele>
        <time>2021-10-12T08:50:32Z</time>
      </trkpt>
      <trkpt lat="37.277282" lon="-5.467202">
        <ele>128.161</ele>
        <time>2021-10-12T08:50:34Z</time>
      </trkpt>
      <trkpt lat="37.277263" lon="-5.467579">
        <ele>129.227</ele>
        <time>2021-10-12T08:50:35Z</time>
      </trkpt>
      <trkpt lat="37.277245" lon="-5.467955">
        <ele>130.608</ele>
        <time>2021-10-12T08:50:36Z</time>
      </trkpt>
      <trkpt lat="37.277228" lon="-5.468329">
        <ele>130.035</ele>
        <time>2021-10-12T08:50:37Z</time>
      </trkpt>
      <trkpt lat="37.277211" lon="-5.468707">
        <ele>128.493</ele>
        <time>2021-10-12T08:50:38Z</time>
      </trkpt>
      <trkpt lat="37.277178" lon="-5.469437">
        <ele>129.369</ele>
        <time>2021-10-12T08:50:40Z</time>
      </trkpt>
      <trkpt lat="37.277141" lon="-5.470169">
        <ele>128.192</ele>
        <time>2021-10-12T08:50:42Z</time>
      </trkpt>
      <trkpt lat="37.277117" lon="-5.470527">
        <ele>127.418</ele>
        <time>2021-10-12T08:50:43Z</time>
      </trkpt>
      <trkpt lat="37.277089" lon="-5.470885">
        <ele>128.567</ele>
        <time>2021-10-12T08:50:44Z</time>
      </trkpt>
      <trkpt lat="37.277039" lon="-5.471584">
        <ele>127.887</ele>
        <time>2021-10-12T08:50:46Z</time>
      </trkpt>
      <trkpt lat="37.277015" lon="-5.471944">
        <ele>128.038</ele>
        <time>2021-10-12T08:50:47Z</time>
      </trkpt>
      <trkpt lat="37.276963" lon="-5.472666">
        <ele>129.958</ele>
        <time>2021-10-12T08:50:49Z</time>
      </trkpt>
      <trkpt lat="37.276940" lon="-5.473040">
        <ele>130.052</ele>
        <time>2021-10-12T08:50:50Z</time>
      </trkpt>
      <trkpt lat="37.276899" lon="-5.473785">
        <ele>128.717</ele>
        <time>2021-10-12T08:50:52Z</time>
      </trkpt>
      <trkpt lat="37.276880" lon="-5.474166">
        <ele>130.208</ele>
        <time>2021-10-12T08:50:53Z</time>
      </trkpt>
      <trkpt lat="37.276862" lon="-5.474545">
        <ele>131.073</ele>
        <time>2021-10-12T08:50:54Z</time>
      </trkpt>
      <trkpt lat="37.276826" lon="-5.475314">
        <ele>128.391</ele>
        <time>2021-10-12T08:50:56Z</time>
      </trkpt>
      <trkpt lat="37.276796" lon="-5.476064">
        <ele>126.427</ele>
        <time>2021-10-12T08:50:58Z</time>
      </trkpt>
      <trkpt lat="37.276782" lon="-5.476452">
        <ele>126.210</ele>
        <time>2021-10-12T08:50:59Z</time>
      </trkpt>
      <trkpt lat="37.276754" lon="-5.477234">
        <ele>124.036</ele>
        <time>2021-10-12T08:51:01Z</time>
      </trkpt>
      <trkpt lat="37.276739" lon="-5.477636">
        <ele>123.425</ele>
        <time>2021-10-12T08:51:02Z</time>
      </trkpt>
      <trkpt lat="37.276710" lon="-5.478393">
        <ele>121.045</ele>
        <time>2021-10-12T08:51:04Z</time>
      </trkpt>
      <trkpt lat="37.276692" lon="-5.478774">
        <ele>121.286</ele>
        <time>2021-10-12T08:51:05Z</time>
      </trkpt>
      <trkpt lat="37.276679" lon="-5.479151">
        <ele>121.073</ele>
        <time>2021-10-12T08:51:06Z</time>
      </trkpt>
      <trkpt lat="37.276667" lon="-5.479524">
        <ele>122.385</ele>
        <time>2021-10-12T08:51:07Z</time>
      </trkpt>
      <trkpt lat="37.276654" lon="-5.479896">
        <ele>125.613</ele>
        <time>2021-10-12T08:51:08Z</time>
      </trkpt>
      <trkpt lat="37.276629" lon="-5.480612">
        <ele>130.308</ele>
        <time>2021-10-12T08:51:10Z</time>
      </trkpt>
      <trkpt lat="37.276612" lon="-5.480968">
        <ele>131.715</ele>
        <time>2021-10-12T08:51:11Z</time>
      </trkpt>
      <trkpt lat="37.276561" lon="-5.481670">
        <ele>133.023</ele>
        <time>2021-10-12T08:51:13Z</time>
      </trkpt>
      <trkpt lat="37.276512" lon="-5.482025">
        <ele>133.079</ele>
        <time>2021-10-12T08:51:14Z</time>
      </trkpt>
      <trkpt lat="37.276368" lon="-5.482718">
        <ele>132.382</ele>
        <time>2021-10-12T08:51:16Z</time>
      </trkpt>
      <trkpt lat="37.276170" lon="-5.483407">
        <ele>131.578</ele>
        <time>2021-10-12T08:51:18Z</time>
      </trkpt>
      <trkpt lat="37.276070" lon="-5.483755">
        <ele>131.147</ele>
        <time>2021-10-12T08:51:19Z</time>
      </trkpt>
      <trkpt lat="37.275970" lon="-5.484109">
        <ele>131.027</ele>
        <time>2021-10-12T08:51:20Z</time>
      </trkpt>
      <trkpt lat="37.275773" lon="-5.484801">
        <ele>132.788</ele>
        <time>2021-10-12T08:51:22Z</time>
      </trkpt>
      <trkpt lat="37.275673" lon="-5.485153">
        <ele>131.668</ele>
        <time>2021-10-12T08:51:23Z</time>
      </trkpt>
      <trkpt lat="37.275472" lon="-5.485861">
        <ele>130.342</ele>
        <time>2021-10-12T08:51:25Z</time>
      </trkpt>
      <trkpt lat="37.275368" lon="-5.486228">
        <ele>131.526</ele>
        <time>2021-10-12T08:51:26Z</time>
      </trkpt>
      <trkpt lat="37.275170" lon="-5.486929">
        <ele>130.708</ele>
        <time>2021-10-12T08:51:28Z</time>
      </trkpt>
      <trkpt lat="37.275069" lon="-5.487288">
        <ele>129.594</ele>
        <time>2021-10-12T08:51:29Z</time>
      </trkpt>
      <trkpt lat="37.274968" lon="-5.487646">
        <ele>128.842</ele>
        <time>2021-10-12T08:51:30Z</time>
      </trkpt>
      <trkpt lat="37.274766" lon="-5.488351">
        <ele>130.128</ele>
        <time>2021-10-12T08:51:32Z</time>
      </trkpt>
      <trkpt lat="37.274539" lon="-5.489015">
        <ele>129.191</ele>
        <time>2021-10-12T08:51:34Z</time>
      </trkpt>
      <trkpt lat="37.274406" lon="-5.489335">
        <ele>127.167</ele>
        <time>2021-10-12T08:51:35Z</time>
      </trkpt>
      <trkpt lat="37.274105" lon="-5.489940">
        <ele>124.756</ele>
        <time>2021-10-12T08:51:37Z</time>
      </trkpt>
      <trkpt lat="37.273941" lon="-5.490242">
        <ele>125.636</ele>
        <time>2021-10-12T08:51:38Z</time>
      </trkpt>
      <trkpt lat="37.273612" lon="-5.490830">
        <ele>127.057</ele>
        <time>2021-10-12T08:51:40Z</time>
      </trkpt>
      <trkpt lat="37.273269" lon="-5.491429">
        <ele>127.127</ele>
        <time>2021-10-12T08:51:42Z</time>
      </trkpt>
      <trkpt lat="37.273098" lon="-5.491735">
        <ele>127.468</ele>
        <time>2021-10-12T08:51:43Z</time>
      </trkpt>
      <trkpt lat="37.272921" lon="-5.492043">
        <ele>127.814</ele>
        <time>2021-10-12T08:51:44Z</time>
      </trkpt>
      <trkpt lat="37.272579" lon="-5.492641">
        <ele>128.108</ele>
        <time>2021-10-12T08:51:46Z</time>
      </trkpt>
      <trkpt lat="37.272238" lon="-5.493250">
        <ele>129.750</ele>
        <time>2021-10-12T08:51:48Z</time>
      </trkpt>
      <trkpt lat="37.272064" lon="-5.493563">
        <ele>127.998</ele>
        <time>2021-10-12T08:51:49Z</time>
      </trkpt>
      <trkpt lat="37.271887" lon="-5.493875">
        <ele>126.144</ele>
        <time>2021-10-12T08:51:50Z</time>
      </trkpt>
      <trkpt lat="37.271550" lon="-5.494470">
        <ele>124.037</ele>
        <time>2021-10-12T08:51:52Z</time>
      </trkpt>
      <trkpt lat="37.271383" lon="-5.494767">
        <ele>125.243</ele>
        <time>2021-10-12T08:51:53Z</time>
      </trkpt>
      <trkpt lat="37.271220" lon="-5.495057">
        <ele>127.122</ele>
        <time>2021-10-12T08:51:54Z</time>
      </trkpt>
      <trkpt lat="37.271061" lon="-5.495347">
        <ele>128.012</ele>
        <time>2021-10-12T08:51:55Z</time>
      </trkpt>
      <trkpt lat="37.270748" lon="-5.495926">
        <ele>126.773</ele>
        <time>2021-10-12T08:51:57Z</time>
      </trkpt>
      <trkpt lat="37.270468" lon="-5.496537">
        <ele>125.547</ele>
        <time>2021-10-12T08:51:59Z</time>
      </trkpt>
      <trkpt lat="37.270257" lon="-5.497196">
        <ele>127.029</ele>
        <time>2021-10-12T08:52:01Z</time>
      </trkpt>
      <trkpt lat="37.270105" lon="-5.497898">
        <ele>127.421</ele>
        <time>2021-10-12T08:52:03Z</time>
      </trkpt>
      <trkpt lat="37.269984" lon="-5.498628">
        <ele>126.108</ele>
        <time>2021-10-12T08:52:05Z</time>
      </trkpt>
      <trkpt lat="37.269922" lon="-5.498993">
        <ele>127.632</ele>
        <time>2021-10-12T08:52:06Z</time>
      </trkpt>
      <trkpt lat="37.269794" lon="-5.499725">
        <ele>129.040</ele>
        <time>2021-10-12T08:52:08Z</time>
      </trkpt>
      <trkpt lat="37.269667" lon="-5.500432">
        <ele>129.816</ele>
        <time>2021-10-12T08:52:10Z</time>
      </trkpt>
      <trkpt lat="37.269600" lon="-5.500793">
        <ele>129.669</ele>
        <time>2021-10-12T08:52:11Z</time>
      </trkpt>
      <trkpt lat="37.269448" lon="-5.501518">
        <ele>129.055</ele>
        <time>2021-10-12T08:52:13Z</time>
      </trkpt>
      <trkpt lat="37.269365" lon="-5.501885">
        <ele>127.694</ele>
        <time>2021-10-12T08:52:14Z</time>
      </trkpt>
      <trkpt lat="37.269205" lon="-5.502599">
        <ele>126.034</ele>
        <time>2021-10-12T08:52:16Z</time>
      </trkpt>
      <trkpt lat="37.269125" lon="-5.502968">
        <ele>125.365</ele>
        <time>2021-10-12T08:52:17Z</time>
      </trkpt>
      <trkpt lat="37.268985" lon="-5.503706">
        <ele>124.647</ele>
        <time>2021-10-12T08:52:19Z</time>
      </trkpt>
      <trkpt lat="37.268928" lon="-5.504090">
        <ele>125.029</ele>
        <time>2021-10-12T08:52:20Z</time>
      </trkpt>
      <trkpt lat="37.268856" lon="-5.504846">
        <ele>124.021</ele>
        <time>2021-10-12T08:52:22Z</time>
      </trkpt>
      <trkpt lat="37.268836" lon="-5.505235">
        <ele>124.808</ele>
        <time>2021-10-12T08:52:23Z</time>
      </trkpt>
      <trkpt lat="37.268802" lon="-5.506007">
        <ele>125.132</ele>
        <time>2021-10-12T08:52:25Z</time>
      </trkpt>
      <trkpt lat="37.268783" lon="-5.506399">
        <ele>124.010</ele>
        <time>2021-10-12T08:52:26Z</time>
      </trkpt>
      <trkpt lat="37.268737" lon="-5.507135">
        <ele>121.516</ele>
        <time>2021-10-12T08:52:28Z</time>
      </trkpt>
      <trkpt lat="37.268707" lon="-5.507496">
        <ele>120.459</ele>
        <time>2021-10-12T08:52:29Z</time>
      </trkpt>
      <trkpt lat="37.268598" lon="-5.508208">
        <ele>117.475</ele>
        <time>2021-10-12T08:52:31Z</time>
      </trkpt>
      <trkpt lat="37.268509" lon="-5.508567">
        <ele>117.534</ele>
        <time>2021-10-12T08:52:32Z</time>
      </trkpt>
      <trkpt lat="37.268265" lon="-5.509243">
        <ele>120.264</ele>
        <time>2021-10-12T08:52:34Z</time>
      </trkpt>
      <trkpt lat="37.268112" lon="-5.509571">
        <ele>120.195</ele>
        <time>2021-10-12T08:52:35Z</time>
      </trkpt>
      <trkpt lat="37.267787" lon="-5.510218">
        <ele>121.096</ele>
        <time>2021-10-12T08:52:37Z</time>
      </trkpt>
      <trkpt lat="37.267622" lon="-5.510547">
        <ele>120.431</ele>
        <time>2021-10-12T08:52:38Z</time>
      </trkpt>
      <trkpt lat="37.267304" lon="-5.511183">
        <ele>122.024</ele>
        <time>2021-10-12T08:52:40Z</time>
      </trkpt>
      <trkpt lat="37.267139" lon="-5.511506">
        <ele>121.708</ele>
        <time>2021-10-12T08:52:41Z</time>
      </trkpt>
      <trkpt lat="37.266845" lon="-5.512120">
        <ele>121.117</ele>
        <time>2021-10-12T08:52:43Z</time>
      </trkpt>
      <trkpt lat="37.266709" lon="-5.512419">
        <ele>121.865</ele>
        <time>2021-10-12T08:52:44Z</time>
      </trkpt>
      <trkpt lat="37.266444" lon="-5.512991">
        <ele>120.221</ele>
        <time>2021-10-12T08:52:46Z</time>
      </trkpt>
      <trkpt lat="37.266175" lon="-5.513580">
        <ele>120.184</ele>
        <time>2021-10-12T08:52:48Z</time>
      </trkpt>
      <trkpt lat="37.266045" lon="-5.513885">
        <ele>119.040</ele>
        <time>2021-10-12T08:52:49Z</time>
      </trkpt>
      <trkpt lat="37.265921" lon="-5.514205">
        <ele>117.659</ele>
        <time>2021-10-12T08:52:50Z</time>
      </trkpt>
      <trkpt lat="37.265714" lon="-5.514860">
        <ele>117.479</ele>
        <time>2021-10-12T08:52:52Z</time>
      </trkpt>
      <trkpt lat="37.265621" lon="-5.515203">
        <ele>118.360</ele>
        <time>2021-10-12T08:52:53Z</time>
      </trkpt>
      <trkpt lat="37.265442" lon="-5.515893">
        <ele>119.872</ele>
        <time>2021-10-12T08:52:55Z</time>
      </trkpt>
      <trkpt lat="37.265348" lon="-5.516251">
        <ele>120.613</ele>
        <time>2021-10-12T08:52:56Z</time>
      </trkpt>
      <trkpt lat="37.265175" lon="-5.516929">
        <ele>120.414</ele>
        <time>2021-10-12T08:52:58Z</time>
      </trkpt>
      <trkpt lat="37.265087" lon="-5.517276">
        <ele>120.708</ele>
        <time>2021-10-12T08:52:59Z</time>
      </trkpt>
      <trkpt lat="37.264903" lon="-5.517965">
        <ele>120.675</ele>
        <time>2021-10-12T08:53:01Z</time>
      </trkpt>
      <trkpt lat="37.264812" lon="-5.518322">
        <ele>120.083</ele>
        <time>2021-10-12T08:53:02Z</time>
      </trkpt>
      <trkpt lat="37.264647" lon="-5.519011">
        <ele>119.679</ele>
        <time>2021-10-12T08:53:04Z</time>
      </trkpt>
      <trkpt lat="37.264572" lon="-5.519364">
        <ele>117.972</ele>
        <time>2021-10-12T08:53:05Z</time>
      </trkpt>
      <trkpt lat="37.264507" lon="-5.519721">
        <ele>117.278</ele>
        <time>2021-10-12T08:53:06Z</time>
      </trkpt>
      <trkpt lat="37.264388" lon="-5.520447">
        <ele>117.247</ele>
        <time>2021-10-12T08:53:08Z</time>
      </trkpt>
      <trkpt lat="37.264268" lon="-5.521168">
        <ele>116.597</ele>
        <time>2021-10-12T08:53:10Z</time>
      </trkpt>
      <trkpt lat="37.264203" lon="-5.521530">
        <ele>114.458</ele>
        <time>2021-10-12T08:53:11Z</time>
      </trkpt>
      <trkpt lat="37.264075" lon="-5.522237">
        <ele>110.452</ele>
        <time>2021-10-12T08:53:13Z</time>
      </trkpt>
      <trkpt lat="37.264011" lon="-5.522593">
        <ele>110.453</ele>
        <time>2021-10-12T08:53:14Z</time>
      </trkpt>
      <trkpt lat="37.263890" lon="-5.523283">
        <ele>109.208</ele>
        <time>2021-10-12T08:53:16Z</time>
      </trkpt>
      <trkpt lat="37.263766" lon="-5.523983">
        <ele>105.708</ele>
        <time>2021-10-12T08:53:18Z</time>
      </trkpt>
      <trkpt lat="37.263645" lon="-5.524658">
        <ele>102.493</ele>
        <time>2021-10-12T08:53:20Z</time>
      </trkpt>
      <trkpt lat="37.263536" lon="-5.525280">
        <ele>101.031</ele>
        <time>2021-10-12T08:53:22Z</time>
      </trkpt>
      <trkpt lat="37.263483" lon="-5.525581">
        <ele>101.037</ele>
        <time>2021-10-12T08:53:23Z</time>
      </trkpt>
      <trkpt lat="37.263380" lon="-5.526168">
        <ele>100.810</ele>
        <time>2021-10-12T08:53:25Z</time>
      </trkpt>
      <trkpt lat="37.263328" lon="-5.526464">
        <ele>99.776</ele>
        <time>2021-10-12T08:53:26Z</time>
      </trkpt>
      <trkpt lat="37.263226" lon="-5.527014">
        <ele>98.885</ele>
        <time>2021-10-12T08:53:28Z</time>
      </trkpt>
      <trkpt lat="37.263174" lon="-5.527285">
        <ele>98.615</ele>
        <time>2021-10-12T08:53:29Z</time>
      </trkpt>
      <trkpt lat="37.263071" lon="-5.527797">
        <ele>99.036</ele>
        <time>2021-10-12T08:53:31Z</time>
      </trkpt>
      <trkpt lat="37.263020" lon="-5.528063">
        <ele>100.081</ele>
        <time>2021-10-12T08:53:32Z</time>
      </trkpt>
      <trkpt lat="37.262931" lon="-5.528567">
        <ele>100.361</ele>
        <time>2021-10-12T08:53:34Z</time>
      </trkpt>
      <trkpt lat="37.262900" lon="-5.528810">
        <ele>101.317</ele>
        <time>2021-10-12T08:53:35Z</time>
      </trkpt>
      <trkpt lat="37.262883" lon="-5.529044">
        <ele>101.608</ele>
        <time>2021-10-12T08:53:36Z</time>
      </trkpt>
      <trkpt lat="37.262862" lon="-5.529502">
        <ele>101.416</ele>
        <time>2021-10-12T08:53:38Z</time>
      </trkpt>
      <trkpt lat="37.262847" lon="-5.529895">
        <ele>99.584</ele>
        <time>2021-10-12T08:53:40Z</time>
      </trkpt>
      <trkpt lat="37.262839" lon="-5.530066">
        <ele>98.540</ele>
        <time>2021-10-12T08:53:41Z</time>
      </trkpt>
      <trkpt lat="37.262830" lon="-5.530215">
        <ele>97.553</ele>
        <time>2021-10-12T08:53:42Z</time>
      </trkpt>
      <trkpt lat="37.262823" lon="-5.530346">
        <ele>97.059</ele>
        <time>2021-10-12T08:53:43Z</time>
      </trkpt>
      <trkpt lat="37.262817" lon="-5.530466">
        <ele>97.058</ele>
        <time>2021-10-12T08:53:44Z</time>
      </trkpt>
      <trkpt lat="37.262807" lon="-5.530656">
        <ele>97.068</ele>
        <time>2021-10-12T08:53:46Z</time>
      </trkpt>
      <trkpt lat="37.262806" lon="-5.530731">
        <ele>96.919</ele>
        <time>2021-10-12T08:53:47Z</time>
      </trkpt>
      <trkpt lat="37.262804" lon="-5.530852">
        <ele>96.949</ele>
        <time>2021-10-12T08:53:49Z</time>
      </trkpt>
      <trkpt lat="37.262800" lon="-5.530909">
        <ele>96.902</ele>
        <time>2021-10-12T08:53:50Z</time>
      </trkpt>
      <trkpt lat="37.262794" lon="-5.530998">
        <ele>96.922</ele>
        <time>2021-10-12T08:53:52Z</time>
      </trkpt>
      <trkpt lat="37.262799" lon="-5.531068">
        <ele>96.908</ele>
        <time>2021-10-12T08:53:54Z</time>
      </trkpt>
      <trkpt lat="37.262800" lon="-5.531126">
        <ele>96.982</ele>
        <time>2021-10-12T08:53:56Z</time>
      </trkpt>
      <trkpt lat="37.262787" lon="-5.531183">
        <ele>96.780</ele>
        <time>2021-10-12T08:54:49Z</time>
      </trkpt>
      <trkpt lat="37.262780" lon="-5.531267">
        <ele>96.466</ele>
        <time>2021-10-12T08:55:11Z</time>
      </trkpt>
      <trkpt lat="37.262773" lon="-5.531353">
        <ele>96.179</ele>
        <time>2021-10-12T08:55:12Z</time>
      </trkpt>
      <trkpt lat="37.262762" lon="-5.531566">
        <ele>96.035</ele>
        <time>2021-10-12T08:55:14Z</time>
      </trkpt>
      <trkpt lat="37.262746" lon="-5.531803">
        <ele>95.684</ele>
        <time>2021-10-12T08:55:16Z</time>
      </trkpt>
      <trkpt lat="37.262725" lon="-5.532069">
        <ele>95.424</ele>
        <time>2021-10-12T08:55:18Z</time>
      </trkpt>
      <trkpt lat="37.262706" lon="-5.532352">
        <ele>95.955</ele>
        <time>2021-10-12T08:55:20Z</time>
      </trkpt>
      <trkpt lat="37.262687" lon="-5.532622">
        <ele>96.576</ele>
        <time>2021-10-12T08:55:22Z</time>
      </trkpt>
      <trkpt lat="37.262675" lon="-5.532771">
        <ele>96.790</ele>
        <time>2021-10-12T08:55:23Z</time>
      </trkpt>
      <trkpt lat="37.262650" lon="-5.533110">
        <ele>97.619</ele>
        <time>2021-10-12T08:55:25Z</time>
      </trkpt>
      <trkpt lat="37.262637" lon="-5.533300">
        <ele>97.908</ele>
        <time>2021-10-12T08:55:26Z</time>
      </trkpt>
      <trkpt lat="37.262624" lon="-5.533658">
        <ele>98.915</ele>
        <time>2021-10-12T08:55:28Z</time>
      </trkpt>
      <trkpt lat="37.262622" lon="-5.533857">
        <ele>98.633</ele>
        <time>2021-10-12T08:55:29Z</time>
      </trkpt>
      <trkpt lat="37.262630" lon="-5.534307">
        <ele>98.889</ele>
        <time>2021-10-12T08:55:31Z</time>
      </trkpt>
      <trkpt lat="37.262644" lon="-5.534546">
        <ele>99.682</ele>
        <time>2021-10-12T08:55:32Z</time>
      </trkpt>
      <trkpt lat="37.262685" lon="-5.535012">
        <ele>102.488</ele>
        <time>2021-10-12T08:55:34Z</time>
      </trkpt>
      <trkpt lat="37.262734" lon="-5.535418">
        <ele>103.617</ele>
        <time>2021-10-12T08:55:36Z</time>
      </trkpt>
      <trkpt lat="37.262770" lon="-5.535716">
        <ele>104.677</ele>
        <time>2021-10-12T08:55:38Z</time>
      </trkpt>
      <trkpt lat="37.262799" lon="-5.535934">
        <ele>105.978</ele>
        <time>2021-10-12T08:55:40Z</time>
      </trkpt>
      <trkpt lat="37.262831" lon="-5.536140">
        <ele>107.732</ele>
        <time>2021-10-12T08:55:42Z</time>
      </trkpt>
      <trkpt lat="37.262846" lon="-5.536244">
        <ele>108.992</ele>
        <time>2021-10-12T08:55:43Z</time>
      </trkpt>
      <trkpt lat="37.262864" lon="-5.536360">
        <ele>110.311</ele>
        <time>2021-10-12T08:55:44Z</time>
      </trkpt>
      <trkpt lat="37.262899" lon="-5.536627">
        <ele>112.608</ele>
        <time>2021-10-12T08:55:46Z</time>
      </trkpt>
      <trkpt lat="37.262933" lon="-5.536950">
        <ele>114.011</ele>
        <time>2021-10-12T08:55:48Z</time>
      </trkpt>
      <trkpt lat="37.262955" lon="-5.537128">
        <ele>114.219</ele>
        <time>2021-10-12T08:55:49Z</time>
      </trkpt>
      <trkpt lat="37.262977" lon="-5.537309">
        <ele>114.565</ele>
        <time>2021-10-12T08:55:50Z</time>
      </trkpt>
      <trkpt lat="37.263011" lon="-5.537601">
        <ele>115.038</ele>
        <time>2021-10-12T08:55:52Z</time>
      </trkpt>
      <trkpt lat="37.263026" lon="-5.537731">
        <ele>115.034</ele>
        <time>2021-10-12T08:55:53Z</time>
      </trkpt>
      <trkpt lat="37.263034" lon="-5.537851">
        <ele>115.043</ele>
        <time>2021-10-12T08:55:54Z</time>
      </trkpt>
      <trkpt lat="37.263035" lon="-5.538086">
        <ele>115.353</ele>
        <time>2021-10-12T08:55:56Z</time>
      </trkpt>
      <trkpt lat="37.263009" lon="-5.538317">
        <ele>116.944</ele>
        <time>2021-10-12T08:55:58Z</time>
      </trkpt>
      <trkpt lat="37.262999" lon="-5.538421">
        <ele>117.625</ele>
        <time>2021-10-12T08:55:59Z</time>
      </trkpt>
      <trkpt lat="37.263019" lon="-5.538609">
        <ele>118.926</ele>
        <time>2021-10-12T08:56:01Z</time>
      </trkpt>
      <trkpt lat="37.263129" lon="-5.538802">
        <ele>120.108</ele>
        <time>2021-10-12T08:56:03Z</time>
      </trkpt>
      <trkpt lat="37.263202" lon="-5.538909">
        <ele>120.508</ele>
        <time>2021-10-12T08:56:04Z</time>
      </trkpt>
      <trkpt lat="37.263358" lon="-5.539153">
        <ele>119.020</ele>
        <time>2021-10-12T08:56:06Z</time>
      </trkpt>
      <trkpt lat="37.263515" lon="-5.539401">
        <ele>117.588</ele>
        <time>2021-10-12T08:56:08Z</time>
      </trkpt>
      <trkpt lat="37.263646" lon="-5.539614">
        <ele>117.014</ele>
        <time>2021-10-12T08:56:10Z</time>
      </trkpt>
      <trkpt lat="37.263708" lon="-5.539718">
        <ele>117.097</ele>
        <time>2021-10-12T08:56:11Z</time>
      </trkpt>
      <trkpt lat="37.263832" lon="-5.539928">
        <ele>116.353</ele>
        <time>2021-10-12T08:56:13Z</time>
      </trkpt>
      <trkpt lat="37.263902" lon="-5.540044">
        <ele>116.242</ele>
        <time>2021-10-12T08:56:14Z</time>
      </trkpt>
      <trkpt lat="37.264048" lon="-5.540279">
        <ele>117.062</ele>
        <time>2021-10-12T08:56:16Z</time>
      </trkpt>
      <trkpt lat="37.264120" lon="-5.540402">
        <ele>117.413</ele>
        <time>2021-10-12T08:56:17Z</time>
      </trkpt>
      <trkpt lat="37.264186" lon="-5.540519">
        <ele>117.951</ele>
        <time>2021-10-12T08:56:18Z</time>
      </trkpt>
      <trkpt lat="37.264304" lon="-5.540731">
        <ele>118.301</ele>
        <time>2021-10-12T08:56:20Z</time>
      </trkpt>
      <trkpt lat="37.264418" lon="-5.540930">
        <ele>117.711</ele>
        <time>2021-10-12T08:56:22Z</time>
      </trkpt>
      <trkpt lat="37.264512" lon="-5.541102">
        <ele>117.008</ele>
        <time>2021-10-12T08:56:24Z</time>
      </trkpt>
      <trkpt lat="37.264595" lon="-5.541249">
        <ele>117.043</ele>
        <time>2021-10-12T08:56:26Z</time>
      </trkpt>
      <trkpt lat="37.264699" lon="-5.541425">
        <ele>117.171</ele>
        <time>2021-10-12T08:56:28Z</time>
      </trkpt>
      <trkpt lat="37.264820" lon="-5.541643">
        <ele>117.617</ele>
        <time>2021-10-12T08:56:30Z</time>
      </trkpt>
      <trkpt lat="37.264885" lon="-5.541764">
        <ele>117.650</ele>
        <time>2021-10-12T08:56:31Z</time>
      </trkpt>
      <trkpt lat="37.264951" lon="-5.541887">
        <ele>117.816</ele>
        <time>2021-10-12T08:56:32Z</time>
      </trkpt>
      <trkpt lat="37.265098" lon="-5.542123">
        <ele>118.245</ele>
        <time>2021-10-12T08:56:34Z</time>
      </trkpt>
      <trkpt lat="37.265179" lon="-5.542233">
        <ele>118.735</ele>
        <time>2021-10-12T08:56:35Z</time>
      </trkpt>
      <trkpt lat="37.265262" lon="-5.542338">
        <ele>119.026</ele>
        <time>2021-10-12T08:56:36Z</time>
      </trkpt>
      <trkpt lat="37.265416" lon="-5.542568">
        <ele>119.442</ele>
        <time>2021-10-12T08:56:38Z</time>
      </trkpt>
      <trkpt lat="37.265564" lon="-5.542803">
        <ele>118.922</ele>
        <time>2021-10-12T08:56:40Z</time>
      </trkpt>
      <trkpt lat="37.265641" lon="-5.542923">
        <ele>118.814</ele>
        <time>2021-10-12T08:56:41Z</time>
      </trkpt>
      <trkpt lat="37.265717" lon="-5.543044">
        <ele>118.608</ele>
        <time>2021-10-12T08:56:42Z</time>
      </trkpt>
      <trkpt lat="37.265864" lon="-5.543279">
        <ele>116.622</ele>
        <time>2021-10-12T08:56:44Z</time>
      </trkpt>
      <trkpt lat="37.266013" lon="-5.543511">
        <ele>114.580</ele>
        <time>2021-10-12T08:56:46Z</time>
      </trkpt>
      <trkpt lat="37.266084" lon="-5.543623">
        <ele>113.836</ele>
        <time>2021-10-12T08:56:47Z</time>
      </trkpt>
      <trkpt lat="37.266157" lon="-5.543729">
        <ele>113.629</ele>
        <time>2021-10-12T08:56:48Z</time>
      </trkpt>
      <trkpt lat="37.266230" lon="-5.543837">
        <ele>113.675</ele>
        <time>2021-10-12T08:56:49Z</time>
      </trkpt>
      <trkpt lat="37.266306" lon="-5.543954">
        <ele>113.794</ele>
        <time>2021-10-12T08:56:50Z</time>
      </trkpt>
      <trkpt lat="37.266456" lon="-5.544202">
        <ele>113.374</ele>
        <time>2021-10-12T08:56:52Z</time>
      </trkpt>
      <trkpt lat="37.266600" lon="-5.544459">
        <ele>112.795</ele>
        <time>2021-10-12T08:56:54Z</time>
      </trkpt>
      <trkpt lat="37.266671" lon="-5.544581">
        <ele>112.594</ele>
        <time>2021-10-12T08:56:55Z</time>
      </trkpt>
      <trkpt lat="37.266809" lon="-5.544809">
        <ele>112.457</ele>
        <time>2021-10-12T08:56:57Z</time>
      </trkpt>
      <trkpt lat="37.266935" lon="-5.545018">
        <ele>111.722</ele>
        <time>2021-10-12T08:56:59Z</time>
      </trkpt>
      <trkpt lat="37.266996" lon="-5.545110">
        <ele>110.708</ele>
        <time>2021-10-12T08:57:00Z</time>
      </trkpt>
      <trkpt lat="37.267116" lon="-5.545273">
        <ele>108.777</ele>
        <time>2021-10-12T08:57:02Z</time>
      </trkpt>
      <trkpt lat="37.267243" lon="-5.545408">
        <ele>106.285</ele>
        <time>2021-10-12T08:57:04Z</time>
      </trkpt>
      <trkpt lat="37.267322" lon="-5.545470">
        <ele>105.041</ele>
        <time>2021-10-12T08:57:05Z</time>
      </trkpt>
      <trkpt lat="37.267415" lon="-5.545527">
        <ele>104.264</ele>
        <time>2021-10-12T08:57:06Z</time>
      </trkpt>
      <trkpt lat="37.267518" lon="-5.545581">
        <ele>103.960</ele>
        <time>2021-10-12T08:57:07Z</time>
      </trkpt>
      <trkpt lat="37.267630" lon="-5.545633">
        <ele>103.469</ele>
        <time>2021-10-12T08:57:08Z</time>
      </trkpt>
      <trkpt lat="37.267866" lon="-5.545734">
        <ele>102.039</ele>
        <time>2021-10-12T08:57:10Z</time>
      </trkpt>
      <trkpt lat="37.267989" lon="-5.545787">
        <ele>101.490</ele>
        <time>2021-10-12T08:57:11Z</time>
      </trkpt>
      <trkpt lat="37.268232" lon="-5.545891">
        <ele>100.261</ele>
        <time>2021-10-12T08:57:13Z</time>
      </trkpt>
      <trkpt lat="37.268350" lon="-5.545943">
        <ele>99.521</ele>
        <time>2021-10-12T08:57:14Z</time>
      </trkpt>
      <trkpt lat="37.268577" lon="-5.546048">
        <ele>97.013</ele>
        <time>2021-10-12T08:57:16Z</time>
      </trkpt>
      <trkpt lat="37.268694" lon="-5.546095">
        <ele>96.408</ele>
        <time>2021-10-12T08:57:17Z</time>
      </trkpt>
      <trkpt lat="37.268926" lon="-5.546175">
        <ele>96.894</ele>
        <time>2021-10-12T08:57:19Z</time>
      </trkpt>
      <trkpt lat="37.269048" lon="-5.546206">
        <ele>96.952</ele>
        <time>2021-10-12T08:57:20Z</time>
      </trkpt>
      <trkpt lat="37.269287" lon="-5.546268">
        <ele>97.028</ele>
        <time>2021-10-12T08:57:22Z</time>
      </trkpt>
      <trkpt lat="37.269533" lon="-5.546331">
        <ele>96.791</ele>
        <time>2021-10-12T08:57:24Z</time>
      </trkpt>
      <trkpt lat="37.269733" lon="-5.546379">
        <ele>96.017</ele>
        <time>2021-10-12T08:57:26Z</time>
      </trkpt>
      <trkpt lat="37.269878" lon="-5.546410">
        <ele>95.416</ele>
        <time>2021-10-12T08:57:28Z</time>
      </trkpt>
      <trkpt lat="37.270054" lon="-5.546447">
        <ele>94.756</ele>
        <time>2021-10-12T08:57:30Z</time>
      </trkpt>
      <trkpt lat="37.270277" lon="-5.546503">
        <ele>94.437</ele>
        <time>2021-10-12T08:57:32Z</time>
      </trkpt>
      <trkpt lat="37.270536" lon="-5.546576">
        <ele>95.636</ele>
        <time>2021-10-12T08:57:34Z</time>
      </trkpt>
      <trkpt lat="37.270679" lon="-5.546614">
        <ele>96.317</ele>
        <time>2021-10-12T08:57:35Z</time>
      </trkpt>
      <trkpt lat="37.270989" lon="-5.546684">
        <ele>97.518</ele>
        <time>2021-10-12T08:57:37Z</time>
      </trkpt>
      <trkpt lat="37.271158" lon="-5.546728">
        <ele>98.408</ele>
        <time>2021-10-12T08:57:38Z</time>
      </trkpt>
      <trkpt lat="37.271492" lon="-5.546825">
        <ele>101.311</ele>
        <time>2021-10-12T08:57:40Z</time>
      </trkpt>
      <trkpt lat="37.271830" lon="-5.546969">
        <ele>104.389</ele>
        <time>2021-10-12T08:57:42Z</time>
      </trkpt>
      <trkpt lat="37.272002" lon="-5.547065">
        <ele>105.815</ele>
        <time>2021-10-12T08:57:43Z</time>
      </trkpt>
      <trkpt lat="37.272174" lon="-5.547180">
        <ele>106.258</ele>
        <time>2021-10-12T08:57:44Z</time>
      </trkpt>
      <trkpt lat="37.272494" lon="-5.547468">
        <ele>108.154</ele>
        <time>2021-10-12T08:57:46Z</time>
      </trkpt>
      <trkpt lat="37.272646" lon="-5.547646">
        <ele>110.113</ele>
        <time>2021-10-12T08:57:47Z</time>
      </trkpt>
      <trkpt lat="37.272954" lon="-5.548003">
        <ele>112.863</ele>
        <time>2021-10-12T08:57:49Z</time>
      </trkpt>
      <trkpt lat="37.273110" lon="-5.548164">
        <ele>112.974</ele>
        <time>2021-10-12T08:57:50Z</time>
      </trkpt>
      <trkpt lat="37.273410" lon="-5.548465">
        <ele>112.185</ele>
        <time>2021-10-12T08:57:52Z</time>
      </trkpt>
      <trkpt lat="37.273565" lon="-5.548629">
        <ele>112.689</ele>
        <time>2021-10-12T08:57:53Z</time>
      </trkpt>
      <trkpt lat="37.273721" lon="-5.548803">
        <ele>113.217</ele>
        <time>2021-10-12T08:57:54Z</time>
      </trkpt>
      <trkpt lat="37.274027" lon="-5.549181">
        <ele>111.908</ele>
        <time>2021-10-12T08:57:56Z</time>
      </trkpt>
      <trkpt lat="37.274300" lon="-5.549542">
        <ele>112.546</ele>
        <time>2021-10-12T08:57:58Z</time>
      </trkpt>
      <trkpt lat="37.274449" lon="-5.549730">
        <ele>113.064</ele>
        <time>2021-10-12T08:57:59Z</time>
      </trkpt>
      <trkpt lat="37.274606" lon="-5.549914">
        <ele>113.920</ele>
        <time>2021-10-12T08:58:00Z</time>
      </trkpt>
      <trkpt lat="37.274767" lon="-5.550098">
        <ele>113.233</ele>
        <time>2021-10-12T08:58:01Z</time>
      </trkpt>
      <trkpt lat="37.275091" lon="-5.550475">
        <ele>111.149</ele>
        <time>2021-10-12T08:58:03Z</time>
      </trkpt>
      <trkpt lat="37.275418" lon="-5.550858">
        <ele>109.278</ele>
        <time>2021-10-12T08:58:05Z</time>
      </trkpt>
      <trkpt lat="37.275770" lon="-5.551221">
        <ele>105.478</ele>
        <time>2021-10-12T08:58:07Z</time>
      </trkpt>
      <trkpt lat="37.275964" lon="-5.551391">
        <ele>103.069</ele>
        <time>2021-10-12T08:58:08Z</time>
      </trkpt>
      <trkpt lat="37.276366" lon="-5.551689">
        <ele>100.851</ele>
        <time>2021-10-12T08:58:10Z</time>
      </trkpt>
      <trkpt lat="37.276570" lon="-5.551839">
        <ele>98.501</ele>
        <time>2021-10-12T08:58:11Z</time>
      </trkpt>
      <trkpt lat="37.276968" lon="-5.552156">
        <ele>93.211</ele>
        <time>2021-10-12T08:58:13Z</time>
      </trkpt>
      <trkpt lat="37.277158" lon="-5.552340">
        <ele>92.608</ele>
        <time>2021-10-12T08:58:14Z</time>
      </trkpt>
      <trkpt lat="37.277491" lon="-5.552738">
        <ele>93.873</ele>
        <time>2021-10-12T08:58:16Z</time>
      </trkpt>
      <trkpt lat="37.277649" lon="-5.552950">
        <ele>95.131</ele>
        <time>2021-10-12T08:58:17Z</time>
      </trkpt>
      <trkpt lat="37.277801" lon="-5.553151">
        <ele>96.487</ele>
        <time>2021-10-12T08:58:18Z</time>
      </trkpt>
      <trkpt lat="37.278117" lon="-5.553518">
        <ele>98.970</ele>
        <time>2021-10-12T08:58:20Z</time>
      </trkpt>
      <trkpt lat="37.278460" lon="-5.553827">
        <ele>100.076</ele>
        <time>2021-10-12T08:58:22Z</time>
      </trkpt>
      <trkpt lat="37.278637" lon="-5.553991">
        <ele>98.745</ele>
        <time>2021-10-12T08:58:23Z</time>
      </trkpt>
      <trkpt lat="37.278997" lon="-5.554325">
        <ele>94.325</ele>
        <time>2021-10-12T08:58:25Z</time>
      </trkpt>
      <trkpt lat="37.279196" lon="-5.554485">
        <ele>91.576</ele>
        <time>2021-10-12T08:58:26Z</time>
      </trkpt>
      <trkpt lat="37.279617" lon="-5.554706">
        <ele>86.274</ele>
        <time>2021-10-12T08:58:28Z</time>
      </trkpt>
      <trkpt lat="37.279841" lon="-5.554804">
        <ele>83.456</ele>
        <time>2021-10-12T08:58:29Z</time>
      </trkpt>
      <trkpt lat="37.280063" lon="-5.554905">
        <ele>82.021</ele>
        <time>2021-10-12T08:58:30Z</time>
      </trkpt>
      <trkpt lat="37.280505" lon="-5.555117">
        <ele>82.508</ele>
        <time>2021-10-12T08:58:32Z</time>
      </trkpt>
      <trkpt lat="37.280723" lon="-5.555225">
        <ele>82.215</ele>
        <time>2021-10-12T08:58:33Z</time>
      </trkpt>
      <trkpt lat="37.281159" lon="-5.555449">
        <ele>80.893</ele>
        <time>2021-10-12T08:58:35Z</time>
      </trkpt>
      <trkpt lat="37.281376" lon="-5.555559">
        <ele>80.139</ele>
        <time>2021-10-12T08:58:36Z</time>
      </trkpt>
      <trkpt lat="37.281818" lon="-5.555777">
        <ele>80.842</ele>
        <time>2021-10-12T08:58:38Z</time>
      </trkpt>
      <trkpt lat="37.282247" lon="-5.555995">
        <ele>81.958</ele>
        <time>2021-10-12T08:58:40Z</time>
      </trkpt>
      <trkpt lat="37.282466" lon="-5.556107">
        <ele>81.197</ele>
        <time>2021-10-12T08:58:41Z</time>
      </trkpt>
      <trkpt lat="37.282677" lon="-5.556215">
        <ele>80.677</ele>
        <time>2021-10-12T08:58:42Z</time>
      </trkpt>
      <trkpt lat="37.283066" lon="-5.556402">
        <ele>82.138</ele>
        <time>2021-10-12T08:58:44Z</time>
      </trkpt>
      <trkpt lat="37.283456" lon="-5.556524">
        <ele>84.094</ele>
        <time>2021-10-12T08:58:46Z</time>
      </trkpt>
      <trkpt lat="37.283662" lon="-5.556545">
        <ele>83.657</ele>
        <time>2021-10-12T08:58:47Z</time>
      </trkpt>
      <trkpt lat="37.283876" lon="-5.556549">
        <ele>82.122</ele>
        <time>2021-10-12T08:58:48Z</time>
      </trkpt>
      <trkpt lat="37.284315" lon="-5.556559">
        <ele>79.108</ele>
        <time>2021-10-12T08:58:50Z</time>
      </trkpt>
      <trkpt lat="37.284757" lon="-5.556573">
        <ele>78.227</ele>
        <time>2021-10-12T08:58:52Z</time>
      </trkpt>
      <trkpt lat="37.285217" lon="-5.556591">
        <ele>77.285</ele>
        <time>2021-10-12T08:58:54Z</time>
      </trkpt>
      <trkpt lat="37.285452" lon="-5.556602">
        <ele>77.071</ele>
        <time>2021-10-12T08:58:55Z</time>
      </trkpt>
      <trkpt lat="37.285697" lon="-5.556608">
        <ele>77.464</ele>
        <time>2021-10-12T08:58:56Z</time>
      </trkpt>
      <trkpt lat="37.286172" lon="-5.556619">
        <ele>78.050</ele>
        <time>2021-10-12T08:58:58Z</time>
      </trkpt>
      <trkpt lat="37.286418" lon="-5.556629">
        <ele>77.899</ele>
        <time>2021-10-12T08:58:59Z</time>
      </trkpt>
      <trkpt lat="37.286907" lon="-5.556670">
        <ele>75.139</ele>
        <time>2021-10-12T08:59:01Z</time>
      </trkpt>
      <trkpt lat="37.287151" lon="-5.556720">
        <ele>75.890</ele>
        <time>2021-10-12T08:59:02Z</time>
      </trkpt>
      <trkpt lat="37.287391" lon="-5.556797">
        <ele>75.757</ele>
        <time>2021-10-12T08:59:03Z</time>
      </trkpt>
      <trkpt lat="37.287865" lon="-5.556989">
        <ele>75.100</ele>
        <time>2021-10-12T08:59:05Z</time>
      </trkpt>
      <trkpt lat="37.288341" lon="-5.557171">
        <ele>75.020</ele>
        <time>2021-10-12T08:59:07Z</time>
      </trkpt>
      <trkpt lat="37.288584" lon="-5.557262">
        <ele>74.108</ele>
        <time>2021-10-12T08:59:08Z</time>
      </trkpt>
      <trkpt lat="37.289054" lon="-5.557438">
        <ele>74.913</ele>
        <time>2021-10-12T08:59:10Z</time>
      </trkpt>
      <trkpt lat="37.289293" lon="-5.557527">
        <ele>74.581</ele>
        <time>2021-10-12T08:59:11Z</time>
      </trkpt>
      <trkpt lat="37.289530" lon="-5.557616">
        <ele>74.277</ele>
        <time>2021-10-12T08:59:12Z</time>
      </trkpt>
      <trkpt lat="37.290011" lon="-5.557794">
        <ele>74.950</ele>
        <time>2021-10-12T08:59:14Z</time>
      </trkpt>
      <trkpt lat="37.290481" lon="-5.557968">
        <ele>74.346</ele>
        <time>2021-10-12T08:59:16Z</time>
      </trkpt>
      <trkpt lat="37.290721" lon="-5.558058">
        <ele>73.475</ele>
        <time>2021-10-12T08:59:17Z</time>
      </trkpt>
      <trkpt lat="37.291202" lon="-5.558239">
        <ele>73.775</ele>
        <time>2021-10-12T08:59:19Z</time>
      </trkpt>
      <trkpt lat="37.291448" lon="-5.558330">
        <ele>74.466</ele>
        <time>2021-10-12T08:59:20Z</time>
      </trkpt>
      <trkpt lat="37.291929" lon="-5.558507">
        <ele>76.424</ele>
        <time>2021-10-12T08:59:22Z</time>
      </trkpt>
      <trkpt lat="37.292165" lon="-5.558587">
        <ele>76.204</ele>
        <time>2021-10-12T08:59:23Z</time>
      </trkpt>
      <trkpt lat="37.292402" lon="-5.558655">
        <ele>75.714</ele>
        <time>2021-10-12T08:59:24Z</time>
      </trkpt>
      <trkpt lat="37.292882" lon="-5.558706">
        <ele>76.008</ele>
        <time>2021-10-12T08:59:26Z</time>
      </trkpt>
      <trkpt lat="37.293347" lon="-5.558709">
        <ele>77.660</ele>
        <time>2021-10-12T08:59:28Z</time>
      </trkpt>
      <trkpt lat="37.293588" lon="-5.558715">
        <ele>76.718</ele>
        <time>2021-10-12T08:59:29Z</time>
      </trkpt>
      <trkpt lat="37.294055" lon="-5.558738">
        <ele>74.994</ele>
        <time>2021-10-12T08:59:31Z</time>
      </trkpt>
      <trkpt lat="37.294295" lon="-5.558752">
        <ele>74.347</ele>
        <time>2021-10-12T08:59:32Z</time>
      </trkpt>
      <trkpt lat="37.294753" lon="-5.558781">
        <ele>74.383</ele>
        <time>2021-10-12T08:59:34Z</time>
      </trkpt>
      <trkpt lat="37.294989" lon="-5.558796">
        <ele>74.072</ele>
        <time>2021-10-12T08:59:35Z</time>
      </trkpt>
      <trkpt lat="37.295224" lon="-5.558815">
        <ele>73.892</ele>
        <time>2021-10-12T08:59:36Z</time>
      </trkpt>
      <trkpt lat="37.295697" lon="-5.558844">
        <ele>75.323</ele>
        <time>2021-10-12T08:59:38Z</time>
      </trkpt>
      <trkpt lat="37.296162" lon="-5.558899">
        <ele>74.643</ele>
        <time>2021-10-12T08:59:40Z</time>
      </trkpt>
      <trkpt lat="37.296395" lon="-5.558963">
        <ele>72.764</ele>
        <time>2021-10-12T08:59:41Z</time>
      </trkpt>
      <trkpt lat="37.296869" lon="-5.559115">
        <ele>71.710</ele>
        <time>2021-10-12T08:59:43Z</time>
      </trkpt>
      <trkpt lat="37.297121" lon="-5.559194">
        <ele>72.608</ele>
        <time>2021-10-12T08:59:44Z</time>
      </trkpt>
      <trkpt lat="37.297621" lon="-5.559350">
        <ele>73.752</ele>
        <time>2021-10-12T08:59:46Z</time>
      </trkpt>
      <trkpt lat="37.297885" lon="-5.559431">
        <ele>74.090</ele>
        <time>2021-10-12T08:59:47Z</time>
      </trkpt>
      <trkpt lat="37.298408" lon="-5.559592">
        <ele>74.326</ele>
        <time>2021-10-12T08:59:49Z</time>
      </trkpt>
      <trkpt lat="37.298676" lon="-5.559686">
        <ele>74.049</ele>
        <time>2021-10-12T08:59:50Z</time>
      </trkpt>
      <trkpt lat="37.299147" lon="-5.559941">
        <ele>74.095</ele>
        <time>2021-10-12T08:59:52Z</time>
      </trkpt>
      <trkpt lat="37.299360" lon="-5.560110">
        <ele>73.254</ele>
        <time>2021-10-12T08:59:53Z</time>
      </trkpt>
      <trkpt lat="37.299783" lon="-5.560452">
        <ele>74.284</ele>
        <time>2021-10-12T08:59:55Z</time>
      </trkpt>
      <trkpt lat="37.300003" lon="-5.560622">
        <ele>75.045</ele>
        <time>2021-10-12T08:59:56Z</time>
      </trkpt>
      <trkpt lat="37.300429" lon="-5.560936">
        <ele>76.767</ele>
        <time>2021-10-12T08:59:58Z</time>
      </trkpt>
      <trkpt lat="37.300862" lon="-5.561269">
        <ele>77.781</ele>
        <time>2021-10-12T09:00:00Z</time>
      </trkpt>
      <trkpt lat="37.301076" lon="-5.561435">
        <ele>78.919</ele>
        <time>2021-10-12T09:00:01Z</time>
      </trkpt>
      <trkpt lat="37.301292" lon="-5.561599">
        <ele>78.808</ele>
        <time>2021-10-12T09:00:02Z</time>
      </trkpt>
      <trkpt lat="37.301723" lon="-5.561918">
        <ele>78.984</ele>
        <time>2021-10-12T09:00:04Z</time>
      </trkpt>
      <trkpt lat="37.301939" lon="-5.562078">
        <ele>79.012</ele>
        <time>2021-10-12T09:00:05Z</time>
      </trkpt>
      <trkpt lat="37.302371" lon="-5.562400">
        <ele>79.638</ele>
        <time>2021-10-12T09:00:07Z</time>
      </trkpt>
      <trkpt lat="37.302594" lon="-5.562567">
        <ele>80.581</ele>
        <time>2021-10-12T09:00:08Z</time>
      </trkpt>
      <trkpt lat="37.303017" lon="-5.562891">
        <ele>81.927</ele>
        <time>2021-10-12T09:00:10Z</time>
      </trkpt>
      <trkpt lat="37.303223" lon="-5.563043">
        <ele>83.216</ele>
        <time>2021-10-12T09:00:11Z</time>
      </trkpt>
      <trkpt lat="37.303589" lon="-5.563317">
        <ele>84.926</ele>
        <time>2021-10-12T09:00:13Z</time>
      </trkpt>
      <trkpt lat="37.303757" lon="-5.563440">
        <ele>85.447</ele>
        <time>2021-10-12T09:00:14Z</time>
      </trkpt>
      <trkpt lat="37.304002" lon="-5.563640">
        <ele>86.585</ele>
        <time>2021-10-12T09:00:16Z</time>
      </trkpt>
      <trkpt lat="37.304086" lon="-5.563740">
        <ele>87.289</ele>
        <time>2021-10-12T09:00:17Z</time>
      </trkpt>
      <trkpt lat="37.304160" lon="-5.563989">
        <ele>88.317</ele>
        <time>2021-10-12T09:00:19Z</time>
      </trkpt>
      <trkpt lat="37.304152" lon="-5.564147">
        <ele>88.808</ele>
        <time>2021-10-12T09:00:20Z</time>
      </trkpt>
      <trkpt lat="37.304064" lon="-5.564515">
        <ele>88.516</ele>
        <time>2021-10-12T09:00:22Z</time>
      </trkpt>
      <trkpt lat="37.304028" lon="-5.564726">
        <ele>87.024</ele>
        <time>2021-10-12T09:00:23Z</time>
      </trkpt>
      <trkpt lat="37.304051" lon="-5.565179">
        <ele>84.190</ele>
        <time>2021-10-12T09:00:25Z</time>
      </trkpt>
      <trkpt lat="37.304107" lon="-5.565414">
        <ele>83.393</ele>
        <time>2021-10-12T09:00:26Z</time>
      </trkpt>
      <trkpt lat="37.304236" lon="-5.565832">
        <ele>83.079</ele>
        <time>2021-10-12T09:00:28Z</time>
      </trkpt>
      <trkpt lat="37.304314" lon="-5.566003">
        <ele>82.158</ele>
        <time>2021-10-12T09:00:29Z</time>
      </trkpt>
      <trkpt lat="37.304550" lon="-5.566251">
        <ele>80.598</ele>
        <time>2021-10-12T09:00:31Z</time>
      </trkpt>
      <trkpt lat="37.304711" lon="-5.566321">
        <ele>79.799</ele>
        <time>2021-10-12T09:00:32Z</time>
      </trkpt>
      <trkpt lat="37.305080" lon="-5.566380">
        <ele>80.119</ele>
        <time>2021-10-12T09:00:34Z</time>
      </trkpt>
      <trkpt lat="37.305275" lon="-5.566404">
        <ele>79.909</ele>
        <time>2021-10-12T09:00:35Z</time>
      </trkpt>
      <trkpt lat="37.305684" lon="-5.566383">
        <ele>80.019</ele>
        <time>2021-10-12T09:00:37Z</time>
      </trkpt>
      <trkpt lat="37.305898" lon="-5.566322">
        <ele>79.708</ele>
        <time>2021-10-12T09:00:38Z</time>
      </trkpt>
      <trkpt lat="37.306328" lon="-5.566163">
        <ele>75.739</ele>
        <time>2021-10-12T09:00:40Z</time>
      </trkpt>
      <trkpt lat="37.306557" lon="-5.566088">
        <ele>73.747</ele>
        <time>2021-10-12T09:00:41Z</time>
      </trkpt>
      <trkpt lat="37.306784" lon="-5.566014">
        <ele>72.893</ele>
        <time>2021-10-12T09:00:42Z</time>
      </trkpt>
      <trkpt lat="37.307250" lon="-5.565860">
        <ele>73.786</ele>
        <time>2021-10-12T09:00:44Z</time>
      </trkpt>
      <trkpt lat="37.307710" lon="-5.565705">
        <ele>73.172</ele>
        <time>2021-10-12T09:00:46Z</time>
      </trkpt>
      <trkpt lat="37.307948" lon="-5.565626">
        <ele>72.481</ele>
        <time>2021-10-12T09:00:47Z</time>
      </trkpt>
      <trkpt lat="37.308187" lon="-5.565546">
        <ele>71.581</ele>
        <time>2021-10-12T09:00:48Z</time>
      </trkpt>
      <trkpt lat="37.308425" lon="-5.565467">
        <ele>71.242</ele>
        <time>2021-10-12T09:00:49Z</time>
      </trkpt>
      <trkpt lat="37.308665" lon="-5.565384">
        <ele>71.353</ele>
        <time>2021-10-12T09:00:50Z</time>
      </trkpt>
      <trkpt lat="37.309118" lon="-5.565235">
        <ele>71.004</ele>
        <time>2021-10-12T09:00:52Z</time>
      </trkpt>
      <trkpt lat="37.309332" lon="-5.565161">
        <ele>71.214</ele>
        <time>2021-10-12T09:00:53Z</time>
      </trkpt>
      <trkpt lat="37.309538" lon="-5.565101">
        <ele>71.808</ele>
        <time>2021-10-12T09:00:54Z</time>
      </trkpt>
      <trkpt lat="37.309931" lon="-5.565096">
        <ele>72.833</ele>
        <time>2021-10-12T09:00:56Z</time>
      </trkpt>
      <trkpt lat="37.310281" lon="-5.565229">
        <ele>75.081</ele>
        <time>2021-10-12T09:00:58Z</time>
      </trkpt>
      <trkpt lat="37.310631" lon="-5.565368">
        <ele>76.047</ele>
        <time>2021-10-12T09:01:00Z</time>
      </trkpt>
      <trkpt lat="37.310974" lon="-5.565498">
        <ele>75.120</ele>
        <time>2021-10-12T09:01:02Z</time>
      </trkpt>
      <trkpt lat="37.311157" lon="-5.565563">
        <ele>73.546</ele>
        <time>2021-10-12T09:01:03Z</time>
      </trkpt>
      <trkpt lat="37.311346" lon="-5.565630">
        <ele>71.265</ele>
        <time>2021-10-12T09:01:04Z</time>
      </trkpt>
      <trkpt lat="37.311546" lon="-5.565699">
        <ele>69.495</ele>
        <time>2021-10-12T09:01:05Z</time>
      </trkpt>
      <trkpt lat="37.311972" lon="-5.565847">
        <ele>68.816</ele>
        <time>2021-10-12T09:01:07Z</time>
      </trkpt>
      <trkpt lat="37.312207" lon="-5.565938">
        <ele>67.185</ele>
        <time>2021-10-12T09:01:08Z</time>
      </trkpt>
      <trkpt lat="37.312679" lon="-5.566128">
        <ele>66.789</ele>
        <time>2021-10-12T09:01:10Z</time>
      </trkpt>
      <trkpt lat="37.312918" lon="-5.566225">
        <ele>67.617</ele>
        <time>2021-10-12T09:01:11Z</time>
      </trkpt>
      <trkpt lat="37.313392" lon="-5.566425">
        <ele>65.808</ele>
        <time>2021-10-12T09:01:13Z</time>
      </trkpt>
      <trkpt lat="37.313630" lon="-5.566524">
        <ele>65.156</ele>
        <time>2021-10-12T09:01:14Z</time>
      </trkpt>
      <trkpt lat="37.314086" lon="-5.566697">
        <ele>66.844</ele>
        <time>2021-10-12T09:01:16Z</time>
      </trkpt>
      <trkpt lat="37.314312" lon="-5.566780">
        <ele>67.280</ele>
        <time>2021-10-12T09:01:17Z</time>
      </trkpt>
      <trkpt lat="37.314759" lon="-5.566951">
        <ele>65.883</ele>
        <time>2021-10-12T09:01:19Z</time>
      </trkpt>
      <trkpt lat="37.314983" lon="-5.567030">
        <ele>65.089</ele>
        <time>2021-10-12T09:01:20Z</time>
      </trkpt>
      <trkpt lat="37.315424" lon="-5.567103">
        <ele>65.638</ele>
        <time>2021-10-12T09:01:22Z</time>
      </trkpt>
      <trkpt lat="37.315645" lon="-5.567091">
        <ele>66.558</ele>
        <time>2021-10-12T09:01:23Z</time>
      </trkpt>
      <trkpt lat="37.315864" lon="-5.567055">
        <ele>66.229</ele>
        <time>2021-10-12T09:01:24Z</time>
      </trkpt>
      <trkpt lat="37.316080" lon="-5.567019">
        <ele>65.126</ele>
        <time>2021-10-12T09:01:25Z</time>
      </trkpt>
      <trkpt lat="37.316513" lon="-5.566989">
        <ele>64.847</ele>
        <time>2021-10-12T09:01:27Z</time>
      </trkpt>
      <trkpt lat="37.316730" lon="-5.567014">
        <ele>64.611</ele>
        <time>2021-10-12T09:01:28Z</time>
      </trkpt>
      <trkpt lat="37.317158" lon="-5.567145">
        <ele>64.408</ele>
        <time>2021-10-12T09:01:30Z</time>
      </trkpt>
      <trkpt lat="37.317372" lon="-5.567228">
        <ele>65.160</ele>
        <time>2021-10-12T09:01:31Z</time>
      </trkpt>
      <trkpt lat="37.317587" lon="-5.567309">
        <ele>66.088</ele>
        <time>2021-10-12T09:01:32Z</time>
      </trkpt>
      <trkpt lat="37.318019" lon="-5.567468">
        <ele>66.974</ele>
        <time>2021-10-12T09:01:34Z</time>
      </trkpt>
      <trkpt lat="37.318452" lon="-5.567631">
        <ele>67.737</ele>
        <time>2021-10-12T09:01:36Z</time>
      </trkpt>
      <trkpt lat="37.318671" lon="-5.567722">
        <ele>67.863</ele>
        <time>2021-10-12T09:01:37Z</time>
      </trkpt>
      <trkpt lat="37.318892" lon="-5.567835">
        <ele>66.632</ele>
        <time>2021-10-12T09:01:38Z</time>
      </trkpt>
      <trkpt lat="37.319317" lon="-5.568070">
        <ele>65.582</ele>
        <time>2021-10-12T09:01:40Z</time>
      </trkpt>
      <trkpt lat="37.319533" lon="-5.568202">
        <ele>65.813</ele>
        <time>2021-10-12T09:01:41Z</time>
      </trkpt>
      <trkpt lat="37.319963" lon="-5.568459">
        <ele>65.596</ele>
        <time>2021-10-12T09:01:43Z</time>
      </trkpt>
      <trkpt lat="37.320182" lon="-5.568584">
        <ele>65.831</ele>
        <time>2021-10-12T09:01:44Z</time>
      </trkpt>
      <trkpt lat="37.320613" lon="-5.568830">
        <ele>68.024</ele>
        <time>2021-10-12T09:01:46Z</time>
      </trkpt>
      <trkpt lat="37.320833" lon="-5.568955">
        <ele>67.808</ele>
        <time>2021-10-12T09:01:47Z</time>
      </trkpt>
      <trkpt lat="37.321056" lon="-5.569083">
        <ele>67.137</ele>
        <time>2021-10-12T09:01:48Z</time>
      </trkpt>
      <trkpt lat="37.321500" lon="-5.569344">
        <ele>66.165</ele>
        <time>2021-10-12T09:01:50Z</time>
      </trkpt>
      <trkpt lat="37.321939" lon="-5.569597">
        <ele>66.091</ele>
        <time>2021-10-12T09:01:52Z</time>
      </trkpt>
      <trkpt lat="37.322382" lon="-5.569852">
        <ele>65.874</ele>
        <time>2021-10-12T09:01:54Z</time>
      </trkpt>
      <trkpt lat="37.322604" lon="-5.569980">
        <ele>66.080</ele>
        <time>2021-10-12T09:01:55Z</time>
      </trkpt>
      <trkpt lat="37.322831" lon="-5.570112">
        <ele>65.639</ele>
        <time>2021-10-12T09:01:56Z</time>
      </trkpt>
      <trkpt lat="37.323274" lon="-5.570366">
        <ele>64.729</ele>
        <time>2021-10-12T09:01:58Z</time>
      </trkpt>
      <trkpt lat="37.323504" lon="-5.570497">
        <ele>64.730</ele>
        <time>2021-10-12T09:01:59Z</time>
      </trkpt>
      <trkpt lat="37.323733" lon="-5.570629">
        <ele>65.314</ele>
        <time>2021-10-12T09:02:00Z</time>
      </trkpt>
      <trkpt lat="37.324194" lon="-5.570898">
        <ele>66.054</ele>
        <time>2021-10-12T09:02:02Z</time>
      </trkpt>
      <trkpt lat="37.324428" lon="-5.571032">
        <ele>66.009</ele>
        <time>2021-10-12T09:02:03Z</time>
      </trkpt>
      <trkpt lat="37.324898" lon="-5.571303">
        <ele>65.008</ele>
        <time>2021-10-12T09:02:05Z</time>
      </trkpt>
      <trkpt lat="37.325131" lon="-5.571443">
        <ele>64.829</ele>
        <time>2021-10-12T09:02:06Z</time>
      </trkpt>
      <trkpt lat="37.325600" lon="-5.571728">
        <ele>63.817</ele>
        <time>2021-10-12T09:02:08Z</time>
      </trkpt>
      <trkpt lat="37.326064" lon="-5.571995">
        <ele>63.673</ele>
        <time>2021-10-12T09:02:10Z</time>
      </trkpt>
      <trkpt lat="37.326533" lon="-5.572263">
        <ele>64.046</ele>
        <time>2021-10-12T09:02:12Z</time>
      </trkpt>
      <trkpt lat="37.326991" lon="-5.572532">
        <ele>62.922</ele>
        <time>2021-10-12T09:02:14Z</time>
      </trkpt>
      <trkpt lat="37.327433" lon="-5.572789">
        <ele>63.881</ele>
        <time>2021-10-12T09:02:16Z</time>
      </trkpt>
      <trkpt lat="37.327658" lon="-5.572917">
        <ele>65.431</ele>
        <time>2021-10-12T09:02:17Z</time>
      </trkpt>
      <trkpt lat="37.328104" lon="-5.573173">
        <ele>68.372</ele>
        <time>2021-10-12T09:02:19Z</time>
      </trkpt>
      <trkpt lat="37.328328" lon="-5.573307">
        <ele>67.152</ele>
        <time>2021-10-12T09:02:20Z</time>
      </trkpt>
      <trkpt lat="37.328764" lon="-5.573558">
        <ele>67.353</ele>
        <time>2021-10-12T09:02:22Z</time>
      </trkpt>
      <trkpt lat="37.328988" lon="-5.573685">
        <ele>67.108</ele>
        <time>2021-10-12T09:02:23Z</time>
      </trkpt>
      <trkpt lat="37.329433" lon="-5.573940">
        <ele>67.608</ele>
        <time>2021-10-12T09:02:25Z</time>
      </trkpt>
      <trkpt lat="37.329660" lon="-5.574071">
        <ele>65.943</ele>
        <time>2021-10-12T09:02:26Z</time>
      </trkpt>
      <trkpt lat="37.330063" lon="-5.574311">
        <ele>65.851</ele>
        <time>2021-10-12T09:02:28Z</time>
      </trkpt>
      <trkpt lat="37.330260" lon="-5.574424">
        <ele>66.137</ele>
        <time>2021-10-12T09:02:29Z</time>
      </trkpt>
      <trkpt lat="37.330459" lon="-5.574544">
        <ele>65.620</ele>
        <time>2021-10-12T09:02:30Z</time>
      </trkpt>
      <trkpt lat="37.330662" lon="-5.574674">
        <ele>65.266</ele>
        <time>2021-10-12T09:02:31Z</time>
      </trkpt>
      <trkpt lat="37.330879" lon="-5.574823">
        <ele>64.985</ele>
        <time>2021-10-12T09:02:32Z</time>
      </trkpt>
      <trkpt lat="37.331340" lon="-5.575165">
        <ele>63.195</ele>
        <time>2021-10-12T09:02:34Z</time>
      </trkpt>
      <trkpt lat="37.331591" lon="-5.575360">
        <ele>63.746</ele>
        <time>2021-10-12T09:02:35Z</time>
      </trkpt>
      <trkpt lat="37.332095" lon="-5.575755">
        <ele>64.342</ele>
        <time>2021-10-12T09:02:37Z</time>
      </trkpt>
      <trkpt lat="37.332350" lon="-5.575947">
        <ele>63.122</ele>
        <time>2021-10-12T09:02:38Z</time>
      </trkpt>
      <trkpt lat="37.332819" lon="-5.576276">
        <ele>61.614</ele>
        <time>2021-10-12T09:02:40Z</time>
      </trkpt>
      <trkpt lat="37.333248" lon="-5.576585">
        <ele>62.208</ele>
        <time>2021-10-12T09:02:42Z</time>
      </trkpt>
      <trkpt lat="37.333460" lon="-5.576717">
        <ele>61.992</ele>
        <time>2021-10-12T09:02:43Z</time>
      </trkpt>
      <trkpt lat="37.333674" lon="-5.576833">
        <ele>61.560</ele>
        <time>2021-10-12T09:02:44Z</time>
      </trkpt>
      <trkpt lat="37.334077" lon="-5.577027">
        <ele>62.586</ele>
        <time>2021-10-12T09:02:46Z</time>
      </trkpt>
      <trkpt lat="37.334485" lon="-5.577171">
        <ele>63.299</ele>
        <time>2021-10-12T09:02:48Z</time>
      </trkpt>
      <trkpt lat="37.334893" lon="-5.577223">
        <ele>63.045</ele>
        <time>2021-10-12T09:02:50Z</time>
      </trkpt>
      <trkpt lat="37.335278" lon="-5.577255">
        <ele>62.134</ele>
        <time>2021-10-12T09:02:52Z</time>
      </trkpt>
      <trkpt lat="37.335653" lon="-5.577302">
        <ele>64.294</ele>
        <time>2021-10-12T09:02:54Z</time>
      </trkpt>
      <trkpt lat="37.335839" lon="-5.577326">
        <ele>64.675</ele>
        <time>2021-10-12T09:02:55Z</time>
      </trkpt>
      <trkpt lat="37.336015" lon="-5.577361">
        <ele>65.268</ele>
        <time>2021-10-12T09:02:56Z</time>
      </trkpt>
      <trkpt lat="37.336348" lon="-5.577510">
        <ele>65.942</ele>
        <time>2021-10-12T09:02:58Z</time>
      </trkpt>
      <trkpt lat="37.336516" lon="-5.577620">
        <ele>66.326</ele>
        <time>2021-10-12T09:02:59Z</time>
      </trkpt>
      <trkpt lat="37.336842" lon="-5.577838">
        <ele>66.608</ele>
        <time>2021-10-12T09:03:01Z</time>
      </trkpt>
      <trkpt lat="37.337003" lon="-5.577941">
        <ele>67.074</ele>
        <time>2021-10-12T09:03:02Z</time>
      </trkpt>
      <trkpt lat="37.337163" lon="-5.578046">
        <ele>67.082</ele>
        <time>2021-10-12T09:03:03Z</time>
      </trkpt>
      <trkpt lat="37.337324" lon="-5.578148">
        <ele>66.728</ele>
        <time>2021-10-12T09:03:04Z</time>
      </trkpt>
      <trkpt lat="37.337653" lon="-5.578347">
        <ele>66.561</ele>
        <time>2021-10-12T09:03:06Z</time>
      </trkpt>
      <trkpt lat="37.337823" lon="-5.578446">
        <ele>66.947</ele>
        <time>2021-10-12T09:03:07Z</time>
      </trkpt>
      <trkpt lat="37.338000" lon="-5.578536">
        <ele>67.996</ele>
        <time>2021-10-12T09:03:08Z</time>
      </trkpt>
      <trkpt lat="37.338370" lon="-5.578677">
        <ele>69.076</ele>
        <time>2021-10-12T09:03:10Z</time>
      </trkpt>
      <trkpt lat="37.338796" lon="-5.578832">
        <ele>69.137</ele>
        <time>2021-10-12T09:03:12Z</time>
      </trkpt>
      <trkpt lat="37.339027" lon="-5.578917">
        <ele>69.051</ele>
        <time>2021-10-12T09:03:13Z</time>
      </trkpt>
      <trkpt lat="37.339269" lon="-5.579000">
        <ele>68.501</ele>
        <time>2021-10-12T09:03:14Z</time>
      </trkpt>
      <trkpt lat="37.339768" lon="-5.579146">
        <ele>69.111</ele>
        <time>2021-10-12T09:03:16Z</time>
      </trkpt>
      <trkpt lat="37.340294" lon="-5.579315">
        <ele>66.308</ele>
        <time>2021-10-12T09:03:18Z</time>
      </trkpt>
      <trkpt lat="37.340808" lon="-5.579518">
        <ele>64.973</ele>
        <time>2021-10-12T09:03:20Z</time>
      </trkpt>
      <trkpt lat="37.341341" lon="-5.579788">
        <ele>63.991</ele>
        <time>2021-10-12T09:03:22Z</time>
      </trkpt>
      <trkpt lat="37.341892" lon="-5.580070">
        <ele>62.747</ele>
        <time>2021-10-12T09:03:24Z</time>
      </trkpt>
      <trkpt lat="37.342468" lon="-5.580322">
        <ele>63.290</ele>
        <time>2021-10-12T09:03:26Z</time>
      </trkpt>
      <trkpt lat="37.343035" lon="-5.580445">
        <ele>64.556</ele>
        <time>2021-10-12T09:03:28Z</time>
      </trkpt>
      <trkpt lat="37.343620" lon="-5.580532">
        <ele>66.035</ele>
        <time>2021-10-12T09:03:30Z</time>
      </trkpt>
      <trkpt lat="37.344195" lon="-5.580626">
        <ele>66.055</ele>
        <time>2021-10-12T09:03:32Z</time>
      </trkpt>
      <trkpt lat="37.344762" lon="-5.580717">
        <ele>65.476</ele>
        <time>2021-10-12T09:03:34Z</time>
      </trkpt>
      <trkpt lat="37.345055" lon="-5.580762">
        <ele>65.257</ele>
        <time>2021-10-12T09:03:35Z</time>
      </trkpt>
      <trkpt lat="37.345640" lon="-5.580899">
        <ele>67.500</ele>
        <time>2021-10-12T09:03:37Z</time>
      </trkpt>
      <trkpt lat="37.345941" lon="-5.581000">
        <ele>68.620</ele>
        <time>2021-10-12T09:03:38Z</time>
      </trkpt>
      <trkpt lat="37.346516" lon="-5.581199">
        <ele>68.608</ele>
        <time>2021-10-12T09:03:40Z</time>
      </trkpt>
      <trkpt lat="37.347089" lon="-5.581392">
        <ele>70.563</ele>
        <time>2021-10-12T09:03:42Z</time>
      </trkpt>
      <trkpt lat="37.347645" lon="-5.581598">
        <ele>72.051</ele>
        <time>2021-10-12T09:03:44Z</time>
      </trkpt>
      <trkpt lat="37.348166" lon="-5.581847">
        <ele>72.627</ele>
        <time>2021-10-12T09:03:46Z</time>
      </trkpt>
      <trkpt lat="37.348692" lon="-5.582056">
        <ele>70.970</ele>
        <time>2021-10-12T09:03:48Z</time>
      </trkpt>
      <trkpt lat="37.348962" lon="-5.582138">
        <ele>70.046</ele>
        <time>2021-10-12T09:03:49Z</time>
      </trkpt>
      <trkpt lat="37.349233" lon="-5.582217">
        <ele>69.035</ele>
        <time>2021-10-12T09:03:50Z</time>
      </trkpt>
      <trkpt lat="37.349756" lon="-5.582410">
        <ele>69.035</ele>
        <time>2021-10-12T09:03:52Z</time>
      </trkpt>
      <trkpt lat="37.350018" lon="-5.582530">
        <ele>68.976</ele>
        <time>2021-10-12T09:03:53Z</time>
      </trkpt>
      <trkpt lat="37.350541" lon="-5.582779">
        <ele>68.989</ele>
        <time>2021-10-12T09:03:55Z</time>
      </trkpt>
      <trkpt lat="37.350811" lon="-5.582908">
        <ele>68.506</ele>
        <time>2021-10-12T09:03:56Z</time>
      </trkpt>
      <trkpt lat="37.351327" lon="-5.583157">
        <ele>67.426</ele>
        <time>2021-10-12T09:03:58Z</time>
      </trkpt>
      <trkpt lat="37.351852" lon="-5.583414">
        <ele>68.708</ele>
        <time>2021-10-12T09:04:00Z</time>
      </trkpt>
      <trkpt lat="37.352375" lon="-5.583663">
        <ele>70.556</ele>
        <time>2021-10-12T09:04:02Z</time>
      </trkpt>
      <trkpt lat="37.352640" lon="-5.583788">
        <ele>71.384</ele>
        <time>2021-10-12T09:04:03Z</time>
      </trkpt>
      <trkpt lat="37.352901" lon="-5.583914">
        <ele>71.930</ele>
        <time>2021-10-12T09:04:04Z</time>
      </trkpt>
      <trkpt lat="37.353418" lon="-5.584168">
        <ele>72.033</ele>
        <time>2021-10-12T09:04:06Z</time>
      </trkpt>
      <trkpt lat="37.353672" lon="-5.584286">
        <ele>72.319</ele>
        <time>2021-10-12T09:04:07Z</time>
      </trkpt>
      <trkpt lat="37.353921" lon="-5.584402">
        <ele>72.048</ele>
        <time>2021-10-12T09:04:08Z</time>
      </trkpt>
      <trkpt lat="37.354389" lon="-5.584621">
        <ele>72.368</ele>
        <time>2021-10-12T09:04:10Z</time>
      </trkpt>
      <trkpt lat="37.354859" lon="-5.584843">
        <ele>71.689</ele>
        <time>2021-10-12T09:04:12Z</time>
      </trkpt>
      <trkpt lat="37.355097" lon="-5.584956">
        <ele>71.655</ele>
        <time>2021-10-12T09:04:13Z</time>
      </trkpt>
      <trkpt lat="37.355342" lon="-5.585070">
        <ele>72.007</ele>
        <time>2021-10-12T09:04:14Z</time>
      </trkpt>
      <trkpt lat="37.355831" lon="-5.585280">
        <ele>73.017</ele>
        <time>2021-10-12T09:04:16Z</time>
      </trkpt>
      <trkpt lat="37.356341" lon="-5.585511">
        <ele>71.908</ele>
        <time>2021-10-12T09:04:18Z</time>
      </trkpt>
      <trkpt lat="37.356598" lon="-5.585636">
        <ele>70.783</ele>
        <time>2021-10-12T09:04:19Z</time>
      </trkpt>
      <trkpt lat="37.356855" lon="-5.585772">
        <ele>70.871</ele>
        <time>2021-10-12T09:04:20Z</time>
      </trkpt>
      <trkpt lat="37.357363" lon="-5.586051">
        <ele>68.757</ele>
        <time>2021-10-12T09:04:22Z</time>
      </trkpt>
      <trkpt lat="37.357622" lon="-5.586193">
        <ele>66.730</ele>
        <time>2021-10-12T09:04:23Z</time>
      </trkpt>
      <trkpt lat="37.357876" lon="-5.586331">
        <ele>65.496</ele>
        <time>2021-10-12T09:04:24Z</time>
      </trkpt>
      <trkpt lat="37.358353" lon="-5.586583">
        <ele>63.715</ele>
        <time>2021-10-12T09:04:26Z</time>
      </trkpt>
      <trkpt lat="37.358813" lon="-5.586829">
        <ele>65.795</ele>
        <time>2021-10-12T09:04:28Z</time>
      </trkpt>
      <trkpt lat="37.359044" lon="-5.586955">
        <ele>65.526</ele>
        <time>2021-10-12T09:04:29Z</time>
      </trkpt>
      <trkpt lat="37.359511" lon="-5.587209">
        <ele>69.037</ele>
        <time>2021-10-12T09:04:31Z</time>
      </trkpt>
      <trkpt lat="37.359746" lon="-5.587337">
        <ele>69.249</ele>
        <time>2021-10-12T09:04:32Z</time>
      </trkpt>
      <trkpt lat="37.359987" lon="-5.587460">
        <ele>67.113</ele>
        <time>2021-10-12T09:04:33Z</time>
      </trkpt>
      <trkpt lat="37.360483" lon="-5.587676">
        <ele>63.908</ele>
        <time>2021-10-12T09:04:35Z</time>
      </trkpt>
      <trkpt lat="37.360992" lon="-5.587873">
        <ele>66.811</ele>
        <time>2021-10-12T09:04:37Z</time>
      </trkpt>
      <trkpt lat="37.361253" lon="-5.587987">
        <ele>67.289</ele>
        <time>2021-10-12T09:04:38Z</time>
      </trkpt>
      <trkpt lat="37.361744" lon="-5.588252">
        <ele>66.075</ele>
        <time>2021-10-12T09:04:40Z</time>
      </trkpt>
      <trkpt lat="37.361991" lon="-5.588395">
        <ele>65.688</ele>
        <time>2021-10-12T09:04:41Z</time>
      </trkpt>
      <trkpt lat="37.362481" lon="-5.588674">
        <ele>62.634</ele>
        <time>2021-10-12T09:04:43Z</time>
      </trkpt>
      <trkpt lat="37.362727" lon="-5.588813">
        <ele>62.033</ele>
        <time>2021-10-12T09:04:44Z</time>
      </trkpt>
      <trkpt lat="37.363202" lon="-5.589080">
        <ele>63.763</ele>
        <time>2021-10-12T09:04:46Z</time>
      </trkpt>
      <trkpt lat="37.363443" lon="-5.589214">
        <ele>64.484</ele>
        <time>2021-10-12T09:04:47Z</time>
      </trkpt>
      <trkpt lat="37.363684" lon="-5.589342">
        <ele>64.086</ele>
        <time>2021-10-12T09:04:48Z</time>
      </trkpt>
      <trkpt lat="37.363926" lon="-5.589464">
        <ele>61.760</ele>
        <time>2021-10-12T09:04:49Z</time>
      </trkpt>
      <trkpt lat="37.364174" lon="-5.589576">
        <ele>61.126</ele>
        <time>2021-10-12T09:04:50Z</time>
      </trkpt>
      <trkpt lat="37.364678" lon="-5.589775">
        <ele>65.608</ele>
        <time>2021-10-12T09:04:52Z</time>
      </trkpt>
      <trkpt lat="37.364936" lon="-5.589876">
        <ele>66.896</ele>
        <time>2021-10-12T09:04:53Z</time>
      </trkpt>
      <trkpt lat="37.365451" lon="-5.590070">
        <ele>67.134</ele>
        <time>2021-10-12T09:04:55Z</time>
      </trkpt>
      <trkpt lat="37.365730" lon="-5.590165">
        <ele>65.150</ele>
        <time>2021-10-12T09:04:56Z</time>
      </trkpt>
      <trkpt lat="37.366261" lon="-5.590316">
        <ele>62.363</ele>
        <time>2021-10-12T09:04:58Z</time>
      </trkpt>
      <trkpt lat="37.366535" lon="-5.590393">
        <ele>64.129</ele>
        <time>2021-10-12T09:04:59Z</time>
      </trkpt>
      <trkpt lat="37.367087" lon="-5.590556">
        <ele>68.048</ele>
        <time>2021-10-12T09:05:01Z</time>
      </trkpt>
      <trkpt lat="37.367370" lon="-5.590638">
        <ele>68.478</ele>
        <time>2021-10-12T09:05:02Z</time>
      </trkpt>
      <trkpt lat="37.367909" lon="-5.590789">
        <ele>65.969</ele>
        <time>2021-10-12T09:05:04Z</time>
      </trkpt>
      <trkpt lat="37.368431" lon="-5.590943">
        <ele>68.172</ele>
        <time>2021-10-12T09:05:06Z</time>
      </trkpt>
      <trkpt lat="37.368677" lon="-5.591015">
        <ele>70.013</ele>
        <time>2021-10-12T09:05:07Z</time>
      </trkpt>
      <trkpt lat="37.368918" lon="-5.591085">
        <ele>70.014</ele>
        <time>2021-10-12T09:05:08Z</time>
      </trkpt>
      <trkpt lat="37.369369" lon="-5.591210">
        <ele>69.608</ele>
        <time>2021-10-12T09:05:10Z</time>
      </trkpt>
      <trkpt lat="37.369594" lon="-5.591272">
        <ele>69.365</ele>
        <time>2021-10-12T09:05:11Z</time>
      </trkpt>
      <trkpt lat="37.370057" lon="-5.591411">
        <ele>69.483</ele>
        <time>2021-10-12T09:05:13Z</time>
      </trkpt>
      <trkpt lat="37.370295" lon="-5.591499">
        <ele>70.769</ele>
        <time>2021-10-12T09:05:14Z</time>
      </trkpt>
      <trkpt lat="37.370756" lon="-5.591705">
        <ele>71.162</ele>
        <time>2021-10-12T09:05:16Z</time>
      </trkpt>
      <trkpt lat="37.371215" lon="-5.591951">
        <ele>71.758</ele>
        <time>2021-10-12T09:05:18Z</time>
      </trkpt>
      <trkpt lat="37.371442" lon="-5.592095">
        <ele>72.937</ele>
        <time>2021-10-12T09:05:19Z</time>
      </trkpt>
      <trkpt lat="37.371673" lon="-5.592252">
        <ele>72.757</ele>
        <time>2021-10-12T09:05:20Z</time>
      </trkpt>
      <trkpt lat="37.372126" lon="-5.592565">
        <ele>68.148</ele>
        <time>2021-10-12T09:05:22Z</time>
      </trkpt>
      <trkpt lat="37.372360" lon="-5.592720">
        <ele>67.836</ele>
        <time>2021-10-12T09:05:23Z</time>
      </trkpt>
      <trkpt lat="37.372591" lon="-5.592877">
        <ele>68.617</ele>
        <time>2021-10-12T09:05:24Z</time>
      </trkpt>
      <trkpt lat="37.373052" lon="-5.593192">
        <ele>67.518</ele>
        <time>2021-10-12T09:05:26Z</time>
      </trkpt>
      <trkpt lat="37.373488" lon="-5.593492">
        <ele>68.208</ele>
        <time>2021-10-12T09:05:28Z</time>
      </trkpt>
      <trkpt lat="37.373935" lon="-5.593793">
        <ele>68.641</ele>
        <time>2021-10-12T09:05:30Z</time>
      </trkpt>
      <trkpt lat="37.374396" lon="-5.594102">
        <ele>69.799</ele>
        <time>2021-10-12T09:05:32Z</time>
      </trkpt>
      <trkpt lat="37.374857" lon="-5.594406">
        <ele>70.675</ele>
        <time>2021-10-12T09:05:34Z</time>
      </trkpt>
      <trkpt lat="37.375093" lon="-5.594565">
        <ele>70.388</ele>
        <time>2021-10-12T09:05:35Z</time>
      </trkpt>
      <trkpt lat="37.375572" lon="-5.594878">
        <ele>71.564</ele>
        <time>2021-10-12T09:05:37Z</time>
      </trkpt>
      <trkpt lat="37.375814" lon="-5.595042">
        <ele>70.033</ele>
        <time>2021-10-12T09:05:38Z</time>
      </trkpt>
      <trkpt lat="37.376295" lon="-5.595358">
        <ele>67.183</ele>
        <time>2021-10-12T09:05:40Z</time>
      </trkpt>
      <trkpt lat="37.376776" lon="-5.595682">
        <ele>64.964</ele>
        <time>2021-10-12T09:05:42Z</time>
      </trkpt>
      <trkpt lat="37.377014" lon="-5.595843">
        <ele>64.729</ele>
        <time>2021-10-12T09:05:43Z</time>
      </trkpt>
      <trkpt lat="37.377254" lon="-5.596005">
        <ele>66.500</ele>
        <time>2021-10-12T09:05:44Z</time>
      </trkpt>
      <trkpt lat="37.377720" lon="-5.596315">
        <ele>65.820</ele>
        <time>2021-10-12T09:05:46Z</time>
      </trkpt>
      <trkpt lat="37.378195" lon="-5.596601">
        <ele>66.008</ele>
        <time>2021-10-12T09:05:48Z</time>
      </trkpt>
      <trkpt lat="37.378439" lon="-5.596735">
        <ele>65.860</ele>
        <time>2021-10-12T09:05:49Z</time>
      </trkpt>
      <trkpt lat="37.378687" lon="-5.596862">
        <ele>64.848</ele>
        <time>2021-10-12T09:05:50Z</time>
      </trkpt>
      <trkpt lat="37.379179" lon="-5.597065">
        <ele>64.474</ele>
        <time>2021-10-12T09:05:52Z</time>
      </trkpt>
      <trkpt lat="37.379434" lon="-5.597146">
        <ele>64.797</ele>
        <time>2021-10-12T09:05:53Z</time>
      </trkpt>
      <trkpt lat="37.379939" lon="-5.597290">
        <ele>65.223</ele>
        <time>2021-10-12T09:05:55Z</time>
      </trkpt>
      <trkpt lat="37.380188" lon="-5.597363">
        <ele>64.232</ele>
        <time>2021-10-12T09:05:56Z</time>
      </trkpt>
      <trkpt lat="37.380661" lon="-5.597520">
        <ele>63.492</ele>
        <time>2021-10-12T09:05:58Z</time>
      </trkpt>
      <trkpt lat="37.380899" lon="-5.597600">
        <ele>65.083</ele>
        <time>2021-10-12T09:05:59Z</time>
      </trkpt>
      <trkpt lat="37.381140" lon="-5.597676">
        <ele>66.986</ele>
        <time>2021-10-12T09:06:00Z</time>
      </trkpt>
      <trkpt lat="37.381626" lon="-5.597821">
        <ele>65.360</ele>
        <time>2021-10-12T09:06:02Z</time>
      </trkpt>
      <trkpt lat="37.382104" lon="-5.597955">
        <ele>65.126</ele>
        <time>2021-10-12T09:06:04Z</time>
      </trkpt>
      <trkpt lat="37.382351" lon="-5.598017">
        <ele>64.908</ele>
        <time>2021-10-12T09:06:05Z</time>
      </trkpt>
      <trkpt lat="37.382848" lon="-5.598140">
        <ele>64.716</ele>
        <time>2021-10-12T09:06:07Z</time>
      </trkpt>
      <trkpt lat="37.383097" lon="-5.598199">
        <ele>64.544</ele>
        <time>2021-10-12T09:06:08Z</time>
      </trkpt>
      <trkpt lat="37.383581" lon="-5.598325">
        <ele>64.070</ele>
        <time>2021-10-12T09:06:10Z</time>
      </trkpt>
      <trkpt lat="37.384067" lon="-5.598452">
        <ele>67.353</ele>
        <time>2021-10-12T09:06:12Z</time>
      </trkpt>
      <trkpt lat="37.384311" lon="-5.598514">
        <ele>68.759</ele>
        <time>2021-10-12T09:06:13Z</time>
      </trkpt>
      <trkpt lat="37.384559" lon="-5.598579">
        <ele>69.198</ele>
        <time>2021-10-12T09:06:14Z</time>
      </trkpt>
      <trkpt lat="37.385044" lon="-5.598721">
        <ele>69.228</ele>
        <time>2021-10-12T09:06:16Z</time>
      </trkpt>
      <trkpt lat="37.385277" lon="-5.598796">
        <ele>68.719</ele>
        <time>2021-10-12T09:06:17Z</time>
      </trkpt>
      <trkpt lat="37.385524" lon="-5.598862">
        <ele>69.157</ele>
        <time>2021-10-12T09:06:18Z</time>
      </trkpt>
      <trkpt lat="37.386033" lon="-5.598993">
        <ele>71.300</ele>
        <time>2021-10-12T09:06:20Z</time>
      </trkpt>
      <trkpt lat="37.386545" lon="-5.599126">
        <ele>70.220</ele>
        <time>2021-10-12T09:06:22Z</time>
      </trkpt>
      <trkpt lat="37.386814" lon="-5.599191">
        <ele>70.508</ele>
        <time>2021-10-12T09:06:23Z</time>
      </trkpt>
      <trkpt lat="37.387076" lon="-5.599258">
        <ele>70.243</ele>
        <time>2021-10-12T09:06:24Z</time>
      </trkpt>
      <trkpt lat="37.387615" lon="-5.599402">
        <ele>64.851</ele>
        <time>2021-10-12T09:06:26Z</time>
      </trkpt>
      <trkpt lat="37.388148" lon="-5.599579">
        <ele>65.527</ele>
        <time>2021-10-12T09:06:28Z</time>
      </trkpt>
      <trkpt lat="37.388419" lon="-5.599681">
        <ele>65.480</ele>
        <time>2021-10-12T09:06:29Z</time>
      </trkpt>
      <trkpt lat="37.388952" lon="-5.599873">
        <ele>69.626</ele>
        <time>2021-10-12T09:06:31Z</time>
      </trkpt>
      <trkpt lat="37.389222" lon="-5.599967">
        <ele>69.635</ele>
        <time>2021-10-12T09:06:32Z</time>
      </trkpt>
      <trkpt lat="37.389745" lon="-5.600148">
        <ele>66.935</ele>
        <time>2021-10-12T09:06:34Z</time>
      </trkpt>
      <trkpt lat="37.390012" lon="-5.600241">
        <ele>66.076</ele>
        <time>2021-10-12T09:06:35Z</time>
      </trkpt>
      <trkpt lat="37.390274" lon="-5.600336">
        <ele>65.214</ele>
        <time>2021-10-12T09:06:36Z</time>
      </trkpt>
      <trkpt lat="37.390800" lon="-5.600516">
        <ele>67.054</ele>
        <time>2021-10-12T09:06:38Z</time>
      </trkpt>
      <trkpt lat="37.391311" lon="-5.600694">
        <ele>66.009</ele>
        <time>2021-10-12T09:06:40Z</time>
      </trkpt>
      <trkpt lat="37.391568" lon="-5.600789">
        <ele>66.608</ele>
        <time>2021-10-12T09:06:41Z</time>
      </trkpt>
      <trkpt lat="37.391822" lon="-5.600884">
        <ele>66.969</ele>
        <time>2021-10-12T09:06:42Z</time>
      </trkpt>
      <trkpt lat="37.392070" lon="-5.600985">
        <ele>66.267</ele>
        <time>2021-10-12T09:06:43Z</time>
      </trkpt>
      <trkpt lat="37.392318" lon="-5.601098">
        <ele>65.743</ele>
        <time>2021-10-12T09:06:44Z</time>
      </trkpt>
      <trkpt lat="37.392796" lon="-5.601325">
        <ele>65.086</ele>
        <time>2021-10-12T09:06:46Z</time>
      </trkpt>
      <trkpt lat="37.393036" lon="-5.601439">
        <ele>68.082</ele>
        <time>2021-10-12T09:06:47Z</time>
      </trkpt>
      <trkpt lat="37.393505" lon="-5.601663">
        <ele>73.071</ele>
        <time>2021-10-12T09:06:49Z</time>
      </trkpt>
      <trkpt lat="37.393740" lon="-5.601782">
        <ele>72.351</ele>
        <time>2021-10-12T09:06:50Z</time>
      </trkpt>
      <trkpt lat="37.394180" lon="-5.602048">
        <ele>71.752</ele>
        <time>2021-10-12T09:06:52Z</time>
      </trkpt>
      <trkpt lat="37.394621" lon="-5.602335">
        <ele>73.091</ele>
        <time>2021-10-12T09:06:54Z</time>
      </trkpt>
      <trkpt lat="37.395071" lon="-5.602639">
        <ele>75.681</ele>
        <time>2021-10-12T09:06:56Z</time>
      </trkpt>
      <trkpt lat="37.395503" lon="-5.602950">
        <ele>72.919</ele>
        <time>2021-10-12T09:06:58Z</time>
      </trkpt>
      <trkpt lat="37.395726" lon="-5.603119">
        <ele>71.808</ele>
        <time>2021-10-12T09:06:59Z</time>
      </trkpt>
      <trkpt lat="37.396173" lon="-5.603453">
        <ele>71.867</ele>
        <time>2021-10-12T09:07:01Z</time>
      </trkpt>
      <trkpt lat="37.396627" lon="-5.603786">
        <ele>72.035</ele>
        <time>2021-10-12T09:07:03Z</time>
      </trkpt>
      <trkpt lat="37.396868" lon="-5.603947">
        <ele>71.321</ele>
        <time>2021-10-12T09:07:04Z</time>
      </trkpt>
      <trkpt lat="37.397364" lon="-5.604238">
        <ele>71.364</ele>
        <time>2021-10-12T09:07:06Z</time>
      </trkpt>
      <trkpt lat="37.397616" lon="-5.604380">
        <ele>71.060</ele>
        <time>2021-10-12T09:07:07Z</time>
      </trkpt>
      <trkpt lat="37.397873" lon="-5.604526">
        <ele>70.049</ele>
        <time>2021-10-12T09:07:08Z</time>
      </trkpt>
      <trkpt lat="37.398373" lon="-5.604812">
        <ele>71.079</ele>
        <time>2021-10-12T09:07:10Z</time>
      </trkpt>
      <trkpt lat="37.398627" lon="-5.604958">
        <ele>70.160</ele>
        <time>2021-10-12T09:07:11Z</time>
      </trkpt>
      <trkpt lat="37.399131" lon="-5.605246">
        <ele>69.873</ele>
        <time>2021-10-12T09:07:13Z</time>
      </trkpt>
      <trkpt lat="37.399392" lon="-5.605396">
        <ele>69.585</ele>
        <time>2021-10-12T09:07:14Z</time>
      </trkpt>
      <trkpt lat="37.399887" lon="-5.605687">
        <ele>69.013</ele>
        <time>2021-10-12T09:07:16Z</time>
      </trkpt>
      <trkpt lat="37.400139" lon="-5.605832">
        <ele>68.008</ele>
        <time>2021-10-12T09:07:17Z</time>
      </trkpt>
      <trkpt lat="37.400640" lon="-5.606123">
        <ele>67.485</ele>
        <time>2021-10-12T09:07:19Z</time>
      </trkpt>
      <trkpt lat="37.400896" lon="-5.606272">
        <ele>69.323</ele>
        <time>2021-10-12T09:07:20Z</time>
      </trkpt>
      <trkpt lat="37.401393" lon="-5.606559">
        <ele>69.489</ele>
        <time>2021-10-12T09:07:22Z</time>
      </trkpt>
      <trkpt lat="37.401882" lon="-5.606843">
        <ele>67.012</ele>
        <time>2021-10-12T09:07:24Z</time>
      </trkpt>
      <trkpt lat="37.402128" lon="-5.606985">
        <ele>67.728</ele>
        <time>2021-10-12T09:07:25Z</time>
      </trkpt>
      <trkpt lat="37.402379" lon="-5.607131">
        <ele>68.477</ele>
        <time>2021-10-12T09:07:26Z</time>
      </trkpt>
      <trkpt lat="37.402853" lon="-5.607405">
        <ele>69.057</ele>
        <time>2021-10-12T09:07:28Z</time>
      </trkpt>
      <trkpt lat="37.403093" lon="-5.607544">
        <ele>69.238</ele>
        <time>2021-10-12T09:07:29Z</time>
      </trkpt>
      <trkpt lat="37.403566" lon="-5.607823">
        <ele>70.215</ele>
        <time>2021-10-12T09:07:31Z</time>
      </trkpt>
      <trkpt lat="37.403800" lon="-5.607958">
        <ele>70.665</ele>
        <time>2021-10-12T09:07:32Z</time>
      </trkpt>
      <trkpt lat="37.404258" lon="-5.608229">
        <ele>72.211</ele>
        <time>2021-10-12T09:07:34Z</time>
      </trkpt>
      <trkpt lat="37.404492" lon="-5.608363">
        <ele>72.908</ele>
        <time>2021-10-12T09:07:35Z</time>
      </trkpt>
      <trkpt lat="37.404728" lon="-5.608490">
        <ele>72.699</ele>
        <time>2021-10-12T09:07:36Z</time>
      </trkpt>
      <trkpt lat="37.404966" lon="-5.608602">
        <ele>73.857</ele>
        <time>2021-10-12T09:07:37Z</time>
      </trkpt>
      <trkpt lat="37.405208" lon="-5.608698">
        <ele>74.193</ele>
        <time>2021-10-12T09:07:38Z</time>
      </trkpt>
      <trkpt lat="37.405697" lon="-5.608875">
        <ele>71.086</ele>
        <time>2021-10-12T09:07:40Z</time>
      </trkpt>
      <trkpt lat="37.406203" lon="-5.609065">
        <ele>69.332</ele>
        <time>2021-10-12T09:07:42Z</time>
      </trkpt>
      <trkpt lat="37.406724" lon="-5.609262">
        <ele>68.881</ele>
        <time>2021-10-12T09:07:44Z</time>
      </trkpt>
      <trkpt lat="37.407242" lon="-5.609462">
        <ele>70.961</ele>
        <time>2021-10-12T09:07:46Z</time>
      </trkpt>
      <trkpt lat="37.407506" lon="-5.609567">
        <ele>71.562</ele>
        <time>2021-10-12T09:07:47Z</time>
      </trkpt>
      <trkpt lat="37.408026" lon="-5.609771">
        <ele>67.068</ele>
        <time>2021-10-12T09:07:49Z</time>
      </trkpt>
      <trkpt lat="37.408295" lon="-5.609875">
        <ele>67.442</ele>
        <time>2021-10-12T09:07:50Z</time>
      </trkpt>
      <trkpt lat="37.408808" lon="-5.610065">
        <ele>70.226</ele>
        <time>2021-10-12T09:07:52Z</time>
      </trkpt>
      <trkpt lat="37.409069" lon="-5.610160">
        <ele>69.608</ele>
        <time>2021-10-12T09:07:53Z</time>
      </trkpt>
      <trkpt lat="37.409330" lon="-5.610255">
        <ele>68.444</ele>
        <time>2021-10-12T09:07:54Z</time>
      </trkpt>
      <trkpt lat="37.409854" lon="-5.610450">
        <ele>66.962</ele>
        <time>2021-10-12T09:07:56Z</time>
      </trkpt>
      <trkpt lat="37.410353" lon="-5.610636">
        <ele>70.848</ele>
        <time>2021-10-12T09:07:58Z</time>
      </trkpt>
      <trkpt lat="37.410608" lon="-5.610724">
        <ele>71.311</ele>
        <time>2021-10-12T09:07:59Z</time>
      </trkpt>
      <trkpt lat="37.411117" lon="-5.610879">
        <ele>69.767</ele>
        <time>2021-10-12T09:08:01Z</time>
      </trkpt>
      <trkpt lat="37.411623" lon="-5.611030">
        <ele>70.826</ele>
        <time>2021-10-12T09:08:03Z</time>
      </trkpt>
      <trkpt lat="37.411872" lon="-5.611104">
        <ele>69.546</ele>
        <time>2021-10-12T09:08:04Z</time>
      </trkpt>
      <trkpt lat="37.412374" lon="-5.611254">
        <ele>67.577</ele>
        <time>2021-10-12T09:08:06Z</time>
      </trkpt>
      <trkpt lat="37.412898" lon="-5.611417">
        <ele>67.588</ele>
        <time>2021-10-12T09:08:08Z</time>
      </trkpt>
      <trkpt lat="37.413427" lon="-5.611578">
        <ele>67.024</ele>
        <time>2021-10-12T09:08:10Z</time>
      </trkpt>
      <trkpt lat="37.413976" lon="-5.611745">
        <ele>68.026</ele>
        <time>2021-10-12T09:08:12Z</time>
      </trkpt>
      <trkpt lat="37.414533" lon="-5.611913">
        <ele>66.608</ele>
        <time>2021-10-12T09:08:14Z</time>
      </trkpt>
      <trkpt lat="37.415081" lon="-5.612079">
        <ele>67.936</ele>
        <time>2021-10-12T09:08:16Z</time>
      </trkpt>
      <trkpt lat="37.415633" lon="-5.612247">
        <ele>69.944</ele>
        <time>2021-10-12T09:08:18Z</time>
      </trkpt>
      <trkpt lat="37.416181" lon="-5.612415">
        <ele>68.520</ele>
        <time>2021-10-12T09:08:20Z</time>
      </trkpt>
      <trkpt lat="37.416714" lon="-5.612578">
        <ele>69.813</ele>
        <time>2021-10-12T09:08:22Z</time>
      </trkpt>
      <trkpt lat="37.417245" lon="-5.612740">
        <ele>69.979</ele>
        <time>2021-10-12T09:08:24Z</time>
      </trkpt>
      <trkpt lat="37.417769" lon="-5.612900">
        <ele>70.528</ele>
        <time>2021-10-12T09:08:26Z</time>
      </trkpt>
      <trkpt lat="37.418031" lon="-5.612984">
        <ele>72.158</ele>
        <time>2021-10-12T09:08:27Z</time>
      </trkpt>
      <trkpt lat="37.418556" lon="-5.613142">
        <ele>72.359</ele>
        <time>2021-10-12T09:08:29Z</time>
      </trkpt>
      <trkpt lat="37.419079" lon="-5.613298">
        <ele>69.436</ele>
        <time>2021-10-12T09:08:31Z</time>
      </trkpt>
      <trkpt lat="37.419597" lon="-5.613453">
        <ele>72.517</ele>
        <time>2021-10-12T09:08:33Z</time>
      </trkpt>
      <trkpt lat="37.419860" lon="-5.613533">
        <ele>73.718</ele>
        <time>2021-10-12T09:08:34Z</time>
      </trkpt>
      <trkpt lat="37.420379" lon="-5.613700">
        <ele>73.408</ele>
        <time>2021-10-12T09:08:36Z</time>
      </trkpt>
      <trkpt lat="37.420902" lon="-5.613888">
        <ele>73.051</ele>
        <time>2021-10-12T09:08:38Z</time>
      </trkpt>
      <trkpt lat="37.421407" lon="-5.614134">
        <ele>72.299</ele>
        <time>2021-10-12T09:08:40Z</time>
      </trkpt>
      <trkpt lat="37.421911" lon="-5.614395">
        <ele>72.025</ele>
        <time>2021-10-12T09:08:42Z</time>
      </trkpt>
      <trkpt lat="37.422406" lon="-5.614652">
        <ele>70.588</ele>
        <time>2021-10-12T09:08:44Z</time>
      </trkpt>
      <trkpt lat="37.422900" lon="-5.614899">
        <ele>71.684</ele>
        <time>2021-10-12T09:08:46Z</time>
      </trkpt>
      <trkpt lat="37.423401" lon="-5.615158">
        <ele>70.853</ele>
        <time>2021-10-12T09:08:48Z</time>
      </trkpt>
      <trkpt lat="37.423652" lon="-5.615287">
        <ele>70.093</ele>
        <time>2021-10-12T09:08:49Z</time>
      </trkpt>
      <trkpt lat="37.423907" lon="-5.615413">
        <ele>69.984</ele>
        <time>2021-10-12T09:08:50Z</time>
      </trkpt>
      <trkpt lat="37.424409" lon="-5.615673">
        <ele>69.029</ele>
        <time>2021-10-12T09:08:52Z</time>
      </trkpt>
      <trkpt lat="37.424919" lon="-5.615939">
        <ele>69.000</ele>
        <time>2021-10-12T09:08:54Z</time>
      </trkpt>
      <trkpt lat="37.425171" lon="-5.616078">
        <ele>69.520</ele>
        <time>2021-10-12T09:08:55Z</time>
      </trkpt>
      <trkpt lat="37.425421" lon="-5.616222">
        <ele>70.408</ele>
        <time>2021-10-12T09:08:56Z</time>
      </trkpt>
      <trkpt lat="37.425909" lon="-5.616530">
        <ele>71.690</ele>
        <time>2021-10-12T09:08:58Z</time>
      </trkpt>
      <trkpt lat="37.426146" lon="-5.616688">
        <ele>72.288</ele>
        <time>2021-10-12T09:08:59Z</time>
      </trkpt>
      <trkpt lat="37.426371" lon="-5.616837">
        <ele>73.094</ele>
        <time>2021-10-12T09:09:00Z</time>
      </trkpt>
      <trkpt lat="37.426759" lon="-5.617104">
        <ele>72.997</ele>
        <time>2021-10-12T09:09:02Z</time>
      </trkpt>
      <trkpt lat="37.427090" lon="-5.617382">
        <ele>73.533</ele>
        <time>2021-10-12T09:09:04Z</time>
      </trkpt>
      <trkpt lat="37.427414" lon="-5.617712">
        <ele>73.322</ele>
        <time>2021-10-12T09:09:06Z</time>
      </trkpt>
      <trkpt lat="37.427746" lon="-5.618078">
        <ele>72.142</ele>
        <time>2021-10-12T09:09:08Z</time>
      </trkpt>
      <trkpt lat="37.428085" lon="-5.618452">
        <ele>71.423</ele>
        <time>2021-10-12T09:09:10Z</time>
      </trkpt>
      <trkpt lat="37.428264" lon="-5.618647">
        <ele>71.272</ele>
        <time>2021-10-12T09:09:11Z</time>
      </trkpt>
      <trkpt lat="37.428640" lon="-5.619055">
        <ele>71.113</ele>
        <time>2021-10-12T09:09:13Z</time>
      </trkpt>
      <trkpt lat="37.428841" lon="-5.619272">
        <ele>71.914</ele>
        <time>2021-10-12T09:09:14Z</time>
      </trkpt>
      <trkpt lat="37.429240" lon="-5.619700">
        <ele>71.708</ele>
        <time>2021-10-12T09:09:16Z</time>
      </trkpt>
      <trkpt lat="37.429447" lon="-5.619927">
        <ele>71.785</ele>
        <time>2021-10-12T09:09:17Z</time>
      </trkpt>
      <trkpt lat="37.429850" lon="-5.620371">
        <ele>72.863</ele>
        <time>2021-10-12T09:09:19Z</time>
      </trkpt>
      <trkpt lat="37.430055" lon="-5.620594">
        <ele>73.619</ele>
        <time>2021-10-12T09:09:20Z</time>
      </trkpt>
      <trkpt lat="37.430447" lon="-5.621017">
        <ele>72.832</ele>
        <time>2021-10-12T09:09:22Z</time>
      </trkpt>
      <trkpt lat="37.430645" lon="-5.621231">
        <ele>73.068</ele>
        <time>2021-10-12T09:09:23Z</time>
      </trkpt>
      <trkpt lat="37.430840" lon="-5.621439">
        <ele>71.877</ele>
        <time>2021-10-12T09:09:24Z</time>
      </trkpt>
      <trkpt lat="37.431242" lon="-5.621845">
        <ele>69.067</ele>
        <time>2021-10-12T09:09:26Z</time>
      </trkpt>
      <trkpt lat="37.431666" lon="-5.622187">
        <ele>70.998</ele>
        <time>2021-10-12T09:09:28Z</time>
      </trkpt>
      <trkpt lat="37.431916" lon="-5.622305">
        <ele>71.315</ele>
        <time>2021-10-12T09:09:29Z</time>
      </trkpt>
      <trkpt lat="37.432163" lon="-5.622431">
        <ele>72.365</ele>
        <time>2021-10-12T09:09:30Z</time>
      </trkpt>
      <trkpt lat="37.432654" lon="-5.622698">
        <ele>73.311</ele>
        <time>2021-10-12T09:09:32Z</time>
      </trkpt>
      <trkpt lat="37.433130" lon="-5.622973">
        <ele>74.008</ele>
        <time>2021-10-12T09:09:34Z</time>
      </trkpt>
      <trkpt lat="37.433373" lon="-5.623113">
        <ele>73.999</ele>
        <time>2021-10-12T09:09:35Z</time>
      </trkpt>
      <trkpt lat="37.433614" lon="-5.623252">
        <ele>73.767</ele>
        <time>2021-10-12T09:09:36Z</time>
      </trkpt>
      <trkpt lat="37.434103" lon="-5.623526">
        <ele>75.173</ele>
        <time>2021-10-12T09:09:38Z</time>
      </trkpt>
      <trkpt lat="37.434573" lon="-5.623790">
        <ele>74.746</ele>
        <time>2021-10-12T09:09:40Z</time>
      </trkpt>
      <trkpt lat="37.434817" lon="-5.623928">
        <ele>73.422</ele>
        <time>2021-10-12T09:09:41Z</time>
      </trkpt>
      <trkpt lat="37.435293" lon="-5.624208">
        <ele>71.481</ele>
        <time>2021-10-12T09:09:43Z</time>
      </trkpt>
      <trkpt lat="37.435534" lon="-5.624351">
        <ele>73.991</ele>
        <time>2021-10-12T09:09:44Z</time>
      </trkpt>
      <trkpt lat="37.436005" lon="-5.624644">
        <ele>75.582</ele>
        <time>2021-10-12T09:09:46Z</time>
      </trkpt>
      <trkpt lat="37.436471" lon="-5.624984">
        <ele>74.312</ele>
        <time>2021-10-12T09:09:48Z</time>
      </trkpt>
      <trkpt lat="37.436925" lon="-5.625371">
        <ele>74.332</ele>
        <time>2021-10-12T09:09:50Z</time>
      </trkpt>
      <trkpt lat="37.437365" lon="-5.625769">
        <ele>75.805</ele>
        <time>2021-10-12T09:09:52Z</time>
      </trkpt>
      <trkpt lat="37.437817" lon="-5.626177">
        <ele>76.208</ele>
        <time>2021-10-12T09:09:54Z</time>
      </trkpt>
      <trkpt lat="37.438264" lon="-5.626583">
        <ele>76.999</ele>
        <time>2021-10-12T09:09:56Z</time>
      </trkpt>
      <trkpt lat="37.438679" lon="-5.626984">
        <ele>76.857</ele>
        <time>2021-10-12T09:09:58Z</time>
      </trkpt>
      <trkpt lat="37.439116" lon="-5.627383">
        <ele>76.823</ele>
        <time>2021-10-12T09:10:00Z</time>
      </trkpt>
      <trkpt lat="37.439343" lon="-5.627572">
        <ele>75.656</ele>
        <time>2021-10-12T09:10:01Z</time>
      </trkpt>
      <trkpt lat="37.439566" lon="-5.627762">
        <ele>75.092</ele>
        <time>2021-10-12T09:10:02Z</time>
      </trkpt>
      <trkpt lat="37.440017" lon="-5.628120">
        <ele>77.271</ele>
        <time>2021-10-12T09:10:04Z</time>
      </trkpt>
      <trkpt lat="37.440485" lon="-5.628405">
        <ele>79.061</ele>
        <time>2021-10-12T09:10:06Z</time>
      </trkpt>
      <trkpt lat="37.440730" lon="-5.628532">
        <ele>79.722</ele>
        <time>2021-10-12T09:10:07Z</time>
      </trkpt>
      <trkpt lat="37.440978" lon="-5.628662">
        <ele>80.017</ele>
        <time>2021-10-12T09:10:08Z</time>
      </trkpt>
      <trkpt lat="37.441457" lon="-5.628916">
        <ele>80.287</ele>
        <time>2021-10-12T09:10:10Z</time>
      </trkpt>
      <trkpt lat="37.441929" lon="-5.629170">
        <ele>81.015</ele>
        <time>2021-10-12T09:10:12Z</time>
      </trkpt>
      <trkpt lat="37.442170" lon="-5.629300">
        <ele>81.008</ele>
        <time>2021-10-12T09:10:13Z</time>
      </trkpt>
      <trkpt lat="37.442416" lon="-5.629433">
        <ele>81.729</ele>
        <time>2021-10-12T09:10:14Z</time>
      </trkpt>
      <trkpt lat="37.442901" lon="-5.629693">
        <ele>81.547</ele>
        <time>2021-10-12T09:10:16Z</time>
      </trkpt>
      <trkpt lat="37.443408" lon="-5.629965">
        <ele>83.323</ele>
        <time>2021-10-12T09:10:18Z</time>
      </trkpt>
      <trkpt lat="37.443663" lon="-5.630102">
        <ele>83.816</ele>
        <time>2021-10-12T09:10:19Z</time>
      </trkpt>
      <trkpt lat="37.443901" lon="-5.630228">
        <ele>84.222</ele>
        <time>2021-10-12T09:10:20Z</time>
      </trkpt>
      <trkpt lat="37.444318" lon="-5.630424">
        <ele>85.351</ele>
        <time>2021-10-12T09:10:22Z</time>
      </trkpt>
      <trkpt lat="37.444726" lon="-5.630597">
        <ele>86.731</ele>
        <time>2021-10-12T09:10:24Z</time>
      </trkpt>
      <trkpt lat="37.445156" lon="-5.630763">
        <ele>85.512</ele>
        <time>2021-10-12T09:10:26Z</time>
      </trkpt>
      <trkpt lat="37.445595" lon="-5.630922">
        <ele>86.538</ele>
        <time>2021-10-12T09:10:28Z</time>
      </trkpt>
      <trkpt lat="37.446052" lon="-5.631096">
        <ele>86.370</ele>
        <time>2021-10-12T09:10:30Z</time>
      </trkpt>
      <trkpt lat="37.446281" lon="-5.631185">
        <ele>85.517</ele>
        <time>2021-10-12T09:10:31Z</time>
      </trkpt>
      <trkpt lat="37.446733" lon="-5.631360">
        <ele>86.208</ele>
        <time>2021-10-12T09:10:33Z</time>
      </trkpt>
      <trkpt lat="37.446964" lon="-5.631450">
        <ele>87.191</ele>
        <time>2021-10-12T09:10:34Z</time>
      </trkpt>
      <trkpt lat="37.447200" lon="-5.631542">
        <ele>87.979</ele>
        <time>2021-10-12T09:10:35Z</time>
      </trkpt>
      <trkpt lat="37.447671" lon="-5.631726">
        <ele>89.675</ele>
        <time>2021-10-12T09:10:37Z</time>
      </trkpt>
      <trkpt lat="37.447914" lon="-5.631821">
        <ele>89.588</ele>
        <time>2021-10-12T09:10:38Z</time>
      </trkpt>
      <trkpt lat="37.448385" lon="-5.632006">
        <ele>88.124</ele>
        <time>2021-10-12T09:10:40Z</time>
      </trkpt>
      <trkpt lat="37.448629" lon="-5.632101">
        <ele>88.563</ele>
        <time>2021-10-12T09:10:41Z</time>
      </trkpt>
      <trkpt lat="37.449114" lon="-5.632290">
        <ele>88.323</ele>
        <time>2021-10-12T09:10:43Z</time>
      </trkpt>
      <trkpt lat="37.449360" lon="-5.632386">
        <ele>89.344</ele>
        <time>2021-10-12T09:10:44Z</time>
      </trkpt>
      <trkpt lat="37.449838" lon="-5.632570">
        <ele>90.649</ele>
        <time>2021-10-12T09:10:46Z</time>
      </trkpt>
      <trkpt lat="37.450082" lon="-5.632667">
        <ele>91.402</ele>
        <time>2021-10-12T09:10:47Z</time>
      </trkpt>
      <trkpt lat="37.450325" lon="-5.632762">
        <ele>92.122</ele>
        <time>2021-10-12T09:10:48Z</time>
      </trkpt>
      <trkpt lat="37.450568" lon="-5.632857">
        <ele>91.708</ele>
        <time>2021-10-12T09:10:49Z</time>
      </trkpt>
      <trkpt lat="37.450809" lon="-5.632950">
        <ele>91.462</ele>
        <time>2021-10-12T09:10:50Z</time>
      </trkpt>
      <trkpt lat="37.451265" lon="-5.633124">
        <ele>92.070</ele>
        <time>2021-10-12T09:10:52Z</time>
      </trkpt>
      <trkpt lat="37.451717" lon="-5.633297">
        <ele>92.086</ele>
        <time>2021-10-12T09:10:54Z</time>
      </trkpt>
      <trkpt lat="37.452189" lon="-5.633502">
        <ele>93.359</ele>
        <time>2021-10-12T09:10:56Z</time>
      </trkpt>
      <trkpt lat="37.452630" lon="-5.633753">
        <ele>94.735</ele>
        <time>2021-10-12T09:10:58Z</time>
      </trkpt>
      <trkpt lat="37.452857" lon="-5.633891">
        <ele>95.334</ele>
        <time>2021-10-12T09:10:59Z</time>
      </trkpt>
      <trkpt lat="37.453310" lon="-5.634165">
        <ele>95.064</ele>
        <time>2021-10-12T09:11:01Z</time>
      </trkpt>
      <trkpt lat="37.453541" lon="-5.634304">
        <ele>95.485</ele>
        <time>2021-10-12T09:11:02Z</time>
      </trkpt>
      <trkpt lat="37.453995" lon="-5.634574">
        <ele>99.331</ele>
        <time>2021-10-12T09:11:04Z</time>
      </trkpt>
      <trkpt lat="37.454224" lon="-5.634710">
        <ele>100.961</ele>
        <time>2021-10-12T09:11:05Z</time>
      </trkpt>
      <trkpt lat="37.454451" lon="-5.634846">
        <ele>101.007</ele>
        <time>2021-10-12T09:11:06Z</time>
      </trkpt>
      <trkpt lat="37.454675" lon="-5.634982">
        <ele>101.808</ele>
        <time>2021-10-12T09:11:07Z</time>
      </trkpt>
      <trkpt lat="37.454904" lon="-5.635121">
        <ele>102.441</ele>
        <time>2021-10-12T09:11:08Z</time>
      </trkpt>
      <trkpt lat="37.455344" lon="-5.635389">
        <ele>103.419</ele>
        <time>2021-10-12T09:11:10Z</time>
      </trkpt>
      <trkpt lat="37.455780" lon="-5.635662">
        <ele>109.555</ele>
        <time>2021-10-12T09:11:12Z</time>
      </trkpt>
      <trkpt lat="37.456182" lon="-5.635903">
        <ele>110.188</ele>
        <time>2021-10-12T09:11:14Z</time>
      </trkpt>
      <trkpt lat="37.456547" lon="-5.636112">
        <ele>111.064</ele>
        <time>2021-10-12T09:11:16Z</time>
      </trkpt>
      <trkpt lat="37.456900" lon="-5.636319">
        <ele>112.413</ele>
        <time>2021-10-12T09:11:18Z</time>
      </trkpt>
      <trkpt lat="37.457232" lon="-5.636558">
        <ele>114.073</ele>
        <time>2021-10-12T09:11:20Z</time>
      </trkpt>
      <trkpt lat="37.457501" lon="-5.636847">
        <ele>117.314</ele>
        <time>2021-10-12T09:11:22Z</time>
      </trkpt>
      <trkpt lat="37.457610" lon="-5.636999">
        <ele>118.664</ele>
        <time>2021-10-12T09:11:23Z</time>
      </trkpt>
      <trkpt lat="37.457712" lon="-5.637148">
        <ele>120.206</ele>
        <time>2021-10-12T09:11:24Z</time>
      </trkpt>
      <trkpt lat="37.457928" lon="-5.637453">
        <ele>122.116</ele>
        <time>2021-10-12T09:11:26Z</time>
      </trkpt>
      <trkpt lat="37.458100" lon="-5.637720">
        <ele>124.008</ele>
        <time>2021-10-12T09:11:28Z</time>
      </trkpt>
      <trkpt lat="37.458163" lon="-5.637855">
        <ele>125.634</ele>
        <time>2021-10-12T09:11:29Z</time>
      </trkpt>
      <trkpt lat="37.458220" lon="-5.637987">
        <ele>126.862</ele>
        <time>2021-10-12T09:11:30Z</time>
      </trkpt>
      <trkpt lat="37.458278" lon="-5.638100">
        <ele>128.198</ele>
        <time>2021-10-12T09:11:31Z</time>
      </trkpt>
      <trkpt lat="37.458432" lon="-5.638231">
        <ele>131.451</ele>
        <time>2021-10-12T09:11:33Z</time>
      </trkpt>
      <trkpt lat="37.458515" lon="-5.638224">
        <ele>132.747</ele>
        <time>2021-10-12T09:11:34Z</time>
      </trkpt>
      <trkpt lat="37.458666" lon="-5.638031">
        <ele>133.156</ele>
        <time>2021-10-12T09:11:36Z</time>
      </trkpt>
      <trkpt lat="37.458745" lon="-5.637879">
        <ele>132.426</ele>
        <time>2021-10-12T09:11:37Z</time>
      </trkpt>
      <trkpt lat="37.458835" lon="-5.637740">
        <ele>132.037</ele>
        <time>2021-10-12T09:11:38Z</time>
      </trkpt>
      <trkpt lat="37.459034" lon="-5.637596">
        <ele>132.887</ele>
        <time>2021-10-12T09:11:40Z</time>
      </trkpt>
      <trkpt lat="37.459166" lon="-5.637584">
        <ele>134.342</ele>
        <time>2021-10-12T09:11:41Z</time>
      </trkpt>
      <trkpt lat="37.459487" lon="-5.637646">
        <ele>139.726</ele>
        <time>2021-10-12T09:11:43Z</time>
      </trkpt>
      <trkpt lat="37.459661" lon="-5.637701">
        <ele>142.908</ele>
        <time>2021-10-12T09:11:44Z</time>
      </trkpt>
      <trkpt lat="37.459983" lon="-5.637832">
        <ele>148.616</ele>
        <time>2021-10-12T09:11:46Z</time>
      </trkpt>
      <trkpt lat="37.460302" lon="-5.637894">
        <ele>151.244</ele>
        <time>2021-10-12T09:11:48Z</time>
      </trkpt>
      <trkpt lat="37.460448" lon="-5.637875">
        <ele>150.350</ele>
        <time>2021-10-12T09:11:49Z</time>
      </trkpt>
      <trkpt lat="37.460573" lon="-5.637844">
        <ele>149.323</ele>
        <time>2021-10-12T09:11:50Z</time>
      </trkpt>
      <trkpt lat="37.460782" lon="-5.637864">
        <ele>150.499</ele>
        <time>2021-10-12T09:11:52Z</time>
      </trkpt>
      <trkpt lat="37.460890" lon="-5.637907">
        <ele>151.748</ele>
        <time>2021-10-12T09:11:53Z</time>
      </trkpt>
      <trkpt lat="37.461004" lon="-5.637966">
        <ele>153.648</ele>
        <time>2021-10-12T09:11:54Z</time>
      </trkpt>
      <trkpt lat="37.461111" lon="-5.638035">
        <ele>155.649</ele>
        <time>2021-10-12T09:11:55Z</time>
      </trkpt>
      <trkpt lat="37.461208" lon="-5.638115">
        <ele>158.055</ele>
        <time>2021-10-12T09:11:56Z</time>
      </trkpt>
      <trkpt lat="37.461378" lon="-5.638305">
        <ele>161.607</ele>
        <time>2021-10-12T09:11:58Z</time>
      </trkpt>
      <trkpt lat="37.461470" lon="-5.638398">
        <ele>163.617</ele>
        <time>2021-10-12T09:11:59Z</time>
      </trkpt>
      <trkpt lat="37.461560" lon="-5.638462">
        <ele>165.208</ele>
        <time>2021-10-12T09:12:00Z</time>
      </trkpt>
      <trkpt lat="37.461757" lon="-5.638492">
        <ele>167.693</ele>
        <time>2021-10-12T09:12:02Z</time>
      </trkpt>
      <trkpt lat="37.461995" lon="-5.638449">
        <ele>169.171</ele>
        <time>2021-10-12T09:12:04Z</time>
      </trkpt>
      <trkpt lat="37.462113" lon="-5.638456">
        <ele>170.387</ele>
        <time>2021-10-12T09:12:05Z</time>
      </trkpt>
      <trkpt lat="37.462226" lon="-5.638493">
        <ele>171.710</ele>
        <time>2021-10-12T09:12:06Z</time>
      </trkpt>
      <trkpt lat="37.462459" lon="-5.638632">
        <ele>171.566</ele>
        <time>2021-10-12T09:12:08Z</time>
      </trkpt>
      <trkpt lat="37.462710" lon="-5.638827">
        <ele>170.195</ele>
        <time>2021-10-12T09:12:10Z</time>
      </trkpt>
      <trkpt lat="37.462966" lon="-5.639051">
        <ele>172.775</ele>
        <time>2021-10-12T09:12:12Z</time>
      </trkpt>
      <trkpt lat="37.463078" lon="-5.639162">
        <ele>174.856</ele>
        <time>2021-10-12T09:12:13Z</time>
      </trkpt>
      <trkpt lat="37.463184" lon="-5.639269">
        <ele>175.446</ele>
        <time>2021-10-12T09:12:14Z</time>
      </trkpt>
      <trkpt lat="37.463400" lon="-5.639469">
        <ele>176.988</ele>
        <time>2021-10-12T09:12:16Z</time>
      </trkpt>
      <trkpt lat="37.463636" lon="-5.639644">
        <ele>177.516</ele>
        <time>2021-10-12T09:12:18Z</time>
      </trkpt>
      <trkpt lat="37.463880" lon="-5.639793">
        <ele>175.408</ele>
        <time>2021-10-12T09:12:20Z</time>
      </trkpt>
      <trkpt lat="37.464122" lon="-5.639936">
        <ele>173.552</ele>
        <time>2021-10-12T09:12:22Z</time>
      </trkpt>
      <trkpt lat="37.464245" lon="-5.640013">
        <ele>173.620</ele>
        <time>2021-10-12T09:12:23Z</time>
      </trkpt>
      <trkpt lat="37.464473" lon="-5.640174">
        <ele>173.756</ele>
        <time>2021-10-12T09:12:25Z</time>
      </trkpt>
      <trkpt lat="37.464570" lon="-5.640267">
        <ele>174.479</ele>
        <time>2021-10-12T09:12:26Z</time>
      </trkpt>
      <trkpt lat="37.464719" lon="-5.640471">
        <ele>177.565</ele>
        <time>2021-10-12T09:12:28Z</time>
      </trkpt>
      <trkpt lat="37.464790" lon="-5.640565">
        <ele>178.874</ele>
        <time>2021-10-12T09:12:29Z</time>
      </trkpt>
      <trkpt lat="37.464868" lon="-5.640643">
        <ele>180.264</ele>
        <time>2021-10-12T09:12:30Z</time>
      </trkpt>
      <trkpt lat="37.464951" lon="-5.640701">
        <ele>181.065</ele>
        <time>2021-10-12T09:12:31Z</time>
      </trkpt>
      <trkpt lat="37.465147" lon="-5.640746">
        <ele>181.858</ele>
        <time>2021-10-12T09:12:33Z</time>
      </trkpt>
      <trkpt lat="37.465271" lon="-5.640736">
        <ele>181.552</ele>
        <time>2021-10-12T09:12:34Z</time>
      </trkpt>
      <trkpt lat="37.465549" lon="-5.640702">
        <ele>182.617</ele>
        <time>2021-10-12T09:12:36Z</time>
      </trkpt>
      <trkpt lat="37.465688" lon="-5.640684">
        <ele>183.708</ele>
        <time>2021-10-12T09:12:37Z</time>
      </trkpt>
      <trkpt lat="37.465827" lon="-5.640665">
        <ele>184.913</ele>
        <time>2021-10-12T09:12:38Z</time>
      </trkpt>
      <trkpt lat="37.466080" lon="-5.640656">
        <ele>186.991</ele>
        <time>2021-10-12T09:12:40Z</time>
      </trkpt>
      <trkpt lat="37.466207" lon="-5.640682">
        <ele>188.217</ele>
        <time>2021-10-12T09:12:41Z</time>
      </trkpt>
      <trkpt lat="37.466336" lon="-5.640742">
        <ele>190.470</ele>
        <time>2021-10-12T09:12:42Z</time>
      </trkpt>
      <trkpt lat="37.466608" lon="-5.640930">
        <ele>194.936</ele>
        <time>2021-10-12T09:12:44Z</time>
      </trkpt>
      <trkpt lat="37.466898" lon="-5.641109">
        <ele>195.385</ele>
        <time>2021-10-12T09:12:46Z</time>
      </trkpt>
      <trkpt lat="37.467193" lon="-5.641237">
        <ele>197.655</ele>
        <time>2021-10-12T09:12:48Z</time>
      </trkpt>
      <trkpt lat="37.467468" lon="-5.641348">
        <ele>201.146</ele>
        <time>2021-10-12T09:12:50Z</time>
      </trkpt>
      <trkpt lat="37.467712" lon="-5.641443">
        <ele>201.035</ele>
        <time>2021-10-12T09:12:52Z</time>
      </trkpt>
      <trkpt lat="37.467821" lon="-5.641479">
        <ele>200.386</ele>
        <time>2021-10-12T09:12:53Z</time>
      </trkpt>
      <trkpt lat="37.468034" lon="-5.641538">
        <ele>198.714</ele>
        <time>2021-10-12T09:12:55Z</time>
      </trkpt>
      <trkpt lat="37.468154" lon="-5.641560">
        <ele>198.208</ele>
        <time>2021-10-12T09:12:56Z</time>
      </trkpt>
      <trkpt lat="37.468405" lon="-5.641635">
        <ele>198.851</ele>
        <time>2021-10-12T09:12:58Z</time>
      </trkpt>
      <trkpt lat="37.468535" lon="-5.641702">
        <ele>200.579</ele>
        <time>2021-10-12T09:12:59Z</time>
      </trkpt>
      <trkpt lat="37.468663" lon="-5.641778">
        <ele>202.425</ele>
        <time>2021-10-12T09:13:00Z</time>
      </trkpt>
      <trkpt lat="37.468790" lon="-5.641851">
        <ele>203.828</ele>
        <time>2021-10-12T09:13:01Z</time>
      </trkpt>
      <trkpt lat="37.468911" lon="-5.641918">
        <ele>204.554</ele>
        <time>2021-10-12T09:13:02Z</time>
      </trkpt>
      <trkpt lat="37.469131" lon="-5.642043">
        <ele>204.863</ele>
        <time>2021-10-12T09:13:04Z</time>
      </trkpt>
      <trkpt lat="37.469229" lon="-5.642098">
        <ele>204.973</ele>
        <time>2021-10-12T09:13:05Z</time>
      </trkpt>
      <trkpt lat="37.469413" lon="-5.642193">
        <ele>204.924</ele>
        <time>2021-10-12T09:13:07Z</time>
      </trkpt>
      <trkpt lat="37.469501" lon="-5.642228">
        <ele>205.062</ele>
        <time>2021-10-12T09:13:08Z</time>
      </trkpt>
      <trkpt lat="37.469660" lon="-5.642240">
        <ele>205.183</ele>
        <time>2021-10-12T09:13:10Z</time>
      </trkpt>
      <trkpt lat="37.469831" lon="-5.642178">
        <ele>205.311</ele>
        <time>2021-10-12T09:13:12Z</time>
      </trkpt>
      <trkpt lat="37.469983" lon="-5.642079">
        <ele>205.308</ele>
        <time>2021-10-12T09:13:14Z</time>
      </trkpt>
      <trkpt lat="37.470124" lon="-5.641988">
        <ele>205.764</ele>
        <time>2021-10-12T09:13:16Z</time>
      </trkpt>
      <trkpt lat="37.470200" lon="-5.641941">
        <ele>206.182</ele>
        <time>2021-10-12T09:13:17Z</time>
      </trkpt>
      <trkpt lat="37.470339" lon="-5.641861">
        <ele>207.048</ele>
        <time>2021-10-12T09:13:19Z</time>
      </trkpt>
      <trkpt lat="37.470409" lon="-5.641823">
        <ele>207.841</ele>
        <time>2021-10-12T09:13:20Z</time>
      </trkpt>
      <trkpt lat="37.470547" lon="-5.641754">
        <ele>209.587</ele>
        <time>2021-10-12T09:13:22Z</time>
      </trkpt>
      <trkpt lat="37.470616" lon="-5.641735">
        <ele>211.166</ele>
        <time>2021-10-12T09:13:23Z</time>
      </trkpt>
      <trkpt lat="37.470757" lon="-5.641731">
        <ele>214.966</ele>
        <time>2021-10-12T09:13:25Z</time>
      </trkpt>
      <trkpt lat="37.470827" lon="-5.641729">
        <ele>216.857</ele>
        <time>2021-10-12T09:13:26Z</time>
      </trkpt>
      <trkpt lat="37.470931" lon="-5.641715">
        <ele>219.069</ele>
        <time>2021-10-12T09:13:28Z</time>
      </trkpt>
      <trkpt lat="37.470996" lon="-5.641683">
        <ele>220.404</ele>
        <time>2021-10-12T09:13:31Z</time>
      </trkpt>
      <trkpt lat="37.471062" lon="-5.641654">
        <ele>222.024</ele>
        <time>2021-10-12T09:13:33Z</time>
      </trkpt>
      <trkpt lat="37.471112" lon="-5.641633">
        <ele>223.208</ele>
        <time>2021-10-12T09:13:38Z</time>
      </trkpt>
      <trkpt lat="37.471159" lon="-5.641610">
        <ele>223.854</ele>
        <time>2021-10-12T09:13:41Z</time>
      </trkpt>
      <trkpt lat="37.471204" lon="-5.641606">
        <ele>224.152</ele>
        <time>2021-10-12T09:14:05Z</time>
      </trkpt>
      <trkpt lat="37.471202" lon="-5.641665">
        <ele>223.758</ele>
        <time>2021-10-12T09:14:07Z</time>
      </trkpt>
      <trkpt lat="37.471191" lon="-5.641746">
        <ele>222.951</ele>
        <time>2021-10-12T09:14:08Z</time>
      </trkpt>
      <trkpt lat="37.471164" lon="-5.641906">
        <ele>221.567</ele>
        <time>2021-10-12T09:14:10Z</time>
      </trkpt>
      <trkpt lat="37.471149" lon="-5.642051">
        <ele>221.076</ele>
        <time>2021-10-12T09:14:12Z</time>
      </trkpt>
      <trkpt lat="37.471150" lon="-5.642115">
        <ele>221.036</ele>
        <time>2021-10-12T09:14:13Z</time>
      </trkpt>
      <trkpt lat="37.471152" lon="-5.642176">
        <ele>220.997</ele>
        <time>2021-10-12T09:14:14Z</time>
      </trkpt>
      <trkpt lat="37.471148" lon="-5.642312">
        <ele>220.394</ele>
        <time>2021-10-12T09:14:16Z</time>
      </trkpt>
      <trkpt lat="37.471147" lon="-5.642392">
        <ele>219.757</ele>
        <time>2021-10-12T09:14:17Z</time>
      </trkpt>
      <trkpt lat="37.471145" lon="-5.642466">
        <ele>219.222</ele>
        <time>2021-10-12T09:14:18Z</time>
      </trkpt>
      <trkpt lat="37.471142" lon="-5.642532">
        <ele>218.908</ele>
        <time>2021-10-12T09:14:19Z</time>
      </trkpt>
      <trkpt lat="37.471138" lon="-5.642593">
        <ele>218.737</ele>
        <time>2021-10-12T09:14:20Z</time>
      </trkpt>
      <trkpt lat="37.471135" lon="-5.642687">
        <ele>218.325</ele>
        <time>2021-10-12T09:14:22Z</time>
      </trkpt>
      <trkpt lat="37.471125" lon="-5.642785">
        <ele>218.061</ele>
        <time>2021-10-12T09:14:24Z</time>
      </trkpt>
      <trkpt lat="37.471111" lon="-5.642888">
        <ele>218.074</ele>
        <time>2021-10-12T09:14:26Z</time>
      </trkpt>
      <trkpt lat="37.471095" lon="-5.642945">
        <ele>218.040</ele>
        <time>2021-10-12T09:14:28Z</time>
      </trkpt>
      <trkpt lat="37.471079" lon="-5.643009">
        <ele>217.999</ele>
        <time>2021-10-12T09:14:29Z</time>
      </trkpt>
      <trkpt lat="37.471057" lon="-5.643074">
        <ele>217.779</ele>
        <time>2021-10-12T09:14:31Z</time>
      </trkpt>
      <trkpt lat="37.471029" lon="-5.643139">
        <ele>217.090</ele>
        <time>2021-10-12T09:14:33Z</time>
      </trkpt>
      <trkpt lat="37.471008" lon="-5.643190">
        <ele>216.528</ele>
        <time>2021-10-12T09:14:34Z</time>
      </trkpt>
      <trkpt lat="37.470978" lon="-5.643246">
        <ele>215.889</ele>
        <time>2021-10-12T09:14:36Z</time>
      </trkpt>
      <trkpt lat="37.470945" lon="-5.643319">
        <ele>214.917</ele>
        <time>2021-10-12T09:14:37Z</time>
      </trkpt>
      <trkpt lat="37.470919" lon="-5.643371">
        <ele>214.408</ele>
        <time>2021-10-12T09:14:38Z</time>
      </trkpt>
      <trkpt lat="37.470877" lon="-5.643422">
        <ele>213.920</ele>
        <time>2021-10-12T09:14:39Z</time>
      </trkpt>
      <trkpt lat="37.470848" lon="-5.643482">
        <ele>213.598</ele>
        <time>2021-10-12T09:14:41Z</time>
      </trkpt>
      <trkpt lat="37.470828" lon="-5.643545">
        <ele>213.384</ele>
        <time>2021-10-12T09:14:43Z</time>
      </trkpt>
      <trkpt lat="37.470800" lon="-5.643603">
        <ele>213.127</ele>
        <time>2021-10-12T09:14:44Z</time>
      </trkpt>
      <trkpt lat="37.470767" lon="-5.643653">
        <ele>213.313</ele>
        <time>2021-10-12T09:14:46Z</time>
      </trkpt>
      <trkpt lat="37.470732" lon="-5.643716">
        <ele>213.642</ele>
        <time>2021-10-12T09:14:49Z</time>
      </trkpt>
      <trkpt lat="37.470712" lon="-5.643771">
        <ele>213.972</ele>
        <time>2021-10-12T09:14:52Z</time>
      </trkpt>
      <trkpt lat="37.470696" lon="-5.643827">
        <ele>214.363</ele>
        <time>2021-10-12T09:14:55Z</time>
      </trkpt>
      <trkpt lat="37.470695" lon="-5.643888">
        <ele>214.565</ele>
        <time>2021-10-12T09:15:01Z</time>
      </trkpt>
      <trkpt lat="37.470679" lon="-5.643956">
        <ele>215.068</ele>
        <time>2021-10-12T09:15:04Z</time>
      </trkpt>
      <trkpt lat="37.470670" lon="-5.644021">
        <ele>215.414</ele>
        <time>2021-10-12T09:15:06Z</time>
      </trkpt>
      <trkpt lat="37.470654" lon="-5.644089">
        <ele>215.908</ele>
        <time>2021-10-12T09:15:07Z</time>
      </trkpt>
      <trkpt lat="37.470630" lon="-5.644181">
        <ele>216.564</ele>
        <time>2021-10-12T09:15:10Z</time>
      </trkpt>
      <trkpt lat="37.470620" lon="-5.644238">
        <ele>216.642</ele>
        <time>2021-10-12T09:15:14Z</time>
      </trkpt>
      <trkpt lat="37.470634" lon="-5.644328">
        <ele>216.628</ele>
        <time>2021-10-12T09:19:31Z</time>
      </trkpt>
      <trkpt lat="37.470590" lon="-5.644302">
        <ele>216.821</ele>
        <time>2021-10-12T10:00:11Z</time>
      </trkpt>
      <trkpt lat="37.470541" lon="-5.644337">
        <ele>217.227</ele>
        <time>2021-10-12T10:02:54Z</time>
      </trkpt>
      <trkpt lat="37.470517" lon="-5.644400">
        <ele>217.466</ele>
        <time>2021-10-12T10:02:55Z</time>
      </trkpt>
      <trkpt lat="37.470490" lon="-5.644475">
        <ele>217.766</ele>
        <time>2021-10-12T10:02:56Z</time>
      </trkpt>
      <trkpt lat="37.470434" lon="-5.644628">
        <ele>218.057</ele>
        <time>2021-10-12T10:02:58Z</time>
      </trkpt>
      <trkpt lat="37.470406" lon="-5.644700">
        <ele>218.152</ele>
        <time>2021-10-12T10:02:59Z</time>
      </trkpt>
      <trkpt lat="37.470357" lon="-5.644814">
        <ele>219.153</ele>
        <time>2021-10-12T10:03:01Z</time>
      </trkpt>
      <trkpt lat="37.470329" lon="-5.644883">
        <ele>219.808</ele>
        <time>2021-10-12T10:03:03Z</time>
      </trkpt>
      <trkpt lat="37.470303" lon="-5.644959">
        <ele>220.508</ele>
        <time>2021-10-12T10:03:05Z</time>
      </trkpt>
      <trkpt lat="37.470268" lon="-5.645034">
        <ele>221.133</ele>
        <time>2021-10-12T10:03:07Z</time>
      </trkpt>
      <trkpt lat="37.470228" lon="-5.645112">
        <ele>221.471</ele>
        <time>2021-10-12T10:03:09Z</time>
      </trkpt>
      <trkpt lat="37.470167" lon="-5.645163">
        <ele>221.647</ele>
        <time>2021-10-12T10:03:11Z</time>
      </trkpt>
      <trkpt lat="37.470076" lon="-5.645146">
        <ele>221.580</ele>
        <time>2021-10-12T10:03:13Z</time>
      </trkpt>
      <trkpt lat="37.470028" lon="-5.645061">
        <ele>221.286</ele>
        <time>2021-10-12T10:03:15Z</time>
      </trkpt>
      <trkpt lat="37.470039" lon="-5.644965">
        <ele>221.175</ele>
        <time>2021-10-12T10:03:17Z</time>
      </trkpt>
      <trkpt lat="37.470071" lon="-5.644872">
        <ele>221.185</ele>
        <time>2021-10-12T10:03:19Z</time>
      </trkpt>
      <trkpt lat="37.470093" lon="-5.644810">
        <ele>221.086</ele>
        <time>2021-10-12T10:03:20Z</time>
      </trkpt>
      <trkpt lat="37.470116" lon="-5.644744">
        <ele>220.879</ele>
        <time>2021-10-12T10:03:21Z</time>
      </trkpt>
      <trkpt lat="37.470162" lon="-5.644621">
        <ele>220.805</ele>
        <time>2021-10-12T10:03:23Z</time>
      </trkpt>
      <trkpt lat="37.470185" lon="-5.644559">
        <ele>220.825</ele>
        <time>2021-10-12T10:03:24Z</time>
      </trkpt>
      <trkpt lat="37.470227" lon="-5.644444">
        <ele>220.708</ele>
        <time>2021-10-12T10:03:26Z</time>
      </trkpt>
      <trkpt lat="37.470263" lon="-5.644337">
        <ele>220.685</ele>
        <time>2021-10-12T10:03:28Z</time>
      </trkpt>
      <trkpt lat="37.470295" lon="-5.644254">
        <ele>220.593</ele>
        <time>2021-10-12T10:03:30Z</time>
      </trkpt>
      <trkpt lat="37.470325" lon="-5.644162">
        <ele>220.319</ele>
        <time>2021-10-12T10:03:32Z</time>
      </trkpt>
      <trkpt lat="37.470375" lon="-5.644041">
        <ele>218.952</ele>
        <time>2021-10-12T10:03:34Z</time>
      </trkpt>
      <trkpt lat="37.470402" lon="-5.643976">
        <ele>218.188</ele>
        <time>2021-10-12T10:03:35Z</time>
      </trkpt>
      <trkpt lat="37.470450" lon="-5.643864">
        <ele>217.017</ele>
        <time>2021-10-12T10:03:37Z</time>
      </trkpt>
      <trkpt lat="37.470473" lon="-5.643810">
        <ele>216.397</ele>
        <time>2021-10-12T10:03:39Z</time>
      </trkpt>
      <trkpt lat="37.470525" lon="-5.643736">
        <ele>215.268</ele>
        <time>2021-10-12T10:03:42Z</time>
      </trkpt>
      <trkpt lat="37.470582" lon="-5.643705">
        <ele>214.552</ele>
        <time>2021-10-12T10:03:44Z</time>
      </trkpt>
      <trkpt lat="37.470644" lon="-5.643681">
        <ele>214.053</ele>
        <time>2021-10-12T10:03:46Z</time>
      </trkpt>
      <trkpt lat="37.470694" lon="-5.643660">
        <ele>213.708</ele>
        <time>2021-10-12T10:03:48Z</time>
      </trkpt>
      <trkpt lat="37.470748" lon="-5.643608">
        <ele>213.308</ele>
        <time>2021-10-12T10:03:50Z</time>
      </trkpt>
      <trkpt lat="37.470796" lon="-5.643538">
        <ele>213.443</ele>
        <time>2021-10-12T10:03:52Z</time>
      </trkpt>
      <trkpt lat="37.470823" lon="-5.643493">
        <ele>213.521</ele>
        <time>2021-10-12T10:03:53Z</time>
      </trkpt>
      <trkpt lat="37.470863" lon="-5.643419">
        <ele>213.987</ele>
        <time>2021-10-12T10:03:55Z</time>
      </trkpt>
      <trkpt lat="37.470903" lon="-5.643331">
        <ele>214.530</ele>
        <time>2021-10-12T10:03:57Z</time>
      </trkpt>
      <trkpt lat="37.470944" lon="-5.643242">
        <ele>215.776</ele>
        <time>2021-10-12T10:03:59Z</time>
      </trkpt>
      <trkpt lat="37.471003" lon="-5.643145">
        <ele>216.865</ele>
        <time>2021-10-12T10:04:01Z</time>
      </trkpt>
      <trkpt lat="37.471038" lon="-5.643089">
        <ele>217.535</ele>
        <time>2021-10-12T10:04:02Z</time>
      </trkpt>
      <trkpt lat="37.471086" lon="-5.642990">
        <ele>217.946</ele>
        <time>2021-10-12T10:04:04Z</time>
      </trkpt>
      <trkpt lat="37.471110" lon="-5.642907">
        <ele>218.043</ele>
        <time>2021-10-12T10:04:06Z</time>
      </trkpt>
      <trkpt lat="37.471143" lon="-5.642736">
        <ele>218.264</ele>
        <time>2021-10-12T10:04:08Z</time>
      </trkpt>
      <trkpt lat="37.471176" lon="-5.642466">
        <ele>219.210</ele>
        <time>2021-10-12T10:04:10Z</time>
      </trkpt>
      <trkpt lat="37.471173" lon="-5.642164">
        <ele>220.908</ele>
        <time>2021-10-12T10:04:12Z</time>
      </trkpt>
      <trkpt lat="37.471161" lon="-5.641959">
        <ele>221.292</ele>
        <time>2021-10-12T10:04:14Z</time>
      </trkpt>
      <trkpt lat="37.471136" lon="-5.641844">
        <ele>221.820</ele>
        <time>2021-10-12T10:04:16Z</time>
      </trkpt>
      <trkpt lat="37.471126" lon="-5.641773">
        <ele>222.366</ele>
        <time>2021-10-12T10:04:18Z</time>
      </trkpt>
      <trkpt lat="37.471133" lon="-5.641709">
        <ele>222.829</ele>
        <time>2021-10-12T10:04:20Z</time>
      </trkpt>
      <trkpt lat="37.471160" lon="-5.641644">
        <ele>223.555</ele>
        <time>2021-10-12T10:04:22Z</time>
      </trkpt>
      <trkpt lat="37.471182" lon="-5.641580">
        <ele>224.194</ele>
        <time>2021-10-12T10:04:25Z</time>
      </trkpt>
      <trkpt lat="37.471228" lon="-5.641551">
        <ele>224.734</ele>
        <time>2021-10-12T10:04:45Z</time>
      </trkpt>
      <trkpt lat="37.471281" lon="-5.641583">
        <ele>224.815</ele>
        <time>2021-10-12T10:04:47Z</time>
      </trkpt>
      <trkpt lat="37.471335" lon="-5.641604">
        <ele>225.195</ele>
        <time>2021-10-12T10:04:50Z</time>
      </trkpt>
      <trkpt lat="37.471387" lon="-5.641580">
        <ele>225.649</ele>
        <time>2021-10-12T10:04:51Z</time>
      </trkpt>
      <trkpt lat="37.471425" lon="-5.641541">
        <ele>226.423</ele>
        <time>2021-10-12T10:04:52Z</time>
      </trkpt>
      <trkpt lat="37.471455" lon="-5.641464">
        <ele>227.208</ele>
        <time>2021-10-12T10:04:54Z</time>
      </trkpt>
      <trkpt lat="37.471477" lon="-5.641322">
        <ele>228.447</ele>
        <time>2021-10-12T10:04:56Z</time>
      </trkpt>
      <trkpt lat="37.471481" lon="-5.641177">
        <ele>229.345</ele>
        <time>2021-10-12T10:04:58Z</time>
      </trkpt>
      <trkpt lat="37.471477" lon="-5.641120">
        <ele>229.661</ele>
        <time>2021-10-12T10:04:59Z</time>
      </trkpt>
      <trkpt lat="37.471454" lon="-5.641046">
        <ele>229.774</ele>
        <time>2021-10-12T10:05:02Z</time>
      </trkpt>
      <trkpt lat="37.471440" lon="-5.640979">
        <ele>229.840</ele>
        <time>2021-10-12T10:05:04Z</time>
      </trkpt>
      <trkpt lat="37.471419" lon="-5.640922">
        <ele>229.929</ele>
        <time>2021-10-12T10:05:07Z</time>
      </trkpt>
      <trkpt lat="37.471383" lon="-5.640885">
        <ele>229.849</ele>
        <time>2021-10-12T10:05:11Z</time>
      </trkpt>
      <trkpt lat="37.471344" lon="-5.640851">
        <ele>229.810</ele>
        <time>2021-10-12T10:05:14Z</time>
      </trkpt>
      <trkpt lat="37.471298" lon="-5.640855">
        <ele>229.631</ele>
        <time>2021-10-12T10:05:17Z</time>
      </trkpt>
      <trkpt lat="37.471254" lon="-5.640869">
        <ele>229.461</ele>
        <time>2021-10-12T10:05:19Z</time>
      </trkpt>
      <trkpt lat="37.471201" lon="-5.640870">
        <ele>229.207</ele>
        <time>2021-10-12T10:05:24Z</time>
      </trkpt>
      <trkpt lat="37.471151" lon="-5.640876">
        <ele>229.008</ele>
        <time>2021-10-12T10:05:27Z</time>
      </trkpt>
      <trkpt lat="37.471187" lon="-5.640931">
        <ele>228.931</ele>
        <time>2021-10-12T10:05:42Z</time>
      </trkpt>
      <trkpt lat="37.471128" lon="-5.640961">
        <ele>228.699</ele>
        <time>2021-10-12T10:06:17Z</time>
      </trkpt>
      <trkpt lat="37.471158" lon="-5.641046">
        <ele>228.475</ele>
        <time>2021-10-12T10:06:24Z</time>
      </trkpt>
      <trkpt lat="37.471211" lon="-5.641138">
        <ele>228.178</ele>
        <time>2021-10-12T10:06:25Z</time>
      </trkpt>
      <trkpt lat="37.471235" lon="-5.641207">
        <ele>227.624</ele>
        <time>2021-10-12T10:06:27Z</time>
      </trkpt>
      <trkpt lat="37.471255" lon="-5.641287">
        <ele>226.973</ele>
        <time>2021-10-12T10:06:29Z</time>
      </trkpt>
      <trkpt lat="37.471241" lon="-5.641356">
        <ele>226.263</ele>
        <time>2021-10-12T10:06:32Z</time>
      </trkpt>
      <trkpt lat="37.471186" lon="-5.641322">
        <ele>226.264</ele>
        <time>2021-10-12T10:06:36Z</time>
      </trkpt>
      <trkpt lat="37.471146" lon="-5.641291">
        <ele>226.363</ele>
        <time>2021-10-12T10:06:37Z</time>
      </trkpt>
      <trkpt lat="37.471171" lon="-5.641239">
        <ele>226.944</ele>
        <time>2021-10-12T10:07:14Z</time>
      </trkpt>
      <trkpt lat="37.471204" lon="-5.641175">
        <ele>227.718</ele>
        <time>2021-10-12T10:07:35Z</time>
      </trkpt>
      <trkpt lat="37.471058" lon="-5.641207">
        <ele>226.008</ele>
        <time>2021-10-12T10:07:58Z</time>
      </trkpt>
      <trkpt lat="37.471169" lon="-5.641089">
        <ele>228.384</ele>
        <time>2021-10-12T10:08:02Z</time>
      </trkpt>
      <trkpt lat="37.471208" lon="-5.641118">
        <ele>228.362</ele>
        <time>2021-10-12T10:08:04Z</time>
      </trkpt>
      <trkpt lat="37.471196" lon="-5.641173">
        <ele>227.758</ele>
        <time>2021-10-12T10:08:42Z</time>
      </trkpt>
      <trkpt lat="37.471151" lon="-5.641182">
        <ele>227.471</ele>
        <time>2021-10-12T10:08:51Z</time>
      </trkpt>
      <trkpt lat="37.471100" lon="-5.641168">
        <ele>227.227</ele>
        <time>2021-10-12T10:08:54Z</time>
      </trkpt>
      <trkpt lat="37.471087" lon="-5.641112">
        <ele>227.666</ele>
        <time>2021-10-12T10:08:58Z</time>
      </trkpt>
      <trkpt lat="37.471089" lon="-5.641050">
        <ele>227.856</ele>
        <time>2021-10-12T10:09:00Z</time>
      </trkpt>
      <trkpt lat="37.471137" lon="-5.641027">
        <ele>228.437</ele>
        <time>2021-10-12T10:09:06Z</time>
      </trkpt>
      <trkpt lat="37.471172" lon="-5.640987">
        <ele>228.764</ele>
        <time>2021-10-12T10:09:10Z</time>
      </trkpt>
      <trkpt lat="37.471227" lon="-5.641012">
        <ele>228.806</ele>
        <time>2021-10-12T10:09:46Z</time>
      </trkpt>
      <trkpt lat="37.471234" lon="-5.641087">
        <ele>228.516</ele>
        <time>2021-10-12T10:09:48Z</time>
      </trkpt>
      <trkpt lat="37.471198" lon="-5.641017">
        <ele>228.708</ele>
        <time>2021-10-12T10:09:54Z</time>
      </trkpt>
      <trkpt lat="37.471191" lon="-5.640952">
        <ele>228.914</ele>
        <time>2021-10-12T10:11:14Z</time>
      </trkpt>
      <trkpt lat="37.471183" lon="-5.640896">
        <ele>229.062</ele>
        <time>2021-10-12T10:11:15Z</time>
      </trkpt>
      <trkpt lat="37.471142" lon="-5.640866">
        <ele>229.068</ele>
        <time>2021-10-12T10:11:19Z</time>
      </trkpt>
      <trkpt lat="37.471107" lon="-5.640902">
        <ele>228.771</ele>
        <time>2021-10-12T10:11:42Z</time>
      </trkpt>
      <trkpt lat="37.471102" lon="-5.640966">
        <ele>228.447</ele>
        <time>2021-10-12T10:11:50Z</time>
      </trkpt>
      <trkpt lat="37.471134" lon="-5.641006">
        <ele>228.576</ele>
        <time>2021-10-12T10:11:52Z</time>
      </trkpt>
      <trkpt lat="37.471162" lon="-5.641059">
        <ele>228.456</ele>
        <time>2021-10-12T10:11:55Z</time>
      </trkpt>
      <trkpt lat="37.471171" lon="-5.641115">
        <ele>228.217</ele>
        <time>2021-10-12T10:12:16Z</time>
      </trkpt>
      <trkpt lat="37.471185" lon="-5.641177">
        <ele>227.622</ele>
        <time>2021-10-12T10:12:32Z</time>
      </trkpt>
      <trkpt lat="37.471193" lon="-5.641268">
        <ele>226.862</ele>
        <time>2021-10-12T10:12:34Z</time>
      </trkpt>
      <trkpt lat="37.471195" lon="-5.641338">
        <ele>226.108</ele>
        <time>2021-10-12T10:12:37Z</time>
      </trkpt>
      <trkpt lat="37.471182" lon="-5.641410">
        <ele>225.408</ele>
        <time>2021-10-12T10:12:41Z</time>
      </trkpt>
      <trkpt lat="37.471205" lon="-5.641500">
        <ele>224.940</ele>
        <time>2021-10-12T10:12:43Z</time>
      </trkpt>
      <trkpt lat="37.471208" lon="-5.641596">
        <ele>224.268</ele>
        <time>2021-10-12T10:12:45Z</time>
      </trkpt>
      <trkpt lat="37.471222" lon="-5.641679">
        <ele>223.734</ele>
        <time>2021-10-12T10:12:57Z</time>
      </trkpt>
      <trkpt lat="37.471275" lon="-5.641700">
        <ele>223.917</ele>
        <time>2021-10-12T10:12:59Z</time>
      </trkpt>
      <trkpt lat="37.471364" lon="-5.641711">
        <ele>224.483</ele>
        <time>2021-10-12T10:13:01Z</time>
      </trkpt>
      <trkpt lat="37.471417" lon="-5.641732">
        <ele>224.732</ele>
        <time>2021-10-12T10:13:02Z</time>
      </trkpt>
      <trkpt lat="37.471518" lon="-5.641815">
        <ele>225.092</ele>
        <time>2021-10-12T10:13:04Z</time>
      </trkpt>
      <trkpt lat="37.471574" lon="-5.641862">
        <ele>225.153</ele>
        <time>2021-10-12T10:13:05Z</time>
      </trkpt>
      <trkpt lat="37.471628" lon="-5.641902">
        <ele>225.214</ele>
        <time>2021-10-12T10:13:06Z</time>
      </trkpt>
      <trkpt lat="37.471723" lon="-5.641942">
        <ele>225.454</ele>
        <time>2021-10-12T10:13:08Z</time>
      </trkpt>
      <trkpt lat="37.471790" lon="-5.641974">
        <ele>225.509</ele>
        <time>2021-10-12T10:13:10Z</time>
      </trkpt>
      <trkpt lat="37.471858" lon="-5.642021">
        <ele>225.508</ele>
        <time>2021-10-12T10:13:12Z</time>
      </trkpt>
      <trkpt lat="37.471919" lon="-5.642065">
        <ele>225.569</ele>
        <time>2021-10-12T10:13:14Z</time>
      </trkpt>
      <trkpt lat="37.471958" lon="-5.642096">
        <ele>225.417</ele>
        <time>2021-10-12T10:13:16Z</time>
      </trkpt>
      <trkpt lat="37.472008" lon="-5.642135">
        <ele>225.243</ele>
        <time>2021-10-12T10:13:20Z</time>
      </trkpt>
      <trkpt lat="37.472060" lon="-5.642170">
        <ele>225.086</ele>
        <time>2021-10-12T10:13:23Z</time>
      </trkpt>
      <trkpt lat="37.472134" lon="-5.642212">
        <ele>224.852</ele>
        <time>2021-10-12T10:13:25Z</time>
      </trkpt>
      <trkpt lat="37.472225" lon="-5.642252">
        <ele>224.781</ele>
        <time>2021-10-12T10:13:27Z</time>
      </trkpt>
      <trkpt lat="37.472279" lon="-5.642271">
        <ele>224.511</ele>
        <time>2021-10-12T10:13:28Z</time>
      </trkpt>
      <trkpt lat="37.472362" lon="-5.642292">
        <ele>224.242</ele>
        <time>2021-10-12T10:13:30Z</time>
      </trkpt>
      <trkpt lat="37.472427" lon="-5.642303">
        <ele>224.158</ele>
        <time>2021-10-12T10:13:32Z</time>
      </trkpt>
      <trkpt lat="37.472481" lon="-5.642315">
        <ele>224.052</ele>
        <time>2021-10-12T10:13:34Z</time>
      </trkpt>
      <trkpt lat="37.472544" lon="-5.642328">
        <ele>223.817</ele>
        <time>2021-10-12T10:13:36Z</time>
      </trkpt>
      <trkpt lat="37.472602" lon="-5.642336">
        <ele>223.708</ele>
        <time>2021-10-12T10:13:37Z</time>
      </trkpt>
      <trkpt lat="37.472649" lon="-5.642346">
        <ele>223.643</ele>
        <time>2021-10-12T10:13:39Z</time>
      </trkpt>
      <trkpt lat="37.472708" lon="-5.642351">
        <ele>223.651</ele>
        <time>2021-10-12T10:13:42Z</time>
      </trkpt>
      <trkpt lat="37.472756" lon="-5.642356">
        <ele>223.597</ele>
        <time>2021-10-12T10:13:43Z</time>
      </trkpt>
      <trkpt lat="37.472818" lon="-5.642363">
        <ele>223.350</ele>
        <time>2021-10-12T10:13:45Z</time>
      </trkpt>
      <trkpt lat="37.472890" lon="-5.642365">
        <ele>223.146</ele>
        <time>2021-10-12T10:13:47Z</time>
      </trkpt>
      <trkpt lat="37.472958" lon="-5.642364">
        <ele>222.845</ele>
        <time>2021-10-12T10:13:48Z</time>
      </trkpt>
      <trkpt lat="37.473003" lon="-5.642344">
        <ele>222.995</ele>
        <time>2021-10-12T10:13:50Z</time>
      </trkpt>
      <trkpt lat="37.473110" lon="-5.642385">
        <ele>221.846</ele>
        <time>2021-10-12T10:13:52Z</time>
      </trkpt>
      <trkpt lat="37.473164" lon="-5.642396">
        <ele>221.221</ele>
        <time>2021-10-12T10:13:53Z</time>
      </trkpt>
      <trkpt lat="37.473218" lon="-5.642401">
        <ele>220.741</ele>
        <time>2021-10-12T10:13:54Z</time>
      </trkpt>
      <trkpt lat="37.473322" lon="-5.642413">
        <ele>219.705</ele>
        <time>2021-10-12T10:13:56Z</time>
      </trkpt>
      <trkpt lat="37.473412" lon="-5.642426">
        <ele>219.908</ele>
        <time>2021-10-12T10:13:58Z</time>
      </trkpt>
      <trkpt lat="37.473464" lon="-5.642434">
        <ele>220.290</ele>
        <time>2021-10-12T10:13:59Z</time>
      </trkpt>
      <trkpt lat="37.473518" lon="-5.642442">
        <ele>220.538</ele>
        <time>2021-10-12T10:14:00Z</time>
      </trkpt>
      <trkpt lat="37.473596" lon="-5.642472">
        <ele>220.914</ele>
        <time>2021-10-12T10:14:02Z</time>
      </trkpt>
      <trkpt lat="37.473700" lon="-5.642518">
        <ele>220.857</ele>
        <time>2021-10-12T10:14:04Z</time>
      </trkpt>
      <trkpt lat="37.473745" lon="-5.642533">
        <ele>220.613</ele>
        <time>2021-10-12T10:14:05Z</time>
      </trkpt>
      <trkpt lat="37.473800" lon="-5.642557">
        <ele>220.512</ele>
        <time>2021-10-12T10:14:07Z</time>
      </trkpt>
      <trkpt lat="37.473851" lon="-5.642581">
        <ele>220.392</ele>
        <time>2021-10-12T10:14:08Z</time>
      </trkpt>
      <trkpt lat="37.473889" lon="-5.642647">
        <ele>219.993</ele>
        <time>2021-10-12T10:14:10Z</time>
      </trkpt>
      <trkpt lat="37.473897" lon="-5.642721">
        <ele>219.458</ele>
        <time>2021-10-12T10:14:12Z</time>
      </trkpt>
      <trkpt lat="37.473894" lon="-5.642790">
        <ele>218.852</ele>
        <time>2021-10-12T10:14:13Z</time>
      </trkpt>
      <trkpt lat="37.473874" lon="-5.642891">
        <ele>216.917</ele>
        <time>2021-10-12T10:14:15Z</time>
      </trkpt>
      <trkpt lat="37.473830" lon="-5.643041">
        <ele>214.208</ele>
        <time>2021-10-12T10:14:17Z</time>
      </trkpt>
      <trkpt lat="37.473780" lon="-5.643217">
        <ele>212.813</ele>
        <time>2021-10-12T10:14:19Z</time>
      </trkpt>
      <trkpt lat="37.473754" lon="-5.643308">
        <ele>212.281</ele>
        <time>2021-10-12T10:14:20Z</time>
      </trkpt>
      <trkpt lat="37.473695" lon="-5.643480">
        <ele>210.927</ele>
        <time>2021-10-12T10:14:22Z</time>
      </trkpt>
      <trkpt lat="37.473663" lon="-5.643561">
        <ele>210.480</ele>
        <time>2021-10-12T10:14:23Z</time>
      </trkpt>
      <trkpt lat="37.473601" lon="-5.643711">
        <ele>209.666</ele>
        <time>2021-10-12T10:14:25Z</time>
      </trkpt>
      <trkpt lat="37.473569" lon="-5.643778">
        <ele>209.235</ele>
        <time>2021-10-12T10:14:26Z</time>
      </trkpt>
      <trkpt lat="37.473515" lon="-5.643897">
        <ele>208.635</ele>
        <time>2021-10-12T10:14:28Z</time>
      </trkpt>
      <trkpt lat="37.473464" lon="-5.644035">
        <ele>207.936</ele>
        <time>2021-10-12T10:14:30Z</time>
      </trkpt>
      <trkpt lat="37.473444" lon="-5.644191">
        <ele>207.472</ele>
        <time>2021-10-12T10:14:32Z</time>
      </trkpt>
      <trkpt lat="37.473484" lon="-5.644337">
        <ele>207.213</ele>
        <time>2021-10-12T10:14:34Z</time>
      </trkpt>
      <trkpt lat="37.473574" lon="-5.644494">
        <ele>207.014</ele>
        <time>2021-10-12T10:14:36Z</time>
      </trkpt>
      <trkpt lat="37.473691" lon="-5.644655">
        <ele>207.408</ele>
        <time>2021-10-12T10:14:38Z</time>
      </trkpt>
      <trkpt lat="37.473809" lon="-5.644821">
        <ele>206.835</ele>
        <time>2021-10-12T10:14:40Z</time>
      </trkpt>
      <trkpt lat="37.473867" lon="-5.644901">
        <ele>206.133</ele>
        <time>2021-10-12T10:14:41Z</time>
      </trkpt>
      <trkpt lat="37.473971" lon="-5.645046">
        <ele>204.589</ele>
        <time>2021-10-12T10:14:43Z</time>
      </trkpt>
      <trkpt lat="37.474026" lon="-5.645121">
        <ele>203.772</ele>
        <time>2021-10-12T10:14:44Z</time>
      </trkpt>
      <trkpt lat="37.474141" lon="-5.645285">
        <ele>201.988</ele>
        <time>2021-10-12T10:14:46Z</time>
      </trkpt>
      <trkpt lat="37.474206" lon="-5.645378">
        <ele>201.547</ele>
        <time>2021-10-12T10:14:47Z</time>
      </trkpt>
      <trkpt lat="37.474270" lon="-5.645473">
        <ele>201.287</ele>
        <time>2021-10-12T10:14:48Z</time>
      </trkpt>
      <trkpt lat="37.474385" lon="-5.645644">
        <ele>201.548</ele>
        <time>2021-10-12T10:14:50Z</time>
      </trkpt>
      <trkpt lat="37.474486" lon="-5.645786">
        <ele>202.296</ele>
        <time>2021-10-12T10:14:52Z</time>
      </trkpt>
      <trkpt lat="37.474538" lon="-5.645859">
        <ele>202.331</ele>
        <time>2021-10-12T10:14:53Z</time>
      </trkpt>
      <trkpt lat="37.474592" lon="-5.645937">
        <ele>202.424</ele>
        <time>2021-10-12T10:14:54Z</time>
      </trkpt>
      <trkpt lat="37.474707" lon="-5.646115">
        <ele>202.908</ele>
        <time>2021-10-12T10:14:56Z</time>
      </trkpt>
      <trkpt lat="37.474823" lon="-5.646301">
        <ele>203.087</ele>
        <time>2021-10-12T10:14:58Z</time>
      </trkpt>
      <trkpt lat="37.474916" lon="-5.646499">
        <ele>202.675</ele>
        <time>2021-10-12T10:15:00Z</time>
      </trkpt>
      <trkpt lat="37.474950" lon="-5.646592">
        <ele>202.351</ele>
        <time>2021-10-12T10:15:01Z</time>
      </trkpt>
      <trkpt lat="37.474983" lon="-5.646683">
        <ele>202.034</ele>
        <time>2021-10-12T10:15:02Z</time>
      </trkpt>
      <trkpt lat="37.475050" lon="-5.646841">
        <ele>201.810</ele>
        <time>2021-10-12T10:15:04Z</time>
      </trkpt>
      <trkpt lat="37.475097" lon="-5.646934">
        <ele>201.749</ele>
        <time>2021-10-12T10:15:05Z</time>
      </trkpt>
      <trkpt lat="37.475153" lon="-5.647033">
        <ele>201.059</ele>
        <time>2021-10-12T10:15:06Z</time>
      </trkpt>
      <trkpt lat="37.475210" lon="-5.647132">
        <ele>200.420</ele>
        <time>2021-10-12T10:15:07Z</time>
      </trkpt>
      <trkpt lat="37.475265" lon="-5.647231">
        <ele>200.052</ele>
        <time>2021-10-12T10:15:08Z</time>
      </trkpt>
      <trkpt lat="37.475366" lon="-5.647401">
        <ele>199.253</ele>
        <time>2021-10-12T10:15:10Z</time>
      </trkpt>
      <trkpt lat="37.475412" lon="-5.647479">
        <ele>198.608</ele>
        <time>2021-10-12T10:15:11Z</time>
      </trkpt>
      <trkpt lat="37.475456" lon="-5.647553">
        <ele>198.208</ele>
        <time>2021-10-12T10:15:12Z</time>
      </trkpt>
      <trkpt lat="37.475540" lon="-5.647689">
        <ele>197.463</ele>
        <time>2021-10-12T10:15:14Z</time>
      </trkpt>
      <trkpt lat="37.475616" lon="-5.647803">
        <ele>196.851</ele>
        <time>2021-10-12T10:15:16Z</time>
      </trkpt>
      <trkpt lat="37.475653" lon="-5.647855">
        <ele>196.787</ele>
        <time>2021-10-12T10:15:18Z</time>
      </trkpt>
      <trkpt lat="37.475688" lon="-5.647905">
        <ele>196.560</ele>
        <time>2021-10-12T10:15:22Z</time>
      </trkpt>
      <trkpt lat="37.475741" lon="-5.647975">
        <ele>196.116</ele>
        <time>2021-10-12T10:15:26Z</time>
      </trkpt>
      <trkpt lat="37.475809" lon="-5.648050">
        <ele>195.395</ele>
        <time>2021-10-12T10:15:28Z</time>
      </trkpt>
      <trkpt lat="37.475863" lon="-5.648092">
        <ele>195.015</ele>
        <time>2021-10-12T10:15:30Z</time>
      </trkpt>
      <trkpt lat="37.475915" lon="-5.648101">
        <ele>195.066</ele>
        <time>2021-10-12T10:15:33Z</time>
      </trkpt>
      <trkpt lat="37.475963" lon="-5.648102">
        <ele>195.055</ele>
        <time>2021-10-12T10:15:39Z</time>
      </trkpt>
      <trkpt lat="37.476022" lon="-5.648118">
        <ele>195.007</ele>
        <time>2021-10-12T10:15:41Z</time>
      </trkpt>
      <trkpt lat="37.476111" lon="-5.648151">
        <ele>195.017</ele>
        <time>2021-10-12T10:15:43Z</time>
      </trkpt>
      <trkpt lat="37.476155" lon="-5.648187">
        <ele>195.208</ele>
        <time>2021-10-12T10:15:44Z</time>
      </trkpt>
      <trkpt lat="37.476209" lon="-5.648307">
        <ele>195.453</ele>
        <time>2021-10-12T10:15:46Z</time>
      </trkpt>
      <trkpt lat="37.476223" lon="-5.648395">
        <ele>195.241</ele>
        <time>2021-10-12T10:15:47Z</time>
      </trkpt>
      <trkpt lat="37.476230" lon="-5.648489">
        <ele>194.967</ele>
        <time>2021-10-12T10:15:48Z</time>
      </trkpt>
      <trkpt lat="37.476278" lon="-5.648673">
        <ele>194.430</ele>
        <time>2021-10-12T10:15:50Z</time>
      </trkpt>
      <trkpt lat="37.476405" lon="-5.648840">
        <ele>194.186</ele>
        <time>2021-10-12T10:15:52Z</time>
      </trkpt>
      <trkpt lat="37.476586" lon="-5.649002">
        <ele>192.965</ele>
        <time>2021-10-12T10:15:54Z</time>
      </trkpt>
      <trkpt lat="37.476764" lon="-5.649154">
        <ele>191.795</ele>
        <time>2021-10-12T10:15:56Z</time>
      </trkpt>
      <trkpt lat="37.476908" lon="-5.649280">
        <ele>190.886</ele>
        <time>2021-10-12T10:15:58Z</time>
      </trkpt>
      <trkpt lat="37.476974" lon="-5.649341">
        <ele>190.473</ele>
        <time>2021-10-12T10:15:59Z</time>
      </trkpt>
      <trkpt lat="37.477046" lon="-5.649407">
        <ele>190.185</ele>
        <time>2021-10-12T10:16:00Z</time>
      </trkpt>
      <trkpt lat="37.477204" lon="-5.649559">
        <ele>190.013</ele>
        <time>2021-10-12T10:16:02Z</time>
      </trkpt>
      <trkpt lat="37.477370" lon="-5.649716">
        <ele>189.508</ele>
        <time>2021-10-12T10:16:04Z</time>
      </trkpt>
      <trkpt lat="37.477456" lon="-5.649801">
        <ele>189.215</ele>
        <time>2021-10-12T10:16:05Z</time>
      </trkpt>
      <trkpt lat="37.477537" lon="-5.649885">
        <ele>189.023</ele>
        <time>2021-10-12T10:16:06Z</time>
      </trkpt>
      <trkpt lat="37.477688" lon="-5.650046">
        <ele>188.969</ele>
        <time>2021-10-12T10:16:08Z</time>
      </trkpt>
      <trkpt lat="37.477824" lon="-5.650212">
        <ele>188.152</ele>
        <time>2021-10-12T10:16:10Z</time>
      </trkpt>
      <trkpt lat="37.477958" lon="-5.650410">
        <ele>186.928</ele>
        <time>2021-10-12T10:16:12Z</time>
      </trkpt>
      <trkpt lat="37.478119" lon="-5.650615">
        <ele>185.897</ele>
        <time>2021-10-12T10:16:14Z</time>
      </trkpt>
      <trkpt lat="37.478285" lon="-5.650812">
        <ele>185.127</ele>
        <time>2021-10-12T10:16:16Z</time>
      </trkpt>
      <trkpt lat="37.478435" lon="-5.650991">
        <ele>184.688</ele>
        <time>2021-10-12T10:16:18Z</time>
      </trkpt>
      <trkpt lat="37.478580" lon="-5.651144">
        <ele>183.811</ele>
        <time>2021-10-12T10:16:20Z</time>
      </trkpt>
      <trkpt lat="37.478720" lon="-5.651273">
        <ele>183.621</ele>
        <time>2021-10-12T10:16:22Z</time>
      </trkpt>
      <trkpt lat="37.478788" lon="-5.651328">
        <ele>183.703</ele>
        <time>2021-10-12T10:16:23Z</time>
      </trkpt>
      <trkpt lat="37.478917" lon="-5.651415">
        <ele>184.108</ele>
        <time>2021-10-12T10:16:25Z</time>
      </trkpt>
      <trkpt lat="37.478980" lon="-5.651451">
        <ele>184.439</ele>
        <time>2021-10-12T10:16:26Z</time>
      </trkpt>
      <trkpt lat="37.479087" lon="-5.651518">
        <ele>185.037</ele>
        <time>2021-10-12T10:16:28Z</time>
      </trkpt>
      <trkpt lat="37.479197" lon="-5.651591">
        <ele>185.323</ele>
        <time>2021-10-12T10:16:30Z</time>
      </trkpt>
      <trkpt lat="37.479322" lon="-5.651666">
        <ele>185.016</ele>
        <time>2021-10-12T10:16:32Z</time>
      </trkpt>
      <trkpt lat="37.479439" lon="-5.651719">
        <ele>184.892</ele>
        <time>2021-10-12T10:16:34Z</time>
      </trkpt>
      <trkpt lat="37.479500" lon="-5.651720">
        <ele>184.881</ele>
        <time>2021-10-12T10:16:35Z</time>
      </trkpt>
      <trkpt lat="37.479602" lon="-5.651654">
        <ele>185.041</ele>
        <time>2021-10-12T10:16:37Z</time>
      </trkpt>
      <trkpt lat="37.479633" lon="-5.651599">
        <ele>185.182</ele>
        <time>2021-10-12T10:16:38Z</time>
      </trkpt>
      <trkpt lat="37.479676" lon="-5.651487">
        <ele>185.133</ele>
        <time>2021-10-12T10:16:40Z</time>
      </trkpt>
      <trkpt lat="37.479676" lon="-5.651385">
        <ele>185.223</ele>
        <time>2021-10-12T10:16:42Z</time>
      </trkpt>
      <trkpt lat="37.479659" lon="-5.651325">
        <ele>185.215</ele>
        <time>2021-10-12T10:16:43Z</time>
      </trkpt>
      <trkpt lat="37.479639" lon="-5.651242">
        <ele>185.308</ele>
        <time>2021-10-12T10:16:45Z</time>
      </trkpt>
      <trkpt lat="37.479623" lon="-5.651182">
        <ele>185.441</ele>
        <time>2021-10-12T10:16:47Z</time>
      </trkpt>
      <trkpt lat="37.479639" lon="-5.651126">
        <ele>185.359</ele>
        <time>2021-10-12T10:16:53Z</time>
      </trkpt>
      <trkpt lat="37.479598" lon="-5.651178">
        <ele>185.425</ele>
        <time>2021-10-12T10:19:38Z</time>
      </trkpt>
      <trkpt lat="37.479637" lon="-5.651146">
        <ele>185.318</ele>
        <time>2021-10-12T10:20:12Z</time>
      </trkpt>
      <trkpt lat="37.479657" lon="-5.651090">
        <ele>185.234</ele>
        <time>2021-10-12T10:22:25Z</time>
      </trkpt>
      <trkpt lat="37.479678" lon="-5.651030">
        <ele>185.293</ele>
        <time>2021-10-12T10:22:27Z</time>
      </trkpt>
      <trkpt lat="37.479706" lon="-5.650978">
        <ele>185.143</ele>
        <time>2021-10-12T10:22:29Z</time>
      </trkpt>
      <trkpt lat="37.479748" lon="-5.650922">
        <ele>184.964</ele>
        <time>2021-10-12T10:22:32Z</time>
      </trkpt>
      <trkpt lat="37.479789" lon="-5.650950">
        <ele>184.818</ele>
        <time>2021-10-12T10:22:39Z</time>
      </trkpt>
      <trkpt lat="37.479706" lon="-5.651082">
        <ele>185.198</ele>
        <time>2021-10-12T10:22:49Z</time>
      </trkpt>
      <trkpt lat="37.479660" lon="-5.651141">
        <ele>185.217</ele>
        <time>2021-10-12T10:22:50Z</time>
      </trkpt>
      <trkpt lat="37.479598" lon="-5.651130">
        <ele>185.408</ele>
        <time>2021-10-12T10:22:58Z</time>
      </trkpt>
      <trkpt lat="37.479674" lon="-5.651100">
        <ele>185.299</ele>
        <time>2021-10-12T10:25:09Z</time>
      </trkpt>
      <trkpt lat="37.479738" lon="-5.651081">
        <ele>184.957</ele>
        <time>2021-10-12T10:25:11Z</time>
      </trkpt>
      <trkpt lat="37.479787" lon="-5.651081">
        <ele>184.833</ele>
        <time>2021-10-12T10:25:29Z</time>
      </trkpt>
      <trkpt lat="37.479853" lon="-5.651065">
        <ele>184.516</ele>
        <time>2021-10-12T10:25:31Z</time>
      </trkpt>
      <trkpt lat="37.479920" lon="-5.651002">
        <ele>184.322</ele>
        <time>2021-10-12T10:25:33Z</time>
      </trkpt>
      <trkpt lat="37.479959" lon="-5.650941">
        <ele>184.171</ele>
        <time>2021-10-12T10:25:34Z</time>
      </trkpt>
      <trkpt lat="37.480001" lon="-5.650869">
        <ele>184.061</ele>
        <time>2021-10-12T10:25:35Z</time>
      </trkpt>
      <trkpt lat="37.480047" lon="-5.650795">
        <ele>184.192</ele>
        <time>2021-10-12T10:25:36Z</time>
      </trkpt>
      <trkpt lat="37.480096" lon="-5.650730">
        <ele>184.226</ele>
        <time>2021-10-12T10:25:37Z</time>
      </trkpt>
      <trkpt lat="37.480146" lon="-5.650684">
        <ele>184.347</ele>
        <time>2021-10-12T10:25:38Z</time>
      </trkpt>
      <trkpt lat="37.480242" lon="-5.650644">
        <ele>184.111</ele>
        <time>2021-10-12T10:25:40Z</time>
      </trkpt>
      <trkpt lat="37.480316" lon="-5.650649">
        <ele>184.008</ele>
        <time>2021-10-12T10:25:42Z</time>
      </trkpt>
      <trkpt lat="37.480361" lon="-5.650682">
        <ele>183.910</ele>
        <time>2021-10-12T10:25:43Z</time>
      </trkpt>
      <trkpt lat="37.480386" lon="-5.650733">
        <ele>183.868</ele>
        <time>2021-10-12T10:25:44Z</time>
      </trkpt>
      <trkpt lat="37.480403" lon="-5.650885">
        <ele>183.414</ele>
        <time>2021-10-12T10:25:46Z</time>
      </trkpt>
      <trkpt lat="37.480384" lon="-5.650979">
        <ele>183.367</ele>
        <time>2021-10-12T10:25:47Z</time>
      </trkpt>
      <trkpt lat="37.480302" lon="-5.651163">
        <ele>183.253</ele>
        <time>2021-10-12T10:25:49Z</time>
      </trkpt>
      <trkpt lat="37.480247" lon="-5.651267">
        <ele>183.612</ele>
        <time>2021-10-12T10:25:50Z</time>
      </trkpt>
      <trkpt lat="37.480125" lon="-5.651488">
        <ele>184.042</ele>
        <time>2021-10-12T10:25:52Z</time>
      </trkpt>
      <trkpt lat="37.480006" lon="-5.651707">
        <ele>184.053</ele>
        <time>2021-10-12T10:25:54Z</time>
      </trkpt>
      <trkpt lat="37.479960" lon="-5.651800">
        <ele>184.111</ele>
        <time>2021-10-12T10:25:55Z</time>
      </trkpt>
      <trkpt lat="37.479920" lon="-5.651882">
        <ele>184.121</ele>
        <time>2021-10-12T10:25:56Z</time>
      </trkpt>
      <trkpt lat="37.479868" lon="-5.652059">
        <ele>184.003</ele>
        <time>2021-10-12T10:25:58Z</time>
      </trkpt>
      <trkpt lat="37.479858" lon="-5.652178">
        <ele>184.008</ele>
        <time>2021-10-12T10:25:59Z</time>
      </trkpt>
      <trkpt lat="37.479902" lon="-5.652423">
        <ele>183.579</ele>
        <time>2021-10-12T10:26:01Z</time>
      </trkpt>
      <trkpt lat="37.479952" lon="-5.652546">
        <ele>183.537</ele>
        <time>2021-10-12T10:26:02Z</time>
      </trkpt>
      <trkpt lat="37.480071" lon="-5.652779">
        <ele>183.283</ele>
        <time>2021-10-12T10:26:04Z</time>
      </trkpt>
      <trkpt lat="37.480128" lon="-5.652914">
        <ele>182.726</ele>
        <time>2021-10-12T10:26:05Z</time>
      </trkpt>
      <trkpt lat="37.480220" lon="-5.653207">
        <ele>182.062</ele>
        <time>2021-10-12T10:26:07Z</time>
      </trkpt>
      <trkpt lat="37.480256" lon="-5.653367">
        <ele>182.051</ele>
        <time>2021-10-12T10:26:08Z</time>
      </trkpt>
      <trkpt lat="37.480304" lon="-5.653683">
        <ele>182.951</ele>
        <time>2021-10-12T10:26:10Z</time>
      </trkpt>
      <trkpt lat="37.480328" lon="-5.653834">
        <ele>182.522</ele>
        <time>2021-10-12T10:26:11Z</time>
      </trkpt>
      <trkpt lat="37.480360" lon="-5.653973">
        <ele>182.458</ele>
        <time>2021-10-12T10:26:12Z</time>
      </trkpt>
      <trkpt lat="37.480441" lon="-5.654222">
        <ele>181.852</ele>
        <time>2021-10-12T10:26:14Z</time>
      </trkpt>
      <trkpt lat="37.480541" lon="-5.654440">
        <ele>181.017</ele>
        <time>2021-10-12T10:26:16Z</time>
      </trkpt>
      <trkpt lat="37.480609" lon="-5.654568">
        <ele>179.908</ele>
        <time>2021-10-12T10:26:17Z</time>
      </trkpt>
      <trkpt lat="37.480689" lon="-5.654710">
        <ele>178.653</ele>
        <time>2021-10-12T10:26:18Z</time>
      </trkpt>
      <trkpt lat="37.480875" lon="-5.655022">
        <ele>173.631</ele>
        <time>2021-10-12T10:26:20Z</time>
      </trkpt>
      <trkpt lat="37.481055" lon="-5.655304">
        <ele>170.977</ele>
        <time>2021-10-12T10:26:22Z</time>
      </trkpt>
      <trkpt lat="37.481139" lon="-5.655439">
        <ele>171.820</ele>
        <time>2021-10-12T10:26:23Z</time>
      </trkpt>
      <trkpt lat="37.481217" lon="-5.655570">
        <ele>172.766</ele>
        <time>2021-10-12T10:26:24Z</time>
      </trkpt>
      <trkpt lat="37.481376" lon="-5.655822">
        <ele>173.015</ele>
        <time>2021-10-12T10:26:26Z</time>
      </trkpt>
      <trkpt lat="37.481541" lon="-5.656093">
        <ele>170.075</ele>
        <time>2021-10-12T10:26:28Z</time>
      </trkpt>
      <trkpt lat="37.481635" lon="-5.656252">
        <ele>168.776</ele>
        <time>2021-10-12T10:26:29Z</time>
      </trkpt>
      <trkpt lat="37.481843" lon="-5.656593">
        <ele>167.355</ele>
        <time>2021-10-12T10:26:31Z</time>
      </trkpt>
      <trkpt lat="37.481954" lon="-5.656776">
        <ele>166.607</ele>
        <time>2021-10-12T10:26:32Z</time>
      </trkpt>
      <trkpt lat="37.482151" lon="-5.657137">
        <ele>165.817</ele>
        <time>2021-10-12T10:26:34Z</time>
      </trkpt>
      <trkpt lat="37.482232" lon="-5.657345">
        <ele>166.508</ele>
        <time>2021-10-12T10:26:35Z</time>
      </trkpt>
      <trkpt lat="37.482338" lon="-5.657819">
        <ele>169.133</ele>
        <time>2021-10-12T10:26:37Z</time>
      </trkpt>
      <trkpt lat="37.482369" lon="-5.658084">
        <ele>169.561</ele>
        <time>2021-10-12T10:26:38Z</time>
      </trkpt>
      <trkpt lat="37.482397" lon="-5.658604">
        <ele>168.777</ele>
        <time>2021-10-12T10:26:40Z</time>
      </trkpt>
      <trkpt lat="37.482424" lon="-5.659133">
        <ele>168.560</ele>
        <time>2021-10-12T10:26:42Z</time>
      </trkpt>
      <trkpt lat="37.482454" lon="-5.659388">
        <ele>167.966</ele>
        <time>2021-10-12T10:26:43Z</time>
      </trkpt>
      <trkpt lat="37.482501" lon="-5.659639">
        <ele>166.645</ele>
        <time>2021-10-12T10:26:44Z</time>
      </trkpt>
      <trkpt lat="37.482673" lon="-5.660106">
        <ele>165.925</ele>
        <time>2021-10-12T10:26:46Z</time>
      </trkpt>
      <trkpt lat="37.482776" lon="-5.660349">
        <ele>165.216</ele>
        <time>2021-10-12T10:26:47Z</time>
      </trkpt>
      <trkpt lat="37.482985" lon="-5.660814">
        <ele>161.791</ele>
        <time>2021-10-12T10:26:49Z</time>
      </trkpt>
      <trkpt lat="37.483108" lon="-5.661049">
        <ele>160.681</ele>
        <time>2021-10-12T10:26:50Z</time>
      </trkpt>
      <trkpt lat="37.483385" lon="-5.661460">
        <ele>158.719</ele>
        <time>2021-10-12T10:26:52Z</time>
      </trkpt>
      <trkpt lat="37.483537" lon="-5.661655">
        <ele>157.808</ele>
        <time>2021-10-12T10:26:53Z</time>
      </trkpt>
      <trkpt lat="37.483832" lon="-5.662045">
        <ele>156.357</ele>
        <time>2021-10-12T10:26:55Z</time>
      </trkpt>
      <trkpt lat="37.483978" lon="-5.662258">
        <ele>154.435</ele>
        <time>2021-10-12T10:26:56Z</time>
      </trkpt>
      <trkpt lat="37.484218" lon="-5.662696">
        <ele>150.751</ele>
        <time>2021-10-12T10:26:58Z</time>
      </trkpt>
      <trkpt lat="37.484336" lon="-5.662926">
        <ele>148.814</ele>
        <time>2021-10-12T10:26:59Z</time>
      </trkpt>
      <trkpt lat="37.484565" lon="-5.663390">
        <ele>145.810</ele>
        <time>2021-10-12T10:27:01Z</time>
      </trkpt>
      <trkpt lat="37.484683" lon="-5.663633">
        <ele>144.039</ele>
        <time>2021-10-12T10:27:02Z</time>
      </trkpt>
      <trkpt lat="37.484910" lon="-5.664099">
        <ele>140.619</ele>
        <time>2021-10-12T10:27:04Z</time>
      </trkpt>
      <trkpt lat="37.485032" lon="-5.664350">
        <ele>140.540</ele>
        <time>2021-10-12T10:27:05Z</time>
      </trkpt>
      <trkpt lat="37.485265" lon="-5.664834">
        <ele>141.488</ele>
        <time>2021-10-12T10:27:07Z</time>
      </trkpt>
      <trkpt lat="37.485387" lon="-5.665085">
        <ele>141.324</ele>
        <time>2021-10-12T10:27:08Z</time>
      </trkpt>
      <trkpt lat="37.485625" lon="-5.665569">
        <ele>138.726</ele>
        <time>2021-10-12T10:27:10Z</time>
      </trkpt>
      <trkpt lat="37.485865" lon="-5.666069">
        <ele>137.208</ele>
        <time>2021-10-12T10:27:12Z</time>
      </trkpt>
      <trkpt lat="37.486112" lon="-5.666576">
        <ele>138.396</ele>
        <time>2021-10-12T10:27:14Z</time>
      </trkpt>
      <trkpt lat="37.486346" lon="-5.667058">
        <ele>135.284</ele>
        <time>2021-10-12T10:27:16Z</time>
      </trkpt>
      <trkpt lat="37.486591" lon="-5.667571">
        <ele>134.790</ele>
        <time>2021-10-12T10:27:18Z</time>
      </trkpt>
      <trkpt lat="37.486838" lon="-5.668128">
        <ele>132.953</ele>
        <time>2021-10-12T10:27:20Z</time>
      </trkpt>
      <trkpt lat="37.487049" lon="-5.668672">
        <ele>132.019</ele>
        <time>2021-10-12T10:27:22Z</time>
      </trkpt>
      <trkpt lat="37.487152" lon="-5.668950">
        <ele>130.498</ele>
        <time>2021-10-12T10:27:23Z</time>
      </trkpt>
      <trkpt lat="37.487338" lon="-5.669521">
        <ele>131.228</ele>
        <time>2021-10-12T10:27:25Z</time>
      </trkpt>
      <trkpt lat="37.487423" lon="-5.669826">
        <ele>131.559</ele>
        <time>2021-10-12T10:27:26Z</time>
      </trkpt>
      <trkpt lat="37.487562" lon="-5.670406">
        <ele>131.353</ele>
        <time>2021-10-12T10:27:28Z</time>
      </trkpt>
      <trkpt lat="37.487628" lon="-5.670705">
        <ele>131.104</ele>
        <time>2021-10-12T10:27:29Z</time>
      </trkpt>
      <trkpt lat="37.487694" lon="-5.671006">
        <ele>130.614</ele>
        <time>2021-10-12T10:27:30Z</time>
      </trkpt>
      <trkpt lat="37.487823" lon="-5.671612">
        <ele>130.808</ele>
        <time>2021-10-12T10:27:32Z</time>
      </trkpt>
      <trkpt lat="37.487954" lon="-5.672186">
        <ele>130.473</ele>
        <time>2021-10-12T10:27:34Z</time>
      </trkpt>
      <trkpt lat="37.488026" lon="-5.672490">
        <ele>129.171</ele>
        <time>2021-10-12T10:27:35Z</time>
      </trkpt>
      <trkpt lat="37.488165" lon="-5.673118">
        <ele>127.927</ele>
        <time>2021-10-12T10:27:37Z</time>
      </trkpt>
      <trkpt lat="37.488237" lon="-5.673448">
        <ele>129.140</ele>
        <time>2021-10-12T10:27:38Z</time>
      </trkpt>
      <trkpt lat="37.488381" lon="-5.674106">
        <ele>127.216</ele>
        <time>2021-10-12T10:27:40Z</time>
      </trkpt>
      <trkpt lat="37.488459" lon="-5.674451">
        <ele>126.535</ele>
        <time>2021-10-12T10:27:41Z</time>
      </trkpt>
      <trkpt lat="37.488653" lon="-5.675108">
        <ele>123.265</ele>
        <time>2021-10-12T10:27:43Z</time>
      </trkpt>
      <trkpt lat="37.488777" lon="-5.675434">
        <ele>124.276</ele>
        <time>2021-10-12T10:27:44Z</time>
      </trkpt>
      <trkpt lat="37.489060" lon="-5.675964">
        <ele>124.036</ele>
        <time>2021-10-12T10:27:46Z</time>
      </trkpt>
      <trkpt lat="37.489339" lon="-5.676404">
        <ele>124.017</ele>
        <time>2021-10-12T10:27:48Z</time>
      </trkpt>
      <trkpt lat="37.489466" lon="-5.676603">
        <ele>124.018</ele>
        <time>2021-10-12T10:27:49Z</time>
      </trkpt>
      <trkpt lat="37.489593" lon="-5.676796">
        <ele>123.308</ele>
        <time>2021-10-12T10:27:50Z</time>
      </trkpt>
      <trkpt lat="37.489813" lon="-5.677157">
        <ele>121.691</ele>
        <time>2021-10-12T10:27:52Z</time>
      </trkpt>
      <trkpt lat="37.489918" lon="-5.677340">
        <ele>121.669</ele>
        <time>2021-10-12T10:27:53Z</time>
      </trkpt>
      <trkpt lat="37.490085" lon="-5.677702">
        <ele>121.185</ele>
        <time>2021-10-12T10:27:55Z</time>
      </trkpt>
      <trkpt lat="37.490159" lon="-5.677885">
        <ele>120.948</ele>
        <time>2021-10-12T10:27:56Z</time>
      </trkpt>
      <trkpt lat="37.490272" lon="-5.678221">
        <ele>121.034</ele>
        <time>2021-10-12T10:27:58Z</time>
      </trkpt>
      <trkpt lat="37.490321" lon="-5.678389">
        <ele>121.073</ele>
        <time>2021-10-12T10:27:59Z</time>
      </trkpt>
      <trkpt lat="37.490403" lon="-5.678732">
        <ele>121.073</ele>
        <time>2021-10-12T10:28:01Z</time>
      </trkpt>
      <trkpt lat="37.490443" lon="-5.678925">
        <ele>120.954</ele>
        <time>2021-10-12T10:28:02Z</time>
      </trkpt>
      <trkpt lat="37.490509" lon="-5.679286">
        <ele>119.546</ele>
        <time>2021-10-12T10:28:04Z</time>
      </trkpt>
      <trkpt lat="37.490535" lon="-5.679460">
        <ele>118.988</ele>
        <time>2021-10-12T10:28:05Z</time>
      </trkpt>
      <trkpt lat="37.490557" lon="-5.679619">
        <ele>118.416</ele>
        <time>2021-10-12T10:28:06Z</time>
      </trkpt>
      <trkpt lat="37.490593" lon="-5.679900">
        <ele>118.108</ele>
        <time>2021-10-12T10:28:08Z</time>
      </trkpt>
      <trkpt lat="37.490630" lon="-5.680187">
        <ele>117.362</ele>
        <time>2021-10-12T10:28:10Z</time>
      </trkpt>
      <trkpt lat="37.490675" lon="-5.680547">
        <ele>116.660</ele>
        <time>2021-10-12T10:28:12Z</time>
      </trkpt>
      <trkpt lat="37.490731" lon="-5.680964">
        <ele>115.586</ele>
        <time>2021-10-12T10:28:14Z</time>
      </trkpt>
      <trkpt lat="37.490790" lon="-5.681418">
        <ele>114.249</ele>
        <time>2021-10-12T10:28:16Z</time>
      </trkpt>
      <trkpt lat="37.490850" lon="-5.681925">
        <ele>114.995</ele>
        <time>2021-10-12T10:28:18Z</time>
      </trkpt>
      <trkpt lat="37.490881" lon="-5.682185">
        <ele>114.194</ele>
        <time>2021-10-12T10:28:19Z</time>
      </trkpt>
      <trkpt lat="37.490915" lon="-5.682468">
        <ele>113.174</ele>
        <time>2021-10-12T10:28:20Z</time>
      </trkpt>
      <trkpt lat="37.490991" lon="-5.683083">
        <ele>113.025</ele>
        <time>2021-10-12T10:28:22Z</time>
      </trkpt>
      <trkpt lat="37.491102" lon="-5.683786">
        <ele>113.692</ele>
        <time>2021-10-12T10:28:24Z</time>
      </trkpt>
      <trkpt lat="37.491208" lon="-5.684478">
        <ele>113.673</ele>
        <time>2021-10-12T10:28:26Z</time>
      </trkpt>
      <trkpt lat="37.491324" lon="-5.685148">
        <ele>110.720</ele>
        <time>2021-10-12T10:28:28Z</time>
      </trkpt>
      <trkpt lat="37.491389" lon="-5.685482">
        <ele>110.008</ele>
        <time>2021-10-12T10:28:29Z</time>
      </trkpt>
      <trkpt lat="37.491456" lon="-5.685804">
        <ele>110.987</ele>
        <time>2021-10-12T10:28:30Z</time>
      </trkpt>
      <trkpt lat="37.491594" lon="-5.686429">
        <ele>111.375</ele>
        <time>2021-10-12T10:28:32Z</time>
      </trkpt>
      <trkpt lat="37.491741" lon="-5.687015">
        <ele>110.031</ele>
        <time>2021-10-12T10:28:34Z</time>
      </trkpt>
      <trkpt lat="37.491821" lon="-5.687309">
        <ele>110.364</ele>
        <time>2021-10-12T10:28:35Z</time>
      </trkpt>
      <trkpt lat="37.491985" lon="-5.687881">
        <ele>108.880</ele>
        <time>2021-10-12T10:28:37Z</time>
      </trkpt>
      <trkpt lat="37.492072" lon="-5.688167">
        <ele>107.919</ele>
        <time>2021-10-12T10:28:38Z</time>
      </trkpt>
      <trkpt lat="37.492245" lon="-5.688715">
        <ele>106.559</ele>
        <time>2021-10-12T10:28:40Z</time>
      </trkpt>
      <trkpt lat="37.492432" lon="-5.689262">
        <ele>110.180</ele>
        <time>2021-10-12T10:28:42Z</time>
      </trkpt>
      <trkpt lat="37.492533" lon="-5.689533">
        <ele>110.747</ele>
        <time>2021-10-12T10:28:43Z</time>
      </trkpt>
      <trkpt lat="37.492640" lon="-5.689809">
        <ele>110.529</ele>
        <time>2021-10-12T10:28:44Z</time>
      </trkpt>
      <trkpt lat="37.492863" lon="-5.690349">
        <ele>111.021</ele>
        <time>2021-10-12T10:28:46Z</time>
      </trkpt>
      <trkpt lat="37.493108" lon="-5.690920">
        <ele>110.708</ele>
        <time>2021-10-12T10:28:48Z</time>
      </trkpt>
      <trkpt lat="37.493229" lon="-5.691194">
        <ele>110.692</ele>
        <time>2021-10-12T10:28:49Z</time>
      </trkpt>
      <trkpt lat="37.493354" lon="-5.691463">
        <ele>111.050</ele>
        <time>2021-10-12T10:28:50Z</time>
      </trkpt>
      <trkpt lat="37.493586" lon="-5.691948">
        <ele>109.186</ele>
        <time>2021-10-12T10:28:52Z</time>
      </trkpt>
      <trkpt lat="37.493816" lon="-5.692407">
        <ele>108.839</ele>
        <time>2021-10-12T10:28:54Z</time>
      </trkpt>
      <trkpt lat="37.493933" lon="-5.692628">
        <ele>108.935</ele>
        <time>2021-10-12T10:28:55Z</time>
      </trkpt>
      <trkpt lat="37.494060" lon="-5.692846">
        <ele>109.224</ele>
        <time>2021-10-12T10:28:56Z</time>
      </trkpt>
      <trkpt lat="37.494314" lon="-5.693288">
        <ele>108.214</ele>
        <time>2021-10-12T10:28:58Z</time>
      </trkpt>
      <trkpt lat="37.494613" lon="-5.693807">
        <ele>107.475</ele>
        <time>2021-10-12T10:29:00Z</time>
      </trkpt>
      <trkpt lat="37.494771" lon="-5.694089">
        <ele>106.183</ele>
        <time>2021-10-12T10:29:01Z</time>
      </trkpt>
      <trkpt lat="37.494937" lon="-5.694386">
        <ele>105.025</ele>
        <time>2021-10-12T10:29:02Z</time>
      </trkpt>
      <trkpt lat="37.495251" lon="-5.694947">
        <ele>107.017</ele>
        <time>2021-10-12T10:29:04Z</time>
      </trkpt>
      <trkpt lat="37.495592" lon="-5.695549">
        <ele>102.908</ele>
        <time>2021-10-12T10:29:06Z</time>
      </trkpt>
      <trkpt lat="37.495986" lon="-5.696165">
        <ele>101.336</ele>
        <time>2021-10-12T10:29:08Z</time>
      </trkpt>
      <trkpt lat="37.496427" lon="-5.696698">
        <ele>99.114</ele>
        <time>2021-10-12T10:29:10Z</time>
      </trkpt>
      <trkpt lat="37.496897" lon="-5.697146">
        <ele>99.060</ele>
        <time>2021-10-12T10:29:12Z</time>
      </trkpt>
      <trkpt lat="37.497117" lon="-5.697343">
        <ele>99.693</ele>
        <time>2021-10-12T10:29:13Z</time>
      </trkpt>
      <trkpt lat="37.497338" lon="-5.697553">
        <ele>99.569</ele>
        <time>2021-10-12T10:29:14Z</time>
      </trkpt>
      <trkpt lat="37.497729" lon="-5.698008">
        <ele>99.038</ele>
        <time>2021-10-12T10:29:16Z</time>
      </trkpt>
      <trkpt lat="37.498052" lon="-5.698547">
        <ele>99.078</ele>
        <time>2021-10-12T10:29:18Z</time>
      </trkpt>
      <trkpt lat="37.498190" lon="-5.698841">
        <ele>98.079</ele>
        <time>2021-10-12T10:29:19Z</time>
      </trkpt>
      <trkpt lat="37.498320" lon="-5.699153">
        <ele>98.044</ele>
        <time>2021-10-12T10:29:20Z</time>
      </trkpt>
      <trkpt lat="37.498548" lon="-5.699766">
        <ele>97.605</ele>
        <time>2021-10-12T10:29:22Z</time>
      </trkpt>
      <trkpt lat="37.498666" lon="-5.700083">
        <ele>97.215</ele>
        <time>2021-10-12T10:29:23Z</time>
      </trkpt>
      <trkpt lat="37.498895" lon="-5.700698">
        <ele>96.008</ele>
        <time>2021-10-12T10:29:25Z</time>
      </trkpt>
      <trkpt lat="37.499014" lon="-5.701012">
        <ele>96.522</ele>
        <time>2021-10-12T10:29:26Z</time>
      </trkpt>
      <trkpt lat="37.499241" lon="-5.701592">
        <ele>99.010</ele>
        <time>2021-10-12T10:29:28Z</time>
      </trkpt>
      <trkpt lat="37.499354" lon="-5.701892">
        <ele>99.596</ele>
        <time>2021-10-12T10:29:29Z</time>
      </trkpt>
      <trkpt lat="37.499577" lon="-5.702481">
        <ele>100.469</ele>
        <time>2021-10-12T10:29:31Z</time>
      </trkpt>
      <trkpt lat="37.499693" lon="-5.702789">
        <ele>100.935</ele>
        <time>2021-10-12T10:29:32Z</time>
      </trkpt>
      <trkpt lat="37.499914" lon="-5.703368">
        <ele>99.984</ele>
        <time>2021-10-12T10:29:34Z</time>
      </trkpt>
      <trkpt lat="37.500029" lon="-5.703668">
        <ele>98.854</ele>
        <time>2021-10-12T10:29:35Z</time>
      </trkpt>
      <trkpt lat="37.500259" lon="-5.704269">
        <ele>98.015</ele>
        <time>2021-10-12T10:29:37Z</time>
      </trkpt>
      <trkpt lat="37.500379" lon="-5.704584">
        <ele>98.729</ele>
        <time>2021-10-12T10:29:38Z</time>
      </trkpt>
      <trkpt lat="37.500614" lon="-5.705203">
        <ele>98.800</ele>
        <time>2021-10-12T10:29:40Z</time>
      </trkpt>
      <trkpt lat="37.500737" lon="-5.705525">
        <ele>98.320</ele>
        <time>2021-10-12T10:29:41Z</time>
      </trkpt>
      <trkpt lat="37.500862" lon="-5.705851">
        <ele>97.208</ele>
        <time>2021-10-12T10:29:42Z</time>
      </trkpt>
      <trkpt lat="37.501118" lon="-5.706513">
        <ele>97.570</ele>
        <time>2021-10-12T10:29:44Z</time>
      </trkpt>
      <trkpt lat="37.501323" lon="-5.707169">
        <ele>95.058</ele>
        <time>2021-10-12T10:29:46Z</time>
      </trkpt>
      <trkpt lat="37.501444" lon="-5.707868">
        <ele>95.134</ele>
        <time>2021-10-12T10:29:48Z</time>
      </trkpt>
      <trkpt lat="37.501469" lon="-5.708229">
        <ele>94.627</ele>
        <time>2021-10-12T10:29:49Z</time>
      </trkpt>
      <trkpt lat="37.501473" lon="-5.708597">
        <ele>94.373</ele>
        <time>2021-10-12T10:29:50Z</time>
      </trkpt>
      <trkpt lat="37.501464" lon="-5.709263">
        <ele>95.622</ele>
        <time>2021-10-12T10:29:52Z</time>
      </trkpt>
      <trkpt lat="37.501459" lon="-5.709585">
        <ele>96.962</ele>
        <time>2021-10-12T10:29:53Z</time>
      </trkpt>
      <trkpt lat="37.501456" lon="-5.710215">
        <ele>97.223</ele>
        <time>2021-10-12T10:29:55Z</time>
      </trkpt>
      <trkpt lat="37.501456" lon="-5.710536">
        <ele>97.012</ele>
        <time>2021-10-12T10:29:56Z</time>
      </trkpt>
      <trkpt lat="37.501451" lon="-5.711085">
        <ele>95.132</ele>
        <time>2021-10-12T10:29:58Z</time>
      </trkpt>
      <trkpt lat="37.501450" lon="-5.711325">
        <ele>94.405</ele>
        <time>2021-10-12T10:29:59Z</time>
      </trkpt>
      <trkpt lat="37.501453" lon="-5.711726">
        <ele>93.208</ele>
        <time>2021-10-12T10:30:01Z</time>
      </trkpt>
      <trkpt lat="37.501452" lon="-5.711892">
        <ele>93.279</ele>
        <time>2021-10-12T10:30:02Z</time>
      </trkpt>
      <trkpt lat="37.501454" lon="-5.712190">
        <ele>94.117</ele>
        <time>2021-10-12T10:30:04Z</time>
      </trkpt>
      <trkpt lat="37.501459" lon="-5.712334">
        <ele>94.743</ele>
        <time>2021-10-12T10:30:05Z</time>
      </trkpt>
      <trkpt lat="37.501474" lon="-5.712468">
        <ele>95.296</ele>
        <time>2021-10-12T10:30:06Z</time>
      </trkpt>
      <trkpt lat="37.501558" lon="-5.712704">
        <ele>95.612</ele>
        <time>2021-10-12T10:30:08Z</time>
      </trkpt>
      <trkpt lat="37.501617" lon="-5.712924">
        <ele>95.811</ele>
        <time>2021-10-12T10:30:10Z</time>
      </trkpt>
      <trkpt lat="37.501609" lon="-5.713044">
        <ele>95.851</ele>
        <time>2021-10-12T10:30:11Z</time>
      </trkpt>
      <trkpt lat="37.501573" lon="-5.713170">
        <ele>95.152</ele>
        <time>2021-10-12T10:30:12Z</time>
      </trkpt>
      <trkpt lat="37.501470" lon="-5.713476">
        <ele>94.291</ele>
        <time>2021-10-12T10:30:14Z</time>
      </trkpt>
      <trkpt lat="37.501445" lon="-5.713888">
        <ele>92.881</ele>
        <time>2021-10-12T10:30:16Z</time>
      </trkpt>
      <trkpt lat="37.501458" lon="-5.714402">
        <ele>94.019</ele>
        <time>2021-10-12T10:30:18Z</time>
      </trkpt>
      <trkpt lat="37.501465" lon="-5.714682">
        <ele>94.008</ele>
        <time>2021-10-12T10:30:19Z</time>
      </trkpt>
      <trkpt lat="37.501477" lon="-5.714990">
        <ele>94.097</ele>
        <time>2021-10-12T10:30:20Z</time>
      </trkpt>
      <trkpt lat="37.501515" lon="-5.715596">
        <ele>93.885</ele>
        <time>2021-10-12T10:30:22Z</time>
      </trkpt>
      <trkpt lat="37.501572" lon="-5.716235">
        <ele>95.311</ele>
        <time>2021-10-12T10:30:24Z</time>
      </trkpt>
      <trkpt lat="37.501647" lon="-5.716893">
        <ele>94.474</ele>
        <time>2021-10-12T10:30:26Z</time>
      </trkpt>
      <trkpt lat="37.501733" lon="-5.717530">
        <ele>92.530</ele>
        <time>2021-10-12T10:30:28Z</time>
      </trkpt>
      <trkpt lat="37.501783" lon="-5.717857">
        <ele>92.079</ele>
        <time>2021-10-12T10:30:29Z</time>
      </trkpt>
      <trkpt lat="37.501901" lon="-5.718497">
        <ele>91.569</ele>
        <time>2021-10-12T10:30:31Z</time>
      </trkpt>
      <trkpt lat="37.501969" lon="-5.718817">
        <ele>90.480</ele>
        <time>2021-10-12T10:30:32Z</time>
      </trkpt>
      <trkpt lat="37.502096" lon="-5.719381">
        <ele>90.568</ele>
        <time>2021-10-12T10:30:34Z</time>
      </trkpt>
      <trkpt lat="37.502222" lon="-5.719926">
        <ele>92.042</ele>
        <time>2021-10-12T10:30:36Z</time>
      </trkpt>
      <trkpt lat="37.502348" lon="-5.720457">
        <ele>91.926</ele>
        <time>2021-10-12T10:30:38Z</time>
      </trkpt>
      <trkpt lat="37.502473" lon="-5.720970">
        <ele>90.208</ele>
        <time>2021-10-12T10:30:40Z</time>
      </trkpt>
      <trkpt lat="37.502538" lon="-5.721240">
        <ele>89.714</ele>
        <time>2021-10-12T10:30:41Z</time>
      </trkpt>
      <trkpt lat="37.502604" lon="-5.721509">
        <ele>89.472</ele>
        <time>2021-10-12T10:30:42Z</time>
      </trkpt>
      <trkpt lat="37.502667" lon="-5.721782">
        <ele>89.278</ele>
        <time>2021-10-12T10:30:43Z</time>
      </trkpt>
      <trkpt lat="37.502726" lon="-5.722065">
        <ele>89.011</ele>
        <time>2021-10-12T10:30:44Z</time>
      </trkpt>
      <trkpt lat="37.502790" lon="-5.722623">
        <ele>88.017</ele>
        <time>2021-10-12T10:30:46Z</time>
      </trkpt>
      <trkpt lat="37.502784" lon="-5.722920">
        <ele>88.036</ele>
        <time>2021-10-12T10:30:47Z</time>
      </trkpt>
      <trkpt lat="37.502696" lon="-5.723523">
        <ele>89.036</ele>
        <time>2021-10-12T10:30:49Z</time>
      </trkpt>
      <trkpt lat="37.502624" lon="-5.723830">
        <ele>89.737</ele>
        <time>2021-10-12T10:30:50Z</time>
      </trkpt>
      <trkpt lat="37.502496" lon="-5.724443">
        <ele>89.084</ele>
        <time>2021-10-12T10:30:52Z</time>
      </trkpt>
      <trkpt lat="37.502456" lon="-5.724769">
        <ele>89.207</ele>
        <time>2021-10-12T10:30:53Z</time>
      </trkpt>
      <trkpt lat="37.502423" lon="-5.725426">
        <ele>90.017</ele>
        <time>2021-10-12T10:30:55Z</time>
      </trkpt>
      <trkpt lat="37.502412" lon="-5.725770">
        <ele>88.108</ele>
        <time>2021-10-12T10:30:56Z</time>
      </trkpt>
      <trkpt lat="37.502388" lon="-5.726407">
        <ele>88.086</ele>
        <time>2021-10-12T10:30:58Z</time>
      </trkpt>
      <trkpt lat="37.502372" lon="-5.726732">
        <ele>88.484</ele>
        <time>2021-10-12T10:30:59Z</time>
      </trkpt>
      <trkpt lat="37.502349" lon="-5.727370">
        <ele>87.850</ele>
        <time>2021-10-12T10:31:01Z</time>
      </trkpt>
      <trkpt lat="37.502339" lon="-5.727688">
        <ele>87.963</ele>
        <time>2021-10-12T10:31:02Z</time>
      </trkpt>
      <trkpt lat="37.502342" lon="-5.728266">
        <ele>89.249</ele>
        <time>2021-10-12T10:31:04Z</time>
      </trkpt>
      <trkpt lat="37.502366" lon="-5.728577">
        <ele>89.948</ele>
        <time>2021-10-12T10:31:05Z</time>
      </trkpt>
      <trkpt lat="37.502405" lon="-5.728891">
        <ele>89.318</ele>
        <time>2021-10-12T10:31:06Z</time>
      </trkpt>
      <trkpt lat="37.502458" lon="-5.729208">
        <ele>87.799</ele>
        <time>2021-10-12T10:31:07Z</time>
      </trkpt>
      <trkpt lat="37.502528" lon="-5.729533">
        <ele>85.595</ele>
        <time>2021-10-12T10:31:08Z</time>
      </trkpt>
      <trkpt lat="37.502721" lon="-5.730155">
        <ele>83.949</ele>
        <time>2021-10-12T10:31:10Z</time>
      </trkpt>
      <trkpt lat="37.502972" lon="-5.730748">
        <ele>86.423</ele>
        <time>2021-10-12T10:31:12Z</time>
      </trkpt>
      <trkpt lat="37.503228" lon="-5.731353">
        <ele>87.208</ele>
        <time>2021-10-12T10:31:14Z</time>
      </trkpt>
      <trkpt lat="37.503437" lon="-5.731963">
        <ele>87.637</ele>
        <time>2021-10-12T10:31:16Z</time>
      </trkpt>
      <trkpt lat="37.503521" lon="-5.732291">
        <ele>87.395</ele>
        <time>2021-10-12T10:31:17Z</time>
      </trkpt>
      <trkpt lat="37.503663" lon="-5.732957">
        <ele>87.611</ele>
        <time>2021-10-12T10:31:19Z</time>
      </trkpt>
      <trkpt lat="37.503729" lon="-5.733303">
        <ele>88.964</ele>
        <time>2021-10-12T10:31:20Z</time>
      </trkpt>
      <trkpt lat="37.503857" lon="-5.733962">
        <ele>87.950</ele>
        <time>2021-10-12T10:31:22Z</time>
      </trkpt>
      <trkpt lat="37.503991" lon="-5.734614">
        <ele>87.429</ele>
        <time>2021-10-12T10:31:24Z</time>
      </trkpt>
      <trkpt lat="37.504095" lon="-5.735243">
        <ele>85.829</ele>
        <time>2021-10-12T10:31:26Z</time>
      </trkpt>
      <trkpt lat="37.504143" lon="-5.735840">
        <ele>84.960</ele>
        <time>2021-10-12T10:31:28Z</time>
      </trkpt>
      <trkpt lat="37.504163" lon="-5.736477">
        <ele>85.027</ele>
        <time>2021-10-12T10:31:30Z</time>
      </trkpt>
      <trkpt lat="37.504164" lon="-5.736808">
        <ele>85.068</ele>
        <time>2021-10-12T10:31:31Z</time>
      </trkpt>
      <trkpt lat="37.504151" lon="-5.737154">
        <ele>84.214</ele>
        <time>2021-10-12T10:31:32Z</time>
      </trkpt>
      <trkpt lat="37.504088" lon="-5.737844">
        <ele>83.008</ele>
        <time>2021-10-12T10:31:34Z</time>
      </trkpt>
      <trkpt lat="37.503970" lon="-5.738578">
        <ele>83.520</ele>
        <time>2021-10-12T10:31:36Z</time>
      </trkpt>
      <trkpt lat="37.503899" lon="-5.738951">
        <ele>84.368</ele>
        <time>2021-10-12T10:31:37Z</time>
      </trkpt>
      <trkpt lat="37.503818" lon="-5.739332">
        <ele>85.254</ele>
        <time>2021-10-12T10:31:38Z</time>
      </trkpt>
      <trkpt lat="37.503668" lon="-5.740073">
        <ele>84.227</ele>
        <time>2021-10-12T10:31:40Z</time>
      </trkpt>
      <trkpt lat="37.503596" lon="-5.740450">
        <ele>84.023</ele>
        <time>2021-10-12T10:31:41Z</time>
      </trkpt>
      <trkpt lat="37.503462" lon="-5.741206">
        <ele>84.092</ele>
        <time>2021-10-12T10:31:43Z</time>
      </trkpt>
      <trkpt lat="37.503402" lon="-5.741593">
        <ele>82.522</ele>
        <time>2021-10-12T10:31:44Z</time>
      </trkpt>
      <trkpt lat="37.503294" lon="-5.742356">
        <ele>79.333</ele>
        <time>2021-10-12T10:31:46Z</time>
      </trkpt>
      <trkpt lat="37.503245" lon="-5.742746">
        <ele>80.212</ele>
        <time>2021-10-12T10:31:47Z</time>
      </trkpt>
      <trkpt lat="37.503157" lon="-5.743513">
        <ele>83.632</ele>
        <time>2021-10-12T10:31:49Z</time>
      </trkpt>
      <trkpt lat="37.503112" lon="-5.743902">
        <ele>83.005</ele>
        <time>2021-10-12T10:31:50Z</time>
      </trkpt>
      <trkpt lat="37.503028" lon="-5.744621">
        <ele>80.908</ele>
        <time>2021-10-12T10:31:52Z</time>
      </trkpt>
      <trkpt lat="37.502937" lon="-5.745362">
        <ele>79.979</ele>
        <time>2021-10-12T10:31:54Z</time>
      </trkpt>
      <trkpt lat="37.502890" lon="-5.745735">
        <ele>81.017</ele>
        <time>2021-10-12T10:31:55Z</time>
      </trkpt>
      <trkpt lat="37.502842" lon="-5.746121">
        <ele>82.073</ele>
        <time>2021-10-12T10:31:56Z</time>
      </trkpt>
      <trkpt lat="37.502787" lon="-5.746843">
        <ele>81.036</ele>
        <time>2021-10-12T10:31:58Z</time>
      </trkpt>
      <trkpt lat="37.502779" lon="-5.747583">
        <ele>80.062</ele>
        <time>2021-10-12T10:32:00Z</time>
      </trkpt>
      <trkpt lat="37.502810" lon="-5.748334">
        <ele>80.961</ele>
        <time>2021-10-12T10:32:02Z</time>
      </trkpt>
      <trkpt lat="37.502880" lon="-5.749050">
        <ele>80.291</ele>
        <time>2021-10-12T10:32:04Z</time>
      </trkpt>
      <trkpt lat="37.502993" lon="-5.749770">
        <ele>80.862</ele>
        <time>2021-10-12T10:32:06Z</time>
      </trkpt>
      <trkpt lat="37.503151" lon="-5.750482">
        <ele>81.571</ele>
        <time>2021-10-12T10:32:08Z</time>
      </trkpt>
      <trkpt lat="37.503333" lon="-5.751148">
        <ele>81.941</ele>
        <time>2021-10-12T10:32:10Z</time>
      </trkpt>
      <trkpt lat="37.503535" lon="-5.751820">
        <ele>80.315</ele>
        <time>2021-10-12T10:32:12Z</time>
      </trkpt>
      <trkpt lat="37.503741" lon="-5.752502">
        <ele>81.008</ele>
        <time>2021-10-12T10:32:14Z</time>
      </trkpt>
      <trkpt lat="37.503930" lon="-5.753138">
        <ele>82.055</ele>
        <time>2021-10-12T10:32:16Z</time>
      </trkpt>
      <trkpt lat="37.504096" lon="-5.753707">
        <ele>80.753</ele>
        <time>2021-10-12T10:32:18Z</time>
      </trkpt>
      <trkpt lat="37.504174" lon="-5.753964">
        <ele>79.849</ele>
        <time>2021-10-12T10:32:19Z</time>
      </trkpt>
      <trkpt lat="37.504252" lon="-5.754218">
        <ele>79.142</ele>
        <time>2021-10-12T10:32:20Z</time>
      </trkpt>
      <trkpt lat="37.504396" lon="-5.754700">
        <ele>78.178</ele>
        <time>2021-10-12T10:32:22Z</time>
      </trkpt>
      <trkpt lat="37.504468" lon="-5.754954">
        <ele>78.177</ele>
        <time>2021-10-12T10:32:23Z</time>
      </trkpt>
      <trkpt lat="37.504615" lon="-5.755474">
        <ele>78.927</ele>
        <time>2021-10-12T10:32:25Z</time>
      </trkpt>
      <trkpt lat="37.504687" lon="-5.755754">
        <ele>79.728</ele>
        <time>2021-10-12T10:32:26Z</time>
      </trkpt>
      <trkpt lat="37.504787" lon="-5.756318">
        <ele>78.836</ele>
        <time>2021-10-12T10:32:28Z</time>
      </trkpt>
      <trkpt lat="37.504818" lon="-5.756623">
        <ele>77.317</ele>
        <time>2021-10-12T10:32:29Z</time>
      </trkpt>
      <trkpt lat="37.504835" lon="-5.757248">
        <ele>77.018</ele>
        <time>2021-10-12T10:32:31Z</time>
      </trkpt>
      <trkpt lat="37.504826" lon="-5.757578">
        <ele>77.708</ele>
        <time>2021-10-12T10:32:32Z</time>
      </trkpt>
      <trkpt lat="37.504781" lon="-5.758225">
        <ele>78.491</ele>
        <time>2021-10-12T10:32:34Z</time>
      </trkpt>
      <trkpt lat="37.504707" lon="-5.758912">
        <ele>78.959</ele>
        <time>2021-10-12T10:32:36Z</time>
      </trkpt>
      <trkpt lat="37.504672" lon="-5.759266">
        <ele>78.845</ele>
        <time>2021-10-12T10:32:37Z</time>
      </trkpt>
      <trkpt lat="37.504636" lon="-5.759637">
        <ele>78.758</ele>
        <time>2021-10-12T10:32:38Z</time>
      </trkpt>
      <trkpt lat="37.504562" lon="-5.760356">
        <ele>76.744</ele>
        <time>2021-10-12T10:32:40Z</time>
      </trkpt>
      <trkpt lat="37.504481" lon="-5.761095">
        <ele>76.023</ele>
        <time>2021-10-12T10:32:42Z</time>
      </trkpt>
      <trkpt lat="37.504441" lon="-5.761474">
        <ele>75.093</ele>
        <time>2021-10-12T10:32:43Z</time>
      </trkpt>
      <trkpt lat="37.504400" lon="-5.761862">
        <ele>74.314</ele>
        <time>2021-10-12T10:32:44Z</time>
      </trkpt>
      <trkpt lat="37.504323" lon="-5.762613">
        <ele>72.618</ele>
        <time>2021-10-12T10:32:46Z</time>
      </trkpt>
      <trkpt lat="37.504282" lon="-5.763372">
        <ele>71.998</ele>
        <time>2021-10-12T10:32:48Z</time>
      </trkpt>
      <trkpt lat="37.504326" lon="-5.764146">
        <ele>71.517</ele>
        <time>2021-10-12T10:32:50Z</time>
      </trkpt>
      <trkpt lat="37.504450" lon="-5.764887">
        <ele>70.408</ele>
        <time>2021-10-12T10:32:52Z</time>
      </trkpt>
      <trkpt lat="37.504614" lon="-5.765627">
        <ele>71.219</ele>
        <time>2021-10-12T10:32:54Z</time>
      </trkpt>
      <trkpt lat="37.504761" lon="-5.766379">
        <ele>69.387</ele>
        <time>2021-10-12T10:32:56Z</time>
      </trkpt>
      <trkpt lat="37.504869" lon="-5.767114">
        <ele>69.873</ele>
        <time>2021-10-12T10:32:58Z</time>
      </trkpt>
      <trkpt lat="37.504930" lon="-5.767880">
        <ele>66.776</ele>
        <time>2021-10-12T10:33:00Z</time>
      </trkpt>
      <trkpt lat="37.504922" lon="-5.768669">
        <ele>67.862</ele>
        <time>2021-10-12T10:33:02Z</time>
      </trkpt>
      <trkpt lat="37.504861" lon="-5.769434">
        <ele>67.111</ele>
        <time>2021-10-12T10:33:04Z</time>
      </trkpt>
      <trkpt lat="37.504815" lon="-5.769828">
        <ele>65.981</ele>
        <time>2021-10-12T10:33:05Z</time>
      </trkpt>
      <trkpt lat="37.504699" lon="-5.770604">
        <ele>65.912</ele>
        <time>2021-10-12T10:33:07Z</time>
      </trkpt>
      <trkpt lat="37.504641" lon="-5.770978">
        <ele>65.459</ele>
        <time>2021-10-12T10:33:08Z</time>
      </trkpt>
      <trkpt lat="37.504554" lon="-5.771652">
        <ele>66.703</ele>
        <time>2021-10-12T10:33:10Z</time>
      </trkpt>
      <trkpt lat="37.504533" lon="-5.772347">
        <ele>69.823</ele>
        <time>2021-10-12T10:33:12Z</time>
      </trkpt>
      <trkpt lat="37.504555" lon="-5.772705">
        <ele>69.108</ele>
        <time>2021-10-12T10:33:13Z</time>
      </trkpt>
      <trkpt lat="37.504599" lon="-5.773069">
        <ele>68.153</ele>
        <time>2021-10-12T10:33:14Z</time>
      </trkpt>
      <trkpt lat="37.504745" lon="-5.773759">
        <ele>66.641</ele>
        <time>2021-10-12T10:33:16Z</time>
      </trkpt>
      <trkpt lat="37.504973" lon="-5.774445">
        <ele>65.967</ele>
        <time>2021-10-12T10:33:18Z</time>
      </trkpt>
      <trkpt lat="37.505118" lon="-5.774785">
        <ele>65.050</ele>
        <time>2021-10-12T10:33:19Z</time>
      </trkpt>
      <trkpt lat="37.505273" lon="-5.775121">
        <ele>65.046</ele>
        <time>2021-10-12T10:33:20Z</time>
      </trkpt>
      <trkpt lat="37.505569" lon="-5.775756">
        <ele>64.085</ele>
        <time>2021-10-12T10:33:22Z</time>
      </trkpt>
      <trkpt lat="37.505700" lon="-5.776073">
        <ele>63.125</ele>
        <time>2021-10-12T10:33:23Z</time>
      </trkpt>
      <trkpt lat="37.505811" lon="-5.776405">
        <ele>64.026</ele>
        <time>2021-10-12T10:33:24Z</time>
      </trkpt>
      <trkpt lat="37.505897" lon="-5.776758">
        <ele>64.296</ele>
        <time>2021-10-12T10:33:25Z</time>
      </trkpt>
      <trkpt lat="37.505955" lon="-5.777130">
        <ele>63.331</ele>
        <time>2021-10-12T10:33:26Z</time>
      </trkpt>
      <trkpt lat="37.506005" lon="-5.777898">
        <ele>62.324</ele>
        <time>2021-10-12T10:33:28Z</time>
      </trkpt>
      <trkpt lat="37.506019" lon="-5.778696">
        <ele>61.408</ele>
        <time>2021-10-12T10:33:30Z</time>
      </trkpt>
      <trkpt lat="37.506055" lon="-5.779511">
        <ele>61.647</ele>
        <time>2021-10-12T10:33:32Z</time>
      </trkpt>
      <trkpt lat="37.506124" lon="-5.780271">
        <ele>61.055</ele>
        <time>2021-10-12T10:33:34Z</time>
      </trkpt>
      <trkpt lat="37.506173" lon="-5.780650">
        <ele>61.121</ele>
        <time>2021-10-12T10:33:35Z</time>
      </trkpt>
      <trkpt lat="37.506302" lon="-5.781397">
        <ele>60.734</ele>
        <time>2021-10-12T10:33:37Z</time>
      </trkpt>
      <trkpt lat="37.506383" lon="-5.781777">
        <ele>61.020</ele>
        <time>2021-10-12T10:33:38Z</time>
      </trkpt>
      <trkpt lat="37.506548" lon="-5.782480">
        <ele>60.639</ele>
        <time>2021-10-12T10:33:40Z</time>
      </trkpt>
      <trkpt lat="37.506631" lon="-5.782833">
        <ele>60.039</ele>
        <time>2021-10-12T10:33:41Z</time>
      </trkpt>
      <trkpt lat="37.506706" lon="-5.783175">
        <ele>60.140</ele>
        <time>2021-10-12T10:33:42Z</time>
      </trkpt>
      <trkpt lat="37.506833" lon="-5.783871">
        <ele>59.651</ele>
        <time>2021-10-12T10:33:44Z</time>
      </trkpt>
      <trkpt lat="37.506916" lon="-5.784556">
        <ele>60.401</ele>
        <time>2021-10-12T10:33:46Z</time>
      </trkpt>
      <trkpt lat="37.506950" lon="-5.784911">
        <ele>60.011</ele>
        <time>2021-10-12T10:33:47Z</time>
      </trkpt>
      <trkpt lat="37.506986" lon="-5.785624">
        <ele>60.008</ele>
        <time>2021-10-12T10:33:49Z</time>
      </trkpt>
      <trkpt lat="37.506995" lon="-5.786003">
        <ele>60.113</ele>
        <time>2021-10-12T10:33:50Z</time>
      </trkpt>
      <trkpt lat="37.507015" lon="-5.786709">
        <ele>61.751</ele>
        <time>2021-10-12T10:33:52Z</time>
      </trkpt>
      <trkpt lat="37.507039" lon="-5.787078">
        <ele>59.997</ele>
        <time>2021-10-12T10:33:53Z</time>
      </trkpt>
      <trkpt lat="37.507149" lon="-5.787793">
        <ele>61.720</ele>
        <time>2021-10-12T10:33:55Z</time>
      </trkpt>
      <trkpt lat="37.507242" lon="-5.788149">
        <ele>61.956</ele>
        <time>2021-10-12T10:33:56Z</time>
      </trkpt>
      <trkpt lat="37.507474" lon="-5.788804">
        <ele>61.015</ele>
        <time>2021-10-12T10:33:58Z</time>
      </trkpt>
      <trkpt lat="37.507617" lon="-5.789119">
        <ele>60.585</ele>
        <time>2021-10-12T10:33:59Z</time>
      </trkpt>
      <trkpt lat="37.507936" lon="-5.789708">
        <ele>60.696</ele>
        <time>2021-10-12T10:34:01Z</time>
      </trkpt>
      <trkpt lat="37.508103" lon="-5.789999">
        <ele>61.267</ele>
        <time>2021-10-12T10:34:02Z</time>
      </trkpt>
      <trkpt lat="37.508399" lon="-5.790560">
        <ele>60.081</ele>
        <time>2021-10-12T10:34:04Z</time>
      </trkpt>
      <trkpt lat="37.508529" lon="-5.790860">
        <ele>59.319</ele>
        <time>2021-10-12T10:34:05Z</time>
      </trkpt>
      <trkpt lat="37.508644" lon="-5.791169">
        <ele>59.108</ele>
        <time>2021-10-12T10:34:06Z</time>
      </trkpt>
      <trkpt lat="37.508817" lon="-5.791833">
        <ele>60.454</ele>
        <time>2021-10-12T10:34:08Z</time>
      </trkpt>
      <trkpt lat="37.508905" lon="-5.792512">
        <ele>60.092</ele>
        <time>2021-10-12T10:34:10Z</time>
      </trkpt>
      <trkpt lat="37.508925" lon="-5.792878">
        <ele>60.418</ele>
        <time>2021-10-12T10:34:11Z</time>
      </trkpt>
      <trkpt lat="37.508920" lon="-5.793247">
        <ele>61.061</ele>
        <time>2021-10-12T10:34:12Z</time>
      </trkpt>
      <trkpt lat="37.508893" lon="-5.793617">
        <ele>60.057</ele>
        <time>2021-10-12T10:34:13Z</time>
      </trkpt>
      <trkpt lat="37.508846" lon="-5.793994">
        <ele>59.296</ele>
        <time>2021-10-12T10:34:14Z</time>
      </trkpt>
      <trkpt lat="37.508714" lon="-5.794695">
        <ele>60.686</ele>
        <time>2021-10-12T10:34:16Z</time>
      </trkpt>
      <trkpt lat="37.508515" lon="-5.795332">
        <ele>59.357</ele>
        <time>2021-10-12T10:34:18Z</time>
      </trkpt>
      <trkpt lat="37.508306" lon="-5.795968">
        <ele>59.124</ele>
        <time>2021-10-12T10:34:20Z</time>
      </trkpt>
      <trkpt lat="37.508136" lon="-5.796610">
        <ele>59.004</ele>
        <time>2021-10-12T10:34:22Z</time>
      </trkpt>
      <trkpt lat="37.508006" lon="-5.797273">
        <ele>60.014</ele>
        <time>2021-10-12T10:34:24Z</time>
      </trkpt>
      <trkpt lat="37.507923" lon="-5.797955">
        <ele>59.608</ele>
        <time>2021-10-12T10:34:26Z</time>
      </trkpt>
      <trkpt lat="37.507890" lon="-5.798640">
        <ele>58.140</ele>
        <time>2021-10-12T10:34:28Z</time>
      </trkpt>
      <trkpt lat="37.507880" lon="-5.799007">
        <ele>56.988</ele>
        <time>2021-10-12T10:34:29Z</time>
      </trkpt>
      <trkpt lat="37.507856" lon="-5.799737">
        <ele>56.734</ele>
        <time>2021-10-12T10:34:31Z</time>
      </trkpt>
      <trkpt lat="37.507841" lon="-5.800119">
        <ele>55.967</ele>
        <time>2021-10-12T10:34:32Z</time>
      </trkpt>
      <trkpt lat="37.507813" lon="-5.800851">
        <ele>59.153</ele>
        <time>2021-10-12T10:34:34Z</time>
      </trkpt>
      <trkpt lat="37.507787" lon="-5.801597">
        <ele>59.272</ele>
        <time>2021-10-12T10:34:36Z</time>
      </trkpt>
      <trkpt lat="37.507761" lon="-5.802312">
        <ele>58.592</ele>
        <time>2021-10-12T10:34:38Z</time>
      </trkpt>
      <trkpt lat="37.507731" lon="-5.802987">
        <ele>55.613</ele>
        <time>2021-10-12T10:34:40Z</time>
      </trkpt>
      <trkpt lat="37.507706" lon="-5.803686">
        <ele>56.764</ele>
        <time>2021-10-12T10:34:42Z</time>
      </trkpt>
      <trkpt lat="37.507695" lon="-5.804045">
        <ele>56.106</ele>
        <time>2021-10-12T10:34:43Z</time>
      </trkpt>
      <trkpt lat="37.507692" lon="-5.804416">
        <ele>55.116</ele>
        <time>2021-10-12T10:34:44Z</time>
      </trkpt>
      <trkpt lat="37.507754" lon="-5.805133">
        <ele>54.108</ele>
        <time>2021-10-12T10:34:46Z</time>
      </trkpt>
      <trkpt lat="37.507913" lon="-5.805838">
        <ele>54.514</ele>
        <time>2021-10-12T10:34:48Z</time>
      </trkpt>
      <trkpt lat="37.508034" lon="-5.806176">
        <ele>54.832</ele>
        <time>2021-10-12T10:34:49Z</time>
      </trkpt>
      <trkpt lat="37.508182" lon="-5.806505">
        <ele>53.698</ele>
        <time>2021-10-12T10:34:50Z</time>
      </trkpt>
      <trkpt lat="37.508531" lon="-5.807071">
        <ele>51.351</ele>
        <time>2021-10-12T10:34:52Z</time>
      </trkpt>
      <trkpt lat="37.508737" lon="-5.807323">
        <ele>51.237</ele>
        <time>2021-10-12T10:34:53Z</time>
      </trkpt>
      <trkpt lat="37.508953" lon="-5.807544">
        <ele>51.336</ele>
        <time>2021-10-12T10:34:54Z</time>
      </trkpt>
      <trkpt lat="37.509427" lon="-5.807926">
        <ele>53.036</ele>
        <time>2021-10-12T10:34:56Z</time>
      </trkpt>
      <trkpt lat="37.509888" lon="-5.808256">
        <ele>53.287</ele>
        <time>2021-10-12T10:34:58Z</time>
      </trkpt>
      <trkpt lat="37.510116" lon="-5.808431">
        <ele>53.982</ele>
        <time>2021-10-12T10:34:59Z</time>
      </trkpt>
      <trkpt lat="37.510550" lon="-5.808818">
        <ele>53.343</ele>
        <time>2021-10-12T10:35:01Z</time>
      </trkpt>
      <trkpt lat="37.510751" lon="-5.809045">
        <ele>52.417</ele>
        <time>2021-10-12T10:35:02Z</time>
      </trkpt>
      <trkpt lat="37.511099" lon="-5.809548">
        <ele>52.608</ele>
        <time>2021-10-12T10:35:04Z</time>
      </trkpt>
      <trkpt lat="37.511247" lon="-5.809832">
        <ele>52.896</ele>
        <time>2021-10-12T10:35:05Z</time>
      </trkpt>
      <trkpt lat="37.511486" lon="-5.810443">
        <ele>53.474</ele>
        <time>2021-10-12T10:35:07Z</time>
      </trkpt>
      <trkpt lat="37.511577" lon="-5.810776">
        <ele>53.180</ele>
        <time>2021-10-12T10:35:08Z</time>
      </trkpt>
      <trkpt lat="37.511697" lon="-5.811455">
        <ele>49.073</ele>
        <time>2021-10-12T10:35:10Z</time>
      </trkpt>
      <trkpt lat="37.511799" lon="-5.812162">
        <ele>50.089</ele>
        <time>2021-10-12T10:35:12Z</time>
      </trkpt>
      <trkpt lat="37.511854" lon="-5.812519">
        <ele>50.128</ele>
        <time>2021-10-12T10:35:13Z</time>
      </trkpt>
      <trkpt lat="37.511906" lon="-5.812891">
        <ele>51.898</ele>
        <time>2021-10-12T10:35:14Z</time>
      </trkpt>
      <trkpt lat="37.512008" lon="-5.813599">
        <ele>53.019</ele>
        <time>2021-10-12T10:35:16Z</time>
      </trkpt>
      <trkpt lat="37.512062" lon="-5.813961">
        <ele>52.351</ele>
        <time>2021-10-12T10:35:17Z</time>
      </trkpt>
      <trkpt lat="37.512197" lon="-5.814651">
        <ele>50.501</ele>
        <time>2021-10-12T10:35:19Z</time>
      </trkpt>
      <trkpt lat="37.512291" lon="-5.814991">
        <ele>49.811</ele>
        <time>2021-10-12T10:35:20Z</time>
      </trkpt>
      <trkpt lat="37.512526" lon="-5.815593">
        <ele>51.908</ele>
        <time>2021-10-12T10:35:22Z</time>
      </trkpt>
      <trkpt lat="37.512672" lon="-5.815877">
        <ele>50.273</ele>
        <time>2021-10-12T10:35:23Z</time>
      </trkpt>
      <trkpt lat="37.513005" lon="-5.816413">
        <ele>49.261</ele>
        <time>2021-10-12T10:35:25Z</time>
      </trkpt>
      <trkpt lat="37.513195" lon="-5.816677">
        <ele>48.537</ele>
        <time>2021-10-12T10:35:26Z</time>
      </trkpt>
      <trkpt lat="37.513564" lon="-5.817181">
        <ele>44.640</ele>
        <time>2021-10-12T10:35:28Z</time>
      </trkpt>
      <trkpt lat="37.513946" lon="-5.817710">
        <ele>42.596</ele>
        <time>2021-10-12T10:35:30Z</time>
      </trkpt>
      <trkpt lat="37.514143" lon="-5.817976">
        <ele>41.595</ele>
        <time>2021-10-12T10:35:31Z</time>
      </trkpt>
      <trkpt lat="37.514341" lon="-5.818245">
        <ele>41.075</ele>
        <time>2021-10-12T10:35:32Z</time>
      </trkpt>
      <trkpt lat="37.514698" lon="-5.818727">
        <ele>41.086</ele>
        <time>2021-10-12T10:35:34Z</time>
      </trkpt>
      <trkpt lat="37.514868" lon="-5.818959">
        <ele>40.497</ele>
        <time>2021-10-12T10:35:35Z</time>
      </trkpt>
      <trkpt lat="37.515194" lon="-5.819410">
        <ele>40.723</ele>
        <time>2021-10-12T10:35:37Z</time>
      </trkpt>
      <trkpt lat="37.515368" lon="-5.819648">
        <ele>41.225</ele>
        <time>2021-10-12T10:35:38Z</time>
      </trkpt>
      <trkpt lat="37.515707" lon="-5.820117">
        <ele>40.608</ele>
        <time>2021-10-12T10:35:40Z</time>
      </trkpt>
      <trkpt lat="37.515882" lon="-5.820368">
        <ele>39.847</ele>
        <time>2021-10-12T10:35:41Z</time>
      </trkpt>
      <trkpt lat="37.516240" lon="-5.820866">
        <ele>40.565</ele>
        <time>2021-10-12T10:35:43Z</time>
      </trkpt>
      <trkpt lat="37.516427" lon="-5.821127">
        <ele>41.071</ele>
        <time>2021-10-12T10:35:44Z</time>
      </trkpt>
      <trkpt lat="37.516786" lon="-5.821625">
        <ele>38.244</ele>
        <time>2021-10-12T10:35:46Z</time>
      </trkpt>
      <trkpt lat="37.517153" lon="-5.822129">
        <ele>39.210</ele>
        <time>2021-10-12T10:35:48Z</time>
      </trkpt>
      <trkpt lat="37.517494" lon="-5.822597">
        <ele>39.039</ele>
        <time>2021-10-12T10:35:50Z</time>
      </trkpt>
      <trkpt lat="37.517822" lon="-5.823044">
        <ele>38.099</ele>
        <time>2021-10-12T10:35:52Z</time>
      </trkpt>
      <trkpt lat="37.517992" lon="-5.823275">
        <ele>38.070</ele>
        <time>2021-10-12T10:35:53Z</time>
      </trkpt>
      <trkpt lat="37.518339" lon="-5.823750">
        <ele>38.062</ele>
        <time>2021-10-12T10:35:55Z</time>
      </trkpt>
      <trkpt lat="37.518520" lon="-5.823998">
        <ele>37.783</ele>
        <time>2021-10-12T10:35:56Z</time>
      </trkpt>
      <trkpt lat="37.518888" lon="-5.824478">
        <ele>37.111</ele>
        <time>2021-10-12T10:35:58Z</time>
      </trkpt>
      <trkpt lat="37.519081" lon="-5.824720">
        <ele>37.308</ele>
        <time>2021-10-12T10:35:59Z</time>
      </trkpt>
      <trkpt lat="37.519278" lon="-5.824958">
        <ele>37.924</ele>
        <time>2021-10-12T10:36:00Z</time>
      </trkpt>
      <trkpt lat="37.519684" lon="-5.825433">
        <ele>38.092</ele>
        <time>2021-10-12T10:36:02Z</time>
      </trkpt>
      <trkpt lat="37.520084" lon="-5.825887">
        <ele>38.018</ele>
        <time>2021-10-12T10:36:04Z</time>
      </trkpt>
      <trkpt lat="37.520284" lon="-5.826117">
        <ele>38.031</ele>
        <time>2021-10-12T10:36:05Z</time>
      </trkpt>
      <trkpt lat="37.520644" lon="-5.826538">
        <ele>37.677</ele>
        <time>2021-10-12T10:36:07Z</time>
      </trkpt>
      <trkpt lat="37.520827" lon="-5.826756">
        <ele>38.076</ele>
        <time>2021-10-12T10:36:08Z</time>
      </trkpt>
      <trkpt lat="37.521178" lon="-5.827182">
        <ele>38.016</ele>
        <time>2021-10-12T10:36:10Z</time>
      </trkpt>
      <trkpt lat="37.521355" lon="-5.827416">
        <ele>38.197</ele>
        <time>2021-10-12T10:36:11Z</time>
      </trkpt>
      <trkpt lat="37.521524" lon="-5.827666">
        <ele>37.492</ele>
        <time>2021-10-12T10:36:12Z</time>
      </trkpt>
      <trkpt lat="37.521844" lon="-5.828212">
        <ele>36.373</ele>
        <time>2021-10-12T10:36:14Z</time>
      </trkpt>
      <trkpt lat="37.522123" lon="-5.828788">
        <ele>36.020</ele>
        <time>2021-10-12T10:36:16Z</time>
      </trkpt>
      <trkpt lat="37.522253" lon="-5.829102">
        <ele>36.008</ele>
        <time>2021-10-12T10:36:17Z</time>
      </trkpt>
      <trkpt lat="37.522487" lon="-5.829762">
        <ele>36.077</ele>
        <time>2021-10-12T10:36:19Z</time>
      </trkpt>
      <trkpt lat="37.522591" lon="-5.830108">
        <ele>36.675</ele>
        <time>2021-10-12T10:36:20Z</time>
      </trkpt>
      <trkpt lat="37.522746" lon="-5.830789">
        <ele>37.361</ele>
        <time>2021-10-12T10:36:22Z</time>
      </trkpt>
      <trkpt lat="37.522808" lon="-5.831146">
        <ele>35.944</ele>
        <time>2021-10-12T10:36:23Z</time>
      </trkpt>
      <trkpt lat="37.522918" lon="-5.831854">
        <ele>34.730</ele>
        <time>2021-10-12T10:36:25Z</time>
      </trkpt>
      <trkpt lat="37.522979" lon="-5.832199">
        <ele>34.189</ele>
        <time>2021-10-12T10:36:26Z</time>
      </trkpt>
      <trkpt lat="37.523089" lon="-5.832817">
        <ele>33.129</ele>
        <time>2021-10-12T10:36:28Z</time>
      </trkpt>
      <trkpt lat="37.523168" lon="-5.833461">
        <ele>33.980</ele>
        <time>2021-10-12T10:36:30Z</time>
      </trkpt>
      <trkpt lat="37.523190" lon="-5.833798">
        <ele>35.287</ele>
        <time>2021-10-12T10:36:31Z</time>
      </trkpt>
      <trkpt lat="37.523201" lon="-5.834133">
        <ele>35.142</ele>
        <time>2021-10-12T10:36:32Z</time>
      </trkpt>
      <trkpt lat="37.523187" lon="-5.834771">
        <ele>32.426</ele>
        <time>2021-10-12T10:36:34Z</time>
      </trkpt>
      <trkpt lat="37.523159" lon="-5.835103">
        <ele>31.608</ele>
        <time>2021-10-12T10:36:35Z</time>
      </trkpt>
      <trkpt lat="37.523122" lon="-5.835436">
        <ele>31.136</ele>
        <time>2021-10-12T10:36:36Z</time>
      </trkpt>
      <trkpt lat="37.523033" lon="-5.836120">
        <ele>32.034</ele>
        <time>2021-10-12T10:36:38Z</time>
      </trkpt>
      <trkpt lat="37.522972" lon="-5.836793">
        <ele>34.260</ele>
        <time>2021-10-12T10:36:40Z</time>
      </trkpt>
      <trkpt lat="37.522960" lon="-5.837134">
        <ele>34.743</ele>
        <time>2021-10-12T10:36:41Z</time>
      </trkpt>
      <trkpt lat="37.522989" lon="-5.837825">
        <ele>34.529</ele>
        <time>2021-10-12T10:36:43Z</time>
      </trkpt>
      <trkpt lat="37.523039" lon="-5.838176">
        <ele>34.558</ele>
        <time>2021-10-12T10:36:44Z</time>
      </trkpt>
      <trkpt lat="37.523173" lon="-5.838844">
        <ele>32.698</ele>
        <time>2021-10-12T10:36:46Z</time>
      </trkpt>
      <trkpt lat="37.523268" lon="-5.839173">
        <ele>33.369</ele>
        <time>2021-10-12T10:36:47Z</time>
      </trkpt>
      <trkpt lat="37.523505" lon="-5.839794">
        <ele>35.683</ele>
        <time>2021-10-12T10:36:49Z</time>
      </trkpt>
      <trkpt lat="37.523648" lon="-5.840097">
        <ele>35.825</ele>
        <time>2021-10-12T10:36:50Z</time>
      </trkpt>
      <trkpt lat="37.523962" lon="-5.840634">
        <ele>34.717</ele>
        <time>2021-10-12T10:36:52Z</time>
      </trkpt>
      <trkpt lat="37.524142" lon="-5.840887">
        <ele>34.208</ele>
        <time>2021-10-12T10:36:53Z</time>
      </trkpt>
      <trkpt lat="37.524528" lon="-5.841338">
        <ele>35.696</ele>
        <time>2021-10-12T10:36:55Z</time>
      </trkpt>
      <trkpt lat="37.524738" lon="-5.841552">
        <ele>35.074</ele>
        <time>2021-10-12T10:36:56Z</time>
      </trkpt>
      <trkpt lat="37.525140" lon="-5.841937">
        <ele>34.590</ele>
        <time>2021-10-12T10:36:58Z</time>
      </trkpt>
      <trkpt lat="37.525349" lon="-5.842136">
        <ele>34.543</ele>
        <time>2021-10-12T10:36:59Z</time>
      </trkpt>
      <trkpt lat="37.525555" lon="-5.842339">
        <ele>34.879</ele>
        <time>2021-10-12T10:37:00Z</time>
      </trkpt>
      <trkpt lat="37.525762" lon="-5.842537">
        <ele>35.498</ele>
        <time>2021-10-12T10:37:01Z</time>
      </trkpt>
      <trkpt lat="37.525971" lon="-5.842738">
        <ele>36.448</ele>
        <time>2021-10-12T10:37:02Z</time>
      </trkpt>
      <trkpt lat="37.526369" lon="-5.843118">
        <ele>36.199</ele>
        <time>2021-10-12T10:37:04Z</time>
      </trkpt>
      <trkpt lat="37.526778" lon="-5.843513">
        <ele>34.814</ele>
        <time>2021-10-12T10:37:06Z</time>
      </trkpt>
      <trkpt lat="37.526978" lon="-5.843710">
        <ele>35.354</ele>
        <time>2021-10-12T10:37:07Z</time>
      </trkpt>
      <trkpt lat="37.527184" lon="-5.843912">
        <ele>36.709</ele>
        <time>2021-10-12T10:37:08Z</time>
      </trkpt>
      <trkpt lat="37.527580" lon="-5.844301">
        <ele>36.808</ele>
        <time>2021-10-12T10:37:10Z</time>
      </trkpt>
      <trkpt lat="37.527985" lon="-5.844694">
        <ele>35.639</ele>
        <time>2021-10-12T10:37:12Z</time>
      </trkpt>
      <trkpt lat="37.528398" lon="-5.845093">
        <ele>36.727</ele>
        <time>2021-10-12T10:37:14Z</time>
      </trkpt>
      <trkpt lat="37.528797" lon="-5.845485">
        <ele>36.213</ele>
        <time>2021-10-12T10:37:16Z</time>
      </trkpt>
      <trkpt lat="37.529202" lon="-5.845875">
        <ele>35.946</ele>
        <time>2021-10-12T10:37:18Z</time>
      </trkpt>
      <trkpt lat="37.529396" lon="-5.846052">
        <ele>35.992</ele>
        <time>2021-10-12T10:37:19Z</time>
      </trkpt>
      <trkpt lat="37.529586" lon="-5.846212">
        <ele>35.321</ele>
        <time>2021-10-12T10:37:20Z</time>
      </trkpt>
      <trkpt lat="37.529929" lon="-5.846464">
        <ele>34.571</ele>
        <time>2021-10-12T10:37:22Z</time>
      </trkpt>
      <trkpt lat="37.530096" lon="-5.846575">
        <ele>34.122</ele>
        <time>2021-10-12T10:37:23Z</time>
      </trkpt>
      <trkpt lat="37.530409" lon="-5.846759">
        <ele>32.253</ele>
        <time>2021-10-12T10:37:25Z</time>
      </trkpt>
      <trkpt lat="37.530570" lon="-5.846860">
        <ele>31.404</ele>
        <time>2021-10-12T10:37:26Z</time>
      </trkpt>
      <trkpt lat="37.530879" lon="-5.847091">
        <ele>33.314</ele>
        <time>2021-10-12T10:37:28Z</time>
      </trkpt>
      <trkpt lat="37.531164" lon="-5.847300">
        <ele>35.008</ele>
        <time>2021-10-12T10:37:30Z</time>
      </trkpt>
      <trkpt lat="37.531298" lon="-5.847399">
        <ele>35.023</ele>
        <time>2021-10-12T10:37:31Z</time>
      </trkpt>
      <trkpt lat="37.531438" lon="-5.847503">
        <ele>34.891</ele>
        <time>2021-10-12T10:37:32Z</time>
      </trkpt>
      <trkpt lat="37.531719" lon="-5.847708">
        <ele>33.127</ele>
        <time>2021-10-12T10:37:34Z</time>
      </trkpt>
      <trkpt lat="37.531860" lon="-5.847809">
        <ele>32.480</ele>
        <time>2021-10-12T10:37:35Z</time>
      </trkpt>
      <trkpt lat="37.532120" lon="-5.847994">
        <ele>32.826</ele>
        <time>2021-10-12T10:37:37Z</time>
      </trkpt>
      <trkpt lat="37.532246" lon="-5.848085">
        <ele>33.015</ele>
        <time>2021-10-12T10:37:38Z</time>
      </trkpt>
      <trkpt lat="37.532469" lon="-5.848245">
        <ele>32.445</ele>
        <time>2021-10-12T10:37:40Z</time>
      </trkpt>
      <trkpt lat="37.532579" lon="-5.848322">
        <ele>32.346</ele>
        <time>2021-10-12T10:37:41Z</time>
      </trkpt>
      <trkpt lat="37.532793" lon="-5.848468">
        <ele>32.598</ele>
        <time>2021-10-12T10:37:43Z</time>
      </trkpt>
      <trkpt lat="37.532912" lon="-5.848550">
        <ele>32.115</ele>
        <time>2021-10-12T10:37:44Z</time>
      </trkpt>
      <trkpt lat="37.533152" lon="-5.848716">
        <ele>32.026</ele>
        <time>2021-10-12T10:37:46Z</time>
      </trkpt>
      <trkpt lat="37.533281" lon="-5.848810">
        <ele>32.008</ele>
        <time>2021-10-12T10:37:47Z</time>
      </trkpt>
      <trkpt lat="37.533559" lon="-5.849011">
        <ele>30.747</ele>
        <time>2021-10-12T10:37:49Z</time>
      </trkpt>
      <trkpt lat="37.533710" lon="-5.849123">
        <ele>29.865</ele>
        <time>2021-10-12T10:37:50Z</time>
      </trkpt>
      <trkpt lat="37.534013" lon="-5.849337">
        <ele>28.451</ele>
        <time>2021-10-12T10:37:52Z</time>
      </trkpt>
      <trkpt lat="37.534300" lon="-5.849541">
        <ele>27.574</ele>
        <time>2021-10-12T10:37:54Z</time>
      </trkpt>
      <trkpt lat="37.534562" lon="-5.849728">
        <ele>27.070</ele>
        <time>2021-10-12T10:37:56Z</time>
      </trkpt>
      <trkpt lat="37.534796" lon="-5.849893">
        <ele>27.339</ele>
        <time>2021-10-12T10:37:58Z</time>
      </trkpt>
      <trkpt lat="37.535047" lon="-5.850076">
        <ele>28.379</ele>
        <time>2021-10-12T10:38:00Z</time>
      </trkpt>
      <trkpt lat="37.535196" lon="-5.850182">
        <ele>29.430</ele>
        <time>2021-10-12T10:38:01Z</time>
      </trkpt>
      <trkpt lat="37.535359" lon="-5.850298">
        <ele>29.914</ele>
        <time>2021-10-12T10:38:02Z</time>
      </trkpt>
      <trkpt lat="37.535688" lon="-5.850534">
        <ele>28.154</ele>
        <time>2021-10-12T10:38:04Z</time>
      </trkpt>
      <trkpt lat="37.535864" lon="-5.850664">
        <ele>27.709</ele>
        <time>2021-10-12T10:38:05Z</time>
      </trkpt>
      <trkpt lat="37.536233" lon="-5.850926">
        <ele>29.108</ele>
        <time>2021-10-12T10:38:07Z</time>
      </trkpt>
      <trkpt lat="37.536428" lon="-5.851065">
        <ele>30.369</ele>
        <time>2021-10-12T10:38:08Z</time>
      </trkpt>
      <trkpt lat="37.536780" lon="-5.851334">
        <ele>31.677</ele>
        <time>2021-10-12T10:38:10Z</time>
      </trkpt>
      <trkpt lat="37.537077" lon="-5.851624">
        <ele>31.013</ele>
        <time>2021-10-12T10:38:12Z</time>
      </trkpt>
      <trkpt lat="37.537212" lon="-5.851784">
        <ele>31.486</ele>
        <time>2021-10-12T10:38:13Z</time>
      </trkpt>
      <trkpt lat="37.537340" lon="-5.851955">
        <ele>32.422</ele>
        <time>2021-10-12T10:38:14Z</time>
      </trkpt>
      <trkpt lat="37.537555" lon="-5.852317">
        <ele>33.071</ele>
        <time>2021-10-12T10:38:16Z</time>
      </trkpt>
      <trkpt lat="37.537728" lon="-5.852672">
        <ele>32.961</ele>
        <time>2021-10-12T10:38:18Z</time>
      </trkpt>
      <trkpt lat="37.537801" lon="-5.852849">
        <ele>32.942</ele>
        <time>2021-10-12T10:38:19Z</time>
      </trkpt>
      <trkpt lat="37.537872" lon="-5.853026">
        <ele>33.087</ele>
        <time>2021-10-12T10:38:20Z</time>
      </trkpt>
      <trkpt lat="37.538010" lon="-5.853361">
        <ele>32.942</ele>
        <time>2021-10-12T10:38:22Z</time>
      </trkpt>
      <trkpt lat="37.538169" lon="-5.853728">
        <ele>31.226</ele>
        <time>2021-10-12T10:38:24Z</time>
      </trkpt>
      <trkpt lat="37.538252" lon="-5.853923">
        <ele>30.708</ele>
        <time>2021-10-12T10:38:25Z</time>
      </trkpt>
      <trkpt lat="37.538341" lon="-5.854135">
        <ele>30.916</ele>
        <time>2021-10-12T10:38:26Z</time>
      </trkpt>
      <trkpt lat="37.538519" lon="-5.854568">
        <ele>31.594</ele>
        <time>2021-10-12T10:38:28Z</time>
      </trkpt>
      <trkpt lat="37.538691" lon="-5.854996">
        <ele>29.420</ele>
        <time>2021-10-12T10:38:30Z</time>
      </trkpt>
      <trkpt lat="37.538860" lon="-5.855435">
        <ele>28.083</ele>
        <time>2021-10-12T10:38:32Z</time>
      </trkpt>
      <trkpt lat="37.539023" lon="-5.855852">
        <ele>28.099</ele>
        <time>2021-10-12T10:38:34Z</time>
      </trkpt>
      <trkpt lat="37.539097" lon="-5.856046">
        <ele>27.488</ele>
        <time>2021-10-12T10:38:35Z</time>
      </trkpt>
      <trkpt lat="37.539219" lon="-5.856367">
        <ele>27.078</ele>
        <time>2021-10-12T10:38:37Z</time>
      </trkpt>
      <trkpt lat="37.539265" lon="-5.856489">
        <ele>27.089</ele>
        <time>2021-10-12T10:38:38Z</time>
      </trkpt>
      <trkpt lat="37.539339" lon="-5.856689">
        <ele>27.021</ele>
        <time>2021-10-12T10:38:40Z</time>
      </trkpt>
      <trkpt lat="37.539371" lon="-5.856782">
        <ele>27.141</ele>
        <time>2021-10-12T10:38:41Z</time>
      </trkpt>
      <trkpt lat="37.539434" lon="-5.856945">
        <ele>27.005</ele>
        <time>2021-10-12T10:38:43Z</time>
      </trkpt>
      <trkpt lat="37.539469" lon="-5.857026">
        <ele>27.308</ele>
        <time>2021-10-12T10:38:44Z</time>
      </trkpt>
      <trkpt lat="37.539573" lon="-5.857173">
        <ele>27.410</ele>
        <time>2021-10-12T10:38:46Z</time>
      </trkpt>
      <trkpt lat="37.539646" lon="-5.857243">
        <ele>27.358</ele>
        <time>2021-10-12T10:38:47Z</time>
      </trkpt>
      <trkpt lat="37.539722" lon="-5.857311">
        <ele>27.054</ele>
        <time>2021-10-12T10:38:48Z</time>
      </trkpt>
      <trkpt lat="37.539783" lon="-5.857384">
        <ele>27.027</ele>
        <time>2021-10-12T10:38:49Z</time>
      </trkpt>
      <trkpt lat="37.539828" lon="-5.857472">
        <ele>27.053</ele>
        <time>2021-10-12T10:38:50Z</time>
      </trkpt>
      <trkpt lat="37.539850" lon="-5.857706">
        <ele>27.062</ele>
        <time>2021-10-12T10:38:52Z</time>
      </trkpt>
      <trkpt lat="37.539845" lon="-5.857859">
        <ele>26.812</ele>
        <time>2021-10-12T10:38:53Z</time>
      </trkpt>
      <trkpt lat="37.539896" lon="-5.858223">
        <ele>26.933</ele>
        <time>2021-10-12T10:38:55Z</time>
      </trkpt>
      <trkpt lat="37.539978" lon="-5.858435">
        <ele>27.733</ele>
        <time>2021-10-12T10:38:56Z</time>
      </trkpt>
      <trkpt lat="37.540201" lon="-5.858896">
        <ele>30.023</ele>
        <time>2021-10-12T10:38:58Z</time>
      </trkpt>
      <trkpt lat="37.540324" lon="-5.859165">
        <ele>29.815</ele>
        <time>2021-10-12T10:38:59Z</time>
      </trkpt>
      <trkpt lat="37.540572" lon="-5.859730">
        <ele>28.008</ele>
        <time>2021-10-12T10:39:01Z</time>
      </trkpt>
      <trkpt lat="37.540697" lon="-5.860016">
        <ele>27.521</ele>
        <time>2021-10-12T10:39:02Z</time>
      </trkpt>
      <trkpt lat="37.540889" lon="-5.860498">
        <ele>28.239</ele>
        <time>2021-10-12T10:39:04Z</time>
      </trkpt>
      <trkpt lat="37.540965" lon="-5.860712">
        <ele>27.485</ele>
        <time>2021-10-12T10:39:05Z</time>
      </trkpt>
      <trkpt lat="37.541097" lon="-5.861100">
        <ele>26.138</ele>
        <time>2021-10-12T10:39:07Z</time>
      </trkpt>
      <trkpt lat="37.541190" lon="-5.861280">
        <ele>24.954</ele>
        <time>2021-10-12T10:39:08Z</time>
      </trkpt>
      <trkpt lat="37.541433" lon="-5.861573">
        <ele>23.113</ele>
        <time>2021-10-12T10:39:10Z</time>
      </trkpt>
      <trkpt lat="37.541740" lon="-5.861837">
        <ele>23.153</ele>
        <time>2021-10-12T10:39:12Z</time>
      </trkpt>
      <trkpt lat="37.542036" lon="-5.862087">
        <ele>22.364</ele>
        <time>2021-10-12T10:39:14Z</time>
      </trkpt>
      <trkpt lat="37.542328" lon="-5.862290">
        <ele>21.939</ele>
        <time>2021-10-12T10:39:16Z</time>
      </trkpt>
      <trkpt lat="37.542486" lon="-5.862381">
        <ele>21.501</ele>
        <time>2021-10-12T10:39:17Z</time>
      </trkpt>
      <trkpt lat="37.542817" lon="-5.862557">
        <ele>19.521</ele>
        <time>2021-10-12T10:39:19Z</time>
      </trkpt>
      <trkpt lat="37.542994" lon="-5.862652">
        <ele>18.608</ele>
        <time>2021-10-12T10:39:20Z</time>
      </trkpt>
      <trkpt lat="37.543334" lon="-5.862845">
        <ele>19.831</ele>
        <time>2021-10-12T10:39:22Z</time>
      </trkpt>
      <trkpt lat="37.543660" lon="-5.863097">
        <ele>19.979</ele>
        <time>2021-10-12T10:39:24Z</time>
      </trkpt>
      <trkpt lat="37.543807" lon="-5.863257">
        <ele>19.845</ele>
        <time>2021-10-12T10:39:25Z</time>
      </trkpt>
      <trkpt lat="37.543946" lon="-5.863445">
        <ele>19.988</ele>
        <time>2021-10-12T10:39:26Z</time>
      </trkpt>
      <trkpt lat="37.544186" lon="-5.863847">
        <ele>20.334</ele>
        <time>2021-10-12T10:39:28Z</time>
      </trkpt>
      <trkpt lat="37.544430" lon="-5.864290">
        <ele>22.993</ele>
        <time>2021-10-12T10:39:30Z</time>
      </trkpt>
      <trkpt lat="37.544553" lon="-5.864509">
        <ele>22.823</ele>
        <time>2021-10-12T10:39:31Z</time>
      </trkpt>
      <trkpt lat="37.544672" lon="-5.864722">
        <ele>22.034</ele>
        <time>2021-10-12T10:39:32Z</time>
      </trkpt>
      <trkpt lat="37.544860" lon="-5.865100">
        <ele>21.669</ele>
        <time>2021-10-12T10:39:34Z</time>
      </trkpt>
      <trkpt lat="37.545004" lon="-5.865431">
        <ele>19.904</ele>
        <time>2021-10-12T10:39:36Z</time>
      </trkpt>
      <trkpt lat="37.545130" lon="-5.865731">
        <ele>19.624</ele>
        <time>2021-10-12T10:39:38Z</time>
      </trkpt>
      <trkpt lat="37.545232" lon="-5.866019">
        <ele>20.308</ele>
        <time>2021-10-12T10:39:40Z</time>
      </trkpt>
      <trkpt lat="37.545314" lon="-5.866315">
        <ele>21.124</ele>
        <time>2021-10-12T10:39:42Z</time>
      </trkpt>
      <trkpt lat="37.545358" lon="-5.866464">
        <ele>21.352</ele>
        <time>2021-10-12T10:39:43Z</time>
      </trkpt>
      <trkpt lat="37.545404" lon="-5.866605">
        <ele>21.598</ele>
        <time>2021-10-12T10:39:44Z</time>
      </trkpt>
      <trkpt lat="37.545487" lon="-5.866826">
        <ele>21.841</ele>
        <time>2021-10-12T10:39:46Z</time>
      </trkpt>
      <trkpt lat="37.545555" lon="-5.866989">
        <ele>21.847</ele>
        <time>2021-10-12T10:39:48Z</time>
      </trkpt>
      <trkpt lat="37.545623" lon="-5.867142">
        <ele>21.346</ele>
        <time>2021-10-12T10:39:50Z</time>
      </trkpt>
      <trkpt lat="37.545690" lon="-5.867300">
        <ele>20.986</ele>
        <time>2021-10-12T10:39:52Z</time>
      </trkpt>
      <trkpt lat="37.545764" lon="-5.867478">
        <ele>20.377</ele>
        <time>2021-10-12T10:39:54Z</time>
      </trkpt>
      <trkpt lat="37.545801" lon="-5.867568">
        <ele>20.373</ele>
        <time>2021-10-12T10:39:55Z</time>
      </trkpt>
      <trkpt lat="37.545843" lon="-5.867662">
        <ele>20.685</ele>
        <time>2021-10-12T10:39:56Z</time>
      </trkpt>
      <trkpt lat="37.545941" lon="-5.867871">
        <ele>21.513</ele>
        <time>2021-10-12T10:39:58Z</time>
      </trkpt>
      <trkpt lat="37.546025" lon="-5.868036">
        <ele>22.308</ele>
        <time>2021-10-12T10:40:00Z</time>
      </trkpt>
      <trkpt lat="37.546056" lon="-5.868105">
        <ele>22.685</ele>
        <time>2021-10-12T10:40:01Z</time>
      </trkpt>
      <trkpt lat="37.546094" lon="-5.868189">
        <ele>22.933</ele>
        <time>2021-10-12T10:40:02Z</time>
      </trkpt>
      <trkpt lat="37.546175" lon="-5.868372">
        <ele>23.079</ele>
        <time>2021-10-12T10:40:04Z</time>
      </trkpt>
      <trkpt lat="37.546250" lon="-5.868531">
        <ele>23.062</ele>
        <time>2021-10-12T10:40:06Z</time>
      </trkpt>
      <trkpt lat="37.546318" lon="-5.868674">
        <ele>22.898</ele>
        <time>2021-10-12T10:40:08Z</time>
      </trkpt>
      <trkpt lat="37.546394" lon="-5.868828">
        <ele>22.267</ele>
        <time>2021-10-12T10:40:10Z</time>
      </trkpt>
      <trkpt lat="37.546464" lon="-5.868982">
        <ele>21.917</ele>
        <time>2021-10-12T10:40:12Z</time>
      </trkpt>
      <trkpt lat="37.546534" lon="-5.869136">
        <ele>21.578</ele>
        <time>2021-10-12T10:40:14Z</time>
      </trkpt>
      <trkpt lat="37.546603" lon="-5.869259">
        <ele>21.268</ele>
        <time>2021-10-12T10:40:16Z</time>
      </trkpt>
      <trkpt lat="37.546631" lon="-5.869318">
        <ele>21.142</ele>
        <time>2021-10-12T10:40:17Z</time>
      </trkpt>
      <trkpt lat="37.546658" lon="-5.869375">
        <ele>21.026</ele>
        <time>2021-10-12T10:40:18Z</time>
      </trkpt>
      <trkpt lat="37.546721" lon="-5.869511">
        <ele>20.808</ele>
        <time>2021-10-12T10:40:20Z</time>
      </trkpt>
      <trkpt lat="37.546801" lon="-5.869685">
        <ele>20.554</ele>
        <time>2021-10-12T10:40:22Z</time>
      </trkpt>
      <trkpt lat="37.546893" lon="-5.869883">
        <ele>20.162</ele>
        <time>2021-10-12T10:40:24Z</time>
      </trkpt>
      <trkpt lat="37.546938" lon="-5.869973">
        <ele>20.028</ele>
        <time>2021-10-12T10:40:25Z</time>
      </trkpt>
      <trkpt lat="37.546976" lon="-5.870064">
        <ele>20.051</ele>
        <time>2021-10-12T10:40:26Z</time>
      </trkpt>
      <trkpt lat="37.547046" lon="-5.870225">
        <ele>20.037</ele>
        <time>2021-10-12T10:40:28Z</time>
      </trkpt>
      <trkpt lat="37.547086" lon="-5.870316">
        <ele>20.126</ele>
        <time>2021-10-12T10:40:29Z</time>
      </trkpt>
      <trkpt lat="37.547131" lon="-5.870414">
        <ele>20.346</ele>
        <time>2021-10-12T10:40:30Z</time>
      </trkpt>
      <trkpt lat="37.547179" lon="-5.870516">
        <ele>20.747</ele>
        <time>2021-10-12T10:40:31Z</time>
      </trkpt>
      <trkpt lat="37.547226" lon="-5.870619">
        <ele>21.245</ele>
        <time>2021-10-12T10:40:32Z</time>
      </trkpt>
      <trkpt lat="37.547306" lon="-5.870796">
        <ele>22.147</ele>
        <time>2021-10-12T10:40:34Z</time>
      </trkpt>
      <trkpt lat="37.547342" lon="-5.870874">
        <ele>22.611</ele>
        <time>2021-10-12T10:40:35Z</time>
      </trkpt>
      <trkpt lat="37.547415" lon="-5.871024">
        <ele>23.408</ele>
        <time>2021-10-12T10:40:37Z</time>
      </trkpt>
      <trkpt lat="37.547450" lon="-5.871098">
        <ele>23.822</ele>
        <time>2021-10-12T10:40:38Z</time>
      </trkpt>
      <trkpt lat="37.547512" lon="-5.871229">
        <ele>24.020</ele>
        <time>2021-10-12T10:40:40Z</time>
      </trkpt>
      <trkpt lat="37.547563" lon="-5.871354">
        <ele>23.886</ele>
        <time>2021-10-12T10:40:42Z</time>
      </trkpt>
      <trkpt lat="37.547586" lon="-5.871412">
        <ele>23.749</ele>
        <time>2021-10-12T10:40:43Z</time>
      </trkpt>
      <trkpt lat="37.547610" lon="-5.871473">
        <ele>23.735</ele>
        <time>2021-10-12T10:40:44Z</time>
      </trkpt>
      <trkpt lat="37.547665" lon="-5.871606">
        <ele>23.994</ele>
        <time>2021-10-12T10:40:46Z</time>
      </trkpt>
      <trkpt lat="37.547731" lon="-5.871744">
        <ele>23.724</ele>
        <time>2021-10-12T10:40:48Z</time>
      </trkpt>
      <trkpt lat="37.547760" lon="-5.871796">
        <ele>23.585</ele>
        <time>2021-10-12T10:40:49Z</time>
      </trkpt>
      <trkpt lat="37.547795" lon="-5.871851">
        <ele>23.343</ele>
        <time>2021-10-12T10:40:51Z</time>
      </trkpt>
      <trkpt lat="37.547824" lon="-5.871896">
        <ele>23.064</ele>
        <time>2021-10-12T10:40:55Z</time>
      </trkpt>
      <trkpt lat="37.547859" lon="-5.871939">
        <ele>22.710</ele>
        <time>2021-10-12T10:40:58Z</time>
      </trkpt>
      <trkpt lat="37.547905" lon="-5.871966">
        <ele>22.508</ele>
        <time>2021-10-12T10:40:59Z</time>
      </trkpt>
      <trkpt lat="37.547990" lon="-5.871944">
        <ele>22.222</ele>
        <time>2021-10-12T10:41:01Z</time>
      </trkpt>
      <trkpt lat="37.548055" lon="-5.871890">
        <ele>22.260</ele>
        <time>2021-10-12T10:41:02Z</time>
      </trkpt>
      <trkpt lat="37.548188" lon="-5.871773">
        <ele>22.826</ele>
        <time>2021-10-12T10:41:04Z</time>
      </trkpt>
      <trkpt lat="37.548306" lon="-5.871701">
        <ele>23.029</ele>
        <time>2021-10-12T10:41:06Z</time>
      </trkpt>
      <trkpt lat="37.548420" lon="-5.871693">
        <ele>23.015</ele>
        <time>2021-10-12T10:41:08Z</time>
      </trkpt>
      <trkpt lat="37.548544" lon="-5.871707">
        <ele>23.074</ele>
        <time>2021-10-12T10:41:10Z</time>
      </trkpt>
      <trkpt lat="37.548599" lon="-5.871712">
        <ele>23.024</ele>
        <time>2021-10-12T10:41:11Z</time>
      </trkpt>
      <trkpt lat="37.548699" lon="-5.871672">
        <ele>22.765</ele>
        <time>2021-10-12T10:41:13Z</time>
      </trkpt>
      <trkpt lat="37.548755" lon="-5.871625">
        <ele>22.521</ele>
        <time>2021-10-12T10:41:14Z</time>
      </trkpt>
      <trkpt lat="37.548876" lon="-5.871503">
        <ele>22.041</ele>
        <time>2021-10-12T10:41:16Z</time>
      </trkpt>
      <trkpt lat="37.549021" lon="-5.871363">
        <ele>21.005</ele>
        <time>2021-10-12T10:41:18Z</time>
      </trkpt>
      <trkpt lat="37.549174" lon="-5.871219">
        <ele>20.608</ele>
        <time>2021-10-12T10:41:20Z</time>
      </trkpt>
      <trkpt lat="37.549312" lon="-5.871097">
        <ele>20.020</ele>
        <time>2021-10-12T10:41:22Z</time>
      </trkpt>
      <trkpt lat="37.549378" lon="-5.871040">
        <ele>19.728</ele>
        <time>2021-10-12T10:41:23Z</time>
      </trkpt>
      <trkpt lat="37.549438" lon="-5.870981">
        <ele>19.534</ele>
        <time>2021-10-12T10:41:24Z</time>
      </trkpt>
      <trkpt lat="37.549497" lon="-5.870921">
        <ele>19.697</ele>
        <time>2021-10-12T10:41:25Z</time>
      </trkpt>
      <trkpt lat="37.549560" lon="-5.870857">
        <ele>19.593</ele>
        <time>2021-10-12T10:41:26Z</time>
      </trkpt>
      <trkpt lat="37.549699" lon="-5.870718">
        <ele>19.522</ele>
        <time>2021-10-12T10:41:28Z</time>
      </trkpt>
      <trkpt lat="37.549773" lon="-5.870643">
        <ele>19.772</ele>
        <time>2021-10-12T10:41:29Z</time>
      </trkpt>
      <trkpt lat="37.549923" lon="-5.870498">
        <ele>20.163</ele>
        <time>2021-10-12T10:41:31Z</time>
      </trkpt>
      <trkpt lat="37.549995" lon="-5.870430">
        <ele>20.427</ele>
        <time>2021-10-12T10:41:32Z</time>
      </trkpt>
      <trkpt lat="37.550110" lon="-5.870317">
        <ele>20.568</ele>
        <time>2021-10-12T10:41:34Z</time>
      </trkpt>
      <trkpt lat="37.550163" lon="-5.870264">
        <ele>20.414</ele>
        <time>2021-10-12T10:41:35Z</time>
      </trkpt>
      <trkpt lat="37.550214" lon="-5.870211">
        <ele>20.408</ele>
        <time>2021-10-12T10:41:36Z</time>
      </trkpt>
      <trkpt lat="37.550337" lon="-5.870082">
        <ele>20.620</ele>
        <time>2021-10-12T10:41:38Z</time>
      </trkpt>
      <trkpt lat="37.550478" lon="-5.869938">
        <ele>20.448</ele>
        <time>2021-10-12T10:41:40Z</time>
      </trkpt>
      <trkpt lat="37.550553" lon="-5.869863">
        <ele>20.524</ele>
        <time>2021-10-12T10:41:41Z</time>
      </trkpt>
      <trkpt lat="37.550620" lon="-5.869796">
        <ele>20.717</ele>
        <time>2021-10-12T10:41:42Z</time>
      </trkpt>
      <trkpt lat="37.550679" lon="-5.869734">
        <ele>20.933</ele>
        <time>2021-10-12T10:41:43Z</time>
      </trkpt>
      <trkpt lat="37.550738" lon="-5.869675">
        <ele>21.172</ele>
        <time>2021-10-12T10:41:44Z</time>
      </trkpt>
      <trkpt lat="37.550875" lon="-5.869567">
        <ele>21.192</ele>
        <time>2021-10-12T10:41:46Z</time>
      </trkpt>
      <trkpt lat="37.550943" lon="-5.869521">
        <ele>21.313</ele>
        <time>2021-10-12T10:41:47Z</time>
      </trkpt>
      <trkpt lat="37.551006" lon="-5.869482">
        <ele>21.547</ele>
        <time>2021-10-12T10:41:48Z</time>
      </trkpt>
      <trkpt lat="37.551123" lon="-5.869406">
        <ele>22.029</ele>
        <time>2021-10-12T10:41:50Z</time>
      </trkpt>
      <trkpt lat="37.551227" lon="-5.869327">
        <ele>22.221</ele>
        <time>2021-10-12T10:41:52Z</time>
      </trkpt>
      <trkpt lat="37.551274" lon="-5.869273">
        <ele>22.208</ele>
        <time>2021-10-12T10:41:53Z</time>
      </trkpt>
      <trkpt lat="37.551309" lon="-5.869211">
        <ele>22.182</ele>
        <time>2021-10-12T10:41:54Z</time>
      </trkpt>
      <trkpt lat="37.551374" lon="-5.869116">
        <ele>21.860</ele>
        <time>2021-10-12T10:41:56Z</time>
      </trkpt>
      <trkpt lat="37.551477" lon="-5.869094">
        <ele>21.856</ele>
        <time>2021-10-12T10:41:58Z</time>
      </trkpt>
      <trkpt lat="37.551609" lon="-5.869087">
        <ele>21.969</ele>
        <time>2021-10-12T10:42:00Z</time>
      </trkpt>
      <trkpt lat="37.551674" lon="-5.869065">
        <ele>22.025</ele>
        <time>2021-10-12T10:42:01Z</time>
      </trkpt>
      <trkpt lat="37.551728" lon="-5.869037">
        <ele>22.054</ele>
        <time>2021-10-12T10:42:02Z</time>
      </trkpt>
      <trkpt lat="37.551830" lon="-5.868976">
        <ele>22.084</ele>
        <time>2021-10-12T10:42:04Z</time>
      </trkpt>
      <trkpt lat="37.551889" lon="-5.868937">
        <ele>22.095</ele>
        <time>2021-10-12T10:42:05Z</time>
      </trkpt>
      <trkpt lat="37.551948" lon="-5.868893">
        <ele>22.029</ele>
        <time>2021-10-12T10:42:06Z</time>
      </trkpt>
      <trkpt lat="37.552011" lon="-5.868849">
        <ele>21.900</ele>
        <time>2021-10-12T10:42:07Z</time>
      </trkpt>
      <trkpt lat="37.552071" lon="-5.868810">
        <ele>21.720</ele>
        <time>2021-10-12T10:42:08Z</time>
      </trkpt>
      <trkpt lat="37.552169" lon="-5.868744">
        <ele>21.508</ele>
        <time>2021-10-12T10:42:10Z</time>
      </trkpt>
      <trkpt lat="37.552243" lon="-5.868700">
        <ele>21.380</ele>
        <time>2021-10-12T10:42:12Z</time>
      </trkpt>
      <trkpt lat="37.552294" lon="-5.868669">
        <ele>21.298</ele>
        <time>2021-10-12T10:42:13Z</time>
      </trkpt>
      <trkpt lat="37.552356" lon="-5.868629">
        <ele>21.044</ele>
        <time>2021-10-12T10:42:14Z</time>
      </trkpt>
      <trkpt lat="37.552500" lon="-5.868537">
        <ele>20.777</ele>
        <time>2021-10-12T10:42:16Z</time>
      </trkpt>
      <trkpt lat="37.552667" lon="-5.868434">
        <ele>20.123</ele>
        <time>2021-10-12T10:42:18Z</time>
      </trkpt>
      <trkpt lat="37.552850" lon="-5.868314">
        <ele>20.122</ele>
        <time>2021-10-12T10:42:20Z</time>
      </trkpt>
      <trkpt lat="37.553029" lon="-5.868203">
        <ele>20.592</ele>
        <time>2021-10-12T10:42:22Z</time>
      </trkpt>
      <trkpt lat="37.553196" lon="-5.868093">
        <ele>19.953</ele>
        <time>2021-10-12T10:42:24Z</time>
      </trkpt>
      <trkpt lat="37.553339" lon="-5.867995">
        <ele>19.451</ele>
        <time>2021-10-12T10:42:26Z</time>
      </trkpt>
      <trkpt lat="37.553457" lon="-5.867916">
        <ele>18.901</ele>
        <time>2021-10-12T10:42:28Z</time>
      </trkpt>
      <trkpt lat="37.553579" lon="-5.867822">
        <ele>18.211</ele>
        <time>2021-10-12T10:42:30Z</time>
      </trkpt>
      <trkpt lat="37.553634" lon="-5.867773">
        <ele>17.908</ele>
        <time>2021-10-12T10:42:31Z</time>
      </trkpt>
      <trkpt lat="37.553692" lon="-5.867721">
        <ele>18.283</ele>
        <time>2021-10-12T10:42:32Z</time>
      </trkpt>
      <trkpt lat="37.553840" lon="-5.867608">
        <ele>18.371</ele>
        <time>2021-10-12T10:42:34Z</time>
      </trkpt>
      <trkpt lat="37.554031" lon="-5.867505">
        <ele>17.487</ele>
        <time>2021-10-12T10:42:36Z</time>
      </trkpt>
      <trkpt lat="37.554251" lon="-5.867395">
        <ele>16.630</ele>
        <time>2021-10-12T10:42:38Z</time>
      </trkpt>
      <trkpt lat="37.554449" lon="-5.867271">
        <ele>16.826</ele>
        <time>2021-10-12T10:42:40Z</time>
      </trkpt>
      <trkpt lat="37.554528" lon="-5.867217">
        <ele>16.745</ele>
        <time>2021-10-12T10:42:41Z</time>
      </trkpt>
      <trkpt lat="37.554595" lon="-5.867172">
        <ele>16.475</ele>
        <time>2021-10-12T10:42:42Z</time>
      </trkpt>
      <trkpt lat="37.554722" lon="-5.867092">
        <ele>15.556</ele>
        <time>2021-10-12T10:42:44Z</time>
      </trkpt>
      <trkpt lat="37.554866" lon="-5.866999">
        <ele>15.672</ele>
        <time>2021-10-12T10:42:46Z</time>
      </trkpt>
      <trkpt lat="37.555052" lon="-5.866881">
        <ele>16.013</ele>
        <time>2021-10-12T10:42:48Z</time>
      </trkpt>
      <trkpt lat="37.555155" lon="-5.866816">
        <ele>16.314</ele>
        <time>2021-10-12T10:42:49Z</time>
      </trkpt>
      <trkpt lat="37.555254" lon="-5.866753">
        <ele>16.608</ele>
        <time>2021-10-12T10:42:50Z</time>
      </trkpt>
      <trkpt lat="37.555445" lon="-5.866626">
        <ele>17.275</ele>
        <time>2021-10-12T10:42:52Z</time>
      </trkpt>
      <trkpt lat="37.555642" lon="-5.866506">
        <ele>17.463</ele>
        <time>2021-10-12T10:42:54Z</time>
      </trkpt>
      <trkpt lat="37.555814" lon="-5.866395">
        <ele>17.179</ele>
        <time>2021-10-12T10:42:56Z</time>
      </trkpt>
      <trkpt lat="37.556008" lon="-5.866267">
        <ele>16.462</ele>
        <time>2021-10-12T10:42:58Z</time>
      </trkpt>
      <trkpt lat="37.556245" lon="-5.866115">
        <ele>16.538</ele>
        <time>2021-10-12T10:43:00Z</time>
      </trkpt>
      <trkpt lat="37.556375" lon="-5.866031">
        <ele>16.917</ele>
        <time>2021-10-12T10:43:01Z</time>
      </trkpt>
      <trkpt lat="37.556517" lon="-5.865941">
        <ele>17.287</ele>
        <time>2021-10-12T10:43:02Z</time>
      </trkpt>
      <trkpt lat="37.556820" lon="-5.865745">
        <ele>17.648</ele>
        <time>2021-10-12T10:43:04Z</time>
      </trkpt>
      <trkpt lat="37.556996" lon="-5.865635">
        <ele>18.222</ele>
        <time>2021-10-12T10:43:05Z</time>
      </trkpt>
      <trkpt lat="37.557173" lon="-5.865521">
        <ele>18.762</ele>
        <time>2021-10-12T10:43:06Z</time>
      </trkpt>
      <trkpt lat="37.557364" lon="-5.865402">
        <ele>18.408</ele>
        <time>2021-10-12T10:43:07Z</time>
      </trkpt>
      <trkpt lat="37.557567" lon="-5.865269">
        <ele>18.008</ele>
        <time>2021-10-12T10:43:08Z</time>
      </trkpt>
      <trkpt lat="37.557968" lon="-5.865005">
        <ele>18.080</ele>
        <time>2021-10-12T10:43:10Z</time>
      </trkpt>
      <trkpt lat="37.558177" lon="-5.864869">
        <ele>17.158</ele>
        <time>2021-10-12T10:43:11Z</time>
      </trkpt>
      <trkpt lat="37.558376" lon="-5.864742">
        <ele>16.384</ele>
        <time>2021-10-12T10:43:12Z</time>
      </trkpt>
      <trkpt lat="37.558741" lon="-5.864516">
        <ele>16.677</ele>
        <time>2021-10-12T10:43:14Z</time>
      </trkpt>
      <trkpt lat="37.559055" lon="-5.864312">
        <ele>17.673</ele>
        <time>2021-10-12T10:43:16Z</time>
      </trkpt>
      <trkpt lat="37.559347" lon="-5.864120">
        <ele>18.072</ele>
        <time>2021-10-12T10:43:18Z</time>
      </trkpt>
      <trkpt lat="37.559494" lon="-5.864024">
        <ele>17.922</ele>
        <time>2021-10-12T10:43:19Z</time>
      </trkpt>
      <trkpt lat="37.559645" lon="-5.863928">
        <ele>17.433</ele>
        <time>2021-10-12T10:43:20Z</time>
      </trkpt>
      <trkpt lat="37.559934" lon="-5.863739">
        <ele>16.979</ele>
        <time>2021-10-12T10:43:22Z</time>
      </trkpt>
      <trkpt lat="37.560082" lon="-5.863642">
        <ele>17.005</ele>
        <time>2021-10-12T10:43:23Z</time>
      </trkpt>
      <trkpt lat="37.560388" lon="-5.863444">
        <ele>16.625</ele>
        <time>2021-10-12T10:43:25Z</time>
      </trkpt>
      <trkpt lat="37.560556" lon="-5.863338">
        <ele>17.008</ele>
        <time>2021-10-12T10:43:26Z</time>
      </trkpt>
      <trkpt lat="37.560890" lon="-5.863121">
        <ele>17.665</ele>
        <time>2021-10-12T10:43:28Z</time>
      </trkpt>
      <trkpt lat="37.561068" lon="-5.863008">
        <ele>17.383</ele>
        <time>2021-10-12T10:43:29Z</time>
      </trkpt>
      <trkpt lat="37.561252" lon="-5.862890">
        <ele>17.659</ele>
        <time>2021-10-12T10:43:30Z</time>
      </trkpt>
      <trkpt lat="37.561440" lon="-5.862765">
        <ele>18.272</ele>
        <time>2021-10-12T10:43:31Z</time>
      </trkpt>
      <trkpt lat="37.561636" lon="-5.862637">
        <ele>18.918</ele>
        <time>2021-10-12T10:43:32Z</time>
      </trkpt>
      <trkpt lat="37.562030" lon="-5.862385">
        <ele>18.637</ele>
        <time>2021-10-12T10:43:34Z</time>
      </trkpt>
      <trkpt lat="37.562244" lon="-5.862251">
        <ele>18.167</ele>
        <time>2021-10-12T10:43:35Z</time>
      </trkpt>
      <trkpt lat="37.562459" lon="-5.862113">
        <ele>17.938</ele>
        <time>2021-10-12T10:43:36Z</time>
      </trkpt>
      <trkpt lat="37.562674" lon="-5.861980">
        <ele>17.382</ele>
        <time>2021-10-12T10:43:37Z</time>
      </trkpt>
      <trkpt lat="37.562889" lon="-5.861842">
        <ele>17.443</ele>
        <time>2021-10-12T10:43:38Z</time>
      </trkpt>
      <trkpt lat="37.563265" lon="-5.861602">
        <ele>16.517</ele>
        <time>2021-10-12T10:43:40Z</time>
      </trkpt>
      <trkpt lat="37.563440" lon="-5.861492">
        <ele>15.808</ele>
        <time>2021-10-12T10:43:41Z</time>
      </trkpt>
      <trkpt lat="37.563761" lon="-5.861284">
        <ele>15.346</ele>
        <time>2021-10-12T10:43:43Z</time>
      </trkpt>
      <trkpt lat="37.563915" lon="-5.861184">
        <ele>15.394</ele>
        <time>2021-10-12T10:43:44Z</time>
      </trkpt>
      <trkpt lat="37.564203" lon="-5.860998">
        <ele>15.120</ele>
        <time>2021-10-12T10:43:46Z</time>
      </trkpt>
      <trkpt lat="37.564488" lon="-5.860814">
        <ele>16.213</ele>
        <time>2021-10-12T10:43:48Z</time>
      </trkpt>
      <trkpt lat="37.564630" lon="-5.860721">
        <ele>17.189</ele>
        <time>2021-10-12T10:43:49Z</time>
      </trkpt>
      <trkpt lat="37.564773" lon="-5.860628">
        <ele>17.718</ele>
        <time>2021-10-12T10:43:50Z</time>
      </trkpt>
      <trkpt lat="37.565050" lon="-5.860447">
        <ele>17.738</ele>
        <time>2021-10-12T10:43:52Z</time>
      </trkpt>
      <trkpt lat="37.565195" lon="-5.860352">
        <ele>17.199</ele>
        <time>2021-10-12T10:43:53Z</time>
      </trkpt>
      <trkpt lat="37.565471" lon="-5.860174">
        <ele>18.147</ele>
        <time>2021-10-12T10:43:55Z</time>
      </trkpt>
      <trkpt lat="37.565607" lon="-5.860097">
        <ele>18.729</ele>
        <time>2021-10-12T10:43:56Z</time>
      </trkpt>
      <trkpt lat="37.565889" lon="-5.860027">
        <ele>19.221</ele>
        <time>2021-10-12T10:43:58Z</time>
      </trkpt>
      <trkpt lat="37.566222" lon="-5.860091">
        <ele>19.708</ele>
        <time>2021-10-12T10:44:00Z</time>
      </trkpt>
      <trkpt lat="37.566392" lon="-5.860184">
        <ele>19.332</ele>
        <time>2021-10-12T10:44:01Z</time>
      </trkpt>
      <trkpt lat="37.566562" lon="-5.860317">
        <ele>18.180</ele>
        <time>2021-10-12T10:44:02Z</time>
      </trkpt>
      <trkpt lat="37.566920" lon="-5.860636">
        <ele>14.876</ele>
        <time>2021-10-12T10:44:04Z</time>
      </trkpt>
      <trkpt lat="37.567359" lon="-5.860998">
        <ele>14.739</ele>
        <time>2021-10-12T10:44:06Z</time>
      </trkpt>
      <trkpt lat="37.567868" lon="-5.861407">
        <ele>14.685</ele>
        <time>2021-10-12T10:44:08Z</time>
      </trkpt>
      <trkpt lat="37.568403" lon="-5.861847">
        <ele>15.874</ele>
        <time>2021-10-12T10:44:10Z</time>
      </trkpt>
      <trkpt lat="37.568966" lon="-5.862299">
        <ele>16.034</ele>
        <time>2021-10-12T10:44:12Z</time>
      </trkpt>
      <trkpt lat="37.569232" lon="-5.862497">
        <ele>15.835</ele>
        <time>2021-10-12T10:44:13Z</time>
      </trkpt>
      <trkpt lat="37.569486" lon="-5.862687">
        <ele>14.329</ele>
        <time>2021-10-12T10:44:14Z</time>
      </trkpt>
      <trkpt lat="37.569920" lon="-5.863032">
        <ele>14.700</ele>
        <time>2021-10-12T10:44:16Z</time>
      </trkpt>
      <trkpt lat="37.570130" lon="-5.863200">
        <ele>16.020</ele>
        <time>2021-10-12T10:44:17Z</time>
      </trkpt>
      <trkpt lat="37.570338" lon="-5.863367">
        <ele>17.008</ele>
        <time>2021-10-12T10:44:18Z</time>
      </trkpt>
      <trkpt lat="37.570543" lon="-5.863527">
        <ele>17.040</ele>
        <time>2021-10-12T10:44:19Z</time>
      </trkpt>
      <trkpt lat="37.570742" lon="-5.863687">
        <ele>16.148</ele>
        <time>2021-10-12T10:44:20Z</time>
      </trkpt>
      <trkpt lat="37.571099" lon="-5.863975">
        <ele>14.734</ele>
        <time>2021-10-12T10:44:22Z</time>
      </trkpt>
      <trkpt lat="37.571276" lon="-5.864117">
        <ele>15.367</ele>
        <time>2021-10-12T10:44:23Z</time>
      </trkpt>
      <trkpt lat="37.571647" lon="-5.864416">
        <ele>17.093</ele>
        <time>2021-10-12T10:44:25Z</time>
      </trkpt>
      <trkpt lat="37.571843" lon="-5.864572">
        <ele>17.232</ele>
        <time>2021-10-12T10:44:26Z</time>
      </trkpt>
      <trkpt lat="37.572218" lon="-5.864866">
        <ele>14.562</ele>
        <time>2021-10-12T10:44:28Z</time>
      </trkpt>
      <trkpt lat="37.572584" lon="-5.865159">
        <ele>12.673</ele>
        <time>2021-10-12T10:44:30Z</time>
      </trkpt>
      <trkpt lat="37.572766" lon="-5.865313">
        <ele>12.199</ele>
        <time>2021-10-12T10:44:31Z</time>
      </trkpt>
      <trkpt lat="37.572951" lon="-5.865468">
        <ele>14.107</ele>
        <time>2021-10-12T10:44:32Z</time>
      </trkpt>
      <trkpt lat="37.573324" lon="-5.865740">
        <ele>16.027</ele>
        <time>2021-10-12T10:44:34Z</time>
      </trkpt>
      <trkpt lat="37.573738" lon="-5.865942">
        <ele>15.208</ele>
        <time>2021-10-12T10:44:36Z</time>
      </trkpt>
      <trkpt lat="37.573948" lon="-5.866016">
        <ele>14.887</ele>
        <time>2021-10-12T10:44:37Z</time>
      </trkpt>
      <trkpt lat="37.574163" lon="-5.866097">
        <ele>15.075</ele>
        <time>2021-10-12T10:44:38Z</time>
      </trkpt>
      <trkpt lat="37.574562" lon="-5.866306">
        <ele>16.011</ele>
        <time>2021-10-12T10:44:40Z</time>
      </trkpt>
      <trkpt lat="37.574947" lon="-5.866618">
        <ele>16.024</ele>
        <time>2021-10-12T10:44:42Z</time>
      </trkpt>
      <trkpt lat="37.575279" lon="-5.867051">
        <ele>15.660</ele>
        <time>2021-10-12T10:44:44Z</time>
      </trkpt>
      <trkpt lat="37.575545" lon="-5.867534">
        <ele>13.669</ele>
        <time>2021-10-12T10:44:46Z</time>
      </trkpt>
      <trkpt lat="37.575808" lon="-5.868044">
        <ele>10.149</ele>
        <time>2021-10-12T10:44:48Z</time>
      </trkpt>
      <trkpt lat="37.575939" lon="-5.868307">
        <ele>10.210</ele>
        <time>2021-10-12T10:44:49Z</time>
      </trkpt>
      <trkpt lat="37.576074" lon="-5.868575">
        <ele>10.963</ele>
        <time>2021-10-12T10:44:50Z</time>
      </trkpt>
      <trkpt lat="37.576339" lon="-5.869100">
        <ele>10.044</ele>
        <time>2021-10-12T10:44:52Z</time>
      </trkpt>
      <trkpt lat="37.576601" lon="-5.869608">
        <ele>12.318</ele>
        <time>2021-10-12T10:44:54Z</time>
      </trkpt>
      <trkpt lat="37.576853" lon="-5.870078">
        <ele>16.508</ele>
        <time>2021-10-12T10:44:56Z</time>
      </trkpt>
      <trkpt lat="37.577119" lon="-5.870446">
        <ele>16.574</ele>
        <time>2021-10-12T10:44:58Z</time>
      </trkpt>
      <trkpt lat="37.577465" lon="-5.870721">
        <ele>16.592</ele>
        <time>2021-10-12T10:45:00Z</time>
      </trkpt>
      <trkpt lat="37.577668" lon="-5.870820">
        <ele>17.048</ele>
        <time>2021-10-12T10:45:01Z</time>
      </trkpt>
      <trkpt lat="37.577886" lon="-5.870896">
        <ele>17.581</ele>
        <time>2021-10-12T10:45:02Z</time>
      </trkpt>
      <trkpt lat="37.578323" lon="-5.870993">
        <ele>18.027</ele>
        <time>2021-10-12T10:45:04Z</time>
      </trkpt>
      <trkpt lat="37.578551" lon="-5.871045">
        <ele>17.016</ele>
        <time>2021-10-12T10:45:05Z</time>
      </trkpt>
      <trkpt lat="37.578781" lon="-5.871095">
        <ele>16.426</ele>
        <time>2021-10-12T10:45:06Z</time>
      </trkpt>
      <trkpt lat="37.579013" lon="-5.871146">
        <ele>16.127</ele>
        <time>2021-10-12T10:45:07Z</time>
      </trkpt>
      <trkpt lat="37.579249" lon="-5.871200">
        <ele>16.579</ele>
        <time>2021-10-12T10:45:08Z</time>
      </trkpt>
      <trkpt lat="37.579693" lon="-5.871295">
        <ele>17.905</ele>
        <time>2021-10-12T10:45:10Z</time>
      </trkpt>
      <trkpt lat="37.579904" lon="-5.871341">
        <ele>18.025</ele>
        <time>2021-10-12T10:45:11Z</time>
      </trkpt>
      <trkpt lat="37.580102" lon="-5.871389">
        <ele>17.608</ele>
        <time>2021-10-12T10:45:12Z</time>
      </trkpt>
      <trkpt lat="37.580470" lon="-5.871478">
        <ele>16.365</ele>
        <time>2021-10-12T10:45:14Z</time>
      </trkpt>
      <trkpt lat="37.580815" lon="-5.871549">
        <ele>16.093</ele>
        <time>2021-10-12T10:45:16Z</time>
      </trkpt>
      <trkpt lat="37.581171" lon="-5.871624">
        <ele>18.269</ele>
        <time>2021-10-12T10:45:18Z</time>
      </trkpt>
      <trkpt lat="37.581359" lon="-5.871667">
        <ele>18.942</ele>
        <time>2021-10-12T10:45:19Z</time>
      </trkpt>
      <trkpt lat="37.581554" lon="-5.871712">
        <ele>19.018</ele>
        <time>2021-10-12T10:45:20Z</time>
      </trkpt>
      <trkpt lat="37.581940" lon="-5.871800">
        <ele>18.047</ele>
        <time>2021-10-12T10:45:22Z</time>
      </trkpt>
      <trkpt lat="37.582354" lon="-5.871885">
        <ele>18.097</ele>
        <time>2021-10-12T10:45:24Z</time>
      </trkpt>
      <trkpt lat="37.582778" lon="-5.871975">
        <ele>18.178</ele>
        <time>2021-10-12T10:45:26Z</time>
      </trkpt>
      <trkpt lat="37.583144" lon="-5.872065">
        <ele>17.545</ele>
        <time>2021-10-12T10:45:28Z</time>
      </trkpt>
      <trkpt lat="37.583317" lon="-5.872104">
        <ele>16.747</ele>
        <time>2021-10-12T10:45:29Z</time>
      </trkpt>
      <trkpt lat="37.583640" lon="-5.872176">
        <ele>15.811</ele>
        <time>2021-10-12T10:45:31Z</time>
      </trkpt>
      <trkpt lat="37.583787" lon="-5.872209">
        <ele>16.008</ele>
        <time>2021-10-12T10:45:32Z</time>
      </trkpt>
      <trkpt lat="37.584022" lon="-5.872256">
        <ele>15.622</ele>
        <time>2021-10-12T10:45:34Z</time>
      </trkpt>
      <trkpt lat="37.584218" lon="-5.872296">
        <ele>15.220</ele>
        <time>2021-10-12T10:45:36Z</time>
      </trkpt>
      <trkpt lat="37.584311" lon="-5.872316">
        <ele>15.216</ele>
        <time>2021-10-12T10:45:37Z</time>
      </trkpt>
      <trkpt lat="37.584404" lon="-5.872336">
        <ele>15.149</ele>
        <time>2021-10-12T10:45:38Z</time>
      </trkpt>
      <trkpt lat="37.584609" lon="-5.872386">
        <ele>15.375</ele>
        <time>2021-10-12T10:45:40Z</time>
      </trkpt>
      <trkpt lat="37.584727" lon="-5.872411">
        <ele>15.724</ele>
        <time>2021-10-12T10:45:41Z</time>
      </trkpt>
      <trkpt lat="37.584971" lon="-5.872467">
        <ele>16.934</ele>
        <time>2021-10-12T10:45:43Z</time>
      </trkpt>
      <trkpt lat="37.585080" lon="-5.872492">
        <ele>17.695</ele>
        <time>2021-10-12T10:45:44Z</time>
      </trkpt>
      <trkpt lat="37.585265" lon="-5.872547">
        <ele>18.768</ele>
        <time>2021-10-12T10:45:46Z</time>
      </trkpt>
      <trkpt lat="37.585465" lon="-5.872625">
        <ele>19.242</ele>
        <time>2021-10-12T10:45:48Z</time>
      </trkpt>
      <trkpt lat="37.585695" lon="-5.872754">
        <ele>19.026</ele>
        <time>2021-10-12T10:45:50Z</time>
      </trkpt>
      <trkpt lat="37.585901" lon="-5.872927">
        <ele>18.408</ele>
        <time>2021-10-12T10:45:52Z</time>
      </trkpt>
      <trkpt lat="37.585989" lon="-5.873011">
        <ele>18.194</ele>
        <time>2021-10-12T10:45:53Z</time>
      </trkpt>
      <trkpt lat="37.586062" lon="-5.873085">
        <ele>18.072</ele>
        <time>2021-10-12T10:45:54Z</time>
      </trkpt>
      <trkpt lat="37.586122" lon="-5.873143">
        <ele>18.048</ele>
        <time>2021-10-12T10:45:55Z</time>
      </trkpt>
      <trkpt lat="37.586173" lon="-5.873190">
        <ele>18.091</ele>
        <time>2021-10-12T10:45:56Z</time>
      </trkpt>
      <trkpt lat="37.586260" lon="-5.873264">
        <ele>18.087</ele>
        <time>2021-10-12T10:45:58Z</time>
      </trkpt>
      <trkpt lat="37.586303" lon="-5.873293">
        <ele>18.066</ele>
        <time>2021-10-12T10:45:59Z</time>
      </trkpt>
      <trkpt lat="37.586405" lon="-5.873371">
        <ele>17.926</ele>
        <time>2021-10-12T10:46:01Z</time>
      </trkpt>
      <trkpt lat="37.586458" lon="-5.873431">
        <ele>17.867</ele>
        <time>2021-10-12T10:46:02Z</time>
      </trkpt>
      <trkpt lat="37.586577" lon="-5.873580">
        <ele>17.349</ele>
        <time>2021-10-12T10:46:04Z</time>
      </trkpt>
      <trkpt lat="37.586659" lon="-5.873661">
        <ele>17.002</ele>
        <time>2021-10-12T10:46:05Z</time>
      </trkpt>
      <trkpt lat="37.586814" lon="-5.873813">
        <ele>16.922</ele>
        <time>2021-10-12T10:46:07Z</time>
      </trkpt>
      <trkpt lat="37.586884" lon="-5.873880">
        <ele>17.008</ele>
        <time>2021-10-12T10:46:08Z</time>
      </trkpt>
      <trkpt lat="37.587001" lon="-5.873996">
        <ele>17.622</ele>
        <time>2021-10-12T10:46:10Z</time>
      </trkpt>
      <trkpt lat="37.587104" lon="-5.874097">
        <ele>18.380</ele>
        <time>2021-10-12T10:46:12Z</time>
      </trkpt>
      <trkpt lat="37.587159" lon="-5.874148">
        <ele>18.746</ele>
        <time>2021-10-12T10:46:13Z</time>
      </trkpt>
      <trkpt lat="37.587216" lon="-5.874199">
        <ele>19.149</ele>
        <time>2021-10-12T10:46:14Z</time>
      </trkpt>
      <trkpt lat="37.587311" lon="-5.874296">
        <ele>19.555</ele>
        <time>2021-10-12T10:46:16Z</time>
      </trkpt>
      <trkpt lat="37.587355" lon="-5.874341">
        <ele>19.634</ele>
        <time>2021-10-12T10:46:17Z</time>
      </trkpt>
      <trkpt lat="37.587447" lon="-5.874420">
        <ele>19.914</ele>
        <time>2021-10-12T10:46:19Z</time>
      </trkpt>
      <trkpt lat="37.587501" lon="-5.874470">
        <ele>20.165</ele>
        <time>2021-10-12T10:46:20Z</time>
      </trkpt>
      <trkpt lat="37.587622" lon="-5.874577">
        <ele>20.533</ele>
        <time>2021-10-12T10:46:22Z</time>
      </trkpt>
      <trkpt lat="37.587749" lon="-5.874688">
        <ele>20.923</ele>
        <time>2021-10-12T10:46:24Z</time>
      </trkpt>
      <trkpt lat="37.587811" lon="-5.874753">
        <ele>20.815</ele>
        <time>2021-10-12T10:46:25Z</time>
      </trkpt>
      <trkpt lat="37.587872" lon="-5.874819">
        <ele>20.308</ele>
        <time>2021-10-12T10:46:26Z</time>
      </trkpt>
      <trkpt lat="37.587985" lon="-5.874929">
        <ele>19.591</ele>
        <time>2021-10-12T10:46:28Z</time>
      </trkpt>
      <trkpt lat="37.588088" lon="-5.875013">
        <ele>18.859</ele>
        <time>2021-10-12T10:46:30Z</time>
      </trkpt>
      <trkpt lat="37.588135" lon="-5.875051">
        <ele>18.515</ele>
        <time>2021-10-12T10:46:31Z</time>
      </trkpt>
      <trkpt lat="37.588182" lon="-5.875087">
        <ele>18.268</ele>
        <time>2021-10-12T10:46:32Z</time>
      </trkpt>
      <trkpt lat="37.588282" lon="-5.875144">
        <ele>17.724</ele>
        <time>2021-10-12T10:46:34Z</time>
      </trkpt>
      <trkpt lat="37.588334" lon="-5.875163">
        <ele>17.463</ele>
        <time>2021-10-12T10:46:35Z</time>
      </trkpt>
      <trkpt lat="37.588470" lon="-5.875207">
        <ele>16.843</ele>
        <time>2021-10-12T10:46:37Z</time>
      </trkpt>
      <trkpt lat="37.588543" lon="-5.875231">
        <ele>16.474</ele>
        <time>2021-10-12T10:46:38Z</time>
      </trkpt>
      <trkpt lat="37.588662" lon="-5.875266">
        <ele>16.242</ele>
        <time>2021-10-12T10:46:40Z</time>
      </trkpt>
      <trkpt lat="37.588714" lon="-5.875282">
        <ele>16.422</ele>
        <time>2021-10-12T10:46:41Z</time>
      </trkpt>
      <trkpt lat="37.588831" lon="-5.875315">
        <ele>16.714</ele>
        <time>2021-10-12T10:46:43Z</time>
      </trkpt>
      <trkpt lat="37.588904" lon="-5.875338">
        <ele>16.808</ele>
        <time>2021-10-12T10:46:44Z</time>
      </trkpt>
      <trkpt lat="37.589055" lon="-5.875392">
        <ele>17.422</ele>
        <time>2021-10-12T10:46:46Z</time>
      </trkpt>
      <trkpt lat="37.589193" lon="-5.875444">
        <ele>18.030</ele>
        <time>2021-10-12T10:46:48Z</time>
      </trkpt>
      <trkpt lat="37.589265" lon="-5.875468">
        <ele>18.176</ele>
        <time>2021-10-12T10:46:49Z</time>
      </trkpt>
      <trkpt lat="37.589340" lon="-5.875493">
        <ele>18.179</ele>
        <time>2021-10-12T10:46:50Z</time>
      </trkpt>
      <trkpt lat="37.589477" lon="-5.875545">
        <ele>17.995</ele>
        <time>2021-10-12T10:46:52Z</time>
      </trkpt>
      <trkpt lat="37.589546" lon="-5.875575">
        <ele>17.524</ele>
        <time>2021-10-12T10:46:53Z</time>
      </trkpt>
      <trkpt lat="37.589674" lon="-5.875622">
        <ele>16.774</ele>
        <time>2021-10-12T10:46:55Z</time>
      </trkpt>
      <trkpt lat="37.589726" lon="-5.875640">
        <ele>16.445</ele>
        <time>2021-10-12T10:46:56Z</time>
      </trkpt>
      <trkpt lat="37.589810" lon="-5.875670">
        <ele>16.085</ele>
        <time>2021-10-12T10:46:58Z</time>
      </trkpt>
      <trkpt lat="37.589883" lon="-5.875697">
        <ele>15.789</ele>
        <time>2021-10-12T10:47:00Z</time>
      </trkpt>
      <trkpt lat="37.589928" lon="-5.875713">
        <ele>15.517</ele>
        <time>2021-10-12T10:47:01Z</time>
      </trkpt>
      <trkpt lat="37.589982" lon="-5.875728">
        <ele>15.408</ele>
        <time>2021-10-12T10:47:02Z</time>
      </trkpt>
      <trkpt lat="37.590091" lon="-5.875701">
        <ele>15.896</ele>
        <time>2021-10-12T10:47:04Z</time>
      </trkpt>
      <trkpt lat="37.590198" lon="-5.875696">
        <ele>16.284</ele>
        <time>2021-10-12T10:47:06Z</time>
      </trkpt>
      <trkpt lat="37.590245" lon="-5.875732">
        <ele>16.590</ele>
        <time>2021-10-12T10:47:07Z</time>
      </trkpt>
      <trkpt lat="37.590295" lon="-5.875791">
        <ele>16.943</ele>
        <time>2021-10-12T10:47:08Z</time>
      </trkpt>
      <trkpt lat="37.590418" lon="-5.875920">
        <ele>17.249</ele>
        <time>2021-10-12T10:47:10Z</time>
      </trkpt>
      <trkpt lat="37.590556" lon="-5.876054">
        <ele>17.238</ele>
        <time>2021-10-12T10:47:12Z</time>
      </trkpt>
      <trkpt lat="37.590623" lon="-5.876118">
        <ele>17.068</ele>
        <time>2021-10-12T10:47:13Z</time>
      </trkpt>
      <trkpt lat="37.590693" lon="-5.876187">
        <ele>17.059</ele>
        <time>2021-10-12T10:47:14Z</time>
      </trkpt>
      <trkpt lat="37.590827" lon="-5.876325">
        <ele>17.046</ele>
        <time>2021-10-12T10:47:16Z</time>
      </trkpt>
      <trkpt lat="37.590969" lon="-5.876481">
        <ele>17.288</ele>
        <time>2021-10-12T10:47:18Z</time>
      </trkpt>
      <trkpt lat="37.591045" lon="-5.876565">
        <ele>17.516</ele>
        <time>2021-10-12T10:47:19Z</time>
      </trkpt>
      <trkpt lat="37.591122" lon="-5.876647">
        <ele>17.908</ele>
        <time>2021-10-12T10:47:20Z</time>
      </trkpt>
      <trkpt lat="37.591254" lon="-5.876790">
        <ele>18.062</ele>
        <time>2021-10-12T10:47:22Z</time>
      </trkpt>
      <trkpt lat="37.591314" lon="-5.876855">
        <ele>18.090</ele>
        <time>2021-10-12T10:47:23Z</time>
      </trkpt>
      <trkpt lat="37.591426" lon="-5.876985">
        <ele>17.716</ele>
        <time>2021-10-12T10:47:25Z</time>
      </trkpt>
      <trkpt lat="37.591490" lon="-5.877061">
        <ele>17.479</ele>
        <time>2021-10-12T10:47:26Z</time>
      </trkpt>
      <trkpt lat="37.591645" lon="-5.877233">
        <ele>17.025</ele>
        <time>2021-10-12T10:47:28Z</time>
      </trkpt>
      <trkpt lat="37.591737" lon="-5.877339">
        <ele>16.734</ele>
        <time>2021-10-12T10:47:29Z</time>
      </trkpt>
      <trkpt lat="37.591833" lon="-5.877446">
        <ele>16.474</ele>
        <time>2021-10-12T10:47:30Z</time>
      </trkpt>
      <trkpt lat="37.592005" lon="-5.877642">
        <ele>16.245</ele>
        <time>2021-10-12T10:47:32Z</time>
      </trkpt>
      <trkpt lat="37.592159" lon="-5.877814">
        <ele>15.548</ele>
        <time>2021-10-12T10:47:34Z</time>
      </trkpt>
      <trkpt lat="37.592234" lon="-5.877895">
        <ele>15.461</ele>
        <time>2021-10-12T10:47:35Z</time>
      </trkpt>
      <trkpt lat="37.592305" lon="-5.877975">
        <ele>15.817</ele>
        <time>2021-10-12T10:47:36Z</time>
      </trkpt>
      <trkpt lat="37.592453" lon="-5.878134">
        <ele>16.208</ele>
        <time>2021-10-12T10:47:38Z</time>
      </trkpt>
      <trkpt lat="37.592603" lon="-5.878292">
        <ele>17.332</ele>
        <time>2021-10-12T10:47:40Z</time>
      </trkpt>
      <trkpt lat="37.592683" lon="-5.878377">
        <ele>17.690</ele>
        <time>2021-10-12T10:47:41Z</time>
      </trkpt>
      <trkpt lat="37.592767" lon="-5.878472">
        <ele>17.546</ele>
        <time>2021-10-12T10:47:42Z</time>
      </trkpt>
      <trkpt lat="37.592952" lon="-5.878684">
        <ele>16.859</ele>
        <time>2021-10-12T10:47:44Z</time>
      </trkpt>
      <trkpt lat="37.593136" lon="-5.878874">
        <ele>16.155</ele>
        <time>2021-10-12T10:47:46Z</time>
      </trkpt>
      <trkpt lat="37.593231" lon="-5.878961">
        <ele>16.094</ele>
        <time>2021-10-12T10:47:47Z</time>
      </trkpt>
      <trkpt lat="37.593321" lon="-5.879034">
        <ele>16.064</ele>
        <time>2021-10-12T10:47:48Z</time>
      </trkpt>
      <trkpt lat="37.593403" lon="-5.879102">
        <ele>16.615</ele>
        <time>2021-10-12T10:47:49Z</time>
      </trkpt>
      <trkpt lat="37.593482" lon="-5.879167">
        <ele>17.198</ele>
        <time>2021-10-12T10:47:50Z</time>
      </trkpt>
      <trkpt lat="37.593617" lon="-5.879280">
        <ele>17.615</ele>
        <time>2021-10-12T10:47:52Z</time>
      </trkpt>
      <trkpt lat="37.593691" lon="-5.879336">
        <ele>18.026</ele>
        <time>2021-10-12T10:47:53Z</time>
      </trkpt>
      <trkpt lat="37.593765" lon="-5.879396">
        <ele>18.308</ele>
        <time>2021-10-12T10:47:54Z</time>
      </trkpt>
      <trkpt lat="37.593894" lon="-5.879502">
        <ele>18.847</ele>
        <time>2021-10-12T10:47:56Z</time>
      </trkpt>
      <trkpt lat="37.593985" lon="-5.879574">
        <ele>18.555</ele>
        <time>2021-10-12T10:47:58Z</time>
      </trkpt>
      <trkpt lat="37.594037" lon="-5.879599">
        <ele>18.471</ele>
        <time>2021-10-12T10:47:59Z</time>
      </trkpt>
      <trkpt lat="37.594158" lon="-5.879608">
        <ele>18.454</ele>
        <time>2021-10-12T10:48:01Z</time>
      </trkpt>
      <trkpt lat="37.594213" lon="-5.879598">
        <ele>18.310</ele>
        <time>2021-10-12T10:48:02Z</time>
      </trkpt>
      <trkpt lat="37.594321" lon="-5.879601">
        <ele>17.989</ele>
        <time>2021-10-12T10:48:04Z</time>
      </trkpt>
      <trkpt lat="37.594404" lon="-5.879685">
        <ele>17.329</ele>
        <time>2021-10-12T10:48:06Z</time>
      </trkpt>
      <trkpt lat="37.594413" lon="-5.879805">
        <ele>17.190</ele>
        <time>2021-10-12T10:48:08Z</time>
      </trkpt>
      <trkpt lat="37.594332" lon="-5.879923">
        <ele>17.193</ele>
        <time>2021-10-12T10:48:10Z</time>
      </trkpt>
      <trkpt lat="37.594169" lon="-5.880045">
        <ele>16.865</ele>
        <time>2021-10-12T10:48:12Z</time>
      </trkpt>
      <trkpt lat="37.594086" lon="-5.880132">
        <ele>16.821</ele>
        <time>2021-10-12T10:48:13Z</time>
      </trkpt>
      <trkpt lat="37.594002" lon="-5.880231">
        <ele>16.808</ele>
        <time>2021-10-12T10:48:14Z</time>
      </trkpt>
      <trkpt lat="37.593819" lon="-5.880452">
        <ele>16.597</ele>
        <time>2021-10-12T10:48:16Z</time>
      </trkpt>
      <trkpt lat="37.593593" lon="-5.880730">
        <ele>15.365</ele>
        <time>2021-10-12T10:48:18Z</time>
      </trkpt>
      <trkpt lat="37.593379" lon="-5.880995">
        <ele>13.351</ele>
        <time>2021-10-12T10:48:20Z</time>
      </trkpt>
      <trkpt lat="37.593176" lon="-5.881251">
        <ele>13.784</ele>
        <time>2021-10-12T10:48:22Z</time>
      </trkpt>
      <trkpt lat="37.592949" lon="-5.881529">
        <ele>14.620</ele>
        <time>2021-10-12T10:48:24Z</time>
      </trkpt>
      <trkpt lat="37.592736" lon="-5.881789">
        <ele>14.449</ele>
        <time>2021-10-12T10:48:26Z</time>
      </trkpt>
      <trkpt lat="37.592543" lon="-5.882035">
        <ele>15.019</ele>
        <time>2021-10-12T10:48:28Z</time>
      </trkpt>
      <trkpt lat="37.592342" lon="-5.882289">
        <ele>15.020</ele>
        <time>2021-10-12T10:48:30Z</time>
      </trkpt>
      <trkpt lat="37.592249" lon="-5.882406">
        <ele>15.095</ele>
        <time>2021-10-12T10:48:31Z</time>
      </trkpt>
      <trkpt lat="37.592156" lon="-5.882520">
        <ele>15.149</ele>
        <time>2021-10-12T10:48:32Z</time>
      </trkpt>
      <trkpt lat="37.592007" lon="-5.882734">
        <ele>15.223</ele>
        <time>2021-10-12T10:48:34Z</time>
      </trkpt>
      <trkpt lat="37.591926" lon="-5.882989">
        <ele>15.808</ele>
        <time>2021-10-12T10:48:36Z</time>
      </trkpt>
      <trkpt lat="37.591957" lon="-5.883296">
        <ele>15.117</ele>
        <time>2021-10-12T10:48:38Z</time>
      </trkpt>
      <trkpt lat="37.592090" lon="-5.883696">
        <ele>15.035</ele>
        <time>2021-10-12T10:48:40Z</time>
      </trkpt>
      <trkpt lat="37.592184" lon="-5.883938">
        <ele>15.081</ele>
        <time>2021-10-12T10:48:41Z</time>
      </trkpt>
      <trkpt lat="37.592402" lon="-5.884508">
        <ele>15.314</ele>
        <time>2021-10-12T10:48:43Z</time>
      </trkpt>
      <trkpt lat="37.592522" lon="-5.884831">
        <ele>17.410</ele>
        <time>2021-10-12T10:48:44Z</time>
      </trkpt>
      <trkpt lat="37.592770" lon="-5.885493">
        <ele>18.099</ele>
        <time>2021-10-12T10:48:46Z</time>
      </trkpt>
      <trkpt lat="37.592907" lon="-5.885858">
        <ele>19.959</ele>
        <time>2021-10-12T10:48:47Z</time>
      </trkpt>
      <trkpt lat="37.593176" lon="-5.886610">
        <ele>23.620</ele>
        <time>2021-10-12T10:48:49Z</time>
      </trkpt>
      <trkpt lat="37.593318" lon="-5.887018">
        <ele>24.911</ele>
        <time>2021-10-12T10:48:50Z</time>
      </trkpt>
      <trkpt lat="37.593621" lon="-5.887803">
        <ele>27.121</ele>
        <time>2021-10-12T10:48:52Z</time>
      </trkpt>
      <trkpt lat="37.593773" lon="-5.888182">
        <ele>28.803</ele>
        <time>2021-10-12T10:48:53Z</time>
      </trkpt>
      <trkpt lat="37.594046" lon="-5.888919">
        <ele>31.608</ele>
        <time>2021-10-12T10:48:55Z</time>
      </trkpt>
      <trkpt lat="37.594178" lon="-5.889283">
        <ele>32.049</ele>
        <time>2021-10-12T10:48:56Z</time>
      </trkpt>
      <trkpt lat="37.594410" lon="-5.889922">
        <ele>32.087</ele>
        <time>2021-10-12T10:48:58Z</time>
      </trkpt>
      <trkpt lat="37.594520" lon="-5.890221">
        <ele>33.443</ele>
        <time>2021-10-12T10:48:59Z</time>
      </trkpt>
      <trkpt lat="37.594627" lon="-5.890501">
        <ele>34.316</ele>
        <time>2021-10-12T10:49:00Z</time>
      </trkpt>
      <trkpt lat="37.594729" lon="-5.890769">
        <ele>35.022</ele>
        <time>2021-10-12T10:49:01Z</time>
      </trkpt>
      <trkpt lat="37.594827" lon="-5.891034">
        <ele>35.471</ele>
        <time>2021-10-12T10:49:02Z</time>
      </trkpt>
      <trkpt lat="37.595016" lon="-5.891535">
        <ele>35.731</ele>
        <time>2021-10-12T10:49:04Z</time>
      </trkpt>
      <trkpt lat="37.595214" lon="-5.892075">
        <ele>34.432</ele>
        <time>2021-10-12T10:49:06Z</time>
      </trkpt>
      <trkpt lat="37.595321" lon="-5.892359">
        <ele>33.161</ele>
        <time>2021-10-12T10:49:07Z</time>
      </trkpt>
      <trkpt lat="37.595433" lon="-5.892657">
        <ele>33.721</ele>
        <time>2021-10-12T10:49:08Z</time>
      </trkpt>
      <trkpt lat="37.595643" lon="-5.893227">
        <ele>36.813</ele>
        <time>2021-10-12T10:49:10Z</time>
      </trkpt>
      <trkpt lat="37.595854" lon="-5.893807">
        <ele>37.508</ele>
        <time>2021-10-12T10:49:12Z</time>
      </trkpt>
      <trkpt lat="37.596065" lon="-5.894372">
        <ele>36.994</ele>
        <time>2021-10-12T10:49:14Z</time>
      </trkpt>
      <trkpt lat="37.596258" lon="-5.894908">
        <ele>37.232</ele>
        <time>2021-10-12T10:49:16Z</time>
      </trkpt>
      <trkpt lat="37.596352" lon="-5.895188">
        <ele>37.698</ele>
        <time>2021-10-12T10:49:17Z</time>
      </trkpt>
      <trkpt lat="37.596441" lon="-5.895478">
        <ele>37.841</ele>
        <time>2021-10-12T10:49:18Z</time>
      </trkpt>
      <trkpt lat="37.596599" lon="-5.896098">
        <ele>37.637</ele>
        <time>2021-10-12T10:49:20Z</time>
      </trkpt>
      <trkpt lat="37.596715" lon="-5.896738">
        <ele>37.566</ele>
        <time>2021-10-12T10:49:22Z</time>
      </trkpt>
      <trkpt lat="37.596759" lon="-5.897076">
        <ele>37.256</ele>
        <time>2021-10-12T10:49:23Z</time>
      </trkpt>
      <trkpt lat="37.596820" lon="-5.897770">
        <ele>36.197</ele>
        <time>2021-10-12T10:49:25Z</time>
      </trkpt>
      <trkpt lat="37.596845" lon="-5.898133">
        <ele>35.492</ele>
        <time>2021-10-12T10:49:26Z</time>
      </trkpt>
      <trkpt lat="37.596880" lon="-5.898776">
        <ele>33.073</ele>
        <time>2021-10-12T10:49:28Z</time>
      </trkpt>
      <trkpt lat="37.596883" lon="-5.899092">
        <ele>32.020</ele>
        <time>2021-10-12T10:49:29Z</time>
      </trkpt>
      <trkpt lat="37.596810" lon="-5.899742">
        <ele>32.508</ele>
        <time>2021-10-12T10:49:31Z</time>
      </trkpt>
      <trkpt lat="37.596743" lon="-5.900092">
        <ele>32.667</ele>
        <time>2021-10-12T10:49:32Z</time>
      </trkpt>
      <trkpt lat="37.596595" lon="-5.900785">
        <ele>32.045</ele>
        <time>2021-10-12T10:49:34Z</time>
      </trkpt>
      <trkpt lat="37.596516" lon="-5.901146">
        <ele>32.141</ele>
        <time>2021-10-12T10:49:35Z</time>
      </trkpt>
      <trkpt lat="37.596346" lon="-5.901864">
        <ele>33.284</ele>
        <time>2021-10-12T10:49:37Z</time>
      </trkpt>
      <trkpt lat="37.596263" lon="-5.902235">
        <ele>34.010</ele>
        <time>2021-10-12T10:49:38Z</time>
      </trkpt>
      <trkpt lat="37.596113" lon="-5.902950">
        <ele>36.229</ele>
        <time>2021-10-12T10:49:40Z</time>
      </trkpt>
      <trkpt lat="37.595966" lon="-5.903637">
        <ele>37.519</ele>
        <time>2021-10-12T10:49:42Z</time>
      </trkpt>
      <trkpt lat="37.595817" lon="-5.904317">
        <ele>37.640</ele>
        <time>2021-10-12T10:49:44Z</time>
      </trkpt>
      <trkpt lat="37.595672" lon="-5.904976">
        <ele>38.092</ele>
        <time>2021-10-12T10:49:46Z</time>
      </trkpt>
      <trkpt lat="37.595529" lon="-5.905653">
        <ele>39.373</ele>
        <time>2021-10-12T10:49:48Z</time>
      </trkpt>
      <trkpt lat="37.595454" lon="-5.905995">
        <ele>40.820</ele>
        <time>2021-10-12T10:49:49Z</time>
      </trkpt>
      <trkpt lat="37.595380" lon="-5.906351">
        <ele>41.608</ele>
        <time>2021-10-12T10:49:50Z</time>
      </trkpt>
      <trkpt lat="37.595228" lon="-5.907045">
        <ele>45.227</ele>
        <time>2021-10-12T10:49:52Z</time>
      </trkpt>
      <trkpt lat="37.595074" lon="-5.907764">
        <ele>45.725</ele>
        <time>2021-10-12T10:49:54Z</time>
      </trkpt>
      <trkpt lat="37.594998" lon="-5.908126">
        <ele>46.331</ele>
        <time>2021-10-12T10:49:55Z</time>
      </trkpt>
      <trkpt lat="37.594915" lon="-5.908500">
        <ele>48.584</ele>
        <time>2021-10-12T10:49:56Z</time>
      </trkpt>
      <trkpt lat="37.594758" lon="-5.909214">
        <ele>51.060</ele>
        <time>2021-10-12T10:49:58Z</time>
      </trkpt>
      <trkpt lat="37.594676" lon="-5.909591">
        <ele>50.929</ele>
        <time>2021-10-12T10:49:59Z</time>
      </trkpt>
      <trkpt lat="37.594518" lon="-5.910343">
        <ele>51.819</ele>
        <time>2021-10-12T10:50:01Z</time>
      </trkpt>
      <trkpt lat="37.594442" lon="-5.910701">
        <ele>51.090</ele>
        <time>2021-10-12T10:50:02Z</time>
      </trkpt>
      <trkpt lat="37.594293" lon="-5.911342">
        <ele>53.381</ele>
        <time>2021-10-12T10:50:04Z</time>
      </trkpt>
      <trkpt lat="37.594128" lon="-5.911988">
        <ele>53.061</ele>
        <time>2021-10-12T10:50:06Z</time>
      </trkpt>
      <trkpt lat="37.594044" lon="-5.912318">
        <ele>51.817</ele>
        <time>2021-10-12T10:50:07Z</time>
      </trkpt>
      <trkpt lat="37.593959" lon="-5.912667">
        <ele>51.708</ele>
        <time>2021-10-12T10:50:08Z</time>
      </trkpt>
      <trkpt lat="37.593827" lon="-5.913374">
        <ele>49.956</ele>
        <time>2021-10-12T10:50:10Z</time>
      </trkpt>
      <trkpt lat="37.593789" lon="-5.913745">
        <ele>48.224</ele>
        <time>2021-10-12T10:50:11Z</time>
      </trkpt>
      <trkpt lat="37.593750" lon="-5.914499">
        <ele>46.670</ele>
        <time>2021-10-12T10:50:13Z</time>
      </trkpt>
      <trkpt lat="37.593739" lon="-5.914884">
        <ele>47.313</ele>
        <time>2021-10-12T10:50:14Z</time>
      </trkpt>
      <trkpt lat="37.593711" lon="-5.915590">
        <ele>48.089</ele>
        <time>2021-10-12T10:50:16Z</time>
      </trkpt>
      <trkpt lat="37.593678" lon="-5.916280">
        <ele>50.018</ele>
        <time>2021-10-12T10:50:18Z</time>
      </trkpt>
      <trkpt lat="37.593660" lon="-5.916604">
        <ele>50.538</ele>
        <time>2021-10-12T10:50:19Z</time>
      </trkpt>
      <trkpt lat="37.593630" lon="-5.916938">
        <ele>48.969</ele>
        <time>2021-10-12T10:50:20Z</time>
      </trkpt>
      <trkpt lat="37.593499" lon="-5.917555">
        <ele>48.343</ele>
        <time>2021-10-12T10:50:22Z</time>
      </trkpt>
      <trkpt lat="37.593264" lon="-5.918158">
        <ele>49.664</ele>
        <time>2021-10-12T10:50:24Z</time>
      </trkpt>
      <trkpt lat="37.592918" lon="-5.918716">
        <ele>46.610</ele>
        <time>2021-10-12T10:50:26Z</time>
      </trkpt>
      <trkpt lat="37.592528" lon="-5.919234">
        <ele>46.308</ele>
        <time>2021-10-12T10:50:28Z</time>
      </trkpt>
      <trkpt lat="37.592128" lon="-5.919786">
        <ele>44.222</ele>
        <time>2021-10-12T10:50:30Z</time>
      </trkpt>
      <trkpt lat="37.591710" lon="-5.920379">
        <ele>43.540</ele>
        <time>2021-10-12T10:50:32Z</time>
      </trkpt>
      <trkpt lat="37.591287" lon="-5.920979">
        <ele>39.136</ele>
        <time>2021-10-12T10:50:34Z</time>
      </trkpt>
      <trkpt lat="37.591068" lon="-5.921289">
        <ele>38.379</ele>
        <time>2021-10-12T10:50:35Z</time>
      </trkpt>
      <trkpt lat="37.590629" lon="-5.921907">
        <ele>39.035</ele>
        <time>2021-10-12T10:50:37Z</time>
      </trkpt>
      <trkpt lat="37.590402" lon="-5.922218">
        <ele>38.624</ele>
        <time>2021-10-12T10:50:38Z</time>
      </trkpt>
      <trkpt lat="37.589979" lon="-5.922817">
        <ele>40.014</ele>
        <time>2021-10-12T10:50:40Z</time>
      </trkpt>
      <trkpt lat="37.589550" lon="-5.923425">
        <ele>41.075</ele>
        <time>2021-10-12T10:50:42Z</time>
      </trkpt>
      <trkpt lat="37.589334" lon="-5.923730">
        <ele>38.543</ele>
        <time>2021-10-12T10:50:43Z</time>
      </trkpt>
      <trkpt lat="37.589113" lon="-5.924041">
        <ele>38.364</ele>
        <time>2021-10-12T10:50:44Z</time>
      </trkpt>
      <trkpt lat="37.588693" lon="-5.924636">
        <ele>37.610</ele>
        <time>2021-10-12T10:50:46Z</time>
      </trkpt>
      <trkpt lat="37.588282" lon="-5.925220">
        <ele>35.208</ele>
        <time>2021-10-12T10:50:48Z</time>
      </trkpt>
      <trkpt lat="37.588086" lon="-5.925504">
        <ele>32.742</ele>
        <time>2021-10-12T10:50:49Z</time>
      </trkpt>
      <trkpt lat="37.587894" lon="-5.925798">
        <ele>32.710</ele>
        <time>2021-10-12T10:50:50Z</time>
      </trkpt>
      <trkpt lat="37.587571" lon="-5.926408">
        <ele>30.836</ele>
        <time>2021-10-12T10:50:52Z</time>
      </trkpt>
      <trkpt lat="37.587441" lon="-5.926738">
        <ele>28.089</ele>
        <time>2021-10-12T10:50:53Z</time>
      </trkpt>
      <trkpt lat="37.587244" lon="-5.927430">
        <ele>28.065</ele>
        <time>2021-10-12T10:50:55Z</time>
      </trkpt>
      <trkpt lat="37.587168" lon="-5.927803">
        <ele>29.084</ele>
        <time>2021-10-12T10:50:56Z</time>
      </trkpt>
      <trkpt lat="37.587110" lon="-5.928557">
        <ele>30.284</ele>
        <time>2021-10-12T10:50:58Z</time>
      </trkpt>
      <trkpt lat="37.587101" lon="-5.928960">
        <ele>31.365</ele>
        <time>2021-10-12T10:50:59Z</time>
      </trkpt>
      <trkpt lat="37.587090" lon="-5.929780">
        <ele>35.059</ele>
        <time>2021-10-12T10:51:01Z</time>
      </trkpt>
      <trkpt lat="37.587085" lon="-5.930201">
        <ele>35.403</ele>
        <time>2021-10-12T10:51:02Z</time>
      </trkpt>
      <trkpt lat="37.587072" lon="-5.930996">
        <ele>38.523</ele>
        <time>2021-10-12T10:51:04Z</time>
      </trkpt>
      <trkpt lat="37.587057" lon="-5.931788">
        <ele>40.708</ele>
        <time>2021-10-12T10:51:06Z</time>
      </trkpt>
      <trkpt lat="37.587053" lon="-5.932547">
        <ele>44.193</ele>
        <time>2021-10-12T10:51:08Z</time>
      </trkpt>
      <trkpt lat="37.587097" lon="-5.933280">
        <ele>44.991</ele>
        <time>2021-10-12T10:51:10Z</time>
      </trkpt>
      <trkpt lat="37.587145" lon="-5.933665">
        <ele>45.957</ele>
        <time>2021-10-12T10:51:11Z</time>
      </trkpt>
      <trkpt lat="37.587196" lon="-5.934048">
        <ele>47.460</ele>
        <time>2021-10-12T10:51:12Z</time>
      </trkpt>
      <trkpt lat="37.587245" lon="-5.934426">
        <ele>50.096</ele>
        <time>2021-10-12T10:51:13Z</time>
      </trkpt>
      <trkpt lat="37.587293" lon="-5.934815">
        <ele>49.915</ele>
        <time>2021-10-12T10:51:14Z</time>
      </trkpt>
      <trkpt lat="37.587382" lon="-5.935536">
        <ele>50.115</ele>
        <time>2021-10-12T10:51:16Z</time>
      </trkpt>
      <trkpt lat="37.587467" lon="-5.936217">
        <ele>50.896</ele>
        <time>2021-10-12T10:51:18Z</time>
      </trkpt>
      <trkpt lat="37.587508" lon="-5.936553">
        <ele>51.662</ele>
        <time>2021-10-12T10:51:19Z</time>
      </trkpt>
      <trkpt lat="37.587542" lon="-5.936900">
        <ele>51.183</ele>
        <time>2021-10-12T10:51:20Z</time>
      </trkpt>
      <trkpt lat="37.587552" lon="-5.937576">
        <ele>48.911</ele>
        <time>2021-10-12T10:51:22Z</time>
      </trkpt>
      <trkpt lat="37.587530" lon="-5.937925">
        <ele>49.208</ele>
        <time>2021-10-12T10:51:23Z</time>
      </trkpt>
      <trkpt lat="37.587425" lon="-5.938620">
        <ele>57.364</ele>
        <time>2021-10-12T10:51:25Z</time>
      </trkpt>
      <trkpt lat="37.587349" lon="-5.938974">
        <ele>59.942</ele>
        <time>2021-10-12T10:51:26Z</time>
      </trkpt>
      <trkpt lat="37.587158" lon="-5.939643">
        <ele>59.138</ele>
        <time>2021-10-12T10:51:28Z</time>
      </trkpt>
      <trkpt lat="37.587041" lon="-5.939991">
        <ele>56.461</ele>
        <time>2021-10-12T10:51:29Z</time>
      </trkpt>
      <trkpt lat="37.586803" lon="-5.940690">
        <ele>54.597</ele>
        <time>2021-10-12T10:51:31Z</time>
      </trkpt>
      <trkpt lat="37.586677" lon="-5.941060">
        <ele>54.076</ele>
        <time>2021-10-12T10:51:32Z</time>
      </trkpt>
      <trkpt lat="37.586438" lon="-5.941773">
        <ele>55.356</ele>
        <time>2021-10-12T10:51:34Z</time>
      </trkpt>
      <trkpt lat="37.586192" lon="-5.942505">
        <ele>52.017</ele>
        <time>2021-10-12T10:51:36Z</time>
      </trkpt>
      <trkpt lat="37.585946" lon="-5.943240">
        <ele>52.569</ele>
        <time>2021-10-12T10:51:38Z</time>
      </trkpt>
      <trkpt lat="37.585714" lon="-5.943944">
        <ele>50.604</ele>
        <time>2021-10-12T10:51:40Z</time>
      </trkpt>
      <trkpt lat="37.585599" lon="-5.944293">
        <ele>49.524</ele>
        <time>2021-10-12T10:51:41Z</time>
      </trkpt>
      <trkpt lat="37.585487" lon="-5.944630">
        <ele>48.308</ele>
        <time>2021-10-12T10:51:42Z</time>
      </trkpt>
      <trkpt lat="37.585268" lon="-5.945291">
        <ele>48.024</ele>
        <time>2021-10-12T10:51:44Z</time>
      </trkpt>
      <trkpt lat="37.585057" lon="-5.945932">
        <ele>47.252</ele>
        <time>2021-10-12T10:51:46Z</time>
      </trkpt>
      <trkpt lat="37.584948" lon="-5.946264">
        <ele>46.878</ele>
        <time>2021-10-12T10:51:47Z</time>
      </trkpt>
      <trkpt lat="37.584840" lon="-5.946590">
        <ele>46.791</ele>
        <time>2021-10-12T10:51:48Z</time>
      </trkpt>
      <trkpt lat="37.584622" lon="-5.947253">
        <ele>49.337</ele>
        <time>2021-10-12T10:51:50Z</time>
      </trkpt>
      <trkpt lat="37.584411" lon="-5.947896">
        <ele>49.876</ele>
        <time>2021-10-12T10:51:52Z</time>
      </trkpt>
      <trkpt lat="37.584193" lon="-5.948554">
        <ele>49.226</ele>
        <time>2021-10-12T10:51:54Z</time>
      </trkpt>
      <trkpt lat="37.583971" lon="-5.949222">
        <ele>48.247</ele>
        <time>2021-10-12T10:51:56Z</time>
      </trkpt>
      <trkpt lat="37.583763" lon="-5.949863">
        <ele>48.889</ele>
        <time>2021-10-12T10:51:58Z</time>
      </trkpt>
      <trkpt lat="37.583579" lon="-5.950519">
        <ele>47.706</ele>
        <time>2021-10-12T10:52:00Z</time>
      </trkpt>
      <trkpt lat="37.583514" lon="-5.950862">
        <ele>47.626</ele>
        <time>2021-10-12T10:52:01Z</time>
      </trkpt>
      <trkpt lat="37.583474" lon="-5.951214">
        <ele>46.908</ele>
        <time>2021-10-12T10:52:02Z</time>
      </trkpt>
      <trkpt lat="37.583482" lon="-5.951890">
        <ele>45.936</ele>
        <time>2021-10-12T10:52:04Z</time>
      </trkpt>
      <trkpt lat="37.583522" lon="-5.952235">
        <ele>46.684</ele>
        <time>2021-10-12T10:52:05Z</time>
      </trkpt>
      <trkpt lat="37.583577" lon="-5.952575">
        <ele>46.070</ele>
        <time>2021-10-12T10:52:06Z</time>
      </trkpt>
      <trkpt lat="37.583687" lon="-5.953256">
        <ele>47.773</ele>
        <time>2021-10-12T10:52:08Z</time>
      </trkpt>
      <trkpt lat="37.583780" lon="-5.953907">
        <ele>49.169</ele>
        <time>2021-10-12T10:52:10Z</time>
      </trkpt>
      <trkpt lat="37.583873" lon="-5.954502">
        <ele>50.288</ele>
        <time>2021-10-12T10:52:12Z</time>
      </trkpt>
      <trkpt lat="37.583957" lon="-5.955002">
        <ele>53.078</ele>
        <time>2021-10-12T10:52:14Z</time>
      </trkpt>
      <trkpt lat="37.584036" lon="-5.955458">
        <ele>54.939</ele>
        <time>2021-10-12T10:52:16Z</time>
      </trkpt>
      <trkpt lat="37.584099" lon="-5.955959">
        <ele>56.132</ele>
        <time>2021-10-12T10:52:18Z</time>
      </trkpt>
      <trkpt lat="37.584124" lon="-5.956236">
        <ele>56.292</ele>
        <time>2021-10-12T10:52:19Z</time>
      </trkpt>
      <trkpt lat="37.584156" lon="-5.956524">
        <ele>56.011</ele>
        <time>2021-10-12T10:52:20Z</time>
      </trkpt>
      <trkpt lat="37.584236" lon="-5.957081">
        <ele>57.608</ele>
        <time>2021-10-12T10:52:22Z</time>
      </trkpt>
      <trkpt lat="37.584273" lon="-5.957352">
        <ele>57.891</ele>
        <time>2021-10-12T10:52:23Z</time>
      </trkpt>
      <trkpt lat="37.584308" lon="-5.957607">
        <ele>56.279</ele>
        <time>2021-10-12T10:52:24Z</time>
      </trkpt>
      <trkpt lat="37.584376" lon="-5.958102">
        <ele>55.265</ele>
        <time>2021-10-12T10:52:26Z</time>
      </trkpt>
      <trkpt lat="37.584449" lon="-5.958600">
        <ele>57.988</ele>
        <time>2021-10-12T10:52:28Z</time>
      </trkpt>
      <trkpt lat="37.584529" lon="-5.959130">
        <ele>57.824</ele>
        <time>2021-10-12T10:52:30Z</time>
      </trkpt>
      <trkpt lat="37.584601" lon="-5.959636">
        <ele>58.163</ele>
        <time>2021-10-12T10:52:32Z</time>
      </trkpt>
      <trkpt lat="37.584658" lon="-5.960054">
        <ele>58.783</ele>
        <time>2021-10-12T10:52:34Z</time>
      </trkpt>
      <trkpt lat="37.584686" lon="-5.960245">
        <ele>59.114</ele>
        <time>2021-10-12T10:52:35Z</time>
      </trkpt>
      <trkpt lat="37.584711" lon="-5.960421">
        <ele>60.115</ele>
        <time>2021-10-12T10:52:36Z</time>
      </trkpt>
      <trkpt lat="37.584752" lon="-5.960737">
        <ele>62.265</ele>
        <time>2021-10-12T10:52:38Z</time>
      </trkpt>
      <trkpt lat="37.584788" lon="-5.961000">
        <ele>63.511</ele>
        <time>2021-10-12T10:52:40Z</time>
      </trkpt>
      <trkpt lat="37.584821" lon="-5.961224">
        <ele>64.708</ele>
        <time>2021-10-12T10:52:42Z</time>
      </trkpt>
      <trkpt lat="37.584842" lon="-5.961321">
        <ele>65.289</ele>
        <time>2021-10-12T10:52:43Z</time>
      </trkpt>
      <trkpt lat="37.584870" lon="-5.961414">
        <ele>65.677</ele>
        <time>2021-10-12T10:52:44Z</time>
      </trkpt>
      <trkpt lat="37.584943" lon="-5.961604">
        <ele>66.063</ele>
        <time>2021-10-12T10:52:46Z</time>
      </trkpt>
      <trkpt lat="37.584963" lon="-5.961717">
        <ele>66.216</ele>
        <time>2021-10-12T10:52:47Z</time>
      </trkpt>
      <trkpt lat="37.584955" lon="-5.961961">
        <ele>66.372</ele>
        <time>2021-10-12T10:52:49Z</time>
      </trkpt>
      <trkpt lat="37.584953" lon="-5.962112">
        <ele>66.351</ele>
        <time>2021-10-12T10:52:50Z</time>
      </trkpt>
      <trkpt lat="37.584985" lon="-5.962450">
        <ele>66.971</ele>
        <time>2021-10-12T10:52:52Z</time>
      </trkpt>
      <trkpt lat="37.585008" lon="-5.962642">
        <ele>68.632</ele>
        <time>2021-10-12T10:52:53Z</time>
      </trkpt>
      <trkpt lat="37.585031" lon="-5.963009">
        <ele>71.029</ele>
        <time>2021-10-12T10:52:55Z</time>
      </trkpt>
      <trkpt lat="37.585029" lon="-5.963188">
        <ele>70.800</ele>
        <time>2021-10-12T10:52:56Z</time>
      </trkpt>
      <trkpt lat="37.585004" lon="-5.963503">
        <ele>70.120</ele>
        <time>2021-10-12T10:52:58Z</time>
      </trkpt>
      <trkpt lat="37.584982" lon="-5.963663">
        <ele>70.408</ele>
        <time>2021-10-12T10:52:59Z</time>
      </trkpt>
      <trkpt lat="37.584929" lon="-5.963962">
        <ele>72.130</ele>
        <time>2021-10-12T10:53:01Z</time>
      </trkpt>
      <trkpt lat="37.584898" lon="-5.964100">
        <ele>72.678</ele>
        <time>2021-10-12T10:53:02Z</time>
      </trkpt>
      <trkpt lat="37.584843" lon="-5.964321">
        <ele>73.634</ele>
        <time>2021-10-12T10:53:04Z</time>
      </trkpt>
      <trkpt lat="37.584777" lon="-5.964515">
        <ele>74.337</ele>
        <time>2021-10-12T10:53:06Z</time>
      </trkpt>
      <trkpt lat="37.584739" lon="-5.964615">
        <ele>74.693</ele>
        <time>2021-10-12T10:53:07Z</time>
      </trkpt>
      <trkpt lat="37.584694" lon="-5.964720">
        <ele>75.112</ele>
        <time>2021-10-12T10:53:08Z</time>
      </trkpt>
      <trkpt lat="37.584599" lon="-5.964918">
        <ele>76.572</ele>
        <time>2021-10-12T10:53:10Z</time>
      </trkpt>
      <trkpt lat="37.584546" lon="-5.965014">
        <ele>77.313</ele>
        <time>2021-10-12T10:53:11Z</time>
      </trkpt>
      <trkpt lat="37.584486" lon="-5.965107">
        <ele>77.839</ele>
        <time>2021-10-12T10:53:12Z</time>
      </trkpt>
      <trkpt lat="37.584363" lon="-5.965299">
        <ele>77.901</ele>
        <time>2021-10-12T10:53:14Z</time>
      </trkpt>
      <trkpt lat="37.584266" lon="-5.965477">
        <ele>77.321</ele>
        <time>2021-10-12T10:53:16Z</time>
      </trkpt>
      <trkpt lat="37.584173" lon="-5.965639">
        <ele>76.408</ele>
        <time>2021-10-12T10:53:18Z</time>
      </trkpt>
      <trkpt lat="37.584072" lon="-5.965811">
        <ele>75.141</ele>
        <time>2021-10-12T10:53:20Z</time>
      </trkpt>
      <trkpt lat="37.583986" lon="-5.965953">
        <ele>75.019</ele>
        <time>2021-10-12T10:53:22Z</time>
      </trkpt>
      <trkpt lat="37.583913" lon="-5.966077">
        <ele>75.015</ele>
        <time>2021-10-12T10:53:24Z</time>
      </trkpt>
      <trkpt lat="37.583877" lon="-5.966139">
        <ele>75.078</ele>
        <time>2021-10-12T10:53:25Z</time>
      </trkpt>
      <trkpt lat="37.583833" lon="-5.966210">
        <ele>74.814</ele>
        <time>2021-10-12T10:53:26Z</time>
      </trkpt>
      <trkpt lat="37.583727" lon="-5.966379">
        <ele>74.413</ele>
        <time>2021-10-12T10:53:28Z</time>
      </trkpt>
      <trkpt lat="37.583667" lon="-5.966476">
        <ele>74.033</ele>
        <time>2021-10-12T10:53:29Z</time>
      </trkpt>
      <trkpt lat="37.583560" lon="-5.966658">
        <ele>73.094</ele>
        <time>2021-10-12T10:53:31Z</time>
      </trkpt>
      <trkpt lat="37.583510" lon="-5.966742">
        <ele>73.116</ele>
        <time>2021-10-12T10:53:32Z</time>
      </trkpt>
      <trkpt lat="37.583424" lon="-5.966886">
        <ele>73.576</ele>
        <time>2021-10-12T10:53:34Z</time>
      </trkpt>
      <trkpt lat="37.583350" lon="-5.967017">
        <ele>73.913</ele>
        <time>2021-10-12T10:53:36Z</time>
      </trkpt>
      <trkpt lat="37.583313" lon="-5.967079">
        <ele>74.008</ele>
        <time>2021-10-12T10:53:37Z</time>
      </trkpt>
      <trkpt lat="37.583278" lon="-5.967147">
        <ele>74.029</ele>
        <time>2021-10-12T10:53:38Z</time>
      </trkpt>
      <trkpt lat="37.583197" lon="-5.967317">
        <ele>73.537</ele>
        <time>2021-10-12T10:53:40Z</time>
      </trkpt>
      <trkpt lat="37.583137" lon="-5.967416">
        <ele>73.143</ele>
        <time>2021-10-12T10:53:41Z</time>
      </trkpt>
      <trkpt lat="37.583003" lon="-5.967619">
        <ele>71.436</ele>
        <time>2021-10-12T10:53:43Z</time>
      </trkpt>
      <trkpt lat="37.582940" lon="-5.967721">
        <ele>70.182</ele>
        <time>2021-10-12T10:53:44Z</time>
      </trkpt>
      <trkpt lat="37.582833" lon="-5.967906">
        <ele>68.441</ele>
        <time>2021-10-12T10:53:46Z</time>
      </trkpt>
      <trkpt lat="37.582782" lon="-5.967996">
        <ele>67.571</ele>
        <time>2021-10-12T10:53:47Z</time>
      </trkpt>
      <trkpt lat="37.582734" lon="-5.968084">
        <ele>67.322</ele>
        <time>2021-10-12T10:53:48Z</time>
      </trkpt>
      <trkpt lat="37.582645" lon="-5.968257">
        <ele>66.641</ele>
        <time>2021-10-12T10:53:50Z</time>
      </trkpt>
      <trkpt lat="37.582562" lon="-5.968436">
        <ele>65.881</ele>
        <time>2021-10-12T10:53:52Z</time>
      </trkpt>
      <trkpt lat="37.582513" lon="-5.968561">
        <ele>65.309</ele>
        <time>2021-10-12T10:53:53Z</time>
      </trkpt>
      <trkpt lat="37.582411" lon="-5.968889">
        <ele>64.008</ele>
        <time>2021-10-12T10:53:55Z</time>
      </trkpt>
      <trkpt lat="37.582364" lon="-5.969094">
        <ele>63.762</ele>
        <time>2021-10-12T10:53:56Z</time>
      </trkpt>
      <trkpt lat="37.582290" lon="-5.969535">
        <ele>66.690</ele>
        <time>2021-10-12T10:53:58Z</time>
      </trkpt>
      <trkpt lat="37.582241" lon="-5.969994">
        <ele>68.626</ele>
        <time>2021-10-12T10:54:00Z</time>
      </trkpt>
      <trkpt lat="37.582236" lon="-5.970217">
        <ele>67.389</ele>
        <time>2021-10-12T10:54:01Z</time>
      </trkpt>
      <trkpt lat="37.582231" lon="-5.970453">
        <ele>67.515</ele>
        <time>2021-10-12T10:54:02Z</time>
      </trkpt>
      <trkpt lat="37.582192" lon="-5.970900">
        <ele>66.824</ele>
        <time>2021-10-12T10:54:04Z</time>
      </trkpt>
      <trkpt lat="37.582086" lon="-5.971344">
        <ele>65.294</ele>
        <time>2021-10-12T10:54:06Z</time>
      </trkpt>
      <trkpt lat="37.581893" lon="-5.971768">
        <ele>66.335</ele>
        <time>2021-10-12T10:54:08Z</time>
      </trkpt>
      <trkpt lat="37.581644" lon="-5.972104">
        <ele>70.081</ele>
        <time>2021-10-12T10:54:10Z</time>
      </trkpt>
      <trkpt lat="37.581366" lon="-5.972362">
        <ele>70.861</ele>
        <time>2021-10-12T10:54:12Z</time>
      </trkpt>
      <trkpt lat="37.581219" lon="-5.972474">
        <ele>74.117</ele>
        <time>2021-10-12T10:54:13Z</time>
      </trkpt>
      <trkpt lat="37.581068" lon="-5.972582">
        <ele>77.108</ele>
        <time>2021-10-12T10:54:14Z</time>
      </trkpt>
      <trkpt lat="37.580775" lon="-5.972795">
        <ele>81.066</ele>
        <time>2021-10-12T10:54:16Z</time>
      </trkpt>
      <trkpt lat="37.580621" lon="-5.972902">
        <ele>80.754</ele>
        <time>2021-10-12T10:54:17Z</time>
      </trkpt>
      <trkpt lat="37.580473" lon="-5.973001">
        <ele>79.860</ele>
        <time>2021-10-12T10:54:18Z</time>
      </trkpt>
      <trkpt lat="37.580176" lon="-5.973199">
        <ele>79.063</ele>
        <time>2021-10-12T10:54:20Z</time>
      </trkpt>
      <trkpt lat="37.579853" lon="-5.973428">
        <ele>80.419</ele>
        <time>2021-10-12T10:54:22Z</time>
      </trkpt>
      <trkpt lat="37.579670" lon="-5.973556">
        <ele>82.158</ele>
        <time>2021-10-12T10:54:23Z</time>
      </trkpt>
      <trkpt lat="37.579480" lon="-5.973697">
        <ele>83.878</ele>
        <time>2021-10-12T10:54:24Z</time>
      </trkpt>
      <trkpt lat="37.579103" lon="-5.974054">
        <ele>84.629</ele>
        <time>2021-10-12T10:54:26Z</time>
      </trkpt>
      <trkpt lat="37.578782" lon="-5.974459">
        <ele>85.215</ele>
        <time>2021-10-12T10:54:28Z</time>
      </trkpt>
      <trkpt lat="37.578630" lon="-5.974671">
        <ele>83.465</ele>
        <time>2021-10-12T10:54:29Z</time>
      </trkpt>
      <trkpt lat="37.578320" lon="-5.975079">
        <ele>78.111</ele>
        <time>2021-10-12T10:54:31Z</time>
      </trkpt>
      <trkpt lat="37.578157" lon="-5.975281">
        <ele>74.708</ele>
        <time>2021-10-12T10:54:32Z</time>
      </trkpt>
      <trkpt lat="37.577847" lon="-5.975672">
        <ele>71.319</ele>
        <time>2021-10-12T10:54:34Z</time>
      </trkpt>
      <trkpt lat="37.577532" lon="-5.976072">
        <ele>67.337</ele>
        <time>2021-10-12T10:54:36Z</time>
      </trkpt>
      <trkpt lat="37.577221" lon="-5.976465">
        <ele>67.023</ele>
        <time>2021-10-12T10:54:38Z</time>
      </trkpt>
      <trkpt lat="37.576938" lon="-5.976828">
        <ele>64.646</ele>
        <time>2021-10-12T10:54:40Z</time>
      </trkpt>
      <trkpt lat="37.576800" lon="-5.977017">
        <ele>64.412</ele>
        <time>2021-10-12T10:54:41Z</time>
      </trkpt>
      <trkpt lat="37.576550" lon="-5.977435">
        <ele>65.321</ele>
        <time>2021-10-12T10:54:43Z</time>
      </trkpt>
      <trkpt lat="37.576436" lon="-5.977674">
        <ele>66.451</ele>
        <time>2021-10-12T10:54:44Z</time>
      </trkpt>
      <trkpt lat="37.576234" lon="-5.978152">
        <ele>68.752</ele>
        <time>2021-10-12T10:54:46Z</time>
      </trkpt>
      <trkpt lat="37.576030" lon="-5.978656">
        <ele>69.732</ele>
        <time>2021-10-12T10:54:48Z</time>
      </trkpt>
      <trkpt lat="37.575921" lon="-5.978910">
        <ele>69.392</ele>
        <time>2021-10-12T10:54:49Z</time>
      </trkpt>
      <trkpt lat="37.575808" lon="-5.979169">
        <ele>69.011</ele>
        <time>2021-10-12T10:54:50Z</time>
      </trkpt>
      <trkpt lat="37.575597" lon="-5.979661">
        <ele>69.808</ele>
        <time>2021-10-12T10:54:52Z</time>
      </trkpt>
      <trkpt lat="37.575494" lon="-5.979909">
        <ele>69.171</ele>
        <time>2021-10-12T10:54:53Z</time>
      </trkpt>
      <trkpt lat="37.575318" lon="-5.980382">
        <ele>66.519</ele>
        <time>2021-10-12T10:54:55Z</time>
      </trkpt>
      <trkpt lat="37.575240" lon="-5.980621">
        <ele>66.475</ele>
        <time>2021-10-12T10:54:56Z</time>
      </trkpt>
      <trkpt lat="37.575089" lon="-5.981064">
        <ele>67.098</ele>
        <time>2021-10-12T10:54:58Z</time>
      </trkpt>
      <trkpt lat="37.575003" lon="-5.981302">
        <ele>66.384</ele>
        <time>2021-10-12T10:54:59Z</time>
      </trkpt>
      <trkpt lat="37.574827" lon="-5.981794">
        <ele>64.723</ele>
        <time>2021-10-12T10:55:01Z</time>
      </trkpt>
      <trkpt lat="37.574739" lon="-5.982052">
        <ele>65.493</ele>
        <time>2021-10-12T10:55:02Z</time>
      </trkpt>
      <trkpt lat="37.574579" lon="-5.982518">
        <ele>68.174</ele>
        <time>2021-10-12T10:55:04Z</time>
      </trkpt>
      <trkpt lat="37.574498" lon="-5.982755">
        <ele>69.535</ele>
        <time>2021-10-12T10:55:05Z</time>
      </trkpt>
      <trkpt lat="37.574329" lon="-5.983230">
        <ele>67.586</ele>
        <time>2021-10-12T10:55:07Z</time>
      </trkpt>
      <trkpt lat="37.574244" lon="-5.983476">
        <ele>65.414</ele>
        <time>2021-10-12T10:55:08Z</time>
      </trkpt>
      <trkpt lat="37.574078" lon="-5.983959">
        <ele>61.908</ele>
        <time>2021-10-12T10:55:10Z</time>
      </trkpt>
      <trkpt lat="37.573905" lon="-5.984460">
        <ele>62.251</ele>
        <time>2021-10-12T10:55:12Z</time>
      </trkpt>
      <trkpt lat="37.573817" lon="-5.984719">
        <ele>64.059</ele>
        <time>2021-10-12T10:55:13Z</time>
      </trkpt>
      <trkpt lat="37.573729" lon="-5.984993">
        <ele>65.015</ele>
        <time>2021-10-12T10:55:14Z</time>
      </trkpt>
      <trkpt lat="37.573583" lon="-5.985534">
        <ele>62.248</ele>
        <time>2021-10-12T10:55:16Z</time>
      </trkpt>
      <trkpt lat="37.573467" lon="-5.986091">
        <ele>63.954</ele>
        <time>2021-10-12T10:55:18Z</time>
      </trkpt>
      <trkpt lat="37.573352" lon="-5.986642">
        <ele>63.283</ele>
        <time>2021-10-12T10:55:20Z</time>
      </trkpt>
      <trkpt lat="37.573240" lon="-5.987156">
        <ele>59.363</ele>
        <time>2021-10-12T10:55:22Z</time>
      </trkpt>
      <trkpt lat="37.573183" lon="-5.987417">
        <ele>58.774</ele>
        <time>2021-10-12T10:55:23Z</time>
      </trkpt>
      <trkpt lat="37.573074" lon="-5.987944">
        <ele>59.597</ele>
        <time>2021-10-12T10:55:25Z</time>
      </trkpt>
      <trkpt lat="37.573015" lon="-5.988229">
        <ele>60.123</ele>
        <time>2021-10-12T10:55:26Z</time>
      </trkpt>
      <trkpt lat="37.572908" lon="-5.988789">
        <ele>59.825</ele>
        <time>2021-10-12T10:55:28Z</time>
      </trkpt>
      <trkpt lat="37.572844" lon="-5.989392">
        <ele>58.908</ele>
        <time>2021-10-12T10:55:30Z</time>
      </trkpt>
      <trkpt lat="37.572844" lon="-5.989696">
        <ele>56.787</ele>
        <time>2021-10-12T10:55:31Z</time>
      </trkpt>
      <trkpt lat="37.572867" lon="-5.989999">
        <ele>54.725</ele>
        <time>2021-10-12T10:55:32Z</time>
      </trkpt>
      <trkpt lat="37.572928" lon="-5.990571">
        <ele>54.051</ele>
        <time>2021-10-12T10:55:34Z</time>
      </trkpt>
      <trkpt lat="37.572958" lon="-5.990845">
        <ele>53.694</ele>
        <time>2021-10-12T10:55:35Z</time>
      </trkpt>
      <trkpt lat="37.572986" lon="-5.991106">
        <ele>53.010</ele>
        <time>2021-10-12T10:55:36Z</time>
      </trkpt>
      <trkpt lat="37.573038" lon="-5.991612">
        <ele>53.089</ele>
        <time>2021-10-12T10:55:38Z</time>
      </trkpt>
      <trkpt lat="37.573071" lon="-5.992101">
        <ele>54.559</ele>
        <time>2021-10-12T10:55:40Z</time>
      </trkpt>
      <trkpt lat="37.573022" lon="-5.992592">
        <ele>55.920</ele>
        <time>2021-10-12T10:55:42Z</time>
      </trkpt>
      <trkpt lat="37.572943" lon="-5.992828">
        <ele>55.734</ele>
        <time>2021-10-12T10:55:43Z</time>
      </trkpt>
      <trkpt lat="37.572831" lon="-5.993062">
        <ele>54.255</ele>
        <time>2021-10-12T10:55:44Z</time>
      </trkpt>
      <trkpt lat="37.572544" lon="-5.993515">
        <ele>54.510</ele>
        <time>2021-10-12T10:55:46Z</time>
      </trkpt>
      <trkpt lat="37.572388" lon="-5.993759">
        <ele>55.608</ele>
        <time>2021-10-12T10:55:47Z</time>
      </trkpt>
      <trkpt lat="37.572091" lon="-5.994245">
        <ele>56.871</ele>
        <time>2021-10-12T10:55:49Z</time>
      </trkpt>
      <trkpt lat="37.571944" lon="-5.994486">
        <ele>57.399</ele>
        <time>2021-10-12T10:55:50Z</time>
      </trkpt>
      <trkpt lat="37.571677" lon="-5.994933">
        <ele>60.535</ele>
        <time>2021-10-12T10:55:52Z</time>
      </trkpt>
      <trkpt lat="37.571536" lon="-5.995170">
        <ele>60.248</ele>
        <time>2021-10-12T10:55:53Z</time>
      </trkpt>
      <trkpt lat="37.571393" lon="-5.995413">
        <ele>58.514</ele>
        <time>2021-10-12T10:55:54Z</time>
      </trkpt>
      <trkpt lat="37.571095" lon="-5.995930">
        <ele>57.053</ele>
        <time>2021-10-12T10:55:56Z</time>
      </trkpt>
      <trkpt lat="37.570792" lon="-5.996452">
        <ele>56.443</ele>
        <time>2021-10-12T10:55:58Z</time>
      </trkpt>
      <trkpt lat="37.570635" lon="-5.996721">
        <ele>57.984</ele>
        <time>2021-10-12T10:55:59Z</time>
      </trkpt>
      <trkpt lat="37.570312" lon="-5.997277">
        <ele>59.974</ele>
        <time>2021-10-12T10:56:01Z</time>
      </trkpt>
      <trkpt lat="37.570146" lon="-5.997570">
        <ele>58.756</ele>
        <time>2021-10-12T10:56:02Z</time>
      </trkpt>
      <trkpt lat="37.569821" lon="-5.998126">
        <ele>54.921</ele>
        <time>2021-10-12T10:56:04Z</time>
      </trkpt>
      <trkpt lat="37.569647" lon="-5.998422">
        <ele>55.508</ele>
        <time>2021-10-12T10:56:05Z</time>
      </trkpt>
      <trkpt lat="37.569470" lon="-5.998722">
        <ele>56.865</ele>
        <time>2021-10-12T10:56:06Z</time>
      </trkpt>
      <trkpt lat="37.569297" lon="-5.999018">
        <ele>57.563</ele>
        <time>2021-10-12T10:56:07Z</time>
      </trkpt>
      <trkpt lat="37.569125" lon="-5.999313">
        <ele>56.959</ele>
        <time>2021-10-12T10:56:08Z</time>
      </trkpt>
      <trkpt lat="37.568814" lon="-5.999849">
        <ele>57.052</ele>
        <time>2021-10-12T10:56:10Z</time>
      </trkpt>
      <trkpt lat="37.568666" lon="-6.000101">
        <ele>58.798</ele>
        <time>2021-10-12T10:56:11Z</time>
      </trkpt>
      <trkpt lat="37.568372" lon="-6.000604">
        <ele>61.927</ele>
        <time>2021-10-12T10:56:13Z</time>
      </trkpt>
      <trkpt lat="37.568215" lon="-6.000873">
        <ele>63.647</ele>
        <time>2021-10-12T10:56:14Z</time>
      </trkpt>
      <trkpt lat="37.567915" lon="-6.001387">
        <ele>65.528</ele>
        <time>2021-10-12T10:56:16Z</time>
      </trkpt>
      <trkpt lat="37.567773" lon="-6.001634">
        <ele>65.962</ele>
        <time>2021-10-12T10:56:17Z</time>
      </trkpt>
      <trkpt lat="37.567532" lon="-6.002109">
        <ele>69.083</ele>
        <time>2021-10-12T10:56:19Z</time>
      </trkpt>
      <trkpt lat="37.567441" lon="-6.002359">
        <ele>69.911</ele>
        <time>2021-10-12T10:56:20Z</time>
      </trkpt>
      <trkpt lat="37.567309" lon="-6.002849">
        <ele>68.108</ele>
        <time>2021-10-12T10:56:22Z</time>
      </trkpt>
      <trkpt lat="37.567242" lon="-6.003108">
        <ele>67.454</ele>
        <time>2021-10-12T10:56:23Z</time>
      </trkpt>
      <trkpt lat="37.567095" lon="-6.003649">
        <ele>70.192</ele>
        <time>2021-10-12T10:56:25Z</time>
      </trkpt>
      <trkpt lat="37.567021" lon="-6.003933">
        <ele>71.098</ele>
        <time>2021-10-12T10:56:26Z</time>
      </trkpt>
      <trkpt lat="37.566884" lon="-6.004453">
        <ele>69.821</ele>
        <time>2021-10-12T10:56:28Z</time>
      </trkpt>
      <trkpt lat="37.566813" lon="-6.004724">
        <ele>69.157</ele>
        <time>2021-10-12T10:56:29Z</time>
      </trkpt>
      <trkpt lat="37.566665" lon="-6.005283">
        <ele>68.016</ele>
        <time>2021-10-12T10:56:31Z</time>
      </trkpt>
      <trkpt lat="37.566584" lon="-6.005582">
        <ele>67.696</ele>
        <time>2021-10-12T10:56:32Z</time>
      </trkpt>
      <trkpt lat="37.566433" lon="-6.006135">
        <ele>65.447</ele>
        <time>2021-10-12T10:56:34Z</time>
      </trkpt>
      <trkpt lat="37.566361" lon="-6.006404">
        <ele>66.022</ele>
        <time>2021-10-12T10:56:35Z</time>
      </trkpt>
      <trkpt lat="37.566207" lon="-6.006951">
        <ele>67.662</ele>
        <time>2021-10-12T10:56:37Z</time>
      </trkpt>
      <trkpt lat="37.566130" lon="-6.007230">
        <ele>67.008</ele>
        <time>2021-10-12T10:56:38Z</time>
      </trkpt>
      <trkpt lat="37.565994" lon="-6.007770">
        <ele>67.008</ele>
        <time>2021-10-12T10:56:40Z</time>
      </trkpt>
      <trkpt lat="37.565860" lon="-6.008298">
        <ele>67.950</ele>
        <time>2021-10-12T10:56:42Z</time>
      </trkpt>
      <trkpt lat="37.565790" lon="-6.008561">
        <ele>66.638</ele>
        <time>2021-10-12T10:56:43Z</time>
      </trkpt>
      <trkpt lat="37.565715" lon="-6.008836">
        <ele>66.094</ele>
        <time>2021-10-12T10:56:44Z</time>
      </trkpt>
      <trkpt lat="37.565563" lon="-6.009387">
        <ele>65.287</ele>
        <time>2021-10-12T10:56:46Z</time>
      </trkpt>
      <trkpt lat="37.565482" lon="-6.009685">
        <ele>63.963</ele>
        <time>2021-10-12T10:56:47Z</time>
      </trkpt>
      <trkpt lat="37.565323" lon="-6.010274">
        <ele>62.022</ele>
        <time>2021-10-12T10:56:49Z</time>
      </trkpt>
      <trkpt lat="37.565242" lon="-6.010577">
        <ele>61.172</ele>
        <time>2021-10-12T10:56:50Z</time>
      </trkpt>
      <trkpt lat="37.565092" lon="-6.011119">
        <ele>60.733</ele>
        <time>2021-10-12T10:56:52Z</time>
      </trkpt>
      <trkpt lat="37.564942" lon="-6.011626">
        <ele>61.077</ele>
        <time>2021-10-12T10:56:54Z</time>
      </trkpt>
      <trkpt lat="37.564865" lon="-6.011865">
        <ele>60.361</ele>
        <time>2021-10-12T10:56:55Z</time>
      </trkpt>
      <trkpt lat="37.564774" lon="-6.012107">
        <ele>59.327</ele>
        <time>2021-10-12T10:56:56Z</time>
      </trkpt>
      <trkpt lat="37.564576" lon="-6.012552">
        <ele>57.908</ele>
        <time>2021-10-12T10:56:58Z</time>
      </trkpt>
      <trkpt lat="37.564321" lon="-6.013011">
        <ele>59.025</ele>
        <time>2021-10-12T10:57:00Z</time>
      </trkpt>
      <trkpt lat="37.564152" lon="-6.013266">
        <ele>59.383</ele>
        <time>2021-10-12T10:57:01Z</time>
      </trkpt>
      <trkpt lat="37.563961" lon="-6.013535">
        <ele>57.719</ele>
        <time>2021-10-12T10:57:02Z</time>
      </trkpt>
      <trkpt lat="37.563548" lon="-6.014110">
        <ele>54.942</ele>
        <time>2021-10-12T10:57:04Z</time>
      </trkpt>
      <trkpt lat="37.563321" lon="-6.014439">
        <ele>56.098</ele>
        <time>2021-10-12T10:57:05Z</time>
      </trkpt>
      <trkpt lat="37.563087" lon="-6.014780">
        <ele>56.127</ele>
        <time>2021-10-12T10:57:06Z</time>
      </trkpt>
      <trkpt lat="37.562862" lon="-6.015115">
        <ele>54.677</ele>
        <time>2021-10-12T10:57:07Z</time>
      </trkpt>
      <trkpt lat="37.562645" lon="-6.015458">
        <ele>54.668</ele>
        <time>2021-10-12T10:57:08Z</time>
      </trkpt>
      <trkpt lat="37.562232" lon="-6.016080">
        <ele>57.879</ele>
        <time>2021-10-12T10:57:10Z</time>
      </trkpt>
      <trkpt lat="37.561827" lon="-6.016677">
        <ele>56.105</ele>
        <time>2021-10-12T10:57:12Z</time>
      </trkpt>
      <trkpt lat="37.561628" lon="-6.016968">
        <ele>55.825</ele>
        <time>2021-10-12T10:57:13Z</time>
      </trkpt>
      <trkpt lat="37.561422" lon="-6.017261">
        <ele>55.008</ele>
        <time>2021-10-12T10:57:14Z</time>
      </trkpt>
      <trkpt lat="37.561032" lon="-6.017839">
        <ele>53.445</ele>
        <time>2021-10-12T10:57:16Z</time>
      </trkpt>
      <trkpt lat="37.560647" lon="-6.018451">
        <ele>49.913</ele>
        <time>2021-10-12T10:57:18Z</time>
      </trkpt>
      <trkpt lat="37.560273" lon="-6.019113">
        <ele>49.029</ele>
        <time>2021-10-12T10:57:20Z</time>
      </trkpt>
      <trkpt lat="37.559909" lon="-6.019763">
        <ele>48.672</ele>
        <time>2021-10-12T10:57:22Z</time>
      </trkpt>
      <trkpt lat="37.559543" lon="-6.020413">
        <ele>52.218</ele>
        <time>2021-10-12T10:57:24Z</time>
      </trkpt>
      <trkpt lat="37.559372" lon="-6.020715">
        <ele>51.237</ele>
        <time>2021-10-12T10:57:25Z</time>
      </trkpt>
      <trkpt lat="37.559205" lon="-6.021011">
        <ele>49.447</ele>
        <time>2021-10-12T10:57:26Z</time>
      </trkpt>
      <trkpt lat="37.558912" lon="-6.021547">
        <ele>45.998</ele>
        <time>2021-10-12T10:57:28Z</time>
      </trkpt>
      <trkpt lat="37.558601" lon="-6.022099">
        <ele>47.097</ele>
        <time>2021-10-12T10:57:30Z</time>
      </trkpt>
      <trkpt lat="37.558439" lon="-6.022383">
        <ele>47.023</ele>
        <time>2021-10-12T10:57:31Z</time>
      </trkpt>
      <trkpt lat="37.558271" lon="-6.022680">
        <ele>46.825</ele>
        <time>2021-10-12T10:57:32Z</time>
      </trkpt>
      <trkpt lat="37.557941" lon="-6.023263">
        <ele>44.308</ele>
        <time>2021-10-12T10:57:34Z</time>
      </trkpt>
      <trkpt lat="37.557605" lon="-6.023871">
        <ele>44.027</ele>
        <time>2021-10-12T10:57:36Z</time>
      </trkpt>
      <trkpt lat="37.557434" lon="-6.024184">
        <ele>45.155</ele>
        <time>2021-10-12T10:57:37Z</time>
      </trkpt>
      <trkpt lat="37.557262" lon="-6.024507">
        <ele>46.921</ele>
        <time>2021-10-12T10:57:38Z</time>
      </trkpt>
      <trkpt lat="37.556975" lon="-6.025161">
        <ele>45.694</ele>
        <time>2021-10-12T10:57:40Z</time>
      </trkpt>
      <trkpt lat="37.556839" lon="-6.025506">
        <ele>44.140</ele>
        <time>2021-10-12T10:57:41Z</time>
      </trkpt>
      <trkpt lat="37.556712" lon="-6.025858">
        <ele>43.979</ele>
        <time>2021-10-12T10:57:42Z</time>
      </trkpt>
      <trkpt lat="37.556486" lon="-6.026590">
        <ele>42.869</ele>
        <time>2021-10-12T10:57:44Z</time>
      </trkpt>
      <trkpt lat="37.556313" lon="-6.027322">
        <ele>42.270</ele>
        <time>2021-10-12T10:57:46Z</time>
      </trkpt>
      <trkpt lat="37.556224" lon="-6.027705">
        <ele>41.895</ele>
        <time>2021-10-12T10:57:47Z</time>
      </trkpt>
      <trkpt lat="37.556047" lon="-6.028462">
        <ele>42.049</ele>
        <time>2021-10-12T10:57:49Z</time>
      </trkpt>
      <trkpt lat="37.555955" lon="-6.028855">
        <ele>41.123</ele>
        <time>2021-10-12T10:57:50Z</time>
      </trkpt>
      <trkpt lat="37.555784" lon="-6.029618">
        <ele>39.008</ele>
        <time>2021-10-12T10:57:52Z</time>
      </trkpt>
      <trkpt lat="37.555605" lon="-6.030385">
        <ele>39.417</ele>
        <time>2021-10-12T10:57:54Z</time>
      </trkpt>
      <trkpt lat="37.555433" lon="-6.031115">
        <ele>40.075</ele>
        <time>2021-10-12T10:57:56Z</time>
      </trkpt>
      <trkpt lat="37.555281" lon="-6.031765">
        <ele>37.011</ele>
        <time>2021-10-12T10:57:58Z</time>
      </trkpt>
      <trkpt lat="37.555206" lon="-6.032104">
        <ele>37.094</ele>
        <time>2021-10-12T10:57:59Z</time>
      </trkpt>
      <trkpt lat="37.555129" lon="-6.032450">
        <ele>37.810</ele>
        <time>2021-10-12T10:58:00Z</time>
      </trkpt>
      <trkpt lat="37.555047" lon="-6.032801">
        <ele>40.069</ele>
        <time>2021-10-12T10:58:01Z</time>
      </trkpt>
      <trkpt lat="37.554966" lon="-6.033146">
        <ele>39.769</ele>
        <time>2021-10-12T10:58:02Z</time>
      </trkpt>
      <trkpt lat="37.554826" lon="-6.033747">
        <ele>39.330</ele>
        <time>2021-10-12T10:58:04Z</time>
      </trkpt>
      <trkpt lat="37.554763" lon="-6.034019">
        <ele>39.935</ele>
        <time>2021-10-12T10:58:05Z</time>
      </trkpt>
      <trkpt lat="37.554706" lon="-6.034262">
        <ele>39.686</ele>
        <time>2021-10-12T10:58:06Z</time>
      </trkpt>
      <trkpt lat="37.554654" lon="-6.034483">
        <ele>38.614</ele>
        <time>2021-10-12T10:58:07Z</time>
      </trkpt>
      <trkpt lat="37.554605" lon="-6.034694">
        <ele>37.708</ele>
        <time>2021-10-12T10:58:08Z</time>
      </trkpt>
      <trkpt lat="37.554517" lon="-6.035072">
        <ele>37.341</ele>
        <time>2021-10-12T10:58:10Z</time>
      </trkpt>
      <trkpt lat="37.554474" lon="-6.035258">
        <ele>37.159</ele>
        <time>2021-10-12T10:58:11Z</time>
      </trkpt>
      <trkpt lat="37.554435" lon="-6.035443">
        <ele>36.425</ele>
        <time>2021-10-12T10:58:12Z</time>
      </trkpt>
      <trkpt lat="37.554374" lon="-6.035807">
        <ele>34.278</ele>
        <time>2021-10-12T10:58:14Z</time>
      </trkpt>
      <trkpt lat="37.554329" lon="-6.036154">
        <ele>33.664</ele>
        <time>2021-10-12T10:58:16Z</time>
      </trkpt>
      <trkpt lat="37.554290" lon="-6.036336">
        <ele>33.443</ele>
        <time>2021-10-12T10:58:17Z</time>
      </trkpt>
      <trkpt lat="37.554165" lon="-6.036709">
        <ele>34.013</ele>
        <time>2021-10-12T10:58:19Z</time>
      </trkpt>
      <trkpt lat="37.554096" lon="-6.036926">
        <ele>33.784</ele>
        <time>2021-10-12T10:58:20Z</time>
      </trkpt>
      <trkpt lat="37.553980" lon="-6.037414">
        <ele>33.696</ele>
        <time>2021-10-12T10:58:22Z</time>
      </trkpt>
      <trkpt lat="37.553853" lon="-6.037975">
        <ele>33.031</ele>
        <time>2021-10-12T10:58:24Z</time>
      </trkpt>
      <trkpt lat="37.553785" lon="-6.038283">
        <ele>33.024</ele>
        <time>2021-10-12T10:58:25Z</time>
      </trkpt>
      <trkpt lat="37.553714" lon="-6.038607">
        <ele>33.408</ele>
        <time>2021-10-12T10:58:26Z</time>
      </trkpt>
      <trkpt lat="37.553580" lon="-6.039198">
        <ele>31.837</ele>
        <time>2021-10-12T10:58:28Z</time>
      </trkpt>
      <trkpt lat="37.553512" lon="-6.039485">
        <ele>31.125</ele>
        <time>2021-10-12T10:58:29Z</time>
      </trkpt>
      <trkpt lat="37.553445" lon="-6.039766">
        <ele>29.841</ele>
        <time>2021-10-12T10:58:30Z</time>
      </trkpt>
      <trkpt lat="37.553380" lon="-6.040045">
        <ele>29.534</ele>
        <time>2021-10-12T10:58:31Z</time>
      </trkpt>
      <trkpt lat="37.553314" lon="-6.040322">
        <ele>30.340</ele>
        <time>2021-10-12T10:58:32Z</time>
      </trkpt>
      <trkpt lat="37.553201" lon="-6.040801">
        <ele>32.049</ele>
        <time>2021-10-12T10:58:34Z</time>
      </trkpt>
      <trkpt lat="37.553149" lon="-6.041036">
        <ele>30.939</ele>
        <time>2021-10-12T10:58:35Z</time>
      </trkpt>
      <trkpt lat="37.553094" lon="-6.041275">
        <ele>29.180</ele>
        <time>2021-10-12T10:58:36Z</time>
      </trkpt>
      <trkpt lat="37.553043" lon="-6.041516">
        <ele>27.535</ele>
        <time>2021-10-12T10:58:37Z</time>
      </trkpt>
      <trkpt lat="37.552997" lon="-6.041752">
        <ele>27.386</ele>
        <time>2021-10-12T10:58:38Z</time>
      </trkpt>
      <trkpt lat="37.552900" lon="-6.042169">
        <ele>28.014</ele>
        <time>2021-10-12T10:58:40Z</time>
      </trkpt>
      <trkpt lat="37.552844" lon="-6.042389">
        <ele>28.108</ele>
        <time>2021-10-12T10:58:41Z</time>
      </trkpt>
      <trkpt lat="37.552729" lon="-6.042873">
        <ele>29.111</ele>
        <time>2021-10-12T10:58:43Z</time>
      </trkpt>
      <trkpt lat="37.552669" lon="-6.043142">
        <ele>29.339</ele>
        <time>2021-10-12T10:58:44Z</time>
      </trkpt>
      <trkpt lat="37.552546" lon="-6.043659">
        <ele>27.765</ele>
        <time>2021-10-12T10:58:46Z</time>
      </trkpt>
      <trkpt lat="37.552477" lon="-6.043905">
        <ele>27.178</ele>
        <time>2021-10-12T10:58:47Z</time>
      </trkpt>
      <trkpt lat="37.552404" lon="-6.044136">
        <ele>27.184</ele>
        <time>2021-10-12T10:58:48Z</time>
      </trkpt>
      <trkpt lat="37.552251" lon="-6.044582">
        <ele>26.033</ele>
        <time>2021-10-12T10:58:50Z</time>
      </trkpt>
      <trkpt lat="37.552094" lon="-6.045032">
        <ele>23.563</ele>
        <time>2021-10-12T10:58:52Z</time>
      </trkpt>
      <trkpt lat="37.551919" lon="-6.045521">
        <ele>23.784</ele>
        <time>2021-10-12T10:58:54Z</time>
      </trkpt>
      <trkpt lat="37.551745" lon="-6.046029">
        <ele>22.452</ele>
        <time>2021-10-12T10:58:56Z</time>
      </trkpt>
      <trkpt lat="37.551578" lon="-6.046536">
        <ele>21.553</ele>
        <time>2021-10-12T10:58:58Z</time>
      </trkpt>
      <trkpt lat="37.551492" lon="-6.046792">
        <ele>20.708</ele>
        <time>2021-10-12T10:58:59Z</time>
      </trkpt>
      <trkpt lat="37.551316" lon="-6.047307">
        <ele>21.508</ele>
        <time>2021-10-12T10:59:01Z</time>
      </trkpt>
      <trkpt lat="37.551224" lon="-6.047575">
        <ele>22.193</ele>
        <time>2021-10-12T10:59:02Z</time>
      </trkpt>
      <trkpt lat="37.551052" lon="-6.048080">
        <ele>22.431</ele>
        <time>2021-10-12T10:59:04Z</time>
      </trkpt>
      <trkpt lat="37.550964" lon="-6.048331">
        <ele>22.567</ele>
        <time>2021-10-12T10:59:05Z</time>
      </trkpt>
      <trkpt lat="37.550882" lon="-6.048566">
        <ele>23.410</ele>
        <time>2021-10-12T10:59:06Z</time>
      </trkpt>
      <trkpt lat="37.550803" lon="-6.048792">
        <ele>24.016</ele>
        <time>2021-10-12T10:59:07Z</time>
      </trkpt>
      <trkpt lat="37.550730" lon="-6.049016">
        <ele>23.925</ele>
        <time>2021-10-12T10:59:08Z</time>
      </trkpt>
      <trkpt lat="37.550596" lon="-6.049419">
        <ele>22.075</ele>
        <time>2021-10-12T10:59:10Z</time>
      </trkpt>
      <trkpt lat="37.550462" lon="-6.049811">
        <ele>20.066</ele>
        <time>2021-10-12T10:59:12Z</time>
      </trkpt>
      <trkpt lat="37.550396" lon="-6.050007">
        <ele>19.519</ele>
        <time>2021-10-12T10:59:13Z</time>
      </trkpt>
      <trkpt lat="37.550327" lon="-6.050208">
        <ele>18.809</ele>
        <time>2021-10-12T10:59:14Z</time>
      </trkpt>
      <trkpt lat="37.550201" lon="-6.050592">
        <ele>17.419</ele>
        <time>2021-10-12T10:59:16Z</time>
      </trkpt>
      <trkpt lat="37.550072" lon="-6.050980">
        <ele>11.408</ele>
        <time>2021-10-12T10:59:18Z</time>
      </trkpt>
      <trkpt lat="37.550009" lon="-6.051164">
        <ele>9.529</ele>
        <time>2021-10-12T10:59:19Z</time>
      </trkpt>
      <trkpt lat="37.549945" lon="-6.051347">
        <ele>8.567</ele>
        <time>2021-10-12T10:59:20Z</time>
      </trkpt>
      <trkpt lat="37.549830" lon="-6.051679">
        <ele>10.433</ele>
        <time>2021-10-12T10:59:22Z</time>
      </trkpt>
      <trkpt lat="37.549724" lon="-6.051998">
        <ele>15.666</ele>
        <time>2021-10-12T10:59:24Z</time>
      </trkpt>
      <trkpt lat="37.549631" lon="-6.052276">
        <ele>19.022</ele>
        <time>2021-10-12T10:59:26Z</time>
      </trkpt>
      <trkpt lat="37.549555" lon="-6.052489">
        <ele>20.511</ele>
        <time>2021-10-12T10:59:28Z</time>
      </trkpt>
      <trkpt lat="37.549494" lon="-6.052639">
        <ele>21.731</ele>
        <time>2021-10-12T10:59:30Z</time>
      </trkpt>
      <trkpt lat="37.549468" lon="-6.052693">
        <ele>22.232</ele>
        <time>2021-10-12T10:59:31Z</time>
      </trkpt>
      <trkpt lat="37.549441" lon="-6.052748">
        <ele>22.882</ele>
        <time>2021-10-12T10:59:32Z</time>
      </trkpt>
      <trkpt lat="37.549370" lon="-6.052909">
        <ele>23.743</ele>
        <time>2021-10-12T10:59:34Z</time>
      </trkpt>
      <trkpt lat="37.549322" lon="-6.053024">
        <ele>24.317</ele>
        <time>2021-10-12T10:59:35Z</time>
      </trkpt>
      <trkpt lat="37.549205" lon="-6.053282">
        <ele>24.908</ele>
        <time>2021-10-12T10:59:37Z</time>
      </trkpt>
      <trkpt lat="37.549145" lon="-6.053405">
        <ele>25.136</ele>
        <time>2021-10-12T10:59:38Z</time>
      </trkpt>
      <trkpt lat="37.549052" lon="-6.053601">
        <ele>25.474</ele>
        <time>2021-10-12T10:59:40Z</time>
      </trkpt>
      <trkpt lat="37.549013" lon="-6.053683">
        <ele>25.750</ele>
        <time>2021-10-12T10:59:41Z</time>
      </trkpt>
      <trkpt lat="37.548945" lon="-6.053828">
        <ele>26.063</ele>
        <time>2021-10-12T10:59:43Z</time>
      </trkpt>
      <trkpt lat="37.548904" lon="-6.053908">
        <ele>26.079</ele>
        <time>2021-10-12T10:59:44Z</time>
      </trkpt>
      <trkpt lat="37.548835" lon="-6.054055">
        <ele>26.018</ele>
        <time>2021-10-12T10:59:46Z</time>
      </trkpt>
      <trkpt lat="37.548804" lon="-6.054127">
        <ele>26.058</ele>
        <time>2021-10-12T10:59:47Z</time>
      </trkpt>
      <trkpt lat="37.548738" lon="-6.054279">
        <ele>26.049</ele>
        <time>2021-10-12T10:59:49Z</time>
      </trkpt>
      <trkpt lat="37.548701" lon="-6.054357">
        <ele>26.024</ele>
        <time>2021-10-12T10:59:50Z</time>
      </trkpt>
      <trkpt lat="37.548611" lon="-6.054535">
        <ele>26.004</ele>
        <time>2021-10-12T10:59:52Z</time>
      </trkpt>
      <trkpt lat="37.548548" lon="-6.054640">
        <ele>26.014</ele>
        <time>2021-10-12T10:59:53Z</time>
      </trkpt>
      <trkpt lat="37.548484" lon="-6.054737">
        <ele>26.108</ele>
        <time>2021-10-12T10:59:54Z</time>
      </trkpt>
      <trkpt lat="37.548421" lon="-6.054824">
        <ele>26.450</ele>
        <time>2021-10-12T10:59:55Z</time>
      </trkpt>
      <trkpt lat="37.548352" lon="-6.054906">
        <ele>26.758</ele>
        <time>2021-10-12T10:59:56Z</time>
      </trkpt>
      <trkpt lat="37.548228" lon="-6.055040">
        <ele>27.164</ele>
        <time>2021-10-12T10:59:58Z</time>
      </trkpt>
      <trkpt lat="37.548157" lon="-6.055102">
        <ele>27.437</ele>
        <time>2021-10-12T10:59:59Z</time>
      </trkpt>
      <trkpt lat="37.548006" lon="-6.055203">
        <ele>27.673</ele>
        <time>2021-10-12T11:00:01Z</time>
      </trkpt>
      <trkpt lat="37.547921" lon="-6.055255">
        <ele>27.462</ele>
        <time>2021-10-12T11:00:02Z</time>
      </trkpt>
      <trkpt lat="37.547742" lon="-6.055371">
        <ele>27.612</ele>
        <time>2021-10-12T11:00:04Z</time>
      </trkpt>
      <trkpt lat="37.547569" lon="-6.055486">
        <ele>28.393</ele>
        <time>2021-10-12T11:00:06Z</time>
      </trkpt>
      <trkpt lat="37.547399" lon="-6.055593">
        <ele>28.621</ele>
        <time>2021-10-12T11:00:08Z</time>
      </trkpt>
      <trkpt lat="37.547242" lon="-6.055690">
        <ele>28.141</ele>
        <time>2021-10-12T11:00:10Z</time>
      </trkpt>
      <trkpt lat="37.547152" lon="-6.055741">
        <ele>27.805</ele>
        <time>2021-10-12T11:00:11Z</time>
      </trkpt>
      <trkpt lat="37.546971" lon="-6.055840">
        <ele>28.008</ele>
        <time>2021-10-12T11:00:13Z</time>
      </trkpt>
      <trkpt lat="37.546888" lon="-6.055884">
        <ele>28.040</ele>
        <time>2021-10-12T11:00:14Z</time>
      </trkpt>
      <trkpt lat="37.546728" lon="-6.055949">
        <ele>28.028</ele>
        <time>2021-10-12T11:00:16Z</time>
      </trkpt>
      <trkpt lat="37.546642" lon="-6.055979">
        <ele>28.094</ele>
        <time>2021-10-12T11:00:17Z</time>
      </trkpt>
      <trkpt lat="37.546470" lon="-6.056034">
        <ele>28.557</ele>
        <time>2021-10-12T11:00:19Z</time>
      </trkpt>
      <trkpt lat="37.546390" lon="-6.056058">
        <ele>28.823</ele>
        <time>2021-10-12T11:00:20Z</time>
      </trkpt>
      <trkpt lat="37.546255" lon="-6.056099">
        <ele>28.952</ele>
        <time>2021-10-12T11:00:22Z</time>
      </trkpt>
      <trkpt lat="37.546145" lon="-6.056147">
        <ele>29.162</ele>
        <time>2021-10-12T11:00:24Z</time>
      </trkpt>
      <trkpt lat="37.546098" lon="-6.056211">
        <ele>29.453</ele>
        <time>2021-10-12T11:00:26Z</time>
      </trkpt>
      <trkpt lat="37.546068" lon="-6.056277">
        <ele>29.683</ele>
        <time>2021-10-12T11:00:28Z</time>
      </trkpt>
      <trkpt lat="37.546050" lon="-6.056347">
        <ele>29.825</ele>
        <time>2021-10-12T11:00:33Z</time>
      </trkpt>
      <trkpt lat="37.546034" lon="-6.056428">
        <ele>30.017</ele>
        <time>2021-10-12T11:00:35Z</time>
      </trkpt>
      <trkpt lat="37.546003" lon="-6.056605">
        <ele>30.008</ele>
        <time>2021-10-12T11:00:37Z</time>
      </trkpt>
      <trkpt lat="37.545987" lon="-6.056723">
        <ele>30.016</ele>
        <time>2021-10-12T11:00:38Z</time>
      </trkpt>
      <trkpt lat="37.545960" lon="-6.056934">
        <ele>30.084</ele>
        <time>2021-10-12T11:00:40Z</time>
      </trkpt>
      <trkpt lat="37.545940" lon="-6.057081">
        <ele>30.090</ele>
        <time>2021-10-12T11:00:42Z</time>
      </trkpt>
      <trkpt lat="37.545917" lon="-6.057204">
        <ele>30.043</ele>
        <time>2021-10-12T11:00:44Z</time>
      </trkpt>
      <trkpt lat="37.545894" lon="-6.057371">
        <ele>30.089</ele>
        <time>2021-10-12T11:00:46Z</time>
      </trkpt>
      <trkpt lat="37.545883" lon="-6.057467">
        <ele>30.098</ele>
        <time>2021-10-12T11:00:47Z</time>
      </trkpt>
      <trkpt lat="37.545864" lon="-6.057629">
        <ele>29.668</ele>
        <time>2021-10-12T11:00:49Z</time>
      </trkpt>
      <trkpt lat="37.545857" lon="-6.057705">
        <ele>29.349</ele>
        <time>2021-10-12T11:00:50Z</time>
      </trkpt>
      <trkpt lat="37.545839" lon="-6.057900">
        <ele>28.628</ele>
        <time>2021-10-12T11:00:52Z</time>
      </trkpt>
      <trkpt lat="37.545822" lon="-6.058109">
        <ele>27.889</ele>
        <time>2021-10-12T11:00:54Z</time>
      </trkpt>
      <trkpt lat="37.545807" lon="-6.058274">
        <ele>27.217</ele>
        <time>2021-10-12T11:00:56Z</time>
      </trkpt>
      <trkpt lat="37.545803" lon="-6.058357">
        <ele>27.008</ele>
        <time>2021-10-12T11:00:58Z</time>
      </trkpt>
      <trkpt lat="37.545802" lon="-6.058477">
        <ele>27.030</ele>
        <time>2021-10-12T11:02:05Z</time>
      </trkpt>
      <trkpt lat="37.545801" lon="-6.058545">
        <ele>27.048</ele>
        <time>2021-10-12T11:02:06Z</time>
      </trkpt>
      <trkpt lat="37.545824" lon="-6.058676">
        <ele>27.224</ele>
        <time>2021-10-12T11:02:08Z</time>
      </trkpt>
      <trkpt lat="37.545881" lon="-6.058724">
        <ele>27.747</ele>
        <time>2021-10-12T11:02:10Z</time>
      </trkpt>
      <trkpt lat="37.545955" lon="-6.058786">
        <ele>28.243</ele>
        <time>2021-10-12T11:02:12Z</time>
      </trkpt>
      <trkpt lat="37.546005" lon="-6.058832">
        <ele>28.512</ele>
        <time>2021-10-12T11:02:15Z</time>
      </trkpt>
      <trkpt lat="37.546064" lon="-6.058888">
        <ele>28.812</ele>
        <time>2021-10-12T11:02:18Z</time>
      </trkpt>
      <trkpt lat="37.546141" lon="-6.058984">
        <ele>29.583</ele>
        <time>2021-10-12T11:02:20Z</time>
      </trkpt>
      <trkpt lat="37.546235" lon="-6.059099">
        <ele>30.389</ele>
        <time>2021-10-12T11:02:22Z</time>
      </trkpt>
      <trkpt lat="37.546352" lon="-6.059208">
        <ele>31.006</ele>
        <time>2021-10-12T11:02:24Z</time>
      </trkpt>
      <trkpt lat="37.546417" lon="-6.059268">
        <ele>31.526</ele>
        <time>2021-10-12T11:02:25Z</time>
      </trkpt>
      <trkpt lat="37.546487" lon="-6.059330">
        <ele>32.108</ele>
        <time>2021-10-12T11:02:26Z</time>
      </trkpt>
      <trkpt lat="37.546634" lon="-6.059455">
        <ele>32.936</ele>
        <time>2021-10-12T11:02:28Z</time>
      </trkpt>
      <trkpt lat="37.546713" lon="-6.059515">
        <ele>32.814</ele>
        <time>2021-10-12T11:02:29Z</time>
      </trkpt>
      <trkpt lat="37.546874" lon="-6.059634">
        <ele>31.710</ele>
        <time>2021-10-12T11:02:31Z</time>
      </trkpt>
      <trkpt lat="37.546958" lon="-6.059697">
        <ele>31.173</ele>
        <time>2021-10-12T11:02:32Z</time>
      </trkpt>
      <trkpt lat="37.547113" lon="-6.059820">
        <ele>31.019</ele>
        <time>2021-10-12T11:02:34Z</time>
      </trkpt>
      <trkpt lat="37.547186" lon="-6.059882">
        <ele>31.018</ele>
        <time>2021-10-12T11:02:35Z</time>
      </trkpt>
      <trkpt lat="37.547261" lon="-6.059943">
        <ele>31.158</ele>
        <time>2021-10-12T11:02:36Z</time>
      </trkpt>
      <trkpt lat="37.547419" lon="-6.060068">
        <ele>31.729</ele>
        <time>2021-10-12T11:02:38Z</time>
      </trkpt>
      <trkpt lat="37.547573" lon="-6.060192">
        <ele>32.213</ele>
        <time>2021-10-12T11:02:40Z</time>
      </trkpt>
      <trkpt lat="37.547733" lon="-6.060315">
        <ele>32.743</ele>
        <time>2021-10-12T11:02:42Z</time>
      </trkpt>
      <trkpt lat="37.547891" lon="-6.060442">
        <ele>33.507</ele>
        <time>2021-10-12T11:02:44Z</time>
      </trkpt>
      <trkpt lat="37.548041" lon="-6.060576">
        <ele>34.708</ele>
        <time>2021-10-12T11:02:46Z</time>
      </trkpt>
      <trkpt lat="37.548117" lon="-6.060651">
        <ele>35.059</ele>
        <time>2021-10-12T11:02:47Z</time>
      </trkpt>
      <trkpt lat="37.548260" lon="-6.060801">
        <ele>35.497</ele>
        <time>2021-10-12T11:02:49Z</time>
      </trkpt>
      <trkpt lat="37.548332" lon="-6.060878">
        <ele>36.043</ele>
        <time>2021-10-12T11:02:50Z</time>
      </trkpt>
      <trkpt lat="37.548473" lon="-6.061045">
        <ele>36.636</ele>
        <time>2021-10-12T11:02:52Z</time>
      </trkpt>
      <trkpt lat="37.548643" lon="-6.061256">
        <ele>38.482</ele>
        <time>2021-10-12T11:02:54Z</time>
      </trkpt>
      <trkpt lat="37.548840" lon="-6.061494">
        <ele>42.361</ele>
        <time>2021-10-12T11:02:56Z</time>
      </trkpt>
      <trkpt lat="37.549041" lon="-6.061744">
        <ele>45.271</ele>
        <time>2021-10-12T11:02:58Z</time>
      </trkpt>
      <trkpt lat="37.549138" lon="-6.061869">
        <ele>45.982</ele>
        <time>2021-10-12T11:02:59Z</time>
      </trkpt>
      <trkpt lat="37.549316" lon="-6.062100">
        <ele>46.393</ele>
        <time>2021-10-12T11:03:01Z</time>
      </trkpt>
      <trkpt lat="37.549402" lon="-6.062209">
        <ele>46.765</ele>
        <time>2021-10-12T11:03:02Z</time>
      </trkpt>
      <trkpt lat="37.549573" lon="-6.062421">
        <ele>47.321</ele>
        <time>2021-10-12T11:03:04Z</time>
      </trkpt>
      <trkpt lat="37.549750" lon="-6.062640">
        <ele>47.608</ele>
        <time>2021-10-12T11:03:06Z</time>
      </trkpt>
      <trkpt lat="37.549849" lon="-6.062760">
        <ele>48.557</ele>
        <time>2021-10-12T11:03:07Z</time>
      </trkpt>
      <trkpt lat="37.549962" lon="-6.062900">
        <ele>49.155</ele>
        <time>2021-10-12T11:03:08Z</time>
      </trkpt>
      <trkpt lat="37.550231" lon="-6.063222">
        <ele>51.591</ele>
        <time>2021-10-12T11:03:10Z</time>
      </trkpt>
      <trkpt lat="37.550487" lon="-6.063550">
        <ele>55.334</ele>
        <time>2021-10-12T11:03:12Z</time>
      </trkpt>
      <trkpt lat="37.550725" lon="-6.063909">
        <ele>58.620</ele>
        <time>2021-10-12T11:03:14Z</time>
      </trkpt>
      <trkpt lat="37.550957" lon="-6.064330">
        <ele>57.819</ele>
        <time>2021-10-12T11:03:16Z</time>
      </trkpt>
      <trkpt lat="37.551089" lon="-6.064560">
        <ele>56.619</ele>
        <time>2021-10-12T11:03:17Z</time>
      </trkpt>
      <trkpt lat="37.551384" lon="-6.064995">
        <ele>56.030</ele>
        <time>2021-10-12T11:03:19Z</time>
      </trkpt>
      <trkpt lat="37.551540" lon="-6.065197">
        <ele>58.388</ele>
        <time>2021-10-12T11:03:20Z</time>
      </trkpt>
      <trkpt lat="37.551840" lon="-6.065585">
        <ele>61.924</ele>
        <time>2021-10-12T11:03:22Z</time>
      </trkpt>
      <trkpt lat="37.551988" lon="-6.065787">
        <ele>61.326</ele>
        <time>2021-10-12T11:03:23Z</time>
      </trkpt>
      <trkpt lat="37.552266" lon="-6.066187">
        <ele>60.808</ele>
        <time>2021-10-12T11:03:25Z</time>
      </trkpt>
      <trkpt lat="37.552402" lon="-6.066393">
        <ele>62.496</ele>
        <time>2021-10-12T11:03:26Z</time>
      </trkpt>
      <trkpt lat="37.552676" lon="-6.066812">
        <ele>62.354</ele>
        <time>2021-10-12T11:03:28Z</time>
      </trkpt>
      <trkpt lat="37.552828" lon="-6.067028">
        <ele>61.840</ele>
        <time>2021-10-12T11:03:29Z</time>
      </trkpt>
      <trkpt lat="37.553151" lon="-6.067455">
        <ele>61.273</ele>
        <time>2021-10-12T11:03:31Z</time>
      </trkpt>
      <trkpt lat="37.553317" lon="-6.067672">
        <ele>60.099</ele>
        <time>2021-10-12T11:03:32Z</time>
      </trkpt>
      <trkpt lat="37.553622" lon="-6.068043">
        <ele>63.178</ele>
        <time>2021-10-12T11:03:34Z</time>
      </trkpt>
      <trkpt lat="37.553915" lon="-6.068361">
        <ele>68.818</ele>
        <time>2021-10-12T11:03:36Z</time>
      </trkpt>
      <trkpt lat="37.554070" lon="-6.068505">
        <ele>73.259</ele>
        <time>2021-10-12T11:03:37Z</time>
      </trkpt>
      <trkpt lat="37.554238" lon="-6.068638">
        <ele>76.038</ele>
        <time>2021-10-12T11:03:38Z</time>
      </trkpt>
      <trkpt lat="37.554610" lon="-6.068853">
        <ele>74.370</ele>
        <time>2021-10-12T11:03:40Z</time>
      </trkpt>
      <trkpt lat="37.554821" lon="-6.068945">
        <ele>74.817</ele>
        <time>2021-10-12T11:03:41Z</time>
      </trkpt>
      <trkpt lat="37.555039" lon="-6.069034">
        <ele>77.308</ele>
        <time>2021-10-12T11:03:42Z</time>
      </trkpt>
      <trkpt lat="37.555490" lon="-6.069227">
        <ele>77.751</ele>
        <time>2021-10-12T11:03:44Z</time>
      </trkpt>
      <trkpt lat="37.555932" lon="-6.069444">
        <ele>73.759</ele>
        <time>2021-10-12T11:03:46Z</time>
      </trkpt>
      <trkpt lat="37.556156" lon="-6.069566">
        <ele>75.285</ele>
        <time>2021-10-12T11:03:47Z</time>
      </trkpt>
      <trkpt lat="37.556606" lon="-6.069819">
        <ele>83.148</ele>
        <time>2021-10-12T11:03:49Z</time>
      </trkpt>
      <trkpt lat="37.556830" lon="-6.069955">
        <ele>82.134</ele>
        <time>2021-10-12T11:03:50Z</time>
      </trkpt>
      <trkpt lat="37.557263" lon="-6.070240">
        <ele>81.423</ele>
        <time>2021-10-12T11:03:52Z</time>
      </trkpt>
      <trkpt lat="37.557708" lon="-6.070546">
        <ele>87.013</ele>
        <time>2021-10-12T11:03:54Z</time>
      </trkpt>
      <trkpt lat="37.558172" lon="-6.070837">
        <ele>85.884</ele>
        <time>2021-10-12T11:03:56Z</time>
      </trkpt>
      <trkpt lat="37.558644" lon="-6.071067">
        <ele>87.024</ele>
        <time>2021-10-12T11:03:58Z</time>
      </trkpt>
      <trkpt lat="37.558901" lon="-6.071164">
        <ele>86.104</ele>
        <time>2021-10-12T11:03:59Z</time>
      </trkpt>
      <trkpt lat="37.559426" lon="-6.071364">
        <ele>84.914</ele>
        <time>2021-10-12T11:04:01Z</time>
      </trkpt>
      <trkpt lat="37.559697" lon="-6.071490">
        <ele>86.308</ele>
        <time>2021-10-12T11:04:02Z</time>
      </trkpt>
      <trkpt lat="37.560196" lon="-6.071765">
        <ele>88.660</ele>
        <time>2021-10-12T11:04:04Z</time>
      </trkpt>
      <trkpt lat="37.560432" lon="-6.071895">
        <ele>89.818</ele>
        <time>2021-10-12T11:04:05Z</time>
      </trkpt>
      <trkpt lat="37.560862" lon="-6.072099">
        <ele>91.244</ele>
        <time>2021-10-12T11:04:07Z</time>
      </trkpt>
      <trkpt lat="37.561077" lon="-6.072163">
        <ele>92.637</ele>
        <time>2021-10-12T11:04:08Z</time>
      </trkpt>
      <trkpt lat="37.561450" lon="-6.072192">
        <ele>91.853</ele>
        <time>2021-10-12T11:04:10Z</time>
      </trkpt>
      <trkpt lat="37.561620" lon="-6.072174">
        <ele>91.082</ele>
        <time>2021-10-12T11:04:11Z</time>
      </trkpt>
      <trkpt lat="37.561920" lon="-6.072105">
        <ele>88.242</ele>
        <time>2021-10-12T11:04:13Z</time>
      </trkpt>
      <trkpt lat="37.562071" lon="-6.072055">
        <ele>87.593</ele>
        <time>2021-10-12T11:04:14Z</time>
      </trkpt>
      <trkpt lat="37.562384" lon="-6.071955">
        <ele>87.072</ele>
        <time>2021-10-12T11:04:16Z</time>
      </trkpt>
      <trkpt lat="37.562561" lon="-6.071904">
        <ele>87.413</ele>
        <time>2021-10-12T11:04:17Z</time>
      </trkpt>
      <trkpt lat="37.562910" lon="-6.071818">
        <ele>88.214</ele>
        <time>2021-10-12T11:04:19Z</time>
      </trkpt>
      <trkpt lat="37.563072" lon="-6.071806">
        <ele>88.008</ele>
        <time>2021-10-12T11:04:20Z</time>
      </trkpt>
      <trkpt lat="37.563328" lon="-6.071915">
        <ele>86.395</ele>
        <time>2021-10-12T11:04:22Z</time>
      </trkpt>
      <trkpt lat="37.563541" lon="-6.072193">
        <ele>86.573</ele>
        <time>2021-10-12T11:04:24Z</time>
      </trkpt>
      <trkpt lat="37.563804" lon="-6.072535">
        <ele>83.839</ele>
        <time>2021-10-12T11:04:26Z</time>
      </trkpt>
      <trkpt lat="37.564147" lon="-6.072859">
        <ele>77.372</ele>
        <time>2021-10-12T11:04:28Z</time>
      </trkpt>
      <trkpt lat="37.564345" lon="-6.073039">
        <ele>76.548</ele>
        <time>2021-10-12T11:04:29Z</time>
      </trkpt>
      <trkpt lat="37.564547" lon="-6.073227">
        <ele>77.357</ele>
        <time>2021-10-12T11:04:30Z</time>
      </trkpt>
      <trkpt lat="37.564743" lon="-6.073418">
        <ele>77.357</ele>
        <time>2021-10-12T11:04:31Z</time>
      </trkpt>
      <trkpt lat="37.564937" lon="-6.073607">
        <ele>75.358</ele>
        <time>2021-10-12T11:04:32Z</time>
      </trkpt>
      <trkpt lat="37.565287" lon="-6.073949">
        <ele>75.036</ele>
        <time>2021-10-12T11:04:34Z</time>
      </trkpt>
      <trkpt lat="37.565456" lon="-6.074113">
        <ele>75.117</ele>
        <time>2021-10-12T11:04:35Z</time>
      </trkpt>
      <trkpt lat="37.565773" lon="-6.074423">
        <ele>76.918</ele>
        <time>2021-10-12T11:04:37Z</time>
      </trkpt>
      <trkpt lat="37.565926" lon="-6.074588">
        <ele>78.008</ele>
        <time>2021-10-12T11:04:38Z</time>
      </trkpt>
      <trkpt lat="37.566181" lon="-6.074965">
        <ele>76.311</ele>
        <time>2021-10-12T11:04:40Z</time>
      </trkpt>
      <trkpt lat="37.566305" lon="-6.075177">
        <ele>75.219</ele>
        <time>2021-10-12T11:04:41Z</time>
      </trkpt>
      <trkpt lat="37.566558" lon="-6.075549">
        <ele>76.025</ele>
        <time>2021-10-12T11:04:43Z</time>
      </trkpt>
      <trkpt lat="37.566666" lon="-6.075722">
        <ele>76.088</ele>
        <time>2021-10-12T11:04:44Z</time>
      </trkpt>
      <trkpt lat="37.566792" lon="-6.076053">
        <ele>77.694</ele>
        <time>2021-10-12T11:04:46Z</time>
      </trkpt>
      <trkpt lat="37.566802" lon="-6.076234">
        <ele>77.563</ele>
        <time>2021-10-12T11:04:47Z</time>
      </trkpt>
      <trkpt lat="37.566786" lon="-6.076430">
        <ele>76.543</ele>
        <time>2021-10-12T11:04:48Z</time>
      </trkpt>
      <trkpt lat="37.566659" lon="-6.076851">
        <ele>72.024</ele>
        <time>2021-10-12T11:04:50Z</time>
      </trkpt>
      <trkpt lat="37.566421" lon="-6.077272">
        <ele>69.571</ele>
        <time>2021-10-12T11:04:52Z</time>
      </trkpt>
      <trkpt lat="37.566280" lon="-6.077506">
        <ele>71.441</ele>
        <time>2021-10-12T11:04:53Z</time>
      </trkpt>
      <trkpt lat="37.566150" lon="-6.077748">
        <ele>72.815</ele>
        <time>2021-10-12T11:04:54Z</time>
      </trkpt>
      <trkpt lat="37.566034" lon="-6.078001">
        <ele>74.608</ele>
        <time>2021-10-12T11:04:55Z</time>
      </trkpt>
      <trkpt lat="37.565936" lon="-6.078271">
        <ele>74.575</ele>
        <time>2021-10-12T11:04:56Z</time>
      </trkpt>
      <trkpt lat="37.565807" lon="-6.078823">
        <ele>74.993</ele>
        <time>2021-10-12T11:04:58Z</time>
      </trkpt>
      <trkpt lat="37.565771" lon="-6.079114">
        <ele>75.499</ele>
        <time>2021-10-12T11:04:59Z</time>
      </trkpt>
      <trkpt lat="37.565731" lon="-6.079716">
        <ele>74.062</ele>
        <time>2021-10-12T11:05:01Z</time>
      </trkpt>
      <trkpt lat="37.565711" lon="-6.080044">
        <ele>76.278</ele>
        <time>2021-10-12T11:05:02Z</time>
      </trkpt>
      <trkpt lat="37.565661" lon="-6.080698">
        <ele>77.677</ele>
        <time>2021-10-12T11:05:04Z</time>
      </trkpt>
      <trkpt lat="37.565640" lon="-6.081044">
        <ele>78.867</ele>
        <time>2021-10-12T11:05:05Z</time>
      </trkpt>
      <trkpt lat="37.565602" lon="-6.081738">
        <ele>83.388</ele>
        <time>2021-10-12T11:05:07Z</time>
      </trkpt>
      <trkpt lat="37.565583" lon="-6.082092">
        <ele>85.573</ele>
        <time>2021-10-12T11:05:08Z</time>
      </trkpt>
      <trkpt lat="37.565564" lon="-6.082715">
        <ele>90.385</ele>
        <time>2021-10-12T11:05:10Z</time>
      </trkpt>
      <trkpt lat="37.565575" lon="-6.083022">
        <ele>93.813</ele>
        <time>2021-10-12T11:05:11Z</time>
      </trkpt>
      <trkpt lat="37.565652" lon="-6.083592">
        <ele>98.908</ele>
        <time>2021-10-12T11:05:13Z</time>
      </trkpt>
      <trkpt lat="37.565715" lon="-6.083855">
        <ele>101.085</ele>
        <time>2021-10-12T11:05:14Z</time>
      </trkpt>
      <trkpt lat="37.565889" lon="-6.084306">
        <ele>101.933</ele>
        <time>2021-10-12T11:05:16Z</time>
      </trkpt>
      <trkpt lat="37.566001" lon="-6.084513">
        <ele>102.789</ele>
        <time>2021-10-12T11:05:17Z</time>
      </trkpt>
      <trkpt lat="37.566219" lon="-6.084855">
        <ele>103.242</ele>
        <time>2021-10-12T11:05:19Z</time>
      </trkpt>
      <trkpt lat="37.566315" lon="-6.084995">
        <ele>101.848</ele>
        <time>2021-10-12T11:05:20Z</time>
      </trkpt>
      <trkpt lat="37.566496" lon="-6.085264">
        <ele>98.917</ele>
        <time>2021-10-12T11:05:22Z</time>
      </trkpt>
      <trkpt lat="37.566597" lon="-6.085421">
        <ele>98.177</ele>
        <time>2021-10-12T11:05:23Z</time>
      </trkpt>
      <trkpt lat="37.566809" lon="-6.085765">
        <ele>97.928</ele>
        <time>2021-10-12T11:05:25Z</time>
      </trkpt>
      <trkpt lat="37.566926" lon="-6.085955">
        <ele>98.464</ele>
        <time>2021-10-12T11:05:26Z</time>
      </trkpt>
      <trkpt lat="37.567167" lon="-6.086332">
        <ele>101.606</ele>
        <time>2021-10-12T11:05:28Z</time>
      </trkpt>
      <trkpt lat="37.567430" lon="-6.086742">
        <ele>106.616</ele>
        <time>2021-10-12T11:05:30Z</time>
      </trkpt>
      <trkpt lat="37.567682" lon="-6.087201">
        <ele>108.008</ele>
        <time>2021-10-12T11:05:32Z</time>
      </trkpt>
      <trkpt lat="37.567909" lon="-6.087704">
        <ele>108.184</ele>
        <time>2021-10-12T11:05:34Z</time>
      </trkpt>
      <trkpt lat="37.568116" lon="-6.088310">
        <ele>112.522</ele>
        <time>2021-10-12T11:05:36Z</time>
      </trkpt>
      <trkpt lat="37.568200" lon="-6.088646">
        <ele>114.188</ele>
        <time>2021-10-12T11:05:37Z</time>
      </trkpt>
      <trkpt lat="37.568275" lon="-6.088979">
        <ele>114.761</ele>
        <time>2021-10-12T11:05:38Z</time>
      </trkpt>
      <trkpt lat="37.568389" lon="-6.089543">
        <ele>116.277</ele>
        <time>2021-10-12T11:05:40Z</time>
      </trkpt>
      <trkpt lat="37.568458" lon="-6.090053">
        <ele>116.656</ele>
        <time>2021-10-12T11:05:42Z</time>
      </trkpt>
      <trkpt lat="37.568479" lon="-6.090269">
        <ele>117.066</ele>
        <time>2021-10-12T11:05:43Z</time>
      </trkpt>
      <trkpt lat="37.568502" lon="-6.090457">
        <ele>117.077</ele>
        <time>2021-10-12T11:05:44Z</time>
      </trkpt>
      <trkpt lat="37.568572" lon="-6.090747">
        <ele>116.976</ele>
        <time>2021-10-12T11:05:46Z</time>
      </trkpt>
      <trkpt lat="37.568720" lon="-6.091012">
        <ele>117.390</ele>
        <time>2021-10-12T11:05:48Z</time>
      </trkpt>
      <trkpt lat="37.568834" lon="-6.091116">
        <ele>117.819</ele>
        <time>2021-10-12T11:05:49Z</time>
      </trkpt>
      <trkpt lat="37.568971" lon="-6.091195">
        <ele>118.108</ele>
        <time>2021-10-12T11:05:50Z</time>
      </trkpt>
      <trkpt lat="37.569265" lon="-6.091302">
        <ele>119.635</ele>
        <time>2021-10-12T11:05:52Z</time>
      </trkpt>
      <trkpt lat="37.569424" lon="-6.091366">
        <ele>121.693</ele>
        <time>2021-10-12T11:05:53Z</time>
      </trkpt>
      <trkpt lat="37.569585" lon="-6.091436">
        <ele>122.369</ele>
        <time>2021-10-12T11:05:54Z</time>
      </trkpt>
      <trkpt lat="37.569752" lon="-6.091509">
        <ele>123.682</ele>
        <time>2021-10-12T11:05:55Z</time>
      </trkpt>
      <trkpt lat="37.569928" lon="-6.091590">
        <ele>125.978</ele>
        <time>2021-10-12T11:05:56Z</time>
      </trkpt>
      <trkpt lat="37.570282" lon="-6.091746">
        <ele>127.597</ele>
        <time>2021-10-12T11:05:58Z</time>
      </trkpt>
      <trkpt lat="37.570638" lon="-6.091905">
        <ele>127.977</ele>
        <time>2021-10-12T11:06:00Z</time>
      </trkpt>
      <trkpt lat="37.570805" lon="-6.091976">
        <ele>129.038</ele>
        <time>2021-10-12T11:06:01Z</time>
      </trkpt>
      <trkpt lat="37.570968" lon="-6.092046">
        <ele>129.783</ele>
        <time>2021-10-12T11:06:02Z</time>
      </trkpt>
      <trkpt lat="37.571281" lon="-6.092189">
        <ele>131.225</ele>
        <time>2021-10-12T11:06:04Z</time>
      </trkpt>
      <trkpt lat="37.571441" lon="-6.092265">
        <ele>132.417</ele>
        <time>2021-10-12T11:06:05Z</time>
      </trkpt>
      <trkpt lat="37.571766" lon="-6.092426">
        <ele>134.508</ele>
        <time>2021-10-12T11:06:07Z</time>
      </trkpt>
      <trkpt lat="37.571935" lon="-6.092528">
        <ele>134.146</ele>
        <time>2021-10-12T11:06:08Z</time>
      </trkpt>
      <trkpt lat="37.572254" lon="-6.092772">
        <ele>135.144</ele>
        <time>2021-10-12T11:06:10Z</time>
      </trkpt>
      <trkpt lat="37.572416" lon="-6.092911">
        <ele>136.430</ele>
        <time>2021-10-12T11:06:11Z</time>
      </trkpt>
      <trkpt lat="37.572734" lon="-6.093222">
        <ele>137.063</ele>
        <time>2021-10-12T11:06:13Z</time>
      </trkpt>
      <trkpt lat="37.572901" lon="-6.093393">
        <ele>136.289</ele>
        <time>2021-10-12T11:06:14Z</time>
      </trkpt>
      <trkpt lat="37.573217" lon="-6.093714">
        <ele>138.288</ele>
        <time>2021-10-12T11:06:16Z</time>
      </trkpt>
      <trkpt lat="37.573490" lon="-6.094048">
        <ele>140.068</ele>
        <time>2021-10-12T11:06:18Z</time>
      </trkpt>
      <trkpt lat="37.573598" lon="-6.094237">
        <ele>139.829</ele>
        <time>2021-10-12T11:06:19Z</time>
      </trkpt>
      <trkpt lat="37.573689" lon="-6.094454">
        <ele>140.072</ele>
        <time>2021-10-12T11:06:20Z</time>
      </trkpt>
      <trkpt lat="37.573833" lon="-6.094894">
        <ele>140.913</ele>
        <time>2021-10-12T11:06:22Z</time>
      </trkpt>
      <trkpt lat="37.573913" lon="-6.095122">
        <ele>139.814</ele>
        <time>2021-10-12T11:06:23Z</time>
      </trkpt>
      <trkpt lat="37.574085" lon="-6.095573">
        <ele>140.108</ele>
        <time>2021-10-12T11:06:25Z</time>
      </trkpt>
      <trkpt lat="37.574176" lon="-6.095801">
        <ele>142.525</ele>
        <time>2021-10-12T11:06:26Z</time>
      </trkpt>
      <trkpt lat="37.574344" lon="-6.096194">
        <ele>144.223</ele>
        <time>2021-10-12T11:06:28Z</time>
      </trkpt>
      <trkpt lat="37.574510" lon="-6.096558">
        <ele>145.529</ele>
        <time>2021-10-12T11:06:30Z</time>
      </trkpt>
      <trkpt lat="37.574651" lon="-6.096884">
        <ele>147.992</ele>
        <time>2021-10-12T11:06:32Z</time>
      </trkpt>
      <trkpt lat="37.574773" lon="-6.097176">
        <ele>150.218</ele>
        <time>2021-10-12T11:06:34Z</time>
      </trkpt>
      <trkpt lat="37.574838" lon="-6.097330">
        <ele>151.167</ele>
        <time>2021-10-12T11:06:35Z</time>
      </trkpt>
      <trkpt lat="37.574904" lon="-6.097481">
        <ele>152.227</ele>
        <time>2021-10-12T11:06:36Z</time>
      </trkpt>
      <trkpt lat="37.574968" lon="-6.097631">
        <ele>153.528</ele>
        <time>2021-10-12T11:06:37Z</time>
      </trkpt>
      <trkpt lat="37.575032" lon="-6.097779">
        <ele>155.037</ele>
        <time>2021-10-12T11:06:38Z</time>
      </trkpt>
      <trkpt lat="37.575136" lon="-6.098021">
        <ele>157.649</ele>
        <time>2021-10-12T11:06:40Z</time>
      </trkpt>
      <trkpt lat="37.575203" lon="-6.098179">
        <ele>158.413</ele>
        <time>2021-10-12T11:06:42Z</time>
      </trkpt>
      <trkpt lat="37.575265" lon="-6.098313">
        <ele>158.908</ele>
        <time>2021-10-12T11:06:44Z</time>
      </trkpt>
      <trkpt lat="37.575340" lon="-6.098447">
        <ele>158.661</ele>
        <time>2021-10-12T11:06:46Z</time>
      </trkpt>
      <trkpt lat="37.575427" lon="-6.098537">
        <ele>158.579</ele>
        <time>2021-10-12T11:06:48Z</time>
      </trkpt>
      <trkpt lat="37.575478" lon="-6.098567">
        <ele>158.755</ele>
        <time>2021-10-12T11:06:49Z</time>
      </trkpt>
      <trkpt lat="37.575532" lon="-6.098612">
        <ele>158.948</ele>
        <time>2021-10-12T11:06:50Z</time>
      </trkpt>
      <trkpt lat="37.575606" lon="-6.098772">
        <ele>160.054</ele>
        <time>2021-10-12T11:06:52Z</time>
      </trkpt>
      <trkpt lat="37.575600" lon="-6.098996">
        <ele>160.213</ele>
        <time>2021-10-12T11:06:54Z</time>
      </trkpt>
      <trkpt lat="37.575594" lon="-6.099112">
        <ele>159.763</ele>
        <time>2021-10-12T11:06:55Z</time>
      </trkpt>
      <trkpt lat="37.575614" lon="-6.099226">
        <ele>159.474</ele>
        <time>2021-10-12T11:06:56Z</time>
      </trkpt>
      <trkpt lat="37.575706" lon="-6.099506">
        <ele>158.864</ele>
        <time>2021-10-12T11:06:58Z</time>
      </trkpt>
      <trkpt lat="37.575769" lon="-6.099676">
        <ele>160.406</ele>
        <time>2021-10-12T11:06:59Z</time>
      </trkpt>
      <trkpt lat="37.575882" lon="-6.099972">
        <ele>163.816</ele>
        <time>2021-10-12T11:07:01Z</time>
      </trkpt>
      <trkpt lat="37.575933" lon="-6.100111">
        <ele>164.708</ele>
        <time>2021-10-12T11:07:02Z</time>
      </trkpt>
      <trkpt lat="37.576037" lon="-6.100400">
        <ele>164.894</ele>
        <time>2021-10-12T11:07:04Z</time>
      </trkpt>
      <trkpt lat="37.576093" lon="-6.100552">
        <ele>163.962</ele>
        <time>2021-10-12T11:07:05Z</time>
      </trkpt>
      <trkpt lat="37.576200" lon="-6.100841">
        <ele>161.638</ele>
        <time>2021-10-12T11:07:07Z</time>
      </trkpt>
      <trkpt lat="37.576251" lon="-6.100985">
        <ele>161.251</ele>
        <time>2021-10-12T11:07:08Z</time>
      </trkpt>
      <trkpt lat="37.576328" lon="-6.101196">
        <ele>160.877</ele>
        <time>2021-10-12T11:07:10Z</time>
      </trkpt>
      <trkpt lat="37.576364" lon="-6.101294">
        <ele>160.936</ele>
        <time>2021-10-12T11:07:11Z</time>
      </trkpt>
      <trkpt lat="37.576434" lon="-6.101510">
        <ele>161.026</ele>
        <time>2021-10-12T11:07:13Z</time>
      </trkpt>
      <trkpt lat="37.576460" lon="-6.101621">
        <ele>161.087</ele>
        <time>2021-10-12T11:07:14Z</time>
      </trkpt>
      <trkpt lat="37.576497" lon="-6.101822">
        <ele>161.211</ele>
        <time>2021-10-12T11:07:16Z</time>
      </trkpt>
      <trkpt lat="37.576571" lon="-6.102005">
        <ele>162.021</ele>
        <time>2021-10-12T11:07:18Z</time>
      </trkpt>
      <trkpt lat="37.576626" lon="-6.102162">
        <ele>163.303</ele>
        <time>2021-10-12T11:07:20Z</time>
      </trkpt>
      <trkpt lat="37.576579" lon="-6.102328">
        <ele>163.808</ele>
        <time>2021-10-12T11:07:22Z</time>
      </trkpt>
      <trkpt lat="37.576516" lon="-6.102413">
        <ele>163.699</ele>
        <time>2021-10-12T11:07:23Z</time>
      </trkpt>
      <trkpt lat="37.576379" lon="-6.102624">
        <ele>163.027</ele>
        <time>2021-10-12T11:07:25Z</time>
      </trkpt>
      <trkpt lat="37.576328" lon="-6.102770">
        <ele>162.873</ele>
        <time>2021-10-12T11:07:26Z</time>
      </trkpt>
      <trkpt lat="37.576232" lon="-6.103085">
        <ele>162.056</ele>
        <time>2021-10-12T11:07:28Z</time>
      </trkpt>
      <trkpt lat="37.576138" lon="-6.103383">
        <ele>163.022</ele>
        <time>2021-10-12T11:07:30Z</time>
      </trkpt>
      <trkpt lat="37.576095" lon="-6.103514">
        <ele>163.761</ele>
        <time>2021-10-12T11:07:31Z</time>
      </trkpt>
      <trkpt lat="37.576060" lon="-6.103629">
        <ele>164.221</ele>
        <time>2021-10-12T11:07:32Z</time>
      </trkpt>
      <trkpt lat="37.576002" lon="-6.103815">
        <ele>164.412</ele>
        <time>2021-10-12T11:07:34Z</time>
      </trkpt>
      <trkpt lat="37.575976" lon="-6.103897">
        <ele>164.554</ele>
        <time>2021-10-12T11:07:35Z</time>
      </trkpt>
      <trkpt lat="37.575933" lon="-6.104035">
        <ele>165.456</ele>
        <time>2021-10-12T11:07:37Z</time>
      </trkpt>
      <trkpt lat="37.575917" lon="-6.104097">
        <ele>165.711</ele>
        <time>2021-10-12T11:07:38Z</time>
      </trkpt>
      <trkpt lat="37.575884" lon="-6.104208">
        <ele>166.208</ele>
        <time>2021-10-12T11:07:40Z</time>
      </trkpt>
      <trkpt lat="37.575843" lon="-6.104345">
        <ele>166.723</ele>
        <time>2021-10-12T11:07:42Z</time>
      </trkpt>
      <trkpt lat="37.575822" lon="-6.104415">
        <ele>166.991</ele>
        <time>2021-10-12T11:07:43Z</time>
      </trkpt>
      <trkpt lat="37.575809" lon="-6.104478">
        <ele>167.237</ele>
        <time>2021-10-12T11:07:44Z</time>
      </trkpt>
      <trkpt lat="37.575807" lon="-6.104568">
        <ele>167.860</ele>
        <time>2021-10-12T11:07:46Z</time>
      </trkpt>
      <trkpt lat="37.575821" lon="-6.104653">
        <ele>168.576</ele>
        <time>2021-10-12T11:07:48Z</time>
      </trkpt>
      <trkpt lat="37.575865" lon="-6.104735">
        <ele>169.165</ele>
        <time>2021-10-12T11:07:50Z</time>
      </trkpt>
      <trkpt lat="37.575990" lon="-6.104834">
        <ele>169.645</ele>
        <time>2021-10-12T11:07:52Z</time>
      </trkpt>
      <trkpt lat="37.576140" lon="-6.104936">
        <ele>170.136</ele>
        <time>2021-10-12T11:07:54Z</time>
      </trkpt>
      <trkpt lat="37.576198" lon="-6.104977">
        <ele>170.362</ele>
        <time>2021-10-12T11:07:55Z</time>
      </trkpt>
      <trkpt lat="37.576249" lon="-6.105016">
        <ele>170.483</ele>
        <time>2021-10-12T11:07:56Z</time>
      </trkpt>
      <trkpt lat="37.576328" lon="-6.105086">
        <ele>170.411</ele>
        <time>2021-10-12T11:07:58Z</time>
      </trkpt>
      <trkpt lat="37.576421" lon="-6.105166">
        <ele>170.408</ele>
        <time>2021-10-12T11:08:00Z</time>
      </trkpt>
      <trkpt lat="37.576477" lon="-6.105212">
        <ele>170.444</ele>
        <time>2021-10-12T11:08:01Z</time>
      </trkpt>
      <trkpt lat="37.576536" lon="-6.105261">
        <ele>170.582</ele>
        <time>2021-10-12T11:08:02Z</time>
      </trkpt>
      <trkpt lat="37.576635" lon="-6.105348">
        <ele>170.948</ele>
        <time>2021-10-12T11:08:04Z</time>
      </trkpt>
      <trkpt lat="37.576713" lon="-6.105416">
        <ele>171.041</ele>
        <time>2021-10-12T11:08:06Z</time>
      </trkpt>
      <trkpt lat="37.576784" lon="-6.105482">
        <ele>171.097</ele>
        <time>2021-10-12T11:08:08Z</time>
      </trkpt>
      <trkpt lat="37.576899" lon="-6.105592">
        <ele>170.946</ele>
        <time>2021-10-12T11:08:10Z</time>
      </trkpt>
      <trkpt lat="37.576959" lon="-6.105656">
        <ele>170.726</ele>
        <time>2021-10-12T11:08:11Z</time>
      </trkpt>
      <trkpt lat="37.577022" lon="-6.105724">
        <ele>170.517</ele>
        <time>2021-10-12T11:08:12Z</time>
      </trkpt>
      <trkpt lat="37.577142" lon="-6.105855">
        <ele>170.012</ele>
        <time>2021-10-12T11:08:14Z</time>
      </trkpt>
      <trkpt lat="37.577238" lon="-6.105961">
        <ele>170.632</ele>
        <time>2021-10-12T11:08:16Z</time>
      </trkpt>
      <trkpt lat="37.577292" lon="-6.106018">
        <ele>171.305</ele>
        <time>2021-10-12T11:08:17Z</time>
      </trkpt>
      <trkpt lat="37.577351" lon="-6.106077">
        <ele>171.908</ele>
        <time>2021-10-12T11:08:18Z</time>
      </trkpt>
      <trkpt lat="37.577483" lon="-6.106212">
        <ele>172.939</ele>
        <time>2021-10-12T11:08:20Z</time>
      </trkpt>
      <trkpt lat="37.577615" lon="-6.106353">
        <ele>173.177</ele>
        <time>2021-10-12T11:08:22Z</time>
      </trkpt>
      <trkpt lat="37.577689" lon="-6.106430">
        <ele>173.033</ele>
        <time>2021-10-12T11:08:23Z</time>
      </trkpt>
      <trkpt lat="37.577836" lon="-6.106589">
        <ele>173.046</ele>
        <time>2021-10-12T11:08:25Z</time>
      </trkpt>
      <trkpt lat="37.577913" lon="-6.106670">
        <ele>173.012</ele>
        <time>2021-10-12T11:08:26Z</time>
      </trkpt>
      <trkpt lat="37.578069" lon="-6.106822">
        <ele>173.031</ele>
        <time>2021-10-12T11:08:28Z</time>
      </trkpt>
      <trkpt lat="37.578209" lon="-6.106962">
        <ele>173.611</ele>
        <time>2021-10-12T11:08:30Z</time>
      </trkpt>
      <trkpt lat="37.578283" lon="-6.107036">
        <ele>173.922</ele>
        <time>2021-10-12T11:08:31Z</time>
      </trkpt>
      <trkpt lat="37.578360" lon="-6.107115">
        <ele>174.193</ele>
        <time>2021-10-12T11:08:32Z</time>
      </trkpt>
      <trkpt lat="37.578500" lon="-6.107266">
        <ele>174.765</ele>
        <time>2021-10-12T11:08:34Z</time>
      </trkpt>
      <trkpt lat="37.578632" lon="-6.107408">
        <ele>174.921</ele>
        <time>2021-10-12T11:08:36Z</time>
      </trkpt>
      <trkpt lat="37.578701" lon="-6.107478">
        <ele>174.708</ele>
        <time>2021-10-12T11:08:37Z</time>
      </trkpt>
      <trkpt lat="37.578771" lon="-6.107549">
        <ele>174.277</ele>
        <time>2021-10-12T11:08:38Z</time>
      </trkpt>
      <trkpt lat="37.578900" lon="-6.107683">
        <ele>173.425</ele>
        <time>2021-10-12T11:08:40Z</time>
      </trkpt>
      <trkpt lat="37.578958" lon="-6.107747">
        <ele>173.691</ele>
        <time>2021-10-12T11:08:41Z</time>
      </trkpt>
      <trkpt lat="37.579009" lon="-6.107799">
        <ele>173.994</ele>
        <time>2021-10-12T11:08:42Z</time>
      </trkpt>
      <trkpt lat="37.579050" lon="-6.107837">
        <ele>174.270</ele>
        <time>2021-10-12T11:08:43Z</time>
      </trkpt>
      <trkpt lat="37.579106" lon="-6.107886">
        <ele>174.689</ele>
        <time>2021-10-12T11:08:45Z</time>
      </trkpt>
      <trkpt lat="37.579144" lon="-6.107920">
        <ele>174.869</ele>
        <time>2021-10-12T11:08:47Z</time>
      </trkpt>
      <trkpt lat="37.579181" lon="-6.107955">
        <ele>175.030</ele>
        <time>2021-10-12T11:08:57Z</time>
      </trkpt>
      <trkpt lat="37.579234" lon="-6.108007">
        <ele>175.287</ele>
        <time>2021-10-12T11:11:34Z</time>
      </trkpt>
      <trkpt lat="37.579281" lon="-6.108053">
        <ele>175.442</ele>
        <time>2021-10-12T11:11:35Z</time>
      </trkpt>
      <trkpt lat="37.579409" lon="-6.108177">
        <ele>175.926</ele>
        <time>2021-10-12T11:11:37Z</time>
      </trkpt>
      <trkpt lat="37.579481" lon="-6.108254">
        <ele>176.108</ele>
        <time>2021-10-12T11:11:38Z</time>
      </trkpt>
      <trkpt lat="37.579604" lon="-6.108391">
        <ele>176.516</ele>
        <time>2021-10-12T11:11:40Z</time>
      </trkpt>
      <trkpt lat="37.579742" lon="-6.108538">
        <ele>176.464</ele>
        <time>2021-10-12T11:11:42Z</time>
      </trkpt>
      <trkpt lat="37.579821" lon="-6.108618">
        <ele>176.770</ele>
        <time>2021-10-12T11:11:43Z</time>
      </trkpt>
      <trkpt lat="37.579906" lon="-6.108704">
        <ele>177.333</ele>
        <time>2021-10-12T11:11:44Z</time>
      </trkpt>
      <trkpt lat="37.580084" lon="-6.108897">
        <ele>178.659</ele>
        <time>2021-10-12T11:11:46Z</time>
      </trkpt>
      <trkpt lat="37.580182" lon="-6.109005">
        <ele>179.358</ele>
        <time>2021-10-12T11:11:47Z</time>
      </trkpt>
      <trkpt lat="37.580389" lon="-6.109231">
        <ele>180.928</ele>
        <time>2021-10-12T11:11:49Z</time>
      </trkpt>
      <trkpt lat="37.580499" lon="-6.109352">
        <ele>181.719</ele>
        <time>2021-10-12T11:11:50Z</time>
      </trkpt>
      <trkpt lat="37.580703" lon="-6.109571">
        <ele>181.828</ele>
        <time>2021-10-12T11:11:52Z</time>
      </trkpt>
      <trkpt lat="37.580803" lon="-6.109677">
        <ele>181.989</ele>
        <time>2021-10-12T11:11:53Z</time>
      </trkpt>
      <trkpt lat="37.580998" lon="-6.109881">
        <ele>182.417</ele>
        <time>2021-10-12T11:11:55Z</time>
      </trkpt>
      <trkpt lat="37.581106" lon="-6.109993">
        <ele>183.008</ele>
        <time>2021-10-12T11:11:56Z</time>
      </trkpt>
      <trkpt lat="37.581332" lon="-6.110206">
        <ele>183.320</ele>
        <time>2021-10-12T11:11:58Z</time>
      </trkpt>
      <trkpt lat="37.581578" lon="-6.110414">
        <ele>181.948</ele>
        <time>2021-10-12T11:12:00Z</time>
      </trkpt>
      <trkpt lat="37.581712" lon="-6.110516">
        <ele>180.874</ele>
        <time>2021-10-12T11:12:01Z</time>
      </trkpt>
      <trkpt lat="37.581863" lon="-6.110619">
        <ele>179.997</ele>
        <time>2021-10-12T11:12:02Z</time>
      </trkpt>
      <trkpt lat="37.582199" lon="-6.110814">
        <ele>177.273</ele>
        <time>2021-10-12T11:12:04Z</time>
      </trkpt>
      <trkpt lat="37.582587" lon="-6.110985">
        <ele>174.752</ele>
        <time>2021-10-12T11:12:06Z</time>
      </trkpt>
      <trkpt lat="37.582800" lon="-6.111056">
        <ele>173.662</ele>
        <time>2021-10-12T11:12:07Z</time>
      </trkpt>
      <trkpt lat="37.583034" lon="-6.111118">
        <ele>173.943</ele>
        <time>2021-10-12T11:12:08Z</time>
      </trkpt>
      <trkpt lat="37.583515" lon="-6.111208">
        <ele>174.843</ele>
        <time>2021-10-12T11:12:10Z</time>
      </trkpt>
      <trkpt lat="37.584017" lon="-6.111279">
        <ele>172.764</ele>
        <time>2021-10-12T11:12:12Z</time>
      </trkpt>
      <trkpt lat="37.584530" lon="-6.111362">
        <ele>171.010</ele>
        <time>2021-10-12T11:12:14Z</time>
      </trkpt>
      <trkpt lat="37.585015" lon="-6.111450">
        <ele>172.208</ele>
        <time>2021-10-12T11:12:16Z</time>
      </trkpt>
      <trkpt lat="37.585252" lon="-6.111491">
        <ele>172.122</ele>
        <time>2021-10-12T11:12:17Z</time>
      </trkpt>
      <trkpt lat="37.585710" lon="-6.111534">
        <ele>171.880</ele>
        <time>2021-10-12T11:12:19Z</time>
      </trkpt>
      <trkpt lat="37.585941" lon="-6.111564">
        <ele>173.086</ele>
        <time>2021-10-12T11:12:20Z</time>
      </trkpt>
      <trkpt lat="37.586376" lon="-6.111639">
        <ele>176.729</ele>
        <time>2021-10-12T11:12:22Z</time>
      </trkpt>
      <trkpt lat="37.586820" lon="-6.111735">
        <ele>182.365</ele>
        <time>2021-10-12T11:12:24Z</time>
      </trkpt>
      <trkpt lat="37.587270" lon="-6.111876">
        <ele>182.134</ele>
        <time>2021-10-12T11:12:26Z</time>
      </trkpt>
      <trkpt lat="37.587712" lon="-6.112058">
        <ele>177.534</ele>
        <time>2021-10-12T11:12:28Z</time>
      </trkpt>
      <trkpt lat="37.587939" lon="-6.112168">
        <ele>176.475</ele>
        <time>2021-10-12T11:12:29Z</time>
      </trkpt>
      <trkpt lat="37.588395" lon="-6.112398">
        <ele>174.778</ele>
        <time>2021-10-12T11:12:31Z</time>
      </trkpt>
      <trkpt lat="37.588633" lon="-6.112519">
        <ele>175.233</ele>
        <time>2021-10-12T11:12:32Z</time>
      </trkpt>
      <trkpt lat="37.589098" lon="-6.112757">
        <ele>173.026</ele>
        <time>2021-10-12T11:12:34Z</time>
      </trkpt>
      <trkpt lat="37.589597" lon="-6.112998">
        <ele>167.808</ele>
        <time>2021-10-12T11:12:36Z</time>
      </trkpt>
      <trkpt lat="37.590092" lon="-6.113202">
        <ele>169.285</ele>
        <time>2021-10-12T11:12:38Z</time>
      </trkpt>
      <trkpt lat="37.590594" lon="-6.113349">
        <ele>172.253</ele>
        <time>2021-10-12T11:12:40Z</time>
      </trkpt>
      <trkpt lat="37.591130" lon="-6.113410">
        <ele>174.289</ele>
        <time>2021-10-12T11:12:42Z</time>
      </trkpt>
      <trkpt lat="37.591700" lon="-6.113378">
        <ele>172.092</ele>
        <time>2021-10-12T11:12:44Z</time>
      </trkpt>
      <trkpt lat="37.592265" lon="-6.113245">
        <ele>174.348</ele>
        <time>2021-10-12T11:12:46Z</time>
      </trkpt>
      <trkpt lat="37.592552" lon="-6.113145">
        <ele>176.797</ele>
        <time>2021-10-12T11:12:47Z</time>
      </trkpt>
      <trkpt lat="37.593130" lon="-6.112918">
        <ele>180.667</ele>
        <time>2021-10-12T11:12:49Z</time>
      </trkpt>
      <trkpt lat="37.593424" lon="-6.112807">
        <ele>181.958</ele>
        <time>2021-10-12T11:12:50Z</time>
      </trkpt>
      <trkpt lat="37.593990" lon="-6.112617">
        <ele>185.786</ele>
        <time>2021-10-12T11:12:52Z</time>
      </trkpt>
      <trkpt lat="37.594270" lon="-6.112534">
        <ele>186.760</ele>
        <time>2021-10-12T11:12:53Z</time>
      </trkpt>
      <trkpt lat="37.594829" lon="-6.112395">
        <ele>186.626</ele>
        <time>2021-10-12T11:12:55Z</time>
      </trkpt>
      <trkpt lat="37.595115" lon="-6.112331">
        <ele>186.808</ele>
        <time>2021-10-12T11:12:56Z</time>
      </trkpt>
      <trkpt lat="37.595666" lon="-6.112231">
        <ele>190.046</ele>
        <time>2021-10-12T11:12:58Z</time>
      </trkpt>
      <trkpt lat="37.595949" lon="-6.112185">
        <ele>190.054</ele>
        <time>2021-10-12T11:12:59Z</time>
      </trkpt>
      <trkpt lat="37.596514" lon="-6.112088">
        <ele>192.040</ele>
        <time>2021-10-12T11:13:01Z</time>
      </trkpt>
      <trkpt lat="37.596800" lon="-6.112037">
        <ele>193.013</ele>
        <time>2021-10-12T11:13:02Z</time>
      </trkpt>
      <trkpt lat="37.597340" lon="-6.111942">
        <ele>196.859</ele>
        <time>2021-10-12T11:13:04Z</time>
      </trkpt>
      <trkpt lat="37.597872" lon="-6.111853">
        <ele>200.278</ele>
        <time>2021-10-12T11:13:06Z</time>
      </trkpt>
      <trkpt lat="37.598401" lon="-6.111762">
        <ele>202.868</ele>
        <time>2021-10-12T11:13:08Z</time>
      </trkpt>
      <trkpt lat="37.598891" lon="-6.111679">
        <ele>205.179</ele>
        <time>2021-10-12T11:13:10Z</time>
      </trkpt>
      <trkpt lat="37.599124" lon="-6.111640">
        <ele>206.686</ele>
        <time>2021-10-12T11:13:11Z</time>
      </trkpt>
      <trkpt lat="37.599575" lon="-6.111570">
        <ele>211.060</ele>
        <time>2021-10-12T11:13:13Z</time>
      </trkpt>
      <trkpt lat="37.599812" lon="-6.111547">
        <ele>213.726</ele>
        <time>2021-10-12T11:13:14Z</time>
      </trkpt>
      <trkpt lat="37.600279" lon="-6.111540">
        <ele>220.208</ele>
        <time>2021-10-12T11:13:16Z</time>
      </trkpt>
      <trkpt lat="37.600769" lon="-6.111576">
        <ele>226.236</ele>
        <time>2021-10-12T11:13:18Z</time>
      </trkpt>
      <trkpt lat="37.601270" lon="-6.111656">
        <ele>229.364</ele>
        <time>2021-10-12T11:13:20Z</time>
      </trkpt>
      <trkpt lat="37.601744" lon="-6.111762">
        <ele>230.120</ele>
        <time>2021-10-12T11:13:22Z</time>
      </trkpt>
      <trkpt lat="37.601981" lon="-6.111818">
        <ele>230.943</ele>
        <time>2021-10-12T11:13:23Z</time>
      </trkpt>
      <trkpt lat="37.602451" lon="-6.111934">
        <ele>230.069</ele>
        <time>2021-10-12T11:13:25Z</time>
      </trkpt>
      <trkpt lat="37.602687" lon="-6.111995">
        <ele>228.828</ele>
        <time>2021-10-12T11:13:26Z</time>
      </trkpt>
      <trkpt lat="37.603147" lon="-6.112098">
        <ele>226.758</ele>
        <time>2021-10-12T11:13:28Z</time>
      </trkpt>
      <trkpt lat="37.603617" lon="-6.112181">
        <ele>227.219</ele>
        <time>2021-10-12T11:13:30Z</time>
      </trkpt>
      <trkpt lat="37.603854" lon="-6.112206">
        <ele>227.918</ele>
        <time>2021-10-12T11:13:31Z</time>
      </trkpt>
      <trkpt lat="37.604097" lon="-6.112217">
        <ele>231.098</ele>
        <time>2021-10-12T11:13:32Z</time>
      </trkpt>
      <trkpt lat="37.604568" lon="-6.112218">
        <ele>235.317</ele>
        <time>2021-10-12T11:13:34Z</time>
      </trkpt>
      <trkpt lat="37.605062" lon="-6.112210">
        <ele>239.908</ele>
        <time>2021-10-12T11:13:36Z</time>
      </trkpt>
      <trkpt lat="37.605546" lon="-6.112196">
        <ele>238.879</ele>
        <time>2021-10-12T11:13:38Z</time>
      </trkpt>
      <trkpt lat="37.605999" lon="-6.112173">
        <ele>241.327</ele>
        <time>2021-10-12T11:13:40Z</time>
      </trkpt>
      <trkpt lat="37.606233" lon="-6.112154">
        <ele>242.673</ele>
        <time>2021-10-12T11:13:41Z</time>
      </trkpt>
      <trkpt lat="37.606714" lon="-6.112111">
        <ele>242.936</ele>
        <time>2021-10-12T11:13:43Z</time>
      </trkpt>
      <trkpt lat="37.606962" lon="-6.112088">
        <ele>242.652</ele>
        <time>2021-10-12T11:13:44Z</time>
      </trkpt>
      <trkpt lat="37.607448" lon="-6.112052">
        <ele>245.711</ele>
        <time>2021-10-12T11:13:46Z</time>
      </trkpt>
      <trkpt lat="37.607955" lon="-6.112015">
        <ele>245.061</ele>
        <time>2021-10-12T11:13:48Z</time>
      </trkpt>
      <trkpt lat="37.608216" lon="-6.111998">
        <ele>246.722</ele>
        <time>2021-10-12T11:13:49Z</time>
      </trkpt>
      <trkpt lat="37.608479" lon="-6.111990">
        <ele>249.775</ele>
        <time>2021-10-12T11:13:50Z</time>
      </trkpt>
      <trkpt lat="37.608943" lon="-6.112038">
        <ele>253.828</ele>
        <time>2021-10-12T11:13:52Z</time>
      </trkpt>
      <trkpt lat="37.609374" lon="-6.112207">
        <ele>252.420</ele>
        <time>2021-10-12T11:13:54Z</time>
      </trkpt>
      <trkpt lat="37.609579" lon="-6.112339">
        <ele>251.108</ele>
        <time>2021-10-12T11:13:55Z</time>
      </trkpt>
      <trkpt lat="37.609778" lon="-6.112502">
        <ele>250.285</ele>
        <time>2021-10-12T11:13:56Z</time>
      </trkpt>
      <trkpt lat="37.610132" lon="-6.112889">
        <ele>250.463</ele>
        <time>2021-10-12T11:13:58Z</time>
      </trkpt>
      <trkpt lat="37.610306" lon="-6.113113">
        <ele>249.889</ele>
        <time>2021-10-12T11:13:59Z</time>
      </trkpt>
      <trkpt lat="37.610633" lon="-6.113605">
        <ele>249.572</ele>
        <time>2021-10-12T11:14:01Z</time>
      </trkpt>
      <trkpt lat="37.610800" lon="-6.113871">
        <ele>247.328</ele>
        <time>2021-10-12T11:14:02Z</time>
      </trkpt>
      <trkpt lat="37.611128" lon="-6.114399">
        <ele>246.977</ele>
        <time>2021-10-12T11:14:04Z</time>
      </trkpt>
      <trkpt lat="37.611302" lon="-6.114672">
        <ele>246.617</ele>
        <time>2021-10-12T11:14:05Z</time>
      </trkpt>
      <trkpt lat="37.611486" lon="-6.114952">
        <ele>245.178</ele>
        <time>2021-10-12T11:14:06Z</time>
      </trkpt>
      <trkpt lat="37.611869" lon="-6.115532">
        <ele>246.033</ele>
        <time>2021-10-12T11:14:08Z</time>
      </trkpt>
      <trkpt lat="37.612239" lon="-6.116093">
        <ele>244.023</ele>
        <time>2021-10-12T11:14:10Z</time>
      </trkpt>
      <trkpt lat="37.612600" lon="-6.116645">
        <ele>242.915</ele>
        <time>2021-10-12T11:14:12Z</time>
      </trkpt>
      <trkpt lat="37.612934" lon="-6.117150">
        <ele>246.908</ele>
        <time>2021-10-12T11:14:14Z</time>
      </trkpt>
      <trkpt lat="37.613207" lon="-6.117575">
        <ele>249.371</ele>
        <time>2021-10-12T11:14:16Z</time>
      </trkpt>
      <trkpt lat="37.613454" lon="-6.117961">
        <ele>251.059</ele>
        <time>2021-10-12T11:14:18Z</time>
      </trkpt>
      <trkpt lat="37.613711" lon="-6.118353">
        <ele>252.355</ele>
        <time>2021-10-12T11:14:20Z</time>
      </trkpt>
      <trkpt lat="37.614006" lon="-6.118755">
        <ele>252.238</ele>
        <time>2021-10-12T11:14:22Z</time>
      </trkpt>
      <trkpt lat="37.614167" lon="-6.118966">
        <ele>251.064</ele>
        <time>2021-10-12T11:14:23Z</time>
      </trkpt>
      <trkpt lat="37.614508" lon="-6.119410">
        <ele>248.863</ele>
        <time>2021-10-12T11:14:25Z</time>
      </trkpt>
      <trkpt lat="37.614694" lon="-6.119644">
        <ele>248.153</ele>
        <time>2021-10-12T11:14:26Z</time>
      </trkpt>
      <trkpt lat="37.615052" lon="-6.120081">
        <ele>248.984</ele>
        <time>2021-10-12T11:14:28Z</time>
      </trkpt>
      <trkpt lat="37.615237" lon="-6.120309">
        <ele>248.071</ele>
        <time>2021-10-12T11:14:29Z</time>
      </trkpt>
      <trkpt lat="37.615421" lon="-6.120538">
        <ele>245.641</ele>
        <time>2021-10-12T11:14:30Z</time>
      </trkpt>
      <trkpt lat="37.615781" lon="-6.120993">
        <ele>246.615</ele>
        <time>2021-10-12T11:14:32Z</time>
      </trkpt>
      <trkpt lat="37.616136" lon="-6.121440">
        <ele>251.108</ele>
        <time>2021-10-12T11:14:34Z</time>
      </trkpt>
      <trkpt lat="37.616501" lon="-6.121880">
        <ele>250.225</ele>
        <time>2021-10-12T11:14:36Z</time>
      </trkpt>
      <trkpt lat="37.616681" lon="-6.122101">
        <ele>250.123</ele>
        <time>2021-10-12T11:14:37Z</time>
      </trkpt>
      <trkpt lat="37.616863" lon="-6.122326">
        <ele>250.019</ele>
        <time>2021-10-12T11:14:38Z</time>
      </trkpt>
      <trkpt lat="37.617204" lon="-6.122743">
        <ele>250.922</ele>
        <time>2021-10-12T11:14:40Z</time>
      </trkpt>
      <trkpt lat="37.617556" lon="-6.123147">
        <ele>253.068</ele>
        <time>2021-10-12T11:14:42Z</time>
      </trkpt>
      <trkpt lat="37.617741" lon="-6.123339">
        <ele>253.077</ele>
        <time>2021-10-12T11:14:43Z</time>
      </trkpt>
      <trkpt lat="37.617938" lon="-6.123528">
        <ele>252.487</ele>
        <time>2021-10-12T11:14:44Z</time>
      </trkpt>
      <trkpt lat="37.618343" lon="-6.123872">
        <ele>252.088</ele>
        <time>2021-10-12T11:14:46Z</time>
      </trkpt>
      <trkpt lat="37.618561" lon="-6.124042">
        <ele>250.724</ele>
        <time>2021-10-12T11:14:47Z</time>
      </trkpt>
      <trkpt lat="37.618780" lon="-6.124212">
        <ele>248.404</ele>
        <time>2021-10-12T11:14:48Z</time>
      </trkpt>
      <trkpt lat="37.619226" lon="-6.124550">
        <ele>248.714</ele>
        <time>2021-10-12T11:14:50Z</time>
      </trkpt>
      <trkpt lat="37.619651" lon="-6.124875">
        <ele>251.808</ele>
        <time>2021-10-12T11:14:52Z</time>
      </trkpt>
      <trkpt lat="37.619859" lon="-6.125035">
        <ele>254.030</ele>
        <time>2021-10-12T11:14:53Z</time>
      </trkpt>
      <trkpt lat="37.620055" lon="-6.125186">
        <ele>256.128</ele>
        <time>2021-10-12T11:14:54Z</time>
      </trkpt>
      <trkpt lat="37.620414" lon="-6.125462">
        <ele>256.894</ele>
        <time>2021-10-12T11:14:56Z</time>
      </trkpt>
      <trkpt lat="37.620759" lon="-6.125730">
        <ele>257.737</ele>
        <time>2021-10-12T11:14:58Z</time>
      </trkpt>
      <trkpt lat="37.621134" lon="-6.126011">
        <ele>256.243</ele>
        <time>2021-10-12T11:15:00Z</time>
      </trkpt>
      <trkpt lat="37.621335" lon="-6.126153">
        <ele>256.342</ele>
        <time>2021-10-12T11:15:01Z</time>
      </trkpt>
      <trkpt lat="37.621542" lon="-6.126297">
        <ele>256.722</ele>
        <time>2021-10-12T11:15:02Z</time>
      </trkpt>
      <trkpt lat="37.621943" lon="-6.126616">
        <ele>259.643</ele>
        <time>2021-10-12T11:15:04Z</time>
      </trkpt>
      <trkpt lat="37.622353" lon="-6.127027">
        <ele>261.645</ele>
        <time>2021-10-12T11:15:06Z</time>
      </trkpt>
      <trkpt lat="37.622744" lon="-6.127538">
        <ele>270.847</ele>
        <time>2021-10-12T11:15:08Z</time>
      </trkpt>
      <trkpt lat="37.623094" lon="-6.128109">
        <ele>277.311</ele>
        <time>2021-10-12T11:15:10Z</time>
      </trkpt>
      <trkpt lat="37.623411" lon="-6.128726">
        <ele>279.508</ele>
        <time>2021-10-12T11:15:12Z</time>
      </trkpt>
      <trkpt lat="37.623550" lon="-6.129007">
        <ele>281.172</ele>
        <time>2021-10-12T11:15:13Z</time>
      </trkpt>
      <trkpt lat="37.623683" lon="-6.129273">
        <ele>282.870</ele>
        <time>2021-10-12T11:15:14Z</time>
      </trkpt>
      <trkpt lat="37.623914" lon="-6.129730">
        <ele>283.226</ele>
        <time>2021-10-12T11:15:16Z</time>
      </trkpt>
      <trkpt lat="37.624151" lon="-6.130182">
        <ele>281.899</ele>
        <time>2021-10-12T11:15:18Z</time>
      </trkpt>
      <trkpt lat="37.624423" lon="-6.130630">
        <ele>283.265</ele>
        <time>2021-10-12T11:15:20Z</time>
      </trkpt>
      <trkpt lat="37.624727" lon="-6.131025">
        <ele>281.014</ele>
        <time>2021-10-12T11:15:22Z</time>
      </trkpt>
      <trkpt lat="37.624894" lon="-6.131216">
        <ele>280.634</ele>
        <time>2021-10-12T11:15:23Z</time>
      </trkpt>
      <trkpt lat="37.625236" lon="-6.131588">
        <ele>284.425</ele>
        <time>2021-10-12T11:15:25Z</time>
      </trkpt>
      <trkpt lat="37.625423" lon="-6.131777">
        <ele>286.282</ele>
        <time>2021-10-12T11:15:26Z</time>
      </trkpt>
      <trkpt lat="37.625769" lon="-6.132120">
        <ele>289.243</ele>
        <time>2021-10-12T11:15:28Z</time>
      </trkpt>
      <trkpt lat="37.625934" lon="-6.132286">
        <ele>290.317</ele>
        <time>2021-10-12T11:15:29Z</time>
      </trkpt>
      <trkpt lat="37.626087" lon="-6.132441">
        <ele>291.508</ele>
        <time>2021-10-12T11:15:30Z</time>
      </trkpt>
      <trkpt lat="37.626359" lon="-6.132744">
        <ele>295.316</ele>
        <time>2021-10-12T11:15:32Z</time>
      </trkpt>
      <trkpt lat="37.626571" lon="-6.133038">
        <ele>297.014</ele>
        <time>2021-10-12T11:15:34Z</time>
      </trkpt>
      <trkpt lat="37.626762" lon="-6.133362">
        <ele>299.160</ele>
        <time>2021-10-12T11:15:36Z</time>
      </trkpt>
      <trkpt lat="37.626852" lon="-6.133534">
        <ele>300.043</ele>
        <time>2021-10-12T11:15:37Z</time>
      </trkpt>
      <trkpt lat="37.626938" lon="-6.133721">
        <ele>301.389</ele>
        <time>2021-10-12T11:15:38Z</time>
      </trkpt>
      <trkpt lat="37.627088" lon="-6.134106">
        <ele>302.478</ele>
        <time>2021-10-12T11:15:40Z</time>
      </trkpt>
      <trkpt lat="37.627237" lon="-6.134543">
        <ele>304.388</ele>
        <time>2021-10-12T11:15:42Z</time>
      </trkpt>
      <trkpt lat="37.627322" lon="-6.134774">
        <ele>305.159</ele>
        <time>2021-10-12T11:15:43Z</time>
      </trkpt>
      <trkpt lat="37.627417" lon="-6.135023">
        <ele>306.899</ele>
        <time>2021-10-12T11:15:44Z</time>
      </trkpt>
      <trkpt lat="37.627601" lon="-6.135524">
        <ele>308.807</ele>
        <time>2021-10-12T11:15:46Z</time>
      </trkpt>
      <trkpt lat="37.627787" lon="-6.136017">
        <ele>305.427</ele>
        <time>2021-10-12T11:15:48Z</time>
      </trkpt>
      <trkpt lat="37.627880" lon="-6.136261">
        <ele>305.008</ele>
        <time>2021-10-12T11:15:49Z</time>
      </trkpt>
      <trkpt lat="37.627971" lon="-6.136511">
        <ele>305.447</ele>
        <time>2021-10-12T11:15:50Z</time>
      </trkpt>
      <trkpt lat="37.628147" lon="-6.136991">
        <ele>305.145</ele>
        <time>2021-10-12T11:15:52Z</time>
      </trkpt>
      <trkpt lat="37.628325" lon="-6.137464">
        <ele>305.971</ele>
        <time>2021-10-12T11:15:54Z</time>
      </trkpt>
      <trkpt lat="37.628495" lon="-6.137913">
        <ele>307.024</ele>
        <time>2021-10-12T11:15:56Z</time>
      </trkpt>
      <trkpt lat="37.628629" lon="-6.138279">
        <ele>307.380</ele>
        <time>2021-10-12T11:15:58Z</time>
      </trkpt>
      <trkpt lat="37.628753" lon="-6.138605">
        <ele>307.049</ele>
        <time>2021-10-12T11:16:00Z</time>
      </trkpt>
      <trkpt lat="37.628813" lon="-6.138766">
        <ele>307.269</ele>
        <time>2021-10-12T11:16:01Z</time>
      </trkpt>
      <trkpt lat="37.628875" lon="-6.138933">
        <ele>306.840</ele>
        <time>2021-10-12T11:16:02Z</time>
      </trkpt>
      <trkpt lat="37.629006" lon="-6.139296">
        <ele>306.452</ele>
        <time>2021-10-12T11:16:04Z</time>
      </trkpt>
      <trkpt lat="37.629176" lon="-6.139703">
        <ele>305.153</ele>
        <time>2021-10-12T11:16:06Z</time>
      </trkpt>
      <trkpt lat="37.629369" lon="-6.140081">
        <ele>305.608</ele>
        <time>2021-10-12T11:16:08Z</time>
      </trkpt>
      <trkpt lat="37.629557" lon="-6.140395">
        <ele>306.808</ele>
        <time>2021-10-12T11:16:10Z</time>
      </trkpt>
      <trkpt lat="37.629739" lon="-6.140669">
        <ele>305.923</ele>
        <time>2021-10-12T11:16:12Z</time>
      </trkpt>
      <trkpt lat="37.629925" lon="-6.140939">
        <ele>304.591</ele>
        <time>2021-10-12T11:16:14Z</time>
      </trkpt>
      <trkpt lat="37.630090" lon="-6.141181">
        <ele>303.287</ele>
        <time>2021-10-12T11:16:16Z</time>
      </trkpt>
      <trkpt lat="37.630160" lon="-6.141284">
        <ele>303.070</ele>
        <time>2021-10-12T11:16:17Z</time>
      </trkpt>
      <trkpt lat="37.630223" lon="-6.141376">
        <ele>303.166</ele>
        <time>2021-10-12T11:16:18Z</time>
      </trkpt>
      <trkpt lat="37.630324" lon="-6.141521">
        <ele>303.785</ele>
        <time>2021-10-12T11:16:20Z</time>
      </trkpt>
      <trkpt lat="37.630389" lon="-6.141610">
        <ele>304.555</ele>
        <time>2021-10-12T11:16:22Z</time>
      </trkpt>
      <trkpt lat="37.630426" lon="-6.141655">
        <ele>305.096</ele>
        <time>2021-10-12T11:16:24Z</time>
      </trkpt>
      <trkpt lat="37.630470" lon="-6.141698">
        <ele>305.239</ele>
        <time>2021-10-12T11:16:27Z</time>
      </trkpt>
      <trkpt lat="37.630505" lon="-6.141745">
        <ele>305.101</ele>
        <time>2021-10-12T11:16:32Z</time>
      </trkpt>
      <trkpt lat="37.630563" lon="-6.141771">
        <ele>305.221</ele>
        <time>2021-10-12T11:16:36Z</time>
      </trkpt>
      <trkpt lat="37.630632" lon="-6.141798">
        <ele>305.108</ele>
        <time>2021-10-12T11:16:37Z</time>
      </trkpt>
      <trkpt lat="37.630723" lon="-6.141828">
        <ele>304.831</ele>
        <time>2021-10-12T11:16:38Z</time>
      </trkpt>
      <trkpt lat="37.630889" lon="-6.141905">
        <ele>304.359</ele>
        <time>2021-10-12T11:16:40Z</time>
      </trkpt>
      <trkpt lat="37.630968" lon="-6.141959">
        <ele>303.855</ele>
        <time>2021-10-12T11:16:41Z</time>
      </trkpt>
      <trkpt lat="37.631158" lon="-6.142048">
        <ele>303.158</ele>
        <time>2021-10-12T11:16:43Z</time>
      </trkpt>
      <trkpt lat="37.631264" lon="-6.142073">
        <ele>303.274</ele>
        <time>2021-10-12T11:16:44Z</time>
      </trkpt>
      <trkpt lat="37.631447" lon="-6.142101">
        <ele>303.753</ele>
        <time>2021-10-12T11:16:46Z</time>
      </trkpt>
      <trkpt lat="37.631533" lon="-6.142124">
        <ele>304.113</ele>
        <time>2021-10-12T11:16:47Z</time>
      </trkpt>
      <trkpt lat="37.631622" lon="-6.142158">
        <ele>304.664</ele>
        <time>2021-10-12T11:16:48Z</time>
      </trkpt>
      <trkpt lat="37.631817" lon="-6.142248">
        <ele>306.047</ele>
        <time>2021-10-12T11:16:50Z</time>
      </trkpt>
      <trkpt lat="37.632052" lon="-6.142383">
        <ele>307.629</ele>
        <time>2021-10-12T11:16:52Z</time>
      </trkpt>
      <trkpt lat="37.632194" lon="-6.142470">
        <ele>308.021</ele>
        <time>2021-10-12T11:16:53Z</time>
      </trkpt>
      <trkpt lat="37.632509" lon="-6.142676">
        <ele>307.308</ele>
        <time>2021-10-12T11:16:55Z</time>
      </trkpt>
      <trkpt lat="37.632673" lon="-6.142789">
        <ele>307.022</ele>
        <time>2021-10-12T11:16:56Z</time>
      </trkpt>
      <trkpt lat="37.632975" lon="-6.143003">
        <ele>308.380</ele>
        <time>2021-10-12T11:16:58Z</time>
      </trkpt>
      <trkpt lat="37.633112" lon="-6.143106">
        <ele>308.716</ele>
        <time>2021-10-12T11:16:59Z</time>
      </trkpt>
      <trkpt lat="37.633355" lon="-6.143307">
        <ele>308.829</ele>
        <time>2021-10-12T11:17:01Z</time>
      </trkpt>
      <trkpt lat="37.633466" lon="-6.143415">
        <ele>309.185</ele>
        <time>2021-10-12T11:17:02Z</time>
      </trkpt>
      <trkpt lat="37.633680" lon="-6.143654">
        <ele>310.944</ele>
        <time>2021-10-12T11:17:04Z</time>
      </trkpt>
      <trkpt lat="37.633789" lon="-6.143792">
        <ele>312.664</ele>
        <time>2021-10-12T11:17:05Z</time>
      </trkpt>
      <trkpt lat="37.634002" lon="-6.144098">
        <ele>314.995</ele>
        <time>2021-10-12T11:17:07Z</time>
      </trkpt>
      <trkpt lat="37.634109" lon="-6.144262">
        <ele>315.183</ele>
        <time>2021-10-12T11:17:08Z</time>
      </trkpt>
      <trkpt lat="37.634294" lon="-6.144603">
        <ele>315.025</ele>
        <time>2021-10-12T11:17:10Z</time>
      </trkpt>
      <trkpt lat="37.634434" lon="-6.144927">
        <ele>315.017</ele>
        <time>2021-10-12T11:17:12Z</time>
      </trkpt>
      <trkpt lat="37.634538" lon="-6.145184">
        <ele>315.008</ele>
        <time>2021-10-12T11:17:14Z</time>
      </trkpt>
      <trkpt lat="37.634636" lon="-6.145412">
        <ele>314.146</ele>
        <time>2021-10-12T11:17:16Z</time>
      </trkpt>
      <trkpt lat="37.634743" lon="-6.145677">
        <ele>312.424</ele>
        <time>2021-10-12T11:17:18Z</time>
      </trkpt>
      <trkpt lat="37.634804" lon="-6.145834">
        <ele>311.480</ele>
        <time>2021-10-12T11:17:19Z</time>
      </trkpt>
      <trkpt lat="37.634874" lon="-6.146002">
        <ele>311.293</ele>
        <time>2021-10-12T11:17:20Z</time>
      </trkpt>
      <trkpt lat="37.635033" lon="-6.146354">
        <ele>310.919</ele>
        <time>2021-10-12T11:17:22Z</time>
      </trkpt>
      <trkpt lat="37.635123" lon="-6.146539">
        <ele>310.318</ele>
        <time>2021-10-12T11:17:23Z</time>
      </trkpt>
      <trkpt lat="37.635315" lon="-6.146865">
        <ele>310.048</ele>
        <time>2021-10-12T11:17:25Z</time>
      </trkpt>
      <trkpt lat="37.635420" lon="-6.146995">
        <ele>310.549</ele>
        <time>2021-10-12T11:17:26Z</time>
      </trkpt>
      <trkpt lat="37.635627" lon="-6.147177">
        <ele>312.083</ele>
        <time>2021-10-12T11:17:28Z</time>
      </trkpt>
      <trkpt lat="37.635739" lon="-6.147260">
        <ele>312.025</ele>
        <time>2021-10-12T11:17:29Z</time>
      </trkpt>
      <trkpt lat="37.635995" lon="-6.147442">
        <ele>313.017</ele>
        <time>2021-10-12T11:17:31Z</time>
      </trkpt>
      <trkpt lat="37.636155" lon="-6.147552">
        <ele>313.408</ele>
        <time>2021-10-12T11:17:32Z</time>
      </trkpt>
      <trkpt lat="37.636513" lon="-6.147788">
        <ele>313.976</ele>
        <time>2021-10-12T11:17:34Z</time>
      </trkpt>
      <trkpt lat="37.636915" lon="-6.148062">
        <ele>312.844</ele>
        <time>2021-10-12T11:17:36Z</time>
      </trkpt>
      <trkpt lat="37.637337" lon="-6.148372">
        <ele>309.120</ele>
        <time>2021-10-12T11:17:38Z</time>
      </trkpt>
      <trkpt lat="37.637778" lon="-6.148705">
        <ele>309.373</ele>
        <time>2021-10-12T11:17:40Z</time>
      </trkpt>
      <trkpt lat="37.638010" lon="-6.148883">
        <ele>309.769</ele>
        <time>2021-10-12T11:17:41Z</time>
      </trkpt>
      <trkpt lat="37.638463" lon="-6.149234">
        <ele>311.218</ele>
        <time>2021-10-12T11:17:43Z</time>
      </trkpt>
      <trkpt lat="37.638677" lon="-6.149405">
        <ele>312.658</ele>
        <time>2021-10-12T11:17:44Z</time>
      </trkpt>
      <trkpt lat="37.639066" lon="-6.149717">
        <ele>313.749</ele>
        <time>2021-10-12T11:17:46Z</time>
      </trkpt>
      <trkpt lat="37.639448" lon="-6.150034">
        <ele>313.958</ele>
        <time>2021-10-12T11:17:48Z</time>
      </trkpt>
      <trkpt lat="37.639840" lon="-6.150348">
        <ele>315.552</ele>
        <time>2021-10-12T11:17:50Z</time>
      </trkpt>
      <trkpt lat="37.640224" lon="-6.150653">
        <ele>316.317</ele>
        <time>2021-10-12T11:17:52Z</time>
      </trkpt>
      <trkpt lat="37.640426" lon="-6.150807">
        <ele>316.608</ele>
        <time>2021-10-12T11:17:53Z</time>
      </trkpt>
      <trkpt lat="37.640631" lon="-6.150959">
        <ele>316.533</ele>
        <time>2021-10-12T11:17:54Z</time>
      </trkpt>
      <trkpt lat="37.641048" lon="-6.151266">
        <ele>317.351</ele>
        <time>2021-10-12T11:17:56Z</time>
      </trkpt>
      <trkpt lat="37.641465" lon="-6.151564">
        <ele>317.377</ele>
        <time>2021-10-12T11:17:58Z</time>
      </trkpt>
      <trkpt lat="37.641680" lon="-6.151715">
        <ele>319.320</ele>
        <time>2021-10-12T11:17:59Z</time>
      </trkpt>
      <trkpt lat="37.642112" lon="-6.152006">
        <ele>322.156</ele>
        <time>2021-10-12T11:18:01Z</time>
      </trkpt>
      <trkpt lat="37.642330" lon="-6.152149">
        <ele>322.715</ele>
        <time>2021-10-12T11:18:02Z</time>
      </trkpt>
      <trkpt lat="37.642743" lon="-6.152430">
        <ele>323.865</ele>
        <time>2021-10-12T11:18:04Z</time>
      </trkpt>
      <trkpt lat="37.643170" lon="-6.152723">
        <ele>327.326</ele>
        <time>2021-10-12T11:18:06Z</time>
      </trkpt>
      <trkpt lat="37.643388" lon="-6.152871">
        <ele>329.262</ele>
        <time>2021-10-12T11:18:07Z</time>
      </trkpt>
      <trkpt lat="37.643608" lon="-6.153022">
        <ele>330.283</ele>
        <time>2021-10-12T11:18:08Z</time>
      </trkpt>
      <trkpt lat="37.644008" lon="-6.153302">
        <ele>331.411</ele>
        <time>2021-10-12T11:18:10Z</time>
      </trkpt>
      <trkpt lat="37.644194" lon="-6.153430">
        <ele>331.908</ele>
        <time>2021-10-12T11:18:11Z</time>
      </trkpt>
      <trkpt lat="37.644552" lon="-6.153672">
        <ele>330.644</ele>
        <time>2021-10-12T11:18:13Z</time>
      </trkpt>
      <trkpt lat="37.644736" lon="-6.153795">
        <ele>330.692</ele>
        <time>2021-10-12T11:18:14Z</time>
      </trkpt>
      <trkpt lat="37.645100" lon="-6.154033">
        <ele>329.068</ele>
        <time>2021-10-12T11:18:16Z</time>
      </trkpt>
      <trkpt lat="37.645291" lon="-6.154162">
        <ele>329.061</ele>
        <time>2021-10-12T11:18:17Z</time>
      </trkpt>
      <trkpt lat="37.645489" lon="-6.154296">
        <ele>330.957</ele>
        <time>2021-10-12T11:18:18Z</time>
      </trkpt>
      <trkpt lat="37.645913" lon="-6.154584">
        <ele>337.666</ele>
        <time>2021-10-12T11:18:20Z</time>
      </trkpt>
      <trkpt lat="37.646359" lon="-6.154889">
        <ele>330.936</ele>
        <time>2021-10-12T11:18:22Z</time>
      </trkpt>
      <trkpt lat="37.646591" lon="-6.155050">
        <ele>325.957</ele>
        <time>2021-10-12T11:18:23Z</time>
      </trkpt>
      <trkpt lat="37.647053" lon="-6.155360">
        <ele>321.567</ele>
        <time>2021-10-12T11:18:25Z</time>
      </trkpt>
      <trkpt lat="37.647284" lon="-6.155500">
        <ele>320.181</ele>
        <time>2021-10-12T11:18:26Z</time>
      </trkpt>
      <trkpt lat="37.647739" lon="-6.155694">
        <ele>312.219</ele>
        <time>2021-10-12T11:18:28Z</time>
      </trkpt>
      <trkpt lat="37.648231" lon="-6.155797">
        <ele>310.108</ele>
        <time>2021-10-12T11:18:30Z</time>
      </trkpt>
      <trkpt lat="37.648484" lon="-6.155801">
        <ele>314.064</ele>
        <time>2021-10-12T11:18:31Z</time>
      </trkpt>
      <trkpt lat="37.648748" lon="-6.155756">
        <ele>318.572</ele>
        <time>2021-10-12T11:18:32Z</time>
      </trkpt>
      <trkpt lat="37.649236" lon="-6.155509">
        <ele>319.898</ele>
        <time>2021-10-12T11:18:34Z</time>
      </trkpt>
      <trkpt lat="37.649473" lon="-6.155336">
        <ele>318.281</ele>
        <time>2021-10-12T11:18:35Z</time>
      </trkpt>
      <trkpt lat="37.649700" lon="-6.155163">
        <ele>315.467</ele>
        <time>2021-10-12T11:18:36Z</time>
      </trkpt>
      <trkpt lat="37.649928" lon="-6.155015">
        <ele>313.776</ele>
        <time>2021-10-12T11:18:37Z</time>
      </trkpt>
      <trkpt lat="37.650167" lon="-6.154904">
        <ele>312.346</ele>
        <time>2021-10-12T11:18:38Z</time>
      </trkpt>
      <trkpt lat="37.650662" lon="-6.154816">
        <ele>300.537</ele>
        <time>2021-10-12T11:18:40Z</time>
      </trkpt>
      <trkpt lat="37.650927" lon="-6.154824">
        <ele>295.677</ele>
        <time>2021-10-12T11:18:41Z</time>
      </trkpt>
      <trkpt lat="37.651446" lon="-6.154880">
        <ele>289.561</ele>
        <time>2021-10-12T11:18:43Z</time>
      </trkpt>
      <trkpt lat="37.651702" lon="-6.154907">
        <ele>287.827</ele>
        <time>2021-10-12T11:18:44Z</time>
      </trkpt>
      <trkpt lat="37.652180" lon="-6.154954">
        <ele>286.508</ele>
        <time>2021-10-12T11:18:46Z</time>
      </trkpt>
      <trkpt lat="37.652646" lon="-6.154995">
        <ele>288.335</ele>
        <time>2021-10-12T11:18:48Z</time>
      </trkpt>
      <trkpt lat="37.652885" lon="-6.155027">
        <ele>287.353</ele>
        <time>2021-10-12T11:18:49Z</time>
      </trkpt>
      <trkpt lat="37.653134" lon="-6.155080">
        <ele>286.159</ele>
        <time>2021-10-12T11:18:50Z</time>
      </trkpt>
      <trkpt lat="37.653629" lon="-6.155233">
        <ele>280.332</ele>
        <time>2021-10-12T11:18:52Z</time>
      </trkpt>
      <trkpt lat="37.653886" lon="-6.155338">
        <ele>277.868</ele>
        <time>2021-10-12T11:18:53Z</time>
      </trkpt>
      <trkpt lat="37.654402" lon="-6.155612">
        <ele>275.117</ele>
        <time>2021-10-12T11:18:55Z</time>
      </trkpt>
      <trkpt lat="37.654665" lon="-6.155779">
        <ele>272.867</ele>
        <time>2021-10-12T11:18:56Z</time>
      </trkpt>
      <trkpt lat="37.655159" lon="-6.156129">
        <ele>267.758</ele>
        <time>2021-10-12T11:18:58Z</time>
      </trkpt>
      <trkpt lat="37.655635" lon="-6.156447">
        <ele>260.058</ele>
        <time>2021-10-12T11:19:00Z</time>
      </trkpt>
      <trkpt lat="37.655877" lon="-6.156574">
        <ele>256.152</ele>
        <time>2021-10-12T11:19:01Z</time>
      </trkpt>
      <trkpt lat="37.656124" lon="-6.156661">
        <ele>252.717</ele>
        <time>2021-10-12T11:19:02Z</time>
      </trkpt>
      <trkpt lat="37.656600" lon="-6.156693">
        <ele>246.708</ele>
        <time>2021-10-12T11:19:04Z</time>
      </trkpt>
      <trkpt lat="37.657077" lon="-6.156524">
        <ele>251.443</ele>
        <time>2021-10-12T11:19:06Z</time>
      </trkpt>
      <trkpt lat="37.657303" lon="-6.156364">
        <ele>254.691</ele>
        <time>2021-10-12T11:19:07Z</time>
      </trkpt>
      <trkpt lat="37.657518" lon="-6.156157">
        <ele>253.187</ele>
        <time>2021-10-12T11:19:08Z</time>
      </trkpt>
      <trkpt lat="37.657882" lon="-6.155709">
        <ele>243.410</ele>
        <time>2021-10-12T11:19:10Z</time>
      </trkpt>
      <trkpt lat="37.658071" lon="-6.155510">
        <ele>243.726</ele>
        <time>2021-10-12T11:19:11Z</time>
      </trkpt>
      <trkpt lat="37.658274" lon="-6.155341">
        <ele>245.735</ele>
        <time>2021-10-12T11:19:12Z</time>
      </trkpt>
      <trkpt lat="37.658738" lon="-6.155100">
        <ele>249.365</ele>
        <time>2021-10-12T11:19:14Z</time>
      </trkpt>
      <trkpt lat="37.659231" lon="-6.155045">
        <ele>245.536</ele>
        <time>2021-10-12T11:19:16Z</time>
      </trkpt>
      <trkpt lat="37.659470" lon="-6.155080">
        <ele>237.814</ele>
        <time>2021-10-12T11:19:17Z</time>
      </trkpt>
      <trkpt lat="37.659701" lon="-6.155155">
        <ele>233.354</ele>
        <time>2021-10-12T11:19:18Z</time>
      </trkpt>
      <trkpt lat="37.660136" lon="-6.155446">
        <ele>227.809</ele>
        <time>2021-10-12T11:19:20Z</time>
      </trkpt>
      <trkpt lat="37.660482" lon="-6.155894">
        <ele>225.408</ele>
        <time>2021-10-12T11:19:22Z</time>
      </trkpt>
      <trkpt lat="37.660619" lon="-6.156159">
        <ele>226.039</ele>
        <time>2021-10-12T11:19:23Z</time>
      </trkpt>
      <trkpt lat="37.660805" lon="-6.156751">
        <ele>224.627</ele>
        <time>2021-10-12T11:19:25Z</time>
      </trkpt>
      <trkpt lat="37.660857" lon="-6.157076">
        <ele>222.213</ele>
        <time>2021-10-12T11:19:26Z</time>
      </trkpt>
      <trkpt lat="37.660928" lon="-6.157706">
        <ele>213.416</ele>
        <time>2021-10-12T11:19:28Z</time>
      </trkpt>
      <trkpt lat="37.660966" lon="-6.158014">
        <ele>209.512</ele>
        <time>2021-10-12T11:19:29Z</time>
      </trkpt>
      <trkpt lat="37.661054" lon="-6.158625">
        <ele>209.531</ele>
        <time>2021-10-12T11:19:31Z</time>
      </trkpt>
      <trkpt lat="37.661102" lon="-6.158948">
        <ele>212.151</ele>
        <time>2021-10-12T11:19:32Z</time>
      </trkpt>
      <trkpt lat="37.661204" lon="-6.159584">
        <ele>211.272</ele>
        <time>2021-10-12T11:19:34Z</time>
      </trkpt>
      <trkpt lat="37.661272" lon="-6.159910">
        <ele>207.462</ele>
        <time>2021-10-12T11:19:35Z</time>
      </trkpt>
      <trkpt lat="37.661361" lon="-6.160233">
        <ele>203.283</ele>
        <time>2021-10-12T11:19:36Z</time>
      </trkpt>
      <trkpt lat="37.661477" lon="-6.160549">
        <ele>201.911</ele>
        <time>2021-10-12T11:19:37Z</time>
      </trkpt>
      <trkpt lat="37.661625" lon="-6.160859">
        <ele>204.108</ele>
        <time>2021-10-12T11:19:38Z</time>
      </trkpt>
      <trkpt lat="37.661995" lon="-6.161394">
        <ele>201.194</ele>
        <time>2021-10-12T11:19:40Z</time>
      </trkpt>
      <trkpt lat="37.662208" lon="-6.161644">
        <ele>198.552</ele>
        <time>2021-10-12T11:19:41Z</time>
      </trkpt>
      <trkpt lat="37.662431" lon="-6.161879">
        <ele>195.128</ele>
        <time>2021-10-12T11:19:42Z</time>
      </trkpt>
      <trkpt lat="37.662887" lon="-6.162350">
        <ele>187.151</ele>
        <time>2021-10-12T11:19:44Z</time>
      </trkpt>
      <trkpt lat="37.663330" lon="-6.162808">
        <ele>183.347</ele>
        <time>2021-10-12T11:19:46Z</time>
      </trkpt>
      <trkpt lat="37.663773" lon="-6.163273">
        <ele>175.516</ele>
        <time>2021-10-12T11:19:48Z</time>
      </trkpt>
      <trkpt lat="37.664218" lon="-6.163737">
        <ele>173.266</ele>
        <time>2021-10-12T11:19:50Z</time>
      </trkpt>
      <trkpt lat="37.664658" lon="-6.164186">
        <ele>177.097</ele>
        <time>2021-10-12T11:19:52Z</time>
      </trkpt>
      <trkpt lat="37.664885" lon="-6.164418">
        <ele>177.187</ele>
        <time>2021-10-12T11:19:53Z</time>
      </trkpt>
      <trkpt lat="37.665112" lon="-6.164649">
        <ele>177.142</ele>
        <time>2021-10-12T11:19:54Z</time>
      </trkpt>
      <trkpt lat="37.665343" lon="-6.164877">
        <ele>177.926</ele>
        <time>2021-10-12T11:19:55Z</time>
      </trkpt>
      <trkpt lat="37.665584" lon="-6.165110">
        <ele>172.608</ele>
        <time>2021-10-12T11:19:56Z</time>
      </trkpt>
      <trkpt lat="37.666063" lon="-6.165509">
        <ele>165.956</ele>
        <time>2021-10-12T11:19:58Z</time>
      </trkpt>
      <trkpt lat="37.666583" lon="-6.165856">
        <ele>163.314</ele>
        <time>2021-10-12T11:20:00Z</time>
      </trkpt>
      <trkpt lat="37.666861" lon="-6.165999">
        <ele>160.530</ele>
        <time>2021-10-12T11:20:01Z</time>
      </trkpt>
      <trkpt lat="37.667148" lon="-6.166118">
        <ele>157.993</ele>
        <time>2021-10-12T11:20:02Z</time>
      </trkpt>
      <trkpt lat="37.667692" lon="-6.166298">
        <ele>152.539</ele>
        <time>2021-10-12T11:20:04Z</time>
      </trkpt>
      <trkpt lat="37.667955" lon="-6.166386">
        <ele>151.198</ele>
        <time>2021-10-12T11:20:05Z</time>
      </trkpt>
      <trkpt lat="37.668443" lon="-6.166617">
        <ele>139.898</ele>
        <time>2021-10-12T11:20:07Z</time>
      </trkpt>
      <trkpt lat="37.668676" lon="-6.166785">
        <ele>137.229</ele>
        <time>2021-10-12T11:20:08Z</time>
      </trkpt>
      <trkpt lat="37.669092" lon="-6.167199">
        <ele>136.839</ele>
        <time>2021-10-12T11:20:10Z</time>
      </trkpt>
      <trkpt lat="37.669461" lon="-6.167715">
        <ele>131.801</ele>
        <time>2021-10-12T11:20:12Z</time>
      </trkpt>
      <trkpt lat="37.669748" lon="-6.168297">
        <ele>127.521</ele>
        <time>2021-10-12T11:20:14Z</time>
      </trkpt>
      <trkpt lat="37.669900" lon="-6.168879">
        <ele>124.908</ele>
        <time>2021-10-12T11:20:16Z</time>
      </trkpt>
      <trkpt lat="37.669951" lon="-6.169170">
        <ele>126.531</ele>
        <time>2021-10-12T11:20:17Z</time>
      </trkpt>
      <trkpt lat="37.669985" lon="-6.169450">
        <ele>127.959</ele>
        <time>2021-10-12T11:20:18Z</time>
      </trkpt>
      <trkpt lat="37.670004" lon="-6.169985">
        <ele>130.935</ele>
        <time>2021-10-12T11:20:20Z</time>
      </trkpt>
      <trkpt lat="37.669986" lon="-6.170466">
        <ele>132.998</ele>
        <time>2021-10-12T11:20:22Z</time>
      </trkpt>
      <trkpt lat="37.670009" lon="-6.170724">
        <ele>133.164</ele>
        <time>2021-10-12T11:20:23Z</time>
      </trkpt>
      <trkpt lat="37.670071" lon="-6.170985">
        <ele>132.353</ele>
        <time>2021-10-12T11:20:24Z</time>
      </trkpt>
      <trkpt lat="37.670458" lon="-6.172136">
        <ele>128.843</ele>
        <time>2021-10-12T11:20:28Z</time>
      </trkpt>
      <trkpt lat="37.670696" lon="-6.172833">
        <ele>123.174</ele>
        <time>2021-10-12T11:20:30Z</time>
      </trkpt>
      <trkpt lat="37.670939" lon="-6.173501">
        <ele>117.724</ele>
        <time>2021-10-12T11:20:32Z</time>
      </trkpt>
      <trkpt lat="37.671079" lon="-6.174104">
        <ele>120.504</ele>
        <time>2021-10-12T11:20:34Z</time>
      </trkpt>
      <trkpt lat="37.671095" lon="-6.174756">
        <ele>121.614</ele>
        <time>2021-10-12T11:20:36Z</time>
      </trkpt>
      <trkpt lat="37.671087" lon="-6.175387">
        <ele>119.708</ele>
        <time>2021-10-12T11:20:38Z</time>
      </trkpt>
      <trkpt lat="37.671030" lon="-6.175915">
        <ele>126.510</ele>
        <time>2021-10-12T11:20:40Z</time>
      </trkpt>
      <trkpt lat="37.670860" lon="-6.176388">
        <ele>127.268</ele>
        <time>2021-10-12T11:20:42Z</time>
      </trkpt>
      <trkpt lat="37.670653" lon="-6.176820">
        <ele>126.854</ele>
        <time>2021-10-12T11:20:44Z</time>
      </trkpt>
      <trkpt lat="37.670564" lon="-6.177246">
        <ele>124.677</ele>
        <time>2021-10-12T11:20:46Z</time>
      </trkpt>
      <trkpt lat="37.670572" lon="-6.177451">
        <ele>122.383</ele>
        <time>2021-10-12T11:20:47Z</time>
      </trkpt>
      <trkpt lat="37.670606" lon="-6.177647">
        <ele>120.212</ele>
        <time>2021-10-12T11:20:48Z</time>
      </trkpt>
      <trkpt lat="37.670772" lon="-6.177999">
        <ele>117.422</ele>
        <time>2021-10-12T11:20:50Z</time>
      </trkpt>
      <trkpt lat="37.671071" lon="-6.178325">
        <ele>110.513</ele>
        <time>2021-10-12T11:20:52Z</time>
      </trkpt>
      <trkpt lat="37.671456" lon="-6.178689">
        <ele>111.779</ele>
        <time>2021-10-12T11:20:54Z</time>
      </trkpt>
      <trkpt lat="37.671854" lon="-6.179080">
        <ele>114.905</ele>
        <time>2021-10-12T11:20:56Z</time>
      </trkpt>
      <trkpt lat="37.672213" lon="-6.179533">
        <ele>122.325</ele>
        <time>2021-10-12T11:20:58Z</time>
      </trkpt>
      <trkpt lat="37.672387" lon="-6.179796">
        <ele>125.608</ele>
        <time>2021-10-12T11:20:59Z</time>
      </trkpt>
      <trkpt lat="37.672561" lon="-6.180075">
        <ele>128.755</ele>
        <time>2021-10-12T11:21:00Z</time>
      </trkpt>
      <trkpt lat="37.672743" lon="-6.180360">
        <ele>132.243</ele>
        <time>2021-10-12T11:21:01Z</time>
      </trkpt>
      <trkpt lat="37.672937" lon="-6.180641">
        <ele>133.189</ele>
        <time>2021-10-12T11:21:02Z</time>
      </trkpt>
      <trkpt lat="37.673320" lon="-6.181158">
        <ele>132.812</ele>
        <time>2021-10-12T11:21:04Z</time>
      </trkpt>
      <trkpt lat="37.673673" lon="-6.181619">
        <ele>136.588</ele>
        <time>2021-10-12T11:21:06Z</time>
      </trkpt>
      <trkpt lat="37.674064" lon="-6.182010">
        <ele>147.087</ele>
        <time>2021-10-12T11:21:08Z</time>
      </trkpt>
      <trkpt lat="37.674466" lon="-6.182331">
        <ele>155.297</ele>
        <time>2021-10-12T11:21:10Z</time>
      </trkpt>
      <trkpt lat="37.674655" lon="-6.182511">
        <ele>158.798</ele>
        <time>2021-10-12T11:21:11Z</time>
      </trkpt>
      <trkpt lat="37.674829" lon="-6.182705">
        <ele>161.641</ele>
        <time>2021-10-12T11:21:12Z</time>
      </trkpt>
      <trkpt lat="37.674992" lon="-6.182900">
        <ele>162.081</ele>
        <time>2021-10-12T11:21:13Z</time>
      </trkpt>
      <trkpt lat="37.675157" lon="-6.183093">
        <ele>160.709</ele>
        <time>2021-10-12T11:21:14Z</time>
      </trkpt>
      <trkpt lat="37.675517" lon="-6.183386">
        <ele>164.308</ele>
        <time>2021-10-12T11:21:16Z</time>
      </trkpt>
      <trkpt lat="37.675897" lon="-6.183646">
        <ele>171.012</ele>
        <time>2021-10-12T11:21:18Z</time>
      </trkpt>
      <trkpt lat="37.676206" lon="-6.183987">
        <ele>170.360</ele>
        <time>2021-10-12T11:21:20Z</time>
      </trkpt>
      <trkpt lat="37.676487" lon="-6.184252">
        <ele>169.126</ele>
        <time>2021-10-12T11:21:22Z</time>
      </trkpt>
      <trkpt lat="37.676645" lon="-6.184321">
        <ele>168.849</ele>
        <time>2021-10-12T11:21:23Z</time>
      </trkpt>
      <trkpt lat="37.676960" lon="-6.184457">
        <ele>171.265</ele>
        <time>2021-10-12T11:21:25Z</time>
      </trkpt>
      <trkpt lat="37.677100" lon="-6.184556">
        <ele>172.344</ele>
        <time>2021-10-12T11:21:26Z</time>
      </trkpt>
      <trkpt lat="37.677361" lon="-6.184675">
        <ele>173.374</ele>
        <time>2021-10-12T11:21:28Z</time>
      </trkpt>
      <trkpt lat="37.677503" lon="-6.184653">
        <ele>175.355</ele>
        <time>2021-10-12T11:21:29Z</time>
      </trkpt>
      <trkpt lat="37.677647" lon="-6.184582">
        <ele>176.563</ele>
        <time>2021-10-12T11:21:30Z</time>
      </trkpt>
      <trkpt lat="37.677926" lon="-6.184285">
        <ele>181.744</ele>
        <time>2021-10-12T11:21:32Z</time>
      </trkpt>
      <trkpt lat="37.678222" lon="-6.183960">
        <ele>188.018</ele>
        <time>2021-10-12T11:21:34Z</time>
      </trkpt>
      <trkpt lat="37.678595" lon="-6.183696">
        <ele>191.708</ele>
        <time>2021-10-12T11:21:36Z</time>
      </trkpt>
      <trkpt lat="37.678800" lon="-6.183579">
        <ele>192.874</ele>
        <time>2021-10-12T11:21:37Z</time>
      </trkpt>
      <trkpt lat="37.679012" lon="-6.183455">
        <ele>196.052</ele>
        <time>2021-10-12T11:21:38Z</time>
      </trkpt>
      <trkpt lat="37.679414" lon="-6.183182">
        <ele>201.638</ele>
        <time>2021-10-12T11:21:40Z</time>
      </trkpt>
      <trkpt lat="37.679607" lon="-6.183023">
        <ele>202.721</ele>
        <time>2021-10-12T11:21:41Z</time>
      </trkpt>
      <trkpt lat="37.679941" lon="-6.182730">
        <ele>203.687</ele>
        <time>2021-10-12T11:21:43Z</time>
      </trkpt>
      <trkpt lat="37.680077" lon="-6.182603">
        <ele>203.396</ele>
        <time>2021-10-12T11:21:44Z</time>
      </trkpt>
      <trkpt lat="37.680237" lon="-6.182326">
        <ele>204.286</ele>
        <time>2021-10-12T11:21:46Z</time>
      </trkpt>
      <trkpt lat="37.680265" lon="-6.182162">
        <ele>205.547</ele>
        <time>2021-10-12T11:21:47Z</time>
      </trkpt>
      <trkpt lat="37.680273" lon="-6.181975">
        <ele>206.876</ele>
        <time>2021-10-12T11:21:48Z</time>
      </trkpt>
      <trkpt lat="37.680298" lon="-6.181776">
        <ele>208.490</ele>
        <time>2021-10-12T11:21:49Z</time>
      </trkpt>
      <trkpt lat="37.680358" lon="-6.181578">
        <ele>209.019</ele>
        <time>2021-10-12T11:21:50Z</time>
      </trkpt>
      <trkpt lat="37.680555" lon="-6.181255">
        <ele>207.508</ele>
        <time>2021-10-12T11:21:52Z</time>
      </trkpt>
      <trkpt lat="37.680673" lon="-6.181113">
        <ele>207.145</ele>
        <time>2021-10-12T11:21:53Z</time>
      </trkpt>
      <trkpt lat="37.680869" lon="-6.180775">
        <ele>208.453</ele>
        <time>2021-10-12T11:21:55Z</time>
      </trkpt>
      <trkpt lat="37.680957" lon="-6.180579">
        <ele>209.849</ele>
        <time>2021-10-12T11:21:56Z</time>
      </trkpt>
      <trkpt lat="37.681115" lon="-6.180237">
        <ele>209.932</ele>
        <time>2021-10-12T11:21:58Z</time>
      </trkpt>
      <trkpt lat="37.681182" lon="-6.180089">
        <ele>209.948</ele>
        <time>2021-10-12T11:21:59Z</time>
      </trkpt>
      <trkpt lat="37.681255" lon="-6.179844">
        <ele>210.877</ele>
        <time>2021-10-12T11:22:01Z</time>
      </trkpt>
      <trkpt lat="37.681268" lon="-6.179731">
        <ele>211.177</ele>
        <time>2021-10-12T11:22:02Z</time>
      </trkpt>
      <trkpt lat="37.681245" lon="-6.179500">
        <ele>211.088</ele>
        <time>2021-10-12T11:22:04Z</time>
      </trkpt>
      <trkpt lat="37.681230" lon="-6.179377">
        <ele>210.939</ele>
        <time>2021-10-12T11:22:05Z</time>
      </trkpt>
      <trkpt lat="37.681270" lon="-6.179150">
        <ele>211.001</ele>
        <time>2021-10-12T11:22:07Z</time>
      </trkpt>
      <trkpt lat="37.681333" lon="-6.179056">
        <ele>211.021</ele>
        <time>2021-10-12T11:22:08Z</time>
      </trkpt>
      <trkpt lat="37.681521" lon="-6.178964">
        <ele>212.008</ele>
        <time>2021-10-12T11:22:10Z</time>
      </trkpt>
      <trkpt lat="37.681722" lon="-6.179033">
        <ele>213.691</ele>
        <time>2021-10-12T11:22:12Z</time>
      </trkpt>
      <trkpt lat="37.681806" lon="-6.179132">
        <ele>214.569</ele>
        <time>2021-10-12T11:22:13Z</time>
      </trkpt>
      <trkpt lat="37.681872" lon="-6.179260">
        <ele>215.665</ele>
        <time>2021-10-12T11:22:14Z</time>
      </trkpt>
      <trkpt lat="37.681962" lon="-6.179583">
        <ele>217.988</ele>
        <time>2021-10-12T11:22:16Z</time>
      </trkpt>
      <trkpt lat="37.682117" lon="-6.179918">
        <ele>220.294</ele>
        <time>2021-10-12T11:22:18Z</time>
      </trkpt>
      <trkpt lat="37.682239" lon="-6.180073">
        <ele>221.753</ele>
        <time>2021-10-12T11:22:19Z</time>
      </trkpt>
      <trkpt lat="37.682386" lon="-6.180227">
        <ele>222.333</ele>
        <time>2021-10-12T11:22:20Z</time>
      </trkpt>
      <trkpt lat="37.682684" lon="-6.180520">
        <ele>223.344</ele>
        <time>2021-10-12T11:22:22Z</time>
      </trkpt>
      <trkpt lat="37.682972" lon="-6.180786">
        <ele>224.421</ele>
        <time>2021-10-12T11:22:24Z</time>
      </trkpt>
      <trkpt lat="37.683292" lon="-6.181018">
        <ele>226.641</ele>
        <time>2021-10-12T11:22:26Z</time>
      </trkpt>
      <trkpt lat="37.683638" lon="-6.181158">
        <ele>226.605</ele>
        <time>2021-10-12T11:22:28Z</time>
      </trkpt>
      <trkpt lat="37.683824" lon="-6.181207">
        <ele>226.308</ele>
        <time>2021-10-12T11:22:29Z</time>
      </trkpt>
      <trkpt lat="37.684021" lon="-6.181252">
        <ele>226.890</ele>
        <time>2021-10-12T11:22:30Z</time>
      </trkpt>
      <trkpt lat="37.684232" lon="-6.181293">
        <ele>227.698</ele>
        <time>2021-10-12T11:22:31Z</time>
      </trkpt>
      <trkpt lat="37.684461" lon="-6.181339">
        <ele>228.894</ele>
        <time>2021-10-12T11:22:32Z</time>
      </trkpt>
      <trkpt lat="37.684933" lon="-6.181435">
        <ele>225.647</ele>
        <time>2021-10-12T11:22:34Z</time>
      </trkpt>
      <trkpt lat="37.685425" lon="-6.181542">
        <ele>227.553</ele>
        <time>2021-10-12T11:22:36Z</time>
      </trkpt>
      <trkpt lat="37.685668" lon="-6.181606">
        <ele>230.972</ele>
        <time>2021-10-12T11:22:37Z</time>
      </trkpt>
      <trkpt lat="37.685913" lon="-6.181678">
        <ele>234.172</ele>
        <time>2021-10-12T11:22:38Z</time>
      </trkpt>
      <trkpt lat="37.686375" lon="-6.181847">
        <ele>233.793</ele>
        <time>2021-10-12T11:22:40Z</time>
      </trkpt>
      <trkpt lat="37.686597" lon="-6.181942">
        <ele>236.291</ele>
        <time>2021-10-12T11:22:41Z</time>
      </trkpt>
      <trkpt lat="37.687019" lon="-6.182093">
        <ele>240.981</ele>
        <time>2021-10-12T11:22:43Z</time>
      </trkpt>
      <trkpt lat="37.687240" lon="-6.182126">
        <ele>241.719</ele>
        <time>2021-10-12T11:22:44Z</time>
      </trkpt>
      <trkpt lat="37.687706" lon="-6.182083">
        <ele>241.208</ele>
        <time>2021-10-12T11:22:46Z</time>
      </trkpt>
      <trkpt lat="37.687965" lon="-6.182023">
        <ele>241.167</ele>
        <time>2021-10-12T11:22:47Z</time>
      </trkpt>
      <trkpt lat="37.688516" lon="-6.181904">
        <ele>243.685</ele>
        <time>2021-10-12T11:22:49Z</time>
      </trkpt>
      <trkpt lat="37.688807" lon="-6.181846">
        <ele>247.261</ele>
        <time>2021-10-12T11:22:50Z</time>
      </trkpt>
      <trkpt lat="37.689388" lon="-6.181733">
        <ele>251.884</ele>
        <time>2021-10-12T11:22:52Z</time>
      </trkpt>
      <trkpt lat="37.689972" lon="-6.181612">
        <ele>257.240</ele>
        <time>2021-10-12T11:22:54Z</time>
      </trkpt>
      <trkpt lat="37.690514" lon="-6.181462">
        <ele>261.439</ele>
        <time>2021-10-12T11:22:56Z</time>
      </trkpt>
      <trkpt lat="37.690955" lon="-6.181302">
        <ele>264.689</ele>
        <time>2021-10-12T11:22:58Z</time>
      </trkpt>
      <trkpt lat="37.691151" lon="-6.181227">
        <ele>264.890</ele>
        <time>2021-10-12T11:22:59Z</time>
      </trkpt>
      <trkpt lat="37.691533" lon="-6.181115">
        <ele>263.029</ele>
        <time>2021-10-12T11:23:01Z</time>
      </trkpt>
      <trkpt lat="37.691737" lon="-6.181104">
        <ele>261.200</ele>
        <time>2021-10-12T11:23:02Z</time>
      </trkpt>
      <trkpt lat="37.692144" lon="-6.181198">
        <ele>259.520</ele>
        <time>2021-10-12T11:23:04Z</time>
      </trkpt>
      <trkpt lat="37.692363" lon="-6.181292">
        <ele>262.208</ele>
        <time>2021-10-12T11:23:05Z</time>
      </trkpt>
      <trkpt lat="37.692589" lon="-6.181391">
        <ele>264.690</ele>
        <time>2021-10-12T11:23:06Z</time>
      </trkpt>
      <trkpt lat="37.693061" lon="-6.181558">
        <ele>263.818</ele>
        <time>2021-10-12T11:23:08Z</time>
      </trkpt>
      <trkpt lat="37.693533" lon="-6.181693">
        <ele>264.054</ele>
        <time>2021-10-12T11:23:10Z</time>
      </trkpt>
      <trkpt lat="37.693778" lon="-6.181730">
        <ele>264.837</ele>
        <time>2021-10-12T11:23:11Z</time>
      </trkpt>
      <trkpt lat="37.694030" lon="-6.181736">
        <ele>264.953</ele>
        <time>2021-10-12T11:23:12Z</time>
      </trkpt>
      <trkpt lat="37.694546" lon="-6.181677">
        <ele>263.172</ele>
        <time>2021-10-12T11:23:14Z</time>
      </trkpt>
      <trkpt lat="37.695027" lon="-6.181580">
        <ele>264.312</ele>
        <time>2021-10-12T11:23:16Z</time>
      </trkpt>
      <trkpt lat="37.695450" lon="-6.181476">
        <ele>267.693</ele>
        <time>2021-10-12T11:23:18Z</time>
      </trkpt>
      <trkpt lat="37.695833" lon="-6.181380">
        <ele>265.917</ele>
        <time>2021-10-12T11:23:20Z</time>
      </trkpt>
      <trkpt lat="37.696183" lon="-6.181273">
        <ele>263.687</ele>
        <time>2021-10-12T11:23:22Z</time>
      </trkpt>
      <trkpt lat="37.696355" lon="-6.181190">
        <ele>261.215</ele>
        <time>2021-10-12T11:23:23Z</time>
      </trkpt>
      <trkpt lat="37.696682" lon="-6.180917">
        <ele>259.708</ele>
        <time>2021-10-12T11:23:25Z</time>
      </trkpt>
      <trkpt lat="37.696833" lon="-6.180711">
        <ele>263.199</ele>
        <time>2021-10-12T11:23:26Z</time>
      </trkpt>
      <trkpt lat="37.697097" lon="-6.180164">
        <ele>271.067</ele>
        <time>2021-10-12T11:23:28Z</time>
      </trkpt>
      <trkpt lat="37.697363" lon="-6.179578">
        <ele>274.073</ele>
        <time>2021-10-12T11:23:30Z</time>
      </trkpt>
      <trkpt lat="37.697498" lon="-6.179291">
        <ele>276.076</ele>
        <time>2021-10-12T11:23:31Z</time>
      </trkpt>
      <trkpt lat="37.697622" lon="-6.179015">
        <ele>279.732</ele>
        <time>2021-10-12T11:23:32Z</time>
      </trkpt>
      <trkpt lat="37.697785" lon="-6.178496">
        <ele>279.581</ele>
        <time>2021-10-12T11:23:34Z</time>
      </trkpt>
      <trkpt lat="37.697889" lon="-6.177918">
        <ele>273.381</ele>
        <time>2021-10-12T11:23:36Z</time>
      </trkpt>
      <trkpt lat="37.698025" lon="-6.177317">
        <ele>269.942</ele>
        <time>2021-10-12T11:23:38Z</time>
      </trkpt>
      <trkpt lat="37.698256" lon="-6.176836">
        <ele>272.435</ele>
        <time>2021-10-12T11:23:40Z</time>
      </trkpt>
      <trkpt lat="37.698622" lon="-6.176667">
        <ele>275.186</ele>
        <time>2021-10-12T11:23:42Z</time>
      </trkpt>
      <trkpt lat="37.698833" lon="-6.176632">
        <ele>276.514</ele>
        <time>2021-10-12T11:23:43Z</time>
      </trkpt>
      <trkpt lat="37.699062" lon="-6.176609">
        <ele>277.308</ele>
        <time>2021-10-12T11:23:44Z</time>
      </trkpt>
      <trkpt lat="37.699513" lon="-6.176528">
        <ele>281.481</ele>
        <time>2021-10-12T11:23:46Z</time>
      </trkpt>
      <trkpt lat="37.699924" lon="-6.176304">
        <ele>287.239</ele>
        <time>2021-10-12T11:23:48Z</time>
      </trkpt>
      <trkpt lat="37.700270" lon="-6.175994">
        <ele>292.415</ele>
        <time>2021-10-12T11:23:50Z</time>
      </trkpt>
      <trkpt lat="37.700577" lon="-6.175765">
        <ele>291.088</ele>
        <time>2021-10-12T11:23:52Z</time>
      </trkpt>
      <trkpt lat="37.700747" lon="-6.175687">
        <ele>288.444</ele>
        <time>2021-10-12T11:23:53Z</time>
      </trkpt>
      <trkpt lat="37.700920" lon="-6.175640">
        <ele>285.513</ele>
        <time>2021-10-12T11:23:54Z</time>
      </trkpt>
      <trkpt lat="37.701256" lon="-6.175670">
        <ele>280.923</ele>
        <time>2021-10-12T11:23:56Z</time>
      </trkpt>
      <trkpt lat="37.701569" lon="-6.175851">
        <ele>280.374</ele>
        <time>2021-10-12T11:23:58Z</time>
      </trkpt>
      <trkpt lat="37.701729" lon="-6.176043">
        <ele>283.945</ele>
        <time>2021-10-12T11:23:59Z</time>
      </trkpt>
      <trkpt lat="37.702045" lon="-6.176568">
        <ele>286.647</ele>
        <time>2021-10-12T11:24:01Z</time>
      </trkpt>
      <trkpt lat="37.702211" lon="-6.176837">
        <ele>284.811</ele>
        <time>2021-10-12T11:24:02Z</time>
      </trkpt>
      <trkpt lat="37.702581" lon="-6.177269">
        <ele>286.808</ele>
        <time>2021-10-12T11:24:04Z</time>
      </trkpt>
      <trkpt lat="37.703022" lon="-6.177426">
        <ele>283.522</ele>
        <time>2021-10-12T11:24:06Z</time>
      </trkpt>
      <trkpt lat="37.703249" lon="-6.177428">
        <ele>282.550</ele>
        <time>2021-10-12T11:24:07Z</time>
      </trkpt>
      <trkpt lat="37.703476" lon="-6.177429">
        <ele>283.736</ele>
        <time>2021-10-12T11:24:08Z</time>
      </trkpt>
      <trkpt lat="37.703885" lon="-6.177519">
        <ele>287.739</ele>
        <time>2021-10-12T11:24:10Z</time>
      </trkpt>
      <trkpt lat="37.704066" lon="-6.177621">
        <ele>288.615</ele>
        <time>2021-10-12T11:24:11Z</time>
      </trkpt>
      <trkpt lat="37.704384" lon="-6.177926">
        <ele>290.264</ele>
        <time>2021-10-12T11:24:13Z</time>
      </trkpt>
      <trkpt lat="37.704536" lon="-6.178109">
        <ele>291.384</ele>
        <time>2021-10-12T11:24:14Z</time>
      </trkpt>
      <trkpt lat="37.704833" lon="-6.178460">
        <ele>293.075</ele>
        <time>2021-10-12T11:24:16Z</time>
      </trkpt>
      <trkpt lat="37.705083" lon="-6.178878">
        <ele>294.276</ele>
        <time>2021-10-12T11:24:18Z</time>
      </trkpt>
      <trkpt lat="37.705184" lon="-6.179121">
        <ele>295.990</ele>
        <time>2021-10-12T11:24:19Z</time>
      </trkpt>
      <trkpt lat="37.705281" lon="-6.179386">
        <ele>297.119</ele>
        <time>2021-10-12T11:24:20Z</time>
      </trkpt>
      <trkpt lat="37.705493" lon="-6.179903">
        <ele>299.608</ele>
        <time>2021-10-12T11:24:22Z</time>
      </trkpt>
      <trkpt lat="37.705644" lon="-6.180138">
        <ele>300.585</ele>
        <time>2021-10-12T11:24:23Z</time>
      </trkpt>
      <trkpt lat="37.706054" lon="-6.180506">
        <ele>303.383</ele>
        <time>2021-10-12T11:24:25Z</time>
      </trkpt>
      <trkpt lat="37.706303" lon="-6.180664">
        <ele>305.129</ele>
        <time>2021-10-12T11:24:26Z</time>
      </trkpt>
      <trkpt lat="37.706801" lon="-6.180994">
        <ele>304.452</ele>
        <time>2021-10-12T11:24:28Z</time>
      </trkpt>
      <trkpt lat="37.707280" lon="-6.181352">
        <ele>309.358</ele>
        <time>2021-10-12T11:24:30Z</time>
      </trkpt>
      <trkpt lat="37.707482" lon="-6.181547">
        <ele>311.537</ele>
        <time>2021-10-12T11:24:31Z</time>
      </trkpt>
      <trkpt lat="37.707666" lon="-6.181787">
        <ele>314.917</ele>
        <time>2021-10-12T11:24:32Z</time>
      </trkpt>
      <trkpt lat="37.707939" lon="-6.182329">
        <ele>317.718</ele>
        <time>2021-10-12T11:24:34Z</time>
      </trkpt>
      <trkpt lat="37.708233" lon="-6.182872">
        <ele>323.597</ele>
        <time>2021-10-12T11:24:36Z</time>
      </trkpt>
      <trkpt lat="37.708569" lon="-6.183292">
        <ele>327.323</ele>
        <time>2021-10-12T11:24:38Z</time>
      </trkpt>
      <trkpt lat="37.708969" lon="-6.183530">
        <ele>331.725</ele>
        <time>2021-10-12T11:24:40Z</time>
      </trkpt>
      <trkpt lat="37.709436" lon="-6.183649">
        <ele>332.608</ele>
        <time>2021-10-12T11:24:42Z</time>
      </trkpt>
      <trkpt lat="37.709879" lon="-6.183759">
        <ele>335.877</ele>
        <time>2021-10-12T11:24:44Z</time>
      </trkpt>
      <trkpt lat="37.710264" lon="-6.183816">
        <ele>337.095</ele>
        <time>2021-10-12T11:24:46Z</time>
      </trkpt>
      <trkpt lat="37.710466" lon="-6.183782">
        <ele>337.821</ele>
        <time>2021-10-12T11:24:47Z</time>
      </trkpt>
      <trkpt lat="37.710674" lon="-6.183706">
        <ele>338.974</ele>
        <time>2021-10-12T11:24:48Z</time>
      </trkpt>
      <trkpt lat="37.710888" lon="-6.183600">
        <ele>339.850</ele>
        <time>2021-10-12T11:24:49Z</time>
      </trkpt>
      <trkpt lat="37.711114" lon="-6.183473">
        <ele>340.569</ele>
        <time>2021-10-12T11:24:50Z</time>
      </trkpt>
      <trkpt lat="37.711541" lon="-6.183167">
        <ele>341.899</ele>
        <time>2021-10-12T11:24:52Z</time>
      </trkpt>
      <trkpt lat="37.711735" lon="-6.182971">
        <ele>342.670</ele>
        <time>2021-10-12T11:24:53Z</time>
      </trkpt>
      <trkpt lat="37.712105" lon="-6.182566">
        <ele>344.466</ele>
        <time>2021-10-12T11:24:55Z</time>
      </trkpt>
      <trkpt lat="37.712312" lon="-6.182377">
        <ele>345.029</ele>
        <time>2021-10-12T11:24:56Z</time>
      </trkpt>
      <trkpt lat="37.712766" lon="-6.182099">
        <ele>343.021</ele>
        <time>2021-10-12T11:24:58Z</time>
      </trkpt>
      <trkpt lat="37.713025" lon="-6.181970">
        <ele>342.108</ele>
        <time>2021-10-12T11:24:59Z</time>
      </trkpt>
      <trkpt lat="37.713549" lon="-6.181690">
        <ele>341.214</ele>
        <time>2021-10-12T11:25:01Z</time>
      </trkpt>
      <trkpt lat="37.713825" lon="-6.181529">
        <ele>341.412</ele>
        <time>2021-10-12T11:25:02Z</time>
      </trkpt>
      <trkpt lat="37.714333" lon="-6.181198">
        <ele>342.718</ele>
        <time>2021-10-12T11:25:04Z</time>
      </trkpt>
      <trkpt lat="37.714834" lon="-6.180836">
        <ele>346.611</ele>
        <time>2021-10-12T11:25:06Z</time>
      </trkpt>
      <trkpt lat="37.715079" lon="-6.180647">
        <ele>347.127</ele>
        <time>2021-10-12T11:25:07Z</time>
      </trkpt>
      <trkpt lat="37.715327" lon="-6.180451">
        <ele>347.996</ele>
        <time>2021-10-12T11:25:08Z</time>
      </trkpt>
      <trkpt lat="37.715785" lon="-6.180065">
        <ele>350.226</ele>
        <time>2021-10-12T11:25:10Z</time>
      </trkpt>
      <trkpt lat="37.716227" lon="-6.179703">
        <ele>353.697</ele>
        <time>2021-10-12T11:25:12Z</time>
      </trkpt>
      <trkpt lat="37.716697" lon="-6.179412">
        <ele>358.616</ele>
        <time>2021-10-12T11:25:14Z</time>
      </trkpt>
      <trkpt lat="37.717178" lon="-6.179244">
        <ele>361.476</ele>
        <time>2021-10-12T11:25:16Z</time>
      </trkpt>
      <trkpt lat="37.717403" lon="-6.179182">
        <ele>361.913</ele>
        <time>2021-10-12T11:25:17Z</time>
      </trkpt>
      <trkpt lat="37.717613" lon="-6.179123">
        <ele>362.108</ele>
        <time>2021-10-12T11:25:18Z</time>
      </trkpt>
      <trkpt lat="37.718023" lon="-6.179008">
        <ele>360.739</ele>
        <time>2021-10-12T11:25:20Z</time>
      </trkpt>
      <trkpt lat="37.718439" lon="-6.178902">
        <ele>359.687</ele>
        <time>2021-10-12T11:25:22Z</time>
      </trkpt>
      <trkpt lat="37.718658" lon="-6.178847">
        <ele>359.743</ele>
        <time>2021-10-12T11:25:23Z</time>
      </trkpt>
      <trkpt lat="37.719105" lon="-6.178738">
        <ele>357.616</ele>
        <time>2021-10-12T11:25:25Z</time>
      </trkpt>
      <trkpt lat="37.719349" lon="-6.178676">
        <ele>356.742</ele>
        <time>2021-10-12T11:25:26Z</time>
      </trkpt>
      <trkpt lat="37.719829" lon="-6.178526">
        <ele>355.491</ele>
        <time>2021-10-12T11:25:28Z</time>
      </trkpt>
      <trkpt lat="37.720313" lon="-6.178309">
        <ele>351.451</ele>
        <time>2021-10-12T11:25:30Z</time>
      </trkpt>
      <trkpt lat="37.720530" lon="-6.178175">
        <ele>348.132</ele>
        <time>2021-10-12T11:25:31Z</time>
      </trkpt>
      <trkpt lat="37.720727" lon="-6.178038">
        <ele>346.345</ele>
        <time>2021-10-12T11:25:32Z</time>
      </trkpt>
      <trkpt lat="37.721042" lon="-6.177813">
        <ele>345.847</ele>
        <time>2021-10-12T11:25:34Z</time>
      </trkpt>
      <trkpt lat="37.721165" lon="-6.177726">
        <ele>346.611</ele>
        <time>2021-10-12T11:25:35Z</time>
      </trkpt>
      <trkpt lat="37.721264" lon="-6.177658">
        <ele>347.708</ele>
        <time>2021-10-12T11:25:36Z</time>
      </trkpt>
      <trkpt lat="37.721418" lon="-6.177561">
        <ele>349.032</ele>
        <time>2021-10-12T11:25:38Z</time>
      </trkpt>
      <trkpt lat="37.721543" lon="-6.177486">
        <ele>349.060</ele>
        <time>2021-10-12T11:25:40Z</time>
      </trkpt>
      <trkpt lat="37.721603" lon="-6.177451">
        <ele>349.056</ele>
        <time>2021-10-12T11:25:41Z</time>
      </trkpt>
      <trkpt lat="37.721702" lon="-6.177401">
        <ele>348.879</ele>
        <time>2021-10-12T11:25:43Z</time>
      </trkpt>
      <trkpt lat="37.721755" lon="-6.177380">
        <ele>348.635</ele>
        <time>2021-10-12T11:25:45Z</time>
      </trkpt>
      <trkpt lat="37.721823" lon="-6.177352">
        <ele>348.534</ele>
        <time>2021-10-12T11:25:47Z</time>
      </trkpt>
      <trkpt lat="37.721916" lon="-6.177328">
        <ele>348.394</ele>
        <time>2021-10-12T11:25:49Z</time>
      </trkpt>
      <trkpt lat="37.721970" lon="-6.177321">
        <ele>348.285</ele>
        <time>2021-10-12T11:25:50Z</time>
      </trkpt>
      <trkpt lat="37.722105" lon="-6.177317">
        <ele>347.574</ele>
        <time>2021-10-12T11:25:52Z</time>
      </trkpt>
      <trkpt lat="37.722195" lon="-6.177326">
        <ele>347.056</ele>
        <time>2021-10-12T11:25:53Z</time>
      </trkpt>
      <trkpt lat="37.722404" lon="-6.177370">
        <ele>346.121</ele>
        <time>2021-10-12T11:25:55Z</time>
      </trkpt>
      <trkpt lat="37.722520" lon="-6.177396">
        <ele>345.808</ele>
        <time>2021-10-12T11:25:56Z</time>
      </trkpt>
      <trkpt lat="37.722732" lon="-6.177429">
        <ele>346.165</ele>
        <time>2021-10-12T11:25:58Z</time>
      </trkpt>
      <trkpt lat="37.722828" lon="-6.177444">
        <ele>346.543</ele>
        <time>2021-10-12T11:25:59Z</time>
      </trkpt>
      <trkpt lat="37.723025" lon="-6.177462">
        <ele>347.829</ele>
        <time>2021-10-12T11:26:01Z</time>
      </trkpt>
      <trkpt lat="37.723133" lon="-6.177462">
        <ele>348.662</ele>
        <time>2021-10-12T11:26:02Z</time>
      </trkpt>
      <trkpt lat="37.723361" lon="-6.177405">
        <ele>350.128</ele>
        <time>2021-10-12T11:26:04Z</time>
      </trkpt>
      <trkpt lat="37.723587" lon="-6.177257">
        <ele>350.947</ele>
        <time>2021-10-12T11:26:06Z</time>
      </trkpt>
      <trkpt lat="37.723780" lon="-6.177096">
        <ele>349.527</ele>
        <time>2021-10-12T11:26:08Z</time>
      </trkpt>
      <trkpt lat="37.723977" lon="-6.176974">
        <ele>347.638</ele>
        <time>2021-10-12T11:26:10Z</time>
      </trkpt>
      <trkpt lat="37.724197" lon="-6.176925">
        <ele>345.573</ele>
        <time>2021-10-12T11:26:12Z</time>
      </trkpt>
      <trkpt lat="37.724309" lon="-6.176924">
        <ele>344.285</ele>
        <time>2021-10-12T11:26:13Z</time>
      </trkpt>
      <trkpt lat="37.724423" lon="-6.176923">
        <ele>343.013</ele>
        <time>2021-10-12T11:26:14Z</time>
      </trkpt>
      <trkpt lat="37.724623" lon="-6.176913">
        <ele>340.808</ele>
        <time>2021-10-12T11:26:16Z</time>
      </trkpt>
      <trkpt lat="37.724796" lon="-6.176900">
        <ele>339.565</ele>
        <time>2021-10-12T11:26:18Z</time>
      </trkpt>
      <trkpt lat="37.724969" lon="-6.176888">
        <ele>338.923</ele>
        <time>2021-10-12T11:26:20Z</time>
      </trkpt>
      <trkpt lat="37.725135" lon="-6.176869">
        <ele>338.269</ele>
        <time>2021-10-12T11:26:22Z</time>
      </trkpt>
      <trkpt lat="37.725295" lon="-6.176859">
        <ele>337.652</ele>
        <time>2021-10-12T11:26:24Z</time>
      </trkpt>
      <trkpt lat="37.725416" lon="-6.176853">
        <ele>336.818</ele>
        <time>2021-10-12T11:26:26Z</time>
      </trkpt>
      <trkpt lat="37.725509" lon="-6.176846">
        <ele>336.357</ele>
        <time>2021-10-12T11:26:28Z</time>
      </trkpt>
      <trkpt lat="37.725555" lon="-6.176843">
        <ele>336.017</ele>
        <time>2021-10-12T11:26:29Z</time>
      </trkpt>
      <trkpt lat="37.725629" lon="-6.176834">
        <ele>336.048</ele>
        <time>2021-10-12T11:26:31Z</time>
      </trkpt>
      <trkpt lat="37.725682" lon="-6.176830">
        <ele>336.057</ele>
        <time>2021-10-12T11:26:32Z</time>
      </trkpt>
      <trkpt lat="37.725796" lon="-6.176822">
        <ele>336.000</ele>
        <time>2021-10-12T11:26:34Z</time>
      </trkpt>
      <trkpt lat="37.725908" lon="-6.176798">
        <ele>336.120</ele>
        <time>2021-10-12T11:26:36Z</time>
      </trkpt>
      <trkpt lat="37.726060" lon="-6.176772">
        <ele>336.508</ele>
        <time>2021-10-12T11:26:38Z</time>
      </trkpt>
      <trkpt lat="37.726273" lon="-6.176736">
        <ele>336.353</ele>
        <time>2021-10-12T11:26:40Z</time>
      </trkpt>
      <trkpt lat="37.726372" lon="-6.176715">
        <ele>336.151</ele>
        <time>2021-10-12T11:26:41Z</time>
      </trkpt>
      <trkpt lat="37.726542" lon="-6.176673">
        <ele>335.467</ele>
        <time>2021-10-12T11:26:43Z</time>
      </trkpt>
      <trkpt lat="37.726617" lon="-6.176655">
        <ele>335.170</ele>
        <time>2021-10-12T11:26:44Z</time>
      </trkpt>
      <trkpt lat="37.726776" lon="-6.176621">
        <ele>334.566</ele>
        <time>2021-10-12T11:26:46Z</time>
      </trkpt>
      <trkpt lat="37.726974" lon="-6.176586">
        <ele>334.035</ele>
        <time>2021-10-12T11:26:48Z</time>
      </trkpt>
      <trkpt lat="37.727184" lon="-6.176556">
        <ele>334.035</ele>
        <time>2021-10-12T11:26:50Z</time>
      </trkpt>
      <trkpt lat="37.727417" lon="-6.176545">
        <ele>335.166</ele>
        <time>2021-10-12T11:26:52Z</time>
      </trkpt>
      <trkpt lat="37.727649" lon="-6.176610">
        <ele>337.348</ele>
        <time>2021-10-12T11:26:54Z</time>
      </trkpt>
      <trkpt lat="37.727880" lon="-6.176774">
        <ele>339.661</ele>
        <time>2021-10-12T11:26:56Z</time>
      </trkpt>
      <trkpt lat="37.728140" lon="-6.176990">
        <ele>340.917</ele>
        <time>2021-10-12T11:26:58Z</time>
      </trkpt>
      <trkpt lat="37.728301" lon="-6.177109">
        <ele>342.108</ele>
        <time>2021-10-12T11:26:59Z</time>
      </trkpt>
      <trkpt lat="37.728620" lon="-6.177301">
        <ele>344.062</ele>
        <time>2021-10-12T11:27:01Z</time>
      </trkpt>
      <trkpt lat="37.728779" lon="-6.177383">
        <ele>344.650</ele>
        <time>2021-10-12T11:27:02Z</time>
      </trkpt>
      <trkpt lat="37.729132" lon="-6.177507">
        <ele>345.076</ele>
        <time>2021-10-12T11:27:04Z</time>
      </trkpt>
      <trkpt lat="37.729533" lon="-6.177596">
        <ele>346.389</ele>
        <time>2021-10-12T11:27:06Z</time>
      </trkpt>
      <trkpt lat="37.729733" lon="-6.177642">
        <ele>346.585</ele>
        <time>2021-10-12T11:27:07Z</time>
      </trkpt>
      <trkpt lat="37.729927" lon="-6.177687">
        <ele>345.914</ele>
        <time>2021-10-12T11:27:08Z</time>
      </trkpt>
      <trkpt lat="37.730277" lon="-6.177762">
        <ele>344.954</ele>
        <time>2021-10-12T11:27:10Z</time>
      </trkpt>
      <trkpt lat="37.730458" lon="-6.177781">
        <ele>345.035</ele>
        <time>2021-10-12T11:27:11Z</time>
      </trkpt>
      <trkpt lat="37.730868" lon="-6.177786">
        <ele>344.839</ele>
        <time>2021-10-12T11:27:13Z</time>
      </trkpt>
      <trkpt lat="37.731103" lon="-6.177768">
        <ele>343.001</ele>
        <time>2021-10-12T11:27:14Z</time>
      </trkpt>
      <trkpt lat="37.731587" lon="-6.177714">
        <ele>339.521</ele>
        <time>2021-10-12T11:27:16Z</time>
      </trkpt>
      <trkpt lat="37.731841" lon="-6.177682">
        <ele>339.708</ele>
        <time>2021-10-12T11:27:17Z</time>
      </trkpt>
      <trkpt lat="37.732347" lon="-6.177614">
        <ele>340.881</ele>
        <time>2021-10-12T11:27:19Z</time>
      </trkpt>
      <trkpt lat="37.732606" lon="-6.177577">
        <ele>341.949</ele>
        <time>2021-10-12T11:27:20Z</time>
      </trkpt>
      <trkpt lat="37.733090" lon="-6.177509">
        <ele>346.395</ele>
        <time>2021-10-12T11:27:22Z</time>
      </trkpt>
      <trkpt lat="37.733554" lon="-6.177451">
        <ele>348.058</ele>
        <time>2021-10-12T11:27:24Z</time>
      </trkpt>
      <trkpt lat="37.734015" lon="-6.177397">
        <ele>347.354</ele>
        <time>2021-10-12T11:27:26Z</time>
      </trkpt>
      <trkpt lat="37.734475" lon="-6.177343">
        <ele>348.623</ele>
        <time>2021-10-12T11:27:28Z</time>
      </trkpt>
      <trkpt lat="37.734715" lon="-6.177314">
        <ele>350.033</ele>
        <time>2021-10-12T11:27:29Z</time>
      </trkpt>
      <trkpt lat="37.735170" lon="-6.177259">
        <ele>352.674</ele>
        <time>2021-10-12T11:27:31Z</time>
      </trkpt>
      <trkpt lat="37.735385" lon="-6.177229">
        <ele>353.475</ele>
        <time>2021-10-12T11:27:32Z</time>
      </trkpt>
      <trkpt lat="37.735801" lon="-6.177128">
        <ele>356.428</ele>
        <time>2021-10-12T11:27:34Z</time>
      </trkpt>
      <trkpt lat="37.736237" lon="-6.176884">
        <ele>357.320</ele>
        <time>2021-10-12T11:27:36Z</time>
      </trkpt>
      <trkpt lat="37.736449" lon="-6.176704">
        <ele>357.508</ele>
        <time>2021-10-12T11:27:37Z</time>
      </trkpt>
      <trkpt lat="37.736657" lon="-6.176496">
        <ele>358.375</ele>
        <time>2021-10-12T11:27:38Z</time>
      </trkpt>
      <trkpt lat="37.737041" lon="-6.176079">
        <ele>360.443</ele>
        <time>2021-10-12T11:27:40Z</time>
      </trkpt>
      <trkpt lat="37.737230" lon="-6.175879">
        <ele>361.039</ele>
        <time>2021-10-12T11:27:41Z</time>
      </trkpt>
      <trkpt lat="37.737578" lon="-6.175510">
        <ele>360.272</ele>
        <time>2021-10-12T11:27:43Z</time>
      </trkpt>
      <trkpt lat="37.737738" lon="-6.175321">
        <ele>357.748</ele>
        <time>2021-10-12T11:27:44Z</time>
      </trkpt>
      <trkpt lat="37.738015" lon="-6.174901">
        <ele>353.967</ele>
        <time>2021-10-12T11:27:46Z</time>
      </trkpt>
      <trkpt lat="37.738268" lon="-6.174445">
        <ele>354.327</ele>
        <time>2021-10-12T11:27:48Z</time>
      </trkpt>
      <trkpt lat="37.738579" lon="-6.174015">
        <ele>359.588</ele>
        <time>2021-10-12T11:27:50Z</time>
      </trkpt>
      <trkpt lat="37.738973" lon="-6.173665">
        <ele>362.352</ele>
        <time>2021-10-12T11:27:52Z</time>
      </trkpt>
      <trkpt lat="37.739193" lon="-6.173505">
        <ele>358.853</ele>
        <time>2021-10-12T11:27:53Z</time>
      </trkpt>
      <trkpt lat="37.739425" lon="-6.173368">
        <ele>353.108</ele>
        <time>2021-10-12T11:27:54Z</time>
      </trkpt>
      <trkpt lat="37.739946" lon="-6.173226">
        <ele>343.308</ele>
        <time>2021-10-12T11:27:56Z</time>
      </trkpt>
      <trkpt lat="37.740489" lon="-6.173274">
        <ele>341.093</ele>
        <time>2021-10-12T11:27:58Z</time>
      </trkpt>
      <trkpt lat="37.741037" lon="-6.173476">
        <ele>337.451</ele>
        <time>2021-10-12T11:28:00Z</time>
      </trkpt>
      <trkpt lat="37.741308" lon="-6.173596">
        <ele>336.377</ele>
        <time>2021-10-12T11:28:01Z</time>
      </trkpt>
      <trkpt lat="37.741569" lon="-6.173706">
        <ele>335.860</ele>
        <time>2021-10-12T11:28:02Z</time>
      </trkpt>
      <trkpt lat="37.742034" lon="-6.173900">
        <ele>335.786</ele>
        <time>2021-10-12T11:28:04Z</time>
      </trkpt>
      <trkpt lat="37.742501" lon="-6.174089">
        <ele>337.595</ele>
        <time>2021-10-12T11:28:06Z</time>
      </trkpt>
      <trkpt lat="37.742981" lon="-6.174260">
        <ele>330.765</ele>
        <time>2021-10-12T11:28:08Z</time>
      </trkpt>
      <trkpt lat="37.743476" lon="-6.174331">
        <ele>329.356</ele>
        <time>2021-10-12T11:28:10Z</time>
      </trkpt>
      <trkpt lat="37.744013" lon="-6.174308">
        <ele>325.963</ele>
        <time>2021-10-12T11:28:12Z</time>
      </trkpt>
      <trkpt lat="37.744297" lon="-6.174261">
        <ele>324.044</ele>
        <time>2021-10-12T11:28:13Z</time>
      </trkpt>
      <trkpt lat="37.744587" lon="-6.174201">
        <ele>323.218</ele>
        <time>2021-10-12T11:28:14Z</time>
      </trkpt>
      <trkpt lat="37.745148" lon="-6.174079">
        <ele>324.808</ele>
        <time>2021-10-12T11:28:16Z</time>
      </trkpt>
      <trkpt lat="37.745697" lon="-6.173959">
        <ele>326.144</ele>
        <time>2021-10-12T11:28:18Z</time>
      </trkpt>
      <trkpt lat="37.746233" lon="-6.173828">
        <ele>327.882</ele>
        <time>2021-10-12T11:28:20Z</time>
      </trkpt>
      <trkpt lat="37.746737" lon="-6.173649">
        <ele>331.448</ele>
        <time>2021-10-12T11:28:22Z</time>
      </trkpt>
      <trkpt lat="37.746989" lon="-6.173521">
        <ele>331.871</ele>
        <time>2021-10-12T11:28:23Z</time>
      </trkpt>
      <trkpt lat="37.747229" lon="-6.173370">
        <ele>331.467</ele>
        <time>2021-10-12T11:28:24Z</time>
      </trkpt>
      <trkpt lat="37.747455" lon="-6.173194">
        <ele>333.486</ele>
        <time>2021-10-12T11:28:25Z</time>
      </trkpt>
      <trkpt lat="37.747677" lon="-6.172992">
        <ele>334.616</ele>
        <time>2021-10-12T11:28:26Z</time>
      </trkpt>
      <trkpt lat="37.748072" lon="-6.172559">
        <ele>336.467</ele>
        <time>2021-10-12T11:28:28Z</time>
      </trkpt>
      <trkpt lat="37.748418" lon="-6.172044">
        <ele>338.253</ele>
        <time>2021-10-12T11:28:30Z</time>
      </trkpt>
      <trkpt lat="37.748686" lon="-6.171463">
        <ele>343.004</ele>
        <time>2021-10-12T11:28:32Z</time>
      </trkpt>
      <trkpt lat="37.748898" lon="-6.170890">
        <ele>344.314</ele>
        <time>2021-10-12T11:28:34Z</time>
      </trkpt>
      <trkpt lat="37.749106" lon="-6.170378">
        <ele>340.208</ele>
        <time>2021-10-12T11:28:36Z</time>
      </trkpt>
      <trkpt lat="37.749228" lon="-6.170162">
        <ele>340.563</ele>
        <time>2021-10-12T11:28:37Z</time>
      </trkpt>
      <trkpt lat="37.749382" lon="-6.169969">
        <ele>342.121</ele>
        <time>2021-10-12T11:28:38Z</time>
      </trkpt>
      <trkpt lat="37.749774" lon="-6.169737">
        <ele>346.597</ele>
        <time>2021-10-12T11:28:40Z</time>
      </trkpt>
      <trkpt lat="37.749998" lon="-6.169688">
        <ele>347.690</ele>
        <time>2021-10-12T11:28:41Z</time>
      </trkpt>
      <trkpt lat="37.750424" lon="-6.169716">
        <ele>347.476</ele>
        <time>2021-10-12T11:28:43Z</time>
      </trkpt>
      <trkpt lat="37.750634" lon="-6.169830">
        <ele>348.425</ele>
        <time>2021-10-12T11:28:44Z</time>
      </trkpt>
      <trkpt lat="37.751058" lon="-6.170137">
        <ele>353.525</ele>
        <time>2021-10-12T11:28:46Z</time>
      </trkpt>
      <trkpt lat="37.751293" lon="-6.170279">
        <ele>357.676</ele>
        <time>2021-10-12T11:28:47Z</time>
      </trkpt>
      <trkpt lat="37.751743" lon="-6.170454">
        <ele>360.734</ele>
        <time>2021-10-12T11:28:49Z</time>
      </trkpt>
      <trkpt lat="37.751969" lon="-6.170487">
        <ele>358.555</ele>
        <time>2021-10-12T11:28:50Z</time>
      </trkpt>
      <trkpt lat="37.752430" lon="-6.170439">
        <ele>354.410</ele>
        <time>2021-10-12T11:28:52Z</time>
      </trkpt>
      <trkpt lat="37.752675" lon="-6.170348">
        <ele>353.708</ele>
        <time>2021-10-12T11:28:53Z</time>
      </trkpt>
      <trkpt lat="37.753168" lon="-6.170089">
        <ele>352.361</ele>
        <time>2021-10-12T11:28:55Z</time>
      </trkpt>
      <trkpt lat="37.753428" lon="-6.169938">
        <ele>352.949</ele>
        <time>2021-10-12T11:28:56Z</time>
      </trkpt>
      <trkpt lat="37.753923" lon="-6.169656">
        <ele>353.825</ele>
        <time>2021-10-12T11:28:58Z</time>
      </trkpt>
      <trkpt lat="37.754182" lon="-6.169510">
        <ele>353.178</ele>
        <time>2021-10-12T11:28:59Z</time>
      </trkpt>
      <trkpt lat="37.754662" lon="-6.169158">
        <ele>357.394</ele>
        <time>2021-10-12T11:29:01Z</time>
      </trkpt>
      <trkpt lat="37.754877" lon="-6.168933">
        <ele>360.513</ele>
        <time>2021-10-12T11:29:02Z</time>
      </trkpt>
      <trkpt lat="37.755249" lon="-6.168413">
        <ele>360.453</ele>
        <time>2021-10-12T11:29:04Z</time>
      </trkpt>
      <trkpt lat="37.755430" lon="-6.168124">
        <ele>359.554</ele>
        <time>2021-10-12T11:29:05Z</time>
      </trkpt>
      <trkpt lat="37.755616" lon="-6.167835">
        <ele>359.731</ele>
        <time>2021-10-12T11:29:06Z</time>
      </trkpt>
      <trkpt lat="37.755807" lon="-6.167550">
        <ele>360.961</ele>
        <time>2021-10-12T11:29:07Z</time>
      </trkpt>
      <trkpt lat="37.755998" lon="-6.167266">
        <ele>363.807</ele>
        <time>2021-10-12T11:29:08Z</time>
      </trkpt>
      <trkpt lat="37.756337" lon="-6.166752">
        <ele>364.108</ele>
        <time>2021-10-12T11:29:10Z</time>
      </trkpt>
      <trkpt lat="37.756641" lon="-6.166299">
        <ele>360.531</ele>
        <time>2021-10-12T11:29:12Z</time>
      </trkpt>
      <trkpt lat="37.756781" lon="-6.166104">
        <ele>362.449</ele>
        <time>2021-10-12T11:29:13Z</time>
      </trkpt>
      <trkpt lat="37.756919" lon="-6.165926">
        <ele>364.755</ele>
        <time>2021-10-12T11:29:14Z</time>
      </trkpt>
      <trkpt lat="37.757210" lon="-6.165622">
        <ele>366.018</ele>
        <time>2021-10-12T11:29:16Z</time>
      </trkpt>
      <trkpt lat="37.757377" lon="-6.165493">
        <ele>363.584</ele>
        <time>2021-10-12T11:29:17Z</time>
      </trkpt>
      <trkpt lat="37.757757" lon="-6.165306">
        <ele>361.023</ele>
        <time>2021-10-12T11:29:19Z</time>
      </trkpt>
      <trkpt lat="37.757970" lon="-6.165261">
        <ele>363.173</ele>
        <time>2021-10-12T11:29:20Z</time>
      </trkpt>
      <trkpt lat="37.758395" lon="-6.165232">
        <ele>367.464</ele>
        <time>2021-10-12T11:29:22Z</time>
      </trkpt>
      <trkpt lat="37.758807" lon="-6.165271">
        <ele>369.075</ele>
        <time>2021-10-12T11:29:24Z</time>
      </trkpt>
      <trkpt lat="37.759008" lon="-6.165335">
        <ele>367.928</ele>
        <time>2021-10-12T11:29:25Z</time>
      </trkpt>
      <trkpt lat="37.759215" lon="-6.165444">
        <ele>366.120</ele>
        <time>2021-10-12T11:29:26Z</time>
      </trkpt>
      <trkpt lat="37.759603" lon="-6.165770">
        <ele>368.808</ele>
        <time>2021-10-12T11:29:28Z</time>
      </trkpt>
      <trkpt lat="37.759977" lon="-6.166190">
        <ele>373.425</ele>
        <time>2021-10-12T11:29:30Z</time>
      </trkpt>
      <trkpt lat="37.760353" lon="-6.166603">
        <ele>376.993</ele>
        <time>2021-10-12T11:29:32Z</time>
      </trkpt>
      <trkpt lat="37.760735" lon="-6.166941">
        <ele>376.139</ele>
        <time>2021-10-12T11:29:34Z</time>
      </trkpt>
      <trkpt lat="37.761159" lon="-6.167172">
        <ele>375.162</ele>
        <time>2021-10-12T11:29:36Z</time>
      </trkpt>
      <trkpt lat="37.761382" lon="-6.167236">
        <ele>376.868</ele>
        <time>2021-10-12T11:29:37Z</time>
      </trkpt>
      <trkpt lat="37.761620" lon="-6.167273">
        <ele>376.957</ele>
        <time>2021-10-12T11:29:38Z</time>
      </trkpt>
      <trkpt lat="37.762102" lon="-6.167250">
        <ele>379.317</ele>
        <time>2021-10-12T11:29:40Z</time>
      </trkpt>
      <trkpt lat="37.762358" lon="-6.167185">
        <ele>380.448</ele>
        <time>2021-10-12T11:29:41Z</time>
      </trkpt>
      <trkpt lat="37.762854" lon="-6.166996">
        <ele>381.354</ele>
        <time>2021-10-12T11:29:43Z</time>
      </trkpt>
      <trkpt lat="37.763108" lon="-6.166915">
        <ele>382.756</ele>
        <time>2021-10-12T11:29:44Z</time>
      </trkpt>
      <trkpt lat="37.763610" lon="-6.166846">
        <ele>389.011</ele>
        <time>2021-10-12T11:29:46Z</time>
      </trkpt>
      <trkpt lat="37.763865" lon="-6.166869">
        <ele>389.908</ele>
        <time>2021-10-12T11:29:47Z</time>
      </trkpt>
      <trkpt lat="37.764344" lon="-6.167035">
        <ele>394.883</ele>
        <time>2021-10-12T11:29:49Z</time>
      </trkpt>
      <trkpt lat="37.764571" lon="-6.167182">
        <ele>395.851</ele>
        <time>2021-10-12T11:29:50Z</time>
      </trkpt>
      <trkpt lat="37.764994" lon="-6.167517">
        <ele>398.867</ele>
        <time>2021-10-12T11:29:52Z</time>
      </trkpt>
      <trkpt lat="37.765410" lon="-6.167860">
        <ele>403.480</ele>
        <time>2021-10-12T11:29:54Z</time>
      </trkpt>
      <trkpt lat="37.765615" lon="-6.168029">
        <ele>406.136</ele>
        <time>2021-10-12T11:29:55Z</time>
      </trkpt>
      <trkpt lat="37.765823" lon="-6.168199">
        <ele>407.375</ele>
        <time>2021-10-12T11:29:56Z</time>
      </trkpt>
      <trkpt lat="37.766203" lon="-6.168505">
        <ele>406.445</ele>
        <time>2021-10-12T11:29:58Z</time>
      </trkpt>
      <trkpt lat="37.766390" lon="-6.168656">
        <ele>405.596</ele>
        <time>2021-10-12T11:29:59Z</time>
      </trkpt>
      <trkpt lat="37.766746" lon="-6.168945">
        <ele>404.113</ele>
        <time>2021-10-12T11:30:01Z</time>
      </trkpt>
      <trkpt lat="37.766922" lon="-6.169093">
        <ele>404.943</ele>
        <time>2021-10-12T11:30:02Z</time>
      </trkpt>
      <trkpt lat="37.767264" lon="-6.169384">
        <ele>409.607</ele>
        <time>2021-10-12T11:30:04Z</time>
      </trkpt>
      <trkpt lat="37.767572" lon="-6.169775">
        <ele>412.708</ele>
        <time>2021-10-12T11:30:06Z</time>
      </trkpt>
      <trkpt lat="37.767786" lon="-6.170291">
        <ele>418.199</ele>
        <time>2021-10-12T11:30:08Z</time>
      </trkpt>
      <trkpt lat="37.767963" lon="-6.170849">
        <ele>422.737</ele>
        <time>2021-10-12T11:30:10Z</time>
      </trkpt>
      <trkpt lat="37.768066" lon="-6.171114">
        <ele>425.313</ele>
        <time>2021-10-12T11:30:11Z</time>
      </trkpt>
      <trkpt lat="37.768188" lon="-6.171357">
        <ele>428.866</ele>
        <time>2021-10-12T11:30:12Z</time>
      </trkpt>
      <trkpt lat="37.768332" lon="-6.171558">
        <ele>431.112</ele>
        <time>2021-10-12T11:30:13Z</time>
      </trkpt>
      <trkpt lat="37.768497" lon="-6.171719">
        <ele>432.131</ele>
        <time>2021-10-12T11:30:14Z</time>
      </trkpt>
      <trkpt lat="37.768851" lon="-6.171919">
        <ele>434.961</ele>
        <time>2021-10-12T11:30:16Z</time>
      </trkpt>
      <trkpt lat="37.769055" lon="-6.171939">
        <ele>437.412</ele>
        <time>2021-10-12T11:30:17Z</time>
      </trkpt>
      <trkpt lat="37.769476" lon="-6.171796">
        <ele>439.431</ele>
        <time>2021-10-12T11:30:19Z</time>
      </trkpt>
      <trkpt lat="37.769696" lon="-6.171658">
        <ele>439.161</ele>
        <time>2021-10-12T11:30:20Z</time>
      </trkpt>
      <trkpt lat="37.770153" lon="-6.171357">
        <ele>441.307</ele>
        <time>2021-10-12T11:30:22Z</time>
      </trkpt>
      <trkpt lat="37.770627" lon="-6.171073">
        <ele>445.008</ele>
        <time>2021-10-12T11:30:24Z</time>
      </trkpt>
      <trkpt lat="37.771165" lon="-6.170897">
        <ele>447.781</ele>
        <time>2021-10-12T11:30:26Z</time>
      </trkpt>
      <trkpt lat="37.771709" lon="-6.170873">
        <ele>452.319</ele>
        <time>2021-10-12T11:30:28Z</time>
      </trkpt>
      <trkpt lat="37.772246" lon="-6.171037">
        <ele>454.365</ele>
        <time>2021-10-12T11:30:30Z</time>
      </trkpt>
      <trkpt lat="37.772736" lon="-6.171393">
        <ele>456.738</ele>
        <time>2021-10-12T11:30:32Z</time>
      </trkpt>
      <trkpt lat="37.773113" lon="-6.171860">
        <ele>459.684</ele>
        <time>2021-10-12T11:30:34Z</time>
      </trkpt>
      <trkpt lat="37.773276" lon="-6.172135">
        <ele>462.783</ele>
        <time>2021-10-12T11:30:35Z</time>
      </trkpt>
      <trkpt lat="37.773417" lon="-6.172439">
        <ele>466.713</ele>
        <time>2021-10-12T11:30:36Z</time>
      </trkpt>
      <trkpt lat="37.773643" lon="-6.173107">
        <ele>469.054</ele>
        <time>2021-10-12T11:30:38Z</time>
      </trkpt>
      <trkpt lat="37.773827" lon="-6.173751">
        <ele>470.915</ele>
        <time>2021-10-12T11:30:40Z</time>
      </trkpt>
      <trkpt lat="37.773923" lon="-6.174077">
        <ele>473.065</ele>
        <time>2021-10-12T11:30:41Z</time>
      </trkpt>
      <trkpt lat="37.774019" lon="-6.174397">
        <ele>473.911</ele>
        <time>2021-10-12T11:30:42Z</time>
      </trkpt>
      <trkpt lat="37.774113" lon="-6.174697">
        <ele>474.408</ele>
        <time>2021-10-12T11:30:43Z</time>
      </trkpt>
      <trkpt lat="37.774222" lon="-6.174979">
        <ele>473.449</ele>
        <time>2021-10-12T11:30:44Z</time>
      </trkpt>
      <trkpt lat="37.774506" lon="-6.175421">
        <ele>471.717</ele>
        <time>2021-10-12T11:30:46Z</time>
      </trkpt>
      <trkpt lat="37.774679" lon="-6.175590">
        <ele>471.653</ele>
        <time>2021-10-12T11:30:47Z</time>
      </trkpt>
      <trkpt lat="37.774871" lon="-6.175731">
        <ele>469.436</ele>
        <time>2021-10-12T11:30:48Z</time>
      </trkpt>
      <trkpt lat="37.775335" lon="-6.175990">
        <ele>466.312</ele>
        <time>2021-10-12T11:30:50Z</time>
      </trkpt>
      <trkpt lat="37.775848" lon="-6.176277">
        <ele>464.431</ele>
        <time>2021-10-12T11:30:52Z</time>
      </trkpt>
      <trkpt lat="37.776116" lon="-6.176432">
        <ele>464.861</ele>
        <time>2021-10-12T11:30:53Z</time>
      </trkpt>
      <trkpt lat="37.776637" lon="-6.176763">
        <ele>463.742</ele>
        <time>2021-10-12T11:30:55Z</time>
      </trkpt>
      <trkpt lat="37.776889" lon="-6.176962">
        <ele>462.849</ele>
        <time>2021-10-12T11:30:56Z</time>
      </trkpt>
      <trkpt lat="37.777324" lon="-6.177432">
        <ele>459.302</ele>
        <time>2021-10-12T11:30:58Z</time>
      </trkpt>
      <trkpt lat="37.777727" lon="-6.177975">
        <ele>460.522</ele>
        <time>2021-10-12T11:31:00Z</time>
      </trkpt>
      <trkpt lat="37.777931" lon="-6.178252">
        <ele>462.108</ele>
        <time>2021-10-12T11:31:01Z</time>
      </trkpt>
      <trkpt lat="37.778144" lon="-6.178538">
        <ele>463.192</ele>
        <time>2021-10-12T11:31:02Z</time>
      </trkpt>
      <trkpt lat="37.778567" lon="-6.179101">
        <ele>462.880</ele>
        <time>2021-10-12T11:31:04Z</time>
      </trkpt>
      <trkpt lat="37.778783" lon="-6.179389">
        <ele>468.726</ele>
        <time>2021-10-12T11:31:05Z</time>
      </trkpt>
      <trkpt lat="37.779213" lon="-6.179962">
        <ele>475.329</ele>
        <time>2021-10-12T11:31:07Z</time>
      </trkpt>
      <trkpt lat="37.779437" lon="-6.180248">
        <ele>476.955</ele>
        <time>2021-10-12T11:31:08Z</time>
      </trkpt>
      <trkpt lat="37.779898" lon="-6.180781">
        <ele>477.254</ele>
        <time>2021-10-12T11:31:10Z</time>
      </trkpt>
      <trkpt lat="37.780403" lon="-6.181314">
        <ele>477.324</ele>
        <time>2021-10-12T11:31:12Z</time>
      </trkpt>
      <trkpt lat="37.780661" lon="-6.181575">
        <ele>477.975</ele>
        <time>2021-10-12T11:31:13Z</time>
      </trkpt>
      <trkpt lat="37.780937" lon="-6.181835">
        <ele>479.655</ele>
        <time>2021-10-12T11:31:14Z</time>
      </trkpt>
      <trkpt lat="37.781495" lon="-6.182317">
        <ele>481.707</ele>
        <time>2021-10-12T11:31:16Z</time>
      </trkpt>
      <trkpt lat="37.781787" lon="-6.182547">
        <ele>480.417</ele>
        <time>2021-10-12T11:31:17Z</time>
      </trkpt>
      <trkpt lat="37.782368" lon="-6.182976">
        <ele>481.508</ele>
        <time>2021-10-12T11:31:19Z</time>
      </trkpt>
      <trkpt lat="37.782671" lon="-6.183180">
        <ele>479.983</ele>
        <time>2021-10-12T11:31:20Z</time>
      </trkpt>
      <trkpt lat="37.783255" lon="-6.183556">
        <ele>476.761</ele>
        <time>2021-10-12T11:31:22Z</time>
      </trkpt>
      <trkpt lat="37.783552" lon="-6.183741">
        <ele>475.497</ele>
        <time>2021-10-12T11:31:23Z</time>
      </trkpt>
      <trkpt lat="37.784139" lon="-6.184109">
        <ele>468.490</ele>
        <time>2021-10-12T11:31:25Z</time>
      </trkpt>
      <trkpt lat="37.784436" lon="-6.184295">
        <ele>469.476</ele>
        <time>2021-10-12T11:31:26Z</time>
      </trkpt>
      <trkpt lat="37.784998" lon="-6.184639">
        <ele>473.625</ele>
        <time>2021-10-12T11:31:28Z</time>
      </trkpt>
      <trkpt lat="37.785547" lon="-6.185027">
        <ele>473.035</ele>
        <time>2021-10-12T11:31:30Z</time>
      </trkpt>
      <trkpt lat="37.785803" lon="-6.185264">
        <ele>473.986</ele>
        <time>2021-10-12T11:31:31Z</time>
      </trkpt>
      <trkpt lat="37.786052" lon="-6.185527">
        <ele>475.696</ele>
        <time>2021-10-12T11:31:32Z</time>
      </trkpt>
      <trkpt lat="37.786522" lon="-6.186026">
        <ele>479.031</ele>
        <time>2021-10-12T11:31:34Z</time>
      </trkpt>
      <trkpt lat="37.786763" lon="-6.186278">
        <ele>479.624</ele>
        <time>2021-10-12T11:31:35Z</time>
      </trkpt>
      <trkpt lat="37.787000" lon="-6.186527">
        <ele>481.108</ele>
        <time>2021-10-12T11:31:36Z</time>
      </trkpt>
      <trkpt lat="37.787469" lon="-6.187027">
        <ele>484.337</ele>
        <time>2021-10-12T11:31:38Z</time>
      </trkpt>
      <trkpt lat="37.787907" lon="-6.187511">
        <ele>484.615</ele>
        <time>2021-10-12T11:31:40Z</time>
      </trkpt>
      <trkpt lat="37.788134" lon="-6.187766">
        <ele>485.291</ele>
        <time>2021-10-12T11:31:41Z</time>
      </trkpt>
      <trkpt lat="37.788584" lon="-6.188293">
        <ele>490.634</ele>
        <time>2021-10-12T11:31:43Z</time>
      </trkpt>
      <trkpt lat="37.788813" lon="-6.188574">
        <ele>490.530</ele>
        <time>2021-10-12T11:31:44Z</time>
      </trkpt>
      <trkpt lat="37.789235" lon="-6.189105">
        <ele>489.219</ele>
        <time>2021-10-12T11:31:46Z</time>
      </trkpt>
      <trkpt lat="37.789632" lon="-6.189654">
        <ele>489.869</ele>
        <time>2021-10-12T11:31:48Z</time>
      </trkpt>
      <trkpt lat="37.789800" lon="-6.189951">
        <ele>491.940</ele>
        <time>2021-10-12T11:31:49Z</time>
      </trkpt>
      <trkpt lat="37.789952" lon="-6.190274">
        <ele>497.344</ele>
        <time>2021-10-12T11:31:50Z</time>
      </trkpt>
      <trkpt lat="37.790228" lon="-6.190919">
        <ele>498.805</ele>
        <time>2021-10-12T11:31:52Z</time>
      </trkpt>
      <trkpt lat="37.790372" lon="-6.191252">
        <ele>497.015</ele>
        <time>2021-10-12T11:31:53Z</time>
      </trkpt>
      <trkpt lat="37.790515" lon="-6.191589">
        <ele>497.708</ele>
        <time>2021-10-12T11:31:54Z</time>
      </trkpt>
      <trkpt lat="37.790818" lon="-6.192275">
        <ele>496.952</ele>
        <time>2021-10-12T11:31:56Z</time>
      </trkpt>
      <trkpt lat="37.791126" lon="-6.192962">
        <ele>492.750</ele>
        <time>2021-10-12T11:31:58Z</time>
      </trkpt>
      <trkpt lat="37.791287" lon="-6.193320">
        <ele>490.756</ele>
        <time>2021-10-12T11:31:59Z</time>
      </trkpt>
      <trkpt lat="37.791610" lon="-6.194043">
        <ele>490.139</ele>
        <time>2021-10-12T11:32:01Z</time>
      </trkpt>
      <trkpt lat="37.791775" lon="-6.194414">
        <ele>490.345</ele>
        <time>2021-10-12T11:32:02Z</time>
      </trkpt>
      <trkpt lat="37.792091" lon="-6.195124">
        <ele>494.584</ele>
        <time>2021-10-12T11:32:04Z</time>
      </trkpt>
      <trkpt lat="37.792251" lon="-6.195484">
        <ele>496.044</ele>
        <time>2021-10-12T11:32:05Z</time>
      </trkpt>
      <trkpt lat="37.792562" lon="-6.196196">
        <ele>497.915</ele>
        <time>2021-10-12T11:32:07Z</time>
      </trkpt>
      <trkpt lat="37.792716" lon="-6.196553">
        <ele>500.657</ele>
        <time>2021-10-12T11:32:08Z</time>
      </trkpt>
      <trkpt lat="37.793001" lon="-6.197210">
        <ele>504.800</ele>
        <time>2021-10-12T11:32:10Z</time>
      </trkpt>
      <trkpt lat="37.793265" lon="-6.197801">
        <ele>506.020</ele>
        <time>2021-10-12T11:32:12Z</time>
      </trkpt>
      <trkpt lat="37.793514" lon="-6.198356">
        <ele>507.008</ele>
        <time>2021-10-12T11:32:14Z</time>
      </trkpt>
      <trkpt lat="37.793764" lon="-6.198915">
        <ele>506.013</ele>
        <time>2021-10-12T11:32:16Z</time>
      </trkpt>
      <trkpt lat="37.793893" lon="-6.199203">
        <ele>506.131</ele>
        <time>2021-10-12T11:32:17Z</time>
      </trkpt>
      <trkpt lat="37.794124" lon="-6.199782">
        <ele>507.547</ele>
        <time>2021-10-12T11:32:19Z</time>
      </trkpt>
      <trkpt lat="37.794220" lon="-6.200089">
        <ele>507.240</ele>
        <time>2021-10-12T11:32:20Z</time>
      </trkpt>
      <trkpt lat="37.794320" lon="-6.200734">
        <ele>502.826</ele>
        <time>2021-10-12T11:32:22Z</time>
      </trkpt>
      <trkpt lat="37.794410" lon="-6.201370">
        <ele>502.145</ele>
        <time>2021-10-12T11:32:24Z</time>
      </trkpt>
      <trkpt lat="37.794515" lon="-6.201975">
        <ele>500.775</ele>
        <time>2021-10-12T11:32:26Z</time>
      </trkpt>
      <trkpt lat="37.794714" lon="-6.202529">
        <ele>501.186</ele>
        <time>2021-10-12T11:32:28Z</time>
      </trkpt>
      <trkpt lat="37.794872" lon="-6.202785">
        <ele>502.659</ele>
        <time>2021-10-12T11:32:29Z</time>
      </trkpt>
      <trkpt lat="37.795294" lon="-6.203190">
        <ele>503.403</ele>
        <time>2021-10-12T11:32:31Z</time>
      </trkpt>
      <trkpt lat="37.795506" lon="-6.203370">
        <ele>502.623</ele>
        <time>2021-10-12T11:32:32Z</time>
      </trkpt>
      <trkpt lat="37.795858" lon="-6.203741">
        <ele>502.508</ele>
        <time>2021-10-12T11:32:34Z</time>
      </trkpt>
      <trkpt lat="37.796006" lon="-6.203949">
        <ele>501.393</ele>
        <time>2021-10-12T11:32:35Z</time>
      </trkpt>
      <trkpt lat="37.796140" lon="-6.204164">
        <ele>500.561</ele>
        <time>2021-10-12T11:32:36Z</time>
      </trkpt>
      <trkpt lat="37.796418" lon="-6.204608">
        <ele>498.347</ele>
        <time>2021-10-12T11:32:38Z</time>
      </trkpt>
      <trkpt lat="37.796710" lon="-6.205059">
        <ele>498.480</ele>
        <time>2021-10-12T11:32:40Z</time>
      </trkpt>
      <trkpt lat="37.797016" lon="-6.205520">
        <ele>501.856</ele>
        <time>2021-10-12T11:32:42Z</time>
      </trkpt>
      <trkpt lat="37.797169" lon="-6.205747">
        <ele>503.485</ele>
        <time>2021-10-12T11:32:43Z</time>
      </trkpt>
      <trkpt lat="37.797323" lon="-6.205976">
        <ele>504.375</ele>
        <time>2021-10-12T11:32:44Z</time>
      </trkpt>
      <trkpt lat="37.797618" lon="-6.206416">
        <ele>503.116</ele>
        <time>2021-10-12T11:32:46Z</time>
      </trkpt>
      <trkpt lat="37.797752" lon="-6.206624">
        <ele>499.724</ele>
        <time>2021-10-12T11:32:47Z</time>
      </trkpt>
      <trkpt lat="37.798032" lon="-6.207051">
        <ele>497.504</ele>
        <time>2021-10-12T11:32:49Z</time>
      </trkpt>
      <trkpt lat="37.798201" lon="-6.207261">
        <ele>497.614</ele>
        <time>2021-10-12T11:32:50Z</time>
      </trkpt>
      <trkpt lat="37.798606" lon="-6.207596">
        <ele>497.008</ele>
        <time>2021-10-12T11:32:52Z</time>
      </trkpt>
      <trkpt lat="37.798847" lon="-6.207724">
        <ele>495.180</ele>
        <time>2021-10-12T11:32:53Z</time>
      </trkpt>
      <trkpt lat="37.799362" lon="-6.207864">
        <ele>490.978</ele>
        <time>2021-10-12T11:32:55Z</time>
      </trkpt>
      <trkpt lat="37.799626" lon="-6.207847">
        <ele>489.884</ele>
        <time>2021-10-12T11:32:56Z</time>
      </trkpt>
      <trkpt lat="37.800130" lon="-6.207683">
        <ele>489.297</ele>
        <time>2021-10-12T11:32:58Z</time>
      </trkpt>
      <trkpt lat="37.800597" lon="-6.207375">
        <ele>490.263</ele>
        <time>2021-10-12T11:33:00Z</time>
      </trkpt>
      <trkpt lat="37.800987" lon="-6.206957">
        <ele>491.592</ele>
        <time>2021-10-12T11:33:02Z</time>
      </trkpt>
      <trkpt lat="37.801271" lon="-6.206458">
        <ele>494.082</ele>
        <time>2021-10-12T11:33:04Z</time>
      </trkpt>
      <trkpt lat="37.801376" lon="-6.206193">
        <ele>494.313</ele>
        <time>2021-10-12T11:33:05Z</time>
      </trkpt>
      <trkpt lat="37.801461" lon="-6.205934">
        <ele>492.729</ele>
        <time>2021-10-12T11:33:06Z</time>
      </trkpt>
      <trkpt lat="37.801535" lon="-6.205675">
        <ele>491.200</ele>
        <time>2021-10-12T11:33:07Z</time>
      </trkpt>
      <trkpt lat="37.801617" lon="-6.205409">
        <ele>490.820</ele>
        <time>2021-10-12T11:33:08Z</time>
      </trkpt>
      <trkpt lat="37.801828" lon="-6.204884">
        <ele>491.308</ele>
        <time>2021-10-12T11:33:10Z</time>
      </trkpt>
      <trkpt lat="37.802119" lon="-6.204383">
        <ele>489.370</ele>
        <time>2021-10-12T11:33:12Z</time>
      </trkpt>
      <trkpt lat="37.802504" lon="-6.203950">
        <ele>488.538</ele>
        <time>2021-10-12T11:33:14Z</time>
      </trkpt>
      <trkpt lat="37.802940" lon="-6.203604">
        <ele>488.674</ele>
        <time>2021-10-12T11:33:16Z</time>
      </trkpt>
      <trkpt lat="37.803177" lon="-6.203437">
        <ele>490.127</ele>
        <time>2021-10-12T11:33:17Z</time>
      </trkpt>
      <trkpt lat="37.803424" lon="-6.203267">
        <ele>490.743</ele>
        <time>2021-10-12T11:33:18Z</time>
      </trkpt>
      <trkpt lat="37.803929" lon="-6.202912">
        <ele>486.752</ele>
        <time>2021-10-12T11:33:20Z</time>
      </trkpt>
      <trkpt lat="37.804434" lon="-6.202556">
        <ele>480.612</ele>
        <time>2021-10-12T11:33:22Z</time>
      </trkpt>
      <trkpt lat="37.804691" lon="-6.202377">
        <ele>476.653</ele>
        <time>2021-10-12T11:33:23Z</time>
      </trkpt>
      <trkpt lat="37.805163" lon="-6.202067">
        <ele>473.116</ele>
        <time>2021-10-12T11:33:25Z</time>
      </trkpt>
      <trkpt lat="37.805404" lon="-6.201956">
        <ele>472.076</ele>
        <time>2021-10-12T11:33:26Z</time>
      </trkpt>
      <trkpt lat="37.805893" lon="-6.201894">
        <ele>471.613</ele>
        <time>2021-10-12T11:33:28Z</time>
      </trkpt>
      <trkpt lat="37.806438" lon="-6.201970">
        <ele>470.008</ele>
        <time>2021-10-12T11:33:30Z</time>
      </trkpt>
      <trkpt lat="37.806999" lon="-6.202051">
        <ele>471.979</ele>
        <time>2021-10-12T11:33:32Z</time>
      </trkpt>
      <trkpt lat="37.807545" lon="-6.202124">
        <ele>473.847</ele>
        <time>2021-10-12T11:33:34Z</time>
      </trkpt>
      <trkpt lat="37.808122" lon="-6.202190">
        <ele>476.973</ele>
        <time>2021-10-12T11:33:36Z</time>
      </trkpt>
      <trkpt lat="37.808704" lon="-6.202248">
        <ele>475.136</ele>
        <time>2021-10-12T11:33:38Z</time>
      </trkpt>
      <trkpt lat="37.809224" lon="-6.202322">
        <ele>475.432</ele>
        <time>2021-10-12T11:33:40Z</time>
      </trkpt>
      <trkpt lat="37.809479" lon="-6.202398">
        <ele>475.581</ele>
        <time>2021-10-12T11:33:41Z</time>
      </trkpt>
      <trkpt lat="37.809962" lon="-6.202645">
        <ele>476.061</ele>
        <time>2021-10-12T11:33:43Z</time>
      </trkpt>
      <trkpt lat="37.810210" lon="-6.202805">
        <ele>475.692</ele>
        <time>2021-10-12T11:33:44Z</time>
      </trkpt>
      <trkpt lat="37.810723" lon="-6.203149">
        <ele>473.037</ele>
        <time>2021-10-12T11:33:46Z</time>
      </trkpt>
      <trkpt lat="37.810997" lon="-6.203325">
        <ele>473.049</ele>
        <time>2021-10-12T11:33:47Z</time>
      </trkpt>
      <trkpt lat="37.811276" lon="-6.203504">
        <ele>469.813</ele>
        <time>2021-10-12T11:33:48Z</time>
      </trkpt>
      <trkpt lat="37.811850" lon="-6.203876">
        <ele>468.308</ele>
        <time>2021-10-12T11:33:50Z</time>
      </trkpt>
      <trkpt lat="37.812410" lon="-6.204232">
        <ele>468.831</ele>
        <time>2021-10-12T11:33:52Z</time>
      </trkpt>
      <trkpt lat="37.812929" lon="-6.204574">
        <ele>470.639</ele>
        <time>2021-10-12T11:33:54Z</time>
      </trkpt>
      <trkpt lat="37.813161" lon="-6.204727">
        <ele>472.445</ele>
        <time>2021-10-12T11:33:55Z</time>
      </trkpt>
      <trkpt lat="37.813374" lon="-6.204874">
        <ele>475.078</ele>
        <time>2021-10-12T11:33:56Z</time>
      </trkpt>
      <trkpt lat="37.813704" lon="-6.205135">
        <ele>480.464</ele>
        <time>2021-10-12T11:33:58Z</time>
      </trkpt>
      <trkpt lat="37.813835" lon="-6.205270">
        <ele>482.143</ele>
        <time>2021-10-12T11:33:59Z</time>
      </trkpt>
      <trkpt lat="37.814055" lon="-6.205559">
        <ele>484.853</ele>
        <time>2021-10-12T11:34:01Z</time>
      </trkpt>
      <trkpt lat="37.814155" lon="-6.205706">
        <ele>484.684</ele>
        <time>2021-10-12T11:34:02Z</time>
      </trkpt>
      <trkpt lat="37.814333" lon="-6.205953">
        <ele>486.027</ele>
        <time>2021-10-12T11:34:04Z</time>
      </trkpt>
      <trkpt lat="37.814421" lon="-6.206059">
        <ele>486.768</ele>
        <time>2021-10-12T11:34:05Z</time>
      </trkpt>
      <trkpt lat="37.814508" lon="-6.206152">
        <ele>488.014</ele>
        <time>2021-10-12T11:34:06Z</time>
      </trkpt>
      <trkpt lat="37.814670" lon="-6.206310">
        <ele>490.908</ele>
        <time>2021-10-12T11:34:08Z</time>
      </trkpt>
      <trkpt lat="37.814824" lon="-6.206463">
        <ele>492.680</ele>
        <time>2021-10-12T11:34:10Z</time>
      </trkpt>
      <trkpt lat="37.814994" lon="-6.206623">
        <ele>493.898</ele>
        <time>2021-10-12T11:34:12Z</time>
      </trkpt>
      <trkpt lat="37.815135" lon="-6.206755">
        <ele>494.544</ele>
        <time>2021-10-12T11:34:14Z</time>
      </trkpt>
      <trkpt lat="37.815243" lon="-6.206852">
        <ele>494.927</ele>
        <time>2021-10-12T11:34:16Z</time>
      </trkpt>
      <trkpt lat="37.815374" lon="-6.206968">
        <ele>495.083</ele>
        <time>2021-10-12T11:34:18Z</time>
      </trkpt>
      <trkpt lat="37.815454" lon="-6.207045">
        <ele>495.072</ele>
        <time>2021-10-12T11:34:19Z</time>
      </trkpt>
      <trkpt lat="37.815544" lon="-6.207134">
        <ele>495.032</ele>
        <time>2021-10-12T11:34:20Z</time>
      </trkpt>
      <trkpt lat="37.815730" lon="-6.207320">
        <ele>494.063</ele>
        <time>2021-10-12T11:34:22Z</time>
      </trkpt>
      <trkpt lat="37.815907" lon="-6.207477">
        <ele>493.494</ele>
        <time>2021-10-12T11:34:24Z</time>
      </trkpt>
      <trkpt lat="37.816066" lon="-6.207631">
        <ele>492.257</ele>
        <time>2021-10-12T11:34:26Z</time>
      </trkpt>
      <trkpt lat="37.816283" lon="-6.207849">
        <ele>491.322</ele>
        <time>2021-10-12T11:34:28Z</time>
      </trkpt>
      <trkpt lat="37.816417" lon="-6.207984">
        <ele>490.908</ele>
        <time>2021-10-12T11:34:29Z</time>
      </trkpt>
      <trkpt lat="37.816561" lon="-6.208128">
        <ele>490.217</ele>
        <time>2021-10-12T11:34:30Z</time>
      </trkpt>
      <trkpt lat="37.816887" lon="-6.208424">
        <ele>488.395</ele>
        <time>2021-10-12T11:34:32Z</time>
      </trkpt>
      <trkpt lat="37.817235" lon="-6.208740">
        <ele>488.051</ele>
        <time>2021-10-12T11:34:34Z</time>
      </trkpt>
      <trkpt lat="37.817599" lon="-6.209098">
        <ele>488.454</ele>
        <time>2021-10-12T11:34:36Z</time>
      </trkpt>
      <trkpt lat="37.817776" lon="-6.209269">
        <ele>489.430</ele>
        <time>2021-10-12T11:34:37Z</time>
      </trkpt>
      <trkpt lat="37.817946" lon="-6.209432">
        <ele>490.629</ele>
        <time>2021-10-12T11:34:38Z</time>
      </trkpt>
      <trkpt lat="37.818250" lon="-6.209705">
        <ele>491.779</ele>
        <time>2021-10-12T11:34:40Z</time>
      </trkpt>
      <trkpt lat="37.818410" lon="-6.209830">
        <ele>491.640</ele>
        <time>2021-10-12T11:34:41Z</time>
      </trkpt>
      <trkpt lat="37.818788" lon="-6.210016">
        <ele>490.389</ele>
        <time>2021-10-12T11:34:43Z</time>
      </trkpt>
      <trkpt lat="37.819010" lon="-6.210070">
        <ele>490.006</ele>
        <time>2021-10-12T11:34:44Z</time>
      </trkpt>
      <trkpt lat="37.819485" lon="-6.210061">
        <ele>490.626</ele>
        <time>2021-10-12T11:34:46Z</time>
      </trkpt>
      <trkpt lat="37.819741" lon="-6.210015">
        <ele>487.908</ele>
        <time>2021-10-12T11:34:47Z</time>
      </trkpt>
      <trkpt lat="37.820007" lon="-6.209952">
        <ele>486.396</ele>
        <time>2021-10-12T11:34:48Z</time>
      </trkpt>
      <trkpt lat="37.820561" lon="-6.209812">
        <ele>484.344</ele>
        <time>2021-10-12T11:34:50Z</time>
      </trkpt>
      <trkpt lat="37.821093" lon="-6.209690">
        <ele>484.660</ele>
        <time>2021-10-12T11:34:52Z</time>
      </trkpt>
      <trkpt lat="37.821565" lon="-6.209582">
        <ele>484.263</ele>
        <time>2021-10-12T11:34:54Z</time>
      </trkpt>
      <trkpt lat="37.821784" lon="-6.209535">
        <ele>485.219</ele>
        <time>2021-10-12T11:34:55Z</time>
      </trkpt>
      <trkpt lat="37.822008" lon="-6.209506">
        <ele>486.438</ele>
        <time>2021-10-12T11:34:56Z</time>
      </trkpt>
      <trkpt lat="37.822450" lon="-6.209542">
        <ele>485.828</ele>
        <time>2021-10-12T11:34:58Z</time>
      </trkpt>
      <trkpt lat="37.822678" lon="-6.209622">
        <ele>483.329</ele>
        <time>2021-10-12T11:34:59Z</time>
      </trkpt>
      <trkpt lat="37.823116" lon="-6.209939">
        <ele>480.742</ele>
        <time>2021-10-12T11:35:01Z</time>
      </trkpt>
      <trkpt lat="37.823327" lon="-6.210164">
        <ele>479.722</ele>
        <time>2021-10-12T11:35:02Z</time>
      </trkpt>
      <trkpt lat="37.823729" lon="-6.210607">
        <ele>479.814</ele>
        <time>2021-10-12T11:35:04Z</time>
      </trkpt>
      <trkpt lat="37.823928" lon="-6.210825">
        <ele>480.108</ele>
        <time>2021-10-12T11:35:05Z</time>
      </trkpt>
      <trkpt lat="37.824111" lon="-6.211048">
        <ele>482.362</ele>
        <time>2021-10-12T11:35:06Z</time>
      </trkpt>
      <trkpt lat="37.824268" lon="-6.211294">
        <ele>484.260</ele>
        <time>2021-10-12T11:35:07Z</time>
      </trkpt>
      <trkpt lat="37.824397" lon="-6.211569">
        <ele>486.886</ele>
        <time>2021-10-12T11:35:08Z</time>
      </trkpt>
      <trkpt lat="37.824553" lon="-6.212146">
        <ele>491.959</ele>
        <time>2021-10-12T11:35:10Z</time>
      </trkpt>
      <trkpt lat="37.824580" lon="-6.212435">
        <ele>492.975</ele>
        <time>2021-10-12T11:35:11Z</time>
      </trkpt>
      <trkpt lat="37.824587" lon="-6.212715">
        <ele>493.454</ele>
        <time>2021-10-12T11:35:12Z</time>
      </trkpt>
      <trkpt lat="37.824604" lon="-6.212991">
        <ele>493.184</ele>
        <time>2021-10-12T11:35:13Z</time>
      </trkpt>
      <trkpt lat="37.824655" lon="-6.213275">
        <ele>492.475</ele>
        <time>2021-10-12T11:35:14Z</time>
      </trkpt>
      <trkpt lat="37.824876" lon="-6.213797">
        <ele>491.063</ele>
        <time>2021-10-12T11:35:16Z</time>
      </trkpt>
      <trkpt lat="37.825231" lon="-6.214233">
        <ele>489.544</ele>
        <time>2021-10-12T11:35:18Z</time>
      </trkpt>
      <trkpt lat="37.825443" lon="-6.214393">
        <ele>487.218</ele>
        <time>2021-10-12T11:35:19Z</time>
      </trkpt>
      <trkpt lat="37.825675" lon="-6.214522">
        <ele>486.908</ele>
        <time>2021-10-12T11:35:20Z</time>
      </trkpt>
      <trkpt lat="37.826148" lon="-6.214747">
        <ele>489.374</ele>
        <time>2021-10-12T11:35:22Z</time>
      </trkpt>
      <trkpt lat="37.826403" lon="-6.214872">
        <ele>491.132</ele>
        <time>2021-10-12T11:35:23Z</time>
      </trkpt>
      <trkpt lat="37.826662" lon="-6.215000">
        <ele>493.058</ele>
        <time>2021-10-12T11:35:24Z</time>
      </trkpt>
      <trkpt lat="37.826930" lon="-6.215128">
        <ele>491.671</ele>
        <time>2021-10-12T11:35:25Z</time>
      </trkpt>
      <trkpt lat="37.827209" lon="-6.215256">
        <ele>489.237</ele>
        <time>2021-10-12T11:35:26Z</time>
      </trkpt>
      <trkpt lat="37.827727" lon="-6.215496">
        <ele>487.936</ele>
        <time>2021-10-12T11:35:28Z</time>
      </trkpt>
      <trkpt lat="37.828259" lon="-6.215749">
        <ele>484.336</ele>
        <time>2021-10-12T11:35:30Z</time>
      </trkpt>
      <trkpt lat="37.828810" lon="-6.216014">
        <ele>483.737</ele>
        <time>2021-10-12T11:35:32Z</time>
      </trkpt>
      <trkpt lat="37.829353" lon="-6.216274">
        <ele>479.956</ele>
        <time>2021-10-12T11:35:34Z</time>
      </trkpt>
      <trkpt lat="37.829631" lon="-6.216408">
        <ele>479.059</ele>
        <time>2021-10-12T11:35:35Z</time>
      </trkpt>
      <trkpt lat="37.829903" lon="-6.216543">
        <ele>480.214</ele>
        <time>2021-10-12T11:35:36Z</time>
      </trkpt>
      <trkpt lat="37.830436" lon="-6.216808">
        <ele>482.808</ele>
        <time>2021-10-12T11:35:38Z</time>
      </trkpt>
      <trkpt lat="37.830913" lon="-6.217045">
        <ele>483.793</ele>
        <time>2021-10-12T11:35:40Z</time>
      </trkpt>
      <trkpt lat="37.831146" lon="-6.217160">
        <ele>482.831</ele>
        <time>2021-10-12T11:35:41Z</time>
      </trkpt>
      <trkpt lat="37.831380" lon="-6.217272">
        <ele>482.017</ele>
        <time>2021-10-12T11:35:42Z</time>
      </trkpt>
      <trkpt lat="37.831852" lon="-6.217500">
        <ele>482.790</ele>
        <time>2021-10-12T11:35:44Z</time>
      </trkpt>
      <trkpt lat="37.832314" lon="-6.217720">
        <ele>484.396</ele>
        <time>2021-10-12T11:35:46Z</time>
      </trkpt>
      <trkpt lat="37.832784" lon="-6.217953">
        <ele>486.765</ele>
        <time>2021-10-12T11:35:48Z</time>
      </trkpt>
      <trkpt lat="37.833023" lon="-6.218070">
        <ele>487.975</ele>
        <time>2021-10-12T11:35:49Z</time>
      </trkpt>
      <trkpt lat="37.833260" lon="-6.218188">
        <ele>486.686</ele>
        <time>2021-10-12T11:35:50Z</time>
      </trkpt>
      <trkpt lat="37.833727" lon="-6.218442">
        <ele>485.658</ele>
        <time>2021-10-12T11:35:52Z</time>
      </trkpt>
      <trkpt lat="37.833969" lon="-6.218588">
        <ele>485.152</ele>
        <time>2021-10-12T11:35:53Z</time>
      </trkpt>
      <trkpt lat="37.834465" lon="-6.218887">
        <ele>480.117</ele>
        <time>2021-10-12T11:35:55Z</time>
      </trkpt>
      <trkpt lat="37.834720" lon="-6.219040">
        <ele>481.008</ele>
        <time>2021-10-12T11:35:56Z</time>
      </trkpt>
      <trkpt lat="37.835204" lon="-6.219306">
        <ele>482.113</ele>
        <time>2021-10-12T11:35:58Z</time>
      </trkpt>
      <trkpt lat="37.835443" lon="-6.219402">
        <ele>480.981</ele>
        <time>2021-10-12T11:35:59Z</time>
      </trkpt>
      <trkpt lat="37.835923" lon="-6.219459">
        <ele>478.727</ele>
        <time>2021-10-12T11:36:01Z</time>
      </trkpt>
      <trkpt lat="37.836174" lon="-6.219411">
        <ele>477.860</ele>
        <time>2021-10-12T11:36:02Z</time>
      </trkpt>
      <trkpt lat="37.836652" lon="-6.219173">
        <ele>478.076</ele>
        <time>2021-10-12T11:36:04Z</time>
      </trkpt>
      <trkpt lat="37.836887" lon="-6.219001">
        <ele>479.615</ele>
        <time>2021-10-12T11:36:05Z</time>
      </trkpt>
      <trkpt lat="37.837361" lon="-6.218629">
        <ele>478.585</ele>
        <time>2021-10-12T11:36:07Z</time>
      </trkpt>
      <trkpt lat="37.837610" lon="-6.218446">
        <ele>477.076</ele>
        <time>2021-10-12T11:36:08Z</time>
      </trkpt>
      <trkpt lat="37.838096" lon="-6.218099">
        <ele>476.277</ele>
        <time>2021-10-12T11:36:10Z</time>
      </trkpt>
      <trkpt lat="37.838343" lon="-6.217924">
        <ele>475.561</ele>
        <time>2021-10-12T11:36:11Z</time>
      </trkpt>
      <trkpt lat="37.838816" lon="-6.217592">
        <ele>473.927</ele>
        <time>2021-10-12T11:36:13Z</time>
      </trkpt>
      <trkpt lat="37.839026" lon="-6.217446">
        <ele>474.108</ele>
        <time>2021-10-12T11:36:14Z</time>
      </trkpt>
      <trkpt lat="37.839381" lon="-6.217205">
        <ele>474.355</ele>
        <time>2021-10-12T11:36:16Z</time>
      </trkpt>
      <trkpt lat="37.839729" lon="-6.217047">
        <ele>473.073</ele>
        <time>2021-10-12T11:36:18Z</time>
      </trkpt>
      <trkpt lat="37.840122" lon="-6.216990">
        <ele>473.569</ele>
        <time>2021-10-12T11:36:20Z</time>
      </trkpt>
      <trkpt lat="37.840528" lon="-6.217018">
        <ele>474.542</ele>
        <time>2021-10-12T11:36:22Z</time>
      </trkpt>
      <trkpt lat="37.840736" lon="-6.217062">
        <ele>474.898</ele>
        <time>2021-10-12T11:36:23Z</time>
      </trkpt>
      <trkpt lat="37.841149" lon="-6.217226">
        <ele>475.057</ele>
        <time>2021-10-12T11:36:25Z</time>
      </trkpt>
      <trkpt lat="37.841362" lon="-6.217336">
        <ele>475.977</ele>
        <time>2021-10-12T11:36:26Z</time>
      </trkpt>
      <trkpt lat="37.841768" lon="-6.217538">
        <ele>474.388</ele>
        <time>2021-10-12T11:36:28Z</time>
      </trkpt>
      <trkpt lat="37.841975" lon="-6.217638">
        <ele>472.984</ele>
        <time>2021-10-12T11:36:29Z</time>
      </trkpt>
      <trkpt lat="37.842169" lon="-6.217730">
        <ele>472.907</ele>
        <time>2021-10-12T11:36:30Z</time>
      </trkpt>
      <trkpt lat="37.842534" lon="-6.217896">
        <ele>471.417</ele>
        <time>2021-10-12T11:36:32Z</time>
      </trkpt>
      <trkpt lat="37.842873" lon="-6.218059">
        <ele>472.408</ele>
        <time>2021-10-12T11:36:34Z</time>
      </trkpt>
      <trkpt lat="37.843056" lon="-6.218148">
        <ele>473.356</ele>
        <time>2021-10-12T11:36:35Z</time>
      </trkpt>
      <trkpt lat="37.843257" lon="-6.218242">
        <ele>474.414</ele>
        <time>2021-10-12T11:36:36Z</time>
      </trkpt>
      <trkpt lat="37.843693" lon="-6.218454">
        <ele>474.660</ele>
        <time>2021-10-12T11:36:38Z</time>
      </trkpt>
      <trkpt lat="37.844124" lon="-6.218637">
        <ele>473.013</ele>
        <time>2021-10-12T11:36:40Z</time>
      </trkpt>
      <trkpt lat="37.844350" lon="-6.218705">
        <ele>473.099</ele>
        <time>2021-10-12T11:36:41Z</time>
      </trkpt>
      <trkpt lat="37.844815" lon="-6.218766">
        <ele>472.348</ele>
        <time>2021-10-12T11:36:43Z</time>
      </trkpt>
      <trkpt lat="37.845058" lon="-6.218764">
        <ele>473.378</ele>
        <time>2021-10-12T11:36:44Z</time>
      </trkpt>
      <trkpt lat="37.845512" lon="-6.218705">
        <ele>474.959</ele>
        <time>2021-10-12T11:36:46Z</time>
      </trkpt>
      <trkpt lat="37.845729" lon="-6.218636">
        <ele>473.845</ele>
        <time>2021-10-12T11:36:47Z</time>
      </trkpt>
      <trkpt lat="37.846138" lon="-6.218441">
        <ele>471.847</ele>
        <time>2021-10-12T11:36:49Z</time>
      </trkpt>
      <trkpt lat="37.846341" lon="-6.218316">
        <ele>470.311</ele>
        <time>2021-10-12T11:36:50Z</time>
      </trkpt>
      <trkpt lat="37.846751" lon="-6.218029">
        <ele>466.708</ele>
        <time>2021-10-12T11:36:52Z</time>
      </trkpt>
      <trkpt lat="37.847176" lon="-6.217720">
        <ele>468.892</ele>
        <time>2021-10-12T11:36:54Z</time>
      </trkpt>
      <trkpt lat="37.847602" lon="-6.217413">
        <ele>467.680</ele>
        <time>2021-10-12T11:36:56Z</time>
      </trkpt>
      <trkpt lat="37.847998" lon="-6.217131">
        <ele>467.116</ele>
        <time>2021-10-12T11:36:58Z</time>
      </trkpt>
      <trkpt lat="37.848201" lon="-6.216987">
        <ele>467.719</ele>
        <time>2021-10-12T11:36:59Z</time>
      </trkpt>
      <trkpt lat="37.848582" lon="-6.216717">
        <ele>468.055</ele>
        <time>2021-10-12T11:37:01Z</time>
      </trkpt>
      <trkpt lat="37.848770" lon="-6.216582">
        <ele>469.134</ele>
        <time>2021-10-12T11:37:02Z</time>
      </trkpt>
      <trkpt lat="37.849128" lon="-6.216319">
        <ele>469.264</ele>
        <time>2021-10-12T11:37:04Z</time>
      </trkpt>
      <trkpt lat="37.849495" lon="-6.216056">
        <ele>467.595</ele>
        <time>2021-10-12T11:37:06Z</time>
      </trkpt>
      <trkpt lat="37.849688" lon="-6.215933">
        <ele>465.491</ele>
        <time>2021-10-12T11:37:07Z</time>
      </trkpt>
      <trkpt lat="37.849893" lon="-6.215816">
        <ele>464.581</ele>
        <time>2021-10-12T11:37:08Z</time>
      </trkpt>
      <trkpt lat="37.850322" lon="-6.215623">
        <ele>466.619</ele>
        <time>2021-10-12T11:37:10Z</time>
      </trkpt>
      <trkpt lat="37.850551" lon="-6.215544">
        <ele>467.008</ele>
        <time>2021-10-12T11:37:11Z</time>
      </trkpt>
      <trkpt lat="37.851016" lon="-6.215434">
        <ele>464.997</ele>
        <time>2021-10-12T11:37:13Z</time>
      </trkpt>
      <trkpt lat="37.851260" lon="-6.215400">
        <ele>463.455</ele>
        <time>2021-10-12T11:37:14Z</time>
      </trkpt>
      <trkpt lat="37.851744" lon="-6.215357">
        <ele>460.761</ele>
        <time>2021-10-12T11:37:16Z</time>
      </trkpt>
      <trkpt lat="37.851992" lon="-6.215340">
        <ele>459.044</ele>
        <time>2021-10-12T11:37:17Z</time>
      </trkpt>
      <trkpt lat="37.852477" lon="-6.215308">
        <ele>456.310</ele>
        <time>2021-10-12T11:37:19Z</time>
      </trkpt>
      <trkpt lat="37.852720" lon="-6.215305">
        <ele>456.069</ele>
        <time>2021-10-12T11:37:20Z</time>
      </trkpt>
      <trkpt lat="37.853149" lon="-6.215330">
        <ele>454.069</ele>
        <time>2021-10-12T11:37:22Z</time>
      </trkpt>
      <trkpt lat="37.853558" lon="-6.215380">
        <ele>452.820</ele>
        <time>2021-10-12T11:37:24Z</time>
      </trkpt>
      <trkpt lat="37.853764" lon="-6.215414">
        <ele>452.284</ele>
        <time>2021-10-12T11:37:25Z</time>
      </trkpt>
      <trkpt lat="37.853976" lon="-6.215454">
        <ele>451.707</ele>
        <time>2021-10-12T11:37:26Z</time>
      </trkpt>
      <trkpt lat="37.854415" lon="-6.215578">
        <ele>450.117</ele>
        <time>2021-10-12T11:37:28Z</time>
      </trkpt>
      <trkpt lat="37.854635" lon="-6.215666">
        <ele>450.408</ele>
        <time>2021-10-12T11:37:29Z</time>
      </trkpt>
      <trkpt lat="37.854860" lon="-6.215767">
        <ele>451.776</ele>
        <time>2021-10-12T11:37:30Z</time>
      </trkpt>
      <trkpt lat="37.855087" lon="-6.215867">
        <ele>453.644</ele>
        <time>2021-10-12T11:37:31Z</time>
      </trkpt>
      <trkpt lat="37.855317" lon="-6.215962">
        <ele>454.360</ele>
        <time>2021-10-12T11:37:32Z</time>
      </trkpt>
      <trkpt lat="37.855752" lon="-6.216147">
        <ele>455.953</ele>
        <time>2021-10-12T11:37:34Z</time>
      </trkpt>
      <trkpt lat="37.856158" lon="-6.216307">
        <ele>459.629</ele>
        <time>2021-10-12T11:37:36Z</time>
      </trkpt>
      <trkpt lat="37.856532" lon="-6.216456">
        <ele>462.318</ele>
        <time>2021-10-12T11:37:38Z</time>
      </trkpt>
      <trkpt lat="37.856915" lon="-6.216590">
        <ele>463.358</ele>
        <time>2021-10-12T11:37:40Z</time>
      </trkpt>
      <trkpt lat="37.857327" lon="-6.216685">
        <ele>460.589</ele>
        <time>2021-10-12T11:37:42Z</time>
      </trkpt>
      <trkpt lat="37.857778" lon="-6.216772">
        <ele>457.666</ele>
        <time>2021-10-12T11:37:44Z</time>
      </trkpt>
      <trkpt lat="37.858256" lon="-6.216860">
        <ele>458.629</ele>
        <time>2021-10-12T11:37:46Z</time>
      </trkpt>
      <trkpt lat="37.858512" lon="-6.216899">
        <ele>457.021</ele>
        <time>2021-10-12T11:37:47Z</time>
      </trkpt>
      <trkpt lat="37.858771" lon="-6.216930">
        <ele>453.808</ele>
        <time>2021-10-12T11:37:48Z</time>
      </trkpt>
      <trkpt lat="37.859036" lon="-6.216955">
        <ele>450.424</ele>
        <time>2021-10-12T11:37:49Z</time>
      </trkpt>
      <trkpt lat="37.859308" lon="-6.216969">
        <ele>448.092</ele>
        <time>2021-10-12T11:37:50Z</time>
      </trkpt>
      <trkpt lat="37.859836" lon="-6.216982">
        <ele>445.768</ele>
        <time>2021-10-12T11:37:52Z</time>
      </trkpt>
      <trkpt lat="37.860346" lon="-6.217040">
        <ele>445.271</ele>
        <time>2021-10-12T11:37:54Z</time>
      </trkpt>
      <trkpt lat="37.860818" lon="-6.217143">
        <ele>446.977</ele>
        <time>2021-10-12T11:37:56Z</time>
      </trkpt>
      <trkpt lat="37.861265" lon="-6.217253">
        <ele>449.136</ele>
        <time>2021-10-12T11:37:58Z</time>
      </trkpt>
      <trkpt lat="37.861496" lon="-6.217309">
        <ele>450.776</ele>
        <time>2021-10-12T11:37:59Z</time>
      </trkpt>
      <trkpt lat="37.861971" lon="-6.217419">
        <ele>451.657</ele>
        <time>2021-10-12T11:38:01Z</time>
      </trkpt>
      <trkpt lat="37.862222" lon="-6.217471">
        <ele>451.379</ele>
        <time>2021-10-12T11:38:02Z</time>
      </trkpt>
      <trkpt lat="37.862709" lon="-6.217556">
        <ele>454.205</ele>
        <time>2021-10-12T11:38:04Z</time>
      </trkpt>
      <trkpt lat="37.863181" lon="-6.217631">
        <ele>454.425</ele>
        <time>2021-10-12T11:38:06Z</time>
      </trkpt>
      <trkpt lat="37.863416" lon="-6.217666">
        <ele>453.708</ele>
        <time>2021-10-12T11:38:07Z</time>
      </trkpt>
      <trkpt lat="37.863652" lon="-6.217701">
        <ele>454.895</ele>
        <time>2021-10-12T11:38:08Z</time>
      </trkpt>
      <trkpt lat="37.864102" lon="-6.217764">
        <ele>456.993</ele>
        <time>2021-10-12T11:38:10Z</time>
      </trkpt>
      <trkpt lat="37.864333" lon="-6.217794">
        <ele>458.259</ele>
        <time>2021-10-12T11:38:11Z</time>
      </trkpt>
      <trkpt lat="37.864566" lon="-6.217807">
        <ele>458.942</ele>
        <time>2021-10-12T11:38:12Z</time>
      </trkpt>
      <trkpt lat="37.865048" lon="-6.217787">
        <ele>456.078</ele>
        <time>2021-10-12T11:38:14Z</time>
      </trkpt>
      <trkpt lat="37.865535" lon="-6.217744">
        <ele>458.227</ele>
        <time>2021-10-12T11:38:16Z</time>
      </trkpt>
      <trkpt lat="37.865785" lon="-6.217733">
        <ele>460.077</ele>
        <time>2021-10-12T11:38:17Z</time>
      </trkpt>
      <trkpt lat="37.866038" lon="-6.217742">
        <ele>460.928</ele>
        <time>2021-10-12T11:38:18Z</time>
      </trkpt>
      <trkpt lat="37.866535" lon="-6.217843">
        <ele>460.565</ele>
        <time>2021-10-12T11:38:20Z</time>
      </trkpt>
      <trkpt lat="37.866984" lon="-6.218052">
        <ele>460.468</ele>
        <time>2021-10-12T11:38:22Z</time>
      </trkpt>
      <trkpt lat="37.867203" lon="-6.218165">
        <ele>462.114</ele>
        <time>2021-10-12T11:38:23Z</time>
      </trkpt>
      <trkpt lat="37.867636" lon="-6.218373">
        <ele>464.308</ele>
        <time>2021-10-12T11:38:25Z</time>
      </trkpt>
      <trkpt lat="37.867855" lon="-6.218476">
        <ele>465.564</ele>
        <time>2021-10-12T11:38:26Z</time>
      </trkpt>
      <trkpt lat="37.868280" lon="-6.218664">
        <ele>468.242</ele>
        <time>2021-10-12T11:38:28Z</time>
      </trkpt>
      <trkpt lat="37.868734" lon="-6.218780">
        <ele>470.878</ele>
        <time>2021-10-12T11:38:30Z</time>
      </trkpt>
      <trkpt lat="37.868971" lon="-6.218785">
        <ele>470.981</ele>
        <time>2021-10-12T11:38:31Z</time>
      </trkpt>
      <trkpt lat="37.869216" lon="-6.218750">
        <ele>471.667</ele>
        <time>2021-10-12T11:38:32Z</time>
      </trkpt>
      <trkpt lat="37.869684" lon="-6.218587">
        <ele>472.996</ele>
        <time>2021-10-12T11:38:34Z</time>
      </trkpt>
      <trkpt lat="37.870137" lon="-6.218404">
        <ele>473.616</ele>
        <time>2021-10-12T11:38:36Z</time>
      </trkpt>
      <trkpt lat="37.870353" lon="-6.218334">
        <ele>474.337</ele>
        <time>2021-10-12T11:38:37Z</time>
      </trkpt>
      <trkpt lat="37.870561" lon="-6.218283">
        <ele>475.034</ele>
        <time>2021-10-12T11:38:38Z</time>
      </trkpt>
      <trkpt lat="37.870936" lon="-6.218267">
        <ele>475.355</ele>
        <time>2021-10-12T11:38:40Z</time>
      </trkpt>
      <trkpt lat="37.871112" lon="-6.218284">
        <ele>475.810</ele>
        <time>2021-10-12T11:38:41Z</time>
      </trkpt>
      <trkpt lat="37.871277" lon="-6.218303">
        <ele>477.008</ele>
        <time>2021-10-12T11:38:42Z</time>
      </trkpt>
      <trkpt lat="37.871588" lon="-6.218332">
        <ele>478.711</ele>
        <time>2021-10-12T11:38:44Z</time>
      </trkpt>
      <trkpt lat="37.871859" lon="-6.218354">
        <ele>479.849</ele>
        <time>2021-10-12T11:38:46Z</time>
      </trkpt>
      <trkpt lat="37.872136" lon="-6.218372">
        <ele>481.615</ele>
        <time>2021-10-12T11:38:48Z</time>
      </trkpt>
      <trkpt lat="37.872414" lon="-6.218404">
        <ele>481.688</ele>
        <time>2021-10-12T11:38:50Z</time>
      </trkpt>
      <trkpt lat="37.872701" lon="-6.218455">
        <ele>480.414</ele>
        <time>2021-10-12T11:38:52Z</time>
      </trkpt>
      <trkpt lat="37.872857" lon="-6.218477">
        <ele>479.433</ele>
        <time>2021-10-12T11:38:53Z</time>
      </trkpt>
      <trkpt lat="37.873022" lon="-6.218493">
        <ele>478.233</ele>
        <time>2021-10-12T11:38:54Z</time>
      </trkpt>
      <trkpt lat="37.873196" lon="-6.218506">
        <ele>477.724</ele>
        <time>2021-10-12T11:38:55Z</time>
      </trkpt>
      <trkpt lat="37.873384" lon="-6.218527">
        <ele>477.258</ele>
        <time>2021-10-12T11:38:56Z</time>
      </trkpt>
      <trkpt lat="37.873766" lon="-6.218601">
        <ele>475.052</ele>
        <time>2021-10-12T11:38:58Z</time>
      </trkpt>
      <trkpt lat="37.873974" lon="-6.218643">
        <ele>473.817</ele>
        <time>2021-10-12T11:38:59Z</time>
      </trkpt>
      <trkpt lat="37.874390" lon="-6.218724">
        <ele>473.208</ele>
        <time>2021-10-12T11:39:01Z</time>
      </trkpt>
      <trkpt lat="37.874610" lon="-6.218767">
        <ele>472.993</ele>
        <time>2021-10-12T11:39:02Z</time>
      </trkpt>
      <trkpt lat="37.875055" lon="-6.218850">
        <ele>471.261</ele>
        <time>2021-10-12T11:39:04Z</time>
      </trkpt>
      <trkpt lat="37.875293" lon="-6.218890">
        <ele>469.917</ele>
        <time>2021-10-12T11:39:05Z</time>
      </trkpt>
      <trkpt lat="37.875534" lon="-6.218931">
        <ele>468.990</ele>
        <time>2021-10-12T11:39:06Z</time>
      </trkpt>
      <trkpt lat="37.875785" lon="-6.218979">
        <ele>466.516</ele>
        <time>2021-10-12T11:39:07Z</time>
      </trkpt>
      <trkpt lat="37.876052" lon="-6.219024">
        <ele>465.675</ele>
        <time>2021-10-12T11:39:08Z</time>
      </trkpt>
      <trkpt lat="37.876593" lon="-6.219117">
        <ele>462.065</ele>
        <time>2021-10-12T11:39:10Z</time>
      </trkpt>
      <trkpt lat="37.876873" lon="-6.219168">
        <ele>458.866</ele>
        <time>2021-10-12T11:39:11Z</time>
      </trkpt>
      <trkpt lat="37.877445" lon="-6.219272">
        <ele>457.852</ele>
        <time>2021-10-12T11:39:13Z</time>
      </trkpt>
      <trkpt lat="37.877747" lon="-6.219327">
        <ele>458.553</ele>
        <time>2021-10-12T11:39:14Z</time>
      </trkpt>
      <trkpt lat="37.878326" lon="-6.219430">
        <ele>464.908</ele>
        <time>2021-10-12T11:39:16Z</time>
      </trkpt>
      <trkpt lat="37.878852" lon="-6.219489">
        <ele>472.908</ele>
        <time>2021-10-12T11:39:18Z</time>
      </trkpt>
      <trkpt lat="37.879092" lon="-6.219497">
        <ele>473.173</ele>
        <time>2021-10-12T11:39:19Z</time>
      </trkpt>
      <trkpt lat="37.879334" lon="-6.219499">
        <ele>473.651</ele>
        <time>2021-10-12T11:39:20Z</time>
      </trkpt>
      <trkpt lat="37.879809" lon="-6.219471">
        <ele>471.767</ele>
        <time>2021-10-12T11:39:22Z</time>
      </trkpt>
      <trkpt lat="37.880319" lon="-6.219406">
        <ele>465.440</ele>
        <time>2021-10-12T11:39:24Z</time>
      </trkpt>
      <trkpt lat="37.880583" lon="-6.219363">
        <ele>461.326</ele>
        <time>2021-10-12T11:39:25Z</time>
      </trkpt>
      <trkpt lat="37.880858" lon="-6.219315">
        <ele>458.915</ele>
        <time>2021-10-12T11:39:26Z</time>
      </trkpt>
      <trkpt lat="37.881382" lon="-6.219226">
        <ele>458.665</ele>
        <time>2021-10-12T11:39:28Z</time>
      </trkpt>
      <trkpt lat="37.881911" lon="-6.219138">
        <ele>461.936</ele>
        <time>2021-10-12T11:39:30Z</time>
      </trkpt>
      <trkpt lat="37.882167" lon="-6.219095">
        <ele>459.925</ele>
        <time>2021-10-12T11:39:31Z</time>
      </trkpt>
      <trkpt lat="37.882404" lon="-6.219054">
        <ele>457.926</ele>
        <time>2021-10-12T11:39:32Z</time>
      </trkpt>
      <trkpt lat="37.882842" lon="-6.218972">
        <ele>456.508</ele>
        <time>2021-10-12T11:39:34Z</time>
      </trkpt>
      <trkpt lat="37.883285" lon="-6.218896">
        <ele>456.208</ele>
        <time>2021-10-12T11:39:36Z</time>
      </trkpt>
      <trkpt lat="37.883497" lon="-6.218871">
        <ele>456.280</ele>
        <time>2021-10-12T11:39:37Z</time>
      </trkpt>
      <trkpt lat="37.883719" lon="-6.218873">
        <ele>455.978</ele>
        <time>2021-10-12T11:39:38Z</time>
      </trkpt>
      <trkpt lat="37.884154" lon="-6.218978">
        <ele>454.784</ele>
        <time>2021-10-12T11:39:40Z</time>
      </trkpt>
      <trkpt lat="37.884589" lon="-6.219236">
        <ele>454.947</ele>
        <time>2021-10-12T11:39:42Z</time>
      </trkpt>
      <trkpt lat="37.884998" lon="-6.219621">
        <ele>454.643</ele>
        <time>2021-10-12T11:39:44Z</time>
      </trkpt>
      <trkpt lat="37.885431" lon="-6.219924">
        <ele>454.852</ele>
        <time>2021-10-12T11:39:46Z</time>
      </trkpt>
      <trkpt lat="37.885672" lon="-6.220026">
        <ele>455.252</ele>
        <time>2021-10-12T11:39:47Z</time>
      </trkpt>
      <trkpt lat="37.885922" lon="-6.220103">
        <ele>455.673</ele>
        <time>2021-10-12T11:39:48Z</time>
      </trkpt>
      <trkpt lat="37.886433" lon="-6.220218">
        <ele>455.155</ele>
        <time>2021-10-12T11:39:50Z</time>
      </trkpt>
      <trkpt lat="37.886931" lon="-6.220204">
        <ele>458.107</ele>
        <time>2021-10-12T11:39:52Z</time>
      </trkpt>
      <trkpt lat="37.887164" lon="-6.220129">
        <ele>458.217</ele>
        <time>2021-10-12T11:39:53Z</time>
      </trkpt>
      <trkpt lat="37.887387" lon="-6.220020">
        <ele>457.208</ele>
        <time>2021-10-12T11:39:54Z</time>
      </trkpt>
      <trkpt lat="37.887614" lon="-6.219899">
        <ele>455.973</ele>
        <time>2021-10-12T11:39:55Z</time>
      </trkpt>
      <trkpt lat="37.887855" lon="-6.219775">
        <ele>454.491</ele>
        <time>2021-10-12T11:39:56Z</time>
      </trkpt>
      <trkpt lat="37.888324" lon="-6.219545">
        <ele>457.687</ele>
        <time>2021-10-12T11:39:58Z</time>
      </trkpt>
      <trkpt lat="37.888570" lon="-6.219433">
        <ele>461.280</ele>
        <time>2021-10-12T11:39:59Z</time>
      </trkpt>
      <trkpt lat="37.888818" lon="-6.219344">
        <ele>461.666</ele>
        <time>2021-10-12T11:40:00Z</time>
      </trkpt>
      <trkpt lat="37.889334" lon="-6.219286">
        <ele>459.135</ele>
        <time>2021-10-12T11:40:02Z</time>
      </trkpt>
      <trkpt lat="37.889855" lon="-6.219367">
        <ele>459.925</ele>
        <time>2021-10-12T11:40:04Z</time>
      </trkpt>
      <trkpt lat="37.890124" lon="-6.219425">
        <ele>461.146</ele>
        <time>2021-10-12T11:40:05Z</time>
      </trkpt>
      <trkpt lat="37.890654" lon="-6.219565">
        <ele>463.112</ele>
        <time>2021-10-12T11:40:07Z</time>
      </trkpt>
      <trkpt lat="37.890926" lon="-6.219654">
        <ele>463.232</ele>
        <time>2021-10-12T11:40:08Z</time>
      </trkpt>
      <trkpt lat="37.891460" lon="-6.219835">
        <ele>459.605</ele>
        <time>2021-10-12T11:40:10Z</time>
      </trkpt>
      <trkpt lat="37.891732" lon="-6.219927">
        <ele>459.108</ele>
        <time>2021-10-12T11:40:11Z</time>
      </trkpt>
      <trkpt lat="37.892277" lon="-6.220121">
        <ele>462.199</ele>
        <time>2021-10-12T11:40:13Z</time>
      </trkpt>
      <trkpt lat="37.892555" lon="-6.220232">
        <ele>459.777</ele>
        <time>2021-10-12T11:40:14Z</time>
      </trkpt>
      <trkpt lat="37.893072" lon="-6.220489">
        <ele>459.683</ele>
        <time>2021-10-12T11:40:16Z</time>
      </trkpt>
      <trkpt lat="37.893536" lon="-6.220773">
        <ele>461.966</ele>
        <time>2021-10-12T11:40:18Z</time>
      </trkpt>
      <trkpt lat="37.893965" lon="-6.221026">
        <ele>463.482</ele>
        <time>2021-10-12T11:40:20Z</time>
      </trkpt>
      <trkpt lat="37.894397" lon="-6.221232">
        <ele>462.251</ele>
        <time>2021-10-12T11:40:22Z</time>
      </trkpt>
      <trkpt lat="37.894887" lon="-6.221337">
        <ele>465.011</ele>
        <time>2021-10-12T11:40:24Z</time>
      </trkpt>
      <trkpt lat="37.895147" lon="-6.221342">
        <ele>467.612</ele>
        <time>2021-10-12T11:40:25Z</time>
      </trkpt>
      <trkpt lat="37.895419" lon="-6.221335">
        <ele>468.128</ele>
        <time>2021-10-12T11:40:26Z</time>
      </trkpt>
      <trkpt lat="37.895940" lon="-6.221335">
        <ele>467.189</ele>
        <time>2021-10-12T11:40:28Z</time>
      </trkpt>
      <trkpt lat="37.896486" lon="-6.221397">
        <ele>467.417</ele>
        <time>2021-10-12T11:40:30Z</time>
      </trkpt>
      <trkpt lat="37.897042" lon="-6.221537">
        <ele>465.908</ele>
        <time>2021-10-12T11:40:32Z</time>
      </trkpt>
      <trkpt lat="37.897580" lon="-6.221681">
        <ele>466.840</ele>
        <time>2021-10-12T11:40:34Z</time>
      </trkpt>
      <trkpt lat="37.898103" lon="-6.221788">
        <ele>467.918</ele>
        <time>2021-10-12T11:40:36Z</time>
      </trkpt>
      <trkpt lat="37.898581" lon="-6.221853">
        <ele>469.324</ele>
        <time>2021-10-12T11:40:38Z</time>
      </trkpt>
      <trkpt lat="37.899004" lon="-6.221891">
        <ele>470.897</ele>
        <time>2021-10-12T11:40:40Z</time>
      </trkpt>
      <trkpt lat="37.899217" lon="-6.221890">
        <ele>471.333</ele>
        <time>2021-10-12T11:40:41Z</time>
      </trkpt>
      <trkpt lat="37.899430" lon="-6.221856">
        <ele>470.792</ele>
        <time>2021-10-12T11:40:42Z</time>
      </trkpt>
      <trkpt lat="37.899848" lon="-6.221672">
        <ele>472.472</ele>
        <time>2021-10-12T11:40:44Z</time>
      </trkpt>
      <trkpt lat="37.900199" lon="-6.221412">
        <ele>474.313</ele>
        <time>2021-10-12T11:40:46Z</time>
      </trkpt>
      <trkpt lat="37.900364" lon="-6.221308">
        <ele>474.838</ele>
        <time>2021-10-12T11:40:47Z</time>
      </trkpt>
      <trkpt lat="37.900696" lon="-6.221183">
        <ele>474.870</ele>
        <time>2021-10-12T11:40:49Z</time>
      </trkpt>
      <trkpt lat="37.900868" lon="-6.221154">
        <ele>474.017</ele>
        <time>2021-10-12T11:40:50Z</time>
      </trkpt>
      <trkpt lat="37.901217" lon="-6.221156">
        <ele>473.108</ele>
        <time>2021-10-12T11:40:52Z</time>
      </trkpt>
      <trkpt lat="37.901389" lon="-6.221172">
        <ele>473.081</ele>
        <time>2021-10-12T11:40:53Z</time>
      </trkpt>
      <trkpt lat="37.901551" lon="-6.221187">
        <ele>472.819</ele>
        <time>2021-10-12T11:40:54Z</time>
      </trkpt>
      <trkpt lat="37.901858" lon="-6.221203">
        <ele>472.415</ele>
        <time>2021-10-12T11:40:56Z</time>
      </trkpt>
      <trkpt lat="37.902124" lon="-6.221211">
        <ele>474.568</ele>
        <time>2021-10-12T11:40:58Z</time>
      </trkpt>
      <trkpt lat="37.902256" lon="-6.221214">
        <ele>476.334</ele>
        <time>2021-10-12T11:40:59Z</time>
      </trkpt>
      <trkpt lat="37.902377" lon="-6.221209">
        <ele>478.523</ele>
        <time>2021-10-12T11:41:00Z</time>
      </trkpt>
      <trkpt lat="37.902593" lon="-6.221177">
        <ele>480.443</ele>
        <time>2021-10-12T11:41:02Z</time>
      </trkpt>
      <trkpt lat="37.902784" lon="-6.221224">
        <ele>480.474</ele>
        <time>2021-10-12T11:41:04Z</time>
      </trkpt>
      <trkpt lat="37.903009" lon="-6.221321">
        <ele>480.139</ele>
        <time>2021-10-12T11:41:06Z</time>
      </trkpt>
      <trkpt lat="37.903149" lon="-6.221355">
        <ele>480.701</ele>
        <time>2021-10-12T11:41:07Z</time>
      </trkpt>
      <trkpt lat="37.903307" lon="-6.221378">
        <ele>481.821</ele>
        <time>2021-10-12T11:41:08Z</time>
      </trkpt>
      <trkpt lat="37.903589" lon="-6.221409">
        <ele>483.808</ele>
        <time>2021-10-12T11:41:10Z</time>
      </trkpt>
      <trkpt lat="37.903710" lon="-6.221422">
        <ele>484.841</ele>
        <time>2021-10-12T11:41:11Z</time>
      </trkpt>
      <trkpt lat="37.903911" lon="-6.221439">
        <ele>486.389</ele>
        <time>2021-10-12T11:41:13Z</time>
      </trkpt>
      <trkpt lat="37.904003" lon="-6.221446">
        <ele>486.935</ele>
        <time>2021-10-12T11:41:14Z</time>
      </trkpt>
      <trkpt lat="37.904194" lon="-6.221464">
        <ele>488.158</ele>
        <time>2021-10-12T11:41:16Z</time>
      </trkpt>
      <trkpt lat="37.904301" lon="-6.221475">
        <ele>488.364</ele>
        <time>2021-10-12T11:41:17Z</time>
      </trkpt>
      <trkpt lat="37.904410" lon="-6.221487">
        <ele>488.623</ele>
        <time>2021-10-12T11:41:18Z</time>
      </trkpt>
      <trkpt lat="37.904639" lon="-6.221508">
        <ele>489.313</ele>
        <time>2021-10-12T11:41:20Z</time>
      </trkpt>
      <trkpt lat="37.904864" lon="-6.221547">
        <ele>490.564</ele>
        <time>2021-10-12T11:41:22Z</time>
      </trkpt>
      <trkpt lat="37.904975" lon="-6.221589">
        <ele>491.126</ele>
        <time>2021-10-12T11:41:23Z</time>
      </trkpt>
      <trkpt lat="37.905084" lon="-6.221649">
        <ele>491.347</ele>
        <time>2021-10-12T11:41:24Z</time>
      </trkpt>
      <trkpt lat="37.905287" lon="-6.221801">
        <ele>491.611</ele>
        <time>2021-10-12T11:41:26Z</time>
      </trkpt>
      <trkpt lat="37.905480" lon="-6.221967">
        <ele>493.208</ele>
        <time>2021-10-12T11:41:28Z</time>
      </trkpt>
      <trkpt lat="37.905697" lon="-6.222149">
        <ele>495.990</ele>
        <time>2021-10-12T11:41:30Z</time>
      </trkpt>
      <trkpt lat="37.905914" lon="-6.222327">
        <ele>499.598</ele>
        <time>2021-10-12T11:41:32Z</time>
      </trkpt>
      <trkpt lat="37.906103" lon="-6.222482">
        <ele>501.994</ele>
        <time>2021-10-12T11:41:34Z</time>
      </trkpt>
      <trkpt lat="37.906297" lon="-6.222645">
        <ele>502.277</ele>
        <time>2021-10-12T11:41:36Z</time>
      </trkpt>
      <trkpt lat="37.906390" lon="-6.222729">
        <ele>502.053</ele>
        <time>2021-10-12T11:41:37Z</time>
      </trkpt>
      <trkpt lat="37.906470" lon="-6.222805">
        <ele>502.482</ele>
        <time>2021-10-12T11:41:38Z</time>
      </trkpt>
      <trkpt lat="37.906584" lon="-6.222932">
        <ele>503.362</ele>
        <time>2021-10-12T11:41:40Z</time>
      </trkpt>
      <trkpt lat="37.906630" lon="-6.222995">
        <ele>503.653</ele>
        <time>2021-10-12T11:41:41Z</time>
      </trkpt>
      <trkpt lat="37.906720" lon="-6.223131">
        <ele>503.617</ele>
        <time>2021-10-12T11:41:43Z</time>
      </trkpt>
      <trkpt lat="37.906767" lon="-6.223203">
        <ele>503.587</ele>
        <time>2021-10-12T11:41:44Z</time>
      </trkpt>
      <trkpt lat="37.906855" lon="-6.223346">
        <ele>503.615</ele>
        <time>2021-10-12T11:41:46Z</time>
      </trkpt>
      <trkpt lat="37.906905" lon="-6.223430">
        <ele>503.608</ele>
        <time>2021-10-12T11:41:47Z</time>
      </trkpt>
      <trkpt lat="37.907015" lon="-6.223637">
        <ele>503.019</ele>
        <time>2021-10-12T11:41:49Z</time>
      </trkpt>
      <trkpt lat="37.907073" lon="-6.223754">
        <ele>503.097</ele>
        <time>2021-10-12T11:41:50Z</time>
      </trkpt>
      <trkpt lat="37.907162" lon="-6.223962">
        <ele>502.923</ele>
        <time>2021-10-12T11:41:52Z</time>
      </trkpt>
      <trkpt lat="37.907200" lon="-6.224059">
        <ele>503.086</ele>
        <time>2021-10-12T11:41:53Z</time>
      </trkpt>
      <trkpt lat="37.907267" lon="-6.224259">
        <ele>503.042</ele>
        <time>2021-10-12T11:41:55Z</time>
      </trkpt>
      <trkpt lat="37.907291" lon="-6.224376">
        <ele>503.081</ele>
        <time>2021-10-12T11:41:56Z</time>
      </trkpt>
      <trkpt lat="37.907290" lon="-6.224622">
        <ele>503.661</ele>
        <time>2021-10-12T11:41:58Z</time>
      </trkpt>
      <trkpt lat="37.907271" lon="-6.224757">
        <ele>504.152</ele>
        <time>2021-10-12T11:41:59Z</time>
      </trkpt>
      <trkpt lat="37.907243" lon="-6.224897">
        <ele>504.617</ele>
        <time>2021-10-12T11:42:00Z</time>
      </trkpt>
      <trkpt lat="37.907179" lon="-6.225186">
        <ele>505.587</ele>
        <time>2021-10-12T11:42:02Z</time>
      </trkpt>
      <trkpt lat="37.907124" lon="-6.225445">
        <ele>506.215</ele>
        <time>2021-10-12T11:42:04Z</time>
      </trkpt>
      <trkpt lat="37.907074" lon="-6.225669">
        <ele>506.508</ele>
        <time>2021-10-12T11:42:06Z</time>
      </trkpt>
      <trkpt lat="37.907014" lon="-6.225888">
        <ele>506.299</ele>
        <time>2021-10-12T11:42:08Z</time>
      </trkpt>
      <trkpt lat="37.906949" lon="-6.226129">
        <ele>506.187</ele>
        <time>2021-10-12T11:42:10Z</time>
      </trkpt>
      <trkpt lat="37.906913" lon="-6.226260">
        <ele>506.453</ele>
        <time>2021-10-12T11:42:11Z</time>
      </trkpt>
      <trkpt lat="37.906877" lon="-6.226385">
        <ele>506.716</ele>
        <time>2021-10-12T11:42:12Z</time>
      </trkpt>
      <trkpt lat="37.906842" lon="-6.226498">
        <ele>507.262</ele>
        <time>2021-10-12T11:42:13Z</time>
      </trkpt>
      <trkpt lat="37.906808" lon="-6.226609">
        <ele>507.731</ele>
        <time>2021-10-12T11:42:14Z</time>
      </trkpt>
      <trkpt lat="37.906744" lon="-6.226822">
        <ele>509.051</ele>
        <time>2021-10-12T11:42:16Z</time>
      </trkpt>
      <trkpt lat="37.906681" lon="-6.227037">
        <ele>510.622</ele>
        <time>2021-10-12T11:42:18Z</time>
      </trkpt>
      <trkpt lat="37.906651" lon="-6.227145">
        <ele>511.571</ele>
        <time>2021-10-12T11:42:19Z</time>
      </trkpt>
      <trkpt lat="37.906622" lon="-6.227256">
        <ele>512.141</ele>
        <time>2021-10-12T11:42:20Z</time>
      </trkpt>
      <trkpt lat="37.906569" lon="-6.227469">
        <ele>512.915</ele>
        <time>2021-10-12T11:42:22Z</time>
      </trkpt>
      <trkpt lat="37.906544" lon="-6.227579">
        <ele>513.208</ele>
        <time>2021-10-12T11:42:23Z</time>
      </trkpt>
      <trkpt lat="37.906487" lon="-6.227805">
        <ele>513.475</ele>
        <time>2021-10-12T11:42:25Z</time>
      </trkpt>
      <trkpt lat="37.906457" lon="-6.227933">
        <ele>513.773</ele>
        <time>2021-10-12T11:42:26Z</time>
      </trkpt>
      <trkpt lat="37.906403" lon="-6.228190">
        <ele>514.599</ele>
        <time>2021-10-12T11:42:28Z</time>
      </trkpt>
      <trkpt lat="37.906378" lon="-6.228324">
        <ele>514.962</ele>
        <time>2021-10-12T11:42:29Z</time>
      </trkpt>
      <trkpt lat="37.906353" lon="-6.228590">
        <ele>515.988</ele>
        <time>2021-10-12T11:42:31Z</time>
      </trkpt>
      <trkpt lat="37.906364" lon="-6.228716">
        <ele>516.457</ele>
        <time>2021-10-12T11:42:32Z</time>
      </trkpt>
      <trkpt lat="37.906401" lon="-6.228895">
        <ele>517.097</ele>
        <time>2021-10-12T11:42:34Z</time>
      </trkpt>
      <trkpt lat="37.906411" lon="-6.228962">
        <ele>517.338</ele>
        <time>2021-10-12T11:42:35Z</time>
      </trkpt>
      <trkpt lat="37.906421" lon="-6.229045">
        <ele>517.645</ele>
        <time>2021-10-12T11:42:37Z</time>
      </trkpt>
      <trkpt lat="37.906425" lon="-6.229104">
        <ele>517.847</ele>
        <time>2021-10-12T11:42:39Z</time>
      </trkpt>
      <trkpt lat="37.906434" lon="-6.229185">
        <ele>518.111</ele>
        <time>2021-10-12T11:42:41Z</time>
      </trkpt>
      <trkpt lat="37.906441" lon="-6.229251">
        <ele>518.308</ele>
        <time>2021-10-12T11:42:43Z</time>
      </trkpt>
      <trkpt lat="37.906450" lon="-6.229334">
        <ele>518.682</ele>
        <time>2021-10-12T11:42:51Z</time>
      </trkpt>
      <trkpt lat="37.906455" lon="-6.229417">
        <ele>518.940</ele>
        <time>2021-10-12T11:42:52Z</time>
      </trkpt>
      <trkpt lat="37.906478" lon="-6.229565">
        <ele>519.666</ele>
        <time>2021-10-12T11:42:54Z</time>
      </trkpt>
      <trkpt lat="37.906520" lon="-6.229655">
        <ele>520.139</ele>
        <time>2021-10-12T11:42:56Z</time>
      </trkpt>
      <trkpt lat="37.906606" lon="-6.229740">
        <ele>520.825</ele>
        <time>2021-10-12T11:42:58Z</time>
      </trkpt>
      <trkpt lat="37.906664" lon="-6.229772">
        <ele>521.264</ele>
        <time>2021-10-12T11:42:59Z</time>
      </trkpt>
      <trkpt lat="37.906727" lon="-6.229788">
        <ele>521.184</ele>
        <time>2021-10-12T11:43:00Z</time>
      </trkpt>
      <trkpt lat="37.906862" lon="-6.229801">
        <ele>520.895</ele>
        <time>2021-10-12T11:43:02Z</time>
      </trkpt>
      <trkpt lat="37.906995" lon="-6.229833">
        <ele>520.562</ele>
        <time>2021-10-12T11:43:04Z</time>
      </trkpt>
      <trkpt lat="37.907104" lon="-6.229885">
        <ele>520.383</ele>
        <time>2021-10-12T11:43:06Z</time>
      </trkpt>
      <trkpt lat="37.907146" lon="-6.229907">
        <ele>520.111</ele>
        <time>2021-10-12T11:43:07Z</time>
      </trkpt>
      <trkpt lat="37.907205" lon="-6.229941">
        <ele>519.908</ele>
        <time>2021-10-12T11:43:09Z</time>
      </trkpt>
      <trkpt lat="37.907271" lon="-6.229979">
        <ele>519.984</ele>
        <time>2021-10-12T11:43:11Z</time>
      </trkpt>
      <trkpt lat="37.907319" lon="-6.230005">
        <ele>520.072</ele>
        <time>2021-10-12T11:43:12Z</time>
      </trkpt>
      <trkpt lat="37.907448" lon="-6.230062">
        <ele>520.278</ele>
        <time>2021-10-12T11:43:14Z</time>
      </trkpt>
      <trkpt lat="37.907612" lon="-6.230099">
        <ele>520.131</ele>
        <time>2021-10-12T11:43:16Z</time>
      </trkpt>
      <trkpt lat="37.907806" lon="-6.230102">
        <ele>519.767</ele>
        <time>2021-10-12T11:43:18Z</time>
      </trkpt>
      <trkpt lat="37.908018" lon="-6.230097">
        <ele>519.456</ele>
        <time>2021-10-12T11:43:20Z</time>
      </trkpt>
      <trkpt lat="37.908220" lon="-6.230091">
        <ele>518.196</ele>
        <time>2021-10-12T11:43:22Z</time>
      </trkpt>
      <trkpt lat="37.908319" lon="-6.230092">
        <ele>517.447</ele>
        <time>2021-10-12T11:43:23Z</time>
      </trkpt>
      <trkpt lat="37.908507" lon="-6.230099">
        <ele>517.089</ele>
        <time>2021-10-12T11:43:25Z</time>
      </trkpt>
      <trkpt lat="37.908596" lon="-6.230102">
        <ele>516.806</ele>
        <time>2021-10-12T11:43:26Z</time>
      </trkpt>
      <trkpt lat="37.908759" lon="-6.230110">
        <ele>515.426</ele>
        <time>2021-10-12T11:43:28Z</time>
      </trkpt>
      <trkpt lat="37.908837" lon="-6.230115">
        <ele>514.708</ele>
        <time>2021-10-12T11:43:29Z</time>
      </trkpt>
      <trkpt lat="37.908911" lon="-6.230125">
        <ele>514.396</ele>
        <time>2021-10-12T11:43:30Z</time>
      </trkpt>
      <trkpt lat="37.908984" lon="-6.230136">
        <ele>514.184</ele>
        <time>2021-10-12T11:43:31Z</time>
      </trkpt>
      <trkpt lat="37.909065" lon="-6.230149">
        <ele>514.080</ele>
        <time>2021-10-12T11:43:32Z</time>
      </trkpt>
      <trkpt lat="37.909242" lon="-6.230182">
        <ele>513.823</ele>
        <time>2021-10-12T11:43:34Z</time>
      </trkpt>
      <trkpt lat="37.909332" lon="-6.230206">
        <ele>513.899</ele>
        <time>2021-10-12T11:43:35Z</time>
      </trkpt>
      <trkpt lat="37.909491" lon="-6.230257">
        <ele>513.598</ele>
        <time>2021-10-12T11:43:37Z</time>
      </trkpt>
      <trkpt lat="37.909565" lon="-6.230281">
        <ele>513.278</ele>
        <time>2021-10-12T11:43:38Z</time>
      </trkpt>
      <trkpt lat="37.909695" lon="-6.230316">
        <ele>512.659</ele>
        <time>2021-10-12T11:43:40Z</time>
      </trkpt>
      <trkpt lat="37.909762" lon="-6.230326">
        <ele>512.673</ele>
        <time>2021-10-12T11:43:41Z</time>
      </trkpt>
      <trkpt lat="37.909918" lon="-6.230323">
        <ele>513.185</ele>
        <time>2021-10-12T11:43:43Z</time>
      </trkpt>
      <trkpt lat="37.909999" lon="-6.230293">
        <ele>513.113</ele>
        <time>2021-10-12T11:43:44Z</time>
      </trkpt>
      <trkpt lat="37.910134" lon="-6.230182">
        <ele>512.708</ele>
        <time>2021-10-12T11:43:46Z</time>
      </trkpt>
      <trkpt lat="37.910279" lon="-6.230145">
        <ele>512.515</ele>
        <time>2021-10-12T11:43:48Z</time>
      </trkpt>
      <trkpt lat="37.910400" lon="-6.230242">
        <ele>512.033</ele>
        <time>2021-10-12T11:43:50Z</time>
      </trkpt>
      <trkpt lat="37.910462" lon="-6.230481">
        <ele>512.919</ele>
        <time>2021-10-12T11:43:52Z</time>
      </trkpt>
      <trkpt lat="37.910504" lon="-6.230609">
        <ele>513.692</ele>
        <time>2021-10-12T11:43:53Z</time>
      </trkpt>
      <trkpt lat="37.910574" lon="-6.230718">
        <ele>514.288</ele>
        <time>2021-10-12T11:43:54Z</time>
      </trkpt>
      <trkpt lat="37.910787" lon="-6.230886">
        <ele>515.247</ele>
        <time>2021-10-12T11:43:56Z</time>
      </trkpt>
      <trkpt lat="37.911084" lon="-6.231033">
        <ele>513.947</ele>
        <time>2021-10-12T11:43:58Z</time>
      </trkpt>
      <trkpt lat="37.911266" lon="-6.231122">
        <ele>513.018</ele>
        <time>2021-10-12T11:43:59Z</time>
      </trkpt>
      <trkpt lat="37.911683" lon="-6.231329">
        <ele>512.679</ele>
        <time>2021-10-12T11:44:01Z</time>
      </trkpt>
      <trkpt lat="37.911918" lon="-6.231452">
        <ele>513.005</ele>
        <time>2021-10-12T11:44:02Z</time>
      </trkpt>
      <trkpt lat="37.912391" lon="-6.231695">
        <ele>513.725</ele>
        <time>2021-10-12T11:44:04Z</time>
      </trkpt>
      <trkpt lat="37.912632" lon="-6.231818">
        <ele>515.008</ele>
        <time>2021-10-12T11:44:05Z</time>
      </trkpt>
      <trkpt lat="37.912854" lon="-6.231943">
        <ele>516.015</ele>
        <time>2021-10-12T11:44:06Z</time>
      </trkpt>
      <trkpt lat="37.913058" lon="-6.232082">
        <ele>516.563</ele>
        <time>2021-10-12T11:44:07Z</time>
      </trkpt>
      <trkpt lat="37.913250" lon="-6.232244">
        <ele>516.469</ele>
        <time>2021-10-12T11:44:08Z</time>
      </trkpt>
      <trkpt lat="37.913590" lon="-6.232628">
        <ele>517.582</ele>
        <time>2021-10-12T11:44:10Z</time>
      </trkpt>
      <trkpt lat="37.913756" lon="-6.232842">
        <ele>518.998</ele>
        <time>2021-10-12T11:44:11Z</time>
      </trkpt>
      <trkpt lat="37.913923" lon="-6.233054">
        <ele>520.087</ele>
        <time>2021-10-12T11:44:12Z</time>
      </trkpt>
      <trkpt lat="37.914086" lon="-6.233261">
        <ele>519.327</ele>
        <time>2021-10-12T11:44:13Z</time>
      </trkpt>
      <trkpt lat="37.914248" lon="-6.233466">
        <ele>519.378</ele>
        <time>2021-10-12T11:44:14Z</time>
      </trkpt>
      <trkpt lat="37.914554" lon="-6.233846">
        <ele>521.738</ele>
        <time>2021-10-12T11:44:16Z</time>
      </trkpt>
      <trkpt lat="37.914701" lon="-6.234035">
        <ele>522.370</ele>
        <time>2021-10-12T11:44:17Z</time>
      </trkpt>
      <trkpt lat="37.914843" lon="-6.234218">
        <ele>522.817</ele>
        <time>2021-10-12T11:44:18Z</time>
      </trkpt>
      <trkpt lat="37.915132" lon="-6.234571">
        <ele>525.008</ele>
        <time>2021-10-12T11:44:20Z</time>
      </trkpt>
      <trkpt lat="37.915441" lon="-6.234894">
        <ele>526.311</ele>
        <time>2021-10-12T11:44:22Z</time>
      </trkpt>
      <trkpt lat="37.915816" lon="-6.235137">
        <ele>527.079</ele>
        <time>2021-10-12T11:44:24Z</time>
      </trkpt>
      <trkpt lat="37.916228" lon="-6.235339">
        <ele>528.145</ele>
        <time>2021-10-12T11:44:26Z</time>
      </trkpt>
      <trkpt lat="37.916614" lon="-6.235545">
        <ele>529.848</ele>
        <time>2021-10-12T11:44:28Z</time>
      </trkpt>
      <trkpt lat="37.916808" lon="-6.235650">
        <ele>531.524</ele>
        <time>2021-10-12T11:44:29Z</time>
      </trkpt>
      <trkpt lat="37.917193" lon="-6.235848">
        <ele>535.733</ele>
        <time>2021-10-12T11:44:31Z</time>
      </trkpt>
      <trkpt lat="37.917388" lon="-6.235936">
        <ele>536.243</ele>
        <time>2021-10-12T11:44:32Z</time>
      </trkpt>
      <trkpt lat="37.917773" lon="-6.236099">
        <ele>537.074</ele>
        <time>2021-10-12T11:44:34Z</time>
      </trkpt>
      <trkpt lat="37.918200" lon="-6.236267">
        <ele>536.411</ele>
        <time>2021-10-12T11:44:36Z</time>
      </trkpt>
      <trkpt lat="37.918654" lon="-6.236413">
        <ele>536.821</ele>
        <time>2021-10-12T11:44:38Z</time>
      </trkpt>
      <trkpt lat="37.919106" lon="-6.236532">
        <ele>535.603</ele>
        <time>2021-10-12T11:44:40Z</time>
      </trkpt>
      <trkpt lat="37.919333" lon="-6.236593">
        <ele>535.108</ele>
        <time>2021-10-12T11:44:41Z</time>
      </trkpt>
      <trkpt lat="37.919777" lon="-6.236755">
        <ele>536.529</ele>
        <time>2021-10-12T11:44:43Z</time>
      </trkpt>
      <trkpt lat="37.919982" lon="-6.236861">
        <ele>537.617</ele>
        <time>2021-10-12T11:44:44Z</time>
      </trkpt>
      <trkpt lat="37.920327" lon="-6.237096">
        <ele>539.213</ele>
        <time>2021-10-12T11:44:46Z</time>
      </trkpt>
      <trkpt lat="37.920638" lon="-6.237324">
        <ele>540.356</ele>
        <time>2021-10-12T11:44:48Z</time>
      </trkpt>
      <trkpt lat="37.920790" lon="-6.237433">
        <ele>540.842</ele>
        <time>2021-10-12T11:44:49Z</time>
      </trkpt>
      <trkpt lat="37.920942" lon="-6.237542">
        <ele>542.021</ele>
        <time>2021-10-12T11:44:50Z</time>
      </trkpt>
      <trkpt lat="37.921242" lon="-6.237760">
        <ele>544.451</ele>
        <time>2021-10-12T11:44:52Z</time>
      </trkpt>
      <trkpt lat="37.921557" lon="-6.237972">
        <ele>547.212</ele>
        <time>2021-10-12T11:44:54Z</time>
      </trkpt>
      <trkpt lat="37.921901" lon="-6.238129">
        <ele>547.827</ele>
        <time>2021-10-12T11:44:56Z</time>
      </trkpt>
      <trkpt lat="37.922263" lon="-6.238194">
        <ele>547.268</ele>
        <time>2021-10-12T11:44:58Z</time>
      </trkpt>
      <trkpt lat="37.922456" lon="-6.238187">
        <ele>548.314</ele>
        <time>2021-10-12T11:44:59Z</time>
      </trkpt>
      <trkpt lat="37.922649" lon="-6.238153">
        <ele>549.908</ele>
        <time>2021-10-12T11:45:00Z</time>
      </trkpt>
      <trkpt lat="37.923050" lon="-6.238032">
        <ele>550.220</ele>
        <time>2021-10-12T11:45:02Z</time>
      </trkpt>
      <trkpt lat="37.923465" lon="-6.237946">
        <ele>546.498</ele>
        <time>2021-10-12T11:45:04Z</time>
      </trkpt>
      <trkpt lat="37.923906" lon="-6.237961">
        <ele>543.234</ele>
        <time>2021-10-12T11:45:06Z</time>
      </trkpt>
      <trkpt lat="37.924323" lon="-6.238036">
        <ele>538.937</ele>
        <time>2021-10-12T11:45:08Z</time>
      </trkpt>
      <trkpt lat="37.924706" lon="-6.238099">
        <ele>537.043</ele>
        <time>2021-10-12T11:45:10Z</time>
      </trkpt>
      <trkpt lat="37.925078" lon="-6.238152">
        <ele>535.672</ele>
        <time>2021-10-12T11:45:12Z</time>
      </trkpt>
      <trkpt lat="37.925435" lon="-6.238202">
        <ele>533.952</ele>
        <time>2021-10-12T11:45:14Z</time>
      </trkpt>
      <trkpt lat="37.925771" lon="-6.238258">
        <ele>533.513</ele>
        <time>2021-10-12T11:45:16Z</time>
      </trkpt>
      <trkpt lat="37.926112" lon="-6.238308">
        <ele>533.834</ele>
        <time>2021-10-12T11:45:18Z</time>
      </trkpt>
      <trkpt lat="37.926278" lon="-6.238328">
        <ele>532.855</ele>
        <time>2021-10-12T11:45:19Z</time>
      </trkpt>
      <trkpt lat="37.926440" lon="-6.238347">
        <ele>531.510</ele>
        <time>2021-10-12T11:45:20Z</time>
      </trkpt>
      <trkpt lat="37.926740" lon="-6.238384">
        <ele>529.108</ele>
        <time>2021-10-12T11:45:22Z</time>
      </trkpt>
      <trkpt lat="37.926887" lon="-6.238397">
        <ele>529.081</ele>
        <time>2021-10-12T11:45:23Z</time>
      </trkpt>
      <trkpt lat="37.927175" lon="-6.238398">
        <ele>529.699</ele>
        <time>2021-10-12T11:45:25Z</time>
      </trkpt>
      <trkpt lat="37.927327" lon="-6.238388">
        <ele>530.255</ele>
        <time>2021-10-12T11:45:26Z</time>
      </trkpt>
      <trkpt lat="37.927631" lon="-6.238352">
        <ele>530.558</ele>
        <time>2021-10-12T11:45:28Z</time>
      </trkpt>
      <trkpt lat="37.927795" lon="-6.238318">
        <ele>529.964</ele>
        <time>2021-10-12T11:45:29Z</time>
      </trkpt>
      <trkpt lat="37.927969" lon="-6.238275">
        <ele>528.713</ele>
        <time>2021-10-12T11:45:30Z</time>
      </trkpt>
      <trkpt lat="37.928350" lon="-6.238160">
        <ele>527.023</ele>
        <time>2021-10-12T11:45:32Z</time>
      </trkpt>
      <trkpt lat="37.928762" lon="-6.238025">
        <ele>526.924</ele>
        <time>2021-10-12T11:45:34Z</time>
      </trkpt>
      <trkpt lat="37.929199" lon="-6.237875">
        <ele>526.046</ele>
        <time>2021-10-12T11:45:36Z</time>
      </trkpt>
      <trkpt lat="37.929414" lon="-6.237799">
        <ele>526.188</ele>
        <time>2021-10-12T11:45:37Z</time>
      </trkpt>
      <trkpt lat="37.929622" lon="-6.237725">
        <ele>525.916</ele>
        <time>2021-10-12T11:45:38Z</time>
      </trkpt>
      <trkpt lat="37.930003" lon="-6.237586">
        <ele>525.308</ele>
        <time>2021-10-12T11:45:40Z</time>
      </trkpt>
      <trkpt lat="37.930388" lon="-6.237447">
        <ele>524.032</ele>
        <time>2021-10-12T11:45:42Z</time>
      </trkpt>
      <trkpt lat="37.930607" lon="-6.237372">
        <ele>521.750</ele>
        <time>2021-10-12T11:45:43Z</time>
      </trkpt>
      <trkpt lat="37.930852" lon="-6.237286">
        <ele>517.936</ele>
        <time>2021-10-12T11:45:44Z</time>
      </trkpt>
      <trkpt lat="37.931382" lon="-6.237096">
        <ele>511.689</ele>
        <time>2021-10-12T11:45:46Z</time>
      </trkpt>
      <trkpt lat="37.931666" lon="-6.236994">
        <ele>511.295</ele>
        <time>2021-10-12T11:45:47Z</time>
      </trkpt>
      <trkpt lat="37.932233" lon="-6.236793">
        <ele>509.594</ele>
        <time>2021-10-12T11:45:49Z</time>
      </trkpt>
      <trkpt lat="37.932525" lon="-6.236691">
        <ele>509.934</ele>
        <time>2021-10-12T11:45:50Z</time>
      </trkpt>
      <trkpt lat="37.933121" lon="-6.236518">
        <ele>507.285</ele>
        <time>2021-10-12T11:45:52Z</time>
      </trkpt>
      <trkpt lat="37.933440" lon="-6.236445">
        <ele>506.312</ele>
        <time>2021-10-12T11:45:53Z</time>
      </trkpt>
      <trkpt lat="37.934085" lon="-6.236301">
        <ele>507.732</ele>
        <time>2021-10-12T11:45:55Z</time>
      </trkpt>
      <trkpt lat="37.934402" lon="-6.236219">
        <ele>509.405</ele>
        <time>2021-10-12T11:45:56Z</time>
      </trkpt>
      <trkpt lat="37.934966" lon="-6.236083">
        <ele>509.008</ele>
        <time>2021-10-12T11:45:58Z</time>
      </trkpt>
      <trkpt lat="37.935489" lon="-6.235980">
        <ele>509.729</ele>
        <time>2021-10-12T11:46:00Z</time>
      </trkpt>
      <trkpt lat="37.935735" lon="-6.235932">
        <ele>510.897</ele>
        <time>2021-10-12T11:46:01Z</time>
      </trkpt>
      <trkpt lat="37.935976" lon="-6.235883">
        <ele>511.423</ele>
        <time>2021-10-12T11:46:02Z</time>
      </trkpt>
      <trkpt lat="37.936426" lon="-6.235737">
        <ele>513.066</ele>
        <time>2021-10-12T11:46:04Z</time>
      </trkpt>
      <trkpt lat="37.936837" lon="-6.235427">
        <ele>516.242</ele>
        <time>2021-10-12T11:46:06Z</time>
      </trkpt>
      <trkpt lat="37.937181" lon="-6.235001">
        <ele>517.011</ele>
        <time>2021-10-12T11:46:08Z</time>
      </trkpt>
      <trkpt lat="37.937493" lon="-6.234642">
        <ele>518.011</ele>
        <time>2021-10-12T11:46:10Z</time>
      </trkpt>
      <trkpt lat="37.937667" lon="-6.234476">
        <ele>517.522</ele>
        <time>2021-10-12T11:46:11Z</time>
      </trkpt>
      <trkpt lat="37.937859" lon="-6.234327">
        <ele>516.821</ele>
        <time>2021-10-12T11:46:12Z</time>
      </trkpt>
      <trkpt lat="37.938310" lon="-6.234097">
        <ele>511.541</ele>
        <time>2021-10-12T11:46:14Z</time>
      </trkpt>
      <trkpt lat="37.938797" lon="-6.233898">
        <ele>506.005</ele>
        <time>2021-10-12T11:46:16Z</time>
      </trkpt>
      <trkpt lat="37.939053" lon="-6.233790">
        <ele>502.808</ele>
        <time>2021-10-12T11:46:17Z</time>
      </trkpt>
      <trkpt lat="37.939586" lon="-6.233571">
        <ele>496.130</ele>
        <time>2021-10-12T11:46:19Z</time>
      </trkpt>
      <trkpt lat="37.939865" lon="-6.233455">
        <ele>495.638</ele>
        <time>2021-10-12T11:46:20Z</time>
      </trkpt>
      <trkpt lat="37.940396" lon="-6.233234">
        <ele>497.294</ele>
        <time>2021-10-12T11:46:22Z</time>
      </trkpt>
      <trkpt lat="37.940648" lon="-6.233129">
        <ele>497.587</ele>
        <time>2021-10-12T11:46:23Z</time>
      </trkpt>
      <trkpt lat="37.941110" lon="-6.232914">
        <ele>498.083</ele>
        <time>2021-10-12T11:46:25Z</time>
      </trkpt>
      <trkpt lat="37.941330" lon="-6.232773">
        <ele>498.852</ele>
        <time>2021-10-12T11:46:26Z</time>
      </trkpt>
      <trkpt lat="37.941724" lon="-6.232436">
        <ele>497.032</ele>
        <time>2021-10-12T11:46:28Z</time>
      </trkpt>
      <trkpt lat="37.941930" lon="-6.232254">
        <ele>493.633</ele>
        <time>2021-10-12T11:46:29Z</time>
      </trkpt>
      <trkpt lat="37.942148" lon="-6.232084">
        <ele>490.567</ele>
        <time>2021-10-12T11:46:30Z</time>
      </trkpt>
      <trkpt lat="37.942646" lon="-6.231807">
        <ele>486.281</ele>
        <time>2021-10-12T11:46:32Z</time>
      </trkpt>
      <trkpt lat="37.943172" lon="-6.231581">
        <ele>484.019</ele>
        <time>2021-10-12T11:46:34Z</time>
      </trkpt>
      <trkpt lat="37.943451" lon="-6.231464">
        <ele>483.708</ele>
        <time>2021-10-12T11:46:35Z</time>
      </trkpt>
      <trkpt lat="37.943733" lon="-6.231348">
        <ele>482.494</ele>
        <time>2021-10-12T11:46:36Z</time>
      </trkpt>
      <trkpt lat="37.944300" lon="-6.231113">
        <ele>483.542</ele>
        <time>2021-10-12T11:46:38Z</time>
      </trkpt>
      <trkpt lat="37.944834" lon="-6.230930">
        <ele>483.338</ele>
        <time>2021-10-12T11:46:40Z</time>
      </trkpt>
      <trkpt lat="37.945091" lon="-6.230869">
        <ele>482.821</ele>
        <time>2021-10-12T11:46:41Z</time>
      </trkpt>
      <trkpt lat="37.945341" lon="-6.230840">
        <ele>482.037</ele>
        <time>2021-10-12T11:46:42Z</time>
      </trkpt>
      <trkpt lat="37.945848" lon="-6.230885">
        <ele>482.046</ele>
        <time>2021-10-12T11:46:44Z</time>
      </trkpt>
      <trkpt lat="37.946358" lon="-6.231076">
        <ele>482.896</ele>
        <time>2021-10-12T11:46:46Z</time>
      </trkpt>
      <trkpt lat="37.946845" lon="-6.231384">
        <ele>482.327</ele>
        <time>2021-10-12T11:46:48Z</time>
      </trkpt>
      <trkpt lat="37.947291" lon="-6.231683">
        <ele>484.234</ele>
        <time>2021-10-12T11:46:50Z</time>
      </trkpt>
      <trkpt lat="37.947747" lon="-6.231911">
        <ele>484.055</ele>
        <time>2021-10-12T11:46:52Z</time>
      </trkpt>
      <trkpt lat="37.947996" lon="-6.231977">
        <ele>483.210</ele>
        <time>2021-10-12T11:46:53Z</time>
      </trkpt>
      <trkpt lat="37.948257" lon="-6.232005">
        <ele>483.408</ele>
        <time>2021-10-12T11:46:54Z</time>
      </trkpt>
      <trkpt lat="37.948815" lon="-6.231939">
        <ele>485.741</ele>
        <time>2021-10-12T11:46:56Z</time>
      </trkpt>
      <trkpt lat="37.949340" lon="-6.231697">
        <ele>484.869</ele>
        <time>2021-10-12T11:46:58Z</time>
      </trkpt>
      <trkpt lat="37.949579" lon="-6.231519">
        <ele>484.095</ele>
        <time>2021-10-12T11:46:59Z</time>
      </trkpt>
      <trkpt lat="37.949792" lon="-6.231316">
        <ele>482.928</ele>
        <time>2021-10-12T11:47:00Z</time>
      </trkpt>
      <trkpt lat="37.950151" lon="-6.230850">
        <ele>482.664</ele>
        <time>2021-10-12T11:47:02Z</time>
      </trkpt>
      <trkpt lat="37.950468" lon="-6.230413">
        <ele>483.883</ele>
        <time>2021-10-12T11:47:04Z</time>
      </trkpt>
      <trkpt lat="37.950813" lon="-6.229995">
        <ele>484.093</ele>
        <time>2021-10-12T11:47:06Z</time>
      </trkpt>
      <trkpt lat="37.950989" lon="-6.229783">
        <ele>483.014</ele>
        <time>2021-10-12T11:47:07Z</time>
      </trkpt>
      <trkpt lat="37.951169" lon="-6.229569">
        <ele>482.641</ele>
        <time>2021-10-12T11:47:08Z</time>
      </trkpt>
      <trkpt lat="37.951531" lon="-6.229140">
        <ele>482.081</ele>
        <time>2021-10-12T11:47:10Z</time>
      </trkpt>
      <trkpt lat="37.951917" lon="-6.228678">
        <ele>482.109</ele>
        <time>2021-10-12T11:47:12Z</time>
      </trkpt>
      <trkpt lat="37.952119" lon="-6.228437">
        <ele>481.008</ele>
        <time>2021-10-12T11:47:13Z</time>
      </trkpt>
      <trkpt lat="37.952332" lon="-6.228190">
        <ele>480.482</ele>
        <time>2021-10-12T11:47:14Z</time>
      </trkpt>
      <trkpt lat="37.952788" lon="-6.227766">
        <ele>486.010</ele>
        <time>2021-10-12T11:47:16Z</time>
      </trkpt>
      <trkpt lat="37.953038" lon="-6.227594">
        <ele>487.216</ele>
        <time>2021-10-12T11:47:17Z</time>
      </trkpt>
      <trkpt lat="37.953572" lon="-6.227360">
        <ele>486.689</ele>
        <time>2021-10-12T11:47:19Z</time>
      </trkpt>
      <trkpt lat="37.953845" lon="-6.227271">
        <ele>485.385</ele>
        <time>2021-10-12T11:47:20Z</time>
      </trkpt>
      <trkpt lat="37.954350" lon="-6.227135">
        <ele>484.134</ele>
        <time>2021-10-12T11:47:22Z</time>
      </trkpt>
      <trkpt lat="37.954621" lon="-6.227094">
        <ele>484.194</ele>
        <time>2021-10-12T11:47:23Z</time>
      </trkpt>
      <trkpt lat="37.954902" lon="-6.227078">
        <ele>482.055</ele>
        <time>2021-10-12T11:47:24Z</time>
      </trkpt>
      <trkpt lat="37.955190" lon="-6.227081">
        <ele>480.363</ele>
        <time>2021-10-12T11:47:25Z</time>
      </trkpt>
      <trkpt lat="37.955491" lon="-6.227088">
        <ele>480.844</ele>
        <time>2021-10-12T11:47:26Z</time>
      </trkpt>
      <trkpt lat="37.956069" lon="-6.227094">
        <ele>480.518</ele>
        <time>2021-10-12T11:47:28Z</time>
      </trkpt>
      <trkpt lat="37.956655" lon="-6.227106">
        <ele>479.608</ele>
        <time>2021-10-12T11:47:30Z</time>
      </trkpt>
      <trkpt lat="37.956942" lon="-6.227110">
        <ele>478.654</ele>
        <time>2021-10-12T11:47:31Z</time>
      </trkpt>
      <trkpt lat="37.957228" lon="-6.227114">
        <ele>478.282</ele>
        <time>2021-10-12T11:47:32Z</time>
      </trkpt>
      <trkpt lat="37.957773" lon="-6.227120">
        <ele>478.978</ele>
        <time>2021-10-12T11:47:34Z</time>
      </trkpt>
      <trkpt lat="37.958049" lon="-6.227124">
        <ele>478.771</ele>
        <time>2021-10-12T11:47:35Z</time>
      </trkpt>
      <trkpt lat="37.958594" lon="-6.227131">
        <ele>475.887</ele>
        <time>2021-10-12T11:47:37Z</time>
      </trkpt>
      <trkpt lat="37.958873" lon="-6.227135">
        <ele>475.086</ele>
        <time>2021-10-12T11:47:38Z</time>
      </trkpt>
      <trkpt lat="37.959404" lon="-6.227142">
        <ele>471.066</ele>
        <time>2021-10-12T11:47:40Z</time>
      </trkpt>
      <trkpt lat="37.959672" lon="-6.227145">
        <ele>468.587</ele>
        <time>2021-10-12T11:47:41Z</time>
      </trkpt>
      <trkpt lat="37.959938" lon="-6.227150">
        <ele>467.486</ele>
        <time>2021-10-12T11:47:42Z</time>
      </trkpt>
      <trkpt lat="37.960440" lon="-6.227194">
        <ele>470.960</ele>
        <time>2021-10-12T11:47:44Z</time>
      </trkpt>
      <trkpt lat="37.960887" lon="-6.227336">
        <ele>472.526</ele>
        <time>2021-10-12T11:47:46Z</time>
      </trkpt>
      <trkpt lat="37.961325" lon="-6.227595">
        <ele>473.808</ele>
        <time>2021-10-12T11:47:48Z</time>
      </trkpt>
      <trkpt lat="37.961739" lon="-6.227977">
        <ele>475.036</ele>
        <time>2021-10-12T11:47:50Z</time>
      </trkpt>
      <trkpt lat="37.962106" lon="-6.228483">
        <ele>478.154</ele>
        <time>2021-10-12T11:47:52Z</time>
      </trkpt>
      <trkpt lat="37.962271" lon="-6.228780">
        <ele>479.050</ele>
        <time>2021-10-12T11:47:53Z</time>
      </trkpt>
      <trkpt lat="37.962583" lon="-6.229400">
        <ele>479.533</ele>
        <time>2021-10-12T11:47:55Z</time>
      </trkpt>
      <trkpt lat="37.962748" lon="-6.229723">
        <ele>480.129</ele>
        <time>2021-10-12T11:47:56Z</time>
      </trkpt>
      <trkpt lat="37.963071" lon="-6.230332">
        <ele>482.388</ele>
        <time>2021-10-12T11:47:58Z</time>
      </trkpt>
      <trkpt lat="37.963407" lon="-6.230967">
        <ele>485.178</ele>
        <time>2021-10-12T11:48:00Z</time>
      </trkpt>
      <trkpt lat="37.963593" lon="-6.231275">
        <ele>486.649</ele>
        <time>2021-10-12T11:48:01Z</time>
      </trkpt>
      <trkpt lat="37.963806" lon="-6.231580">
        <ele>488.977</ele>
        <time>2021-10-12T11:48:02Z</time>
      </trkpt>
      <trkpt lat="37.964283" lon="-6.232127">
        <ele>494.561</ele>
        <time>2021-10-12T11:48:04Z</time>
      </trkpt>
      <trkpt lat="37.964832" lon="-6.232597">
        <ele>500.227</ele>
        <time>2021-10-12T11:48:06Z</time>
      </trkpt>
      <trkpt lat="37.965111" lon="-6.232789">
        <ele>499.608</ele>
        <time>2021-10-12T11:48:07Z</time>
      </trkpt>
      <trkpt lat="37.965393" lon="-6.232969">
        <ele>499.725</ele>
        <time>2021-10-12T11:48:08Z</time>
      </trkpt>
      <trkpt lat="37.965938" lon="-6.233298">
        <ele>501.343</ele>
        <time>2021-10-12T11:48:10Z</time>
      </trkpt>
      <trkpt lat="37.966215" lon="-6.233469">
        <ele>502.019</ele>
        <time>2021-10-12T11:48:11Z</time>
      </trkpt>
      <trkpt lat="37.966769" lon="-6.233812">
        <ele>504.562</ele>
        <time>2021-10-12T11:48:13Z</time>
      </trkpt>
      <trkpt lat="37.967042" lon="-6.233981">
        <ele>504.798</ele>
        <time>2021-10-12T11:48:14Z</time>
      </trkpt>
      <trkpt lat="37.967527" lon="-6.234282">
        <ele>504.797</ele>
        <time>2021-10-12T11:48:16Z</time>
      </trkpt>
      <trkpt lat="37.967972" lon="-6.234562">
        <ele>507.057</ele>
        <time>2021-10-12T11:48:18Z</time>
      </trkpt>
      <trkpt lat="37.968195" lon="-6.234693">
        <ele>507.948</ele>
        <time>2021-10-12T11:48:19Z</time>
      </trkpt>
      <trkpt lat="37.968436" lon="-6.234818">
        <ele>508.037</ele>
        <time>2021-10-12T11:48:20Z</time>
      </trkpt>
      <trkpt lat="37.968934" lon="-6.234984">
        <ele>507.849</ele>
        <time>2021-10-12T11:48:22Z</time>
      </trkpt>
      <trkpt lat="37.969200" lon="-6.235018">
        <ele>506.813</ele>
        <time>2021-10-12T11:48:23Z</time>
      </trkpt>
      <trkpt lat="37.969476" lon="-6.235016">
        <ele>505.908</ele>
        <time>2021-10-12T11:48:24Z</time>
      </trkpt>
      <trkpt lat="37.970054" lon="-6.234932">
        <ele>503.641</ele>
        <time>2021-10-12T11:48:26Z</time>
      </trkpt>
      <trkpt lat="37.970619" lon="-6.234865">
        <ele>500.129</ele>
        <time>2021-10-12T11:48:28Z</time>
      </trkpt>
      <trkpt lat="37.970900" lon="-6.234835">
        <ele>498.925</ele>
        <time>2021-10-12T11:48:29Z</time>
      </trkpt>
      <trkpt lat="37.971444" lon="-6.234780">
        <ele>496.938</ele>
        <time>2021-10-12T11:48:31Z</time>
      </trkpt>
      <trkpt lat="37.971710" lon="-6.234753">
        <ele>495.084</ele>
        <time>2021-10-12T11:48:32Z</time>
      </trkpt>
      <trkpt lat="37.972187" lon="-6.234700">
        <ele>493.163</ele>
        <time>2021-10-12T11:48:34Z</time>
      </trkpt>
      <trkpt lat="37.972407" lon="-6.234673">
        <ele>491.843</ele>
        <time>2021-10-12T11:48:35Z</time>
      </trkpt>
      <trkpt lat="37.972616" lon="-6.234639">
        <ele>490.964</ele>
        <time>2021-10-12T11:48:36Z</time>
      </trkpt>
      <trkpt lat="37.973012" lon="-6.234524">
        <ele>489.025</ele>
        <time>2021-10-12T11:48:38Z</time>
      </trkpt>
      <trkpt lat="37.973389" lon="-6.234343">
        <ele>487.026</ele>
        <time>2021-10-12T11:48:40Z</time>
      </trkpt>
      <trkpt lat="37.973592" lon="-6.234207">
        <ele>486.008</ele>
        <time>2021-10-12T11:48:41Z</time>
      </trkpt>
      <trkpt lat="37.973794" lon="-6.234043">
        <ele>486.908</ele>
        <time>2021-10-12T11:48:42Z</time>
      </trkpt>
      <trkpt lat="37.973996" lon="-6.233848">
        <ele>488.120</ele>
        <time>2021-10-12T11:48:43Z</time>
      </trkpt>
      <trkpt lat="37.974196" lon="-6.233627">
        <ele>487.888</ele>
        <time>2021-10-12T11:48:44Z</time>
      </trkpt>
      <trkpt lat="37.974547" lon="-6.233091">
        <ele>482.454</ele>
        <time>2021-10-12T11:48:46Z</time>
      </trkpt>
      <trkpt lat="37.974709" lon="-6.232771">
        <ele>482.147</ele>
        <time>2021-10-12T11:48:47Z</time>
      </trkpt>
      <trkpt lat="37.974862" lon="-6.232445">
        <ele>481.783</ele>
        <time>2021-10-12T11:48:48Z</time>
      </trkpt>
      <trkpt lat="37.975155" lon="-6.231825">
        <ele>479.162</ele>
        <time>2021-10-12T11:48:50Z</time>
      </trkpt>
      <trkpt lat="37.975389" lon="-6.231334">
        <ele>476.472</ele>
        <time>2021-10-12T11:48:52Z</time>
      </trkpt>
      <trkpt lat="37.975503" lon="-6.231105">
        <ele>475.233</ele>
        <time>2021-10-12T11:48:53Z</time>
      </trkpt>
      <trkpt lat="37.975615" lon="-6.230882">
        <ele>474.832</ele>
        <time>2021-10-12T11:48:54Z</time>
      </trkpt>
      <trkpt lat="37.975731" lon="-6.230673">
        <ele>474.492</ele>
        <time>2021-10-12T11:48:55Z</time>
      </trkpt>
      <trkpt lat="37.975863" lon="-6.230479">
        <ele>473.811</ele>
        <time>2021-10-12T11:48:56Z</time>
      </trkpt>
      <trkpt lat="37.976156" lon="-6.230176">
        <ele>472.308</ele>
        <time>2021-10-12T11:48:58Z</time>
      </trkpt>
      <trkpt lat="37.976314" lon="-6.230053">
        <ele>472.281</ele>
        <time>2021-10-12T11:48:59Z</time>
      </trkpt>
      <trkpt lat="37.976472" lon="-6.229951">
        <ele>472.439</ele>
        <time>2021-10-12T11:49:00Z</time>
      </trkpt>
      <trkpt lat="37.976799" lon="-6.229798">
        <ele>472.125</ele>
        <time>2021-10-12T11:49:02Z</time>
      </trkpt>
      <trkpt lat="37.977152" lon="-6.229709">
        <ele>471.398</ele>
        <time>2021-10-12T11:49:04Z</time>
      </trkpt>
      <trkpt lat="37.977588" lon="-6.229693">
        <ele>471.294</ele>
        <time>2021-10-12T11:49:06Z</time>
      </trkpt>
      <trkpt lat="37.978113" lon="-6.229823">
        <ele>474.023</ele>
        <time>2021-10-12T11:49:08Z</time>
      </trkpt>
      <trkpt lat="37.978679" lon="-6.229999">
        <ele>477.563</ele>
        <time>2021-10-12T11:49:10Z</time>
      </trkpt>
      <trkpt lat="37.979285" lon="-6.230147">
        <ele>478.284</ele>
        <time>2021-10-12T11:49:12Z</time>
      </trkpt>
      <trkpt lat="37.979907" lon="-6.230300">
        <ele>481.916</ele>
        <time>2021-10-12T11:49:14Z</time>
      </trkpt>
      <trkpt lat="37.980531" lon="-6.230446">
        <ele>480.876</ele>
        <time>2021-10-12T11:49:16Z</time>
      </trkpt>
      <trkpt lat="37.980848" lon="-6.230520">
        <ele>482.213</ele>
        <time>2021-10-12T11:49:17Z</time>
      </trkpt>
      <trkpt lat="37.981438" lon="-6.230655">
        <ele>482.208</ele>
        <time>2021-10-12T11:49:19Z</time>
      </trkpt>
      <trkpt lat="37.981725" lon="-6.230721">
        <ele>481.979</ele>
        <time>2021-10-12T11:49:20Z</time>
      </trkpt>
      <trkpt lat="37.982275" lon="-6.230828">
        <ele>487.427</ele>
        <time>2021-10-12T11:49:22Z</time>
      </trkpt>
      <trkpt lat="37.982849" lon="-6.230885">
        <ele>488.843</ele>
        <time>2021-10-12T11:49:24Z</time>
      </trkpt>
      <trkpt lat="37.983155" lon="-6.230888">
        <ele>488.656</ele>
        <time>2021-10-12T11:49:25Z</time>
      </trkpt>
      <trkpt lat="37.983478" lon="-6.230868">
        <ele>488.712</ele>
        <time>2021-10-12T11:49:26Z</time>
      </trkpt>
      <trkpt lat="37.984124" lon="-6.230788">
        <ele>488.911</ele>
        <time>2021-10-12T11:49:28Z</time>
      </trkpt>
      <trkpt lat="37.984808" lon="-6.230714">
        <ele>489.641</ele>
        <time>2021-10-12T11:49:30Z</time>
      </trkpt>
      <trkpt lat="37.985152" lon="-6.230680">
        <ele>490.032</ele>
        <time>2021-10-12T11:49:31Z</time>
      </trkpt>
      <trkpt lat="37.985486" lon="-6.230642">
        <ele>489.841</ele>
        <time>2021-10-12T11:49:32Z</time>
      </trkpt>
      <trkpt lat="37.986112" lon="-6.230584">
        <ele>489.981</ele>
        <time>2021-10-12T11:49:34Z</time>
      </trkpt>
      <trkpt lat="37.986433" lon="-6.230552">
        <ele>491.209</ele>
        <time>2021-10-12T11:49:35Z</time>
      </trkpt>
      <trkpt lat="37.986747" lon="-6.230518">
        <ele>492.408</ele>
        <time>2021-10-12T11:49:36Z</time>
      </trkpt>
      <trkpt lat="37.987340" lon="-6.230452">
        <ele>492.772</ele>
        <time>2021-10-12T11:49:38Z</time>
      </trkpt>
      <trkpt lat="37.987884" lon="-6.230388">
        <ele>493.540</ele>
        <time>2021-10-12T11:49:40Z</time>
      </trkpt>
      <trkpt lat="37.988157" lon="-6.230356">
        <ele>493.266</ele>
        <time>2021-10-12T11:49:41Z</time>
      </trkpt>
      <trkpt lat="37.988715" lon="-6.230301">
        <ele>494.389</ele>
        <time>2021-10-12T11:49:43Z</time>
      </trkpt>
      <trkpt lat="37.989006" lon="-6.230271">
        <ele>493.855</ele>
        <time>2021-10-12T11:49:44Z</time>
      </trkpt>
      <trkpt lat="37.989574" lon="-6.230216">
        <ele>490.764</ele>
        <time>2021-10-12T11:49:46Z</time>
      </trkpt>
      <trkpt lat="37.989857" lon="-6.230192">
        <ele>491.554</ele>
        <time>2021-10-12T11:49:47Z</time>
      </trkpt>
      <trkpt lat="37.990412" lon="-6.230133">
        <ele>489.835</ele>
        <time>2021-10-12T11:49:49Z</time>
      </trkpt>
      <trkpt lat="37.990696" lon="-6.230103">
        <ele>487.893</ele>
        <time>2021-10-12T11:49:50Z</time>
      </trkpt>
      <trkpt lat="37.991247" lon="-6.230030">
        <ele>488.465</ele>
        <time>2021-10-12T11:49:52Z</time>
      </trkpt>
      <trkpt lat="37.991807" lon="-6.229970">
        <ele>491.521</ele>
        <time>2021-10-12T11:49:54Z</time>
      </trkpt>
      <trkpt lat="37.992080" lon="-6.229942">
        <ele>493.108</ele>
        <time>2021-10-12T11:49:55Z</time>
      </trkpt>
      <trkpt lat="37.992347" lon="-6.229915">
        <ele>492.797</ele>
        <time>2021-10-12T11:49:56Z</time>
      </trkpt>
      <trkpt lat="37.992863" lon="-6.229862">
        <ele>491.225</ele>
        <time>2021-10-12T11:49:58Z</time>
      </trkpt>
      <trkpt lat="37.993137" lon="-6.229835">
        <ele>491.591</ele>
        <time>2021-10-12T11:49:59Z</time>
      </trkpt>
      <trkpt lat="37.993669" lon="-6.229784">
        <ele>491.884</ele>
        <time>2021-10-12T11:50:01Z</time>
      </trkpt>
      <trkpt lat="37.993932" lon="-6.229758">
        <ele>492.790</ele>
        <time>2021-10-12T11:50:02Z</time>
      </trkpt>
      <trkpt lat="37.994422" lon="-6.229708">
        <ele>491.189</ele>
        <time>2021-10-12T11:50:04Z</time>
      </trkpt>
      <trkpt lat="37.994919" lon="-6.229653">
        <ele>489.589</ele>
        <time>2021-10-12T11:50:06Z</time>
      </trkpt>
      <trkpt lat="37.995435" lon="-6.229600">
        <ele>490.060</ele>
        <time>2021-10-12T11:50:08Z</time>
      </trkpt>
      <trkpt lat="37.995950" lon="-6.229548">
        <ele>494.369</ele>
        <time>2021-10-12T11:50:10Z</time>
      </trkpt>
      <trkpt lat="37.996206" lon="-6.229517">
        <ele>495.604</ele>
        <time>2021-10-12T11:50:11Z</time>
      </trkpt>
      <trkpt lat="37.996455" lon="-6.229491">
        <ele>495.424</ele>
        <time>2021-10-12T11:50:12Z</time>
      </trkpt>
      <trkpt lat="37.996703" lon="-6.229465">
        <ele>494.908</ele>
        <time>2021-10-12T11:50:13Z</time>
      </trkpt>
      <trkpt lat="37.996959" lon="-6.229439">
        <ele>495.144</ele>
        <time>2021-10-12T11:50:14Z</time>
      </trkpt>
      <trkpt lat="37.997466" lon="-6.229390">
        <ele>497.972</ele>
        <time>2021-10-12T11:50:16Z</time>
      </trkpt>
      <trkpt lat="37.997735" lon="-6.229373">
        <ele>498.688</ele>
        <time>2021-10-12T11:50:17Z</time>
      </trkpt>
      <trkpt lat="37.998011" lon="-6.229371">
        <ele>500.431</ele>
        <time>2021-10-12T11:50:18Z</time>
      </trkpt>
      <trkpt lat="37.998596" lon="-6.229442">
        <ele>503.987</ele>
        <time>2021-10-12T11:50:20Z</time>
      </trkpt>
      <trkpt lat="37.999193" lon="-6.229638">
        <ele>503.916</ele>
        <time>2021-10-12T11:50:22Z</time>
      </trkpt>
      <trkpt lat="37.999499" lon="-6.229783">
        <ele>503.426</ele>
        <time>2021-10-12T11:50:23Z</time>
      </trkpt>
      <trkpt lat="38.000110" lon="-6.230112">
        <ele>508.047</ele>
        <time>2021-10-12T11:50:25Z</time>
      </trkpt>
      <trkpt lat="38.000424" lon="-6.230280">
        <ele>509.592</ele>
        <time>2021-10-12T11:50:26Z</time>
      </trkpt>
      <trkpt lat="38.000998" lon="-6.230584">
        <ele>512.573</ele>
        <time>2021-10-12T11:50:28Z</time>
      </trkpt>
      <trkpt lat="38.001263" lon="-6.230740">
        <ele>511.820</ele>
        <time>2021-10-12T11:50:29Z</time>
      </trkpt>
      <trkpt lat="38.001772" lon="-6.231028">
        <ele>508.608</ele>
        <time>2021-10-12T11:50:31Z</time>
      </trkpt>
      <trkpt lat="38.002039" lon="-6.231117">
        <ele>509.787</ele>
        <time>2021-10-12T11:50:32Z</time>
      </trkpt>
      <trkpt lat="38.002566" lon="-6.231119">
        <ele>513.225</ele>
        <time>2021-10-12T11:50:34Z</time>
      </trkpt>
      <trkpt lat="38.003127" lon="-6.230915">
        <ele>516.081</ele>
        <time>2021-10-12T11:50:36Z</time>
      </trkpt>
      <trkpt lat="38.003705" lon="-6.230679">
        <ele>517.194</ele>
        <time>2021-10-12T11:50:38Z</time>
      </trkpt>
      <trkpt lat="38.004263" lon="-6.230468">
        <ele>518.070</ele>
        <time>2021-10-12T11:50:40Z</time>
      </trkpt>
      <trkpt lat="38.004541" lon="-6.230338">
        <ele>518.919</ele>
        <time>2021-10-12T11:50:41Z</time>
      </trkpt>
      <trkpt lat="38.005068" lon="-6.230023">
        <ele>520.179</ele>
        <time>2021-10-12T11:50:43Z</time>
      </trkpt>
      <trkpt lat="38.005336" lon="-6.229846">
        <ele>518.650</ele>
        <time>2021-10-12T11:50:44Z</time>
      </trkpt>
      <trkpt lat="38.005873" lon="-6.229504">
        <ele>515.799</ele>
        <time>2021-10-12T11:50:46Z</time>
      </trkpt>
      <trkpt lat="38.006443" lon="-6.229159">
        <ele>518.007</ele>
        <time>2021-10-12T11:50:48Z</time>
      </trkpt>
      <trkpt lat="38.006732" lon="-6.228975">
        <ele>517.827</ele>
        <time>2021-10-12T11:50:49Z</time>
      </trkpt>
      <trkpt lat="38.007024" lon="-6.228782">
        <ele>517.708</ele>
        <time>2021-10-12T11:50:50Z</time>
      </trkpt>
      <trkpt lat="38.007588" lon="-6.228406">
        <ele>520.447</ele>
        <time>2021-10-12T11:50:52Z</time>
      </trkpt>
      <trkpt lat="38.008128" lon="-6.228060">
        <ele>522.225</ele>
        <time>2021-10-12T11:50:54Z</time>
      </trkpt>
      <trkpt lat="38.008639" lon="-6.227735">
        <ele>522.991</ele>
        <time>2021-10-12T11:50:56Z</time>
      </trkpt>
      <trkpt lat="38.009146" lon="-6.227407">
        <ele>523.054</ele>
        <time>2021-10-12T11:50:58Z</time>
      </trkpt>
      <trkpt lat="38.009411" lon="-6.227241">
        <ele>523.960</ele>
        <time>2021-10-12T11:50:59Z</time>
      </trkpt>
      <trkpt lat="38.009680" lon="-6.227073">
        <ele>524.519</ele>
        <time>2021-10-12T11:51:00Z</time>
      </trkpt>
      <trkpt lat="38.010237" lon="-6.226724">
        <ele>522.949</ele>
        <time>2021-10-12T11:51:02Z</time>
      </trkpt>
      <trkpt lat="38.010780" lon="-6.226383">
        <ele>523.090</ele>
        <time>2021-10-12T11:51:04Z</time>
      </trkpt>
      <trkpt lat="38.011330" lon="-6.226036">
        <ele>524.025</ele>
        <time>2021-10-12T11:51:06Z</time>
      </trkpt>
      <trkpt lat="38.011872" lon="-6.225695">
        <ele>526.726</ele>
        <time>2021-10-12T11:51:08Z</time>
      </trkpt>
      <trkpt lat="38.012399" lon="-6.225365">
        <ele>524.508</ele>
        <time>2021-10-12T11:51:10Z</time>
      </trkpt>
      <trkpt lat="38.012927" lon="-6.225027">
        <ele>527.308</ele>
        <time>2021-10-12T11:51:12Z</time>
      </trkpt>
      <trkpt lat="38.013192" lon="-6.224861">
        <ele>528.580</ele>
        <time>2021-10-12T11:51:13Z</time>
      </trkpt>
      <trkpt lat="38.013461" lon="-6.224691">
        <ele>528.578</ele>
        <time>2021-10-12T11:51:14Z</time>
      </trkpt>
      <trkpt lat="38.013985" lon="-6.224359">
        <ele>529.274</ele>
        <time>2021-10-12T11:51:16Z</time>
      </trkpt>
      <trkpt lat="38.014519" lon="-6.224019">
        <ele>531.927</ele>
        <time>2021-10-12T11:51:18Z</time>
      </trkpt>
      <trkpt lat="38.015059" lon="-6.223675">
        <ele>532.663</ele>
        <time>2021-10-12T11:51:20Z</time>
      </trkpt>
      <trkpt lat="38.015568" lon="-6.223350">
        <ele>531.962</ele>
        <time>2021-10-12T11:51:22Z</time>
      </trkpt>
      <trkpt lat="38.015827" lon="-6.223187">
        <ele>530.542</ele>
        <time>2021-10-12T11:51:23Z</time>
      </trkpt>
      <trkpt lat="38.016319" lon="-6.222885">
        <ele>530.933</ele>
        <time>2021-10-12T11:51:25Z</time>
      </trkpt>
      <trkpt lat="38.016557" lon="-6.222740">
        <ele>532.346</ele>
        <time>2021-10-12T11:51:26Z</time>
      </trkpt>
      <trkpt lat="38.016976" lon="-6.222492">
        <ele>534.088</ele>
        <time>2021-10-12T11:51:28Z</time>
      </trkpt>
      <trkpt lat="38.017190" lon="-6.222368">
        <ele>534.516</ele>
        <time>2021-10-12T11:51:29Z</time>
      </trkpt>
      <trkpt lat="38.017628" lon="-6.222113">
        <ele>532.908</ele>
        <time>2021-10-12T11:51:31Z</time>
      </trkpt>
      <trkpt lat="38.017859" lon="-6.221979">
        <ele>531.472</ele>
        <time>2021-10-12T11:51:32Z</time>
      </trkpt>
      <trkpt lat="38.018318" lon="-6.221714">
        <ele>529.860</ele>
        <time>2021-10-12T11:51:34Z</time>
      </trkpt>
      <trkpt lat="38.018795" lon="-6.221441">
        <ele>531.556</ele>
        <time>2021-10-12T11:51:36Z</time>
      </trkpt>
      <trkpt lat="38.019038" lon="-6.221301">
        <ele>533.149</ele>
        <time>2021-10-12T11:51:37Z</time>
      </trkpt>
      <trkpt lat="38.019276" lon="-6.221164">
        <ele>534.535</ele>
        <time>2021-10-12T11:51:38Z</time>
      </trkpt>
      <trkpt lat="38.019716" lon="-6.220913">
        <ele>535.034</ele>
        <time>2021-10-12T11:51:40Z</time>
      </trkpt>
      <trkpt lat="38.019935" lon="-6.220792">
        <ele>536.184</ele>
        <time>2021-10-12T11:51:41Z</time>
      </trkpt>
      <trkpt lat="38.020368" lon="-6.220546">
        <ele>538.445</ele>
        <time>2021-10-12T11:51:43Z</time>
      </trkpt>
      <trkpt lat="38.020586" lon="-6.220417">
        <ele>539.647</ele>
        <time>2021-10-12T11:51:44Z</time>
      </trkpt>
      <trkpt lat="38.020990" lon="-6.220124">
        <ele>539.929</ele>
        <time>2021-10-12T11:51:46Z</time>
      </trkpt>
      <trkpt lat="38.021174" lon="-6.219951">
        <ele>538.821</ele>
        <time>2021-10-12T11:51:47Z</time>
      </trkpt>
      <trkpt lat="38.021353" lon="-6.219767">
        <ele>538.108</ele>
        <time>2021-10-12T11:51:48Z</time>
      </trkpt>
      <trkpt lat="38.021758" lon="-6.219442">
        <ele>536.712</ele>
        <time>2021-10-12T11:51:50Z</time>
      </trkpt>
      <trkpt lat="38.022223" lon="-6.219263">
        <ele>534.730</ele>
        <time>2021-10-12T11:51:52Z</time>
      </trkpt>
      <trkpt lat="38.022473" lon="-6.219243">
        <ele>534.326</ele>
        <time>2021-10-12T11:51:53Z</time>
      </trkpt>
      <trkpt lat="38.022726" lon="-6.219290">
        <ele>533.619</ele>
        <time>2021-10-12T11:51:54Z</time>
      </trkpt>
      <trkpt lat="38.023225" lon="-6.219485">
        <ele>531.495</ele>
        <time>2021-10-12T11:51:56Z</time>
      </trkpt>
      <trkpt lat="38.023667" lon="-6.219683">
        <ele>530.944</ele>
        <time>2021-10-12T11:51:58Z</time>
      </trkpt>
      <trkpt lat="38.023888" lon="-6.219777">
        <ele>530.064</ele>
        <time>2021-10-12T11:51:59Z</time>
      </trkpt>
      <trkpt lat="38.024116" lon="-6.219857">
        <ele>528.885</ele>
        <time>2021-10-12T11:52:00Z</time>
      </trkpt>
      <trkpt lat="38.024353" lon="-6.219907">
        <ele>527.046</ele>
        <time>2021-10-12T11:52:01Z</time>
      </trkpt>
      <trkpt lat="38.024613" lon="-6.219923">
        <ele>525.388</ele>
        <time>2021-10-12T11:52:02Z</time>
      </trkpt>
      <trkpt lat="38.025093" lon="-6.219854">
        <ele>522.516</ele>
        <time>2021-10-12T11:52:04Z</time>
      </trkpt>
      <trkpt lat="38.025546" lon="-6.219796">
        <ele>519.108</ele>
        <time>2021-10-12T11:52:06Z</time>
      </trkpt>
      <trkpt lat="38.025771" lon="-6.219810">
        <ele>517.492</ele>
        <time>2021-10-12T11:52:07Z</time>
      </trkpt>
      <trkpt lat="38.026000" lon="-6.219864">
        <ele>517.390</ele>
        <time>2021-10-12T11:52:08Z</time>
      </trkpt>
      <trkpt lat="38.026450" lon="-6.220088">
        <ele>518.586</ele>
        <time>2021-10-12T11:52:10Z</time>
      </trkpt>
      <trkpt lat="38.026676" lon="-6.220242">
        <ele>519.129</ele>
        <time>2021-10-12T11:52:11Z</time>
      </trkpt>
      <trkpt lat="38.026889" lon="-6.220398">
        <ele>520.395</ele>
        <time>2021-10-12T11:52:12Z</time>
      </trkpt>
      <trkpt lat="38.027282" lon="-6.220675">
        <ele>522.364</ele>
        <time>2021-10-12T11:52:14Z</time>
      </trkpt>
      <trkpt lat="38.027639" lon="-6.220914">
        <ele>525.264</ele>
        <time>2021-10-12T11:52:16Z</time>
      </trkpt>
      <trkpt lat="38.027813" lon="-6.221020">
        <ele>526.695</ele>
        <time>2021-10-12T11:52:17Z</time>
      </trkpt>
      <trkpt lat="38.028117" lon="-6.221155">
        <ele>528.026</ele>
        <time>2021-10-12T11:52:19Z</time>
      </trkpt>
      <trkpt lat="38.028246" lon="-6.221184">
        <ele>528.247</ele>
        <time>2021-10-12T11:52:20Z</time>
      </trkpt>
      <trkpt lat="38.028447" lon="-6.221183">
        <ele>529.011</ele>
        <time>2021-10-12T11:52:22Z</time>
      </trkpt>
      <trkpt lat="38.028537" lon="-6.221169">
        <ele>529.508</ele>
        <time>2021-10-12T11:52:23Z</time>
      </trkpt>
      <trkpt lat="38.028718" lon="-6.221111">
        <ele>530.870</ele>
        <time>2021-10-12T11:52:25Z</time>
      </trkpt>
      <trkpt lat="38.028800" lon="-6.221059">
        <ele>531.538</ele>
        <time>2021-10-12T11:52:26Z</time>
      </trkpt>
      <trkpt lat="38.028954" lon="-6.220973">
        <ele>532.664</ele>
        <time>2021-10-12T11:52:28Z</time>
      </trkpt>
      <trkpt lat="38.029045" lon="-6.220961">
        <ele>532.827</ele>
        <time>2021-10-12T11:52:29Z</time>
      </trkpt>
      <trkpt lat="38.029136" lon="-6.220982">
        <ele>532.963</ele>
        <time>2021-10-12T11:52:30Z</time>
      </trkpt>
      <trkpt lat="38.029302" lon="-6.221142">
        <ele>533.962</ele>
        <time>2021-10-12T11:52:32Z</time>
      </trkpt>
      <trkpt lat="38.029382" lon="-6.221412">
        <ele>534.052</ele>
        <time>2021-10-12T11:52:34Z</time>
      </trkpt>
      <trkpt lat="38.029417" lon="-6.221571">
        <ele>533.923</ele>
        <time>2021-10-12T11:52:35Z</time>
      </trkpt>
      <trkpt lat="38.029482" lon="-6.221716">
        <ele>534.325</ele>
        <time>2021-10-12T11:52:36Z</time>
      </trkpt>
      <trkpt lat="38.029694" lon="-6.221983">
        <ele>536.226</ele>
        <time>2021-10-12T11:52:38Z</time>
      </trkpt>
      <trkpt lat="38.029951" lon="-6.222279">
        <ele>535.008</ele>
        <time>2021-10-12T11:52:40Z</time>
      </trkpt>
      <trkpt lat="38.030083" lon="-6.222454">
        <ele>534.308</ele>
        <time>2021-10-12T11:52:41Z</time>
      </trkpt>
      <trkpt lat="38.030216" lon="-6.222664">
        <ele>535.370</ele>
        <time>2021-10-12T11:52:42Z</time>
      </trkpt>
      <trkpt lat="38.030353" lon="-6.222890">
        <ele>536.388</ele>
        <time>2021-10-12T11:52:43Z</time>
      </trkpt>
      <trkpt lat="38.030504" lon="-6.223116">
        <ele>536.614</ele>
        <time>2021-10-12T11:52:44Z</time>
      </trkpt>
      <trkpt lat="38.030862" lon="-6.223502">
        <ele>536.737</ele>
        <time>2021-10-12T11:52:46Z</time>
      </trkpt>
      <trkpt lat="38.031285" lon="-6.223798">
        <ele>541.133</ele>
        <time>2021-10-12T11:52:48Z</time>
      </trkpt>
      <trkpt lat="38.031755" lon="-6.223956">
        <ele>542.372</ele>
        <time>2021-10-12T11:52:50Z</time>
      </trkpt>
      <trkpt lat="38.032253" lon="-6.223990">
        <ele>543.132</ele>
        <time>2021-10-12T11:52:52Z</time>
      </trkpt>
      <trkpt lat="38.032794" lon="-6.223950">
        <ele>546.993</ele>
        <time>2021-10-12T11:52:54Z</time>
      </trkpt>
      <trkpt lat="38.033319" lon="-6.223899">
        <ele>547.928</ele>
        <time>2021-10-12T11:52:56Z</time>
      </trkpt>
      <trkpt lat="38.033814" lon="-6.223871">
        <ele>549.289</ele>
        <time>2021-10-12T11:52:58Z</time>
      </trkpt>
      <trkpt lat="38.034070" lon="-6.223878">
        <ele>549.117</ele>
        <time>2021-10-12T11:52:59Z</time>
      </trkpt>
      <trkpt lat="38.034575" lon="-6.223983">
        <ele>550.408</ele>
        <time>2021-10-12T11:53:01Z</time>
      </trkpt>
      <trkpt lat="38.034825" lon="-6.224093">
        <ele>551.470</ele>
        <time>2021-10-12T11:53:02Z</time>
      </trkpt>
      <trkpt lat="38.035275" lon="-6.224408">
        <ele>554.178</ele>
        <time>2021-10-12T11:53:04Z</time>
      </trkpt>
      <trkpt lat="38.035477" lon="-6.224624">
        <ele>555.894</ele>
        <time>2021-10-12T11:53:05Z</time>
      </trkpt>
      <trkpt lat="38.035658" lon="-6.224868">
        <ele>557.187</ele>
        <time>2021-10-12T11:53:06Z</time>
      </trkpt>
      <trkpt lat="38.035976" lon="-6.225400">
        <ele>559.683</ele>
        <time>2021-10-12T11:53:08Z</time>
      </trkpt>
      <trkpt lat="38.036284" lon="-6.225934">
        <ele>561.072</ele>
        <time>2021-10-12T11:53:10Z</time>
      </trkpt>
      <trkpt lat="38.036602" lon="-6.226475">
        <ele>562.352</ele>
        <time>2021-10-12T11:53:12Z</time>
      </trkpt>
      <trkpt lat="38.036941" lon="-6.227015">
        <ele>561.033</ele>
        <time>2021-10-12T11:53:14Z</time>
      </trkpt>
      <trkpt lat="38.037301" lon="-6.227504">
        <ele>558.648</ele>
        <time>2021-10-12T11:53:16Z</time>
      </trkpt>
      <trkpt lat="38.037709" lon="-6.227948">
        <ele>563.661</ele>
        <time>2021-10-12T11:53:18Z</time>
      </trkpt>
      <trkpt lat="38.038163" lon="-6.228327">
        <ele>565.317</ele>
        <time>2021-10-12T11:53:20Z</time>
      </trkpt>
      <trkpt lat="38.038631" lon="-6.228670">
        <ele>563.908</ele>
        <time>2021-10-12T11:53:22Z</time>
      </trkpt>
      <trkpt lat="38.038875" lon="-6.228847">
        <ele>565.192</ele>
        <time>2021-10-12T11:53:23Z</time>
      </trkpt>
      <trkpt lat="38.039359" lon="-6.229205">
        <ele>565.270</ele>
        <time>2021-10-12T11:53:25Z</time>
      </trkpt>
      <trkpt lat="38.039606" lon="-6.229387">
        <ele>566.496</ele>
        <time>2021-10-12T11:53:26Z</time>
      </trkpt>
      <trkpt lat="38.040070" lon="-6.229720">
        <ele>565.879</ele>
        <time>2021-10-12T11:53:28Z</time>
      </trkpt>
      <trkpt lat="38.040305" lon="-6.229892">
        <ele>566.835</ele>
        <time>2021-10-12T11:53:29Z</time>
      </trkpt>
      <trkpt lat="38.040776" lon="-6.230231">
        <ele>565.254</ele>
        <time>2021-10-12T11:53:31Z</time>
      </trkpt>
      <trkpt lat="38.041018" lon="-6.230412">
        <ele>563.794</ele>
        <time>2021-10-12T11:53:32Z</time>
      </trkpt>
      <trkpt lat="38.041494" lon="-6.230769">
        <ele>563.435</ele>
        <time>2021-10-12T11:53:34Z</time>
      </trkpt>
      <trkpt lat="38.041739" lon="-6.230952">
        <ele>564.115</ele>
        <time>2021-10-12T11:53:35Z</time>
      </trkpt>
      <trkpt lat="38.042237" lon="-6.231314">
        <ele>560.865</ele>
        <time>2021-10-12T11:53:37Z</time>
      </trkpt>
      <trkpt lat="38.042490" lon="-6.231502">
        <ele>559.811</ele>
        <time>2021-10-12T11:53:38Z</time>
      </trkpt>
      <trkpt lat="38.042940" lon="-6.231835">
        <ele>561.908</ele>
        <time>2021-10-12T11:53:40Z</time>
      </trkpt>
      <trkpt lat="38.043359" lon="-6.232146">
        <ele>564.889</ele>
        <time>2021-10-12T11:53:42Z</time>
      </trkpt>
      <trkpt lat="38.043566" lon="-6.232306">
        <ele>566.077</ele>
        <time>2021-10-12T11:53:43Z</time>
      </trkpt>
      <trkpt lat="38.043776" lon="-6.232471">
        <ele>566.393</ele>
        <time>2021-10-12T11:53:44Z</time>
      </trkpt>
      <trkpt lat="38.044174" lon="-6.232810">
        <ele>565.926</ele>
        <time>2021-10-12T11:53:46Z</time>
      </trkpt>
      <trkpt lat="38.044581" lon="-6.233159">
        <ele>564.342</ele>
        <time>2021-10-12T11:53:48Z</time>
      </trkpt>
      <trkpt lat="38.044995" lon="-6.233504">
        <ele>563.731</ele>
        <time>2021-10-12T11:53:50Z</time>
      </trkpt>
      <trkpt lat="38.045402" lon="-6.233836">
        <ele>569.081</ele>
        <time>2021-10-12T11:53:52Z</time>
      </trkpt>
      <trkpt lat="38.045825" lon="-6.234176">
        <ele>570.842</ele>
        <time>2021-10-12T11:53:54Z</time>
      </trkpt>
      <trkpt lat="38.046040" lon="-6.234338">
        <ele>569.744</ele>
        <time>2021-10-12T11:53:55Z</time>
      </trkpt>
      <trkpt lat="38.046267" lon="-6.234488">
        <ele>568.805</ele>
        <time>2021-10-12T11:53:56Z</time>
      </trkpt>
      <trkpt lat="38.046714" lon="-6.234737">
        <ele>566.515</ele>
        <time>2021-10-12T11:53:58Z</time>
      </trkpt>
      <trkpt lat="38.046949" lon="-6.234849">
        <ele>568.608</ele>
        <time>2021-10-12T11:53:59Z</time>
      </trkpt>
      <trkpt lat="38.047422" lon="-6.235077">
        <ele>569.612</ele>
        <time>2021-10-12T11:54:01Z</time>
      </trkpt>
      <trkpt lat="38.047665" lon="-6.235207">
        <ele>571.230</ele>
        <time>2021-10-12T11:54:02Z</time>
      </trkpt>
      <trkpt lat="38.048132" lon="-6.235497">
        <ele>573.576</ele>
        <time>2021-10-12T11:54:04Z</time>
      </trkpt>
      <trkpt lat="38.048613" lon="-6.235842">
        <ele>576.049</ele>
        <time>2021-10-12T11:54:06Z</time>
      </trkpt>
      <trkpt lat="38.049095" lon="-6.236192">
        <ele>580.325</ele>
        <time>2021-10-12T11:54:08Z</time>
      </trkpt>
      <trkpt lat="38.049562" lon="-6.236528">
        <ele>581.234</ele>
        <time>2021-10-12T11:54:10Z</time>
      </trkpt>
      <trkpt lat="38.050041" lon="-6.236872">
        <ele>583.094</ele>
        <time>2021-10-12T11:54:12Z</time>
      </trkpt>
      <trkpt lat="38.050285" lon="-6.237048">
        <ele>582.495</ele>
        <time>2021-10-12T11:54:13Z</time>
      </trkpt>
      <trkpt lat="38.050533" lon="-6.237225">
        <ele>583.881</ele>
        <time>2021-10-12T11:54:14Z</time>
      </trkpt>
      <trkpt lat="38.051024" lon="-6.237551">
        <ele>589.661</ele>
        <time>2021-10-12T11:54:16Z</time>
      </trkpt>
      <trkpt lat="38.051281" lon="-6.237702">
        <ele>591.717</ele>
        <time>2021-10-12T11:54:17Z</time>
      </trkpt>
      <trkpt lat="38.051795" lon="-6.237957">
        <ele>591.808</ele>
        <time>2021-10-12T11:54:19Z</time>
      </trkpt>
      <trkpt lat="38.052051" lon="-6.238070">
        <ele>590.636</ele>
        <time>2021-10-12T11:54:20Z</time>
      </trkpt>
      <trkpt lat="38.052511" lon="-6.238282">
        <ele>592.544</ele>
        <time>2021-10-12T11:54:22Z</time>
      </trkpt>
      <trkpt lat="38.052939" lon="-6.238454">
        <ele>593.470</ele>
        <time>2021-10-12T11:54:24Z</time>
      </trkpt>
      <trkpt lat="38.053159" lon="-6.238497">
        <ele>594.413</ele>
        <time>2021-10-12T11:54:25Z</time>
      </trkpt>
      <trkpt lat="38.053396" lon="-6.238512">
        <ele>595.539</ele>
        <time>2021-10-12T11:54:26Z</time>
      </trkpt>
      <trkpt lat="38.053868" lon="-6.238466">
        <ele>598.048</ele>
        <time>2021-10-12T11:54:28Z</time>
      </trkpt>
      <trkpt lat="38.054390" lon="-6.238359">
        <ele>600.158</ele>
        <time>2021-10-12T11:54:30Z</time>
      </trkpt>
      <trkpt lat="38.054642" lon="-6.238303">
        <ele>598.989</ele>
        <time>2021-10-12T11:54:31Z</time>
      </trkpt>
      <trkpt lat="38.054886" lon="-6.238250">
        <ele>601.553</ele>
        <time>2021-10-12T11:54:32Z</time>
      </trkpt>
      <trkpt lat="38.055311" lon="-6.238157">
        <ele>609.004</ele>
        <time>2021-10-12T11:54:34Z</time>
      </trkpt>
      <trkpt lat="38.055515" lon="-6.238113">
        <ele>610.914</ele>
        <time>2021-10-12T11:54:35Z</time>
      </trkpt>
      <trkpt lat="38.055713" lon="-6.238076">
        <ele>611.608</ele>
        <time>2021-10-12T11:54:36Z</time>
      </trkpt>
      <trkpt lat="38.056148" lon="-6.237997">
        <ele>613.383</ele>
        <time>2021-10-12T11:54:38Z</time>
      </trkpt>
      <trkpt lat="38.056629" lon="-6.237937">
        <ele>615.891</ele>
        <time>2021-10-12T11:54:40Z</time>
      </trkpt>
      <trkpt lat="38.056895" lon="-6.237937">
        <ele>616.777</ele>
        <time>2021-10-12T11:54:41Z</time>
      </trkpt>
      <trkpt lat="38.057174" lon="-6.237962">
        <ele>618.350</ele>
        <time>2021-10-12T11:54:42Z</time>
      </trkpt>
      <trkpt lat="38.057766" lon="-6.238087">
        <ele>615.746</ele>
        <time>2021-10-12T11:54:44Z</time>
      </trkpt>
      <trkpt lat="38.058373" lon="-6.238321">
        <ele>618.265</ele>
        <time>2021-10-12T11:54:46Z</time>
      </trkpt>
      <trkpt lat="38.058691" lon="-6.238488">
        <ele>618.725</ele>
        <time>2021-10-12T11:54:47Z</time>
      </trkpt>
      <trkpt lat="38.059342" lon="-6.238890">
        <ele>620.686</ele>
        <time>2021-10-12T11:54:49Z</time>
      </trkpt>
      <trkpt lat="38.059685" lon="-6.239110">
        <ele>620.432</ele>
        <time>2021-10-12T11:54:50Z</time>
      </trkpt>
      <trkpt lat="38.060364" lon="-6.239537">
        <ele>623.392</ele>
        <time>2021-10-12T11:54:52Z</time>
      </trkpt>
      <trkpt lat="38.060699" lon="-6.239750">
        <ele>625.811</ele>
        <time>2021-10-12T11:54:53Z</time>
      </trkpt>
      <trkpt lat="38.061009" lon="-6.239946">
        <ele>625.708</ele>
        <time>2021-10-12T11:54:54Z</time>
      </trkpt>
      <trkpt lat="38.061297" lon="-6.240128">
        <ele>627.731</ele>
        <time>2021-10-12T11:54:55Z</time>
      </trkpt>
      <trkpt lat="38.061575" lon="-6.240303">
        <ele>629.359</ele>
        <time>2021-10-12T11:54:56Z</time>
      </trkpt>
      <trkpt lat="38.062085" lon="-6.240623">
        <ele>635.325</ele>
        <time>2021-10-12T11:54:58Z</time>
      </trkpt>
      <trkpt lat="38.062336" lon="-6.240783">
        <ele>638.598</ele>
        <time>2021-10-12T11:54:59Z</time>
      </trkpt>
      <trkpt lat="38.062578" lon="-6.240946">
        <ele>637.844</ele>
        <time>2021-10-12T11:55:00Z</time>
      </trkpt>
      <trkpt lat="38.063037" lon="-6.241314">
        <ele>634.893</ele>
        <time>2021-10-12T11:55:02Z</time>
      </trkpt>
      <trkpt lat="38.063453" lon="-6.241721">
        <ele>634.693</ele>
        <time>2021-10-12T11:55:04Z</time>
      </trkpt>
      <trkpt lat="38.063671" lon="-6.241917">
        <ele>635.944</ele>
        <time>2021-10-12T11:55:05Z</time>
      </trkpt>
      <trkpt lat="38.063890" lon="-6.242108">
        <ele>639.054</ele>
        <time>2021-10-12T11:55:06Z</time>
      </trkpt>
      <trkpt lat="38.064333" lon="-6.242491">
        <ele>644.456</ele>
        <time>2021-10-12T11:55:08Z</time>
      </trkpt>
      <trkpt lat="38.064795" lon="-6.242826">
        <ele>647.911</ele>
        <time>2021-10-12T11:55:10Z</time>
      </trkpt>
      <trkpt lat="38.065305" lon="-6.243119">
        <ele>648.808</ele>
        <time>2021-10-12T11:55:12Z</time>
      </trkpt>
      <trkpt lat="38.065831" lon="-6.243409">
        <ele>652.413</ele>
        <time>2021-10-12T11:55:14Z</time>
      </trkpt>
      <trkpt lat="38.066378" lon="-6.243613">
        <ele>655.981</ele>
        <time>2021-10-12T11:55:16Z</time>
      </trkpt>
      <trkpt lat="38.066672" lon="-6.243660">
        <ele>655.127</ele>
        <time>2021-10-12T11:55:17Z</time>
      </trkpt>
      <trkpt lat="38.066972" lon="-6.243673">
        <ele>653.320</ele>
        <time>2021-10-12T11:55:18Z</time>
      </trkpt>
      <trkpt lat="38.067607" lon="-6.243580">
        <ele>656.526</ele>
        <time>2021-10-12T11:55:20Z</time>
      </trkpt>
      <trkpt lat="38.068208" lon="-6.243498">
        <ele>658.745</ele>
        <time>2021-10-12T11:55:22Z</time>
      </trkpt>
      <trkpt lat="38.068761" lon="-6.243577">
        <ele>665.285</ele>
        <time>2021-10-12T11:55:24Z</time>
      </trkpt>
      <trkpt lat="38.069025" lon="-6.243700">
        <ele>668.046</ele>
        <time>2021-10-12T11:55:25Z</time>
      </trkpt>
      <trkpt lat="38.069275" lon="-6.243886">
        <ele>673.069</ele>
        <time>2021-10-12T11:55:26Z</time>
      </trkpt>
      <trkpt lat="38.069674" lon="-6.244374">
        <ele>677.104</ele>
        <time>2021-10-12T11:55:28Z</time>
      </trkpt>
      <trkpt lat="38.069949" lon="-6.245000">
        <ele>684.924</ele>
        <time>2021-10-12T11:55:30Z</time>
      </trkpt>
      <trkpt lat="38.070036" lon="-6.245321">
        <ele>684.708</ele>
        <time>2021-10-12T11:55:31Z</time>
      </trkpt>
      <trkpt lat="38.070085" lon="-6.245658">
        <ele>684.764</ele>
        <time>2021-10-12T11:55:32Z</time>
      </trkpt>
      <trkpt lat="38.070163" lon="-6.246311">
        <ele>689.492</ele>
        <time>2021-10-12T11:55:34Z</time>
      </trkpt>
      <trkpt lat="38.070247" lon="-6.246630">
        <ele>693.968</ele>
        <time>2021-10-12T11:55:35Z</time>
      </trkpt>
      <trkpt lat="38.070524" lon="-6.247181">
        <ele>695.731</ele>
        <time>2021-10-12T11:55:37Z</time>
      </trkpt>
      <trkpt lat="38.070713" lon="-6.247421">
        <ele>698.347</ele>
        <time>2021-10-12T11:55:38Z</time>
      </trkpt>
      <trkpt lat="38.071138" lon="-6.247825">
        <ele>699.066</ele>
        <time>2021-10-12T11:55:40Z</time>
      </trkpt>
      <trkpt lat="38.071364" lon="-6.248024">
        <ele>700.196</ele>
        <time>2021-10-12T11:55:41Z</time>
      </trkpt>
      <trkpt lat="38.071805" lon="-6.248447">
        <ele>704.997</ele>
        <time>2021-10-12T11:55:43Z</time>
      </trkpt>
      <trkpt lat="38.072028" lon="-6.248685">
        <ele>707.021</ele>
        <time>2021-10-12T11:55:44Z</time>
      </trkpt>
      <trkpt lat="38.072441" lon="-6.249211">
        <ele>712.241</ele>
        <time>2021-10-12T11:55:46Z</time>
      </trkpt>
      <trkpt lat="38.072813" lon="-6.249847">
        <ele>718.705</ele>
        <time>2021-10-12T11:55:48Z</time>
      </trkpt>
      <trkpt lat="38.072983" lon="-6.250194">
        <ele>719.808</ele>
        <time>2021-10-12T11:55:49Z</time>
      </trkpt>
      <trkpt lat="38.073148" lon="-6.250548">
        <ele>722.070</ele>
        <time>2021-10-12T11:55:50Z</time>
      </trkpt>
      <trkpt lat="38.073449" lon="-6.251222">
        <ele>725.698</ele>
        <time>2021-10-12T11:55:52Z</time>
      </trkpt>
      <trkpt lat="38.073595" lon="-6.251552">
        <ele>725.954</ele>
        <time>2021-10-12T11:55:53Z</time>
      </trkpt>
      <trkpt lat="38.073884" lon="-6.252180">
        <ele>729.267</ele>
        <time>2021-10-12T11:55:55Z</time>
      </trkpt>
      <trkpt lat="38.074050" lon="-6.252484">
        <ele>731.213</ele>
        <time>2021-10-12T11:55:56Z</time>
      </trkpt>
      <trkpt lat="38.074428" lon="-6.253047">
        <ele>733.762</ele>
        <time>2021-10-12T11:55:58Z</time>
      </trkpt>
      <trkpt lat="38.074638" lon="-6.253331">
        <ele>734.562</ele>
        <time>2021-10-12T11:55:59Z</time>
      </trkpt>
      <trkpt lat="38.075056" lon="-6.253905">
        <ele>734.053</ele>
        <time>2021-10-12T11:56:01Z</time>
      </trkpt>
      <trkpt lat="38.075272" lon="-6.254202">
        <ele>735.284</ele>
        <time>2021-10-12T11:56:02Z</time>
      </trkpt>
      <trkpt lat="38.075711" lon="-6.254755">
        <ele>734.407</ele>
        <time>2021-10-12T11:56:04Z</time>
      </trkpt>
      <trkpt lat="38.075957" lon="-6.255022">
        <ele>735.817</ele>
        <time>2021-10-12T11:56:05Z</time>
      </trkpt>
      <trkpt lat="38.076497" lon="-6.255515">
        <ele>737.408</ele>
        <time>2021-10-12T11:56:07Z</time>
      </trkpt>
      <trkpt lat="38.076793" lon="-6.255752">
        <ele>741.696</ele>
        <time>2021-10-12T11:56:08Z</time>
      </trkpt>
      <trkpt lat="38.077387" lon="-6.256172">
        <ele>749.624</ele>
        <time>2021-10-12T11:56:10Z</time>
      </trkpt>
      <trkpt lat="38.077983" lon="-6.256518">
        <ele>757.420</ele>
        <time>2021-10-12T11:56:12Z</time>
      </trkpt>
      <trkpt lat="38.078262" lon="-6.256669">
        <ele>757.793</ele>
        <time>2021-10-12T11:56:13Z</time>
      </trkpt>
      <trkpt lat="38.078525" lon="-6.256814">
        <ele>758.429</ele>
        <time>2021-10-12T11:56:14Z</time>
      </trkpt>
      <trkpt lat="38.079004" lon="-6.257131">
        <ele>754.338</ele>
        <time>2021-10-12T11:56:16Z</time>
      </trkpt>
      <trkpt lat="38.079229" lon="-6.257335">
        <ele>751.278</ele>
        <time>2021-10-12T11:56:17Z</time>
      </trkpt>
      <trkpt lat="38.079432" lon="-6.257566">
        <ele>750.169</ele>
        <time>2021-10-12T11:56:18Z</time>
      </trkpt>
      <trkpt lat="38.079746" lon="-6.258096">
        <ele>749.989</ele>
        <time>2021-10-12T11:56:20Z</time>
      </trkpt>
      <trkpt lat="38.079952" lon="-6.258684">
        <ele>746.306</ele>
        <time>2021-10-12T11:56:22Z</time>
      </trkpt>
      <trkpt lat="38.080021" lon="-6.258991">
        <ele>745.226</ele>
        <time>2021-10-12T11:56:23Z</time>
      </trkpt>
      <trkpt lat="38.080073" lon="-6.259290">
        <ele>745.708</ele>
        <time>2021-10-12T11:56:24Z</time>
      </trkpt>
      <trkpt lat="38.080168" lon="-6.259851">
        <ele>743.786</ele>
        <time>2021-10-12T11:56:26Z</time>
      </trkpt>
      <trkpt lat="38.080255" lon="-6.260341">
        <ele>741.654</ele>
        <time>2021-10-12T11:56:28Z</time>
      </trkpt>
      <trkpt lat="38.080338" lon="-6.260781">
        <ele>743.090</ele>
        <time>2021-10-12T11:56:30Z</time>
      </trkpt>
      <trkpt lat="38.080425" lon="-6.261186">
        <ele>743.863</ele>
        <time>2021-10-12T11:56:32Z</time>
      </trkpt>
      <trkpt lat="38.080555" lon="-6.261611">
        <ele>743.079</ele>
        <time>2021-10-12T11:56:34Z</time>
      </trkpt>
      <trkpt lat="38.080646" lon="-6.261827">
        <ele>742.648</ele>
        <time>2021-10-12T11:56:35Z</time>
      </trkpt>
      <trkpt lat="38.080745" lon="-6.262018">
        <ele>742.528</ele>
        <time>2021-10-12T11:56:36Z</time>
      </trkpt>
      <trkpt lat="38.080839" lon="-6.262175">
        <ele>742.639</ele>
        <time>2021-10-12T11:56:37Z</time>
      </trkpt>
      <trkpt lat="38.080921" lon="-6.262300">
        <ele>742.475</ele>
        <time>2021-10-12T11:56:38Z</time>
      </trkpt>
      <trkpt lat="38.081078" lon="-6.262481">
        <ele>742.128</ele>
        <time>2021-10-12T11:56:40Z</time>
      </trkpt>
      <trkpt lat="38.081173" lon="-6.262542">
        <ele>742.120</ele>
        <time>2021-10-12T11:56:41Z</time>
      </trkpt>
      <trkpt lat="38.081357" lon="-6.262640">
        <ele>741.608</ele>
        <time>2021-10-12T11:56:43Z</time>
      </trkpt>
      <trkpt lat="38.081430" lon="-6.262724">
        <ele>740.755</ele>
        <time>2021-10-12T11:56:44Z</time>
      </trkpt>
      <trkpt lat="38.081506" lon="-6.262957">
        <ele>738.723</ele>
        <time>2021-10-12T11:56:46Z</time>
      </trkpt>
      <trkpt lat="38.081518" lon="-6.263103">
        <ele>737.939</ele>
        <time>2021-10-12T11:56:47Z</time>
      </trkpt>
      <trkpt lat="38.081612" lon="-6.263401">
        <ele>736.452</ele>
        <time>2021-10-12T11:56:49Z</time>
      </trkpt>
      <trkpt lat="38.081694" lon="-6.263548">
        <ele>735.878</ele>
        <time>2021-10-12T11:56:50Z</time>
      </trkpt>
      <trkpt lat="38.081853" lon="-6.263833">
        <ele>735.597</ele>
        <time>2021-10-12T11:56:52Z</time>
      </trkpt>
      <trkpt lat="38.082015" lon="-6.264157">
        <ele>735.087</ele>
        <time>2021-10-12T11:56:54Z</time>
      </trkpt>
      <trkpt lat="38.082090" lon="-6.264332">
        <ele>735.678</ele>
        <time>2021-10-12T11:56:55Z</time>
      </trkpt>
      <trkpt lat="38.082159" lon="-6.264514">
        <ele>736.162</ele>
        <time>2021-10-12T11:56:56Z</time>
      </trkpt>
      <trkpt lat="38.082281" lon="-6.264854">
        <ele>735.283</ele>
        <time>2021-10-12T11:56:58Z</time>
      </trkpt>
      <trkpt lat="38.082339" lon="-6.265024">
        <ele>734.111</ele>
        <time>2021-10-12T11:56:59Z</time>
      </trkpt>
      <trkpt lat="38.082446" lon="-6.265360">
        <ele>732.108</ele>
        <time>2021-10-12T11:57:01Z</time>
      </trkpt>
      <trkpt lat="38.082499" lon="-6.265527">
        <ele>731.964</ele>
        <time>2021-10-12T11:57:02Z</time>
      </trkpt>
      <trkpt lat="38.082607" lon="-6.265836">
        <ele>733.832</ele>
        <time>2021-10-12T11:57:04Z</time>
      </trkpt>
      <trkpt lat="38.082660" lon="-6.265984">
        <ele>733.648</ele>
        <time>2021-10-12T11:57:05Z</time>
      </trkpt>
      <trkpt lat="38.082714" lon="-6.266129">
        <ele>733.531</ele>
        <time>2021-10-12T11:57:06Z</time>
      </trkpt>
      <trkpt lat="38.082829" lon="-6.266424">
        <ele>733.687</ele>
        <time>2021-10-12T11:57:08Z</time>
      </trkpt>
      <trkpt lat="38.082944" lon="-6.266719">
        <ele>733.356</ele>
        <time>2021-10-12T11:57:10Z</time>
      </trkpt>
      <trkpt lat="38.083000" lon="-6.266854">
        <ele>732.736</ele>
        <time>2021-10-12T11:57:11Z</time>
      </trkpt>
      <trkpt lat="38.083112" lon="-6.267103">
        <ele>732.817</ele>
        <time>2021-10-12T11:57:13Z</time>
      </trkpt>
      <trkpt lat="38.083173" lon="-6.267231">
        <ele>733.236</ele>
        <time>2021-10-12T11:57:14Z</time>
      </trkpt>
      <trkpt lat="38.083306" lon="-6.267493">
        <ele>734.017</ele>
        <time>2021-10-12T11:57:16Z</time>
      </trkpt>
      <trkpt lat="38.083461" lon="-6.267755">
        <ele>734.918</ele>
        <time>2021-10-12T11:57:18Z</time>
      </trkpt>
      <trkpt lat="38.083649" lon="-6.267997">
        <ele>734.308</ele>
        <time>2021-10-12T11:57:20Z</time>
      </trkpt>
      <trkpt lat="38.083846" lon="-6.268189">
        <ele>734.431</ele>
        <time>2021-10-12T11:57:22Z</time>
      </trkpt>
      <trkpt lat="38.083944" lon="-6.268279">
        <ele>734.429</ele>
        <time>2021-10-12T11:57:23Z</time>
      </trkpt>
      <trkpt lat="38.084049" lon="-6.268369">
        <ele>734.585</ele>
        <time>2021-10-12T11:57:24Z</time>
      </trkpt>
      <trkpt lat="38.084267" lon="-6.268550">
        <ele>734.698</ele>
        <time>2021-10-12T11:57:26Z</time>
      </trkpt>
      <trkpt lat="38.084456" lon="-6.268701">
        <ele>735.464</ele>
        <time>2021-10-12T11:57:28Z</time>
      </trkpt>
      <trkpt lat="38.084545" lon="-6.268767">
        <ele>735.783</ele>
        <time>2021-10-12T11:57:29Z</time>
      </trkpt>
      <trkpt lat="38.084716" lon="-6.268869">
        <ele>736.063</ele>
        <time>2021-10-12T11:57:31Z</time>
      </trkpt>
      <trkpt lat="38.084810" lon="-6.268905">
        <ele>736.724</ele>
        <time>2021-10-12T11:57:32Z</time>
      </trkpt>
      <trkpt lat="38.085005" lon="-6.268961">
        <ele>738.153</ele>
        <time>2021-10-12T11:57:34Z</time>
      </trkpt>
      <trkpt lat="38.085181" lon="-6.269039">
        <ele>740.304</ele>
        <time>2021-10-12T11:57:36Z</time>
      </trkpt>
      <trkpt lat="38.085254" lon="-6.269093">
        <ele>741.414</ele>
        <time>2021-10-12T11:57:37Z</time>
      </trkpt>
      <trkpt lat="38.085314" lon="-6.269148">
        <ele>742.108</ele>
        <time>2021-10-12T11:57:38Z</time>
      </trkpt>
      <trkpt lat="38.085412" lon="-6.269286">
        <ele>742.743</ele>
        <time>2021-10-12T11:57:40Z</time>
      </trkpt>
      <trkpt lat="38.085456" lon="-6.269374">
        <ele>743.161</ele>
        <time>2021-10-12T11:57:41Z</time>
      </trkpt>
      <trkpt lat="38.085492" lon="-6.269455">
        <ele>743.567</ele>
        <time>2021-10-12T11:57:42Z</time>
      </trkpt>
      <trkpt lat="38.085523" lon="-6.269526">
        <ele>743.880</ele>
        <time>2021-10-12T11:57:43Z</time>
      </trkpt>
      <trkpt lat="38.085555" lon="-6.269598">
        <ele>744.076</ele>
        <time>2021-10-12T11:57:44Z</time>
      </trkpt>
      <trkpt lat="38.085620" lon="-6.269753">
        <ele>744.745</ele>
        <time>2021-10-12T11:57:46Z</time>
      </trkpt>
      <trkpt lat="38.085655" lon="-6.269838">
        <ele>745.415</ele>
        <time>2021-10-12T11:57:47Z</time>
      </trkpt>
      <trkpt lat="38.085732" lon="-6.270020">
        <ele>746.876</ele>
        <time>2021-10-12T11:57:49Z</time>
      </trkpt>
      <trkpt lat="38.085770" lon="-6.270113">
        <ele>747.521</ele>
        <time>2021-10-12T11:57:50Z</time>
      </trkpt>
      <trkpt lat="38.085838" lon="-6.270265">
        <ele>748.941</ele>
        <time>2021-10-12T11:57:52Z</time>
      </trkpt>
      <trkpt lat="38.085866" lon="-6.270325">
        <ele>749.305</ele>
        <time>2021-10-12T11:57:53Z</time>
      </trkpt>
      <trkpt lat="38.085894" lon="-6.270389">
        <ele>749.708</ele>
        <time>2021-10-12T11:57:54Z</time>
      </trkpt>
      <trkpt lat="38.085957" lon="-6.270536">
        <ele>750.830</ele>
        <time>2021-10-12T11:57:56Z</time>
      </trkpt>
      <trkpt lat="38.086032" lon="-6.270700">
        <ele>752.068</ele>
        <time>2021-10-12T11:57:58Z</time>
      </trkpt>
      <trkpt lat="38.086072" lon="-6.270794">
        <ele>752.654</ele>
        <time>2021-10-12T11:57:59Z</time>
      </trkpt>
      <trkpt lat="38.086137" lon="-6.270960">
        <ele>753.627</ele>
        <time>2021-10-12T11:58:01Z</time>
      </trkpt>
      <trkpt lat="38.086164" lon="-6.271031">
        <ele>754.173</ele>
        <time>2021-10-12T11:58:02Z</time>
      </trkpt>
      <trkpt lat="38.086226" lon="-6.271176">
        <ele>754.882</ele>
        <time>2021-10-12T11:58:04Z</time>
      </trkpt>
      <trkpt lat="38.086271" lon="-6.271272">
        <ele>755.262</ele>
        <time>2021-10-12T11:58:05Z</time>
      </trkpt>
      <trkpt lat="38.086393" lon="-6.271476">
        <ele>756.093</ele>
        <time>2021-10-12T11:58:07Z</time>
      </trkpt>
      <trkpt lat="38.086461" lon="-6.271557">
        <ele>756.359</ele>
        <time>2021-10-12T11:58:08Z</time>
      </trkpt>
      <trkpt lat="38.086606" lon="-6.271652">
        <ele>756.803</ele>
        <time>2021-10-12T11:58:10Z</time>
      </trkpt>
      <trkpt lat="38.086687" lon="-6.271706">
        <ele>756.923</ele>
        <time>2021-10-12T11:58:11Z</time>
      </trkpt>
      <trkpt lat="38.086866" lon="-6.271824">
        <ele>756.308</ele>
        <time>2021-10-12T11:58:13Z</time>
      </trkpt>
      <trkpt lat="38.086947" lon="-6.271877">
        <ele>756.053</ele>
        <time>2021-10-12T11:58:14Z</time>
      </trkpt>
      <trkpt lat="38.087097" lon="-6.271974">
        <ele>755.511</ele>
        <time>2021-10-12T11:58:16Z</time>
      </trkpt>
      <trkpt lat="38.087267" lon="-6.272088">
        <ele>754.987</ele>
        <time>2021-10-12T11:58:18Z</time>
      </trkpt>
      <trkpt lat="38.087426" lon="-6.272196">
        <ele>754.360</ele>
        <time>2021-10-12T11:58:20Z</time>
      </trkpt>
      <trkpt lat="38.087571" lon="-6.272296">
        <ele>753.956</ele>
        <time>2021-10-12T11:58:22Z</time>
      </trkpt>
      <trkpt lat="38.087647" lon="-6.272346">
        <ele>753.875</ele>
        <time>2021-10-12T11:58:23Z</time>
      </trkpt>
      <trkpt lat="38.087826" lon="-6.272459">
        <ele>753.125</ele>
        <time>2021-10-12T11:58:25Z</time>
      </trkpt>
      <trkpt lat="38.087927" lon="-6.272505">
        <ele>753.066</ele>
        <time>2021-10-12T11:58:26Z</time>
      </trkpt>
      <trkpt lat="38.088117" lon="-6.272556">
        <ele>753.079</ele>
        <time>2021-10-12T11:58:28Z</time>
      </trkpt>
      <trkpt lat="38.088289" lon="-6.272586">
        <ele>753.005</ele>
        <time>2021-10-12T11:58:30Z</time>
      </trkpt>
      <trkpt lat="38.088371" lon="-6.272599">
        <ele>753.025</ele>
        <time>2021-10-12T11:58:31Z</time>
      </trkpt>
      <trkpt lat="38.088455" lon="-6.272613">
        <ele>752.808</ele>
        <time>2021-10-12T11:58:32Z</time>
      </trkpt>
      <trkpt lat="38.088630" lon="-6.272656">
        <ele>752.335</ele>
        <time>2021-10-12T11:58:34Z</time>
      </trkpt>
      <trkpt lat="38.088812" lon="-6.272735">
        <ele>750.853</ele>
        <time>2021-10-12T11:58:36Z</time>
      </trkpt>
      <trkpt lat="38.088897" lon="-6.272779">
        <ele>749.969</ele>
        <time>2021-10-12T11:58:37Z</time>
      </trkpt>
      <trkpt lat="38.088984" lon="-6.272830">
        <ele>749.032</ele>
        <time>2021-10-12T11:58:38Z</time>
      </trkpt>
      <trkpt lat="38.089159" lon="-6.272936">
        <ele>747.588</ele>
        <time>2021-10-12T11:58:40Z</time>
      </trkpt>
      <trkpt lat="38.089320" lon="-6.273020">
        <ele>747.177</ele>
        <time>2021-10-12T11:58:42Z</time>
      </trkpt>
      <trkpt lat="38.089397" lon="-6.273049">
        <ele>747.027</ele>
        <time>2021-10-12T11:58:43Z</time>
      </trkpt>
      <trkpt lat="38.089469" lon="-6.273072">
        <ele>746.938</ele>
        <time>2021-10-12T11:58:44Z</time>
      </trkpt>
      <trkpt lat="38.089618" lon="-6.273112">
        <ele>746.227</ele>
        <time>2021-10-12T11:58:46Z</time>
      </trkpt>
      <trkpt lat="38.089708" lon="-6.273134">
        <ele>745.868</ele>
        <time>2021-10-12T11:58:47Z</time>
      </trkpt>
      <trkpt lat="38.089796" lon="-6.273155">
        <ele>745.614</ele>
        <time>2021-10-12T11:58:48Z</time>
      </trkpt>
      <trkpt lat="38.089879" lon="-6.273178">
        <ele>745.608</ele>
        <time>2021-10-12T11:58:49Z</time>
      </trkpt>
      <trkpt lat="38.089957" lon="-6.273201">
        <ele>745.530</ele>
        <time>2021-10-12T11:58:50Z</time>
      </trkpt>
      <trkpt lat="38.090097" lon="-6.273239">
        <ele>744.678</ele>
        <time>2021-10-12T11:58:52Z</time>
      </trkpt>
      <trkpt lat="38.090164" lon="-6.273256">
        <ele>744.184</ele>
        <time>2021-10-12T11:58:53Z</time>
      </trkpt>
      <trkpt lat="38.090311" lon="-6.273282">
        <ele>743.127</ele>
        <time>2021-10-12T11:58:55Z</time>
      </trkpt>
      <trkpt lat="38.090397" lon="-6.273286">
        <ele>742.783</ele>
        <time>2021-10-12T11:58:56Z</time>
      </trkpt>
      <trkpt lat="38.090571" lon="-6.273289">
        <ele>742.042</ele>
        <time>2021-10-12T11:58:58Z</time>
      </trkpt>
      <trkpt lat="38.090673" lon="-6.273290">
        <ele>741.392</ele>
        <time>2021-10-12T11:58:59Z</time>
      </trkpt>
      <trkpt lat="38.090877" lon="-6.273318">
        <ele>739.913</ele>
        <time>2021-10-12T11:59:01Z</time>
      </trkpt>
      <trkpt lat="38.090966" lon="-6.273357">
        <ele>739.514</ele>
        <time>2021-10-12T11:59:02Z</time>
      </trkpt>
      <trkpt lat="38.091114" lon="-6.273484">
        <ele>739.054</ele>
        <time>2021-10-12T11:59:04Z</time>
      </trkpt>
      <trkpt lat="38.091195" lon="-6.273562">
        <ele>739.309</ele>
        <time>2021-10-12T11:59:05Z</time>
      </trkpt>
      <trkpt lat="38.091281" lon="-6.273644">
        <ele>739.408</ele>
        <time>2021-10-12T11:59:06Z</time>
      </trkpt>
      <trkpt lat="38.091471" lon="-6.273816">
        <ele>738.759</ele>
        <time>2021-10-12T11:59:08Z</time>
      </trkpt>
      <trkpt lat="38.091652" lon="-6.273978">
        <ele>738.657</ele>
        <time>2021-10-12T11:59:10Z</time>
      </trkpt>
      <trkpt lat="38.091743" lon="-6.274060">
        <ele>738.663</ele>
        <time>2021-10-12T11:59:11Z</time>
      </trkpt>
      <trkpt lat="38.091916" lon="-6.274219">
        <ele>738.776</ele>
        <time>2021-10-12T11:59:13Z</time>
      </trkpt>
      <trkpt lat="38.091999" lon="-6.274298">
        <ele>738.672</ele>
        <time>2021-10-12T11:59:14Z</time>
      </trkpt>
      <trkpt lat="38.092161" lon="-6.274447">
        <ele>738.881</ele>
        <time>2021-10-12T11:59:16Z</time>
      </trkpt>
      <trkpt lat="38.092328" lon="-6.274603">
        <ele>737.881</ele>
        <time>2021-10-12T11:59:18Z</time>
      </trkpt>
      <trkpt lat="38.092408" lon="-6.274682">
        <ele>736.982</ele>
        <time>2021-10-12T11:59:19Z</time>
      </trkpt>
      <trkpt lat="38.092489" lon="-6.274762">
        <ele>735.864</ele>
        <time>2021-10-12T11:59:20Z</time>
      </trkpt>
      <trkpt lat="38.092640" lon="-6.274901">
        <ele>735.006</ele>
        <time>2021-10-12T11:59:22Z</time>
      </trkpt>
      <trkpt lat="38.092713" lon="-6.274968">
        <ele>734.916</ele>
        <time>2021-10-12T11:59:23Z</time>
      </trkpt>
      <trkpt lat="38.092788" lon="-6.275034">
        <ele>734.908</ele>
        <time>2021-10-12T11:59:24Z</time>
      </trkpt>
      <trkpt lat="38.092952" lon="-6.275187">
        <ele>734.384</ele>
        <time>2021-10-12T11:59:26Z</time>
      </trkpt>
      <trkpt lat="38.093125" lon="-6.275347">
        <ele>733.892</ele>
        <time>2021-10-12T11:59:28Z</time>
      </trkpt>
      <trkpt lat="38.093296" lon="-6.275501">
        <ele>733.328</ele>
        <time>2021-10-12T11:59:30Z</time>
      </trkpt>
      <trkpt lat="38.093472" lon="-6.275662">
        <ele>733.241</ele>
        <time>2021-10-12T11:59:32Z</time>
      </trkpt>
      <trkpt lat="38.093641" lon="-6.275823">
        <ele>733.277</ele>
        <time>2021-10-12T11:59:34Z</time>
      </trkpt>
      <trkpt lat="38.093723" lon="-6.275896">
        <ele>733.056</ele>
        <time>2021-10-12T11:59:35Z</time>
      </trkpt>
      <trkpt lat="38.093899" lon="-6.276052">
        <ele>732.576</ele>
        <time>2021-10-12T11:59:37Z</time>
      </trkpt>
      <trkpt lat="38.094002" lon="-6.276145">
        <ele>732.247</ele>
        <time>2021-10-12T11:59:38Z</time>
      </trkpt>
      <trkpt lat="38.094244" lon="-6.276374">
        <ele>731.453</ele>
        <time>2021-10-12T11:59:40Z</time>
      </trkpt>
      <trkpt lat="38.094387" lon="-6.276506">
        <ele>731.004</ele>
        <time>2021-10-12T11:59:41Z</time>
      </trkpt>
      <trkpt lat="38.094712" lon="-6.276785">
        <ele>729.314</ele>
        <time>2021-10-12T11:59:43Z</time>
      </trkpt>
      <trkpt lat="38.095083" lon="-6.277057">
        <ele>726.708</ele>
        <time>2021-10-12T11:59:45Z</time>
      </trkpt>
      <trkpt lat="38.095528" lon="-6.277303">
        <ele>727.173</ele>
        <time>2021-10-12T11:59:47Z</time>
      </trkpt>
      <trkpt lat="38.095772" lon="-6.277409">
        <ele>726.551</ele>
        <time>2021-10-12T11:59:48Z</time>
      </trkpt>
      <trkpt lat="38.096011" lon="-6.277504">
        <ele>726.957</ele>
        <time>2021-10-12T11:59:49Z</time>
      </trkpt>
      <trkpt lat="38.096241" lon="-6.277599">
        <ele>726.630</ele>
        <time>2021-10-12T11:59:50Z</time>
      </trkpt>
      <trkpt lat="38.096670" lon="-6.277836">
        <ele>724.626</ele>
        <time>2021-10-12T11:59:52Z</time>
      </trkpt>
      <trkpt lat="38.097059" lon="-6.278169">
        <ele>727.445</ele>
        <time>2021-10-12T11:59:54Z</time>
      </trkpt>
      <trkpt lat="38.097450" lon="-6.278514">
        <ele>728.055</ele>
        <time>2021-10-12T11:59:56Z</time>
      </trkpt>
      <trkpt lat="38.097840" lon="-6.278795">
        <ele>729.336</ele>
        <time>2021-10-12T11:59:58Z</time>
      </trkpt>
      <trkpt lat="38.098281" lon="-6.278986">
        <ele>730.596</ele>
        <time>2021-10-12T12:00:00Z</time>
      </trkpt>
      <trkpt lat="38.098523" lon="-6.279038">
        <ele>729.431</ele>
        <time>2021-10-12T12:00:01Z</time>
      </trkpt>
      <trkpt lat="38.098777" lon="-6.279066">
        <ele>729.224</ele>
        <time>2021-10-12T12:00:02Z</time>
      </trkpt>
      <trkpt lat="38.099274" lon="-6.279086">
        <ele>731.708</ele>
        <time>2021-10-12T12:00:04Z</time>
      </trkpt>
      <trkpt lat="38.099531" lon="-6.279100">
        <ele>730.457</ele>
        <time>2021-10-12T12:00:05Z</time>
      </trkpt>
      <trkpt lat="38.099787" lon="-6.279119">
        <ele>729.945</ele>
        <time>2021-10-12T12:00:06Z</time>
      </trkpt>
      <trkpt lat="38.100301" lon="-6.279156">
        <ele>733.231</ele>
        <time>2021-10-12T12:00:08Z</time>
      </trkpt>
      <trkpt lat="38.100558" lon="-6.279176">
        <ele>735.144</ele>
        <time>2021-10-12T12:00:09Z</time>
      </trkpt>
      <trkpt lat="38.101073" lon="-6.279236">
        <ele>737.910</ele>
        <time>2021-10-12T12:00:11Z</time>
      </trkpt>
      <trkpt lat="38.101331" lon="-6.279294">
        <ele>737.739</ele>
        <time>2021-10-12T12:00:12Z</time>
      </trkpt>
      <trkpt lat="38.101585" lon="-6.279374">
        <ele>739.219</ele>
        <time>2021-10-12T12:00:13Z</time>
      </trkpt>
      <trkpt lat="38.101832" lon="-6.279467">
        <ele>741.040</ele>
        <time>2021-10-12T12:00:14Z</time>
      </trkpt>
      <trkpt lat="38.102293" lon="-6.279639">
        <ele>742.464</ele>
        <time>2021-10-12T12:00:16Z</time>
      </trkpt>
      <trkpt lat="38.102532" lon="-6.279695">
        <ele>744.706</ele>
        <time>2021-10-12T12:00:17Z</time>
      </trkpt>
      <trkpt lat="38.102780" lon="-6.279717">
        <ele>748.016</ele>
        <time>2021-10-12T12:00:18Z</time>
      </trkpt>
      <trkpt lat="38.103037" lon="-6.279702">
        <ele>746.308</ele>
        <time>2021-10-12T12:00:19Z</time>
      </trkpt>
      <trkpt lat="38.103293" lon="-6.279646">
        <ele>745.394</ele>
        <time>2021-10-12T12:00:20Z</time>
      </trkpt>
      <trkpt lat="38.103797" lon="-6.279415">
        <ele>741.732</ele>
        <time>2021-10-12T12:00:22Z</time>
      </trkpt>
      <trkpt lat="38.104253" lon="-6.279032">
        <ele>742.538</ele>
        <time>2021-10-12T12:00:24Z</time>
      </trkpt>
      <trkpt lat="38.104452" lon="-6.278802">
        <ele>743.241</ele>
        <time>2021-10-12T12:00:25Z</time>
      </trkpt>
      <trkpt lat="38.104636" lon="-6.278555">
        <ele>742.177</ele>
        <time>2021-10-12T12:00:26Z</time>
      </trkpt>
      <trkpt lat="38.104953" lon="-6.278114">
        <ele>741.086</ele>
        <time>2021-10-12T12:00:28Z</time>
      </trkpt>
      <trkpt lat="38.105293" lon="-6.277723">
        <ele>738.626</ele>
        <time>2021-10-12T12:00:30Z</time>
      </trkpt>
      <trkpt lat="38.105483" lon="-6.277550">
        <ele>738.067</ele>
        <time>2021-10-12T12:00:31Z</time>
      </trkpt>
      <trkpt lat="38.105690" lon="-6.277376">
        <ele>737.346</ele>
        <time>2021-10-12T12:00:32Z</time>
      </trkpt>
      <trkpt lat="38.106087" lon="-6.277026">
        <ele>734.488</ele>
        <time>2021-10-12T12:00:34Z</time>
      </trkpt>
      <trkpt lat="38.106502" lon="-6.276665">
        <ele>734.216</ele>
        <time>2021-10-12T12:00:36Z</time>
      </trkpt>
      <trkpt lat="38.106950" lon="-6.276353">
        <ele>733.708</ele>
        <time>2021-10-12T12:00:38Z</time>
      </trkpt>
      <trkpt lat="38.107447" lon="-6.276155">
        <ele>732.672</ele>
        <time>2021-10-12T12:00:40Z</time>
      </trkpt>
      <trkpt lat="38.107975" lon="-6.276117">
        <ele>739.490</ele>
        <time>2021-10-12T12:00:42Z</time>
      </trkpt>
      <trkpt lat="38.108501" lon="-6.276239">
        <ele>740.446</ele>
        <time>2021-10-12T12:00:44Z</time>
      </trkpt>
      <trkpt lat="38.109022" lon="-6.276466">
        <ele>739.939</ele>
        <time>2021-10-12T12:00:46Z</time>
      </trkpt>
      <trkpt lat="38.109548" lon="-6.276653">
        <ele>739.135</ele>
        <time>2021-10-12T12:00:48Z</time>
      </trkpt>
      <trkpt lat="38.109817" lon="-6.276702">
        <ele>739.174</ele>
        <time>2021-10-12T12:00:49Z</time>
      </trkpt>
      <trkpt lat="38.110359" lon="-6.276686">
        <ele>742.554</ele>
        <time>2021-10-12T12:00:51Z</time>
      </trkpt>
      <trkpt lat="38.110622" lon="-6.276617">
        <ele>743.725</ele>
        <time>2021-10-12T12:00:52Z</time>
      </trkpt>
      <trkpt lat="38.111111" lon="-6.276344">
        <ele>740.266</ele>
        <time>2021-10-12T12:00:54Z</time>
      </trkpt>
      <trkpt lat="38.111331" lon="-6.276141">
        <ele>739.229</ele>
        <time>2021-10-12T12:00:55Z</time>
      </trkpt>
      <trkpt lat="38.111540" lon="-6.275917">
        <ele>738.621</ele>
        <time>2021-10-12T12:00:56Z</time>
      </trkpt>
      <trkpt lat="38.111946" lon="-6.275473">
        <ele>738.308</ele>
        <time>2021-10-12T12:00:58Z</time>
      </trkpt>
      <trkpt lat="38.112152" lon="-6.275252">
        <ele>738.524</ele>
        <time>2021-10-12T12:00:59Z</time>
      </trkpt>
      <trkpt lat="38.112357" lon="-6.275033">
        <ele>739.382</ele>
        <time>2021-10-12T12:01:00Z</time>
      </trkpt>
      <trkpt lat="38.112769" lon="-6.274590">
        <ele>739.128</ele>
        <time>2021-10-12T12:01:02Z</time>
      </trkpt>
      <trkpt lat="38.113169" lon="-6.274160">
        <ele>734.411</ele>
        <time>2021-10-12T12:01:04Z</time>
      </trkpt>
      <trkpt lat="38.113375" lon="-6.273944">
        <ele>735.367</ele>
        <time>2021-10-12T12:01:05Z</time>
      </trkpt>
      <trkpt lat="38.113576" lon="-6.273727">
        <ele>736.746</ele>
        <time>2021-10-12T12:01:06Z</time>
      </trkpt>
      <trkpt lat="38.113963" lon="-6.273309">
        <ele>738.396</ele>
        <time>2021-10-12T12:01:08Z</time>
      </trkpt>
      <trkpt lat="38.114153" lon="-6.273106">
        <ele>739.747</ele>
        <time>2021-10-12T12:01:09Z</time>
      </trkpt>
      <trkpt lat="38.114339" lon="-6.272913">
        <ele>740.818</ele>
        <time>2021-10-12T12:01:10Z</time>
      </trkpt>
      <trkpt lat="38.114702" lon="-6.272527">
        <ele>740.898</ele>
        <time>2021-10-12T12:01:12Z</time>
      </trkpt>
      <trkpt lat="38.115072" lon="-6.272130">
        <ele>741.217</ele>
        <time>2021-10-12T12:01:14Z</time>
      </trkpt>
      <trkpt lat="38.115260" lon="-6.271926">
        <ele>742.108</ele>
        <time>2021-10-12T12:01:15Z</time>
      </trkpt>
      <trkpt lat="38.115648" lon="-6.271537">
        <ele>741.719</ele>
        <time>2021-10-12T12:01:17Z</time>
      </trkpt>
      <trkpt lat="38.116090" lon="-6.271227">
        <ele>742.087</ele>
        <time>2021-10-12T12:01:19Z</time>
      </trkpt>
      <trkpt lat="38.116333" lon="-6.271121">
        <ele>741.363</ele>
        <time>2021-10-12T12:01:20Z</time>
      </trkpt>
      <trkpt lat="38.116854" lon="-6.271021">
        <ele>736.936</ele>
        <time>2021-10-12T12:01:22Z</time>
      </trkpt>
      <trkpt lat="38.117122" lon="-6.271021">
        <ele>735.262</ele>
        <time>2021-10-12T12:01:23Z</time>
      </trkpt>
      <trkpt lat="38.117391" lon="-6.271059">
        <ele>735.451</ele>
        <time>2021-10-12T12:01:24Z</time>
      </trkpt>
      <trkpt lat="38.117931" lon="-6.271278">
        <ele>736.051</ele>
        <time>2021-10-12T12:01:26Z</time>
      </trkpt>
      <trkpt lat="38.118424" lon="-6.271624">
        <ele>731.312</ele>
        <time>2021-10-12T12:01:28Z</time>
      </trkpt>
      <trkpt lat="38.118937" lon="-6.271987">
        <ele>728.876</ele>
        <time>2021-10-12T12:01:30Z</time>
      </trkpt>
      <trkpt lat="38.119201" lon="-6.272165">
        <ele>727.590</ele>
        <time>2021-10-12T12:01:31Z</time>
      </trkpt>
      <trkpt lat="38.119473" lon="-6.272355">
        <ele>726.419</ele>
        <time>2021-10-12T12:01:32Z</time>
      </trkpt>
      <trkpt lat="38.120007" lon="-6.272723">
        <ele>723.608</ele>
        <time>2021-10-12T12:01:34Z</time>
      </trkpt>
      <trkpt lat="38.120569" lon="-6.273100">
        <ele>719.595</ele>
        <time>2021-10-12T12:01:36Z</time>
      </trkpt>
      <trkpt lat="38.120856" lon="-6.273291">
        <ele>718.293</ele>
        <time>2021-10-12T12:01:37Z</time>
      </trkpt>
      <trkpt lat="38.121146" lon="-6.273484">
        <ele>716.989</ele>
        <time>2021-10-12T12:01:38Z</time>
      </trkpt>
      <trkpt lat="38.121435" lon="-6.273676">
        <ele>715.922</ele>
        <time>2021-10-12T12:01:39Z</time>
      </trkpt>
      <trkpt lat="38.122006" lon="-6.274061">
        <ele>715.778</ele>
        <time>2021-10-12T12:01:41Z</time>
      </trkpt>
      <trkpt lat="38.122290" lon="-6.274258">
        <ele>714.397</ele>
        <time>2021-10-12T12:01:42Z</time>
      </trkpt>
      <trkpt lat="38.122571" lon="-6.274450">
        <ele>713.397</ele>
        <time>2021-10-12T12:01:43Z</time>
      </trkpt>
      <trkpt lat="38.122851" lon="-6.274636">
        <ele>714.498</ele>
        <time>2021-10-12T12:01:44Z</time>
      </trkpt>
      <trkpt lat="38.123393" lon="-6.275009">
        <ele>717.082</ele>
        <time>2021-10-12T12:01:46Z</time>
      </trkpt>
      <trkpt lat="38.123649" lon="-6.275187">
        <ele>716.743</ele>
        <time>2021-10-12T12:01:47Z</time>
      </trkpt>
      <trkpt lat="38.123894" lon="-6.275352">
        <ele>714.717</ele>
        <time>2021-10-12T12:01:48Z</time>
      </trkpt>
      <trkpt lat="38.124137" lon="-6.275493">
        <ele>713.108</ele>
        <time>2021-10-12T12:01:49Z</time>
      </trkpt>
      <trkpt lat="38.124388" lon="-6.275615">
        <ele>714.686</ele>
        <time>2021-10-12T12:01:50Z</time>
      </trkpt>
      <trkpt lat="38.124921" lon="-6.275790">
        <ele>716.064</ele>
        <time>2021-10-12T12:01:52Z</time>
      </trkpt>
      <trkpt lat="38.125205" lon="-6.275844">
        <ele>716.030</ele>
        <time>2021-10-12T12:01:53Z</time>
      </trkpt>
      <trkpt lat="38.125781" lon="-6.275891">
        <ele>716.293</ele>
        <time>2021-10-12T12:01:55Z</time>
      </trkpt>
      <trkpt lat="38.126080" lon="-6.275893">
        <ele>717.129</ele>
        <time>2021-10-12T12:01:56Z</time>
      </trkpt>
      <trkpt lat="38.126628" lon="-6.275902">
        <ele>713.768</ele>
        <time>2021-10-12T12:01:58Z</time>
      </trkpt>
      <trkpt lat="38.127168" lon="-6.275972">
        <ele>709.758</ele>
        <time>2021-10-12T12:02:00Z</time>
      </trkpt>
      <trkpt lat="38.127694" lon="-6.276200">
        <ele>710.229</ele>
        <time>2021-10-12T12:02:02Z</time>
      </trkpt>
      <trkpt lat="38.128156" lon="-6.276545">
        <ele>707.349</ele>
        <time>2021-10-12T12:02:04Z</time>
      </trkpt>
      <trkpt lat="38.128564" lon="-6.277003">
        <ele>709.802</ele>
        <time>2021-10-12T12:02:06Z</time>
      </trkpt>
      <trkpt lat="38.128757" lon="-6.277244">
        <ele>710.522</ele>
        <time>2021-10-12T12:02:07Z</time>
      </trkpt>
      <trkpt lat="38.129159" lon="-6.277703">
        <ele>706.808</ele>
        <time>2021-10-12T12:02:09Z</time>
      </trkpt>
      <trkpt lat="38.129619" lon="-6.278100">
        <ele>706.212</ele>
        <time>2021-10-12T12:02:11Z</time>
      </trkpt>
      <trkpt lat="38.130122" lon="-6.278381">
        <ele>704.690</ele>
        <time>2021-10-12T12:02:13Z</time>
      </trkpt>
      <trkpt lat="38.130376" lon="-6.278474">
        <ele>703.536</ele>
        <time>2021-10-12T12:02:14Z</time>
      </trkpt>
      <trkpt lat="38.130869" lon="-6.278598">
        <ele>699.779</ele>
        <time>2021-10-12T12:02:16Z</time>
      </trkpt>
      <trkpt lat="38.131332" lon="-6.278667">
        <ele>695.925</ele>
        <time>2021-10-12T12:02:18Z</time>
      </trkpt>
      <trkpt lat="38.131549" lon="-6.278697">
        <ele>694.524</ele>
        <time>2021-10-12T12:02:19Z</time>
      </trkpt>
      <trkpt lat="38.131748" lon="-6.278715">
        <ele>693.244</ele>
        <time>2021-10-12T12:02:20Z</time>
      </trkpt>
      <trkpt lat="38.132090" lon="-6.278724">
        <ele>691.885</ele>
        <time>2021-10-12T12:02:22Z</time>
      </trkpt>
      <trkpt lat="38.132359" lon="-6.278698">
        <ele>690.818</ele>
        <time>2021-10-12T12:02:24Z</time>
      </trkpt>
      <trkpt lat="38.132593" lon="-6.278632">
        <ele>688.998</ele>
        <time>2021-10-12T12:02:26Z</time>
      </trkpt>
      <trkpt lat="38.132792" lon="-6.278487">
        <ele>687.017</ele>
        <time>2021-10-12T12:02:28Z</time>
      </trkpt>
      <trkpt lat="38.132975" lon="-6.278246">
        <ele>685.608</ele>
        <time>2021-10-12T12:02:30Z</time>
      </trkpt>
      <trkpt lat="38.133063" lon="-6.278097">
        <ele>684.369</ele>
        <time>2021-10-12T12:02:31Z</time>
      </trkpt>
      <trkpt lat="38.133157" lon="-6.277933">
        <ele>682.627</ele>
        <time>2021-10-12T12:02:32Z</time>
      </trkpt>
      <trkpt lat="38.133342" lon="-6.277604">
        <ele>679.383</ele>
        <time>2021-10-12T12:02:34Z</time>
      </trkpt>
      <trkpt lat="38.133537" lon="-6.277297">
        <ele>675.526</ele>
        <time>2021-10-12T12:02:36Z</time>
      </trkpt>
      <trkpt lat="38.133642" lon="-6.277158">
        <ele>673.992</ele>
        <time>2021-10-12T12:02:37Z</time>
      </trkpt>
      <trkpt lat="38.133753" lon="-6.277029">
        <ele>673.391</ele>
        <time>2021-10-12T12:02:38Z</time>
      </trkpt>
      <trkpt lat="38.134008" lon="-6.276789">
        <ele>671.971</ele>
        <time>2021-10-12T12:02:40Z</time>
      </trkpt>
      <trkpt lat="38.134289" lon="-6.276547">
        <ele>670.682</ele>
        <time>2021-10-12T12:02:42Z</time>
      </trkpt>
      <trkpt lat="38.134437" lon="-6.276424">
        <ele>670.121</ele>
        <time>2021-10-12T12:02:43Z</time>
      </trkpt>
      <trkpt lat="38.134731" lon="-6.276157">
        <ele>669.941</ele>
        <time>2021-10-12T12:02:45Z</time>
      </trkpt>
      <trkpt lat="38.134869" lon="-6.276001">
        <ele>667.205</ele>
        <time>2021-10-12T12:02:46Z</time>
      </trkpt>
      <trkpt lat="38.135119" lon="-6.275643">
        <ele>659.808</ele>
        <time>2021-10-12T12:02:48Z</time>
      </trkpt>
      <trkpt lat="38.135343" lon="-6.275245">
        <ele>655.340</ele>
        <time>2021-10-12T12:02:50Z</time>
      </trkpt>
      <trkpt lat="38.135574" lon="-6.274829">
        <ele>655.838</ele>
        <time>2021-10-12T12:02:52Z</time>
      </trkpt>
      <trkpt lat="38.135694" lon="-6.274607">
        <ele>657.414</ele>
        <time>2021-10-12T12:02:53Z</time>
      </trkpt>
      <trkpt lat="38.135817" lon="-6.274370">
        <ele>658.017</ele>
        <time>2021-10-12T12:02:54Z</time>
      </trkpt>
      <trkpt lat="38.136072" lon="-6.273906">
        <ele>656.493</ele>
        <time>2021-10-12T12:02:56Z</time>
      </trkpt>
      <trkpt lat="38.136309" lon="-6.273438">
        <ele>653.362</ele>
        <time>2021-10-12T12:02:58Z</time>
      </trkpt>
      <trkpt lat="38.136490" lon="-6.272877">
        <ele>649.382</ele>
        <time>2021-10-12T12:03:00Z</time>
      </trkpt>
      <trkpt lat="38.136556" lon="-6.272569">
        <ele>649.683</ele>
        <time>2021-10-12T12:03:01Z</time>
      </trkpt>
      <trkpt lat="38.136612" lon="-6.272256">
        <ele>650.624</ele>
        <time>2021-10-12T12:03:02Z</time>
      </trkpt>
      <trkpt lat="38.136719" lon="-6.271696">
        <ele>647.104</ele>
        <time>2021-10-12T12:03:04Z</time>
      </trkpt>
      <trkpt lat="38.136794" lon="-6.271433">
        <ele>646.514</ele>
        <time>2021-10-12T12:03:05Z</time>
      </trkpt>
      <trkpt lat="38.136901" lon="-6.271186">
        <ele>644.808</ele>
        <time>2021-10-12T12:03:06Z</time>
      </trkpt>
      <trkpt lat="38.137211" lon="-6.270757">
        <ele>644.610</ele>
        <time>2021-10-12T12:03:08Z</time>
      </trkpt>
      <trkpt lat="38.137391" lon="-6.270580">
        <ele>643.498</ele>
        <time>2021-10-12T12:03:09Z</time>
      </trkpt>
      <trkpt lat="38.137695" lon="-6.270153">
        <ele>641.894</ele>
        <time>2021-10-12T12:03:11Z</time>
      </trkpt>
      <trkpt lat="38.137806" lon="-6.269885">
        <ele>641.327</ele>
        <time>2021-10-12T12:03:12Z</time>
      </trkpt>
      <trkpt lat="38.137983" lon="-6.269306">
        <ele>639.393</ele>
        <time>2021-10-12T12:03:14Z</time>
      </trkpt>
      <trkpt lat="38.138073" lon="-6.269010">
        <ele>639.512</ele>
        <time>2021-10-12T12:03:15Z</time>
      </trkpt>
      <trkpt lat="38.138256" lon="-6.268440">
        <ele>640.992</ele>
        <time>2021-10-12T12:03:17Z</time>
      </trkpt>
      <trkpt lat="38.138349" lon="-6.268157">
        <ele>641.693</ele>
        <time>2021-10-12T12:03:18Z</time>
      </trkpt>
      <trkpt lat="38.138440" lon="-6.267877">
        <ele>641.272</ele>
        <time>2021-10-12T12:03:19Z</time>
      </trkpt>
      <trkpt lat="38.138527" lon="-6.267599">
        <ele>640.413</ele>
        <time>2021-10-12T12:03:20Z</time>
      </trkpt>
      <trkpt lat="38.138704" lon="-6.267057">
        <ele>635.514</ele>
        <time>2021-10-12T12:03:22Z</time>
      </trkpt>
      <trkpt lat="38.138791" lon="-6.266786">
        <ele>631.708</ele>
        <time>2021-10-12T12:03:23Z</time>
      </trkpt>
      <trkpt lat="38.138968" lon="-6.266232">
        <ele>629.995</ele>
        <time>2021-10-12T12:03:25Z</time>
      </trkpt>
      <trkpt lat="38.139065" lon="-6.265941">
        <ele>629.653</ele>
        <time>2021-10-12T12:03:26Z</time>
      </trkpt>
      <trkpt lat="38.139277" lon="-6.265386">
        <ele>624.919</ele>
        <time>2021-10-12T12:03:28Z</time>
      </trkpt>
      <trkpt lat="38.139398" lon="-6.265126">
        <ele>621.222</ele>
        <time>2021-10-12T12:03:29Z</time>
      </trkpt>
      <trkpt lat="38.139666" lon="-6.264645">
        <ele>615.588</ele>
        <time>2021-10-12T12:03:31Z</time>
      </trkpt>
      <trkpt lat="38.139818" lon="-6.264412">
        <ele>612.817</ele>
        <time>2021-10-12T12:03:32Z</time>
      </trkpt>
      <trkpt lat="38.140128" lon="-6.263962">
        <ele>606.937</ele>
        <time>2021-10-12T12:03:34Z</time>
      </trkpt>
      <trkpt lat="38.140445" lon="-6.263492">
        <ele>602.068</ele>
        <time>2021-10-12T12:03:36Z</time>
      </trkpt>
      <trkpt lat="38.140601" lon="-6.263242">
        <ele>601.238</ele>
        <time>2021-10-12T12:03:37Z</time>
      </trkpt>
      <trkpt lat="38.140757" lon="-6.262989">
        <ele>599.370</ele>
        <time>2021-10-12T12:03:38Z</time>
      </trkpt>
      <trkpt lat="38.141060" lon="-6.262454">
        <ele>592.317</ele>
        <time>2021-10-12T12:03:40Z</time>
      </trkpt>
      <trkpt lat="38.141206" lon="-6.262172">
        <ele>591.708</ele>
        <time>2021-10-12T12:03:41Z</time>
      </trkpt>
      <trkpt lat="38.141479" lon="-6.261584">
        <ele>591.291</ele>
        <time>2021-10-12T12:03:43Z</time>
      </trkpt>
      <trkpt lat="38.141609" lon="-6.261282">
        <ele>593.329</ele>
        <time>2021-10-12T12:03:44Z</time>
      </trkpt>
      <trkpt lat="38.141836" lon="-6.260683">
        <ele>601.115</ele>
        <time>2021-10-12T12:03:46Z</time>
      </trkpt>
      <trkpt lat="38.142030" lon="-6.260145">
        <ele>603.018</ele>
        <time>2021-10-12T12:03:48Z</time>
      </trkpt>
      <trkpt lat="38.142133" lon="-6.259901">
        <ele>601.884</ele>
        <time>2021-10-12T12:03:49Z</time>
      </trkpt>
      <trkpt lat="38.142257" lon="-6.259671">
        <ele>601.193</ele>
        <time>2021-10-12T12:03:50Z</time>
      </trkpt>
      <trkpt lat="38.142581" lon="-6.259288">
        <ele>599.753</ele>
        <time>2021-10-12T12:03:52Z</time>
      </trkpt>
      <trkpt lat="38.142774" lon="-6.259141">
        <ele>597.864</ele>
        <time>2021-10-12T12:03:53Z</time>
      </trkpt>
      <trkpt lat="38.142979" lon="-6.259035">
        <ele>595.536</ele>
        <time>2021-10-12T12:03:54Z</time>
      </trkpt>
      <trkpt lat="38.143420" lon="-6.258926">
        <ele>590.717</ele>
        <time>2021-10-12T12:03:56Z</time>
      </trkpt>
      <trkpt lat="38.143859" lon="-6.258915">
        <ele>588.318</ele>
        <time>2021-10-12T12:03:58Z</time>
      </trkpt>
      <trkpt lat="38.144084" lon="-6.258878">
        <ele>587.208</ele>
        <time>2021-10-12T12:03:59Z</time>
      </trkpt>
      <trkpt lat="38.144301" lon="-6.258803">
        <ele>586.811</ele>
        <time>2021-10-12T12:04:00Z</time>
      </trkpt>
      <trkpt lat="38.144510" lon="-6.258691">
        <ele>587.569</ele>
        <time>2021-10-12T12:04:01Z</time>
      </trkpt>
      <trkpt lat="38.144693" lon="-6.258520">
        <ele>588.815</ele>
        <time>2021-10-12T12:04:02Z</time>
      </trkpt>
      <trkpt lat="38.144958" lon="-6.258080">
        <ele>593.618</ele>
        <time>2021-10-12T12:04:04Z</time>
      </trkpt>
      <trkpt lat="38.145084" lon="-6.257852">
        <ele>594.174</ele>
        <time>2021-10-12T12:04:05Z</time>
      </trkpt>
      <trkpt lat="38.145238" lon="-6.257631">
        <ele>593.073</ele>
        <time>2021-10-12T12:04:06Z</time>
      </trkpt>
      <trkpt lat="38.145620" lon="-6.257211">
        <ele>592.233</ele>
        <time>2021-10-12T12:04:08Z</time>
      </trkpt>
      <trkpt lat="38.146045" lon="-6.256788">
        <ele>593.044</ele>
        <time>2021-10-12T12:04:10Z</time>
      </trkpt>
      <trkpt lat="38.146264" lon="-6.256567">
        <ele>592.512</ele>
        <time>2021-10-12T12:04:11Z</time>
      </trkpt>
      <trkpt lat="38.146710" lon="-6.256114">
        <ele>595.132</ele>
        <time>2021-10-12T12:04:13Z</time>
      </trkpt>
      <trkpt lat="38.146936" lon="-6.255885">
        <ele>596.805</ele>
        <time>2021-10-12T12:04:14Z</time>
      </trkpt>
      <trkpt lat="38.147389" lon="-6.255420">
        <ele>600.808</ele>
        <time>2021-10-12T12:04:16Z</time>
      </trkpt>
      <trkpt lat="38.147793" lon="-6.254998">
        <ele>606.269</ele>
        <time>2021-10-12T12:04:18Z</time>
      </trkpt>
      <trkpt lat="38.148142" lon="-6.254543">
        <ele>612.467</ele>
        <time>2021-10-12T12:04:20Z</time>
      </trkpt>
      <trkpt lat="38.148449" lon="-6.254003">
        <ele>613.623</ele>
        <time>2021-10-12T12:04:22Z</time>
      </trkpt>
      <trkpt lat="38.148580" lon="-6.253708">
        <ele>611.836</ele>
        <time>2021-10-12T12:04:23Z</time>
      </trkpt>
      <trkpt lat="38.148780" lon="-6.253098">
        <ele>609.452</ele>
        <time>2021-10-12T12:04:25Z</time>
      </trkpt>
      <trkpt lat="38.148855" lon="-6.252788">
        <ele>609.371</ele>
        <time>2021-10-12T12:04:26Z</time>
      </trkpt>
      <trkpt lat="38.148978" lon="-6.252197">
        <ele>601.921</ele>
        <time>2021-10-12T12:04:28Z</time>
      </trkpt>
      <trkpt lat="38.149152" lon="-6.251583">
        <ele>591.942</ele>
        <time>2021-10-12T12:04:30Z</time>
      </trkpt>
      <trkpt lat="38.149269" lon="-6.251273">
        <ele>589.885</ele>
        <time>2021-10-12T12:04:31Z</time>
      </trkpt>
      <trkpt lat="38.149410" lon="-6.250969">
        <ele>587.589</ele>
        <time>2021-10-12T12:04:32Z</time>
      </trkpt>
      <trkpt lat="38.149761" lon="-6.250458">
        <ele>584.317</ele>
        <time>2021-10-12T12:04:34Z</time>
      </trkpt>
      <trkpt lat="38.149959" lon="-6.250236">
        <ele>578.308</ele>
        <time>2021-10-12T12:04:35Z</time>
      </trkpt>
      <trkpt lat="38.150351" lon="-6.249831">
        <ele>569.986</ele>
        <time>2021-10-12T12:04:37Z</time>
      </trkpt>
      <trkpt lat="38.150528" lon="-6.249624">
        <ele>568.284</ele>
        <time>2021-10-12T12:04:38Z</time>
      </trkpt>
      <trkpt lat="38.150682" lon="-6.249402">
        <ele>568.180</ele>
        <time>2021-10-12T12:04:39Z</time>
      </trkpt>
      <trkpt lat="38.150886" lon="-6.248888">
        <ele>565.833</ele>
        <time>2021-10-12T12:04:41Z</time>
      </trkpt>
      <trkpt lat="38.150952" lon="-6.248593">
        <ele>562.619</ele>
        <time>2021-10-12T12:04:42Z</time>
      </trkpt>
      <trkpt lat="38.151011" lon="-6.248283">
        <ele>560.548</ele>
        <time>2021-10-12T12:04:43Z</time>
      </trkpt>
      <trkpt lat="38.151075" lon="-6.247966">
        <ele>558.868</ele>
        <time>2021-10-12T12:04:44Z</time>
      </trkpt>
      <trkpt lat="38.151222" lon="-6.247314">
        <ele>557.679</ele>
        <time>2021-10-12T12:04:46Z</time>
      </trkpt>
      <trkpt lat="38.151295" lon="-6.246978">
        <ele>556.754</ele>
        <time>2021-10-12T12:04:47Z</time>
      </trkpt>
      <trkpt lat="38.151444" lon="-6.246298">
        <ele>550.856</ele>
        <time>2021-10-12T12:04:49Z</time>
      </trkpt>
      <trkpt lat="38.151517" lon="-6.245967">
        <ele>548.111</ele>
        <time>2021-10-12T12:04:50Z</time>
      </trkpt>
      <trkpt lat="38.151661" lon="-6.245350">
        <ele>543.508</ele>
        <time>2021-10-12T12:04:52Z</time>
      </trkpt>
      <trkpt lat="38.151729" lon="-6.245056">
        <ele>542.663</ele>
        <time>2021-10-12T12:04:53Z</time>
      </trkpt>
      <trkpt lat="38.151854" lon="-6.244498">
        <ele>539.991</ele>
        <time>2021-10-12T12:04:55Z</time>
      </trkpt>
      <trkpt lat="38.151915" lon="-6.244216">
        <ele>537.647</ele>
        <time>2021-10-12T12:04:56Z</time>
      </trkpt>
      <trkpt lat="38.152004" lon="-6.243690">
        <ele>533.460</ele>
        <time>2021-10-12T12:04:58Z</time>
      </trkpt>
      <trkpt lat="38.152016" lon="-6.243405">
        <ele>531.326</ele>
        <time>2021-10-12T12:04:59Z</time>
      </trkpt>
      <trkpt lat="38.151972" lon="-6.242791">
        <ele>530.085</ele>
        <time>2021-10-12T12:05:01Z</time>
      </trkpt>
      <trkpt lat="38.151966" lon="-6.242457">
        <ele>529.975</ele>
        <time>2021-10-12T12:05:02Z</time>
      </trkpt>
      <trkpt lat="38.152046" lon="-6.241832">
        <ele>527.756</ele>
        <time>2021-10-12T12:05:04Z</time>
      </trkpt>
      <trkpt lat="38.152153" lon="-6.241525">
        <ele>528.381</ele>
        <time>2021-10-12T12:05:05Z</time>
      </trkpt>
      <trkpt lat="38.152302" lon="-6.241224">
        <ele>530.061</ele>
        <time>2021-10-12T12:05:06Z</time>
      </trkpt>
      <trkpt lat="38.152463" lon="-6.240937">
        <ele>531.017</ele>
        <time>2021-10-12T12:05:07Z</time>
      </trkpt>
      <trkpt lat="38.152606" lon="-6.240663">
        <ele>529.508</ele>
        <time>2021-10-12T12:05:08Z</time>
      </trkpt>
      <trkpt lat="38.152817" lon="-6.240196">
        <ele>527.096</ele>
        <time>2021-10-12T12:05:10Z</time>
      </trkpt>
      <trkpt lat="38.152876" lon="-6.239993">
        <ele>526.764</ele>
        <time>2021-10-12T12:05:11Z</time>
      </trkpt>
      <trkpt lat="38.152884" lon="-6.239610">
        <ele>524.890</ele>
        <time>2021-10-12T12:05:13Z</time>
      </trkpt>
      <trkpt lat="38.152805" lon="-6.239219">
        <ele>525.533</ele>
        <time>2021-10-12T12:05:15Z</time>
      </trkpt>
      <trkpt lat="38.152822" lon="-6.238824">
        <ele>528.549</ele>
        <time>2021-10-12T12:05:17Z</time>
      </trkpt>
      <trkpt lat="38.152989" lon="-6.238409">
        <ele>530.438</ele>
        <time>2021-10-12T12:05:19Z</time>
      </trkpt>
      <trkpt lat="38.153104" lon="-6.238181">
        <ele>530.258</ele>
        <time>2021-10-12T12:05:20Z</time>
      </trkpt>
      <trkpt lat="38.153327" lon="-6.237701">
        <ele>530.029</ele>
        <time>2021-10-12T12:05:22Z</time>
      </trkpt>
      <trkpt lat="38.153555" lon="-6.237207">
        <ele>530.178</ele>
        <time>2021-10-12T12:05:24Z</time>
      </trkpt>
      <trkpt lat="38.153672" lon="-6.236961">
        <ele>533.533</ele>
        <time>2021-10-12T12:05:25Z</time>
      </trkpt>
      <trkpt lat="38.153814" lon="-6.236727">
        <ele>536.426</ele>
        <time>2021-10-12T12:05:26Z</time>
      </trkpt>
      <trkpt lat="38.154157" lon="-6.236351">
        <ele>539.808</ele>
        <time>2021-10-12T12:05:28Z</time>
      </trkpt>
      <trkpt lat="38.154336" lon="-6.236158">
        <ele>539.825</ele>
        <time>2021-10-12T12:05:29Z</time>
      </trkpt>
      <trkpt lat="38.154494" lon="-6.235940">
        <ele>539.463</ele>
        <time>2021-10-12T12:05:30Z</time>
      </trkpt>
      <trkpt lat="38.154712" lon="-6.235407">
        <ele>540.799</ele>
        <time>2021-10-12T12:05:32Z</time>
      </trkpt>
      <trkpt lat="38.154778" lon="-6.234821">
        <ele>541.882</ele>
        <time>2021-10-12T12:05:34Z</time>
      </trkpt>
      <trkpt lat="38.154670" lon="-6.234238">
        <ele>545.738</ele>
        <time>2021-10-12T12:05:36Z</time>
      </trkpt>
      <trkpt lat="38.154423" lon="-6.233733">
        <ele>550.387</ele>
        <time>2021-10-12T12:05:38Z</time>
      </trkpt>
      <trkpt lat="38.154142" lon="-6.233266">
        <ele>554.427</ele>
        <time>2021-10-12T12:05:40Z</time>
      </trkpt>
      <trkpt lat="38.154013" lon="-6.233018">
        <ele>556.638</ele>
        <time>2021-10-12T12:05:41Z</time>
      </trkpt>
      <trkpt lat="38.153794" lon="-6.232483">
        <ele>557.782</ele>
        <time>2021-10-12T12:05:43Z</time>
      </trkpt>
      <trkpt lat="38.153699" lon="-6.232180">
        <ele>558.943</ele>
        <time>2021-10-12T12:05:44Z</time>
      </trkpt>
      <trkpt lat="38.153616" lon="-6.231849">
        <ele>561.017</ele>
        <time>2021-10-12T12:05:45Z</time>
      </trkpt>
      <trkpt lat="38.153498" lon="-6.231110">
        <ele>561.408</ele>
        <time>2021-10-12T12:05:47Z</time>
      </trkpt>
      <trkpt lat="38.153432" lon="-6.230308">
        <ele>563.166</ele>
        <time>2021-10-12T12:05:49Z</time>
      </trkpt>
      <trkpt lat="38.153368" lon="-6.229508">
        <ele>566.394</ele>
        <time>2021-10-12T12:05:51Z</time>
      </trkpt>
      <trkpt lat="38.153335" lon="-6.229117">
        <ele>567.070</ele>
        <time>2021-10-12T12:05:52Z</time>
      </trkpt>
      <trkpt lat="38.153272" lon="-6.228374">
        <ele>569.593</ele>
        <time>2021-10-12T12:05:54Z</time>
      </trkpt>
      <trkpt lat="38.153204" lon="-6.227688">
        <ele>575.279</ele>
        <time>2021-10-12T12:05:56Z</time>
      </trkpt>
      <trkpt lat="38.153156" lon="-6.227115">
        <ele>579.188</ele>
        <time>2021-10-12T12:05:58Z</time>
      </trkpt>
      <trkpt lat="38.153154" lon="-6.226842">
        <ele>581.228</ele>
        <time>2021-10-12T12:05:59Z</time>
      </trkpt>
      <trkpt lat="38.153181" lon="-6.226569">
        <ele>582.719</ele>
        <time>2021-10-12T12:06:00Z</time>
      </trkpt>
      <trkpt lat="38.153246" lon="-6.226301">
        <ele>584.281</ele>
        <time>2021-10-12T12:06:01Z</time>
      </trkpt>
      <trkpt lat="38.153352" lon="-6.226033">
        <ele>585.561</ele>
        <time>2021-10-12T12:06:02Z</time>
      </trkpt>
      <trkpt lat="38.153573" lon="-6.225561">
        <ele>588.917</ele>
        <time>2021-10-12T12:06:04Z</time>
      </trkpt>
      <trkpt lat="38.153651" lon="-6.225321">
        <ele>588.908</ele>
        <time>2021-10-12T12:06:05Z</time>
      </trkpt>
      <trkpt lat="38.153775" lon="-6.224775">
        <ele>585.956</ele>
        <time>2021-10-12T12:06:07Z</time>
      </trkpt>
      <trkpt lat="38.153840" lon="-6.224477">
        <ele>585.454</ele>
        <time>2021-10-12T12:06:08Z</time>
      </trkpt>
      <trkpt lat="38.153970" lon="-6.223903">
        <ele>582.560</ele>
        <time>2021-10-12T12:06:10Z</time>
      </trkpt>
      <trkpt lat="38.154029" lon="-6.223634">
        <ele>581.183</ele>
        <time>2021-10-12T12:06:11Z</time>
      </trkpt>
      <trkpt lat="38.154084" lon="-6.223385">
        <ele>581.239</ele>
        <time>2021-10-12T12:06:12Z</time>
      </trkpt>
      <trkpt lat="38.154175" lon="-6.222967">
        <ele>581.058</ele>
        <time>2021-10-12T12:06:14Z</time>
      </trkpt>
      <trkpt lat="38.154245" lon="-6.222594">
        <ele>580.968</ele>
        <time>2021-10-12T12:06:16Z</time>
      </trkpt>
      <trkpt lat="38.154279" lon="-6.222203">
        <ele>582.439</ele>
        <time>2021-10-12T12:06:18Z</time>
      </trkpt>
      <trkpt lat="38.154290" lon="-6.221782">
        <ele>582.042</ele>
        <time>2021-10-12T12:06:20Z</time>
      </trkpt>
      <trkpt lat="38.154276" lon="-6.221384">
        <ele>582.022</ele>
        <time>2021-10-12T12:06:22Z</time>
      </trkpt>
      <trkpt lat="38.154240" lon="-6.221033">
        <ele>579.914</ele>
        <time>2021-10-12T12:06:24Z</time>
      </trkpt>
      <trkpt lat="38.154214" lon="-6.220869">
        <ele>579.208</ele>
        <time>2021-10-12T12:06:25Z</time>
      </trkpt>
      <trkpt lat="38.154184" lon="-6.220706">
        <ele>578.352</ele>
        <time>2021-10-12T12:06:26Z</time>
      </trkpt>
      <trkpt lat="38.154118" lon="-6.220409">
        <ele>578.030</ele>
        <time>2021-10-12T12:06:28Z</time>
      </trkpt>
      <trkpt lat="38.154080" lon="-6.220256">
        <ele>578.476</ele>
        <time>2021-10-12T12:06:29Z</time>
      </trkpt>
      <trkpt lat="38.154013" lon="-6.219960">
        <ele>580.479</ele>
        <time>2021-10-12T12:06:31Z</time>
      </trkpt>
      <trkpt lat="38.153996" lon="-6.219803">
        <ele>582.185</ele>
        <time>2021-10-12T12:06:32Z</time>
      </trkpt>
      <trkpt lat="38.154040" lon="-6.219512">
        <ele>586.754</ele>
        <time>2021-10-12T12:06:34Z</time>
      </trkpt>
      <trkpt lat="38.154195" lon="-6.219264">
        <ele>589.954</ele>
        <time>2021-10-12T12:06:36Z</time>
      </trkpt>
      <trkpt lat="38.154285" lon="-6.219153">
        <ele>590.595</ele>
        <time>2021-10-12T12:06:37Z</time>
      </trkpt>
      <trkpt lat="38.154410" lon="-6.218911">
        <ele>592.921</ele>
        <time>2021-10-12T12:06:39Z</time>
      </trkpt>
      <trkpt lat="38.154483" lon="-6.218630">
        <ele>596.241</ele>
        <time>2021-10-12T12:06:41Z</time>
      </trkpt>
      <trkpt lat="38.154554" lon="-6.218352">
        <ele>597.705</ele>
        <time>2021-10-12T12:06:43Z</time>
      </trkpt>
      <trkpt lat="38.154587" lon="-6.218229">
        <ele>598.608</ele>
        <time>2021-10-12T12:06:44Z</time>
      </trkpt>
      <trkpt lat="38.154647" lon="-6.217985">
        <ele>600.290</ele>
        <time>2021-10-12T12:06:46Z</time>
      </trkpt>
      <trkpt lat="38.154691" lon="-6.217724">
        <ele>602.468</ele>
        <time>2021-10-12T12:06:48Z</time>
      </trkpt>
      <trkpt lat="38.154708" lon="-6.217609">
        <ele>603.734</ele>
        <time>2021-10-12T12:06:49Z</time>
      </trkpt>
      <trkpt lat="38.154722" lon="-6.217506">
        <ele>604.927</ele>
        <time>2021-10-12T12:06:50Z</time>
      </trkpt>
      <trkpt lat="38.154744" lon="-6.217279">
        <ele>605.533</ele>
        <time>2021-10-12T12:06:52Z</time>
      </trkpt>
      <trkpt lat="38.154757" lon="-6.217141">
        <ele>606.262</ele>
        <time>2021-10-12T12:06:53Z</time>
      </trkpt>
      <trkpt lat="38.154790" lon="-6.216882">
        <ele>607.272</ele>
        <time>2021-10-12T12:06:55Z</time>
      </trkpt>
      <trkpt lat="38.154808" lon="-6.216773">
        <ele>607.393</ele>
        <time>2021-10-12T12:06:56Z</time>
      </trkpt>
      <trkpt lat="38.154845" lon="-6.216605">
        <ele>607.978</ele>
        <time>2021-10-12T12:06:58Z</time>
      </trkpt>
      <trkpt lat="38.154861" lon="-6.216531">
        <ele>608.233</ele>
        <time>2021-10-12T12:06:59Z</time>
      </trkpt>
      <trkpt lat="38.154876" lon="-6.216463">
        <ele>608.626</ele>
        <time>2021-10-12T12:07:00Z</time>
      </trkpt>
      <trkpt lat="38.154891" lon="-6.216396">
        <ele>609.008</ele>
        <time>2021-10-12T12:07:01Z</time>
      </trkpt>
      <trkpt lat="38.154904" lon="-6.216318">
        <ele>609.365</ele>
        <time>2021-10-12T12:07:02Z</time>
      </trkpt>
      <trkpt lat="38.154920" lon="-6.216137">
        <ele>609.953</ele>
        <time>2021-10-12T12:07:04Z</time>
      </trkpt>
      <trkpt lat="38.154941" lon="-6.215965">
        <ele>610.069</ele>
        <time>2021-10-12T12:07:06Z</time>
      </trkpt>
      <trkpt lat="38.154997" lon="-6.215821">
        <ele>610.092</ele>
        <time>2021-10-12T12:07:08Z</time>
      </trkpt>
      <trkpt lat="38.155022" lon="-6.215736">
        <ele>610.638</ele>
        <time>2021-10-12T12:07:09Z</time>
      </trkpt>
      <trkpt lat="38.155037" lon="-6.215530">
        <ele>611.497</ele>
        <time>2021-10-12T12:07:11Z</time>
      </trkpt>
      <trkpt lat="38.155038" lon="-6.215417">
        <ele>611.877</ele>
        <time>2021-10-12T12:07:12Z</time>
      </trkpt>
      <trkpt lat="38.155036" lon="-6.215306">
        <ele>612.238</ele>
        <time>2021-10-12T12:07:13Z</time>
      </trkpt>
      <trkpt lat="38.155027" lon="-6.215114">
        <ele>613.439</ele>
        <time>2021-10-12T12:07:15Z</time>
      </trkpt>
      <trkpt lat="38.155018" lon="-6.215021">
        <ele>614.001</ele>
        <time>2021-10-12T12:07:16Z</time>
      </trkpt>
      <trkpt lat="38.154997" lon="-6.214827">
        <ele>614.621</ele>
        <time>2021-10-12T12:07:18Z</time>
      </trkpt>
      <trkpt lat="38.154974" lon="-6.214637">
        <ele>615.208</ele>
        <time>2021-10-12T12:07:20Z</time>
      </trkpt>
      <trkpt lat="38.154954" lon="-6.214456">
        <ele>615.541</ele>
        <time>2021-10-12T12:07:22Z</time>
      </trkpt>
      <trkpt lat="38.154942" lon="-6.214373">
        <ele>615.939</ele>
        <time>2021-10-12T12:07:23Z</time>
      </trkpt>
      <trkpt lat="38.154933" lon="-6.214244">
        <ele>616.415</ele>
        <time>2021-10-12T12:07:25Z</time>
      </trkpt>
      <trkpt lat="38.154939" lon="-6.214167">
        <ele>616.738</ele>
        <time>2021-10-12T12:07:28Z</time>
      </trkpt>
      <trkpt lat="38.154945" lon="-6.214095">
        <ele>617.024</ele>
        <time>2021-10-12T12:07:31Z</time>
      </trkpt>
      <trkpt lat="38.154947" lon="-6.214025">
        <ele>617.483</ele>
        <time>2021-10-12T12:07:34Z</time>
      </trkpt>
      <trkpt lat="38.154950" lon="-6.213949">
        <ele>617.813</ele>
        <time>2021-10-12T12:07:37Z</time>
      </trkpt>
      <trkpt lat="38.154930" lon="-6.213898">
        <ele>618.284</ele>
        <time>2021-10-12T12:08:02Z</time>
      </trkpt>
      <trkpt lat="38.154902" lon="-6.213945">
        <ele>618.118</ele>
        <time>2021-10-12T12:12:28Z</time>
      </trkpt>
      <trkpt lat="38.154942" lon="-6.213882">
        <ele>618.398</ele>
        <time>2021-10-12T12:12:43Z</time>
      </trkpt>
      <trkpt lat="38.154980" lon="-6.213846">
        <ele>618.417</ele>
        <time>2021-10-12T12:12:46Z</time>
      </trkpt>
      <trkpt lat="38.154951" lon="-6.213890">
        <ele>618.208</ele>
        <time>2021-10-12T12:14:20Z</time>
      </trkpt>
      <trkpt lat="38.154881" lon="-6.213900">
        <ele>618.489</ele>
        <time>2021-10-12T12:14:22Z</time>
      </trkpt>
      <trkpt lat="38.154810" lon="-6.213900">
        <ele>618.767</ele>
        <time>2021-10-12T12:14:24Z</time>
      </trkpt>
      <trkpt lat="38.154735" lon="-6.213896">
        <ele>619.083</ele>
        <time>2021-10-12T12:14:26Z</time>
      </trkpt>
      <trkpt lat="38.154769" lon="-6.213947">
        <ele>618.876</ele>
        <time>2021-10-12T12:14:30Z</time>
      </trkpt>
      <trkpt lat="38.154825" lon="-6.213981">
        <ele>618.412</ele>
        <time>2021-10-12T12:14:33Z</time>
      </trkpt>
      <trkpt lat="38.154884" lon="-6.213987">
        <ele>618.071</ele>
        <time>2021-10-12T12:14:36Z</time>
      </trkpt>
      <trkpt lat="38.154933" lon="-6.213966">
        <ele>617.841</ele>
        <time>2021-10-12T12:14:52Z</time>
      </trkpt>
      <trkpt lat="38.154991" lon="-6.213950">
        <ele>617.662</ele>
        <time>2021-10-12T12:15:33Z</time>
      </trkpt>
      <trkpt lat="38.155054" lon="-6.213953">
        <ele>617.923</ele>
        <time>2021-10-12T12:15:35Z</time>
      </trkpt>
      <trkpt lat="38.155117" lon="-6.213982">
        <ele>618.283</ele>
        <time>2021-10-12T12:15:38Z</time>
      </trkpt>
      <trkpt lat="38.155071" lon="-6.214027">
        <ele>617.511</ele>
        <time>2021-10-12T12:15:40Z</time>
      </trkpt>
      <trkpt lat="38.154965" lon="-6.214025">
        <ele>617.308</ele>
        <time>2021-10-12T12:15:42Z</time>
      </trkpt>
      <trkpt lat="38.154888" lon="-6.214013">
        <ele>617.910</ele>
        <time>2021-10-12T12:15:43Z</time>
      </trkpt>
      <trkpt lat="38.154807" lon="-6.213996">
        <ele>618.548</ele>
        <time>2021-10-12T12:15:44Z</time>
      </trkpt>
      <trkpt lat="38.154714" lon="-6.213978">
        <ele>619.184</ele>
        <time>2021-10-12T12:15:45Z</time>
      </trkpt>
      <trkpt lat="38.154774" lon="-6.213967">
        <ele>618.777</ele>
        <time>2021-10-12T12:15:49Z</time>
      </trkpt>
      <trkpt lat="38.154822" lon="-6.213989">
        <ele>618.463</ele>
        <time>2021-10-12T12:16:45Z</time>
      </trkpt>
      <trkpt lat="38.154868" lon="-6.213961">
        <ele>618.292</ele>
        <time>2021-10-12T12:16:48Z</time>
      </trkpt>
      <trkpt lat="38.154923" lon="-6.213926">
        <ele>618.142</ele>
        <time>2021-10-12T12:45:12Z</time>
      </trkpt>
      <trkpt lat="38.154967" lon="-6.213883">
        <ele>618.223</ele>
        <time>2021-10-12T12:46:20Z</time>
      </trkpt>
      <trkpt lat="38.155039" lon="-6.213881">
        <ele>618.323</ele>
        <time>2021-10-12T12:49:42Z</time>
      </trkpt>
      <trkpt lat="38.155218" lon="-6.213870">
        <ele>619.783</ele>
        <time>2021-10-12T12:49:44Z</time>
      </trkpt>
      <trkpt lat="38.155368" lon="-6.213865">
        <ele>619.811</ele>
        <time>2021-10-12T12:49:46Z</time>
      </trkpt>
      <trkpt lat="38.155429" lon="-6.213853">
        <ele>619.608</ele>
        <time>2021-10-12T12:49:47Z</time>
      </trkpt>
      <trkpt lat="38.155525" lon="-6.213837">
        <ele>619.380</ele>
        <time>2021-10-12T12:49:49Z</time>
      </trkpt>
      <trkpt lat="38.155592" lon="-6.213823">
        <ele>618.998</ele>
        <time>2021-10-12T12:49:51Z</time>
      </trkpt>
      <trkpt lat="38.155665" lon="-6.213781">
        <ele>618.424</ele>
        <time>2021-10-12T12:49:53Z</time>
      </trkpt>
      <trkpt lat="38.155742" lon="-6.213777">
        <ele>617.777</ele>
        <time>2021-10-12T12:49:55Z</time>
      </trkpt>
      <trkpt lat="38.155821" lon="-6.213769">
        <ele>617.083</ele>
        <time>2021-10-12T12:50:23Z</time>
      </trkpt>
      <trkpt lat="38.155883" lon="-6.213780">
        <ele>615.952</ele>
        <time>2021-10-12T12:50:24Z</time>
      </trkpt>
      <trkpt lat="38.155948" lon="-6.213780">
        <ele>614.762</ele>
        <time>2021-10-12T12:50:26Z</time>
      </trkpt>
      <trkpt lat="38.156022" lon="-6.213761">
        <ele>613.543</ele>
        <time>2021-10-12T12:50:28Z</time>
      </trkpt>
      <trkpt lat="38.156069" lon="-6.213742">
        <ele>612.847</ele>
        <time>2021-10-12T12:50:29Z</time>
      </trkpt>
      <trkpt lat="38.156160" lon="-6.213649">
        <ele>611.429</ele>
        <time>2021-10-12T12:50:31Z</time>
      </trkpt>
      <trkpt lat="38.156182" lon="-6.213584">
        <ele>611.121</ele>
        <time>2021-10-12T12:50:32Z</time>
      </trkpt>
      <trkpt lat="38.156205" lon="-6.213460">
        <ele>611.208</ele>
        <time>2021-10-12T12:50:34Z</time>
      </trkpt>
      <trkpt lat="38.156211" lon="-6.213389">
        <ele>611.452</ele>
        <time>2021-10-12T12:50:35Z</time>
      </trkpt>
      <trkpt lat="38.156224" lon="-6.213240">
        <ele>611.760</ele>
        <time>2021-10-12T12:50:37Z</time>
      </trkpt>
      <trkpt lat="38.156230" lon="-6.213165">
        <ele>611.846</ele>
        <time>2021-10-12T12:50:38Z</time>
      </trkpt>
      <trkpt lat="38.156251" lon="-6.213015">
        <ele>611.749</ele>
        <time>2021-10-12T12:50:40Z</time>
      </trkpt>
      <trkpt lat="38.156260" lon="-6.212936">
        <ele>611.895</ele>
        <time>2021-10-12T12:50:41Z</time>
      </trkpt>
      <trkpt lat="38.156273" lon="-6.212792">
        <ele>612.334</ele>
        <time>2021-10-12T12:50:43Z</time>
      </trkpt>
      <trkpt lat="38.156280" lon="-6.212733">
        <ele>612.374</ele>
        <time>2021-10-12T12:50:44Z</time>
      </trkpt>
      <trkpt lat="38.156294" lon="-6.212646">
        <ele>612.475</ele>
        <time>2021-10-12T12:50:46Z</time>
      </trkpt>
      <trkpt lat="38.156303" lon="-6.212563">
        <ele>612.516</ele>
        <time>2021-10-12T12:50:48Z</time>
      </trkpt>
      <trkpt lat="38.156311" lon="-6.212487">
        <ele>612.776</ele>
        <time>2021-10-12T12:50:50Z</time>
      </trkpt>
      <trkpt lat="38.156305" lon="-6.212419">
        <ele>612.813</ele>
        <time>2021-10-12T12:50:51Z</time>
      </trkpt>
      <trkpt lat="38.156339" lon="-6.212309">
        <ele>612.108</ele>
        <time>2021-10-12T12:50:53Z</time>
      </trkpt>
      <trkpt lat="38.156369" lon="-6.212173">
        <ele>611.149</ele>
        <time>2021-10-12T12:50:55Z</time>
      </trkpt>
      <trkpt lat="38.156380" lon="-6.212107">
        <ele>610.457</ele>
        <time>2021-10-12T12:50:56Z</time>
      </trkpt>
      <trkpt lat="38.156394" lon="-6.212032">
        <ele>609.563</ele>
        <time>2021-10-12T12:50:58Z</time>
      </trkpt>
      <trkpt lat="38.156407" lon="-6.211972">
        <ele>608.876</ele>
        <time>2021-10-12T12:51:00Z</time>
      </trkpt>
      <trkpt lat="38.156413" lon="-6.211903">
        <ele>608.472</ele>
        <time>2021-10-12T12:51:02Z</time>
      </trkpt>
      <trkpt lat="38.156421" lon="-6.211824">
        <ele>608.091</ele>
        <time>2021-10-12T12:51:04Z</time>
      </trkpt>
      <trkpt lat="38.156422" lon="-6.211752">
        <ele>607.891</ele>
        <time>2021-10-12T12:51:06Z</time>
      </trkpt>
      <trkpt lat="38.156422" lon="-6.211678">
        <ele>607.672</ele>
        <time>2021-10-12T12:51:09Z</time>
      </trkpt>
      <trkpt lat="38.156459" lon="-6.211639">
        <ele>606.953</ele>
        <time>2021-10-12T12:51:12Z</time>
      </trkpt>
      <trkpt lat="38.156491" lon="-6.211701">
        <ele>606.604</ele>
        <time>2021-10-12T12:51:14Z</time>
      </trkpt>
      <trkpt lat="38.156499" lon="-6.211805">
        <ele>606.514</ele>
        <time>2021-10-12T12:51:15Z</time>
      </trkpt>
      <trkpt lat="38.156506" lon="-6.211900">
        <ele>606.408</ele>
        <time>2021-10-12T12:51:16Z</time>
      </trkpt>
      <trkpt lat="38.156542" lon="-6.212114">
        <ele>606.223</ele>
        <time>2021-10-12T12:51:18Z</time>
      </trkpt>
      <trkpt lat="38.156566" lon="-6.212233">
        <ele>605.981</ele>
        <time>2021-10-12T12:51:19Z</time>
      </trkpt>
      <trkpt lat="38.156596" lon="-6.212364">
        <ele>604.717</ele>
        <time>2021-10-12T12:51:20Z</time>
      </trkpt>
      <trkpt lat="38.156667" lon="-6.212644">
        <ele>601.560</ele>
        <time>2021-10-12T12:51:22Z</time>
      </trkpt>
      <trkpt lat="38.156705" lon="-6.212787">
        <ele>599.946</ele>
        <time>2021-10-12T12:51:23Z</time>
      </trkpt>
      <trkpt lat="38.156782" lon="-6.213074">
        <ele>595.525</ele>
        <time>2021-10-12T12:51:25Z</time>
      </trkpt>
      <trkpt lat="38.156823" lon="-6.213225">
        <ele>595.015</ele>
        <time>2021-10-12T12:51:26Z</time>
      </trkpt>
      <trkpt lat="38.156898" lon="-6.213501">
        <ele>595.576</ele>
        <time>2021-10-12T12:51:28Z</time>
      </trkpt>
      <trkpt lat="38.156962" lon="-6.213746">
        <ele>596.199</ele>
        <time>2021-10-12T12:51:30Z</time>
      </trkpt>
      <trkpt lat="38.156991" lon="-6.213858">
        <ele>595.907</ele>
        <time>2021-10-12T12:51:31Z</time>
      </trkpt>
      <trkpt lat="38.157021" lon="-6.213975">
        <ele>595.727</ele>
        <time>2021-10-12T12:51:32Z</time>
      </trkpt>
      <trkpt lat="38.157071" lon="-6.214219">
        <ele>595.708</ele>
        <time>2021-10-12T12:51:34Z</time>
      </trkpt>
      <trkpt lat="38.157100" lon="-6.214468">
        <ele>596.757</ele>
        <time>2021-10-12T12:51:36Z</time>
      </trkpt>
      <trkpt lat="38.157109" lon="-6.214587">
        <ele>597.595</ele>
        <time>2021-10-12T12:51:37Z</time>
      </trkpt>
      <trkpt lat="38.157114" lon="-6.214699">
        <ele>598.311</ele>
        <time>2021-10-12T12:51:38Z</time>
      </trkpt>
      <trkpt lat="38.157115" lon="-6.214914">
        <ele>597.414</ele>
        <time>2021-10-12T12:51:40Z</time>
      </trkpt>
      <trkpt lat="38.157115" lon="-6.215031">
        <ele>596.690</ele>
        <time>2021-10-12T12:51:41Z</time>
      </trkpt>
      <trkpt lat="38.157121" lon="-6.215285">
        <ele>594.099</ele>
        <time>2021-10-12T12:51:43Z</time>
      </trkpt>
      <trkpt lat="38.157124" lon="-6.215420">
        <ele>593.599</ele>
        <time>2021-10-12T12:51:44Z</time>
      </trkpt>
      <trkpt lat="38.157127" lon="-6.215689">
        <ele>593.430</ele>
        <time>2021-10-12T12:51:46Z</time>
      </trkpt>
      <trkpt lat="38.157130" lon="-6.215823">
        <ele>593.682</ele>
        <time>2021-10-12T12:51:47Z</time>
      </trkpt>
      <trkpt lat="38.157136" lon="-6.215955">
        <ele>593.843</ele>
        <time>2021-10-12T12:51:48Z</time>
      </trkpt>
      <trkpt lat="38.157164" lon="-6.216203">
        <ele>593.117</ele>
        <time>2021-10-12T12:51:50Z</time>
      </trkpt>
      <trkpt lat="38.157213" lon="-6.216430">
        <ele>591.208</ele>
        <time>2021-10-12T12:51:52Z</time>
      </trkpt>
      <trkpt lat="38.157245" lon="-6.216537">
        <ele>590.636</ele>
        <time>2021-10-12T12:51:53Z</time>
      </trkpt>
      <trkpt lat="38.157278" lon="-6.216641">
        <ele>590.044</ele>
        <time>2021-10-12T12:51:54Z</time>
      </trkpt>
      <trkpt lat="38.157315" lon="-6.216739">
        <ele>589.710</ele>
        <time>2021-10-12T12:51:55Z</time>
      </trkpt>
      <trkpt lat="38.157359" lon="-6.216839">
        <ele>589.553</ele>
        <time>2021-10-12T12:51:56Z</time>
      </trkpt>
      <trkpt lat="38.157460" lon="-6.217029">
        <ele>589.599</ele>
        <time>2021-10-12T12:51:58Z</time>
      </trkpt>
      <trkpt lat="38.157590" lon="-6.217213">
        <ele>590.388</ele>
        <time>2021-10-12T12:52:00Z</time>
      </trkpt>
      <trkpt lat="38.157666" lon="-6.217298">
        <ele>590.758</ele>
        <time>2021-10-12T12:52:01Z</time>
      </trkpt>
      <trkpt lat="38.157749" lon="-6.217386">
        <ele>591.079</ele>
        <time>2021-10-12T12:52:02Z</time>
      </trkpt>
      <trkpt lat="38.157912" lon="-6.217566">
        <ele>591.844</ele>
        <time>2021-10-12T12:52:04Z</time>
      </trkpt>
      <trkpt lat="38.158080" lon="-6.217760">
        <ele>591.405</ele>
        <time>2021-10-12T12:52:06Z</time>
      </trkpt>
      <trkpt lat="38.158260" lon="-6.217959">
        <ele>590.015</ele>
        <time>2021-10-12T12:52:08Z</time>
      </trkpt>
      <trkpt lat="38.158460" lon="-6.218174">
        <ele>588.508</ele>
        <time>2021-10-12T12:52:10Z</time>
      </trkpt>
      <trkpt lat="38.158562" lon="-6.218287">
        <ele>588.212</ele>
        <time>2021-10-12T12:52:11Z</time>
      </trkpt>
      <trkpt lat="38.158743" lon="-6.218489">
        <ele>587.020</ele>
        <time>2021-10-12T12:52:13Z</time>
      </trkpt>
      <trkpt lat="38.158824" lon="-6.218575">
        <ele>586.026</ele>
        <time>2021-10-12T12:52:14Z</time>
      </trkpt>
      <trkpt lat="38.158965" lon="-6.218729">
        <ele>582.979</ele>
        <time>2021-10-12T12:52:16Z</time>
      </trkpt>
      <trkpt lat="38.159093" lon="-6.218873">
        <ele>579.685</ele>
        <time>2021-10-12T12:52:18Z</time>
      </trkpt>
      <trkpt lat="38.159216" lon="-6.219004">
        <ele>578.224</ele>
        <time>2021-10-12T12:52:20Z</time>
      </trkpt>
      <trkpt lat="38.159324" lon="-6.219117">
        <ele>577.884</ele>
        <time>2021-10-12T12:52:22Z</time>
      </trkpt>
      <trkpt lat="38.159365" lon="-6.219165">
        <ele>577.895</ele>
        <time>2021-10-12T12:52:23Z</time>
      </trkpt>
      <trkpt lat="38.159412" lon="-6.219247">
        <ele>577.946</ele>
        <time>2021-10-12T12:52:25Z</time>
      </trkpt>
      <trkpt lat="38.159423" lon="-6.219308">
        <ele>578.288</ele>
        <time>2021-10-12T12:52:27Z</time>
      </trkpt>
      <trkpt lat="38.159426" lon="-6.219381">
        <ele>578.716</ele>
        <time>2021-10-12T12:52:30Z</time>
      </trkpt>
      <trkpt lat="38.159468" lon="-6.219404">
        <ele>578.408</ele>
        <time>2021-10-12T12:52:36Z</time>
      </trkpt>
      <trkpt lat="38.159562" lon="-6.219436">
        <ele>577.392</ele>
        <time>2021-10-12T12:53:59Z</time>
      </trkpt>
      <trkpt lat="38.159723" lon="-6.219560">
        <ele>575.050</ele>
        <time>2021-10-12T12:54:01Z</time>
      </trkpt>
      <trkpt lat="38.159805" lon="-6.219654">
        <ele>573.736</ele>
        <time>2021-10-12T12:54:02Z</time>
      </trkpt>
      <trkpt lat="38.159985" lon="-6.219858">
        <ele>572.189</ele>
        <time>2021-10-12T12:54:04Z</time>
      </trkpt>
      <trkpt lat="38.160090" lon="-6.219968">
        <ele>572.295</ele>
        <time>2021-10-12T12:54:05Z</time>
      </trkpt>
      <trkpt lat="38.160297" lon="-6.220204">
        <ele>570.054</ele>
        <time>2021-10-12T12:54:07Z</time>
      </trkpt>
      <trkpt lat="38.160400" lon="-6.220323">
        <ele>568.424</ele>
        <time>2021-10-12T12:54:08Z</time>
      </trkpt>
      <trkpt lat="38.160595" lon="-6.220541">
        <ele>565.645</ele>
        <time>2021-10-12T12:54:10Z</time>
      </trkpt>
      <trkpt lat="38.160782" lon="-6.220749">
        <ele>563.425</ele>
        <time>2021-10-12T12:54:12Z</time>
      </trkpt>
      <trkpt lat="38.160879" lon="-6.220854">
        <ele>562.926</ele>
        <time>2021-10-12T12:54:13Z</time>
      </trkpt>
      <trkpt lat="38.160980" lon="-6.220963">
        <ele>562.908</ele>
        <time>2021-10-12T12:54:14Z</time>
      </trkpt>
      <trkpt lat="38.161196" lon="-6.221197">
        <ele>562.408</ele>
        <time>2021-10-12T12:54:16Z</time>
      </trkpt>
      <trkpt lat="38.161430" lon="-6.221460">
        <ele>560.940</ele>
        <time>2021-10-12T12:54:18Z</time>
      </trkpt>
      <trkpt lat="38.161551" lon="-6.221597">
        <ele>560.418</ele>
        <time>2021-10-12T12:54:19Z</time>
      </trkpt>
      <trkpt lat="38.161676" lon="-6.221738">
        <ele>559.734</ele>
        <time>2021-10-12T12:54:20Z</time>
      </trkpt>
      <trkpt lat="38.161934" lon="-6.222028">
        <ele>555.897</ele>
        <time>2021-10-12T12:54:22Z</time>
      </trkpt>
      <trkpt lat="38.162070" lon="-6.222178">
        <ele>553.463</ele>
        <time>2021-10-12T12:54:23Z</time>
      </trkpt>
      <trkpt lat="38.162212" lon="-6.222321">
        <ele>550.442</ele>
        <time>2021-10-12T12:54:24Z</time>
      </trkpt>
      <trkpt lat="38.162527" lon="-6.222578">
        <ele>548.012</ele>
        <time>2021-10-12T12:54:26Z</time>
      </trkpt>
      <trkpt lat="38.162873" lon="-6.222761">
        <ele>548.963</ele>
        <time>2021-10-12T12:54:28Z</time>
      </trkpt>
      <trkpt lat="38.163252" lon="-6.222883">
        <ele>549.523</ele>
        <time>2021-10-12T12:54:30Z</time>
      </trkpt>
      <trkpt lat="38.163645" lon="-6.222947">
        <ele>550.383</ele>
        <time>2021-10-12T12:54:32Z</time>
      </trkpt>
      <trkpt lat="38.164034" lon="-6.222977">
        <ele>552.011</ele>
        <time>2021-10-12T12:54:34Z</time>
      </trkpt>
      <trkpt lat="38.164439" lon="-6.223028">
        <ele>551.908</ele>
        <time>2021-10-12T12:54:36Z</time>
      </trkpt>
      <trkpt lat="38.164632" lon="-6.223061">
        <ele>550.020</ele>
        <time>2021-10-12T12:54:37Z</time>
      </trkpt>
      <trkpt lat="38.164815" lon="-6.223100">
        <ele>549.238</ele>
        <time>2021-10-12T12:54:38Z</time>
      </trkpt>
      <trkpt lat="38.165159" lon="-6.223243">
        <ele>549.754</ele>
        <time>2021-10-12T12:54:40Z</time>
      </trkpt>
      <trkpt lat="38.165337" lon="-6.223365">
        <ele>549.597</ele>
        <time>2021-10-12T12:54:41Z</time>
      </trkpt>
      <trkpt lat="38.165716" lon="-6.223652">
        <ele>547.183</ele>
        <time>2021-10-12T12:54:43Z</time>
      </trkpt>
      <trkpt lat="38.165929" lon="-6.223768">
        <ele>546.312</ele>
        <time>2021-10-12T12:54:44Z</time>
      </trkpt>
      <trkpt lat="38.166377" lon="-6.223892">
        <ele>544.122</ele>
        <time>2021-10-12T12:54:46Z</time>
      </trkpt>
      <trkpt lat="38.166782" lon="-6.224012">
        <ele>546.013</ele>
        <time>2021-10-12T12:54:48Z</time>
      </trkpt>
      <trkpt lat="38.166971" lon="-6.224125">
        <ele>545.926</ele>
        <time>2021-10-12T12:54:49Z</time>
      </trkpt>
      <trkpt lat="38.167152" lon="-6.224274">
        <ele>545.547</ele>
        <time>2021-10-12T12:54:50Z</time>
      </trkpt>
      <trkpt lat="38.167475" lon="-6.224674">
        <ele>547.711</ele>
        <time>2021-10-12T12:54:52Z</time>
      </trkpt>
      <trkpt lat="38.167647" lon="-6.224875">
        <ele>549.308</ele>
        <time>2021-10-12T12:54:53Z</time>
      </trkpt>
      <trkpt lat="38.168029" lon="-6.225171">
        <ele>551.590</ele>
        <time>2021-10-12T12:54:55Z</time>
      </trkpt>
      <trkpt lat="38.168221" lon="-6.225284">
        <ele>552.678</ele>
        <time>2021-10-12T12:54:56Z</time>
      </trkpt>
      <trkpt lat="38.168516" lon="-6.225517">
        <ele>550.584</ele>
        <time>2021-10-12T12:54:58Z</time>
      </trkpt>
      <trkpt lat="38.168734" lon="-6.225855">
        <ele>546.277</ele>
        <time>2021-10-12T12:55:00Z</time>
      </trkpt>
      <trkpt lat="38.168832" lon="-6.226055">
        <ele>543.723</ele>
        <time>2021-10-12T12:55:01Z</time>
      </trkpt>
      <trkpt lat="38.168942" lon="-6.226244">
        <ele>541.942</ele>
        <time>2021-10-12T12:55:02Z</time>
      </trkpt>
      <trkpt lat="38.169216" lon="-6.226538">
        <ele>540.412</ele>
        <time>2021-10-12T12:55:04Z</time>
      </trkpt>
      <trkpt lat="38.169402" lon="-6.226626">
        <ele>540.673</ele>
        <time>2021-10-12T12:55:05Z</time>
      </trkpt>
      <trkpt lat="38.169615" lon="-6.226661">
        <ele>539.754</ele>
        <time>2021-10-12T12:55:06Z</time>
      </trkpt>
      <trkpt lat="38.169841" lon="-6.226659">
        <ele>538.156</ele>
        <time>2021-10-12T12:55:07Z</time>
      </trkpt>
      <trkpt lat="38.170073" lon="-6.226652">
        <ele>536.111</ele>
        <time>2021-10-12T12:55:08Z</time>
      </trkpt>
      <trkpt lat="38.170516" lon="-6.226752">
        <ele>532.608</ele>
        <time>2021-10-12T12:55:10Z</time>
      </trkpt>
      <trkpt lat="38.170719" lon="-6.226875">
        <ele>532.693</ele>
        <time>2021-10-12T12:55:11Z</time>
      </trkpt>
      <trkpt lat="38.170902" lon="-6.227060">
        <ele>532.321</ele>
        <time>2021-10-12T12:55:12Z</time>
      </trkpt>
      <trkpt lat="38.171064" lon="-6.227321">
        <ele>530.977</ele>
        <time>2021-10-12T12:55:13Z</time>
      </trkpt>
      <trkpt lat="38.171210" lon="-6.227625">
        <ele>528.930</ele>
        <time>2021-10-12T12:55:14Z</time>
      </trkpt>
      <trkpt lat="38.171487" lon="-6.228139">
        <ele>526.996</ele>
        <time>2021-10-12T12:55:16Z</time>
      </trkpt>
      <trkpt lat="38.171749" lon="-6.228581">
        <ele>528.245</ele>
        <time>2021-10-12T12:55:18Z</time>
      </trkpt>
      <trkpt lat="38.172049" lon="-6.228937">
        <ele>527.895</ele>
        <time>2021-10-12T12:55:20Z</time>
      </trkpt>
      <trkpt lat="38.172410" lon="-6.229162">
        <ele>526.066</ele>
        <time>2021-10-12T12:55:22Z</time>
      </trkpt>
      <trkpt lat="38.172586" lon="-6.229256">
        <ele>523.558</ele>
        <time>2021-10-12T12:55:23Z</time>
      </trkpt>
      <trkpt lat="38.172905" lon="-6.229514">
        <ele>519.252</ele>
        <time>2021-10-12T12:55:25Z</time>
      </trkpt>
      <trkpt lat="38.173052" lon="-6.229691">
        <ele>517.117</ele>
        <time>2021-10-12T12:55:26Z</time>
      </trkpt>
      <trkpt lat="38.173298" lon="-6.230140">
        <ele>515.308</ele>
        <time>2021-10-12T12:55:28Z</time>
      </trkpt>
      <trkpt lat="38.173505" lon="-6.230659">
        <ele>515.943</ele>
        <time>2021-10-12T12:55:30Z</time>
      </trkpt>
      <trkpt lat="38.173606" lon="-6.230914">
        <ele>516.371</ele>
        <time>2021-10-12T12:55:31Z</time>
      </trkpt>
      <trkpt lat="38.173718" lon="-6.231159">
        <ele>515.577</ele>
        <time>2021-10-12T12:55:32Z</time>
      </trkpt>
      <trkpt lat="38.173990" lon="-6.231594">
        <ele>512.640</ele>
        <time>2021-10-12T12:55:34Z</time>
      </trkpt>
      <trkpt lat="38.174166" lon="-6.231790">
        <ele>511.546</ele>
        <time>2021-10-12T12:55:35Z</time>
      </trkpt>
      <trkpt lat="38.174586" lon="-6.232087">
        <ele>509.245</ele>
        <time>2021-10-12T12:55:37Z</time>
      </trkpt>
      <trkpt lat="38.174828" lon="-6.232195">
        <ele>508.665</ele>
        <time>2021-10-12T12:55:38Z</time>
      </trkpt>
      <trkpt lat="38.175330" lon="-6.232394">
        <ele>505.326</ele>
        <time>2021-10-12T12:55:40Z</time>
      </trkpt>
      <trkpt lat="38.175808" lon="-6.232617">
        <ele>503.725</ele>
        <time>2021-10-12T12:55:42Z</time>
      </trkpt>
      <trkpt lat="38.176285" lon="-6.232846">
        <ele>498.926</ele>
        <time>2021-10-12T12:55:44Z</time>
      </trkpt>
      <trkpt lat="38.176759" lon="-6.233060">
        <ele>498.408</ele>
        <time>2021-10-12T12:55:46Z</time>
      </trkpt>
      <trkpt lat="38.176990" lon="-6.233170">
        <ele>500.308</ele>
        <time>2021-10-12T12:55:47Z</time>
      </trkpt>
      <trkpt lat="38.177214" lon="-6.233276">
        <ele>503.590</ele>
        <time>2021-10-12T12:55:48Z</time>
      </trkpt>
      <trkpt lat="38.177645" lon="-6.233470">
        <ele>506.598</ele>
        <time>2021-10-12T12:55:50Z</time>
      </trkpt>
      <trkpt lat="38.178060" lon="-6.233630">
        <ele>508.194</ele>
        <time>2021-10-12T12:55:52Z</time>
      </trkpt>
      <trkpt lat="38.178524" lon="-6.233730">
        <ele>510.127</ele>
        <time>2021-10-12T12:55:54Z</time>
      </trkpt>
      <trkpt lat="38.178780" lon="-6.233731">
        <ele>511.013</ele>
        <time>2021-10-12T12:55:55Z</time>
      </trkpt>
      <trkpt lat="38.179057" lon="-6.233715">
        <ele>511.132</ele>
        <time>2021-10-12T12:55:56Z</time>
      </trkpt>
      <trkpt lat="38.179621" lon="-6.233691">
        <ele>509.452</ele>
        <time>2021-10-12T12:55:58Z</time>
      </trkpt>
      <trkpt lat="38.180230" lon="-6.233678">
        <ele>507.223</ele>
        <time>2021-10-12T12:56:00Z</time>
      </trkpt>
      <trkpt lat="38.180541" lon="-6.233667">
        <ele>506.119</ele>
        <time>2021-10-12T12:56:01Z</time>
      </trkpt>
      <trkpt lat="38.180863" lon="-6.233656">
        <ele>507.209</ele>
        <time>2021-10-12T12:56:02Z</time>
      </trkpt>
      <trkpt lat="38.181443" lon="-6.233631">
        <ele>509.919</ele>
        <time>2021-10-12T12:56:04Z</time>
      </trkpt>
      <trkpt lat="38.181722" lon="-6.233623">
        <ele>510.408</ele>
        <time>2021-10-12T12:56:05Z</time>
      </trkpt>
      <trkpt lat="38.181994" lon="-6.233614">
        <ele>512.039</ele>
        <time>2021-10-12T12:56:06Z</time>
      </trkpt>
      <trkpt lat="38.182261" lon="-6.233604">
        <ele>512.127</ele>
        <time>2021-10-12T12:56:07Z</time>
      </trkpt>
      <trkpt lat="38.182528" lon="-6.233594">
        <ele>512.513</ele>
        <time>2021-10-12T12:56:08Z</time>
      </trkpt>
      <trkpt lat="38.183058" lon="-6.233568">
        <ele>515.246</ele>
        <time>2021-10-12T12:56:10Z</time>
      </trkpt>
      <trkpt lat="38.183610" lon="-6.233547">
        <ele>516.522</ele>
        <time>2021-10-12T12:56:12Z</time>
      </trkpt>
      <trkpt lat="38.184193" lon="-6.233529">
        <ele>515.071</ele>
        <time>2021-10-12T12:56:14Z</time>
      </trkpt>
      <trkpt lat="38.184788" lon="-6.233510">
        <ele>513.741</ele>
        <time>2021-10-12T12:56:16Z</time>
      </trkpt>
      <trkpt lat="38.185393" lon="-6.233495">
        <ele>515.812</ele>
        <time>2021-10-12T12:56:18Z</time>
      </trkpt>
      <trkpt lat="38.185688" lon="-6.233502">
        <ele>517.521</ele>
        <time>2021-10-12T12:56:19Z</time>
      </trkpt>
      <trkpt lat="38.185976" lon="-6.233524">
        <ele>517.841</ele>
        <time>2021-10-12T12:56:20Z</time>
      </trkpt>
      <trkpt lat="38.186544" lon="-6.233642">
        <ele>517.305</ele>
        <time>2021-10-12T12:56:22Z</time>
      </trkpt>
      <trkpt lat="38.186815" lon="-6.233736">
        <ele>518.308</ele>
        <time>2021-10-12T12:56:23Z</time>
      </trkpt>
      <trkpt lat="38.187069" lon="-6.233847">
        <ele>517.850</ele>
        <time>2021-10-12T12:56:24Z</time>
      </trkpt>
      <trkpt lat="38.187313" lon="-6.233979">
        <ele>515.898</ele>
        <time>2021-10-12T12:56:25Z</time>
      </trkpt>
      <trkpt lat="38.187561" lon="-6.234138">
        <ele>513.294</ele>
        <time>2021-10-12T12:56:26Z</time>
      </trkpt>
      <trkpt lat="38.188014" lon="-6.234508">
        <ele>512.677</ele>
        <time>2021-10-12T12:56:28Z</time>
      </trkpt>
      <trkpt lat="38.188245" lon="-6.234731">
        <ele>512.073</ele>
        <time>2021-10-12T12:56:29Z</time>
      </trkpt>
      <trkpt lat="38.188475" lon="-6.234975">
        <ele>512.882</ele>
        <time>2021-10-12T12:56:30Z</time>
      </trkpt>
      <trkpt lat="38.188954" lon="-6.235501">
        <ele>514.082</ele>
        <time>2021-10-12T12:56:32Z</time>
      </trkpt>
      <trkpt lat="38.189426" lon="-6.236020">
        <ele>518.633</ele>
        <time>2021-10-12T12:56:34Z</time>
      </trkpt>
      <trkpt lat="38.189912" lon="-6.236549">
        <ele>515.516</ele>
        <time>2021-10-12T12:56:36Z</time>
      </trkpt>
      <trkpt lat="38.190157" lon="-6.236815">
        <ele>516.376</ele>
        <time>2021-10-12T12:56:37Z</time>
      </trkpt>
      <trkpt lat="38.190406" lon="-6.237083">
        <ele>518.013</ele>
        <time>2021-10-12T12:56:38Z</time>
      </trkpt>
      <trkpt lat="38.190906" lon="-6.237589">
        <ele>516.708</ele>
        <time>2021-10-12T12:56:40Z</time>
      </trkpt>
      <trkpt lat="38.191181" lon="-6.237815">
        <ele>516.489</ele>
        <time>2021-10-12T12:56:41Z</time>
      </trkpt>
      <trkpt lat="38.191756" lon="-6.238195">
        <ele>518.347</ele>
        <time>2021-10-12T12:56:43Z</time>
      </trkpt>
      <trkpt lat="38.192050" lon="-6.238374">
        <ele>519.333</ele>
        <time>2021-10-12T12:56:44Z</time>
      </trkpt>
      <trkpt lat="38.192606" lon="-6.238721">
        <ele>522.676</ele>
        <time>2021-10-12T12:56:46Z</time>
      </trkpt>
      <trkpt lat="38.193113" lon="-6.239043">
        <ele>525.692</ele>
        <time>2021-10-12T12:56:48Z</time>
      </trkpt>
      <trkpt lat="38.193619" lon="-6.239364">
        <ele>526.491</ele>
        <time>2021-10-12T12:56:50Z</time>
      </trkpt>
      <trkpt lat="38.194133" lon="-6.239692">
        <ele>527.871</ele>
        <time>2021-10-12T12:56:52Z</time>
      </trkpt>
      <trkpt lat="38.194386" lon="-6.239872">
        <ele>528.322</ele>
        <time>2021-10-12T12:56:53Z</time>
      </trkpt>
      <trkpt lat="38.194853" lon="-6.240285">
        <ele>529.687</ele>
        <time>2021-10-12T12:56:55Z</time>
      </trkpt>
      <trkpt lat="38.195068" lon="-6.240529">
        <ele>530.842</ele>
        <time>2021-10-12T12:56:56Z</time>
      </trkpt>
      <trkpt lat="38.195435" lon="-6.241048">
        <ele>532.026</ele>
        <time>2021-10-12T12:56:58Z</time>
      </trkpt>
      <trkpt lat="38.195608" lon="-6.241332">
        <ele>534.208</ele>
        <time>2021-10-12T12:56:59Z</time>
      </trkpt>
      <trkpt lat="38.195777" lon="-6.241625">
        <ele>536.176</ele>
        <time>2021-10-12T12:57:00Z</time>
      </trkpt>
      <trkpt lat="38.196139" lon="-6.242218">
        <ele>536.994</ele>
        <time>2021-10-12T12:57:02Z</time>
      </trkpt>
      <trkpt lat="38.196510" lon="-6.242776">
        <ele>539.140</ele>
        <time>2021-10-12T12:57:04Z</time>
      </trkpt>
      <trkpt lat="38.196704" lon="-6.243064">
        <ele>538.763</ele>
        <time>2021-10-12T12:57:05Z</time>
      </trkpt>
      <trkpt lat="38.196898" lon="-6.243354">
        <ele>538.249</ele>
        <time>2021-10-12T12:57:06Z</time>
      </trkpt>
      <trkpt lat="38.197093" lon="-6.243644">
        <ele>539.268</ele>
        <time>2021-10-12T12:57:07Z</time>
      </trkpt>
      <trkpt lat="38.197289" lon="-6.243934">
        <ele>541.248</ele>
        <time>2021-10-12T12:57:08Z</time>
      </trkpt>
      <trkpt lat="38.197671" lon="-6.244502">
        <ele>541.349</ele>
        <time>2021-10-12T12:57:10Z</time>
      </trkpt>
      <trkpt lat="38.198027" lon="-6.245065">
        <ele>543.551</ele>
        <time>2021-10-12T12:57:12Z</time>
      </trkpt>
      <trkpt lat="38.198196" lon="-6.245363">
        <ele>544.501</ele>
        <time>2021-10-12T12:57:13Z</time>
      </trkpt>
      <trkpt lat="38.198496" lon="-6.246006">
        <ele>547.011</ele>
        <time>2021-10-12T12:57:15Z</time>
      </trkpt>
      <trkpt lat="38.198629" lon="-6.246356">
        <ele>546.808</ele>
        <time>2021-10-12T12:57:16Z</time>
      </trkpt>
      <trkpt lat="38.198852" lon="-6.247067">
        <ele>551.613</ele>
        <time>2021-10-12T12:57:18Z</time>
      </trkpt>
      <trkpt lat="38.199098" lon="-6.247758">
        <ele>551.961</ele>
        <time>2021-10-12T12:57:20Z</time>
      </trkpt>
      <trkpt lat="38.199430" lon="-6.248378">
        <ele>550.327</ele>
        <time>2021-10-12T12:57:22Z</time>
      </trkpt>
      <trkpt lat="38.199638" lon="-6.248653">
        <ele>550.340</ele>
        <time>2021-10-12T12:57:23Z</time>
      </trkpt>
      <trkpt lat="38.200094" lon="-6.249124">
        <ele>551.116</ele>
        <time>2021-10-12T12:57:25Z</time>
      </trkpt>
      <trkpt lat="38.200331" lon="-6.249357">
        <ele>551.955</ele>
        <time>2021-10-12T12:57:26Z</time>
      </trkpt>
      <trkpt lat="38.200754" lon="-6.249805">
        <ele>552.645</ele>
        <time>2021-10-12T12:57:28Z</time>
      </trkpt>
      <trkpt lat="38.200966" lon="-6.250027">
        <ele>552.686</ele>
        <time>2021-10-12T12:57:29Z</time>
      </trkpt>
      <trkpt lat="38.201177" lon="-6.250249">
        <ele>552.728</ele>
        <time>2021-10-12T12:57:30Z</time>
      </trkpt>
      <trkpt lat="38.201604" lon="-6.250698">
        <ele>553.689</ele>
        <time>2021-10-12T12:57:32Z</time>
      </trkpt>
      <trkpt lat="38.202036" lon="-6.251150">
        <ele>555.817</ele>
        <time>2021-10-12T12:57:34Z</time>
      </trkpt>
      <trkpt lat="38.202260" lon="-6.251383">
        <ele>555.108</ele>
        <time>2021-10-12T12:57:35Z</time>
      </trkpt>
      <trkpt lat="38.202483" lon="-6.251615">
        <ele>558.470</ele>
        <time>2021-10-12T12:57:36Z</time>
      </trkpt>
      <trkpt lat="38.202924" lon="-6.252079">
        <ele>560.988</ele>
        <time>2021-10-12T12:57:38Z</time>
      </trkpt>
      <trkpt lat="38.203375" lon="-6.252556">
        <ele>560.344</ele>
        <time>2021-10-12T12:57:40Z</time>
      </trkpt>
      <trkpt lat="38.203601" lon="-6.252793">
        <ele>561.127</ele>
        <time>2021-10-12T12:57:41Z</time>
      </trkpt>
      <trkpt lat="38.204046" lon="-6.253255">
        <ele>560.013</ele>
        <time>2021-10-12T12:57:43Z</time>
      </trkpt>
      <trkpt lat="38.204266" lon="-6.253484">
        <ele>559.232</ele>
        <time>2021-10-12T12:57:44Z</time>
      </trkpt>
      <trkpt lat="38.204686" lon="-6.253925">
        <ele>561.922</ele>
        <time>2021-10-12T12:57:46Z</time>
      </trkpt>
      <trkpt lat="38.204900" lon="-6.254147">
        <ele>562.673</ele>
        <time>2021-10-12T12:57:47Z</time>
      </trkpt>
      <trkpt lat="38.205351" lon="-6.254569">
        <ele>564.341</ele>
        <time>2021-10-12T12:57:49Z</time>
      </trkpt>
      <trkpt lat="38.205610" lon="-6.254744">
        <ele>565.281</ele>
        <time>2021-10-12T12:57:50Z</time>
      </trkpt>
      <trkpt lat="38.206151" lon="-6.254987">
        <ele>567.309</ele>
        <time>2021-10-12T12:57:52Z</time>
      </trkpt>
      <trkpt lat="38.206677" lon="-6.255211">
        <ele>570.308</ele>
        <time>2021-10-12T12:57:54Z</time>
      </trkpt>
      <trkpt lat="38.206925" lon="-6.255364">
        <ele>571.062</ele>
        <time>2021-10-12T12:57:55Z</time>
      </trkpt>
      <trkpt lat="38.207164" lon="-6.255550">
        <ele>573.420</ele>
        <time>2021-10-12T12:57:56Z</time>
      </trkpt>
      <trkpt lat="38.207620" lon="-6.255943">
        <ele>576.316</ele>
        <time>2021-10-12T12:57:58Z</time>
      </trkpt>
      <trkpt lat="38.207857" lon="-6.256145">
        <ele>577.069</ele>
        <time>2021-10-12T12:57:59Z</time>
      </trkpt>
      <trkpt lat="38.208098" lon="-6.256348">
        <ele>578.965</ele>
        <time>2021-10-12T12:58:00Z</time>
      </trkpt>
      <trkpt lat="38.208344" lon="-6.256547">
        <ele>581.624</ele>
        <time>2021-10-12T12:58:01Z</time>
      </trkpt>
      <trkpt lat="38.208597" lon="-6.256753">
        <ele>582.964</ele>
        <time>2021-10-12T12:58:02Z</time>
      </trkpt>
      <trkpt lat="38.209079" lon="-6.257153">
        <ele>581.245</ele>
        <time>2021-10-12T12:58:04Z</time>
      </trkpt>
      <trkpt lat="38.209568" lon="-6.257561">
        <ele>583.998</ele>
        <time>2021-10-12T12:58:06Z</time>
      </trkpt>
      <trkpt lat="38.209813" lon="-6.257765">
        <ele>584.715</ele>
        <time>2021-10-12T12:58:07Z</time>
      </trkpt>
      <trkpt lat="38.210055" lon="-6.257970">
        <ele>586.026</ele>
        <time>2021-10-12T12:58:08Z</time>
      </trkpt>
      <trkpt lat="38.210508" lon="-6.258396">
        <ele>592.108</ele>
        <time>2021-10-12T12:58:10Z</time>
      </trkpt>
      <trkpt lat="38.210704" lon="-6.258617">
        <ele>593.117</ele>
        <time>2021-10-12T12:58:11Z</time>
      </trkpt>
      <trkpt lat="38.210876" lon="-6.258850">
        <ele>593.775</ele>
        <time>2021-10-12T12:58:12Z</time>
      </trkpt>
      <trkpt lat="38.211170" lon="-6.259360">
        <ele>593.691</ele>
        <time>2021-10-12T12:58:14Z</time>
      </trkpt>
      <trkpt lat="38.211397" lon="-6.259925">
        <ele>595.714</ele>
        <time>2021-10-12T12:58:16Z</time>
      </trkpt>
      <trkpt lat="38.211485" lon="-6.260229">
        <ele>597.640</ele>
        <time>2021-10-12T12:58:17Z</time>
      </trkpt>
      <trkpt lat="38.211553" lon="-6.260545">
        <ele>599.089</ele>
        <time>2021-10-12T12:58:18Z</time>
      </trkpt>
      <trkpt lat="38.211602" lon="-6.260872">
        <ele>599.239</ele>
        <time>2021-10-12T12:58:19Z</time>
      </trkpt>
      <trkpt lat="38.211632" lon="-6.261215">
        <ele>598.850</ele>
        <time>2021-10-12T12:58:20Z</time>
      </trkpt>
      <trkpt lat="38.211642" lon="-6.261869">
        <ele>597.119</ele>
        <time>2021-10-12T12:58:22Z</time>
      </trkpt>
      <trkpt lat="38.211610" lon="-6.262482">
        <ele>595.509</ele>
        <time>2021-10-12T12:58:24Z</time>
      </trkpt>
      <trkpt lat="38.211592" lon="-6.262797">
        <ele>595.519</ele>
        <time>2021-10-12T12:58:25Z</time>
      </trkpt>
      <trkpt lat="38.211574" lon="-6.263130">
        <ele>595.708</ele>
        <time>2021-10-12T12:58:26Z</time>
      </trkpt>
      <trkpt lat="38.211560" lon="-6.263798">
        <ele>597.279</ele>
        <time>2021-10-12T12:58:28Z</time>
      </trkpt>
      <trkpt lat="38.211580" lon="-6.264148">
        <ele>598.697</ele>
        <time>2021-10-12T12:58:29Z</time>
      </trkpt>
      <trkpt lat="38.211704" lon="-6.264827">
        <ele>596.713</ele>
        <time>2021-10-12T12:58:31Z</time>
      </trkpt>
      <trkpt lat="38.211813" lon="-6.265160">
        <ele>595.476</ele>
        <time>2021-10-12T12:58:32Z</time>
      </trkpt>
      <trkpt lat="38.212103" lon="-6.265760">
        <ele>596.662</ele>
        <time>2021-10-12T12:58:34Z</time>
      </trkpt>
      <trkpt lat="38.212491" lon="-6.266295">
        <ele>598.721</ele>
        <time>2021-10-12T12:58:36Z</time>
      </trkpt>
      <trkpt lat="38.212935" lon="-6.266784">
        <ele>600.081</ele>
        <time>2021-10-12T12:58:38Z</time>
      </trkpt>
      <trkpt lat="38.213372" lon="-6.267263">
        <ele>602.122</ele>
        <time>2021-10-12T12:58:40Z</time>
      </trkpt>
      <trkpt lat="38.213802" lon="-6.267761">
        <ele>606.326</ele>
        <time>2021-10-12T12:58:42Z</time>
      </trkpt>
      <trkpt lat="38.214018" lon="-6.268010">
        <ele>608.347</ele>
        <time>2021-10-12T12:58:43Z</time>
      </trkpt>
      <trkpt lat="38.214240" lon="-6.268259">
        <ele>610.011</ele>
        <time>2021-10-12T12:58:44Z</time>
      </trkpt>
      <trkpt lat="38.214660" lon="-6.268733">
        <ele>616.908</ele>
        <time>2021-10-12T12:58:46Z</time>
      </trkpt>
      <trkpt lat="38.215087" lon="-6.269219">
        <ele>617.670</ele>
        <time>2021-10-12T12:58:48Z</time>
      </trkpt>
      <trkpt lat="38.215293" lon="-6.269476">
        <ele>614.928</ele>
        <time>2021-10-12T12:58:49Z</time>
      </trkpt>
      <trkpt lat="38.215493" lon="-6.269757">
        <ele>613.824</ele>
        <time>2021-10-12T12:58:50Z</time>
      </trkpt>
      <trkpt lat="38.215842" lon="-6.270359">
        <ele>615.927</ele>
        <time>2021-10-12T12:58:52Z</time>
      </trkpt>
      <trkpt lat="38.216157" lon="-6.271017">
        <ele>611.453</ele>
        <time>2021-10-12T12:58:54Z</time>
      </trkpt>
      <trkpt lat="38.216328" lon="-6.271343">
        <ele>611.392</ele>
        <time>2021-10-12T12:58:55Z</time>
      </trkpt>
      <trkpt lat="38.216516" lon="-6.271668">
        <ele>612.672</ele>
        <time>2021-10-12T12:58:56Z</time>
      </trkpt>
      <trkpt lat="38.216921" lon="-6.272243">
        <ele>615.253</ele>
        <time>2021-10-12T12:58:58Z</time>
      </trkpt>
      <trkpt lat="38.217150" lon="-6.272507">
        <ele>617.816</ele>
        <time>2021-10-12T12:58:59Z</time>
      </trkpt>
      <trkpt lat="38.217636" lon="-6.272958">
        <ele>622.576</ele>
        <time>2021-10-12T12:59:01Z</time>
      </trkpt>
      <trkpt lat="38.217894" lon="-6.273158">
        <ele>623.413</ele>
        <time>2021-10-12T12:59:02Z</time>
      </trkpt>
      <trkpt lat="38.218369" lon="-6.273487">
        <ele>625.408</ele>
        <time>2021-10-12T12:59:04Z</time>
      </trkpt>
      <trkpt lat="38.218834" lon="-6.273821">
        <ele>625.059</ele>
        <time>2021-10-12T12:59:06Z</time>
      </trkpt>
      <trkpt lat="38.219321" lon="-6.274174">
        <ele>624.017</ele>
        <time>2021-10-12T12:59:08Z</time>
      </trkpt>
      <trkpt lat="38.219815" lon="-6.274528">
        <ele>627.583</ele>
        <time>2021-10-12T12:59:10Z</time>
      </trkpt>
      <trkpt lat="38.220072" lon="-6.274713">
        <ele>627.166</ele>
        <time>2021-10-12T12:59:11Z</time>
      </trkpt>
      <trkpt lat="38.220590" lon="-6.275088">
        <ele>625.882</ele>
        <time>2021-10-12T12:59:13Z</time>
      </trkpt>
      <trkpt lat="38.220858" lon="-6.275287">
        <ele>627.061</ele>
        <time>2021-10-12T12:59:14Z</time>
      </trkpt>
      <trkpt lat="38.221376" lon="-6.275668">
        <ele>627.051</ele>
        <time>2021-10-12T12:59:16Z</time>
      </trkpt>
      <trkpt lat="38.221920" lon="-6.276055">
        <ele>629.882</ele>
        <time>2021-10-12T12:59:18Z</time>
      </trkpt>
      <trkpt lat="38.222202" lon="-6.276249">
        <ele>628.133</ele>
        <time>2021-10-12T12:59:19Z</time>
      </trkpt>
      <trkpt lat="38.222500" lon="-6.276453">
        <ele>626.023</ele>
        <time>2021-10-12T12:59:20Z</time>
      </trkpt>
      <trkpt lat="38.223081" lon="-6.276838">
        <ele>624.215</ele>
        <time>2021-10-12T12:59:22Z</time>
      </trkpt>
      <trkpt lat="38.223379" lon="-6.277034">
        <ele>622.008</ele>
        <time>2021-10-12T12:59:23Z</time>
      </trkpt>
      <trkpt lat="38.223963" lon="-6.277416">
        <ele>620.721</ele>
        <time>2021-10-12T12:59:25Z</time>
      </trkpt>
      <trkpt lat="38.224249" lon="-6.277602">
        <ele>618.149</ele>
        <time>2021-10-12T12:59:26Z</time>
      </trkpt>
      <trkpt lat="38.224755" lon="-6.277931">
        <ele>614.925</ele>
        <time>2021-10-12T12:59:28Z</time>
      </trkpt>
      <trkpt lat="38.225000" lon="-6.278090">
        <ele>614.018</ele>
        <time>2021-10-12T12:59:29Z</time>
      </trkpt>
      <trkpt lat="38.225240" lon="-6.278239">
        <ele>611.714</ele>
        <time>2021-10-12T12:59:30Z</time>
      </trkpt>
      <trkpt lat="38.225738" lon="-6.278513">
        <ele>609.663</ele>
        <time>2021-10-12T12:59:32Z</time>
      </trkpt>
      <trkpt lat="38.226288" lon="-6.278743">
        <ele>606.653</ele>
        <time>2021-10-12T12:59:34Z</time>
      </trkpt>
      <trkpt lat="38.226892" lon="-6.278990">
        <ele>604.394</ele>
        <time>2021-10-12T12:59:36Z</time>
      </trkpt>
      <trkpt lat="38.227204" lon="-6.279120">
        <ele>603.189</ele>
        <time>2021-10-12T12:59:37Z</time>
      </trkpt>
      <trkpt lat="38.227530" lon="-6.279250">
        <ele>602.706</ele>
        <time>2021-10-12T12:59:38Z</time>
      </trkpt>
      <trkpt lat="38.228155" lon="-6.279498">
        <ele>602.526</ele>
        <time>2021-10-12T12:59:40Z</time>
      </trkpt>
      <trkpt lat="38.228475" lon="-6.279626">
        <ele>601.508</ele>
        <time>2021-10-12T12:59:41Z</time>
      </trkpt>
      <trkpt lat="38.229107" lon="-6.279882">
        <ele>603.196</ele>
        <time>2021-10-12T12:59:43Z</time>
      </trkpt>
      <trkpt lat="38.229415" lon="-6.280006">
        <ele>603.024</ele>
        <time>2021-10-12T12:59:44Z</time>
      </trkpt>
      <trkpt lat="38.229967" lon="-6.280224">
        <ele>602.460</ele>
        <time>2021-10-12T12:59:46Z</time>
      </trkpt>
      <trkpt lat="38.230543" lon="-6.280452">
        <ele>601.983</ele>
        <time>2021-10-12T12:59:48Z</time>
      </trkpt>
      <trkpt lat="38.231144" lon="-6.280706">
        <ele>601.959</ele>
        <time>2021-10-12T12:59:50Z</time>
      </trkpt>
      <trkpt lat="38.231713" lon="-6.280942">
        <ele>600.748</ele>
        <time>2021-10-12T12:59:52Z</time>
      </trkpt>
      <trkpt lat="38.231988" lon="-6.281072">
        <ele>601.098</ele>
        <time>2021-10-12T12:59:53Z</time>
      </trkpt>
      <trkpt lat="38.232479" lon="-6.281401">
        <ele>600.069</ele>
        <time>2021-10-12T12:59:55Z</time>
      </trkpt>
      <trkpt lat="38.232711" lon="-6.281615">
        <ele>599.975</ele>
        <time>2021-10-12T12:59:56Z</time>
      </trkpt>
      <trkpt lat="38.233126" lon="-6.282087">
        <ele>598.628</ele>
        <time>2021-10-12T12:59:58Z</time>
      </trkpt>
      <trkpt lat="38.233338" lon="-6.282343">
        <ele>599.020</ele>
        <time>2021-10-12T12:59:59Z</time>
      </trkpt>
      <trkpt lat="38.233775" lon="-6.282841">
        <ele>599.508</ele>
        <time>2021-10-12T13:00:01Z</time>
      </trkpt>
      <trkpt lat="38.234005" lon="-6.283099">
        <ele>599.635</ele>
        <time>2021-10-12T13:00:02Z</time>
      </trkpt>
      <trkpt lat="38.234440" lon="-6.283601">
        <ele>598.033</ele>
        <time>2021-10-12T13:00:04Z</time>
      </trkpt>
      <trkpt lat="38.234897" lon="-6.284112">
        <ele>599.249</ele>
        <time>2021-10-12T13:00:06Z</time>
      </trkpt>
      <trkpt lat="38.235125" lon="-6.284369">
        <ele>599.752</ele>
        <time>2021-10-12T13:00:07Z</time>
      </trkpt>
      <trkpt lat="38.235350" lon="-6.284628">
        <ele>599.798</ele>
        <time>2021-10-12T13:00:08Z</time>
      </trkpt>
      <trkpt lat="38.235743" lon="-6.285073">
        <ele>598.867</ele>
        <time>2021-10-12T13:00:10Z</time>
      </trkpt>
      <trkpt lat="38.236107" lon="-6.285481">
        <ele>600.597</ele>
        <time>2021-10-12T13:00:12Z</time>
      </trkpt>
      <trkpt lat="38.236476" lon="-6.285870">
        <ele>600.168</ele>
        <time>2021-10-12T13:00:14Z</time>
      </trkpt>
      <trkpt lat="38.236878" lon="-6.286198">
        <ele>601.346</ele>
        <time>2021-10-12T13:00:16Z</time>
      </trkpt>
      <trkpt lat="38.237111" lon="-6.286350">
        <ele>601.988</ele>
        <time>2021-10-12T13:00:17Z</time>
      </trkpt>
      <trkpt lat="38.237606" lon="-6.286626">
        <ele>600.616</ele>
        <time>2021-10-12T13:00:19Z</time>
      </trkpt>
      <trkpt lat="38.237869" lon="-6.286772">
        <ele>600.408</ele>
        <time>2021-10-12T13:00:20Z</time>
      </trkpt>
      <trkpt lat="38.238380" lon="-6.287065">
        <ele>601.862</ele>
        <time>2021-10-12T13:00:22Z</time>
      </trkpt>
      <trkpt lat="38.238912" lon="-6.287373">
        <ele>605.160</ele>
        <time>2021-10-12T13:00:24Z</time>
      </trkpt>
      <trkpt lat="38.239177" lon="-6.287526">
        <ele>607.046</ele>
        <time>2021-10-12T13:00:25Z</time>
      </trkpt>
      <trkpt lat="38.239447" lon="-6.287681">
        <ele>607.719</ele>
        <time>2021-10-12T13:00:26Z</time>
      </trkpt>
      <trkpt lat="38.239926" lon="-6.287955">
        <ele>608.325</ele>
        <time>2021-10-12T13:00:28Z</time>
      </trkpt>
      <trkpt lat="38.240163" lon="-6.288091">
        <ele>606.824</ele>
        <time>2021-10-12T13:00:29Z</time>
      </trkpt>
      <trkpt lat="38.240388" lon="-6.288224">
        <ele>605.654</ele>
        <time>2021-10-12T13:00:30Z</time>
      </trkpt>
      <trkpt lat="38.240741" lon="-6.288471">
        <ele>604.845</ele>
        <time>2021-10-12T13:00:32Z</time>
      </trkpt>
      <trkpt lat="38.240924" lon="-6.288664">
        <ele>604.118</ele>
        <time>2021-10-12T13:00:34Z</time>
      </trkpt>
      <trkpt lat="38.240996" lon="-6.288748">
        <ele>603.998</ele>
        <time>2021-10-12T13:00:35Z</time>
      </trkpt>
      <trkpt lat="38.241152" lon="-6.288883">
        <ele>603.017</ele>
        <time>2021-10-12T13:00:37Z</time>
      </trkpt>
      <trkpt lat="38.241222" lon="-6.288954">
        <ele>603.008</ele>
        <time>2021-10-12T13:00:38Z</time>
      </trkpt>
      <trkpt lat="38.241281" lon="-6.289122">
        <ele>602.859</ele>
        <time>2021-10-12T13:00:40Z</time>
      </trkpt>
      <trkpt lat="38.241242" lon="-6.289325">
        <ele>603.477</ele>
        <time>2021-10-12T13:00:42Z</time>
      </trkpt>
      <trkpt lat="38.241185" lon="-6.289594">
        <ele>604.943</ele>
        <time>2021-10-12T13:00:44Z</time>
      </trkpt>
      <trkpt lat="38.241213" lon="-6.289952">
        <ele>605.836</ele>
        <time>2021-10-12T13:00:46Z</time>
      </trkpt>
      <trkpt lat="38.241252" lon="-6.290175">
        <ele>605.542</ele>
        <time>2021-10-12T13:00:47Z</time>
      </trkpt>
      <trkpt lat="38.241295" lon="-6.290413">
        <ele>604.881</ele>
        <time>2021-10-12T13:00:48Z</time>
      </trkpt>
      <trkpt lat="38.241374" lon="-6.290921">
        <ele>604.131</ele>
        <time>2021-10-12T13:00:50Z</time>
      </trkpt>
      <trkpt lat="38.241454" lon="-6.291467">
        <ele>603.652</ele>
        <time>2021-10-12T13:00:52Z</time>
      </trkpt>
      <trkpt lat="38.241537" lon="-6.292076">
        <ele>601.551</ele>
        <time>2021-10-12T13:00:54Z</time>
      </trkpt>
      <trkpt lat="38.241579" lon="-6.292402">
        <ele>598.101</ele>
        <time>2021-10-12T13:00:55Z</time>
      </trkpt>
      <trkpt lat="38.241620" lon="-6.292747">
        <ele>596.411</ele>
        <time>2021-10-12T13:00:56Z</time>
      </trkpt>
      <trkpt lat="38.241698" lon="-6.293436">
        <ele>594.808</ele>
        <time>2021-10-12T13:00:58Z</time>
      </trkpt>
      <trkpt lat="38.241734" lon="-6.293785">
        <ele>593.913</ele>
        <time>2021-10-12T13:00:59Z</time>
      </trkpt>
      <trkpt lat="38.241800" lon="-6.294425">
        <ele>592.581</ele>
        <time>2021-10-12T13:01:01Z</time>
      </trkpt>
      <trkpt lat="38.241828" lon="-6.294733">
        <ele>591.197</ele>
        <time>2021-10-12T13:01:02Z</time>
      </trkpt>
      <trkpt lat="38.241882" lon="-6.295243">
        <ele>590.530</ele>
        <time>2021-10-12T13:01:04Z</time>
      </trkpt>
      <trkpt lat="38.241906" lon="-6.295473">
        <ele>590.026</ele>
        <time>2021-10-12T13:01:05Z</time>
      </trkpt>
      <trkpt lat="38.241929" lon="-6.295691">
        <ele>589.925</ele>
        <time>2021-10-12T13:01:06Z</time>
      </trkpt>
      <trkpt lat="38.241977" lon="-6.296108">
        <ele>589.085</ele>
        <time>2021-10-12T13:01:08Z</time>
      </trkpt>
      <trkpt lat="38.242055" lon="-6.296486">
        <ele>588.516</ele>
        <time>2021-10-12T13:01:10Z</time>
      </trkpt>
      <trkpt lat="38.242123" lon="-6.296673">
        <ele>587.352</ele>
        <time>2021-10-12T13:01:11Z</time>
      </trkpt>
      <trkpt lat="38.242314" lon="-6.297016">
        <ele>585.953</ele>
        <time>2021-10-12T13:01:13Z</time>
      </trkpt>
      <trkpt lat="38.242428" lon="-6.297167">
        <ele>585.708</ele>
        <time>2021-10-12T13:01:14Z</time>
      </trkpt>
      <trkpt lat="38.242637" lon="-6.297447">
        <ele>586.608</ele>
        <time>2021-10-12T13:01:16Z</time>
      </trkpt>
      <trkpt lat="38.242737" lon="-6.297591">
        <ele>587.393</ele>
        <time>2021-10-12T13:01:17Z</time>
      </trkpt>
      <trkpt lat="38.242944" lon="-6.297888">
        <ele>586.691</ele>
        <time>2021-10-12T13:01:19Z</time>
      </trkpt>
      <trkpt lat="38.243055" lon="-6.298047">
        <ele>586.017</ele>
        <time>2021-10-12T13:01:20Z</time>
      </trkpt>
      <trkpt lat="38.243269" lon="-6.298337">
        <ele>585.820</ele>
        <time>2021-10-12T13:01:22Z</time>
      </trkpt>
      <trkpt lat="38.243375" lon="-6.298479">
        <ele>585.396</ele>
        <time>2021-10-12T13:01:23Z</time>
      </trkpt>
      <trkpt lat="38.243472" lon="-6.298616">
        <ele>584.555</ele>
        <time>2021-10-12T13:01:24Z</time>
      </trkpt>
      <trkpt lat="38.243628" lon="-6.298841">
        <ele>584.855</ele>
        <time>2021-10-12T13:01:26Z</time>
      </trkpt>
      <trkpt lat="38.243746" lon="-6.299013">
        <ele>585.796</ele>
        <time>2021-10-12T13:01:28Z</time>
      </trkpt>
      <trkpt lat="38.243796" lon="-6.299098">
        <ele>586.387</ele>
        <time>2021-10-12T13:01:29Z</time>
      </trkpt>
      <trkpt lat="38.243871" lon="-6.299273">
        <ele>587.342</ele>
        <time>2021-10-12T13:01:31Z</time>
      </trkpt>
      <trkpt lat="38.243903" lon="-6.299378">
        <ele>587.826</ele>
        <time>2021-10-12T13:01:32Z</time>
      </trkpt>
      <trkpt lat="38.243950" lon="-6.299615">
        <ele>588.008</ele>
        <time>2021-10-12T13:01:34Z</time>
      </trkpt>
      <trkpt lat="38.243970" lon="-6.299734">
        <ele>588.066</ele>
        <time>2021-10-12T13:01:35Z</time>
      </trkpt>
      <trkpt lat="38.244003" lon="-6.299933">
        <ele>587.274</ele>
        <time>2021-10-12T13:01:37Z</time>
      </trkpt>
      <trkpt lat="38.244018" lon="-6.300008">
        <ele>587.050</ele>
        <time>2021-10-12T13:01:38Z</time>
      </trkpt>
      <trkpt lat="38.244043" lon="-6.300115">
        <ele>587.273</ele>
        <time>2021-10-12T13:01:40Z</time>
      </trkpt>
      <trkpt lat="38.244071" lon="-6.300202">
        <ele>587.259</ele>
        <time>2021-10-12T13:01:42Z</time>
      </trkpt>
      <trkpt lat="38.244119" lon="-6.300273">
        <ele>587.228</ele>
        <time>2021-10-12T13:01:44Z</time>
      </trkpt>
      <trkpt lat="38.244171" lon="-6.300310">
        <ele>587.188</ele>
        <time>2021-10-12T13:01:46Z</time>
      </trkpt>
      <trkpt lat="38.244209" lon="-6.300341">
        <ele>587.319</ele>
        <time>2021-10-12T13:01:49Z</time>
      </trkpt>
      <trkpt lat="38.244272" lon="-6.300360">
        <ele>587.593</ele>
        <time>2021-10-12T13:01:51Z</time>
      </trkpt>
      <trkpt lat="38.244311" lon="-6.300390">
        <ele>587.565</ele>
        <time>2021-10-12T13:01:54Z</time>
      </trkpt>
      <trkpt lat="38.244388" lon="-6.300395">
        <ele>587.521</ele>
        <time>2021-10-12T13:02:03Z</time>
      </trkpt>
      <trkpt lat="38.244553" lon="-6.300357">
        <ele>588.108</ele>
        <time>2021-10-12T13:02:05Z</time>
      </trkpt>
      <trkpt lat="38.244662" lon="-6.300315">
        <ele>588.667</ele>
        <time>2021-10-12T13:02:06Z</time>
      </trkpt>
      <trkpt lat="38.244883" lon="-6.300223">
        <ele>591.065</ele>
        <time>2021-10-12T13:02:08Z</time>
      </trkpt>
      <trkpt lat="38.245077" lon="-6.300143">
        <ele>592.861</ele>
        <time>2021-10-12T13:02:10Z</time>
      </trkpt>
      <trkpt lat="38.245178" lon="-6.300101">
        <ele>593.314</ele>
        <time>2021-10-12T13:02:11Z</time>
      </trkpt>
      <trkpt lat="38.245390" lon="-6.300011">
        <ele>594.450</ele>
        <time>2021-10-12T13:02:13Z</time>
      </trkpt>
      <trkpt lat="38.245498" lon="-6.299970">
        <ele>594.899</ele>
        <time>2021-10-12T13:02:14Z</time>
      </trkpt>
      <trkpt lat="38.245703" lon="-6.299910">
        <ele>595.539</ele>
        <time>2021-10-12T13:02:16Z</time>
      </trkpt>
      <trkpt lat="38.245813" lon="-6.299892">
        <ele>595.930</ele>
        <time>2021-10-12T13:02:17Z</time>
      </trkpt>
      <trkpt lat="38.246038" lon="-6.299889">
        <ele>597.038</ele>
        <time>2021-10-12T13:02:19Z</time>
      </trkpt>
      <trkpt lat="38.246154" lon="-6.299896">
        <ele>597.770</ele>
        <time>2021-10-12T13:02:20Z</time>
      </trkpt>
      <trkpt lat="38.246375" lon="-6.299932">
        <ele>599.117</ele>
        <time>2021-10-12T13:02:22Z</time>
      </trkpt>
      <trkpt lat="38.246487" lon="-6.299959">
        <ele>600.208</ele>
        <time>2021-10-12T13:02:23Z</time>
      </trkpt>
      <trkpt lat="38.246703" lon="-6.300037">
        <ele>602.161</ele>
        <time>2021-10-12T13:02:25Z</time>
      </trkpt>
      <trkpt lat="38.246811" lon="-6.300081">
        <ele>602.719</ele>
        <time>2021-10-12T13:02:26Z</time>
      </trkpt>
      <trkpt lat="38.247014" lon="-6.300172">
        <ele>603.545</ele>
        <time>2021-10-12T13:02:28Z</time>
      </trkpt>
      <trkpt lat="38.247123" lon="-6.300219">
        <ele>603.768</ele>
        <time>2021-10-12T13:02:29Z</time>
      </trkpt>
      <trkpt lat="38.247361" lon="-6.300320">
        <ele>605.034</ele>
        <time>2021-10-12T13:02:31Z</time>
      </trkpt>
      <trkpt lat="38.247492" lon="-6.300375">
        <ele>605.983</ele>
        <time>2021-10-12T13:02:32Z</time>
      </trkpt>
      <trkpt lat="38.247762" lon="-6.300489">
        <ele>607.993</ele>
        <time>2021-10-12T13:02:34Z</time>
      </trkpt>
      <trkpt lat="38.247905" lon="-6.300553">
        <ele>608.084</ele>
        <time>2021-10-12T13:02:35Z</time>
      </trkpt>
      <trkpt lat="38.248196" lon="-6.300672">
        <ele>608.714</ele>
        <time>2021-10-12T13:02:37Z</time>
      </trkpt>
      <trkpt lat="38.248351" lon="-6.300731">
        <ele>609.054</ele>
        <time>2021-10-12T13:02:38Z</time>
      </trkpt>
      <trkpt lat="38.248635" lon="-6.300820">
        <ele>608.909</ele>
        <time>2021-10-12T13:02:40Z</time>
      </trkpt>
      <trkpt lat="38.248905" lon="-6.300900">
        <ele>607.708</ele>
        <time>2021-10-12T13:02:42Z</time>
      </trkpt>
      <trkpt lat="38.249044" lon="-6.300936">
        <ele>607.419</ele>
        <time>2021-10-12T13:02:43Z</time>
      </trkpt>
      <trkpt lat="38.249181" lon="-6.300968">
        <ele>607.087</ele>
        <time>2021-10-12T13:02:44Z</time>
      </trkpt>
      <trkpt lat="38.249428" lon="-6.301019">
        <ele>605.733</ele>
        <time>2021-10-12T13:02:46Z</time>
      </trkpt>
      <trkpt lat="38.249663" lon="-6.301078">
        <ele>605.186</ele>
        <time>2021-10-12T13:02:48Z</time>
      </trkpt>
      <trkpt lat="38.249889" lon="-6.301142">
        <ele>604.262</ele>
        <time>2021-10-12T13:02:50Z</time>
      </trkpt>
      <trkpt lat="38.250094" lon="-6.301200">
        <ele>603.021</ele>
        <time>2021-10-12T13:02:52Z</time>
      </trkpt>
      <trkpt lat="38.250197" lon="-6.301230">
        <ele>602.491</ele>
        <time>2021-10-12T13:02:53Z</time>
      </trkpt>
      <trkpt lat="38.250410" lon="-6.301296">
        <ele>601.772</ele>
        <time>2021-10-12T13:02:55Z</time>
      </trkpt>
      <trkpt lat="38.250534" lon="-6.301339">
        <ele>601.466</ele>
        <time>2021-10-12T13:02:56Z</time>
      </trkpt>
      <trkpt lat="38.250797" lon="-6.301432">
        <ele>601.729</ele>
        <time>2021-10-12T13:02:58Z</time>
      </trkpt>
      <trkpt lat="38.251069" lon="-6.301531">
        <ele>600.621</ele>
        <time>2021-10-12T13:03:00Z</time>
      </trkpt>
      <trkpt lat="38.251333" lon="-6.301613">
        <ele>599.208</ele>
        <time>2021-10-12T13:03:02Z</time>
      </trkpt>
      <trkpt lat="38.251571" lon="-6.301676">
        <ele>597.754</ele>
        <time>2021-10-12T13:03:04Z</time>
      </trkpt>
      <trkpt lat="38.251682" lon="-6.301706">
        <ele>597.092</ele>
        <time>2021-10-12T13:03:05Z</time>
      </trkpt>
      <trkpt lat="38.251913" lon="-6.301774">
        <ele>597.098</ele>
        <time>2021-10-12T13:03:07Z</time>
      </trkpt>
      <trkpt lat="38.252032" lon="-6.301806">
        <ele>597.681</ele>
        <time>2021-10-12T13:03:08Z</time>
      </trkpt>
      <trkpt lat="38.252251" lon="-6.301866">
        <ele>599.277</ele>
        <time>2021-10-12T13:03:10Z</time>
      </trkpt>
      <trkpt lat="38.252478" lon="-6.301935">
        <ele>600.976</ele>
        <time>2021-10-12T13:03:12Z</time>
      </trkpt>
      <trkpt lat="38.252717" lon="-6.302008">
        <ele>601.116</ele>
        <time>2021-10-12T13:03:14Z</time>
      </trkpt>
      <trkpt lat="38.252953" lon="-6.302077">
        <ele>599.927</ele>
        <time>2021-10-12T13:03:16Z</time>
      </trkpt>
      <trkpt lat="38.253202" lon="-6.302146">
        <ele>599.379</ele>
        <time>2021-10-12T13:03:18Z</time>
      </trkpt>
      <trkpt lat="38.253330" lon="-6.302183">
        <ele>599.105</ele>
        <time>2021-10-12T13:03:19Z</time>
      </trkpt>
      <trkpt lat="38.253468" lon="-6.302223">
        <ele>600.025</ele>
        <time>2021-10-12T13:03:20Z</time>
      </trkpt>
      <trkpt lat="38.253746" lon="-6.302295">
        <ele>601.408</ele>
        <time>2021-10-12T13:03:22Z</time>
      </trkpt>
      <trkpt lat="38.254056" lon="-6.302388">
        <ele>602.015</ele>
        <time>2021-10-12T13:03:24Z</time>
      </trkpt>
      <trkpt lat="38.254217" lon="-6.302436">
        <ele>602.223</ele>
        <time>2021-10-12T13:03:25Z</time>
      </trkpt>
      <trkpt lat="38.254382" lon="-6.302484">
        <ele>602.059</ele>
        <time>2021-10-12T13:03:26Z</time>
      </trkpt>
      <trkpt lat="38.254718" lon="-6.302572">
        <ele>601.792</ele>
        <time>2021-10-12T13:03:28Z</time>
      </trkpt>
      <trkpt lat="38.254888" lon="-6.302616">
        <ele>602.218</ele>
        <time>2021-10-12T13:03:29Z</time>
      </trkpt>
      <trkpt lat="38.255219" lon="-6.302705">
        <ele>603.067</ele>
        <time>2021-10-12T13:03:31Z</time>
      </trkpt>
      <trkpt lat="38.255389" lon="-6.302753">
        <ele>602.727</ele>
        <time>2021-10-12T13:03:32Z</time>
      </trkpt>
      <trkpt lat="38.255725" lon="-6.302856">
        <ele>600.228</ele>
        <time>2021-10-12T13:03:34Z</time>
      </trkpt>
      <trkpt lat="38.256099" lon="-6.302970">
        <ele>599.034</ele>
        <time>2021-10-12T13:03:36Z</time>
      </trkpt>
      <trkpt lat="38.256503" lon="-6.303093">
        <ele>600.655</ele>
        <time>2021-10-12T13:03:38Z</time>
      </trkpt>
      <trkpt lat="38.256895" lon="-6.303208">
        <ele>600.710</ele>
        <time>2021-10-12T13:03:40Z</time>
      </trkpt>
      <trkpt lat="38.257112" lon="-6.303270">
        <ele>600.208</ele>
        <time>2021-10-12T13:03:41Z</time>
      </trkpt>
      <trkpt lat="38.257566" lon="-6.303387">
        <ele>599.741</ele>
        <time>2021-10-12T13:03:43Z</time>
      </trkpt>
      <trkpt lat="38.257809" lon="-6.303448">
        <ele>598.319</ele>
        <time>2021-10-12T13:03:44Z</time>
      </trkpt>
      <trkpt lat="38.258270" lon="-6.303560">
        <ele>596.475</ele>
        <time>2021-10-12T13:03:46Z</time>
      </trkpt>
      <trkpt lat="38.258506" lon="-6.303620">
        <ele>596.088</ele>
        <time>2021-10-12T13:03:47Z</time>
      </trkpt>
      <trkpt lat="38.258970" lon="-6.303740">
        <ele>594.264</ele>
        <time>2021-10-12T13:03:49Z</time>
      </trkpt>
      <trkpt lat="38.259205" lon="-6.303800">
        <ele>593.573</ele>
        <time>2021-10-12T13:03:50Z</time>
      </trkpt>
      <trkpt lat="38.259653" lon="-6.303909">
        <ele>594.783</ele>
        <time>2021-10-12T13:03:52Z</time>
      </trkpt>
      <trkpt lat="38.259884" lon="-6.303965">
        <ele>593.754</ele>
        <time>2021-10-12T13:03:53Z</time>
      </trkpt>
      <trkpt lat="38.260348" lon="-6.304084">
        <ele>592.537</ele>
        <time>2021-10-12T13:03:55Z</time>
      </trkpt>
      <trkpt lat="38.260590" lon="-6.304150">
        <ele>593.049</ele>
        <time>2021-10-12T13:03:56Z</time>
      </trkpt>
      <trkpt lat="38.261052" lon="-6.304281">
        <ele>592.913</ele>
        <time>2021-10-12T13:03:58Z</time>
      </trkpt>
      <trkpt lat="38.261293" lon="-6.304345">
        <ele>593.308</ele>
        <time>2021-10-12T13:03:59Z</time>
      </trkpt>
      <trkpt lat="38.261532" lon="-6.304412">
        <ele>593.811</ele>
        <time>2021-10-12T13:04:00Z</time>
      </trkpt>
      <trkpt lat="38.262025" lon="-6.304542">
        <ele>591.689</ele>
        <time>2021-10-12T13:04:02Z</time>
      </trkpt>
      <trkpt lat="38.262532" lon="-6.304667">
        <ele>590.185</ele>
        <time>2021-10-12T13:04:04Z</time>
      </trkpt>
      <trkpt lat="38.262803" lon="-6.304733">
        <ele>591.078</ele>
        <time>2021-10-12T13:04:05Z</time>
      </trkpt>
      <trkpt lat="38.263077" lon="-6.304800">
        <ele>590.924</ele>
        <time>2021-10-12T13:04:06Z</time>
      </trkpt>
      <trkpt lat="38.263356" lon="-6.304872">
        <ele>589.423</ele>
        <time>2021-10-12T13:04:07Z</time>
      </trkpt>
      <trkpt lat="38.263645" lon="-6.304947">
        <ele>589.073</ele>
        <time>2021-10-12T13:04:08Z</time>
      </trkpt>
      <trkpt lat="38.264198" lon="-6.305089">
        <ele>589.594</ele>
        <time>2021-10-12T13:04:10Z</time>
      </trkpt>
      <trkpt lat="38.264758" lon="-6.305231">
        <ele>586.071</ele>
        <time>2021-10-12T13:04:12Z</time>
      </trkpt>
      <trkpt lat="38.265331" lon="-6.305374">
        <ele>586.641</ele>
        <time>2021-10-12T13:04:14Z</time>
      </trkpt>
      <trkpt lat="38.265883" lon="-6.305514">
        <ele>583.015</ele>
        <time>2021-10-12T13:04:16Z</time>
      </trkpt>
      <trkpt lat="38.266442" lon="-6.305655">
        <ele>582.308</ele>
        <time>2021-10-12T13:04:18Z</time>
      </trkpt>
      <trkpt lat="38.267000" lon="-6.305792">
        <ele>580.555</ele>
        <time>2021-10-12T13:04:20Z</time>
      </trkpt>
      <trkpt lat="38.267530" lon="-6.305931">
        <ele>582.673</ele>
        <time>2021-10-12T13:04:22Z</time>
      </trkpt>
      <trkpt lat="38.267797" lon="-6.305995">
        <ele>581.969</ele>
        <time>2021-10-12T13:04:23Z</time>
      </trkpt>
      <trkpt lat="38.268060" lon="-6.306059">
        <ele>581.042</ele>
        <time>2021-10-12T13:04:24Z</time>
      </trkpt>
      <trkpt lat="38.268319" lon="-6.306127">
        <ele>581.148</ele>
        <time>2021-10-12T13:04:25Z</time>
      </trkpt>
      <trkpt lat="38.268583" lon="-6.306195">
        <ele>583.527</ele>
        <time>2021-10-12T13:04:26Z</time>
      </trkpt>
      <trkpt lat="38.269081" lon="-6.306320">
        <ele>584.227</ele>
        <time>2021-10-12T13:04:28Z</time>
      </trkpt>
      <trkpt lat="38.269593" lon="-6.306448">
        <ele>584.768</ele>
        <time>2021-10-12T13:04:30Z</time>
      </trkpt>
      <trkpt lat="38.269851" lon="-6.306516">
        <ele>585.096</ele>
        <time>2021-10-12T13:04:31Z</time>
      </trkpt>
      <trkpt lat="38.270116" lon="-6.306585">
        <ele>585.231</ele>
        <time>2021-10-12T13:04:32Z</time>
      </trkpt>
      <trkpt lat="38.270636" lon="-6.306707">
        <ele>584.424</ele>
        <time>2021-10-12T13:04:34Z</time>
      </trkpt>
      <trkpt lat="38.271155" lon="-6.306828">
        <ele>589.408</ele>
        <time>2021-10-12T13:04:36Z</time>
      </trkpt>
      <trkpt lat="38.271409" lon="-6.306892">
        <ele>590.827</ele>
        <time>2021-10-12T13:04:37Z</time>
      </trkpt>
      <trkpt lat="38.271670" lon="-6.306953">
        <ele>591.055</ele>
        <time>2021-10-12T13:04:38Z</time>
      </trkpt>
      <trkpt lat="38.272159" lon="-6.307078">
        <ele>588.191</ele>
        <time>2021-10-12T13:04:40Z</time>
      </trkpt>
      <trkpt lat="38.272412" lon="-6.307143">
        <ele>588.794</ele>
        <time>2021-10-12T13:04:41Z</time>
      </trkpt>
      <trkpt lat="38.272663" lon="-6.307201">
        <ele>589.150</ele>
        <time>2021-10-12T13:04:42Z</time>
      </trkpt>
      <trkpt lat="38.273178" lon="-6.307323">
        <ele>587.429</ele>
        <time>2021-10-12T13:04:44Z</time>
      </trkpt>
      <trkpt lat="38.273689" lon="-6.307457">
        <ele>589.469</ele>
        <time>2021-10-12T13:04:46Z</time>
      </trkpt>
      <trkpt lat="38.273959" lon="-6.307527">
        <ele>589.660</ele>
        <time>2021-10-12T13:04:47Z</time>
      </trkpt>
      <trkpt lat="38.274233" lon="-6.307598">
        <ele>589.044</ele>
        <time>2021-10-12T13:04:48Z</time>
      </trkpt>
      <trkpt lat="38.274792" lon="-6.307739">
        <ele>589.305</ele>
        <time>2021-10-12T13:04:50Z</time>
      </trkpt>
      <trkpt lat="38.275335" lon="-6.307874">
        <ele>591.415</ele>
        <time>2021-10-12T13:04:52Z</time>
      </trkpt>
      <trkpt lat="38.275882" lon="-6.308010">
        <ele>596.208</ele>
        <time>2021-10-12T13:04:54Z</time>
      </trkpt>
      <trkpt lat="38.276155" lon="-6.308080">
        <ele>596.982</ele>
        <time>2021-10-12T13:04:55Z</time>
      </trkpt>
      <trkpt lat="38.276433" lon="-6.308160">
        <ele>596.390</ele>
        <time>2021-10-12T13:04:56Z</time>
      </trkpt>
      <trkpt lat="38.276952" lon="-6.308354">
        <ele>592.046</ele>
        <time>2021-10-12T13:04:58Z</time>
      </trkpt>
      <trkpt lat="38.277477" lon="-6.308621">
        <ele>592.049</ele>
        <time>2021-10-12T13:05:00Z</time>
      </trkpt>
      <trkpt lat="38.277738" lon="-6.308766">
        <ele>592.675</ele>
        <time>2021-10-12T13:05:01Z</time>
      </trkpt>
      <trkpt lat="38.278004" lon="-6.308911">
        <ele>593.024</ele>
        <time>2021-10-12T13:05:02Z</time>
      </trkpt>
      <trkpt lat="38.278516" lon="-6.309178">
        <ele>589.064</ele>
        <time>2021-10-12T13:05:04Z</time>
      </trkpt>
      <trkpt lat="38.278775" lon="-6.309317">
        <ele>587.765</ele>
        <time>2021-10-12T13:05:05Z</time>
      </trkpt>
      <trkpt lat="38.279033" lon="-6.309456">
        <ele>587.543</ele>
        <time>2021-10-12T13:05:06Z</time>
      </trkpt>
      <trkpt lat="38.279553" lon="-6.309737">
        <ele>588.164</ele>
        <time>2021-10-12T13:05:08Z</time>
      </trkpt>
      <trkpt lat="38.280038" lon="-6.309996">
        <ele>586.910</ele>
        <time>2021-10-12T13:05:10Z</time>
      </trkpt>
      <trkpt lat="38.280275" lon="-6.310119">
        <ele>586.408</ele>
        <time>2021-10-12T13:05:11Z</time>
      </trkpt>
      <trkpt lat="38.280756" lon="-6.310318">
        <ele>585.312</ele>
        <time>2021-10-12T13:05:13Z</time>
      </trkpt>
      <trkpt lat="38.281016" lon="-6.310372">
        <ele>585.040</ele>
        <time>2021-10-12T13:05:14Z</time>
      </trkpt>
      <trkpt lat="38.281532" lon="-6.310395">
        <ele>587.046</ele>
        <time>2021-10-12T13:05:16Z</time>
      </trkpt>
      <trkpt lat="38.281799" lon="-6.310398">
        <ele>586.369</ele>
        <time>2021-10-12T13:05:17Z</time>
      </trkpt>
      <trkpt lat="38.282341" lon="-6.310410">
        <ele>583.865</ele>
        <time>2021-10-12T13:05:19Z</time>
      </trkpt>
      <trkpt lat="38.282625" lon="-6.310418">
        <ele>582.364</ele>
        <time>2021-10-12T13:05:20Z</time>
      </trkpt>
      <trkpt lat="38.283167" lon="-6.310437">
        <ele>581.954</ele>
        <time>2021-10-12T13:05:22Z</time>
      </trkpt>
      <trkpt lat="38.283445" lon="-6.310446">
        <ele>581.055</ele>
        <time>2021-10-12T13:05:23Z</time>
      </trkpt>
      <trkpt lat="38.283721" lon="-6.310454">
        <ele>580.092</ele>
        <time>2021-10-12T13:05:24Z</time>
      </trkpt>
      <trkpt lat="38.284287" lon="-6.310471">
        <ele>578.873</ele>
        <time>2021-10-12T13:05:26Z</time>
      </trkpt>
      <trkpt lat="38.284831" lon="-6.310489">
        <ele>576.320</ele>
        <time>2021-10-12T13:05:28Z</time>
      </trkpt>
      <trkpt lat="38.285398" lon="-6.310501">
        <ele>575.308</ele>
        <time>2021-10-12T13:05:30Z</time>
      </trkpt>
      <trkpt lat="38.285977" lon="-6.310511">
        <ele>572.727</ele>
        <time>2021-10-12T13:05:32Z</time>
      </trkpt>
      <trkpt lat="38.286553" lon="-6.310533">
        <ele>567.895</ele>
        <time>2021-10-12T13:05:34Z</time>
      </trkpt>
      <trkpt lat="38.287158" lon="-6.310551">
        <ele>566.831</ele>
        <time>2021-10-12T13:05:36Z</time>
      </trkpt>
      <trkpt lat="38.287777" lon="-6.310565">
        <ele>565.024</ele>
        <time>2021-10-12T13:05:38Z</time>
      </trkpt>
      <trkpt lat="38.288376" lon="-6.310580">
        <ele>562.160</ele>
        <time>2021-10-12T13:05:40Z</time>
      </trkpt>
      <trkpt lat="38.288979" lon="-6.310595">
        <ele>562.179</ele>
        <time>2021-10-12T13:05:42Z</time>
      </trkpt>
      <trkpt lat="38.289278" lon="-6.310604">
        <ele>561.889</ele>
        <time>2021-10-12T13:05:43Z</time>
      </trkpt>
      <trkpt lat="38.289579" lon="-6.310613">
        <ele>561.490</ele>
        <time>2021-10-12T13:05:44Z</time>
      </trkpt>
      <trkpt lat="38.290146" lon="-6.310629">
        <ele>562.815</ele>
        <time>2021-10-12T13:05:46Z</time>
      </trkpt>
      <trkpt lat="38.290435" lon="-6.310636">
        <ele>563.365</ele>
        <time>2021-10-12T13:05:47Z</time>
      </trkpt>
      <trkpt lat="38.291001" lon="-6.310650">
        <ele>562.111</ele>
        <time>2021-10-12T13:05:49Z</time>
      </trkpt>
      <trkpt lat="38.291288" lon="-6.310657">
        <ele>563.008</ele>
        <time>2021-10-12T13:05:50Z</time>
      </trkpt>
      <trkpt lat="38.291831" lon="-6.310670">
        <ele>564.589</ele>
        <time>2021-10-12T13:05:52Z</time>
      </trkpt>
      <trkpt lat="38.292110" lon="-6.310677">
        <ele>565.567</ele>
        <time>2021-10-12T13:05:53Z</time>
      </trkpt>
      <trkpt lat="38.292385" lon="-6.310685">
        <ele>566.283</ele>
        <time>2021-10-12T13:05:54Z</time>
      </trkpt>
      <trkpt lat="38.292658" lon="-6.310692">
        <ele>566.576</ele>
        <time>2021-10-12T13:05:55Z</time>
      </trkpt>
      <trkpt lat="38.292937" lon="-6.310700">
        <ele>567.172</ele>
        <time>2021-10-12T13:05:56Z</time>
      </trkpt>
      <trkpt lat="38.293471" lon="-6.310715">
        <ele>570.361</ele>
        <time>2021-10-12T13:05:58Z</time>
      </trkpt>
      <trkpt lat="38.294011" lon="-6.310725">
        <ele>569.111</ele>
        <time>2021-10-12T13:06:00Z</time>
      </trkpt>
      <trkpt lat="38.294569" lon="-6.310743">
        <ele>567.682</ele>
        <time>2021-10-12T13:06:02Z</time>
      </trkpt>
      <trkpt lat="38.295106" lon="-6.310763">
        <ele>564.356</ele>
        <time>2021-10-12T13:06:04Z</time>
      </trkpt>
      <trkpt lat="38.295386" lon="-6.310772">
        <ele>562.159</ele>
        <time>2021-10-12T13:06:05Z</time>
      </trkpt>
      <trkpt lat="38.295667" lon="-6.310781">
        <ele>559.514</ele>
        <time>2021-10-12T13:06:06Z</time>
      </trkpt>
      <trkpt lat="38.296213" lon="-6.310798">
        <ele>555.108</ele>
        <time>2021-10-12T13:06:08Z</time>
      </trkpt>
      <trkpt lat="38.296701" lon="-6.310814">
        <ele>551.923</ele>
        <time>2021-10-12T13:06:10Z</time>
      </trkpt>
      <trkpt lat="38.296943" lon="-6.310821">
        <ele>551.041</ele>
        <time>2021-10-12T13:06:11Z</time>
      </trkpt>
      <trkpt lat="38.297180" lon="-6.310825">
        <ele>551.857</ele>
        <time>2021-10-12T13:06:12Z</time>
      </trkpt>
      <trkpt lat="38.297651" lon="-6.310843">
        <ele>553.640</ele>
        <time>2021-10-12T13:06:14Z</time>
      </trkpt>
      <trkpt lat="38.298104" lon="-6.310859">
        <ele>556.046</ele>
        <time>2021-10-12T13:06:16Z</time>
      </trkpt>
      <trkpt lat="38.298339" lon="-6.310867">
        <ele>556.125</ele>
        <time>2021-10-12T13:06:17Z</time>
      </trkpt>
      <trkpt lat="38.298822" lon="-6.310884">
        <ele>554.835</ele>
        <time>2021-10-12T13:06:19Z</time>
      </trkpt>
      <trkpt lat="38.299081" lon="-6.310893">
        <ele>552.966</ele>
        <time>2021-10-12T13:06:20Z</time>
      </trkpt>
      <trkpt lat="38.299594" lon="-6.310909">
        <ele>550.035</ele>
        <time>2021-10-12T13:06:22Z</time>
      </trkpt>
      <trkpt lat="38.299866" lon="-6.310918">
        <ele>548.186</ele>
        <time>2021-10-12T13:06:23Z</time>
      </trkpt>
      <trkpt lat="38.300139" lon="-6.310936">
        <ele>546.914</ele>
        <time>2021-10-12T13:06:24Z</time>
      </trkpt>
      <trkpt lat="38.300698" lon="-6.311028">
        <ele>547.408</ele>
        <time>2021-10-12T13:06:26Z</time>
      </trkpt>
      <trkpt lat="38.301229" lon="-6.311165">
        <ele>550.241</ele>
        <time>2021-10-12T13:06:28Z</time>
      </trkpt>
      <trkpt lat="38.301706" lon="-6.311292">
        <ele>554.079</ele>
        <time>2021-10-12T13:06:30Z</time>
      </trkpt>
      <trkpt lat="38.302127" lon="-6.311391">
        <ele>555.325</ele>
        <time>2021-10-12T13:06:32Z</time>
      </trkpt>
      <trkpt lat="38.302478" lon="-6.311476">
        <ele>556.958</ele>
        <time>2021-10-12T13:06:34Z</time>
      </trkpt>
      <trkpt lat="38.302812" lon="-6.311568">
        <ele>558.044</ele>
        <time>2021-10-12T13:06:36Z</time>
      </trkpt>
      <trkpt lat="38.302985" lon="-6.311623">
        <ele>558.013</ele>
        <time>2021-10-12T13:06:37Z</time>
      </trkpt>
      <trkpt lat="38.303162" lon="-6.311694">
        <ele>558.083</ele>
        <time>2021-10-12T13:06:38Z</time>
      </trkpt>
      <trkpt lat="38.303529" lon="-6.311875">
        <ele>556.174</ele>
        <time>2021-10-12T13:06:40Z</time>
      </trkpt>
      <trkpt lat="38.303959" lon="-6.312096">
        <ele>551.389</ele>
        <time>2021-10-12T13:06:42Z</time>
      </trkpt>
      <trkpt lat="38.304450" lon="-6.312322">
        <ele>550.306</ele>
        <time>2021-10-12T13:06:44Z</time>
      </trkpt>
      <trkpt lat="38.304961" lon="-6.312473">
        <ele>548.826</ele>
        <time>2021-10-12T13:06:46Z</time>
      </trkpt>
      <trkpt lat="38.305501" lon="-6.312561">
        <ele>548.708</ele>
        <time>2021-10-12T13:06:48Z</time>
      </trkpt>
      <trkpt lat="38.305780" lon="-6.312597">
        <ele>549.546</ele>
        <time>2021-10-12T13:06:49Z</time>
      </trkpt>
      <trkpt lat="38.306069" lon="-6.312637">
        <ele>549.124</ele>
        <time>2021-10-12T13:06:50Z</time>
      </trkpt>
      <trkpt lat="38.306625" lon="-6.312712">
        <ele>544.110</ele>
        <time>2021-10-12T13:06:52Z</time>
      </trkpt>
      <trkpt lat="38.306912" lon="-6.312752">
        <ele>544.063</ele>
        <time>2021-10-12T13:06:53Z</time>
      </trkpt>
      <trkpt lat="38.307201" lon="-6.312794">
        <ele>543.159</ele>
        <time>2021-10-12T13:06:54Z</time>
      </trkpt>
      <trkpt lat="38.307489" lon="-6.312837">
        <ele>541.558</ele>
        <time>2021-10-12T13:06:55Z</time>
      </trkpt>
      <trkpt lat="38.307789" lon="-6.312879">
        <ele>538.648</ele>
        <time>2021-10-12T13:06:56Z</time>
      </trkpt>
      <trkpt lat="38.308338" lon="-6.312946">
        <ele>536.629</ele>
        <time>2021-10-12T13:06:58Z</time>
      </trkpt>
      <trkpt lat="38.308881" lon="-6.313025">
        <ele>534.066</ele>
        <time>2021-10-12T13:07:00Z</time>
      </trkpt>
      <trkpt lat="38.309449" lon="-6.313099">
        <ele>530.229</ele>
        <time>2021-10-12T13:07:02Z</time>
      </trkpt>
      <trkpt lat="38.310009" lon="-6.313165">
        <ele>530.621</ele>
        <time>2021-10-12T13:07:04Z</time>
      </trkpt>
      <trkpt lat="38.310597" lon="-6.313200">
        <ele>531.508</ele>
        <time>2021-10-12T13:07:06Z</time>
      </trkpt>
      <trkpt lat="38.311201" lon="-6.313179">
        <ele>531.774</ele>
        <time>2021-10-12T13:07:08Z</time>
      </trkpt>
      <trkpt lat="38.311799" lon="-6.313103">
        <ele>529.372</ele>
        <time>2021-10-12T13:07:10Z</time>
      </trkpt>
      <trkpt lat="38.312404" lon="-6.313026">
        <ele>527.878</ele>
        <time>2021-10-12T13:07:12Z</time>
      </trkpt>
      <trkpt lat="38.312705" lon="-6.312990">
        <ele>527.031</ele>
        <time>2021-10-12T13:07:13Z</time>
      </trkpt>
      <trkpt lat="38.313010" lon="-6.312953">
        <ele>525.817</ele>
        <time>2021-10-12T13:07:14Z</time>
      </trkpt>
      <trkpt lat="38.313599" lon="-6.312880">
        <ele>525.386</ele>
        <time>2021-10-12T13:07:16Z</time>
      </trkpt>
      <trkpt lat="38.313898" lon="-6.312844">
        <ele>525.066</ele>
        <time>2021-10-12T13:07:17Z</time>
      </trkpt>
      <trkpt lat="38.314492" lon="-6.312781">
        <ele>523.247</ele>
        <time>2021-10-12T13:07:19Z</time>
      </trkpt>
      <trkpt lat="38.314797" lon="-6.312749">
        <ele>524.282</ele>
        <time>2021-10-12T13:07:20Z</time>
      </trkpt>
      <trkpt lat="38.315361" lon="-6.312679">
        <ele>526.943</ele>
        <time>2021-10-12T13:07:22Z</time>
      </trkpt>
      <trkpt lat="38.315648" lon="-6.312652">
        <ele>528.617</ele>
        <time>2021-10-12T13:07:23Z</time>
      </trkpt>
      <trkpt lat="38.316205" lon="-6.312670">
        <ele>529.708</ele>
        <time>2021-10-12T13:07:25Z</time>
      </trkpt>
      <trkpt lat="38.316480" lon="-6.312736">
        <ele>528.216</ele>
        <time>2021-10-12T13:07:26Z</time>
      </trkpt>
      <trkpt lat="38.316962" lon="-6.312978">
        <ele>526.574</ele>
        <time>2021-10-12T13:07:28Z</time>
      </trkpt>
      <trkpt lat="38.317201" lon="-6.313146">
        <ele>524.920</ele>
        <time>2021-10-12T13:07:29Z</time>
      </trkpt>
      <trkpt lat="38.317444" lon="-6.313316">
        <ele>524.383</ele>
        <time>2021-10-12T13:07:30Z</time>
      </trkpt>
      <trkpt lat="38.317943" lon="-6.313649">
        <ele>522.999</ele>
        <time>2021-10-12T13:07:32Z</time>
      </trkpt>
      <trkpt lat="38.318427" lon="-6.313970">
        <ele>524.648</ele>
        <time>2021-10-12T13:07:34Z</time>
      </trkpt>
      <trkpt lat="38.318670" lon="-6.314141">
        <ele>526.198</ele>
        <time>2021-10-12T13:07:35Z</time>
      </trkpt>
      <trkpt lat="38.318909" lon="-6.314317">
        <ele>527.939</ele>
        <time>2021-10-12T13:07:36Z</time>
      </trkpt>
      <trkpt lat="38.319377" lon="-6.314695">
        <ele>526.439</ele>
        <time>2021-10-12T13:07:38Z</time>
      </trkpt>
      <trkpt lat="38.319831" lon="-6.315092">
        <ele>522.601</ele>
        <time>2021-10-12T13:07:40Z</time>
      </trkpt>
      <trkpt lat="38.320067" lon="-6.315305">
        <ele>520.721</ele>
        <time>2021-10-12T13:07:41Z</time>
      </trkpt>
      <trkpt lat="38.320531" lon="-6.315762">
        <ele>520.908</ele>
        <time>2021-10-12T13:07:43Z</time>
      </trkpt>
      <trkpt lat="38.320764" lon="-6.316011">
        <ele>520.941</ele>
        <time>2021-10-12T13:07:44Z</time>
      </trkpt>
      <trkpt lat="38.321202" lon="-6.316501">
        <ele>519.319</ele>
        <time>2021-10-12T13:07:46Z</time>
      </trkpt>
      <trkpt lat="38.321427" lon="-6.316754">
        <ele>517.715</ele>
        <time>2021-10-12T13:07:47Z</time>
      </trkpt>
      <trkpt lat="38.321882" lon="-6.317246">
        <ele>515.218</ele>
        <time>2021-10-12T13:07:49Z</time>
      </trkpt>
      <trkpt lat="38.322113" lon="-6.317497">
        <ele>514.424</ele>
        <time>2021-10-12T13:07:50Z</time>
      </trkpt>
      <trkpt lat="38.322558" lon="-6.317984">
        <ele>512.863</ele>
        <time>2021-10-12T13:07:52Z</time>
      </trkpt>
      <trkpt lat="38.323015" lon="-6.318482">
        <ele>511.113</ele>
        <time>2021-10-12T13:07:54Z</time>
      </trkpt>
      <trkpt lat="38.323244" lon="-6.318730">
        <ele>511.484</ele>
        <time>2021-10-12T13:07:55Z</time>
      </trkpt>
      <trkpt lat="38.323478" lon="-6.318987">
        <ele>511.533</ele>
        <time>2021-10-12T13:07:56Z</time>
      </trkpt>
      <trkpt lat="38.323926" lon="-6.319477">
        <ele>509.723</ele>
        <time>2021-10-12T13:07:58Z</time>
      </trkpt>
      <trkpt lat="38.324155" lon="-6.319730">
        <ele>509.015</ele>
        <time>2021-10-12T13:07:59Z</time>
      </trkpt>
      <trkpt lat="38.324581" lon="-6.320209">
        <ele>506.808</ele>
        <time>2021-10-12T13:08:01Z</time>
      </trkpt>
      <trkpt lat="38.324793" lon="-6.320437">
        <ele>507.171</ele>
        <time>2021-10-12T13:08:02Z</time>
      </trkpt>
      <trkpt lat="38.325236" lon="-6.320830">
        <ele>505.469</ele>
        <time>2021-10-12T13:08:04Z</time>
      </trkpt>
      <trkpt lat="38.325759" lon="-6.321097">
        <ele>502.255</ele>
        <time>2021-10-12T13:08:06Z</time>
      </trkpt>
      <trkpt lat="38.326045" lon="-6.321161">
        <ele>500.578</ele>
        <time>2021-10-12T13:08:07Z</time>
      </trkpt>
      <trkpt lat="38.326345" lon="-6.321183">
        <ele>500.034</ele>
        <time>2021-10-12T13:08:08Z</time>
      </trkpt>
      <trkpt lat="38.326934" lon="-6.321119">
        <ele>501.933</ele>
        <time>2021-10-12T13:08:10Z</time>
      </trkpt>
      <trkpt lat="38.327232" lon="-6.321060">
        <ele>503.073</ele>
        <time>2021-10-12T13:08:11Z</time>
      </trkpt>
      <trkpt lat="38.327534" lon="-6.321004">
        <ele>503.614</ele>
        <time>2021-10-12T13:08:12Z</time>
      </trkpt>
      <trkpt lat="38.328143" lon="-6.320905">
        <ele>505.314</ele>
        <time>2021-10-12T13:08:14Z</time>
      </trkpt>
      <trkpt lat="38.328719" lon="-6.320816">
        <ele>508.354</ele>
        <time>2021-10-12T13:08:16Z</time>
      </trkpt>
      <trkpt lat="38.329012" lon="-6.320771">
        <ele>509.209</ele>
        <time>2021-10-12T13:08:17Z</time>
      </trkpt>
      <trkpt lat="38.329302" lon="-6.320721">
        <ele>510.908</ele>
        <time>2021-10-12T13:08:18Z</time>
      </trkpt>
      <trkpt lat="38.329886" lon="-6.320621">
        <ele>514.849</ele>
        <time>2021-10-12T13:08:20Z</time>
      </trkpt>
      <trkpt lat="38.330449" lon="-6.320527">
        <ele>517.887</ele>
        <time>2021-10-12T13:08:22Z</time>
      </trkpt>
      <trkpt lat="38.331023" lon="-6.320445">
        <ele>521.453</ele>
        <time>2021-10-12T13:08:24Z</time>
      </trkpt>
      <trkpt lat="38.331311" lon="-6.320398">
        <ele>522.216</ele>
        <time>2021-10-12T13:08:25Z</time>
      </trkpt>
      <trkpt lat="38.331608" lon="-6.320349">
        <ele>522.392</ele>
        <time>2021-10-12T13:08:26Z</time>
      </trkpt>
      <trkpt lat="38.332185" lon="-6.320265">
        <ele>523.911</ele>
        <time>2021-10-12T13:08:28Z</time>
      </trkpt>
      <trkpt lat="38.332777" lon="-6.320189">
        <ele>525.781</ele>
        <time>2021-10-12T13:08:30Z</time>
      </trkpt>
      <trkpt lat="38.333373" lon="-6.320119">
        <ele>526.442</ele>
        <time>2021-10-12T13:08:32Z</time>
      </trkpt>
      <trkpt lat="38.333922" lon="-6.320064">
        <ele>526.341</ele>
        <time>2021-10-12T13:08:34Z</time>
      </trkpt>
      <trkpt lat="38.334453" lon="-6.320009">
        <ele>528.081</ele>
        <time>2021-10-12T13:08:36Z</time>
      </trkpt>
      <trkpt lat="38.334968" lon="-6.319929">
        <ele>529.009</ele>
        <time>2021-10-12T13:08:38Z</time>
      </trkpt>
      <trkpt lat="38.335454" lon="-6.319829">
        <ele>527.008</ele>
        <time>2021-10-12T13:08:40Z</time>
      </trkpt>
      <trkpt lat="38.335952" lon="-6.319712">
        <ele>525.062</ele>
        <time>2021-10-12T13:08:42Z</time>
      </trkpt>
      <trkpt lat="38.336450" lon="-6.319559">
        <ele>524.990</ele>
        <time>2021-10-12T13:08:44Z</time>
      </trkpt>
      <trkpt lat="38.336928" lon="-6.319390">
        <ele>524.026</ele>
        <time>2021-10-12T13:08:46Z</time>
      </trkpt>
      <trkpt lat="38.337174" lon="-6.319296">
        <ele>523.639</ele>
        <time>2021-10-12T13:08:47Z</time>
      </trkpt>
      <trkpt lat="38.337677" lon="-6.319106">
        <ele>523.435</ele>
        <time>2021-10-12T13:08:49Z</time>
      </trkpt>
      <trkpt lat="38.337940" lon="-6.319007">
        <ele>524.124</ele>
        <time>2021-10-12T13:08:50Z</time>
      </trkpt>
      <trkpt lat="38.338446" lon="-6.318819">
        <ele>524.464</ele>
        <time>2021-10-12T13:08:52Z</time>
      </trkpt>
      <trkpt lat="38.338961" lon="-6.318632">
        <ele>523.095</ele>
        <time>2021-10-12T13:08:54Z</time>
      </trkpt>
      <trkpt lat="38.339476" lon="-6.318438">
        <ele>523.195</ele>
        <time>2021-10-12T13:08:56Z</time>
      </trkpt>
      <trkpt lat="38.339967" lon="-6.318252">
        <ele>524.349</ele>
        <time>2021-10-12T13:08:58Z</time>
      </trkpt>
      <trkpt lat="38.340469" lon="-6.318064">
        <ele>524.323</ele>
        <time>2021-10-12T13:09:00Z</time>
      </trkpt>
      <trkpt lat="38.340724" lon="-6.317971">
        <ele>523.308</ele>
        <time>2021-10-12T13:09:01Z</time>
      </trkpt>
      <trkpt lat="38.340989" lon="-6.317882">
        <ele>523.077</ele>
        <time>2021-10-12T13:09:02Z</time>
      </trkpt>
      <trkpt lat="38.341513" lon="-6.317750">
        <ele>522.755</ele>
        <time>2021-10-12T13:09:04Z</time>
      </trkpt>
      <trkpt lat="38.341796" lon="-6.317706">
        <ele>521.411</ele>
        <time>2021-10-12T13:09:05Z</time>
      </trkpt>
      <trkpt lat="38.342378" lon="-6.317685">
        <ele>521.654</ele>
        <time>2021-10-12T13:09:07Z</time>
      </trkpt>
      <trkpt lat="38.342680" lon="-6.317708">
        <ele>521.490</ele>
        <time>2021-10-12T13:09:08Z</time>
      </trkpt>
      <trkpt lat="38.343252" lon="-6.317842">
        <ele>518.429</ele>
        <time>2021-10-12T13:09:10Z</time>
      </trkpt>
      <trkpt lat="38.343541" lon="-6.317954">
        <ele>516.539</ele>
        <time>2021-10-12T13:09:11Z</time>
      </trkpt>
      <trkpt lat="38.343821" lon="-6.318091">
        <ele>515.910</ele>
        <time>2021-10-12T13:09:12Z</time>
      </trkpt>
      <trkpt lat="38.344095" lon="-6.318253">
        <ele>515.545</ele>
        <time>2021-10-12T13:09:13Z</time>
      </trkpt>
      <trkpt lat="38.344371" lon="-6.318437">
        <ele>514.347</ele>
        <time>2021-10-12T13:09:14Z</time>
      </trkpt>
      <trkpt lat="38.344884" lon="-6.318840">
        <ele>512.211</ele>
        <time>2021-10-12T13:09:16Z</time>
      </trkpt>
      <trkpt lat="38.345145" lon="-6.319059">
        <ele>511.408</ele>
        <time>2021-10-12T13:09:17Z</time>
      </trkpt>
      <trkpt lat="38.345403" lon="-6.319281">
        <ele>511.862</ele>
        <time>2021-10-12T13:09:18Z</time>
      </trkpt>
      <trkpt lat="38.345929" lon="-6.319722">
        <ele>516.010</ele>
        <time>2021-10-12T13:09:20Z</time>
      </trkpt>
      <trkpt lat="38.346449" lon="-6.320149">
        <ele>520.266</ele>
        <time>2021-10-12T13:09:22Z</time>
      </trkpt>
      <trkpt lat="38.346712" lon="-6.320372">
        <ele>521.429</ele>
        <time>2021-10-12T13:09:23Z</time>
      </trkpt>
      <trkpt lat="38.347234" lon="-6.320812">
        <ele>521.845</ele>
        <time>2021-10-12T13:09:25Z</time>
      </trkpt>
      <trkpt lat="38.347504" lon="-6.321040">
        <ele>520.764</ele>
        <time>2021-10-12T13:09:26Z</time>
      </trkpt>
      <trkpt lat="38.348018" lon="-6.321473">
        <ele>522.214</ele>
        <time>2021-10-12T13:09:28Z</time>
      </trkpt>
      <trkpt lat="38.348542" lon="-6.321916">
        <ele>524.175</ele>
        <time>2021-10-12T13:09:30Z</time>
      </trkpt>
      <trkpt lat="38.349080" lon="-6.322367">
        <ele>522.742</ele>
        <time>2021-10-12T13:09:32Z</time>
      </trkpt>
      <trkpt lat="38.349600" lon="-6.322802">
        <ele>526.222</ele>
        <time>2021-10-12T13:09:34Z</time>
      </trkpt>
      <trkpt lat="38.349869" lon="-6.323027">
        <ele>527.114</ele>
        <time>2021-10-12T13:09:35Z</time>
      </trkpt>
      <trkpt lat="38.350405" lon="-6.323477">
        <ele>525.708</ele>
        <time>2021-10-12T13:09:37Z</time>
      </trkpt>
      <trkpt lat="38.350680" lon="-6.323710">
        <ele>526.472</ele>
        <time>2021-10-12T13:09:38Z</time>
      </trkpt>
      <trkpt lat="38.351204" lon="-6.324150">
        <ele>528.320</ele>
        <time>2021-10-12T13:09:40Z</time>
      </trkpt>
      <trkpt lat="38.351475" lon="-6.324376">
        <ele>529.466</ele>
        <time>2021-10-12T13:09:41Z</time>
      </trkpt>
      <trkpt lat="38.351746" lon="-6.324602">
        <ele>528.769</ele>
        <time>2021-10-12T13:09:42Z</time>
      </trkpt>
      <trkpt lat="38.352296" lon="-6.325057">
        <ele>528.725</ele>
        <time>2021-10-12T13:09:44Z</time>
      </trkpt>
      <trkpt lat="38.352852" lon="-6.325473">
        <ele>532.174</ele>
        <time>2021-10-12T13:09:46Z</time>
      </trkpt>
      <trkpt lat="38.353449" lon="-6.325834">
        <ele>529.674</ele>
        <time>2021-10-12T13:09:48Z</time>
      </trkpt>
      <trkpt lat="38.353758" lon="-6.325997">
        <ele>529.855</ele>
        <time>2021-10-12T13:09:49Z</time>
      </trkpt>
      <trkpt lat="38.354074" lon="-6.326159">
        <ele>530.897</ele>
        <time>2021-10-12T13:09:50Z</time>
      </trkpt>
      <trkpt lat="38.354661" lon="-6.326465">
        <ele>533.823</ele>
        <time>2021-10-12T13:09:52Z</time>
      </trkpt>
      <trkpt lat="38.354950" lon="-6.326624">
        <ele>532.525</ele>
        <time>2021-10-12T13:09:53Z</time>
      </trkpt>
      <trkpt lat="38.355234" lon="-6.326775">
        <ele>531.308</ele>
        <time>2021-10-12T13:09:54Z</time>
      </trkpt>
      <trkpt lat="38.355807" lon="-6.327079">
        <ele>531.057</ele>
        <time>2021-10-12T13:09:56Z</time>
      </trkpt>
      <trkpt lat="38.356347" lon="-6.327365">
        <ele>531.095</ele>
        <time>2021-10-12T13:09:58Z</time>
      </trkpt>
      <trkpt lat="38.356624" lon="-6.327511">
        <ele>530.111</ele>
        <time>2021-10-12T13:09:59Z</time>
      </trkpt>
      <trkpt lat="38.357171" lon="-6.327779">
        <ele>528.844</ele>
        <time>2021-10-12T13:10:01Z</time>
      </trkpt>
      <trkpt lat="38.357452" lon="-6.327906">
        <ele>529.560</ele>
        <time>2021-10-12T13:10:02Z</time>
      </trkpt>
      <trkpt lat="38.357990" lon="-6.328154">
        <ele>529.259</ele>
        <time>2021-10-12T13:10:04Z</time>
      </trkpt>
      <trkpt lat="38.358555" lon="-6.328400">
        <ele>527.879</ele>
        <time>2021-10-12T13:10:06Z</time>
      </trkpt>
      <trkpt lat="38.359152" lon="-6.328660">
        <ele>529.960</ele>
        <time>2021-10-12T13:10:08Z</time>
      </trkpt>
      <trkpt lat="38.359749" lon="-6.328922">
        <ele>525.857</ele>
        <time>2021-10-12T13:10:10Z</time>
      </trkpt>
      <trkpt lat="38.360364" lon="-6.329196">
        <ele>524.300</ele>
        <time>2021-10-12T13:10:12Z</time>
      </trkpt>
      <trkpt lat="38.360988" lon="-6.329475">
        <ele>527.620</ele>
        <time>2021-10-12T13:10:14Z</time>
      </trkpt>
      <trkpt lat="38.361578" lon="-6.329728">
        <ele>528.008</ele>
        <time>2021-10-12T13:10:16Z</time>
      </trkpt>
      <trkpt lat="38.361876" lon="-6.329855">
        <ele>528.043</ele>
        <time>2021-10-12T13:10:17Z</time>
      </trkpt>
      <trkpt lat="38.362444" lon="-6.330100">
        <ele>528.461</ele>
        <time>2021-10-12T13:10:19Z</time>
      </trkpt>
      <trkpt lat="38.362715" lon="-6.330216">
        <ele>529.147</ele>
        <time>2021-10-12T13:10:20Z</time>
      </trkpt>
      <trkpt lat="38.363218" lon="-6.330419">
        <ele>530.070</ele>
        <time>2021-10-12T13:10:22Z</time>
      </trkpt>
      <trkpt lat="38.363487" lon="-6.330509">
        <ele>529.456</ele>
        <time>2021-10-12T13:10:23Z</time>
      </trkpt>
      <trkpt lat="38.364036" lon="-6.330659">
        <ele>530.235</ele>
        <time>2021-10-12T13:10:25Z</time>
      </trkpt>
      <trkpt lat="38.364322" lon="-6.330723">
        <ele>529.185</ele>
        <time>2021-10-12T13:10:26Z</time>
      </trkpt>
      <trkpt lat="38.364869" lon="-6.330850">
        <ele>526.536</ele>
        <time>2021-10-12T13:10:28Z</time>
      </trkpt>
      <trkpt lat="38.365418" lon="-6.330989">
        <ele>524.349</ele>
        <time>2021-10-12T13:10:30Z</time>
      </trkpt>
      <trkpt lat="38.365977" lon="-6.331123">
        <ele>525.502</ele>
        <time>2021-10-12T13:10:32Z</time>
      </trkpt>
      <trkpt lat="38.366517" lon="-6.331251">
        <ele>525.022</ele>
        <time>2021-10-12T13:10:34Z</time>
      </trkpt>
      <trkpt lat="38.367019" lon="-6.331374">
        <ele>526.008</ele>
        <time>2021-10-12T13:10:36Z</time>
      </trkpt>
      <trkpt lat="38.367250" lon="-6.331427">
        <ele>526.162</ele>
        <time>2021-10-12T13:10:37Z</time>
      </trkpt>
      <trkpt lat="38.367473" lon="-6.331476">
        <ele>526.640</ele>
        <time>2021-10-12T13:10:38Z</time>
      </trkpt>
      <trkpt lat="38.367886" lon="-6.331558">
        <ele>527.226</ele>
        <time>2021-10-12T13:10:40Z</time>
      </trkpt>
      <trkpt lat="38.368094" lon="-6.331603">
        <ele>528.599</ele>
        <time>2021-10-12T13:10:41Z</time>
      </trkpt>
      <trkpt lat="38.368300" lon="-6.331648">
        <ele>529.825</ele>
        <time>2021-10-12T13:10:42Z</time>
      </trkpt>
      <trkpt lat="38.368719" lon="-6.331747">
        <ele>529.774</ele>
        <time>2021-10-12T13:10:44Z</time>
      </trkpt>
      <trkpt lat="38.369115" lon="-6.331841">
        <ele>529.944</ele>
        <time>2021-10-12T13:10:46Z</time>
      </trkpt>
      <trkpt lat="38.369494" lon="-6.331906">
        <ele>530.435</ele>
        <time>2021-10-12T13:10:48Z</time>
      </trkpt>
      <trkpt lat="38.369879" lon="-6.331937">
        <ele>530.523</ele>
        <time>2021-10-12T13:10:50Z</time>
      </trkpt>
      <trkpt lat="38.370264" lon="-6.332025">
        <ele>527.183</ele>
        <time>2021-10-12T13:10:52Z</time>
      </trkpt>
      <trkpt lat="38.370464" lon="-6.332119">
        <ele>526.311</ele>
        <time>2021-10-12T13:10:53Z</time>
      </trkpt>
      <trkpt lat="38.370850" lon="-6.332423">
        <ele>526.208</ele>
        <time>2021-10-12T13:10:55Z</time>
      </trkpt>
      <trkpt lat="38.371026" lon="-6.332656">
        <ele>524.610</ele>
        <time>2021-10-12T13:10:56Z</time>
      </trkpt>
      <trkpt lat="38.371344" lon="-6.333174">
        <ele>522.468</ele>
        <time>2021-10-12T13:10:58Z</time>
      </trkpt>
      <trkpt lat="38.371705" lon="-6.333698">
        <ele>523.074</ele>
        <time>2021-10-12T13:11:00Z</time>
      </trkpt>
      <trkpt lat="38.371905" lon="-6.333945">
        <ele>522.327</ele>
        <time>2021-10-12T13:11:01Z</time>
      </trkpt>
      <trkpt lat="38.372122" lon="-6.334188">
        <ele>522.513</ele>
        <time>2021-10-12T13:11:02Z</time>
      </trkpt>
      <trkpt lat="38.372549" lon="-6.334651">
        <ele>525.432</ele>
        <time>2021-10-12T13:11:04Z</time>
      </trkpt>
      <trkpt lat="38.372990" lon="-6.335133">
        <ele>527.672</ele>
        <time>2021-10-12T13:11:06Z</time>
      </trkpt>
      <trkpt lat="38.373441" lon="-6.335628">
        <ele>527.913</ele>
        <time>2021-10-12T13:11:08Z</time>
      </trkpt>
      <trkpt lat="38.373888" lon="-6.336080">
        <ele>527.962</ele>
        <time>2021-10-12T13:11:10Z</time>
      </trkpt>
      <trkpt lat="38.374384" lon="-6.336476">
        <ele>531.783</ele>
        <time>2021-10-12T13:11:12Z</time>
      </trkpt>
      <trkpt lat="38.374643" lon="-6.336649">
        <ele>533.211</ele>
        <time>2021-10-12T13:11:13Z</time>
      </trkpt>
      <trkpt lat="38.374915" lon="-6.336819">
        <ele>534.808</ele>
        <time>2021-10-12T13:11:14Z</time>
      </trkpt>
      <trkpt lat="38.375430" lon="-6.337152">
        <ele>536.334</ele>
        <time>2021-10-12T13:11:16Z</time>
      </trkpt>
      <trkpt lat="38.375970" lon="-6.337501">
        <ele>537.042</ele>
        <time>2021-10-12T13:11:18Z</time>
      </trkpt>
      <trkpt lat="38.376242" lon="-6.337674">
        <ele>538.348</ele>
        <time>2021-10-12T13:11:19Z</time>
      </trkpt>
      <trkpt lat="38.376519" lon="-6.337850">
        <ele>538.221</ele>
        <time>2021-10-12T13:11:20Z</time>
      </trkpt>
      <trkpt lat="38.377036" lon="-6.338181">
        <ele>538.637</ele>
        <time>2021-10-12T13:11:22Z</time>
      </trkpt>
      <trkpt lat="38.377293" lon="-6.338351">
        <ele>539.086</ele>
        <time>2021-10-12T13:11:23Z</time>
      </trkpt>
      <trkpt lat="38.377810" lon="-6.338678">
        <ele>539.086</ele>
        <time>2021-10-12T13:11:25Z</time>
      </trkpt>
      <trkpt lat="38.378078" lon="-6.338842">
        <ele>539.047</ele>
        <time>2021-10-12T13:11:26Z</time>
      </trkpt>
      <trkpt lat="38.378600" lon="-6.339149">
        <ele>539.924</ele>
        <time>2021-10-12T13:11:28Z</time>
      </trkpt>
      <trkpt lat="38.379158" lon="-6.339409">
        <ele>539.004</ele>
        <time>2021-10-12T13:11:30Z</time>
      </trkpt>
      <trkpt lat="38.379445" lon="-6.339512">
        <ele>540.014</ele>
        <time>2021-10-12T13:11:31Z</time>
      </trkpt>
      <trkpt lat="38.379741" lon="-6.339607">
        <ele>540.508</ele>
        <time>2021-10-12T13:11:32Z</time>
      </trkpt>
      <trkpt lat="38.380293" lon="-6.339802">
        <ele>541.760</ele>
        <time>2021-10-12T13:11:34Z</time>
      </trkpt>
      <trkpt lat="38.380837" lon="-6.340055">
        <ele>540.048</ele>
        <time>2021-10-12T13:11:36Z</time>
      </trkpt>
      <trkpt lat="38.381102" lon="-6.340211">
        <ele>540.294</ele>
        <time>2021-10-12T13:11:37Z</time>
      </trkpt>
      <trkpt lat="38.381362" lon="-6.340380">
        <ele>540.677</ele>
        <time>2021-10-12T13:11:38Z</time>
      </trkpt>
      <trkpt lat="38.381865" lon="-6.340730">
        <ele>543.413</ele>
        <time>2021-10-12T13:11:40Z</time>
      </trkpt>
      <trkpt lat="38.382380" lon="-6.341083">
        <ele>544.772</ele>
        <time>2021-10-12T13:11:42Z</time>
      </trkpt>
      <trkpt lat="38.382907" lon="-6.341405">
        <ele>546.982</ele>
        <time>2021-10-12T13:11:44Z</time>
      </trkpt>
      <trkpt lat="38.383416" lon="-6.341698">
        <ele>546.973</ele>
        <time>2021-10-12T13:11:46Z</time>
      </trkpt>
      <trkpt lat="38.383676" lon="-6.341851">
        <ele>546.667</ele>
        <time>2021-10-12T13:11:47Z</time>
      </trkpt>
      <trkpt lat="38.384183" lon="-6.342146">
        <ele>546.381</ele>
        <time>2021-10-12T13:11:49Z</time>
      </trkpt>
      <trkpt lat="38.384441" lon="-6.342296">
        <ele>546.019</ele>
        <time>2021-10-12T13:11:50Z</time>
      </trkpt>
      <trkpt lat="38.384927" lon="-6.342581">
        <ele>547.008</ele>
        <time>2021-10-12T13:11:52Z</time>
      </trkpt>
      <trkpt lat="38.385417" lon="-6.342888">
        <ele>547.374</ele>
        <time>2021-10-12T13:11:54Z</time>
      </trkpt>
      <trkpt lat="38.385659" lon="-6.343045">
        <ele>547.062</ele>
        <time>2021-10-12T13:11:55Z</time>
      </trkpt>
      <trkpt lat="38.385903" lon="-6.343208">
        <ele>547.088</ele>
        <time>2021-10-12T13:11:56Z</time>
      </trkpt>
      <trkpt lat="38.386369" lon="-6.343521">
        <ele>546.161</ele>
        <time>2021-10-12T13:11:58Z</time>
      </trkpt>
      <trkpt lat="38.386609" lon="-6.343681">
        <ele>545.447</ele>
        <time>2021-10-12T13:11:59Z</time>
      </trkpt>
      <trkpt lat="38.387091" lon="-6.343997">
        <ele>547.096</ele>
        <time>2021-10-12T13:12:01Z</time>
      </trkpt>
      <trkpt lat="38.387335" lon="-6.344150">
        <ele>546.616</ele>
        <time>2021-10-12T13:12:02Z</time>
      </trkpt>
      <trkpt lat="38.387780" lon="-6.344403">
        <ele>545.887</ele>
        <time>2021-10-12T13:12:04Z</time>
      </trkpt>
      <trkpt lat="38.387997" lon="-6.344515">
        <ele>545.266</ele>
        <time>2021-10-12T13:12:05Z</time>
      </trkpt>
      <trkpt lat="38.388436" lon="-6.344727">
        <ele>545.029</ele>
        <time>2021-10-12T13:12:07Z</time>
      </trkpt>
      <trkpt lat="38.388671" lon="-6.344832">
        <ele>544.621</ele>
        <time>2021-10-12T13:12:08Z</time>
      </trkpt>
      <trkpt lat="38.389130" lon="-6.345026">
        <ele>544.808</ele>
        <time>2021-10-12T13:12:10Z</time>
      </trkpt>
      <trkpt lat="38.389371" lon="-6.345128">
        <ele>545.744</ele>
        <time>2021-10-12T13:12:11Z</time>
      </trkpt>
      <trkpt lat="38.389614" lon="-6.345230">
        <ele>545.432</ele>
        <time>2021-10-12T13:12:12Z</time>
      </trkpt>
      <trkpt lat="38.390113" lon="-6.345440">
        <ele>545.428</ele>
        <time>2021-10-12T13:12:14Z</time>
      </trkpt>
      <trkpt lat="38.390597" lon="-6.345644">
        <ele>546.721</ele>
        <time>2021-10-12T13:12:16Z</time>
      </trkpt>
      <trkpt lat="38.390839" lon="-6.345742">
        <ele>547.057</ele>
        <time>2021-10-12T13:12:17Z</time>
      </trkpt>
      <trkpt lat="38.391278" lon="-6.345901">
        <ele>547.026</ele>
        <time>2021-10-12T13:12:19Z</time>
      </trkpt>
      <trkpt lat="38.391493" lon="-6.345970">
        <ele>547.296</ele>
        <time>2021-10-12T13:12:20Z</time>
      </trkpt>
      <trkpt lat="38.391874" lon="-6.346079">
        <ele>548.037</ele>
        <time>2021-10-12T13:12:22Z</time>
      </trkpt>
      <trkpt lat="38.392058" lon="-6.346135">
        <ele>548.078</ele>
        <time>2021-10-12T13:12:23Z</time>
      </trkpt>
      <trkpt lat="38.392244" lon="-6.346191">
        <ele>548.033</ele>
        <time>2021-10-12T13:12:24Z</time>
      </trkpt>
      <trkpt lat="38.392438" lon="-6.346243">
        <ele>547.626</ele>
        <time>2021-10-12T13:12:25Z</time>
      </trkpt>
      <trkpt lat="38.392644" lon="-6.346290">
        <ele>547.208</ele>
        <time>2021-10-12T13:12:26Z</time>
      </trkpt>
      <trkpt lat="38.393054" lon="-6.346374">
        <ele>546.115</ele>
        <time>2021-10-12T13:12:28Z</time>
      </trkpt>
      <trkpt lat="38.393271" lon="-6.346414">
        <ele>548.363</ele>
        <time>2021-10-12T13:12:29Z</time>
      </trkpt>
      <trkpt lat="38.393712" lon="-6.346495">
        <ele>549.349</ele>
        <time>2021-10-12T13:12:31Z</time>
      </trkpt>
      <trkpt lat="38.393939" lon="-6.346536">
        <ele>548.382</ele>
        <time>2021-10-12T13:12:32Z</time>
      </trkpt>
      <trkpt lat="38.394337" lon="-6.346605">
        <ele>546.758</ele>
        <time>2021-10-12T13:12:34Z</time>
      </trkpt>
      <trkpt lat="38.394528" lon="-6.346638">
        <ele>546.527</ele>
        <time>2021-10-12T13:12:35Z</time>
      </trkpt>
      <trkpt lat="38.394879" lon="-6.346701">
        <ele>547.517</ele>
        <time>2021-10-12T13:12:37Z</time>
      </trkpt>
      <trkpt lat="38.395042" lon="-6.346733">
        <ele>548.048</ele>
        <time>2021-10-12T13:12:38Z</time>
      </trkpt>
      <trkpt lat="38.395330" lon="-6.346791">
        <ele>547.876</ele>
        <time>2021-10-12T13:12:40Z</time>
      </trkpt>
      <trkpt lat="38.395465" lon="-6.346815">
        <ele>547.390</ele>
        <time>2021-10-12T13:12:41Z</time>
      </trkpt>
      <trkpt lat="38.395736" lon="-6.346861">
        <ele>547.219</ele>
        <time>2021-10-12T13:12:43Z</time>
      </trkpt>
      <trkpt lat="38.395884" lon="-6.346889">
        <ele>547.208</ele>
        <time>2021-10-12T13:12:44Z</time>
      </trkpt>
      <trkpt lat="38.396177" lon="-6.346944">
        <ele>547.535</ele>
        <time>2021-10-12T13:12:46Z</time>
      </trkpt>
      <trkpt lat="38.396329" lon="-6.346973">
        <ele>548.643</ele>
        <time>2021-10-12T13:12:47Z</time>
      </trkpt>
      <trkpt lat="38.396622" lon="-6.347030">
        <ele>549.899</ele>
        <time>2021-10-12T13:12:49Z</time>
      </trkpt>
      <trkpt lat="38.396763" lon="-6.347057">
        <ele>549.992</ele>
        <time>2021-10-12T13:12:50Z</time>
      </trkpt>
      <trkpt lat="38.397016" lon="-6.347104">
        <ele>550.048</ele>
        <time>2021-10-12T13:12:52Z</time>
      </trkpt>
      <trkpt lat="38.397137" lon="-6.347124">
        <ele>549.837</ele>
        <time>2021-10-12T13:12:53Z</time>
      </trkpt>
      <trkpt lat="38.397359" lon="-6.347168">
        <ele>549.327</ele>
        <time>2021-10-12T13:12:55Z</time>
      </trkpt>
      <trkpt lat="38.397462" lon="-6.347187">
        <ele>549.048</ele>
        <time>2021-10-12T13:12:56Z</time>
      </trkpt>
      <trkpt lat="38.397619" lon="-6.347211">
        <ele>549.028</ele>
        <time>2021-10-12T13:12:58Z</time>
      </trkpt>
      <trkpt lat="38.397683" lon="-6.347221">
        <ele>549.089</ele>
        <time>2021-10-12T13:12:59Z</time>
      </trkpt>
      <trkpt lat="38.397742" lon="-6.347229">
        <ele>549.017</ele>
        <time>2021-10-12T13:13:00Z</time>
      </trkpt>
      <trkpt lat="38.397793" lon="-6.347236">
        <ele>549.008</ele>
        <time>2021-10-12T13:13:01Z</time>
      </trkpt>
      <trkpt lat="38.397842" lon="-6.347243">
        <ele>549.030</ele>
        <time>2021-10-12T13:13:02Z</time>
      </trkpt>
      <trkpt lat="38.397962" lon="-6.347238">
        <ele>549.088</ele>
        <time>2021-10-12T13:13:04Z</time>
      </trkpt>
      <trkpt lat="38.398136" lon="-6.347202">
        <ele>548.754</ele>
        <time>2021-10-12T13:13:06Z</time>
      </trkpt>
      <trkpt lat="38.398232" lon="-6.347205">
        <ele>548.347</ele>
        <time>2021-10-12T13:13:07Z</time>
      </trkpt>
      <trkpt lat="38.398333" lon="-6.347235">
        <ele>548.083</ele>
        <time>2021-10-12T13:13:08Z</time>
      </trkpt>
      <trkpt lat="38.398501" lon="-6.347378">
        <ele>548.362</ele>
        <time>2021-10-12T13:13:10Z</time>
      </trkpt>
      <trkpt lat="38.398554" lon="-6.347487">
        <ele>548.872</ele>
        <time>2021-10-12T13:13:11Z</time>
      </trkpt>
      <trkpt lat="38.398589" lon="-6.347751">
        <ele>548.823</ele>
        <time>2021-10-12T13:13:13Z</time>
      </trkpt>
      <trkpt lat="38.398575" lon="-6.347890">
        <ele>549.115</ele>
        <time>2021-10-12T13:13:14Z</time>
      </trkpt>
      <trkpt lat="38.398495" lon="-6.348149">
        <ele>548.565</ele>
        <time>2021-10-12T13:13:16Z</time>
      </trkpt>
      <trkpt lat="38.398456" lon="-6.348300">
        <ele>547.911</ele>
        <time>2021-10-12T13:13:17Z</time>
      </trkpt>
      <trkpt lat="38.398443" lon="-6.348648">
        <ele>547.908</ele>
        <time>2021-10-12T13:13:19Z</time>
      </trkpt>
      <trkpt lat="38.398482" lon="-6.348841">
        <ele>548.959</ele>
        <time>2021-10-12T13:13:20Z</time>
      </trkpt>
      <trkpt lat="38.398620" lon="-6.349218">
        <ele>551.097</ele>
        <time>2021-10-12T13:13:22Z</time>
      </trkpt>
      <trkpt lat="38.398706" lon="-6.349420">
        <ele>551.083</ele>
        <time>2021-10-12T13:13:23Z</time>
      </trkpt>
      <trkpt lat="38.398901" lon="-6.349828">
        <ele>549.656</ele>
        <time>2021-10-12T13:13:25Z</time>
      </trkpt>
      <trkpt lat="38.399011" lon="-6.350051">
        <ele>548.412</ele>
        <time>2021-10-12T13:13:26Z</time>
      </trkpt>
      <trkpt lat="38.399229" lon="-6.350498">
        <ele>546.831</ele>
        <time>2021-10-12T13:13:28Z</time>
      </trkpt>
      <trkpt lat="38.399341" lon="-6.350727">
        <ele>546.481</ele>
        <time>2021-10-12T13:13:29Z</time>
      </trkpt>
      <trkpt lat="38.399455" lon="-6.350959">
        <ele>545.512</ele>
        <time>2021-10-12T13:13:30Z</time>
      </trkpt>
      <trkpt lat="38.399571" lon="-6.351190">
        <ele>545.093</ele>
        <time>2021-10-12T13:13:31Z</time>
      </trkpt>
      <trkpt lat="38.399690" lon="-6.351428">
        <ele>545.065</ele>
        <time>2021-10-12T13:13:32Z</time>
      </trkpt>
      <trkpt lat="38.399912" lon="-6.351873">
        <ele>545.421</ele>
        <time>2021-10-12T13:13:34Z</time>
      </trkpt>
      <trkpt lat="38.400134" lon="-6.352319">
        <ele>545.308</ele>
        <time>2021-10-12T13:13:36Z</time>
      </trkpt>
      <trkpt lat="38.400243" lon="-6.352544">
        <ele>545.887</ele>
        <time>2021-10-12T13:13:37Z</time>
      </trkpt>
      <trkpt lat="38.400359" lon="-6.352777">
        <ele>546.055</ele>
        <time>2021-10-12T13:13:38Z</time>
      </trkpt>
      <trkpt lat="38.400588" lon="-6.353234">
        <ele>546.581</ele>
        <time>2021-10-12T13:13:40Z</time>
      </trkpt>
      <trkpt lat="38.400829" lon="-6.353712">
        <ele>545.064</ele>
        <time>2021-10-12T13:13:42Z</time>
      </trkpt>
      <trkpt lat="38.401078" lon="-6.354208">
        <ele>542.910</ele>
        <time>2021-10-12T13:13:44Z</time>
      </trkpt>
      <trkpt lat="38.401327" lon="-6.354706">
        <ele>543.089</ele>
        <time>2021-10-12T13:13:46Z</time>
      </trkpt>
      <trkpt lat="38.401459" lon="-6.354972">
        <ele>543.969</ele>
        <time>2021-10-12T13:13:47Z</time>
      </trkpt>
      <trkpt lat="38.401594" lon="-6.355245">
        <ele>544.940</ele>
        <time>2021-10-12T13:13:48Z</time>
      </trkpt>
      <trkpt lat="38.401867" lon="-6.355813">
        <ele>543.339</ele>
        <time>2021-10-12T13:13:50Z</time>
      </trkpt>
      <trkpt lat="38.402147" lon="-6.356371">
        <ele>546.401</ele>
        <time>2021-10-12T13:13:52Z</time>
      </trkpt>
      <trkpt lat="38.402438" lon="-6.356957">
        <ele>544.921</ele>
        <time>2021-10-12T13:13:54Z</time>
      </trkpt>
      <trkpt lat="38.402581" lon="-6.357245">
        <ele>544.908</ele>
        <time>2021-10-12T13:13:55Z</time>
      </trkpt>
      <trkpt lat="38.402722" lon="-6.357529">
        <ele>546.311</ele>
        <time>2021-10-12T13:13:56Z</time>
      </trkpt>
      <trkpt lat="38.402974" lon="-6.358034">
        <ele>546.029</ele>
        <time>2021-10-12T13:13:58Z</time>
      </trkpt>
      <trkpt lat="38.403224" lon="-6.358532">
        <ele>545.375</ele>
        <time>2021-10-12T13:14:00Z</time>
      </trkpt>
      <trkpt lat="38.403470" lon="-6.359033">
        <ele>543.738</ele>
        <time>2021-10-12T13:14:02Z</time>
      </trkpt>
      <trkpt lat="38.403701" lon="-6.359514">
        <ele>544.744</ele>
        <time>2021-10-12T13:14:04Z</time>
      </trkpt>
      <trkpt lat="38.403926" lon="-6.359988">
        <ele>548.023</ele>
        <time>2021-10-12T13:14:06Z</time>
      </trkpt>
      <trkpt lat="38.404164" lon="-6.360476">
        <ele>548.733</ele>
        <time>2021-10-12T13:14:08Z</time>
      </trkpt>
      <trkpt lat="38.404397" lon="-6.360986">
        <ele>548.624</ele>
        <time>2021-10-12T13:14:10Z</time>
      </trkpt>
      <trkpt lat="38.404517" lon="-6.361279">
        <ele>549.388</ele>
        <time>2021-10-12T13:14:11Z</time>
      </trkpt>
      <trkpt lat="38.404750" lon="-6.361899">
        <ele>550.624</ele>
        <time>2021-10-12T13:14:13Z</time>
      </trkpt>
      <trkpt lat="38.404866" lon="-6.362236">
        <ele>549.426</ele>
        <time>2021-10-12T13:14:14Z</time>
      </trkpt>
      <trkpt lat="38.405068" lon="-6.362896">
        <ele>548.608</ele>
        <time>2021-10-12T13:14:16Z</time>
      </trkpt>
      <trkpt lat="38.405165" lon="-6.363242">
        <ele>547.366</ele>
        <time>2021-10-12T13:14:17Z</time>
      </trkpt>
      <trkpt lat="38.405253" lon="-6.363593">
        <ele>547.934</ele>
        <time>2021-10-12T13:14:18Z</time>
      </trkpt>
      <trkpt lat="38.405415" lon="-6.364325">
        <ele>549.540</ele>
        <time>2021-10-12T13:14:20Z</time>
      </trkpt>
      <trkpt lat="38.405556" lon="-6.365026">
        <ele>550.183</ele>
        <time>2021-10-12T13:14:22Z</time>
      </trkpt>
      <trkpt lat="38.405697" lon="-6.365712">
        <ele>550.429</ele>
        <time>2021-10-12T13:14:24Z</time>
      </trkpt>
      <trkpt lat="38.405770" lon="-6.366044">
        <ele>548.788</ele>
        <time>2021-10-12T13:14:25Z</time>
      </trkpt>
      <trkpt lat="38.405843" lon="-6.366382">
        <ele>547.128</ele>
        <time>2021-10-12T13:14:26Z</time>
      </trkpt>
      <trkpt lat="38.405973" lon="-6.367016">
        <ele>547.249</ele>
        <time>2021-10-12T13:14:28Z</time>
      </trkpt>
      <trkpt lat="38.406101" lon="-6.367658">
        <ele>546.095</ele>
        <time>2021-10-12T13:14:30Z</time>
      </trkpt>
      <trkpt lat="38.406229" lon="-6.368288">
        <ele>548.349</ele>
        <time>2021-10-12T13:14:32Z</time>
      </trkpt>
      <trkpt lat="38.406355" lon="-6.368877">
        <ele>547.223</ele>
        <time>2021-10-12T13:14:34Z</time>
      </trkpt>
      <trkpt lat="38.406474" lon="-6.369467">
        <ele>546.008</ele>
        <time>2021-10-12T13:14:36Z</time>
      </trkpt>
      <trkpt lat="38.406596" lon="-6.370068">
        <ele>545.767</ele>
        <time>2021-10-12T13:14:38Z</time>
      </trkpt>
      <trkpt lat="38.406718" lon="-6.370669">
        <ele>546.165</ele>
        <time>2021-10-12T13:14:40Z</time>
      </trkpt>
      <trkpt lat="38.406845" lon="-6.371294">
        <ele>546.251</ele>
        <time>2021-10-12T13:14:42Z</time>
      </trkpt>
      <trkpt lat="38.406913" lon="-6.371614">
        <ele>545.384</ele>
        <time>2021-10-12T13:14:43Z</time>
      </trkpt>
      <trkpt lat="38.406986" lon="-6.371940">
        <ele>544.940</ele>
        <time>2021-10-12T13:14:44Z</time>
      </trkpt>
      <trkpt lat="38.407125" lon="-6.372573">
        <ele>543.799</ele>
        <time>2021-10-12T13:14:46Z</time>
      </trkpt>
      <trkpt lat="38.407258" lon="-6.373226">
        <ele>543.089</ele>
        <time>2021-10-12T13:14:48Z</time>
      </trkpt>
      <trkpt lat="38.407394" lon="-6.373895">
        <ele>542.030</ele>
        <time>2021-10-12T13:14:50Z</time>
      </trkpt>
      <trkpt lat="38.407523" lon="-6.374544">
        <ele>542.946</ele>
        <time>2021-10-12T13:14:52Z</time>
      </trkpt>
      <trkpt lat="38.407590" lon="-6.374884">
        <ele>543.088</ele>
        <time>2021-10-12T13:14:53Z</time>
      </trkpt>
      <trkpt lat="38.407655" lon="-6.375207">
        <ele>543.016</ele>
        <time>2021-10-12T13:14:54Z</time>
      </trkpt>
      <trkpt lat="38.407719" lon="-6.375516">
        <ele>542.108</ele>
        <time>2021-10-12T13:14:55Z</time>
      </trkpt>
      <trkpt lat="38.407787" lon="-6.375826">
        <ele>541.152</ele>
        <time>2021-10-12T13:14:56Z</time>
      </trkpt>
      <trkpt lat="38.407907" lon="-6.376403">
        <ele>541.590</ele>
        <time>2021-10-12T13:14:58Z</time>
      </trkpt>
      <trkpt lat="38.407962" lon="-6.376701">
        <ele>541.676</ele>
        <time>2021-10-12T13:14:59Z</time>
      </trkpt>
      <trkpt lat="38.408079" lon="-6.377290">
        <ele>540.179</ele>
        <time>2021-10-12T13:15:01Z</time>
      </trkpt>
      <trkpt lat="38.408146" lon="-6.377597">
        <ele>540.535</ele>
        <time>2021-10-12T13:15:02Z</time>
      </trkpt>
      <trkpt lat="38.408271" lon="-6.378192">
        <ele>543.594</ele>
        <time>2021-10-12T13:15:04Z</time>
      </trkpt>
      <trkpt lat="38.408336" lon="-6.378500">
        <ele>542.274</ele>
        <time>2021-10-12T13:15:05Z</time>
      </trkpt>
      <trkpt lat="38.408403" lon="-6.378808">
        <ele>539.845</ele>
        <time>2021-10-12T13:15:06Z</time>
      </trkpt>
      <trkpt lat="38.408531" lon="-6.379444">
        <ele>540.049</ele>
        <time>2021-10-12T13:15:08Z</time>
      </trkpt>
      <trkpt lat="38.408654" lon="-6.380061">
        <ele>541.902</ele>
        <time>2021-10-12T13:15:10Z</time>
      </trkpt>
      <trkpt lat="38.408719" lon="-6.380383">
        <ele>541.022</ele>
        <time>2021-10-12T13:15:11Z</time>
      </trkpt>
      <trkpt lat="38.408850" lon="-6.381031">
        <ele>539.408</ele>
        <time>2021-10-12T13:15:13Z</time>
      </trkpt>
      <trkpt lat="38.408919" lon="-6.381365">
        <ele>539.742</ele>
        <time>2021-10-12T13:15:14Z</time>
      </trkpt>
      <trkpt lat="38.409059" lon="-6.382021">
        <ele>539.630</ele>
        <time>2021-10-12T13:15:16Z</time>
      </trkpt>
      <trkpt lat="38.409203" lon="-6.382703">
        <ele>537.916</ele>
        <time>2021-10-12T13:15:18Z</time>
      </trkpt>
      <trkpt lat="38.409274" lon="-6.383053">
        <ele>537.659</ele>
        <time>2021-10-12T13:15:19Z</time>
      </trkpt>
      <trkpt lat="38.409348" lon="-6.383416">
        <ele>537.875</ele>
        <time>2021-10-12T13:15:20Z</time>
      </trkpt>
      <trkpt lat="38.409488" lon="-6.384096">
        <ele>538.684</ele>
        <time>2021-10-12T13:15:22Z</time>
      </trkpt>
      <trkpt lat="38.409633" lon="-6.384772">
        <ele>537.144</ele>
        <time>2021-10-12T13:15:24Z</time>
      </trkpt>
      <trkpt lat="38.409702" lon="-6.385106">
        <ele>537.515</ele>
        <time>2021-10-12T13:15:25Z</time>
      </trkpt>
      <trkpt lat="38.409772" lon="-6.385446">
        <ele>538.545</ele>
        <time>2021-10-12T13:15:26Z</time>
      </trkpt>
      <trkpt lat="38.409900" lon="-6.386067">
        <ele>539.747</ele>
        <time>2021-10-12T13:15:28Z</time>
      </trkpt>
      <trkpt lat="38.409964" lon="-6.386377">
        <ele>540.111</ele>
        <time>2021-10-12T13:15:29Z</time>
      </trkpt>
      <trkpt lat="38.410096" lon="-6.386961">
        <ele>537.308</ele>
        <time>2021-10-12T13:15:31Z</time>
      </trkpt>
      <trkpt lat="38.410165" lon="-6.387248">
        <ele>537.642</ele>
        <time>2021-10-12T13:15:32Z</time>
      </trkpt>
      <trkpt lat="38.410301" lon="-6.387754">
        <ele>538.030</ele>
        <time>2021-10-12T13:15:34Z</time>
      </trkpt>
      <trkpt lat="38.410372" lon="-6.388005">
        <ele>538.536</ele>
        <time>2021-10-12T13:15:35Z</time>
      </trkpt>
      <trkpt lat="38.410517" lon="-6.388521">
        <ele>538.979</ele>
        <time>2021-10-12T13:15:37Z</time>
      </trkpt>
      <trkpt lat="38.410587" lon="-6.388768">
        <ele>538.665</ele>
        <time>2021-10-12T13:15:38Z</time>
      </trkpt>
      <trkpt lat="38.410707" lon="-6.389168">
        <ele>538.114</ele>
        <time>2021-10-12T13:15:40Z</time>
      </trkpt>
      <trkpt lat="38.410767" lon="-6.389360">
        <ele>538.014</ele>
        <time>2021-10-12T13:15:41Z</time>
      </trkpt>
      <trkpt lat="38.410883" lon="-6.389753">
        <ele>537.125</ele>
        <time>2021-10-12T13:15:43Z</time>
      </trkpt>
      <trkpt lat="38.410952" lon="-6.389964">
        <ele>536.921</ele>
        <time>2021-10-12T13:15:44Z</time>
      </trkpt>
      <trkpt lat="38.411094" lon="-6.390392">
        <ele>536.641</ele>
        <time>2021-10-12T13:15:46Z</time>
      </trkpt>
      <trkpt lat="38.411234" lon="-6.390873">
        <ele>535.805</ele>
        <time>2021-10-12T13:15:48Z</time>
      </trkpt>
      <trkpt lat="38.411405" lon="-6.391426">
        <ele>532.008</ele>
        <time>2021-10-12T13:15:50Z</time>
      </trkpt>
      <trkpt lat="38.411585" lon="-6.392028">
        <ele>531.820</ele>
        <time>2021-10-12T13:15:52Z</time>
      </trkpt>
      <trkpt lat="38.411678" lon="-6.392347">
        <ele>531.668</ele>
        <time>2021-10-12T13:15:53Z</time>
      </trkpt>
      <trkpt lat="38.411772" lon="-6.392664">
        <ele>531.264</ele>
        <time>2021-10-12T13:15:54Z</time>
      </trkpt>
      <trkpt lat="38.411867" lon="-6.392979">
        <ele>531.647</ele>
        <time>2021-10-12T13:15:55Z</time>
      </trkpt>
      <trkpt lat="38.411964" lon="-6.393290">
        <ele>533.013</ele>
        <time>2021-10-12T13:15:56Z</time>
      </trkpt>
      <trkpt lat="38.412147" lon="-6.393860">
        <ele>533.252</ele>
        <time>2021-10-12T13:15:58Z</time>
      </trkpt>
      <trkpt lat="38.412329" lon="-6.394372">
        <ele>532.192</ele>
        <time>2021-10-12T13:16:00Z</time>
      </trkpt>
      <trkpt lat="38.412519" lon="-6.394838">
        <ele>530.543</ele>
        <time>2021-10-12T13:16:02Z</time>
      </trkpt>
      <trkpt lat="38.412703" lon="-6.395250">
        <ele>528.435</ele>
        <time>2021-10-12T13:16:04Z</time>
      </trkpt>
      <trkpt lat="38.412890" lon="-6.395652">
        <ele>529.486</ele>
        <time>2021-10-12T13:16:06Z</time>
      </trkpt>
      <trkpt lat="38.412983" lon="-6.395853">
        <ele>529.714</ele>
        <time>2021-10-12T13:16:07Z</time>
      </trkpt>
      <trkpt lat="38.413081" lon="-6.396064">
        <ele>530.008</ele>
        <time>2021-10-12T13:16:08Z</time>
      </trkpt>
      <trkpt lat="38.413269" lon="-6.396474">
        <ele>530.561</ele>
        <time>2021-10-12T13:16:10Z</time>
      </trkpt>
      <trkpt lat="38.413362" lon="-6.396675">
        <ele>529.939</ele>
        <time>2021-10-12T13:16:11Z</time>
      </trkpt>
      <trkpt lat="38.413522" lon="-6.397021">
        <ele>529.075</ele>
        <time>2021-10-12T13:16:13Z</time>
      </trkpt>
      <trkpt lat="38.413594" lon="-6.397177">
        <ele>529.028</ele>
        <time>2021-10-12T13:16:14Z</time>
      </trkpt>
      <trkpt lat="38.413725" lon="-6.397458">
        <ele>529.064</ele>
        <time>2021-10-12T13:16:16Z</time>
      </trkpt>
      <trkpt lat="38.413789" lon="-6.397593">
        <ele>529.063</ele>
        <time>2021-10-12T13:16:17Z</time>
      </trkpt>
      <trkpt lat="38.413897" lon="-6.397819">
        <ele>529.063</ele>
        <time>2021-10-12T13:16:19Z</time>
      </trkpt>
      <trkpt lat="38.413945" lon="-6.397921">
        <ele>528.774</ele>
        <time>2021-10-12T13:16:20Z</time>
      </trkpt>
      <trkpt lat="38.414027" lon="-6.398099">
        <ele>528.026</ele>
        <time>2021-10-12T13:16:22Z</time>
      </trkpt>
      <trkpt lat="38.414098" lon="-6.398256">
        <ele>527.547</ele>
        <time>2021-10-12T13:16:24Z</time>
      </trkpt>
      <trkpt lat="38.414169" lon="-6.398404">
        <ele>527.311</ele>
        <time>2021-10-12T13:16:26Z</time>
      </trkpt>
      <trkpt lat="38.414249" lon="-6.398565">
        <ele>528.108</ele>
        <time>2021-10-12T13:16:28Z</time>
      </trkpt>
      <trkpt lat="38.414299" lon="-6.398653">
        <ele>528.540</ele>
        <time>2021-10-12T13:16:29Z</time>
      </trkpt>
      <trkpt lat="38.414426" lon="-6.398825">
        <ele>529.798</ele>
        <time>2021-10-12T13:16:31Z</time>
      </trkpt>
      <trkpt lat="38.414507" lon="-6.398907">
        <ele>530.044</ele>
        <time>2021-10-12T13:16:32Z</time>
      </trkpt>
      <trkpt lat="38.414639" lon="-6.399086">
        <ele>530.097</ele>
        <time>2021-10-12T13:16:34Z</time>
      </trkpt>
      <trkpt lat="38.414680" lon="-6.399199">
        <ele>529.973</ele>
        <time>2021-10-12T13:16:35Z</time>
      </trkpt>
      <trkpt lat="38.414727" lon="-6.399441">
        <ele>529.012</ele>
        <time>2021-10-12T13:16:37Z</time>
      </trkpt>
      <trkpt lat="38.414754" lon="-6.399570">
        <ele>528.642</ele>
        <time>2021-10-12T13:16:38Z</time>
      </trkpt>
      <trkpt lat="38.414842" lon="-6.399820">
        <ele>528.233</ele>
        <time>2021-10-12T13:16:40Z</time>
      </trkpt>
      <trkpt lat="38.414899" lon="-6.399936">
        <ele>528.457</ele>
        <time>2021-10-12T13:16:41Z</time>
      </trkpt>
      <trkpt lat="38.415009" lon="-6.400133">
        <ele>528.600</ele>
        <time>2021-10-12T13:16:43Z</time>
      </trkpt>
      <trkpt lat="38.415056" lon="-6.400222">
        <ele>528.820</ele>
        <time>2021-10-12T13:16:44Z</time>
      </trkpt>
      <trkpt lat="38.415152" lon="-6.400402">
        <ele>528.908</ele>
        <time>2021-10-12T13:16:46Z</time>
      </trkpt>
      <trkpt lat="38.415205" lon="-6.400499">
        <ele>528.513</ele>
        <time>2021-10-12T13:16:47Z</time>
      </trkpt>
      <trkpt lat="38.415314" lon="-6.400696">
        <ele>528.031</ele>
        <time>2021-10-12T13:16:49Z</time>
      </trkpt>
      <trkpt lat="38.415377" lon="-6.400809">
        <ele>528.067</ele>
        <time>2021-10-12T13:16:50Z</time>
      </trkpt>
      <trkpt lat="38.415516" lon="-6.401040">
        <ele>528.010</ele>
        <time>2021-10-12T13:16:52Z</time>
      </trkpt>
      <trkpt lat="38.415680" lon="-6.401303">
        <ele>528.156</ele>
        <time>2021-10-12T13:16:54Z</time>
      </trkpt>
      <trkpt lat="38.415769" lon="-6.401441">
        <ele>527.975</ele>
        <time>2021-10-12T13:16:55Z</time>
      </trkpt>
      <trkpt lat="38.415861" lon="-6.401580">
        <ele>527.255</ele>
        <time>2021-10-12T13:16:56Z</time>
      </trkpt>
      <trkpt lat="38.416033" lon="-6.401825">
        <ele>526.196</ele>
        <time>2021-10-12T13:16:58Z</time>
      </trkpt>
      <trkpt lat="38.416119" lon="-6.401944">
        <ele>526.097</ele>
        <time>2021-10-12T13:16:59Z</time>
      </trkpt>
      <trkpt lat="38.416298" lon="-6.402179">
        <ele>526.923</ele>
        <time>2021-10-12T13:17:01Z</time>
      </trkpt>
      <trkpt lat="38.416396" lon="-6.402300">
        <ele>527.625</ele>
        <time>2021-10-12T13:17:02Z</time>
      </trkpt>
      <trkpt lat="38.416591" lon="-6.402539">
        <ele>529.008</ele>
        <time>2021-10-12T13:17:04Z</time>
      </trkpt>
      <trkpt lat="38.416801" lon="-6.402798">
        <ele>528.067</ele>
        <time>2021-10-12T13:17:06Z</time>
      </trkpt>
      <trkpt lat="38.417022" lon="-6.403079">
        <ele>526.965</ele>
        <time>2021-10-12T13:17:08Z</time>
      </trkpt>
      <trkpt lat="38.417242" lon="-6.403350">
        <ele>526.151</ele>
        <time>2021-10-12T13:17:10Z</time>
      </trkpt>
      <trkpt lat="38.417444" lon="-6.403598">
        <ele>526.014</ele>
        <time>2021-10-12T13:17:12Z</time>
      </trkpt>
      <trkpt lat="38.417626" lon="-6.403822">
        <ele>525.720</ele>
        <time>2021-10-12T13:17:14Z</time>
      </trkpt>
      <trkpt lat="38.417794" lon="-6.404037">
        <ele>524.989</ele>
        <time>2021-10-12T13:17:16Z</time>
      </trkpt>
      <trkpt lat="38.417882" lon="-6.404147">
        <ele>524.619</ele>
        <time>2021-10-12T13:17:17Z</time>
      </trkpt>
      <trkpt lat="38.418059" lon="-6.404368">
        <ele>524.020</ele>
        <time>2021-10-12T13:17:19Z</time>
      </trkpt>
      <trkpt lat="38.418146" lon="-6.404477">
        <ele>524.239</ele>
        <time>2021-10-12T13:17:20Z</time>
      </trkpt>
      <trkpt lat="38.418291" lon="-6.404650">
        <ele>524.101</ele>
        <time>2021-10-12T13:17:22Z</time>
      </trkpt>
      <trkpt lat="38.418419" lon="-6.404766">
        <ele>523.821</ele>
        <time>2021-10-12T13:17:24Z</time>
      </trkpt>
      <trkpt lat="38.418575" lon="-6.404869">
        <ele>523.508</ele>
        <time>2021-10-12T13:17:26Z</time>
      </trkpt>
      <trkpt lat="38.418710" lon="-6.405057">
        <ele>522.831</ele>
        <time>2021-10-12T13:17:28Z</time>
      </trkpt>
      <trkpt lat="38.418769" lon="-6.405193">
        <ele>522.329</ele>
        <time>2021-10-12T13:17:29Z</time>
      </trkpt>
      <trkpt lat="38.418835" lon="-6.405335">
        <ele>522.015</ele>
        <time>2021-10-12T13:17:30Z</time>
      </trkpt>
      <trkpt lat="38.418924" lon="-6.405477">
        <ele>522.148</ele>
        <time>2021-10-12T13:17:31Z</time>
      </trkpt>
      <trkpt lat="38.419038" lon="-6.405631">
        <ele>522.514</ele>
        <time>2021-10-12T13:17:32Z</time>
      </trkpt>
      <trkpt lat="38.419308" lon="-6.405966">
        <ele>523.063</ele>
        <time>2021-10-12T13:17:34Z</time>
      </trkpt>
      <trkpt lat="38.419458" lon="-6.406152">
        <ele>522.933</ele>
        <time>2021-10-12T13:17:35Z</time>
      </trkpt>
      <trkpt lat="38.419768" lon="-6.406537">
        <ele>523.544</ele>
        <time>2021-10-12T13:17:37Z</time>
      </trkpt>
      <trkpt lat="38.419936" lon="-6.406744">
        <ele>524.034</ele>
        <time>2021-10-12T13:17:38Z</time>
      </trkpt>
      <trkpt lat="38.420261" lon="-6.407147">
        <ele>522.655</ele>
        <time>2021-10-12T13:17:40Z</time>
      </trkpt>
      <trkpt lat="38.420571" lon="-6.407535">
        <ele>523.010</ele>
        <time>2021-10-12T13:17:42Z</time>
      </trkpt>
      <trkpt lat="38.420849" lon="-6.407883">
        <ele>523.108</ele>
        <time>2021-10-12T13:17:44Z</time>
      </trkpt>
      <trkpt lat="38.421086" lon="-6.408188">
        <ele>523.011</ele>
        <time>2021-10-12T13:17:46Z</time>
      </trkpt>
      <trkpt lat="38.421198" lon="-6.408335">
        <ele>522.349</ele>
        <time>2021-10-12T13:17:47Z</time>
      </trkpt>
      <trkpt lat="38.421415" lon="-6.408644">
        <ele>523.275</ele>
        <time>2021-10-12T13:17:49Z</time>
      </trkpt>
      <trkpt lat="38.421522" lon="-6.408821">
        <ele>524.088</ele>
        <time>2021-10-12T13:17:50Z</time>
      </trkpt>
      <trkpt lat="38.421732" lon="-6.409209">
        <ele>524.844</ele>
        <time>2021-10-12T13:17:52Z</time>
      </trkpt>
      <trkpt lat="38.421845" lon="-6.409429">
        <ele>525.023</ele>
        <time>2021-10-12T13:17:53Z</time>
      </trkpt>
      <trkpt lat="38.422082" lon="-6.409858">
        <ele>524.063</ele>
        <time>2021-10-12T13:17:55Z</time>
      </trkpt>
      <trkpt lat="38.422202" lon="-6.410058">
        <ele>523.034</ele>
        <time>2021-10-12T13:17:56Z</time>
      </trkpt>
      <trkpt lat="38.422412" lon="-6.410411">
        <ele>521.292</ele>
        <time>2021-10-12T13:17:58Z</time>
      </trkpt>
      <trkpt lat="38.422507" lon="-6.410576">
        <ele>520.973</ele>
        <time>2021-10-12T13:17:59Z</time>
      </trkpt>
      <trkpt lat="38.422676" lon="-6.410875">
        <ele>520.220</ele>
        <time>2021-10-12T13:18:01Z</time>
      </trkpt>
      <trkpt lat="38.422750" lon="-6.411004">
        <ele>521.108</ele>
        <time>2021-10-12T13:18:02Z</time>
      </trkpt>
      <trkpt lat="38.422872" lon="-6.411197">
        <ele>522.537</ele>
        <time>2021-10-12T13:18:04Z</time>
      </trkpt>
      <trkpt lat="38.422985" lon="-6.411338">
        <ele>523.075</ele>
        <time>2021-10-12T13:18:06Z</time>
      </trkpt>
      <trkpt lat="38.423097" lon="-6.411453">
        <ele>522.891</ele>
        <time>2021-10-12T13:18:08Z</time>
      </trkpt>
      <trkpt lat="38.423187" lon="-6.411540">
        <ele>522.074</ele>
        <time>2021-10-12T13:18:10Z</time>
      </trkpt>
      <trkpt lat="38.423229" lon="-6.411574">
        <ele>521.590</ele>
        <time>2021-10-12T13:18:11Z</time>
      </trkpt>
      <trkpt lat="38.423310" lon="-6.411641">
        <ele>520.479</ele>
        <time>2021-10-12T13:18:13Z</time>
      </trkpt>
      <trkpt lat="38.423358" lon="-6.411679">
        <ele>519.969</ele>
        <time>2021-10-12T13:18:14Z</time>
      </trkpt>
      <trkpt lat="38.423460" lon="-6.411742">
        <ele>519.170</ele>
        <time>2021-10-12T13:18:16Z</time>
      </trkpt>
      <trkpt lat="38.423565" lon="-6.411775">
        <ele>518.578</ele>
        <time>2021-10-12T13:18:18Z</time>
      </trkpt>
      <trkpt lat="38.423622" lon="-6.411782">
        <ele>518.333</ele>
        <time>2021-10-12T13:18:19Z</time>
      </trkpt>
      <trkpt lat="38.423671" lon="-6.411782">
        <ele>518.726</ele>
        <time>2021-10-12T13:18:20Z</time>
      </trkpt>
      <trkpt lat="38.423730" lon="-6.411768">
        <ele>519.208</ele>
        <time>2021-10-12T13:18:22Z</time>
      </trkpt>
      <trkpt lat="38.423796" lon="-6.411737">
        <ele>519.775</ele>
        <time>2021-10-12T13:18:24Z</time>
      </trkpt>
      <trkpt lat="38.423842" lon="-6.411706">
        <ele>519.933</ele>
        <time>2021-10-12T13:18:25Z</time>
      </trkpt>
      <trkpt lat="38.423893" lon="-6.411666">
        <ele>520.049</ele>
        <time>2021-10-12T13:18:26Z</time>
      </trkpt>
      <trkpt lat="38.424012" lon="-6.411591">
        <ele>520.992</ele>
        <time>2021-10-12T13:18:28Z</time>
      </trkpt>
      <trkpt lat="38.424153" lon="-6.411602">
        <ele>521.248</ele>
        <time>2021-10-12T13:18:30Z</time>
      </trkpt>
      <trkpt lat="38.424293" lon="-6.411699">
        <ele>520.537</ele>
        <time>2021-10-12T13:18:32Z</time>
      </trkpt>
      <trkpt lat="38.424412" lon="-6.411863">
        <ele>520.167</ele>
        <time>2021-10-12T13:18:34Z</time>
      </trkpt>
      <trkpt lat="38.424486" lon="-6.411918">
        <ele>519.978</ele>
        <time>2021-10-12T13:18:35Z</time>
      </trkpt>
      <trkpt lat="38.424573" lon="-6.411944">
        <ele>519.596</ele>
        <time>2021-10-12T13:18:36Z</time>
      </trkpt>
      <trkpt lat="38.424672" lon="-6.411940">
        <ele>519.231</ele>
        <time>2021-10-12T13:18:37Z</time>
      </trkpt>
      <trkpt lat="38.424780" lon="-6.411924">
        <ele>519.324</ele>
        <time>2021-10-12T13:18:38Z</time>
      </trkpt>
      <trkpt lat="38.425007" lon="-6.411897">
        <ele>520.408</ele>
        <time>2021-10-12T13:18:40Z</time>
      </trkpt>
      <trkpt lat="38.425131" lon="-6.411885">
        <ele>521.067</ele>
        <time>2021-10-12T13:18:41Z</time>
      </trkpt>
      <trkpt lat="38.425251" lon="-6.411878">
        <ele>521.615</ele>
        <time>2021-10-12T13:18:42Z</time>
      </trkpt>
      <trkpt lat="38.425506" lon="-6.411856">
        <ele>522.511</ele>
        <time>2021-10-12T13:18:44Z</time>
      </trkpt>
      <trkpt lat="38.425779" lon="-6.411826">
        <ele>523.714</ele>
        <time>2021-10-12T13:18:46Z</time>
      </trkpt>
      <trkpt lat="38.425928" lon="-6.411812">
        <ele>524.060</ele>
        <time>2021-10-12T13:18:47Z</time>
      </trkpt>
      <trkpt lat="38.426224" lon="-6.411778">
        <ele>524.239</ele>
        <time>2021-10-12T13:18:49Z</time>
      </trkpt>
      <trkpt lat="38.426371" lon="-6.411762">
        <ele>524.339</ele>
        <time>2021-10-12T13:18:50Z</time>
      </trkpt>
      <trkpt lat="38.426631" lon="-6.411739">
        <ele>523.850</ele>
        <time>2021-10-12T13:18:52Z</time>
      </trkpt>
      <trkpt lat="38.426868" lon="-6.411719">
        <ele>523.868</ele>
        <time>2021-10-12T13:18:54Z</time>
      </trkpt>
      <trkpt lat="38.426979" lon="-6.411716">
        <ele>523.742</ele>
        <time>2021-10-12T13:18:55Z</time>
      </trkpt>
      <trkpt lat="38.427095" lon="-6.411720">
        <ele>523.426</ele>
        <time>2021-10-12T13:18:56Z</time>
      </trkpt>
      <trkpt lat="38.427318" lon="-6.411750">
        <ele>523.208</ele>
        <time>2021-10-12T13:18:58Z</time>
      </trkpt>
      <trkpt lat="38.427432" lon="-6.411773">
        <ele>523.524</ele>
        <time>2021-10-12T13:18:59Z</time>
      </trkpt>
      <trkpt lat="38.427547" lon="-6.411807">
        <ele>523.642</ele>
        <time>2021-10-12T13:19:00Z</time>
      </trkpt>
      <trkpt lat="38.427783" lon="-6.411883">
        <ele>523.518</ele>
        <time>2021-10-12T13:19:02Z</time>
      </trkpt>
      <trkpt lat="38.428021" lon="-6.411988">
        <ele>523.781</ele>
        <time>2021-10-12T13:19:04Z</time>
      </trkpt>
      <trkpt lat="38.428140" lon="-6.412058">
        <ele>523.767</ele>
        <time>2021-10-12T13:19:05Z</time>
      </trkpt>
      <trkpt lat="38.428363" lon="-6.412216">
        <ele>524.036</ele>
        <time>2021-10-12T13:19:07Z</time>
      </trkpt>
      <trkpt lat="38.428477" lon="-6.412299">
        <ele>524.116</ele>
        <time>2021-10-12T13:19:08Z</time>
      </trkpt>
      <trkpt lat="38.428680" lon="-6.412457">
        <ele>524.677</ele>
        <time>2021-10-12T13:19:10Z</time>
      </trkpt>
      <trkpt lat="38.428767" lon="-6.412533">
        <ele>524.488</ele>
        <time>2021-10-12T13:19:11Z</time>
      </trkpt>
      <trkpt lat="38.428897" lon="-6.412648">
        <ele>524.024</ele>
        <time>2021-10-12T13:19:13Z</time>
      </trkpt>
      <trkpt lat="38.428948" lon="-6.412692">
        <ele>524.026</ele>
        <time>2021-10-12T13:19:14Z</time>
      </trkpt>
      <trkpt lat="38.429055" lon="-6.412772">
        <ele>524.008</ele>
        <time>2021-10-12T13:19:16Z</time>
      </trkpt>
      <trkpt lat="38.429190" lon="-6.412813">
        <ele>523.966</ele>
        <time>2021-10-12T13:19:18Z</time>
      </trkpt>
      <trkpt lat="38.429264" lon="-6.412821">
        <ele>523.894</ele>
        <time>2021-10-12T13:19:19Z</time>
      </trkpt>
      <trkpt lat="38.429337" lon="-6.412844">
        <ele>523.890</ele>
        <time>2021-10-12T13:19:20Z</time>
      </trkpt>
      <trkpt lat="38.429459" lon="-6.412948">
        <ele>523.573</ele>
        <time>2021-10-12T13:19:22Z</time>
      </trkpt>
      <trkpt lat="38.429556" lon="-6.413141">
        <ele>524.019</ele>
        <time>2021-10-12T13:19:24Z</time>
      </trkpt>
      <trkpt lat="38.429621" lon="-6.413242">
        <ele>524.538</ele>
        <time>2021-10-12T13:19:25Z</time>
      </trkpt>
      <trkpt lat="38.429704" lon="-6.413342">
        <ele>525.018</ele>
        <time>2021-10-12T13:19:26Z</time>
      </trkpt>
      <trkpt lat="38.429881" lon="-6.413549">
        <ele>525.319</ele>
        <time>2021-10-12T13:19:28Z</time>
      </trkpt>
      <trkpt lat="38.429971" lon="-6.413672">
        <ele>525.349</ele>
        <time>2021-10-12T13:19:29Z</time>
      </trkpt>
      <trkpt lat="38.430047" lon="-6.413798">
        <ele>525.502</ele>
        <time>2021-10-12T13:19:30Z</time>
      </trkpt>
      <trkpt lat="38.430111" lon="-6.413919">
        <ele>525.822</ele>
        <time>2021-10-12T13:19:31Z</time>
      </trkpt>
      <trkpt lat="38.430166" lon="-6.414034">
        <ele>526.408</ele>
        <time>2021-10-12T13:19:32Z</time>
      </trkpt>
      <trkpt lat="38.430255" lon="-6.414231">
        <ele>527.342</ele>
        <time>2021-10-12T13:19:34Z</time>
      </trkpt>
      <trkpt lat="38.430299" lon="-6.414320">
        <ele>527.430</ele>
        <time>2021-10-12T13:19:35Z</time>
      </trkpt>
      <trkpt lat="38.430345" lon="-6.414396">
        <ele>527.416</ele>
        <time>2021-10-12T13:19:36Z</time>
      </trkpt>
      <trkpt lat="38.430439" lon="-6.414527">
        <ele>526.819</ele>
        <time>2021-10-12T13:19:38Z</time>
      </trkpt>
      <trkpt lat="38.430464" lon="-6.414671">
        <ele>526.755</ele>
        <time>2021-10-12T13:19:40Z</time>
      </trkpt>
      <trkpt lat="38.430445" lon="-6.414740">
        <ele>526.774</ele>
        <time>2021-10-12T13:19:41Z</time>
      </trkpt>
      <trkpt lat="38.430336" lon="-6.414829">
        <ele>527.264</ele>
        <time>2021-10-12T13:19:43Z</time>
      </trkpt>
      <trkpt lat="38.430271" lon="-6.414825">
        <ele>527.695</ele>
        <time>2021-10-12T13:19:44Z</time>
      </trkpt>
      <trkpt lat="38.430165" lon="-6.414781">
        <ele>527.916</ele>
        <time>2021-10-12T13:19:46Z</time>
      </trkpt>
      <trkpt lat="38.430069" lon="-6.414814">
        <ele>527.976</ele>
        <time>2021-10-12T13:19:48Z</time>
      </trkpt>
      <trkpt lat="38.430019" lon="-6.414847">
        <ele>528.013</ele>
        <time>2021-10-12T13:19:49Z</time>
      </trkpt>
      <trkpt lat="38.429965" lon="-6.414876">
        <ele>527.708</ele>
        <time>2021-10-12T13:19:50Z</time>
      </trkpt>
      <trkpt lat="38.429858" lon="-6.414934">
        <ele>526.679</ele>
        <time>2021-10-12T13:19:52Z</time>
      </trkpt>
      <trkpt lat="38.429798" lon="-6.414969">
        <ele>525.917</ele>
        <time>2021-10-12T13:19:53Z</time>
      </trkpt>
      <trkpt lat="38.429687" lon="-6.415035">
        <ele>524.723</ele>
        <time>2021-10-12T13:19:55Z</time>
      </trkpt>
      <trkpt lat="38.429635" lon="-6.415064">
        <ele>524.436</ele>
        <time>2021-10-12T13:19:56Z</time>
      </trkpt>
      <trkpt lat="38.429540" lon="-6.415130">
        <ele>523.712</ele>
        <time>2021-10-12T13:19:58Z</time>
      </trkpt>
      <trkpt lat="38.429484" lon="-6.415170">
        <ele>523.371</ele>
        <time>2021-10-12T13:19:59Z</time>
      </trkpt>
      <trkpt lat="38.429422" lon="-6.415216">
        <ele>522.811</ele>
        <time>2021-10-12T13:20:00Z</time>
      </trkpt>
      <trkpt lat="38.429280" lon="-6.415319">
        <ele>521.912</ele>
        <time>2021-10-12T13:20:02Z</time>
      </trkpt>
      <trkpt lat="38.429140" lon="-6.415427">
        <ele>520.936</ele>
        <time>2021-10-12T13:20:04Z</time>
      </trkpt>
      <trkpt lat="38.429070" lon="-6.415485">
        <ele>520.717</ele>
        <time>2021-10-12T13:20:05Z</time>
      </trkpt>
      <trkpt lat="38.428934" lon="-6.415591">
        <ele>520.218</ele>
        <time>2021-10-12T13:20:07Z</time>
      </trkpt>
      <trkpt lat="38.428870" lon="-6.415647">
        <ele>519.908</ele>
        <time>2021-10-12T13:20:08Z</time>
      </trkpt>
      <trkpt lat="38.428745" lon="-6.415757">
        <ele>519.541</ele>
        <time>2021-10-12T13:20:10Z</time>
      </trkpt>
      <trkpt lat="38.428604" lon="-6.415868">
        <ele>519.099</ele>
        <time>2021-10-12T13:20:12Z</time>
      </trkpt>
      <trkpt lat="38.428462" lon="-6.415994">
        <ele>519.575</ele>
        <time>2021-10-12T13:20:14Z</time>
      </trkpt>
      <trkpt lat="38.428344" lon="-6.416103">
        <ele>520.018</ele>
        <time>2021-10-12T13:20:16Z</time>
      </trkpt>
      <trkpt lat="38.428238" lon="-6.416205">
        <ele>519.784</ele>
        <time>2021-10-12T13:20:18Z</time>
      </trkpt>
      <trkpt lat="38.428188" lon="-6.416260">
        <ele>519.543</ele>
        <time>2021-10-12T13:20:19Z</time>
      </trkpt>
      <trkpt lat="38.428133" lon="-6.416317">
        <ele>519.393</ele>
        <time>2021-10-12T13:20:20Z</time>
      </trkpt>
      <trkpt lat="38.428003" lon="-6.416435">
        <ele>519.044</ele>
        <time>2021-10-12T13:20:22Z</time>
      </trkpt>
      <trkpt lat="38.427925" lon="-6.416503">
        <ele>518.953</ele>
        <time>2021-10-12T13:20:23Z</time>
      </trkpt>
      <trkpt lat="38.427767" lon="-6.416646">
        <ele>518.304</ele>
        <time>2021-10-12T13:20:25Z</time>
      </trkpt>
      <trkpt lat="38.427684" lon="-6.416719">
        <ele>518.214</ele>
        <time>2021-10-12T13:20:26Z</time>
      </trkpt>
      <trkpt lat="38.427528" lon="-6.416857">
        <ele>517.808</ele>
        <time>2021-10-12T13:20:28Z</time>
      </trkpt>
      <trkpt lat="38.427370" lon="-6.417000">
        <ele>518.543</ele>
        <time>2021-10-12T13:20:30Z</time>
      </trkpt>
      <trkpt lat="38.427301" lon="-6.417067">
        <ele>518.841</ele>
        <time>2021-10-12T13:20:31Z</time>
      </trkpt>
      <trkpt lat="38.427235" lon="-6.417132">
        <ele>518.967</ele>
        <time>2021-10-12T13:20:32Z</time>
      </trkpt>
      <trkpt lat="38.427125" lon="-6.417232">
        <ele>518.690</ele>
        <time>2021-10-12T13:20:34Z</time>
      </trkpt>
      <trkpt lat="38.427078" lon="-6.417274">
        <ele>518.686</ele>
        <time>2021-10-12T13:20:35Z</time>
      </trkpt>
      <trkpt lat="38.427041" lon="-6.417313">
        <ele>518.335</ele>
        <time>2021-10-12T13:20:36Z</time>
      </trkpt>
      <trkpt lat="38.427004" lon="-6.417378">
        <ele>517.765</ele>
        <time>2021-10-12T13:20:38Z</time>
      </trkpt>
      <trkpt lat="38.427049" lon="-6.417471">
        <ele>516.796</ele>
        <time>2021-10-12T13:20:41Z</time>
      </trkpt>
      <trkpt lat="38.427089" lon="-6.417538">
        <ele>516.414</ele>
        <time>2021-10-12T13:20:42Z</time>
      </trkpt>
      <trkpt lat="38.427144" lon="-6.417636">
        <ele>516.454</ele>
        <time>2021-10-12T13:20:43Z</time>
      </trkpt>
      <trkpt lat="38.427205" lon="-6.417752">
        <ele>516.109</ele>
        <time>2021-10-12T13:20:44Z</time>
      </trkpt>
      <trkpt lat="38.427328" lon="-6.417989">
        <ele>515.108</ele>
        <time>2021-10-12T13:20:46Z</time>
      </trkpt>
      <trkpt lat="38.427421" lon="-6.418169">
        <ele>514.599</ele>
        <time>2021-10-12T13:20:48Z</time>
      </trkpt>
      <trkpt lat="38.427455" lon="-6.418236">
        <ele>514.227</ele>
        <time>2021-10-12T13:20:49Z</time>
      </trkpt>
      <trkpt lat="38.427485" lon="-6.418293">
        <ele>514.193</ele>
        <time>2021-10-12T13:20:50Z</time>
      </trkpt>
      <trkpt lat="38.427530" lon="-6.418365">
        <ele>514.136</ele>
        <time>2021-10-12T13:20:52Z</time>
      </trkpt>
      <trkpt lat="38.427561" lon="-6.418436">
        <ele>514.022</ele>
        <time>2021-10-12T13:20:55Z</time>
      </trkpt>
      <trkpt lat="38.427548" lon="-6.418511">
        <ele>513.621</ele>
        <time>2021-10-12T13:20:57Z</time>
      </trkpt>
      <trkpt lat="38.427484" lon="-6.418596">
        <ele>513.141</ele>
        <time>2021-10-12T13:20:59Z</time>
      </trkpt>
      <trkpt lat="38.427438" lon="-6.418632">
        <ele>512.962</ele>
        <time>2021-10-12T13:21:00Z</time>
      </trkpt>
      <trkpt lat="38.427360" lon="-6.418694">
        <ele>512.979</ele>
        <time>2021-10-12T13:21:02Z</time>
      </trkpt>
      <trkpt lat="38.427283" lon="-6.418747">
        <ele>512.905</ele>
        <time>2021-10-12T13:21:04Z</time>
      </trkpt>
      <trkpt lat="38.427230" lon="-6.418784">
        <ele>513.025</ele>
        <time>2021-10-12T13:21:05Z</time>
      </trkpt>
      <trkpt lat="38.427181" lon="-6.418815">
        <ele>513.108</ele>
        <time>2021-10-12T13:21:07Z</time>
      </trkpt>
      <trkpt lat="38.427124" lon="-6.418832">
        <ele>513.455</ele>
        <time>2021-10-12T13:21:08Z</time>
      </trkpt>
      <trkpt lat="38.427033" lon="-6.418876">
        <ele>513.743</ele>
        <time>2021-10-12T13:21:10Z</time>
      </trkpt>
      <trkpt lat="38.426981" lon="-6.418854">
        <ele>513.939</ele>
        <time>2021-10-12T13:21:11Z</time>
      </trkpt>
      <trkpt lat="38.426922" lon="-6.418871">
        <ele>514.192</ele>
        <time>2021-10-12T13:21:13Z</time>
      </trkpt>
      <trkpt lat="38.426881" lon="-6.418911">
        <ele>514.178</ele>
        <time>2021-10-12T13:21:15Z</time>
      </trkpt>
      <trkpt lat="38.426826" lon="-6.418933">
        <ele>514.217</ele>
        <time>2021-10-12T13:21:18Z</time>
      </trkpt>
      <trkpt lat="38.426780" lon="-6.418888">
        <ele>514.637</ele>
        <time>2021-10-12T13:21:19Z</time>
      </trkpt>
      <trkpt lat="38.426734" lon="-6.418845">
        <ele>514.958</ele>
        <time>2021-10-12T13:21:20Z</time>
      </trkpt>
      <trkpt lat="38.426642" lon="-6.418762">
        <ele>515.564</ele>
        <time>2021-10-12T13:21:22Z</time>
      </trkpt>
      <trkpt lat="38.426570" lon="-6.418692">
        <ele>516.106</ele>
        <time>2021-10-12T13:21:24Z</time>
      </trkpt>
      <trkpt lat="38.426561" lon="-6.418635">
        <ele>516.316</ele>
        <time>2021-10-12T13:21:26Z</time>
      </trkpt>
      <trkpt lat="38.426529" lon="-6.418593">
        <ele>516.508</ele>
        <time>2021-10-12T13:21:27Z</time>
      </trkpt>
      <trkpt lat="38.426481" lon="-6.418527">
        <ele>516.714</ele>
        <time>2021-10-12T13:21:30Z</time>
      </trkpt>
      <trkpt lat="38.426445" lon="-6.418482">
        <ele>516.842</ele>
        <time>2021-10-12T13:21:34Z</time>
      </trkpt>
      <trkpt lat="38.426493" lon="-6.418451">
        <ele>516.618</ele>
        <time>2021-10-12T13:27:30Z</time>
      </trkpt>
      <trkpt lat="38.426485" lon="-6.418392">
        <ele>516.771</ele>
        <time>2021-10-12T13:27:42Z</time>
      </trkpt>
      <trkpt lat="38.426473" lon="-6.418283">
        <ele>516.447</ele>
        <time>2021-10-12T13:27:44Z</time>
      </trkpt>
      <trkpt lat="38.426462" lon="-6.418196">
        <ele>516.046</ele>
        <time>2021-10-12T13:27:46Z</time>
      </trkpt>
      <trkpt lat="38.426458" lon="-6.418132">
        <ele>515.776</ele>
        <time>2021-10-12T13:27:48Z</time>
      </trkpt>
      <trkpt lat="38.426463" lon="-6.418054">
        <ele>515.387</ele>
        <time>2021-10-12T13:27:50Z</time>
      </trkpt>
      <trkpt lat="38.426484" lon="-6.417962">
        <ele>515.227</ele>
        <time>2021-10-12T13:27:52Z</time>
      </trkpt>
      <trkpt lat="38.426505" lon="-6.417878">
        <ele>515.268</ele>
        <time>2021-10-12T13:27:54Z</time>
      </trkpt>
      <trkpt lat="38.426526" lon="-6.417825">
        <ele>515.114</ele>
        <time>2021-10-12T13:27:55Z</time>
      </trkpt>
      <trkpt lat="38.426557" lon="-6.417739">
        <ele>515.108</ele>
        <time>2021-10-12T13:27:57Z</time>
      </trkpt>
      <trkpt lat="38.426580" lon="-6.417672">
        <ele>515.390</ele>
        <time>2021-10-12T13:27:59Z</time>
      </trkpt>
      <trkpt lat="38.426617" lon="-6.417623">
        <ele>515.558</ele>
        <time>2021-10-12T13:28:01Z</time>
      </trkpt>
      <trkpt lat="38.426661" lon="-6.417562">
        <ele>515.824</ele>
        <time>2021-10-12T13:28:03Z</time>
      </trkpt>
      <trkpt lat="38.426689" lon="-6.417503">
        <ele>516.057</ele>
        <time>2021-10-12T13:28:05Z</time>
      </trkpt>
      <trkpt lat="38.426701" lon="-6.417447">
        <ele>516.433</ele>
        <time>2021-10-12T13:28:08Z</time>
      </trkpt>
      <trkpt lat="38.426707" lon="-6.417389">
        <ele>516.962</ele>
        <time>2021-10-12T13:28:15Z</time>
      </trkpt>
      <trkpt lat="38.426677" lon="-6.417309">
        <ele>517.432</ele>
        <time>2021-10-12T13:29:06Z</time>
      </trkpt>
      <trkpt lat="38.426576" lon="-6.417246">
        <ele>517.563</ele>
        <time>2021-10-12T13:29:08Z</time>
      </trkpt>
      <trkpt lat="38.426501" lon="-6.417177">
        <ele>517.945</ele>
        <time>2021-10-12T13:29:10Z</time>
      </trkpt>
      <trkpt lat="38.426462" lon="-6.417140">
        <ele>518.247</ele>
        <time>2021-10-12T13:29:11Z</time>
      </trkpt>
      <trkpt lat="38.426420" lon="-6.417102">
        <ele>518.411</ele>
        <time>2021-10-12T13:29:12Z</time>
      </trkpt>
      <trkpt lat="38.426321" lon="-6.417025">
        <ele>518.708</ele>
        <time>2021-10-12T13:29:14Z</time>
      </trkpt>
      <trkpt lat="38.426229" lon="-6.416970">
        <ele>518.662</ele>
        <time>2021-10-12T13:29:16Z</time>
      </trkpt>
      <trkpt lat="38.426160" lon="-6.416927">
        <ele>518.450</ele>
        <time>2021-10-12T13:29:18Z</time>
      </trkpt>
      <trkpt lat="38.426100" lon="-6.416887">
        <ele>518.166</ele>
        <time>2021-10-12T13:29:20Z</time>
      </trkpt>
      <trkpt lat="38.426021" lon="-6.416846">
        <ele>517.779</ele>
        <time>2021-10-12T13:29:22Z</time>
      </trkpt>
      <trkpt lat="38.425969" lon="-6.416816">
        <ele>517.425</ele>
        <time>2021-10-12T13:29:23Z</time>
      </trkpt>
      <trkpt lat="38.425849" lon="-6.416755">
        <ele>516.844</ele>
        <time>2021-10-12T13:29:25Z</time>
      </trkpt>
      <trkpt lat="38.425784" lon="-6.416727">
        <ele>516.624</ele>
        <time>2021-10-12T13:29:26Z</time>
      </trkpt>
      <trkpt lat="38.425683" lon="-6.416688">
        <ele>516.475</ele>
        <time>2021-10-12T13:29:28Z</time>
      </trkpt>
      <trkpt lat="38.425592" lon="-6.416658">
        <ele>516.254</ele>
        <time>2021-10-12T13:29:30Z</time>
      </trkpt>
      <trkpt lat="38.425547" lon="-6.416642">
        <ele>516.156</ele>
        <time>2021-10-12T13:29:31Z</time>
      </trkpt>
      <trkpt lat="38.425467" lon="-6.416609">
        <ele>516.111</ele>
        <time>2021-10-12T13:29:33Z</time>
      </trkpt>
      <trkpt lat="38.425415" lon="-6.416588">
        <ele>516.108</ele>
        <time>2021-10-12T13:29:34Z</time>
      </trkpt>
      <trkpt lat="38.425308" lon="-6.416548">
        <ele>516.033</ele>
        <time>2021-10-12T13:29:36Z</time>
      </trkpt>
      <trkpt lat="38.425198" lon="-6.416514">
        <ele>516.161</ele>
        <time>2021-10-12T13:29:38Z</time>
      </trkpt>
      <trkpt lat="38.425090" lon="-6.416470">
        <ele>516.157</ele>
        <time>2021-10-12T13:29:40Z</time>
      </trkpt>
      <trkpt lat="38.425034" lon="-6.416445">
        <ele>516.150</ele>
        <time>2021-10-12T13:29:41Z</time>
      </trkpt>
      <trkpt lat="38.424916" lon="-6.416402">
        <ele>516.046</ele>
        <time>2021-10-12T13:29:43Z</time>
      </trkpt>
      <trkpt lat="38.424844" lon="-6.416375">
        <ele>516.085</ele>
        <time>2021-10-12T13:29:44Z</time>
      </trkpt>
      <trkpt lat="38.424714" lon="-6.416324">
        <ele>516.095</ele>
        <time>2021-10-12T13:29:46Z</time>
      </trkpt>
      <trkpt lat="38.424653" lon="-6.416302">
        <ele>515.886</ele>
        <time>2021-10-12T13:29:47Z</time>
      </trkpt>
      <trkpt lat="38.424596" lon="-6.416278">
        <ele>515.554</ele>
        <time>2021-10-12T13:29:48Z</time>
      </trkpt>
      <trkpt lat="38.424479" lon="-6.416232">
        <ele>515.156</ele>
        <time>2021-10-12T13:29:50Z</time>
      </trkpt>
      <trkpt lat="38.424352" lon="-6.416198">
        <ele>515.011</ele>
        <time>2021-10-12T13:29:52Z</time>
      </trkpt>
      <trkpt lat="38.424214" lon="-6.416177">
        <ele>515.008</ele>
        <time>2021-10-12T13:29:54Z</time>
      </trkpt>
      <trkpt lat="38.424149" lon="-6.416167">
        <ele>515.063</ele>
        <time>2021-10-12T13:29:55Z</time>
      </trkpt>
      <trkpt lat="38.424090" lon="-6.416163">
        <ele>515.081</ele>
        <time>2021-10-12T13:29:56Z</time>
      </trkpt>
      <trkpt lat="38.423991" lon="-6.416162">
        <ele>515.097</ele>
        <time>2021-10-12T13:29:58Z</time>
      </trkpt>
      <trkpt lat="38.423946" lon="-6.416163">
        <ele>515.040</ele>
        <time>2021-10-12T13:29:59Z</time>
      </trkpt>
      <trkpt lat="38.423889" lon="-6.416171">
        <ele>515.056</ele>
        <time>2021-10-12T13:30:01Z</time>
      </trkpt>
      <trkpt lat="38.423830" lon="-6.416187">
        <ele>514.695</ele>
        <time>2021-10-12T13:30:03Z</time>
      </trkpt>
      <trkpt lat="38.423749" lon="-6.416210">
        <ele>514.045</ele>
        <time>2021-10-12T13:30:05Z</time>
      </trkpt>
      <trkpt lat="38.423659" lon="-6.416243">
        <ele>513.386</ele>
        <time>2021-10-12T13:30:07Z</time>
      </trkpt>
      <trkpt lat="38.423603" lon="-6.416280">
        <ele>513.063</ele>
        <time>2021-10-12T13:30:08Z</time>
      </trkpt>
      <trkpt lat="38.423536" lon="-6.416384">
        <ele>512.744</ele>
        <time>2021-10-12T13:30:10Z</time>
      </trkpt>
      <trkpt lat="38.423527" lon="-6.416494">
        <ele>513.118</ele>
        <time>2021-10-12T13:30:12Z</time>
      </trkpt>
      <trkpt lat="38.423506" lon="-6.416566">
        <ele>513.308</ele>
        <time>2021-10-12T13:30:15Z</time>
      </trkpt>
      <trkpt lat="38.423485" lon="-6.416645">
        <ele>513.574</ele>
        <time>2021-10-12T13:30:18Z</time>
      </trkpt>
      <trkpt lat="38.423465" lon="-6.416702">
        <ele>513.552</ele>
        <time>2021-10-12T13:30:20Z</time>
      </trkpt>
      <trkpt lat="38.423448" lon="-6.416760">
        <ele>513.418</ele>
        <time>2021-10-12T13:30:22Z</time>
      </trkpt>
      <trkpt lat="38.423423" lon="-6.416829">
        <ele>513.321</ele>
        <time>2021-10-12T13:30:24Z</time>
      </trkpt>
      <trkpt lat="38.423400" lon="-6.416915">
        <ele>513.297</ele>
        <time>2021-10-12T13:30:26Z</time>
      </trkpt>
      <trkpt lat="38.423373" lon="-6.417029">
        <ele>512.856</ele>
        <time>2021-10-12T13:30:28Z</time>
      </trkpt>
      <trkpt lat="38.423350" lon="-6.417140">
        <ele>512.496</ele>
        <time>2021-10-12T13:30:30Z</time>
      </trkpt>
      <trkpt lat="38.423328" lon="-6.417235">
        <ele>512.047</ele>
        <time>2021-10-12T13:30:32Z</time>
      </trkpt>
      <trkpt lat="38.423305" lon="-6.417323">
        <ele>511.984</ele>
        <time>2021-10-12T13:30:34Z</time>
      </trkpt>
      <trkpt lat="38.423278" lon="-6.417420">
        <ele>511.807</ele>
        <time>2021-10-12T13:30:36Z</time>
      </trkpt>
      <trkpt lat="38.423255" lon="-6.417501">
        <ele>511.717</ele>
        <time>2021-10-12T13:30:38Z</time>
      </trkpt>
      <trkpt lat="38.423239" lon="-6.417571">
        <ele>511.608</ele>
        <time>2021-10-12T13:30:40Z</time>
      </trkpt>
      <trkpt lat="38.423229" lon="-6.417640">
        <ele>511.486</ele>
        <time>2021-10-12T13:30:42Z</time>
      </trkpt>
      <trkpt lat="38.423223" lon="-6.417709">
        <ele>511.364</ele>
        <time>2021-10-12T13:30:44Z</time>
      </trkpt>
      <trkpt lat="38.423199" lon="-6.417777">
        <ele>511.060</ele>
        <time>2021-10-12T13:30:46Z</time>
      </trkpt>
      <trkpt lat="38.423145" lon="-6.417824">
        <ele>510.653</ele>
        <time>2021-10-12T13:30:48Z</time>
      </trkpt>
      <trkpt lat="38.423059" lon="-6.417848">
        <ele>510.049</ele>
        <time>2021-10-12T13:30:50Z</time>
      </trkpt>
      <trkpt lat="38.422928" lon="-6.417827">
        <ele>509.938</ele>
        <time>2021-10-12T13:30:52Z</time>
      </trkpt>
      <trkpt lat="38.422846" lon="-6.417806">
        <ele>509.948</ele>
        <time>2021-10-12T13:30:53Z</time>
      </trkpt>
      <trkpt lat="38.422676" lon="-6.417764">
        <ele>510.469</ele>
        <time>2021-10-12T13:30:55Z</time>
      </trkpt>
      <trkpt lat="38.422593" lon="-6.417747">
        <ele>510.742</ele>
        <time>2021-10-12T13:30:56Z</time>
      </trkpt>
      <trkpt lat="38.422437" lon="-6.417713">
        <ele>510.922</ele>
        <time>2021-10-12T13:30:58Z</time>
      </trkpt>
      <trkpt lat="38.422368" lon="-6.417694">
        <ele>510.914</ele>
        <time>2021-10-12T13:30:59Z</time>
      </trkpt>
      <trkpt lat="38.422300" lon="-6.417637">
        <ele>510.608</ele>
        <time>2021-10-12T13:31:01Z</time>
      </trkpt>
      <trkpt lat="38.422283" lon="-6.417548">
        <ele>510.462</ele>
        <time>2021-10-12T13:31:03Z</time>
      </trkpt>
      <trkpt lat="38.422287" lon="-6.417477">
        <ele>510.210</ele>
        <time>2021-10-12T13:31:04Z</time>
      </trkpt>
      <trkpt lat="38.422309" lon="-6.417352">
        <ele>510.366</ele>
        <time>2021-10-12T13:31:06Z</time>
      </trkpt>
      <trkpt lat="38.422326" lon="-6.417291">
        <ele>510.499</ele>
        <time>2021-10-12T13:31:08Z</time>
      </trkpt>
      <trkpt lat="38.422370" lon="-6.417246">
        <ele>510.595</ele>
        <time>2021-10-12T13:31:11Z</time>
      </trkpt>
      <trkpt lat="38.422386" lon="-6.417162">
        <ele>510.694</ele>
        <time>2021-10-12T13:36:13Z</time>
      </trkpt>
      <trkpt lat="38.422403" lon="-6.417084">
        <ele>510.784</ele>
        <time>2021-10-12T13:36:15Z</time>
      </trkpt>
      <trkpt lat="38.422434" lon="-6.416976">
        <ele>510.885</ele>
        <time>2021-10-12T13:36:17Z</time>
      </trkpt>
      <trkpt lat="38.422449" lon="-6.416907">
        <ele>510.718</ele>
        <time>2021-10-12T13:36:18Z</time>
      </trkpt>
      <trkpt lat="38.422470" lon="-6.416822">
        <ele>510.598</ele>
        <time>2021-10-12T13:36:20Z</time>
      </trkpt>
      <trkpt lat="38.422488" lon="-6.416748">
        <ele>510.317</ele>
        <time>2021-10-12T13:36:23Z</time>
      </trkpt>
      <trkpt lat="38.422503" lon="-6.416681">
        <ele>510.108</ele>
        <time>2021-10-12T13:36:26Z</time>
      </trkpt>
      <trkpt lat="38.422524" lon="-6.416610">
        <ele>510.139</ele>
        <time>2021-10-12T13:36:29Z</time>
      </trkpt>
      <trkpt lat="38.422550" lon="-6.416549">
        <ele>510.287</ele>
        <time>2021-10-12T13:36:31Z</time>
      </trkpt>
      <trkpt lat="38.422583" lon="-6.416503">
        <ele>510.383</ele>
        <time>2021-10-12T13:36:33Z</time>
      </trkpt>
      <trkpt lat="38.422647" lon="-6.416462">
        <ele>510.556</ele>
        <time>2021-10-12T13:36:44Z</time>
      </trkpt>
      <trkpt lat="38.422771" lon="-6.416458">
        <ele>511.072</ele>
        <time>2021-10-12T13:36:46Z</time>
      </trkpt>
      <trkpt lat="38.422843" lon="-6.416480">
        <ele>511.271</ele>
        <time>2021-10-12T13:36:47Z</time>
      </trkpt>
      <trkpt lat="38.422966" lon="-6.416525">
        <ele>511.751</ele>
        <time>2021-10-12T13:36:49Z</time>
      </trkpt>
      <trkpt lat="38.423030" lon="-6.416544">
        <ele>511.982</ele>
        <time>2021-10-12T13:36:50Z</time>
      </trkpt>
      <trkpt lat="38.423171" lon="-6.416565">
        <ele>512.349</ele>
        <time>2021-10-12T13:36:52Z</time>
      </trkpt>
      <trkpt lat="38.423319" lon="-6.416508">
        <ele>512.402</ele>
        <time>2021-10-12T13:36:54Z</time>
      </trkpt>
      <trkpt lat="38.423385" lon="-6.416457">
        <ele>512.422</ele>
        <time>2021-10-12T13:36:55Z</time>
      </trkpt>
      <trkpt lat="38.423442" lon="-6.416401">
        <ele>512.408</ele>
        <time>2021-10-12T13:36:56Z</time>
      </trkpt>
      <trkpt lat="38.423528" lon="-6.416279">
        <ele>512.692</ele>
        <time>2021-10-12T13:36:58Z</time>
      </trkpt>
      <trkpt lat="38.423554" lon="-6.416227">
        <ele>512.720</ele>
        <time>2021-10-12T13:36:59Z</time>
      </trkpt>
      <trkpt lat="38.423583" lon="-6.416145">
        <ele>512.826</ele>
        <time>2021-10-12T13:37:01Z</time>
      </trkpt>
      <trkpt lat="38.423607" lon="-6.416080">
        <ele>513.039</ele>
        <time>2021-10-12T13:37:02Z</time>
      </trkpt>
      <trkpt lat="38.423655" lon="-6.415920">
        <ele>513.325</ele>
        <time>2021-10-12T13:37:04Z</time>
      </trkpt>
      <trkpt lat="38.423676" lon="-6.415834">
        <ele>513.574</ele>
        <time>2021-10-12T13:37:05Z</time>
      </trkpt>
      <trkpt lat="38.423720" lon="-6.415662">
        <ele>514.024</ele>
        <time>2021-10-12T13:37:07Z</time>
      </trkpt>
      <trkpt lat="38.423741" lon="-6.415589">
        <ele>514.375</ele>
        <time>2021-10-12T13:37:08Z</time>
      </trkpt>
      <trkpt lat="38.423773" lon="-6.415473">
        <ele>515.215</ele>
        <time>2021-10-12T13:37:10Z</time>
      </trkpt>
      <trkpt lat="38.423790" lon="-6.415406">
        <ele>515.765</ele>
        <time>2021-10-12T13:37:11Z</time>
      </trkpt>
      <trkpt lat="38.423826" lon="-6.415257">
        <ele>516.611</ele>
        <time>2021-10-12T13:37:13Z</time>
      </trkpt>
      <trkpt lat="38.423848" lon="-6.415179">
        <ele>517.008</ele>
        <time>2021-10-12T13:37:14Z</time>
      </trkpt>
      <trkpt lat="38.423891" lon="-6.415035">
        <ele>517.979</ele>
        <time>2021-10-12T13:37:16Z</time>
      </trkpt>
      <trkpt lat="38.423935" lon="-6.414897">
        <ele>517.677</ele>
        <time>2021-10-12T13:37:18Z</time>
      </trkpt>
      <trkpt lat="38.423960" lon="-6.414790">
        <ele>517.233</ele>
        <time>2021-10-12T13:37:20Z</time>
      </trkpt>
      <trkpt lat="38.423976" lon="-6.414699">
        <ele>516.926</ele>
        <time>2021-10-12T13:37:22Z</time>
      </trkpt>
      <trkpt lat="38.423993" lon="-6.414574">
        <ele>516.752</ele>
        <time>2021-10-12T13:37:24Z</time>
      </trkpt>
      <trkpt lat="38.424041" lon="-6.414413">
        <ele>516.671</ele>
        <time>2021-10-12T13:37:26Z</time>
      </trkpt>
      <trkpt lat="38.424105" lon="-6.414250">
        <ele>516.951</ele>
        <time>2021-10-12T13:37:28Z</time>
      </trkpt>
      <trkpt lat="38.424136" lon="-6.414159">
        <ele>517.062</ele>
        <time>2021-10-12T13:37:29Z</time>
      </trkpt>
      <trkpt lat="38.424166" lon="-6.414067">
        <ele>517.475</ele>
        <time>2021-10-12T13:37:30Z</time>
      </trkpt>
      <trkpt lat="38.424201" lon="-6.413899">
        <ele>518.128</ele>
        <time>2021-10-12T13:37:32Z</time>
      </trkpt>
      <trkpt lat="38.424246" lon="-6.413745">
        <ele>518.820</ele>
        <time>2021-10-12T13:37:34Z</time>
      </trkpt>
      <trkpt lat="38.424301" lon="-6.413545">
        <ele>519.608</ele>
        <time>2021-10-12T13:37:36Z</time>
      </trkpt>
      <trkpt lat="38.424330" lon="-6.413442">
        <ele>519.885</ele>
        <time>2021-10-12T13:37:37Z</time>
      </trkpt>
      <trkpt lat="38.424355" lon="-6.413341">
        <ele>520.053</ele>
        <time>2021-10-12T13:37:38Z</time>
      </trkpt>
      <trkpt lat="38.424402" lon="-6.413178">
        <ele>520.169</ele>
        <time>2021-10-12T13:37:40Z</time>
      </trkpt>
      <trkpt lat="38.424431" lon="-6.413093">
        <ele>520.042</ele>
        <time>2021-10-12T13:37:41Z</time>
      </trkpt>
      <trkpt lat="38.424487" lon="-6.412894">
        <ele>520.688</ele>
        <time>2021-10-12T13:37:43Z</time>
      </trkpt>
      <trkpt lat="38.424516" lon="-6.412777">
        <ele>521.027</ele>
        <time>2021-10-12T13:37:44Z</time>
      </trkpt>
      <trkpt lat="38.424575" lon="-6.412556">
        <ele>521.087</ele>
        <time>2021-10-12T13:37:46Z</time>
      </trkpt>
      <trkpt lat="38.424602" lon="-6.412456">
        <ele>520.818</ele>
        <time>2021-10-12T13:37:47Z</time>
      </trkpt>
      <trkpt lat="38.424635" lon="-6.412303">
        <ele>520.372</ele>
        <time>2021-10-12T13:37:49Z</time>
      </trkpt>
      <trkpt lat="38.424634" lon="-6.412245">
        <ele>520.113</ele>
        <time>2021-10-12T13:37:50Z</time>
      </trkpt>
      <trkpt lat="38.424612" lon="-6.412170">
        <ele>519.914</ele>
        <time>2021-10-12T13:37:52Z</time>
      </trkpt>
      <trkpt lat="38.424537" lon="-6.412090">
        <ele>519.808</ele>
        <time>2021-10-12T13:37:54Z</time>
      </trkpt>
      <trkpt lat="38.424472" lon="-6.412081">
        <ele>520.095</ele>
        <time>2021-10-12T13:37:55Z</time>
      </trkpt>
      <trkpt lat="38.424400" lon="-6.412086">
        <ele>520.243</ele>
        <time>2021-10-12T13:37:56Z</time>
      </trkpt>
      <trkpt lat="38.424255" lon="-6.412115">
        <ele>520.789</ele>
        <time>2021-10-12T13:37:58Z</time>
      </trkpt>
      <trkpt lat="38.424169" lon="-6.412127">
        <ele>521.022</ele>
        <time>2021-10-12T13:37:59Z</time>
      </trkpt>
      <trkpt lat="38.424011" lon="-6.412122">
        <ele>521.048</ele>
        <time>2021-10-12T13:38:01Z</time>
      </trkpt>
      <trkpt lat="38.423948" lon="-6.412100">
        <ele>521.077</ele>
        <time>2021-10-12T13:38:02Z</time>
      </trkpt>
      <trkpt lat="38.423852" lon="-6.411992">
        <ele>520.537</ele>
        <time>2021-10-12T13:38:04Z</time>
      </trkpt>
      <trkpt lat="38.423831" lon="-6.411903">
        <ele>520.188</ele>
        <time>2021-10-12T13:38:05Z</time>
      </trkpt>
      <trkpt lat="38.423835" lon="-6.411802">
        <ele>520.083</ele>
        <time>2021-10-12T13:38:06Z</time>
      </trkpt>
      <trkpt lat="38.423934" lon="-6.411643">
        <ele>520.325</ele>
        <time>2021-10-12T13:38:08Z</time>
      </trkpt>
      <trkpt lat="38.424109" lon="-6.411629">
        <ele>521.017</ele>
        <time>2021-10-12T13:38:10Z</time>
      </trkpt>
      <trkpt lat="38.424266" lon="-6.411744">
        <ele>520.608</ele>
        <time>2021-10-12T13:38:12Z</time>
      </trkpt>
      <trkpt lat="38.424330" lon="-6.411822">
        <ele>520.456</ele>
        <time>2021-10-12T13:38:13Z</time>
      </trkpt>
      <trkpt lat="38.424403" lon="-6.411884">
        <ele>520.174</ele>
        <time>2021-10-12T13:38:14Z</time>
      </trkpt>
      <trkpt lat="38.424575" lon="-6.411921">
        <ele>519.680</ele>
        <time>2021-10-12T13:38:16Z</time>
      </trkpt>
      <trkpt lat="38.424779" lon="-6.411898">
        <ele>519.433</ele>
        <time>2021-10-12T13:38:18Z</time>
      </trkpt>
      <trkpt lat="38.424890" lon="-6.411887">
        <ele>519.959</ele>
        <time>2021-10-12T13:38:19Z</time>
      </trkpt>
      <trkpt lat="38.425003" lon="-6.411877">
        <ele>520.558</ele>
        <time>2021-10-12T13:38:20Z</time>
      </trkpt>
      <trkpt lat="38.425208" lon="-6.411864">
        <ele>521.598</ele>
        <time>2021-10-12T13:38:22Z</time>
      </trkpt>
      <trkpt lat="38.425429" lon="-6.411854">
        <ele>522.359</ele>
        <time>2021-10-12T13:38:24Z</time>
      </trkpt>
      <trkpt lat="38.425673" lon="-6.411827">
        <ele>523.398</ele>
        <time>2021-10-12T13:38:26Z</time>
      </trkpt>
      <trkpt lat="38.425936" lon="-6.411803">
        <ele>524.015</ele>
        <time>2021-10-12T13:38:28Z</time>
      </trkpt>
      <trkpt lat="38.426232" lon="-6.411774">
        <ele>524.226</ele>
        <time>2021-10-12T13:38:30Z</time>
      </trkpt>
      <trkpt lat="38.426561" lon="-6.411744">
        <ele>524.008</ele>
        <time>2021-10-12T13:38:32Z</time>
      </trkpt>
      <trkpt lat="38.426894" lon="-6.411715">
        <ele>523.837</ele>
        <time>2021-10-12T13:38:34Z</time>
      </trkpt>
      <trkpt lat="38.427059" lon="-6.411709">
        <ele>523.565</ele>
        <time>2021-10-12T13:38:35Z</time>
      </trkpt>
      <trkpt lat="38.427378" lon="-6.411739">
        <ele>523.471</ele>
        <time>2021-10-12T13:38:37Z</time>
      </trkpt>
      <trkpt lat="38.427535" lon="-6.411776">
        <ele>523.764</ele>
        <time>2021-10-12T13:38:38Z</time>
      </trkpt>
      <trkpt lat="38.427846" lon="-6.411890">
        <ele>523.610</ele>
        <time>2021-10-12T13:38:40Z</time>
      </trkpt>
      <trkpt lat="38.428005" lon="-6.411969">
        <ele>523.739</ele>
        <time>2021-10-12T13:38:41Z</time>
      </trkpt>
      <trkpt lat="38.428161" lon="-6.412055">
        <ele>523.819</ele>
        <time>2021-10-12T13:38:42Z</time>
      </trkpt>
      <trkpt lat="38.428312" lon="-6.412154">
        <ele>523.940</ele>
        <time>2021-10-12T13:38:43Z</time>
      </trkpt>
      <trkpt lat="38.428460" lon="-6.412263">
        <ele>524.133</ele>
        <time>2021-10-12T13:38:44Z</time>
      </trkpt>
      <trkpt lat="38.428704" lon="-6.412462">
        <ele>524.623</ele>
        <time>2021-10-12T13:38:46Z</time>
      </trkpt>
      <trkpt lat="38.428809" lon="-6.412552">
        <ele>524.315</ele>
        <time>2021-10-12T13:38:47Z</time>
      </trkpt>
      <trkpt lat="38.428983" lon="-6.412695">
        <ele>524.008</ele>
        <time>2021-10-12T13:38:49Z</time>
      </trkpt>
      <trkpt lat="38.429057" lon="-6.412749">
        <ele>524.091</ele>
        <time>2021-10-12T13:38:50Z</time>
      </trkpt>
      <trkpt lat="38.429179" lon="-6.412798">
        <ele>523.999</ele>
        <time>2021-10-12T13:38:52Z</time>
      </trkpt>
      <trkpt lat="38.429300" lon="-6.412756">
        <ele>524.045</ele>
        <time>2021-10-12T13:38:54Z</time>
      </trkpt>
      <trkpt lat="38.429354" lon="-6.412700">
        <ele>524.098</ele>
        <time>2021-10-12T13:38:55Z</time>
      </trkpt>
      <trkpt lat="38.429396" lon="-6.412632">
        <ele>524.044</ele>
        <time>2021-10-12T13:38:56Z</time>
      </trkpt>
      <trkpt lat="38.429474" lon="-6.412434">
        <ele>524.533</ele>
        <time>2021-10-12T13:38:58Z</time>
      </trkpt>
      <trkpt lat="38.429581" lon="-6.412151">
        <ele>526.393</ele>
        <time>2021-10-12T13:39:00Z</time>
      </trkpt>
      <trkpt lat="38.429698" lon="-6.411872">
        <ele>526.434</ele>
        <time>2021-10-12T13:39:02Z</time>
      </trkpt>
      <trkpt lat="38.429796" lon="-6.411631">
        <ele>527.028</ele>
        <time>2021-10-12T13:39:04Z</time>
      </trkpt>
      <trkpt lat="38.429893" lon="-6.411414">
        <ele>527.089</ele>
        <time>2021-10-12T13:39:06Z</time>
      </trkpt>
      <trkpt lat="38.429937" lon="-6.411302">
        <ele>526.917</ele>
        <time>2021-10-12T13:39:07Z</time>
      </trkpt>
      <trkpt lat="38.429987" lon="-6.411186">
        <ele>527.008</ele>
        <time>2021-10-12T13:39:08Z</time>
      </trkpt>
      <trkpt lat="38.430086" lon="-6.410953">
        <ele>527.270</ele>
        <time>2021-10-12T13:39:10Z</time>
      </trkpt>
      <trkpt lat="38.430144" lon="-6.410823">
        <ele>527.178</ele>
        <time>2021-10-12T13:39:11Z</time>
      </trkpt>
      <trkpt lat="38.430270" lon="-6.410547">
        <ele>528.054</ele>
        <time>2021-10-12T13:39:13Z</time>
      </trkpt>
      <trkpt lat="38.430330" lon="-6.410395">
        <ele>527.817</ele>
        <time>2021-10-12T13:39:14Z</time>
      </trkpt>
      <trkpt lat="38.430447" lon="-6.410100">
        <ele>528.093</ele>
        <time>2021-10-12T13:39:16Z</time>
      </trkpt>
      <trkpt lat="38.430512" lon="-6.409955">
        <ele>528.532</ele>
        <time>2021-10-12T13:39:17Z</time>
      </trkpt>
      <trkpt lat="38.430577" lon="-6.409812">
        <ele>529.332</ele>
        <time>2021-10-12T13:39:18Z</time>
      </trkpt>
      <trkpt lat="38.430643" lon="-6.409664">
        <ele>530.293</ele>
        <time>2021-10-12T13:39:19Z</time>
      </trkpt>
      <trkpt lat="38.430712" lon="-6.409509">
        <ele>531.356</ele>
        <time>2021-10-12T13:39:20Z</time>
      </trkpt>
      <trkpt lat="38.430846" lon="-6.409195">
        <ele>531.959</ele>
        <time>2021-10-12T13:39:22Z</time>
      </trkpt>
      <trkpt lat="38.430920" lon="-6.409025">
        <ele>532.514</ele>
        <time>2021-10-12T13:39:23Z</time>
      </trkpt>
      <trkpt lat="38.430991" lon="-6.408851">
        <ele>533.108</ele>
        <time>2021-10-12T13:39:24Z</time>
      </trkpt>
      <trkpt lat="38.431108" lon="-6.408489">
        <ele>534.043</ele>
        <time>2021-10-12T13:39:26Z</time>
      </trkpt>
      <trkpt lat="38.431160" lon="-6.408120">
        <ele>534.071</ele>
        <time>2021-10-12T13:39:28Z</time>
      </trkpt>
      <trkpt lat="38.431164" lon="-6.407922">
        <ele>534.057</ele>
        <time>2021-10-12T13:39:29Z</time>
      </trkpt>
      <trkpt lat="38.431120" lon="-6.407520">
        <ele>533.170</ele>
        <time>2021-10-12T13:39:31Z</time>
      </trkpt>
      <trkpt lat="38.431079" lon="-6.407315">
        <ele>532.476</ele>
        <time>2021-10-12T13:39:32Z</time>
      </trkpt>
      <trkpt lat="38.430995" lon="-6.406940">
        <ele>532.425</ele>
        <time>2021-10-12T13:39:34Z</time>
      </trkpt>
      <trkpt lat="38.430905" lon="-6.406569">
        <ele>533.385</ele>
        <time>2021-10-12T13:39:36Z</time>
      </trkpt>
      <trkpt lat="38.430769" lon="-6.406224">
        <ele>535.376</ele>
        <time>2021-10-12T13:39:38Z</time>
      </trkpt>
      <trkpt lat="38.430601" lon="-6.405933">
        <ele>537.296</ele>
        <time>2021-10-12T13:39:40Z</time>
      </trkpt>
      <trkpt lat="38.430457" lon="-6.405688">
        <ele>537.331</ele>
        <time>2021-10-12T13:39:42Z</time>
      </trkpt>
      <trkpt lat="38.430399" lon="-6.405586">
        <ele>537.024</ele>
        <time>2021-10-12T13:39:43Z</time>
      </trkpt>
      <trkpt lat="38.430345" lon="-6.405493">
        <ele>537.008</ele>
        <time>2021-10-12T13:39:44Z</time>
      </trkpt>
      <trkpt lat="38.430265" lon="-6.405349">
        <ele>537.087</ele>
        <time>2021-10-12T13:39:46Z</time>
      </trkpt>
      <trkpt lat="38.430212" lon="-6.405244">
        <ele>537.045</ele>
        <time>2021-10-12T13:39:48Z</time>
      </trkpt>
      <trkpt lat="38.430176" lon="-6.405169">
        <ele>537.051</ele>
        <time>2021-10-12T13:39:50Z</time>
      </trkpt>
      <trkpt lat="38.430148" lon="-6.405110">
        <ele>537.034</ele>
        <time>2021-10-12T13:39:52Z</time>
      </trkpt>
      <trkpt lat="38.430114" lon="-6.405063">
        <ele>537.070</ele>
        <time>2021-10-12T13:39:54Z</time>
      </trkpt>
      <trkpt lat="38.430062" lon="-6.404990">
        <ele>537.029</ele>
        <time>2021-10-12T13:40:24Z</time>
      </trkpt>
      <trkpt lat="38.430059" lon="-6.404882">
        <ele>537.599</ele>
        <time>2021-10-12T13:40:26Z</time>
      </trkpt>
      <trkpt lat="38.430144" lon="-6.404703">
        <ele>538.680</ele>
        <time>2021-10-12T13:40:28Z</time>
      </trkpt>
      <trkpt lat="38.430226" lon="-6.404593">
        <ele>539.299</ele>
        <time>2021-10-12T13:40:29Z</time>
      </trkpt>
      <trkpt lat="38.430324" lon="-6.404473">
        <ele>539.907</ele>
        <time>2021-10-12T13:40:30Z</time>
      </trkpt>
      <trkpt lat="38.430539" lon="-6.404186">
        <ele>539.927</ele>
        <time>2021-10-12T13:40:32Z</time>
      </trkpt>
      <trkpt lat="38.430756" lon="-6.403856">
        <ele>538.208</ele>
        <time>2021-10-12T13:40:34Z</time>
      </trkpt>
      <trkpt lat="38.430957" lon="-6.403484">
        <ele>538.927</ele>
        <time>2021-10-12T13:40:36Z</time>
      </trkpt>
      <trkpt lat="38.431050" lon="-6.403289">
        <ele>539.465</ele>
        <time>2021-10-12T13:40:37Z</time>
      </trkpt>
      <trkpt lat="38.431142" lon="-6.403088">
        <ele>539.781</ele>
        <time>2021-10-12T13:40:38Z</time>
      </trkpt>
      <trkpt lat="38.431306" lon="-6.402689">
        <ele>541.944</ele>
        <time>2021-10-12T13:40:40Z</time>
      </trkpt>
      <trkpt lat="38.431441" lon="-6.402287">
        <ele>544.090</ele>
        <time>2021-10-12T13:40:42Z</time>
      </trkpt>
      <trkpt lat="38.431495" lon="-6.402102">
        <ele>543.989</ele>
        <time>2021-10-12T13:40:43Z</time>
      </trkpt>
      <trkpt lat="38.431545" lon="-6.401923">
        <ele>543.529</ele>
        <time>2021-10-12T13:40:44Z</time>
      </trkpt>
      <trkpt lat="38.431629" lon="-6.401580">
        <ele>543.790</ele>
        <time>2021-10-12T13:40:46Z</time>
      </trkpt>
      <trkpt lat="38.431690" lon="-6.401226">
        <ele>544.778</ele>
        <time>2021-10-12T13:40:48Z</time>
      </trkpt>
      <trkpt lat="38.431709" lon="-6.401041">
        <ele>544.833</ele>
        <time>2021-10-12T13:40:49Z</time>
      </trkpt>
      <trkpt lat="38.431725" lon="-6.400848">
        <ele>544.326</ele>
        <time>2021-10-12T13:40:50Z</time>
      </trkpt>
      <trkpt lat="38.431754" lon="-6.400469">
        <ele>545.608</ele>
        <time>2021-10-12T13:40:52Z</time>
      </trkpt>
      <trkpt lat="38.431765" lon="-6.400277">
        <ele>547.035</ele>
        <time>2021-10-12T13:40:53Z</time>
      </trkpt>
      <trkpt lat="38.431771" lon="-6.400095">
        <ele>548.373</ele>
        <time>2021-10-12T13:40:54Z</time>
      </trkpt>
      <trkpt lat="38.431746" lon="-6.399780">
        <ele>550.419</ele>
        <time>2021-10-12T13:40:56Z</time>
      </trkpt>
      <trkpt lat="38.431694" lon="-6.399530">
        <ele>551.052</ele>
        <time>2021-10-12T13:40:58Z</time>
      </trkpt>
      <trkpt lat="38.431674" lon="-6.399425">
        <ele>551.198</ele>
        <time>2021-10-12T13:40:59Z</time>
      </trkpt>
      <trkpt lat="38.431654" lon="-6.399280">
        <ele>551.647</ele>
        <time>2021-10-12T13:41:01Z</time>
      </trkpt>
      <trkpt lat="38.431636" lon="-6.399195">
        <ele>551.847</ele>
        <time>2021-10-12T13:41:03Z</time>
      </trkpt>
      <trkpt lat="38.431622" lon="-6.399129">
        <ele>551.888</ele>
        <time>2021-10-12T13:41:05Z</time>
      </trkpt>
      <trkpt lat="38.431613" lon="-6.399042">
        <ele>551.826</ele>
        <time>2021-10-12T13:45:23Z</time>
      </trkpt>
      <trkpt lat="38.431600" lon="-6.398978">
        <ele>551.847</ele>
        <time>2021-10-12T13:45:26Z</time>
      </trkpt>
      <trkpt lat="38.431593" lon="-6.398883">
        <ele>551.711</ele>
        <time>2021-10-12T13:50:35Z</time>
      </trkpt>
      <trkpt lat="38.431603" lon="-6.398815">
        <ele>551.508</ele>
        <time>2021-10-12T13:50:36Z</time>
      </trkpt>
      <trkpt lat="38.431647" lon="-6.398693">
        <ele>551.260</ele>
        <time>2021-10-12T13:50:38Z</time>
      </trkpt>
      <trkpt lat="38.431692" lon="-6.398609">
        <ele>551.148</ele>
        <time>2021-10-12T13:50:40Z</time>
      </trkpt>
      <trkpt lat="38.431741" lon="-6.398536">
        <ele>551.134</ele>
        <time>2021-10-12T13:50:42Z</time>
      </trkpt>
      <trkpt lat="38.431771" lon="-6.398478">
        <ele>551.197</ele>
        <time>2021-10-12T13:50:43Z</time>
      </trkpt>
      <trkpt lat="38.431798" lon="-6.398396">
        <ele>551.143</ele>
        <time>2021-10-12T13:50:44Z</time>
      </trkpt>
      <trkpt lat="38.431832" lon="-6.398187">
        <ele>551.082</ele>
        <time>2021-10-12T13:50:46Z</time>
      </trkpt>
      <trkpt lat="38.431840" lon="-6.397924">
        <ele>550.892</ele>
        <time>2021-10-12T13:50:48Z</time>
      </trkpt>
      <trkpt lat="38.431851" lon="-6.397777">
        <ele>550.723</ele>
        <time>2021-10-12T13:50:49Z</time>
      </trkpt>
      <trkpt lat="38.431867" lon="-6.397624">
        <ele>551.461</ele>
        <time>2021-10-12T13:50:50Z</time>
      </trkpt>
      <trkpt lat="38.431889" lon="-6.397329">
        <ele>553.521</ele>
        <time>2021-10-12T13:50:52Z</time>
      </trkpt>
      <trkpt lat="38.431894" lon="-6.397170">
        <ele>554.913</ele>
        <time>2021-10-12T13:50:53Z</time>
      </trkpt>
      <trkpt lat="38.431898" lon="-6.396865">
        <ele>557.908</ele>
        <time>2021-10-12T13:50:55Z</time>
      </trkpt>
      <trkpt lat="38.431899" lon="-6.396725">
        <ele>558.824</ele>
        <time>2021-10-12T13:50:56Z</time>
      </trkpt>
      <trkpt lat="38.431899" lon="-6.396456">
        <ele>559.292</ele>
        <time>2021-10-12T13:50:58Z</time>
      </trkpt>
      <trkpt lat="38.431899" lon="-6.396318">
        <ele>559.258</ele>
        <time>2021-10-12T13:50:59Z</time>
      </trkpt>
      <trkpt lat="38.431901" lon="-6.396036">
        <ele>558.941</ele>
        <time>2021-10-12T13:51:01Z</time>
      </trkpt>
      <trkpt lat="38.431908" lon="-6.395876">
        <ele>558.347</ele>
        <time>2021-10-12T13:51:02Z</time>
      </trkpt>
      <trkpt lat="38.431922" lon="-6.395525">
        <ele>557.276</ele>
        <time>2021-10-12T13:51:04Z</time>
      </trkpt>
      <trkpt lat="38.431932" lon="-6.395313">
        <ele>557.086</ele>
        <time>2021-10-12T13:51:05Z</time>
      </trkpt>
      <trkpt lat="38.431945" lon="-6.395079">
        <ele>557.047</ele>
        <time>2021-10-12T13:51:06Z</time>
      </trkpt>
      <trkpt lat="38.431985" lon="-6.394584">
        <ele>557.666</ele>
        <time>2021-10-12T13:51:08Z</time>
      </trkpt>
      <trkpt lat="38.432061" lon="-6.394072">
        <ele>560.629</ele>
        <time>2021-10-12T13:51:10Z</time>
      </trkpt>
      <trkpt lat="38.432196" lon="-6.393528">
        <ele>565.621</ele>
        <time>2021-10-12T13:51:12Z</time>
      </trkpt>
      <trkpt lat="38.432380" lon="-6.392997">
        <ele>567.408</ele>
        <time>2021-10-12T13:51:14Z</time>
      </trkpt>
      <trkpt lat="38.432594" lon="-6.392502">
        <ele>571.384</ele>
        <time>2021-10-12T13:51:16Z</time>
      </trkpt>
      <trkpt lat="38.432726" lon="-6.392264">
        <ele>572.562</ele>
        <time>2021-10-12T13:51:17Z</time>
      </trkpt>
      <trkpt lat="38.432866" lon="-6.392035">
        <ele>572.688</ele>
        <time>2021-10-12T13:51:18Z</time>
      </trkpt>
      <trkpt lat="38.433009" lon="-6.391818">
        <ele>572.831</ele>
        <time>2021-10-12T13:51:19Z</time>
      </trkpt>
      <trkpt lat="38.433160" lon="-6.391601">
        <ele>573.517</ele>
        <time>2021-10-12T13:51:20Z</time>
      </trkpt>
      <trkpt lat="38.433443" lon="-6.391201">
        <ele>573.786</ele>
        <time>2021-10-12T13:51:22Z</time>
      </trkpt>
      <trkpt lat="38.433585" lon="-6.390997">
        <ele>573.986</ele>
        <time>2021-10-12T13:51:23Z</time>
      </trkpt>
      <trkpt lat="38.433848" lon="-6.390598">
        <ele>574.027</ele>
        <time>2021-10-12T13:51:25Z</time>
      </trkpt>
      <trkpt lat="38.433971" lon="-6.390397">
        <ele>575.196</ele>
        <time>2021-10-12T13:51:26Z</time>
      </trkpt>
      <trkpt lat="38.434136" lon="-6.390058">
        <ele>578.231</ele>
        <time>2021-10-12T13:51:28Z</time>
      </trkpt>
      <trkpt lat="38.434278" lon="-6.389698">
        <ele>581.524</ele>
        <time>2021-10-12T13:51:30Z</time>
      </trkpt>
      <trkpt lat="38.434437" lon="-6.389312">
        <ele>585.408</ele>
        <time>2021-10-12T13:51:32Z</time>
      </trkpt>
      <trkpt lat="38.434594" lon="-6.388901">
        <ele>586.577</ele>
        <time>2021-10-12T13:51:34Z</time>
      </trkpt>
      <trkpt lat="38.434676" lon="-6.388682">
        <ele>585.515</ele>
        <time>2021-10-12T13:51:35Z</time>
      </trkpt>
      <trkpt lat="38.434846" lon="-6.388232">
        <ele>584.491</ele>
        <time>2021-10-12T13:51:37Z</time>
      </trkpt>
      <trkpt lat="38.434940" lon="-6.387992">
        <ele>582.964</ele>
        <time>2021-10-12T13:51:38Z</time>
      </trkpt>
      <trkpt lat="38.435124" lon="-6.387524">
        <ele>578.730</ele>
        <time>2021-10-12T13:51:40Z</time>
      </trkpt>
      <trkpt lat="38.435314" lon="-6.387037">
        <ele>581.659</ele>
        <time>2021-10-12T13:51:42Z</time>
      </trkpt>
      <trkpt lat="38.435408" lon="-6.386786">
        <ele>583.269</ele>
        <time>2021-10-12T13:51:43Z</time>
      </trkpt>
      <trkpt lat="38.435505" lon="-6.386528">
        <ele>583.770</ele>
        <time>2021-10-12T13:51:44Z</time>
      </trkpt>
      <trkpt lat="38.435696" lon="-6.386040">
        <ele>584.948</ele>
        <time>2021-10-12T13:51:46Z</time>
      </trkpt>
      <trkpt lat="38.435794" lon="-6.385787">
        <ele>585.661</ele>
        <time>2021-10-12T13:51:47Z</time>
      </trkpt>
      <trkpt lat="38.435989" lon="-6.385281">
        <ele>586.617</ele>
        <time>2021-10-12T13:51:49Z</time>
      </trkpt>
      <trkpt lat="38.436088" lon="-6.385026">
        <ele>586.908</ele>
        <time>2021-10-12T13:51:50Z</time>
      </trkpt>
      <trkpt lat="38.436273" lon="-6.384550">
        <ele>588.182</ele>
        <time>2021-10-12T13:51:52Z</time>
      </trkpt>
      <trkpt lat="38.436466" lon="-6.384057">
        <ele>592.660</ele>
        <time>2021-10-12T13:51:54Z</time>
      </trkpt>
      <trkpt lat="38.436563" lon="-6.383805">
        <ele>594.566</ele>
        <time>2021-10-12T13:51:55Z</time>
      </trkpt>
      <trkpt lat="38.436659" lon="-6.383549">
        <ele>597.149</ele>
        <time>2021-10-12T13:51:56Z</time>
      </trkpt>
      <trkpt lat="38.436843" lon="-6.383053">
        <ele>600.355</ele>
        <time>2021-10-12T13:51:58Z</time>
      </trkpt>
      <trkpt lat="38.437007" lon="-6.382529">
        <ele>601.144</ele>
        <time>2021-10-12T13:52:00Z</time>
      </trkpt>
      <trkpt lat="38.437117" lon="-6.382000">
        <ele>603.034</ele>
        <time>2021-10-12T13:52:02Z</time>
      </trkpt>
      <trkpt lat="38.437167" lon="-6.381533">
        <ele>601.685</ele>
        <time>2021-10-12T13:52:04Z</time>
      </trkpt>
      <trkpt lat="38.437186" lon="-6.381288">
        <ele>600.299</ele>
        <time>2021-10-12T13:52:05Z</time>
      </trkpt>
      <trkpt lat="38.437205" lon="-6.381039">
        <ele>600.007</ele>
        <time>2021-10-12T13:52:06Z</time>
      </trkpt>
      <trkpt lat="38.437219" lon="-6.380783">
        <ele>599.827</ele>
        <time>2021-10-12T13:52:07Z</time>
      </trkpt>
      <trkpt lat="38.437231" lon="-6.380515">
        <ele>599.208</ele>
        <time>2021-10-12T13:52:08Z</time>
      </trkpt>
      <trkpt lat="38.437253" lon="-6.379987">
        <ele>597.667</ele>
        <time>2021-10-12T13:52:10Z</time>
      </trkpt>
      <trkpt lat="38.437278" lon="-6.379433">
        <ele>593.245</ele>
        <time>2021-10-12T13:52:12Z</time>
      </trkpt>
      <trkpt lat="38.437305" lon="-6.378882">
        <ele>591.881</ele>
        <time>2021-10-12T13:52:14Z</time>
      </trkpt>
      <trkpt lat="38.437330" lon="-6.378436">
        <ele>591.014</ele>
        <time>2021-10-12T13:52:16Z</time>
      </trkpt>
      <trkpt lat="38.437342" lon="-6.378250">
        <ele>589.040</ele>
        <time>2021-10-12T13:52:17Z</time>
      </trkpt>
      <trkpt lat="38.437361" lon="-6.377912">
        <ele>585.219</ele>
        <time>2021-10-12T13:52:19Z</time>
      </trkpt>
      <trkpt lat="38.437368" lon="-6.377743">
        <ele>584.349</ele>
        <time>2021-10-12T13:52:20Z</time>
      </trkpt>
      <trkpt lat="38.437384" lon="-6.377426">
        <ele>583.130</ele>
        <time>2021-10-12T13:52:22Z</time>
      </trkpt>
      <trkpt lat="38.437394" lon="-6.377267">
        <ele>582.811</ele>
        <time>2021-10-12T13:52:23Z</time>
      </trkpt>
      <trkpt lat="38.437417" lon="-6.376938">
        <ele>580.921</ele>
        <time>2021-10-12T13:52:25Z</time>
      </trkpt>
      <trkpt lat="38.437430" lon="-6.376753">
        <ele>579.603</ele>
        <time>2021-10-12T13:52:26Z</time>
      </trkpt>
      <trkpt lat="38.437487" lon="-6.376380">
        <ele>577.108</ele>
        <time>2021-10-12T13:52:28Z</time>
      </trkpt>
      <trkpt lat="38.437601" lon="-6.375977">
        <ele>575.639</ele>
        <time>2021-10-12T13:52:30Z</time>
      </trkpt>
      <trkpt lat="38.437771" lon="-6.375550">
        <ele>574.057</ele>
        <time>2021-10-12T13:52:32Z</time>
      </trkpt>
      <trkpt lat="38.438007" lon="-6.375156">
        <ele>572.643</ele>
        <time>2021-10-12T13:52:34Z</time>
      </trkpt>
      <trkpt lat="38.438291" lon="-6.374824">
        <ele>570.656</ele>
        <time>2021-10-12T13:52:36Z</time>
      </trkpt>
      <trkpt lat="38.438440" lon="-6.374686">
        <ele>570.262</ele>
        <time>2021-10-12T13:52:37Z</time>
      </trkpt>
      <trkpt lat="38.438596" lon="-6.374566">
        <ele>570.491</ele>
        <time>2021-10-12T13:52:38Z</time>
      </trkpt>
      <trkpt lat="38.438902" lon="-6.374394">
        <ele>571.131</ele>
        <time>2021-10-12T13:52:40Z</time>
      </trkpt>
      <trkpt lat="38.439227" lon="-6.374273">
        <ele>565.562</ele>
        <time>2021-10-12T13:52:42Z</time>
      </trkpt>
      <trkpt lat="38.439392" lon="-6.374230">
        <ele>563.538</ele>
        <time>2021-10-12T13:52:43Z</time>
      </trkpt>
      <trkpt lat="38.439561" lon="-6.374195">
        <ele>562.070</ele>
        <time>2021-10-12T13:52:44Z</time>
      </trkpt>
      <trkpt lat="38.439871" lon="-6.374131">
        <ele>561.317</ele>
        <time>2021-10-12T13:52:46Z</time>
      </trkpt>
      <trkpt lat="38.440023" lon="-6.374098">
        <ele>561.608</ele>
        <time>2021-10-12T13:52:47Z</time>
      </trkpt>
      <trkpt lat="38.440161" lon="-6.374067">
        <ele>562.011</ele>
        <time>2021-10-12T13:52:48Z</time>
      </trkpt>
      <trkpt lat="38.440433" lon="-6.374013">
        <ele>560.799</ele>
        <time>2021-10-12T13:52:50Z</time>
      </trkpt>
      <trkpt lat="38.440691" lon="-6.373994">
        <ele>558.195</ele>
        <time>2021-10-12T13:52:52Z</time>
      </trkpt>
      <trkpt lat="38.440828" lon="-6.373992">
        <ele>556.588</ele>
        <time>2021-10-12T13:52:53Z</time>
      </trkpt>
      <trkpt lat="38.440970" lon="-6.373991">
        <ele>555.664</ele>
        <time>2021-10-12T13:52:54Z</time>
      </trkpt>
      <trkpt lat="38.441261" lon="-6.373979">
        <ele>553.843</ele>
        <time>2021-10-12T13:52:56Z</time>
      </trkpt>
      <trkpt lat="38.441523" lon="-6.373955">
        <ele>552.543</ele>
        <time>2021-10-12T13:52:58Z</time>
      </trkpt>
      <trkpt lat="38.441654" lon="-6.373937">
        <ele>552.044</ele>
        <time>2021-10-12T13:52:59Z</time>
      </trkpt>
      <trkpt lat="38.441909" lon="-6.373879">
        <ele>550.395</ele>
        <time>2021-10-12T13:53:01Z</time>
      </trkpt>
      <trkpt lat="38.442032" lon="-6.373831">
        <ele>549.449</ele>
        <time>2021-10-12T13:53:02Z</time>
      </trkpt>
      <trkpt lat="38.442259" lon="-6.373716">
        <ele>548.423</ele>
        <time>2021-10-12T13:53:04Z</time>
      </trkpt>
      <trkpt lat="38.442380" lon="-6.373645">
        <ele>547.808</ele>
        <time>2021-10-12T13:53:05Z</time>
      </trkpt>
      <trkpt lat="38.442628" lon="-6.373464">
        <ele>546.117</ele>
        <time>2021-10-12T13:53:07Z</time>
      </trkpt>
      <trkpt lat="38.442758" lon="-6.373354">
        <ele>545.175</ele>
        <time>2021-10-12T13:53:08Z</time>
      </trkpt>
      <trkpt lat="38.442996" lon="-6.373103">
        <ele>544.211</ele>
        <time>2021-10-12T13:53:10Z</time>
      </trkpt>
      <trkpt lat="38.443236" lon="-6.372804">
        <ele>544.634</ele>
        <time>2021-10-12T13:53:12Z</time>
      </trkpt>
      <trkpt lat="38.443490" lon="-6.372481">
        <ele>541.880</ele>
        <time>2021-10-12T13:53:14Z</time>
      </trkpt>
      <trkpt lat="38.443758" lon="-6.372156">
        <ele>539.819</ele>
        <time>2021-10-12T13:53:16Z</time>
      </trkpt>
      <trkpt lat="38.444028" lon="-6.371812">
        <ele>541.089</ele>
        <time>2021-10-12T13:53:18Z</time>
      </trkpt>
      <trkpt lat="38.444302" lon="-6.371460">
        <ele>543.020</ele>
        <time>2021-10-12T13:53:20Z</time>
      </trkpt>
      <trkpt lat="38.444575" lon="-6.371121">
        <ele>542.585</ele>
        <time>2021-10-12T13:53:22Z</time>
      </trkpt>
      <trkpt lat="38.444853" lon="-6.370767">
        <ele>542.289</ele>
        <time>2021-10-12T13:53:24Z</time>
      </trkpt>
      <trkpt lat="38.445140" lon="-6.370400">
        <ele>539.917</ele>
        <time>2021-10-12T13:53:26Z</time>
      </trkpt>
      <trkpt lat="38.445429" lon="-6.370040">
        <ele>537.608</ele>
        <time>2021-10-12T13:53:28Z</time>
      </trkpt>
      <trkpt lat="38.445720" lon="-6.369675">
        <ele>534.896</ele>
        <time>2021-10-12T13:53:30Z</time>
      </trkpt>
      <trkpt lat="38.445862" lon="-6.369492">
        <ele>534.894</ele>
        <time>2021-10-12T13:53:31Z</time>
      </trkpt>
      <trkpt lat="38.446006" lon="-6.369309">
        <ele>534.210</ele>
        <time>2021-10-12T13:53:32Z</time>
      </trkpt>
      <trkpt lat="38.446270" lon="-6.368995">
        <ele>533.873</ele>
        <time>2021-10-12T13:53:34Z</time>
      </trkpt>
      <trkpt lat="38.446536" lon="-6.368723">
        <ele>533.319</ele>
        <time>2021-10-12T13:53:36Z</time>
      </trkpt>
      <trkpt lat="38.446813" lon="-6.368496">
        <ele>532.528</ele>
        <time>2021-10-12T13:53:38Z</time>
      </trkpt>
      <trkpt lat="38.447085" lon="-6.368317">
        <ele>531.528</ele>
        <time>2021-10-12T13:53:40Z</time>
      </trkpt>
      <trkpt lat="38.447224" lon="-6.368226">
        <ele>531.029</ele>
        <time>2021-10-12T13:53:41Z</time>
      </trkpt>
      <trkpt lat="38.447501" lon="-6.368047">
        <ele>531.043</ele>
        <time>2021-10-12T13:53:43Z</time>
      </trkpt>
      <trkpt lat="38.447642" lon="-6.367953">
        <ele>530.364</ele>
        <time>2021-10-12T13:53:44Z</time>
      </trkpt>
      <trkpt lat="38.447915" lon="-6.367774">
        <ele>530.010</ele>
        <time>2021-10-12T13:53:46Z</time>
      </trkpt>
      <trkpt lat="38.448202" lon="-6.367592">
        <ele>529.508</ele>
        <time>2021-10-12T13:53:48Z</time>
      </trkpt>
      <trkpt lat="38.448348" lon="-6.367499">
        <ele>529.052</ele>
        <time>2021-10-12T13:53:49Z</time>
      </trkpt>
      <trkpt lat="38.448490" lon="-6.367409">
        <ele>528.870</ele>
        <time>2021-10-12T13:53:50Z</time>
      </trkpt>
      <trkpt lat="38.448758" lon="-6.367238">
        <ele>528.966</ele>
        <time>2021-10-12T13:53:52Z</time>
      </trkpt>
      <trkpt lat="38.448899" lon="-6.367147">
        <ele>528.789</ele>
        <time>2021-10-12T13:53:53Z</time>
      </trkpt>
      <trkpt lat="38.449189" lon="-6.366960">
        <ele>528.115</ele>
        <time>2021-10-12T13:53:55Z</time>
      </trkpt>
      <trkpt lat="38.449344" lon="-6.366863">
        <ele>528.834</ele>
        <time>2021-10-12T13:53:56Z</time>
      </trkpt>
      <trkpt lat="38.449644" lon="-6.366677">
        <ele>532.134</ele>
        <time>2021-10-12T13:53:58Z</time>
      </trkpt>
      <trkpt lat="38.449797" lon="-6.366581">
        <ele>533.895</ele>
        <time>2021-10-12T13:53:59Z</time>
      </trkpt>
      <trkpt lat="38.450087" lon="-6.366383">
        <ele>535.317</ele>
        <time>2021-10-12T13:54:01Z</time>
      </trkpt>
      <trkpt lat="38.450234" lon="-6.366274">
        <ele>536.687</ele>
        <time>2021-10-12T13:54:02Z</time>
      </trkpt>
      <trkpt lat="38.450501" lon="-6.366039">
        <ele>538.715</ele>
        <time>2021-10-12T13:54:04Z</time>
      </trkpt>
      <trkpt lat="38.450764" lon="-6.365769">
        <ele>540.608</ele>
        <time>2021-10-12T13:54:06Z</time>
      </trkpt>
      <trkpt lat="38.450889" lon="-6.365620">
        <ele>541.659</ele>
        <time>2021-10-12T13:54:07Z</time>
      </trkpt>
      <trkpt lat="38.451009" lon="-6.365461">
        <ele>542.297</ele>
        <time>2021-10-12T13:54:08Z</time>
      </trkpt>
      <trkpt lat="38.451200" lon="-6.365177">
        <ele>543.523</ele>
        <time>2021-10-12T13:54:10Z</time>
      </trkpt>
      <trkpt lat="38.451370" lon="-6.364908">
        <ele>545.256</ele>
        <time>2021-10-12T13:54:12Z</time>
      </trkpt>
      <trkpt lat="38.451534" lon="-6.364651">
        <ele>545.952</ele>
        <time>2021-10-12T13:54:14Z</time>
      </trkpt>
      <trkpt lat="38.451691" lon="-6.364406">
        <ele>545.881</ele>
        <time>2021-10-12T13:54:16Z</time>
      </trkpt>
      <trkpt lat="38.451766" lon="-6.364291">
        <ele>545.521</ele>
        <time>2021-10-12T13:54:17Z</time>
      </trkpt>
      <trkpt lat="38.451893" lon="-6.364099">
        <ele>546.062</ele>
        <time>2021-10-12T13:54:19Z</time>
      </trkpt>
      <trkpt lat="38.451936" lon="-6.364031">
        <ele>546.428</ele>
        <time>2021-10-12T13:54:20Z</time>
      </trkpt>
      <trkpt lat="38.451968" lon="-6.363971">
        <ele>546.889</ele>
        <time>2021-10-12T13:54:32Z</time>
      </trkpt>
      <trkpt lat="38.452014" lon="-6.363895">
        <ele>547.517</ele>
        <time>2021-10-12T13:54:35Z</time>
      </trkpt>
      <trkpt lat="38.452049" lon="-6.363843">
        <ele>548.108</ele>
        <time>2021-10-12T13:54:36Z</time>
      </trkpt>
      <trkpt lat="38.452089" lon="-6.363777">
        <ele>549.110</ele>
        <time>2021-10-12T13:54:39Z</time>
      </trkpt>
      <trkpt lat="38.452122" lon="-6.363727">
        <ele>550.048</ele>
        <time>2021-10-12T13:54:41Z</time>
      </trkpt>
      <trkpt lat="38.452163" lon="-6.363683">
        <ele>551.124</ele>
        <time>2021-10-12T13:54:43Z</time>
      </trkpt>
      <trkpt lat="38.452213" lon="-6.363674">
        <ele>552.067</ele>
        <time>2021-10-12T13:54:46Z</time>
      </trkpt>
      <trkpt lat="38.452276" lon="-6.363685">
        <ele>552.793</ele>
        <time>2021-10-12T13:54:47Z</time>
      </trkpt>
      <trkpt lat="38.452359" lon="-6.363726">
        <ele>553.372</ele>
        <time>2021-10-12T13:54:48Z</time>
      </trkpt>
      <trkpt lat="38.452460" lon="-6.363790">
        <ele>553.822</ele>
        <time>2021-10-12T13:54:49Z</time>
      </trkpt>
      <trkpt lat="38.452573" lon="-6.363865">
        <ele>554.673</ele>
        <time>2021-10-12T13:54:50Z</time>
      </trkpt>
      <trkpt lat="38.452792" lon="-6.363991">
        <ele>556.842</ele>
        <time>2021-10-12T13:54:52Z</time>
      </trkpt>
      <trkpt lat="38.452913" lon="-6.364045">
        <ele>557.922</ele>
        <time>2021-10-12T13:54:53Z</time>
      </trkpt>
      <trkpt lat="38.453222" lon="-6.364154">
        <ele>559.514</ele>
        <time>2021-10-12T13:54:55Z</time>
      </trkpt>
      <trkpt lat="38.453411" lon="-6.364212">
        <ele>558.208</ele>
        <time>2021-10-12T13:54:56Z</time>
      </trkpt>
      <trkpt lat="38.453812" lon="-6.364290">
        <ele>557.492</ele>
        <time>2021-10-12T13:54:58Z</time>
      </trkpt>
      <trkpt lat="38.454269" lon="-6.364331">
        <ele>559.780</ele>
        <time>2021-10-12T13:55:00Z</time>
      </trkpt>
      <trkpt lat="38.454510" lon="-6.364342">
        <ele>560.336</ele>
        <time>2021-10-12T13:55:01Z</time>
      </trkpt>
      <trkpt lat="38.454761" lon="-6.364347">
        <ele>561.729</ele>
        <time>2021-10-12T13:55:02Z</time>
      </trkpt>
      <trkpt lat="38.455241" lon="-6.364359">
        <ele>557.285</ele>
        <time>2021-10-12T13:55:04Z</time>
      </trkpt>
      <trkpt lat="38.455472" lon="-6.364367">
        <ele>554.354</ele>
        <time>2021-10-12T13:55:05Z</time>
      </trkpt>
      <trkpt lat="38.455692" lon="-6.364376">
        <ele>551.464</ele>
        <time>2021-10-12T13:55:06Z</time>
      </trkpt>
      <trkpt lat="38.456120" lon="-6.364393">
        <ele>547.985</ele>
        <time>2021-10-12T13:55:08Z</time>
      </trkpt>
      <trkpt lat="38.456538" lon="-6.364414">
        <ele>547.377</ele>
        <time>2021-10-12T13:55:10Z</time>
      </trkpt>
      <trkpt lat="38.456758" lon="-6.364421">
        <ele>547.961</ele>
        <time>2021-10-12T13:55:11Z</time>
      </trkpt>
      <trkpt lat="38.457201" lon="-6.364437">
        <ele>547.227</ele>
        <time>2021-10-12T13:55:13Z</time>
      </trkpt>
      <trkpt lat="38.457433" lon="-6.364445">
        <ele>546.208</ele>
        <time>2021-10-12T13:55:14Z</time>
      </trkpt>
      <trkpt lat="38.457879" lon="-6.364460">
        <ele>547.415</ele>
        <time>2021-10-12T13:55:16Z</time>
      </trkpt>
      <trkpt lat="38.458109" lon="-6.364468">
        <ele>548.143</ele>
        <time>2021-10-12T13:55:17Z</time>
      </trkpt>
      <trkpt lat="38.458566" lon="-6.364484">
        <ele>546.789</ele>
        <time>2021-10-12T13:55:19Z</time>
      </trkpt>
      <trkpt lat="38.458801" lon="-6.364491">
        <ele>546.382</ele>
        <time>2021-10-12T13:55:20Z</time>
      </trkpt>
      <trkpt lat="38.459246" lon="-6.364503">
        <ele>547.738</ele>
        <time>2021-10-12T13:55:22Z</time>
      </trkpt>
      <trkpt lat="38.459700" lon="-6.364514">
        <ele>549.977</ele>
        <time>2021-10-12T13:55:24Z</time>
      </trkpt>
      <trkpt lat="38.460148" lon="-6.364527">
        <ele>547.917</ele>
        <time>2021-10-12T13:55:26Z</time>
      </trkpt>
      <trkpt lat="38.460564" lon="-6.364540">
        <ele>545.738</ele>
        <time>2021-10-12T13:55:28Z</time>
      </trkpt>
      <trkpt lat="38.460778" lon="-6.364547">
        <ele>545.665</ele>
        <time>2021-10-12T13:55:29Z</time>
      </trkpt>
      <trkpt lat="38.461200" lon="-6.364560">
        <ele>547.568</ele>
        <time>2021-10-12T13:55:31Z</time>
      </trkpt>
      <trkpt lat="38.461420" lon="-6.364568">
        <ele>548.614</ele>
        <time>2021-10-12T13:55:32Z</time>
      </trkpt>
      <trkpt lat="38.461841" lon="-6.364584">
        <ele>548.508</ele>
        <time>2021-10-12T13:55:34Z</time>
      </trkpt>
      <trkpt lat="38.462059" lon="-6.364590">
        <ele>548.364</ele>
        <time>2021-10-12T13:55:35Z</time>
      </trkpt>
      <trkpt lat="38.462274" lon="-6.364593">
        <ele>547.542</ele>
        <time>2021-10-12T13:55:36Z</time>
      </trkpt>
      <trkpt lat="38.462491" lon="-6.364598">
        <ele>545.648</ele>
        <time>2021-10-12T13:55:37Z</time>
      </trkpt>
      <trkpt lat="38.462713" lon="-6.364607">
        <ele>544.841</ele>
        <time>2021-10-12T13:55:38Z</time>
      </trkpt>
      <trkpt lat="38.463144" lon="-6.364627">
        <ele>544.887</ele>
        <time>2021-10-12T13:55:40Z</time>
      </trkpt>
      <trkpt lat="38.463368" lon="-6.364634">
        <ele>545.176</ele>
        <time>2021-10-12T13:55:41Z</time>
      </trkpt>
      <trkpt lat="38.463805" lon="-6.364648">
        <ele>547.646</ele>
        <time>2021-10-12T13:55:43Z</time>
      </trkpt>
      <trkpt lat="38.464025" lon="-6.364655">
        <ele>549.647</ele>
        <time>2021-10-12T13:55:44Z</time>
      </trkpt>
      <trkpt lat="38.464435" lon="-6.364665">
        <ele>551.275</ele>
        <time>2021-10-12T13:55:46Z</time>
      </trkpt>
      <trkpt lat="38.464848" lon="-6.364664">
        <ele>552.228</ele>
        <time>2021-10-12T13:55:48Z</time>
      </trkpt>
      <trkpt lat="38.465055" lon="-6.364661">
        <ele>551.220</ele>
        <time>2021-10-12T13:55:49Z</time>
      </trkpt>
      <trkpt lat="38.465269" lon="-6.364653">
        <ele>549.808</ele>
        <time>2021-10-12T13:55:50Z</time>
      </trkpt>
      <trkpt lat="38.465684" lon="-6.364622">
        <ele>549.945</ele>
        <time>2021-10-12T13:55:52Z</time>
      </trkpt>
      <trkpt lat="38.466107" lon="-6.364588">
        <ele>550.013</ele>
        <time>2021-10-12T13:55:54Z</time>
      </trkpt>
      <trkpt lat="38.466321" lon="-6.364567">
        <ele>549.259</ele>
        <time>2021-10-12T13:55:55Z</time>
      </trkpt>
      <trkpt lat="38.466534" lon="-6.364541">
        <ele>548.132</ele>
        <time>2021-10-12T13:55:56Z</time>
      </trkpt>
      <trkpt lat="38.466961" lon="-6.364475">
        <ele>547.068</ele>
        <time>2021-10-12T13:55:58Z</time>
      </trkpt>
      <trkpt lat="38.467410" lon="-6.364384">
        <ele>544.687</ele>
        <time>2021-10-12T13:56:00Z</time>
      </trkpt>
      <trkpt lat="38.467638" lon="-6.364330">
        <ele>543.597</ele>
        <time>2021-10-12T13:56:01Z</time>
      </trkpt>
      <trkpt lat="38.467871" lon="-6.364271">
        <ele>542.778</ele>
        <time>2021-10-12T13:56:02Z</time>
      </trkpt>
      <trkpt lat="38.468309" lon="-6.364148">
        <ele>541.151</ele>
        <time>2021-10-12T13:56:04Z</time>
      </trkpt>
      <trkpt lat="38.468528" lon="-6.364084">
        <ele>540.301</ele>
        <time>2021-10-12T13:56:05Z</time>
      </trkpt>
      <trkpt lat="38.468736" lon="-6.364025">
        <ele>540.011</ele>
        <time>2021-10-12T13:56:06Z</time>
      </trkpt>
      <trkpt lat="38.469142" lon="-6.363910">
        <ele>540.108</ele>
        <time>2021-10-12T13:56:08Z</time>
      </trkpt>
      <trkpt lat="38.469533" lon="-6.363790">
        <ele>538.823</ele>
        <time>2021-10-12T13:56:10Z</time>
      </trkpt>
      <trkpt lat="38.469731" lon="-6.363723">
        <ele>538.661</ele>
        <time>2021-10-12T13:56:11Z</time>
      </trkpt>
      <trkpt lat="38.470141" lon="-6.363605">
        <ele>539.597</ele>
        <time>2021-10-12T13:56:13Z</time>
      </trkpt>
      <trkpt lat="38.470357" lon="-6.363552">
        <ele>539.450</ele>
        <time>2021-10-12T13:56:14Z</time>
      </trkpt>
      <trkpt lat="38.470777" lon="-6.363444">
        <ele>539.116</ele>
        <time>2021-10-12T13:56:16Z</time>
      </trkpt>
      <trkpt lat="38.471208" lon="-6.363329">
        <ele>538.025</ele>
        <time>2021-10-12T13:56:18Z</time>
      </trkpt>
      <trkpt lat="38.471644" lon="-6.363207">
        <ele>538.985</ele>
        <time>2021-10-12T13:56:20Z</time>
      </trkpt>
      <trkpt lat="38.472067" lon="-6.363089">
        <ele>539.986</ele>
        <time>2021-10-12T13:56:22Z</time>
      </trkpt>
      <trkpt lat="38.472282" lon="-6.363024">
        <ele>539.857</ele>
        <time>2021-10-12T13:56:23Z</time>
      </trkpt>
      <trkpt lat="38.472712" lon="-6.362893">
        <ele>539.000</ele>
        <time>2021-10-12T13:56:25Z</time>
      </trkpt>
      <trkpt lat="38.472938" lon="-6.362819">
        <ele>539.020</ele>
        <time>2021-10-12T13:56:26Z</time>
      </trkpt>
      <trkpt lat="38.473376" lon="-6.362677">
        <ele>538.108</ele>
        <time>2021-10-12T13:56:28Z</time>
      </trkpt>
      <trkpt lat="38.473610" lon="-6.362603">
        <ele>538.453</ele>
        <time>2021-10-12T13:56:29Z</time>
      </trkpt>
      <trkpt lat="38.474088" lon="-6.362468">
        <ele>537.321</ele>
        <time>2021-10-12T13:56:31Z</time>
      </trkpt>
      <trkpt lat="38.474337" lon="-6.362399">
        <ele>536.827</ele>
        <time>2021-10-12T13:56:32Z</time>
      </trkpt>
      <trkpt lat="38.474820" lon="-6.362253">
        <ele>535.650</ele>
        <time>2021-10-12T13:56:34Z</time>
      </trkpt>
      <trkpt lat="38.475070" lon="-6.362171">
        <ele>534.876</ele>
        <time>2021-10-12T13:56:35Z</time>
      </trkpt>
      <trkpt lat="38.475574" lon="-6.362009">
        <ele>533.975</ele>
        <time>2021-10-12T13:56:37Z</time>
      </trkpt>
      <trkpt lat="38.475833" lon="-6.361924">
        <ele>532.955</ele>
        <time>2021-10-12T13:56:38Z</time>
      </trkpt>
      <trkpt lat="38.476329" lon="-6.361755">
        <ele>531.546</ele>
        <time>2021-10-12T13:56:40Z</time>
      </trkpt>
      <trkpt lat="38.476589" lon="-6.361669">
        <ele>529.693</ele>
        <time>2021-10-12T13:56:41Z</time>
      </trkpt>
      <trkpt lat="38.476856" lon="-6.361580">
        <ele>527.865</ele>
        <time>2021-10-12T13:56:42Z</time>
      </trkpt>
      <trkpt lat="38.477410" lon="-6.361395">
        <ele>527.321</ele>
        <time>2021-10-12T13:56:44Z</time>
      </trkpt>
      <trkpt lat="38.477971" lon="-6.361210">
        <ele>526.108</ele>
        <time>2021-10-12T13:56:46Z</time>
      </trkpt>
      <trkpt lat="38.478265" lon="-6.361113">
        <ele>525.257</ele>
        <time>2021-10-12T13:56:47Z</time>
      </trkpt>
      <trkpt lat="38.478850" lon="-6.360918">
        <ele>525.465</ele>
        <time>2021-10-12T13:56:49Z</time>
      </trkpt>
      <trkpt lat="38.479152" lon="-6.360816">
        <ele>525.131</ele>
        <time>2021-10-12T13:56:50Z</time>
      </trkpt>
      <trkpt lat="38.479735" lon="-6.360621">
        <ele>525.234</ele>
        <time>2021-10-12T13:56:52Z</time>
      </trkpt>
      <trkpt lat="38.480326" lon="-6.360423">
        <ele>521.320</ele>
        <time>2021-10-12T13:56:54Z</time>
      </trkpt>
      <trkpt lat="38.480928" lon="-6.360219">
        <ele>519.629</ele>
        <time>2021-10-12T13:56:56Z</time>
      </trkpt>
      <trkpt lat="38.481501" lon="-6.360031">
        <ele>518.949</ele>
        <time>2021-10-12T13:56:58Z</time>
      </trkpt>
      <trkpt lat="38.481791" lon="-6.359934">
        <ele>519.140</ele>
        <time>2021-10-12T13:56:59Z</time>
      </trkpt>
      <trkpt lat="38.482083" lon="-6.359836">
        <ele>518.313</ele>
        <time>2021-10-12T13:57:00Z</time>
      </trkpt>
      <trkpt lat="38.482665" lon="-6.359640">
        <ele>516.543</ele>
        <time>2021-10-12T13:57:02Z</time>
      </trkpt>
      <trkpt lat="38.483236" lon="-6.359446">
        <ele>515.407</ele>
        <time>2021-10-12T13:57:04Z</time>
      </trkpt>
      <trkpt lat="38.483822" lon="-6.359249">
        <ele>512.508</ele>
        <time>2021-10-12T13:57:06Z</time>
      </trkpt>
      <trkpt lat="38.484424" lon="-6.359050">
        <ele>509.559</ele>
        <time>2021-10-12T13:57:08Z</time>
      </trkpt>
      <trkpt lat="38.485007" lon="-6.358858">
        <ele>509.067</ele>
        <time>2021-10-12T13:57:10Z</time>
      </trkpt>
      <trkpt lat="38.485601" lon="-6.358662">
        <ele>505.033</ele>
        <time>2021-10-12T13:57:12Z</time>
      </trkpt>
      <trkpt lat="38.485898" lon="-6.358557">
        <ele>503.886</ele>
        <time>2021-10-12T13:57:13Z</time>
      </trkpt>
      <trkpt lat="38.486204" lon="-6.358450">
        <ele>503.662</ele>
        <time>2021-10-12T13:57:14Z</time>
      </trkpt>
      <trkpt lat="38.486788" lon="-6.358249">
        <ele>504.071</ele>
        <time>2021-10-12T13:57:16Z</time>
      </trkpt>
      <trkpt lat="38.487384" lon="-6.358056">
        <ele>501.481</ele>
        <time>2021-10-12T13:57:18Z</time>
      </trkpt>
      <trkpt lat="38.487988" lon="-6.357857">
        <ele>503.532</ele>
        <time>2021-10-12T13:57:20Z</time>
      </trkpt>
      <trkpt lat="38.488562" lon="-6.357659">
        <ele>502.626</ele>
        <time>2021-10-12T13:57:22Z</time>
      </trkpt>
      <trkpt lat="38.488856" lon="-6.357557">
        <ele>503.147</ele>
        <time>2021-10-12T13:57:23Z</time>
      </trkpt>
      <trkpt lat="38.489147" lon="-6.357461">
        <ele>503.811</ele>
        <time>2021-10-12T13:57:24Z</time>
      </trkpt>
      <trkpt lat="38.489736" lon="-6.357260">
        <ele>502.108</ele>
        <time>2021-10-12T13:57:26Z</time>
      </trkpt>
      <trkpt lat="38.490310" lon="-6.357067">
        <ele>502.030</ele>
        <time>2021-10-12T13:57:28Z</time>
      </trkpt>
      <trkpt lat="38.490606" lon="-6.356967">
        <ele>501.568</ele>
        <time>2021-10-12T13:57:29Z</time>
      </trkpt>
      <trkpt lat="38.491197" lon="-6.356772">
        <ele>503.784</ele>
        <time>2021-10-12T13:57:31Z</time>
      </trkpt>
      <trkpt lat="38.491505" lon="-6.356680">
        <ele>504.047</ele>
        <time>2021-10-12T13:57:32Z</time>
      </trkpt>
      <trkpt lat="38.492086" lon="-6.356543">
        <ele>502.743</ele>
        <time>2021-10-12T13:57:34Z</time>
      </trkpt>
      <trkpt lat="38.492695" lon="-6.356486">
        <ele>502.962</ele>
        <time>2021-10-12T13:57:36Z</time>
      </trkpt>
      <trkpt lat="38.493319" lon="-6.356488">
        <ele>502.412</ele>
        <time>2021-10-12T13:57:38Z</time>
      </trkpt>
      <trkpt lat="38.493940" lon="-6.356554">
        <ele>496.523</ele>
        <time>2021-10-12T13:57:40Z</time>
      </trkpt>
      <trkpt lat="38.494567" lon="-6.356617">
        <ele>492.413</ele>
        <time>2021-10-12T13:57:42Z</time>
      </trkpt>
      <trkpt lat="38.494880" lon="-6.356638">
        <ele>493.143</ele>
        <time>2021-10-12T13:57:43Z</time>
      </trkpt>
      <trkpt lat="38.495205" lon="-6.356656">
        <ele>493.007</ele>
        <time>2021-10-12T13:57:44Z</time>
      </trkpt>
      <trkpt lat="38.495832" lon="-6.356692">
        <ele>493.208</ele>
        <time>2021-10-12T13:57:46Z</time>
      </trkpt>
      <trkpt lat="38.496477" lon="-6.356737">
        <ele>492.769</ele>
        <time>2021-10-12T13:57:48Z</time>
      </trkpt>
      <trkpt lat="38.497117" lon="-6.356778">
        <ele>492.497</ele>
        <time>2021-10-12T13:57:50Z</time>
      </trkpt>
      <trkpt lat="38.497733" lon="-6.356810">
        <ele>491.273</ele>
        <time>2021-10-12T13:57:52Z</time>
      </trkpt>
      <trkpt lat="38.498049" lon="-6.356828">
        <ele>490.096</ele>
        <time>2021-10-12T13:57:53Z</time>
      </trkpt>
      <trkpt lat="38.498360" lon="-6.356852">
        <ele>490.072</ele>
        <time>2021-10-12T13:57:54Z</time>
      </trkpt>
      <trkpt lat="38.498984" lon="-6.356900">
        <ele>490.931</ele>
        <time>2021-10-12T13:57:56Z</time>
      </trkpt>
      <trkpt lat="38.499589" lon="-6.356933">
        <ele>493.021</ele>
        <time>2021-10-12T13:57:58Z</time>
      </trkpt>
      <trkpt lat="38.500204" lon="-6.356968">
        <ele>493.942</ele>
        <time>2021-10-12T13:58:00Z</time>
      </trkpt>
      <trkpt lat="38.500516" lon="-6.356988">
        <ele>494.083</ele>
        <time>2021-10-12T13:58:01Z</time>
      </trkpt>
      <trkpt lat="38.500831" lon="-6.357013">
        <ele>495.025</ele>
        <time>2021-10-12T13:58:02Z</time>
      </trkpt>
      <trkpt lat="38.501423" lon="-6.357052">
        <ele>495.917</ele>
        <time>2021-10-12T13:58:04Z</time>
      </trkpt>
      <trkpt lat="38.501729" lon="-6.357071">
        <ele>495.008</ele>
        <time>2021-10-12T13:58:05Z</time>
      </trkpt>
      <trkpt lat="38.502323" lon="-6.357111">
        <ele>494.566</ele>
        <time>2021-10-12T13:58:07Z</time>
      </trkpt>
      <trkpt lat="38.502631" lon="-6.357125">
        <ele>493.564</ele>
        <time>2021-10-12T13:58:08Z</time>
      </trkpt>
      <trkpt lat="38.503238" lon="-6.357085">
        <ele>493.370</ele>
        <time>2021-10-12T13:58:10Z</time>
      </trkpt>
      <trkpt lat="38.503860" lon="-6.356913">
        <ele>493.853</ele>
        <time>2021-10-12T13:58:12Z</time>
      </trkpt>
      <trkpt lat="38.504169" lon="-6.356807">
        <ele>493.069</ele>
        <time>2021-10-12T13:58:13Z</time>
      </trkpt>
      <trkpt lat="38.504483" lon="-6.356709">
        <ele>492.968</ele>
        <time>2021-10-12T13:58:14Z</time>
      </trkpt>
      <trkpt lat="38.505086" lon="-6.356528">
        <ele>489.868</ele>
        <time>2021-10-12T13:58:16Z</time>
      </trkpt>
      <trkpt lat="38.505396" lon="-6.356432">
        <ele>489.619</ele>
        <time>2021-10-12T13:58:17Z</time>
      </trkpt>
      <trkpt lat="38.506011" lon="-6.356244">
        <ele>488.294</ele>
        <time>2021-10-12T13:58:19Z</time>
      </trkpt>
      <trkpt lat="38.506327" lon="-6.356148">
        <ele>487.057</ele>
        <time>2021-10-12T13:58:20Z</time>
      </trkpt>
      <trkpt lat="38.506934" lon="-6.355967">
        <ele>488.022</ele>
        <time>2021-10-12T13:58:22Z</time>
      </trkpt>
      <trkpt lat="38.507240" lon="-6.355874">
        <ele>487.108</ele>
        <time>2021-10-12T13:58:23Z</time>
      </trkpt>
      <trkpt lat="38.507844" lon="-6.355693">
        <ele>484.117</ele>
        <time>2021-10-12T13:58:25Z</time>
      </trkpt>
      <trkpt lat="38.508152" lon="-6.355601">
        <ele>483.945</ele>
        <time>2021-10-12T13:58:26Z</time>
      </trkpt>
      <trkpt lat="38.508720" lon="-6.355434">
        <ele>481.811</ele>
        <time>2021-10-12T13:58:28Z</time>
      </trkpt>
      <trkpt lat="38.509281" lon="-6.355264">
        <ele>482.454</ele>
        <time>2021-10-12T13:58:30Z</time>
      </trkpt>
      <trkpt lat="38.509838" lon="-6.355097">
        <ele>480.240</ele>
        <time>2021-10-12T13:58:32Z</time>
      </trkpt>
      <trkpt lat="38.510382" lon="-6.354944">
        <ele>478.229</ele>
        <time>2021-10-12T13:58:34Z</time>
      </trkpt>
      <trkpt lat="38.510961" lon="-6.354769">
        <ele>476.199</ele>
        <time>2021-10-12T13:58:36Z</time>
      </trkpt>
      <trkpt lat="38.511555" lon="-6.354587">
        <ele>475.090</ele>
        <time>2021-10-12T13:58:38Z</time>
      </trkpt>
      <trkpt lat="38.512135" lon="-6.354410">
        <ele>473.293</ele>
        <time>2021-10-12T13:58:40Z</time>
      </trkpt>
      <trkpt lat="38.512434" lon="-6.354326">
        <ele>471.865</ele>
        <time>2021-10-12T13:58:41Z</time>
      </trkpt>
      <trkpt lat="38.512732" lon="-6.354243">
        <ele>471.321</ele>
        <time>2021-10-12T13:58:42Z</time>
      </trkpt>
      <trkpt lat="38.513030" lon="-6.354160">
        <ele>471.908</ele>
        <time>2021-10-12T13:58:43Z</time>
      </trkpt>
      <trkpt lat="38.513333" lon="-6.354074">
        <ele>472.317</ele>
        <time>2021-10-12T13:58:44Z</time>
      </trkpt>
      <trkpt lat="38.513912" lon="-6.353894">
        <ele>472.055</ele>
        <time>2021-10-12T13:58:46Z</time>
      </trkpt>
      <trkpt lat="38.514211" lon="-6.353802">
        <ele>471.721</ele>
        <time>2021-10-12T13:58:47Z</time>
      </trkpt>
      <trkpt lat="38.514804" lon="-6.353623">
        <ele>472.034</ele>
        <time>2021-10-12T13:58:49Z</time>
      </trkpt>
      <trkpt lat="38.515113" lon="-6.353531">
        <ele>471.660</ele>
        <time>2021-10-12T13:58:50Z</time>
      </trkpt>
      <trkpt lat="38.515698" lon="-6.353354">
        <ele>470.579</ele>
        <time>2021-10-12T13:58:52Z</time>
      </trkpt>
      <trkpt lat="38.516293" lon="-6.353163">
        <ele>467.929</ele>
        <time>2021-10-12T13:58:54Z</time>
      </trkpt>
      <trkpt lat="38.516589" lon="-6.353066">
        <ele>467.850</ele>
        <time>2021-10-12T13:58:55Z</time>
      </trkpt>
      <trkpt lat="38.516894" lon="-6.352967">
        <ele>467.678</ele>
        <time>2021-10-12T13:58:56Z</time>
      </trkpt>
      <trkpt lat="38.517473" lon="-6.352792">
        <ele>468.033</ele>
        <time>2021-10-12T13:58:58Z</time>
      </trkpt>
      <trkpt lat="38.518057" lon="-6.352616">
        <ele>465.026</ele>
        <time>2021-10-12T13:59:00Z</time>
      </trkpt>
      <trkpt lat="38.518354" lon="-6.352531">
        <ele>463.008</ele>
        <time>2021-10-12T13:59:01Z</time>
      </trkpt>
      <trkpt lat="38.518657" lon="-6.352440">
        <ele>461.865</ele>
        <time>2021-10-12T13:59:02Z</time>
      </trkpt>
      <trkpt lat="38.519239" lon="-6.352277">
        <ele>460.663</ele>
        <time>2021-10-12T13:59:04Z</time>
      </trkpt>
      <trkpt lat="38.519834" lon="-6.352112">
        <ele>459.439</ele>
        <time>2021-10-12T13:59:06Z</time>
      </trkpt>
      <trkpt lat="38.520443" lon="-6.351955">
        <ele>459.462</ele>
        <time>2021-10-12T13:59:08Z</time>
      </trkpt>
      <trkpt lat="38.521022" lon="-6.351793">
        <ele>457.438</ele>
        <time>2021-10-12T13:59:10Z</time>
      </trkpt>
      <trkpt lat="38.521609" lon="-6.351617">
        <ele>455.957</ele>
        <time>2021-10-12T13:59:12Z</time>
      </trkpt>
      <trkpt lat="38.522204" lon="-6.351444">
        <ele>453.027</ele>
        <time>2021-10-12T13:59:14Z</time>
      </trkpt>
      <trkpt lat="38.522782" lon="-6.351279">
        <ele>451.078</ele>
        <time>2021-10-12T13:59:16Z</time>
      </trkpt>
      <trkpt lat="38.523081" lon="-6.351193">
        <ele>451.435</ele>
        <time>2021-10-12T13:59:17Z</time>
      </trkpt>
      <trkpt lat="38.523676" lon="-6.351021">
        <ele>452.886</ele>
        <time>2021-10-12T13:59:19Z</time>
      </trkpt>
      <trkpt lat="38.523985" lon="-6.350932">
        <ele>451.314</ele>
        <time>2021-10-12T13:59:20Z</time>
      </trkpt>
      <trkpt lat="38.524575" lon="-6.350760">
        <ele>447.408</ele>
        <time>2021-10-12T13:59:22Z</time>
      </trkpt>
      <trkpt lat="38.525179" lon="-6.350584">
        <ele>445.871</ele>
        <time>2021-10-12T13:59:24Z</time>
      </trkpt>
      <trkpt lat="38.525481" lon="-6.350498">
        <ele>445.989</ele>
        <time>2021-10-12T13:59:25Z</time>
      </trkpt>
      <trkpt lat="38.525793" lon="-6.350409">
        <ele>446.015</ele>
        <time>2021-10-12T13:59:26Z</time>
      </trkpt>
      <trkpt lat="38.526364" lon="-6.350242">
        <ele>448.068</ele>
        <time>2021-10-12T13:59:28Z</time>
      </trkpt>
      <trkpt lat="38.526638" lon="-6.350162">
        <ele>446.644</ele>
        <time>2021-10-12T13:59:29Z</time>
      </trkpt>
      <trkpt lat="38.527154" lon="-6.350007">
        <ele>443.543</ele>
        <time>2021-10-12T13:59:31Z</time>
      </trkpt>
      <trkpt lat="38.527421" lon="-6.349931">
        <ele>442.893</ele>
        <time>2021-10-12T13:59:32Z</time>
      </trkpt>
      <trkpt lat="38.527965" lon="-6.349776">
        <ele>442.344</ele>
        <time>2021-10-12T13:59:34Z</time>
      </trkpt>
      <trkpt lat="38.528268" lon="-6.349689">
        <ele>442.716</ele>
        <time>2021-10-12T13:59:35Z</time>
      </trkpt>
      <trkpt lat="38.528580" lon="-6.349600">
        <ele>441.376</ele>
        <time>2021-10-12T13:59:36Z</time>
      </trkpt>
      <trkpt lat="38.529198" lon="-6.349423">
        <ele>437.013</ele>
        <time>2021-10-12T13:59:38Z</time>
      </trkpt>
      <trkpt lat="38.529496" lon="-6.349338">
        <ele>437.808</ele>
        <time>2021-10-12T13:59:39Z</time>
      </trkpt>
      <trkpt lat="38.530079" lon="-6.349194">
        <ele>438.189</ele>
        <time>2021-10-12T13:59:41Z</time>
      </trkpt>
      <trkpt lat="38.530378" lon="-6.349153">
        <ele>437.677</ele>
        <time>2021-10-12T13:59:42Z</time>
      </trkpt>
      <trkpt lat="38.530976" lon="-6.349191">
        <ele>435.053</ele>
        <time>2021-10-12T13:59:44Z</time>
      </trkpt>
      <trkpt lat="38.531566" lon="-6.349383">
        <ele>435.026</ele>
        <time>2021-10-12T13:59:46Z</time>
      </trkpt>
      <trkpt lat="38.531855" lon="-6.349500">
        <ele>433.332</ele>
        <time>2021-10-12T13:59:47Z</time>
      </trkpt>
      <trkpt lat="38.532415" lon="-6.349727">
        <ele>432.741</ele>
        <time>2021-10-12T13:59:49Z</time>
      </trkpt>
      <trkpt lat="38.532959" lon="-6.349945">
        <ele>433.751</ele>
        <time>2021-10-12T13:59:51Z</time>
      </trkpt>
      <trkpt lat="38.533234" lon="-6.350053">
        <ele>433.292</ele>
        <time>2021-10-12T13:59:52Z</time>
      </trkpt>
      <trkpt lat="38.533780" lon="-6.350264">
        <ele>431.082</ele>
        <time>2021-10-12T13:59:54Z</time>
      </trkpt>
      <trkpt lat="38.534055" lon="-6.350368">
        <ele>431.743</ele>
        <time>2021-10-12T13:59:55Z</time>
      </trkpt>
      <trkpt lat="38.534338" lon="-6.350470">
        <ele>432.417</ele>
        <time>2021-10-12T13:59:56Z</time>
      </trkpt>
      <trkpt lat="38.534867" lon="-6.350671">
        <ele>432.508</ele>
        <time>2021-10-12T13:59:58Z</time>
      </trkpt>
      <trkpt lat="38.535136" lon="-6.350773">
        <ele>431.916</ele>
        <time>2021-10-12T13:59:59Z</time>
      </trkpt>
      <trkpt lat="38.535644" lon="-6.350946">
        <ele>432.484</ele>
        <time>2021-10-12T14:00:01Z</time>
      </trkpt>
      <trkpt lat="38.535902" lon="-6.351014">
        <ele>432.650</ele>
        <time>2021-10-12T14:00:02Z</time>
      </trkpt>
      <trkpt lat="38.536406" lon="-6.351118">
        <ele>431.973</ele>
        <time>2021-10-12T14:00:04Z</time>
      </trkpt>
      <trkpt lat="38.536927" lon="-6.351206">
        <ele>429.499</ele>
        <time>2021-10-12T14:00:06Z</time>
      </trkpt>
      <trkpt lat="38.537184" lon="-6.351248">
        <ele>429.178</ele>
        <time>2021-10-12T14:00:07Z</time>
      </trkpt>
      <trkpt lat="38.537430" lon="-6.351289">
        <ele>429.098</ele>
        <time>2021-10-12T14:00:08Z</time>
      </trkpt>
      <trkpt lat="38.537664" lon="-6.351329">
        <ele>428.499</ele>
        <time>2021-10-12T14:00:09Z</time>
      </trkpt>
      <trkpt lat="38.538110" lon="-6.351402">
        <ele>427.778</ele>
        <time>2021-10-12T14:00:11Z</time>
      </trkpt>
      <trkpt lat="38.538572" lon="-6.351437">
        <ele>424.933</ele>
        <time>2021-10-12T14:00:13Z</time>
      </trkpt>
      <trkpt lat="38.538819" lon="-6.351425">
        <ele>423.426</ele>
        <time>2021-10-12T14:00:14Z</time>
      </trkpt>
      <trkpt lat="38.539335" lon="-6.351326">
        <ele>423.808</ele>
        <time>2021-10-12T14:00:16Z</time>
      </trkpt>
      <trkpt lat="38.539874" lon="-6.351192">
        <ele>421.715</ele>
        <time>2021-10-12T14:00:18Z</time>
      </trkpt>
      <trkpt lat="38.540151" lon="-6.351132">
        <ele>421.183</ele>
        <time>2021-10-12T14:00:19Z</time>
      </trkpt>
      <trkpt lat="38.540430" lon="-6.351073">
        <ele>420.879</ele>
        <time>2021-10-12T14:00:20Z</time>
      </trkpt>
      <trkpt lat="38.540988" lon="-6.350986">
        <ele>423.172</ele>
        <time>2021-10-12T14:00:22Z</time>
      </trkpt>
      <trkpt lat="38.541273" lon="-6.350963">
        <ele>424.978</ele>
        <time>2021-10-12T14:00:23Z</time>
      </trkpt>
      <trkpt lat="38.541561" lon="-6.350958">
        <ele>424.977</ele>
        <time>2021-10-12T14:00:24Z</time>
      </trkpt>
      <trkpt lat="38.542151" lon="-6.350967">
        <ele>420.797</ele>
        <time>2021-10-12T14:00:26Z</time>
      </trkpt>
      <trkpt lat="38.542728" lon="-6.350990">
        <ele>420.198</ele>
        <time>2021-10-12T14:00:28Z</time>
      </trkpt>
      <trkpt lat="38.543024" lon="-6.350999">
        <ele>420.282</ele>
        <time>2021-10-12T14:00:29Z</time>
      </trkpt>
      <trkpt lat="38.543613" lon="-6.351003">
        <ele>417.243</ele>
        <time>2021-10-12T14:00:31Z</time>
      </trkpt>
      <trkpt lat="38.543923" lon="-6.351005">
        <ele>416.417</ele>
        <time>2021-10-12T14:00:32Z</time>
      </trkpt>
      <trkpt lat="38.544515" lon="-6.351001">
        <ele>418.208</ele>
        <time>2021-10-12T14:00:34Z</time>
      </trkpt>
      <trkpt lat="38.544824" lon="-6.350997">
        <ele>417.846</ele>
        <time>2021-10-12T14:00:35Z</time>
      </trkpt>
      <trkpt lat="38.545442" lon="-6.350991">
        <ele>418.264</ele>
        <time>2021-10-12T14:00:37Z</time>
      </trkpt>
      <trkpt lat="38.546063" lon="-6.350996">
        <ele>417.260</ele>
        <time>2021-10-12T14:00:39Z</time>
      </trkpt>
      <trkpt lat="38.546678" lon="-6.350978">
        <ele>417.073</ele>
        <time>2021-10-12T14:00:41Z</time>
      </trkpt>
      <trkpt lat="38.546982" lon="-6.350932">
        <ele>416.969</ele>
        <time>2021-10-12T14:00:42Z</time>
      </trkpt>
      <trkpt lat="38.547281" lon="-6.350859">
        <ele>417.558</ele>
        <time>2021-10-12T14:00:43Z</time>
      </trkpt>
      <trkpt lat="38.547578" lon="-6.350768">
        <ele>417.268</ele>
        <time>2021-10-12T14:00:44Z</time>
      </trkpt>
      <trkpt lat="38.548171" lon="-6.350571">
        <ele>415.569</ele>
        <time>2021-10-12T14:00:46Z</time>
      </trkpt>
      <trkpt lat="38.548467" lon="-6.350478">
        <ele>415.768</ele>
        <time>2021-10-12T14:00:47Z</time>
      </trkpt>
      <trkpt lat="38.548761" lon="-6.350385">
        <ele>415.742</ele>
        <time>2021-10-12T14:00:48Z</time>
      </trkpt>
      <trkpt lat="38.549337" lon="-6.350198">
        <ele>416.426</ele>
        <time>2021-10-12T14:00:50Z</time>
      </trkpt>
      <trkpt lat="38.549895" lon="-6.350052">
        <ele>418.008</ele>
        <time>2021-10-12T14:00:52Z</time>
      </trkpt>
      <trkpt lat="38.550163" lon="-6.350016">
        <ele>418.694</ele>
        <time>2021-10-12T14:00:53Z</time>
      </trkpt>
      <trkpt lat="38.550670" lon="-6.350049">
        <ele>419.032</ele>
        <time>2021-10-12T14:00:55Z</time>
      </trkpt>
      <trkpt lat="38.550927" lon="-6.350082">
        <ele>418.718</ele>
        <time>2021-10-12T14:00:56Z</time>
      </trkpt>
      <trkpt lat="38.551390" lon="-6.350130">
        <ele>418.491</ele>
        <time>2021-10-12T14:00:58Z</time>
      </trkpt>
      <trkpt lat="38.551859" lon="-6.350172">
        <ele>418.877</ele>
        <time>2021-10-12T14:01:00Z</time>
      </trkpt>
      <trkpt lat="38.552094" lon="-6.350191">
        <ele>417.646</ele>
        <time>2021-10-12T14:01:01Z</time>
      </trkpt>
      <trkpt lat="38.552341" lon="-6.350210">
        <ele>416.886</ele>
        <time>2021-10-12T14:01:02Z</time>
      </trkpt>
      <trkpt lat="38.552814" lon="-6.350245">
        <ele>415.627</ele>
        <time>2021-10-12T14:01:04Z</time>
      </trkpt>
      <trkpt lat="38.553259" lon="-6.350285">
        <ele>413.312</ele>
        <time>2021-10-12T14:01:06Z</time>
      </trkpt>
      <trkpt lat="38.553462" lon="-6.350305">
        <ele>414.132</ele>
        <time>2021-10-12T14:01:07Z</time>
      </trkpt>
      <trkpt lat="38.553826" lon="-6.350345">
        <ele>415.405</ele>
        <time>2021-10-12T14:01:09Z</time>
      </trkpt>
      <trkpt lat="38.554176" lon="-6.350360">
        <ele>413.508</ele>
        <time>2021-10-12T14:01:11Z</time>
      </trkpt>
      <trkpt lat="38.554357" lon="-6.350350">
        <ele>412.719</ele>
        <time>2021-10-12T14:01:12Z</time>
      </trkpt>
      <trkpt lat="38.554540" lon="-6.350331">
        <ele>412.737</ele>
        <time>2021-10-12T14:01:13Z</time>
      </trkpt>
      <trkpt lat="38.554915" lon="-6.350275">
        <ele>414.053</ele>
        <time>2021-10-12T14:01:15Z</time>
      </trkpt>
      <trkpt lat="38.555324" lon="-6.350221">
        <ele>411.816</ele>
        <time>2021-10-12T14:01:17Z</time>
      </trkpt>
      <trkpt lat="38.555746" lon="-6.350170">
        <ele>411.792</ele>
        <time>2021-10-12T14:01:19Z</time>
      </trkpt>
      <trkpt lat="38.556131" lon="-6.350126">
        <ele>412.091</ele>
        <time>2021-10-12T14:01:21Z</time>
      </trkpt>
      <trkpt lat="38.556469" lon="-6.350085">
        <ele>412.841</ele>
        <time>2021-10-12T14:01:23Z</time>
      </trkpt>
      <trkpt lat="38.556775" lon="-6.350053">
        <ele>413.022</ele>
        <time>2021-10-12T14:01:25Z</time>
      </trkpt>
      <trkpt lat="38.556928" lon="-6.350042">
        <ele>413.073</ele>
        <time>2021-10-12T14:01:26Z</time>
      </trkpt>
      <trkpt lat="38.557228" lon="-6.350038">
        <ele>415.185</ele>
        <time>2021-10-12T14:01:28Z</time>
      </trkpt>
      <trkpt lat="38.557543" lon="-6.350042">
        <ele>414.713</ele>
        <time>2021-10-12T14:01:30Z</time>
      </trkpt>
      <trkpt lat="38.557707" lon="-6.350048">
        <ele>413.608</ele>
        <time>2021-10-12T14:01:31Z</time>
      </trkpt>
      <trkpt lat="38.557869" lon="-6.350055">
        <ele>413.155</ele>
        <time>2021-10-12T14:01:32Z</time>
      </trkpt>
      <trkpt lat="38.558168" lon="-6.350067">
        <ele>412.783</ele>
        <time>2021-10-12T14:01:34Z</time>
      </trkpt>
      <trkpt lat="38.558305" lon="-6.350072">
        <ele>412.329</ele>
        <time>2021-10-12T14:01:35Z</time>
      </trkpt>
      <trkpt lat="38.558555" lon="-6.350079">
        <ele>412.382</ele>
        <time>2021-10-12T14:01:37Z</time>
      </trkpt>
      <trkpt lat="38.558673" lon="-6.350084">
        <ele>412.388</ele>
        <time>2021-10-12T14:01:38Z</time>
      </trkpt>
      <trkpt lat="38.558890" lon="-6.350093">
        <ele>412.317</ele>
        <time>2021-10-12T14:01:40Z</time>
      </trkpt>
      <trkpt lat="38.558990" lon="-6.350098">
        <ele>412.657</ele>
        <time>2021-10-12T14:01:41Z</time>
      </trkpt>
      <trkpt lat="38.559179" lon="-6.350107">
        <ele>413.018</ele>
        <time>2021-10-12T14:01:43Z</time>
      </trkpt>
      <trkpt lat="38.559377" lon="-6.350120">
        <ele>412.761</ele>
        <time>2021-10-12T14:01:45Z</time>
      </trkpt>
      <trkpt lat="38.559482" lon="-6.350125">
        <ele>412.521</ele>
        <time>2021-10-12T14:01:46Z</time>
      </trkpt>
      <trkpt lat="38.559583" lon="-6.350128">
        <ele>412.313</ele>
        <time>2021-10-12T14:01:47Z</time>
      </trkpt>
      <trkpt lat="38.559770" lon="-6.350133">
        <ele>411.908</ele>
        <time>2021-10-12T14:01:49Z</time>
      </trkpt>
      <trkpt lat="38.559859" lon="-6.350135">
        <ele>411.824</ele>
        <time>2021-10-12T14:01:50Z</time>
      </trkpt>
      <trkpt lat="38.559948" lon="-6.350138">
        <ele>411.652</ele>
        <time>2021-10-12T14:01:51Z</time>
      </trkpt>
      <trkpt lat="38.560139" lon="-6.350141">
        <ele>411.078</ele>
        <time>2021-10-12T14:01:53Z</time>
      </trkpt>
      <trkpt lat="38.560242" lon="-6.350136">
        <ele>410.611</ele>
        <time>2021-10-12T14:01:54Z</time>
      </trkpt>
      <trkpt lat="38.560469" lon="-6.350119">
        <ele>410.297</ele>
        <time>2021-10-12T14:01:56Z</time>
      </trkpt>
      <trkpt lat="38.560706" lon="-6.350110">
        <ele>409.596</ele>
        <time>2021-10-12T14:01:58Z</time>
      </trkpt>
      <trkpt lat="38.560835" lon="-6.350101">
        <ele>409.016</ele>
        <time>2021-10-12T14:01:59Z</time>
      </trkpt>
      <trkpt lat="38.561104" lon="-6.350084">
        <ele>408.317</ele>
        <time>2021-10-12T14:02:01Z</time>
      </trkpt>
      <trkpt lat="38.561251" lon="-6.350073">
        <ele>408.623</ele>
        <time>2021-10-12T14:02:02Z</time>
      </trkpt>
      <trkpt lat="38.561535" lon="-6.350055">
        <ele>409.683</ele>
        <time>2021-10-12T14:02:04Z</time>
      </trkpt>
      <trkpt lat="38.561835" lon="-6.350038">
        <ele>410.211</ele>
        <time>2021-10-12T14:02:06Z</time>
      </trkpt>
      <trkpt lat="38.562126" lon="-6.350022">
        <ele>409.508</ele>
        <time>2021-10-12T14:02:08Z</time>
      </trkpt>
      <trkpt lat="38.562266" lon="-6.350017">
        <ele>409.170</ele>
        <time>2021-10-12T14:02:09Z</time>
      </trkpt>
      <trkpt lat="38.562405" lon="-6.350011">
        <ele>409.058</ele>
        <time>2021-10-12T14:02:10Z</time>
      </trkpt>
      <trkpt lat="38.562542" lon="-6.350002">
        <ele>408.774</ele>
        <time>2021-10-12T14:02:11Z</time>
      </trkpt>
      <trkpt lat="38.562821" lon="-6.349984">
        <ele>406.817</ele>
        <time>2021-10-12T14:02:13Z</time>
      </trkpt>
      <trkpt lat="38.562967" lon="-6.349974">
        <ele>406.253</ele>
        <time>2021-10-12T14:02:14Z</time>
      </trkpt>
      <trkpt lat="38.563264" lon="-6.349947">
        <ele>406.782</ele>
        <time>2021-10-12T14:02:16Z</time>
      </trkpt>
      <trkpt lat="38.563427" lon="-6.349931">
        <ele>406.782</ele>
        <time>2021-10-12T14:02:17Z</time>
      </trkpt>
      <trkpt lat="38.563754" lon="-6.349904">
        <ele>406.373</ele>
        <time>2021-10-12T14:02:19Z</time>
      </trkpt>
      <trkpt lat="38.563920" lon="-6.349895">
        <ele>406.486</ele>
        <time>2021-10-12T14:02:20Z</time>
      </trkpt>
      <trkpt lat="38.564231" lon="-6.349872">
        <ele>407.260</ele>
        <time>2021-10-12T14:02:22Z</time>
      </trkpt>
      <trkpt lat="38.564387" lon="-6.349863">
        <ele>407.426</ele>
        <time>2021-10-12T14:02:23Z</time>
      </trkpt>
      <trkpt lat="38.564706" lon="-6.349845">
        <ele>407.208</ele>
        <time>2021-10-12T14:02:25Z</time>
      </trkpt>
      <trkpt lat="38.564870" lon="-6.349840">
        <ele>406.256</ele>
        <time>2021-10-12T14:02:26Z</time>
      </trkpt>
      <trkpt lat="38.565163" lon="-6.349873">
        <ele>404.954</ele>
        <time>2021-10-12T14:02:28Z</time>
      </trkpt>
      <trkpt lat="38.565330" lon="-6.349912">
        <ele>404.320</ele>
        <time>2021-10-12T14:02:29Z</time>
      </trkpt>
      <trkpt lat="38.565683" lon="-6.350010">
        <ele>404.043</ele>
        <time>2021-10-12T14:02:31Z</time>
      </trkpt>
      <trkpt lat="38.565872" lon="-6.350065">
        <ele>403.739</ele>
        <time>2021-10-12T14:02:32Z</time>
      </trkpt>
      <trkpt lat="38.566227" lon="-6.350153">
        <ele>402.088</ele>
        <time>2021-10-12T14:02:34Z</time>
      </trkpt>
      <trkpt lat="38.566410" lon="-6.350194">
        <ele>400.538</ele>
        <time>2021-10-12T14:02:35Z</time>
      </trkpt>
      <trkpt lat="38.566773" lon="-6.350268">
        <ele>397.679</ele>
        <time>2021-10-12T14:02:37Z</time>
      </trkpt>
      <trkpt lat="38.567134" lon="-6.350346">
        <ele>397.589</ele>
        <time>2021-10-12T14:02:39Z</time>
      </trkpt>
      <trkpt lat="38.567489" lon="-6.350430">
        <ele>398.106</ele>
        <time>2021-10-12T14:02:41Z</time>
      </trkpt>
      <trkpt lat="38.567657" lon="-6.350470">
        <ele>398.426</ele>
        <time>2021-10-12T14:02:42Z</time>
      </trkpt>
      <trkpt lat="38.567975" lon="-6.350555">
        <ele>398.308</ele>
        <time>2021-10-12T14:02:44Z</time>
      </trkpt>
      <trkpt lat="38.568117" lon="-6.350602">
        <ele>398.146</ele>
        <time>2021-10-12T14:02:45Z</time>
      </trkpt>
      <trkpt lat="38.568417" lon="-6.350713">
        <ele>397.984</ele>
        <time>2021-10-12T14:02:47Z</time>
      </trkpt>
      <trkpt lat="38.568579" lon="-6.350770">
        <ele>398.780</ele>
        <time>2021-10-12T14:02:48Z</time>
      </trkpt>
      <trkpt lat="38.568930" lon="-6.350884">
        <ele>398.053</ele>
        <time>2021-10-12T14:02:50Z</time>
      </trkpt>
      <trkpt lat="38.569292" lon="-6.351005">
        <ele>397.229</ele>
        <time>2021-10-12T14:02:52Z</time>
      </trkpt>
      <trkpt lat="38.569469" lon="-6.351066">
        <ele>396.958</ele>
        <time>2021-10-12T14:02:53Z</time>
      </trkpt>
      <trkpt lat="38.569635" lon="-6.351122">
        <ele>396.358</ele>
        <time>2021-10-12T14:02:54Z</time>
      </trkpt>
      <trkpt lat="38.569792" lon="-6.351175">
        <ele>396.199</ele>
        <time>2021-10-12T14:02:55Z</time>
      </trkpt>
      <trkpt lat="38.569944" lon="-6.351227">
        <ele>396.725</ele>
        <time>2021-10-12T14:02:56Z</time>
      </trkpt>
      <trkpt lat="38.570207" lon="-6.351309">
        <ele>398.326</ele>
        <time>2021-10-12T14:02:58Z</time>
      </trkpt>
      <trkpt lat="38.570444" lon="-6.351383">
        <ele>398.408</ele>
        <time>2021-10-12T14:03:00Z</time>
      </trkpt>
      <trkpt lat="38.570553" lon="-6.351415">
        <ele>397.908</ele>
        <time>2021-10-12T14:03:01Z</time>
      </trkpt>
      <trkpt lat="38.570663" lon="-6.351447">
        <ele>397.290</ele>
        <time>2021-10-12T14:03:02Z</time>
      </trkpt>
      <trkpt lat="38.570897" lon="-6.351495">
        <ele>395.968</ele>
        <time>2021-10-12T14:03:04Z</time>
      </trkpt>
      <trkpt lat="38.571108" lon="-6.351466">
        <ele>396.244</ele>
        <time>2021-10-12T14:03:06Z</time>
      </trkpt>
      <trkpt lat="38.571305" lon="-6.351398">
        <ele>396.967</ele>
        <time>2021-10-12T14:03:08Z</time>
      </trkpt>
      <trkpt lat="38.571504" lon="-6.351442">
        <ele>396.813</ele>
        <time>2021-10-12T14:03:10Z</time>
      </trkpt>
      <trkpt lat="38.571598" lon="-6.351536">
        <ele>396.512</ele>
        <time>2021-10-12T14:03:11Z</time>
      </trkpt>
      <trkpt lat="38.571811" lon="-6.351793">
        <ele>395.532</ele>
        <time>2021-10-12T14:03:13Z</time>
      </trkpt>
      <trkpt lat="38.571959" lon="-6.351886">
        <ele>395.253</ele>
        <time>2021-10-12T14:03:14Z</time>
      </trkpt>
      <trkpt lat="38.572132" lon="-6.351949">
        <ele>395.038</ele>
        <time>2021-10-12T14:03:15Z</time>
      </trkpt>
      <trkpt lat="38.572516" lon="-6.352059">
        <ele>394.670</ele>
        <time>2021-10-12T14:03:17Z</time>
      </trkpt>
      <trkpt lat="38.572707" lon="-6.352117">
        <ele>394.617</ele>
        <time>2021-10-12T14:03:18Z</time>
      </trkpt>
      <trkpt lat="38.573096" lon="-6.352234">
        <ele>396.008</ele>
        <time>2021-10-12T14:03:20Z</time>
      </trkpt>
      <trkpt lat="38.573299" lon="-6.352297">
        <ele>396.351</ele>
        <time>2021-10-12T14:03:21Z</time>
      </trkpt>
      <trkpt lat="38.573735" lon="-6.352442">
        <ele>395.299</ele>
        <time>2021-10-12T14:03:23Z</time>
      </trkpt>
      <trkpt lat="38.573973" lon="-6.352515">
        <ele>394.865</ele>
        <time>2021-10-12T14:03:24Z</time>
      </trkpt>
      <trkpt lat="38.574482" lon="-6.352679">
        <ele>396.278</ele>
        <time>2021-10-12T14:03:26Z</time>
      </trkpt>
      <trkpt lat="38.574983" lon="-6.352868">
        <ele>393.854</ele>
        <time>2021-10-12T14:03:28Z</time>
      </trkpt>
      <trkpt lat="38.575509" lon="-6.353129">
        <ele>389.833</ele>
        <time>2021-10-12T14:03:30Z</time>
      </trkpt>
      <trkpt lat="38.575772" lon="-6.353268">
        <ele>390.593</ele>
        <time>2021-10-12T14:03:31Z</time>
      </trkpt>
      <trkpt lat="38.576045" lon="-6.353411">
        <ele>394.074</ele>
        <time>2021-10-12T14:03:32Z</time>
      </trkpt>
      <trkpt lat="38.576557" lon="-6.353673">
        <ele>394.126</ele>
        <time>2021-10-12T14:03:34Z</time>
      </trkpt>
      <trkpt lat="38.576828" lon="-6.353810">
        <ele>394.247</ele>
        <time>2021-10-12T14:03:35Z</time>
      </trkpt>
      <trkpt lat="38.577353" lon="-6.354060">
        <ele>393.511</ele>
        <time>2021-10-12T14:03:37Z</time>
      </trkpt>
      <trkpt lat="38.577614" lon="-6.354185">
        <ele>393.308</ele>
        <time>2021-10-12T14:03:38Z</time>
      </trkpt>
      <trkpt lat="38.578127" lon="-6.354430">
        <ele>392.460</ele>
        <time>2021-10-12T14:03:40Z</time>
      </trkpt>
      <trkpt lat="38.578616" lon="-6.354674">
        <ele>397.578</ele>
        <time>2021-10-12T14:03:42Z</time>
      </trkpt>
      <trkpt lat="38.578863" lon="-6.354797">
        <ele>397.394</ele>
        <time>2021-10-12T14:03:43Z</time>
      </trkpt>
      <trkpt lat="38.579356" lon="-6.355025">
        <ele>397.087</ele>
        <time>2021-10-12T14:03:45Z</time>
      </trkpt>
      <trkpt lat="38.579607" lon="-6.355141">
        <ele>397.383</ele>
        <time>2021-10-12T14:03:46Z</time>
      </trkpt>
      <trkpt lat="38.580100" lon="-6.355381">
        <ele>398.932</ele>
        <time>2021-10-12T14:03:48Z</time>
      </trkpt>
      <trkpt lat="38.580354" lon="-6.355501">
        <ele>398.142</ele>
        <time>2021-10-12T14:03:49Z</time>
      </trkpt>
      <trkpt lat="38.580607" lon="-6.355610">
        <ele>398.263</ele>
        <time>2021-10-12T14:03:50Z</time>
      </trkpt>
      <trkpt lat="38.581142" lon="-6.355775">
        <ele>397.718</ele>
        <time>2021-10-12T14:03:52Z</time>
      </trkpt>
      <trkpt lat="38.581427" lon="-6.355840">
        <ele>397.198</ele>
        <time>2021-10-12T14:03:53Z</time>
      </trkpt>
      <trkpt lat="38.581712" lon="-6.355893">
        <ele>397.417</ele>
        <time>2021-10-12T14:03:54Z</time>
      </trkpt>
      <trkpt lat="38.582302" lon="-6.355993">
        <ele>395.308</ele>
        <time>2021-10-12T14:03:56Z</time>
      </trkpt>
      <trkpt lat="38.582863" lon="-6.356100">
        <ele>396.919</ele>
        <time>2021-10-12T14:03:58Z</time>
      </trkpt>
      <trkpt lat="38.583155" lon="-6.356148">
        <ele>397.127</ele>
        <time>2021-10-12T14:03:59Z</time>
      </trkpt>
      <trkpt lat="38.583440" lon="-6.356191">
        <ele>397.083</ele>
        <time>2021-10-12T14:04:00Z</time>
      </trkpt>
      <trkpt lat="38.584000" lon="-6.356289">
        <ele>399.566</ele>
        <time>2021-10-12T14:04:02Z</time>
      </trkpt>
      <trkpt lat="38.584502" lon="-6.356399">
        <ele>400.682</ele>
        <time>2021-10-12T14:04:04Z</time>
      </trkpt>
      <trkpt lat="38.584765" lon="-6.356456">
        <ele>399.181</ele>
        <time>2021-10-12T14:04:05Z</time>
      </trkpt>
      <trkpt lat="38.585028" lon="-6.356512">
        <ele>398.431</ele>
        <time>2021-10-12T14:04:06Z</time>
      </trkpt>
      <trkpt lat="38.585547" lon="-6.356640">
        <ele>397.092</ele>
        <time>2021-10-12T14:04:08Z</time>
      </trkpt>
      <trkpt lat="38.586073" lon="-6.356821">
        <ele>398.969</ele>
        <time>2021-10-12T14:04:10Z</time>
      </trkpt>
      <trkpt lat="38.586341" lon="-6.356945">
        <ele>399.804</ele>
        <time>2021-10-12T14:04:11Z</time>
      </trkpt>
      <trkpt lat="38.586607" lon="-6.357071">
        <ele>398.324</ele>
        <time>2021-10-12T14:04:12Z</time>
      </trkpt>
      <trkpt lat="38.587147" lon="-6.357309">
        <ele>396.108</ele>
        <time>2021-10-12T14:04:14Z</time>
      </trkpt>
      <trkpt lat="38.587422" lon="-6.357424">
        <ele>397.414</ele>
        <time>2021-10-12T14:04:15Z</time>
      </trkpt>
      <trkpt lat="38.587697" lon="-6.357531">
        <ele>398.022</ele>
        <time>2021-10-12T14:04:16Z</time>
      </trkpt>
      <trkpt lat="38.588247" lon="-6.357746">
        <ele>398.968</ele>
        <time>2021-10-12T14:04:18Z</time>
      </trkpt>
      <trkpt lat="38.588801" lon="-6.357964">
        <ele>395.451</ele>
        <time>2021-10-12T14:04:20Z</time>
      </trkpt>
      <trkpt lat="38.589079" lon="-6.358074">
        <ele>395.897</ele>
        <time>2021-10-12T14:04:21Z</time>
      </trkpt>
      <trkpt lat="38.589356" lon="-6.358177">
        <ele>395.556</ele>
        <time>2021-10-12T14:04:22Z</time>
      </trkpt>
      <trkpt lat="38.589918" lon="-6.358389">
        <ele>395.236</ele>
        <time>2021-10-12T14:04:24Z</time>
      </trkpt>
      <trkpt lat="38.590494" lon="-6.358612">
        <ele>393.727</ele>
        <time>2021-10-12T14:04:26Z</time>
      </trkpt>
      <trkpt lat="38.591041" lon="-6.358827">
        <ele>393.786</ele>
        <time>2021-10-12T14:04:28Z</time>
      </trkpt>
      <trkpt lat="38.591600" lon="-6.359050">
        <ele>394.360</ele>
        <time>2021-10-12T14:04:30Z</time>
      </trkpt>
      <trkpt lat="38.591876" lon="-6.359160">
        <ele>391.026</ele>
        <time>2021-10-12T14:04:31Z</time>
      </trkpt>
      <trkpt lat="38.592158" lon="-6.359271">
        <ele>390.308</ele>
        <time>2021-10-12T14:04:32Z</time>
      </trkpt>
      <trkpt lat="38.592657" lon="-6.359466">
        <ele>395.276</ele>
        <time>2021-10-12T14:04:34Z</time>
      </trkpt>
      <trkpt lat="38.592904" lon="-6.359563">
        <ele>396.224</ele>
        <time>2021-10-12T14:04:35Z</time>
      </trkpt>
      <trkpt lat="38.593146" lon="-6.359663">
        <ele>396.350</ele>
        <time>2021-10-12T14:04:36Z</time>
      </trkpt>
      <trkpt lat="38.593630" lon="-6.359863">
        <ele>395.943</ele>
        <time>2021-10-12T14:04:38Z</time>
      </trkpt>
      <trkpt lat="38.594112" lon="-6.360056">
        <ele>394.029</ele>
        <time>2021-10-12T14:04:40Z</time>
      </trkpt>
      <trkpt lat="38.594604" lon="-6.360249">
        <ele>392.488</ele>
        <time>2021-10-12T14:04:42Z</time>
      </trkpt>
      <trkpt lat="38.594852" lon="-6.360354">
        <ele>392.328</ele>
        <time>2021-10-12T14:04:43Z</time>
      </trkpt>
      <trkpt lat="38.595354" lon="-6.360561">
        <ele>392.079</ele>
        <time>2021-10-12T14:04:45Z</time>
      </trkpt>
      <trkpt lat="38.595612" lon="-6.360664">
        <ele>392.215</ele>
        <time>2021-10-12T14:04:46Z</time>
      </trkpt>
      <trkpt lat="38.595871" lon="-6.360767">
        <ele>391.565</ele>
        <time>2021-10-12T14:04:47Z</time>
      </trkpt>
      <trkpt lat="38.596395" lon="-6.360984">
        <ele>390.611</ele>
        <time>2021-10-12T14:04:49Z</time>
      </trkpt>
      <trkpt lat="38.596913" lon="-6.361203">
        <ele>392.908</ele>
        <time>2021-10-12T14:04:51Z</time>
      </trkpt>
      <trkpt lat="38.597433" lon="-6.361417">
        <ele>395.049</ele>
        <time>2021-10-12T14:04:53Z</time>
      </trkpt>
      <trkpt lat="38.597703" lon="-6.361532">
        <ele>394.697</ele>
        <time>2021-10-12T14:04:54Z</time>
      </trkpt>
      <trkpt lat="38.598261" lon="-6.361773">
        <ele>392.173</ele>
        <time>2021-10-12T14:04:56Z</time>
      </trkpt>
      <trkpt lat="38.598820" lon="-6.361995">
        <ele>391.076</ele>
        <time>2021-10-12T14:04:58Z</time>
      </trkpt>
      <trkpt lat="38.599407" lon="-6.362232">
        <ele>391.192</ele>
        <time>2021-10-12T14:05:00Z</time>
      </trkpt>
      <trkpt lat="38.600007" lon="-6.362476">
        <ele>390.081</ele>
        <time>2021-10-12T14:05:02Z</time>
      </trkpt>
      <trkpt lat="38.600570" lon="-6.362675">
        <ele>391.921</ele>
        <time>2021-10-12T14:05:04Z</time>
      </trkpt>
      <trkpt lat="38.600866" lon="-6.362738">
        <ele>390.242</ele>
        <time>2021-10-12T14:05:05Z</time>
      </trkpt>
      <trkpt lat="38.601161" lon="-6.362758">
        <ele>389.435</ele>
        <time>2021-10-12T14:05:06Z</time>
      </trkpt>
      <trkpt lat="38.601713" lon="-6.362800">
        <ele>390.286</ele>
        <time>2021-10-12T14:05:08Z</time>
      </trkpt>
      <trkpt lat="38.601981" lon="-6.362834">
        <ele>390.814</ele>
        <time>2021-10-12T14:05:09Z</time>
      </trkpt>
      <trkpt lat="38.602248" lon="-6.362878">
        <ele>390.908</ele>
        <time>2021-10-12T14:05:10Z</time>
      </trkpt>
      <trkpt lat="38.602521" lon="-6.362911">
        <ele>389.441</ele>
        <time>2021-10-12T14:05:11Z</time>
      </trkpt>
      <trkpt lat="38.603078" lon="-6.362913">
        <ele>389.279</ele>
        <time>2021-10-12T14:05:13Z</time>
      </trkpt>
      <trkpt lat="38.603359" lon="-6.362874">
        <ele>390.645</ele>
        <time>2021-10-12T14:05:14Z</time>
      </trkpt>
      <trkpt lat="38.603640" lon="-6.362833">
        <ele>389.598</ele>
        <time>2021-10-12T14:05:15Z</time>
      </trkpt>
      <trkpt lat="38.604200" lon="-6.362775">
        <ele>385.644</ele>
        <time>2021-10-12T14:05:17Z</time>
      </trkpt>
      <trkpt lat="38.604479" lon="-6.362759">
        <ele>383.233</ele>
        <time>2021-10-12T14:05:18Z</time>
      </trkpt>
      <trkpt lat="38.605036" lon="-6.362740">
        <ele>383.873</ele>
        <time>2021-10-12T14:05:20Z</time>
      </trkpt>
      <trkpt lat="38.605592" lon="-6.362718">
        <ele>384.274</ele>
        <time>2021-10-12T14:05:22Z</time>
      </trkpt>
      <trkpt lat="38.605870" lon="-6.362706">
        <ele>383.163</ele>
        <time>2021-10-12T14:05:23Z</time>
      </trkpt>
      <trkpt lat="38.606149" lon="-6.362692">
        <ele>382.444</ele>
        <time>2021-10-12T14:05:24Z</time>
      </trkpt>
      <trkpt lat="38.606427" lon="-6.362674">
        <ele>382.318</ele>
        <time>2021-10-12T14:05:25Z</time>
      </trkpt>
      <trkpt lat="38.606714" lon="-6.362656">
        <ele>382.108</ele>
        <time>2021-10-12T14:05:26Z</time>
      </trkpt>
      <trkpt lat="38.607243" lon="-6.362634">
        <ele>385.084</ele>
        <time>2021-10-12T14:05:28Z</time>
      </trkpt>
      <trkpt lat="38.607514" lon="-6.362628">
        <ele>385.872</ele>
        <time>2021-10-12T14:05:29Z</time>
      </trkpt>
      <trkpt lat="38.607780" lon="-6.362616">
        <ele>384.488</ele>
        <time>2021-10-12T14:05:30Z</time>
      </trkpt>
      <trkpt lat="38.608309" lon="-6.362593">
        <ele>383.391</ele>
        <time>2021-10-12T14:05:32Z</time>
      </trkpt>
      <trkpt lat="38.608789" lon="-6.362569">
        <ele>384.287</ele>
        <time>2021-10-12T14:05:34Z</time>
      </trkpt>
      <trkpt lat="38.609272" lon="-6.362553">
        <ele>382.656</ele>
        <time>2021-10-12T14:05:36Z</time>
      </trkpt>
      <trkpt lat="38.609516" lon="-6.362542">
        <ele>381.046</ele>
        <time>2021-10-12T14:05:37Z</time>
      </trkpt>
      <trkpt lat="38.610011" lon="-6.362519">
        <ele>381.027</ele>
        <time>2021-10-12T14:05:39Z</time>
      </trkpt>
      <trkpt lat="38.610261" lon="-6.362509">
        <ele>381.995</ele>
        <time>2021-10-12T14:05:40Z</time>
      </trkpt>
      <trkpt lat="38.610761" lon="-6.362497">
        <ele>380.849</ele>
        <time>2021-10-12T14:05:42Z</time>
      </trkpt>
      <trkpt lat="38.611259" lon="-6.362472">
        <ele>380.123</ele>
        <time>2021-10-12T14:05:44Z</time>
      </trkpt>
      <trkpt lat="38.611496" lon="-6.362460">
        <ele>380.508</ele>
        <time>2021-10-12T14:05:45Z</time>
      </trkpt>
      <trkpt lat="38.611947" lon="-6.362447">
        <ele>381.877</ele>
        <time>2021-10-12T14:05:47Z</time>
      </trkpt>
      <trkpt lat="38.612370" lon="-6.362436">
        <ele>382.165</ele>
        <time>2021-10-12T14:05:49Z</time>
      </trkpt>
      <trkpt lat="38.612784" lon="-6.362426">
        <ele>379.721</ele>
        <time>2021-10-12T14:05:51Z</time>
      </trkpt>
      <trkpt lat="38.613003" lon="-6.362415">
        <ele>379.724</ele>
        <time>2021-10-12T14:05:52Z</time>
      </trkpt>
      <trkpt lat="38.613223" lon="-6.362404">
        <ele>380.330</ele>
        <time>2021-10-12T14:05:53Z</time>
      </trkpt>
      <trkpt lat="38.613671" lon="-6.362382">
        <ele>381.569</ele>
        <time>2021-10-12T14:05:55Z</time>
      </trkpt>
      <trkpt lat="38.613906" lon="-6.362360">
        <ele>382.039</ele>
        <time>2021-10-12T14:05:56Z</time>
      </trkpt>
      <trkpt lat="38.614387" lon="-6.362325">
        <ele>380.870</ele>
        <time>2021-10-12T14:05:58Z</time>
      </trkpt>
      <trkpt lat="38.614884" lon="-6.362321">
        <ele>378.473</ele>
        <time>2021-10-12T14:06:00Z</time>
      </trkpt>
      <trkpt lat="38.615383" lon="-6.362342">
        <ele>376.785</ele>
        <time>2021-10-12T14:06:02Z</time>
      </trkpt>
      <trkpt lat="38.615826" lon="-6.362384">
        <ele>375.013</ele>
        <time>2021-10-12T14:06:04Z</time>
      </trkpt>
      <trkpt lat="38.616049" lon="-6.362420">
        <ele>374.208</ele>
        <time>2021-10-12T14:06:05Z</time>
      </trkpt>
      <trkpt lat="38.616454" lon="-6.362499">
        <ele>374.285</ele>
        <time>2021-10-12T14:06:07Z</time>
      </trkpt>
      <trkpt lat="38.616875" lon="-6.362587">
        <ele>374.873</ele>
        <time>2021-10-12T14:06:09Z</time>
      </trkpt>
      <trkpt lat="38.617095" lon="-6.362630">
        <ele>374.749</ele>
        <time>2021-10-12T14:06:10Z</time>
      </trkpt>
      <trkpt lat="38.617557" lon="-6.362726">
        <ele>376.782</ele>
        <time>2021-10-12T14:06:12Z</time>
      </trkpt>
      <trkpt lat="38.618036" lon="-6.362862">
        <ele>376.438</ele>
        <time>2021-10-12T14:06:14Z</time>
      </trkpt>
      <trkpt lat="38.618279" lon="-6.362957">
        <ele>375.657</ele>
        <time>2021-10-12T14:06:15Z</time>
      </trkpt>
      <trkpt lat="38.618767" lon="-6.363173">
        <ele>377.067</ele>
        <time>2021-10-12T14:06:17Z</time>
      </trkpt>
      <trkpt lat="38.619263" lon="-6.363406">
        <ele>378.318</ele>
        <time>2021-10-12T14:06:19Z</time>
      </trkpt>
      <trkpt lat="38.619517" lon="-6.363522">
        <ele>378.295</ele>
        <time>2021-10-12T14:06:20Z</time>
      </trkpt>
      <trkpt lat="38.620032" lon="-6.363736">
        <ele>375.549</ele>
        <time>2021-10-12T14:06:22Z</time>
      </trkpt>
      <trkpt lat="38.620564" lon="-6.363952">
        <ele>375.023</ele>
        <time>2021-10-12T14:06:24Z</time>
      </trkpt>
      <trkpt lat="38.621107" lon="-6.364174">
        <ele>376.008</ele>
        <time>2021-10-12T14:06:26Z</time>
      </trkpt>
      <trkpt lat="38.621636" lon="-6.364390">
        <ele>375.957</ele>
        <time>2021-10-12T14:06:28Z</time>
      </trkpt>
      <trkpt lat="38.622180" lon="-6.364613">
        <ele>376.575</ele>
        <time>2021-10-12T14:06:30Z</time>
      </trkpt>
      <trkpt lat="38.622456" lon="-6.364726">
        <ele>377.071</ele>
        <time>2021-10-12T14:06:31Z</time>
      </trkpt>
      <trkpt lat="38.622742" lon="-6.364843">
        <ele>374.044</ele>
        <time>2021-10-12T14:06:32Z</time>
      </trkpt>
      <trkpt lat="38.623271" lon="-6.365059">
        <ele>371.090</ele>
        <time>2021-10-12T14:06:34Z</time>
      </trkpt>
      <trkpt lat="38.623815" lon="-6.365275">
        <ele>371.579</ele>
        <time>2021-10-12T14:06:36Z</time>
      </trkpt>
      <trkpt lat="38.624088" lon="-6.365382">
        <ele>371.389</ele>
        <time>2021-10-12T14:06:37Z</time>
      </trkpt>
      <trkpt lat="38.624368" lon="-6.365492">
        <ele>369.760</ele>
        <time>2021-10-12T14:06:38Z</time>
      </trkpt>
      <trkpt lat="38.624908" lon="-6.365706">
        <ele>366.293</ele>
        <time>2021-10-12T14:06:40Z</time>
      </trkpt>
      <trkpt lat="38.625457" lon="-6.365925">
        <ele>363.265</ele>
        <time>2021-10-12T14:06:42Z</time>
      </trkpt>
      <trkpt lat="38.625730" lon="-6.366034">
        <ele>363.621</ele>
        <time>2021-10-12T14:06:43Z</time>
      </trkpt>
      <trkpt lat="38.626004" lon="-6.366149">
        <ele>364.108</ele>
        <time>2021-10-12T14:06:44Z</time>
      </trkpt>
      <trkpt lat="38.626534" lon="-6.366368">
        <ele>364.997</ele>
        <time>2021-10-12T14:06:46Z</time>
      </trkpt>
      <trkpt lat="38.627066" lon="-6.366586">
        <ele>366.725</ele>
        <time>2021-10-12T14:06:48Z</time>
      </trkpt>
      <trkpt lat="38.627582" lon="-6.366792">
        <ele>366.031</ele>
        <time>2021-10-12T14:06:50Z</time>
      </trkpt>
      <trkpt lat="38.628039" lon="-6.366975">
        <ele>365.994</ele>
        <time>2021-10-12T14:06:52Z</time>
      </trkpt>
      <trkpt lat="38.628467" lon="-6.367146">
        <ele>364.080</ele>
        <time>2021-10-12T14:06:54Z</time>
      </trkpt>
      <trkpt lat="38.628930" lon="-6.367340">
        <ele>365.659</ele>
        <time>2021-10-12T14:06:56Z</time>
      </trkpt>
      <trkpt lat="38.629379" lon="-6.367519">
        <ele>367.829</ele>
        <time>2021-10-12T14:06:58Z</time>
      </trkpt>
      <trkpt lat="38.629860" lon="-6.367707">
        <ele>370.130</ele>
        <time>2021-10-12T14:07:00Z</time>
      </trkpt>
      <trkpt lat="38.630105" lon="-6.367800">
        <ele>371.197</ele>
        <time>2021-10-12T14:07:01Z</time>
      </trkpt>
      <trkpt lat="38.630361" lon="-6.367904">
        <ele>371.223</ele>
        <time>2021-10-12T14:07:02Z</time>
      </trkpt>
      <trkpt lat="38.630842" lon="-6.368106">
        <ele>368.925</ele>
        <time>2021-10-12T14:07:04Z</time>
      </trkpt>
      <trkpt lat="38.631351" lon="-6.368314">
        <ele>366.908</ele>
        <time>2021-10-12T14:07:06Z</time>
      </trkpt>
      <trkpt lat="38.631612" lon="-6.368412">
        <ele>367.997</ele>
        <time>2021-10-12T14:07:07Z</time>
      </trkpt>
      <trkpt lat="38.631880" lon="-6.368513">
        <ele>368.765</ele>
        <time>2021-10-12T14:07:08Z</time>
      </trkpt>
      <trkpt lat="38.632404" lon="-6.368728">
        <ele>368.411</ele>
        <time>2021-10-12T14:07:10Z</time>
      </trkpt>
      <trkpt lat="38.632936" lon="-6.368969">
        <ele>368.724</ele>
        <time>2021-10-12T14:07:12Z</time>
      </trkpt>
      <trkpt lat="38.633205" lon="-6.369083">
        <ele>368.190</ele>
        <time>2021-10-12T14:07:13Z</time>
      </trkpt>
      <trkpt lat="38.633478" lon="-6.369198">
        <ele>367.999</ele>
        <time>2021-10-12T14:07:14Z</time>
      </trkpt>
      <trkpt lat="38.633999" lon="-6.369406">
        <ele>367.919</ele>
        <time>2021-10-12T14:07:16Z</time>
      </trkpt>
      <trkpt lat="38.634521" lon="-6.369613">
        <ele>366.960</ele>
        <time>2021-10-12T14:07:18Z</time>
      </trkpt>
      <trkpt lat="38.635054" lon="-6.369824">
        <ele>366.921</ele>
        <time>2021-10-12T14:07:20Z</time>
      </trkpt>
      <trkpt lat="38.635502" lon="-6.370004">
        <ele>368.041</ele>
        <time>2021-10-12T14:07:22Z</time>
      </trkpt>
      <trkpt lat="38.635737" lon="-6.370099">
        <ele>366.905</ele>
        <time>2021-10-12T14:07:23Z</time>
      </trkpt>
      <trkpt lat="38.635975" lon="-6.370195">
        <ele>366.308</ele>
        <time>2021-10-12T14:07:24Z</time>
      </trkpt>
      <trkpt lat="38.636481" lon="-6.370398">
        <ele>367.050</ele>
        <time>2021-10-12T14:07:26Z</time>
      </trkpt>
      <trkpt lat="38.636981" lon="-6.370608">
        <ele>368.738</ele>
        <time>2021-10-12T14:07:28Z</time>
      </trkpt>
      <trkpt lat="38.637504" lon="-6.370806">
        <ele>367.014</ele>
        <time>2021-10-12T14:07:30Z</time>
      </trkpt>
      <trkpt lat="38.637772" lon="-6.370906">
        <ele>367.787</ele>
        <time>2021-10-12T14:07:31Z</time>
      </trkpt>
      <trkpt lat="38.638053" lon="-6.371018">
        <ele>367.753</ele>
        <time>2021-10-12T14:07:32Z</time>
      </trkpt>
      <trkpt lat="38.638560" lon="-6.371221">
        <ele>369.482</ele>
        <time>2021-10-12T14:07:34Z</time>
      </trkpt>
      <trkpt lat="38.638813" lon="-6.371322">
        <ele>369.462</ele>
        <time>2021-10-12T14:07:35Z</time>
      </trkpt>
      <trkpt lat="38.639310" lon="-6.371525">
        <ele>369.053</ele>
        <time>2021-10-12T14:07:37Z</time>
      </trkpt>
      <trkpt lat="38.639566" lon="-6.371631">
        <ele>369.935</ele>
        <time>2021-10-12T14:07:38Z</time>
      </trkpt>
      <trkpt lat="38.640071" lon="-6.371840">
        <ele>370.086</ele>
        <time>2021-10-12T14:07:40Z</time>
      </trkpt>
      <trkpt lat="38.640328" lon="-6.371951">
        <ele>369.814</ele>
        <time>2021-10-12T14:07:41Z</time>
      </trkpt>
      <trkpt lat="38.640588" lon="-6.372057">
        <ele>369.408</ele>
        <time>2021-10-12T14:07:42Z</time>
      </trkpt>
      <trkpt lat="38.641117" lon="-6.372262">
        <ele>370.041</ele>
        <time>2021-10-12T14:07:44Z</time>
      </trkpt>
      <trkpt lat="38.641634" lon="-6.372471">
        <ele>369.119</ele>
        <time>2021-10-12T14:07:46Z</time>
      </trkpt>
      <trkpt lat="38.641902" lon="-6.372582">
        <ele>368.175</ele>
        <time>2021-10-12T14:07:47Z</time>
      </trkpt>
      <trkpt lat="38.642430" lon="-6.372800">
        <ele>370.678</ele>
        <time>2021-10-12T14:07:49Z</time>
      </trkpt>
      <trkpt lat="38.642696" lon="-6.372909">
        <ele>372.224</ele>
        <time>2021-10-12T14:07:50Z</time>
      </trkpt>
      <trkpt lat="38.643182" lon="-6.373106">
        <ele>371.563</ele>
        <time>2021-10-12T14:07:52Z</time>
      </trkpt>
      <trkpt lat="38.643640" lon="-6.373282">
        <ele>370.213</ele>
        <time>2021-10-12T14:07:54Z</time>
      </trkpt>
      <trkpt lat="38.643859" lon="-6.373368">
        <ele>369.894</ele>
        <time>2021-10-12T14:07:55Z</time>
      </trkpt>
      <trkpt lat="38.644062" lon="-6.373449">
        <ele>370.168</ele>
        <time>2021-10-12T14:07:56Z</time>
      </trkpt>
      <trkpt lat="38.644458" lon="-6.373615">
        <ele>371.042</ele>
        <time>2021-10-12T14:07:58Z</time>
      </trkpt>
      <trkpt lat="38.644894" lon="-6.373795">
        <ele>371.726</ele>
        <time>2021-10-12T14:08:00Z</time>
      </trkpt>
      <trkpt lat="38.645125" lon="-6.373885">
        <ele>372.008</ele>
        <time>2021-10-12T14:08:01Z</time>
      </trkpt>
      <trkpt lat="38.645367" lon="-6.373974">
        <ele>372.224</ele>
        <time>2021-10-12T14:08:02Z</time>
      </trkpt>
      <trkpt lat="38.645809" lon="-6.374148">
        <ele>373.022</ele>
        <time>2021-10-12T14:08:04Z</time>
      </trkpt>
      <trkpt lat="38.646252" lon="-6.374330">
        <ele>372.328</ele>
        <time>2021-10-12T14:08:06Z</time>
      </trkpt>
      <trkpt lat="38.646474" lon="-6.374419">
        <ele>371.871</ele>
        <time>2021-10-12T14:08:07Z</time>
      </trkpt>
      <trkpt lat="38.646695" lon="-6.374513">
        <ele>371.137</ele>
        <time>2021-10-12T14:08:08Z</time>
      </trkpt>
      <trkpt lat="38.647128" lon="-6.374686">
        <ele>373.316</ele>
        <time>2021-10-12T14:08:10Z</time>
      </trkpt>
      <trkpt lat="38.647346" lon="-6.374773">
        <ele>373.676</ele>
        <time>2021-10-12T14:08:11Z</time>
      </trkpt>
      <trkpt lat="38.647567" lon="-6.374861">
        <ele>373.017</ele>
        <time>2021-10-12T14:08:12Z</time>
      </trkpt>
      <trkpt lat="38.648012" lon="-6.375042">
        <ele>372.579</ele>
        <time>2021-10-12T14:08:14Z</time>
      </trkpt>
      <trkpt lat="38.648442" lon="-6.375220">
        <ele>372.805</ele>
        <time>2021-10-12T14:08:16Z</time>
      </trkpt>
      <trkpt lat="38.648662" lon="-6.375312">
        <ele>373.325</ele>
        <time>2021-10-12T14:08:17Z</time>
      </trkpt>
      <trkpt lat="38.648880" lon="-6.375407">
        <ele>374.408</ele>
        <time>2021-10-12T14:08:18Z</time>
      </trkpt>
      <trkpt lat="38.649320" lon="-6.375596">
        <ele>374.965</ele>
        <time>2021-10-12T14:08:20Z</time>
      </trkpt>
      <trkpt lat="38.649748" lon="-6.375770">
        <ele>373.123</ele>
        <time>2021-10-12T14:08:22Z</time>
      </trkpt>
      <trkpt lat="38.649972" lon="-6.375862">
        <ele>371.319</ele>
        <time>2021-10-12T14:08:23Z</time>
      </trkpt>
      <trkpt lat="38.650203" lon="-6.375952">
        <ele>370.732</ele>
        <time>2021-10-12T14:08:24Z</time>
      </trkpt>
      <trkpt lat="38.650672" lon="-6.376132">
        <ele>372.588</ele>
        <time>2021-10-12T14:08:26Z</time>
      </trkpt>
      <trkpt lat="38.651143" lon="-6.376325">
        <ele>372.537</ele>
        <time>2021-10-12T14:08:28Z</time>
      </trkpt>
      <trkpt lat="38.651381" lon="-6.376426">
        <ele>370.367</ele>
        <time>2021-10-12T14:08:29Z</time>
      </trkpt>
      <trkpt lat="38.651614" lon="-6.376530">
        <ele>371.488</ele>
        <time>2021-10-12T14:08:30Z</time>
      </trkpt>
      <trkpt lat="38.651845" lon="-6.376632">
        <ele>372.555</ele>
        <time>2021-10-12T14:08:31Z</time>
      </trkpt>
      <trkpt lat="38.652084" lon="-6.376732">
        <ele>373.007</ele>
        <time>2021-10-12T14:08:32Z</time>
      </trkpt>
      <trkpt lat="38.652519" lon="-6.376899">
        <ele>372.917</ele>
        <time>2021-10-12T14:08:34Z</time>
      </trkpt>
      <trkpt lat="38.652735" lon="-6.376986">
        <ele>372.408</ele>
        <time>2021-10-12T14:08:35Z</time>
      </trkpt>
      <trkpt lat="38.653145" lon="-6.377146">
        <ele>373.673</ele>
        <time>2021-10-12T14:08:37Z</time>
      </trkpt>
      <trkpt lat="38.653334" lon="-6.377216">
        <ele>374.061</ele>
        <time>2021-10-12T14:08:38Z</time>
      </trkpt>
      <trkpt lat="38.653696" lon="-6.377348">
        <ele>373.187</ele>
        <time>2021-10-12T14:08:40Z</time>
      </trkpt>
      <trkpt lat="38.653878" lon="-6.377411">
        <ele>373.730</ele>
        <time>2021-10-12T14:08:41Z</time>
      </trkpt>
      <trkpt lat="38.654048" lon="-6.377471">
        <ele>374.546</ele>
        <time>2021-10-12T14:08:42Z</time>
      </trkpt>
      <trkpt lat="38.654390" lon="-6.377605">
        <ele>375.795</ele>
        <time>2021-10-12T14:08:44Z</time>
      </trkpt>
      <trkpt lat="38.654722" lon="-6.377773">
        <ele>378.075</ele>
        <time>2021-10-12T14:08:46Z</time>
      </trkpt>
      <trkpt lat="38.654894" lon="-6.377888">
        <ele>378.076</ele>
        <time>2021-10-12T14:08:47Z</time>
      </trkpt>
      <trkpt lat="38.655219" lon="-6.378137">
        <ele>376.437</ele>
        <time>2021-10-12T14:08:49Z</time>
      </trkpt>
      <trkpt lat="38.655389" lon="-6.378263">
        <ele>376.049</ele>
        <time>2021-10-12T14:08:50Z</time>
      </trkpt>
      <trkpt lat="38.655725" lon="-6.378453">
        <ele>377.213</ele>
        <time>2021-10-12T14:08:52Z</time>
      </trkpt>
      <trkpt lat="38.655911" lon="-6.378517">
        <ele>377.808</ele>
        <time>2021-10-12T14:08:53Z</time>
      </trkpt>
      <trkpt lat="38.656316" lon="-6.378602">
        <ele>376.541</ele>
        <time>2021-10-12T14:08:55Z</time>
      </trkpt>
      <trkpt lat="38.656539" lon="-6.378637">
        <ele>376.139</ele>
        <time>2021-10-12T14:08:56Z</time>
      </trkpt>
      <trkpt lat="38.656969" lon="-6.378719">
        <ele>375.275</ele>
        <time>2021-10-12T14:08:58Z</time>
      </trkpt>
      <trkpt lat="38.657196" lon="-6.378782">
        <ele>373.648</ele>
        <time>2021-10-12T14:08:59Z</time>
      </trkpt>
      <trkpt lat="38.657637" lon="-6.378899">
        <ele>373.594</ele>
        <time>2021-10-12T14:09:01Z</time>
      </trkpt>
      <trkpt lat="38.657855" lon="-6.378937">
        <ele>373.793</ele>
        <time>2021-10-12T14:09:02Z</time>
      </trkpt>
      <trkpt lat="38.658235" lon="-6.378945">
        <ele>373.083</ele>
        <time>2021-10-12T14:09:04Z</time>
      </trkpt>
      <trkpt lat="38.658612" lon="-6.378875">
        <ele>375.034</ele>
        <time>2021-10-12T14:09:06Z</time>
      </trkpt>
      <trkpt lat="38.659008" lon="-6.378758">
        <ele>377.371</ele>
        <time>2021-10-12T14:09:08Z</time>
      </trkpt>
      <trkpt lat="38.659396" lon="-6.378608">
        <ele>377.041</ele>
        <time>2021-10-12T14:09:10Z</time>
      </trkpt>
      <trkpt lat="38.659793" lon="-6.378436">
        <ele>376.715</ele>
        <time>2021-10-12T14:09:12Z</time>
      </trkpt>
      <trkpt lat="38.659980" lon="-6.378349">
        <ele>376.108</ele>
        <time>2021-10-12T14:09:13Z</time>
      </trkpt>
      <trkpt lat="38.660163" lon="-6.378272">
        <ele>375.945</ele>
        <time>2021-10-12T14:09:14Z</time>
      </trkpt>
      <trkpt lat="38.660489" lon="-6.378165">
        <ele>375.523</ele>
        <time>2021-10-12T14:09:16Z</time>
      </trkpt>
      <trkpt lat="38.660784" lon="-6.378128">
        <ele>375.749</ele>
        <time>2021-10-12T14:09:18Z</time>
      </trkpt>
      <trkpt lat="38.660919" lon="-6.378137">
        <ele>375.832</ele>
        <time>2021-10-12T14:09:19Z</time>
      </trkpt>
      <trkpt lat="38.661052" lon="-6.378171">
        <ele>375.938</ele>
        <time>2021-10-12T14:09:20Z</time>
      </trkpt>
      <trkpt lat="38.661327" lon="-6.378293">
        <ele>376.817</ele>
        <time>2021-10-12T14:09:22Z</time>
      </trkpt>
      <trkpt lat="38.661611" lon="-6.378446">
        <ele>375.847</ele>
        <time>2021-10-12T14:09:24Z</time>
      </trkpt>
      <trkpt lat="38.661747" lon="-6.378528">
        <ele>375.158</ele>
        <time>2021-10-12T14:09:25Z</time>
      </trkpt>
      <trkpt lat="38.661893" lon="-6.378628">
        <ele>375.154</ele>
        <time>2021-10-12T14:09:26Z</time>
      </trkpt>
      <trkpt lat="38.662174" lon="-6.378883">
        <ele>376.156</ele>
        <time>2021-10-12T14:09:28Z</time>
      </trkpt>
      <trkpt lat="38.662444" lon="-6.379242">
        <ele>376.011</ele>
        <time>2021-10-12T14:09:30Z</time>
      </trkpt>
      <trkpt lat="38.662709" lon="-6.379550">
        <ele>375.308</ele>
        <time>2021-10-12T14:09:32Z</time>
      </trkpt>
      <trkpt lat="38.662943" lon="-6.379812">
        <ele>373.693</ele>
        <time>2021-10-12T14:09:34Z</time>
      </trkpt>
      <trkpt lat="38.663154" lon="-6.380037">
        <ele>373.541</ele>
        <time>2021-10-12T14:09:36Z</time>
      </trkpt>
      <trkpt lat="38.663245" lon="-6.380130">
        <ele>373.467</ele>
        <time>2021-10-12T14:09:37Z</time>
      </trkpt>
      <trkpt lat="38.663330" lon="-6.380216">
        <ele>373.690</ele>
        <time>2021-10-12T14:09:38Z</time>
      </trkpt>
      <trkpt lat="38.663471" lon="-6.380350">
        <ele>374.046</ele>
        <time>2021-10-12T14:09:40Z</time>
      </trkpt>
      <trkpt lat="38.663530" lon="-6.380400">
        <ele>374.295</ele>
        <time>2021-10-12T14:09:41Z</time>
      </trkpt>
      <trkpt lat="38.663601" lon="-6.380445">
        <ele>374.215</ele>
        <time>2021-10-12T14:09:42Z</time>
      </trkpt>
      <trkpt lat="38.663794" lon="-6.380495">
        <ele>374.276</ele>
        <time>2021-10-12T14:09:44Z</time>
      </trkpt>
      <trkpt lat="38.664010" lon="-6.380450">
        <ele>373.772</ele>
        <time>2021-10-12T14:09:46Z</time>
      </trkpt>
      <trkpt lat="38.664112" lon="-6.380437">
        <ele>373.513</ele>
        <time>2021-10-12T14:09:47Z</time>
      </trkpt>
      <trkpt lat="38.664276" lon="-6.380508">
        <ele>373.114</ele>
        <time>2021-10-12T14:09:49Z</time>
      </trkpt>
      <trkpt lat="38.664328" lon="-6.380601">
        <ele>373.108</ele>
        <time>2021-10-12T14:09:50Z</time>
      </trkpt>
      <trkpt lat="38.664352" lon="-6.380916">
        <ele>373.315</ele>
        <time>2021-10-12T14:09:52Z</time>
      </trkpt>
      <trkpt lat="38.664373" lon="-6.381237">
        <ele>373.373</ele>
        <time>2021-10-12T14:09:54Z</time>
      </trkpt>
      <trkpt lat="38.664507" lon="-6.381515">
        <ele>373.229</ele>
        <time>2021-10-12T14:09:56Z</time>
      </trkpt>
      <trkpt lat="38.664749" lon="-6.381778">
        <ele>374.952</ele>
        <time>2021-10-12T14:09:58Z</time>
      </trkpt>
      <trkpt lat="38.665106" lon="-6.382090">
        <ele>376.548</ele>
        <time>2021-10-12T14:10:00Z</time>
      </trkpt>
      <trkpt lat="38.665491" lon="-6.382440">
        <ele>377.057</ele>
        <time>2021-10-12T14:10:02Z</time>
      </trkpt>
      <trkpt lat="38.665845" lon="-6.382775">
        <ele>374.967</ele>
        <time>2021-10-12T14:10:04Z</time>
      </trkpt>
      <trkpt lat="38.666019" lon="-6.382942">
        <ele>373.718</ele>
        <time>2021-10-12T14:10:05Z</time>
      </trkpt>
      <trkpt lat="38.666188" lon="-6.383102">
        <ele>373.263</ele>
        <time>2021-10-12T14:10:06Z</time>
      </trkpt>
      <trkpt lat="38.666339" lon="-6.383245">
        <ele>373.744</ele>
        <time>2021-10-12T14:10:07Z</time>
      </trkpt>
      <trkpt lat="38.666493" lon="-6.383397">
        <ele>373.618</ele>
        <time>2021-10-12T14:10:08Z</time>
      </trkpt>
      <trkpt lat="38.666779" lon="-6.383683">
        <ele>372.608</ele>
        <time>2021-10-12T14:10:10Z</time>
      </trkpt>
      <trkpt lat="38.666924" lon="-6.383826">
        <ele>372.124</ele>
        <time>2021-10-12T14:10:11Z</time>
      </trkpt>
      <trkpt lat="38.667208" lon="-6.384098">
        <ele>371.182</ele>
        <time>2021-10-12T14:10:13Z</time>
      </trkpt>
      <trkpt lat="38.667349" lon="-6.384234">
        <ele>370.328</ele>
        <time>2021-10-12T14:10:14Z</time>
      </trkpt>
      <trkpt lat="38.667606" lon="-6.384492">
        <ele>369.051</ele>
        <time>2021-10-12T14:10:16Z</time>
      </trkpt>
      <trkpt lat="38.667848" lon="-6.384736">
        <ele>368.717</ele>
        <time>2021-10-12T14:10:18Z</time>
      </trkpt>
      <trkpt lat="38.668063" lon="-6.384946">
        <ele>368.066</ele>
        <time>2021-10-12T14:10:20Z</time>
      </trkpt>
      <trkpt lat="38.668225" lon="-6.385109">
        <ele>368.066</ele>
        <time>2021-10-12T14:10:22Z</time>
      </trkpt>
      <trkpt lat="38.668291" lon="-6.385177">
        <ele>368.077</ele>
        <time>2021-10-12T14:10:23Z</time>
      </trkpt>
      <trkpt lat="38.668351" lon="-6.385241">
        <ele>368.054</ele>
        <time>2021-10-12T14:10:24Z</time>
      </trkpt>
      <trkpt lat="38.668462" lon="-6.385352">
        <ele>368.156</ele>
        <time>2021-10-12T14:10:26Z</time>
      </trkpt>
      <trkpt lat="38.668586" lon="-6.385476">
        <ele>368.611</ele>
        <time>2021-10-12T14:10:28Z</time>
      </trkpt>
      <trkpt lat="38.668667" lon="-6.385557">
        <ele>369.008</ele>
        <time>2021-10-12T14:10:29Z</time>
      </trkpt>
      <trkpt lat="38.668835" lon="-6.385728">
        <ele>368.913</ele>
        <time>2021-10-12T14:10:31Z</time>
      </trkpt>
      <trkpt lat="38.668923" lon="-6.385817">
        <ele>369.171</ele>
        <time>2021-10-12T14:10:32Z</time>
      </trkpt>
      <trkpt lat="38.669068" lon="-6.385968">
        <ele>369.647</ele>
        <time>2021-10-12T14:10:34Z</time>
      </trkpt>
      <trkpt lat="38.669189" lon="-6.386097">
        <ele>370.040</ele>
        <time>2021-10-12T14:10:36Z</time>
      </trkpt>
      <trkpt lat="38.669281" lon="-6.386195">
        <ele>369.826</ele>
        <time>2021-10-12T14:10:38Z</time>
      </trkpt>
      <trkpt lat="38.669395" lon="-6.386296">
        <ele>369.935</ele>
        <time>2021-10-12T14:10:40Z</time>
      </trkpt>
      <trkpt lat="38.669516" lon="-6.386407">
        <ele>370.065</ele>
        <time>2021-10-12T14:10:42Z</time>
      </trkpt>
      <trkpt lat="38.669564" lon="-6.386457">
        <ele>369.916</ele>
        <time>2021-10-12T14:10:43Z</time>
      </trkpt>
      <trkpt lat="38.669608" lon="-6.386504">
        <ele>369.856</ele>
        <time>2021-10-12T14:10:44Z</time>
      </trkpt>
      <trkpt lat="38.669702" lon="-6.386605">
        <ele>369.959</ele>
        <time>2021-10-12T14:10:46Z</time>
      </trkpt>
      <trkpt lat="38.669822" lon="-6.386731">
        <ele>369.714</ele>
        <time>2021-10-12T14:10:48Z</time>
      </trkpt>
      <trkpt lat="38.669883" lon="-6.386796">
        <ele>369.608</ele>
        <time>2021-10-12T14:10:49Z</time>
      </trkpt>
      <trkpt lat="38.669952" lon="-6.386862">
        <ele>369.843</ele>
        <time>2021-10-12T14:10:50Z</time>
      </trkpt>
      <trkpt lat="38.670098" lon="-6.387002">
        <ele>369.971</ele>
        <time>2021-10-12T14:10:52Z</time>
      </trkpt>
      <trkpt lat="38.670178" lon="-6.387078">
        <ele>369.847</ele>
        <time>2021-10-12T14:10:53Z</time>
      </trkpt>
      <trkpt lat="38.670253" lon="-6.387154">
        <ele>369.960</ele>
        <time>2021-10-12T14:10:54Z</time>
      </trkpt>
      <trkpt lat="38.670395" lon="-6.387292">
        <ele>369.996</ele>
        <time>2021-10-12T14:10:56Z</time>
      </trkpt>
      <trkpt lat="38.670503" lon="-6.387390">
        <ele>369.545</ele>
        <time>2021-10-12T14:10:58Z</time>
      </trkpt>
      <trkpt lat="38.670546" lon="-6.387428">
        <ele>369.315</ele>
        <time>2021-10-12T14:10:59Z</time>
      </trkpt>
      <trkpt lat="38.670594" lon="-6.387469">
        <ele>369.096</ele>
        <time>2021-10-12T14:11:01Z</time>
      </trkpt>
      <trkpt lat="38.670635" lon="-6.387498">
        <ele>368.793</ele>
        <time>2021-10-12T14:11:04Z</time>
      </trkpt>
      <trkpt lat="38.670691" lon="-6.387503">
        <ele>368.565</ele>
        <time>2021-10-12T14:11:06Z</time>
      </trkpt>
      <trkpt lat="38.670761" lon="-6.387503">
        <ele>368.221</ele>
        <time>2021-10-12T14:11:07Z</time>
      </trkpt>
      <trkpt lat="38.670829" lon="-6.387508">
        <ele>368.008</ele>
        <time>2021-10-12T14:11:08Z</time>
      </trkpt>
      <trkpt lat="38.670981" lon="-6.387620">
        <ele>367.497</ele>
        <time>2021-10-12T14:11:10Z</time>
      </trkpt>
      <trkpt lat="38.671044" lon="-6.387729">
        <ele>367.095</ele>
        <time>2021-10-12T14:11:11Z</time>
      </trkpt>
      <trkpt lat="38.671182" lon="-6.387967">
        <ele>366.861</ele>
        <time>2021-10-12T14:11:13Z</time>
      </trkpt>
      <trkpt lat="38.671277" lon="-6.388087">
        <ele>367.114</ele>
        <time>2021-10-12T14:11:14Z</time>
      </trkpt>
      <trkpt lat="38.671502" lon="-6.388308">
        <ele>366.690</ele>
        <time>2021-10-12T14:11:16Z</time>
      </trkpt>
      <trkpt lat="38.671631" lon="-6.388427">
        <ele>366.549</ele>
        <time>2021-10-12T14:11:17Z</time>
      </trkpt>
      <trkpt lat="38.671872" lon="-6.388676">
        <ele>367.169</ele>
        <time>2021-10-12T14:11:19Z</time>
      </trkpt>
      <trkpt lat="38.671985" lon="-6.388791">
        <ele>366.820</ele>
        <time>2021-10-12T14:11:20Z</time>
      </trkpt>
      <trkpt lat="38.672222" lon="-6.389019">
        <ele>366.141</ele>
        <time>2021-10-12T14:11:22Z</time>
      </trkpt>
      <trkpt lat="38.672353" lon="-6.389140">
        <ele>366.181</ele>
        <time>2021-10-12T14:11:23Z</time>
      </trkpt>
      <trkpt lat="38.672486" lon="-6.389264">
        <ele>366.609</ele>
        <time>2021-10-12T14:11:24Z</time>
      </trkpt>
      <trkpt lat="38.672759" lon="-6.389519">
        <ele>366.708</ele>
        <time>2021-10-12T14:11:26Z</time>
      </trkpt>
      <trkpt lat="38.673017" lon="-6.389756">
        <ele>366.872</ele>
        <time>2021-10-12T14:11:28Z</time>
      </trkpt>
      <trkpt lat="38.673160" lon="-6.389885">
        <ele>366.340</ele>
        <time>2021-10-12T14:11:29Z</time>
      </trkpt>
      <trkpt lat="38.673448" lon="-6.390135">
        <ele>365.666</ele>
        <time>2021-10-12T14:11:31Z</time>
      </trkpt>
      <trkpt lat="38.673602" lon="-6.390272">
        <ele>365.029</ele>
        <time>2021-10-12T14:11:32Z</time>
      </trkpt>
      <trkpt lat="38.673897" lon="-6.390559">
        <ele>363.065</ele>
        <time>2021-10-12T14:11:34Z</time>
      </trkpt>
      <trkpt lat="38.674192" lon="-6.390853">
        <ele>362.334</ele>
        <time>2021-10-12T14:11:36Z</time>
      </trkpt>
      <trkpt lat="38.674328" lon="-6.390992">
        <ele>364.354</ele>
        <time>2021-10-12T14:11:37Z</time>
      </trkpt>
      <trkpt lat="38.674465" lon="-6.391136">
        <ele>366.245</ele>
        <time>2021-10-12T14:11:38Z</time>
      </trkpt>
      <trkpt lat="38.674720" lon="-6.391394">
        <ele>367.049</ele>
        <time>2021-10-12T14:11:40Z</time>
      </trkpt>
      <trkpt lat="38.674848" lon="-6.391518">
        <ele>366.502</ele>
        <time>2021-10-12T14:11:41Z</time>
      </trkpt>
      <trkpt lat="38.674975" lon="-6.391640">
        <ele>366.122</ele>
        <time>2021-10-12T14:11:42Z</time>
      </trkpt>
      <trkpt lat="38.675231" lon="-6.391874">
        <ele>363.508</ele>
        <time>2021-10-12T14:11:44Z</time>
      </trkpt>
      <trkpt lat="38.675452" lon="-6.392080">
        <ele>363.182</ele>
        <time>2021-10-12T14:11:46Z</time>
      </trkpt>
      <trkpt lat="38.675640" lon="-6.392241">
        <ele>362.720</ele>
        <time>2021-10-12T14:11:48Z</time>
      </trkpt>
      <trkpt lat="38.675807" lon="-6.392328">
        <ele>361.876</ele>
        <time>2021-10-12T14:11:50Z</time>
      </trkpt>
      <trkpt lat="38.675958" lon="-6.392334">
        <ele>361.159</ele>
        <time>2021-10-12T14:11:52Z</time>
      </trkpt>
      <trkpt lat="38.676022" lon="-6.392354">
        <ele>360.825</ele>
        <time>2021-10-12T14:11:53Z</time>
      </trkpt>
      <trkpt lat="38.676092" lon="-6.392469">
        <ele>360.214</ele>
        <time>2021-10-12T14:11:55Z</time>
      </trkpt>
      <trkpt lat="38.676106" lon="-6.392570">
        <ele>360.064</ele>
        <time>2021-10-12T14:11:56Z</time>
      </trkpt>
      <trkpt lat="38.676176" lon="-6.392768">
        <ele>360.055</ele>
        <time>2021-10-12T14:11:58Z</time>
      </trkpt>
      <trkpt lat="38.676336" lon="-6.392969">
        <ele>359.363</ele>
        <time>2021-10-12T14:12:00Z</time>
      </trkpt>
      <trkpt lat="38.676461" lon="-6.393092">
        <ele>359.044</ele>
        <time>2021-10-12T14:12:01Z</time>
      </trkpt>
      <trkpt lat="38.676605" lon="-6.393229">
        <ele>358.518</ele>
        <time>2021-10-12T14:12:02Z</time>
      </trkpt>
      <trkpt lat="38.676924" lon="-6.393527">
        <ele>358.108</ele>
        <time>2021-10-12T14:12:04Z</time>
      </trkpt>
      <trkpt lat="38.677334" lon="-6.393904">
        <ele>357.454</ele>
        <time>2021-10-12T14:12:06Z</time>
      </trkpt>
      <trkpt lat="38.677737" lon="-6.394267">
        <ele>357.392</ele>
        <time>2021-10-12T14:12:08Z</time>
      </trkpt>
      <trkpt lat="38.678128" lon="-6.394610">
        <ele>355.738</ele>
        <time>2021-10-12T14:12:10Z</time>
      </trkpt>
      <trkpt lat="38.678520" lon="-6.394948">
        <ele>356.061</ele>
        <time>2021-10-12T14:12:12Z</time>
      </trkpt>
      <trkpt lat="38.678700" lon="-6.395104">
        <ele>356.347</ele>
        <time>2021-10-12T14:12:13Z</time>
      </trkpt>
      <trkpt lat="38.678867" lon="-6.395250">
        <ele>356.186</ele>
        <time>2021-10-12T14:12:14Z</time>
      </trkpt>
      <trkpt lat="38.679118" lon="-6.395482">
        <ele>356.016</ele>
        <time>2021-10-12T14:12:16Z</time>
      </trkpt>
      <trkpt lat="38.679216" lon="-6.395576">
        <ele>355.877</ele>
        <time>2021-10-12T14:12:17Z</time>
      </trkpt>
      <trkpt lat="38.679376" lon="-6.395732">
        <ele>354.866</ele>
        <time>2021-10-12T14:12:19Z</time>
      </trkpt>
      <trkpt lat="38.679464" lon="-6.395814">
        <ele>354.029</ele>
        <time>2021-10-12T14:12:20Z</time>
      </trkpt>
      <trkpt lat="38.679638" lon="-6.395975">
        <ele>353.121</ele>
        <time>2021-10-12T14:12:22Z</time>
      </trkpt>
      <trkpt lat="38.679808" lon="-6.396140">
        <ele>353.208</ele>
        <time>2021-10-12T14:12:24Z</time>
      </trkpt>
      <trkpt lat="38.679972" lon="-6.396296">
        <ele>353.844</ele>
        <time>2021-10-12T14:12:26Z</time>
      </trkpt>
      <trkpt lat="38.680119" lon="-6.396440">
        <ele>354.952</ele>
        <time>2021-10-12T14:12:28Z</time>
      </trkpt>
      <trkpt lat="38.680262" lon="-6.396587">
        <ele>355.338</ele>
        <time>2021-10-12T14:12:30Z</time>
      </trkpt>
      <trkpt lat="38.680346" lon="-6.396672">
        <ele>354.881</ele>
        <time>2021-10-12T14:12:31Z</time>
      </trkpt>
      <trkpt lat="38.680445" lon="-6.396771">
        <ele>354.277</ele>
        <time>2021-10-12T14:12:32Z</time>
      </trkpt>
      <trkpt lat="38.680624" lon="-6.396951">
        <ele>352.586</ele>
        <time>2021-10-12T14:12:34Z</time>
      </trkpt>
      <trkpt lat="38.680716" lon="-6.397040">
        <ele>352.226</ele>
        <time>2021-10-12T14:12:35Z</time>
      </trkpt>
      <trkpt lat="38.680905" lon="-6.397216">
        <ele>352.047</ele>
        <time>2021-10-12T14:12:37Z</time>
      </trkpt>
      <trkpt lat="38.681012" lon="-6.397320">
        <ele>352.182</ele>
        <time>2021-10-12T14:12:38Z</time>
      </trkpt>
      <trkpt lat="38.681227" lon="-6.397523">
        <ele>352.043</ele>
        <time>2021-10-12T14:12:40Z</time>
      </trkpt>
      <trkpt lat="38.681428" lon="-6.397713">
        <ele>352.917</ele>
        <time>2021-10-12T14:12:42Z</time>
      </trkpt>
      <trkpt lat="38.681614" lon="-6.397892">
        <ele>353.908</ele>
        <time>2021-10-12T14:12:44Z</time>
      </trkpt>
      <trkpt lat="38.681779" lon="-6.398051">
        <ele>353.646</ele>
        <time>2021-10-12T14:12:46Z</time>
      </trkpt>
      <trkpt lat="38.681858" lon="-6.398129">
        <ele>352.984</ele>
        <time>2021-10-12T14:12:47Z</time>
      </trkpt>
      <trkpt lat="38.682022" lon="-6.398281">
        <ele>351.310</ele>
        <time>2021-10-12T14:12:49Z</time>
      </trkpt>
      <trkpt lat="38.682096" lon="-6.398349">
        <ele>350.953</ele>
        <time>2021-10-12T14:12:50Z</time>
      </trkpt>
      <trkpt lat="38.682197" lon="-6.398437">
        <ele>350.679</ele>
        <time>2021-10-12T14:12:52Z</time>
      </trkpt>
      <trkpt lat="38.682296" lon="-6.398510">
        <ele>350.448</ele>
        <time>2021-10-12T14:12:54Z</time>
      </trkpt>
      <trkpt lat="38.682370" lon="-6.398530">
        <ele>350.338</ele>
        <time>2021-10-12T14:12:56Z</time>
      </trkpt>
      <trkpt lat="38.682444" lon="-6.398603">
        <ele>350.019</ele>
        <time>2021-10-12T14:12:58Z</time>
      </trkpt>
      <trkpt lat="38.682523" lon="-6.398736">
        <ele>349.972</ele>
        <time>2021-10-12T14:13:00Z</time>
      </trkpt>
      <trkpt lat="38.682576" lon="-6.398807">
        <ele>349.713</ele>
        <time>2021-10-12T14:13:01Z</time>
      </trkpt>
      <trkpt lat="38.682643" lon="-6.398882">
        <ele>349.514</ele>
        <time>2021-10-12T14:13:02Z</time>
      </trkpt>
      <trkpt lat="38.682814" lon="-6.399046">
        <ele>349.608</ele>
        <time>2021-10-12T14:13:04Z</time>
      </trkpt>
      <trkpt lat="38.682928" lon="-6.399154">
        <ele>350.055</ele>
        <time>2021-10-12T14:13:05Z</time>
      </trkpt>
      <trkpt lat="38.683042" lon="-6.399264">
        <ele>350.023</ele>
        <time>2021-10-12T14:13:06Z</time>
      </trkpt>
      <trkpt lat="38.683265" lon="-6.399473">
        <ele>349.359</ele>
        <time>2021-10-12T14:13:08Z</time>
      </trkpt>
      <trkpt lat="38.683461" lon="-6.399649">
        <ele>349.742</ele>
        <time>2021-10-12T14:13:10Z</time>
      </trkpt>
      <trkpt lat="38.683544" lon="-6.399725">
        <ele>350.078</ele>
        <time>2021-10-12T14:13:11Z</time>
      </trkpt>
      <trkpt lat="38.683683" lon="-6.399850">
        <ele>350.337</ele>
        <time>2021-10-12T14:13:13Z</time>
      </trkpt>
      <trkpt lat="38.683745" lon="-6.399901">
        <ele>350.357</ele>
        <time>2021-10-12T14:13:14Z</time>
      </trkpt>
      <trkpt lat="38.683842" lon="-6.399953">
        <ele>350.178</ele>
        <time>2021-10-12T14:13:16Z</time>
      </trkpt>
      <trkpt lat="38.683931" lon="-6.400048">
        <ele>350.186</ele>
        <time>2021-10-12T14:13:18Z</time>
      </trkpt>
      <trkpt lat="38.684027" lon="-6.400239">
        <ele>350.460</ele>
        <time>2021-10-12T14:13:20Z</time>
      </trkpt>
      <trkpt lat="38.684177" lon="-6.400443">
        <ele>350.026</ele>
        <time>2021-10-12T14:13:22Z</time>
      </trkpt>
      <trkpt lat="38.684399" lon="-6.400655">
        <ele>350.008</ele>
        <time>2021-10-12T14:13:24Z</time>
      </trkpt>
      <trkpt lat="38.684665" lon="-6.400882">
        <ele>349.236</ele>
        <time>2021-10-12T14:13:26Z</time>
      </trkpt>
      <trkpt lat="38.684930" lon="-6.401119">
        <ele>348.374</ele>
        <time>2021-10-12T14:13:28Z</time>
      </trkpt>
      <trkpt lat="38.685065" lon="-6.401244">
        <ele>348.510</ele>
        <time>2021-10-12T14:13:29Z</time>
      </trkpt>
      <trkpt lat="38.685328" lon="-6.401487">
        <ele>348.883</ele>
        <time>2021-10-12T14:13:31Z</time>
      </trkpt>
      <trkpt lat="38.685465" lon="-6.401616">
        <ele>348.329</ele>
        <time>2021-10-12T14:13:32Z</time>
      </trkpt>
      <trkpt lat="38.685708" lon="-6.401848">
        <ele>347.538</ele>
        <time>2021-10-12T14:13:34Z</time>
      </trkpt>
      <trkpt lat="38.685816" lon="-6.401952">
        <ele>347.138</ele>
        <time>2021-10-12T14:13:35Z</time>
      </trkpt>
      <trkpt lat="38.686038" lon="-6.402165">
        <ele>347.099</ele>
        <time>2021-10-12T14:13:37Z</time>
      </trkpt>
      <trkpt lat="38.686160" lon="-6.402282">
        <ele>346.796</ele>
        <time>2021-10-12T14:13:38Z</time>
      </trkpt>
      <trkpt lat="38.686405" lon="-6.402518">
        <ele>345.931</ele>
        <time>2021-10-12T14:13:40Z</time>
      </trkpt>
      <trkpt lat="38.686533" lon="-6.402640">
        <ele>345.224</ele>
        <time>2021-10-12T14:13:41Z</time>
      </trkpt>
      <trkpt lat="38.686775" lon="-6.402861">
        <ele>344.908</ele>
        <time>2021-10-12T14:13:43Z</time>
      </trkpt>
      <trkpt lat="38.686893" lon="-6.402969">
        <ele>344.927</ele>
        <time>2021-10-12T14:13:44Z</time>
      </trkpt>
      <trkpt lat="38.687115" lon="-6.403158">
        <ele>344.885</ele>
        <time>2021-10-12T14:13:46Z</time>
      </trkpt>
      <trkpt lat="38.687335" lon="-6.403349">
        <ele>343.721</ele>
        <time>2021-10-12T14:13:48Z</time>
      </trkpt>
      <trkpt lat="38.687535" lon="-6.403534">
        <ele>342.074</ele>
        <time>2021-10-12T14:13:50Z</time>
      </trkpt>
      <trkpt lat="38.687708" lon="-6.403701">
        <ele>342.140</ele>
        <time>2021-10-12T14:13:52Z</time>
      </trkpt>
      <trkpt lat="38.687788" lon="-6.403780">
        <ele>342.049</ele>
        <time>2021-10-12T14:13:53Z</time>
      </trkpt>
      <trkpt lat="38.687863" lon="-6.403855">
        <ele>342.019</ele>
        <time>2021-10-12T14:13:54Z</time>
      </trkpt>
      <trkpt lat="38.687936" lon="-6.403925">
        <ele>342.190</ele>
        <time>2021-10-12T14:13:55Z</time>
      </trkpt>
      <trkpt lat="38.688006" lon="-6.403993">
        <ele>342.494</ele>
        <time>2021-10-12T14:13:56Z</time>
      </trkpt>
      <trkpt lat="38.688130" lon="-6.404109">
        <ele>342.657</ele>
        <time>2021-10-12T14:13:58Z</time>
      </trkpt>
      <trkpt lat="38.688250" lon="-6.404194">
        <ele>342.322</ele>
        <time>2021-10-12T14:14:00Z</time>
      </trkpt>
      <trkpt lat="38.688381" lon="-6.404236">
        <ele>342.008</ele>
        <time>2021-10-12T14:14:02Z</time>
      </trkpt>
      <trkpt lat="38.688495" lon="-6.404350">
        <ele>342.027</ele>
        <time>2021-10-12T14:14:04Z</time>
      </trkpt>
      <trkpt lat="38.688538" lon="-6.404447">
        <ele>342.095</ele>
        <time>2021-10-12T14:14:05Z</time>
      </trkpt>
      <trkpt lat="38.688654" lon="-6.404652">
        <ele>341.861</ele>
        <time>2021-10-12T14:14:07Z</time>
      </trkpt>
      <trkpt lat="38.688746" lon="-6.404757">
        <ele>341.434</ele>
        <time>2021-10-12T14:14:08Z</time>
      </trkpt>
      <trkpt lat="38.688973" lon="-6.404962">
        <ele>339.880</ele>
        <time>2021-10-12T14:14:10Z</time>
      </trkpt>
      <trkpt lat="38.689200" lon="-6.405151">
        <ele>338.459</ele>
        <time>2021-10-12T14:14:12Z</time>
      </trkpt>
      <trkpt lat="38.689311" lon="-6.405239">
        <ele>338.149</ele>
        <time>2021-10-12T14:14:13Z</time>
      </trkpt>
      <trkpt lat="38.689421" lon="-6.405327">
        <ele>338.030</ele>
        <time>2021-10-12T14:14:14Z</time>
      </trkpt>
      <trkpt lat="38.689611" lon="-6.405482">
        <ele>337.613</ele>
        <time>2021-10-12T14:14:16Z</time>
      </trkpt>
      <trkpt lat="38.689691" lon="-6.405552">
        <ele>337.143</ele>
        <time>2021-10-12T14:14:17Z</time>
      </trkpt>
      <trkpt lat="38.689835" lon="-6.405680">
        <ele>336.407</ele>
        <time>2021-10-12T14:14:19Z</time>
      </trkpt>
      <trkpt lat="38.689901" lon="-6.405743">
        <ele>335.908</ele>
        <time>2021-10-12T14:14:20Z</time>
      </trkpt>
      <trkpt lat="38.690001" lon="-6.405836">
        <ele>335.069</ele>
        <time>2021-10-12T14:14:22Z</time>
      </trkpt>
      <trkpt lat="38.690141" lon="-6.405931">
        <ele>334.367</ele>
        <time>2021-10-12T14:14:24Z</time>
      </trkpt>
      <trkpt lat="38.690347" lon="-6.405967">
        <ele>333.643</ele>
        <time>2021-10-12T14:14:26Z</time>
      </trkpt>
      <trkpt lat="38.690570" lon="-6.405913">
        <ele>334.066</ele>
        <time>2021-10-12T14:14:28Z</time>
      </trkpt>
      <trkpt lat="38.690794" lon="-6.405813">
        <ele>334.152</ele>
        <time>2021-10-12T14:14:30Z</time>
      </trkpt>
      <trkpt lat="38.691006" lon="-6.405731">
        <ele>333.921</ele>
        <time>2021-10-12T14:14:32Z</time>
      </trkpt>
      <trkpt lat="38.691168" lon="-6.405670">
        <ele>333.331</ele>
        <time>2021-10-12T14:14:34Z</time>
      </trkpt>
      <trkpt lat="38.691300" lon="-6.405619">
        <ele>332.682</ele>
        <time>2021-10-12T14:14:36Z</time>
      </trkpt>
      <trkpt lat="38.691441" lon="-6.405510">
        <ele>331.528</ele>
        <time>2021-10-12T14:14:38Z</time>
      </trkpt>
      <trkpt lat="38.691529" lon="-6.405343">
        <ele>330.689</ele>
        <time>2021-10-12T14:14:40Z</time>
      </trkpt>
      <trkpt lat="38.691579" lon="-6.405272">
        <ele>330.317</ele>
        <time>2021-10-12T14:14:41Z</time>
      </trkpt>
      <trkpt lat="38.691717" lon="-6.405211">
        <ele>330.408</ele>
        <time>2021-10-12T14:14:43Z</time>
      </trkpt>
      <trkpt lat="38.691818" lon="-6.405240">
        <ele>330.670</ele>
        <time>2021-10-12T14:14:44Z</time>
      </trkpt>
      <trkpt lat="38.692038" lon="-6.405315">
        <ele>330.598</ele>
        <time>2021-10-12T14:14:46Z</time>
      </trkpt>
      <trkpt lat="38.692167" lon="-6.405314">
        <ele>330.194</ele>
        <time>2021-10-12T14:14:47Z</time>
      </trkpt>
      <trkpt lat="38.692303" lon="-6.405274">
        <ele>329.747</ele>
        <time>2021-10-12T14:14:48Z</time>
      </trkpt>
      <trkpt lat="38.692442" lon="-6.405219">
        <ele>329.213</ele>
        <time>2021-10-12T14:14:49Z</time>
      </trkpt>
      <trkpt lat="38.692581" lon="-6.405167">
        <ele>329.032</ele>
        <time>2021-10-12T14:14:50Z</time>
      </trkpt>
      <trkpt lat="38.692836" lon="-6.405079">
        <ele>329.242</ele>
        <time>2021-10-12T14:14:52Z</time>
      </trkpt>
      <trkpt lat="38.692961" lon="-6.405035">
        <ele>329.783</ele>
        <time>2021-10-12T14:14:53Z</time>
      </trkpt>
      <trkpt lat="38.693083" lon="-6.404998">
        <ele>330.038</ele>
        <time>2021-10-12T14:14:54Z</time>
      </trkpt>
      <trkpt lat="38.693192" lon="-6.404964">
        <ele>330.170</ele>
        <time>2021-10-12T14:14:55Z</time>
      </trkpt>
      <trkpt lat="38.693314" lon="-6.404926">
        <ele>330.217</ele>
        <time>2021-10-12T14:14:56Z</time>
      </trkpt>
      <trkpt lat="38.693567" lon="-6.404848">
        <ele>331.408</ele>
        <time>2021-10-12T14:14:58Z</time>
      </trkpt>
      <trkpt lat="38.693710" lon="-6.404808">
        <ele>332.491</ele>
        <time>2021-10-12T14:14:59Z</time>
      </trkpt>
      <trkpt lat="38.693999" lon="-6.404718">
        <ele>334.429</ele>
        <time>2021-10-12T14:15:01Z</time>
      </trkpt>
      <trkpt lat="38.694145" lon="-6.404670">
        <ele>335.175</ele>
        <time>2021-10-12T14:15:02Z</time>
      </trkpt>
      <trkpt lat="38.694416" lon="-6.404577">
        <ele>336.048</ele>
        <time>2021-10-12T14:15:04Z</time>
      </trkpt>
      <trkpt lat="38.694688" lon="-6.404488">
        <ele>335.354</ele>
        <time>2021-10-12T14:15:06Z</time>
      </trkpt>
      <trkpt lat="38.694834" lon="-6.404440">
        <ele>335.043</ele>
        <time>2021-10-12T14:15:07Z</time>
      </trkpt>
      <trkpt lat="38.694985" lon="-6.404392">
        <ele>334.873</ele>
        <time>2021-10-12T14:15:08Z</time>
      </trkpt>
      <trkpt lat="38.695292" lon="-6.404289">
        <ele>334.524</ele>
        <time>2021-10-12T14:15:10Z</time>
      </trkpt>
      <trkpt lat="38.695448" lon="-6.404239">
        <ele>335.347</ele>
        <time>2021-10-12T14:15:11Z</time>
      </trkpt>
      <trkpt lat="38.695772" lon="-6.404136">
        <ele>337.729</ele>
        <time>2021-10-12T14:15:13Z</time>
      </trkpt>
      <trkpt lat="38.695942" lon="-6.404081">
        <ele>338.521</ele>
        <time>2021-10-12T14:15:14Z</time>
      </trkpt>
      <trkpt lat="38.696278" lon="-6.403973">
        <ele>337.708</ele>
        <time>2021-10-12T14:15:16Z</time>
      </trkpt>
      <trkpt lat="38.696627" lon="-6.403856">
        <ele>335.422</ele>
        <time>2021-10-12T14:15:18Z</time>
      </trkpt>
      <trkpt lat="38.696799" lon="-6.403794">
        <ele>335.360</ele>
        <time>2021-10-12T14:15:19Z</time>
      </trkpt>
      <trkpt lat="38.696968" lon="-6.403733">
        <ele>335.646</ele>
        <time>2021-10-12T14:15:20Z</time>
      </trkpt>
      <trkpt lat="38.697274" lon="-6.403629">
        <ele>336.879</ele>
        <time>2021-10-12T14:15:22Z</time>
      </trkpt>
      <trkpt lat="38.697416" lon="-6.403586">
        <ele>336.475</ele>
        <time>2021-10-12T14:15:23Z</time>
      </trkpt>
      <trkpt lat="38.697681" lon="-6.403504">
        <ele>336.114</ele>
        <time>2021-10-12T14:15:25Z</time>
      </trkpt>
      <trkpt lat="38.697829" lon="-6.403453">
        <ele>336.344</ele>
        <time>2021-10-12T14:15:26Z</time>
      </trkpt>
      <trkpt lat="38.698122" lon="-6.403351">
        <ele>337.395</ele>
        <time>2021-10-12T14:15:28Z</time>
      </trkpt>
      <trkpt lat="38.698283" lon="-6.403296">
        <ele>337.892</ele>
        <time>2021-10-12T14:15:29Z</time>
      </trkpt>
      <trkpt lat="38.698605" lon="-6.403190">
        <ele>339.073</ele>
        <time>2021-10-12T14:15:31Z</time>
      </trkpt>
      <trkpt lat="38.698752" lon="-6.403141">
        <ele>338.020</ele>
        <time>2021-10-12T14:15:32Z</time>
      </trkpt>
      <trkpt lat="38.698995" lon="-6.403066">
        <ele>336.208</ele>
        <time>2021-10-12T14:15:34Z</time>
      </trkpt>
      <trkpt lat="38.699101" lon="-6.403034">
        <ele>335.567</ele>
        <time>2021-10-12T14:15:35Z</time>
      </trkpt>
      <trkpt lat="38.699282" lon="-6.402963">
        <ele>334.695</ele>
        <time>2021-10-12T14:15:37Z</time>
      </trkpt>
      <trkpt lat="38.699352" lon="-6.402905">
        <ele>334.321</ele>
        <time>2021-10-12T14:15:38Z</time>
      </trkpt>
      <trkpt lat="38.699444" lon="-6.402759">
        <ele>334.174</ele>
        <time>2021-10-12T14:15:40Z</time>
      </trkpt>
      <trkpt lat="38.699588" lon="-6.402673">
        <ele>334.160</ele>
        <time>2021-10-12T14:15:42Z</time>
      </trkpt>
      <trkpt lat="38.699689" lon="-6.402684">
        <ele>333.829</ele>
        <time>2021-10-12T14:15:43Z</time>
      </trkpt>
      <trkpt lat="38.699795" lon="-6.402728">
        <ele>333.629</ele>
        <time>2021-10-12T14:15:44Z</time>
      </trkpt>
      <trkpt lat="38.700046" lon="-6.402767">
        <ele>334.170</ele>
        <time>2021-10-12T14:15:46Z</time>
      </trkpt>
      <trkpt lat="38.700362" lon="-6.402704">
        <ele>334.585</ele>
        <time>2021-10-12T14:15:48Z</time>
      </trkpt>
      <trkpt lat="38.700751" lon="-6.402578">
        <ele>335.689</ele>
        <time>2021-10-12T14:15:50Z</time>
      </trkpt>
      <trkpt lat="38.701156" lon="-6.402434">
        <ele>336.317</ele>
        <time>2021-10-12T14:15:52Z</time>
      </trkpt>
      <trkpt lat="38.701361" lon="-6.402364">
        <ele>337.408</ele>
        <time>2021-10-12T14:15:53Z</time>
      </trkpt>
      <trkpt lat="38.701769" lon="-6.402227">
        <ele>339.656</ele>
        <time>2021-10-12T14:15:55Z</time>
      </trkpt>
      <trkpt lat="38.701981" lon="-6.402157">
        <ele>339.064</ele>
        <time>2021-10-12T14:15:56Z</time>
      </trkpt>
      <trkpt lat="38.702379" lon="-6.402020">
        <ele>336.680</ele>
        <time>2021-10-12T14:15:58Z</time>
      </trkpt>
      <trkpt lat="38.702576" lon="-6.401950">
        <ele>335.463</ele>
        <time>2021-10-12T14:15:59Z</time>
      </trkpt>
      <trkpt lat="38.702948" lon="-6.401822">
        <ele>331.119</ele>
        <time>2021-10-12T14:16:01Z</time>
      </trkpt>
      <trkpt lat="38.703126" lon="-6.401764">
        <ele>329.668</ele>
        <time>2021-10-12T14:16:02Z</time>
      </trkpt>
      <trkpt lat="38.703427" lon="-6.401666">
        <ele>331.078</ele>
        <time>2021-10-12T14:16:04Z</time>
      </trkpt>
      <trkpt lat="38.703569" lon="-6.401620">
        <ele>332.379</ele>
        <time>2021-10-12T14:16:05Z</time>
      </trkpt>
      <trkpt lat="38.703805" lon="-6.401544">
        <ele>331.742</ele>
        <time>2021-10-12T14:16:07Z</time>
      </trkpt>
      <trkpt lat="38.703927" lon="-6.401504">
        <ele>331.322</ele>
        <time>2021-10-12T14:16:08Z</time>
      </trkpt>
      <trkpt lat="38.704146" lon="-6.401431">
        <ele>330.214</ele>
        <time>2021-10-12T14:16:10Z</time>
      </trkpt>
      <trkpt lat="38.704244" lon="-6.401386">
        <ele>330.008</ele>
        <time>2021-10-12T14:16:11Z</time>
      </trkpt>
      <trkpt lat="38.704330" lon="-6.401320">
        <ele>330.582</ele>
        <time>2021-10-12T14:16:12Z</time>
      </trkpt>
      <trkpt lat="38.704395" lon="-6.401237">
        <ele>331.110</ele>
        <time>2021-10-12T14:16:13Z</time>
      </trkpt>
      <trkpt lat="38.704456" lon="-6.401160">
        <ele>331.686</ele>
        <time>2021-10-12T14:16:14Z</time>
      </trkpt>
      <trkpt lat="38.704588" lon="-6.401096">
        <ele>331.669</ele>
        <time>2021-10-12T14:16:16Z</time>
      </trkpt>
      <trkpt lat="38.704783" lon="-6.401175">
        <ele>330.445</ele>
        <time>2021-10-12T14:16:18Z</time>
      </trkpt>
      <trkpt lat="38.705035" lon="-6.401184">
        <ele>329.994</ele>
        <time>2021-10-12T14:16:20Z</time>
      </trkpt>
      <trkpt lat="38.705346" lon="-6.401088">
        <ele>330.974</ele>
        <time>2021-10-12T14:16:22Z</time>
      </trkpt>
      <trkpt lat="38.705718" lon="-6.400958">
        <ele>331.325</ele>
        <time>2021-10-12T14:16:24Z</time>
      </trkpt>
      <trkpt lat="38.706102" lon="-6.400824">
        <ele>332.098</ele>
        <time>2021-10-12T14:16:26Z</time>
      </trkpt>
      <trkpt lat="38.706465" lon="-6.400698">
        <ele>332.915</ele>
        <time>2021-10-12T14:16:28Z</time>
      </trkpt>
      <trkpt lat="38.706815" lon="-6.400578">
        <ele>333.726</ele>
        <time>2021-10-12T14:16:30Z</time>
      </trkpt>
      <trkpt lat="38.707155" lon="-6.400465">
        <ele>333.008</ele>
        <time>2021-10-12T14:16:32Z</time>
      </trkpt>
      <trkpt lat="38.707460" lon="-6.400364">
        <ele>332.767</ele>
        <time>2021-10-12T14:16:34Z</time>
      </trkpt>
      <trkpt lat="38.707606" lon="-6.400312">
        <ele>332.995</ele>
        <time>2021-10-12T14:16:35Z</time>
      </trkpt>
      <trkpt lat="38.707878" lon="-6.400219">
        <ele>332.991</ele>
        <time>2021-10-12T14:16:37Z</time>
      </trkpt>
      <trkpt lat="38.707998" lon="-6.400179">
        <ele>332.624</ele>
        <time>2021-10-12T14:16:38Z</time>
      </trkpt>
      <trkpt lat="38.708246" lon="-6.400093">
        <ele>331.310</ele>
        <time>2021-10-12T14:16:40Z</time>
      </trkpt>
      <trkpt lat="38.708530" lon="-6.399990">
        <ele>331.019</ele>
        <time>2021-10-12T14:16:42Z</time>
      </trkpt>
      <trkpt lat="38.708674" lon="-6.399940">
        <ele>331.459</ele>
        <time>2021-10-12T14:16:43Z</time>
      </trkpt>
      <trkpt lat="38.708814" lon="-6.399892">
        <ele>332.120</ele>
        <time>2021-10-12T14:16:44Z</time>
      </trkpt>
      <trkpt lat="38.709060" lon="-6.399815">
        <ele>332.972</ele>
        <time>2021-10-12T14:16:46Z</time>
      </trkpt>
      <trkpt lat="38.709272" lon="-6.399751">
        <ele>332.713</ele>
        <time>2021-10-12T14:16:48Z</time>
      </trkpt>
      <trkpt lat="38.709455" lon="-6.399694">
        <ele>332.114</ele>
        <time>2021-10-12T14:16:50Z</time>
      </trkpt>
      <trkpt lat="38.709553" lon="-6.399656">
        <ele>332.808</ele>
        <time>2021-10-12T14:16:52Z</time>
      </trkpt>
      <trkpt lat="38.709689" lon="-6.399615">
        <ele>333.845</ele>
        <time>2021-10-12T14:16:54Z</time>
      </trkpt>
      <trkpt lat="38.709833" lon="-6.399552">
        <ele>334.663</ele>
        <time>2021-10-12T14:16:56Z</time>
      </trkpt>
      <trkpt lat="38.709928" lon="-6.399496">
        <ele>334.989</ele>
        <time>2021-10-12T14:16:58Z</time>
      </trkpt>
      <trkpt lat="38.709975" lon="-6.399429">
        <ele>334.932</ele>
        <time>2021-10-12T14:17:00Z</time>
      </trkpt>
      <trkpt lat="38.710003" lon="-6.399365">
        <ele>334.728</ele>
        <time>2021-10-12T14:17:01Z</time>
      </trkpt>
      <trkpt lat="38.710021" lon="-6.399285">
        <ele>334.587</ele>
        <time>2021-10-12T14:17:02Z</time>
      </trkpt>
      <trkpt lat="38.710066" lon="-6.399130">
        <ele>333.837</ele>
        <time>2021-10-12T14:17:04Z</time>
      </trkpt>
      <trkpt lat="38.710177" lon="-6.398992">
        <ele>333.038</ele>
        <time>2021-10-12T14:17:06Z</time>
      </trkpt>
      <trkpt lat="38.710251" lon="-6.398953">
        <ele>332.542</ele>
        <time>2021-10-12T14:17:07Z</time>
      </trkpt>
      <trkpt lat="38.710334" lon="-6.398938">
        <ele>332.422</ele>
        <time>2021-10-12T14:17:08Z</time>
      </trkpt>
      <trkpt lat="38.710501" lon="-6.398985">
        <ele>332.714</ele>
        <time>2021-10-12T14:17:10Z</time>
      </trkpt>
      <trkpt lat="38.710657" lon="-6.399139">
        <ele>333.408</ele>
        <time>2021-10-12T14:17:12Z</time>
      </trkpt>
      <trkpt lat="38.710835" lon="-6.399256">
        <ele>333.082</ele>
        <time>2021-10-12T14:17:14Z</time>
      </trkpt>
      <trkpt lat="38.711050" lon="-6.399242">
        <ele>332.480</ele>
        <time>2021-10-12T14:17:16Z</time>
      </trkpt>
      <trkpt lat="38.711166" lon="-6.399195">
        <ele>331.966</ele>
        <time>2021-10-12T14:17:17Z</time>
      </trkpt>
      <trkpt lat="38.711287" lon="-6.399143">
        <ele>331.449</ele>
        <time>2021-10-12T14:17:18Z</time>
      </trkpt>
      <trkpt lat="38.711421" lon="-6.399092">
        <ele>331.045</ele>
        <time>2021-10-12T14:17:19Z</time>
      </trkpt>
      <trkpt lat="38.711566" lon="-6.399042">
        <ele>330.294</ele>
        <time>2021-10-12T14:17:20Z</time>
      </trkpt>
      <trkpt lat="38.711876" lon="-6.398944">
        <ele>329.064</ele>
        <time>2021-10-12T14:17:22Z</time>
      </trkpt>
      <trkpt lat="38.712221" lon="-6.398832">
        <ele>330.085</ele>
        <time>2021-10-12T14:17:24Z</time>
      </trkpt>
      <trkpt lat="38.712396" lon="-6.398773">
        <ele>331.381</ele>
        <time>2021-10-12T14:17:25Z</time>
      </trkpt>
      <trkpt lat="38.712577" lon="-6.398713">
        <ele>331.961</ele>
        <time>2021-10-12T14:17:26Z</time>
      </trkpt>
      <trkpt lat="38.712906" lon="-6.398604">
        <ele>330.517</ele>
        <time>2021-10-12T14:17:28Z</time>
      </trkpt>
      <trkpt lat="38.713060" lon="-6.398553">
        <ele>329.308</ele>
        <time>2021-10-12T14:17:29Z</time>
      </trkpt>
      <trkpt lat="38.713353" lon="-6.398462">
        <ele>327.086</ele>
        <time>2021-10-12T14:17:31Z</time>
      </trkpt>
      <trkpt lat="38.713506" lon="-6.398418">
        <ele>327.784</ele>
        <time>2021-10-12T14:17:32Z</time>
      </trkpt>
      <trkpt lat="38.713789" lon="-6.398330">
        <ele>328.680</ele>
        <time>2021-10-12T14:17:34Z</time>
      </trkpt>
      <trkpt lat="38.714070" lon="-6.398236">
        <ele>330.193</ele>
        <time>2021-10-12T14:17:36Z</time>
      </trkpt>
      <trkpt lat="38.714334" lon="-6.398152">
        <ele>329.739</ele>
        <time>2021-10-12T14:17:38Z</time>
      </trkpt>
      <trkpt lat="38.714578" lon="-6.398067">
        <ele>328.568</ele>
        <time>2021-10-12T14:17:40Z</time>
      </trkpt>
      <trkpt lat="38.714870" lon="-6.397979">
        <ele>328.148</ele>
        <time>2021-10-12T14:17:42Z</time>
      </trkpt>
      <trkpt lat="38.715049" lon="-6.397927">
        <ele>328.719</ele>
        <time>2021-10-12T14:17:43Z</time>
      </trkpt>
      <trkpt lat="38.715254" lon="-6.397867">
        <ele>329.985</ele>
        <time>2021-10-12T14:17:44Z</time>
      </trkpt>
      <trkpt lat="38.715714" lon="-6.397731">
        <ele>330.489</ele>
        <time>2021-10-12T14:17:46Z</time>
      </trkpt>
      <trkpt lat="38.715966" lon="-6.397655">
        <ele>330.517</ele>
        <time>2021-10-12T14:17:47Z</time>
      </trkpt>
      <trkpt lat="38.716218" lon="-6.397560">
        <ele>331.808</ele>
        <time>2021-10-12T14:17:48Z</time>
      </trkpt>
      <trkpt lat="38.716718" lon="-6.397385">
        <ele>333.876</ele>
        <time>2021-10-12T14:17:50Z</time>
      </trkpt>
      <trkpt lat="38.717172" lon="-6.397242">
        <ele>332.144</ele>
        <time>2021-10-12T14:17:52Z</time>
      </trkpt>
      <trkpt lat="38.717392" lon="-6.397172">
        <ele>331.330</ele>
        <time>2021-10-12T14:17:53Z</time>
      </trkpt>
      <trkpt lat="38.717835" lon="-6.397031">
        <ele>330.193</ele>
        <time>2021-10-12T14:17:55Z</time>
      </trkpt>
      <trkpt lat="38.718069" lon="-6.396952">
        <ele>329.069</ele>
        <time>2021-10-12T14:17:56Z</time>
      </trkpt>
      <trkpt lat="38.718519" lon="-6.396800">
        <ele>329.758</ele>
        <time>2021-10-12T14:17:58Z</time>
      </trkpt>
      <trkpt lat="38.718771" lon="-6.396717">
        <ele>331.518</ele>
        <time>2021-10-12T14:17:59Z</time>
      </trkpt>
      <trkpt lat="38.719039" lon="-6.396631">
        <ele>332.749</ele>
        <time>2021-10-12T14:18:00Z</time>
      </trkpt>
      <trkpt lat="38.719620" lon="-6.396459">
        <ele>333.621</ele>
        <time>2021-10-12T14:18:02Z</time>
      </trkpt>
      <trkpt lat="38.720196" lon="-6.396273">
        <ele>331.741</ele>
        <time>2021-10-12T14:18:04Z</time>
      </trkpt>
      <trkpt lat="38.720782" lon="-6.396052">
        <ele>331.205</ele>
        <time>2021-10-12T14:18:06Z</time>
      </trkpt>
      <trkpt lat="38.721082" lon="-6.395947">
        <ele>331.508</ele>
        <time>2021-10-12T14:18:07Z</time>
      </trkpt>
      <trkpt lat="38.721390" lon="-6.395847">
        <ele>333.090</ele>
        <time>2021-10-12T14:18:08Z</time>
      </trkpt>
      <trkpt lat="38.721967" lon="-6.395669">
        <ele>330.478</ele>
        <time>2021-10-12T14:18:10Z</time>
      </trkpt>
      <trkpt lat="38.722517" lon="-6.395495">
        <ele>329.824</ele>
        <time>2021-10-12T14:18:12Z</time>
      </trkpt>
      <trkpt lat="38.723056" lon="-6.395322">
        <ele>329.047</ele>
        <time>2021-10-12T14:18:14Z</time>
      </trkpt>
      <trkpt lat="38.723576" lon="-6.395155">
        <ele>328.913</ele>
        <time>2021-10-12T14:18:16Z</time>
      </trkpt>
      <trkpt lat="38.723841" lon="-6.395069">
        <ele>329.632</ele>
        <time>2021-10-12T14:18:17Z</time>
      </trkpt>
      <trkpt lat="38.724105" lon="-6.394984">
        <ele>330.052</ele>
        <time>2021-10-12T14:18:18Z</time>
      </trkpt>
      <trkpt lat="38.724366" lon="-6.394901">
        <ele>329.213</ele>
        <time>2021-10-12T14:18:19Z</time>
      </trkpt>
      <trkpt lat="38.724631" lon="-6.394815">
        <ele>328.662</ele>
        <time>2021-10-12T14:18:20Z</time>
      </trkpt>
      <trkpt lat="38.725141" lon="-6.394649">
        <ele>325.983</ele>
        <time>2021-10-12T14:18:22Z</time>
      </trkpt>
      <trkpt lat="38.725400" lon="-6.394560">
        <ele>325.011</ele>
        <time>2021-10-12T14:18:23Z</time>
      </trkpt>
      <trkpt lat="38.725911" lon="-6.394397">
        <ele>327.708</ele>
        <time>2021-10-12T14:18:25Z</time>
      </trkpt>
      <trkpt lat="38.726174" lon="-6.394312">
        <ele>329.644</ele>
        <time>2021-10-12T14:18:26Z</time>
      </trkpt>
      <trkpt lat="38.726681" lon="-6.394149">
        <ele>326.842</ele>
        <time>2021-10-12T14:18:28Z</time>
      </trkpt>
      <trkpt lat="38.726939" lon="-6.394066">
        <ele>324.738</ele>
        <time>2021-10-12T14:18:29Z</time>
      </trkpt>
      <trkpt lat="38.727456" lon="-6.393900">
        <ele>324.021</ele>
        <time>2021-10-12T14:18:31Z</time>
      </trkpt>
      <trkpt lat="38.727727" lon="-6.393813">
        <ele>323.877</ele>
        <time>2021-10-12T14:18:32Z</time>
      </trkpt>
      <trkpt lat="38.728241" lon="-6.393637">
        <ele>323.576</ele>
        <time>2021-10-12T14:18:34Z</time>
      </trkpt>
      <trkpt lat="38.728784" lon="-6.393461">
        <ele>324.556</ele>
        <time>2021-10-12T14:18:36Z</time>
      </trkpt>
      <trkpt lat="38.729060" lon="-6.393372">
        <ele>324.127</ele>
        <time>2021-10-12T14:18:37Z</time>
      </trkpt>
      <trkpt lat="38.729341" lon="-6.393282">
        <ele>323.483</ele>
        <time>2021-10-12T14:18:38Z</time>
      </trkpt>
      <trkpt lat="38.729881" lon="-6.393103">
        <ele>322.025</ele>
        <time>2021-10-12T14:18:40Z</time>
      </trkpt>
      <trkpt lat="38.730155" lon="-6.393011">
        <ele>322.217</ele>
        <time>2021-10-12T14:18:41Z</time>
      </trkpt>
      <trkpt lat="38.730429" lon="-6.392920">
        <ele>322.208</ele>
        <time>2021-10-12T14:18:42Z</time>
      </trkpt>
      <trkpt lat="38.730975" lon="-6.392728">
        <ele>322.336</ele>
        <time>2021-10-12T14:18:44Z</time>
      </trkpt>
      <trkpt lat="38.731505" lon="-6.392548">
        <ele>323.524</ele>
        <time>2021-10-12T14:18:46Z</time>
      </trkpt>
      <trkpt lat="38.731780" lon="-6.392461">
        <ele>322.740</ele>
        <time>2021-10-12T14:18:47Z</time>
      </trkpt>
      <trkpt lat="38.732324" lon="-6.392288">
        <ele>322.363</ele>
        <time>2021-10-12T14:18:49Z</time>
      </trkpt>
      <trkpt lat="38.732602" lon="-6.392198">
        <ele>321.639</ele>
        <time>2021-10-12T14:18:50Z</time>
      </trkpt>
      <trkpt lat="38.733128" lon="-6.392029">
        <ele>321.098</ele>
        <time>2021-10-12T14:18:52Z</time>
      </trkpt>
      <trkpt lat="38.733395" lon="-6.391944">
        <ele>323.098</ele>
        <time>2021-10-12T14:18:53Z</time>
      </trkpt>
      <trkpt lat="38.733927" lon="-6.391779">
        <ele>321.939</ele>
        <time>2021-10-12T14:18:55Z</time>
      </trkpt>
      <trkpt lat="38.734200" lon="-6.391694">
        <ele>321.979</ele>
        <time>2021-10-12T14:18:56Z</time>
      </trkpt>
      <trkpt lat="38.734708" lon="-6.391533">
        <ele>322.005</ele>
        <time>2021-10-12T14:18:58Z</time>
      </trkpt>
      <trkpt lat="38.734965" lon="-6.391451">
        <ele>321.025</ele>
        <time>2021-10-12T14:18:59Z</time>
      </trkpt>
      <trkpt lat="38.735471" lon="-6.391282">
        <ele>321.808</ele>
        <time>2021-10-12T14:19:01Z</time>
      </trkpt>
      <trkpt lat="38.735737" lon="-6.391192">
        <ele>323.285</ele>
        <time>2021-10-12T14:19:02Z</time>
      </trkpt>
      <trkpt lat="38.736230" lon="-6.391034">
        <ele>323.473</ele>
        <time>2021-10-12T14:19:04Z</time>
      </trkpt>
      <trkpt lat="38.736739" lon="-6.390861">
        <ele>322.779</ele>
        <time>2021-10-12T14:19:06Z</time>
      </trkpt>
      <trkpt lat="38.737280" lon="-6.390682">
        <ele>319.282</ele>
        <time>2021-10-12T14:19:08Z</time>
      </trkpt>
      <trkpt lat="38.737810" lon="-6.390511">
        <ele>318.658</ele>
        <time>2021-10-12T14:19:10Z</time>
      </trkpt>
      <trkpt lat="38.738082" lon="-6.390425">
        <ele>316.547</ele>
        <time>2021-10-12T14:19:11Z</time>
      </trkpt>
      <trkpt lat="38.738353" lon="-6.390343">
        <ele>316.357</ele>
        <time>2021-10-12T14:19:12Z</time>
      </trkpt>
      <trkpt lat="38.738893" lon="-6.390177">
        <ele>319.028</ele>
        <time>2021-10-12T14:19:14Z</time>
      </trkpt>
      <trkpt lat="38.739405" lon="-6.390005">
        <ele>320.192</ele>
        <time>2021-10-12T14:19:16Z</time>
      </trkpt>
      <trkpt lat="38.739664" lon="-6.389921">
        <ele>320.073</ele>
        <time>2021-10-12T14:19:17Z</time>
      </trkpt>
      <trkpt lat="38.740174" lon="-6.389749">
        <ele>318.520</ele>
        <time>2021-10-12T14:19:19Z</time>
      </trkpt>
      <trkpt lat="38.740435" lon="-6.389660">
        <ele>319.808</ele>
        <time>2021-10-12T14:19:20Z</time>
      </trkpt>
      <trkpt lat="38.740940" lon="-6.389480">
        <ele>319.837</ele>
        <time>2021-10-12T14:19:22Z</time>
      </trkpt>
      <trkpt lat="38.741203" lon="-6.389388">
        <ele>317.765</ele>
        <time>2021-10-12T14:19:23Z</time>
      </trkpt>
      <trkpt lat="38.741468" lon="-6.389302">
        <ele>317.281</ele>
        <time>2021-10-12T14:19:24Z</time>
      </trkpt>
      <trkpt lat="38.742035" lon="-6.389113">
        <ele>315.954</ele>
        <time>2021-10-12T14:19:26Z</time>
      </trkpt>
      <trkpt lat="38.742592" lon="-6.388934">
        <ele>319.640</ele>
        <time>2021-10-12T14:19:28Z</time>
      </trkpt>
      <trkpt lat="38.742865" lon="-6.388846">
        <ele>320.399</ele>
        <time>2021-10-12T14:19:29Z</time>
      </trkpt>
      <trkpt lat="38.743396" lon="-6.388674">
        <ele>318.779</ele>
        <time>2021-10-12T14:19:31Z</time>
      </trkpt>
      <trkpt lat="38.743688" lon="-6.388580">
        <ele>317.590</ele>
        <time>2021-10-12T14:19:32Z</time>
      </trkpt>
      <trkpt lat="38.744234" lon="-6.388405">
        <ele>316.089</ele>
        <time>2021-10-12T14:19:34Z</time>
      </trkpt>
      <trkpt lat="38.744809" lon="-6.388220">
        <ele>315.406</ele>
        <time>2021-10-12T14:19:36Z</time>
      </trkpt>
      <trkpt lat="38.745393" lon="-6.388030">
        <ele>316.526</ele>
        <time>2021-10-12T14:19:38Z</time>
      </trkpt>
      <trkpt lat="38.745962" lon="-6.387844">
        <ele>315.408</ele>
        <time>2021-10-12T14:19:40Z</time>
      </trkpt>
      <trkpt lat="38.746251" lon="-6.387749">
        <ele>312.986</ele>
        <time>2021-10-12T14:19:41Z</time>
      </trkpt>
      <trkpt lat="38.746828" lon="-6.387560">
        <ele>311.694</ele>
        <time>2021-10-12T14:19:43Z</time>
      </trkpt>
      <trkpt lat="38.747127" lon="-6.387462">
        <ele>312.920</ele>
        <time>2021-10-12T14:19:44Z</time>
      </trkpt>
      <trkpt lat="38.747695" lon="-6.387277">
        <ele>316.133</ele>
        <time>2021-10-12T14:19:46Z</time>
      </trkpt>
      <trkpt lat="38.747985" lon="-6.387183">
        <ele>315.249</ele>
        <time>2021-10-12T14:19:47Z</time>
      </trkpt>
      <trkpt lat="38.748545" lon="-6.386996">
        <ele>317.598</ele>
        <time>2021-10-12T14:19:49Z</time>
      </trkpt>
      <trkpt lat="38.748829" lon="-6.386899">
        <ele>318.748</ele>
        <time>2021-10-12T14:19:50Z</time>
      </trkpt>
      <trkpt lat="38.749396" lon="-6.386717">
        <ele>316.829</ele>
        <time>2021-10-12T14:19:52Z</time>
      </trkpt>
      <trkpt lat="38.749979" lon="-6.386528">
        <ele>317.065</ele>
        <time>2021-10-12T14:19:54Z</time>
      </trkpt>
      <trkpt lat="38.750270" lon="-6.386433">
        <ele>318.068</ele>
        <time>2021-10-12T14:19:55Z</time>
      </trkpt>
      <trkpt lat="38.750583" lon="-6.386330">
        <ele>316.714</ele>
        <time>2021-10-12T14:19:56Z</time>
      </trkpt>
      <trkpt lat="38.751203" lon="-6.386126">
        <ele>313.708</ele>
        <time>2021-10-12T14:19:58Z</time>
      </trkpt>
      <trkpt lat="38.751827" lon="-6.385919">
        <ele>314.944</ele>
        <time>2021-10-12T14:20:00Z</time>
      </trkpt>
      <trkpt lat="38.752453" lon="-6.385715">
        <ele>314.142</ele>
        <time>2021-10-12T14:20:02Z</time>
      </trkpt>
      <trkpt lat="38.753052" lon="-6.385521">
        <ele>315.198</ele>
        <time>2021-10-12T14:20:04Z</time>
      </trkpt>
      <trkpt lat="38.753664" lon="-6.385323">
        <ele>318.171</ele>
        <time>2021-10-12T14:20:06Z</time>
      </trkpt>
      <trkpt lat="38.753974" lon="-6.385223">
        <ele>317.937</ele>
        <time>2021-10-12T14:20:07Z</time>
      </trkpt>
      <trkpt lat="38.754292" lon="-6.385120">
        <ele>318.046</ele>
        <time>2021-10-12T14:20:08Z</time>
      </trkpt>
      <trkpt lat="38.754905" lon="-6.384933">
        <ele>316.756</ele>
        <time>2021-10-12T14:20:10Z</time>
      </trkpt>
      <trkpt lat="38.755525" lon="-6.384734">
        <ele>315.127</ele>
        <time>2021-10-12T14:20:12Z</time>
      </trkpt>
      <trkpt lat="38.755840" lon="-6.384635">
        <ele>315.031</ele>
        <time>2021-10-12T14:20:13Z</time>
      </trkpt>
      <trkpt lat="38.756159" lon="-6.384534">
        <ele>314.961</ele>
        <time>2021-10-12T14:20:14Z</time>
      </trkpt>
      <trkpt lat="38.756768" lon="-6.384334">
        <ele>314.707</ele>
        <time>2021-10-12T14:20:16Z</time>
      </trkpt>
      <trkpt lat="38.757373" lon="-6.384130">
        <ele>315.408</ele>
        <time>2021-10-12T14:20:18Z</time>
      </trkpt>
      <trkpt lat="38.757676" lon="-6.384029">
        <ele>314.741</ele>
        <time>2021-10-12T14:20:19Z</time>
      </trkpt>
      <trkpt lat="38.757985" lon="-6.383932">
        <ele>315.579</ele>
        <time>2021-10-12T14:20:20Z</time>
      </trkpt>
      <trkpt lat="38.758575" lon="-6.383746">
        <ele>316.115</ele>
        <time>2021-10-12T14:20:22Z</time>
      </trkpt>
      <trkpt lat="38.759195" lon="-6.383528">
        <ele>314.878</ele>
        <time>2021-10-12T14:20:24Z</time>
      </trkpt>
      <trkpt lat="38.759515" lon="-6.383422">
        <ele>312.544</ele>
        <time>2021-10-12T14:20:25Z</time>
      </trkpt>
      <trkpt lat="38.759847" lon="-6.383319">
        <ele>310.143</ele>
        <time>2021-10-12T14:20:26Z</time>
      </trkpt>
      <trkpt lat="38.760469" lon="-6.383117">
        <ele>312.343</ele>
        <time>2021-10-12T14:20:28Z</time>
      </trkpt>
      <trkpt lat="38.760784" lon="-6.383012">
        <ele>315.494</ele>
        <time>2021-10-12T14:20:29Z</time>
      </trkpt>
      <trkpt lat="38.761094" lon="-6.382909">
        <ele>315.585</ele>
        <time>2021-10-12T14:20:30Z</time>
      </trkpt>
      <trkpt lat="38.761708" lon="-6.382707">
        <ele>314.789</ele>
        <time>2021-10-12T14:20:32Z</time>
      </trkpt>
      <trkpt lat="38.762292" lon="-6.382514">
        <ele>311.817</ele>
        <time>2021-10-12T14:20:34Z</time>
      </trkpt>
      <trkpt lat="38.762886" lon="-6.382318">
        <ele>313.408</ele>
        <time>2021-10-12T14:20:36Z</time>
      </trkpt>
      <trkpt lat="38.763183" lon="-6.382226">
        <ele>315.946</ele>
        <time>2021-10-12T14:20:37Z</time>
      </trkpt>
      <trkpt lat="38.763483" lon="-6.382133">
        <ele>317.044</ele>
        <time>2021-10-12T14:20:38Z</time>
      </trkpt>
      <trkpt lat="38.764052" lon="-6.381954">
        <ele>318.380</ele>
        <time>2021-10-12T14:20:40Z</time>
      </trkpt>
      <trkpt lat="38.764625" lon="-6.381761">
        <ele>315.463</ele>
        <time>2021-10-12T14:20:42Z</time>
      </trkpt>
      <trkpt lat="38.765197" lon="-6.381569">
        <ele>317.289</ele>
        <time>2021-10-12T14:20:44Z</time>
      </trkpt>
      <trkpt lat="38.765738" lon="-6.381384">
        <ele>319.048</ele>
        <time>2021-10-12T14:20:46Z</time>
      </trkpt>
      <trkpt lat="38.766006" lon="-6.381291">
        <ele>319.438</ele>
        <time>2021-10-12T14:20:47Z</time>
      </trkpt>
      <trkpt lat="38.766526" lon="-6.381124">
        <ele>320.599</ele>
        <time>2021-10-12T14:20:49Z</time>
      </trkpt>
      <trkpt lat="38.766780" lon="-6.381043">
        <ele>321.457</ele>
        <time>2021-10-12T14:20:50Z</time>
      </trkpt>
      <trkpt lat="38.767256" lon="-6.380904">
        <ele>321.100</ele>
        <time>2021-10-12T14:20:52Z</time>
      </trkpt>
      <trkpt lat="38.767749" lon="-6.380808">
        <ele>320.020</ele>
        <time>2021-10-12T14:20:54Z</time>
      </trkpt>
      <trkpt lat="38.767999" lon="-6.380784">
        <ele>319.908</ele>
        <time>2021-10-12T14:20:55Z</time>
      </trkpt>
      <trkpt lat="38.768254" lon="-6.380778">
        <ele>319.273</ele>
        <time>2021-10-12T14:20:56Z</time>
      </trkpt>
      <trkpt lat="38.768784" lon="-6.380794">
        <ele>319.121</ele>
        <time>2021-10-12T14:20:58Z</time>
      </trkpt>
      <trkpt lat="38.769060" lon="-6.380823">
        <ele>319.137</ele>
        <time>2021-10-12T14:20:59Z</time>
      </trkpt>
      <trkpt lat="38.769608" lon="-6.380916">
        <ele>317.050</ele>
        <time>2021-10-12T14:21:01Z</time>
      </trkpt>
      <trkpt lat="38.769882" lon="-6.380996">
        <ele>316.086</ele>
        <time>2021-10-12T14:21:02Z</time>
      </trkpt>
      <trkpt lat="38.770339" lon="-6.381183">
        <ele>316.635</ele>
        <time>2021-10-12T14:21:04Z</time>
      </trkpt>
      <trkpt lat="38.770763" lon="-6.381402">
        <ele>318.825</ele>
        <time>2021-10-12T14:21:06Z</time>
      </trkpt>
      <trkpt lat="38.770969" lon="-6.381529">
        <ele>319.316</ele>
        <time>2021-10-12T14:21:07Z</time>
      </trkpt>
      <trkpt lat="38.771176" lon="-6.381659">
        <ele>319.041</ele>
        <time>2021-10-12T14:21:08Z</time>
      </trkpt>
      <trkpt lat="38.771548" lon="-6.381867">
        <ele>320.381</ele>
        <time>2021-10-12T14:21:10Z</time>
      </trkpt>
      <trkpt lat="38.771734" lon="-6.381946">
        <ele>320.809</ele>
        <time>2021-10-12T14:21:11Z</time>
      </trkpt>
      <trkpt lat="38.772089" lon="-6.382036">
        <ele>320.008</ele>
        <time>2021-10-12T14:21:13Z</time>
      </trkpt>
      <trkpt lat="38.772263" lon="-6.382050">
        <ele>320.172</ele>
        <time>2021-10-12T14:21:14Z</time>
      </trkpt>
      <trkpt lat="38.772587" lon="-6.382028">
        <ele>320.810</ele>
        <time>2021-10-12T14:21:16Z</time>
      </trkpt>
      <trkpt lat="38.772742" lon="-6.381992">
        <ele>321.056</ele>
        <time>2021-10-12T14:21:17Z</time>
      </trkpt>
      <trkpt lat="38.773021" lon="-6.381885">
        <ele>321.029</ele>
        <time>2021-10-12T14:21:19Z</time>
      </trkpt>
      <trkpt lat="38.773147" lon="-6.381817">
        <ele>320.585</ele>
        <time>2021-10-12T14:21:20Z</time>
      </trkpt>
      <trkpt lat="38.773351" lon="-6.381674">
        <ele>318.924</ele>
        <time>2021-10-12T14:21:22Z</time>
      </trkpt>
      <trkpt lat="38.773483" lon="-6.381517">
        <ele>318.274</ele>
        <time>2021-10-12T14:21:24Z</time>
      </trkpt>
      <trkpt lat="38.773530" lon="-6.381307">
        <ele>317.955</ele>
        <time>2021-10-12T14:21:26Z</time>
      </trkpt>
      <trkpt lat="38.773601" lon="-6.381094">
        <ele>317.187</ele>
        <time>2021-10-12T14:21:28Z</time>
      </trkpt>
      <trkpt lat="38.773747" lon="-6.380879">
        <ele>315.542</ele>
        <time>2021-10-12T14:21:30Z</time>
      </trkpt>
      <trkpt lat="38.773843" lon="-6.380573">
        <ele>315.326</ele>
        <time>2021-10-12T14:21:32Z</time>
      </trkpt>
      <trkpt lat="38.773884" lon="-6.380229">
        <ele>316.208</ele>
        <time>2021-10-12T14:21:34Z</time>
      </trkpt>
      <trkpt lat="38.773906" lon="-6.380061">
        <ele>316.756</ele>
        <time>2021-10-12T14:21:35Z</time>
      </trkpt>
      <trkpt lat="38.773928" lon="-6.379904">
        <ele>316.644</ele>
        <time>2021-10-12T14:21:36Z</time>
      </trkpt>
      <trkpt lat="38.773919" lon="-6.379641">
        <ele>316.070</ele>
        <time>2021-10-12T14:21:38Z</time>
      </trkpt>
      <trkpt lat="38.773851" lon="-6.379446">
        <ele>316.173</ele>
        <time>2021-10-12T14:21:40Z</time>
      </trkpt>
      <trkpt lat="38.773843" lon="-6.379355">
        <ele>316.269</ele>
        <time>2021-10-12T14:21:41Z</time>
      </trkpt>
      <trkpt lat="38.773863" lon="-6.379272">
        <ele>316.148</ele>
        <time>2021-10-12T14:21:42Z</time>
      </trkpt>
      <trkpt lat="38.773913" lon="-6.379197">
        <ele>316.058</ele>
        <time>2021-10-12T14:21:43Z</time>
      </trkpt>
      <trkpt lat="38.773994" lon="-6.379143">
        <ele>316.089</ele>
        <time>2021-10-12T14:21:44Z</time>
      </trkpt>
      <trkpt lat="38.774216" lon="-6.379122">
        <ele>315.864</ele>
        <time>2021-10-12T14:21:46Z</time>
      </trkpt>
      <trkpt lat="38.774497" lon="-6.379042">
        <ele>315.306</ele>
        <time>2021-10-12T14:21:48Z</time>
      </trkpt>
      <trkpt lat="38.774807" lon="-6.378853">
        <ele>313.316</ele>
        <time>2021-10-12T14:21:50Z</time>
      </trkpt>
      <trkpt lat="38.775199" lon="-6.378696">
        <ele>312.308</ele>
        <time>2021-10-12T14:21:52Z</time>
      </trkpt>
      <trkpt lat="38.775453" lon="-6.378620">
        <ele>312.964</ele>
        <time>2021-10-12T14:21:53Z</time>
      </trkpt>
      <trkpt lat="38.776022" lon="-6.378530">
        <ele>311.032</ele>
        <time>2021-10-12T14:21:55Z</time>
      </trkpt>
      <trkpt lat="38.776311" lon="-6.378517">
        <ele>309.548</ele>
        <time>2021-10-12T14:21:56Z</time>
      </trkpt>
      <trkpt lat="38.776824" lon="-6.378533">
        <ele>306.051</ele>
        <time>2021-10-12T14:21:58Z</time>
      </trkpt>
      <trkpt lat="38.777083" lon="-6.378541">
        <ele>305.027</ele>
        <time>2021-10-12T14:21:59Z</time>
      </trkpt>
      <trkpt lat="38.777339" lon="-6.378545">
        <ele>304.866</ele>
        <time>2021-10-12T14:22:00Z</time>
      </trkpt>
      <trkpt lat="38.777592" lon="-6.378541">
        <ele>305.026</ele>
        <time>2021-10-12T14:22:01Z</time>
      </trkpt>
      <trkpt lat="38.777843" lon="-6.378537">
        <ele>305.357</ele>
        <time>2021-10-12T14:22:02Z</time>
      </trkpt>
      <trkpt lat="38.778274" lon="-6.378530">
        <ele>303.488</ele>
        <time>2021-10-12T14:22:04Z</time>
      </trkpt>
      <trkpt lat="38.778483" lon="-6.378527">
        <ele>302.824</ele>
        <time>2021-10-12T14:22:05Z</time>
      </trkpt>
      <trkpt lat="38.778870" lon="-6.378513">
        <ele>302.626</ele>
        <time>2021-10-12T14:22:07Z</time>
      </trkpt>
      <trkpt lat="38.779065" lon="-6.378507">
        <ele>302.608</ele>
        <time>2021-10-12T14:22:08Z</time>
      </trkpt>
      <trkpt lat="38.779484" lon="-6.378495">
        <ele>302.636</ele>
        <time>2021-10-12T14:22:10Z</time>
      </trkpt>
      <trkpt lat="38.779955" lon="-6.378490">
        <ele>303.024</ele>
        <time>2021-10-12T14:22:12Z</time>
      </trkpt>
      <trkpt lat="38.780213" lon="-6.378490">
        <ele>301.930</ele>
        <time>2021-10-12T14:22:13Z</time>
      </trkpt>
      <trkpt lat="38.780492" lon="-6.378482">
        <ele>301.143</ele>
        <time>2021-10-12T14:22:14Z</time>
      </trkpt>
      <trkpt lat="38.781067" lon="-6.378453">
        <ele>301.979</ele>
        <time>2021-10-12T14:22:16Z</time>
      </trkpt>
      <trkpt lat="38.781640" lon="-6.378446">
        <ele>300.658</ele>
        <time>2021-10-12T14:22:18Z</time>
      </trkpt>
      <trkpt lat="38.782153" lon="-6.378447">
        <ele>298.618</ele>
        <time>2021-10-12T14:22:20Z</time>
      </trkpt>
      <trkpt lat="38.782609" lon="-6.378435">
        <ele>301.649</ele>
        <time>2021-10-12T14:22:22Z</time>
      </trkpt>
      <trkpt lat="38.782823" lon="-6.378422">
        <ele>301.553</ele>
        <time>2021-10-12T14:22:23Z</time>
      </trkpt>
      <trkpt lat="38.783234" lon="-6.378401">
        <ele>297.604</ele>
        <time>2021-10-12T14:22:25Z</time>
      </trkpt>
      <trkpt lat="38.783452" lon="-6.378397">
        <ele>296.914</ele>
        <time>2021-10-12T14:22:26Z</time>
      </trkpt>
      <trkpt lat="38.783885" lon="-6.378396">
        <ele>297.508</ele>
        <time>2021-10-12T14:22:28Z</time>
      </trkpt>
      <trkpt lat="38.784111" lon="-6.378389">
        <ele>297.843</ele>
        <time>2021-10-12T14:22:29Z</time>
      </trkpt>
      <trkpt lat="38.784522" lon="-6.378376">
        <ele>297.641</ele>
        <time>2021-10-12T14:22:31Z</time>
      </trkpt>
      <trkpt lat="38.784732" lon="-6.378373">
        <ele>296.847</ele>
        <time>2021-10-12T14:22:32Z</time>
      </trkpt>
      <trkpt lat="38.785107" lon="-6.378362">
        <ele>296.780</ele>
        <time>2021-10-12T14:22:34Z</time>
      </trkpt>
      <trkpt lat="38.785285" lon="-6.378356">
        <ele>298.026</ele>
        <time>2021-10-12T14:22:35Z</time>
      </trkpt>
      <trkpt lat="38.785616" lon="-6.378346">
        <ele>300.245</ele>
        <time>2021-10-12T14:22:37Z</time>
      </trkpt>
      <trkpt lat="38.785770" lon="-6.378339">
        <ele>300.825</ele>
        <time>2021-10-12T14:22:38Z</time>
      </trkpt>
      <trkpt lat="38.786076" lon="-6.378325">
        <ele>300.186</ele>
        <time>2021-10-12T14:22:40Z</time>
      </trkpt>
      <trkpt lat="38.786246" lon="-6.378318">
        <ele>299.128</ele>
        <time>2021-10-12T14:22:41Z</time>
      </trkpt>
      <trkpt lat="38.786423" lon="-6.378311">
        <ele>298.289</ele>
        <time>2021-10-12T14:22:42Z</time>
      </trkpt>
      <trkpt lat="38.786789" lon="-6.378304">
        <ele>299.917</ele>
        <time>2021-10-12T14:22:44Z</time>
      </trkpt>
      <trkpt lat="38.787149" lon="-6.378295">
        <ele>301.008</ele>
        <time>2021-10-12T14:22:46Z</time>
      </trkpt>
      <trkpt lat="38.787320" lon="-6.378287">
        <ele>301.190</ele>
        <time>2021-10-12T14:22:47Z</time>
      </trkpt>
      <trkpt lat="38.787473" lon="-6.378279">
        <ele>301.218</ele>
        <time>2021-10-12T14:22:48Z</time>
      </trkpt>
      <trkpt lat="38.787749" lon="-6.378266">
        <ele>302.144</ele>
        <time>2021-10-12T14:22:50Z</time>
      </trkpt>
      <trkpt lat="38.788005" lon="-6.378262">
        <ele>303.177</ele>
        <time>2021-10-12T14:22:52Z</time>
      </trkpt>
      <trkpt lat="38.788129" lon="-6.378261">
        <ele>303.363</ele>
        <time>2021-10-12T14:22:53Z</time>
      </trkpt>
      <trkpt lat="38.788357" lon="-6.378257">
        <ele>303.272</ele>
        <time>2021-10-12T14:22:55Z</time>
      </trkpt>
      <trkpt lat="38.788475" lon="-6.378253">
        <ele>302.852</ele>
        <time>2021-10-12T14:22:56Z</time>
      </trkpt>
      <trkpt lat="38.788709" lon="-6.378245">
        <ele>302.033</ele>
        <time>2021-10-12T14:22:58Z</time>
      </trkpt>
      <trkpt lat="38.788950" lon="-6.378242">
        <ele>301.523</ele>
        <time>2021-10-12T14:23:00Z</time>
      </trkpt>
      <trkpt lat="38.789174" lon="-6.378238">
        <ele>302.483</ele>
        <time>2021-10-12T14:23:02Z</time>
      </trkpt>
      <trkpt lat="38.789375" lon="-6.378235">
        <ele>303.111</ele>
        <time>2021-10-12T14:23:04Z</time>
      </trkpt>
      <trkpt lat="38.789487" lon="-6.378234">
        <ele>303.408</ele>
        <time>2021-10-12T14:23:05Z</time>
      </trkpt>
      <trkpt lat="38.789602" lon="-6.378232">
        <ele>303.450</ele>
        <time>2021-10-12T14:23:06Z</time>
      </trkpt>
      <trkpt lat="38.789836" lon="-6.378225">
        <ele>303.438</ele>
        <time>2021-10-12T14:23:08Z</time>
      </trkpt>
      <trkpt lat="38.790067" lon="-6.378197">
        <ele>303.214</ele>
        <time>2021-10-12T14:23:10Z</time>
      </trkpt>
      <trkpt lat="38.790287" lon="-6.378161">
        <ele>302.667</ele>
        <time>2021-10-12T14:23:12Z</time>
      </trkpt>
      <trkpt lat="38.790404" lon="-6.378146">
        <ele>302.583</ele>
        <time>2021-10-12T14:23:13Z</time>
      </trkpt>
      <trkpt lat="38.790532" lon="-6.378129">
        <ele>302.532</ele>
        <time>2021-10-12T14:23:14Z</time>
      </trkpt>
      <trkpt lat="38.790783" lon="-6.378091">
        <ele>302.012</ele>
        <time>2021-10-12T14:23:16Z</time>
      </trkpt>
      <trkpt lat="38.791062" lon="-6.378052">
        <ele>301.283</ele>
        <time>2021-10-12T14:23:18Z</time>
      </trkpt>
      <trkpt lat="38.791209" lon="-6.378032">
        <ele>300.637</ele>
        <time>2021-10-12T14:23:19Z</time>
      </trkpt>
      <trkpt lat="38.791362" lon="-6.378014">
        <ele>300.149</ele>
        <time>2021-10-12T14:23:20Z</time>
      </trkpt>
      <trkpt lat="38.791654" lon="-6.377975">
        <ele>300.013</ele>
        <time>2021-10-12T14:23:22Z</time>
      </trkpt>
      <trkpt lat="38.791804" lon="-6.377952">
        <ele>300.008</ele>
        <time>2021-10-12T14:23:23Z</time>
      </trkpt>
      <trkpt lat="38.791958" lon="-6.377929">
        <ele>300.031</ele>
        <time>2021-10-12T14:23:24Z</time>
      </trkpt>
      <trkpt lat="38.792280" lon="-6.377878">
        <ele>299.049</ele>
        <time>2021-10-12T14:23:26Z</time>
      </trkpt>
      <trkpt lat="38.792572" lon="-6.377835">
        <ele>299.075</ele>
        <time>2021-10-12T14:23:28Z</time>
      </trkpt>
      <trkpt lat="38.792872" lon="-6.377797">
        <ele>299.378</ele>
        <time>2021-10-12T14:23:30Z</time>
      </trkpt>
      <trkpt lat="38.793200" lon="-6.377753">
        <ele>301.674</ele>
        <time>2021-10-12T14:23:32Z</time>
      </trkpt>
      <trkpt lat="38.793521" lon="-6.377714">
        <ele>302.983</ele>
        <time>2021-10-12T14:23:34Z</time>
      </trkpt>
      <trkpt lat="38.793683" lon="-6.377694">
        <ele>302.713</ele>
        <time>2021-10-12T14:23:35Z</time>
      </trkpt>
      <trkpt lat="38.793986" lon="-6.377656">
        <ele>301.634</ele>
        <time>2021-10-12T14:23:37Z</time>
      </trkpt>
      <trkpt lat="38.794147" lon="-6.377632">
        <ele>301.186</ele>
        <time>2021-10-12T14:23:38Z</time>
      </trkpt>
      <trkpt lat="38.794477" lon="-6.377586">
        <ele>300.260</ele>
        <time>2021-10-12T14:23:40Z</time>
      </trkpt>
      <trkpt lat="38.794836" lon="-6.377535">
        <ele>298.526</ele>
        <time>2021-10-12T14:23:42Z</time>
      </trkpt>
      <trkpt lat="38.795022" lon="-6.377509">
        <ele>298.208</ele>
        <time>2021-10-12T14:23:43Z</time>
      </trkpt>
      <trkpt lat="38.795210" lon="-6.377484">
        <ele>300.256</ele>
        <time>2021-10-12T14:23:44Z</time>
      </trkpt>
      <trkpt lat="38.795573" lon="-6.377440">
        <ele>303.054</ele>
        <time>2021-10-12T14:23:46Z</time>
      </trkpt>
      <trkpt lat="38.795926" lon="-6.377388">
        <ele>302.670</ele>
        <time>2021-10-12T14:23:48Z</time>
      </trkpt>
      <trkpt lat="38.796099" lon="-6.377362">
        <ele>302.543</ele>
        <time>2021-10-12T14:23:49Z</time>
      </trkpt>
      <trkpt lat="38.796271" lon="-6.377337">
        <ele>303.269</ele>
        <time>2021-10-12T14:23:50Z</time>
      </trkpt>
      <trkpt lat="38.796596" lon="-6.377291">
        <ele>304.478</ele>
        <time>2021-10-12T14:23:52Z</time>
      </trkpt>
      <trkpt lat="38.796759" lon="-6.377269">
        <ele>305.528</ele>
        <time>2021-10-12T14:23:53Z</time>
      </trkpt>
      <trkpt lat="38.796918" lon="-6.377243">
        <ele>306.999</ele>
        <time>2021-10-12T14:23:54Z</time>
      </trkpt>
      <trkpt lat="38.797241" lon="-6.377181">
        <ele>309.928</ele>
        <time>2021-10-12T14:23:56Z</time>
      </trkpt>
      <trkpt lat="38.797543" lon="-6.377124">
        <ele>310.289</ele>
        <time>2021-10-12T14:23:58Z</time>
      </trkpt>
      <trkpt lat="38.797700" lon="-6.377092">
        <ele>309.717</ele>
        <time>2021-10-12T14:23:59Z</time>
      </trkpt>
      <trkpt lat="38.797856" lon="-6.377056">
        <ele>309.308</ele>
        <time>2021-10-12T14:24:00Z</time>
      </trkpt>
      <trkpt lat="38.798010" lon="-6.377016">
        <ele>308.980</ele>
        <time>2021-10-12T14:24:01Z</time>
      </trkpt>
      <trkpt lat="38.798166" lon="-6.376973">
        <ele>309.318</ele>
        <time>2021-10-12T14:24:02Z</time>
      </trkpt>
      <trkpt lat="38.798449" lon="-6.376893">
        <ele>310.364</ele>
        <time>2021-10-12T14:24:04Z</time>
      </trkpt>
      <trkpt lat="38.798733" lon="-6.376810">
        <ele>310.897</ele>
        <time>2021-10-12T14:24:06Z</time>
      </trkpt>
      <trkpt lat="38.798876" lon="-6.376767">
        <ele>310.473</ele>
        <time>2021-10-12T14:24:07Z</time>
      </trkpt>
      <trkpt lat="38.799021" lon="-6.376721">
        <ele>309.672</ele>
        <time>2021-10-12T14:24:08Z</time>
      </trkpt>
      <trkpt lat="38.799317" lon="-6.376621">
        <ele>308.542</ele>
        <time>2021-10-12T14:24:10Z</time>
      </trkpt>
      <trkpt lat="38.799476" lon="-6.376563">
        <ele>307.913</ele>
        <time>2021-10-12T14:24:11Z</time>
      </trkpt>
      <trkpt lat="38.799796" lon="-6.376441">
        <ele>307.613</ele>
        <time>2021-10-12T14:24:13Z</time>
      </trkpt>
      <trkpt lat="38.799961" lon="-6.376372">
        <ele>307.243</ele>
        <time>2021-10-12T14:24:14Z</time>
      </trkpt>
      <trkpt lat="38.800285" lon="-6.376234">
        <ele>307.607</ele>
        <time>2021-10-12T14:24:16Z</time>
      </trkpt>
      <trkpt lat="38.800626" lon="-6.376086">
        <ele>308.308</ele>
        <time>2021-10-12T14:24:18Z</time>
      </trkpt>
      <trkpt lat="38.800798" lon="-6.376011">
        <ele>309.219</ele>
        <time>2021-10-12T14:24:19Z</time>
      </trkpt>
      <trkpt lat="38.800975" lon="-6.375934">
        <ele>309.667</ele>
        <time>2021-10-12T14:24:20Z</time>
      </trkpt>
      <trkpt lat="38.801316" lon="-6.375789">
        <ele>309.463</ele>
        <time>2021-10-12T14:24:22Z</time>
      </trkpt>
      <trkpt lat="38.801491" lon="-6.375720">
        <ele>309.196</ele>
        <time>2021-10-12T14:24:23Z</time>
      </trkpt>
      <trkpt lat="38.801834" lon="-6.375589">
        <ele>308.022</ele>
        <time>2021-10-12T14:24:25Z</time>
      </trkpt>
      <trkpt lat="38.802005" lon="-6.375525">
        <ele>308.031</ele>
        <time>2021-10-12T14:24:26Z</time>
      </trkpt>
      <trkpt lat="38.802305" lon="-6.375414">
        <ele>307.281</ele>
        <time>2021-10-12T14:24:28Z</time>
      </trkpt>
      <trkpt lat="38.802461" lon="-6.375360">
        <ele>306.462</ele>
        <time>2021-10-12T14:24:29Z</time>
      </trkpt>
      <trkpt lat="38.802782" lon="-6.375249">
        <ele>304.075</ele>
        <time>2021-10-12T14:24:31Z</time>
      </trkpt>
      <trkpt lat="38.802953" lon="-6.375188">
        <ele>303.828</ele>
        <time>2021-10-12T14:24:32Z</time>
      </trkpt>
      <trkpt lat="38.803275" lon="-6.375072">
        <ele>303.520</ele>
        <time>2021-10-12T14:24:34Z</time>
      </trkpt>
      <trkpt lat="38.803445" lon="-6.375010">
        <ele>303.108</ele>
        <time>2021-10-12T14:24:35Z</time>
      </trkpt>
      <trkpt lat="38.803614" lon="-6.374944">
        <ele>302.865</ele>
        <time>2021-10-12T14:24:36Z</time>
      </trkpt>
      <trkpt lat="38.803783" lon="-6.374874">
        <ele>302.993</ele>
        <time>2021-10-12T14:24:37Z</time>
      </trkpt>
      <trkpt lat="38.803958" lon="-6.374802">
        <ele>302.829</ele>
        <time>2021-10-12T14:24:38Z</time>
      </trkpt>
      <trkpt lat="38.804292" lon="-6.374667">
        <ele>302.762</ele>
        <time>2021-10-12T14:24:40Z</time>
      </trkpt>
      <trkpt lat="38.804467" lon="-6.374602">
        <ele>302.648</ele>
        <time>2021-10-12T14:24:41Z</time>
      </trkpt>
      <trkpt lat="38.804824" lon="-6.374484">
        <ele>302.847</ele>
        <time>2021-10-12T14:24:43Z</time>
      </trkpt>
      <trkpt lat="38.805006" lon="-6.374424">
        <ele>303.187</ele>
        <time>2021-10-12T14:24:44Z</time>
      </trkpt>
      <trkpt lat="38.805349" lon="-6.374309">
        <ele>302.498</ele>
        <time>2021-10-12T14:24:46Z</time>
      </trkpt>
      <trkpt lat="38.805693" lon="-6.374191">
        <ele>300.436</ele>
        <time>2021-10-12T14:24:48Z</time>
      </trkpt>
      <trkpt lat="38.805858" lon="-6.374135">
        <ele>299.917</ele>
        <time>2021-10-12T14:24:49Z</time>
      </trkpt>
      <trkpt lat="38.806024" lon="-6.374083">
        <ele>299.718</ele>
        <time>2021-10-12T14:24:50Z</time>
      </trkpt>
      <trkpt lat="38.806332" lon="-6.373986">
        <ele>299.408</ele>
        <time>2021-10-12T14:24:52Z</time>
      </trkpt>
      <trkpt lat="38.806486" lon="-6.373937">
        <ele>298.811</ele>
        <time>2021-10-12T14:24:53Z</time>
      </trkpt>
      <trkpt lat="38.806779" lon="-6.373831">
        <ele>297.779</ele>
        <time>2021-10-12T14:24:55Z</time>
      </trkpt>
      <trkpt lat="38.806934" lon="-6.373774">
        <ele>297.415</ele>
        <time>2021-10-12T14:24:56Z</time>
      </trkpt>
      <trkpt lat="38.807247" lon="-6.373659">
        <ele>298.198</ele>
        <time>2021-10-12T14:24:58Z</time>
      </trkpt>
      <trkpt lat="38.807586" lon="-6.373536">
        <ele>298.744</ele>
        <time>2021-10-12T14:25:00Z</time>
      </trkpt>
      <trkpt lat="38.807762" lon="-6.373471">
        <ele>298.583</ele>
        <time>2021-10-12T14:25:01Z</time>
      </trkpt>
      <trkpt lat="38.807942" lon="-6.373405">
        <ele>297.713</ele>
        <time>2021-10-12T14:25:02Z</time>
      </trkpt>
      <trkpt lat="38.808251" lon="-6.373291">
        <ele>296.914</ele>
        <time>2021-10-12T14:25:04Z</time>
      </trkpt>
      <trkpt lat="38.808399" lon="-6.373236">
        <ele>296.683</ele>
        <time>2021-10-12T14:25:05Z</time>
      </trkpt>
      <trkpt lat="38.808696" lon="-6.373129">
        <ele>296.625</ele>
        <time>2021-10-12T14:25:07Z</time>
      </trkpt>
      <trkpt lat="38.808850" lon="-6.373074">
        <ele>296.917</ele>
        <time>2021-10-12T14:25:08Z</time>
      </trkpt>
      <trkpt lat="38.809148" lon="-6.372968">
        <ele>297.908</ele>
        <time>2021-10-12T14:25:10Z</time>
      </trkpt>
      <trkpt lat="38.809306" lon="-6.372916">
        <ele>297.586</ele>
        <time>2021-10-12T14:25:11Z</time>
      </trkpt>
      <trkpt lat="38.809625" lon="-6.372797">
        <ele>296.484</ele>
        <time>2021-10-12T14:25:13Z</time>
      </trkpt>
      <trkpt lat="38.809792" lon="-6.372738">
        <ele>295.750</ele>
        <time>2021-10-12T14:25:14Z</time>
      </trkpt>
      <trkpt lat="38.810149" lon="-6.372627">
        <ele>294.223</ele>
        <time>2021-10-12T14:25:16Z</time>
      </trkpt>
      <trkpt lat="38.810533" lon="-6.372504">
        <ele>294.989</ele>
        <time>2021-10-12T14:25:18Z</time>
      </trkpt>
      <trkpt lat="38.810727" lon="-6.372434">
        <ele>295.578</ele>
        <time>2021-10-12T14:25:19Z</time>
      </trkpt>
      <trkpt lat="38.811099" lon="-6.372293">
        <ele>294.358</ele>
        <time>2021-10-12T14:25:21Z</time>
      </trkpt>
      <trkpt lat="38.811291" lon="-6.372221">
        <ele>292.159</ele>
        <time>2021-10-12T14:25:22Z</time>
      </trkpt>
      <trkpt lat="38.811488" lon="-6.372153">
        <ele>290.458</ele>
        <time>2021-10-12T14:25:23Z</time>
      </trkpt>
      <trkpt lat="38.811899" lon="-6.372005">
        <ele>289.252</ele>
        <time>2021-10-12T14:25:25Z</time>
      </trkpt>
      <trkpt lat="38.812127" lon="-6.371925">
        <ele>289.617</ele>
        <time>2021-10-12T14:25:26Z</time>
      </trkpt>
      <trkpt lat="38.812507" lon="-6.371789">
        <ele>289.608</ele>
        <time>2021-10-12T14:25:28Z</time>
      </trkpt>
      <trkpt lat="38.812690" lon="-6.371723">
        <ele>290.523</ele>
        <time>2021-10-12T14:25:29Z</time>
      </trkpt>
      <trkpt lat="38.812866" lon="-6.371659">
        <ele>291.311</ele>
        <time>2021-10-12T14:25:30Z</time>
      </trkpt>
      <trkpt lat="38.813198" lon="-6.371533">
        <ele>292.777</ele>
        <time>2021-10-12T14:25:32Z</time>
      </trkpt>
      <trkpt lat="38.813483" lon="-6.371430">
        <ele>294.080</ele>
        <time>2021-10-12T14:25:34Z</time>
      </trkpt>
      <trkpt lat="38.813759" lon="-6.371335">
        <ele>296.196</ele>
        <time>2021-10-12T14:25:36Z</time>
      </trkpt>
      <trkpt lat="38.814062" lon="-6.371219">
        <ele>297.045</ele>
        <time>2021-10-12T14:25:38Z</time>
      </trkpt>
      <trkpt lat="38.814381" lon="-6.371100">
        <ele>296.995</ele>
        <time>2021-10-12T14:25:40Z</time>
      </trkpt>
      <trkpt lat="38.814708" lon="-6.370980">
        <ele>297.016</ele>
        <time>2021-10-12T14:25:42Z</time>
      </trkpt>
      <trkpt lat="38.814879" lon="-6.370918">
        <ele>297.665</ele>
        <time>2021-10-12T14:25:43Z</time>
      </trkpt>
      <trkpt lat="38.815051" lon="-6.370852">
        <ele>298.368</ele>
        <time>2021-10-12T14:25:44Z</time>
      </trkpt>
      <trkpt lat="38.815391" lon="-6.370726">
        <ele>300.414</ele>
        <time>2021-10-12T14:25:46Z</time>
      </trkpt>
      <trkpt lat="38.815576" lon="-6.370659">
        <ele>300.608</ele>
        <time>2021-10-12T14:25:47Z</time>
      </trkpt>
      <trkpt lat="38.815960" lon="-6.370528">
        <ele>299.644</ele>
        <time>2021-10-12T14:25:49Z</time>
      </trkpt>
      <trkpt lat="38.816166" lon="-6.370456">
        <ele>299.412</ele>
        <time>2021-10-12T14:25:50Z</time>
      </trkpt>
      <trkpt lat="38.816558" lon="-6.370318">
        <ele>299.368</ele>
        <time>2021-10-12T14:25:52Z</time>
      </trkpt>
      <trkpt lat="38.816748" lon="-6.370251">
        <ele>299.861</ele>
        <time>2021-10-12T14:25:53Z</time>
      </trkpt>
      <trkpt lat="38.817100" lon="-6.370130">
        <ele>303.437</ele>
        <time>2021-10-12T14:25:55Z</time>
      </trkpt>
      <trkpt lat="38.817281" lon="-6.370077">
        <ele>304.076</ele>
        <time>2021-10-12T14:25:56Z</time>
      </trkpt>
      <trkpt lat="38.817625" lon="-6.369979">
        <ele>303.696</ele>
        <time>2021-10-12T14:25:58Z</time>
      </trkpt>
      <trkpt lat="38.817807" lon="-6.369929">
        <ele>303.287</ele>
        <time>2021-10-12T14:25:59Z</time>
      </trkpt>
      <trkpt lat="38.817993" lon="-6.369881">
        <ele>303.182</ele>
        <time>2021-10-12T14:26:00Z</time>
      </trkpt>
      <trkpt lat="38.818389" lon="-6.369770">
        <ele>303.043</ele>
        <time>2021-10-12T14:26:02Z</time>
      </trkpt>
      <trkpt lat="38.818804" lon="-6.369664">
        <ele>304.817</ele>
        <time>2021-10-12T14:26:04Z</time>
      </trkpt>
      <trkpt lat="38.819249" lon="-6.369549">
        <ele>304.008</ele>
        <time>2021-10-12T14:26:06Z</time>
      </trkpt>
      <trkpt lat="38.819488" lon="-6.369487">
        <ele>304.016</ele>
        <time>2021-10-12T14:26:07Z</time>
      </trkpt>
      <trkpt lat="38.819736" lon="-6.369421">
        <ele>304.184</ele>
        <time>2021-10-12T14:26:08Z</time>
      </trkpt>
      <trkpt lat="38.820202" lon="-6.369286">
        <ele>306.340</ele>
        <time>2021-10-12T14:26:10Z</time>
      </trkpt>
      <trkpt lat="38.820434" lon="-6.369220">
        <ele>308.123</ele>
        <time>2021-10-12T14:26:11Z</time>
      </trkpt>
      <trkpt lat="38.820887" lon="-6.369093">
        <ele>309.099</ele>
        <time>2021-10-12T14:26:13Z</time>
      </trkpt>
      <trkpt lat="38.821125" lon="-6.369026">
        <ele>309.038</ele>
        <time>2021-10-12T14:26:14Z</time>
      </trkpt>
      <trkpt lat="38.821618" lon="-6.368893">
        <ele>309.088</ele>
        <time>2021-10-12T14:26:16Z</time>
      </trkpt>
      <trkpt lat="38.822159" lon="-6.368751">
        <ele>308.739</ele>
        <time>2021-10-12T14:26:18Z</time>
      </trkpt>
      <trkpt lat="38.822732" lon="-6.368604">
        <ele>306.276</ele>
        <time>2021-10-12T14:26:20Z</time>
      </trkpt>
      <trkpt lat="38.823309" lon="-6.368463">
        <ele>306.590</ele>
        <time>2021-10-12T14:26:22Z</time>
      </trkpt>
      <trkpt lat="38.823602" lon="-6.368380">
        <ele>305.419</ele>
        <time>2021-10-12T14:26:23Z</time>
      </trkpt>
      <trkpt lat="38.824186" lon="-6.368197">
        <ele>302.908</ele>
        <time>2021-10-12T14:26:25Z</time>
      </trkpt>
      <trkpt lat="38.824488" lon="-6.368102">
        <ele>302.055</ele>
        <time>2021-10-12T14:26:26Z</time>
      </trkpt>
      <trkpt lat="38.825044" lon="-6.367928">
        <ele>302.523</ele>
        <time>2021-10-12T14:26:28Z</time>
      </trkpt>
      <trkpt lat="38.825328" lon="-6.367838">
        <ele>302.049</ele>
        <time>2021-10-12T14:26:29Z</time>
      </trkpt>
      <trkpt lat="38.825605" lon="-6.367742">
        <ele>301.892</ele>
        <time>2021-10-12T14:26:30Z</time>
      </trkpt>
      <trkpt lat="38.825880" lon="-6.367646">
        <ele>300.338</ele>
        <time>2021-10-12T14:26:31Z</time>
      </trkpt>
      <trkpt lat="38.826151" lon="-6.367551">
        <ele>297.777</ele>
        <time>2021-10-12T14:26:32Z</time>
      </trkpt>
      <trkpt lat="38.826620" lon="-6.367380">
        <ele>298.217</ele>
        <time>2021-10-12T14:26:34Z</time>
      </trkpt>
      <trkpt lat="38.827063" lon="-6.367217">
        <ele>299.068</ele>
        <time>2021-10-12T14:26:36Z</time>
      </trkpt>
      <trkpt lat="38.827523" lon="-6.367049">
        <ele>296.821</ele>
        <time>2021-10-12T14:26:38Z</time>
      </trkpt>
      <trkpt lat="38.828009" lon="-6.366875">
        <ele>292.341</ele>
        <time>2021-10-12T14:26:40Z</time>
      </trkpt>
      <trkpt lat="38.828538" lon="-6.366698">
        <ele>291.005</ele>
        <time>2021-10-12T14:26:42Z</time>
      </trkpt>
      <trkpt lat="38.828817" lon="-6.366604">
        <ele>290.008</ele>
        <time>2021-10-12T14:26:43Z</time>
      </trkpt>
      <trkpt lat="38.829109" lon="-6.366504">
        <ele>287.890</ele>
        <time>2021-10-12T14:26:44Z</time>
      </trkpt>
      <trkpt lat="38.829683" lon="-6.366310">
        <ele>286.198</ele>
        <time>2021-10-12T14:26:46Z</time>
      </trkpt>
      <trkpt lat="38.829979" lon="-6.366207">
        <ele>285.494</ele>
        <time>2021-10-12T14:26:47Z</time>
      </trkpt>
      <trkpt lat="38.830276" lon="-6.366098">
        <ele>285.097</ele>
        <time>2021-10-12T14:26:48Z</time>
      </trkpt>
      <trkpt lat="38.830576" lon="-6.365996">
        <ele>285.563</ele>
        <time>2021-10-12T14:26:49Z</time>
      </trkpt>
      <trkpt lat="38.830886" lon="-6.365894">
        <ele>284.112</ele>
        <time>2021-10-12T14:26:50Z</time>
      </trkpt>
      <trkpt lat="38.831479" lon="-6.365727">
        <ele>283.352</ele>
        <time>2021-10-12T14:26:52Z</time>
      </trkpt>
      <trkpt lat="38.831792" lon="-6.365649">
        <ele>281.873</ele>
        <time>2021-10-12T14:26:53Z</time>
      </trkpt>
      <trkpt lat="38.832368" lon="-6.365531">
        <ele>278.531</ele>
        <time>2021-10-12T14:26:55Z</time>
      </trkpt>
      <trkpt lat="38.832653" lon="-6.365476">
        <ele>278.061</ele>
        <time>2021-10-12T14:26:56Z</time>
      </trkpt>
      <trkpt lat="38.833181" lon="-6.365358">
        <ele>280.007</ele>
        <time>2021-10-12T14:26:58Z</time>
      </trkpt>
      <trkpt lat="38.833449" lon="-6.365292">
        <ele>280.908</ele>
        <time>2021-10-12T14:26:59Z</time>
      </trkpt>
      <trkpt lat="38.833967" lon="-6.365156">
        <ele>277.881</ele>
        <time>2021-10-12T14:27:01Z</time>
      </trkpt>
      <trkpt lat="38.834238" lon="-6.365088">
        <ele>275.829</ele>
        <time>2021-10-12T14:27:02Z</time>
      </trkpt>
      <trkpt lat="38.834743" lon="-6.364981">
        <ele>278.015</ele>
        <time>2021-10-12T14:27:04Z</time>
      </trkpt>
      <trkpt lat="38.835003" lon="-6.364922">
        <ele>278.768</ele>
        <time>2021-10-12T14:27:05Z</time>
      </trkpt>
      <trkpt lat="38.835261" lon="-6.364858">
        <ele>278.574</ele>
        <time>2021-10-12T14:27:06Z</time>
      </trkpt>
      <trkpt lat="38.835519" lon="-6.364796">
        <ele>277.223</ele>
        <time>2021-10-12T14:27:07Z</time>
      </trkpt>
      <trkpt lat="38.835786" lon="-6.364737">
        <ele>277.093</ele>
        <time>2021-10-12T14:27:08Z</time>
      </trkpt>
      <trkpt lat="38.836312" lon="-6.364623">
        <ele>278.044</ele>
        <time>2021-10-12T14:27:10Z</time>
      </trkpt>
      <trkpt lat="38.836847" lon="-6.364515">
        <ele>276.453</ele>
        <time>2021-10-12T14:27:12Z</time>
      </trkpt>
      <trkpt lat="38.837115" lon="-6.364459">
        <ele>275.404</ele>
        <time>2021-10-12T14:27:13Z</time>
      </trkpt>
      <trkpt lat="38.837395" lon="-6.364395">
        <ele>276.114</ele>
        <time>2021-10-12T14:27:14Z</time>
      </trkpt>
      <trkpt lat="38.837950" lon="-6.364276">
        <ele>278.408</ele>
        <time>2021-10-12T14:27:16Z</time>
      </trkpt>
      <trkpt lat="38.838244" lon="-6.364214">
        <ele>277.523</ele>
        <time>2021-10-12T14:27:17Z</time>
      </trkpt>
      <trkpt lat="38.838538" lon="-6.364146">
        <ele>274.851</ele>
        <time>2021-10-12T14:27:18Z</time>
      </trkpt>
      <trkpt lat="38.838828" lon="-6.364080">
        <ele>271.417</ele>
        <time>2021-10-12T14:27:19Z</time>
      </trkpt>
      <trkpt lat="38.839116" lon="-6.364015">
        <ele>270.550</ele>
        <time>2021-10-12T14:27:20Z</time>
      </trkpt>
      <trkpt lat="38.839660" lon="-6.363903">
        <ele>273.716</ele>
        <time>2021-10-12T14:27:22Z</time>
      </trkpt>
      <trkpt lat="38.839931" lon="-6.363835">
        <ele>273.455</ele>
        <time>2021-10-12T14:27:23Z</time>
      </trkpt>
      <trkpt lat="38.840197" lon="-6.363762">
        <ele>273.575</ele>
        <time>2021-10-12T14:27:24Z</time>
      </trkpt>
      <trkpt lat="38.840448" lon="-6.363689">
        <ele>274.876</ele>
        <time>2021-10-12T14:27:25Z</time>
      </trkpt>
      <trkpt lat="38.840698" lon="-6.363623">
        <ele>275.948</ele>
        <time>2021-10-12T14:27:26Z</time>
      </trkpt>
      <trkpt lat="38.841149" lon="-6.363513">
        <ele>276.461</ele>
        <time>2021-10-12T14:27:28Z</time>
      </trkpt>
      <trkpt lat="38.841614" lon="-6.363398">
        <ele>278.517</ele>
        <time>2021-10-12T14:27:30Z</time>
      </trkpt>
      <trkpt lat="38.841847" lon="-6.363340">
        <ele>279.008</ele>
        <time>2021-10-12T14:27:31Z</time>
      </trkpt>
      <trkpt lat="38.842086" lon="-6.363280">
        <ele>279.112</ele>
        <time>2021-10-12T14:27:32Z</time>
      </trkpt>
      <trkpt lat="38.842547" lon="-6.363171">
        <ele>279.580</ele>
        <time>2021-10-12T14:27:34Z</time>
      </trkpt>
      <trkpt lat="38.842791" lon="-6.363105">
        <ele>279.776</ele>
        <time>2021-10-12T14:27:35Z</time>
      </trkpt>
      <trkpt lat="38.843278" lon="-6.362951">
        <ele>283.729</ele>
        <time>2021-10-12T14:27:37Z</time>
      </trkpt>
      <trkpt lat="38.843529" lon="-6.362858">
        <ele>283.265</ele>
        <time>2021-10-12T14:27:38Z</time>
      </trkpt>
      <trkpt lat="38.844005" lon="-6.362606">
        <ele>282.134</ele>
        <time>2021-10-12T14:27:40Z</time>
      </trkpt>
      <trkpt lat="38.844242" lon="-6.362448">
        <ele>283.294</ele>
        <time>2021-10-12T14:27:41Z</time>
      </trkpt>
      <trkpt lat="38.844474" lon="-6.362274">
        <ele>283.695</ele>
        <time>2021-10-12T14:27:42Z</time>
      </trkpt>
      <trkpt lat="38.844945" lon="-6.361897">
        <ele>286.059</ele>
        <time>2021-10-12T14:27:44Z</time>
      </trkpt>
      <trkpt lat="38.845415" lon="-6.361550">
        <ele>286.203</ele>
        <time>2021-10-12T14:27:46Z</time>
      </trkpt>
      <trkpt lat="38.845663" lon="-6.361380">
        <ele>286.423</ele>
        <time>2021-10-12T14:27:47Z</time>
      </trkpt>
      <trkpt lat="38.846170" lon="-6.361116">
        <ele>288.408</ele>
        <time>2021-10-12T14:27:49Z</time>
      </trkpt>
      <trkpt lat="38.846431" lon="-6.361017">
        <ele>290.083</ele>
        <time>2021-10-12T14:27:50Z</time>
      </trkpt>
      <trkpt lat="38.846965" lon="-6.360870">
        <ele>291.941</ele>
        <time>2021-10-12T14:27:52Z</time>
      </trkpt>
      <trkpt lat="38.847250" lon="-6.360815">
        <ele>293.157</ele>
        <time>2021-10-12T14:27:53Z</time>
      </trkpt>
      <trkpt lat="38.847539" lon="-6.360785">
        <ele>294.130</ele>
        <time>2021-10-12T14:27:54Z</time>
      </trkpt>
      <trkpt lat="38.848134" lon="-6.360761">
        <ele>294.076</ele>
        <time>2021-10-12T14:27:56Z</time>
      </trkpt>
      <trkpt lat="38.848715" lon="-6.360723">
        <ele>294.695</ele>
        <time>2021-10-12T14:27:58Z</time>
      </trkpt>
      <trkpt lat="38.849308" lon="-6.360648">
        <ele>298.875</ele>
        <time>2021-10-12T14:28:00Z</time>
      </trkpt>
      <trkpt lat="38.849606" lon="-6.360599">
        <ele>297.166</ele>
        <time>2021-10-12T14:28:01Z</time>
      </trkpt>
      <trkpt lat="38.849913" lon="-6.360542">
        <ele>295.316</ele>
        <time>2021-10-12T14:28:02Z</time>
      </trkpt>
      <trkpt lat="38.850475" lon="-6.360432">
        <ele>292.676</ele>
        <time>2021-10-12T14:28:04Z</time>
      </trkpt>
      <trkpt lat="38.851039" lon="-6.360329">
        <ele>291.013</ele>
        <time>2021-10-12T14:28:06Z</time>
      </trkpt>
      <trkpt lat="38.851318" lon="-6.360285">
        <ele>291.008</ele>
        <time>2021-10-12T14:28:07Z</time>
      </trkpt>
      <trkpt lat="38.851599" lon="-6.360261">
        <ele>291.819</ele>
        <time>2021-10-12T14:28:08Z</time>
      </trkpt>
      <trkpt lat="38.852136" lon="-6.360289">
        <ele>291.067</ele>
        <time>2021-10-12T14:28:10Z</time>
      </trkpt>
      <trkpt lat="38.852680" lon="-6.360400">
        <ele>286.763</ele>
        <time>2021-10-12T14:28:12Z</time>
      </trkpt>
      <trkpt lat="38.852956" lon="-6.360475">
        <ele>285.536</ele>
        <time>2021-10-12T14:28:13Z</time>
      </trkpt>
      <trkpt lat="38.853232" lon="-6.360568">
        <ele>285.152</ele>
        <time>2021-10-12T14:28:14Z</time>
      </trkpt>
      <trkpt lat="38.853766" lon="-6.360762">
        <ele>284.571</ele>
        <time>2021-10-12T14:28:16Z</time>
      </trkpt>
      <trkpt lat="38.854046" lon="-6.360862">
        <ele>283.481</ele>
        <time>2021-10-12T14:28:17Z</time>
      </trkpt>
      <trkpt lat="38.854611" lon="-6.361052">
        <ele>278.392</ele>
        <time>2021-10-12T14:28:19Z</time>
      </trkpt>
      <trkpt lat="38.854906" lon="-6.361155">
        <ele>278.167</ele>
        <time>2021-10-12T14:28:20Z</time>
      </trkpt>
      <trkpt lat="38.855470" lon="-6.361344">
        <ele>278.981</ele>
        <time>2021-10-12T14:28:22Z</time>
      </trkpt>
      <trkpt lat="38.855760" lon="-6.361438">
        <ele>276.819</ele>
        <time>2021-10-12T14:28:23Z</time>
      </trkpt>
      <trkpt lat="38.856331" lon="-6.361623">
        <ele>272.108</ele>
        <time>2021-10-12T14:28:25Z</time>
      </trkpt>
      <trkpt lat="38.856623" lon="-6.361719">
        <ele>274.364</ele>
        <time>2021-10-12T14:28:26Z</time>
      </trkpt>
      <trkpt lat="38.857159" lon="-6.361895">
        <ele>275.572</ele>
        <time>2021-10-12T14:28:28Z</time>
      </trkpt>
      <trkpt lat="38.857427" lon="-6.361984">
        <ele>272.988</ele>
        <time>2021-10-12T14:28:29Z</time>
      </trkpt>
      <trkpt lat="38.857937" lon="-6.362157">
        <ele>273.171</ele>
        <time>2021-10-12T14:28:31Z</time>
      </trkpt>
      <trkpt lat="38.858194" lon="-6.362242">
        <ele>273.027</ele>
        <time>2021-10-12T14:28:32Z</time>
      </trkpt>
      <trkpt lat="38.858671" lon="-6.362400">
        <ele>269.146</ele>
        <time>2021-10-12T14:28:34Z</time>
      </trkpt>
      <trkpt lat="38.859183" lon="-6.362553">
        <ele>266.866</ele>
        <time>2021-10-12T14:28:36Z</time>
      </trkpt>
      <trkpt lat="38.859735" lon="-6.362612">
        <ele>267.437</ele>
        <time>2021-10-12T14:28:38Z</time>
      </trkpt>
      <trkpt lat="38.860289" lon="-6.362555">
        <ele>269.252</ele>
        <time>2021-10-12T14:28:40Z</time>
      </trkpt>
      <trkpt lat="38.860562" lon="-6.362485">
        <ele>267.953</ele>
        <time>2021-10-12T14:28:41Z</time>
      </trkpt>
      <trkpt lat="38.861059" lon="-6.362305">
        <ele>264.408</ele>
        <time>2021-10-12T14:28:43Z</time>
      </trkpt>
      <trkpt lat="38.861297" lon="-6.362211">
        <ele>262.808</ele>
        <time>2021-10-12T14:28:44Z</time>
      </trkpt>
      <trkpt lat="38.861750" lon="-6.362070">
        <ele>264.243</ele>
        <time>2021-10-12T14:28:46Z</time>
      </trkpt>
      <trkpt lat="38.862245" lon="-6.362016">
        <ele>265.531</ele>
        <time>2021-10-12T14:28:48Z</time>
      </trkpt>
      <trkpt lat="38.862511" lon="-6.362044">
        <ele>264.917</ele>
        <time>2021-10-12T14:28:49Z</time>
      </trkpt>
      <trkpt lat="38.862786" lon="-6.362113">
        <ele>264.630</ele>
        <time>2021-10-12T14:28:50Z</time>
      </trkpt>
      <trkpt lat="38.863315" lon="-6.362354">
        <ele>263.986</ele>
        <time>2021-10-12T14:28:52Z</time>
      </trkpt>
      <trkpt lat="38.863585" lon="-6.362528">
        <ele>263.895</ele>
        <time>2021-10-12T14:28:53Z</time>
      </trkpt>
      <trkpt lat="38.864122" lon="-6.362896">
        <ele>260.825</ele>
        <time>2021-10-12T14:28:55Z</time>
      </trkpt>
      <trkpt lat="38.864408" lon="-6.363065">
        <ele>260.196</ele>
        <time>2021-10-12T14:28:56Z</time>
      </trkpt>
      <trkpt lat="38.864978" lon="-6.363281">
        <ele>256.357</ele>
        <time>2021-10-12T14:28:58Z</time>
      </trkpt>
      <trkpt lat="38.865578" lon="-6.363353">
        <ele>255.700</ele>
        <time>2021-10-12T14:29:00Z</time>
      </trkpt>
      <trkpt lat="38.865883" lon="-6.363366">
        <ele>253.720</ele>
        <time>2021-10-12T14:29:01Z</time>
      </trkpt>
      <trkpt lat="38.866197" lon="-6.363383">
        <ele>253.308</ele>
        <time>2021-10-12T14:29:02Z</time>
      </trkpt>
      <trkpt lat="38.866807" lon="-6.363428">
        <ele>253.263</ele>
        <time>2021-10-12T14:29:04Z</time>
      </trkpt>
      <trkpt lat="38.867453" lon="-6.363482">
        <ele>251.661</ele>
        <time>2021-10-12T14:29:06Z</time>
      </trkpt>
      <trkpt lat="38.867783" lon="-6.363510">
        <ele>252.037</ele>
        <time>2021-10-12T14:29:07Z</time>
      </trkpt>
      <trkpt lat="38.868127" lon="-6.363545">
        <ele>252.720</ele>
        <time>2021-10-12T14:29:08Z</time>
      </trkpt>
      <trkpt lat="38.868780" lon="-6.363617">
        <ele>251.076</ele>
        <time>2021-10-12T14:29:10Z</time>
      </trkpt>
      <trkpt lat="38.869117" lon="-6.363647">
        <ele>251.165</ele>
        <time>2021-10-12T14:29:11Z</time>
      </trkpt>
      <trkpt lat="38.869780" lon="-6.363676">
        <ele>252.015</ele>
        <time>2021-10-12T14:29:13Z</time>
      </trkpt>
      <trkpt lat="38.870120" lon="-6.363701">
        <ele>253.396</ele>
        <time>2021-10-12T14:29:14Z</time>
      </trkpt>
      <trkpt lat="38.870753" lon="-6.363771">
        <ele>250.615</ele>
        <time>2021-10-12T14:29:16Z</time>
      </trkpt>
      <trkpt lat="38.871067" lon="-6.363803">
        <ele>250.065</ele>
        <time>2021-10-12T14:29:17Z</time>
      </trkpt>
      <trkpt lat="38.871684" lon="-6.363854">
        <ele>250.911</ele>
        <time>2021-10-12T14:29:19Z</time>
      </trkpt>
      <trkpt lat="38.871999" lon="-6.363880">
        <ele>250.208</ele>
        <time>2021-10-12T14:29:20Z</time>
      </trkpt>
      <trkpt lat="38.872596" lon="-6.363928">
        <ele>251.059</ele>
        <time>2021-10-12T14:29:22Z</time>
      </trkpt>
      <trkpt lat="38.872904" lon="-6.363952">
        <ele>249.237</ele>
        <time>2021-10-12T14:29:23Z</time>
      </trkpt>
      <trkpt lat="38.873518" lon="-6.364001">
        <ele>249.363</ele>
        <time>2021-10-12T14:29:25Z</time>
      </trkpt>
      <trkpt lat="38.873839" lon="-6.364028">
        <ele>249.976</ele>
        <time>2021-10-12T14:29:26Z</time>
      </trkpt>
      <trkpt lat="38.874442" lon="-6.364079">
        <ele>250.012</ele>
        <time>2021-10-12T14:29:28Z</time>
      </trkpt>
      <trkpt lat="38.874748" lon="-6.364105">
        <ele>251.111</ele>
        <time>2021-10-12T14:29:29Z</time>
      </trkpt>
      <trkpt lat="38.875316" lon="-6.364153">
        <ele>253.391</ele>
        <time>2021-10-12T14:29:31Z</time>
      </trkpt>
      <trkpt lat="38.875611" lon="-6.364178">
        <ele>255.012</ele>
        <time>2021-10-12T14:29:32Z</time>
      </trkpt>
      <trkpt lat="38.876162" lon="-6.364226">
        <ele>255.029</ele>
        <time>2021-10-12T14:29:34Z</time>
      </trkpt>
      <trkpt lat="38.876738" lon="-6.364312">
        <ele>255.900</ele>
        <time>2021-10-12T14:29:36Z</time>
      </trkpt>
      <trkpt lat="38.877335" lon="-6.364418">
        <ele>255.820</ele>
        <time>2021-10-12T14:29:38Z</time>
      </trkpt>
      <trkpt lat="38.877926" lon="-6.364529">
        <ele>258.908</ele>
        <time>2021-10-12T14:29:40Z</time>
      </trkpt>
      <trkpt lat="38.878205" lon="-6.364580">
        <ele>259.610</ele>
        <time>2021-10-12T14:29:41Z</time>
      </trkpt>
      <trkpt lat="38.878467" lon="-6.364622">
        <ele>260.298</ele>
        <time>2021-10-12T14:29:42Z</time>
      </trkpt>
      <trkpt lat="38.878957" lon="-6.364700">
        <ele>261.464</ele>
        <time>2021-10-12T14:29:44Z</time>
      </trkpt>
      <trkpt lat="38.879445" lon="-6.364775">
        <ele>263.877</ele>
        <time>2021-10-12T14:29:46Z</time>
      </trkpt>
      <trkpt lat="38.879979" lon="-6.364858">
        <ele>261.763</ele>
        <time>2021-10-12T14:29:48Z</time>
      </trkpt>
      <trkpt lat="38.880548" lon="-6.364956">
        <ele>259.262</ele>
        <time>2021-10-12T14:29:50Z</time>
      </trkpt>
      <trkpt lat="38.881122" lon="-6.365052">
        <ele>260.242</ele>
        <time>2021-10-12T14:29:52Z</time>
      </trkpt>
      <trkpt lat="38.881425" lon="-6.365098">
        <ele>260.413</ele>
        <time>2021-10-12T14:29:53Z</time>
      </trkpt>
      <trkpt lat="38.881734" lon="-6.365145">
        <ele>260.661</ele>
        <time>2021-10-12T14:29:54Z</time>
      </trkpt>
      <trkpt lat="38.882046" lon="-6.365193">
        <ele>261.421</ele>
        <time>2021-10-12T14:29:55Z</time>
      </trkpt>
      <trkpt lat="38.882368" lon="-6.365244">
        <ele>262.013</ele>
        <time>2021-10-12T14:29:56Z</time>
      </trkpt>
      <trkpt lat="38.882972" lon="-6.365340">
        <ele>259.608</ele>
        <time>2021-10-12T14:29:58Z</time>
      </trkpt>
      <trkpt lat="38.883278" lon="-6.365390">
        <ele>259.014</ele>
        <time>2021-10-12T14:29:59Z</time>
      </trkpt>
      <trkpt lat="38.883874" lon="-6.365498">
        <ele>258.022</ele>
        <time>2021-10-12T14:30:01Z</time>
      </trkpt>
      <trkpt lat="38.884178" lon="-6.365547">
        <ele>256.128</ele>
        <time>2021-10-12T14:30:02Z</time>
      </trkpt>
      <trkpt lat="38.884759" lon="-6.365641">
        <ele>257.781</ele>
        <time>2021-10-12T14:30:04Z</time>
      </trkpt>
      <trkpt lat="38.885360" lon="-6.365738">
        <ele>258.097</ele>
        <time>2021-10-12T14:30:06Z</time>
      </trkpt>
      <trkpt lat="38.885971" lon="-6.365832">
        <ele>260.036</ele>
        <time>2021-10-12T14:30:08Z</time>
      </trkpt>
      <trkpt lat="38.886564" lon="-6.365926">
        <ele>262.366</ele>
        <time>2021-10-12T14:30:10Z</time>
      </trkpt>
      <trkpt lat="38.886864" lon="-6.365970">
        <ele>264.477</ele>
        <time>2021-10-12T14:30:11Z</time>
      </trkpt>
      <trkpt lat="38.887457" lon="-6.366067">
        <ele>267.035</ele>
        <time>2021-10-12T14:30:13Z</time>
      </trkpt>
      <trkpt lat="38.887757" lon="-6.366119">
        <ele>267.886</ele>
        <time>2021-10-12T14:30:14Z</time>
      </trkpt>
      <trkpt lat="38.888309" lon="-6.366213">
        <ele>266.314</ele>
        <time>2021-10-12T14:30:16Z</time>
      </trkpt>
      <trkpt lat="38.888848" lon="-6.366289">
        <ele>265.208</ele>
        <time>2021-10-12T14:30:18Z</time>
      </trkpt>
      <trkpt lat="38.889388" lon="-6.366330">
        <ele>266.971</ele>
        <time>2021-10-12T14:30:20Z</time>
      </trkpt>
      <trkpt lat="38.889915" lon="-6.366353">
        <ele>266.269</ele>
        <time>2021-10-12T14:30:22Z</time>
      </trkpt>
      <trkpt lat="38.890178" lon="-6.366357">
        <ele>264.725</ele>
        <time>2021-10-12T14:30:23Z</time>
      </trkpt>
      <trkpt lat="38.890435" lon="-6.366361">
        <ele>263.578</ele>
        <time>2021-10-12T14:30:24Z</time>
      </trkpt>
      <trkpt lat="38.890944" lon="-6.366335">
        <ele>261.754</ele>
        <time>2021-10-12T14:30:26Z</time>
      </trkpt>
      <trkpt lat="38.891390" lon="-6.366223">
        <ele>259.463</ele>
        <time>2021-10-12T14:30:28Z</time>
      </trkpt>
      <trkpt lat="38.891783" lon="-6.366038">
        <ele>260.473</ele>
        <time>2021-10-12T14:30:30Z</time>
      </trkpt>
      <trkpt lat="38.892160" lon="-6.365892">
        <ele>261.264</ele>
        <time>2021-10-12T14:30:32Z</time>
      </trkpt>
      <trkpt lat="38.892490" lon="-6.365883">
        <ele>261.277</ele>
        <time>2021-10-12T14:30:34Z</time>
      </trkpt>
      <trkpt lat="38.892786" lon="-6.365994">
        <ele>259.661</ele>
        <time>2021-10-12T14:30:36Z</time>
      </trkpt>
      <trkpt lat="38.892904" lon="-6.366055">
        <ele>259.827</ele>
        <time>2021-10-12T14:30:37Z</time>
      </trkpt>
      <trkpt lat="38.893016" lon="-6.366110">
        <ele>260.008</ele>
        <time>2021-10-12T14:30:38Z</time>
      </trkpt>
      <trkpt lat="38.893251" lon="-6.366196">
        <ele>260.875</ele>
        <time>2021-10-12T14:30:40Z</time>
      </trkpt>
      <trkpt lat="38.893515" lon="-6.366353">
        <ele>260.393</ele>
        <time>2021-10-12T14:30:42Z</time>
      </trkpt>
      <trkpt lat="38.893845" lon="-6.366459">
        <ele>259.249</ele>
        <time>2021-10-12T14:30:44Z</time>
      </trkpt>
      <trkpt lat="38.894248" lon="-6.366464">
        <ele>259.462</ele>
        <time>2021-10-12T14:30:46Z</time>
      </trkpt>
      <trkpt lat="38.894486" lon="-6.366459">
        <ele>258.498</ele>
        <time>2021-10-12T14:30:47Z</time>
      </trkpt>
      <trkpt lat="38.894739" lon="-6.366457">
        <ele>257.847</ele>
        <time>2021-10-12T14:30:48Z</time>
      </trkpt>
      <trkpt lat="38.895305" lon="-6.366461">
        <ele>258.087</ele>
        <time>2021-10-12T14:30:50Z</time>
      </trkpt>
      <trkpt lat="38.895899" lon="-6.366467">
        <ele>256.758</ele>
        <time>2021-10-12T14:30:52Z</time>
      </trkpt>
      <trkpt lat="38.896208" lon="-6.366471">
        <ele>255.416</ele>
        <time>2021-10-12T14:30:53Z</time>
      </trkpt>
      <trkpt lat="38.896759" lon="-6.366485">
        <ele>254.876</ele>
        <time>2021-10-12T14:30:55Z</time>
      </trkpt>
      <trkpt lat="38.897015" lon="-6.366493">
        <ele>254.613</ele>
        <time>2021-10-12T14:30:56Z</time>
      </trkpt>
      <trkpt lat="38.897472" lon="-6.366496">
        <ele>256.808</ele>
        <time>2021-10-12T14:30:58Z</time>
      </trkpt>
      <trkpt lat="38.897901" lon="-6.366508">
        <ele>257.359</ele>
        <time>2021-10-12T14:31:00Z</time>
      </trkpt>
      <trkpt lat="38.898118" lon="-6.366520">
        <ele>257.117</ele>
        <time>2021-10-12T14:31:01Z</time>
      </trkpt>
      <trkpt lat="38.898341" lon="-6.366530">
        <ele>257.593</ele>
        <time>2021-10-12T14:31:02Z</time>
      </trkpt>
      <trkpt lat="38.898763" lon="-6.366532">
        <ele>256.516</ele>
        <time>2021-10-12T14:31:04Z</time>
      </trkpt>
      <trkpt lat="38.898981" lon="-6.366536">
        <ele>255.732</ele>
        <time>2021-10-12T14:31:05Z</time>
      </trkpt>
      <trkpt lat="38.899400" lon="-6.366545">
        <ele>255.071</ele>
        <time>2021-10-12T14:31:07Z</time>
      </trkpt>
      <trkpt lat="38.899599" lon="-6.366550">
        <ele>255.631</ele>
        <time>2021-10-12T14:31:08Z</time>
      </trkpt>
      <trkpt lat="38.899982" lon="-6.366556">
        <ele>256.642</ele>
        <time>2021-10-12T14:31:10Z</time>
      </trkpt>
      <trkpt lat="38.900393" lon="-6.366557">
        <ele>254.459</ele>
        <time>2021-10-12T14:31:12Z</time>
      </trkpt>
      <trkpt lat="38.900599" lon="-6.366560">
        <ele>254.303</ele>
        <time>2021-10-12T14:31:13Z</time>
      </trkpt>
      <trkpt lat="38.900802" lon="-6.366566">
        <ele>255.523</ele>
        <time>2021-10-12T14:31:14Z</time>
      </trkpt>
      <trkpt lat="38.901153" lon="-6.366576">
        <ele>257.108</ele>
        <time>2021-10-12T14:31:16Z</time>
      </trkpt>
      <trkpt lat="38.901483" lon="-6.366589">
        <ele>257.583</ele>
        <time>2021-10-12T14:31:18Z</time>
      </trkpt>
      <trkpt lat="38.901829" lon="-6.366603">
        <ele>256.681</ele>
        <time>2021-10-12T14:31:20Z</time>
      </trkpt>
      <trkpt lat="38.902184" lon="-6.366618">
        <ele>256.047</ele>
        <time>2021-10-12T14:31:22Z</time>
      </trkpt>
      <trkpt lat="38.902559" lon="-6.366638">
        <ele>256.210</ele>
        <time>2021-10-12T14:31:24Z</time>
      </trkpt>
      <trkpt lat="38.902753" lon="-6.366642">
        <ele>256.936</ele>
        <time>2021-10-12T14:31:25Z</time>
      </trkpt>
      <trkpt lat="38.902960" lon="-6.366643">
        <ele>257.035</ele>
        <time>2021-10-12T14:31:26Z</time>
      </trkpt>
      <trkpt lat="38.903324" lon="-6.366647">
        <ele>257.055</ele>
        <time>2021-10-12T14:31:28Z</time>
      </trkpt>
      <trkpt lat="38.903497" lon="-6.366643">
        <ele>256.596</ele>
        <time>2021-10-12T14:31:29Z</time>
      </trkpt>
      <trkpt lat="38.903663" lon="-6.366639">
        <ele>256.266</ele>
        <time>2021-10-12T14:31:30Z</time>
      </trkpt>
      <trkpt lat="38.903974" lon="-6.366639">
        <ele>256.529</ele>
        <time>2021-10-12T14:31:32Z</time>
      </trkpt>
      <trkpt lat="38.904248" lon="-6.366656">
        <ele>257.121</ele>
        <time>2021-10-12T14:31:34Z</time>
      </trkpt>
      <trkpt lat="38.904506" lon="-6.366676">
        <ele>256.708</ele>
        <time>2021-10-12T14:31:36Z</time>
      </trkpt>
      <trkpt lat="38.904766" lon="-6.366690">
        <ele>255.824</ele>
        <time>2021-10-12T14:31:38Z</time>
      </trkpt>
      <trkpt lat="38.904989" lon="-6.366691">
        <ele>255.112</ele>
        <time>2021-10-12T14:31:40Z</time>
      </trkpt>
      <trkpt lat="38.905185" lon="-6.366639">
        <ele>256.398</ele>
        <time>2021-10-12T14:31:42Z</time>
      </trkpt>
      <trkpt lat="38.905303" lon="-6.366478">
        <ele>256.551</ele>
        <time>2021-10-12T14:31:44Z</time>
      </trkpt>
      <trkpt lat="38.905316" lon="-6.366216">
        <ele>255.687</ele>
        <time>2021-10-12T14:31:46Z</time>
      </trkpt>
      <trkpt lat="38.905251" lon="-6.365831">
        <ele>254.336</ele>
        <time>2021-10-12T14:31:48Z</time>
      </trkpt>
      <trkpt lat="38.905149" lon="-6.365442">
        <ele>256.936</ele>
        <time>2021-10-12T14:31:50Z</time>
      </trkpt>
      <trkpt lat="38.905054" lon="-6.365114">
        <ele>258.447</ele>
        <time>2021-10-12T14:31:52Z</time>
      </trkpt>
      <trkpt lat="38.905010" lon="-6.364958">
        <ele>258.745</ele>
        <time>2021-10-12T14:31:53Z</time>
      </trkpt>
      <trkpt lat="38.904935" lon="-6.364685">
        <ele>256.947</ele>
        <time>2021-10-12T14:31:55Z</time>
      </trkpt>
      <trkpt lat="38.904906" lon="-6.364577">
        <ele>256.111</ele>
        <time>2021-10-12T14:31:56Z</time>
      </trkpt>
      <trkpt lat="38.904859" lon="-6.364441">
        <ele>254.908</ele>
        <time>2021-10-12T14:31:58Z</time>
      </trkpt>
      <trkpt lat="38.904799" lon="-6.364339">
        <ele>253.512</ele>
        <time>2021-10-12T14:32:00Z</time>
      </trkpt>
      <trkpt lat="38.904744" lon="-6.364283">
        <ele>252.740</ele>
        <time>2021-10-12T14:32:01Z</time>
      </trkpt>
      <trkpt lat="38.904684" lon="-6.364217">
        <ele>252.276</ele>
        <time>2021-10-12T14:32:02Z</time>
      </trkpt>
      <trkpt lat="38.904631" lon="-6.364036">
        <ele>252.099</ele>
        <time>2021-10-12T14:32:04Z</time>
      </trkpt>
      <trkpt lat="38.904645" lon="-6.363929">
        <ele>251.555</ele>
        <time>2021-10-12T14:32:05Z</time>
      </trkpt>
      <trkpt lat="38.904656" lon="-6.363640">
        <ele>250.524</ele>
        <time>2021-10-12T14:32:07Z</time>
      </trkpt>
      <trkpt lat="38.904623" lon="-6.363463">
        <ele>250.814</ele>
        <time>2021-10-12T14:32:08Z</time>
      </trkpt>
      <trkpt lat="38.904553" lon="-6.363107">
        <ele>249.675</ele>
        <time>2021-10-12T14:32:10Z</time>
      </trkpt>
      <trkpt lat="38.904528" lon="-6.362906">
        <ele>247.747</ele>
        <time>2021-10-12T14:32:11Z</time>
      </trkpt>
      <trkpt lat="38.904498" lon="-6.362501">
        <ele>243.429</ele>
        <time>2021-10-12T14:32:13Z</time>
      </trkpt>
      <trkpt lat="38.904492" lon="-6.362308">
        <ele>242.521</ele>
        <time>2021-10-12T14:32:14Z</time>
      </trkpt>
      <trkpt lat="38.904492" lon="-6.361961">
        <ele>243.008</ele>
        <time>2021-10-12T14:32:16Z</time>
      </trkpt>
      <trkpt lat="38.904498" lon="-6.361784">
        <ele>242.922</ele>
        <time>2021-10-12T14:32:17Z</time>
      </trkpt>
      <trkpt lat="38.904511" lon="-6.361596">
        <ele>242.420</ele>
        <time>2021-10-12T14:32:18Z</time>
      </trkpt>
      <trkpt lat="38.904556" lon="-6.361220">
        <ele>240.346</ele>
        <time>2021-10-12T14:32:20Z</time>
      </trkpt>
      <trkpt lat="38.904616" lon="-6.360881">
        <ele>238.669</ele>
        <time>2021-10-12T14:32:22Z</time>
      </trkpt>
      <trkpt lat="38.904680" lon="-6.360564">
        <ele>236.385</ele>
        <time>2021-10-12T14:32:24Z</time>
      </trkpt>
      <trkpt lat="38.904755" lon="-6.360253">
        <ele>234.044</ele>
        <time>2021-10-12T14:32:26Z</time>
      </trkpt>
      <trkpt lat="38.904835" lon="-6.359974">
        <ele>233.654</ele>
        <time>2021-10-12T14:32:28Z</time>
      </trkpt>
      <trkpt lat="38.904880" lon="-6.359830">
        <ele>233.165</ele>
        <time>2021-10-12T14:32:29Z</time>
      </trkpt>
      <trkpt lat="38.904972" lon="-6.359536">
        <ele>230.991</ele>
        <time>2021-10-12T14:32:31Z</time>
      </trkpt>
      <trkpt lat="38.905020" lon="-6.359373">
        <ele>230.081</ele>
        <time>2021-10-12T14:32:32Z</time>
      </trkpt>
      <trkpt lat="38.905105" lon="-6.359079">
        <ele>229.619</ele>
        <time>2021-10-12T14:32:34Z</time>
      </trkpt>
      <trkpt lat="38.905147" lon="-6.358934">
        <ele>229.508</ele>
        <time>2021-10-12T14:32:35Z</time>
      </trkpt>
      <trkpt lat="38.905188" lon="-6.358793">
        <ele>229.067</ele>
        <time>2021-10-12T14:32:36Z</time>
      </trkpt>
      <trkpt lat="38.905272" lon="-6.358516">
        <ele>227.025</ele>
        <time>2021-10-12T14:32:38Z</time>
      </trkpt>
      <trkpt lat="38.905350" lon="-6.358262">
        <ele>224.711</ele>
        <time>2021-10-12T14:32:40Z</time>
      </trkpt>
      <trkpt lat="38.905415" lon="-6.358015">
        <ele>224.184</ele>
        <time>2021-10-12T14:32:42Z</time>
      </trkpt>
      <trkpt lat="38.905453" lon="-6.357880">
        <ele>224.250</ele>
        <time>2021-10-12T14:32:43Z</time>
      </trkpt>
      <trkpt lat="38.905498" lon="-6.357725">
        <ele>224.669</ele>
        <time>2021-10-12T14:32:44Z</time>
      </trkpt>
      <trkpt lat="38.905603" lon="-6.357385">
        <ele>225.939</ele>
        <time>2021-10-12T14:32:46Z</time>
      </trkpt>
      <trkpt lat="38.905661" lon="-6.357205">
        <ele>225.990</ele>
        <time>2021-10-12T14:32:47Z</time>
      </trkpt>
      <trkpt lat="38.905770" lon="-6.356847">
        <ele>224.632</ele>
        <time>2021-10-12T14:32:49Z</time>
      </trkpt>
      <trkpt lat="38.905823" lon="-6.356666">
        <ele>224.092</ele>
        <time>2021-10-12T14:32:50Z</time>
      </trkpt>
      <trkpt lat="38.905919" lon="-6.356348">
        <ele>223.811</ele>
        <time>2021-10-12T14:32:52Z</time>
      </trkpt>
      <trkpt lat="38.905961" lon="-6.356210">
        <ele>223.808</ele>
        <time>2021-10-12T14:32:53Z</time>
      </trkpt>
      <trkpt lat="38.906028" lon="-6.355989">
        <ele>222.581</ele>
        <time>2021-10-12T14:32:55Z</time>
      </trkpt>
      <trkpt lat="38.906061" lon="-6.355878">
        <ele>221.579</ele>
        <time>2021-10-12T14:32:56Z</time>
      </trkpt>
      <trkpt lat="38.906129" lon="-6.355665">
        <ele>219.955</ele>
        <time>2021-10-12T14:32:58Z</time>
      </trkpt>
      <trkpt lat="38.906166" lon="-6.355544">
        <ele>219.218</ele>
        <time>2021-10-12T14:32:59Z</time>
      </trkpt>
      <trkpt lat="38.906239" lon="-6.355289">
        <ele>218.554</ele>
        <time>2021-10-12T14:33:01Z</time>
      </trkpt>
      <trkpt lat="38.906279" lon="-6.355152">
        <ele>218.133</ele>
        <time>2021-10-12T14:33:02Z</time>
      </trkpt>
      <trkpt lat="38.906360" lon="-6.354892">
        <ele>217.053</ele>
        <time>2021-10-12T14:33:04Z</time>
      </trkpt>
      <trkpt lat="38.906405" lon="-6.354754">
        <ele>217.054</ele>
        <time>2021-10-12T14:33:05Z</time>
      </trkpt>
      <trkpt lat="38.906490" lon="-6.354483">
        <ele>216.167</ele>
        <time>2021-10-12T14:33:07Z</time>
      </trkpt>
      <trkpt lat="38.906531" lon="-6.354348">
        <ele>215.781</ele>
        <time>2021-10-12T14:33:08Z</time>
      </trkpt>
      <trkpt lat="38.906613" lon="-6.354078">
        <ele>214.419</ele>
        <time>2021-10-12T14:33:10Z</time>
      </trkpt>
      <trkpt lat="38.906655" lon="-6.353930">
        <ele>213.308</ele>
        <time>2021-10-12T14:33:11Z</time>
      </trkpt>
      <trkpt lat="38.906751" lon="-6.353622">
        <ele>211.424</ele>
        <time>2021-10-12T14:33:13Z</time>
      </trkpt>
      <trkpt lat="38.906799" lon="-6.353461">
        <ele>211.272</ele>
        <time>2021-10-12T14:33:14Z</time>
      </trkpt>
      <trkpt lat="38.906893" lon="-6.353145">
        <ele>211.848</ele>
        <time>2021-10-12T14:33:16Z</time>
      </trkpt>
      <trkpt lat="38.906940" lon="-6.352981">
        <ele>212.591</ele>
        <time>2021-10-12T14:33:17Z</time>
      </trkpt>
      <trkpt lat="38.907049" lon="-6.352622">
        <ele>214.017</ele>
        <time>2021-10-12T14:33:19Z</time>
      </trkpt>
      <trkpt lat="38.907114" lon="-6.352407">
        <ele>213.266</ele>
        <time>2021-10-12T14:33:20Z</time>
      </trkpt>
      <trkpt lat="38.907241" lon="-6.351983">
        <ele>212.256</ele>
        <time>2021-10-12T14:33:22Z</time>
      </trkpt>
      <trkpt lat="38.907310" lon="-6.351755">
        <ele>212.717</ele>
        <time>2021-10-12T14:33:23Z</time>
      </trkpt>
      <trkpt lat="38.907392" lon="-6.351505">
        <ele>213.169</ele>
        <time>2021-10-12T14:33:24Z</time>
      </trkpt>
      <trkpt lat="38.907484" lon="-6.351248">
        <ele>212.904</ele>
        <time>2021-10-12T14:33:25Z</time>
      </trkpt>
      <trkpt lat="38.907567" lon="-6.351008">
        <ele>213.024</ele>
        <time>2021-10-12T14:33:26Z</time>
      </trkpt>
      <trkpt lat="38.907699" lon="-6.350590">
        <ele>210.308</ele>
        <time>2021-10-12T14:33:28Z</time>
      </trkpt>
      <trkpt lat="38.907759" lon="-6.350394">
        <ele>209.444</ele>
        <time>2021-10-12T14:33:29Z</time>
      </trkpt>
      <trkpt lat="38.907815" lon="-6.350203">
        <ele>209.242</ele>
        <time>2021-10-12T14:33:30Z</time>
      </trkpt>
      <trkpt lat="38.907871" lon="-6.350014">
        <ele>209.918</ele>
        <time>2021-10-12T14:33:31Z</time>
      </trkpt>
      <trkpt lat="38.907929" lon="-6.349820">
        <ele>210.371</ele>
        <time>2021-10-12T14:33:32Z</time>
      </trkpt>
      <trkpt lat="38.908037" lon="-6.349459">
        <ele>211.087</ele>
        <time>2021-10-12T14:33:34Z</time>
      </trkpt>
      <trkpt lat="38.908143" lon="-6.349092">
        <ele>209.136</ele>
        <time>2021-10-12T14:33:36Z</time>
      </trkpt>
      <trkpt lat="38.908251" lon="-6.348726">
        <ele>207.016</ele>
        <time>2021-10-12T14:33:38Z</time>
      </trkpt>
      <trkpt lat="38.908365" lon="-6.348354">
        <ele>205.117</ele>
        <time>2021-10-12T14:33:40Z</time>
      </trkpt>
      <trkpt lat="38.908477" lon="-6.347979">
        <ele>205.084</ele>
        <time>2021-10-12T14:33:42Z</time>
      </trkpt>
      <trkpt lat="38.908585" lon="-6.347597">
        <ele>204.207</ele>
        <time>2021-10-12T14:33:44Z</time>
      </trkpt>
      <trkpt lat="38.908690" lon="-6.347207">
        <ele>200.617</ele>
        <time>2021-10-12T14:33:46Z</time>
      </trkpt>
      <trkpt lat="38.908796" lon="-6.346846">
        <ele>199.008</ele>
        <time>2021-10-12T14:33:48Z</time>
      </trkpt>
      <trkpt lat="38.908845" lon="-6.346683">
        <ele>198.846</ele>
        <time>2021-10-12T14:33:49Z</time>
      </trkpt>
      <trkpt lat="38.908892" lon="-6.346525">
        <ele>199.024</ele>
        <time>2021-10-12T14:33:50Z</time>
      </trkpt>
      <trkpt lat="38.908982" lon="-6.346216">
        <ele>201.060</ele>
        <time>2021-10-12T14:33:52Z</time>
      </trkpt>
      <trkpt lat="38.909075" lon="-6.345901">
        <ele>203.413</ele>
        <time>2021-10-12T14:33:54Z</time>
      </trkpt>
      <trkpt lat="38.909176" lon="-6.345573">
        <ele>204.119</ele>
        <time>2021-10-12T14:33:56Z</time>
      </trkpt>
      <trkpt lat="38.909284" lon="-6.345230">
        <ele>203.518</ele>
        <time>2021-10-12T14:33:58Z</time>
      </trkpt>
      <trkpt lat="38.909391" lon="-6.344875">
        <ele>205.188</ele>
        <time>2021-10-12T14:34:00Z</time>
      </trkpt>
      <trkpt lat="38.909496" lon="-6.344526">
        <ele>207.459</ele>
        <time>2021-10-12T14:34:02Z</time>
      </trkpt>
      <trkpt lat="38.909593" lon="-6.344226">
        <ele>207.685</ele>
        <time>2021-10-12T14:34:04Z</time>
      </trkpt>
      <trkpt lat="38.909680" lon="-6.343948">
        <ele>207.189</ele>
        <time>2021-10-12T14:34:06Z</time>
      </trkpt>
      <trkpt lat="38.909769" lon="-6.343663">
        <ele>207.317</ele>
        <time>2021-10-12T14:34:08Z</time>
      </trkpt>
      <trkpt lat="38.909862" lon="-6.343349">
        <ele>211.808</ele>
        <time>2021-10-12T14:34:10Z</time>
      </trkpt>
      <trkpt lat="38.909912" lon="-6.343177">
        <ele>214.836</ele>
        <time>2021-10-12T14:34:11Z</time>
      </trkpt>
      <trkpt lat="38.909963" lon="-6.342999">
        <ele>217.994</ele>
        <time>2021-10-12T14:34:12Z</time>
      </trkpt>
      <trkpt lat="38.910008" lon="-6.342833">
        <ele>220.540</ele>
        <time>2021-10-12T14:34:13Z</time>
      </trkpt>
      <trkpt lat="38.910048" lon="-6.342677">
        <ele>221.313</ele>
        <time>2021-10-12T14:34:14Z</time>
      </trkpt>
      <trkpt lat="38.910123" lon="-6.342415">
        <ele>221.999</ele>
        <time>2021-10-12T14:34:16Z</time>
      </trkpt>
      <trkpt lat="38.910159" lon="-6.342296">
        <ele>222.188</ele>
        <time>2021-10-12T14:34:17Z</time>
      </trkpt>
      <trkpt lat="38.910231" lon="-6.342065">
        <ele>223.378</ele>
        <time>2021-10-12T14:34:19Z</time>
      </trkpt>
      <trkpt lat="38.910265" lon="-6.341954">
        <ele>223.999</ele>
        <time>2021-10-12T14:34:20Z</time>
      </trkpt>
      <trkpt lat="38.910320" lon="-6.341774">
        <ele>224.552</ele>
        <time>2021-10-12T14:34:22Z</time>
      </trkpt>
      <trkpt lat="38.910370" lon="-6.341629">
        <ele>225.053</ele>
        <time>2021-10-12T14:34:24Z</time>
      </trkpt>
      <trkpt lat="38.910394" lon="-6.341560">
        <ele>225.308</ele>
        <time>2021-10-12T14:34:26Z</time>
      </trkpt>
      <trkpt lat="38.910425" lon="-6.341435">
        <ele>225.608</ele>
        <time>2021-10-12T14:34:29Z</time>
      </trkpt>
      <trkpt lat="38.910436" lon="-6.341366">
        <ele>225.783</ele>
        <time>2021-10-12T14:34:30Z</time>
      </trkpt>
      <trkpt lat="38.910449" lon="-6.341192">
        <ele>225.891</ele>
        <time>2021-10-12T14:34:32Z</time>
      </trkpt>
      <trkpt lat="38.910502" lon="-6.341040">
        <ele>226.577</ele>
        <time>2021-10-12T14:34:34Z</time>
      </trkpt>
      <trkpt lat="38.910544" lon="-6.340997">
        <ele>226.990</ele>
        <time>2021-10-12T14:34:35Z</time>
      </trkpt>
      <trkpt lat="38.910649" lon="-6.340976">
        <ele>228.076</ele>
        <time>2021-10-12T14:34:37Z</time>
      </trkpt>
      <trkpt lat="38.910709" lon="-6.341002">
        <ele>228.765</ele>
        <time>2021-10-12T14:34:38Z</time>
      </trkpt>
      <trkpt lat="38.910819" lon="-6.341140">
        <ele>229.765</ele>
        <time>2021-10-12T14:34:40Z</time>
      </trkpt>
      <trkpt lat="38.910921" lon="-6.341356">
        <ele>229.296</ele>
        <time>2021-10-12T14:34:42Z</time>
      </trkpt>
      <trkpt lat="38.910968" lon="-6.341441">
        <ele>228.678</ele>
        <time>2021-10-12T14:34:43Z</time>
      </trkpt>
      <trkpt lat="38.911002" lon="-6.341494">
        <ele>228.233</ele>
        <time>2021-10-12T14:34:44Z</time>
      </trkpt>
      <trkpt lat="38.911033" lon="-6.341536">
        <ele>227.926</ele>
        <time>2021-10-12T14:34:47Z</time>
      </trkpt>
      <trkpt lat="38.911086" lon="-6.341623">
        <ele>227.308</ele>
        <time>2021-10-12T14:34:50Z</time>
      </trkpt>
      <trkpt lat="38.911175" lon="-6.341752">
        <ele>227.995</ele>
        <time>2021-10-12T14:34:52Z</time>
      </trkpt>
      <trkpt lat="38.911228" lon="-6.341828">
        <ele>228.623</ele>
        <time>2021-10-12T14:34:53Z</time>
      </trkpt>
      <trkpt lat="38.911359" lon="-6.342006">
        <ele>229.859</ele>
        <time>2021-10-12T14:34:55Z</time>
      </trkpt>
      <trkpt lat="38.911438" lon="-6.342094">
        <ele>230.112</ele>
        <time>2021-10-12T14:34:56Z</time>
      </trkpt>
      <trkpt lat="38.911570" lon="-6.342216">
        <ele>230.038</ele>
        <time>2021-10-12T14:34:58Z</time>
      </trkpt>
      <trkpt lat="38.911619" lon="-6.342257">
        <ele>230.087</ele>
        <time>2021-10-12T14:34:59Z</time>
      </trkpt>
      <trkpt lat="38.911695" lon="-6.342319">
        <ele>230.157</ele>
        <time>2021-10-12T14:35:01Z</time>
      </trkpt>
      <trkpt lat="38.911747" lon="-6.342361">
        <ele>230.348</ele>
        <time>2021-10-12T14:35:02Z</time>
      </trkpt>
      <trkpt lat="38.911850" lon="-6.342436">
        <ele>230.373</ele>
        <time>2021-10-12T14:35:04Z</time>
      </trkpt>
      <trkpt lat="38.911903" lon="-6.342498">
        <ele>230.085</ele>
        <time>2021-10-12T14:35:05Z</time>
      </trkpt>
      <trkpt lat="38.912002" lon="-6.342652">
        <ele>229.213</ele>
        <time>2021-10-12T14:35:07Z</time>
      </trkpt>
      <trkpt lat="38.912053" lon="-6.342735">
        <ele>228.808</ele>
        <time>2021-10-12T14:35:08Z</time>
      </trkpt>
      <trkpt lat="38.912154" lon="-6.342878">
        <ele>228.275</ele>
        <time>2021-10-12T14:35:10Z</time>
      </trkpt>
      <trkpt lat="38.912264" lon="-6.343035">
        <ele>227.883</ele>
        <time>2021-10-12T14:35:12Z</time>
      </trkpt>
      <trkpt lat="38.912381" lon="-6.343194">
        <ele>226.949</ele>
        <time>2021-10-12T14:35:14Z</time>
      </trkpt>
      <trkpt lat="38.912499" lon="-6.343344">
        <ele>225.942</ele>
        <time>2021-10-12T14:35:16Z</time>
      </trkpt>
      <trkpt lat="38.912556" lon="-6.343421">
        <ele>225.158</ele>
        <time>2021-10-12T14:35:17Z</time>
      </trkpt>
      <trkpt lat="38.912613" lon="-6.343497">
        <ele>224.547</ele>
        <time>2021-10-12T14:35:18Z</time>
      </trkpt>
      <trkpt lat="38.912675" lon="-6.343577">
        <ele>224.167</ele>
        <time>2021-10-12T14:35:19Z</time>
      </trkpt>
      <trkpt lat="38.912742" lon="-6.343661">
        <ele>223.858</ele>
        <time>2021-10-12T14:35:20Z</time>
      </trkpt>
      <trkpt lat="38.912879" lon="-6.343828">
        <ele>223.122</ele>
        <time>2021-10-12T14:35:22Z</time>
      </trkpt>
      <trkpt lat="38.912998" lon="-6.343987">
        <ele>222.662</ele>
        <time>2021-10-12T14:35:24Z</time>
      </trkpt>
      <trkpt lat="38.913051" lon="-6.344059">
        <ele>222.408</ele>
        <time>2021-10-12T14:35:25Z</time>
      </trkpt>
      <trkpt lat="38.913102" lon="-6.344127">
        <ele>222.008</ele>
        <time>2021-10-12T14:35:26Z</time>
      </trkpt>
      <trkpt lat="38.913188" lon="-6.344240">
        <ele>221.490</ele>
        <time>2021-10-12T14:35:28Z</time>
      </trkpt>
      <trkpt lat="38.913232" lon="-6.344294">
        <ele>221.278</ele>
        <time>2021-10-12T14:35:29Z</time>
      </trkpt>
      <trkpt lat="38.913317" lon="-6.344393">
        <ele>221.034</ele>
        <time>2021-10-12T14:35:31Z</time>
      </trkpt>
      <trkpt lat="38.913361" lon="-6.344444">
        <ele>221.027</ele>
        <time>2021-10-12T14:35:32Z</time>
      </trkpt>
      <trkpt lat="38.913443" lon="-6.344534">
        <ele>221.053</ele>
        <time>2021-10-12T14:35:34Z</time>
      </trkpt>
      <trkpt lat="38.913521" lon="-6.344619">
        <ele>221.062</ele>
        <time>2021-10-12T14:35:36Z</time>
      </trkpt>
      <trkpt lat="38.913576" lon="-6.344684">
        <ele>221.052</ele>
        <time>2021-10-12T14:35:38Z</time>
      </trkpt>
      <trkpt lat="38.913619" lon="-6.344713">
        <ele>221.083</ele>
        <time>2021-10-12T14:35:40Z</time>
      </trkpt>
      <trkpt lat="38.913668" lon="-6.344694">
        <ele>221.047</ele>
        <time>2021-10-12T14:35:42Z</time>
      </trkpt>
      <trkpt lat="38.913710" lon="-6.344642">
        <ele>221.029</ele>
        <time>2021-10-12T14:35:43Z</time>
      </trkpt>
      <trkpt lat="38.913766" lon="-6.344566">
        <ele>221.021</ele>
        <time>2021-10-12T14:35:45Z</time>
      </trkpt>
      <trkpt lat="38.913808" lon="-6.344506">
        <ele>221.008</ele>
        <time>2021-10-12T14:35:46Z</time>
      </trkpt>
      <trkpt lat="38.913887" lon="-6.344400">
        <ele>221.022</ele>
        <time>2021-10-12T14:35:48Z</time>
      </trkpt>
      <trkpt lat="38.913941" lon="-6.344314">
        <ele>221.480</ele>
        <time>2021-10-12T14:35:50Z</time>
      </trkpt>
      <trkpt lat="38.913970" lon="-6.344257">
        <ele>221.686</ele>
        <time>2021-10-12T14:35:52Z</time>
      </trkpt>
      <trkpt lat="38.914020" lon="-6.344158">
        <ele>221.919</ele>
        <time>2021-10-12T14:35:54Z</time>
      </trkpt>
      <trkpt lat="38.914065" lon="-6.344072">
        <ele>221.985</ele>
        <time>2021-10-12T14:35:56Z</time>
      </trkpt>
      <trkpt lat="38.914095" lon="-6.344014">
        <ele>221.944</ele>
        <time>2021-10-12T14:35:58Z</time>
      </trkpt>
      <trkpt lat="38.914132" lon="-6.343943">
        <ele>221.924</ele>
        <time>2021-10-12T14:36:01Z</time>
      </trkpt>
      <trkpt lat="38.914168" lon="-6.343878">
        <ele>222.055</ele>
        <time>2021-10-12T14:36:03Z</time>
      </trkpt>
      <trkpt lat="38.914216" lon="-6.343786">
        <ele>222.359</ele>
        <time>2021-10-12T14:36:05Z</time>
      </trkpt>
      <trkpt lat="38.914244" lon="-6.343734">
        <ele>222.403</ele>
        <time>2021-10-12T14:36:06Z</time>
      </trkpt>
      <trkpt lat="38.914319" lon="-6.343606">
        <ele>222.523</ele>
        <time>2021-10-12T14:36:08Z</time>
      </trkpt>
      <trkpt lat="38.914370" lon="-6.343512">
        <ele>222.708</ele>
        <time>2021-10-12T14:36:10Z</time>
      </trkpt>
      <trkpt lat="38.914394" lon="-6.343461">
        <ele>222.853</ele>
        <time>2021-10-12T14:36:14Z</time>
      </trkpt>
      <trkpt lat="38.914425" lon="-6.343407">
        <ele>222.931</ele>
        <time>2021-10-12T14:36:19Z</time>
      </trkpt>
      <trkpt lat="38.914457" lon="-6.343354">
        <ele>223.057</ele>
        <time>2021-10-12T14:36:20Z</time>
      </trkpt>
      <trkpt lat="38.914504" lon="-6.343282">
        <ele>223.260</ele>
        <time>2021-10-12T14:36:22Z</time>
      </trkpt>
      <trkpt lat="38.914552" lon="-6.343252">
        <ele>223.336</ele>
        <time>2021-10-12T14:36:24Z</time>
      </trkpt>
      <trkpt lat="38.914601" lon="-6.343271">
        <ele>223.285</ele>
        <time>2021-10-12T14:36:26Z</time>
      </trkpt>
      <trkpt lat="38.914675" lon="-6.343348">
        <ele>223.055</ele>
        <time>2021-10-12T14:36:28Z</time>
      </trkpt>
      <trkpt lat="38.914723" lon="-6.343395">
        <ele>223.286</ele>
        <time>2021-10-12T14:36:29Z</time>
      </trkpt>
      <trkpt lat="38.914822" lon="-6.343496">
        <ele>223.971</ele>
        <time>2021-10-12T14:36:31Z</time>
      </trkpt>
      <trkpt lat="38.914871" lon="-6.343544">
        <ele>224.341</ele>
        <time>2021-10-12T14:36:32Z</time>
      </trkpt>
      <trkpt lat="38.914951" lon="-6.343612">
        <ele>224.815</ele>
        <time>2021-10-12T14:36:34Z</time>
      </trkpt>
      <trkpt lat="38.915000" lon="-6.343654">
        <ele>225.308</ele>
        <time>2021-10-12T14:36:36Z</time>
      </trkpt>
      <trkpt lat="38.915055" lon="-6.343713">
        <ele>226.145</ele>
        <time>2021-10-12T14:36:38Z</time>
      </trkpt>
      <trkpt lat="38.915121" lon="-6.343798">
        <ele>226.973</ele>
        <time>2021-10-12T14:36:40Z</time>
      </trkpt>
      <trkpt lat="38.915197" lon="-6.343892">
        <ele>227.799</ele>
        <time>2021-10-12T14:36:42Z</time>
      </trkpt>
      <trkpt lat="38.915274" lon="-6.343982">
        <ele>228.012</ele>
        <time>2021-10-12T14:36:44Z</time>
      </trkpt>
      <trkpt lat="38.915349" lon="-6.344066">
        <ele>228.428</ele>
        <time>2021-10-12T14:36:46Z</time>
      </trkpt>
      <trkpt lat="38.915434" lon="-6.344164">
        <ele>229.167</ele>
        <time>2021-10-12T14:36:48Z</time>
      </trkpt>
      <trkpt lat="38.915479" lon="-6.344212">
        <ele>229.687</ele>
        <time>2021-10-12T14:36:49Z</time>
      </trkpt>
      <trkpt lat="38.915522" lon="-6.344256">
        <ele>230.178</ele>
        <time>2021-10-12T14:36:50Z</time>
      </trkpt>
      <trkpt lat="38.915598" lon="-6.344330">
        <ele>230.822</ele>
        <time>2021-10-12T14:36:52Z</time>
      </trkpt>
      <trkpt lat="38.915670" lon="-6.344415">
        <ele>231.362</ele>
        <time>2021-10-12T14:36:54Z</time>
      </trkpt>
      <trkpt lat="38.915711" lon="-6.344467">
        <ele>231.608</ele>
        <time>2021-10-12T14:36:55Z</time>
      </trkpt>
      <trkpt lat="38.915741" lon="-6.344518">
        <ele>231.908</ele>
        <time>2021-10-12T14:36:57Z</time>
      </trkpt>
      <trkpt lat="38.915781" lon="-6.344575">
        <ele>232.320</ele>
        <time>2021-10-12T14:36:59Z</time>
      </trkpt>
      <trkpt lat="38.915820" lon="-6.344626">
        <ele>232.638</ele>
        <time>2021-10-12T14:37:01Z</time>
      </trkpt>
      <trkpt lat="38.915862" lon="-6.344681">
        <ele>232.784</ele>
        <time>2021-10-12T14:37:02Z</time>
      </trkpt>
      <trkpt lat="38.915896" lon="-6.344727">
        <ele>232.517</ele>
        <time>2021-10-12T14:37:04Z</time>
      </trkpt>
      <trkpt lat="38.915939" lon="-6.344789">
        <ele>232.193</ele>
        <time>2021-10-12T14:37:06Z</time>
      </trkpt>
      <trkpt lat="38.915971" lon="-6.344840">
        <ele>231.892</ele>
        <time>2021-10-12T14:37:08Z</time>
      </trkpt>
      <trkpt lat="38.915994" lon="-6.344895">
        <ele>231.672</ele>
        <time>2021-10-12T14:37:10Z</time>
      </trkpt>
      <trkpt lat="38.915979" lon="-6.344829">
        <ele>231.843</ele>
        <time>2021-10-12T14:37:19Z</time>
      </trkpt>
      <trkpt lat="38.915985" lon="-6.344888">
        <ele>231.642</ele>
        <time>2021-10-12T14:37:38Z</time>
      </trkpt>
      <trkpt lat="38.916028" lon="-6.344932">
        <ele>231.422</ele>
        <time>2021-10-12T14:37:43Z</time>
      </trkpt>
      <trkpt lat="38.916067" lon="-6.344964">
        <ele>231.214</ele>
        <time>2021-10-12T14:37:45Z</time>
      </trkpt>
      <trkpt lat="38.916118" lon="-6.345005">
        <ele>230.908</ele>
        <time>2021-10-12T14:37:47Z</time>
      </trkpt>
      <trkpt lat="38.916170" lon="-6.345041">
        <ele>230.612</ele>
        <time>2021-10-12T14:37:48Z</time>
      </trkpt>
      <trkpt lat="38.916219" lon="-6.345075">
        <ele>230.320</ele>
        <time>2021-10-12T14:37:51Z</time>
      </trkpt>
      <trkpt lat="38.916276" lon="-6.345109">
        <ele>230.156</ele>
        <time>2021-10-12T14:37:54Z</time>
      </trkpt>
      <trkpt lat="38.916319" lon="-6.345134">
        <ele>230.079</ele>
        <time>2021-10-12T14:37:57Z</time>
      </trkpt>
      <trkpt lat="38.916464" lon="-6.345198">
        <ele>230.515</ele>
        <time>2021-10-12T14:38:02Z</time>
      </trkpt>
      <trkpt lat="38.916500" lon="-6.345294">
        <ele>230.734</ele>
        <time>2021-10-12T14:38:04Z</time>
      </trkpt>
      <trkpt lat="38.916493" lon="-6.345376">
        <ele>230.294</ele>
        <time>2021-10-12T14:38:06Z</time>
      </trkpt>
      <trkpt lat="38.916459" lon="-6.345447">
        <ele>229.425</ele>
        <time>2021-10-12T14:38:08Z</time>
      </trkpt>
      <trkpt lat="38.916421" lon="-6.345499">
        <ele>228.725</ele>
        <time>2021-10-12T14:38:09Z</time>
      </trkpt>
      <trkpt lat="38.916378" lon="-6.345548">
        <ele>228.026</ele>
        <time>2021-10-12T14:38:11Z</time>
      </trkpt>
      <trkpt lat="38.916338" lon="-6.345586">
        <ele>227.608</ele>
        <time>2021-10-12T14:38:13Z</time>
      </trkpt>
      <trkpt lat="38.916301" lon="-6.345619">
        <ele>227.308</ele>
        <time>2021-10-12T14:38:45Z</time>
      </trkpt>
      <trkpt lat="38.916270" lon="-6.345666">
        <ele>226.940</ele>
        <time>2021-10-12T14:38:54Z</time>
      </trkpt>
      <trkpt lat="38.916228" lon="-6.345697">
        <ele>226.788</ele>
        <time>2021-10-12T14:39:00Z</time>
      </trkpt>
      <trkpt lat="38.916256" lon="-6.345747">
        <ele>226.554</ele>
        <time>2021-10-12T14:39:06Z</time>
      </trkpt>
      <trkpt lat="38.916278" lon="-6.345876">
        <ele>225.817</ele>
        <time>2021-10-12T14:39:08Z</time>
      </trkpt>
      <trkpt lat="38.916240" lon="-6.346053">
        <ele>224.813</ele>
        <time>2021-10-12T14:39:10Z</time>
      </trkpt>
      <trkpt lat="38.916224" lon="-6.346115">
        <ele>224.442</ele>
        <time>2021-10-12T14:39:11Z</time>
      </trkpt>
      <trkpt lat="38.916197" lon="-6.346203">
        <ele>223.642</ele>
        <time>2021-10-12T14:39:13Z</time>
      </trkpt>
      <trkpt lat="38.916163" lon="-6.346255">
        <ele>223.273</ele>
        <time>2021-10-12T14:39:17Z</time>
      </trkpt>
      <trkpt lat="38.916224" lon="-6.346255">
        <ele>223.494</ele>
        <time>2021-10-12T14:39:22Z</time>
      </trkpt>
      <trkpt lat="38.916270" lon="-6.346251">
        <ele>223.657</ele>
        <time>2021-10-12T14:39:25Z</time>
      </trkpt>
      <trkpt lat="38.916267" lon="-6.346310">
        <ele>223.122</ele>
        <time>2021-10-12T14:39:34Z</time>
      </trkpt>
      <trkpt lat="38.916223" lon="-6.346327">
        <ele>222.808</ele>
        <time>2021-10-12T14:39:40Z</time>
      </trkpt>
      <trkpt lat="38.916178" lon="-6.346340">
        <ele>222.657</ele>
        <time>2021-10-12T14:39:45Z</time>
      </trkpt>
      <trkpt lat="38.916128" lon="-6.346349">
        <ele>222.325</ele>
        <time>2021-10-12T14:39:48Z</time>
      </trkpt>
      <trkpt lat="38.916088" lon="-6.346379">
        <ele>222.421</ele>
        <time>2021-10-12T14:39:51Z</time>
      </trkpt>
      <trkpt lat="38.916057" lon="-6.346442">
        <ele>222.634</ele>
        <time>2021-10-12T14:39:53Z</time>
      </trkpt>
      <trkpt lat="38.916033" lon="-6.346499">
        <ele>222.690</ele>
        <time>2021-10-12T14:39:57Z</time>
      </trkpt>
      <trkpt lat="38.916014" lon="-6.346573">
        <ele>222.539</ele>
        <time>2021-10-12T14:40:00Z</time>
      </trkpt>
      <trkpt lat="38.915981" lon="-6.346673">
        <ele>222.449</ele>
        <time>2021-10-12T14:40:02Z</time>
      </trkpt>
      <trkpt lat="38.915932" lon="-6.346812">
        <ele>222.120</ele>
        <time>2021-10-12T14:40:04Z</time>
      </trkpt>
      <trkpt lat="38.915910" lon="-6.346866">
        <ele>221.877</ele>
        <time>2021-10-12T14:40:05Z</time>
      </trkpt>
      <trkpt lat="38.915873" lon="-6.346949">
        <ele>221.161</ele>
        <time>2021-10-12T14:40:07Z</time>
      </trkpt>
      <trkpt lat="38.915832" lon="-6.347032">
        <ele>220.727</ele>
        <time>2021-10-12T14:40:09Z</time>
      </trkpt>
      <trkpt lat="38.915783" lon="-6.347122">
        <ele>220.508</ele>
        <time>2021-10-12T14:40:11Z</time>
      </trkpt>
      <trkpt lat="38.915741" lon="-6.347211">
        <ele>220.155</ele>
        <time>2021-10-12T14:40:13Z</time>
      </trkpt>
      <trkpt lat="38.915714" lon="-6.347267">
        <ele>219.663</ele>
        <time>2021-10-12T14:40:14Z</time>
      </trkpt>
      <trkpt lat="38.915684" lon="-6.347324">
        <ele>219.189</ele>
        <time>2021-10-12T14:40:16Z</time>
      </trkpt>
      <trkpt lat="38.915652" lon="-6.347378">
        <ele>218.512</ele>
        <time>2021-10-12T14:40:17Z</time>
      </trkpt>
      <trkpt lat="38.915618" lon="-6.347423">
        <ele>218.078</ele>
        <time>2021-10-12T14:40:20Z</time>
      </trkpt>
      <trkpt lat="38.915586" lon="-6.347467">
        <ele>217.537</ele>
        <time>2021-10-12T14:40:25Z</time>
      </trkpt>
      <trkpt lat="38.915611" lon="-6.347404">
        <ele>218.217</ele>
        <time>2021-10-12T14:40:31Z</time>
      </trkpt>
      <trkpt lat="38.915631" lon="-6.347339">
        <ele>218.948</ele>
        <time>2021-10-12T14:40:33Z</time>
      </trkpt>
      <trkpt lat="38.915607" lon="-6.347398">
        <ele>218.284</ele>
        <time>2021-10-12T14:40:35Z</time>
      </trkpt>
      <trkpt lat="38.915576" lon="-6.347462">
        <ele>217.507</ele>
        <time>2021-10-12T14:40:37Z</time>
      </trkpt>
      <trkpt lat="38.915559" lon="-6.347528">
        <ele>216.817</ele>
        <time>2021-10-12T14:40:42Z</time>
      </trkpt>
      <trkpt lat="38.915551" lon="-6.347587">
        <ele>216.308</ele>
        <time>2021-10-12T14:40:46Z</time>
      </trkpt>
      <trkpt lat="38.915517" lon="-6.347634">
        <ele>215.836</ele>
        <time>2021-10-12T14:40:53Z</time>
      </trkpt>
      <trkpt lat="38.915493" lon="-6.347575">
        <ele>216.014</ele>
        <time>2021-10-12T14:40:59Z</time>
      </trkpt>
      <trkpt lat="38.915497" lon="-6.347504">
        <ele>216.610</ele>
        <time>2021-10-12T14:41:02Z</time>
      </trkpt>
      <trkpt lat="38.915503" lon="-6.347580">
        <ele>216.083</ele>
        <time>2021-10-12T14:41:31Z</time>
      </trkpt>
      <trkpt lat="38.915540" lon="-6.347540">
        <ele>216.689</ele>
        <time>2021-10-12T14:42:32Z</time>
      </trkpt>
      <trkpt lat="38.915569" lon="-6.347642">
        <ele>216.168</ele>
        <time>2021-10-12T15:46:39Z</time>
      </trkpt>
      <trkpt lat="38.915616" lon="-6.347633">
        <ele>216.578</ele>
        <time>2021-10-12T15:46:41Z</time>
      </trkpt>
      <trkpt lat="38.915579" lon="-6.347667">
        <ele>216.099</ele>
        <time>2021-10-12T15:46:52Z</time>
      </trkpt>
      <trkpt lat="38.915532" lon="-6.347646">
        <ele>215.843</ele>
        <time>2021-10-12T15:51:33Z</time>
      </trkpt>
      <trkpt lat="38.915493" lon="-6.347684">
        <ele>215.264</ele>
        <time>2021-10-12T15:51:35Z</time>
      </trkpt>
      <trkpt lat="38.915439" lon="-6.347709">
        <ele>214.710</ele>
        <time>2021-10-12T15:51:38Z</time>
      </trkpt>
      <trkpt lat="38.915421" lon="-6.347786">
        <ele>214.008</ele>
        <time>2021-10-12T15:52:01Z</time>
      </trkpt>
      <trkpt lat="38.915406" lon="-6.347877">
        <ele>213.242</ele>
        <time>2021-10-12T15:52:04Z</time>
      </trkpt>
      <trkpt lat="38.915371" lon="-6.347978">
        <ele>212.050</ele>
        <time>2021-10-12T15:52:06Z</time>
      </trkpt>
      <trkpt lat="38.915314" lon="-6.348032">
        <ele>210.866</ele>
        <time>2021-10-12T15:52:08Z</time>
      </trkpt>
      <trkpt lat="38.915258" lon="-6.347992">
        <ele>210.479</ele>
        <time>2021-10-12T15:52:10Z</time>
      </trkpt>
      <trkpt lat="38.915248" lon="-6.347934">
        <ele>210.985</ele>
        <time>2021-10-12T15:52:11Z</time>
      </trkpt>
      <trkpt lat="38.915282" lon="-6.347820">
        <ele>212.664</ele>
        <time>2021-10-12T15:52:13Z</time>
      </trkpt>
      <trkpt lat="38.915319" lon="-6.347747">
        <ele>213.574</ele>
        <time>2021-10-12T15:52:14Z</time>
      </trkpt>
      <trkpt lat="38.915392" lon="-6.347606">
        <ele>215.175</ele>
        <time>2021-10-12T15:52:16Z</time>
      </trkpt>
      <trkpt lat="38.915456" lon="-6.347484">
        <ele>216.547</ele>
        <time>2021-10-12T15:52:18Z</time>
      </trkpt>
      <trkpt lat="38.915501" lon="-6.347411">
        <ele>217.629</ele>
        <time>2021-10-12T15:52:20Z</time>
      </trkpt>
      <trkpt lat="38.915540" lon="-6.347340">
        <ele>218.621</ele>
        <time>2021-10-12T15:52:22Z</time>
      </trkpt>
      <trkpt lat="38.915592" lon="-6.347241">
        <ele>219.808</ele>
        <time>2021-10-12T15:52:24Z</time>
      </trkpt>
      <trkpt lat="38.915644" lon="-6.347119">
        <ele>220.972</ele>
        <time>2021-10-12T15:52:26Z</time>
      </trkpt>
      <trkpt lat="38.915690" lon="-6.347001">
        <ele>221.640</ele>
        <time>2021-10-12T15:52:28Z</time>
      </trkpt>
      <trkpt lat="38.915738" lon="-6.346885">
        <ele>222.356</ele>
        <time>2021-10-12T15:52:30Z</time>
      </trkpt>
      <trkpt lat="38.915756" lon="-6.346825">
        <ele>222.879</ele>
        <time>2021-10-12T15:52:31Z</time>
      </trkpt>
      <trkpt lat="38.915779" lon="-6.346768">
        <ele>223.325</ele>
        <time>2021-10-12T15:52:32Z</time>
      </trkpt>
      <trkpt lat="38.915805" lon="-6.346655">
        <ele>224.344</ele>
        <time>2021-10-12T15:52:34Z</time>
      </trkpt>
      <trkpt lat="38.915819" lon="-6.346518">
        <ele>225.264</ele>
        <time>2021-10-12T15:52:36Z</time>
      </trkpt>
      <trkpt lat="38.915809" lon="-6.346423">
        <ele>225.975</ele>
        <time>2021-10-12T15:52:37Z</time>
      </trkpt>
      <trkpt lat="38.915769" lon="-6.346367">
        <ele>226.494</ele>
        <time>2021-10-12T15:52:39Z</time>
      </trkpt>
      <trkpt lat="38.915741" lon="-6.346306">
        <ele>226.657</ele>
        <time>2021-10-12T15:52:40Z</time>
      </trkpt>
      <trkpt lat="38.915704" lon="-6.346261">
        <ele>226.722</ele>
        <time>2021-10-12T15:52:41Z</time>
      </trkpt>
      <trkpt lat="38.915663" lon="-6.346223">
        <ele>226.908</ele>
        <time>2021-10-12T15:52:42Z</time>
      </trkpt>
      <trkpt lat="38.915624" lon="-6.346192">
        <ele>227.067</ele>
        <time>2021-10-12T15:52:43Z</time>
      </trkpt>
      <trkpt lat="38.915550" lon="-6.346169">
        <ele>227.135</ele>
        <time>2021-10-12T15:52:45Z</time>
      </trkpt>
      <trkpt lat="38.915501" lon="-6.346119">
        <ele>226.471</ele>
        <time>2021-10-12T15:52:46Z</time>
      </trkpt>
      <trkpt lat="38.915450" lon="-6.346078">
        <ele>225.924</ele>
        <time>2021-10-12T15:52:47Z</time>
      </trkpt>
      <trkpt lat="38.915357" lon="-6.346003">
        <ele>225.170</ele>
        <time>2021-10-12T15:52:49Z</time>
      </trkpt>
      <trkpt lat="38.915305" lon="-6.345968">
        <ele>224.879</ele>
        <time>2021-10-12T15:52:50Z</time>
      </trkpt>
      <trkpt lat="38.915197" lon="-6.345898">
        <ele>223.999</ele>
        <time>2021-10-12T15:52:52Z</time>
      </trkpt>
      <trkpt lat="38.915130" lon="-6.345849">
        <ele>223.340</ele>
        <time>2021-10-12T15:52:53Z</time>
      </trkpt>
      <trkpt lat="38.915057" lon="-6.345798">
        <ele>222.784</ele>
        <time>2021-10-12T15:52:54Z</time>
      </trkpt>
      <trkpt lat="38.914986" lon="-6.345748">
        <ele>222.207</ele>
        <time>2021-10-12T15:52:55Z</time>
      </trkpt>
      <trkpt lat="38.914922" lon="-6.345699">
        <ele>222.117</ele>
        <time>2021-10-12T15:52:56Z</time>
      </trkpt>
      <trkpt lat="38.914800" lon="-6.345623">
        <ele>221.908</ele>
        <time>2021-10-12T15:52:58Z</time>
      </trkpt>
      <trkpt lat="38.914733" lon="-6.345583">
        <ele>221.856</ele>
        <time>2021-10-12T15:52:59Z</time>
      </trkpt>
      <trkpt lat="38.914669" lon="-6.345547">
        <ele>221.614</ele>
        <time>2021-10-12T15:53:00Z</time>
      </trkpt>
      <trkpt lat="38.914546" lon="-6.345521">
        <ele>220.950</ele>
        <time>2021-10-12T15:53:02Z</time>
      </trkpt>
      <trkpt lat="38.914436" lon="-6.345535">
        <ele>220.193</ele>
        <time>2021-10-12T15:53:04Z</time>
      </trkpt>
      <trkpt lat="38.914385" lon="-6.345537">
        <ele>220.129</ele>
        <time>2021-10-12T15:53:05Z</time>
      </trkpt>
      <trkpt lat="38.914293" lon="-6.345499">
        <ele>220.248</ele>
        <time>2021-10-12T15:53:07Z</time>
      </trkpt>
      <trkpt lat="38.914246" lon="-6.345458">
        <ele>220.498</ele>
        <time>2021-10-12T15:53:08Z</time>
      </trkpt>
      <trkpt lat="38.914162" lon="-6.345382">
        <ele>220.619</ele>
        <time>2021-10-12T15:53:10Z</time>
      </trkpt>
      <trkpt lat="38.914105" lon="-6.345330">
        <ele>220.365</ele>
        <time>2021-10-12T15:53:12Z</time>
      </trkpt>
      <trkpt lat="38.914067" lon="-6.345293">
        <ele>220.268</ele>
        <time>2021-10-12T15:53:14Z</time>
      </trkpt>
      <trkpt lat="38.914033" lon="-6.345248">
        <ele>220.114</ele>
        <time>2021-10-12T15:53:18Z</time>
      </trkpt>
      <trkpt lat="38.914006" lon="-6.345184">
        <ele>220.208</ele>
        <time>2021-10-12T15:53:28Z</time>
      </trkpt>
      <trkpt lat="38.913990" lon="-6.345127">
        <ele>220.484</ele>
        <time>2021-10-12T15:53:30Z</time>
      </trkpt>
      <trkpt lat="38.913969" lon="-6.345065">
        <ele>220.742</ele>
        <time>2021-10-12T15:53:31Z</time>
      </trkpt>
      <trkpt lat="38.913928" lon="-6.344993">
        <ele>221.028</ele>
        <time>2021-10-12T15:53:33Z</time>
      </trkpt>
      <trkpt lat="38.913886" lon="-6.344927">
        <ele>221.041</ele>
        <time>2021-10-12T15:53:35Z</time>
      </trkpt>
      <trkpt lat="38.913865" lon="-6.344875">
        <ele>221.057</ele>
        <time>2021-10-12T15:53:37Z</time>
      </trkpt>
      <trkpt lat="38.913824" lon="-6.344817">
        <ele>221.026</ele>
        <time>2021-10-12T15:53:39Z</time>
      </trkpt>
      <trkpt lat="38.913771" lon="-6.344764">
        <ele>221.036</ele>
        <time>2021-10-12T15:53:41Z</time>
      </trkpt>
      <trkpt lat="38.913747" lon="-6.344715">
        <ele>221.067</ele>
        <time>2021-10-12T15:53:43Z</time>
      </trkpt>
      <trkpt lat="38.913745" lon="-6.344647">
        <ele>221.055</ele>
        <time>2021-10-12T15:53:58Z</time>
      </trkpt>
      <trkpt lat="38.913779" lon="-6.344589">
        <ele>221.007</ele>
        <time>2021-10-12T15:53:59Z</time>
      </trkpt>
      <trkpt lat="38.913815" lon="-6.344534">
        <ele>221.017</ele>
        <time>2021-10-12T15:54:00Z</time>
      </trkpt>
      <trkpt lat="38.913869" lon="-6.344446">
        <ele>221.008</ele>
        <time>2021-10-12T15:54:02Z</time>
      </trkpt>
      <trkpt lat="38.913963" lon="-6.344288">
        <ele>221.563</ele>
        <time>2021-10-12T15:54:04Z</time>
      </trkpt>
      <trkpt lat="38.914025" lon="-6.344175">
        <ele>222.081</ele>
        <time>2021-10-12T15:54:05Z</time>
      </trkpt>
      <trkpt lat="38.914138" lon="-6.343954">
        <ele>222.077</ele>
        <time>2021-10-12T15:54:07Z</time>
      </trkpt>
      <trkpt lat="38.914187" lon="-6.343866">
        <ele>222.110</ele>
        <time>2021-10-12T15:54:08Z</time>
      </trkpt>
      <trkpt lat="38.914273" lon="-6.343699">
        <ele>222.576</ele>
        <time>2021-10-12T15:54:10Z</time>
      </trkpt>
      <trkpt lat="38.914330" lon="-6.343604">
        <ele>222.655</ele>
        <time>2021-10-12T15:54:11Z</time>
      </trkpt>
      <trkpt lat="38.914388" lon="-6.343510">
        <ele>222.885</ele>
        <time>2021-10-12T15:54:12Z</time>
      </trkpt>
      <trkpt lat="38.914493" lon="-6.343354">
        <ele>223.056</ele>
        <time>2021-10-12T15:54:14Z</time>
      </trkpt>
      <trkpt lat="38.914571" lon="-6.343230">
        <ele>223.489</ele>
        <time>2021-10-12T15:54:16Z</time>
      </trkpt>
      <trkpt lat="38.914609" lon="-6.343156">
        <ele>223.606</ele>
        <time>2021-10-12T15:54:17Z</time>
      </trkpt>
      <trkpt lat="38.914684" lon="-6.342968">
        <ele>224.326</ele>
        <time>2021-10-12T15:54:19Z</time>
      </trkpt>
      <trkpt lat="38.914723" lon="-6.342872">
        <ele>224.708</ele>
        <time>2021-10-12T15:54:20Z</time>
      </trkpt>
      <trkpt lat="38.914791" lon="-6.342711">
        <ele>225.156</ele>
        <time>2021-10-12T15:54:22Z</time>
      </trkpt>
      <trkpt lat="38.914821" lon="-6.342640">
        <ele>225.394</ele>
        <time>2021-10-12T15:54:23Z</time>
      </trkpt>
      <trkpt lat="38.914879" lon="-6.342477">
        <ele>226.150</ele>
        <time>2021-10-12T15:54:25Z</time>
      </trkpt>
      <trkpt lat="38.914925" lon="-6.342394">
        <ele>226.443</ele>
        <time>2021-10-12T15:54:26Z</time>
      </trkpt>
      <trkpt lat="38.915012" lon="-6.342264">
        <ele>226.829</ele>
        <time>2021-10-12T15:54:28Z</time>
      </trkpt>
      <trkpt lat="38.915046" lon="-6.342217">
        <ele>226.818</ele>
        <time>2021-10-12T15:54:29Z</time>
      </trkpt>
      <trkpt lat="38.915102" lon="-6.342117">
        <ele>226.898</ele>
        <time>2021-10-12T15:54:31Z</time>
      </trkpt>
      <trkpt lat="38.915139" lon="-6.342051">
        <ele>226.889</ele>
        <time>2021-10-12T15:54:32Z</time>
      </trkpt>
      <trkpt lat="38.915225" lon="-6.341897">
        <ele>226.949</ele>
        <time>2021-10-12T15:54:34Z</time>
      </trkpt>
      <trkpt lat="38.915271" lon="-6.341809">
        <ele>226.502</ele>
        <time>2021-10-12T15:54:35Z</time>
      </trkpt>
      <trkpt lat="38.915372" lon="-6.341626">
        <ele>226.922</ele>
        <time>2021-10-12T15:54:37Z</time>
      </trkpt>
      <trkpt lat="38.915426" lon="-6.341527">
        <ele>227.808</ele>
        <time>2021-10-12T15:54:38Z</time>
      </trkpt>
      <trkpt lat="38.915535" lon="-6.341337">
        <ele>229.182</ele>
        <time>2021-10-12T15:54:40Z</time>
      </trkpt>
      <trkpt lat="38.915591" lon="-6.341241">
        <ele>229.870</ele>
        <time>2021-10-12T15:54:41Z</time>
      </trkpt>
      <trkpt lat="38.915699" lon="-6.341067">
        <ele>231.246</ele>
        <time>2021-10-12T15:54:43Z</time>
      </trkpt>
      <trkpt lat="38.915753" lon="-6.340980">
        <ele>231.959</ele>
        <time>2021-10-12T15:54:44Z</time>
      </trkpt>
      <trkpt lat="38.915858" lon="-6.340809">
        <ele>233.185</ele>
        <time>2021-10-12T15:54:46Z</time>
      </trkpt>
      <trkpt lat="38.915912" lon="-6.340723">
        <ele>233.384</ele>
        <time>2021-10-12T15:54:47Z</time>
      </trkpt>
      <trkpt lat="38.916019" lon="-6.340549">
        <ele>233.714</ele>
        <time>2021-10-12T15:54:49Z</time>
      </trkpt>
      <trkpt lat="38.916071" lon="-6.340461">
        <ele>233.955</ele>
        <time>2021-10-12T15:54:50Z</time>
      </trkpt>
      <trkpt lat="38.916162" lon="-6.340283">
        <ele>234.252</ele>
        <time>2021-10-12T15:54:52Z</time>
      </trkpt>
      <trkpt lat="38.916209" lon="-6.340193">
        <ele>234.053</ele>
        <time>2021-10-12T15:54:53Z</time>
      </trkpt>
      <trkpt lat="38.916308" lon="-6.340010">
        <ele>233.708</ele>
        <time>2021-10-12T15:54:55Z</time>
      </trkpt>
      <trkpt lat="38.916353" lon="-6.339930">
        <ele>233.908</ele>
        <time>2021-10-12T15:54:56Z</time>
      </trkpt>
      <trkpt lat="38.916421" lon="-6.339821">
        <ele>234.263</ele>
        <time>2021-10-12T15:54:58Z</time>
      </trkpt>
      <trkpt lat="38.916463" lon="-6.339764">
        <ele>234.561</ele>
        <time>2021-10-12T15:55:00Z</time>
      </trkpt>
      <trkpt lat="38.916487" lon="-6.339706">
        <ele>234.747</ele>
        <time>2021-10-12T15:55:03Z</time>
      </trkpt>
      <trkpt lat="38.916509" lon="-6.339649">
        <ele>234.880</ele>
        <time>2021-10-12T15:55:06Z</time>
      </trkpt>
      <trkpt lat="38.916569" lon="-6.339636">
        <ele>235.156</ele>
        <time>2021-10-12T15:55:08Z</time>
      </trkpt>
      <trkpt lat="38.916634" lon="-6.339627">
        <ele>235.585</ele>
        <time>2021-10-12T15:55:10Z</time>
      </trkpt>
      <trkpt lat="38.916689" lon="-6.339604">
        <ele>235.785</ele>
        <time>2021-10-12T15:55:12Z</time>
      </trkpt>
      <trkpt lat="38.916729" lon="-6.339576">
        <ele>235.776</ele>
        <time>2021-10-12T15:55:21Z</time>
      </trkpt>
      <trkpt lat="38.916789" lon="-6.339543">
        <ele>235.886</ele>
        <time>2021-10-12T15:55:30Z</time>
      </trkpt>
      <trkpt lat="38.916835" lon="-6.339542">
        <ele>236.060</ele>
        <time>2021-10-12T15:55:32Z</time>
      </trkpt>
      <trkpt lat="38.916865" lon="-6.339586">
        <ele>236.226</ele>
        <time>2021-10-12T15:55:36Z</time>
      </trkpt>
      <trkpt lat="38.916815" lon="-6.339657">
        <ele>236.308</ele>
        <time>2021-10-12T15:57:43Z</time>
      </trkpt>
      <trkpt lat="38.916801" lon="-6.339719">
        <ele>236.516</ele>
        <time>2021-10-12T15:57:46Z</time>
      </trkpt>
      <trkpt lat="38.916759" lon="-6.339635">
        <ele>236.064</ele>
        <time>2021-10-12T15:58:07Z</time>
      </trkpt>
      <trkpt lat="38.916803" lon="-6.339617">
        <ele>236.140</ele>
        <time>2021-10-12T15:58:09Z</time>
      </trkpt>
      <trkpt lat="38.916771" lon="-6.339575">
        <ele>235.893</ele>
        <time>2021-10-12T15:58:11Z</time>
      </trkpt>
      <trkpt lat="38.916728" lon="-6.339527">
        <ele>235.549</ele>
        <time>2021-10-12T15:58:13Z</time>
      </trkpt>
      <trkpt lat="38.916693" lon="-6.339488">
        <ele>235.368</ele>
        <time>2021-10-12T15:58:14Z</time>
      </trkpt>
      <trkpt lat="38.916652" lon="-6.339446">
        <ele>235.078</ele>
        <time>2021-10-12T15:58:17Z</time>
      </trkpt>
      <trkpt lat="38.916601" lon="-6.339440">
        <ele>234.849</ele>
        <time>2021-10-12T15:58:20Z</time>
      </trkpt>
      <trkpt lat="38.916654" lon="-6.339464">
        <ele>235.082</ele>
        <time>2021-10-12T15:59:28Z</time>
      </trkpt>
      <trkpt lat="38.916691" lon="-6.339501">
        <ele>235.343</ele>
        <time>2021-10-12T15:59:39Z</time>
      </trkpt>
      <trkpt lat="38.916753" lon="-6.339512">
        <ele>235.617</ele>
        <time>2021-10-12T16:00:03Z</time>
      </trkpt>
      <trkpt lat="38.916801" lon="-6.339517">
        <ele>235.708</ele>
        <time>2021-10-12T16:00:09Z</time>
      </trkpt>
      <trkpt lat="38.916835" lon="-6.339560">
        <ele>236.016</ele>
        <time>2021-10-12T16:00:12Z</time>
      </trkpt>
      <trkpt lat="38.916868" lon="-6.339600">
        <ele>236.344</ele>
        <time>2021-10-12T16:00:31Z</time>
      </trkpt>
      <trkpt lat="38.916851" lon="-6.339544">
        <ele>236.040</ele>
        <time>2021-10-12T16:04:48Z</time>
      </trkpt>
      <trkpt lat="38.916917" lon="-6.339471">
        <ele>236.033</ele>
        <time>2021-10-12T16:04:50Z</time>
      </trkpt>
      <trkpt lat="38.916977" lon="-6.339415">
        <ele>235.939</ele>
        <time>2021-10-12T16:04:51Z</time>
      </trkpt>
      <trkpt lat="38.917109" lon="-6.339289">
        <ele>235.428</ele>
        <time>2021-10-12T16:04:53Z</time>
      </trkpt>
      <trkpt lat="38.917210" lon="-6.339173">
        <ele>235.018</ele>
        <time>2021-10-12T16:04:55Z</time>
      </trkpt>
      <trkpt lat="38.917254" lon="-6.339120">
        <ele>234.599</ele>
        <time>2021-10-12T16:04:56Z</time>
      </trkpt>
      <trkpt lat="38.917328" lon="-6.339026">
        <ele>233.562</ele>
        <time>2021-10-12T16:04:58Z</time>
      </trkpt>
      <trkpt lat="38.917398" lon="-6.338925">
        <ele>232.883</ele>
        <time>2021-10-12T16:05:00Z</time>
      </trkpt>
      <trkpt lat="38.917464" lon="-6.338812">
        <ele>232.011</ele>
        <time>2021-10-12T16:05:02Z</time>
      </trkpt>
      <trkpt lat="38.917544" lon="-6.338749">
        <ele>231.308</ele>
        <time>2021-10-12T16:05:04Z</time>
      </trkpt>
      <trkpt lat="38.917599" lon="-6.338724">
        <ele>230.994</ele>
        <time>2021-10-12T16:05:06Z</time>
      </trkpt>
      <trkpt lat="38.917633" lon="-6.338649">
        <ele>230.672</ele>
        <time>2021-10-12T16:05:09Z</time>
      </trkpt>
      <trkpt lat="38.917630" lon="-6.338544">
        <ele>230.428</ele>
        <time>2021-10-12T16:05:11Z</time>
      </trkpt>
      <trkpt lat="38.917625" lon="-6.338471">
        <ele>230.331</ele>
        <time>2021-10-12T16:05:12Z</time>
      </trkpt>
      <trkpt lat="38.917622" lon="-6.338361">
        <ele>230.127</ele>
        <time>2021-10-12T16:05:14Z</time>
      </trkpt>
      <trkpt lat="38.917615" lon="-6.338255">
        <ele>229.716</ele>
        <time>2021-10-12T16:05:16Z</time>
      </trkpt>
      <trkpt lat="38.917619" lon="-6.338163">
        <ele>229.476</ele>
        <time>2021-10-12T16:05:18Z</time>
      </trkpt>
      <trkpt lat="38.917661" lon="-6.338102">
        <ele>229.227</ele>
        <time>2021-10-12T16:05:20Z</time>
      </trkpt>
      <trkpt lat="38.917741" lon="-6.338082">
        <ele>229.147</ele>
        <time>2021-10-12T16:05:22Z</time>
      </trkpt>
      <trkpt lat="38.917804" lon="-6.338072">
        <ele>229.129</ele>
        <time>2021-10-12T16:05:23Z</time>
      </trkpt>
      <trkpt lat="38.917880" lon="-6.338062">
        <ele>229.021</ele>
        <time>2021-10-12T16:05:24Z</time>
      </trkpt>
      <trkpt lat="38.918047" lon="-6.338037">
        <ele>228.908</ele>
        <time>2021-10-12T16:05:26Z</time>
      </trkpt>
      <trkpt lat="38.918207" lon="-6.338018">
        <ele>228.842</ele>
        <time>2021-10-12T16:05:28Z</time>
      </trkpt>
      <trkpt lat="38.918274" lon="-6.338006">
        <ele>228.760</ele>
        <time>2021-10-12T16:05:29Z</time>
      </trkpt>
      <trkpt lat="38.918331" lon="-6.337993">
        <ele>228.666</ele>
        <time>2021-10-12T16:05:30Z</time>
      </trkpt>
      <trkpt lat="38.918403" lon="-6.337978">
        <ele>227.859</ele>
        <time>2021-10-12T16:05:32Z</time>
      </trkpt>
      <trkpt lat="38.918464" lon="-6.337937">
        <ele>226.955</ele>
        <time>2021-10-12T16:05:35Z</time>
      </trkpt>
      <trkpt lat="38.918500" lon="-6.337889">
        <ele>226.444</ele>
        <time>2021-10-12T16:05:37Z</time>
      </trkpt>
      <trkpt lat="38.918521" lon="-6.337774">
        <ele>225.614</ele>
        <time>2021-10-12T16:05:39Z</time>
      </trkpt>
      <trkpt lat="38.918519" lon="-6.337674">
        <ele>225.715</ele>
        <time>2021-10-12T16:05:40Z</time>
      </trkpt>
      <trkpt lat="38.918502" lon="-6.337450">
        <ele>225.725</ele>
        <time>2021-10-12T16:05:42Z</time>
      </trkpt>
      <trkpt lat="38.918487" lon="-6.337242">
        <ele>225.526</ele>
        <time>2021-10-12T16:05:44Z</time>
      </trkpt>
      <trkpt lat="38.918476" lon="-6.337039">
        <ele>224.808</ele>
        <time>2021-10-12T16:05:46Z</time>
      </trkpt>
      <trkpt lat="38.918463" lon="-6.336941">
        <ele>224.508</ele>
        <time>2021-10-12T16:05:47Z</time>
      </trkpt>
      <trkpt lat="38.918445" lon="-6.336848">
        <ele>224.640</ele>
        <time>2021-10-12T16:05:48Z</time>
      </trkpt>
      <trkpt lat="38.918416" lon="-6.336663">
        <ele>224.748</ele>
        <time>2021-10-12T16:05:50Z</time>
      </trkpt>
      <trkpt lat="38.918407" lon="-6.336578">
        <ele>224.884</ele>
        <time>2021-10-12T16:05:51Z</time>
      </trkpt>
      <trkpt lat="38.918401" lon="-6.336506">
        <ele>224.947</ele>
        <time>2021-10-12T16:05:52Z</time>
      </trkpt>
      <trkpt lat="38.918392" lon="-6.336397">
        <ele>225.053</ele>
        <time>2021-10-12T16:05:54Z</time>
      </trkpt>
      <trkpt lat="38.918385" lon="-6.336316">
        <ele>225.252</ele>
        <time>2021-10-12T16:05:56Z</time>
      </trkpt>
      <trkpt lat="38.918383" lon="-6.336255">
        <ele>225.452</ele>
        <time>2021-10-12T16:05:58Z</time>
      </trkpt>
      <trkpt lat="38.918402" lon="-6.336197">
        <ele>225.553</ele>
        <time>2021-10-12T16:06:01Z</time>
      </trkpt>
      <trkpt lat="38.918480" lon="-6.336127">
        <ele>225.431</ele>
        <time>2021-10-12T16:06:03Z</time>
      </trkpt>
      <trkpt lat="38.918638" lon="-6.336097">
        <ele>225.061</ele>
        <time>2021-10-12T16:06:05Z</time>
      </trkpt>
      <trkpt lat="38.918815" lon="-6.336075">
        <ele>225.007</ele>
        <time>2021-10-12T16:06:07Z</time>
      </trkpt>
      <trkpt lat="38.918982" lon="-6.336051">
        <ele>224.708</ele>
        <time>2021-10-12T16:06:09Z</time>
      </trkpt>
      <trkpt lat="38.919061" lon="-6.336043">
        <ele>224.471</ele>
        <time>2021-10-12T16:06:10Z</time>
      </trkpt>
      <trkpt lat="38.919208" lon="-6.336026">
        <ele>223.779</ele>
        <time>2021-10-12T16:06:12Z</time>
      </trkpt>
      <trkpt lat="38.919280" lon="-6.336016">
        <ele>223.335</ele>
        <time>2021-10-12T16:06:13Z</time>
      </trkpt>
      <trkpt lat="38.919431" lon="-6.335995">
        <ele>222.558</ele>
        <time>2021-10-12T16:06:15Z</time>
      </trkpt>
      <trkpt lat="38.919511" lon="-6.335984">
        <ele>222.074</ele>
        <time>2021-10-12T16:06:16Z</time>
      </trkpt>
      <trkpt lat="38.919659" lon="-6.335963">
        <ele>221.063</ele>
        <time>2021-10-12T16:06:18Z</time>
      </trkpt>
      <trkpt lat="38.919778" lon="-6.335945">
        <ele>220.223</ele>
        <time>2021-10-12T16:06:20Z</time>
      </trkpt>
      <trkpt lat="38.919877" lon="-6.335914">
        <ele>219.694</ele>
        <time>2021-10-12T16:06:22Z</time>
      </trkpt>
      <trkpt lat="38.919967" lon="-6.335890">
        <ele>219.096</ele>
        <time>2021-10-12T16:06:24Z</time>
      </trkpt>
      <trkpt lat="38.920016" lon="-6.335898">
        <ele>218.731</ele>
        <time>2021-10-12T16:06:25Z</time>
      </trkpt>
      <trkpt lat="38.920065" lon="-6.335933">
        <ele>218.424</ele>
        <time>2021-10-12T16:06:26Z</time>
      </trkpt>
      <trkpt lat="38.920133" lon="-6.336087">
        <ele>217.608</ele>
        <time>2021-10-12T16:06:28Z</time>
      </trkpt>
      <trkpt lat="38.920151" lon="-6.336196">
        <ele>217.687</ele>
        <time>2021-10-12T16:06:29Z</time>
      </trkpt>
      <trkpt lat="38.920156" lon="-6.336320">
        <ele>217.875</ele>
        <time>2021-10-12T16:06:30Z</time>
      </trkpt>
      <trkpt lat="38.920158" lon="-6.336612">
        <ele>218.221</ele>
        <time>2021-10-12T16:06:32Z</time>
      </trkpt>
      <trkpt lat="38.920174" lon="-6.336894">
        <ele>218.474</ele>
        <time>2021-10-12T16:06:34Z</time>
      </trkpt>
      <trkpt lat="38.920190" lon="-6.337194">
        <ele>218.390</ele>
        <time>2021-10-12T16:06:36Z</time>
      </trkpt>
      <trkpt lat="38.920203" lon="-6.337499">
        <ele>217.849</ele>
        <time>2021-10-12T16:06:38Z</time>
      </trkpt>
      <trkpt lat="38.920217" lon="-6.337774">
        <ele>216.739</ele>
        <time>2021-10-12T16:06:40Z</time>
      </trkpt>
      <trkpt lat="38.920229" lon="-6.337990">
        <ele>216.480</ele>
        <time>2021-10-12T16:06:42Z</time>
      </trkpt>
      <trkpt lat="38.920244" lon="-6.338174">
        <ele>216.655</ele>
        <time>2021-10-12T16:06:44Z</time>
      </trkpt>
      <trkpt lat="38.920253" lon="-6.338267">
        <ele>216.907</ele>
        <time>2021-10-12T16:06:45Z</time>
      </trkpt>
      <trkpt lat="38.920271" lon="-6.338462">
        <ele>217.517</ele>
        <time>2021-10-12T16:06:47Z</time>
      </trkpt>
      <trkpt lat="38.920280" lon="-6.338553">
        <ele>217.808</ele>
        <time>2021-10-12T16:06:48Z</time>
      </trkpt>
      <trkpt lat="38.920305" lon="-6.338691">
        <ele>218.253</ele>
        <time>2021-10-12T16:06:50Z</time>
      </trkpt>
      <trkpt lat="38.920356" lon="-6.338732">
        <ele>218.221</ele>
        <time>2021-10-12T16:06:52Z</time>
      </trkpt>
      <trkpt lat="38.920433" lon="-6.338713">
        <ele>217.877</ele>
        <time>2021-10-12T16:06:54Z</time>
      </trkpt>
      <trkpt lat="38.920485" lon="-6.338654">
        <ele>217.480</ele>
        <time>2021-10-12T16:06:55Z</time>
      </trkpt>
      <trkpt lat="38.920540" lon="-6.338581">
        <ele>216.866</ele>
        <time>2021-10-12T16:06:56Z</time>
      </trkpt>
      <trkpt lat="38.920656" lon="-6.338452">
        <ele>215.395</ele>
        <time>2021-10-12T16:06:58Z</time>
      </trkpt>
      <trkpt lat="38.920711" lon="-6.338412">
        <ele>214.865</ele>
        <time>2021-10-12T16:06:59Z</time>
      </trkpt>
      <trkpt lat="38.920768" lon="-6.338390">
        <ele>214.536</ele>
        <time>2021-10-12T16:07:00Z</time>
      </trkpt>
      <trkpt lat="38.920868" lon="-6.338405">
        <ele>214.153</ele>
        <time>2021-10-12T16:07:02Z</time>
      </trkpt>
      <trkpt lat="38.920963" lon="-6.338530">
        <ele>213.904</ele>
        <time>2021-10-12T16:07:04Z</time>
      </trkpt>
      <trkpt lat="38.921012" lon="-6.338628">
        <ele>213.814</ele>
        <time>2021-10-12T16:07:05Z</time>
      </trkpt>
      <trkpt lat="38.921069" lon="-6.338740">
        <ele>213.808</ele>
        <time>2021-10-12T16:07:06Z</time>
      </trkpt>
      <trkpt lat="38.921138" lon="-6.338858">
        <ele>213.923</ele>
        <time>2021-10-12T16:07:07Z</time>
      </trkpt>
      <trkpt lat="38.921280" lon="-6.339078">
        <ele>214.041</ele>
        <time>2021-10-12T16:07:09Z</time>
      </trkpt>
      <trkpt lat="38.921407" lon="-6.339280">
        <ele>213.177</ele>
        <time>2021-10-12T16:07:11Z</time>
      </trkpt>
      <trkpt lat="38.921469" lon="-6.339383">
        <ele>212.440</ele>
        <time>2021-10-12T16:07:12Z</time>
      </trkpt>
      <trkpt lat="38.921586" lon="-6.339589">
        <ele>212.036</ele>
        <time>2021-10-12T16:07:14Z</time>
      </trkpt>
      <trkpt lat="38.921675" lon="-6.339743">
        <ele>212.045</ele>
        <time>2021-10-12T16:07:16Z</time>
      </trkpt>
      <trkpt lat="38.921712" lon="-6.339782">
        <ele>211.995</ele>
        <time>2021-10-12T16:07:17Z</time>
      </trkpt>
      <trkpt lat="38.921756" lon="-6.339810">
        <ele>211.816</ele>
        <time>2021-10-12T16:07:18Z</time>
      </trkpt>
      <trkpt lat="38.921803" lon="-6.339818">
        <ele>211.767</ele>
        <time>2021-10-12T16:07:19Z</time>
      </trkpt>
      <trkpt lat="38.921922" lon="-6.339756">
        <ele>211.281</ele>
        <time>2021-10-12T16:07:21Z</time>
      </trkpt>
      <trkpt lat="38.922064" lon="-6.339631">
        <ele>210.419</ele>
        <time>2021-10-12T16:07:23Z</time>
      </trkpt>
      <trkpt lat="38.922147" lon="-6.339559">
        <ele>209.808</ele>
        <time>2021-10-12T16:07:24Z</time>
      </trkpt>
      <trkpt lat="38.922236" lon="-6.339485">
        <ele>209.114</ele>
        <time>2021-10-12T16:07:25Z</time>
      </trkpt>
      <trkpt lat="38.922330" lon="-6.339411">
        <ele>208.722</ele>
        <time>2021-10-12T16:07:26Z</time>
      </trkpt>
      <trkpt lat="38.922525" lon="-6.339271">
        <ele>208.628</ele>
        <time>2021-10-12T16:07:28Z</time>
      </trkpt>
      <trkpt lat="38.922730" lon="-6.339141">
        <ele>209.191</ele>
        <time>2021-10-12T16:07:30Z</time>
      </trkpt>
      <trkpt lat="38.922964" lon="-6.339047">
        <ele>209.817</ele>
        <time>2021-10-12T16:07:32Z</time>
      </trkpt>
      <trkpt lat="38.923178" lon="-6.339012">
        <ele>210.026</ele>
        <time>2021-10-12T16:07:34Z</time>
      </trkpt>
      <trkpt lat="38.923381" lon="-6.338983">
        <ele>210.096</ele>
        <time>2021-10-12T16:07:36Z</time>
      </trkpt>
      <trkpt lat="38.923475" lon="-6.338963">
        <ele>210.047</ele>
        <time>2021-10-12T16:07:37Z</time>
      </trkpt>
      <trkpt lat="38.923614" lon="-6.338921">
        <ele>210.018</ele>
        <time>2021-10-12T16:07:39Z</time>
      </trkpt>
      <trkpt lat="38.923714" lon="-6.338848">
        <ele>209.898</ele>
        <time>2021-10-12T16:07:41Z</time>
      </trkpt>
      <trkpt lat="38.923758" lon="-6.338791">
        <ele>209.517</ele>
        <time>2021-10-12T16:07:42Z</time>
      </trkpt>
      <trkpt lat="38.923794" lon="-6.338720">
        <ele>209.208</ele>
        <time>2021-10-12T16:07:43Z</time>
      </trkpt>
      <trkpt lat="38.923867" lon="-6.338588">
        <ele>208.879</ele>
        <time>2021-10-12T16:07:45Z</time>
      </trkpt>
      <trkpt lat="38.923917" lon="-6.338559">
        <ele>209.067</ele>
        <time>2021-10-12T16:07:46Z</time>
      </trkpt>
      <trkpt lat="38.924047" lon="-6.338580">
        <ele>210.083</ele>
        <time>2021-10-12T16:07:48Z</time>
      </trkpt>
      <trkpt lat="38.924128" lon="-6.338593">
        <ele>210.796</ele>
        <time>2021-10-12T16:07:49Z</time>
      </trkpt>
      <trkpt lat="38.924310" lon="-6.338536">
        <ele>210.982</ele>
        <time>2021-10-12T16:07:51Z</time>
      </trkpt>
      <trkpt lat="38.924525" lon="-6.338410">
        <ele>211.381</ele>
        <time>2021-10-12T16:07:53Z</time>
      </trkpt>
      <trkpt lat="38.924645" lon="-6.338344">
        <ele>211.741</ele>
        <time>2021-10-12T16:07:54Z</time>
      </trkpt>
      <trkpt lat="38.924879" lon="-6.338222">
        <ele>213.152</ele>
        <time>2021-10-12T16:07:56Z</time>
      </trkpt>
      <trkpt lat="38.925092" lon="-6.338111">
        <ele>214.212</ele>
        <time>2021-10-12T16:07:58Z</time>
      </trkpt>
      <trkpt lat="38.925205" lon="-6.338051">
        <ele>214.732</ele>
        <time>2021-10-12T16:07:59Z</time>
      </trkpt>
      <trkpt lat="38.925323" lon="-6.337995">
        <ele>215.505</ele>
        <time>2021-10-12T16:08:00Z</time>
      </trkpt>
      <trkpt lat="38.925570" lon="-6.337897">
        <ele>217.608</ele>
        <time>2021-10-12T16:08:02Z</time>
      </trkpt>
      <trkpt lat="38.925814" lon="-6.337829">
        <ele>220.739</ele>
        <time>2021-10-12T16:08:04Z</time>
      </trkpt>
      <trkpt lat="38.926067" lon="-6.337784">
        <ele>221.837</ele>
        <time>2021-10-12T16:08:06Z</time>
      </trkpt>
      <trkpt lat="38.926320" lon="-6.337757">
        <ele>223.563</ele>
        <time>2021-10-12T16:08:08Z</time>
      </trkpt>
      <trkpt lat="38.926578" lon="-6.337727">
        <ele>226.716</ele>
        <time>2021-10-12T16:08:10Z</time>
      </trkpt>
      <trkpt lat="38.926699" lon="-6.337711">
        <ele>228.592</ele>
        <time>2021-10-12T16:08:11Z</time>
      </trkpt>
      <trkpt lat="38.926906" lon="-6.337676">
        <ele>231.421</ele>
        <time>2021-10-12T16:08:13Z</time>
      </trkpt>
      <trkpt lat="38.927063" lon="-6.337638">
        <ele>232.231</ele>
        <time>2021-10-12T16:08:15Z</time>
      </trkpt>
      <trkpt lat="38.927117" lon="-6.337625">
        <ele>232.342</ele>
        <time>2021-10-12T16:08:16Z</time>
      </trkpt>
      <trkpt lat="38.927207" lon="-6.337605">
        <ele>232.641</ele>
        <time>2021-10-12T16:08:18Z</time>
      </trkpt>
      <trkpt lat="38.927263" lon="-6.337592">
        <ele>232.781</ele>
        <time>2021-10-12T16:08:19Z</time>
      </trkpt>
      <trkpt lat="38.927433" lon="-6.337560">
        <ele>232.809</ele>
        <time>2021-10-12T16:08:21Z</time>
      </trkpt>
      <trkpt lat="38.927692" lon="-6.337524">
        <ele>232.908</ele>
        <time>2021-10-12T16:08:23Z</time>
      </trkpt>
      <trkpt lat="38.927823" lon="-6.337505">
        <ele>233.182</ele>
        <time>2021-10-12T16:08:24Z</time>
      </trkpt>
      <trkpt lat="38.928084" lon="-6.337466">
        <ele>233.960</ele>
        <time>2021-10-12T16:08:26Z</time>
      </trkpt>
      <trkpt lat="38.928303" lon="-6.337434">
        <ele>233.866</ele>
        <time>2021-10-12T16:08:28Z</time>
      </trkpt>
      <trkpt lat="38.928405" lon="-6.337420">
        <ele>233.739</ele>
        <time>2021-10-12T16:08:29Z</time>
      </trkpt>
      <trkpt lat="38.928563" lon="-6.337398">
        <ele>233.665</ele>
        <time>2021-10-12T16:08:31Z</time>
      </trkpt>
      <trkpt lat="38.928618" lon="-6.337392">
        <ele>233.654</ele>
        <time>2021-10-12T16:08:32Z</time>
      </trkpt>
      <trkpt lat="38.928715" lon="-6.337381">
        <ele>233.844</ele>
        <time>2021-10-12T16:08:34Z</time>
      </trkpt>
      <trkpt lat="38.928772" lon="-6.337370">
        <ele>233.885</ele>
        <time>2021-10-12T16:08:35Z</time>
      </trkpt>
      <trkpt lat="38.928929" lon="-6.337343">
        <ele>233.994</ele>
        <time>2021-10-12T16:08:37Z</time>
      </trkpt>
      <trkpt lat="38.929143" lon="-6.337313">
        <ele>234.057</ele>
        <time>2021-10-12T16:08:39Z</time>
      </trkpt>
      <trkpt lat="38.929387" lon="-6.337342">
        <ele>235.922</ele>
        <time>2021-10-12T16:08:41Z</time>
      </trkpt>
      <trkpt lat="38.929505" lon="-6.337395">
        <ele>236.908</ele>
        <time>2021-10-12T16:08:42Z</time>
      </trkpt>
      <trkpt lat="38.929706" lon="-6.337521">
        <ele>238.267</ele>
        <time>2021-10-12T16:08:44Z</time>
      </trkpt>
      <trkpt lat="38.929791" lon="-6.337587">
        <ele>238.445</ele>
        <time>2021-10-12T16:08:45Z</time>
      </trkpt>
      <trkpt lat="38.929943" lon="-6.337737">
        <ele>238.981</ele>
        <time>2021-10-12T16:08:47Z</time>
      </trkpt>
      <trkpt lat="38.930106" lon="-6.337904">
        <ele>239.164</ele>
        <time>2021-10-12T16:08:49Z</time>
      </trkpt>
      <trkpt lat="38.930198" lon="-6.337991">
        <ele>239.180</ele>
        <time>2021-10-12T16:08:50Z</time>
      </trkpt>
      <trkpt lat="38.930293" lon="-6.338079">
        <ele>239.379</ele>
        <time>2021-10-12T16:08:51Z</time>
      </trkpt>
      <trkpt lat="38.930489" lon="-6.338222">
        <ele>241.339</ele>
        <time>2021-10-12T16:08:53Z</time>
      </trkpt>
      <trkpt lat="38.930576" lon="-6.338248">
        <ele>241.710</ele>
        <time>2021-10-12T16:08:54Z</time>
      </trkpt>
      <trkpt lat="38.930706" lon="-6.338212">
        <ele>241.935</ele>
        <time>2021-10-12T16:08:56Z</time>
      </trkpt>
      <trkpt lat="38.930791" lon="-6.338101">
        <ele>241.386</ele>
        <time>2021-10-12T16:08:58Z</time>
      </trkpt>
      <trkpt lat="38.930836" lon="-6.337910">
        <ele>239.914</ele>
        <time>2021-10-12T16:09:00Z</time>
      </trkpt>
      <trkpt lat="38.930914" lon="-6.337683">
        <ele>237.108</ele>
        <time>2021-10-12T16:09:02Z</time>
      </trkpt>
      <trkpt lat="38.931037" lon="-6.337586">
        <ele>234.791</ele>
        <time>2021-10-12T16:09:04Z</time>
      </trkpt>
      <trkpt lat="38.931163" lon="-6.337656">
        <ele>234.489</ele>
        <time>2021-10-12T16:09:06Z</time>
      </trkpt>
      <trkpt lat="38.931233" lon="-6.337877">
        <ele>236.225</ele>
        <time>2021-10-12T16:09:08Z</time>
      </trkpt>
      <trkpt lat="38.931241" lon="-6.338027">
        <ele>237.888</ele>
        <time>2021-10-12T16:09:09Z</time>
      </trkpt>
      <trkpt lat="38.931252" lon="-6.338191">
        <ele>238.784</ele>
        <time>2021-10-12T16:09:10Z</time>
      </trkpt>
      <trkpt lat="38.931360" lon="-6.338510">
        <ele>239.533</ele>
        <time>2021-10-12T16:09:12Z</time>
      </trkpt>
      <trkpt lat="38.931437" lon="-6.338671">
        <ele>239.933</ele>
        <time>2021-10-12T16:09:13Z</time>
      </trkpt>
      <trkpt lat="38.931597" lon="-6.339005">
        <ele>241.184</ele>
        <time>2021-10-12T16:09:15Z</time>
      </trkpt>
      <trkpt lat="38.931679" lon="-6.339186">
        <ele>242.022</ele>
        <time>2021-10-12T16:09:16Z</time>
      </trkpt>
      <trkpt lat="38.931760" lon="-6.339376">
        <ele>242.362</ele>
        <time>2021-10-12T16:09:17Z</time>
      </trkpt>
      <trkpt lat="38.931922" lon="-6.339753">
        <ele>240.108</ele>
        <time>2021-10-12T16:09:19Z</time>
      </trkpt>
      <trkpt lat="38.932001" lon="-6.339935">
        <ele>239.508</ele>
        <time>2021-10-12T16:09:20Z</time>
      </trkpt>
      <trkpt lat="38.932072" lon="-6.340097">
        <ele>240.650</ele>
        <time>2021-10-12T16:09:21Z</time>
      </trkpt>
      <trkpt lat="38.932184" lon="-6.340344">
        <ele>243.358</ele>
        <time>2021-10-12T16:09:23Z</time>
      </trkpt>
      <trkpt lat="38.932229" lon="-6.340425">
        <ele>244.184</ele>
        <time>2021-10-12T16:09:24Z</time>
      </trkpt>
      <trkpt lat="38.932282" lon="-6.340487">
        <ele>245.047</ele>
        <time>2021-10-12T16:09:25Z</time>
      </trkpt>
      <trkpt lat="38.932349" lon="-6.340532">
        <ele>245.863</ele>
        <time>2021-10-12T16:09:26Z</time>
      </trkpt>
      <trkpt lat="38.932509" lon="-6.340568">
        <ele>247.092</ele>
        <time>2021-10-12T16:09:28Z</time>
      </trkpt>
      <trkpt lat="38.932585" lon="-6.340612">
        <ele>247.172</ele>
        <time>2021-10-12T16:09:29Z</time>
      </trkpt>
      <trkpt lat="38.932646" lon="-6.340683">
        <ele>247.263</ele>
        <time>2021-10-12T16:09:30Z</time>
      </trkpt>
      <trkpt lat="38.932700" lon="-6.340899">
        <ele>247.457</ele>
        <time>2021-10-12T16:09:32Z</time>
      </trkpt>
      <trkpt lat="38.932691" lon="-6.341147">
        <ele>248.100</ele>
        <time>2021-10-12T16:09:34Z</time>
      </trkpt>
      <trkpt lat="38.932713" lon="-6.341272">
        <ele>248.620</ele>
        <time>2021-10-12T16:09:35Z</time>
      </trkpt>
      <trkpt lat="38.932760" lon="-6.341391">
        <ele>249.008</ele>
        <time>2021-10-12T16:09:36Z</time>
      </trkpt>
      <trkpt lat="38.932913" lon="-6.341623">
        <ele>249.053</ele>
        <time>2021-10-12T16:09:38Z</time>
      </trkpt>
      <trkpt lat="38.933108" lon="-6.341864">
        <ele>249.881</ele>
        <time>2021-10-12T16:09:40Z</time>
      </trkpt>
      <trkpt lat="38.933220" lon="-6.341985">
        <ele>249.917</ele>
        <time>2021-10-12T16:09:41Z</time>
      </trkpt>
      <trkpt lat="38.933335" lon="-6.342108">
        <ele>250.080</ele>
        <time>2021-10-12T16:09:42Z</time>
      </trkpt>
      <trkpt lat="38.933565" lon="-6.342368">
        <ele>249.456</ele>
        <time>2021-10-12T16:09:44Z</time>
      </trkpt>
      <trkpt lat="38.933684" lon="-6.342509">
        <ele>249.035</ele>
        <time>2021-10-12T16:09:45Z</time>
      </trkpt>
      <trkpt lat="38.933806" lon="-6.342652">
        <ele>248.815</ele>
        <time>2021-10-12T16:09:46Z</time>
      </trkpt>
      <trkpt lat="38.934053" lon="-6.342944">
        <ele>249.056</ele>
        <time>2021-10-12T16:09:48Z</time>
      </trkpt>
      <trkpt lat="38.934178" lon="-6.343088">
        <ele>248.999</ele>
        <time>2021-10-12T16:09:49Z</time>
      </trkpt>
      <trkpt lat="38.934307" lon="-6.343230">
        <ele>248.407</ele>
        <time>2021-10-12T16:09:50Z</time>
      </trkpt>
      <trkpt lat="38.934565" lon="-6.343504">
        <ele>247.427</ele>
        <time>2021-10-12T16:09:52Z</time>
      </trkpt>
      <trkpt lat="38.934821" lon="-6.343776">
        <ele>247.408</ele>
        <time>2021-10-12T16:09:54Z</time>
      </trkpt>
      <trkpt lat="38.934947" lon="-6.343915">
        <ele>247.997</ele>
        <time>2021-10-12T16:09:55Z</time>
      </trkpt>
      <trkpt lat="38.935081" lon="-6.344055">
        <ele>248.435</ele>
        <time>2021-10-12T16:09:56Z</time>
      </trkpt>
      <trkpt lat="38.935318" lon="-6.344269">
        <ele>249.221</ele>
        <time>2021-10-12T16:09:58Z</time>
      </trkpt>
      <trkpt lat="38.935427" lon="-6.344360">
        <ele>250.354</ele>
        <time>2021-10-12T16:09:59Z</time>
      </trkpt>
      <trkpt lat="38.935529" lon="-6.344442">
        <ele>251.030</ele>
        <time>2021-10-12T16:10:00Z</time>
      </trkpt>
      <trkpt lat="38.935749" lon="-6.344564">
        <ele>251.149</ele>
        <time>2021-10-12T16:10:02Z</time>
      </trkpt>
      <trkpt lat="38.936028" lon="-6.344604">
        <ele>250.659</ele>
        <time>2021-10-12T16:10:04Z</time>
      </trkpt>
      <trkpt lat="38.936193" lon="-6.344610">
        <ele>250.470</ele>
        <time>2021-10-12T16:10:05Z</time>
      </trkpt>
      <trkpt lat="38.936553" lon="-6.344554">
        <ele>251.445</ele>
        <time>2021-10-12T16:10:07Z</time>
      </trkpt>
      <trkpt lat="38.936746" lon="-6.344485">
        <ele>252.347</ele>
        <time>2021-10-12T16:10:08Z</time>
      </trkpt>
      <trkpt lat="38.937145" lon="-6.344319">
        <ele>252.611</ele>
        <time>2021-10-12T16:10:10Z</time>
      </trkpt>
      <trkpt lat="38.937578" lon="-6.344157">
        <ele>252.308</ele>
        <time>2021-10-12T16:10:12Z</time>
      </trkpt>
      <trkpt lat="38.937968" lon="-6.344028">
        <ele>253.512</ele>
        <time>2021-10-12T16:10:14Z</time>
      </trkpt>
      <trkpt lat="38.938308" lon="-6.343929">
        <ele>255.790</ele>
        <time>2021-10-12T16:10:16Z</time>
      </trkpt>
      <trkpt lat="38.938608" lon="-6.343842">
        <ele>256.016</ele>
        <time>2021-10-12T16:10:18Z</time>
      </trkpt>
      <trkpt lat="38.938865" lon="-6.343758">
        <ele>256.029</ele>
        <time>2021-10-12T16:10:20Z</time>
      </trkpt>
      <trkpt lat="38.938981" lon="-6.343721">
        <ele>256.065</ele>
        <time>2021-10-12T16:10:21Z</time>
      </trkpt>
      <trkpt lat="38.939090" lon="-6.343690">
        <ele>256.034</ele>
        <time>2021-10-12T16:10:22Z</time>
      </trkpt>
      <trkpt lat="38.939195" lon="-6.343661">
        <ele>255.934</ele>
        <time>2021-10-12T16:10:23Z</time>
      </trkpt>
      <trkpt lat="38.939379" lon="-6.343603">
        <ele>255.215</ele>
        <time>2021-10-12T16:10:25Z</time>
      </trkpt>
      <trkpt lat="38.939461" lon="-6.343576">
        <ele>255.086</ele>
        <time>2021-10-12T16:10:26Z</time>
      </trkpt>
      <trkpt lat="38.939611" lon="-6.343529">
        <ele>255.060</ele>
        <time>2021-10-12T16:10:28Z</time>
      </trkpt>
      <trkpt lat="38.939737" lon="-6.343472">
        <ele>255.126</ele>
        <time>2021-10-12T16:10:30Z</time>
      </trkpt>
      <trkpt lat="38.939777" lon="-6.343424">
        <ele>255.208</ele>
        <time>2021-10-12T16:10:32Z</time>
      </trkpt>
      <trkpt lat="38.939825" lon="-6.343343">
        <ele>255.436</ele>
        <time>2021-10-12T16:10:34Z</time>
      </trkpt>
      <trkpt lat="38.939847" lon="-6.343252">
        <ele>255.694</ele>
        <time>2021-10-12T16:10:35Z</time>
      </trkpt>
      <trkpt lat="38.939850" lon="-6.342986">
        <ele>256.010</ele>
        <time>2021-10-12T16:10:37Z</time>
      </trkpt>
      <trkpt lat="38.939790" lon="-6.342649">
        <ele>255.973</ele>
        <time>2021-10-12T16:10:39Z</time>
      </trkpt>
      <trkpt lat="38.939834" lon="-6.342279">
        <ele>255.729</ele>
        <time>2021-10-12T16:10:41Z</time>
      </trkpt>
      <trkpt lat="38.939914" lon="-6.342082">
        <ele>255.218</ele>
        <time>2021-10-12T16:10:42Z</time>
      </trkpt>
      <trkpt lat="38.940141" lon="-6.341652">
        <ele>255.058</ele>
        <time>2021-10-12T16:10:44Z</time>
      </trkpt>
      <trkpt lat="38.940274" lon="-6.341411">
        <ele>255.069</ele>
        <time>2021-10-12T16:10:45Z</time>
      </trkpt>
      <trkpt lat="38.940405" lon="-6.341180">
        <ele>256.437</ele>
        <time>2021-10-12T16:10:46Z</time>
      </trkpt>
      <trkpt lat="38.940667" lon="-6.340720">
        <ele>254.849</ele>
        <time>2021-10-12T16:10:48Z</time>
      </trkpt>
      <trkpt lat="38.940800" lon="-6.340491">
        <ele>252.913</ele>
        <time>2021-10-12T16:10:49Z</time>
      </trkpt>
      <trkpt lat="38.941101" lon="-6.340078">
        <ele>253.008</ele>
        <time>2021-10-12T16:10:51Z</time>
      </trkpt>
      <trkpt lat="38.941467" lon="-6.339728">
        <ele>251.361</ele>
        <time>2021-10-12T16:10:53Z</time>
      </trkpt>
      <trkpt lat="38.941863" lon="-6.339463">
        <ele>251.579</ele>
        <time>2021-10-12T16:10:55Z</time>
      </trkpt>
      <trkpt lat="38.942083" lon="-6.339360">
        <ele>252.895</ele>
        <time>2021-10-12T16:10:56Z</time>
      </trkpt>
      <trkpt lat="38.942557" lon="-6.339239">
        <ele>254.328</ele>
        <time>2021-10-12T16:10:58Z</time>
      </trkpt>
      <trkpt lat="38.943073" lon="-6.339211">
        <ele>254.424</ele>
        <time>2021-10-12T16:11:00Z</time>
      </trkpt>
      <trkpt lat="38.943337" lon="-6.339220">
        <ele>256.013</ele>
        <time>2021-10-12T16:11:01Z</time>
      </trkpt>
      <trkpt lat="38.943613" lon="-6.339238">
        <ele>257.053</ele>
        <time>2021-10-12T16:11:02Z</time>
      </trkpt>
      <trkpt lat="38.944131" lon="-6.339259">
        <ele>258.274</ele>
        <time>2021-10-12T16:11:04Z</time>
      </trkpt>
      <trkpt lat="38.944403" lon="-6.339265">
        <ele>257.543</ele>
        <time>2021-10-12T16:11:05Z</time>
      </trkpt>
      <trkpt lat="38.944675" lon="-6.339276">
        <ele>257.464</ele>
        <time>2021-10-12T16:11:06Z</time>
      </trkpt>
      <trkpt lat="38.944945" lon="-6.339279">
        <ele>258.510</ele>
        <time>2021-10-12T16:11:07Z</time>
      </trkpt>
      <trkpt lat="38.945212" lon="-6.339280">
        <ele>260.008</ele>
        <time>2021-10-12T16:11:08Z</time>
      </trkpt>
      <trkpt lat="38.945466" lon="-6.339268">
        <ele>262.012</ele>
        <time>2021-10-12T16:11:09Z</time>
      </trkpt>
      <trkpt lat="38.945904" lon="-6.339196">
        <ele>263.170</ele>
        <time>2021-10-12T16:11:11Z</time>
      </trkpt>
      <trkpt lat="38.946076" lon="-6.339135">
        <ele>262.766</ele>
        <time>2021-10-12T16:11:12Z</time>
      </trkpt>
      <trkpt lat="38.946337" lon="-6.338988">
        <ele>261.999</ele>
        <time>2021-10-12T16:11:14Z</time>
      </trkpt>
      <trkpt lat="38.946514" lon="-6.338849">
        <ele>262.175</ele>
        <time>2021-10-12T16:11:16Z</time>
      </trkpt>
      <trkpt lat="38.946589" lon="-6.338769">
        <ele>262.464</ele>
        <time>2021-10-12T16:11:17Z</time>
      </trkpt>
      <trkpt lat="38.946683" lon="-6.338580">
        <ele>261.834</ele>
        <time>2021-10-12T16:11:19Z</time>
      </trkpt>
      <trkpt lat="38.946697" lon="-6.338473">
        <ele>260.895</ele>
        <time>2021-10-12T16:11:20Z</time>
      </trkpt>
      <trkpt lat="38.946696" lon="-6.338354">
        <ele>259.565</ele>
        <time>2021-10-12T16:11:21Z</time>
      </trkpt>
      <trkpt lat="38.946707" lon="-6.338232">
        <ele>258.768</ele>
        <time>2021-10-12T16:11:22Z</time>
      </trkpt>
      <trkpt lat="38.946800" lon="-6.338054">
        <ele>257.914</ele>
        <time>2021-10-12T16:11:24Z</time>
      </trkpt>
      <trkpt lat="38.946872" lon="-6.338006">
        <ele>258.108</ele>
        <time>2021-10-12T16:11:25Z</time>
      </trkpt>
      <trkpt lat="38.946963" lon="-6.337983">
        <ele>258.584</ele>
        <time>2021-10-12T16:11:26Z</time>
      </trkpt>
      <trkpt lat="38.947165" lon="-6.338042">
        <ele>258.992</ele>
        <time>2021-10-12T16:11:28Z</time>
      </trkpt>
      <trkpt lat="38.947284" lon="-6.338113">
        <ele>259.258</ele>
        <time>2021-10-12T16:11:29Z</time>
      </trkpt>
      <trkpt lat="38.947564" lon="-6.338196">
        <ele>258.471</ele>
        <time>2021-10-12T16:11:31Z</time>
      </trkpt>
      <trkpt lat="38.947737" lon="-6.338229">
        <ele>258.387</ele>
        <time>2021-10-12T16:11:32Z</time>
      </trkpt>
      <trkpt lat="38.948103" lon="-6.338405">
        <ele>260.136</ele>
        <time>2021-10-12T16:11:34Z</time>
      </trkpt>
      <trkpt lat="38.948289" lon="-6.338564">
        <ele>260.016</ele>
        <time>2021-10-12T16:11:35Z</time>
      </trkpt>
      <trkpt lat="38.948460" lon="-6.338768">
        <ele>259.737</ele>
        <time>2021-10-12T16:11:36Z</time>
      </trkpt>
      <trkpt lat="38.948759" lon="-6.339278">
        <ele>262.323</ele>
        <time>2021-10-12T16:11:38Z</time>
      </trkpt>
      <trkpt lat="38.949062" lon="-6.339829">
        <ele>264.183</ele>
        <time>2021-10-12T16:11:40Z</time>
      </trkpt>
      <trkpt lat="38.949436" lon="-6.340331">
        <ele>266.611</ele>
        <time>2021-10-12T16:11:42Z</time>
      </trkpt>
      <trkpt lat="38.949859" lon="-6.340788">
        <ele>268.208</ele>
        <time>2021-10-12T16:11:44Z</time>
      </trkpt>
      <trkpt lat="38.950309" lon="-6.341232">
        <ele>268.310</ele>
        <time>2021-10-12T16:11:46Z</time>
      </trkpt>
      <trkpt lat="38.950532" lon="-6.341450">
        <ele>268.588</ele>
        <time>2021-10-12T16:11:47Z</time>
      </trkpt>
      <trkpt lat="38.950964" lon="-6.341862">
        <ele>271.314</ele>
        <time>2021-10-12T16:11:49Z</time>
      </trkpt>
      <trkpt lat="38.951163" lon="-6.342050">
        <ele>272.897</ele>
        <time>2021-10-12T16:11:50Z</time>
      </trkpt>
      <trkpt lat="38.951351" lon="-6.342217">
        <ele>274.043</ele>
        <time>2021-10-12T16:11:51Z</time>
      </trkpt>
      <trkpt lat="38.951537" lon="-6.342368">
        <ele>274.592</ele>
        <time>2021-10-12T16:11:52Z</time>
      </trkpt>
      <trkpt lat="38.951931" lon="-6.342607">
        <ele>275.822</ele>
        <time>2021-10-12T16:11:54Z</time>
      </trkpt>
      <trkpt lat="38.952368" lon="-6.342780">
        <ele>276.593</ele>
        <time>2021-10-12T16:11:56Z</time>
      </trkpt>
      <trkpt lat="38.952813" lon="-6.342877">
        <ele>278.223</ele>
        <time>2021-10-12T16:11:58Z</time>
      </trkpt>
      <trkpt lat="38.953288" lon="-6.342884">
        <ele>276.583</ele>
        <time>2021-10-12T16:12:00Z</time>
      </trkpt>
      <trkpt lat="38.953776" lon="-6.342783">
        <ele>276.011</ele>
        <time>2021-10-12T16:12:02Z</time>
      </trkpt>
      <trkpt lat="38.954248" lon="-6.342621">
        <ele>278.908</ele>
        <time>2021-10-12T16:12:04Z</time>
      </trkpt>
      <trkpt lat="38.954726" lon="-6.342440">
        <ele>282.850</ele>
        <time>2021-10-12T16:12:06Z</time>
      </trkpt>
      <trkpt lat="38.955207" lon="-6.342290">
        <ele>284.098</ele>
        <time>2021-10-12T16:12:08Z</time>
      </trkpt>
      <trkpt lat="38.955448" lon="-6.342216">
        <ele>285.264</ele>
        <time>2021-10-12T16:12:09Z</time>
      </trkpt>
      <trkpt lat="38.955689" lon="-6.342147">
        <ele>286.157</ele>
        <time>2021-10-12T16:12:10Z</time>
      </trkpt>
      <trkpt lat="38.956175" lon="-6.342006">
        <ele>286.433</ele>
        <time>2021-10-12T16:12:12Z</time>
      </trkpt>
      <trkpt lat="38.956654" lon="-6.341864">
        <ele>285.412</ele>
        <time>2021-10-12T16:12:14Z</time>
      </trkpt>
      <trkpt lat="38.956894" lon="-6.341793">
        <ele>286.212</ele>
        <time>2021-10-12T16:12:15Z</time>
      </trkpt>
      <trkpt lat="38.957138" lon="-6.341730">
        <ele>286.483</ele>
        <time>2021-10-12T16:12:16Z</time>
      </trkpt>
      <trkpt lat="38.957616" lon="-6.341604">
        <ele>285.456</ele>
        <time>2021-10-12T16:12:18Z</time>
      </trkpt>
      <trkpt lat="38.957847" lon="-6.341555">
        <ele>284.759</ele>
        <time>2021-10-12T16:12:19Z</time>
      </trkpt>
      <trkpt lat="38.958079" lon="-6.341521">
        <ele>285.314</ele>
        <time>2021-10-12T16:12:20Z</time>
      </trkpt>
      <trkpt lat="38.958544" lon="-6.341514">
        <ele>288.908</ele>
        <time>2021-10-12T16:12:22Z</time>
      </trkpt>
      <trkpt lat="38.958780" lon="-6.341533">
        <ele>288.473</ele>
        <time>2021-10-12T16:12:23Z</time>
      </trkpt>
      <trkpt lat="38.959258" lon="-6.341585">
        <ele>287.531</ele>
        <time>2021-10-12T16:12:25Z</time>
      </trkpt>
      <trkpt lat="38.959513" lon="-6.341605">
        <ele>287.037</ele>
        <time>2021-10-12T16:12:26Z</time>
      </trkpt>
      <trkpt lat="38.959992" lon="-6.341633">
        <ele>286.930</ele>
        <time>2021-10-12T16:12:28Z</time>
      </trkpt>
      <trkpt lat="38.960239" lon="-6.341645">
        <ele>286.946</ele>
        <time>2021-10-12T16:12:29Z</time>
      </trkpt>
      <trkpt lat="38.960719" lon="-6.341631">
        <ele>288.595</ele>
        <time>2021-10-12T16:12:31Z</time>
      </trkpt>
      <trkpt lat="38.960954" lon="-6.341591">
        <ele>289.365</ele>
        <time>2021-10-12T16:12:32Z</time>
      </trkpt>
      <trkpt lat="38.961381" lon="-6.341432">
        <ele>291.946</ele>
        <time>2021-10-12T16:12:34Z</time>
      </trkpt>
      <trkpt lat="38.961586" lon="-6.341306">
        <ele>292.154</ele>
        <time>2021-10-12T16:12:35Z</time>
      </trkpt>
      <trkpt lat="38.961959" lon="-6.340954">
        <ele>292.756</ele>
        <time>2021-10-12T16:12:37Z</time>
      </trkpt>
      <trkpt lat="38.962317" lon="-6.340522">
        <ele>296.811</ele>
        <time>2021-10-12T16:12:39Z</time>
      </trkpt>
      <trkpt lat="38.962704" lon="-6.340090">
        <ele>299.208</ele>
        <time>2021-10-12T16:12:41Z</time>
      </trkpt>
      <trkpt lat="38.963105" lon="-6.339657">
        <ele>300.463</ele>
        <time>2021-10-12T16:12:43Z</time>
      </trkpt>
      <trkpt lat="38.963309" lon="-6.339431">
        <ele>301.931</ele>
        <time>2021-10-12T16:12:44Z</time>
      </trkpt>
      <trkpt lat="38.963727" lon="-6.338974">
        <ele>306.197</ele>
        <time>2021-10-12T16:12:46Z</time>
      </trkpt>
      <trkpt lat="38.963938" lon="-6.338753">
        <ele>307.530</ele>
        <time>2021-10-12T16:12:47Z</time>
      </trkpt>
      <trkpt lat="38.964366" lon="-6.338320">
        <ele>309.486</ele>
        <time>2021-10-12T16:12:49Z</time>
      </trkpt>
      <trkpt lat="38.964806" lon="-6.337910">
        <ele>312.195</ele>
        <time>2021-10-12T16:12:51Z</time>
      </trkpt>
      <trkpt lat="38.965271" lon="-6.337496">
        <ele>315.035</ele>
        <time>2021-10-12T16:12:53Z</time>
      </trkpt>
      <trkpt lat="38.965750" lon="-6.337078">
        <ele>317.846</ele>
        <time>2021-10-12T16:12:55Z</time>
      </trkpt>
      <trkpt lat="38.965998" lon="-6.336862">
        <ele>319.532</ele>
        <time>2021-10-12T16:12:56Z</time>
      </trkpt>
      <trkpt lat="38.966462" lon="-6.336463">
        <ele>319.992</ele>
        <time>2021-10-12T16:12:58Z</time>
      </trkpt>
      <trkpt lat="38.966700" lon="-6.336255">
        <ele>319.911</ele>
        <time>2021-10-12T16:12:59Z</time>
      </trkpt>
      <trkpt lat="38.967147" lon="-6.335869">
        <ele>319.908</ele>
        <time>2021-10-12T16:13:01Z</time>
      </trkpt>
      <trkpt lat="38.967362" lon="-6.335685">
        <ele>318.821</ele>
        <time>2021-10-12T16:13:02Z</time>
      </trkpt>
      <trkpt lat="38.967749" lon="-6.335350">
        <ele>315.139</ele>
        <time>2021-10-12T16:13:04Z</time>
      </trkpt>
      <trkpt lat="38.967950" lon="-6.335175">
        <ele>314.575</ele>
        <time>2021-10-12T16:13:05Z</time>
      </trkpt>
      <trkpt lat="38.968152" lon="-6.335000">
        <ele>315.078</ele>
        <time>2021-10-12T16:13:06Z</time>
      </trkpt>
      <trkpt lat="38.968357" lon="-6.334829">
        <ele>316.344</ele>
        <time>2021-10-12T16:13:07Z</time>
      </trkpt>
      <trkpt lat="38.968788" lon="-6.334491">
        <ele>318.963</ele>
        <time>2021-10-12T16:13:09Z</time>
      </trkpt>
      <trkpt lat="38.969253" lon="-6.334155">
        <ele>316.163</ele>
        <time>2021-10-12T16:13:11Z</time>
      </trkpt>
      <trkpt lat="38.969501" lon="-6.333987">
        <ele>316.874</ele>
        <time>2021-10-12T16:13:12Z</time>
      </trkpt>
      <trkpt lat="38.970016" lon="-6.333668">
        <ele>312.554</ele>
        <time>2021-10-12T16:13:14Z</time>
      </trkpt>
      <trkpt lat="38.970547" lon="-6.333340">
        <ele>309.056</ele>
        <time>2021-10-12T16:13:16Z</time>
      </trkpt>
      <trkpt lat="38.970812" lon="-6.333176">
        <ele>306.511</ele>
        <time>2021-10-12T16:13:17Z</time>
      </trkpt>
      <trkpt lat="38.971345" lon="-6.332846">
        <ele>305.208</ele>
        <time>2021-10-12T16:13:19Z</time>
      </trkpt>
      <trkpt lat="38.971858" lon="-6.332520">
        <ele>302.853</ele>
        <time>2021-10-12T16:13:21Z</time>
      </trkpt>
      <trkpt lat="38.972111" lon="-6.332359">
        <ele>301.291</ele>
        <time>2021-10-12T16:13:22Z</time>
      </trkpt>
      <trkpt lat="38.972584" lon="-6.332055">
        <ele>299.067</ele>
        <time>2021-10-12T16:13:24Z</time>
      </trkpt>
      <trkpt lat="38.973036" lon="-6.331761">
        <ele>295.650</ele>
        <time>2021-10-12T16:13:26Z</time>
      </trkpt>
      <trkpt lat="38.973450" lon="-6.331494">
        <ele>294.336</ele>
        <time>2021-10-12T16:13:28Z</time>
      </trkpt>
      <trkpt lat="38.973859" lon="-6.331234">
        <ele>294.235</ele>
        <time>2021-10-12T16:13:30Z</time>
      </trkpt>
      <trkpt lat="38.974240" lon="-6.330980">
        <ele>294.485</ele>
        <time>2021-10-12T16:13:32Z</time>
      </trkpt>
      <trkpt lat="38.974603" lon="-6.330757">
        <ele>294.786</ele>
        <time>2021-10-12T16:13:34Z</time>
      </trkpt>
      <trkpt lat="38.974801" lon="-6.330664">
        <ele>295.213</ele>
        <time>2021-10-12T16:13:35Z</time>
      </trkpt>
      <trkpt lat="38.975002" lon="-6.330612">
        <ele>295.643</ele>
        <time>2021-10-12T16:13:36Z</time>
      </trkpt>
      <trkpt lat="38.975213" lon="-6.330600">
        <ele>295.707</ele>
        <time>2021-10-12T16:13:37Z</time>
      </trkpt>
      <trkpt lat="38.975645" lon="-6.330623">
        <ele>295.308</ele>
        <time>2021-10-12T16:13:39Z</time>
      </trkpt>
      <trkpt lat="38.975871" lon="-6.330633">
        <ele>294.799</ele>
        <time>2021-10-12T16:13:40Z</time>
      </trkpt>
      <trkpt lat="38.976089" lon="-6.330636">
        <ele>294.777</ele>
        <time>2021-10-12T16:13:41Z</time>
      </trkpt>
      <trkpt lat="38.976501" lon="-6.330618">
        <ele>292.053</ele>
        <time>2021-10-12T16:13:43Z</time>
      </trkpt>
      <trkpt lat="38.976862" lon="-6.330524">
        <ele>290.586</ele>
        <time>2021-10-12T16:13:45Z</time>
      </trkpt>
      <trkpt lat="38.977024" lon="-6.330462">
        <ele>290.432</ele>
        <time>2021-10-12T16:13:46Z</time>
      </trkpt>
      <trkpt lat="38.977318" lon="-6.330341">
        <ele>290.261</ele>
        <time>2021-10-12T16:13:48Z</time>
      </trkpt>
      <trkpt lat="38.977601" lon="-6.330234">
        <ele>290.291</ele>
        <time>2021-10-12T16:13:50Z</time>
      </trkpt>
      <trkpt lat="38.977738" lon="-6.330177">
        <ele>290.422</ele>
        <time>2021-10-12T16:13:51Z</time>
      </trkpt>
      <trkpt lat="38.977978" lon="-6.330044">
        <ele>290.363</ele>
        <time>2021-10-12T16:13:53Z</time>
      </trkpt>
      <trkpt lat="38.978072" lon="-6.329954">
        <ele>289.844</ele>
        <time>2021-10-12T16:13:54Z</time>
      </trkpt>
      <trkpt lat="38.978212" lon="-6.329752">
        <ele>288.518</ele>
        <time>2021-10-12T16:13:56Z</time>
      </trkpt>
      <trkpt lat="38.978359" lon="-6.329640">
        <ele>288.008</ele>
        <time>2021-10-12T16:13:58Z</time>
      </trkpt>
      <trkpt lat="38.978462" lon="-6.329627">
        <ele>288.234</ele>
        <time>2021-10-12T16:13:59Z</time>
      </trkpt>
      <trkpt lat="38.978708" lon="-6.329653">
        <ele>288.212</ele>
        <time>2021-10-12T16:14:01Z</time>
      </trkpt>
      <trkpt lat="38.978848" lon="-6.329654">
        <ele>288.258</ele>
        <time>2021-10-12T16:14:02Z</time>
      </trkpt>
      <trkpt lat="38.979148" lon="-6.329585">
        <ele>287.111</ele>
        <time>2021-10-12T16:14:04Z</time>
      </trkpt>
      <trkpt lat="38.979479" lon="-6.329487">
        <ele>284.877</ele>
        <time>2021-10-12T16:14:06Z</time>
      </trkpt>
      <trkpt lat="38.979648" lon="-6.329434">
        <ele>283.526</ele>
        <time>2021-10-12T16:14:07Z</time>
      </trkpt>
      <trkpt lat="38.979822" lon="-6.329382">
        <ele>282.626</ele>
        <time>2021-10-12T16:14:08Z</time>
      </trkpt>
      <trkpt lat="38.980000" lon="-6.329337">
        <ele>281.627</ele>
        <time>2021-10-12T16:14:09Z</time>
      </trkpt>
      <trkpt lat="38.980181" lon="-6.329293">
        <ele>281.211</ele>
        <time>2021-10-12T16:14:10Z</time>
      </trkpt>
      <trkpt lat="38.980561" lon="-6.329233">
        <ele>282.821</ele>
        <time>2021-10-12T16:14:12Z</time>
      </trkpt>
      <trkpt lat="38.980749" lon="-6.329212">
        <ele>284.903</ele>
        <time>2021-10-12T16:14:13Z</time>
      </trkpt>
      <trkpt lat="38.980928" lon="-6.329179">
        <ele>286.008</ele>
        <time>2021-10-12T16:14:14Z</time>
      </trkpt>
      <trkpt lat="38.981086" lon="-6.329137">
        <ele>286.119</ele>
        <time>2021-10-12T16:14:15Z</time>
      </trkpt>
      <trkpt lat="38.981315" lon="-6.329070">
        <ele>286.817</ele>
        <time>2021-10-12T16:14:17Z</time>
      </trkpt>
      <trkpt lat="38.981437" lon="-6.329038">
        <ele>287.233</ele>
        <time>2021-10-12T16:14:19Z</time>
      </trkpt>
      <trkpt lat="38.981562" lon="-6.329026">
        <ele>287.686</ele>
        <time>2021-10-12T16:15:10Z</time>
      </trkpt>
      <trkpt lat="38.981897" lon="-6.328969">
        <ele>287.452</ele>
        <time>2021-10-12T16:15:12Z</time>
      </trkpt>
      <trkpt lat="38.982319" lon="-6.328877">
        <ele>286.771</ele>
        <time>2021-10-12T16:15:14Z</time>
      </trkpt>
      <trkpt lat="38.982792" lon="-6.328775">
        <ele>287.051</ele>
        <time>2021-10-12T16:15:16Z</time>
      </trkpt>
      <trkpt lat="38.983042" lon="-6.328723">
        <ele>287.052</ele>
        <time>2021-10-12T16:15:17Z</time>
      </trkpt>
      <trkpt lat="38.983557" lon="-6.328617">
        <ele>287.081</ele>
        <time>2021-10-12T16:15:19Z</time>
      </trkpt>
      <trkpt lat="38.983824" lon="-6.328559">
        <ele>287.061</ele>
        <time>2021-10-12T16:15:20Z</time>
      </trkpt>
      <trkpt lat="38.984098" lon="-6.328499">
        <ele>286.217</ele>
        <time>2021-10-12T16:15:21Z</time>
      </trkpt>
      <trkpt lat="38.984659" lon="-6.328376">
        <ele>286.808</ele>
        <time>2021-10-12T16:15:23Z</time>
      </trkpt>
      <trkpt lat="38.985235" lon="-6.328244">
        <ele>284.716</ele>
        <time>2021-10-12T16:15:25Z</time>
      </trkpt>
      <trkpt lat="38.985533" lon="-6.328179">
        <ele>285.564</ele>
        <time>2021-10-12T16:15:26Z</time>
      </trkpt>
      <trkpt lat="38.986092" lon="-6.328060">
        <ele>288.960</ele>
        <time>2021-10-12T16:15:28Z</time>
      </trkpt>
      <trkpt lat="38.986667" lon="-6.327946">
        <ele>283.493</ele>
        <time>2021-10-12T16:15:30Z</time>
      </trkpt>
      <trkpt lat="38.986959" lon="-6.327893">
        <ele>282.119</ele>
        <time>2021-10-12T16:15:31Z</time>
      </trkpt>
      <trkpt lat="38.987263" lon="-6.327853">
        <ele>283.068</ele>
        <time>2021-10-12T16:15:32Z</time>
      </trkpt>
      <trkpt lat="38.987849" lon="-6.327816">
        <ele>284.178</ele>
        <time>2021-10-12T16:15:34Z</time>
      </trkpt>
      <trkpt lat="38.988435" lon="-6.327835">
        <ele>282.239</ele>
        <time>2021-10-12T16:15:36Z</time>
      </trkpt>
      <trkpt lat="38.988727" lon="-6.327873">
        <ele>281.366</ele>
        <time>2021-10-12T16:15:37Z</time>
      </trkpt>
      <trkpt lat="38.989324" lon="-6.327977">
        <ele>278.729</ele>
        <time>2021-10-12T16:15:39Z</time>
      </trkpt>
      <trkpt lat="38.989648" lon="-6.328035">
        <ele>278.121</ele>
        <time>2021-10-12T16:15:40Z</time>
      </trkpt>
      <trkpt lat="38.989987" lon="-6.328097">
        <ele>278.008</ele>
        <time>2021-10-12T16:15:41Z</time>
      </trkpt>
      <trkpt lat="38.990340" lon="-6.328164">
        <ele>276.944</ele>
        <time>2021-10-12T16:15:42Z</time>
      </trkpt>
      <trkpt lat="38.991435" lon="-6.328356">
        <ele>272.212</ele>
        <time>2021-10-12T16:15:45Z</time>
      </trkpt>
      <trkpt lat="38.991811" lon="-6.328421">
        <ele>273.538</ele>
        <time>2021-10-12T16:15:46Z</time>
      </trkpt>
      <trkpt lat="38.992928" lon="-6.328611">
        <ele>277.561</ele>
        <time>2021-10-12T16:15:49Z</time>
      </trkpt>
      <trkpt lat="38.993299" lon="-6.328674">
        <ele>278.017</ele>
        <time>2021-10-12T16:15:50Z</time>
      </trkpt>
      <trkpt lat="38.994420" lon="-6.328830">
        <ele>275.586</ele>
        <time>2021-10-12T16:15:53Z</time>
      </trkpt>
      <trkpt lat="38.994794" lon="-6.328865">
        <ele>274.376</ele>
        <time>2021-10-12T16:15:54Z</time>
      </trkpt>
      <trkpt lat="38.995888" lon="-6.328970">
        <ele>277.817</ele>
        <time>2021-10-12T16:15:57Z</time>
      </trkpt>
      <trkpt lat="38.996250" lon="-6.329007">
        <ele>278.645</ele>
        <time>2021-10-12T16:15:58Z</time>
      </trkpt>
      <trkpt lat="38.996602" lon="-6.329045">
        <ele>276.047</ele>
        <time>2021-10-12T16:15:59Z</time>
      </trkpt>
      <trkpt lat="38.996948" lon="-6.329091">
        <ele>274.311</ele>
        <time>2021-10-12T16:16:00Z</time>
      </trkpt>
      <trkpt lat="38.997290" lon="-6.329148">
        <ele>274.308</ele>
        <time>2021-10-12T16:16:01Z</time>
      </trkpt>
      <trkpt lat="38.997635" lon="-6.329232">
        <ele>275.362</ele>
        <time>2021-10-12T16:16:02Z</time>
      </trkpt>
      <trkpt lat="38.998292" lon="-6.329492">
        <ele>276.750</ele>
        <time>2021-10-12T16:16:04Z</time>
      </trkpt>
      <trkpt lat="38.998624" lon="-6.329666">
        <ele>277.326</ele>
        <time>2021-10-12T16:16:05Z</time>
      </trkpt>
      <trkpt lat="38.999271" lon="-6.330037">
        <ele>281.139</ele>
        <time>2021-10-12T16:16:07Z</time>
      </trkpt>
      <trkpt lat="38.999591" lon="-6.330196">
        <ele>281.025</ele>
        <time>2021-10-12T16:16:08Z</time>
      </trkpt>
      <trkpt lat="39.000218" lon="-6.330396">
        <ele>281.464</ele>
        <time>2021-10-12T16:16:10Z</time>
      </trkpt>
      <trkpt lat="39.000884" lon="-6.330439">
        <ele>278.294</ele>
        <time>2021-10-12T16:16:12Z</time>
      </trkpt>
      <trkpt lat="39.001584" lon="-6.330453">
        <ele>277.365</ele>
        <time>2021-10-12T16:16:14Z</time>
      </trkpt>
      <trkpt lat="39.001926" lon="-6.330446">
        <ele>278.376</ele>
        <time>2021-10-12T16:16:15Z</time>
      </trkpt>
      <trkpt lat="39.002580" lon="-6.330328">
        <ele>280.190</ele>
        <time>2021-10-12T16:16:17Z</time>
      </trkpt>
      <trkpt lat="39.003130" lon="-6.330056">
        <ele>280.519</ele>
        <time>2021-10-12T16:16:19Z</time>
      </trkpt>
      <trkpt lat="39.003372" lon="-6.329863">
        <ele>281.208</ele>
        <time>2021-10-12T16:16:20Z</time>
      </trkpt>
      <trkpt lat="39.003849" lon="-6.329345">
        <ele>281.695</ele>
        <time>2021-10-12T16:16:22Z</time>
      </trkpt>
      <trkpt lat="39.004087" lon="-6.329042">
        <ele>281.473</ele>
        <time>2021-10-12T16:16:23Z</time>
      </trkpt>
      <trkpt lat="39.004331" lon="-6.328728">
        <ele>282.389</ele>
        <time>2021-10-12T16:16:24Z</time>
      </trkpt>
      <trkpt lat="39.005400" lon="-6.327400">
        <ele>278.892</ele>
        <time>2021-10-12T16:16:28Z</time>
      </trkpt>
      <trkpt lat="39.005685" lon="-6.327051">
        <ele>278.518</ele>
        <time>2021-10-12T16:16:29Z</time>
      </trkpt>
      <trkpt lat="39.006786" lon="-6.325715">
        <ele>284.737</ele>
        <time>2021-10-12T16:16:33Z</time>
      </trkpt>
      <trkpt lat="39.007048" lon="-6.325424">
        <ele>284.997</ele>
        <time>2021-10-12T16:16:34Z</time>
      </trkpt>
      <trkpt lat="39.007589" lon="-6.324913">
        <ele>286.628</ele>
        <time>2021-10-12T16:16:36Z</time>
      </trkpt>
      <trkpt lat="39.007889" lon="-6.324680">
        <ele>288.778</ele>
        <time>2021-10-12T16:16:37Z</time>
      </trkpt>
      <trkpt lat="39.008195" lon="-6.324470">
        <ele>289.633</ele>
        <time>2021-10-12T16:16:38Z</time>
      </trkpt>
      <trkpt lat="39.008504" lon="-6.324276">
        <ele>290.926</ele>
        <time>2021-10-12T16:16:39Z</time>
      </trkpt>
      <trkpt lat="39.009146" lon="-6.323951">
        <ele>292.608</ele>
        <time>2021-10-12T16:16:41Z</time>
      </trkpt>
      <trkpt lat="39.010564" lon="-6.323441">
        <ele>297.875</ele>
        <time>2021-10-12T16:16:45Z</time>
      </trkpt>
      <trkpt lat="39.010932" lon="-6.323314">
        <ele>296.953</ele>
        <time>2021-10-12T16:16:46Z</time>
      </trkpt>
      <trkpt lat="39.012047" lon="-6.322926">
        <ele>297.969</ele>
        <time>2021-10-12T16:16:49Z</time>
      </trkpt>
      <trkpt lat="39.013479" lon="-6.322422">
        <ele>307.162</ele>
        <time>2021-10-12T16:16:53Z</time>
      </trkpt>
      <trkpt lat="39.013814" lon="-6.322305">
        <ele>308.028</ele>
        <time>2021-10-12T16:16:54Z</time>
      </trkpt>
      <trkpt lat="39.014480" lon="-6.322076">
        <ele>310.147</ele>
        <time>2021-10-12T16:16:56Z</time>
      </trkpt>
      <trkpt lat="39.015069" lon="-6.321856">
        <ele>310.787</ele>
        <time>2021-10-12T16:16:58Z</time>
      </trkpt>
      <trkpt lat="39.015339" lon="-6.321749">
        <ele>310.398</ele>
        <time>2021-10-12T16:16:59Z</time>
      </trkpt>
      <trkpt lat="39.015826" lon="-6.321537">
        <ele>310.543</ele>
        <time>2021-10-12T16:17:01Z</time>
      </trkpt>
      <trkpt lat="39.016060" lon="-6.321449">
        <ele>311.664</ele>
        <time>2021-10-12T16:17:02Z</time>
      </trkpt>
      <trkpt lat="39.016524" lon="-6.321379">
        <ele>310.110</ele>
        <time>2021-10-12T16:17:04Z</time>
      </trkpt>
      <trkpt lat="39.016783" lon="-6.321407">
        <ele>308.208</ele>
        <time>2021-10-12T16:17:05Z</time>
      </trkpt>
      <trkpt lat="39.017311" lon="-6.321604">
        <ele>306.272</ele>
        <time>2021-10-12T16:17:07Z</time>
      </trkpt>
      <trkpt lat="39.017582" lon="-6.321766">
        <ele>306.640</ele>
        <time>2021-10-12T16:17:08Z</time>
      </trkpt>
      <trkpt lat="39.017857" lon="-6.321942">
        <ele>306.336</ele>
        <time>2021-10-12T16:17:09Z</time>
      </trkpt>
      <trkpt lat="39.018431" lon="-6.322210">
        <ele>307.499</ele>
        <time>2021-10-12T16:17:11Z</time>
      </trkpt>
      <trkpt lat="39.019017" lon="-6.322277">
        <ele>309.185</ele>
        <time>2021-10-12T16:17:13Z</time>
      </trkpt>
      <trkpt lat="39.019598" lon="-6.322141">
        <ele>310.944</ele>
        <time>2021-10-12T16:17:15Z</time>
      </trkpt>
      <trkpt lat="39.020186" lon="-6.321849">
        <ele>315.224</ele>
        <time>2021-10-12T16:17:17Z</time>
      </trkpt>
      <trkpt lat="39.020484" lon="-6.321684">
        <ele>317.475</ele>
        <time>2021-10-12T16:17:18Z</time>
      </trkpt>
      <trkpt lat="39.020774" lon="-6.321528">
        <ele>319.743</ele>
        <time>2021-10-12T16:17:19Z</time>
      </trkpt>
      <trkpt lat="39.021296" lon="-6.321269">
        <ele>320.664</ele>
        <time>2021-10-12T16:17:21Z</time>
      </trkpt>
      <trkpt lat="39.021538" lon="-6.321169">
        <ele>320.410</ele>
        <time>2021-10-12T16:17:22Z</time>
      </trkpt>
      <trkpt lat="39.021990" lon="-6.321049">
        <ele>318.508</ele>
        <time>2021-10-12T16:17:24Z</time>
      </trkpt>
      <trkpt lat="39.022406" lon="-6.321047">
        <ele>315.872</ele>
        <time>2021-10-12T16:17:26Z</time>
      </trkpt>
      <trkpt lat="39.022750" lon="-6.321129">
        <ele>313.310</ele>
        <time>2021-10-12T16:17:28Z</time>
      </trkpt>
      <trkpt lat="39.023075" lon="-6.321285">
        <ele>310.916</ele>
        <time>2021-10-12T16:17:30Z</time>
      </trkpt>
      <trkpt lat="39.023418" lon="-6.321521">
        <ele>309.529</ele>
        <time>2021-10-12T16:17:32Z</time>
      </trkpt>
      <trkpt lat="39.023743" lon="-6.321861">
        <ele>307.725</ele>
        <time>2021-10-12T16:17:34Z</time>
      </trkpt>
      <trkpt lat="39.023892" lon="-6.322050">
        <ele>307.444</ele>
        <time>2021-10-12T16:17:35Z</time>
      </trkpt>
      <trkpt lat="39.024031" lon="-6.322250">
        <ele>307.024</ele>
        <time>2021-10-12T16:17:36Z</time>
      </trkpt>
      <trkpt lat="39.024171" lon="-6.322462">
        <ele>306.085</ele>
        <time>2021-10-12T16:17:37Z</time>
      </trkpt>
      <trkpt lat="39.024315" lon="-6.322678">
        <ele>305.824</ele>
        <time>2021-10-12T16:17:38Z</time>
      </trkpt>
      <trkpt lat="39.024618" lon="-6.323123">
        <ele>304.404</ele>
        <time>2021-10-12T16:17:40Z</time>
      </trkpt>
      <trkpt lat="39.024928" lon="-6.323577">
        <ele>303.914</ele>
        <time>2021-10-12T16:17:42Z</time>
      </trkpt>
      <trkpt lat="39.025078" lon="-6.323799">
        <ele>303.408</ele>
        <time>2021-10-12T16:17:43Z</time>
      </trkpt>
      <trkpt lat="39.025221" lon="-6.324010">
        <ele>302.490</ele>
        <time>2021-10-12T16:17:44Z</time>
      </trkpt>
      <trkpt lat="39.025498" lon="-6.324415">
        <ele>301.278</ele>
        <time>2021-10-12T16:17:46Z</time>
      </trkpt>
      <trkpt lat="39.025776" lon="-6.324816">
        <ele>299.714</ele>
        <time>2021-10-12T16:17:48Z</time>
      </trkpt>
      <trkpt lat="39.025914" lon="-6.325008">
        <ele>299.097</ele>
        <time>2021-10-12T16:17:49Z</time>
      </trkpt>
      <trkpt lat="39.026173" lon="-6.325360">
        <ele>298.883</ele>
        <time>2021-10-12T16:17:51Z</time>
      </trkpt>
      <trkpt lat="39.026308" lon="-6.325521">
        <ele>298.992</ele>
        <time>2021-10-12T16:17:52Z</time>
      </trkpt>
      <trkpt lat="39.026453" lon="-6.325662">
        <ele>299.182</ele>
        <time>2021-10-12T16:17:53Z</time>
      </trkpt>
      <trkpt lat="39.026601" lon="-6.325775">
        <ele>299.653</ele>
        <time>2021-10-12T16:17:54Z</time>
      </trkpt>
      <trkpt lat="39.026872" lon="-6.325930">
        <ele>301.187</ele>
        <time>2021-10-12T16:17:56Z</time>
      </trkpt>
      <trkpt lat="39.027084" lon="-6.326023">
        <ele>302.742</ele>
        <time>2021-10-12T16:17:58Z</time>
      </trkpt>
      <trkpt lat="39.027186" lon="-6.326064">
        <ele>303.626</ele>
        <time>2021-10-12T16:17:59Z</time>
      </trkpt>
      <trkpt lat="39.027411" lon="-6.326122">
        <ele>304.708</ele>
        <time>2021-10-12T16:18:01Z</time>
      </trkpt>
      <trkpt lat="39.027540" lon="-6.326134">
        <ele>305.476</ele>
        <time>2021-10-12T16:18:02Z</time>
      </trkpt>
      <trkpt lat="39.027825" lon="-6.326128">
        <ele>307.224</ele>
        <time>2021-10-12T16:18:04Z</time>
      </trkpt>
      <trkpt lat="39.027990" lon="-6.326118">
        <ele>307.820</ele>
        <time>2021-10-12T16:18:05Z</time>
      </trkpt>
      <trkpt lat="39.028166" lon="-6.326101">
        <ele>308.413</ele>
        <time>2021-10-12T16:18:06Z</time>
      </trkpt>
      <trkpt lat="39.028353" lon="-6.326081">
        <ele>309.179</ele>
        <time>2021-10-12T16:18:07Z</time>
      </trkpt>
      <trkpt lat="39.028762" lon="-6.326037">
        <ele>310.068</ele>
        <time>2021-10-12T16:18:09Z</time>
      </trkpt>
      <trkpt lat="39.029205" lon="-6.325994">
        <ele>309.678</ele>
        <time>2021-10-12T16:18:11Z</time>
      </trkpt>
      <trkpt lat="39.029669" lon="-6.325951">
        <ele>312.629</ele>
        <time>2021-10-12T16:18:13Z</time>
      </trkpt>
      <trkpt lat="39.029903" lon="-6.325928">
        <ele>313.776</ele>
        <time>2021-10-12T16:18:14Z</time>
      </trkpt>
      <trkpt lat="39.030139" lon="-6.325905">
        <ele>314.590</ele>
        <time>2021-10-12T16:18:15Z</time>
      </trkpt>
      <trkpt lat="39.030618" lon="-6.325859">
        <ele>317.419</ele>
        <time>2021-10-12T16:18:17Z</time>
      </trkpt>
      <trkpt lat="39.031105" lon="-6.325812">
        <ele>318.908</ele>
        <time>2021-10-12T16:18:19Z</time>
      </trkpt>
      <trkpt lat="39.031355" lon="-6.325788">
        <ele>318.095</ele>
        <time>2021-10-12T16:18:20Z</time>
      </trkpt>
      <trkpt lat="39.031861" lon="-6.325756">
        <ele>316.323</ele>
        <time>2021-10-12T16:18:22Z</time>
      </trkpt>
      <trkpt lat="39.032367" lon="-6.325724">
        <ele>315.869</ele>
        <time>2021-10-12T16:18:24Z</time>
      </trkpt>
      <trkpt lat="39.032614" lon="-6.325703">
        <ele>315.162</ele>
        <time>2021-10-12T16:18:25Z</time>
      </trkpt>
      <trkpt lat="39.032865" lon="-6.325684">
        <ele>314.848</ele>
        <time>2021-10-12T16:18:26Z</time>
      </trkpt>
      <trkpt lat="39.033335" lon="-6.325655">
        <ele>314.727</ele>
        <time>2021-10-12T16:18:28Z</time>
      </trkpt>
      <trkpt lat="39.033566" lon="-6.325645">
        <ele>313.587</ele>
        <time>2021-10-12T16:18:29Z</time>
      </trkpt>
      <trkpt lat="39.033794" lon="-6.325646">
        <ele>311.698</ele>
        <time>2021-10-12T16:18:30Z</time>
      </trkpt>
      <trkpt lat="39.034259" lon="-6.325691">
        <ele>309.627</ele>
        <time>2021-10-12T16:18:32Z</time>
      </trkpt>
      <trkpt lat="39.034716" lon="-6.325811">
        <ele>306.968</ele>
        <time>2021-10-12T16:18:34Z</time>
      </trkpt>
      <trkpt lat="39.034955" lon="-6.325893">
        <ele>305.814</ele>
        <time>2021-10-12T16:18:35Z</time>
      </trkpt>
      <trkpt lat="39.035431" lon="-6.326087">
        <ele>306.108</ele>
        <time>2021-10-12T16:18:37Z</time>
      </trkpt>
      <trkpt lat="39.035876" lon="-6.326299">
        <ele>302.730</ele>
        <time>2021-10-12T16:18:39Z</time>
      </trkpt>
      <trkpt lat="39.036100" lon="-6.326406">
        <ele>302.178</ele>
        <time>2021-10-12T16:18:40Z</time>
      </trkpt>
      <trkpt lat="39.036558" lon="-6.326623">
        <ele>301.264</ele>
        <time>2021-10-12T16:18:42Z</time>
      </trkpt>
      <trkpt lat="39.036795" lon="-6.326731">
        <ele>300.687</ele>
        <time>2021-10-12T16:18:43Z</time>
      </trkpt>
      <trkpt lat="39.037269" lon="-6.326955">
        <ele>297.773</ele>
        <time>2021-10-12T16:18:45Z</time>
      </trkpt>
      <trkpt lat="39.037744" lon="-6.327179">
        <ele>295.072</ele>
        <time>2021-10-12T16:18:47Z</time>
      </trkpt>
      <trkpt lat="39.038208" lon="-6.327399">
        <ele>291.942</ele>
        <time>2021-10-12T16:18:49Z</time>
      </trkpt>
      <trkpt lat="39.038663" lon="-6.327598">
        <ele>290.733</ele>
        <time>2021-10-12T16:18:51Z</time>
      </trkpt>
      <trkpt lat="39.038878" lon="-6.327695">
        <ele>291.049</ele>
        <time>2021-10-12T16:18:52Z</time>
      </trkpt>
      <trkpt lat="39.039086" lon="-6.327790">
        <ele>291.002</ele>
        <time>2021-10-12T16:18:53Z</time>
      </trkpt>
      <trkpt lat="39.039479" lon="-6.327974">
        <ele>290.822</ele>
        <time>2021-10-12T16:18:55Z</time>
      </trkpt>
      <trkpt lat="39.039682" lon="-6.328074">
        <ele>289.108</ele>
        <time>2021-10-12T16:18:56Z</time>
      </trkpt>
      <trkpt lat="39.040074" lon="-6.328262">
        <ele>287.392</ele>
        <time>2021-10-12T16:18:58Z</time>
      </trkpt>
      <trkpt lat="39.040273" lon="-6.328350">
        <ele>287.970</ele>
        <time>2021-10-12T16:18:59Z</time>
      </trkpt>
      <trkpt lat="39.040653" lon="-6.328519">
        <ele>287.136</ele>
        <time>2021-10-12T16:19:01Z</time>
      </trkpt>
      <trkpt lat="39.040823" lon="-6.328594">
        <ele>286.269</ele>
        <time>2021-10-12T16:19:02Z</time>
      </trkpt>
      <trkpt lat="39.041076" lon="-6.328700">
        <ele>285.175</ele>
        <time>2021-10-12T16:19:04Z</time>
      </trkpt>
      <trkpt lat="39.041280" lon="-6.328787">
        <ele>284.424</ele>
        <time>2021-10-12T16:19:06Z</time>
      </trkpt>
      <trkpt lat="39.041379" lon="-6.328824">
        <ele>284.054</ele>
        <time>2021-10-12T16:19:07Z</time>
      </trkpt>
      <trkpt lat="39.041483" lon="-6.328854">
        <ele>283.755</ele>
        <time>2021-10-12T16:19:08Z</time>
      </trkpt>
      <trkpt lat="39.041598" lon="-6.328879">
        <ele>283.328</ele>
        <time>2021-10-12T16:19:09Z</time>
      </trkpt>
      <trkpt lat="39.041861" lon="-6.328920">
        <ele>282.289</ele>
        <time>2021-10-12T16:19:11Z</time>
      </trkpt>
      <trkpt lat="39.042172" lon="-6.328915">
        <ele>281.217</ele>
        <time>2021-10-12T16:19:13Z</time>
      </trkpt>
      <trkpt lat="39.042347" lon="-6.328907">
        <ele>279.708</ele>
        <time>2021-10-12T16:19:14Z</time>
      </trkpt>
      <trkpt lat="39.042740" lon="-6.328884">
        <ele>275.490</ele>
        <time>2021-10-12T16:19:16Z</time>
      </trkpt>
      <trkpt lat="39.042952" lon="-6.328859">
        <ele>273.338</ele>
        <time>2021-10-12T16:19:17Z</time>
      </trkpt>
      <trkpt lat="39.043159" lon="-6.328820">
        <ele>271.754</ele>
        <time>2021-10-12T16:19:18Z</time>
      </trkpt>
      <trkpt lat="39.043356" lon="-6.328767">
        <ele>270.337</ele>
        <time>2021-10-12T16:19:19Z</time>
      </trkpt>
      <trkpt lat="39.043547" lon="-6.328699">
        <ele>269.483</ele>
        <time>2021-10-12T16:19:20Z</time>
      </trkpt>
      <trkpt lat="39.043923" lon="-6.328537">
        <ele>265.362</ele>
        <time>2021-10-12T16:19:22Z</time>
      </trkpt>
      <trkpt lat="39.044121" lon="-6.328432">
        <ele>262.672</ele>
        <time>2021-10-12T16:19:23Z</time>
      </trkpt>
      <trkpt lat="39.044317" lon="-6.328316">
        <ele>261.443</ele>
        <time>2021-10-12T16:19:24Z</time>
      </trkpt>
      <trkpt lat="39.044512" lon="-6.328190">
        <ele>259.931</ele>
        <time>2021-10-12T16:19:25Z</time>
      </trkpt>
      <trkpt lat="39.044710" lon="-6.328058">
        <ele>258.161</ele>
        <time>2021-10-12T16:19:26Z</time>
      </trkpt>
      <trkpt lat="39.045068" lon="-6.327822">
        <ele>255.807</ele>
        <time>2021-10-12T16:19:28Z</time>
      </trkpt>
      <trkpt lat="39.045248" lon="-6.327700">
        <ele>255.408</ele>
        <time>2021-10-12T16:19:29Z</time>
      </trkpt>
      <trkpt lat="39.045620" lon="-6.327459">
        <ele>256.091</ele>
        <time>2021-10-12T16:19:31Z</time>
      </trkpt>
      <trkpt lat="39.045815" lon="-6.327333">
        <ele>256.069</ele>
        <time>2021-10-12T16:19:32Z</time>
      </trkpt>
      <trkpt lat="39.046196" lon="-6.327087">
        <ele>257.925</ele>
        <time>2021-10-12T16:19:34Z</time>
      </trkpt>
      <trkpt lat="39.046390" lon="-6.326962">
        <ele>260.988</ele>
        <time>2021-10-12T16:19:35Z</time>
      </trkpt>
      <trkpt lat="39.046768" lon="-6.326712">
        <ele>261.784</ele>
        <time>2021-10-12T16:19:37Z</time>
      </trkpt>
      <trkpt lat="39.046951" lon="-6.326588">
        <ele>262.393</ele>
        <time>2021-10-12T16:19:38Z</time>
      </trkpt>
      <trkpt lat="39.047131" lon="-6.326462">
        <ele>263.193</ele>
        <time>2021-10-12T16:19:39Z</time>
      </trkpt>
      <trkpt lat="39.047487" lon="-6.326191">
        <ele>262.894</ele>
        <time>2021-10-12T16:19:41Z</time>
      </trkpt>
      <trkpt lat="39.047837" lon="-6.325843">
        <ele>259.643</ele>
        <time>2021-10-12T16:19:43Z</time>
      </trkpt>
      <trkpt lat="39.048171" lon="-6.325441">
        <ele>261.164</ele>
        <time>2021-10-12T16:19:45Z</time>
      </trkpt>
      <trkpt lat="39.048329" lon="-6.325220">
        <ele>260.510</ele>
        <time>2021-10-12T16:19:46Z</time>
      </trkpt>
      <trkpt lat="39.048483" lon="-6.324992">
        <ele>260.408</ele>
        <time>2021-10-12T16:19:47Z</time>
      </trkpt>
      <trkpt lat="39.048795" lon="-6.324527">
        <ele>260.812</ele>
        <time>2021-10-12T16:19:49Z</time>
      </trkpt>
      <trkpt lat="39.048954" lon="-6.324290">
        <ele>259.670</ele>
        <time>2021-10-12T16:19:50Z</time>
      </trkpt>
      <trkpt lat="39.049113" lon="-6.324051">
        <ele>257.056</ele>
        <time>2021-10-12T16:19:51Z</time>
      </trkpt>
      <trkpt lat="39.049273" lon="-6.323810">
        <ele>255.939</ele>
        <time>2021-10-12T16:19:52Z</time>
      </trkpt>
      <trkpt lat="39.049433" lon="-6.323572">
        <ele>255.125</ele>
        <time>2021-10-12T16:19:53Z</time>
      </trkpt>
      <trkpt lat="39.049750" lon="-6.323100">
        <ele>254.044</ele>
        <time>2021-10-12T16:19:55Z</time>
      </trkpt>
      <trkpt lat="39.049909" lon="-6.322862">
        <ele>254.264</ele>
        <time>2021-10-12T16:19:56Z</time>
      </trkpt>
      <trkpt lat="39.050216" lon="-6.322402">
        <ele>252.535</ele>
        <time>2021-10-12T16:19:58Z</time>
      </trkpt>
      <trkpt lat="39.050376" lon="-6.322163">
        <ele>253.121</ele>
        <time>2021-10-12T16:19:59Z</time>
      </trkpt>
      <trkpt lat="39.050536" lon="-6.321923">
        <ele>254.141</ele>
        <time>2021-10-12T16:20:00Z</time>
      </trkpt>
      <trkpt lat="39.050696" lon="-6.321685">
        <ele>254.405</ele>
        <time>2021-10-12T16:20:01Z</time>
      </trkpt>
      <trkpt lat="39.050864" lon="-6.321452">
        <ele>256.108</ele>
        <time>2021-10-12T16:20:02Z</time>
      </trkpt>
      <trkpt lat="39.051222" lon="-6.321094">
        <ele>256.930</ele>
        <time>2021-10-12T16:20:04Z</time>
      </trkpt>
      <trkpt lat="39.051424" lon="-6.320963">
        <ele>256.048</ele>
        <time>2021-10-12T16:20:05Z</time>
      </trkpt>
      <trkpt lat="39.051860" lon="-6.320802">
        <ele>256.524</ele>
        <time>2021-10-12T16:20:07Z</time>
      </trkpt>
      <trkpt lat="39.052320" lon="-6.320778">
        <ele>255.097</ele>
        <time>2021-10-12T16:20:09Z</time>
      </trkpt>
      <trkpt lat="39.052551" lon="-6.320825">
        <ele>254.033</ele>
        <time>2021-10-12T16:20:10Z</time>
      </trkpt>
      <trkpt lat="39.052781" lon="-6.320910">
        <ele>253.732</ele>
        <time>2021-10-12T16:20:11Z</time>
      </trkpt>
      <trkpt lat="39.053237" lon="-6.321114">
        <ele>254.052</ele>
        <time>2021-10-12T16:20:13Z</time>
      </trkpt>
      <trkpt lat="39.053679" lon="-6.321314">
        <ele>253.323</ele>
        <time>2021-10-12T16:20:15Z</time>
      </trkpt>
      <trkpt lat="39.054106" lon="-6.321503">
        <ele>252.632</ele>
        <time>2021-10-12T16:20:17Z</time>
      </trkpt>
      <trkpt lat="39.054548" lon="-6.321678">
        <ele>251.992</ele>
        <time>2021-10-12T16:20:19Z</time>
      </trkpt>
      <trkpt lat="39.055031" lon="-6.321726">
        <ele>252.011</ele>
        <time>2021-10-12T16:20:21Z</time>
      </trkpt>
      <trkpt lat="39.055272" lon="-6.321677">
        <ele>252.008</ele>
        <time>2021-10-12T16:20:22Z</time>
      </trkpt>
      <trkpt lat="39.055706" lon="-6.321454">
        <ele>254.631</ele>
        <time>2021-10-12T16:20:24Z</time>
      </trkpt>
      <trkpt lat="39.055885" lon="-6.321279">
        <ele>256.099</ele>
        <time>2021-10-12T16:20:25Z</time>
      </trkpt>
      <trkpt lat="39.056050" lon="-6.321071">
        <ele>256.565</ele>
        <time>2021-10-12T16:20:26Z</time>
      </trkpt>
      <trkpt lat="39.056317" lon="-6.320606">
        <ele>257.028</ele>
        <time>2021-10-12T16:20:28Z</time>
      </trkpt>
      <trkpt lat="39.056445" lon="-6.320351">
        <ele>257.524</ele>
        <time>2021-10-12T16:20:29Z</time>
      </trkpt>
      <trkpt lat="39.056706" lon="-6.319840">
        <ele>255.933</ele>
        <time>2021-10-12T16:20:31Z</time>
      </trkpt>
      <trkpt lat="39.056848" lon="-6.319585">
        <ele>255.273</ele>
        <time>2021-10-12T16:20:32Z</time>
      </trkpt>
      <trkpt lat="39.057131" lon="-6.319100">
        <ele>255.524</ele>
        <time>2021-10-12T16:20:34Z</time>
      </trkpt>
      <trkpt lat="39.057288" lon="-6.318868">
        <ele>255.554</ele>
        <time>2021-10-12T16:20:35Z</time>
      </trkpt>
      <trkpt lat="39.057460" lon="-6.318663">
        <ele>256.056</ele>
        <time>2021-10-12T16:20:36Z</time>
      </trkpt>
      <trkpt lat="39.057864" lon="-6.318340">
        <ele>257.311</ele>
        <time>2021-10-12T16:20:38Z</time>
      </trkpt>
      <trkpt lat="39.058097" lon="-6.318222">
        <ele>258.308</ele>
        <time>2021-10-12T16:20:39Z</time>
      </trkpt>
      <trkpt lat="39.058593" lon="-6.318066">
        <ele>260.973</ele>
        <time>2021-10-12T16:20:41Z</time>
      </trkpt>
      <trkpt lat="39.059091" lon="-6.317926">
        <ele>263.371</ele>
        <time>2021-10-12T16:20:43Z</time>
      </trkpt>
      <trkpt lat="39.059343" lon="-6.317855">
        <ele>265.747</ele>
        <time>2021-10-12T16:20:44Z</time>
      </trkpt>
      <trkpt lat="39.059852" lon="-6.317696">
        <ele>268.860</ele>
        <time>2021-10-12T16:20:46Z</time>
      </trkpt>
      <trkpt lat="39.060112" lon="-6.317614">
        <ele>270.036</ele>
        <time>2021-10-12T16:20:47Z</time>
      </trkpt>
      <trkpt lat="39.060627" lon="-6.317439">
        <ele>272.125</ele>
        <time>2021-10-12T16:20:49Z</time>
      </trkpt>
      <trkpt lat="39.060885" lon="-6.317340">
        <ele>272.795</ele>
        <time>2021-10-12T16:20:50Z</time>
      </trkpt>
      <trkpt lat="39.061139" lon="-6.317227">
        <ele>274.116</ele>
        <time>2021-10-12T16:20:51Z</time>
      </trkpt>
      <trkpt lat="39.061644" lon="-6.316994">
        <ele>276.518</ele>
        <time>2021-10-12T16:20:53Z</time>
      </trkpt>
      <trkpt lat="39.061899" lon="-6.316869">
        <ele>276.498</ele>
        <time>2021-10-12T16:20:54Z</time>
      </trkpt>
      <trkpt lat="39.062153" lon="-6.316737">
        <ele>276.017</ele>
        <time>2021-10-12T16:20:55Z</time>
      </trkpt>
      <trkpt lat="39.062409" lon="-6.316591">
        <ele>276.508</ele>
        <time>2021-10-12T16:20:56Z</time>
      </trkpt>
      <trkpt lat="39.062900" lon="-6.316291">
        <ele>279.819</ele>
        <time>2021-10-12T16:20:58Z</time>
      </trkpt>
      <trkpt lat="39.063146" lon="-6.316131">
        <ele>280.927</ele>
        <time>2021-10-12T16:20:59Z</time>
      </trkpt>
      <trkpt lat="39.063386" lon="-6.315967">
        <ele>281.343</ele>
        <time>2021-10-12T16:21:00Z</time>
      </trkpt>
      <trkpt lat="39.063618" lon="-6.315796">
        <ele>281.256</ele>
        <time>2021-10-12T16:21:01Z</time>
      </trkpt>
      <trkpt lat="39.063854" lon="-6.315615">
        <ele>281.742</ele>
        <time>2021-10-12T16:21:02Z</time>
      </trkpt>
      <trkpt lat="39.064309" lon="-6.315253">
        <ele>285.081</ele>
        <time>2021-10-12T16:21:04Z</time>
      </trkpt>
      <trkpt lat="39.064775" lon="-6.314886">
        <ele>287.481</ele>
        <time>2021-10-12T16:21:06Z</time>
      </trkpt>
      <trkpt lat="39.065248" lon="-6.314536">
        <ele>288.992</ele>
        <time>2021-10-12T16:21:08Z</time>
      </trkpt>
      <trkpt lat="39.065487" lon="-6.314362">
        <ele>289.588</ele>
        <time>2021-10-12T16:21:09Z</time>
      </trkpt>
      <trkpt lat="39.065970" lon="-6.314039">
        <ele>290.724</ele>
        <time>2021-10-12T16:21:11Z</time>
      </trkpt>
      <trkpt lat="39.066472" lon="-6.313748">
        <ele>295.026</ele>
        <time>2021-10-12T16:21:13Z</time>
      </trkpt>
      <trkpt lat="39.066728" lon="-6.313609">
        <ele>296.408</ele>
        <time>2021-10-12T16:21:14Z</time>
      </trkpt>
      <trkpt lat="39.067247" lon="-6.313351">
        <ele>300.286</ele>
        <time>2021-10-12T16:21:16Z</time>
      </trkpt>
      <trkpt lat="39.067761" lon="-6.313121">
        <ele>301.214</ele>
        <time>2021-10-12T16:21:18Z</time>
      </trkpt>
      <trkpt lat="39.068267" lon="-6.312892">
        <ele>305.530</ele>
        <time>2021-10-12T16:21:20Z</time>
      </trkpt>
      <trkpt lat="39.068518" lon="-6.312779">
        <ele>307.343</ele>
        <time>2021-10-12T16:21:21Z</time>
      </trkpt>
      <trkpt lat="39.069018" lon="-6.312559">
        <ele>310.129</ele>
        <time>2021-10-12T16:21:23Z</time>
      </trkpt>
      <trkpt lat="39.069502" lon="-6.312409">
        <ele>312.758</ele>
        <time>2021-10-12T16:21:25Z</time>
      </trkpt>
      <trkpt lat="39.069754" lon="-6.312387">
        <ele>313.998</ele>
        <time>2021-10-12T16:21:26Z</time>
      </trkpt>
      <trkpt lat="39.070238" lon="-6.312474">
        <ele>317.489</ele>
        <time>2021-10-12T16:21:28Z</time>
      </trkpt>
      <trkpt lat="39.070476" lon="-6.312571">
        <ele>319.032</ele>
        <time>2021-10-12T16:21:29Z</time>
      </trkpt>
      <trkpt lat="39.070704" lon="-6.312681">
        <ele>319.892</ele>
        <time>2021-10-12T16:21:30Z</time>
      </trkpt>
      <trkpt lat="39.071161" lon="-6.312855">
        <ele>323.211</ele>
        <time>2021-10-12T16:21:32Z</time>
      </trkpt>
      <trkpt lat="39.071623" lon="-6.312891">
        <ele>324.508</ele>
        <time>2021-10-12T16:21:34Z</time>
      </trkpt>
      <trkpt lat="39.071865" lon="-6.312852">
        <ele>326.041</ele>
        <time>2021-10-12T16:21:35Z</time>
      </trkpt>
      <trkpt lat="39.072346" lon="-6.312704">
        <ele>329.389</ele>
        <time>2021-10-12T16:21:37Z</time>
      </trkpt>
      <trkpt lat="39.072583" lon="-6.312601">
        <ele>331.515</ele>
        <time>2021-10-12T16:21:38Z</time>
      </trkpt>
      <trkpt lat="39.073029" lon="-6.312325">
        <ele>334.298</ele>
        <time>2021-10-12T16:21:40Z</time>
      </trkpt>
      <trkpt lat="39.073387" lon="-6.311911">
        <ele>336.214</ele>
        <time>2021-10-12T16:21:42Z</time>
      </trkpt>
      <trkpt lat="39.073602" lon="-6.311361">
        <ele>340.753</ele>
        <time>2021-10-12T16:21:44Z</time>
      </trkpt>
      <trkpt lat="39.073685" lon="-6.310752">
        <ele>339.453</ele>
        <time>2021-10-12T16:21:46Z</time>
      </trkpt>
      <trkpt lat="39.073683" lon="-6.310448">
        <ele>339.784</ele>
        <time>2021-10-12T16:21:47Z</time>
      </trkpt>
      <trkpt lat="39.073632" lon="-6.309861">
        <ele>339.368</ele>
        <time>2021-10-12T16:21:49Z</time>
      </trkpt>
      <trkpt lat="39.073603" lon="-6.309286">
        <ele>341.142</ele>
        <time>2021-10-12T16:21:51Z</time>
      </trkpt>
      <trkpt lat="39.073677" lon="-6.308700">
        <ele>345.426</ele>
        <time>2021-10-12T16:21:53Z</time>
      </trkpt>
      <trkpt lat="39.073875" lon="-6.308152">
        <ele>346.308</ele>
        <time>2021-10-12T16:21:55Z</time>
      </trkpt>
      <trkpt lat="39.074026" lon="-6.307893">
        <ele>347.134</ele>
        <time>2021-10-12T16:21:56Z</time>
      </trkpt>
      <trkpt lat="39.074377" lon="-6.307443">
        <ele>347.172</ele>
        <time>2021-10-12T16:21:58Z</time>
      </trkpt>
      <trkpt lat="39.074568" lon="-6.307212">
        <ele>346.668</ele>
        <time>2021-10-12T16:21:59Z</time>
      </trkpt>
      <trkpt lat="39.074955" lon="-6.306736">
        <ele>346.661</ele>
        <time>2021-10-12T16:22:01Z</time>
      </trkpt>
      <trkpt lat="39.075158" lon="-6.306483">
        <ele>347.097</ele>
        <time>2021-10-12T16:22:02Z</time>
      </trkpt>
      <trkpt lat="39.075546" lon="-6.305990">
        <ele>347.456</ele>
        <time>2021-10-12T16:22:04Z</time>
      </trkpt>
      <trkpt lat="39.075963" lon="-6.305470">
        <ele>348.816</ele>
        <time>2021-10-12T16:22:06Z</time>
      </trkpt>
      <trkpt lat="39.076397" lon="-6.304935">
        <ele>349.077</ele>
        <time>2021-10-12T16:22:08Z</time>
      </trkpt>
      <trkpt lat="39.076826" lon="-6.304393">
        <ele>348.161</ele>
        <time>2021-10-12T16:22:10Z</time>
      </trkpt>
      <trkpt lat="39.077030" lon="-6.304138">
        <ele>348.121</ele>
        <time>2021-10-12T16:22:11Z</time>
      </trkpt>
      <trkpt lat="39.077230" lon="-6.303895">
        <ele>349.013</ele>
        <time>2021-10-12T16:22:12Z</time>
      </trkpt>
      <trkpt lat="39.077619" lon="-6.303418">
        <ele>350.508</ele>
        <time>2021-10-12T16:22:14Z</time>
      </trkpt>
      <trkpt lat="39.078003" lon="-6.302937">
        <ele>351.264</ele>
        <time>2021-10-12T16:22:16Z</time>
      </trkpt>
      <trkpt lat="39.078193" lon="-6.302696">
        <ele>351.022</ele>
        <time>2021-10-12T16:22:17Z</time>
      </trkpt>
      <trkpt lat="39.078384" lon="-6.302453">
        <ele>351.088</ele>
        <time>2021-10-12T16:22:18Z</time>
      </trkpt>
      <trkpt lat="39.078770" lon="-6.301965">
        <ele>350.871</ele>
        <time>2021-10-12T16:22:20Z</time>
      </trkpt>
      <trkpt lat="39.078966" lon="-6.301718">
        <ele>349.577</ele>
        <time>2021-10-12T16:22:21Z</time>
      </trkpt>
      <trkpt lat="39.079352" lon="-6.301220">
        <ele>349.346</ele>
        <time>2021-10-12T16:22:23Z</time>
      </trkpt>
      <trkpt lat="39.079550" lon="-6.300971">
        <ele>350.386</ele>
        <time>2021-10-12T16:22:24Z</time>
      </trkpt>
      <trkpt lat="39.079751" lon="-6.300725">
        <ele>350.127</ele>
        <time>2021-10-12T16:22:25Z</time>
      </trkpt>
      <trkpt lat="39.079956" lon="-6.300466">
        <ele>350.018</ele>
        <time>2021-10-12T16:22:26Z</time>
      </trkpt>
      <trkpt lat="39.080352" lon="-6.299969">
        <ele>350.998</ele>
        <time>2021-10-12T16:22:28Z</time>
      </trkpt>
      <trkpt lat="39.080557" lon="-6.299714">
        <ele>350.017</ele>
        <time>2021-10-12T16:22:29Z</time>
      </trkpt>
      <trkpt lat="39.080971" lon="-6.299205">
        <ele>351.508</ele>
        <time>2021-10-12T16:22:31Z</time>
      </trkpt>
      <trkpt lat="39.081183" lon="-6.298943">
        <ele>352.399</ele>
        <time>2021-10-12T16:22:32Z</time>
      </trkpt>
      <trkpt lat="39.081593" lon="-6.298426">
        <ele>352.757</ele>
        <time>2021-10-12T16:22:34Z</time>
      </trkpt>
      <trkpt lat="39.082007" lon="-6.297914">
        <ele>351.673</ele>
        <time>2021-10-12T16:22:36Z</time>
      </trkpt>
      <trkpt lat="39.082411" lon="-6.297413">
        <ele>351.796</ele>
        <time>2021-10-12T16:22:38Z</time>
      </trkpt>
      <trkpt lat="39.082604" lon="-6.297167">
        <ele>351.482</ele>
        <time>2021-10-12T16:22:39Z</time>
      </trkpt>
      <trkpt lat="39.082795" lon="-6.296924">
        <ele>351.131</ele>
        <time>2021-10-12T16:22:40Z</time>
      </trkpt>
      <trkpt lat="39.083172" lon="-6.296445">
        <ele>352.041</ele>
        <time>2021-10-12T16:22:42Z</time>
      </trkpt>
      <trkpt lat="39.083548" lon="-6.295979">
        <ele>352.882</ele>
        <time>2021-10-12T16:22:44Z</time>
      </trkpt>
      <trkpt lat="39.083734" lon="-6.295742">
        <ele>354.358</ele>
        <time>2021-10-12T16:22:45Z</time>
      </trkpt>
      <trkpt lat="39.083923" lon="-6.295502">
        <ele>354.952</ele>
        <time>2021-10-12T16:22:46Z</time>
      </trkpt>
      <trkpt lat="39.084115" lon="-6.295258">
        <ele>354.117</ele>
        <time>2021-10-12T16:22:47Z</time>
      </trkpt>
      <trkpt lat="39.084503" lon="-6.294768">
        <ele>353.408</ele>
        <time>2021-10-12T16:22:49Z</time>
      </trkpt>
      <trkpt lat="39.084902" lon="-6.294275">
        <ele>356.033</ele>
        <time>2021-10-12T16:22:51Z</time>
      </trkpt>
      <trkpt lat="39.085106" lon="-6.294027">
        <ele>355.091</ele>
        <time>2021-10-12T16:22:52Z</time>
      </trkpt>
      <trkpt lat="39.085308" lon="-6.293780">
        <ele>354.367</ele>
        <time>2021-10-12T16:22:53Z</time>
      </trkpt>
      <trkpt lat="39.085707" lon="-6.293274">
        <ele>355.510</ele>
        <time>2021-10-12T16:22:55Z</time>
      </trkpt>
      <trkpt lat="39.085917" lon="-6.293007">
        <ele>355.156</ele>
        <time>2021-10-12T16:22:56Z</time>
      </trkpt>
      <trkpt lat="39.086309" lon="-6.292512">
        <ele>356.015</ele>
        <time>2021-10-12T16:22:58Z</time>
      </trkpt>
      <trkpt lat="39.086506" lon="-6.292264">
        <ele>357.385</ele>
        <time>2021-10-12T16:22:59Z</time>
      </trkpt>
      <trkpt lat="39.086870" lon="-6.291806">
        <ele>355.916</ele>
        <time>2021-10-12T16:23:01Z</time>
      </trkpt>
      <trkpt lat="39.087048" lon="-6.291591">
        <ele>354.656</ele>
        <time>2021-10-12T16:23:02Z</time>
      </trkpt>
      <trkpt lat="39.087400" lon="-6.291192">
        <ele>354.059</ele>
        <time>2021-10-12T16:23:04Z</time>
      </trkpt>
      <trkpt lat="39.087798" lon="-6.290823">
        <ele>356.114</ele>
        <time>2021-10-12T16:23:06Z</time>
      </trkpt>
      <trkpt lat="39.088017" lon="-6.290653">
        <ele>357.708</ele>
        <time>2021-10-12T16:23:07Z</time>
      </trkpt>
      <trkpt lat="39.088474" lon="-6.290339">
        <ele>357.813</ele>
        <time>2021-10-12T16:23:09Z</time>
      </trkpt>
      <trkpt lat="39.088709" lon="-6.290180">
        <ele>358.561</ele>
        <time>2021-10-12T16:23:10Z</time>
      </trkpt>
      <trkpt lat="39.089187" lon="-6.289865">
        <ele>360.547</ele>
        <time>2021-10-12T16:23:12Z</time>
      </trkpt>
      <trkpt lat="39.089676" lon="-6.289543">
        <ele>360.260</ele>
        <time>2021-10-12T16:23:14Z</time>
      </trkpt>
      <trkpt lat="39.090168" lon="-6.289227">
        <ele>360.876</ele>
        <time>2021-10-12T16:23:16Z</time>
      </trkpt>
      <trkpt lat="39.090416" lon="-6.289061">
        <ele>361.025</ele>
        <time>2021-10-12T16:23:17Z</time>
      </trkpt>
      <trkpt lat="39.090913" lon="-6.288727">
        <ele>360.475</ele>
        <time>2021-10-12T16:23:19Z</time>
      </trkpt>
      <trkpt lat="39.091411" lon="-6.288394">
        <ele>360.316</ele>
        <time>2021-10-12T16:23:21Z</time>
      </trkpt>
      <trkpt lat="39.091903" lon="-6.288073">
        <ele>361.968</ele>
        <time>2021-10-12T16:23:23Z</time>
      </trkpt>
      <trkpt lat="39.092391" lon="-6.287752">
        <ele>362.042</ele>
        <time>2021-10-12T16:23:25Z</time>
      </trkpt>
      <trkpt lat="39.092637" lon="-6.287587">
        <ele>362.226</ele>
        <time>2021-10-12T16:23:26Z</time>
      </trkpt>
      <trkpt lat="39.093115" lon="-6.287270">
        <ele>362.708</ele>
        <time>2021-10-12T16:23:28Z</time>
      </trkpt>
      <trkpt lat="39.093357" lon="-6.287109">
        <ele>362.734</ele>
        <time>2021-10-12T16:23:29Z</time>
      </trkpt>
      <trkpt lat="39.093836" lon="-6.286792">
        <ele>361.852</ele>
        <time>2021-10-12T16:23:31Z</time>
      </trkpt>
      <trkpt lat="39.094077" lon="-6.286633">
        <ele>362.198</ele>
        <time>2021-10-12T16:23:32Z</time>
      </trkpt>
      <trkpt lat="39.094513" lon="-6.286351">
        <ele>363.151</ele>
        <time>2021-10-12T16:23:34Z</time>
      </trkpt>
      <trkpt lat="39.094732" lon="-6.286226">
        <ele>363.587</ele>
        <time>2021-10-12T16:23:35Z</time>
      </trkpt>
      <trkpt lat="39.095193" lon="-6.286035">
        <ele>361.876</ele>
        <time>2021-10-12T16:23:37Z</time>
      </trkpt>
      <trkpt lat="39.095443" lon="-6.285976">
        <ele>362.126</ele>
        <time>2021-10-12T16:23:38Z</time>
      </trkpt>
      <trkpt lat="39.095963" lon="-6.285934">
        <ele>364.477</ele>
        <time>2021-10-12T16:23:40Z</time>
      </trkpt>
      <trkpt lat="39.096231" lon="-6.285942">
        <ele>364.275</ele>
        <time>2021-10-12T16:23:41Z</time>
      </trkpt>
      <trkpt lat="39.096502" lon="-6.285960">
        <ele>364.428</ele>
        <time>2021-10-12T16:23:42Z</time>
      </trkpt>
      <trkpt lat="39.097045" lon="-6.285989">
        <ele>367.320</ele>
        <time>2021-10-12T16:23:44Z</time>
      </trkpt>
      <trkpt lat="39.097318" lon="-6.285988">
        <ele>367.608</ele>
        <time>2021-10-12T16:23:45Z</time>
      </trkpt>
      <trkpt lat="39.097590" lon="-6.285960">
        <ele>367.885</ele>
        <time>2021-10-12T16:23:46Z</time>
      </trkpt>
      <trkpt lat="39.097855" lon="-6.285906">
        <ele>368.313</ele>
        <time>2021-10-12T16:23:47Z</time>
      </trkpt>
      <trkpt lat="39.098349" lon="-6.285732">
        <ele>368.789</ele>
        <time>2021-10-12T16:23:49Z</time>
      </trkpt>
      <trkpt lat="39.098586" lon="-6.285620">
        <ele>369.812</ele>
        <time>2021-10-12T16:23:50Z</time>
      </trkpt>
      <trkpt lat="39.098818" lon="-6.285492">
        <ele>370.228</ele>
        <time>2021-10-12T16:23:51Z</time>
      </trkpt>
      <trkpt lat="39.099045" lon="-6.285349">
        <ele>370.377</ele>
        <time>2021-10-12T16:23:52Z</time>
      </trkpt>
      <trkpt lat="39.099272" lon="-6.285198">
        <ele>370.337</ele>
        <time>2021-10-12T16:23:53Z</time>
      </trkpt>
      <trkpt lat="39.099741" lon="-6.284901">
        <ele>371.568</ele>
        <time>2021-10-12T16:23:55Z</time>
      </trkpt>
      <trkpt lat="39.099993" lon="-6.284745">
        <ele>373.073</ele>
        <time>2021-10-12T16:23:56Z</time>
      </trkpt>
      <trkpt lat="39.100488" lon="-6.284439">
        <ele>373.085</ele>
        <time>2021-10-12T16:23:58Z</time>
      </trkpt>
      <trkpt lat="39.101004" lon="-6.284123">
        <ele>372.913</ele>
        <time>2021-10-12T16:24:00Z</time>
      </trkpt>
      <trkpt lat="39.101263" lon="-6.283964">
        <ele>372.508</ele>
        <time>2021-10-12T16:24:01Z</time>
      </trkpt>
      <trkpt lat="39.101528" lon="-6.283801">
        <ele>372.515</ele>
        <time>2021-10-12T16:24:02Z</time>
      </trkpt>
      <trkpt lat="39.102035" lon="-6.283489">
        <ele>373.563</ele>
        <time>2021-10-12T16:24:04Z</time>
      </trkpt>
      <trkpt lat="39.102294" lon="-6.283330">
        <ele>372.799</ele>
        <time>2021-10-12T16:24:05Z</time>
      </trkpt>
      <trkpt lat="39.102552" lon="-6.283172">
        <ele>372.712</ele>
        <time>2021-10-12T16:24:06Z</time>
      </trkpt>
      <trkpt lat="39.102807" lon="-6.283016">
        <ele>373.278</ele>
        <time>2021-10-12T16:24:07Z</time>
      </trkpt>
      <trkpt lat="39.103061" lon="-6.282860">
        <ele>374.717</ele>
        <time>2021-10-12T16:24:08Z</time>
      </trkpt>
      <trkpt lat="39.103558" lon="-6.282548">
        <ele>375.787</ele>
        <time>2021-10-12T16:24:10Z</time>
      </trkpt>
      <trkpt lat="39.103799" lon="-6.282395">
        <ele>376.098</ele>
        <time>2021-10-12T16:24:11Z</time>
      </trkpt>
      <trkpt lat="39.104272" lon="-6.282104">
        <ele>375.438</ele>
        <time>2021-10-12T16:24:13Z</time>
      </trkpt>
      <trkpt lat="39.104508" lon="-6.281957">
        <ele>375.270</ele>
        <time>2021-10-12T16:24:14Z</time>
      </trkpt>
      <trkpt lat="39.104971" lon="-6.281669">
        <ele>376.917</ele>
        <time>2021-10-12T16:24:16Z</time>
      </trkpt>
      <trkpt lat="39.105442" lon="-6.281395">
        <ele>376.008</ele>
        <time>2021-10-12T16:24:18Z</time>
      </trkpt>
      <trkpt lat="39.105951" lon="-6.281205">
        <ele>379.071</ele>
        <time>2021-10-12T16:24:20Z</time>
      </trkpt>
      <trkpt lat="39.106220" lon="-6.281136">
        <ele>379.659</ele>
        <time>2021-10-12T16:24:21Z</time>
      </trkpt>
      <trkpt lat="39.106495" lon="-6.281075">
        <ele>378.695</ele>
        <time>2021-10-12T16:24:22Z</time>
      </trkpt>
      <trkpt lat="39.107060" lon="-6.280944">
        <ele>377.878</ele>
        <time>2021-10-12T16:24:24Z</time>
      </trkpt>
      <trkpt lat="39.107348" lon="-6.280875">
        <ele>378.524</ele>
        <time>2021-10-12T16:24:25Z</time>
      </trkpt>
      <trkpt lat="39.107649" lon="-6.280802">
        <ele>379.033</ele>
        <time>2021-10-12T16:24:26Z</time>
      </trkpt>
      <trkpt lat="39.108229" lon="-6.280661">
        <ele>379.293</ele>
        <time>2021-10-12T16:24:28Z</time>
      </trkpt>
      <trkpt lat="39.108526" lon="-6.280588">
        <ele>379.814</ele>
        <time>2021-10-12T16:24:29Z</time>
      </trkpt>
      <trkpt lat="39.108823" lon="-6.280516">
        <ele>380.787</ele>
        <time>2021-10-12T16:24:30Z</time>
      </trkpt>
      <trkpt lat="39.109424" lon="-6.280370">
        <ele>380.942</ele>
        <time>2021-10-12T16:24:32Z</time>
      </trkpt>
      <trkpt lat="39.110003" lon="-6.280231">
        <ele>382.026</ele>
        <time>2021-10-12T16:24:34Z</time>
      </trkpt>
      <trkpt lat="39.110587" lon="-6.280092">
        <ele>381.108</ele>
        <time>2021-10-12T16:24:36Z</time>
      </trkpt>
      <trkpt lat="39.111162" lon="-6.279955">
        <ele>383.586</ele>
        <time>2021-10-12T16:24:38Z</time>
      </trkpt>
      <trkpt lat="39.111448" lon="-6.279887">
        <ele>385.214</ele>
        <time>2021-10-12T16:24:39Z</time>
      </trkpt>
      <trkpt lat="39.111730" lon="-6.279818">
        <ele>385.890</ele>
        <time>2021-10-12T16:24:40Z</time>
      </trkpt>
      <trkpt lat="39.112287" lon="-6.279673">
        <ele>384.853</ele>
        <time>2021-10-12T16:24:42Z</time>
      </trkpt>
      <trkpt lat="39.112563" lon="-6.279607">
        <ele>384.749</ele>
        <time>2021-10-12T16:24:43Z</time>
      </trkpt>
      <trkpt lat="39.113106" lon="-6.279472">
        <ele>386.248</ele>
        <time>2021-10-12T16:24:45Z</time>
      </trkpt>
      <trkpt lat="39.113642" lon="-6.279342">
        <ele>387.388</ele>
        <time>2021-10-12T16:24:47Z</time>
      </trkpt>
      <trkpt lat="39.114170" lon="-6.279207">
        <ele>387.039</ele>
        <time>2021-10-12T16:24:49Z</time>
      </trkpt>
      <trkpt lat="39.114432" lon="-6.279140">
        <ele>388.031</ele>
        <time>2021-10-12T16:24:50Z</time>
      </trkpt>
      <trkpt lat="39.114951" lon="-6.279018">
        <ele>389.861</ele>
        <time>2021-10-12T16:24:52Z</time>
      </trkpt>
      <trkpt lat="39.115217" lon="-6.278960">
        <ele>390.207</ele>
        <time>2021-10-12T16:24:53Z</time>
      </trkpt>
      <trkpt lat="39.115758" lon="-6.278831">
        <ele>390.108</ele>
        <time>2021-10-12T16:24:55Z</time>
      </trkpt>
      <trkpt lat="39.116038" lon="-6.278763">
        <ele>390.451</ele>
        <time>2021-10-12T16:24:56Z</time>
      </trkpt>
      <trkpt lat="39.116580" lon="-6.278628">
        <ele>391.739</ele>
        <time>2021-10-12T16:24:58Z</time>
      </trkpt>
      <trkpt lat="39.116857" lon="-6.278561">
        <ele>391.865</ele>
        <time>2021-10-12T16:24:59Z</time>
      </trkpt>
      <trkpt lat="39.117407" lon="-6.278427">
        <ele>392.458</ele>
        <time>2021-10-12T16:25:01Z</time>
      </trkpt>
      <trkpt lat="39.117687" lon="-6.278361">
        <ele>393.784</ele>
        <time>2021-10-12T16:25:02Z</time>
      </trkpt>
      <trkpt lat="39.118220" lon="-6.278236">
        <ele>393.183</ele>
        <time>2021-10-12T16:25:04Z</time>
      </trkpt>
      <trkpt lat="39.118773" lon="-6.278106">
        <ele>394.223</ele>
        <time>2021-10-12T16:25:06Z</time>
      </trkpt>
      <trkpt lat="39.119327" lon="-6.277975">
        <ele>395.364</ele>
        <time>2021-10-12T16:25:08Z</time>
      </trkpt>
      <trkpt lat="39.119616" lon="-6.277908">
        <ele>395.058</ele>
        <time>2021-10-12T16:25:09Z</time>
      </trkpt>
      <trkpt lat="39.119897" lon="-6.277843">
        <ele>395.052</ele>
        <time>2021-10-12T16:25:10Z</time>
      </trkpt>
      <trkpt lat="39.120176" lon="-6.277778">
        <ele>395.617</ele>
        <time>2021-10-12T16:25:11Z</time>
      </trkpt>
      <trkpt lat="39.120730" lon="-6.277645">
        <ele>399.108</ele>
        <time>2021-10-12T16:25:13Z</time>
      </trkpt>
      <trkpt lat="39.121282" lon="-6.277511">
        <ele>400.073</ele>
        <time>2021-10-12T16:25:15Z</time>
      </trkpt>
      <trkpt lat="39.121558" lon="-6.277443">
        <ele>399.841</ele>
        <time>2021-10-12T16:25:16Z</time>
      </trkpt>
      <trkpt lat="39.121833" lon="-6.277375">
        <ele>399.887</ele>
        <time>2021-10-12T16:25:17Z</time>
      </trkpt>
      <trkpt lat="39.122380" lon="-6.277232">
        <ele>400.650</ele>
        <time>2021-10-12T16:25:19Z</time>
      </trkpt>
      <trkpt lat="39.122923" lon="-6.277099">
        <ele>401.496</ele>
        <time>2021-10-12T16:25:21Z</time>
      </trkpt>
      <trkpt lat="39.123198" lon="-6.277033">
        <ele>401.785</ele>
        <time>2021-10-12T16:25:22Z</time>
      </trkpt>
      <trkpt lat="39.123469" lon="-6.276969">
        <ele>402.015</ele>
        <time>2021-10-12T16:25:23Z</time>
      </trkpt>
      <trkpt lat="39.124008" lon="-6.276843">
        <ele>402.626</ele>
        <time>2021-10-12T16:25:25Z</time>
      </trkpt>
      <trkpt lat="39.124285" lon="-6.276778">
        <ele>403.054</ele>
        <time>2021-10-12T16:25:26Z</time>
      </trkpt>
      <trkpt lat="39.124816" lon="-6.276655">
        <ele>403.056</ele>
        <time>2021-10-12T16:25:28Z</time>
      </trkpt>
      <trkpt lat="39.125087" lon="-6.276591">
        <ele>403.511</ele>
        <time>2021-10-12T16:25:29Z</time>
      </trkpt>
      <trkpt lat="39.125358" lon="-6.276526">
        <ele>404.308</ele>
        <time>2021-10-12T16:25:30Z</time>
      </trkpt>
      <trkpt lat="39.125630" lon="-6.276461">
        <ele>405.153</ele>
        <time>2021-10-12T16:25:31Z</time>
      </trkpt>
      <trkpt lat="39.125908" lon="-6.276394">
        <ele>405.331</ele>
        <time>2021-10-12T16:25:32Z</time>
      </trkpt>
      <trkpt lat="39.126442" lon="-6.276265">
        <ele>408.327</ele>
        <time>2021-10-12T16:25:34Z</time>
      </trkpt>
      <trkpt lat="39.126712" lon="-6.276198">
        <ele>409.750</ele>
        <time>2021-10-12T16:25:35Z</time>
      </trkpt>
      <trkpt lat="39.127238" lon="-6.276068">
        <ele>409.126</ele>
        <time>2021-10-12T16:25:37Z</time>
      </trkpt>
      <trkpt lat="39.127752" lon="-6.275939">
        <ele>409.085</ele>
        <time>2021-10-12T16:25:39Z</time>
      </trkpt>
      <trkpt lat="39.128266" lon="-6.275818">
        <ele>410.075</ele>
        <time>2021-10-12T16:25:41Z</time>
      </trkpt>
      <trkpt lat="39.128522" lon="-6.275758">
        <ele>409.736</ele>
        <time>2021-10-12T16:25:42Z</time>
      </trkpt>
      <trkpt lat="39.129033" lon="-6.275636">
        <ele>412.088</ele>
        <time>2021-10-12T16:25:44Z</time>
      </trkpt>
      <trkpt lat="39.129545" lon="-6.275513">
        <ele>412.324</ele>
        <time>2021-10-12T16:25:46Z</time>
      </trkpt>
      <trkpt lat="39.129805" lon="-6.275450">
        <ele>413.026</ele>
        <time>2021-10-12T16:25:47Z</time>
      </trkpt>
      <trkpt lat="39.130063" lon="-6.275388">
        <ele>414.208</ele>
        <time>2021-10-12T16:25:48Z</time>
      </trkpt>
      <trkpt lat="39.130578" lon="-6.275263">
        <ele>416.896</ele>
        <time>2021-10-12T16:25:50Z</time>
      </trkpt>
      <trkpt lat="39.131104" lon="-6.275136">
        <ele>416.084</ele>
        <time>2021-10-12T16:25:52Z</time>
      </trkpt>
      <trkpt lat="39.131371" lon="-6.275071">
        <ele>416.920</ele>
        <time>2021-10-12T16:25:53Z</time>
      </trkpt>
      <trkpt lat="39.131636" lon="-6.275007">
        <ele>416.163</ele>
        <time>2021-10-12T16:25:54Z</time>
      </trkpt>
      <trkpt lat="39.132175" lon="-6.274869">
        <ele>417.379</ele>
        <time>2021-10-12T16:25:56Z</time>
      </trkpt>
      <trkpt lat="39.132711" lon="-6.274742">
        <ele>417.998</ele>
        <time>2021-10-12T16:25:58Z</time>
      </trkpt>
      <trkpt lat="39.133268" lon="-6.274606">
        <ele>418.488</ele>
        <time>2021-10-12T16:26:00Z</time>
      </trkpt>
      <trkpt lat="39.133548" lon="-6.274539">
        <ele>418.929</ele>
        <time>2021-10-12T16:26:01Z</time>
      </trkpt>
      <trkpt lat="39.133838" lon="-6.274469">
        <ele>418.223</ele>
        <time>2021-10-12T16:26:02Z</time>
      </trkpt>
      <trkpt lat="39.134400" lon="-6.274332">
        <ele>417.883</ele>
        <time>2021-10-12T16:26:04Z</time>
      </trkpt>
      <trkpt lat="39.134977" lon="-6.274198">
        <ele>420.011</ele>
        <time>2021-10-12T16:26:06Z</time>
      </trkpt>
      <trkpt lat="39.135265" lon="-6.274129">
        <ele>419.908</ele>
        <time>2021-10-12T16:26:07Z</time>
      </trkpt>
      <trkpt lat="39.135844" lon="-6.273988">
        <ele>421.470</ele>
        <time>2021-10-12T16:26:09Z</time>
      </trkpt>
      <trkpt lat="39.136422" lon="-6.273842">
        <ele>422.888</ele>
        <time>2021-10-12T16:26:11Z</time>
      </trkpt>
      <trkpt lat="39.136710" lon="-6.273774">
        <ele>422.454</ele>
        <time>2021-10-12T16:26:12Z</time>
      </trkpt>
      <trkpt lat="39.137286" lon="-6.273636">
        <ele>422.267</ele>
        <time>2021-10-12T16:26:14Z</time>
      </trkpt>
      <trkpt lat="39.137868" lon="-6.273493">
        <ele>424.193</ele>
        <time>2021-10-12T16:26:16Z</time>
      </trkpt>
      <trkpt lat="39.138455" lon="-6.273349">
        <ele>426.422</ele>
        <time>2021-10-12T16:26:18Z</time>
      </trkpt>
      <trkpt lat="39.139049" lon="-6.273207">
        <ele>428.322</ele>
        <time>2021-10-12T16:26:20Z</time>
      </trkpt>
      <trkpt lat="39.139348" lon="-6.273136">
        <ele>428.763</ele>
        <time>2021-10-12T16:26:21Z</time>
      </trkpt>
      <trkpt lat="39.139950" lon="-6.273002">
        <ele>428.858</ele>
        <time>2021-10-12T16:26:23Z</time>
      </trkpt>
      <trkpt lat="39.140565" lon="-6.272888">
        <ele>430.052</ele>
        <time>2021-10-12T16:26:25Z</time>
      </trkpt>
      <trkpt lat="39.140883" lon="-6.272838">
        <ele>430.817</ele>
        <time>2021-10-12T16:26:26Z</time>
      </trkpt>
      <trkpt lat="39.141479" lon="-6.272753">
        <ele>432.208</ele>
        <time>2021-10-12T16:26:28Z</time>
      </trkpt>
      <trkpt lat="39.141775" lon="-6.272709">
        <ele>432.833</ele>
        <time>2021-10-12T16:26:29Z</time>
      </trkpt>
      <trkpt lat="39.142065" lon="-6.272665">
        <ele>433.341</ele>
        <time>2021-10-12T16:26:30Z</time>
      </trkpt>
      <trkpt lat="39.142349" lon="-6.272622">
        <ele>433.287</ele>
        <time>2021-10-12T16:26:31Z</time>
      </trkpt>
      <trkpt lat="39.142633" lon="-6.272579">
        <ele>433.020</ele>
        <time>2021-10-12T16:26:32Z</time>
      </trkpt>
      <trkpt lat="39.143155" lon="-6.272500">
        <ele>434.416</ele>
        <time>2021-10-12T16:26:34Z</time>
      </trkpt>
      <trkpt lat="39.143410" lon="-6.272462">
        <ele>435.435</ele>
        <time>2021-10-12T16:26:35Z</time>
      </trkpt>
      <trkpt lat="39.143660" lon="-6.272427">
        <ele>436.225</ele>
        <time>2021-10-12T16:26:36Z</time>
      </trkpt>
      <trkpt lat="39.144160" lon="-6.272354">
        <ele>438.066</ele>
        <time>2021-10-12T16:26:38Z</time>
      </trkpt>
      <trkpt lat="39.144674" lon="-6.272278">
        <ele>438.056</ele>
        <time>2021-10-12T16:26:40Z</time>
      </trkpt>
      <trkpt lat="39.145201" lon="-6.272208">
        <ele>438.759</ele>
        <time>2021-10-12T16:26:42Z</time>
      </trkpt>
      <trkpt lat="39.145725" lon="-6.272135">
        <ele>440.414</ele>
        <time>2021-10-12T16:26:44Z</time>
      </trkpt>
      <trkpt lat="39.145993" lon="-6.272089">
        <ele>441.708</ele>
        <time>2021-10-12T16:26:45Z</time>
      </trkpt>
      <trkpt lat="39.146260" lon="-6.272035">
        <ele>442.983</ele>
        <time>2021-10-12T16:26:46Z</time>
      </trkpt>
      <trkpt lat="39.146531" lon="-6.271958">
        <ele>443.041</ele>
        <time>2021-10-12T16:26:47Z</time>
      </trkpt>
      <trkpt lat="39.147074" lon="-6.271740">
        <ele>445.297</ele>
        <time>2021-10-12T16:26:49Z</time>
      </trkpt>
      <trkpt lat="39.147628" lon="-6.271483">
        <ele>448.570</ele>
        <time>2021-10-12T16:26:51Z</time>
      </trkpt>
      <trkpt lat="39.148180" lon="-6.271238">
        <ele>450.096</ele>
        <time>2021-10-12T16:26:53Z</time>
      </trkpt>
      <trkpt lat="39.148715" lon="-6.271005">
        <ele>453.145</ele>
        <time>2021-10-12T16:26:55Z</time>
      </trkpt>
      <trkpt lat="39.148984" lon="-6.270889">
        <ele>455.155</ele>
        <time>2021-10-12T16:26:56Z</time>
      </trkpt>
      <trkpt lat="39.149492" lon="-6.270671">
        <ele>456.116</ele>
        <time>2021-10-12T16:26:58Z</time>
      </trkpt>
      <trkpt lat="39.149752" lon="-6.270556">
        <ele>457.073</ele>
        <time>2021-10-12T16:26:59Z</time>
      </trkpt>
      <trkpt lat="39.150275" lon="-6.270315">
        <ele>458.785</ele>
        <time>2021-10-12T16:27:01Z</time>
      </trkpt>
      <trkpt lat="39.150546" lon="-6.270197">
        <ele>459.313</ele>
        <time>2021-10-12T16:27:02Z</time>
      </trkpt>
      <trkpt lat="39.151060" lon="-6.269984">
        <ele>463.408</ele>
        <time>2021-10-12T16:27:04Z</time>
      </trkpt>
      <trkpt lat="39.151327" lon="-6.269896">
        <ele>464.365</ele>
        <time>2021-10-12T16:27:05Z</time>
      </trkpt>
      <trkpt lat="39.151601" lon="-6.269836">
        <ele>465.443</ele>
        <time>2021-10-12T16:27:06Z</time>
      </trkpt>
      <trkpt lat="39.152159" lon="-6.269808">
        <ele>468.559</ele>
        <time>2021-10-12T16:27:08Z</time>
      </trkpt>
      <trkpt lat="39.152716" lon="-6.269856">
        <ele>474.642</ele>
        <time>2021-10-12T16:27:10Z</time>
      </trkpt>
      <trkpt lat="39.153003" lon="-6.269880">
        <ele>477.498</ele>
        <time>2021-10-12T16:27:11Z</time>
      </trkpt>
      <trkpt lat="39.153589" lon="-6.269866">
        <ele>479.817</ele>
        <time>2021-10-12T16:27:13Z</time>
      </trkpt>
      <trkpt lat="39.154177" lon="-6.269727">
        <ele>479.837</ele>
        <time>2021-10-12T16:27:15Z</time>
      </trkpt>
      <trkpt lat="39.154469" lon="-6.269607">
        <ele>477.358</ele>
        <time>2021-10-12T16:27:16Z</time>
      </trkpt>
      <trkpt lat="39.155046" lon="-6.269318">
        <ele>473.811</ele>
        <time>2021-10-12T16:27:18Z</time>
      </trkpt>
      <trkpt lat="39.155335" lon="-6.269154">
        <ele>471.021</ele>
        <time>2021-10-12T16:27:19Z</time>
      </trkpt>
      <trkpt lat="39.155618" lon="-6.268990">
        <ele>469.603</ele>
        <time>2021-10-12T16:27:20Z</time>
      </trkpt>
      <trkpt lat="39.156170" lon="-6.268676">
        <ele>468.508</ele>
        <time>2021-10-12T16:27:22Z</time>
      </trkpt>
      <trkpt lat="39.156700" lon="-6.268378">
        <ele>467.879</ele>
        <time>2021-10-12T16:27:24Z</time>
      </trkpt>
      <trkpt lat="39.156960" lon="-6.268232">
        <ele>472.747</ele>
        <time>2021-10-12T16:27:25Z</time>
      </trkpt>
      <trkpt lat="39.157223" lon="-6.268084">
        <ele>473.323</ele>
        <time>2021-10-12T16:27:26Z</time>
      </trkpt>
      <trkpt lat="39.157707" lon="-6.267799">
        <ele>468.996</ele>
        <time>2021-10-12T16:27:28Z</time>
      </trkpt>
      <trkpt lat="39.158182" lon="-6.267509">
        <ele>471.072</ele>
        <time>2021-10-12T16:27:30Z</time>
      </trkpt>
      <trkpt lat="39.158402" lon="-6.267375">
        <ele>470.161</ele>
        <time>2021-10-12T16:27:31Z</time>
      </trkpt>
      <trkpt lat="39.158619" lon="-6.267243">
        <ele>468.611</ele>
        <time>2021-10-12T16:27:32Z</time>
      </trkpt>
      <trkpt lat="39.159039" lon="-6.266986">
        <ele>468.952</ele>
        <time>2021-10-12T16:27:34Z</time>
      </trkpt>
      <trkpt lat="39.159254" lon="-6.266853">
        <ele>468.432</ele>
        <time>2021-10-12T16:27:35Z</time>
      </trkpt>
      <trkpt lat="39.159689" lon="-6.266586">
        <ele>467.292</ele>
        <time>2021-10-12T16:27:37Z</time>
      </trkpt>
      <trkpt lat="39.160124" lon="-6.266320">
        <ele>466.211</ele>
        <time>2021-10-12T16:27:39Z</time>
      </trkpt>
      <trkpt lat="39.160343" lon="-6.266183">
        <ele>466.308</ele>
        <time>2021-10-12T16:27:40Z</time>
      </trkpt>
      <trkpt lat="39.160559" lon="-6.266045">
        <ele>466.551</ele>
        <time>2021-10-12T16:27:41Z</time>
      </trkpt>
      <trkpt lat="39.160775" lon="-6.265911">
        <ele>466.789</ele>
        <time>2021-10-12T16:27:42Z</time>
      </trkpt>
      <trkpt lat="39.160988" lon="-6.265775">
        <ele>466.795</ele>
        <time>2021-10-12T16:27:43Z</time>
      </trkpt>
      <trkpt lat="39.161411" lon="-6.265510">
        <ele>466.228</ele>
        <time>2021-10-12T16:27:45Z</time>
      </trkpt>
      <trkpt lat="39.161622" lon="-6.265375">
        <ele>466.154</ele>
        <time>2021-10-12T16:27:46Z</time>
      </trkpt>
      <trkpt lat="39.162030" lon="-6.265122">
        <ele>465.753</ele>
        <time>2021-10-12T16:27:48Z</time>
      </trkpt>
      <trkpt lat="39.162367" lon="-6.264902">
        <ele>465.733</ele>
        <time>2021-10-12T16:27:50Z</time>
      </trkpt>
      <trkpt lat="39.162607" lon="-6.264752">
        <ele>466.434</ele>
        <time>2021-10-12T16:27:52Z</time>
      </trkpt>
      <trkpt lat="39.162701" lon="-6.264698">
        <ele>466.898</ele>
        <time>2021-10-12T16:27:53Z</time>
      </trkpt>
      <trkpt lat="39.162857" lon="-6.264617">
        <ele>467.715</ele>
        <time>2021-10-12T16:27:55Z</time>
      </trkpt>
      <trkpt lat="39.162929" lon="-6.264568">
        <ele>468.126</ele>
        <time>2021-10-12T16:27:56Z</time>
      </trkpt>
      <trkpt lat="39.163087" lon="-6.264437">
        <ele>469.008</ele>
        <time>2021-10-12T16:27:58Z</time>
      </trkpt>
      <trkpt lat="39.163179" lon="-6.264403">
        <ele>469.027</ele>
        <time>2021-10-12T16:27:59Z</time>
      </trkpt>
      <trkpt lat="39.163385" lon="-6.264448">
        <ele>469.245</ele>
        <time>2021-10-12T16:28:01Z</time>
      </trkpt>
      <trkpt lat="39.163503" lon="-6.264498">
        <ele>469.771</ele>
        <time>2021-10-12T16:28:02Z</time>
      </trkpt>
      <trkpt lat="39.163743" lon="-6.264495">
        <ele>471.054</ele>
        <time>2021-10-12T16:28:04Z</time>
      </trkpt>
      <trkpt lat="39.163886" lon="-6.264454">
        <ele>471.940</ele>
        <time>2021-10-12T16:28:05Z</time>
      </trkpt>
      <trkpt lat="39.164219" lon="-6.264378">
        <ele>472.029</ele>
        <time>2021-10-12T16:28:07Z</time>
      </trkpt>
      <trkpt lat="39.164410" lon="-6.264339">
        <ele>472.059</ele>
        <time>2021-10-12T16:28:08Z</time>
      </trkpt>
      <trkpt lat="39.164838" lon="-6.264247">
        <ele>471.240</ele>
        <time>2021-10-12T16:28:10Z</time>
      </trkpt>
      <trkpt lat="39.165307" lon="-6.264143">
        <ele>470.119</ele>
        <time>2021-10-12T16:28:12Z</time>
      </trkpt>
      <trkpt lat="39.165555" lon="-6.264093">
        <ele>471.009</ele>
        <time>2021-10-12T16:28:13Z</time>
      </trkpt>
      <trkpt lat="39.166044" lon="-6.263995">
        <ele>473.619</ele>
        <time>2021-10-12T16:28:15Z</time>
      </trkpt>
      <trkpt lat="39.166306" lon="-6.263951">
        <ele>474.008</ele>
        <time>2021-10-12T16:28:16Z</time>
      </trkpt>
      <trkpt lat="39.166566" lon="-6.263913">
        <ele>474.649</ele>
        <time>2021-10-12T16:28:17Z</time>
      </trkpt>
      <trkpt lat="39.167075" lon="-6.263860">
        <ele>475.437</ele>
        <time>2021-10-12T16:28:19Z</time>
      </trkpt>
      <trkpt lat="39.167323" lon="-6.263849">
        <ele>474.533</ele>
        <time>2021-10-12T16:28:20Z</time>
      </trkpt>
      <trkpt lat="39.167566" lon="-6.263839">
        <ele>473.836</ele>
        <time>2021-10-12T16:28:21Z</time>
      </trkpt>
      <trkpt lat="39.168049" lon="-6.263846">
        <ele>474.092</ele>
        <time>2021-10-12T16:28:23Z</time>
      </trkpt>
      <trkpt lat="39.168301" lon="-6.263857">
        <ele>474.031</ele>
        <time>2021-10-12T16:28:24Z</time>
      </trkpt>
      <trkpt lat="39.168781" lon="-6.263883">
        <ele>471.461</ele>
        <time>2021-10-12T16:28:26Z</time>
      </trkpt>
      <trkpt lat="39.169256" lon="-6.263922">
        <ele>470.462</ele>
        <time>2021-10-12T16:28:28Z</time>
      </trkpt>
      <trkpt lat="39.169516" lon="-6.263960">
        <ele>468.929</ele>
        <time>2021-10-12T16:28:29Z</time>
      </trkpt>
      <trkpt lat="39.169773" lon="-6.264007">
        <ele>467.800</ele>
        <time>2021-10-12T16:28:30Z</time>
      </trkpt>
      <trkpt lat="39.170313" lon="-6.264115">
        <ele>465.120</ele>
        <time>2021-10-12T16:28:32Z</time>
      </trkpt>
      <trkpt lat="39.170845" lon="-6.264233">
        <ele>463.508</ele>
        <time>2021-10-12T16:28:34Z</time>
      </trkpt>
      <trkpt lat="39.171401" lon="-6.264341">
        <ele>462.760</ele>
        <time>2021-10-12T16:28:36Z</time>
      </trkpt>
      <trkpt lat="39.171965" lon="-6.264450">
        <ele>459.018</ele>
        <time>2021-10-12T16:28:38Z</time>
      </trkpt>
      <trkpt lat="39.172251" lon="-6.264510">
        <ele>459.764</ele>
        <time>2021-10-12T16:28:39Z</time>
      </trkpt>
      <trkpt lat="39.172820" lon="-6.264629">
        <ele>458.537</ele>
        <time>2021-10-12T16:28:41Z</time>
      </trkpt>
      <trkpt lat="39.173396" lon="-6.264744">
        <ele>454.813</ele>
        <time>2021-10-12T16:28:43Z</time>
      </trkpt>
      <trkpt lat="39.173977" lon="-6.264864">
        <ele>452.462</ele>
        <time>2021-10-12T16:28:45Z</time>
      </trkpt>
      <trkpt lat="39.174272" lon="-6.264928">
        <ele>450.242</ele>
        <time>2021-10-12T16:28:46Z</time>
      </trkpt>
      <trkpt lat="39.174843" lon="-6.265059">
        <ele>446.613</ele>
        <time>2021-10-12T16:28:48Z</time>
      </trkpt>
      <trkpt lat="39.175133" lon="-6.265134">
        <ele>445.873</ele>
        <time>2021-10-12T16:28:49Z</time>
      </trkpt>
      <trkpt lat="39.175698" lon="-6.265290">
        <ele>444.585</ele>
        <time>2021-10-12T16:28:51Z</time>
      </trkpt>
      <trkpt lat="39.175983" lon="-6.265373">
        <ele>444.313</ele>
        <time>2021-10-12T16:28:52Z</time>
      </trkpt>
      <trkpt lat="39.176543" lon="-6.265550">
        <ele>444.408</ele>
        <time>2021-10-12T16:28:54Z</time>
      </trkpt>
      <trkpt lat="39.176823" lon="-6.265645">
        <ele>444.915</ele>
        <time>2021-10-12T16:28:55Z</time>
      </trkpt>
      <trkpt lat="39.177107" lon="-6.265740">
        <ele>446.243</ele>
        <time>2021-10-12T16:28:56Z</time>
      </trkpt>
      <trkpt lat="39.177650" lon="-6.265916">
        <ele>447.319</ele>
        <time>2021-10-12T16:28:58Z</time>
      </trkpt>
      <trkpt lat="39.177933" lon="-6.266003">
        <ele>447.382</ele>
        <time>2021-10-12T16:28:59Z</time>
      </trkpt>
      <trkpt lat="39.178492" lon="-6.266184">
        <ele>446.568</ele>
        <time>2021-10-12T16:29:01Z</time>
      </trkpt>
      <trkpt lat="39.178776" lon="-6.266272">
        <ele>445.417</ele>
        <time>2021-10-12T16:29:02Z</time>
      </trkpt>
      <trkpt lat="39.179311" lon="-6.266446">
        <ele>441.577</ele>
        <time>2021-10-12T16:29:04Z</time>
      </trkpt>
      <trkpt lat="39.179843" lon="-6.266621">
        <ele>441.498</ele>
        <time>2021-10-12T16:29:06Z</time>
      </trkpt>
      <trkpt lat="39.180113" lon="-6.266709">
        <ele>442.158</ele>
        <time>2021-10-12T16:29:07Z</time>
      </trkpt>
      <trkpt lat="39.180385" lon="-6.266793">
        <ele>441.452</ele>
        <time>2021-10-12T16:29:08Z</time>
      </trkpt>
      <trkpt lat="39.180924" lon="-6.266970">
        <ele>440.117</ele>
        <time>2021-10-12T16:29:10Z</time>
      </trkpt>
      <trkpt lat="39.181467" lon="-6.267150">
        <ele>438.508</ele>
        <time>2021-10-12T16:29:12Z</time>
      </trkpt>
      <trkpt lat="39.182012" lon="-6.267330">
        <ele>437.963</ele>
        <time>2021-10-12T16:29:14Z</time>
      </trkpt>
      <trkpt lat="39.182567" lon="-6.267502">
        <ele>436.851</ele>
        <time>2021-10-12T16:29:16Z</time>
      </trkpt>
      <trkpt lat="39.183124" lon="-6.267681">
        <ele>434.747</ele>
        <time>2021-10-12T16:29:18Z</time>
      </trkpt>
      <trkpt lat="39.183683" lon="-6.267865">
        <ele>435.820</ele>
        <time>2021-10-12T16:29:20Z</time>
      </trkpt>
      <trkpt lat="39.183964" lon="-6.267958">
        <ele>435.636</ele>
        <time>2021-10-12T16:29:21Z</time>
      </trkpt>
      <trkpt lat="39.184527" lon="-6.268148">
        <ele>434.465</ele>
        <time>2021-10-12T16:29:23Z</time>
      </trkpt>
      <trkpt lat="39.185089" lon="-6.268370">
        <ele>430.455</ele>
        <time>2021-10-12T16:29:25Z</time>
      </trkpt>
      <trkpt lat="39.185373" lon="-6.268507">
        <ele>428.836</ele>
        <time>2021-10-12T16:29:26Z</time>
      </trkpt>
      <trkpt lat="39.185911" lon="-6.268815">
        <ele>429.066</ele>
        <time>2021-10-12T16:29:28Z</time>
      </trkpt>
      <trkpt lat="39.186185" lon="-6.268981">
        <ele>428.729</ele>
        <time>2021-10-12T16:29:29Z</time>
      </trkpt>
      <trkpt lat="39.186459" lon="-6.269151">
        <ele>427.721</ele>
        <time>2021-10-12T16:29:30Z</time>
      </trkpt>
      <trkpt lat="39.187017" lon="-6.269485">
        <ele>426.708</ele>
        <time>2021-10-12T16:29:32Z</time>
      </trkpt>
      <trkpt lat="39.187559" lon="-6.269796">
        <ele>425.874</ele>
        <time>2021-10-12T16:29:34Z</time>
      </trkpt>
      <trkpt lat="39.188106" lon="-6.270125">
        <ele>425.042</ele>
        <time>2021-10-12T16:29:36Z</time>
      </trkpt>
      <trkpt lat="39.188643" lon="-6.270450">
        <ele>425.128</ele>
        <time>2021-10-12T16:29:38Z</time>
      </trkpt>
      <trkpt lat="39.188915" lon="-6.270608">
        <ele>426.231</ele>
        <time>2021-10-12T16:29:39Z</time>
      </trkpt>
      <trkpt lat="39.189446" lon="-6.270918">
        <ele>426.057</ele>
        <time>2021-10-12T16:29:41Z</time>
      </trkpt>
      <trkpt lat="39.189980" lon="-6.271219">
        <ele>424.566</ele>
        <time>2021-10-12T16:29:43Z</time>
      </trkpt>
      <trkpt lat="39.190513" lon="-6.271512">
        <ele>424.526</ele>
        <time>2021-10-12T16:29:45Z</time>
      </trkpt>
      <trkpt lat="39.191048" lon="-6.271802">
        <ele>425.497</ele>
        <time>2021-10-12T16:29:47Z</time>
      </trkpt>
      <trkpt lat="39.191580" lon="-6.272097">
        <ele>423.921</ele>
        <time>2021-10-12T16:29:49Z</time>
      </trkpt>
      <trkpt lat="39.191852" lon="-6.272248">
        <ele>422.941</ele>
        <time>2021-10-12T16:29:50Z</time>
      </trkpt>
      <trkpt lat="39.192391" lon="-6.272536">
        <ele>420.405</ele>
        <time>2021-10-12T16:29:52Z</time>
      </trkpt>
      <trkpt lat="39.192933" lon="-6.272817">
        <ele>422.108</ele>
        <time>2021-10-12T16:29:54Z</time>
      </trkpt>
      <trkpt lat="39.193207" lon="-6.272962">
        <ele>422.550</ele>
        <time>2021-10-12T16:29:55Z</time>
      </trkpt>
      <trkpt lat="39.193492" lon="-6.273112">
        <ele>421.938</ele>
        <time>2021-10-12T16:29:56Z</time>
      </trkpt>
      <trkpt lat="39.194027" lon="-6.273399">
        <ele>419.444</ele>
        <time>2021-10-12T16:29:58Z</time>
      </trkpt>
      <trkpt lat="39.194307" lon="-6.273546">
        <ele>419.027</ele>
        <time>2021-10-12T16:29:59Z</time>
      </trkpt>
      <trkpt lat="39.194864" lon="-6.273838">
        <ele>418.773</ele>
        <time>2021-10-12T16:30:01Z</time>
      </trkpt>
      <trkpt lat="39.195151" lon="-6.273990">
        <ele>418.042</ele>
        <time>2021-10-12T16:30:02Z</time>
      </trkpt>
      <trkpt lat="39.195699" lon="-6.274292">
        <ele>419.582</ele>
        <time>2021-10-12T16:30:04Z</time>
      </trkpt>
      <trkpt lat="39.196262" lon="-6.274592">
        <ele>418.023</ele>
        <time>2021-10-12T16:30:06Z</time>
      </trkpt>
      <trkpt lat="39.196543" lon="-6.274742">
        <ele>417.427</ele>
        <time>2021-10-12T16:30:07Z</time>
      </trkpt>
      <trkpt lat="39.197104" lon="-6.275040">
        <ele>416.868</ele>
        <time>2021-10-12T16:30:09Z</time>
      </trkpt>
      <trkpt lat="39.197390" lon="-6.275191">
        <ele>416.314</ele>
        <time>2021-10-12T16:30:10Z</time>
      </trkpt>
      <trkpt lat="39.197959" lon="-6.275492">
        <ele>413.308</ele>
        <time>2021-10-12T16:30:12Z</time>
      </trkpt>
      <trkpt lat="39.198522" lon="-6.275790">
        <ele>413.190</ele>
        <time>2021-10-12T16:30:14Z</time>
      </trkpt>
      <trkpt lat="39.199068" lon="-6.276082">
        <ele>412.788</ele>
        <time>2021-10-12T16:30:16Z</time>
      </trkpt>
      <trkpt lat="39.199604" lon="-6.276370">
        <ele>412.184</ele>
        <time>2021-10-12T16:30:18Z</time>
      </trkpt>
      <trkpt lat="39.200109" lon="-6.276641">
        <ele>411.117</ele>
        <time>2021-10-12T16:30:20Z</time>
      </trkpt>
      <trkpt lat="39.200359" lon="-6.276775">
        <ele>410.393</ele>
        <time>2021-10-12T16:30:21Z</time>
      </trkpt>
      <trkpt lat="39.200854" lon="-6.277038">
        <ele>408.612</ele>
        <time>2021-10-12T16:30:23Z</time>
      </trkpt>
      <trkpt lat="39.201361" lon="-6.277309">
        <ele>408.992</ele>
        <time>2021-10-12T16:30:25Z</time>
      </trkpt>
      <trkpt lat="39.201623" lon="-6.277446">
        <ele>409.253</ele>
        <time>2021-10-12T16:30:26Z</time>
      </trkpt>
      <trkpt lat="39.202132" lon="-6.277708">
        <ele>406.845</ele>
        <time>2021-10-12T16:30:28Z</time>
      </trkpt>
      <trkpt lat="39.202395" lon="-6.277845">
        <ele>405.847</ele>
        <time>2021-10-12T16:30:29Z</time>
      </trkpt>
      <trkpt lat="39.202914" lon="-6.278118">
        <ele>405.511</ele>
        <time>2021-10-12T16:30:31Z</time>
      </trkpt>
      <trkpt lat="39.203183" lon="-6.278261">
        <ele>405.708</ele>
        <time>2021-10-12T16:30:32Z</time>
      </trkpt>
      <trkpt lat="39.203688" lon="-6.278533">
        <ele>405.362</ele>
        <time>2021-10-12T16:30:34Z</time>
      </trkpt>
      <trkpt lat="39.204204" lon="-6.278809">
        <ele>406.990</ele>
        <time>2021-10-12T16:30:36Z</time>
      </trkpt>
      <trkpt lat="39.204463" lon="-6.278947">
        <ele>406.236</ele>
        <time>2021-10-12T16:30:37Z</time>
      </trkpt>
      <trkpt lat="39.204722" lon="-6.279085">
        <ele>406.019</ele>
        <time>2021-10-12T16:30:38Z</time>
      </trkpt>
      <trkpt lat="39.204980" lon="-6.279223">
        <ele>405.115</ele>
        <time>2021-10-12T16:30:39Z</time>
      </trkpt>
      <trkpt lat="39.205239" lon="-6.279362">
        <ele>404.194</ele>
        <time>2021-10-12T16:30:40Z</time>
      </trkpt>
      <trkpt lat="39.205499" lon="-6.279503">
        <ele>404.834</ele>
        <time>2021-10-12T16:30:41Z</time>
      </trkpt>
      <trkpt lat="39.206014" lon="-6.279777">
        <ele>405.355</ele>
        <time>2021-10-12T16:30:43Z</time>
      </trkpt>
      <trkpt lat="39.206275" lon="-6.279912">
        <ele>405.335</ele>
        <time>2021-10-12T16:30:44Z</time>
      </trkpt>
      <trkpt lat="39.206532" lon="-6.280051">
        <ele>405.386</ele>
        <time>2021-10-12T16:30:45Z</time>
      </trkpt>
      <trkpt lat="39.207043" lon="-6.280327">
        <ele>404.614</ele>
        <time>2021-10-12T16:30:47Z</time>
      </trkpt>
      <trkpt lat="39.207554" lon="-6.280603">
        <ele>404.408</ele>
        <time>2021-10-12T16:30:49Z</time>
      </trkpt>
      <trkpt lat="39.208082" lon="-6.280883">
        <ele>405.991</ele>
        <time>2021-10-12T16:30:51Z</time>
      </trkpt>
      <trkpt lat="39.208351" lon="-6.281021">
        <ele>405.579</ele>
        <time>2021-10-12T16:30:52Z</time>
      </trkpt>
      <trkpt lat="39.208891" lon="-6.281309">
        <ele>402.785</ele>
        <time>2021-10-12T16:30:54Z</time>
      </trkpt>
      <trkpt lat="39.209163" lon="-6.281455">
        <ele>402.088</ele>
        <time>2021-10-12T16:30:55Z</time>
      </trkpt>
      <trkpt lat="39.209435" lon="-6.281601">
        <ele>401.034</ele>
        <time>2021-10-12T16:30:56Z</time>
      </trkpt>
      <trkpt lat="39.209920" lon="-6.281870">
        <ele>399.423</ele>
        <time>2021-10-12T16:30:58Z</time>
      </trkpt>
      <trkpt lat="39.210162" lon="-6.282026">
        <ele>399.213</ele>
        <time>2021-10-12T16:30:59Z</time>
      </trkpt>
      <trkpt lat="39.210398" lon="-6.282218">
        <ele>399.034</ele>
        <time>2021-10-12T16:31:00Z</time>
      </trkpt>
      <trkpt lat="39.210855" lon="-6.282685">
        <ele>399.648</ele>
        <time>2021-10-12T16:31:02Z</time>
      </trkpt>
      <trkpt lat="39.211302" lon="-6.283154">
        <ele>398.361</ele>
        <time>2021-10-12T16:31:04Z</time>
      </trkpt>
      <trkpt lat="39.211529" lon="-6.283394">
        <ele>398.217</ele>
        <time>2021-10-12T16:31:05Z</time>
      </trkpt>
      <trkpt lat="39.211758" lon="-6.283629">
        <ele>398.708</ele>
        <time>2021-10-12T16:31:06Z</time>
      </trkpt>
      <trkpt lat="39.211989" lon="-6.283866">
        <ele>398.862</ele>
        <time>2021-10-12T16:31:07Z</time>
      </trkpt>
      <trkpt lat="39.212453" lon="-6.284340">
        <ele>398.160</ele>
        <time>2021-10-12T16:31:09Z</time>
      </trkpt>
      <trkpt lat="39.212686" lon="-6.284577">
        <ele>397.286</ele>
        <time>2021-10-12T16:31:10Z</time>
      </trkpt>
      <trkpt lat="39.213153" lon="-6.285054">
        <ele>399.019</ele>
        <time>2021-10-12T16:31:12Z</time>
      </trkpt>
      <trkpt lat="39.213386" lon="-6.285294">
        <ele>398.975</ele>
        <time>2021-10-12T16:31:13Z</time>
      </trkpt>
      <trkpt lat="39.213853" lon="-6.285782">
        <ele>397.964</ele>
        <time>2021-10-12T16:31:15Z</time>
      </trkpt>
      <trkpt lat="39.214085" lon="-6.286024">
        <ele>397.854</ele>
        <time>2021-10-12T16:31:16Z</time>
      </trkpt>
      <trkpt lat="39.214320" lon="-6.286261">
        <ele>398.055</ele>
        <time>2021-10-12T16:31:17Z</time>
      </trkpt>
      <trkpt lat="39.214796" lon="-6.286727">
        <ele>396.559</ele>
        <time>2021-10-12T16:31:19Z</time>
      </trkpt>
      <trkpt lat="39.215313" lon="-6.287138">
        <ele>394.603</ele>
        <time>2021-10-12T16:31:21Z</time>
      </trkpt>
      <trkpt lat="39.215592" lon="-6.287307">
        <ele>394.323</ele>
        <time>2021-10-12T16:31:22Z</time>
      </trkpt>
      <trkpt lat="39.216167" lon="-6.287612">
        <ele>393.208</ele>
        <time>2021-10-12T16:31:24Z</time>
      </trkpt>
      <trkpt lat="39.216753" lon="-6.287922">
        <ele>392.723</ele>
        <time>2021-10-12T16:31:26Z</time>
      </trkpt>
      <trkpt lat="39.217316" lon="-6.288222">
        <ele>392.051</ele>
        <time>2021-10-12T16:31:28Z</time>
      </trkpt>
      <trkpt lat="39.217604" lon="-6.288377">
        <ele>391.817</ele>
        <time>2021-10-12T16:31:29Z</time>
      </trkpt>
      <trkpt lat="39.218172" lon="-6.288682">
        <ele>393.170</ele>
        <time>2021-10-12T16:31:31Z</time>
      </trkpt>
      <trkpt lat="39.218465" lon="-6.288839">
        <ele>392.556</ele>
        <time>2021-10-12T16:31:32Z</time>
      </trkpt>
      <trkpt lat="39.219016" lon="-6.289134">
        <ele>391.925</ele>
        <time>2021-10-12T16:31:34Z</time>
      </trkpt>
      <trkpt lat="39.219298" lon="-6.289286">
        <ele>392.035</ele>
        <time>2021-10-12T16:31:35Z</time>
      </trkpt>
      <trkpt lat="39.219857" lon="-6.289586">
        <ele>392.066</ele>
        <time>2021-10-12T16:31:37Z</time>
      </trkpt>
      <trkpt lat="39.220410" lon="-6.289881">
        <ele>393.375</ele>
        <time>2021-10-12T16:31:39Z</time>
      </trkpt>
      <trkpt lat="39.220686" lon="-6.290029">
        <ele>393.928</ele>
        <time>2021-10-12T16:31:40Z</time>
      </trkpt>
      <trkpt lat="39.221237" lon="-6.290324">
        <ele>392.820</ele>
        <time>2021-10-12T16:31:42Z</time>
      </trkpt>
      <trkpt lat="39.221517" lon="-6.290480">
        <ele>392.108</ele>
        <time>2021-10-12T16:31:43Z</time>
      </trkpt>
      <trkpt lat="39.221801" lon="-6.290638">
        <ele>392.075</ele>
        <time>2021-10-12T16:31:44Z</time>
      </trkpt>
      <trkpt lat="39.222372" lon="-6.290950">
        <ele>392.263</ele>
        <time>2021-10-12T16:31:46Z</time>
      </trkpt>
      <trkpt lat="39.222945" lon="-6.291265">
        <ele>390.679</ele>
        <time>2021-10-12T16:31:48Z</time>
      </trkpt>
      <trkpt lat="39.223232" lon="-6.291418">
        <ele>390.462</ele>
        <time>2021-10-12T16:31:49Z</time>
      </trkpt>
      <trkpt lat="39.223517" lon="-6.291571">
        <ele>389.688</ele>
        <time>2021-10-12T16:31:50Z</time>
      </trkpt>
      <trkpt lat="39.224079" lon="-6.291880">
        <ele>389.927</ele>
        <time>2021-10-12T16:31:52Z</time>
      </trkpt>
      <trkpt lat="39.224637" lon="-6.292173">
        <ele>389.397</ele>
        <time>2021-10-12T16:31:54Z</time>
      </trkpt>
      <trkpt lat="39.224911" lon="-6.292319">
        <ele>389.038</ele>
        <time>2021-10-12T16:31:55Z</time>
      </trkpt>
      <trkpt lat="39.225191" lon="-6.292468">
        <ele>389.016</ele>
        <time>2021-10-12T16:31:56Z</time>
      </trkpt>
      <trkpt lat="39.225719" lon="-6.292750">
        <ele>390.076</ele>
        <time>2021-10-12T16:31:58Z</time>
      </trkpt>
      <trkpt lat="39.226255" lon="-6.293040">
        <ele>387.113</ele>
        <time>2021-10-12T16:32:00Z</time>
      </trkpt>
      <trkpt lat="39.226523" lon="-6.293191">
        <ele>387.008</ele>
        <time>2021-10-12T16:32:01Z</time>
      </trkpt>
      <trkpt lat="39.226799" lon="-6.293346">
        <ele>387.519</ele>
        <time>2021-10-12T16:32:02Z</time>
      </trkpt>
      <trkpt lat="39.227331" lon="-6.293636">
        <ele>385.947</ele>
        <time>2021-10-12T16:32:04Z</time>
      </trkpt>
      <trkpt lat="39.227606" lon="-6.293789">
        <ele>385.453</ele>
        <time>2021-10-12T16:32:05Z</time>
      </trkpt>
      <trkpt lat="39.228151" lon="-6.294086">
        <ele>386.366</ele>
        <time>2021-10-12T16:32:07Z</time>
      </trkpt>
      <trkpt lat="39.228690" lon="-6.294376">
        <ele>386.762</ele>
        <time>2021-10-12T16:32:09Z</time>
      </trkpt>
      <trkpt lat="39.228963" lon="-6.294522">
        <ele>386.961</ele>
        <time>2021-10-12T16:32:10Z</time>
      </trkpt>
      <trkpt lat="39.229233" lon="-6.294666">
        <ele>386.231</ele>
        <time>2021-10-12T16:32:11Z</time>
      </trkpt>
      <trkpt lat="39.229767" lon="-6.294959">
        <ele>384.312</ele>
        <time>2021-10-12T16:32:13Z</time>
      </trkpt>
      <trkpt lat="39.230036" lon="-6.295110">
        <ele>385.011</ele>
        <time>2021-10-12T16:32:14Z</time>
      </trkpt>
      <trkpt lat="39.230305" lon="-6.295262">
        <ele>385.121</ele>
        <time>2021-10-12T16:32:15Z</time>
      </trkpt>
      <trkpt lat="39.230840" lon="-6.295559">
        <ele>386.003</ele>
        <time>2021-10-12T16:32:17Z</time>
      </trkpt>
      <trkpt lat="39.231377" lon="-6.295847">
        <ele>385.008</ele>
        <time>2021-10-12T16:32:19Z</time>
      </trkpt>
      <trkpt lat="39.231649" lon="-6.295992">
        <ele>384.539</ele>
        <time>2021-10-12T16:32:20Z</time>
      </trkpt>
      <trkpt lat="39.232179" lon="-6.296280">
        <ele>382.557</ele>
        <time>2021-10-12T16:32:22Z</time>
      </trkpt>
      <trkpt lat="39.232441" lon="-6.296424">
        <ele>382.893</ele>
        <time>2021-10-12T16:32:23Z</time>
      </trkpt>
      <trkpt lat="39.232704" lon="-6.296563">
        <ele>383.046</ele>
        <time>2021-10-12T16:32:24Z</time>
      </trkpt>
      <trkpt lat="39.233233" lon="-6.296844">
        <ele>383.692</ele>
        <time>2021-10-12T16:32:26Z</time>
      </trkpt>
      <trkpt lat="39.233725" lon="-6.297105">
        <ele>386.091</ele>
        <time>2021-10-12T16:32:28Z</time>
      </trkpt>
      <trkpt lat="39.234211" lon="-6.297374">
        <ele>387.111</ele>
        <time>2021-10-12T16:32:30Z</time>
      </trkpt>
      <trkpt lat="39.234448" lon="-6.297518">
        <ele>386.962</ele>
        <time>2021-10-12T16:32:31Z</time>
      </trkpt>
      <trkpt lat="39.234679" lon="-6.297678">
        <ele>386.459</ele>
        <time>2021-10-12T16:32:32Z</time>
      </trkpt>
      <trkpt lat="39.235106" lon="-6.298024">
        <ele>387.103</ele>
        <time>2021-10-12T16:32:34Z</time>
      </trkpt>
      <trkpt lat="39.235320" lon="-6.298217">
        <ele>386.423</ele>
        <time>2021-10-12T16:32:35Z</time>
      </trkpt>
      <trkpt lat="39.235756" lon="-6.298609">
        <ele>385.008</ele>
        <time>2021-10-12T16:32:37Z</time>
      </trkpt>
      <trkpt lat="39.236212" lon="-6.299015">
        <ele>386.143</ele>
        <time>2021-10-12T16:32:39Z</time>
      </trkpt>
      <trkpt lat="39.236444" lon="-6.299222">
        <ele>386.011</ele>
        <time>2021-10-12T16:32:40Z</time>
      </trkpt>
      <trkpt lat="39.236912" lon="-6.299635">
        <ele>385.917</ele>
        <time>2021-10-12T16:32:42Z</time>
      </trkpt>
      <trkpt lat="39.237146" lon="-6.299842">
        <ele>385.660</ele>
        <time>2021-10-12T16:32:43Z</time>
      </trkpt>
      <trkpt lat="39.237599" lon="-6.300233">
        <ele>386.546</ele>
        <time>2021-10-12T16:32:45Z</time>
      </trkpt>
      <trkpt lat="39.237829" lon="-6.300417">
        <ele>386.025</ele>
        <time>2021-10-12T16:32:46Z</time>
      </trkpt>
      <trkpt lat="39.238318" lon="-6.300749">
        <ele>386.045</ele>
        <time>2021-10-12T16:32:48Z</time>
      </trkpt>
      <trkpt lat="39.238577" lon="-6.300894">
        <ele>386.976</ele>
        <time>2021-10-12T16:32:49Z</time>
      </trkpt>
      <trkpt lat="39.239114" lon="-6.301166">
        <ele>388.842</ele>
        <time>2021-10-12T16:32:51Z</time>
      </trkpt>
      <trkpt lat="39.239385" lon="-6.301302">
        <ele>389.022</ele>
        <time>2021-10-12T16:32:52Z</time>
      </trkpt>
      <trkpt lat="39.239926" lon="-6.301576">
        <ele>387.514</ele>
        <time>2021-10-12T16:32:54Z</time>
      </trkpt>
      <trkpt lat="39.240198" lon="-6.301714">
        <ele>386.808</ele>
        <time>2021-10-12T16:32:55Z</time>
      </trkpt>
      <trkpt lat="39.240477" lon="-6.301855">
        <ele>384.782</ele>
        <time>2021-10-12T16:32:56Z</time>
      </trkpt>
      <trkpt lat="39.241026" lon="-6.302130">
        <ele>383.010</ele>
        <time>2021-10-12T16:32:58Z</time>
      </trkpt>
      <trkpt lat="39.241584" lon="-6.302410">
        <ele>384.026</ele>
        <time>2021-10-12T16:33:00Z</time>
      </trkpt>
      <trkpt lat="39.241863" lon="-6.302551">
        <ele>384.839</ele>
        <time>2021-10-12T16:33:01Z</time>
      </trkpt>
      <trkpt lat="39.242149" lon="-6.302695">
        <ele>386.775</ele>
        <time>2021-10-12T16:33:02Z</time>
      </trkpt>
      <trkpt lat="39.242698" lon="-6.302970">
        <ele>385.834</ele>
        <time>2021-10-12T16:33:04Z</time>
      </trkpt>
      <trkpt lat="39.243254" lon="-6.303252">
        <ele>385.344</ele>
        <time>2021-10-12T16:33:06Z</time>
      </trkpt>
      <trkpt lat="39.243534" lon="-6.303393">
        <ele>384.825</ele>
        <time>2021-10-12T16:33:07Z</time>
      </trkpt>
      <trkpt lat="39.243815" lon="-6.303533">
        <ele>383.866</ele>
        <time>2021-10-12T16:33:08Z</time>
      </trkpt>
      <trkpt lat="39.244379" lon="-6.303819">
        <ele>384.029</ele>
        <time>2021-10-12T16:33:10Z</time>
      </trkpt>
      <trkpt lat="39.244662" lon="-6.303962">
        <ele>383.821</ele>
        <time>2021-10-12T16:33:11Z</time>
      </trkpt>
      <trkpt lat="39.245236" lon="-6.304249">
        <ele>382.108</ele>
        <time>2021-10-12T16:33:13Z</time>
      </trkpt>
      <trkpt lat="39.245524" lon="-6.304392">
        <ele>382.214</ele>
        <time>2021-10-12T16:33:14Z</time>
      </trkpt>
      <trkpt lat="39.246092" lon="-6.304678">
        <ele>383.062</ele>
        <time>2021-10-12T16:33:16Z</time>
      </trkpt>
      <trkpt lat="39.246382" lon="-6.304826">
        <ele>384.098</ele>
        <time>2021-10-12T16:33:17Z</time>
      </trkpt>
      <trkpt lat="39.246669" lon="-6.304971">
        <ele>383.181</ele>
        <time>2021-10-12T16:33:18Z</time>
      </trkpt>
      <trkpt lat="39.247239" lon="-6.305256">
        <ele>383.087</ele>
        <time>2021-10-12T16:33:20Z</time>
      </trkpt>
      <trkpt lat="39.247525" lon="-6.305394">
        <ele>383.016</ele>
        <time>2021-10-12T16:33:21Z</time>
      </trkpt>
      <trkpt lat="39.248091" lon="-6.305680">
        <ele>384.476</ele>
        <time>2021-10-12T16:33:23Z</time>
      </trkpt>
      <trkpt lat="39.248371" lon="-6.305821">
        <ele>385.097</ele>
        <time>2021-10-12T16:33:24Z</time>
      </trkpt>
      <trkpt lat="39.248937" lon="-6.306106">
        <ele>388.027</ele>
        <time>2021-10-12T16:33:26Z</time>
      </trkpt>
      <trkpt lat="39.249468" lon="-6.306376">
        <ele>388.068</ele>
        <time>2021-10-12T16:33:28Z</time>
      </trkpt>
      <trkpt lat="39.250007" lon="-6.306650">
        <ele>386.114</ele>
        <time>2021-10-12T16:33:30Z</time>
      </trkpt>
      <trkpt lat="39.250279" lon="-6.306788">
        <ele>384.108</ele>
        <time>2021-10-12T16:33:31Z</time>
      </trkpt>
      <trkpt lat="39.250558" lon="-6.306929">
        <ele>384.150</ele>
        <time>2021-10-12T16:33:32Z</time>
      </trkpt>
      <trkpt lat="39.251100" lon="-6.307204">
        <ele>384.018</ele>
        <time>2021-10-12T16:33:34Z</time>
      </trkpt>
      <trkpt lat="39.251654" lon="-6.307488">
        <ele>381.274</ele>
        <time>2021-10-12T16:33:36Z</time>
      </trkpt>
      <trkpt lat="39.251929" lon="-6.307628">
        <ele>381.047</ele>
        <time>2021-10-12T16:33:37Z</time>
      </trkpt>
      <trkpt lat="39.252473" lon="-6.307906">
        <ele>381.013</ele>
        <time>2021-10-12T16:33:39Z</time>
      </trkpt>
      <trkpt lat="39.252748" lon="-6.308046">
        <ele>381.052</ele>
        <time>2021-10-12T16:33:40Z</time>
      </trkpt>
      <trkpt lat="39.253019" lon="-6.308182">
        <ele>380.572</ele>
        <time>2021-10-12T16:33:41Z</time>
      </trkpt>
      <trkpt lat="39.253553" lon="-6.308449">
        <ele>380.583</ele>
        <time>2021-10-12T16:33:43Z</time>
      </trkpt>
      <trkpt lat="39.254081" lon="-6.308713">
        <ele>381.345</ele>
        <time>2021-10-12T16:33:45Z</time>
      </trkpt>
      <trkpt lat="39.254349" lon="-6.308847">
        <ele>381.247</ele>
        <time>2021-10-12T16:33:46Z</time>
      </trkpt>
      <trkpt lat="39.254866" lon="-6.309106">
        <ele>381.511</ele>
        <time>2021-10-12T16:33:48Z</time>
      </trkpt>
      <trkpt lat="39.255130" lon="-6.309236">
        <ele>382.008</ele>
        <time>2021-10-12T16:33:49Z</time>
      </trkpt>
      <trkpt lat="39.255390" lon="-6.309363">
        <ele>382.042</ele>
        <time>2021-10-12T16:33:50Z</time>
      </trkpt>
      <trkpt lat="39.255648" lon="-6.309491">
        <ele>382.320</ele>
        <time>2021-10-12T16:33:51Z</time>
      </trkpt>
      <trkpt lat="39.255903" lon="-6.309621">
        <ele>382.456</ele>
        <time>2021-10-12T16:33:52Z</time>
      </trkpt>
      <trkpt lat="39.256413" lon="-6.309882">
        <ele>380.919</ele>
        <time>2021-10-12T16:33:54Z</time>
      </trkpt>
      <trkpt lat="39.256928" lon="-6.310140">
        <ele>380.545</ele>
        <time>2021-10-12T16:33:56Z</time>
      </trkpt>
      <trkpt lat="39.257431" lon="-6.310392">
        <ele>380.114</ele>
        <time>2021-10-12T16:33:58Z</time>
      </trkpt>
      <trkpt lat="39.257954" lon="-6.310654">
        <ele>379.434</ele>
        <time>2021-10-12T16:34:00Z</time>
      </trkpt>
      <trkpt lat="39.258221" lon="-6.310790">
        <ele>378.265</ele>
        <time>2021-10-12T16:34:01Z</time>
      </trkpt>
      <trkpt lat="39.258496" lon="-6.310931">
        <ele>377.919</ele>
        <time>2021-10-12T16:34:02Z</time>
      </trkpt>
      <trkpt lat="39.259030" lon="-6.311197">
        <ele>378.809</ele>
        <time>2021-10-12T16:34:04Z</time>
      </trkpt>
      <trkpt lat="39.259587" lon="-6.311474">
        <ele>378.319</ele>
        <time>2021-10-12T16:34:06Z</time>
      </trkpt>
      <trkpt lat="39.259869" lon="-6.311617">
        <ele>378.008</ele>
        <time>2021-10-12T16:34:07Z</time>
      </trkpt>
      <trkpt lat="39.260444" lon="-6.311897">
        <ele>376.999</ele>
        <time>2021-10-12T16:34:09Z</time>
      </trkpt>
      <trkpt lat="39.261021" lon="-6.312191">
        <ele>376.357</ele>
        <time>2021-10-12T16:34:11Z</time>
      </trkpt>
      <trkpt lat="39.261315" lon="-6.312333">
        <ele>375.763</ele>
        <time>2021-10-12T16:34:12Z</time>
      </trkpt>
      <trkpt lat="39.261608" lon="-6.312482">
        <ele>375.036</ele>
        <time>2021-10-12T16:34:13Z</time>
      </trkpt>
      <trkpt lat="39.261898" lon="-6.312631">
        <ele>375.052</ele>
        <time>2021-10-12T16:34:14Z</time>
      </trkpt>
      <trkpt lat="39.262472" lon="-6.312926">
        <ele>374.081</ele>
        <time>2021-10-12T16:34:16Z</time>
      </trkpt>
      <trkpt lat="39.262761" lon="-6.313075">
        <ele>373.971</ele>
        <time>2021-10-12T16:34:17Z</time>
      </trkpt>
      <trkpt lat="39.263333" lon="-6.313368">
        <ele>375.132</ele>
        <time>2021-10-12T16:34:19Z</time>
      </trkpt>
      <trkpt lat="39.263906" lon="-6.313660">
        <ele>376.069</ele>
        <time>2021-10-12T16:34:21Z</time>
      </trkpt>
      <trkpt lat="39.264195" lon="-6.313805">
        <ele>376.004</ele>
        <time>2021-10-12T16:34:22Z</time>
      </trkpt>
      <trkpt lat="39.264484" lon="-6.313951">
        <ele>375.624</ele>
        <time>2021-10-12T16:34:23Z</time>
      </trkpt>
      <trkpt lat="39.265059" lon="-6.314240">
        <ele>374.108</ele>
        <time>2021-10-12T16:34:25Z</time>
      </trkpt>
      <trkpt lat="39.265356" lon="-6.314388">
        <ele>375.164</ele>
        <time>2021-10-12T16:34:26Z</time>
      </trkpt>
      <trkpt lat="39.265926" lon="-6.314663">
        <ele>376.772</ele>
        <time>2021-10-12T16:34:28Z</time>
      </trkpt>
      <trkpt lat="39.266505" lon="-6.314953">
        <ele>376.498</ele>
        <time>2021-10-12T16:34:30Z</time>
      </trkpt>
      <trkpt lat="39.266796" lon="-6.315100">
        <ele>378.311</ele>
        <time>2021-10-12T16:34:31Z</time>
      </trkpt>
      <trkpt lat="39.267089" lon="-6.315248">
        <ele>380.427</ele>
        <time>2021-10-12T16:34:32Z</time>
      </trkpt>
      <trkpt lat="39.267641" lon="-6.315528">
        <ele>382.096</ele>
        <time>2021-10-12T16:34:34Z</time>
      </trkpt>
      <trkpt lat="39.268185" lon="-6.315803">
        <ele>383.026</ele>
        <time>2021-10-12T16:34:36Z</time>
      </trkpt>
      <trkpt lat="39.268458" lon="-6.315929">
        <ele>383.487</ele>
        <time>2021-10-12T16:34:37Z</time>
      </trkpt>
      <trkpt lat="39.269015" lon="-6.316103">
        <ele>385.457</ele>
        <time>2021-10-12T16:34:39Z</time>
      </trkpt>
      <trkpt lat="39.269604" lon="-6.316202">
        <ele>384.600</ele>
        <time>2021-10-12T16:34:41Z</time>
      </trkpt>
      <trkpt lat="39.269905" lon="-6.316241">
        <ele>382.720</ele>
        <time>2021-10-12T16:34:42Z</time>
      </trkpt>
      <trkpt lat="39.270521" lon="-6.316325">
        <ele>381.108</ele>
        <time>2021-10-12T16:34:44Z</time>
      </trkpt>
      <trkpt lat="39.271142" lon="-6.316416">
        <ele>380.943</ele>
        <time>2021-10-12T16:34:46Z</time>
      </trkpt>
      <trkpt lat="39.271759" lon="-6.316517">
        <ele>381.491</ele>
        <time>2021-10-12T16:34:48Z</time>
      </trkpt>
      <trkpt lat="39.272380" lon="-6.316605">
        <ele>381.657</ele>
        <time>2021-10-12T16:34:50Z</time>
      </trkpt>
      <trkpt lat="39.273012" lon="-6.316694">
        <ele>381.220</ele>
        <time>2021-10-12T16:34:52Z</time>
      </trkpt>
      <trkpt lat="39.273328" lon="-6.316739">
        <ele>381.086</ele>
        <time>2021-10-12T16:34:53Z</time>
      </trkpt>
      <trkpt lat="39.273949" lon="-6.316826">
        <ele>382.685</ele>
        <time>2021-10-12T16:34:55Z</time>
      </trkpt>
      <trkpt lat="39.274267" lon="-6.316872">
        <ele>383.335</ele>
        <time>2021-10-12T16:34:56Z</time>
      </trkpt>
      <trkpt lat="39.274867" lon="-6.316959">
        <ele>382.966</ele>
        <time>2021-10-12T16:34:58Z</time>
      </trkpt>
      <trkpt lat="39.275173" lon="-6.317005">
        <ele>382.913</ele>
        <time>2021-10-12T16:34:59Z</time>
      </trkpt>
      <trkpt lat="39.275772" lon="-6.317093">
        <ele>384.243</ele>
        <time>2021-10-12T16:35:01Z</time>
      </trkpt>
      <trkpt lat="39.276081" lon="-6.317139">
        <ele>384.307</ele>
        <time>2021-10-12T16:35:02Z</time>
      </trkpt>
      <trkpt lat="39.276665" lon="-6.317226">
        <ele>382.008</ele>
        <time>2021-10-12T16:35:04Z</time>
      </trkpt>
      <trkpt lat="39.276964" lon="-6.317269">
        <ele>382.099</ele>
        <time>2021-10-12T16:35:05Z</time>
      </trkpt>
      <trkpt lat="39.277557" lon="-6.317349">
        <ele>382.377</ele>
        <time>2021-10-12T16:35:07Z</time>
      </trkpt>
      <trkpt lat="39.277854" lon="-6.317393">
        <ele>383.893</ele>
        <time>2021-10-12T16:35:08Z</time>
      </trkpt>
      <trkpt lat="39.278439" lon="-6.317487">
        <ele>385.016</ele>
        <time>2021-10-12T16:35:10Z</time>
      </trkpt>
      <trkpt lat="39.279018" lon="-6.317582">
        <ele>383.262</ele>
        <time>2021-10-12T16:35:12Z</time>
      </trkpt>
      <trkpt lat="39.279313" lon="-6.317625">
        <ele>381.591</ele>
        <time>2021-10-12T16:35:13Z</time>
      </trkpt>
      <trkpt lat="39.279604" lon="-6.317670">
        <ele>380.281</ele>
        <time>2021-10-12T16:35:14Z</time>
      </trkpt>
      <trkpt lat="39.279895" lon="-6.317719">
        <ele>380.042</ele>
        <time>2021-10-12T16:35:15Z</time>
      </trkpt>
      <trkpt lat="39.280494" lon="-6.317805">
        <ele>380.048</ele>
        <time>2021-10-12T16:35:17Z</time>
      </trkpt>
      <trkpt lat="39.281101" lon="-6.317891">
        <ele>379.061</ele>
        <time>2021-10-12T16:35:19Z</time>
      </trkpt>
      <trkpt lat="39.281685" lon="-6.317977">
        <ele>381.117</ele>
        <time>2021-10-12T16:35:21Z</time>
      </trkpt>
      <trkpt lat="39.282239" lon="-6.318060">
        <ele>383.008</ele>
        <time>2021-10-12T16:35:23Z</time>
      </trkpt>
      <trkpt lat="39.282767" lon="-6.318135">
        <ele>384.752</ele>
        <time>2021-10-12T16:35:25Z</time>
      </trkpt>
      <trkpt lat="39.283044" lon="-6.318169">
        <ele>384.640</ele>
        <time>2021-10-12T16:35:26Z</time>
      </trkpt>
      <trkpt lat="39.283551" lon="-6.318235">
        <ele>384.116</ele>
        <time>2021-10-12T16:35:28Z</time>
      </trkpt>
      <trkpt lat="39.283813" lon="-6.318276">
        <ele>384.039</ele>
        <time>2021-10-12T16:35:29Z</time>
      </trkpt>
      <trkpt lat="39.284330" lon="-6.318379">
        <ele>384.055</ele>
        <time>2021-10-12T16:35:31Z</time>
      </trkpt>
      <trkpt lat="39.284588" lon="-6.318454">
        <ele>384.234</ele>
        <time>2021-10-12T16:35:32Z</time>
      </trkpt>
      <trkpt lat="39.285056" lon="-6.318673">
        <ele>385.864</ele>
        <time>2021-10-12T16:35:34Z</time>
      </trkpt>
      <trkpt lat="39.285276" lon="-6.318822">
        <ele>387.095</ele>
        <time>2021-10-12T16:35:35Z</time>
      </trkpt>
      <trkpt lat="39.285470" lon="-6.318985">
        <ele>387.344</ele>
        <time>2021-10-12T16:35:36Z</time>
      </trkpt>
      <trkpt lat="39.285789" lon="-6.319326">
        <ele>388.605</ele>
        <time>2021-10-12T16:35:38Z</time>
      </trkpt>
      <trkpt lat="39.286061" lon="-6.319632">
        <ele>389.815</ele>
        <time>2021-10-12T16:35:40Z</time>
      </trkpt>
      <trkpt lat="39.286192" lon="-6.319770">
        <ele>390.708</ele>
        <time>2021-10-12T16:35:41Z</time>
      </trkpt>
      <trkpt lat="39.286321" lon="-6.319901">
        <ele>391.742</ele>
        <time>2021-10-12T16:35:42Z</time>
      </trkpt>
      <trkpt lat="39.286572" lon="-6.320149">
        <ele>393.230</ele>
        <time>2021-10-12T16:35:44Z</time>
      </trkpt>
      <trkpt lat="39.286697" lon="-6.320271">
        <ele>394.056</ele>
        <time>2021-10-12T16:35:45Z</time>
      </trkpt>
      <trkpt lat="39.286826" lon="-6.320388">
        <ele>394.029</ele>
        <time>2021-10-12T16:35:46Z</time>
      </trkpt>
      <trkpt lat="39.286958" lon="-6.320504">
        <ele>394.065</ele>
        <time>2021-10-12T16:35:47Z</time>
      </trkpt>
      <trkpt lat="39.287236" lon="-6.320740">
        <ele>395.184</ele>
        <time>2021-10-12T16:35:49Z</time>
      </trkpt>
      <trkpt lat="39.287382" lon="-6.320864">
        <ele>395.614</ele>
        <time>2021-10-12T16:35:50Z</time>
      </trkpt>
      <trkpt lat="39.287531" lon="-6.320990">
        <ele>396.085</ele>
        <time>2021-10-12T16:35:51Z</time>
      </trkpt>
      <trkpt lat="39.287837" lon="-6.321250">
        <ele>395.569</ele>
        <time>2021-10-12T16:35:53Z</time>
      </trkpt>
      <trkpt lat="39.288160" lon="-6.321523">
        <ele>394.904</ele>
        <time>2021-10-12T16:35:55Z</time>
      </trkpt>
      <trkpt lat="39.288341" lon="-6.321669">
        <ele>395.024</ele>
        <time>2021-10-12T16:35:56Z</time>
      </trkpt>
      <trkpt lat="39.288730" lon="-6.321944">
        <ele>396.408</ele>
        <time>2021-10-12T16:35:58Z</time>
      </trkpt>
      <trkpt lat="39.288939" lon="-6.322057">
        <ele>396.714</ele>
        <time>2021-10-12T16:35:59Z</time>
      </trkpt>
      <trkpt lat="39.289413" lon="-6.322219">
        <ele>395.122</ele>
        <time>2021-10-12T16:36:01Z</time>
      </trkpt>
      <trkpt lat="39.289670" lon="-6.322283">
        <ele>394.128</ele>
        <time>2021-10-12T16:36:02Z</time>
      </trkpt>
      <trkpt lat="39.290193" lon="-6.322403">
        <ele>396.551</ele>
        <time>2021-10-12T16:36:04Z</time>
      </trkpt>
      <trkpt lat="39.290727" lon="-6.322525">
        <ele>396.937</ele>
        <time>2021-10-12T16:36:06Z</time>
      </trkpt>
      <trkpt lat="39.291285" lon="-6.322660">
        <ele>395.266</ele>
        <time>2021-10-12T16:36:08Z</time>
      </trkpt>
      <trkpt lat="39.291577" lon="-6.322732">
        <ele>395.186</ele>
        <time>2021-10-12T16:36:09Z</time>
      </trkpt>
      <trkpt lat="39.292165" lon="-6.322875">
        <ele>397.317</ele>
        <time>2021-10-12T16:36:11Z</time>
      </trkpt>
      <trkpt lat="39.292761" lon="-6.323016">
        <ele>395.273</ele>
        <time>2021-10-12T16:36:13Z</time>
      </trkpt>
      <trkpt lat="39.293356" lon="-6.323157">
        <ele>394.485</ele>
        <time>2021-10-12T16:36:15Z</time>
      </trkpt>
      <trkpt lat="39.293655" lon="-6.323228">
        <ele>395.113</ele>
        <time>2021-10-12T16:36:16Z</time>
      </trkpt>
      <trkpt lat="39.294247" lon="-6.323368">
        <ele>396.908</ele>
        <time>2021-10-12T16:36:18Z</time>
      </trkpt>
      <trkpt lat="39.294828" lon="-6.323502">
        <ele>398.075</ele>
        <time>2021-10-12T16:36:20Z</time>
      </trkpt>
      <trkpt lat="39.295120" lon="-6.323569">
        <ele>399.453</ele>
        <time>2021-10-12T16:36:21Z</time>
      </trkpt>
      <trkpt lat="39.295683" lon="-6.323696">
        <ele>400.799</ele>
        <time>2021-10-12T16:36:23Z</time>
      </trkpt>
      <trkpt lat="39.295964" lon="-6.323763">
        <ele>400.852</ele>
        <time>2021-10-12T16:36:24Z</time>
      </trkpt>
      <trkpt lat="39.296244" lon="-6.323830">
        <ele>401.528</ele>
        <time>2021-10-12T16:36:25Z</time>
      </trkpt>
      <trkpt lat="39.296535" lon="-6.323899">
        <ele>402.577</ele>
        <time>2021-10-12T16:36:26Z</time>
      </trkpt>
      <trkpt lat="39.297103" lon="-6.324026">
        <ele>402.477</ele>
        <time>2021-10-12T16:36:28Z</time>
      </trkpt>
      <trkpt lat="39.297689" lon="-6.324166">
        <ele>399.058</ele>
        <time>2021-10-12T16:36:30Z</time>
      </trkpt>
      <trkpt lat="39.297983" lon="-6.324237">
        <ele>399.061</ele>
        <time>2021-10-12T16:36:31Z</time>
      </trkpt>
      <trkpt lat="39.298286" lon="-6.324309">
        <ele>399.421</ele>
        <time>2021-10-12T16:36:32Z</time>
      </trkpt>
      <trkpt lat="39.298863" lon="-6.324446">
        <ele>401.813</ele>
        <time>2021-10-12T16:36:34Z</time>
      </trkpt>
      <trkpt lat="39.299457" lon="-6.324588">
        <ele>406.508</ele>
        <time>2021-10-12T16:36:36Z</time>
      </trkpt>
      <trkpt lat="39.299755" lon="-6.324660">
        <ele>407.074</ele>
        <time>2021-10-12T16:36:37Z</time>
      </trkpt>
      <trkpt lat="39.300342" lon="-6.324811">
        <ele>408.022</ele>
        <time>2021-10-12T16:36:39Z</time>
      </trkpt>
      <trkpt lat="39.300636" lon="-6.324882">
        <ele>409.398</ele>
        <time>2021-10-12T16:36:40Z</time>
      </trkpt>
      <trkpt lat="39.301219" lon="-6.325018">
        <ele>410.141</ele>
        <time>2021-10-12T16:36:42Z</time>
      </trkpt>
      <trkpt lat="39.301798" lon="-6.325148">
        <ele>411.747</ele>
        <time>2021-10-12T16:36:44Z</time>
      </trkpt>
      <trkpt lat="39.302088" lon="-6.325215">
        <ele>413.816</ele>
        <time>2021-10-12T16:36:45Z</time>
      </trkpt>
      <trkpt lat="39.302375" lon="-6.325282">
        <ele>415.626</ele>
        <time>2021-10-12T16:36:46Z</time>
      </trkpt>
      <trkpt lat="39.302942" lon="-6.325427">
        <ele>416.267</ele>
        <time>2021-10-12T16:36:48Z</time>
      </trkpt>
      <trkpt lat="39.303493" lon="-6.325642">
        <ele>415.748</ele>
        <time>2021-10-12T16:36:50Z</time>
      </trkpt>
      <trkpt lat="39.304020" lon="-6.325973">
        <ele>414.261</ele>
        <time>2021-10-12T16:36:52Z</time>
      </trkpt>
      <trkpt lat="39.304283" lon="-6.326154">
        <ele>412.517</ele>
        <time>2021-10-12T16:36:53Z</time>
      </trkpt>
      <trkpt lat="39.304810" lon="-6.326500">
        <ele>410.208</ele>
        <time>2021-10-12T16:36:55Z</time>
      </trkpt>
      <trkpt lat="39.305092" lon="-6.326666">
        <ele>409.342</ele>
        <time>2021-10-12T16:36:56Z</time>
      </trkpt>
      <trkpt lat="39.305652" lon="-6.326911">
        <ele>406.410</ele>
        <time>2021-10-12T16:36:58Z</time>
      </trkpt>
      <trkpt lat="39.306245" lon="-6.327083">
        <ele>403.516</ele>
        <time>2021-10-12T16:37:00Z</time>
      </trkpt>
      <trkpt lat="39.306551" lon="-6.327133">
        <ele>403.349</ele>
        <time>2021-10-12T16:37:01Z</time>
      </trkpt>
      <trkpt lat="39.306865" lon="-6.327164">
        <ele>403.115</ele>
        <time>2021-10-12T16:37:02Z</time>
      </trkpt>
      <trkpt lat="39.307465" lon="-6.327168">
        <ele>403.254</ele>
        <time>2021-10-12T16:37:04Z</time>
      </trkpt>
      <trkpt lat="39.308069" lon="-6.327102">
        <ele>405.934</ele>
        <time>2021-10-12T16:37:06Z</time>
      </trkpt>
      <trkpt lat="39.308366" lon="-6.327059">
        <ele>407.275</ele>
        <time>2021-10-12T16:37:07Z</time>
      </trkpt>
      <trkpt lat="39.308955" lon="-6.326977">
        <ele>404.554</ele>
        <time>2021-10-12T16:37:09Z</time>
      </trkpt>
      <trkpt lat="39.309251" lon="-6.326940">
        <ele>404.356</ele>
        <time>2021-10-12T16:37:10Z</time>
      </trkpt>
      <trkpt lat="39.309545" lon="-6.326904">
        <ele>404.911</ele>
        <time>2021-10-12T16:37:11Z</time>
      </trkpt>
      <trkpt lat="39.310138" lon="-6.326830">
        <ele>402.508</ele>
        <time>2021-10-12T16:37:13Z</time>
      </trkpt>
      <trkpt lat="39.310443" lon="-6.326792">
        <ele>402.093</ele>
        <time>2021-10-12T16:37:14Z</time>
      </trkpt>
      <trkpt lat="39.310751" lon="-6.326754">
        <ele>402.521</ele>
        <time>2021-10-12T16:37:15Z</time>
      </trkpt>
      <trkpt lat="39.311362" lon="-6.326679">
        <ele>404.977</ele>
        <time>2021-10-12T16:37:17Z</time>
      </trkpt>
      <trkpt lat="39.311670" lon="-6.326641">
        <ele>405.110</ele>
        <time>2021-10-12T16:37:18Z</time>
      </trkpt>
      <trkpt lat="39.312289" lon="-6.326561">
        <ele>405.226</ele>
        <time>2021-10-12T16:37:20Z</time>
      </trkpt>
      <trkpt lat="39.312596" lon="-6.326515">
        <ele>407.675</ele>
        <time>2021-10-12T16:37:21Z</time>
      </trkpt>
      <trkpt lat="39.313201" lon="-6.326437">
        <ele>409.025</ele>
        <time>2021-10-12T16:37:23Z</time>
      </trkpt>
      <trkpt lat="39.313505" lon="-6.326406">
        <ele>409.016</ele>
        <time>2021-10-12T16:37:24Z</time>
      </trkpt>
      <trkpt lat="39.314107" lon="-6.326334">
        <ele>410.913</ele>
        <time>2021-10-12T16:37:26Z</time>
      </trkpt>
      <trkpt lat="39.314685" lon="-6.326273">
        <ele>414.643</ele>
        <time>2021-10-12T16:37:28Z</time>
      </trkpt>
      <trkpt lat="39.315268" lon="-6.326197">
        <ele>415.707</ele>
        <time>2021-10-12T16:37:30Z</time>
      </trkpt>
      <trkpt lat="39.315556" lon="-6.326153">
        <ele>416.008</ele>
        <time>2021-10-12T16:37:31Z</time>
      </trkpt>
      <trkpt lat="39.315852" lon="-6.326110">
        <ele>416.129</ele>
        <time>2021-10-12T16:37:32Z</time>
      </trkpt>
      <trkpt lat="39.316426" lon="-6.326053">
        <ele>418.427</ele>
        <time>2021-10-12T16:37:34Z</time>
      </trkpt>
      <trkpt lat="39.317003" lon="-6.326091">
        <ele>420.173</ele>
        <time>2021-10-12T16:37:36Z</time>
      </trkpt>
      <trkpt lat="39.317292" lon="-6.326155">
        <ele>420.196</ele>
        <time>2021-10-12T16:37:37Z</time>
      </trkpt>
      <trkpt lat="39.317581" lon="-6.326239">
        <ele>420.032</ele>
        <time>2021-10-12T16:37:38Z</time>
      </trkpt>
      <trkpt lat="39.318164" lon="-6.326399">
        <ele>419.621</ele>
        <time>2021-10-12T16:37:40Z</time>
      </trkpt>
      <trkpt lat="39.318463" lon="-6.326478">
        <ele>419.141</ele>
        <time>2021-10-12T16:37:41Z</time>
      </trkpt>
      <trkpt lat="39.319068" lon="-6.326638">
        <ele>418.912</ele>
        <time>2021-10-12T16:37:43Z</time>
      </trkpt>
      <trkpt lat="39.319378" lon="-6.326719">
        <ele>419.217</ele>
        <time>2021-10-12T16:37:44Z</time>
      </trkpt>
      <trkpt lat="39.319991" lon="-6.326881">
        <ele>416.187</ele>
        <time>2021-10-12T16:37:46Z</time>
      </trkpt>
      <trkpt lat="39.320607" lon="-6.327053">
        <ele>415.315</ele>
        <time>2021-10-12T16:37:48Z</time>
      </trkpt>
      <trkpt lat="39.320916" lon="-6.327133">
        <ele>415.008</ele>
        <time>2021-10-12T16:37:49Z</time>
      </trkpt>
      <trkpt lat="39.321528" lon="-6.327293">
        <ele>414.469</ele>
        <time>2021-10-12T16:37:51Z</time>
      </trkpt>
      <trkpt lat="39.322130" lon="-6.327453">
        <ele>414.297</ele>
        <time>2021-10-12T16:37:53Z</time>
      </trkpt>
      <trkpt lat="39.322727" lon="-6.327612">
        <ele>414.443</ele>
        <time>2021-10-12T16:37:55Z</time>
      </trkpt>
      <trkpt lat="39.323032" lon="-6.327692">
        <ele>415.296</ele>
        <time>2021-10-12T16:37:56Z</time>
      </trkpt>
      <trkpt lat="39.323607" lon="-6.327842">
        <ele>417.082</ele>
        <time>2021-10-12T16:37:58Z</time>
      </trkpt>
      <trkpt lat="39.324193" lon="-6.327990">
        <ele>417.811</ele>
        <time>2021-10-12T16:38:00Z</time>
      </trkpt>
      <trkpt lat="39.324790" lon="-6.328147">
        <ele>415.921</ele>
        <time>2021-10-12T16:38:02Z</time>
      </trkpt>
      <trkpt lat="39.325371" lon="-6.328310">
        <ele>416.482</ele>
        <time>2021-10-12T16:38:04Z</time>
      </trkpt>
      <trkpt lat="39.325952" lon="-6.328465">
        <ele>416.047</ele>
        <time>2021-10-12T16:38:06Z</time>
      </trkpt>
      <trkpt lat="39.326243" lon="-6.328543">
        <ele>416.629</ele>
        <time>2021-10-12T16:38:07Z</time>
      </trkpt>
      <trkpt lat="39.326527" lon="-6.328619">
        <ele>417.521</ele>
        <time>2021-10-12T16:38:08Z</time>
      </trkpt>
      <trkpt lat="39.327040" lon="-6.328755">
        <ele>417.308</ele>
        <time>2021-10-12T16:38:10Z</time>
      </trkpt>
      <trkpt lat="39.327280" lon="-6.328818">
        <ele>417.112</ele>
        <time>2021-10-12T16:38:11Z</time>
      </trkpt>
      <trkpt lat="39.327511" lon="-6.328880">
        <ele>417.020</ele>
        <time>2021-10-12T16:38:12Z</time>
      </trkpt>
      <trkpt lat="39.327743" lon="-6.328944">
        <ele>417.036</ele>
        <time>2021-10-12T16:38:13Z</time>
      </trkpt>
      <trkpt lat="39.328216" lon="-6.329084">
        <ele>417.049</ele>
        <time>2021-10-12T16:38:15Z</time>
      </trkpt>
      <trkpt lat="39.328471" lon="-6.329149">
        <ele>416.545</ele>
        <time>2021-10-12T16:38:16Z</time>
      </trkpt>
      <trkpt lat="39.328741" lon="-6.329219">
        <ele>415.514</ele>
        <time>2021-10-12T16:38:17Z</time>
      </trkpt>
      <trkpt lat="39.329314" lon="-6.329378">
        <ele>415.684</ele>
        <time>2021-10-12T16:38:19Z</time>
      </trkpt>
      <trkpt lat="39.329614" lon="-6.329466">
        <ele>414.375</ele>
        <time>2021-10-12T16:38:20Z</time>
      </trkpt>
      <trkpt lat="39.330231" lon="-6.329632">
        <ele>412.942</ele>
        <time>2021-10-12T16:38:22Z</time>
      </trkpt>
      <trkpt lat="39.330546" lon="-6.329699">
        <ele>413.022</ele>
        <time>2021-10-12T16:38:23Z</time>
      </trkpt>
      <trkpt lat="39.330861" lon="-6.329769">
        <ele>412.314</ele>
        <time>2021-10-12T16:38:24Z</time>
      </trkpt>
      <trkpt lat="39.331492" lon="-6.329932">
        <ele>411.808</ele>
        <time>2021-10-12T16:38:26Z</time>
      </trkpt>
      <trkpt lat="39.332095" lon="-6.330092">
        <ele>411.352</ele>
        <time>2021-10-12T16:38:28Z</time>
      </trkpt>
      <trkpt lat="39.332401" lon="-6.330173">
        <ele>411.250</ele>
        <time>2021-10-12T16:38:29Z</time>
      </trkpt>
      <trkpt lat="39.332704" lon="-6.330254">
        <ele>411.156</ele>
        <time>2021-10-12T16:38:30Z</time>
      </trkpt>
      <trkpt lat="39.333304" lon="-6.330418">
        <ele>410.979</ele>
        <time>2021-10-12T16:38:32Z</time>
      </trkpt>
      <trkpt lat="39.333889" lon="-6.330569">
        <ele>411.045</ele>
        <time>2021-10-12T16:38:34Z</time>
      </trkpt>
      <trkpt lat="39.334485" lon="-6.330716">
        <ele>411.694</ele>
        <time>2021-10-12T16:38:36Z</time>
      </trkpt>
      <trkpt lat="39.335073" lon="-6.330871">
        <ele>413.854</ele>
        <time>2021-10-12T16:38:38Z</time>
      </trkpt>
      <trkpt lat="39.335368" lon="-6.330949">
        <ele>413.695</ele>
        <time>2021-10-12T16:38:39Z</time>
      </trkpt>
      <trkpt lat="39.335663" lon="-6.331027">
        <ele>413.361</ele>
        <time>2021-10-12T16:38:40Z</time>
      </trkpt>
      <trkpt lat="39.336243" lon="-6.331181">
        <ele>414.521</ele>
        <time>2021-10-12T16:38:42Z</time>
      </trkpt>
      <trkpt lat="39.336533" lon="-6.331258">
        <ele>413.513</ele>
        <time>2021-10-12T16:38:43Z</time>
      </trkpt>
      <trkpt lat="39.337102" lon="-6.331407">
        <ele>412.908</ele>
        <time>2021-10-12T16:38:45Z</time>
      </trkpt>
      <trkpt lat="39.337669" lon="-6.331556">
        <ele>413.874</ele>
        <time>2021-10-12T16:38:47Z</time>
      </trkpt>
      <trkpt lat="39.337951" lon="-6.331629">
        <ele>414.022</ele>
        <time>2021-10-12T16:38:48Z</time>
      </trkpt>
      <trkpt lat="39.338497" lon="-6.331773">
        <ele>413.498</ele>
        <time>2021-10-12T16:38:50Z</time>
      </trkpt>
      <trkpt lat="39.338767" lon="-6.331844">
        <ele>414.461</ele>
        <time>2021-10-12T16:38:51Z</time>
      </trkpt>
      <trkpt lat="39.339302" lon="-6.331984">
        <ele>416.567</ele>
        <time>2021-10-12T16:38:53Z</time>
      </trkpt>
      <trkpt lat="39.339816" lon="-6.332117">
        <ele>419.746</ele>
        <time>2021-10-12T16:38:55Z</time>
      </trkpt>
      <trkpt lat="39.340075" lon="-6.332184">
        <ele>421.016</ele>
        <time>2021-10-12T16:38:56Z</time>
      </trkpt>
      <trkpt lat="39.340551" lon="-6.332310">
        <ele>420.067</ele>
        <time>2021-10-12T16:38:58Z</time>
      </trkpt>
      <trkpt lat="39.341039" lon="-6.332439">
        <ele>419.122</ele>
        <time>2021-10-12T16:39:00Z</time>
      </trkpt>
      <trkpt lat="39.341537" lon="-6.332571">
        <ele>417.662</ele>
        <time>2021-10-12T16:39:02Z</time>
      </trkpt>
      <trkpt lat="39.342010" lon="-6.332697">
        <ele>416.808</ele>
        <time>2021-10-12T16:39:04Z</time>
      </trkpt>
      <trkpt lat="39.342240" lon="-6.332758">
        <ele>415.908</ele>
        <time>2021-10-12T16:39:05Z</time>
      </trkpt>
      <trkpt lat="39.342689" lon="-6.332883">
        <ele>414.690</ele>
        <time>2021-10-12T16:39:07Z</time>
      </trkpt>
      <trkpt lat="39.342919" lon="-6.332952">
        <ele>413.998</ele>
        <time>2021-10-12T16:39:08Z</time>
      </trkpt>
      <trkpt lat="39.343383" lon="-6.333120">
        <ele>412.074</ele>
        <time>2021-10-12T16:39:10Z</time>
      </trkpt>
      <trkpt lat="39.343845" lon="-6.333324">
        <ele>411.067</ele>
        <time>2021-10-12T16:39:12Z</time>
      </trkpt>
      <trkpt lat="39.344063" lon="-6.333435">
        <ele>410.873</ele>
        <time>2021-10-12T16:39:13Z</time>
      </trkpt>
      <trkpt lat="39.344269" lon="-6.333544">
        <ele>410.012</ele>
        <time>2021-10-12T16:39:14Z</time>
      </trkpt>
      <trkpt lat="39.344466" lon="-6.333650">
        <ele>408.952</ele>
        <time>2021-10-12T16:39:15Z</time>
      </trkpt>
      <trkpt lat="39.344839" lon="-6.333850">
        <ele>408.293</ele>
        <time>2021-10-12T16:39:17Z</time>
      </trkpt>
      <trkpt lat="39.345190" lon="-6.334036">
        <ele>407.857</ele>
        <time>2021-10-12T16:39:19Z</time>
      </trkpt>
      <trkpt lat="39.345520" lon="-6.334213">
        <ele>406.700</ele>
        <time>2021-10-12T16:39:21Z</time>
      </trkpt>
      <trkpt lat="39.345679" lon="-6.334302">
        <ele>404.720</ele>
        <time>2021-10-12T16:39:22Z</time>
      </trkpt>
      <trkpt lat="39.346003" lon="-6.334477">
        <ele>401.908</ele>
        <time>2021-10-12T16:39:24Z</time>
      </trkpt>
      <trkpt lat="39.346172" lon="-6.334567">
        <ele>401.363</ele>
        <time>2021-10-12T16:39:25Z</time>
      </trkpt>
      <trkpt lat="39.346350" lon="-6.334664">
        <ele>400.461</ele>
        <time>2021-10-12T16:39:26Z</time>
      </trkpt>
      <trkpt lat="39.346707" lon="-6.334860">
        <ele>398.377</ele>
        <time>2021-10-12T16:39:28Z</time>
      </trkpt>
      <trkpt lat="39.347081" lon="-6.335064">
        <ele>396.460</ele>
        <time>2021-10-12T16:39:30Z</time>
      </trkpt>
      <trkpt lat="39.347434" lon="-6.335245">
        <ele>395.396</ele>
        <time>2021-10-12T16:39:32Z</time>
      </trkpt>
      <trkpt lat="39.347771" lon="-6.335424">
        <ele>395.515</ele>
        <time>2021-10-12T16:39:34Z</time>
      </trkpt>
      <trkpt lat="39.347949" lon="-6.335524">
        <ele>395.385</ele>
        <time>2021-10-12T16:39:35Z</time>
      </trkpt>
      <trkpt lat="39.348131" lon="-6.335624">
        <ele>395.276</ele>
        <time>2021-10-12T16:39:36Z</time>
      </trkpt>
      <trkpt lat="39.348315" lon="-6.335718">
        <ele>394.723</ele>
        <time>2021-10-12T16:39:37Z</time>
      </trkpt>
      <trkpt lat="39.348637" lon="-6.335870">
        <ele>395.383</ele>
        <time>2021-10-12T16:39:39Z</time>
      </trkpt>
      <trkpt lat="39.348912" lon="-6.335987">
        <ele>396.011</ele>
        <time>2021-10-12T16:39:41Z</time>
      </trkpt>
      <trkpt lat="39.349056" lon="-6.336043">
        <ele>395.508</ele>
        <time>2021-10-12T16:39:42Z</time>
      </trkpt>
      <trkpt lat="39.349358" lon="-6.336155">
        <ele>393.750</ele>
        <time>2021-10-12T16:39:44Z</time>
      </trkpt>
      <trkpt lat="39.349672" lon="-6.336259">
        <ele>393.178</ele>
        <time>2021-10-12T16:39:46Z</time>
      </trkpt>
      <trkpt lat="39.349994" lon="-6.336361">
        <ele>393.874</ele>
        <time>2021-10-12T16:39:48Z</time>
      </trkpt>
      <trkpt lat="39.350337" lon="-6.336488">
        <ele>393.097</ele>
        <time>2021-10-12T16:39:50Z</time>
      </trkpt>
      <trkpt lat="39.350520" lon="-6.336553">
        <ele>393.393</ele>
        <time>2021-10-12T16:39:51Z</time>
      </trkpt>
      <trkpt lat="39.350920" lon="-6.336687">
        <ele>395.162</ele>
        <time>2021-10-12T16:39:53Z</time>
      </trkpt>
      <trkpt lat="39.351342" lon="-6.336832">
        <ele>394.222</ele>
        <time>2021-10-12T16:39:55Z</time>
      </trkpt>
      <trkpt lat="39.351555" lon="-6.336908">
        <ele>393.443</ele>
        <time>2021-10-12T16:39:56Z</time>
      </trkpt>
      <trkpt lat="39.351957" lon="-6.337047">
        <ele>391.051</ele>
        <time>2021-10-12T16:39:58Z</time>
      </trkpt>
      <trkpt lat="39.352384" lon="-6.337193">
        <ele>390.901</ele>
        <time>2021-10-12T16:40:00Z</time>
      </trkpt>
      <trkpt lat="39.352827" lon="-6.337342">
        <ele>390.711</ele>
        <time>2021-10-12T16:40:02Z</time>
      </trkpt>
      <trkpt lat="39.353270" lon="-6.337490">
        <ele>390.708</ele>
        <time>2021-10-12T16:40:04Z</time>
      </trkpt>
      <trkpt lat="39.353507" lon="-6.337574">
        <ele>391.223</ele>
        <time>2021-10-12T16:40:05Z</time>
      </trkpt>
      <trkpt lat="39.353997" lon="-6.337748">
        <ele>388.131</ele>
        <time>2021-10-12T16:40:07Z</time>
      </trkpt>
      <trkpt lat="39.354252" lon="-6.337838">
        <ele>386.297</ele>
        <time>2021-10-12T16:40:08Z</time>
      </trkpt>
      <trkpt lat="39.354511" lon="-6.337924">
        <ele>384.670</ele>
        <time>2021-10-12T16:40:09Z</time>
      </trkpt>
      <trkpt lat="39.355044" lon="-6.338093">
        <ele>386.356</ele>
        <time>2021-10-12T16:40:11Z</time>
      </trkpt>
      <trkpt lat="39.355598" lon="-6.338194">
        <ele>385.815</ele>
        <time>2021-10-12T16:40:13Z</time>
      </trkpt>
      <trkpt lat="39.355886" lon="-6.338188">
        <ele>384.315</ele>
        <time>2021-10-12T16:40:14Z</time>
      </trkpt>
      <trkpt lat="39.356168" lon="-6.338141">
        <ele>383.896</ele>
        <time>2021-10-12T16:40:15Z</time>
      </trkpt>
      <trkpt lat="39.356721" lon="-6.337946">
        <ele>385.972</ele>
        <time>2021-10-12T16:40:17Z</time>
      </trkpt>
      <trkpt lat="39.357264" lon="-6.337714">
        <ele>387.413</ele>
        <time>2021-10-12T16:40:19Z</time>
      </trkpt>
      <trkpt lat="39.357545" lon="-6.337625">
        <ele>388.714</ele>
        <time>2021-10-12T16:40:20Z</time>
      </trkpt>
      <trkpt lat="39.358118" lon="-6.337549">
        <ele>391.208</ele>
        <time>2021-10-12T16:40:22Z</time>
      </trkpt>
      <trkpt lat="39.358676" lon="-6.337622">
        <ele>391.765</ele>
        <time>2021-10-12T16:40:24Z</time>
      </trkpt>
      <trkpt lat="39.358935" lon="-6.337719">
        <ele>390.253</ele>
        <time>2021-10-12T16:40:25Z</time>
      </trkpt>
      <trkpt lat="39.359191" lon="-6.337842">
        <ele>390.179</ele>
        <time>2021-10-12T16:40:26Z</time>
      </trkpt>
      <trkpt lat="39.359641" lon="-6.338171">
        <ele>391.852</ele>
        <time>2021-10-12T16:40:28Z</time>
      </trkpt>
      <trkpt lat="39.360060" lon="-6.338598">
        <ele>390.848</ele>
        <time>2021-10-12T16:40:30Z</time>
      </trkpt>
      <trkpt lat="39.360266" lon="-6.338835">
        <ele>390.037</ele>
        <time>2021-10-12T16:40:31Z</time>
      </trkpt>
      <trkpt lat="39.360476" lon="-6.339079">
        <ele>389.877</ele>
        <time>2021-10-12T16:40:32Z</time>
      </trkpt>
      <trkpt lat="39.360874" lon="-6.339534">
        <ele>387.958</ele>
        <time>2021-10-12T16:40:34Z</time>
      </trkpt>
      <trkpt lat="39.361080" lon="-6.339764">
        <ele>387.193</ele>
        <time>2021-10-12T16:40:35Z</time>
      </trkpt>
      <trkpt lat="39.361505" lon="-6.340182">
        <ele>385.665</ele>
        <time>2021-10-12T16:40:37Z</time>
      </trkpt>
      <trkpt lat="39.361964" lon="-6.340503">
        <ele>383.921</ele>
        <time>2021-10-12T16:40:39Z</time>
      </trkpt>
      <trkpt lat="39.362208" lon="-6.340617">
        <ele>383.108</ele>
        <time>2021-10-12T16:40:40Z</time>
      </trkpt>
      <trkpt lat="39.362711" lon="-6.340788">
        <ele>382.837</ele>
        <time>2021-10-12T16:40:42Z</time>
      </trkpt>
      <trkpt lat="39.362967" lon="-6.340860">
        <ele>382.525</ele>
        <time>2021-10-12T16:40:43Z</time>
      </trkpt>
      <trkpt lat="39.363477" lon="-6.341025">
        <ele>380.721</ele>
        <time>2021-10-12T16:40:45Z</time>
      </trkpt>
      <trkpt lat="39.363735" lon="-6.341116">
        <ele>379.174</ele>
        <time>2021-10-12T16:40:46Z</time>
      </trkpt>
      <trkpt lat="39.364257" lon="-6.341298">
        <ele>376.540</ele>
        <time>2021-10-12T16:40:48Z</time>
      </trkpt>
      <trkpt lat="39.364521" lon="-6.341390">
        <ele>375.719</ele>
        <time>2021-10-12T16:40:49Z</time>
      </trkpt>
      <trkpt lat="39.365051" lon="-6.341569">
        <ele>373.879</ele>
        <time>2021-10-12T16:40:51Z</time>
      </trkpt>
      <trkpt lat="39.365324" lon="-6.341659">
        <ele>372.810</ele>
        <time>2021-10-12T16:40:52Z</time>
      </trkpt>
      <trkpt lat="39.365881" lon="-6.341848">
        <ele>371.234</ele>
        <time>2021-10-12T16:40:54Z</time>
      </trkpt>
      <trkpt lat="39.366450" lon="-6.342053">
        <ele>370.955</ele>
        <time>2021-10-12T16:40:56Z</time>
      </trkpt>
      <trkpt lat="39.367000" lon="-6.342248">
        <ele>368.910</ele>
        <time>2021-10-12T16:40:58Z</time>
      </trkpt>
      <trkpt lat="39.367560" lon="-6.342436">
        <ele>368.808</ele>
        <time>2021-10-12T16:41:00Z</time>
      </trkpt>
      <trkpt lat="39.368120" lon="-6.342632">
        <ele>371.511</ele>
        <time>2021-10-12T16:41:02Z</time>
      </trkpt>
      <trkpt lat="39.368656" lon="-6.342821">
        <ele>373.869</ele>
        <time>2021-10-12T16:41:04Z</time>
      </trkpt>
      <trkpt lat="39.368928" lon="-6.342912">
        <ele>373.435</ele>
        <time>2021-10-12T16:41:05Z</time>
      </trkpt>
      <trkpt lat="39.369201" lon="-6.343008">
        <ele>373.078</ele>
        <time>2021-10-12T16:41:06Z</time>
      </trkpt>
      <trkpt lat="39.369744" lon="-6.343187">
        <ele>373.654</ele>
        <time>2021-10-12T16:41:08Z</time>
      </trkpt>
      <trkpt lat="39.370298" lon="-6.343377">
        <ele>375.173</ele>
        <time>2021-10-12T16:41:10Z</time>
      </trkpt>
      <trkpt lat="39.370858" lon="-6.343568">
        <ele>375.333</ele>
        <time>2021-10-12T16:41:12Z</time>
      </trkpt>
      <trkpt lat="39.371140" lon="-6.343668">
        <ele>375.174</ele>
        <time>2021-10-12T16:41:13Z</time>
      </trkpt>
      <trkpt lat="39.371717" lon="-6.343862">
        <ele>378.417</ele>
        <time>2021-10-12T16:41:15Z</time>
      </trkpt>
      <trkpt lat="39.372010" lon="-6.343961">
        <ele>379.887</ele>
        <time>2021-10-12T16:41:16Z</time>
      </trkpt>
      <trkpt lat="39.372605" lon="-6.344163">
        <ele>379.015</ele>
        <time>2021-10-12T16:41:18Z</time>
      </trkpt>
      <trkpt lat="39.373195" lon="-6.344375">
        <ele>379.808</ele>
        <time>2021-10-12T16:41:20Z</time>
      </trkpt>
      <trkpt lat="39.373774" lon="-6.344581">
        <ele>379.099</ele>
        <time>2021-10-12T16:41:22Z</time>
      </trkpt>
      <trkpt lat="39.374337" lon="-6.344779">
        <ele>379.957</ele>
        <time>2021-10-12T16:41:24Z</time>
      </trkpt>
      <trkpt lat="39.374911" lon="-6.344976">
        <ele>382.253</ele>
        <time>2021-10-12T16:41:26Z</time>
      </trkpt>
      <trkpt lat="39.375462" lon="-6.345160">
        <ele>383.356</ele>
        <time>2021-10-12T16:41:28Z</time>
      </trkpt>
      <trkpt lat="39.376015" lon="-6.345355">
        <ele>383.052</ele>
        <time>2021-10-12T16:41:30Z</time>
      </trkpt>
      <trkpt lat="39.376564" lon="-6.345538">
        <ele>385.631</ele>
        <time>2021-10-12T16:41:32Z</time>
      </trkpt>
      <trkpt lat="39.377092" lon="-6.345719">
        <ele>387.661</ele>
        <time>2021-10-12T16:41:34Z</time>
      </trkpt>
      <trkpt lat="39.377351" lon="-6.345812">
        <ele>386.692</ele>
        <time>2021-10-12T16:41:35Z</time>
      </trkpt>
      <trkpt lat="39.377817" lon="-6.345974">
        <ele>386.151</ele>
        <time>2021-10-12T16:41:37Z</time>
      </trkpt>
      <trkpt lat="39.378020" lon="-6.346042">
        <ele>386.701</ele>
        <time>2021-10-12T16:41:38Z</time>
      </trkpt>
      <trkpt lat="39.378206" lon="-6.346107">
        <ele>387.011</ele>
        <time>2021-10-12T16:41:39Z</time>
      </trkpt>
      <trkpt lat="39.378566" lon="-6.346223">
        <ele>387.108</ele>
        <time>2021-10-12T16:41:41Z</time>
      </trkpt>
      <trkpt lat="39.378946" lon="-6.346353">
        <ele>387.483</ele>
        <time>2021-10-12T16:41:43Z</time>
      </trkpt>
      <trkpt lat="39.379148" lon="-6.346424">
        <ele>388.891</ele>
        <time>2021-10-12T16:41:44Z</time>
      </trkpt>
      <trkpt lat="39.379562" lon="-6.346565">
        <ele>387.867</ele>
        <time>2021-10-12T16:41:46Z</time>
      </trkpt>
      <trkpt lat="39.379776" lon="-6.346642">
        <ele>387.750</ele>
        <time>2021-10-12T16:41:47Z</time>
      </trkpt>
      <trkpt lat="39.380218" lon="-6.346802">
        <ele>387.456</ele>
        <time>2021-10-12T16:41:49Z</time>
      </trkpt>
      <trkpt lat="39.380450" lon="-6.346886">
        <ele>388.515</ele>
        <time>2021-10-12T16:41:50Z</time>
      </trkpt>
      <trkpt lat="39.380930" lon="-6.347053">
        <ele>391.335</ele>
        <time>2021-10-12T16:41:52Z</time>
      </trkpt>
      <trkpt lat="39.381176" lon="-6.347141">
        <ele>392.026</ele>
        <time>2021-10-12T16:41:53Z</time>
      </trkpt>
      <trkpt lat="39.381428" lon="-6.347226">
        <ele>392.078</ele>
        <time>2021-10-12T16:41:54Z</time>
      </trkpt>
      <trkpt lat="39.381945" lon="-6.347410">
        <ele>391.333</ele>
        <time>2021-10-12T16:41:56Z</time>
      </trkpt>
      <trkpt lat="39.382447" lon="-6.347587">
        <ele>391.826</ele>
        <time>2021-10-12T16:41:58Z</time>
      </trkpt>
      <trkpt lat="39.382709" lon="-6.347678">
        <ele>392.808</ele>
        <time>2021-10-12T16:41:59Z</time>
      </trkpt>
      <trkpt lat="39.383239" lon="-6.347860">
        <ele>393.415</ele>
        <time>2021-10-12T16:42:01Z</time>
      </trkpt>
      <trkpt lat="39.383516" lon="-6.347952">
        <ele>394.063</ele>
        <time>2021-10-12T16:42:02Z</time>
      </trkpt>
      <trkpt lat="39.384043" lon="-6.348131">
        <ele>395.989</ele>
        <time>2021-10-12T16:42:04Z</time>
      </trkpt>
      <trkpt lat="39.384311" lon="-6.348247">
        <ele>396.092</ele>
        <time>2021-10-12T16:42:05Z</time>
      </trkpt>
      <trkpt lat="39.384572" lon="-6.348392">
        <ele>396.378</ele>
        <time>2021-10-12T16:42:06Z</time>
      </trkpt>
      <trkpt lat="39.385049" lon="-6.348765">
        <ele>395.827</ele>
        <time>2021-10-12T16:42:08Z</time>
      </trkpt>
      <trkpt lat="39.385243" lon="-6.348986">
        <ele>395.137</ele>
        <time>2021-10-12T16:42:09Z</time>
      </trkpt>
      <trkpt lat="39.385406" lon="-6.349217">
        <ele>395.538</ele>
        <time>2021-10-12T16:42:10Z</time>
      </trkpt>
      <trkpt lat="39.385661" lon="-6.349675">
        <ele>396.849</ele>
        <time>2021-10-12T16:42:12Z</time>
      </trkpt>
      <trkpt lat="39.385863" lon="-6.350063">
        <ele>397.002</ele>
        <time>2021-10-12T16:42:14Z</time>
      </trkpt>
      <trkpt lat="39.385958" lon="-6.350223">
        <ele>397.022</ele>
        <time>2021-10-12T16:42:15Z</time>
      </trkpt>
      <trkpt lat="39.386140" lon="-6.350458">
        <ele>396.908</ele>
        <time>2021-10-12T16:42:17Z</time>
      </trkpt>
      <trkpt lat="39.386337" lon="-6.350585">
        <ele>395.492</ele>
        <time>2021-10-12T16:42:19Z</time>
      </trkpt>
      <trkpt lat="39.386440" lon="-6.350594">
        <ele>395.280</ele>
        <time>2021-10-12T16:42:20Z</time>
      </trkpt>
      <trkpt lat="39.386542" lon="-6.350585">
        <ele>395.536</ele>
        <time>2021-10-12T16:42:21Z</time>
      </trkpt>
      <trkpt lat="39.386643" lon="-6.350583">
        <ele>395.869</ele>
        <time>2021-10-12T16:42:22Z</time>
      </trkpt>
      <trkpt lat="39.386844" lon="-6.350682">
        <ele>396.855</ele>
        <time>2021-10-12T16:42:24Z</time>
      </trkpt>
      <trkpt lat="39.387049" lon="-6.350920">
        <ele>396.894</ele>
        <time>2021-10-12T16:42:26Z</time>
      </trkpt>
      <trkpt lat="39.387308" lon="-6.351039">
        <ele>396.524</ele>
        <time>2021-10-12T16:42:28Z</time>
      </trkpt>
      <trkpt lat="39.387462" lon="-6.351045">
        <ele>396.575</ele>
        <time>2021-10-12T16:42:29Z</time>
      </trkpt>
      <trkpt lat="39.387806" lon="-6.351025">
        <ele>396.452</ele>
        <time>2021-10-12T16:42:31Z</time>
      </trkpt>
      <trkpt lat="39.388000" lon="-6.351024">
        <ele>397.453</ele>
        <time>2021-10-12T16:42:32Z</time>
      </trkpt>
      <trkpt lat="39.388381" lon="-6.351021">
        <ele>397.908</ele>
        <time>2021-10-12T16:42:34Z</time>
      </trkpt>
      <trkpt lat="39.388582" lon="-6.351020">
        <ele>397.408</ele>
        <time>2021-10-12T16:42:35Z</time>
      </trkpt>
      <trkpt lat="39.388784" lon="-6.351021">
        <ele>397.953</ele>
        <time>2021-10-12T16:42:36Z</time>
      </trkpt>
      <trkpt lat="39.389143" lon="-6.351025">
        <ele>398.641</ele>
        <time>2021-10-12T16:42:38Z</time>
      </trkpt>
      <trkpt lat="39.389460" lon="-6.351026">
        <ele>398.287</ele>
        <time>2021-10-12T16:42:40Z</time>
      </trkpt>
      <trkpt lat="39.389614" lon="-6.351026">
        <ele>397.750</ele>
        <time>2021-10-12T16:42:41Z</time>
      </trkpt>
      <trkpt lat="39.389938" lon="-6.351030">
        <ele>396.576</ele>
        <time>2021-10-12T16:42:43Z</time>
      </trkpt>
      <trkpt lat="39.390108" lon="-6.351029">
        <ele>395.965</ele>
        <time>2021-10-12T16:42:44Z</time>
      </trkpt>
      <trkpt lat="39.390432" lon="-6.351033">
        <ele>395.355</ele>
        <time>2021-10-12T16:42:46Z</time>
      </trkpt>
      <trkpt lat="39.390721" lon="-6.351029">
        <ele>395.976</ele>
        <time>2021-10-12T16:42:48Z</time>
      </trkpt>
      <trkpt lat="39.390848" lon="-6.351010">
        <ele>396.594</ele>
        <time>2021-10-12T16:42:49Z</time>
      </trkpt>
      <trkpt lat="39.390957" lon="-6.350960">
        <ele>398.157</ele>
        <time>2021-10-12T16:42:50Z</time>
      </trkpt>
      <trkpt lat="39.391051" lon="-6.350876">
        <ele>399.922</ele>
        <time>2021-10-12T16:42:51Z</time>
      </trkpt>
      <trkpt lat="39.391221" lon="-6.350674">
        <ele>401.208</ele>
        <time>2021-10-12T16:42:53Z</time>
      </trkpt>
      <trkpt lat="39.391320" lon="-6.350612">
        <ele>401.677</ele>
        <time>2021-10-12T16:42:54Z</time>
      </trkpt>
      <trkpt lat="39.391431" lon="-6.350599">
        <ele>401.775</ele>
        <time>2021-10-12T16:42:55Z</time>
      </trkpt>
      <trkpt lat="39.391548" lon="-6.350646">
        <ele>401.371</ele>
        <time>2021-10-12T16:42:56Z</time>
      </trkpt>
      <trkpt lat="39.391756" lon="-6.350853">
        <ele>400.614</ele>
        <time>2021-10-12T16:42:58Z</time>
      </trkpt>
      <trkpt lat="39.391872" lon="-6.350957">
        <ele>400.190</ele>
        <time>2021-10-12T16:42:59Z</time>
      </trkpt>
      <trkpt lat="39.392009" lon="-6.351035">
        <ele>400.319</ele>
        <time>2021-10-12T16:43:00Z</time>
      </trkpt>
      <trkpt lat="39.392347" lon="-6.351116">
        <ele>401.049</ele>
        <time>2021-10-12T16:43:02Z</time>
      </trkpt>
      <trkpt lat="39.392735" lon="-6.351178">
        <ele>401.820</ele>
        <time>2021-10-12T16:43:04Z</time>
      </trkpt>
      <trkpt lat="39.392944" lon="-6.351237">
        <ele>402.025</ele>
        <time>2021-10-12T16:43:05Z</time>
      </trkpt>
      <trkpt lat="39.393160" lon="-6.351321">
        <ele>402.026</ele>
        <time>2021-10-12T16:43:06Z</time>
      </trkpt>
      <trkpt lat="39.393627" lon="-6.351497">
        <ele>403.708</ele>
        <time>2021-10-12T16:43:08Z</time>
      </trkpt>
      <trkpt lat="39.393878" lon="-6.351586">
        <ele>404.908</ele>
        <time>2021-10-12T16:43:09Z</time>
      </trkpt>
      <trkpt lat="39.394408" lon="-6.351780">
        <ele>406.810</ele>
        <time>2021-10-12T16:43:11Z</time>
      </trkpt>
      <trkpt lat="39.394964" lon="-6.351988">
        <ele>408.928</ele>
        <time>2021-10-12T16:43:13Z</time>
      </trkpt>
      <trkpt lat="39.395538" lon="-6.352214">
        <ele>408.194</ele>
        <time>2021-10-12T16:43:15Z</time>
      </trkpt>
      <trkpt lat="39.396114" lon="-6.352449">
        <ele>405.417</ele>
        <time>2021-10-12T16:43:17Z</time>
      </trkpt>
      <trkpt lat="39.396693" lon="-6.352669">
        <ele>408.533</ele>
        <time>2021-10-12T16:43:19Z</time>
      </trkpt>
      <trkpt lat="39.397285" lon="-6.352802">
        <ele>410.182</ele>
        <time>2021-10-12T16:43:21Z</time>
      </trkpt>
      <trkpt lat="39.397583" lon="-6.352827">
        <ele>411.252</ele>
        <time>2021-10-12T16:43:22Z</time>
      </trkpt>
      <trkpt lat="39.398168" lon="-6.352808">
        <ele>412.523</ele>
        <time>2021-10-12T16:43:24Z</time>
      </trkpt>
      <trkpt lat="39.398458" lon="-6.352767">
        <ele>413.079</ele>
        <time>2021-10-12T16:43:25Z</time>
      </trkpt>
      <trkpt lat="39.398748" lon="-6.352715">
        <ele>413.505</ele>
        <time>2021-10-12T16:43:26Z</time>
      </trkpt>
      <trkpt lat="39.399294" lon="-6.352603">
        <ele>414.525</ele>
        <time>2021-10-12T16:43:28Z</time>
      </trkpt>
      <trkpt lat="39.399575" lon="-6.352557">
        <ele>415.808</ele>
        <time>2021-10-12T16:43:29Z</time>
      </trkpt>
      <trkpt lat="39.400119" lon="-6.352544">
        <ele>419.355</ele>
        <time>2021-10-12T16:43:31Z</time>
      </trkpt>
      <trkpt lat="39.400398" lon="-6.352602">
        <ele>421.323</ele>
        <time>2021-10-12T16:43:32Z</time>
      </trkpt>
      <trkpt lat="39.400918" lon="-6.352834">
        <ele>423.399</ele>
        <time>2021-10-12T16:43:34Z</time>
      </trkpt>
      <trkpt lat="39.401181" lon="-6.352998">
        <ele>424.692</ele>
        <time>2021-10-12T16:43:35Z</time>
      </trkpt>
      <trkpt lat="39.401668" lon="-6.353412">
        <ele>424.338</ele>
        <time>2021-10-12T16:43:37Z</time>
      </trkpt>
      <trkpt lat="39.401888" lon="-6.353668">
        <ele>424.457</ele>
        <time>2021-10-12T16:43:38Z</time>
      </trkpt>
      <trkpt lat="39.402298" lon="-6.354213">
        <ele>426.457</ele>
        <time>2021-10-12T16:43:40Z</time>
      </trkpt>
      <trkpt lat="39.402746" lon="-6.354677">
        <ele>429.128</ele>
        <time>2021-10-12T16:43:42Z</time>
      </trkpt>
      <trkpt lat="39.403240" lon="-6.354954">
        <ele>430.366</ele>
        <time>2021-10-12T16:43:44Z</time>
      </trkpt>
      <trkpt lat="39.403734" lon="-6.355096">
        <ele>431.329</ele>
        <time>2021-10-12T16:43:46Z</time>
      </trkpt>
      <trkpt lat="39.403983" lon="-6.355123">
        <ele>431.521</ele>
        <time>2021-10-12T16:43:47Z</time>
      </trkpt>
      <trkpt lat="39.404486" lon="-6.355087">
        <ele>435.808</ele>
        <time>2021-10-12T16:43:49Z</time>
      </trkpt>
      <trkpt lat="39.404741" lon="-6.355040">
        <ele>436.854</ele>
        <time>2021-10-12T16:43:50Z</time>
      </trkpt>
      <trkpt lat="39.405000" lon="-6.354990">
        <ele>437.172</ele>
        <time>2021-10-12T16:43:51Z</time>
      </trkpt>
      <trkpt lat="39.405528" lon="-6.354894">
        <ele>435.548</ele>
        <time>2021-10-12T16:43:53Z</time>
      </trkpt>
      <trkpt lat="39.405801" lon="-6.354841">
        <ele>435.641</ele>
        <time>2021-10-12T16:43:54Z</time>
      </trkpt>
      <trkpt lat="39.406348" lon="-6.354738">
        <ele>436.917</ele>
        <time>2021-10-12T16:43:56Z</time>
      </trkpt>
      <trkpt lat="39.406871" lon="-6.354639">
        <ele>437.066</ele>
        <time>2021-10-12T16:43:58Z</time>
      </trkpt>
      <trkpt lat="39.407404" lon="-6.354536">
        <ele>438.496</ele>
        <time>2021-10-12T16:44:00Z</time>
      </trkpt>
      <trkpt lat="39.407668" lon="-6.354485">
        <ele>440.077</ele>
        <time>2021-10-12T16:44:01Z</time>
      </trkpt>
      <trkpt lat="39.407937" lon="-6.354438">
        <ele>441.663</ele>
        <time>2021-10-12T16:44:02Z</time>
      </trkpt>
      <trkpt lat="39.408451" lon="-6.354336">
        <ele>444.344</ele>
        <time>2021-10-12T16:44:04Z</time>
      </trkpt>
      <trkpt lat="39.408706" lon="-6.354287">
        <ele>445.818</ele>
        <time>2021-10-12T16:44:05Z</time>
      </trkpt>
      <trkpt lat="39.409211" lon="-6.354192">
        <ele>447.908</ele>
        <time>2021-10-12T16:44:07Z</time>
      </trkpt>
      <trkpt lat="39.409471" lon="-6.354144">
        <ele>449.364</ele>
        <time>2021-10-12T16:44:08Z</time>
      </trkpt>
      <trkpt lat="39.409997" lon="-6.354055">
        <ele>450.282</ele>
        <time>2021-10-12T16:44:10Z</time>
      </trkpt>
      <trkpt lat="39.410528" lon="-6.353996">
        <ele>450.468</ele>
        <time>2021-10-12T16:44:12Z</time>
      </trkpt>
      <trkpt lat="39.410797" lon="-6.353993">
        <ele>450.051</ele>
        <time>2021-10-12T16:44:13Z</time>
      </trkpt>
      <trkpt lat="39.411068" lon="-6.354015">
        <ele>450.077</ele>
        <time>2021-10-12T16:44:14Z</time>
      </trkpt>
      <trkpt lat="39.411610" lon="-6.354128">
        <ele>451.686</ele>
        <time>2021-10-12T16:44:16Z</time>
      </trkpt>
      <trkpt lat="39.412151" lon="-6.354307">
        <ele>452.586</ele>
        <time>2021-10-12T16:44:18Z</time>
      </trkpt>
      <trkpt lat="39.412697" lon="-6.354535">
        <ele>454.197</ele>
        <time>2021-10-12T16:44:20Z</time>
      </trkpt>
      <trkpt lat="39.413243" lon="-6.354760">
        <ele>458.931</ele>
        <time>2021-10-12T16:44:22Z</time>
      </trkpt>
      <trkpt lat="39.413796" lon="-6.354978">
        <ele>463.261</ele>
        <time>2021-10-12T16:44:24Z</time>
      </trkpt>
      <trkpt lat="39.414075" lon="-6.355094">
        <ele>464.407</ele>
        <time>2021-10-12T16:44:25Z</time>
      </trkpt>
      <trkpt lat="39.414359" lon="-6.355213">
        <ele>464.408</ele>
        <time>2021-10-12T16:44:26Z</time>
      </trkpt>
      <trkpt lat="39.414908" lon="-6.355437">
        <ele>464.511</ele>
        <time>2021-10-12T16:44:28Z</time>
      </trkpt>
      <trkpt lat="39.415197" lon="-6.355532">
        <ele>464.989</ele>
        <time>2021-10-12T16:44:29Z</time>
      </trkpt>
      <trkpt lat="39.415783" lon="-6.355648">
        <ele>466.635</ele>
        <time>2021-10-12T16:44:31Z</time>
      </trkpt>
      <trkpt lat="39.416091" lon="-6.355664">
        <ele>467.048</ele>
        <time>2021-10-12T16:44:32Z</time>
      </trkpt>
      <trkpt lat="39.416675" lon="-6.355612">
        <ele>470.784</ele>
        <time>2021-10-12T16:44:34Z</time>
      </trkpt>
      <trkpt lat="39.416969" lon="-6.355574">
        <ele>473.263</ele>
        <time>2021-10-12T16:44:35Z</time>
      </trkpt>
      <trkpt lat="39.417254" lon="-6.355532">
        <ele>476.083</ele>
        <time>2021-10-12T16:44:36Z</time>
      </trkpt>
      <trkpt lat="39.417786" lon="-6.355465">
        <ele>475.684</ele>
        <time>2021-10-12T16:44:38Z</time>
      </trkpt>
      <trkpt lat="39.418056" lon="-6.355439">
        <ele>474.624</ele>
        <time>2021-10-12T16:44:39Z</time>
      </trkpt>
      <trkpt lat="39.418325" lon="-6.355420">
        <ele>476.004</ele>
        <time>2021-10-12T16:44:40Z</time>
      </trkpt>
      <trkpt lat="39.418878" lon="-6.355421">
        <ele>476.014</ele>
        <time>2021-10-12T16:44:42Z</time>
      </trkpt>
      <trkpt lat="39.419167" lon="-6.355434">
        <ele>474.608</ele>
        <time>2021-10-12T16:44:43Z</time>
      </trkpt>
      <trkpt lat="39.419749" lon="-6.355479">
        <ele>476.330</ele>
        <time>2021-10-12T16:44:45Z</time>
      </trkpt>
      <trkpt lat="39.420035" lon="-6.355511">
        <ele>474.628</ele>
        <time>2021-10-12T16:44:46Z</time>
      </trkpt>
      <trkpt lat="39.420569" lon="-6.355589">
        <ele>473.264</ele>
        <time>2021-10-12T16:44:48Z</time>
      </trkpt>
      <trkpt lat="39.421055" lon="-6.355687">
        <ele>473.967</ele>
        <time>2021-10-12T16:44:50Z</time>
      </trkpt>
      <trkpt lat="39.421521" lon="-6.355828">
        <ele>475.083</ele>
        <time>2021-10-12T16:44:52Z</time>
      </trkpt>
      <trkpt lat="39.421750" lon="-6.355932">
        <ele>474.332</ele>
        <time>2021-10-12T16:44:53Z</time>
      </trkpt>
      <trkpt lat="39.422186" lon="-6.356220">
        <ele>473.192</ele>
        <time>2021-10-12T16:44:55Z</time>
      </trkpt>
      <trkpt lat="39.422390" lon="-6.356396">
        <ele>472.673</ele>
        <time>2021-10-12T16:44:56Z</time>
      </trkpt>
      <trkpt lat="39.422721" lon="-6.356778">
        <ele>471.815</ele>
        <time>2021-10-12T16:44:58Z</time>
      </trkpt>
      <trkpt lat="39.423008" lon="-6.357217">
        <ele>468.265</ele>
        <time>2021-10-12T16:45:00Z</time>
      </trkpt>
      <trkpt lat="39.423141" lon="-6.357465">
        <ele>467.111</ele>
        <time>2021-10-12T16:45:01Z</time>
      </trkpt>
      <trkpt lat="39.423278" lon="-6.357730">
        <ele>465.308</ele>
        <time>2021-10-12T16:45:02Z</time>
      </trkpt>
      <trkpt lat="39.423554" lon="-6.358253">
        <ele>462.529</ele>
        <time>2021-10-12T16:45:04Z</time>
      </trkpt>
      <trkpt lat="39.423703" lon="-6.358527">
        <ele>463.177</ele>
        <time>2021-10-12T16:45:05Z</time>
      </trkpt>
      <trkpt lat="39.424007" lon="-6.359086">
        <ele>464.493</ele>
        <time>2021-10-12T16:45:07Z</time>
      </trkpt>
      <trkpt lat="39.424155" lon="-6.359366">
        <ele>465.026</ele>
        <time>2021-10-12T16:45:08Z</time>
      </trkpt>
      <trkpt lat="39.424431" lon="-6.359885">
        <ele>466.072</ele>
        <time>2021-10-12T16:45:10Z</time>
      </trkpt>
      <trkpt lat="39.424562" lon="-6.360126">
        <ele>465.631</ele>
        <time>2021-10-12T16:45:11Z</time>
      </trkpt>
      <trkpt lat="39.424807" lon="-6.360588">
        <ele>465.551</ele>
        <time>2021-10-12T16:45:13Z</time>
      </trkpt>
      <trkpt lat="39.424928" lon="-6.360813">
        <ele>465.612</ele>
        <time>2021-10-12T16:45:14Z</time>
      </trkpt>
      <trkpt lat="39.425177" lon="-6.361266">
        <ele>464.594</ele>
        <time>2021-10-12T16:45:16Z</time>
      </trkpt>
      <trkpt lat="39.425442" lon="-6.361728">
        <ele>461.857</ele>
        <time>2021-10-12T16:45:18Z</time>
      </trkpt>
      <trkpt lat="39.425584" lon="-6.361957">
        <ele>460.922</ele>
        <time>2021-10-12T16:45:19Z</time>
      </trkpt>
      <trkpt lat="39.425906" lon="-6.362370">
        <ele>459.108</ele>
        <time>2021-10-12T16:45:21Z</time>
      </trkpt>
      <trkpt lat="39.426256" lon="-6.362698">
        <ele>456.527</ele>
        <time>2021-10-12T16:45:23Z</time>
      </trkpt>
      <trkpt lat="39.426432" lon="-6.362833">
        <ele>456.025</ele>
        <time>2021-10-12T16:45:24Z</time>
      </trkpt>
      <trkpt lat="39.426780" lon="-6.363072">
        <ele>455.671</ele>
        <time>2021-10-12T16:45:26Z</time>
      </trkpt>
      <trkpt lat="39.427099" lon="-6.363290">
        <ele>454.554</ele>
        <time>2021-10-12T16:45:28Z</time>
      </trkpt>
      <trkpt lat="39.427410" lon="-6.363514">
        <ele>453.660</ele>
        <time>2021-10-12T16:45:30Z</time>
      </trkpt>
      <trkpt lat="39.427569" lon="-6.363625">
        <ele>453.039</ele>
        <time>2021-10-12T16:45:31Z</time>
      </trkpt>
      <trkpt lat="39.427733" lon="-6.363740">
        <ele>453.019</ele>
        <time>2021-10-12T16:45:32Z</time>
      </trkpt>
      <trkpt lat="39.428064" lon="-6.363968">
        <ele>454.080</ele>
        <time>2021-10-12T16:45:34Z</time>
      </trkpt>
      <trkpt lat="39.428237" lon="-6.364088">
        <ele>454.579</ele>
        <time>2021-10-12T16:45:35Z</time>
      </trkpt>
      <trkpt lat="39.428579" lon="-6.364327">
        <ele>455.205</ele>
        <time>2021-10-12T16:45:37Z</time>
      </trkpt>
      <trkpt lat="39.428751" lon="-6.364439">
        <ele>455.525</ele>
        <time>2021-10-12T16:45:38Z</time>
      </trkpt>
      <trkpt lat="39.429083" lon="-6.364574">
        <ele>454.708</ele>
        <time>2021-10-12T16:45:40Z</time>
      </trkpt>
      <trkpt lat="39.429243" lon="-6.364594">
        <ele>454.585</ele>
        <time>2021-10-12T16:45:41Z</time>
      </trkpt>
      <trkpt lat="39.429392" lon="-6.364586">
        <ele>454.553</ele>
        <time>2021-10-12T16:45:42Z</time>
      </trkpt>
      <trkpt lat="39.429661" lon="-6.364551">
        <ele>455.269</ele>
        <time>2021-10-12T16:45:44Z</time>
      </trkpt>
      <trkpt lat="39.429781" lon="-6.364555">
        <ele>455.572</ele>
        <time>2021-10-12T16:45:45Z</time>
      </trkpt>
      <trkpt lat="39.429965" lon="-6.364599">
        <ele>455.948</ele>
        <time>2021-10-12T16:45:47Z</time>
      </trkpt>
      <trkpt lat="39.430022" lon="-6.364622">
        <ele>456.047</ele>
        <time>2021-10-12T16:45:48Z</time>
      </trkpt>
      <trkpt lat="39.430091" lon="-6.364652">
        <ele>456.027</ele>
        <time>2021-10-12T16:45:50Z</time>
      </trkpt>
      <trkpt lat="39.430196" lon="-6.364677">
        <ele>456.088</ele>
        <time>2021-10-12T16:45:52Z</time>
      </trkpt>
      <trkpt lat="39.430345" lon="-6.364677">
        <ele>456.033</ele>
        <time>2021-10-12T16:45:54Z</time>
      </trkpt>
      <trkpt lat="39.430486" lon="-6.364698">
        <ele>456.123</ele>
        <time>2021-10-12T16:45:56Z</time>
      </trkpt>
      <trkpt lat="39.430571" lon="-6.364804">
        <ele>456.115</ele>
        <time>2021-10-12T16:45:58Z</time>
      </trkpt>
      <trkpt lat="39.430605" lon="-6.364883">
        <ele>456.108</ele>
        <time>2021-10-12T16:45:59Z</time>
      </trkpt>
      <trkpt lat="39.430642" lon="-6.364961">
        <ele>456.121</ele>
        <time>2021-10-12T16:46:00Z</time>
      </trkpt>
      <trkpt lat="39.430739" lon="-6.365103">
        <ele>456.129</ele>
        <time>2021-10-12T16:46:02Z</time>
      </trkpt>
      <trkpt lat="39.430846" lon="-6.365230">
        <ele>456.025</ele>
        <time>2021-10-12T16:46:04Z</time>
      </trkpt>
      <trkpt lat="39.430962" lon="-6.365393">
        <ele>455.128</ele>
        <time>2021-10-12T16:46:06Z</time>
      </trkpt>
      <trkpt lat="39.431070" lon="-6.365618">
        <ele>454.134</ele>
        <time>2021-10-12T16:46:08Z</time>
      </trkpt>
      <trkpt lat="39.431113" lon="-6.365750">
        <ele>454.063</ele>
        <time>2021-10-12T16:46:09Z</time>
      </trkpt>
      <trkpt lat="39.431172" lon="-6.366016">
        <ele>453.363</ele>
        <time>2021-10-12T16:46:11Z</time>
      </trkpt>
      <trkpt lat="39.431189" lon="-6.366152">
        <ele>452.984</ele>
        <time>2021-10-12T16:46:12Z</time>
      </trkpt>
      <trkpt lat="39.431201" lon="-6.366294">
        <ele>452.336</ele>
        <time>2021-10-12T16:46:13Z</time>
      </trkpt>
      <trkpt lat="39.431242" lon="-6.366586">
        <ele>451.617</ele>
        <time>2021-10-12T16:46:15Z</time>
      </trkpt>
      <trkpt lat="39.431318" lon="-6.366906">
        <ele>452.618</ele>
        <time>2021-10-12T16:46:17Z</time>
      </trkpt>
      <trkpt lat="39.431436" lon="-6.367266">
        <ele>455.508</ele>
        <time>2021-10-12T16:46:19Z</time>
      </trkpt>
      <trkpt lat="39.431514" lon="-6.367448">
        <ele>456.391</ele>
        <time>2021-10-12T16:46:20Z</time>
      </trkpt>
      <trkpt lat="39.431606" lon="-6.367632">
        <ele>456.859</ele>
        <time>2021-10-12T16:46:21Z</time>
      </trkpt>
      <trkpt lat="39.431814" lon="-6.368014">
        <ele>456.715</ele>
        <time>2021-10-12T16:46:23Z</time>
      </trkpt>
      <trkpt lat="39.431930" lon="-6.368223">
        <ele>457.068</ele>
        <time>2021-10-12T16:46:24Z</time>
      </trkpt>
      <trkpt lat="39.432173" lon="-6.368675">
        <ele>457.584</ele>
        <time>2021-10-12T16:46:26Z</time>
      </trkpt>
      <trkpt lat="39.432408" lon="-6.369127">
        <ele>459.893</ele>
        <time>2021-10-12T16:46:28Z</time>
      </trkpt>
      <trkpt lat="39.432529" lon="-6.369361">
        <ele>458.763</ele>
        <time>2021-10-12T16:46:29Z</time>
      </trkpt>
      <trkpt lat="39.432766" lon="-6.369811">
        <ele>458.954</ele>
        <time>2021-10-12T16:46:31Z</time>
      </trkpt>
      <trkpt lat="39.432883" lon="-6.370040">
        <ele>459.632</ele>
        <time>2021-10-12T16:46:32Z</time>
      </trkpt>
      <trkpt lat="39.433111" lon="-6.370464">
        <ele>459.992</ele>
        <time>2021-10-12T16:46:34Z</time>
      </trkpt>
      <trkpt lat="39.433223" lon="-6.370671">
        <ele>461.211</ele>
        <time>2021-10-12T16:46:35Z</time>
      </trkpt>
      <trkpt lat="39.433330" lon="-6.370870">
        <ele>462.008</ele>
        <time>2021-10-12T16:46:36Z</time>
      </trkpt>
      <trkpt lat="39.433429" lon="-6.371061">
        <ele>462.891</ele>
        <time>2021-10-12T16:46:37Z</time>
      </trkpt>
      <trkpt lat="39.433611" lon="-6.371405">
        <ele>465.149</ele>
        <time>2021-10-12T16:46:39Z</time>
      </trkpt>
      <trkpt lat="39.433773" lon="-6.371700">
        <ele>466.655</ele>
        <time>2021-10-12T16:46:41Z</time>
      </trkpt>
      <trkpt lat="39.433943" lon="-6.371963">
        <ele>467.328</ele>
        <time>2021-10-12T16:46:43Z</time>
      </trkpt>
      <trkpt lat="39.434126" lon="-6.372171">
        <ele>467.964</ele>
        <time>2021-10-12T16:46:45Z</time>
      </trkpt>
      <trkpt lat="39.434304" lon="-6.372323">
        <ele>467.343</ele>
        <time>2021-10-12T16:46:47Z</time>
      </trkpt>
      <trkpt lat="39.434363" lon="-6.372420">
        <ele>466.673</ele>
        <time>2021-10-12T16:46:48Z</time>
      </trkpt>
      <trkpt lat="39.434401" lon="-6.372671">
        <ele>465.494</ele>
        <time>2021-10-12T16:46:50Z</time>
      </trkpt>
      <trkpt lat="39.434422" lon="-6.372819">
        <ele>464.988</ele>
        <time>2021-10-12T16:46:51Z</time>
      </trkpt>
      <trkpt lat="39.434471" lon="-6.372968">
        <ele>464.224</ele>
        <time>2021-10-12T16:46:52Z</time>
      </trkpt>
      <trkpt lat="39.434535" lon="-6.373129">
        <ele>463.726</ele>
        <time>2021-10-12T16:46:53Z</time>
      </trkpt>
      <trkpt lat="39.434623" lon="-6.373315">
        <ele>463.408</ele>
        <time>2021-10-12T16:46:54Z</time>
      </trkpt>
      <trkpt lat="39.434851" lon="-6.373752">
        <ele>462.036</ele>
        <time>2021-10-12T16:46:56Z</time>
      </trkpt>
      <trkpt lat="39.435109" lon="-6.374242">
        <ele>461.784</ele>
        <time>2021-10-12T16:46:58Z</time>
      </trkpt>
      <trkpt lat="39.435383" lon="-6.374766">
        <ele>461.020</ele>
        <time>2021-10-12T16:47:00Z</time>
      </trkpt>
      <trkpt lat="39.435666" lon="-6.375307">
        <ele>460.023</ele>
        <time>2021-10-12T16:47:02Z</time>
      </trkpt>
      <trkpt lat="39.435937" lon="-6.375831">
        <ele>459.699</ele>
        <time>2021-10-12T16:47:04Z</time>
      </trkpt>
      <trkpt lat="39.436071" lon="-6.376093">
        <ele>459.178</ele>
        <time>2021-10-12T16:47:05Z</time>
      </trkpt>
      <trkpt lat="39.436326" lon="-6.376569">
        <ele>457.268</ele>
        <time>2021-10-12T16:47:07Z</time>
      </trkpt>
      <trkpt lat="39.436452" lon="-6.376796">
        <ele>456.379</ele>
        <time>2021-10-12T16:47:08Z</time>
      </trkpt>
      <trkpt lat="39.436577" lon="-6.377019">
        <ele>455.383</ele>
        <time>2021-10-12T16:47:09Z</time>
      </trkpt>
      <trkpt lat="39.436844" lon="-6.377461">
        <ele>456.525</ele>
        <time>2021-10-12T16:47:11Z</time>
      </trkpt>
      <trkpt lat="39.436999" lon="-6.377668">
        <ele>457.117</ele>
        <time>2021-10-12T16:47:12Z</time>
      </trkpt>
      <trkpt lat="39.437167" lon="-6.377863">
        <ele>457.908</ele>
        <time>2021-10-12T16:47:13Z</time>
      </trkpt>
      <trkpt lat="39.437349" lon="-6.378047">
        <ele>457.566</ele>
        <time>2021-10-12T16:47:14Z</time>
      </trkpt>
      <trkpt lat="39.437739" lon="-6.378373">
        <ele>457.454</ele>
        <time>2021-10-12T16:47:16Z</time>
      </trkpt>
      <trkpt lat="39.438123" lon="-6.378663">
        <ele>456.910</ele>
        <time>2021-10-12T16:47:18Z</time>
      </trkpt>
      <trkpt lat="39.438490" lon="-6.378939">
        <ele>455.383</ele>
        <time>2021-10-12T16:47:20Z</time>
      </trkpt>
      <trkpt lat="39.438843" lon="-6.379218">
        <ele>453.599</ele>
        <time>2021-10-12T16:47:22Z</time>
      </trkpt>
      <trkpt lat="39.439186" lon="-6.379480">
        <ele>453.268</ele>
        <time>2021-10-12T16:47:24Z</time>
      </trkpt>
      <trkpt lat="39.439362" lon="-6.379600">
        <ele>453.988</ele>
        <time>2021-10-12T16:47:25Z</time>
      </trkpt>
      <trkpt lat="39.439549" lon="-6.379715">
        <ele>454.749</ele>
        <time>2021-10-12T16:47:26Z</time>
      </trkpt>
      <trkpt lat="39.439929" lon="-6.379882">
        <ele>456.934</ele>
        <time>2021-10-12T16:47:28Z</time>
      </trkpt>
      <trkpt lat="39.440352" lon="-6.379990">
        <ele>456.355</ele>
        <time>2021-10-12T16:47:30Z</time>
      </trkpt>
      <trkpt lat="39.440804" lon="-6.380016">
        <ele>456.210</ele>
        <time>2021-10-12T16:47:32Z</time>
      </trkpt>
      <trkpt lat="39.441225" lon="-6.379970">
        <ele>456.308</ele>
        <time>2021-10-12T16:47:34Z</time>
      </trkpt>
      <trkpt lat="39.441607" lon="-6.379927">
        <ele>457.331</ele>
        <time>2021-10-12T16:47:36Z</time>
      </trkpt>
      <trkpt lat="39.441969" lon="-6.379890">
        <ele>455.259</ele>
        <time>2021-10-12T16:47:38Z</time>
      </trkpt>
      <trkpt lat="39.442152" lon="-6.379872">
        <ele>455.455</ele>
        <time>2021-10-12T16:47:39Z</time>
      </trkpt>
      <trkpt lat="39.442528" lon="-6.379838">
        <ele>458.018</ele>
        <time>2021-10-12T16:47:41Z</time>
      </trkpt>
      <trkpt lat="39.442713" lon="-6.379820">
        <ele>457.894</ele>
        <time>2021-10-12T16:47:42Z</time>
      </trkpt>
      <trkpt lat="39.442892" lon="-6.379802">
        <ele>457.013</ele>
        <time>2021-10-12T16:47:43Z</time>
      </trkpt>
      <trkpt lat="39.443063" lon="-6.379785">
        <ele>456.393</ele>
        <time>2021-10-12T16:47:44Z</time>
      </trkpt>
      <trkpt lat="39.443373" lon="-6.379758">
        <ele>457.324</ele>
        <time>2021-10-12T16:47:46Z</time>
      </trkpt>
      <trkpt lat="39.443650" lon="-6.379735">
        <ele>458.185</ele>
        <time>2021-10-12T16:47:48Z</time>
      </trkpt>
      <trkpt lat="39.443784" lon="-6.379722">
        <ele>458.089</ele>
        <time>2021-10-12T16:47:49Z</time>
      </trkpt>
      <trkpt lat="39.444034" lon="-6.379694">
        <ele>456.917</ele>
        <time>2021-10-12T16:47:51Z</time>
      </trkpt>
      <trkpt lat="39.444268" lon="-6.379647">
        <ele>455.608</ele>
        <time>2021-10-12T16:47:53Z</time>
      </trkpt>
      <trkpt lat="39.444504" lon="-6.379577">
        <ele>454.746</ele>
        <time>2021-10-12T16:47:55Z</time>
      </trkpt>
      <trkpt lat="39.444622" lon="-6.379538">
        <ele>454.114</ele>
        <time>2021-10-12T16:47:56Z</time>
      </trkpt>
      <trkpt lat="39.444818" lon="-6.379458">
        <ele>454.010</ele>
        <time>2021-10-12T16:47:58Z</time>
      </trkpt>
      <trkpt lat="39.444907" lon="-6.379395">
        <ele>454.253</ele>
        <time>2021-10-12T16:47:59Z</time>
      </trkpt>
      <trkpt lat="39.444987" lon="-6.379303">
        <ele>454.539</ele>
        <time>2021-10-12T16:48:00Z</time>
      </trkpt>
      <trkpt lat="39.445143" lon="-6.379088">
        <ele>455.368</ele>
        <time>2021-10-12T16:48:02Z</time>
      </trkpt>
      <trkpt lat="39.445341" lon="-6.378968">
        <ele>455.688</ele>
        <time>2021-10-12T16:48:04Z</time>
      </trkpt>
      <trkpt lat="39.445572" lon="-6.378976">
        <ele>455.499</ele>
        <time>2021-10-12T16:48:06Z</time>
      </trkpt>
      <trkpt lat="39.445792" lon="-6.379108">
        <ele>455.189</ele>
        <time>2021-10-12T16:48:08Z</time>
      </trkpt>
      <trkpt lat="39.446003" lon="-6.379307">
        <ele>456.206</ele>
        <time>2021-10-12T16:48:10Z</time>
      </trkpt>
      <trkpt lat="39.446127" lon="-6.379384">
        <ele>457.126</ele>
        <time>2021-10-12T16:48:11Z</time>
      </trkpt>
      <trkpt lat="39.446263" lon="-6.379441">
        <ele>457.508</ele>
        <time>2021-10-12T16:48:12Z</time>
      </trkpt>
      <trkpt lat="39.446554" lon="-6.379533">
        <ele>457.526</ele>
        <time>2021-10-12T16:48:14Z</time>
      </trkpt>
      <trkpt lat="39.446852" lon="-6.379650">
        <ele>456.554</ele>
        <time>2021-10-12T16:48:16Z</time>
      </trkpt>
      <trkpt lat="39.447005" lon="-6.379720">
        <ele>456.220</ele>
        <time>2021-10-12T16:48:17Z</time>
      </trkpt>
      <trkpt lat="39.447308" lon="-6.379880">
        <ele>456.983</ele>
        <time>2021-10-12T16:48:19Z</time>
      </trkpt>
      <trkpt lat="39.447457" lon="-6.379962">
        <ele>457.729</ele>
        <time>2021-10-12T16:48:20Z</time>
      </trkpt>
      <trkpt lat="39.447758" lon="-6.380130">
        <ele>457.588</ele>
        <time>2021-10-12T16:48:22Z</time>
      </trkpt>
      <trkpt lat="39.447927" lon="-6.380224">
        <ele>457.828</ele>
        <time>2021-10-12T16:48:23Z</time>
      </trkpt>
      <trkpt lat="39.448277" lon="-6.380430">
        <ele>456.889</ele>
        <time>2021-10-12T16:48:25Z</time>
      </trkpt>
      <trkpt lat="39.448459" lon="-6.380537">
        <ele>456.983</ele>
        <time>2021-10-12T16:48:26Z</time>
      </trkpt>
      <trkpt lat="39.448834" lon="-6.380755">
        <ele>457.025</ele>
        <time>2021-10-12T16:48:28Z</time>
      </trkpt>
      <trkpt lat="39.449030" lon="-6.380863">
        <ele>457.017</ele>
        <time>2021-10-12T16:48:29Z</time>
      </trkpt>
      <trkpt lat="39.449402" lon="-6.381070">
        <ele>458.008</ele>
        <time>2021-10-12T16:48:31Z</time>
      </trkpt>
      <trkpt lat="39.449583" lon="-6.381172">
        <ele>457.516</ele>
        <time>2021-10-12T16:48:32Z</time>
      </trkpt>
      <trkpt lat="39.449938" lon="-6.381371">
        <ele>456.354</ele>
        <time>2021-10-12T16:48:34Z</time>
      </trkpt>
      <trkpt lat="39.450304" lon="-6.381578">
        <ele>456.180</ele>
        <time>2021-10-12T16:48:36Z</time>
      </trkpt>
      <trkpt lat="39.450666" lon="-6.381802">
        <ele>458.353</ele>
        <time>2021-10-12T16:48:38Z</time>
      </trkpt>
      <trkpt lat="39.451028" lon="-6.382029">
        <ele>459.719</ele>
        <time>2021-10-12T16:48:40Z</time>
      </trkpt>
      <trkpt lat="39.451347" lon="-6.382218">
        <ele>456.578</ele>
        <time>2021-10-12T16:48:42Z</time>
      </trkpt>
      <trkpt lat="39.451602" lon="-6.382359">
        <ele>454.738</ele>
        <time>2021-10-12T16:48:44Z</time>
      </trkpt>
      <trkpt lat="39.451785" lon="-6.382459">
        <ele>454.629</ele>
        <time>2021-10-12T16:48:46Z</time>
      </trkpt>
      <trkpt lat="39.451858" lon="-6.382499">
        <ele>454.778</ele>
        <time>2021-10-12T16:48:47Z</time>
      </trkpt>
      <trkpt lat="39.451974" lon="-6.382567">
        <ele>454.733</ele>
        <time>2021-10-12T16:48:49Z</time>
      </trkpt>
      <trkpt lat="39.452020" lon="-6.382594">
        <ele>454.626</ele>
        <time>2021-10-12T16:48:50Z</time>
      </trkpt>
      <trkpt lat="39.452097" lon="-6.382638">
        <ele>454.208</ele>
        <time>2021-10-12T16:48:52Z</time>
      </trkpt>
      <trkpt lat="39.452150" lon="-6.382678">
        <ele>453.915</ele>
        <time>2021-10-12T16:48:54Z</time>
      </trkpt>
      <trkpt lat="39.452199" lon="-6.382716">
        <ele>453.583</ele>
        <time>2021-10-12T16:48:56Z</time>
      </trkpt>
      <trkpt lat="39.452286" lon="-6.382765">
        <ele>453.149</ele>
        <time>2021-10-12T16:49:21Z</time>
      </trkpt>
      <trkpt lat="39.452374" lon="-6.382813">
        <ele>452.832</ele>
        <time>2021-10-12T16:49:22Z</time>
      </trkpt>
      <trkpt lat="39.452577" lon="-6.382929">
        <ele>452.748</ele>
        <time>2021-10-12T16:49:24Z</time>
      </trkpt>
      <trkpt lat="39.452691" lon="-6.382993">
        <ele>452.957</ele>
        <time>2021-10-12T16:49:25Z</time>
      </trkpt>
      <trkpt lat="39.452805" lon="-6.383056">
        <ele>453.197</ele>
        <time>2021-10-12T16:49:26Z</time>
      </trkpt>
      <trkpt lat="39.453028" lon="-6.383180">
        <ele>453.048</ele>
        <time>2021-10-12T16:49:28Z</time>
      </trkpt>
      <trkpt lat="39.453154" lon="-6.383250">
        <ele>452.679</ele>
        <time>2021-10-12T16:49:29Z</time>
      </trkpt>
      <trkpt lat="39.453410" lon="-6.383385">
        <ele>451.805</ele>
        <time>2021-10-12T16:49:31Z</time>
      </trkpt>
      <trkpt lat="39.453560" lon="-6.383453">
        <ele>451.625</ele>
        <time>2021-10-12T16:49:32Z</time>
      </trkpt>
      <trkpt lat="39.453888" lon="-6.383574">
        <ele>451.908</ele>
        <time>2021-10-12T16:49:34Z</time>
      </trkpt>
      <trkpt lat="39.454087" lon="-6.383632">
        <ele>451.395</ele>
        <time>2021-10-12T16:49:35Z</time>
      </trkpt>
      <trkpt lat="39.454298" lon="-6.383687">
        <ele>451.183</ele>
        <time>2021-10-12T16:49:36Z</time>
      </trkpt>
      <trkpt lat="39.454712" lon="-6.383760">
        <ele>450.569</ele>
        <time>2021-10-12T16:49:38Z</time>
      </trkpt>
      <trkpt lat="39.455075" lon="-6.383802">
        <ele>450.692</ele>
        <time>2021-10-12T16:49:40Z</time>
      </trkpt>
      <trkpt lat="39.455242" lon="-6.383819">
        <ele>451.148</ele>
        <time>2021-10-12T16:49:41Z</time>
      </trkpt>
      <trkpt lat="39.455529" lon="-6.383850">
        <ele>451.177</ele>
        <time>2021-10-12T16:49:43Z</time>
      </trkpt>
      <trkpt lat="39.455646" lon="-6.383863">
        <ele>450.557</ele>
        <time>2021-10-12T16:49:44Z</time>
      </trkpt>
      <trkpt lat="39.455833" lon="-6.383887">
        <ele>449.018</ele>
        <time>2021-10-12T16:49:46Z</time>
      </trkpt>
      <trkpt lat="39.455910" lon="-6.383898">
        <ele>449.225</ele>
        <time>2021-10-12T16:49:47Z</time>
      </trkpt>
      <trkpt lat="39.456019" lon="-6.383913">
        <ele>449.526</ele>
        <time>2021-10-12T16:49:49Z</time>
      </trkpt>
      <trkpt lat="39.456094" lon="-6.383919">
        <ele>449.608</ele>
        <time>2021-10-12T16:49:51Z</time>
      </trkpt>
      <trkpt lat="39.456221" lon="-6.383938">
        <ele>450.308</ele>
        <time>2021-10-12T16:49:53Z</time>
      </trkpt>
      <trkpt lat="39.456307" lon="-6.383952">
        <ele>450.970</ele>
        <time>2021-10-12T16:49:54Z</time>
      </trkpt>
      <trkpt lat="39.456529" lon="-6.383989">
        <ele>451.338</ele>
        <time>2021-10-12T16:49:56Z</time>
      </trkpt>
      <trkpt lat="39.456812" lon="-6.384037">
        <ele>450.274</ele>
        <time>2021-10-12T16:49:58Z</time>
      </trkpt>
      <trkpt lat="39.457148" lon="-6.384086">
        <ele>449.167</ele>
        <time>2021-10-12T16:50:00Z</time>
      </trkpt>
      <trkpt lat="39.457493" lon="-6.384130">
        <ele>448.073</ele>
        <time>2021-10-12T16:50:02Z</time>
      </trkpt>
      <trkpt lat="39.457874" lon="-6.384173">
        <ele>450.782</ele>
        <time>2021-10-12T16:50:04Z</time>
      </trkpt>
      <trkpt lat="39.458090" lon="-6.384192">
        <ele>451.852</ele>
        <time>2021-10-12T16:50:05Z</time>
      </trkpt>
      <trkpt lat="39.458474" lon="-6.384243">
        <ele>449.053</ele>
        <time>2021-10-12T16:50:07Z</time>
      </trkpt>
      <trkpt lat="39.458649" lon="-6.384271">
        <ele>447.677</ele>
        <time>2021-10-12T16:50:08Z</time>
      </trkpt>
      <trkpt lat="39.458966" lon="-6.384327">
        <ele>447.961</ele>
        <time>2021-10-12T16:50:10Z</time>
      </trkpt>
      <trkpt lat="39.459123" lon="-6.384354">
        <ele>449.627</ele>
        <time>2021-10-12T16:50:11Z</time>
      </trkpt>
      <trkpt lat="39.459435" lon="-6.384402">
        <ele>452.508</ele>
        <time>2021-10-12T16:50:13Z</time>
      </trkpt>
      <trkpt lat="39.459594" lon="-6.384425">
        <ele>451.255</ele>
        <time>2021-10-12T16:50:14Z</time>
      </trkpt>
      <trkpt lat="39.459899" lon="-6.384470">
        <ele>450.123</ele>
        <time>2021-10-12T16:50:16Z</time>
      </trkpt>
      <trkpt lat="39.460041" lon="-6.384491">
        <ele>450.299</ele>
        <time>2021-10-12T16:50:17Z</time>
      </trkpt>
      <trkpt lat="39.460289" lon="-6.384525">
        <ele>451.442</ele>
        <time>2021-10-12T16:50:19Z</time>
      </trkpt>
      <trkpt lat="39.460399" lon="-6.384536">
        <ele>452.258</ele>
        <time>2021-10-12T16:50:20Z</time>
      </trkpt>
      <trkpt lat="39.460580" lon="-6.384516">
        <ele>453.337</ele>
        <time>2021-10-12T16:50:22Z</time>
      </trkpt>
      <trkpt lat="39.460658" lon="-6.384473">
        <ele>453.197</ele>
        <time>2021-10-12T16:50:23Z</time>
      </trkpt>
      <trkpt lat="39.460728" lon="-6.384403">
        <ele>452.948</ele>
        <time>2021-10-12T16:50:24Z</time>
      </trkpt>
      <trkpt lat="39.460843" lon="-6.384198">
        <ele>453.063</ele>
        <time>2021-10-12T16:50:26Z</time>
      </trkpt>
      <trkpt lat="39.460957" lon="-6.384031">
        <ele>453.244</ele>
        <time>2021-10-12T16:50:28Z</time>
      </trkpt>
      <trkpt lat="39.461119" lon="-6.383959">
        <ele>454.118</ele>
        <time>2021-10-12T16:50:30Z</time>
      </trkpt>
      <trkpt lat="39.461310" lon="-6.383998">
        <ele>455.208</ele>
        <time>2021-10-12T16:50:32Z</time>
      </trkpt>
      <trkpt lat="39.461448" lon="-6.384185">
        <ele>455.424</ele>
        <time>2021-10-12T16:50:34Z</time>
      </trkpt>
      <trkpt lat="39.461492" lon="-6.384299">
        <ele>455.392</ele>
        <time>2021-10-12T16:50:35Z</time>
      </trkpt>
      <trkpt lat="39.461628" lon="-6.384445">
        <ele>455.798</ele>
        <time>2021-10-12T16:50:37Z</time>
      </trkpt>
      <trkpt lat="39.461723" lon="-6.384473">
        <ele>456.251</ele>
        <time>2021-10-12T16:50:38Z</time>
      </trkpt>
      <trkpt lat="39.461928" lon="-6.384457">
        <ele>457.097</ele>
        <time>2021-10-12T16:50:40Z</time>
      </trkpt>
      <trkpt lat="39.462048" lon="-6.384448">
        <ele>457.046</ele>
        <time>2021-10-12T16:50:41Z</time>
      </trkpt>
      <trkpt lat="39.462314" lon="-6.384487">
        <ele>457.566</ele>
        <time>2021-10-12T16:50:43Z</time>
      </trkpt>
      <trkpt lat="39.462463" lon="-6.384525">
        <ele>458.247</ele>
        <time>2021-10-12T16:50:44Z</time>
      </trkpt>
      <trkpt lat="39.462781" lon="-6.384626">
        <ele>459.361</ele>
        <time>2021-10-12T16:50:46Z</time>
      </trkpt>
      <trkpt lat="39.463111" lon="-6.384771">
        <ele>458.521</ele>
        <time>2021-10-12T16:50:48Z</time>
      </trkpt>
      <trkpt lat="39.463449" lon="-6.384976">
        <ele>457.613</ele>
        <time>2021-10-12T16:50:50Z</time>
      </trkpt>
      <trkpt lat="39.463787" lon="-6.385231">
        <ele>456.808</ele>
        <time>2021-10-12T16:50:52Z</time>
      </trkpt>
      <trkpt lat="39.464138" lon="-6.385519">
        <ele>458.054</ele>
        <time>2021-10-12T16:50:54Z</time>
      </trkpt>
      <trkpt lat="39.464493" lon="-6.385825">
        <ele>460.782</ele>
        <time>2021-10-12T16:50:56Z</time>
      </trkpt>
      <trkpt lat="39.464814" lon="-6.386104">
        <ele>461.418</ele>
        <time>2021-10-12T16:50:58Z</time>
      </trkpt>
      <trkpt lat="39.465091" lon="-6.386361">
        <ele>458.631</ele>
        <time>2021-10-12T16:51:00Z</time>
      </trkpt>
      <trkpt lat="39.465316" lon="-6.386588">
        <ele>455.037</ele>
        <time>2021-10-12T16:51:02Z</time>
      </trkpt>
      <trkpt lat="39.465509" lon="-6.386799">
        <ele>452.656</ele>
        <time>2021-10-12T16:51:04Z</time>
      </trkpt>
      <trkpt lat="39.465685" lon="-6.387004">
        <ele>451.386</ele>
        <time>2021-10-12T16:51:06Z</time>
      </trkpt>
      <trkpt lat="39.465837" lon="-6.387185">
        <ele>451.067</ele>
        <time>2021-10-12T16:51:08Z</time>
      </trkpt>
      <trkpt lat="39.465985" lon="-6.387344">
        <ele>451.899</ele>
        <time>2021-10-12T16:51:10Z</time>
      </trkpt>
      <trkpt lat="39.466070" lon="-6.387405">
        <ele>452.407</ele>
        <time>2021-10-12T16:51:11Z</time>
      </trkpt>
      <trkpt lat="39.466160" lon="-6.387447">
        <ele>453.527</ele>
        <time>2021-10-12T16:51:12Z</time>
      </trkpt>
      <trkpt lat="39.466341" lon="-6.387503">
        <ele>456.308</ele>
        <time>2021-10-12T16:51:14Z</time>
      </trkpt>
      <trkpt lat="39.466475" lon="-6.387653">
        <ele>456.927</ele>
        <time>2021-10-12T16:51:16Z</time>
      </trkpt>
      <trkpt lat="39.466527" lon="-6.387917">
        <ele>456.745</ele>
        <time>2021-10-12T16:51:18Z</time>
      </trkpt>
      <trkpt lat="39.466595" lon="-6.388240">
        <ele>457.031</ele>
        <time>2021-10-12T16:51:20Z</time>
      </trkpt>
      <trkpt lat="39.466775" lon="-6.388575">
        <ele>456.564</ele>
        <time>2021-10-12T16:51:22Z</time>
      </trkpt>
      <trkpt lat="39.466887" lon="-6.388766">
        <ele>457.230</ele>
        <time>2021-10-12T16:51:23Z</time>
      </trkpt>
      <trkpt lat="39.466998" lon="-6.388976">
        <ele>458.289</ele>
        <time>2021-10-12T16:51:24Z</time>
      </trkpt>
      <trkpt lat="39.467217" lon="-6.389436">
        <ele>458.019</ele>
        <time>2021-10-12T16:51:26Z</time>
      </trkpt>
      <trkpt lat="39.467427" lon="-6.389932">
        <ele>458.970</ele>
        <time>2021-10-12T16:51:28Z</time>
      </trkpt>
      <trkpt lat="39.467626" lon="-6.390469">
        <ele>458.417</ele>
        <time>2021-10-12T16:51:30Z</time>
      </trkpt>
      <trkpt lat="39.467808" lon="-6.391027">
        <ele>455.987</ele>
        <time>2021-10-12T16:51:32Z</time>
      </trkpt>
      <trkpt lat="39.467959" lon="-6.391537">
        <ele>453.515</ele>
        <time>2021-10-12T16:51:34Z</time>
      </trkpt>
      <trkpt lat="39.468094" lon="-6.391981">
        <ele>450.008</ele>
        <time>2021-10-12T16:51:36Z</time>
      </trkpt>
      <trkpt lat="39.468230" lon="-6.392372">
        <ele>448.569</ele>
        <time>2021-10-12T16:51:38Z</time>
      </trkpt>
      <trkpt lat="39.468365" lon="-6.392706">
        <ele>449.297</ele>
        <time>2021-10-12T16:51:40Z</time>
      </trkpt>
      <trkpt lat="39.468434" lon="-6.392864">
        <ele>449.593</ele>
        <time>2021-10-12T16:51:41Z</time>
      </trkpt>
      <trkpt lat="39.468579" lon="-6.393158">
        <ele>448.996</ele>
        <time>2021-10-12T16:51:43Z</time>
      </trkpt>
      <trkpt lat="39.468657" lon="-6.393293">
        <ele>447.152</ele>
        <time>2021-10-12T16:51:44Z</time>
      </trkpt>
      <trkpt lat="39.468808" lon="-6.393528">
        <ele>447.421</ele>
        <time>2021-10-12T16:51:46Z</time>
      </trkpt>
      <trkpt lat="39.468880" lon="-6.393632">
        <ele>448.051</ele>
        <time>2021-10-12T16:51:47Z</time>
      </trkpt>
      <trkpt lat="39.468949" lon="-6.393720">
        <ele>449.342</ele>
        <time>2021-10-12T16:51:48Z</time>
      </trkpt>
      <trkpt lat="39.469087" lon="-6.393853">
        <ele>451.291</ele>
        <time>2021-10-12T16:51:50Z</time>
      </trkpt>
      <trkpt lat="39.469219" lon="-6.393901">
        <ele>452.281</ele>
        <time>2021-10-12T16:51:52Z</time>
      </trkpt>
      <trkpt lat="39.469278" lon="-6.393883">
        <ele>452.419</ele>
        <time>2021-10-12T16:51:53Z</time>
      </trkpt>
      <trkpt lat="39.469332" lon="-6.393840">
        <ele>452.708</ele>
        <time>2021-10-12T16:51:54Z</time>
      </trkpt>
      <trkpt lat="39.469405" lon="-6.393667">
        <ele>453.037</ele>
        <time>2021-10-12T16:51:56Z</time>
      </trkpt>
      <trkpt lat="39.469459" lon="-6.393434">
        <ele>453.085</ele>
        <time>2021-10-12T16:51:58Z</time>
      </trkpt>
      <trkpt lat="39.469490" lon="-6.393323">
        <ele>453.081</ele>
        <time>2021-10-12T16:51:59Z</time>
      </trkpt>
      <trkpt lat="39.469521" lon="-6.393220">
        <ele>452.884</ele>
        <time>2021-10-12T16:52:00Z</time>
      </trkpt>
      <trkpt lat="39.469577" lon="-6.393035">
        <ele>453.070</ele>
        <time>2021-10-12T16:52:02Z</time>
      </trkpt>
      <trkpt lat="39.469624" lon="-6.392889">
        <ele>453.389</ele>
        <time>2021-10-12T16:52:04Z</time>
      </trkpt>
      <trkpt lat="39.469649" lon="-6.392820">
        <ele>453.539</ele>
        <time>2021-10-12T16:52:05Z</time>
      </trkpt>
      <trkpt lat="39.469694" lon="-6.392669">
        <ele>454.260</ele>
        <time>2021-10-12T16:52:07Z</time>
      </trkpt>
      <trkpt lat="39.469714" lon="-6.392585">
        <ele>454.614</ele>
        <time>2021-10-12T16:52:08Z</time>
      </trkpt>
      <trkpt lat="39.469726" lon="-6.392410">
        <ele>454.754</ele>
        <time>2021-10-12T16:52:10Z</time>
      </trkpt>
      <trkpt lat="39.469711" lon="-6.392312">
        <ele>454.309</ele>
        <time>2021-10-12T16:52:11Z</time>
      </trkpt>
      <trkpt lat="39.469676" lon="-6.392096">
        <ele>454.308</ele>
        <time>2021-10-12T16:52:13Z</time>
      </trkpt>
      <trkpt lat="39.469681" lon="-6.391979">
        <ele>454.779</ele>
        <time>2021-10-12T16:52:14Z</time>
      </trkpt>
      <trkpt lat="39.469766" lon="-6.391774">
        <ele>456.327</ele>
        <time>2021-10-12T16:52:16Z</time>
      </trkpt>
      <trkpt lat="39.469927" lon="-6.391615">
        <ele>457.283</ele>
        <time>2021-10-12T16:52:18Z</time>
      </trkpt>
      <trkpt lat="39.470091" lon="-6.391413">
        <ele>458.546</ele>
        <time>2021-10-12T16:52:20Z</time>
      </trkpt>
      <trkpt lat="39.470204" lon="-6.391129">
        <ele>460.772</ele>
        <time>2021-10-12T16:52:22Z</time>
      </trkpt>
      <trkpt lat="39.470246" lon="-6.390960">
        <ele>459.951</ele>
        <time>2021-10-12T16:52:23Z</time>
      </trkpt>
      <trkpt lat="39.470288" lon="-6.390799">
        <ele>459.141</ele>
        <time>2021-10-12T16:52:24Z</time>
      </trkpt>
      <trkpt lat="39.470363" lon="-6.390512">
        <ele>459.512</ele>
        <time>2021-10-12T16:52:26Z</time>
      </trkpt>
      <trkpt lat="39.470432" lon="-6.390280">
        <ele>460.599</ele>
        <time>2021-10-12T16:52:28Z</time>
      </trkpt>
      <trkpt lat="39.470469" lon="-6.390164">
        <ele>461.407</ele>
        <time>2021-10-12T16:52:29Z</time>
      </trkpt>
      <trkpt lat="39.470504" lon="-6.390045">
        <ele>462.027</ele>
        <time>2021-10-12T16:52:30Z</time>
      </trkpt>
      <trkpt lat="39.470575" lon="-6.389802">
        <ele>462.708</ele>
        <time>2021-10-12T16:52:32Z</time>
      </trkpt>
      <trkpt lat="39.470648" lon="-6.389568">
        <ele>463.957</ele>
        <time>2021-10-12T16:52:34Z</time>
      </trkpt>
      <trkpt lat="39.470715" lon="-6.389340">
        <ele>465.065</ele>
        <time>2021-10-12T16:52:36Z</time>
      </trkpt>
      <trkpt lat="39.470786" lon="-6.389159">
        <ele>466.041</ele>
        <time>2021-10-12T16:52:38Z</time>
      </trkpt>
      <trkpt lat="39.470852" lon="-6.389038">
        <ele>466.074</ele>
        <time>2021-10-12T16:52:40Z</time>
      </trkpt>
      <trkpt lat="39.470882" lon="-6.388983">
        <ele>466.070</ele>
        <time>2021-10-12T16:52:41Z</time>
      </trkpt>
      <trkpt lat="39.470941" lon="-6.388870">
        <ele>466.029</ele>
        <time>2021-10-12T16:52:43Z</time>
      </trkpt>
      <trkpt lat="39.470969" lon="-6.388790">
        <ele>466.279</ele>
        <time>2021-10-12T16:52:44Z</time>
      </trkpt>
      <trkpt lat="39.471026" lon="-6.388607">
        <ele>466.780</ele>
        <time>2021-10-12T16:52:46Z</time>
      </trkpt>
      <trkpt lat="39.471062" lon="-6.388511">
        <ele>467.229</ele>
        <time>2021-10-12T16:52:47Z</time>
      </trkpt>
      <trkpt lat="39.471171" lon="-6.388371">
        <ele>468.400</ele>
        <time>2021-10-12T16:52:49Z</time>
      </trkpt>
      <trkpt lat="39.471245" lon="-6.388341">
        <ele>469.020</ele>
        <time>2021-10-12T16:52:50Z</time>
      </trkpt>
      <trkpt lat="39.471419" lon="-6.388343">
        <ele>470.208</ele>
        <time>2021-10-12T16:52:52Z</time>
      </trkpt>
      <trkpt lat="39.471602" lon="-6.388319">
        <ele>470.690</ele>
        <time>2021-10-12T16:52:54Z</time>
      </trkpt>
      <trkpt lat="39.471752" lon="-6.388227">
        <ele>470.098</ele>
        <time>2021-10-12T16:52:56Z</time>
      </trkpt>
      <trkpt lat="39.471844" lon="-6.388111">
        <ele>468.714</ele>
        <time>2021-10-12T16:52:58Z</time>
      </trkpt>
      <trkpt lat="39.471878" lon="-6.388056">
        <ele>468.067</ele>
        <time>2021-10-12T16:52:59Z</time>
      </trkpt>
      <trkpt lat="39.471919" lon="-6.388015">
        <ele>467.963</ele>
        <time>2021-10-12T16:53:00Z</time>
      </trkpt>
      <trkpt lat="39.472020" lon="-6.388005">
        <ele>466.722</ele>
        <time>2021-10-12T16:53:02Z</time>
      </trkpt>
      <trkpt lat="39.472120" lon="-6.388100">
        <ele>465.952</ele>
        <time>2021-10-12T16:53:04Z</time>
      </trkpt>
      <trkpt lat="39.472182" lon="-6.388274">
        <ele>466.473</ele>
        <time>2021-10-12T16:53:06Z</time>
      </trkpt>
      <trkpt lat="39.472262" lon="-6.388488">
        <ele>466.724</ele>
        <time>2021-10-12T16:53:08Z</time>
      </trkpt>
      <trkpt lat="39.472384" lon="-6.388695">
        <ele>467.204</ele>
        <time>2021-10-12T16:53:10Z</time>
      </trkpt>
      <trkpt lat="39.472454" lon="-6.388804">
        <ele>468.514</ele>
        <time>2021-10-12T16:53:11Z</time>
      </trkpt>
      <trkpt lat="39.472531" lon="-6.388906">
        <ele>469.608</ele>
        <time>2021-10-12T16:53:12Z</time>
      </trkpt>
      <trkpt lat="39.472697" lon="-6.389108">
        <ele>468.950</ele>
        <time>2021-10-12T16:53:14Z</time>
      </trkpt>
      <trkpt lat="39.472845" lon="-6.389262">
        <ele>467.188</ele>
        <time>2021-10-12T16:53:16Z</time>
      </trkpt>
      <trkpt lat="39.472917" lon="-6.389324">
        <ele>466.144</ele>
        <time>2021-10-12T16:53:17Z</time>
      </trkpt>
      <trkpt lat="39.473054" lon="-6.389424">
        <ele>464.097</ele>
        <time>2021-10-12T16:53:19Z</time>
      </trkpt>
      <trkpt lat="39.473127" lon="-6.389471">
        <ele>463.593</ele>
        <time>2021-10-12T16:53:20Z</time>
      </trkpt>
      <trkpt lat="39.473287" lon="-6.389560">
        <ele>462.382</ele>
        <time>2021-10-12T16:53:22Z</time>
      </trkpt>
      <trkpt lat="39.473456" lon="-6.389655">
        <ele>461.142</ele>
        <time>2021-10-12T16:53:24Z</time>
      </trkpt>
      <trkpt lat="39.473611" lon="-6.389750">
        <ele>460.263</ele>
        <time>2021-10-12T16:53:26Z</time>
      </trkpt>
      <trkpt lat="39.473732" lon="-6.389808">
        <ele>459.549</ele>
        <time>2021-10-12T16:53:28Z</time>
      </trkpt>
      <trkpt lat="39.473793" lon="-6.389820">
        <ele>458.902</ele>
        <time>2021-10-12T16:53:29Z</time>
      </trkpt>
      <trkpt lat="39.473917" lon="-6.389833">
        <ele>457.922</ele>
        <time>2021-10-12T16:53:31Z</time>
      </trkpt>
      <trkpt lat="39.473984" lon="-6.389863">
        <ele>457.808</ele>
        <time>2021-10-12T16:53:32Z</time>
      </trkpt>
      <trkpt lat="39.474102" lon="-6.390000">
        <ele>458.082</ele>
        <time>2021-10-12T16:53:34Z</time>
      </trkpt>
      <trkpt lat="39.474151" lon="-6.390108">
        <ele>458.050</ele>
        <time>2021-10-12T16:53:35Z</time>
      </trkpt>
      <trkpt lat="39.474195" lon="-6.390230">
        <ele>458.086</ele>
        <time>2021-10-12T16:53:36Z</time>
      </trkpt>
      <trkpt lat="39.474308" lon="-6.390468">
        <ele>460.619</ele>
        <time>2021-10-12T16:53:38Z</time>
      </trkpt>
      <trkpt lat="39.474415" lon="-6.390649">
        <ele>463.675</ele>
        <time>2021-10-12T16:53:40Z</time>
      </trkpt>
      <trkpt lat="39.474490" lon="-6.390772">
        <ele>465.444</ele>
        <time>2021-10-12T16:53:42Z</time>
      </trkpt>
      <trkpt lat="39.474564" lon="-6.390820">
        <ele>465.114</ele>
        <time>2021-10-12T16:53:44Z</time>
      </trkpt>
      <trkpt lat="39.474671" lon="-6.390757">
        <ele>463.325</ele>
        <time>2021-10-12T16:53:46Z</time>
      </trkpt>
      <trkpt lat="39.474739" lon="-6.390704">
        <ele>462.289</ele>
        <time>2021-10-12T16:53:47Z</time>
      </trkpt>
      <trkpt lat="39.474879" lon="-6.390616">
        <ele>459.406</ele>
        <time>2021-10-12T16:53:49Z</time>
      </trkpt>
      <trkpt lat="39.474953" lon="-6.390573">
        <ele>457.926</ele>
        <time>2021-10-12T16:53:50Z</time>
      </trkpt>
      <trkpt lat="39.475100" lon="-6.390483">
        <ele>453.808</ele>
        <time>2021-10-12T16:53:52Z</time>
      </trkpt>
      <trkpt lat="39.475248" lon="-6.390395">
        <ele>450.566</ele>
        <time>2021-10-12T16:53:54Z</time>
      </trkpt>
      <trkpt lat="39.475324" lon="-6.390352">
        <ele>449.424</ele>
        <time>2021-10-12T16:53:55Z</time>
      </trkpt>
      <trkpt lat="39.475401" lon="-6.390306">
        <ele>448.370</ele>
        <time>2021-10-12T16:53:56Z</time>
      </trkpt>
      <trkpt lat="39.475540" lon="-6.390225">
        <ele>446.453</ele>
        <time>2021-10-12T16:53:58Z</time>
      </trkpt>
      <trkpt lat="39.475608" lon="-6.390184">
        <ele>446.099</ele>
        <time>2021-10-12T16:53:59Z</time>
      </trkpt>
      <trkpt lat="39.475677" lon="-6.390142">
        <ele>445.478</ele>
        <time>2021-10-12T16:54:00Z</time>
      </trkpt>
      <trkpt lat="39.475745" lon="-6.390100">
        <ele>444.688</ele>
        <time>2021-10-12T16:54:01Z</time>
      </trkpt>
      <trkpt lat="39.475816" lon="-6.390063">
        <ele>443.799</ele>
        <time>2021-10-12T16:54:02Z</time>
      </trkpt>
      <trkpt lat="39.475950" lon="-6.389982">
        <ele>442.994</ele>
        <time>2021-10-12T16:54:04Z</time>
      </trkpt>
      <trkpt lat="39.476083" lon="-6.389903">
        <ele>442.457</ele>
        <time>2021-10-12T16:54:06Z</time>
      </trkpt>
      <trkpt lat="39.476146" lon="-6.389870">
        <ele>442.122</ele>
        <time>2021-10-12T16:54:07Z</time>
      </trkpt>
      <trkpt lat="39.476211" lon="-6.389838">
        <ele>442.008</ele>
        <time>2021-10-12T16:54:08Z</time>
      </trkpt>
      <trkpt lat="39.476343" lon="-6.389799">
        <ele>441.837</ele>
        <time>2021-10-12T16:54:10Z</time>
      </trkpt>
      <trkpt lat="39.476420" lon="-6.389804">
        <ele>441.655</ele>
        <time>2021-10-12T16:54:11Z</time>
      </trkpt>
      <trkpt lat="39.476603" lon="-6.389809">
        <ele>440.231</ele>
        <time>2021-10-12T16:54:13Z</time>
      </trkpt>
      <trkpt lat="39.476713" lon="-6.389793">
        <ele>439.234</ele>
        <time>2021-10-12T16:54:14Z</time>
      </trkpt>
      <trkpt lat="39.476936" lon="-6.389809">
        <ele>437.780</ele>
        <time>2021-10-12T16:54:16Z</time>
      </trkpt>
      <trkpt lat="39.477029" lon="-6.389849">
        <ele>437.229</ele>
        <time>2021-10-12T16:54:17Z</time>
      </trkpt>
      <trkpt lat="39.477099" lon="-6.389899">
        <ele>436.859</ele>
        <time>2021-10-12T16:54:18Z</time>
      </trkpt>
      <trkpt lat="39.477202" lon="-6.390012">
        <ele>436.320</ele>
        <time>2021-10-12T16:54:20Z</time>
      </trkpt>
      <trkpt lat="39.477278" lon="-6.390092">
        <ele>436.575</ele>
        <time>2021-10-12T16:54:22Z</time>
      </trkpt>
      <trkpt lat="39.477323" lon="-6.390095">
        <ele>436.228</ele>
        <time>2021-10-12T16:54:25Z</time>
      </trkpt>
      <trkpt lat="39.477375" lon="-6.390072">
        <ele>435.520</ele>
        <time>2021-10-12T16:54:55Z</time>
      </trkpt>
      <trkpt lat="39.477428" lon="-6.390034">
        <ele>434.808</ele>
        <time>2021-10-12T16:54:56Z</time>
      </trkpt>
      <trkpt lat="39.477505" lon="-6.389884">
        <ele>433.695</ele>
        <time>2021-10-12T16:54:58Z</time>
      </trkpt>
      <trkpt lat="39.477522" lon="-6.389764">
        <ele>433.173</ele>
        <time>2021-10-12T16:54:59Z</time>
      </trkpt>
      <trkpt lat="39.477515" lon="-6.389483">
        <ele>433.039</ele>
        <time>2021-10-12T16:55:01Z</time>
      </trkpt>
      <trkpt lat="39.477508" lon="-6.389314">
        <ele>433.942</ele>
        <time>2021-10-12T16:55:02Z</time>
      </trkpt>
      <trkpt lat="39.477502" lon="-6.388970">
        <ele>435.758</ele>
        <time>2021-10-12T16:55:04Z</time>
      </trkpt>
      <trkpt lat="39.477500" lon="-6.388785">
        <ele>436.467</ele>
        <time>2021-10-12T16:55:05Z</time>
      </trkpt>
      <trkpt lat="39.477497" lon="-6.388384">
        <ele>437.057</ele>
        <time>2021-10-12T16:55:07Z</time>
      </trkpt>
      <trkpt lat="39.477494" lon="-6.388189">
        <ele>437.568</ele>
        <time>2021-10-12T16:55:08Z</time>
      </trkpt>
      <trkpt lat="39.477485" lon="-6.387846">
        <ele>438.688</ele>
        <time>2021-10-12T16:55:10Z</time>
      </trkpt>
      <trkpt lat="39.477481" lon="-6.387683">
        <ele>438.024</ele>
        <time>2021-10-12T16:55:11Z</time>
      </trkpt>
      <trkpt lat="39.477472" lon="-6.387311">
        <ele>436.626</ele>
        <time>2021-10-12T16:55:13Z</time>
      </trkpt>
      <trkpt lat="39.477465" lon="-6.387104">
        <ele>437.308</ele>
        <time>2021-10-12T16:55:14Z</time>
      </trkpt>
      <trkpt lat="39.477454" lon="-6.386689">
        <ele>439.126</ele>
        <time>2021-10-12T16:55:16Z</time>
      </trkpt>
      <trkpt lat="39.477454" lon="-6.386228">
        <ele>438.064</ele>
        <time>2021-10-12T16:55:18Z</time>
      </trkpt>
      <trkpt lat="39.477473" lon="-6.385707">
        <ele>433.250</ele>
        <time>2021-10-12T16:55:20Z</time>
      </trkpt>
      <trkpt lat="39.477521" lon="-6.385164">
        <ele>429.873</ele>
        <time>2021-10-12T16:55:22Z</time>
      </trkpt>
      <trkpt lat="39.477565" lon="-6.384871">
        <ele>429.219</ele>
        <time>2021-10-12T16:55:23Z</time>
      </trkpt>
      <trkpt lat="39.477695" lon="-6.384274">
        <ele>430.978</ele>
        <time>2021-10-12T16:55:25Z</time>
      </trkpt>
      <trkpt lat="39.477786" lon="-6.383973">
        <ele>431.818</ele>
        <time>2021-10-12T16:55:26Z</time>
      </trkpt>
      <trkpt lat="39.477990" lon="-6.383437">
        <ele>431.489</ele>
        <time>2021-10-12T16:55:28Z</time>
      </trkpt>
      <trkpt lat="39.478214" lon="-6.382969">
        <ele>429.758</ele>
        <time>2021-10-12T16:55:30Z</time>
      </trkpt>
      <trkpt lat="39.478452" lon="-6.382556">
        <ele>432.952</ele>
        <time>2021-10-12T16:55:32Z</time>
      </trkpt>
      <trkpt lat="39.478689" lon="-6.382229">
        <ele>434.917</ele>
        <time>2021-10-12T16:55:34Z</time>
      </trkpt>
      <trkpt lat="39.478824" lon="-6.382080">
        <ele>434.908</ele>
        <time>2021-10-12T16:55:35Z</time>
      </trkpt>
      <trkpt lat="39.479137" lon="-6.381815">
        <ele>431.893</ele>
        <time>2021-10-12T16:55:37Z</time>
      </trkpt>
      <trkpt lat="39.479322" lon="-6.381695">
        <ele>428.451</ele>
        <time>2021-10-12T16:55:38Z</time>
      </trkpt>
      <trkpt lat="39.479716" lon="-6.381508">
        <ele>425.957</ele>
        <time>2021-10-12T16:55:40Z</time>
      </trkpt>
      <trkpt lat="39.480154" lon="-6.381412">
        <ele>425.620</ele>
        <time>2021-10-12T16:55:42Z</time>
      </trkpt>
      <trkpt lat="39.480605" lon="-6.381427">
        <ele>421.996</ele>
        <time>2021-10-12T16:55:44Z</time>
      </trkpt>
      <trkpt lat="39.481024" lon="-6.381537">
        <ele>419.485</ele>
        <time>2021-10-12T16:55:46Z</time>
      </trkpt>
      <trkpt lat="39.481433" lon="-6.381712">
        <ele>416.565</ele>
        <time>2021-10-12T16:55:48Z</time>
      </trkpt>
      <trkpt lat="39.481854" lon="-6.381916">
        <ele>415.546</ele>
        <time>2021-10-12T16:55:50Z</time>
      </trkpt>
      <trkpt lat="39.482280" lon="-6.382125">
        <ele>413.314</ele>
        <time>2021-10-12T16:55:52Z</time>
      </trkpt>
      <trkpt lat="39.482496" lon="-6.382230">
        <ele>413.054</ele>
        <time>2021-10-12T16:55:53Z</time>
      </trkpt>
      <trkpt lat="39.482893" lon="-6.382428">
        <ele>406.609</ele>
        <time>2021-10-12T16:55:55Z</time>
      </trkpt>
      <trkpt lat="39.483090" lon="-6.382527">
        <ele>402.608</ele>
        <time>2021-10-12T16:55:56Z</time>
      </trkpt>
      <trkpt lat="39.483448" lon="-6.382692">
        <ele>397.919</ele>
        <time>2021-10-12T16:55:58Z</time>
      </trkpt>
      <trkpt lat="39.483626" lon="-6.382765">
        <ele>394.737</ele>
        <time>2021-10-12T16:55:59Z</time>
      </trkpt>
      <trkpt lat="39.483983" lon="-6.382859">
        <ele>391.233</ele>
        <time>2021-10-12T16:56:01Z</time>
      </trkpt>
      <trkpt lat="39.484174" lon="-6.382886">
        <ele>390.546</ele>
        <time>2021-10-12T16:56:02Z</time>
      </trkpt>
      <trkpt lat="39.484543" lon="-6.382909">
        <ele>387.992</ele>
        <time>2021-10-12T16:56:04Z</time>
      </trkpt>
      <trkpt lat="39.484720" lon="-6.382905">
        <ele>386.861</ele>
        <time>2021-10-12T16:56:05Z</time>
      </trkpt>
      <trkpt lat="39.485045" lon="-6.382860">
        <ele>388.961</ele>
        <time>2021-10-12T16:56:07Z</time>
      </trkpt>
      <trkpt lat="39.485196" lon="-6.382828">
        <ele>390.992</ele>
        <time>2021-10-12T16:56:08Z</time>
      </trkpt>
      <trkpt lat="39.485443" lon="-6.382740">
        <ele>393.644</ele>
        <time>2021-10-12T16:56:10Z</time>
      </trkpt>
      <trkpt lat="39.485546" lon="-6.382685">
        <ele>394.205</ele>
        <time>2021-10-12T16:56:11Z</time>
      </trkpt>
      <trkpt lat="39.485696" lon="-6.382532">
        <ele>394.015</ele>
        <time>2021-10-12T16:56:13Z</time>
      </trkpt>
      <trkpt lat="39.485735" lon="-6.382427">
        <ele>392.708</ele>
        <time>2021-10-12T16:56:14Z</time>
      </trkpt>
      <trkpt lat="39.485789" lon="-6.382219">
        <ele>390.042</ele>
        <time>2021-10-12T16:56:16Z</time>
      </trkpt>
      <trkpt lat="39.485935" lon="-6.382075">
        <ele>388.670</ele>
        <time>2021-10-12T16:56:18Z</time>
      </trkpt>
      <trkpt lat="39.486029" lon="-6.382038">
        <ele>388.546</ele>
        <time>2021-10-12T16:56:19Z</time>
      </trkpt>
      <trkpt lat="39.486131" lon="-6.382049">
        <ele>389.069</ele>
        <time>2021-10-12T16:56:20Z</time>
      </trkpt>
      <trkpt lat="39.486292" lon="-6.382189">
        <ele>392.855</ele>
        <time>2021-10-12T16:56:22Z</time>
      </trkpt>
      <trkpt lat="39.486336" lon="-6.382292">
        <ele>395.674</ele>
        <time>2021-10-12T16:56:23Z</time>
      </trkpt>
      <trkpt lat="39.486383" lon="-6.382528">
        <ele>401.674</ele>
        <time>2021-10-12T16:56:25Z</time>
      </trkpt>
      <trkpt lat="39.486438" lon="-6.382618">
        <ele>404.285</ele>
        <time>2021-10-12T16:56:26Z</time>
      </trkpt>
      <trkpt lat="39.486637" lon="-6.382717">
        <ele>406.928</ele>
        <time>2021-10-12T16:56:28Z</time>
      </trkpt>
      <trkpt lat="39.486946" lon="-6.382793">
        <ele>406.389</ele>
        <time>2021-10-12T16:56:30Z</time>
      </trkpt>
      <trkpt lat="39.487330" lon="-6.382928">
        <ele>406.117</ele>
        <time>2021-10-12T16:56:32Z</time>
      </trkpt>
      <trkpt lat="39.487799" lon="-6.383109">
        <ele>404.608</ele>
        <time>2021-10-12T16:56:34Z</time>
      </trkpt>
      <trkpt lat="39.488039" lon="-6.383203">
        <ele>404.250</ele>
        <time>2021-10-12T16:56:35Z</time>
      </trkpt>
      <trkpt lat="39.488268" lon="-6.383292">
        <ele>403.928</ele>
        <time>2021-10-12T16:56:36Z</time>
      </trkpt>
      <trkpt lat="39.488727" lon="-6.383466">
        <ele>400.844</ele>
        <time>2021-10-12T16:56:38Z</time>
      </trkpt>
      <trkpt lat="39.489194" lon="-6.383629">
        <ele>397.017</ele>
        <time>2021-10-12T16:56:40Z</time>
      </trkpt>
      <trkpt lat="39.489436" lon="-6.383714">
        <ele>395.863</ele>
        <time>2021-10-12T16:56:41Z</time>
      </trkpt>
      <trkpt lat="39.489681" lon="-6.383803">
        <ele>393.272</ele>
        <time>2021-10-12T16:56:42Z</time>
      </trkpt>
      <trkpt lat="39.490137" lon="-6.383978">
        <ele>391.082</ele>
        <time>2021-10-12T16:56:44Z</time>
      </trkpt>
      <trkpt lat="39.490492" lon="-6.384114">
        <ele>389.413</ele>
        <time>2021-10-12T16:56:46Z</time>
      </trkpt>
      <trkpt lat="39.490663" lon="-6.384179">
        <ele>388.287</ele>
        <time>2021-10-12T16:56:47Z</time>
      </trkpt>
      <trkpt lat="39.490837" lon="-6.384241">
        <ele>387.042</ele>
        <time>2021-10-12T16:56:48Z</time>
      </trkpt>
      <trkpt lat="39.491011" lon="-6.384306">
        <ele>386.726</ele>
        <time>2021-10-12T16:56:49Z</time>
      </trkpt>
      <trkpt lat="39.491189" lon="-6.384369">
        <ele>386.208</ele>
        <time>2021-10-12T16:56:50Z</time>
      </trkpt>
      <trkpt lat="39.491548" lon="-6.384505">
        <ele>386.196</ele>
        <time>2021-10-12T16:56:52Z</time>
      </trkpt>
      <trkpt lat="39.491955" lon="-6.384663">
        <ele>383.934</ele>
        <time>2021-10-12T16:56:54Z</time>
      </trkpt>
      <trkpt lat="39.492385" lon="-6.384822">
        <ele>382.490</ele>
        <time>2021-10-12T16:56:56Z</time>
      </trkpt>
      <trkpt lat="39.492801" lon="-6.384971">
        <ele>384.143</ele>
        <time>2021-10-12T16:56:58Z</time>
      </trkpt>
      <trkpt lat="39.493017" lon="-6.385055">
        <ele>384.929</ele>
        <time>2021-10-12T16:56:59Z</time>
      </trkpt>
      <trkpt lat="39.493451" lon="-6.385223">
        <ele>386.888</ele>
        <time>2021-10-12T16:57:01Z</time>
      </trkpt>
      <trkpt lat="39.493665" lon="-6.385301">
        <ele>387.178</ele>
        <time>2021-10-12T16:57:02Z</time>
      </trkpt>
      <trkpt lat="39.494049" lon="-6.385446">
        <ele>385.339</ele>
        <time>2021-10-12T16:57:04Z</time>
      </trkpt>
      <trkpt lat="39.494440" lon="-6.385599">
        <ele>382.366</ele>
        <time>2021-10-12T16:57:06Z</time>
      </trkpt>
      <trkpt lat="39.494642" lon="-6.385684">
        <ele>381.929</ele>
        <time>2021-10-12T16:57:07Z</time>
      </trkpt>
      <trkpt lat="39.494850" lon="-6.385782">
        <ele>381.421</ele>
        <time>2021-10-12T16:57:08Z</time>
      </trkpt>
      <trkpt lat="39.495267" lon="-6.385996">
        <ele>379.608</ele>
        <time>2021-10-12T16:57:10Z</time>
      </trkpt>
      <trkpt lat="39.495701" lon="-6.386216">
        <ele>378.114</ele>
        <time>2021-10-12T16:57:12Z</time>
      </trkpt>
      <trkpt lat="39.496133" lon="-6.386434">
        <ele>377.712</ele>
        <time>2021-10-12T16:57:14Z</time>
      </trkpt>
      <trkpt lat="39.496554" lon="-6.386648">
        <ele>373.858</ele>
        <time>2021-10-12T16:57:16Z</time>
      </trkpt>
      <trkpt lat="39.496770" lon="-6.386757">
        <ele>372.371</ele>
        <time>2021-10-12T16:57:17Z</time>
      </trkpt>
      <trkpt lat="39.497197" lon="-6.386971">
        <ele>370.367</ele>
        <time>2021-10-12T16:57:19Z</time>
      </trkpt>
      <trkpt lat="39.497411" lon="-6.387080">
        <ele>370.596</ele>
        <time>2021-10-12T16:57:20Z</time>
      </trkpt>
      <trkpt lat="39.497820" lon="-6.387287">
        <ele>373.376</ele>
        <time>2021-10-12T16:57:22Z</time>
      </trkpt>
      <trkpt lat="39.498229" lon="-6.387490">
        <ele>374.737</ele>
        <time>2021-10-12T16:57:24Z</time>
      </trkpt>
      <trkpt lat="39.498428" lon="-6.387585">
        <ele>375.377</ele>
        <time>2021-10-12T16:57:25Z</time>
      </trkpt>
      <trkpt lat="39.498631" lon="-6.387687">
        <ele>376.161</ele>
        <time>2021-10-12T16:57:26Z</time>
      </trkpt>
      <trkpt lat="39.499024" lon="-6.387883">
        <ele>377.027</ele>
        <time>2021-10-12T16:57:28Z</time>
      </trkpt>
      <trkpt lat="39.499445" lon="-6.388086">
        <ele>376.208</ele>
        <time>2021-10-12T16:57:30Z</time>
      </trkpt>
      <trkpt lat="39.499660" lon="-6.388195">
        <ele>375.595</ele>
        <time>2021-10-12T16:57:31Z</time>
      </trkpt>
      <trkpt lat="39.499881" lon="-6.388307">
        <ele>375.273</ele>
        <time>2021-10-12T16:57:32Z</time>
      </trkpt>
      <trkpt lat="39.500294" lon="-6.388522">
        <ele>375.489</ele>
        <time>2021-10-12T16:57:34Z</time>
      </trkpt>
      <trkpt lat="39.500506" lon="-6.388627">
        <ele>375.222</ele>
        <time>2021-10-12T16:57:35Z</time>
      </trkpt>
      <trkpt lat="39.500930" lon="-6.388836">
        <ele>370.588</ele>
        <time>2021-10-12T16:57:37Z</time>
      </trkpt>
      <trkpt lat="39.501147" lon="-6.388945">
        <ele>367.827</ele>
        <time>2021-10-12T16:57:38Z</time>
      </trkpt>
      <trkpt lat="39.501573" lon="-6.389158">
        <ele>366.387</ele>
        <time>2021-10-12T16:57:40Z</time>
      </trkpt>
      <trkpt lat="39.501794" lon="-6.389269">
        <ele>365.978</ele>
        <time>2021-10-12T16:57:41Z</time>
      </trkpt>
      <trkpt lat="39.502235" lon="-6.389491">
        <ele>365.231</ele>
        <time>2021-10-12T16:57:43Z</time>
      </trkpt>
      <trkpt lat="39.502461" lon="-6.389605">
        <ele>365.661</ele>
        <time>2021-10-12T16:57:44Z</time>
      </trkpt>
      <trkpt lat="39.502893" lon="-6.389818">
        <ele>366.507</ele>
        <time>2021-10-12T16:57:46Z</time>
      </trkpt>
      <trkpt lat="39.503111" lon="-6.389924">
        <ele>366.408</ele>
        <time>2021-10-12T16:57:47Z</time>
      </trkpt>
      <trkpt lat="39.503537" lon="-6.390142">
        <ele>362.811</ele>
        <time>2021-10-12T16:57:49Z</time>
      </trkpt>
      <trkpt lat="39.503754" lon="-6.390254">
        <ele>361.019</ele>
        <time>2021-10-12T16:57:50Z</time>
      </trkpt>
      <trkpt lat="39.504180" lon="-6.390470">
        <ele>360.675</ele>
        <time>2021-10-12T16:57:52Z</time>
      </trkpt>
      <trkpt lat="39.504397" lon="-6.390578">
        <ele>359.498</ele>
        <time>2021-10-12T16:57:53Z</time>
      </trkpt>
      <trkpt lat="39.504613" lon="-6.390687">
        <ele>360.484</ele>
        <time>2021-10-12T16:57:54Z</time>
      </trkpt>
      <trkpt lat="39.505060" lon="-6.390910">
        <ele>364.323</ele>
        <time>2021-10-12T16:57:56Z</time>
      </trkpt>
      <trkpt lat="39.505519" lon="-6.391130">
        <ele>364.113</ele>
        <time>2021-10-12T16:57:58Z</time>
      </trkpt>
      <trkpt lat="39.506007" lon="-6.391372">
        <ele>364.044</ele>
        <time>2021-10-12T16:58:00Z</time>
      </trkpt>
      <trkpt lat="39.506254" lon="-6.391498">
        <ele>362.984</ele>
        <time>2021-10-12T16:58:01Z</time>
      </trkpt>
      <trkpt lat="39.506496" lon="-6.391623">
        <ele>361.207</ele>
        <time>2021-10-12T16:58:02Z</time>
      </trkpt>
      <trkpt lat="39.506947" lon="-6.391855">
        <ele>360.317</ele>
        <time>2021-10-12T16:58:04Z</time>
      </trkpt>
      <trkpt lat="39.507408" lon="-6.392092">
        <ele>356.808</ele>
        <time>2021-10-12T16:58:06Z</time>
      </trkpt>
      <trkpt lat="39.507863" lon="-6.392318">
        <ele>355.176</ele>
        <time>2021-10-12T16:58:08Z</time>
      </trkpt>
      <trkpt lat="39.508295" lon="-6.392531">
        <ele>357.084</ele>
        <time>2021-10-12T16:58:10Z</time>
      </trkpt>
      <trkpt lat="39.508713" lon="-6.392747">
        <ele>358.890</ele>
        <time>2021-10-12T16:58:12Z</time>
      </trkpt>
      <trkpt lat="39.509118" lon="-6.392955">
        <ele>358.893</ele>
        <time>2021-10-12T16:58:14Z</time>
      </trkpt>
      <trkpt lat="39.509522" lon="-6.393160">
        <ele>358.719</ele>
        <time>2021-10-12T16:58:16Z</time>
      </trkpt>
      <trkpt lat="39.509739" lon="-6.393270">
        <ele>359.928</ele>
        <time>2021-10-12T16:58:17Z</time>
      </trkpt>
      <trkpt lat="39.510208" lon="-6.393505">
        <ele>362.948</ele>
        <time>2021-10-12T16:58:19Z</time>
      </trkpt>
      <trkpt lat="39.510466" lon="-6.393629">
        <ele>363.079</ele>
        <time>2021-10-12T16:58:20Z</time>
      </trkpt>
      <trkpt lat="39.510983" lon="-6.393895">
        <ele>364.031</ele>
        <time>2021-10-12T16:58:22Z</time>
      </trkpt>
      <trkpt lat="39.511243" lon="-6.394043">
        <ele>364.161</ele>
        <time>2021-10-12T16:58:23Z</time>
      </trkpt>
      <trkpt lat="39.511726" lon="-6.394325">
        <ele>363.807</ele>
        <time>2021-10-12T16:58:25Z</time>
      </trkpt>
      <trkpt lat="39.511969" lon="-6.394467">
        <ele>365.108</ele>
        <time>2021-10-12T16:58:26Z</time>
      </trkpt>
      <trkpt lat="39.512453" lon="-6.394740">
        <ele>366.031</ele>
        <time>2021-10-12T16:58:28Z</time>
      </trkpt>
      <trkpt lat="39.512712" lon="-6.394878">
        <ele>366.829</ele>
        <time>2021-10-12T16:58:29Z</time>
      </trkpt>
      <trkpt lat="39.513239" lon="-6.395168">
        <ele>368.975</ele>
        <time>2021-10-12T16:58:31Z</time>
      </trkpt>
      <trkpt lat="39.513514" lon="-6.395322">
        <ele>369.238</ele>
        <time>2021-10-12T16:58:32Z</time>
      </trkpt>
      <trkpt lat="39.514045" lon="-6.395620">
        <ele>367.944</ele>
        <time>2021-10-12T16:58:34Z</time>
      </trkpt>
      <trkpt lat="39.514319" lon="-6.395775">
        <ele>365.553</ele>
        <time>2021-10-12T16:58:35Z</time>
      </trkpt>
      <trkpt lat="39.514593" lon="-6.395931">
        <ele>363.313</ele>
        <time>2021-10-12T16:58:36Z</time>
      </trkpt>
      <trkpt lat="39.515145" lon="-6.396257">
        <ele>361.014</ele>
        <time>2021-10-12T16:58:38Z</time>
      </trkpt>
      <trkpt lat="39.515694" lon="-6.396565">
        <ele>359.557</ele>
        <time>2021-10-12T16:58:40Z</time>
      </trkpt>
      <trkpt lat="39.516245" lon="-6.396874">
        <ele>356.800</ele>
        <time>2021-10-12T16:58:42Z</time>
      </trkpt>
      <trkpt lat="39.516797" lon="-6.397184">
        <ele>354.120</ele>
        <time>2021-10-12T16:58:44Z</time>
      </trkpt>
      <trkpt lat="39.517330" lon="-6.397480">
        <ele>352.908</ele>
        <time>2021-10-12T16:58:46Z</time>
      </trkpt>
      <trkpt lat="39.517877" lon="-6.397751">
        <ele>353.683</ele>
        <time>2021-10-12T16:58:48Z</time>
      </trkpt>
      <trkpt lat="39.518440" lon="-6.397933">
        <ele>354.631</ele>
        <time>2021-10-12T16:58:50Z</time>
      </trkpt>
      <trkpt lat="39.519001" lon="-6.398017">
        <ele>353.537</ele>
        <time>2021-10-12T16:58:52Z</time>
      </trkpt>
      <trkpt lat="39.519290" lon="-6.398039">
        <ele>353.080</ele>
        <time>2021-10-12T16:58:53Z</time>
      </trkpt>
      <trkpt lat="39.519866" lon="-6.398064">
        <ele>351.536</ele>
        <time>2021-10-12T16:58:55Z</time>
      </trkpt>
      <trkpt lat="39.520164" lon="-6.398079">
        <ele>351.015</ele>
        <time>2021-10-12T16:58:56Z</time>
      </trkpt>
      <trkpt lat="39.520722" lon="-6.398110">
        <ele>352.115</ele>
        <time>2021-10-12T16:58:58Z</time>
      </trkpt>
      <trkpt lat="39.521280" lon="-6.398142">
        <ele>355.676</ele>
        <time>2021-10-12T16:59:00Z</time>
      </trkpt>
      <trkpt lat="39.521553" lon="-6.398157">
        <ele>356.038</ele>
        <time>2021-10-12T16:59:01Z</time>
      </trkpt>
      <trkpt lat="39.521824" lon="-6.398174">
        <ele>356.070</ele>
        <time>2021-10-12T16:59:02Z</time>
      </trkpt>
      <trkpt lat="39.522341" lon="-6.398210">
        <ele>355.117</ele>
        <time>2021-10-12T16:59:04Z</time>
      </trkpt>
      <trkpt lat="39.522606" lon="-6.398227">
        <ele>354.408</ele>
        <time>2021-10-12T16:59:05Z</time>
      </trkpt>
      <trkpt lat="39.523133" lon="-6.398260">
        <ele>353.741</ele>
        <time>2021-10-12T16:59:07Z</time>
      </trkpt>
      <trkpt lat="39.523406" lon="-6.398284">
        <ele>354.469</ele>
        <time>2021-10-12T16:59:08Z</time>
      </trkpt>
      <trkpt lat="39.523929" lon="-6.398339">
        <ele>357.875</ele>
        <time>2021-10-12T16:59:10Z</time>
      </trkpt>
      <trkpt lat="39.524443" lon="-6.398457">
        <ele>357.968</ele>
        <time>2021-10-12T16:59:12Z</time>
      </trkpt>
      <trkpt lat="39.524895" lon="-6.398657">
        <ele>359.154</ele>
        <time>2021-10-12T16:59:14Z</time>
      </trkpt>
      <trkpt lat="39.525286" lon="-6.398879">
        <ele>358.013</ele>
        <time>2021-10-12T16:59:16Z</time>
      </trkpt>
      <trkpt lat="39.525467" lon="-6.399002">
        <ele>357.963</ele>
        <time>2021-10-12T16:59:17Z</time>
      </trkpt>
      <trkpt lat="39.525639" lon="-6.399129">
        <ele>356.274</ele>
        <time>2021-10-12T16:59:18Z</time>
      </trkpt>
      <trkpt lat="39.525978" lon="-6.399417">
        <ele>354.848</ele>
        <time>2021-10-12T16:59:20Z</time>
      </trkpt>
      <trkpt lat="39.526320" lon="-6.399727">
        <ele>352.861</ele>
        <time>2021-10-12T16:59:22Z</time>
      </trkpt>
      <trkpt lat="39.526504" lon="-6.399890">
        <ele>352.417</ele>
        <time>2021-10-12T16:59:23Z</time>
      </trkpt>
      <trkpt lat="39.526879" lon="-6.400210">
        <ele>352.308</ele>
        <time>2021-10-12T16:59:25Z</time>
      </trkpt>
      <trkpt lat="39.527072" lon="-6.400378">
        <ele>352.782</ele>
        <time>2021-10-12T16:59:26Z</time>
      </trkpt>
      <trkpt lat="39.527440" lon="-6.400709">
        <ele>353.820</ele>
        <time>2021-10-12T16:59:28Z</time>
      </trkpt>
      <trkpt lat="39.527629" lon="-6.400876">
        <ele>353.556</ele>
        <time>2021-10-12T16:59:29Z</time>
      </trkpt>
      <trkpt lat="39.527818" lon="-6.401041">
        <ele>352.719</ele>
        <time>2021-10-12T16:59:30Z</time>
      </trkpt>
      <trkpt lat="39.528200" lon="-6.401379">
        <ele>352.495</ele>
        <time>2021-10-12T16:59:32Z</time>
      </trkpt>
      <trkpt lat="39.528575" lon="-6.401702">
        <ele>352.344</ele>
        <time>2021-10-12T16:59:34Z</time>
      </trkpt>
      <trkpt lat="39.528963" lon="-6.402046">
        <ele>351.394</ele>
        <time>2021-10-12T16:59:36Z</time>
      </trkpt>
      <trkpt lat="39.529159" lon="-6.402220">
        <ele>351.085</ele>
        <time>2021-10-12T16:59:37Z</time>
      </trkpt>
      <trkpt lat="39.529365" lon="-6.402402">
        <ele>351.039</ele>
        <time>2021-10-12T16:59:38Z</time>
      </trkpt>
      <trkpt lat="39.529787" lon="-6.402763">
        <ele>352.201</ele>
        <time>2021-10-12T16:59:40Z</time>
      </trkpt>
      <trkpt lat="39.530011" lon="-6.402952">
        <ele>353.121</ele>
        <time>2021-10-12T16:59:41Z</time>
      </trkpt>
      <trkpt lat="39.530243" lon="-6.403141">
        <ele>355.708</ele>
        <time>2021-10-12T16:59:42Z</time>
      </trkpt>
      <trkpt lat="39.530708" lon="-6.403492">
        <ele>356.221</ele>
        <time>2021-10-12T16:59:44Z</time>
      </trkpt>
      <trkpt lat="39.531135" lon="-6.403774">
        <ele>357.119</ele>
        <time>2021-10-12T16:59:46Z</time>
      </trkpt>
      <trkpt lat="39.531530" lon="-6.404021">
        <ele>356.595</ele>
        <time>2021-10-12T16:59:48Z</time>
      </trkpt>
      <trkpt lat="39.531885" lon="-6.404256">
        <ele>356.048</ele>
        <time>2021-10-12T16:59:50Z</time>
      </trkpt>
      <trkpt lat="39.532200" lon="-6.404472">
        <ele>355.264</ele>
        <time>2021-10-12T16:59:52Z</time>
      </trkpt>
      <trkpt lat="39.532359" lon="-6.404577">
        <ele>355.583</ele>
        <time>2021-10-12T16:59:53Z</time>
      </trkpt>
      <trkpt lat="39.532688" lon="-6.404788">
        <ele>357.073</ele>
        <time>2021-10-12T16:59:55Z</time>
      </trkpt>
      <trkpt lat="39.532861" lon="-6.404900">
        <ele>358.174</ele>
        <time>2021-10-12T16:59:56Z</time>
      </trkpt>
      <trkpt lat="39.533193" lon="-6.405122">
        <ele>360.327</ele>
        <time>2021-10-12T16:59:58Z</time>
      </trkpt>
      <trkpt lat="39.533537" lon="-6.405358">
        <ele>361.368</ele>
        <time>2021-10-12T17:00:00Z</time>
      </trkpt>
      <trkpt lat="39.533714" lon="-6.405474">
        <ele>361.914</ele>
        <time>2021-10-12T17:00:01Z</time>
      </trkpt>
      <trkpt lat="39.533896" lon="-6.405596">
        <ele>362.908</ele>
        <time>2021-10-12T17:00:02Z</time>
      </trkpt>
      <trkpt lat="39.534248" lon="-6.405822">
        <ele>364.390</ele>
        <time>2021-10-12T17:00:04Z</time>
      </trkpt>
      <trkpt lat="39.534420" lon="-6.405933">
        <ele>364.618</ele>
        <time>2021-10-12T17:00:05Z</time>
      </trkpt>
      <trkpt lat="39.534729" lon="-6.406138">
        <ele>364.824</ele>
        <time>2021-10-12T17:00:07Z</time>
      </trkpt>
      <trkpt lat="39.534870" lon="-6.406238">
        <ele>364.177</ele>
        <time>2021-10-12T17:00:08Z</time>
      </trkpt>
      <trkpt lat="39.535115" lon="-6.406410">
        <ele>363.463</ele>
        <time>2021-10-12T17:00:10Z</time>
      </trkpt>
      <trkpt lat="39.535226" lon="-6.406484">
        <ele>363.842</ele>
        <time>2021-10-12T17:00:11Z</time>
      </trkpt>
      <trkpt lat="39.535422" lon="-6.406612">
        <ele>364.552</ele>
        <time>2021-10-12T17:00:13Z</time>
      </trkpt>
      <trkpt lat="39.535515" lon="-6.406663">
        <ele>364.933</ele>
        <time>2021-10-12T17:00:14Z</time>
      </trkpt>
      <trkpt lat="39.535667" lon="-6.406695">
        <ele>365.054</ele>
        <time>2021-10-12T17:00:16Z</time>
      </trkpt>
      <trkpt lat="39.535753" lon="-6.406687">
        <ele>365.156</ele>
        <time>2021-10-12T17:00:17Z</time>
      </trkpt>
      <trkpt lat="39.535932" lon="-6.406718">
        <ele>365.511</ele>
        <time>2021-10-12T17:00:19Z</time>
      </trkpt>
      <trkpt lat="39.536010" lon="-6.406787">
        <ele>365.808</ele>
        <time>2021-10-12T17:00:20Z</time>
      </trkpt>
      <trkpt lat="39.536140" lon="-6.406997">
        <ele>366.443</ele>
        <time>2021-10-12T17:00:22Z</time>
      </trkpt>
      <trkpt lat="39.536233" lon="-6.407103">
        <ele>367.431</ele>
        <time>2021-10-12T17:00:23Z</time>
      </trkpt>
      <trkpt lat="39.536487" lon="-6.407284">
        <ele>368.967</ele>
        <time>2021-10-12T17:00:25Z</time>
      </trkpt>
      <trkpt lat="39.536643" lon="-6.407381">
        <ele>369.060</ele>
        <time>2021-10-12T17:00:26Z</time>
      </trkpt>
      <trkpt lat="39.536970" lon="-6.407604">
        <ele>368.146</ele>
        <time>2021-10-12T17:00:28Z</time>
      </trkpt>
      <trkpt lat="39.537143" lon="-6.407720">
        <ele>368.925</ele>
        <time>2021-10-12T17:00:29Z</time>
      </trkpt>
      <trkpt lat="39.537454" lon="-6.407922">
        <ele>370.765</ele>
        <time>2021-10-12T17:00:31Z</time>
      </trkpt>
      <trkpt lat="39.537590" lon="-6.408014">
        <ele>371.316</ele>
        <time>2021-10-12T17:00:32Z</time>
      </trkpt>
      <trkpt lat="39.537812" lon="-6.408166">
        <ele>372.169</ele>
        <time>2021-10-12T17:00:34Z</time>
      </trkpt>
      <trkpt lat="39.538019" lon="-6.408257">
        <ele>372.904</ele>
        <time>2021-10-12T17:00:36Z</time>
      </trkpt>
      <trkpt lat="39.538123" lon="-6.408264">
        <ele>373.724</ele>
        <time>2021-10-12T17:00:37Z</time>
      </trkpt>
      <trkpt lat="39.538222" lon="-6.408277">
        <ele>374.708</ele>
        <time>2021-10-12T17:00:38Z</time>
      </trkpt>
      <trkpt lat="39.538389" lon="-6.408406">
        <ele>376.294</ele>
        <time>2021-10-12T17:00:40Z</time>
      </trkpt>
      <trkpt lat="39.538463" lon="-6.408524">
        <ele>376.592</ele>
        <time>2021-10-12T17:00:41Z</time>
      </trkpt>
      <trkpt lat="39.538541" lon="-6.408656">
        <ele>376.918</ele>
        <time>2021-10-12T17:00:42Z</time>
      </trkpt>
      <trkpt lat="39.538642" lon="-6.408769">
        <ele>377.621</ele>
        <time>2021-10-12T17:00:43Z</time>
      </trkpt>
      <trkpt lat="39.538770" lon="-6.408861">
        <ele>378.027</ele>
        <time>2021-10-12T17:00:44Z</time>
      </trkpt>
      <trkpt lat="39.539060" lon="-6.409037">
        <ele>378.056</ele>
        <time>2021-10-12T17:00:46Z</time>
      </trkpt>
      <trkpt lat="39.539404" lon="-6.409244">
        <ele>378.686</ele>
        <time>2021-10-12T17:00:48Z</time>
      </trkpt>
      <trkpt lat="39.539809" lon="-6.409448">
        <ele>377.737</ele>
        <time>2021-10-12T17:00:50Z</time>
      </trkpt>
      <trkpt lat="39.540271" lon="-6.409645">
        <ele>376.098</ele>
        <time>2021-10-12T17:00:52Z</time>
      </trkpt>
      <trkpt lat="39.540509" lon="-6.409739">
        <ele>376.815</ele>
        <time>2021-10-12T17:00:53Z</time>
      </trkpt>
      <trkpt lat="39.540739" lon="-6.409824">
        <ele>376.626</ele>
        <time>2021-10-12T17:00:54Z</time>
      </trkpt>
      <trkpt lat="39.541204" lon="-6.409994">
        <ele>375.708</ele>
        <time>2021-10-12T17:00:56Z</time>
      </trkpt>
      <trkpt lat="39.541686" lon="-6.410165">
        <ele>376.117</ele>
        <time>2021-10-12T17:00:58Z</time>
      </trkpt>
      <trkpt lat="39.541930" lon="-6.410252">
        <ele>375.095</ele>
        <time>2021-10-12T17:00:59Z</time>
      </trkpt>
      <trkpt lat="39.542169" lon="-6.410337">
        <ele>375.321</ele>
        <time>2021-10-12T17:01:00Z</time>
      </trkpt>
      <trkpt lat="39.542626" lon="-6.410498">
        <ele>375.664</ele>
        <time>2021-10-12T17:01:02Z</time>
      </trkpt>
      <trkpt lat="39.543030" lon="-6.410638">
        <ele>376.650</ele>
        <time>2021-10-12T17:01:04Z</time>
      </trkpt>
      <trkpt lat="39.543411" lon="-6.410774">
        <ele>376.519</ele>
        <time>2021-10-12T17:01:06Z</time>
      </trkpt>
      <trkpt lat="39.543780" lon="-6.410907">
        <ele>376.169</ele>
        <time>2021-10-12T17:01:08Z</time>
      </trkpt>
      <trkpt lat="39.544138" lon="-6.411046">
        <ele>376.050</ele>
        <time>2021-10-12T17:01:10Z</time>
      </trkpt>
      <trkpt lat="39.544485" lon="-6.411204">
        <ele>377.099</ele>
        <time>2021-10-12T17:01:12Z</time>
      </trkpt>
      <trkpt lat="39.544659" lon="-6.411287">
        <ele>377.507</ele>
        <time>2021-10-12T17:01:13Z</time>
      </trkpt>
      <trkpt lat="39.544842" lon="-6.411372">
        <ele>377.927</ele>
        <time>2021-10-12T17:01:14Z</time>
      </trkpt>
      <trkpt lat="39.545211" lon="-6.411550">
        <ele>379.508</ele>
        <time>2021-10-12T17:01:16Z</time>
      </trkpt>
      <trkpt lat="39.545612" lon="-6.411740">
        <ele>381.647</ele>
        <time>2021-10-12T17:01:18Z</time>
      </trkpt>
      <trkpt lat="39.545823" lon="-6.411841">
        <ele>381.055</ele>
        <time>2021-10-12T17:01:19Z</time>
      </trkpt>
      <trkpt lat="39.546045" lon="-6.411943">
        <ele>381.021</ele>
        <time>2021-10-12T17:01:20Z</time>
      </trkpt>
      <trkpt lat="39.546495" lon="-6.412135">
        <ele>381.124</ele>
        <time>2021-10-12T17:01:22Z</time>
      </trkpt>
      <trkpt lat="39.546728" lon="-6.412233">
        <ele>381.070</ele>
        <time>2021-10-12T17:01:23Z</time>
      </trkpt>
      <trkpt lat="39.547189" lon="-6.412466">
        <ele>380.279</ele>
        <time>2021-10-12T17:01:25Z</time>
      </trkpt>
      <trkpt lat="39.547429" lon="-6.412595">
        <ele>381.169</ele>
        <time>2021-10-12T17:01:26Z</time>
      </trkpt>
      <trkpt lat="39.547888" lon="-6.412814">
        <ele>383.340</ele>
        <time>2021-10-12T17:01:28Z</time>
      </trkpt>
      <trkpt lat="39.548116" lon="-6.412913">
        <ele>383.699</ele>
        <time>2021-10-12T17:01:29Z</time>
      </trkpt>
      <trkpt lat="39.548554" lon="-6.413087">
        <ele>383.207</ele>
        <time>2021-10-12T17:01:31Z</time>
      </trkpt>
      <trkpt lat="39.548773" lon="-6.413166">
        <ele>383.027</ele>
        <time>2021-10-12T17:01:32Z</time>
      </trkpt>
      <trkpt lat="39.549157" lon="-6.413287">
        <ele>382.008</ele>
        <time>2021-10-12T17:01:34Z</time>
      </trkpt>
      <trkpt lat="39.549344" lon="-6.413343">
        <ele>381.397</ele>
        <time>2021-10-12T17:01:35Z</time>
      </trkpt>
      <trkpt lat="39.549528" lon="-6.413399">
        <ele>380.825</ele>
        <time>2021-10-12T17:01:36Z</time>
      </trkpt>
      <trkpt lat="39.549899" lon="-6.413513">
        <ele>380.151</ele>
        <time>2021-10-12T17:01:38Z</time>
      </trkpt>
      <trkpt lat="39.550243" lon="-6.413620">
        <ele>379.134</ele>
        <time>2021-10-12T17:01:40Z</time>
      </trkpt>
      <trkpt lat="39.550409" lon="-6.413672">
        <ele>378.660</ele>
        <time>2021-10-12T17:01:41Z</time>
      </trkpt>
      <trkpt lat="39.550568" lon="-6.413723">
        <ele>378.479</ele>
        <time>2021-10-12T17:01:42Z</time>
      </trkpt>
      <trkpt lat="39.550870" lon="-6.413816">
        <ele>378.689</ele>
        <time>2021-10-12T17:01:44Z</time>
      </trkpt>
      <trkpt lat="39.551156" lon="-6.413901">
        <ele>378.030</ele>
        <time>2021-10-12T17:01:46Z</time>
      </trkpt>
      <trkpt lat="39.551435" lon="-6.413987">
        <ele>377.578</ele>
        <time>2021-10-12T17:01:48Z</time>
      </trkpt>
      <trkpt lat="39.551698" lon="-6.414066">
        <ele>376.333</ele>
        <time>2021-10-12T17:01:50Z</time>
      </trkpt>
      <trkpt lat="39.551928" lon="-6.414137">
        <ele>376.026</ele>
        <time>2021-10-12T17:01:52Z</time>
      </trkpt>
      <trkpt lat="39.552139" lon="-6.414205">
        <ele>376.608</ele>
        <time>2021-10-12T17:01:54Z</time>
      </trkpt>
      <trkpt lat="39.552239" lon="-6.414236">
        <ele>376.715</ele>
        <time>2021-10-12T17:01:55Z</time>
      </trkpt>
      <trkpt lat="39.552338" lon="-6.414266">
        <ele>376.263</ele>
        <time>2021-10-12T17:01:56Z</time>
      </trkpt>
      <trkpt lat="39.552509" lon="-6.414317">
        <ele>375.559</ele>
        <time>2021-10-12T17:01:58Z</time>
      </trkpt>
      <trkpt lat="39.552589" lon="-6.414341">
        <ele>375.532</ele>
        <time>2021-10-12T17:01:59Z</time>
      </trkpt>
      <trkpt lat="39.552728" lon="-6.414379">
        <ele>375.778</ele>
        <time>2021-10-12T17:02:01Z</time>
      </trkpt>
      <trkpt lat="39.552787" lon="-6.414398">
        <ele>375.827</ele>
        <time>2021-10-12T17:02:02Z</time>
      </trkpt>
      <trkpt lat="39.552886" lon="-6.414430">
        <ele>375.687</ele>
        <time>2021-10-12T17:02:04Z</time>
      </trkpt>
      <trkpt lat="39.552933" lon="-6.414446">
        <ele>375.478</ele>
        <time>2021-10-12T17:02:05Z</time>
      </trkpt>
      <trkpt lat="39.553036" lon="-6.414481">
        <ele>375.134</ele>
        <time>2021-10-12T17:02:07Z</time>
      </trkpt>
      <trkpt lat="39.553098" lon="-6.414503">
        <ele>374.855</ele>
        <time>2021-10-12T17:02:08Z</time>
      </trkpt>
      <trkpt lat="39.553216" lon="-6.414541">
        <ele>374.410</ele>
        <time>2021-10-12T17:02:10Z</time>
      </trkpt>
      <trkpt lat="39.553316" lon="-6.414574">
        <ele>374.108</ele>
        <time>2021-10-12T17:02:12Z</time>
      </trkpt>
      <trkpt lat="39.553396" lon="-6.414598">
        <ele>373.851</ele>
        <time>2021-10-12T17:02:14Z</time>
      </trkpt>
      <trkpt lat="39.553470" lon="-6.414613">
        <ele>373.589</ele>
        <time>2021-10-12T17:02:16Z</time>
      </trkpt>
      <trkpt lat="39.553545" lon="-6.414633">
        <ele>373.285</ele>
        <time>2021-10-12T17:02:18Z</time>
      </trkpt>
      <trkpt lat="39.553596" lon="-6.414630">
        <ele>373.128</ele>
        <time>2021-10-12T17:02:19Z</time>
      </trkpt>
      <trkpt lat="39.553639" lon="-6.414581">
        <ele>372.954</ele>
        <time>2021-10-12T17:02:21Z</time>
      </trkpt>
      <trkpt lat="39.553645" lon="-6.414480">
        <ele>372.993</ele>
        <time>2021-10-12T17:02:23Z</time>
      </trkpt>
      <trkpt lat="39.553620" lon="-6.414311">
        <ele>373.093</ele>
        <time>2021-10-12T17:02:25Z</time>
      </trkpt>
      <trkpt lat="39.553608" lon="-6.414218">
        <ele>373.054</ele>
        <time>2021-10-12T17:02:26Z</time>
      </trkpt>
      <trkpt lat="39.553585" lon="-6.414052">
        <ele>373.149</ele>
        <time>2021-10-12T17:02:28Z</time>
      </trkpt>
      <trkpt lat="39.553564" lon="-6.413887">
        <ele>373.202</ele>
        <time>2021-10-12T17:02:30Z</time>
      </trkpt>
      <trkpt lat="39.553554" lon="-6.413809">
        <ele>372.922</ele>
        <time>2021-10-12T17:02:31Z</time>
      </trkpt>
      <trkpt lat="39.553542" lon="-6.413737">
        <ele>372.708</ele>
        <time>2021-10-12T17:02:32Z</time>
      </trkpt>
      <trkpt lat="39.553533" lon="-6.413617">
        <ele>372.352</ele>
        <time>2021-10-12T17:02:34Z</time>
      </trkpt>
      <trkpt lat="39.553578" lon="-6.413556">
        <ele>371.970</ele>
        <time>2021-10-12T17:02:36Z</time>
      </trkpt>
      <trkpt lat="39.553672" lon="-6.413564">
        <ele>371.676</ele>
        <time>2021-10-12T17:02:38Z</time>
      </trkpt>
      <trkpt lat="39.553801" lon="-6.413617">
        <ele>371.329</ele>
        <time>2021-10-12T17:02:40Z</time>
      </trkpt>
      <trkpt lat="39.553949" lon="-6.413664">
        <ele>371.225</ele>
        <time>2021-10-12T17:02:42Z</time>
      </trkpt>
      <trkpt lat="39.554105" lon="-6.413708">
        <ele>371.344</ele>
        <time>2021-10-12T17:02:44Z</time>
      </trkpt>
      <trkpt lat="39.554262" lon="-6.413763">
        <ele>371.484</ele>
        <time>2021-10-12T17:02:46Z</time>
      </trkpt>
      <trkpt lat="39.554421" lon="-6.413812">
        <ele>371.195</ele>
        <time>2021-10-12T17:02:48Z</time>
      </trkpt>
      <trkpt lat="39.554590" lon="-6.413860">
        <ele>371.086</ele>
        <time>2021-10-12T17:02:50Z</time>
      </trkpt>
      <trkpt lat="39.554745" lon="-6.413903">
        <ele>371.160</ele>
        <time>2021-10-12T17:02:52Z</time>
      </trkpt>
      <trkpt lat="39.554879" lon="-6.413939">
        <ele>371.626</ele>
        <time>2021-10-12T17:02:54Z</time>
      </trkpt>
      <trkpt lat="39.554936" lon="-6.413958">
        <ele>371.808</ele>
        <time>2021-10-12T17:02:55Z</time>
      </trkpt>
      <trkpt lat="39.554981" lon="-6.413969">
        <ele>372.086</ele>
        <time>2021-10-12T17:02:56Z</time>
      </trkpt>
      <trkpt lat="39.555027" lon="-6.413980">
        <ele>372.024</ele>
        <time>2021-10-12T17:02:59Z</time>
      </trkpt>
      <trkpt lat="39.555096" lon="-6.414004">
        <ele>372.010</ele>
        <time>2021-10-12T17:03:09Z</time>
      </trkpt>
      <trkpt lat="39.555186" lon="-6.414030">
        <ele>372.083</ele>
        <time>2021-10-12T17:03:11Z</time>
      </trkpt>
      <trkpt lat="39.555254" lon="-6.414049">
        <ele>372.069</ele>
        <time>2021-10-12T17:03:13Z</time>
      </trkpt>
      <trkpt lat="39.555319" lon="-6.414070">
        <ele>372.198</ele>
        <time>2021-10-12T17:03:15Z</time>
      </trkpt>
      <trkpt lat="39.555389" lon="-6.414094">
        <ele>372.388</ele>
        <time>2021-10-12T17:03:17Z</time>
      </trkpt>
      <trkpt lat="39.555467" lon="-6.414104">
        <ele>372.529</ele>
        <time>2021-10-12T17:03:19Z</time>
      </trkpt>
      <trkpt lat="39.555552" lon="-6.414127">
        <ele>372.884</ele>
        <time>2021-10-12T17:03:21Z</time>
      </trkpt>
      <trkpt lat="39.555607" lon="-6.414145">
        <ele>373.107</ele>
        <time>2021-10-12T17:03:22Z</time>
      </trkpt>
      <trkpt lat="39.555663" lon="-6.414160">
        <ele>373.417</ele>
        <time>2021-10-12T17:03:23Z</time>
      </trkpt>
      <trkpt lat="39.555740" lon="-6.414181">
        <ele>373.708</ele>
        <time>2021-10-12T17:03:25Z</time>
      </trkpt>
      <trkpt lat="39.555807" lon="-6.414203">
        <ele>373.976</ele>
        <time>2021-10-12T17:03:27Z</time>
      </trkpt>
      <trkpt lat="39.555873" lon="-6.414228">
        <ele>373.964</ele>
        <time>2021-10-12T17:03:29Z</time>
      </trkpt>
      <trkpt lat="39.555951" lon="-6.414253">
        <ele>373.790</ele>
        <time>2021-10-12T17:03:31Z</time>
      </trkpt>
      <trkpt lat="39.556022" lon="-6.414276">
        <ele>373.673</ele>
        <time>2021-10-12T17:03:33Z</time>
      </trkpt>
      <trkpt lat="39.556086" lon="-6.414296">
        <ele>373.599</ele>
        <time>2021-10-12T17:03:35Z</time>
      </trkpt>
      <trkpt lat="39.556151" lon="-6.414317">
        <ele>373.338</ele>
        <time>2021-10-12T17:03:37Z</time>
      </trkpt>
      <trkpt lat="39.556206" lon="-6.414341">
        <ele>373.118</ele>
        <time>2021-10-12T17:03:39Z</time>
      </trkpt>
      <trkpt lat="39.556257" lon="-6.414380">
        <ele>372.859</ele>
        <time>2021-10-12T17:03:43Z</time>
      </trkpt>
      <trkpt lat="39.556289" lon="-6.414458">
        <ele>372.867</ele>
        <time>2021-10-12T17:03:45Z</time>
      </trkpt>
      <trkpt lat="39.556297" lon="-6.414547">
        <ele>373.281</ele>
        <time>2021-10-12T17:03:46Z</time>
      </trkpt>
      <trkpt lat="39.556294" lon="-6.414652">
        <ele>373.719</ele>
        <time>2021-10-12T17:03:47Z</time>
      </trkpt>
      <trkpt lat="39.556280" lon="-6.414863">
        <ele>374.308</ele>
        <time>2021-10-12T17:03:49Z</time>
      </trkpt>
      <trkpt lat="39.556275" lon="-6.414956">
        <ele>374.574</ele>
        <time>2021-10-12T17:03:50Z</time>
      </trkpt>
      <trkpt lat="39.556269" lon="-6.415083">
        <ele>374.762</ele>
        <time>2021-10-12T17:03:52Z</time>
      </trkpt>
      <trkpt lat="39.556264" lon="-6.415167">
        <ele>374.878</ele>
        <time>2021-10-12T17:03:54Z</time>
      </trkpt>
      <trkpt lat="39.556263" lon="-6.415230">
        <ele>374.911</ele>
        <time>2021-10-12T17:03:55Z</time>
      </trkpt>
      <trkpt lat="39.556262" lon="-6.415293">
        <ele>375.037</ele>
        <time>2021-10-12T17:03:56Z</time>
      </trkpt>
      <trkpt lat="39.556268" lon="-6.415366">
        <ele>374.986</ele>
        <time>2021-10-12T17:03:58Z</time>
      </trkpt>
      <trkpt lat="39.556289" lon="-6.415440">
        <ele>374.876</ele>
        <time>2021-10-12T17:04:00Z</time>
      </trkpt>
      <trkpt lat="39.556354" lon="-6.415499">
        <ele>374.957</ele>
        <time>2021-10-12T17:04:02Z</time>
      </trkpt>
      <trkpt lat="39.556464" lon="-6.415534">
        <ele>375.255</ele>
        <time>2021-10-12T17:04:04Z</time>
      </trkpt>
      <trkpt lat="39.556563" lon="-6.415566">
        <ele>375.607</ele>
        <time>2021-10-12T17:04:06Z</time>
      </trkpt>
      <trkpt lat="39.556669" lon="-6.415605">
        <ele>376.017</ele>
        <time>2021-10-12T17:04:08Z</time>
      </trkpt>
      <trkpt lat="39.556805" lon="-6.415648">
        <ele>376.008</ele>
        <time>2021-10-12T17:04:10Z</time>
      </trkpt>
      <trkpt lat="39.556949" lon="-6.415697">
        <ele>376.063</ele>
        <time>2021-10-12T17:04:12Z</time>
      </trkpt>
      <trkpt lat="39.557090" lon="-6.415744">
        <ele>376.081</ele>
        <time>2021-10-12T17:04:14Z</time>
      </trkpt>
      <trkpt lat="39.557232" lon="-6.415783">
        <ele>376.087</ele>
        <time>2021-10-12T17:04:16Z</time>
      </trkpt>
      <trkpt lat="39.557372" lon="-6.415830">
        <ele>376.010</ele>
        <time>2021-10-12T17:04:18Z</time>
      </trkpt>
      <trkpt lat="39.557501" lon="-6.415868">
        <ele>376.076</ele>
        <time>2021-10-12T17:04:20Z</time>
      </trkpt>
      <trkpt lat="39.557607" lon="-6.415836">
        <ele>375.615</ele>
        <time>2021-10-12T17:04:22Z</time>
      </trkpt>
      <trkpt lat="39.557664" lon="-6.415799">
        <ele>375.255</ele>
        <time>2021-10-12T17:04:23Z</time>
      </trkpt>
      <trkpt lat="39.557732" lon="-6.415758">
        <ele>374.796</ele>
        <time>2021-10-12T17:04:24Z</time>
      </trkpt>
      <trkpt lat="39.557886" lon="-6.415649">
        <ele>373.511</ele>
        <time>2021-10-12T17:04:26Z</time>
      </trkpt>
      <trkpt lat="39.558055" lon="-6.415535">
        <ele>372.921</ele>
        <time>2021-10-12T17:04:28Z</time>
      </trkpt>
      <trkpt lat="39.558142" lon="-6.415482">
        <ele>372.203</ele>
        <time>2021-10-12T17:04:29Z</time>
      </trkpt>
      <trkpt lat="39.558319" lon="-6.415399">
        <ele>371.508</ele>
        <time>2021-10-12T17:04:31Z</time>
      </trkpt>
      <trkpt lat="39.558415" lon="-6.415365">
        <ele>371.019</ele>
        <time>2021-10-12T17:04:32Z</time>
      </trkpt>
      <trkpt lat="39.558603" lon="-6.415311">
        <ele>370.147</ele>
        <time>2021-10-12T17:04:34Z</time>
      </trkpt>
      <trkpt lat="39.558699" lon="-6.415287">
        <ele>369.713</ele>
        <time>2021-10-12T17:04:35Z</time>
      </trkpt>
      <trkpt lat="39.558877" lon="-6.415249">
        <ele>369.066</ele>
        <time>2021-10-12T17:04:37Z</time>
      </trkpt>
      <trkpt lat="39.558959" lon="-6.415235">
        <ele>369.042</ele>
        <time>2021-10-12T17:04:38Z</time>
      </trkpt>
      <trkpt lat="39.559103" lon="-6.415219">
        <ele>369.071</ele>
        <time>2021-10-12T17:04:40Z</time>
      </trkpt>
      <trkpt lat="39.559167" lon="-6.415213">
        <ele>369.031</ele>
        <time>2021-10-12T17:04:41Z</time>
      </trkpt>
      <trkpt lat="39.559225" lon="-6.415209">
        <ele>369.032</ele>
        <time>2021-10-12T17:04:42Z</time>
      </trkpt>
      <trkpt lat="39.559280" lon="-6.415207">
        <ele>369.021</ele>
        <time>2021-10-12T17:04:43Z</time>
      </trkpt>
      <trkpt lat="39.559333" lon="-6.415204">
        <ele>369.041</ele>
        <time>2021-10-12T17:04:44Z</time>
      </trkpt>
      <trkpt lat="39.559433" lon="-6.415199">
        <ele>369.005</ele>
        <time>2021-10-12T17:04:46Z</time>
      </trkpt>
      <trkpt lat="39.559555" lon="-6.415187">
        <ele>368.608</ele>
        <time>2021-10-12T17:04:48Z</time>
      </trkpt>
      <trkpt lat="39.559693" lon="-6.415183">
        <ele>368.140</ele>
        <time>2021-10-12T17:04:50Z</time>
      </trkpt>
      <trkpt lat="39.559823" lon="-6.415179">
        <ele>367.898</ele>
        <time>2021-10-12T17:04:52Z</time>
      </trkpt>
      <trkpt lat="39.559892" lon="-6.415176">
        <ele>367.614</ele>
        <time>2021-10-12T17:04:53Z</time>
      </trkpt>
      <trkpt lat="39.560015" lon="-6.415175">
        <ele>367.497</ele>
        <time>2021-10-12T17:04:55Z</time>
      </trkpt>
      <trkpt lat="39.560070" lon="-6.415176">
        <ele>367.433</ele>
        <time>2021-10-12T17:04:56Z</time>
      </trkpt>
      <trkpt lat="39.560176" lon="-6.415183">
        <ele>367.372</ele>
        <time>2021-10-12T17:04:58Z</time>
      </trkpt>
      <trkpt lat="39.560290" lon="-6.415201">
        <ele>367.322</ele>
        <time>2021-10-12T17:05:00Z</time>
      </trkpt>
      <trkpt lat="39.560345" lon="-6.415212">
        <ele>367.243</ele>
        <time>2021-10-12T17:05:01Z</time>
      </trkpt>
      <trkpt lat="39.560401" lon="-6.415221">
        <ele>367.151</ele>
        <time>2021-10-12T17:05:02Z</time>
      </trkpt>
      <trkpt lat="39.560505" lon="-6.415243">
        <ele>367.001</ele>
        <time>2021-10-12T17:05:04Z</time>
      </trkpt>
      <trkpt lat="39.560615" lon="-6.415274">
        <ele>366.811</ele>
        <time>2021-10-12T17:05:06Z</time>
      </trkpt>
      <trkpt lat="39.560671" lon="-6.415290">
        <ele>366.608</ele>
        <time>2021-10-12T17:05:07Z</time>
      </trkpt>
      <trkpt lat="39.560724" lon="-6.415304">
        <ele>366.513</ele>
        <time>2021-10-12T17:05:08Z</time>
      </trkpt>
      <trkpt lat="39.560818" lon="-6.415326">
        <ele>366.261</ele>
        <time>2021-10-12T17:05:10Z</time>
      </trkpt>
      <trkpt lat="39.560897" lon="-6.415348">
        <ele>366.377</ele>
        <time>2021-10-12T17:05:12Z</time>
      </trkpt>
      <trkpt lat="39.560975" lon="-6.415365">
        <ele>366.350</ele>
        <time>2021-10-12T17:05:14Z</time>
      </trkpt>
      <trkpt lat="39.561041" lon="-6.415385">
        <ele>366.436</ele>
        <time>2021-10-12T17:05:16Z</time>
      </trkpt>
      <trkpt lat="39.561088" lon="-6.415401">
        <ele>366.475</ele>
        <time>2021-10-12T17:05:17Z</time>
      </trkpt>
      <trkpt lat="39.561148" lon="-6.415417">
        <ele>366.535</ele>
        <time>2021-10-12T17:05:19Z</time>
      </trkpt>
      <trkpt lat="39.561198" lon="-6.415431">
        <ele>366.616</ele>
        <time>2021-10-12T17:05:20Z</time>
      </trkpt>
      <trkpt lat="39.561300" lon="-6.415458">
        <ele>366.648</ele>
        <time>2021-10-12T17:05:22Z</time>
      </trkpt>
      <trkpt lat="39.561347" lon="-6.415470">
        <ele>366.761</ele>
        <time>2021-10-12T17:05:23Z</time>
      </trkpt>
      <trkpt lat="39.561419" lon="-6.415493">
        <ele>366.817</ele>
        <time>2021-10-12T17:05:25Z</time>
      </trkpt>
      <trkpt lat="39.561486" lon="-6.415516">
        <ele>366.908</ele>
        <time>2021-10-12T17:05:27Z</time>
      </trkpt>
      <trkpt lat="39.561546" lon="-6.415535">
        <ele>366.942</ele>
        <time>2021-10-12T17:05:29Z</time>
      </trkpt>
      <trkpt lat="39.561595" lon="-6.415576">
        <ele>366.950</ele>
        <time>2021-10-12T17:05:31Z</time>
      </trkpt>
      <trkpt lat="39.561624" lon="-6.415649">
        <ele>366.796</ele>
        <time>2021-10-12T17:05:33Z</time>
      </trkpt>
      <trkpt lat="39.561629" lon="-6.415727">
        <ele>366.489</ele>
        <time>2021-10-12T17:05:35Z</time>
      </trkpt>
      <trkpt lat="39.561620" lon="-6.415794">
        <ele>366.125</ele>
        <time>2021-10-12T17:05:37Z</time>
      </trkpt>
      <trkpt lat="39.561616" lon="-6.415873">
        <ele>365.914</ele>
        <time>2021-10-12T17:05:39Z</time>
      </trkpt>
      <trkpt lat="39.561613" lon="-6.415938">
        <ele>365.794</ele>
        <time>2021-10-12T17:05:41Z</time>
      </trkpt>
      <trkpt lat="39.561610" lon="-6.416014">
        <ele>365.515</ele>
        <time>2021-10-12T17:05:52Z</time>
      </trkpt>
      <trkpt lat="39.561609" lon="-6.416090">
        <ele>365.399</ele>
        <time>2021-10-12T17:05:55Z</time>
      </trkpt>
      <trkpt lat="39.561596" lon="-6.416176">
        <ele>365.407</ele>
        <time>2021-10-12T17:05:59Z</time>
      </trkpt>
      <trkpt lat="39.561585" lon="-6.416272">
        <ele>365.727</ele>
        <time>2021-10-12T17:06:01Z</time>
      </trkpt>
      <trkpt lat="39.561573" lon="-6.416388">
        <ele>366.008</ele>
        <time>2021-10-12T17:06:03Z</time>
      </trkpt>
      <trkpt lat="39.561567" lon="-6.416460">
        <ele>366.347</ele>
        <time>2021-10-12T17:06:04Z</time>
      </trkpt>
      <trkpt lat="39.561561" lon="-6.416531">
        <ele>366.585</ele>
        <time>2021-10-12T17:06:05Z</time>
      </trkpt>
      <trkpt lat="39.561557" lon="-6.416598">
        <ele>366.831</ele>
        <time>2021-10-12T17:06:06Z</time>
      </trkpt>
      <trkpt lat="39.561550" lon="-6.416726">
        <ele>367.154</ele>
        <time>2021-10-12T17:06:08Z</time>
      </trkpt>
      <trkpt lat="39.561549" lon="-6.416818">
        <ele>367.250</ele>
        <time>2021-10-12T17:06:10Z</time>
      </trkpt>
      <trkpt lat="39.561541" lon="-6.416902">
        <ele>367.479</ele>
        <time>2021-10-12T17:06:12Z</time>
      </trkpt>
      <trkpt lat="39.561526" lon="-6.416972">
        <ele>367.579</ele>
        <time>2021-10-12T17:06:14Z</time>
      </trkpt>
      <trkpt lat="39.561510" lon="-6.417040">
        <ele>367.630</ele>
        <time>2021-10-12T17:06:16Z</time>
      </trkpt>
      <trkpt lat="39.561512" lon="-6.417107">
        <ele>367.646</ele>
        <time>2021-10-12T17:06:20Z</time>
      </trkpt>
      <trkpt lat="39.561480" lon="-6.417150">
        <ele>367.788</ele>
        <time>2021-10-12T17:06:23Z</time>
      </trkpt>
      <trkpt lat="39.561432" lon="-6.417126">
        <ele>367.816</ele>
        <time>2021-10-12T17:06:26Z</time>
      </trkpt>
      <trkpt lat="39.561465" lon="-6.417179">
        <ele>367.708</ele>
        <time>2021-10-12T17:10:35Z</time>
      </trkpt>
      <trkpt lat="39.561511" lon="-6.417162">
        <ele>367.632</ele>
        <time>2021-10-12T17:11:21Z</time>
      </trkpt>
      <trkpt lat="39.561457" lon="-6.417151">
        <ele>367.860</ele>
        <time>2021-10-12T17:12:11Z</time>
      </trkpt>
      <trkpt lat="39.561412" lon="-6.417157">
        <ele>367.976</ele>
        <time>2021-10-12T17:12:16Z</time>
      </trkpt>
      <trkpt lat="39.561452" lon="-6.417126">
        <ele>367.839</ele>
        <time>2021-10-12T17:12:24Z</time>
      </trkpt>
      <trkpt lat="39.561498" lon="-6.417109">
        <ele>367.675</ele>
        <time>2021-10-12T17:12:34Z</time>
      </trkpt>
      <trkpt lat="39.561552" lon="-6.417130">
        <ele>367.424</ele>
        <time>2021-10-12T17:12:37Z</time>
      </trkpt>
      <trkpt lat="39.561602" lon="-6.417145">
        <ele>367.224</ele>
        <time>2021-10-12T17:12:40Z</time>
      </trkpt>
      <trkpt lat="39.561554" lon="-6.417129">
        <ele>367.435</ele>
        <time>2021-10-12T17:12:43Z</time>
      </trkpt>
      <trkpt lat="39.561493" lon="-6.417096">
        <ele>367.651</ele>
        <time>2021-10-12T17:13:23Z</time>
      </trkpt>
      <trkpt lat="39.561426" lon="-6.417097">
        <ele>367.901</ele>
        <time>2021-10-12T17:13:34Z</time>
      </trkpt>
      <trkpt lat="39.561365" lon="-6.417085">
        <ele>368.011</ele>
        <time>2021-10-12T17:13:35Z</time>
      </trkpt>
      <trkpt lat="39.561315" lon="-6.417081">
        <ele>368.008</ele>
        <time>2021-10-12T17:13:36Z</time>
      </trkpt>
      <trkpt lat="39.561260" lon="-6.417080">
        <ele>368.093</ele>
        <time>2021-10-12T17:13:38Z</time>
      </trkpt>
      <trkpt lat="39.561237" lon="-6.416998">
        <ele>368.091</ele>
        <time>2021-10-12T17:14:26Z</time>
      </trkpt>
      <trkpt lat="39.561270" lon="-6.417042">
        <ele>368.037</ele>
        <time>2021-10-12T17:14:28Z</time>
      </trkpt>
      <trkpt lat="39.561234" lon="-6.416986">
        <ele>368.070</ele>
        <time>2021-10-12T17:14:33Z</time>
      </trkpt>
      <trkpt lat="39.561190" lon="-6.416959">
        <ele>368.026</ele>
        <time>2021-10-12T17:15:34Z</time>
      </trkpt>
      <trkpt lat="39.561220" lon="-6.417007">
        <ele>368.055</ele>
        <time>2021-10-12T17:22:06Z</time>
      </trkpt>
      <trkpt lat="39.561273" lon="-6.417009">
        <ele>368.075</ele>
        <time>2021-10-12T17:22:13Z</time>
      </trkpt>
      <trkpt lat="39.561318" lon="-6.417013">
        <ele>368.026</ele>
        <time>2021-10-12T17:22:19Z</time>
      </trkpt>
      <trkpt lat="39.561345" lon="-6.417062">
        <ele>368.075</ele>
        <time>2021-10-12T17:22:48Z</time>
      </trkpt>
      <trkpt lat="39.561376" lon="-6.417105">
        <ele>368.028</ele>
        <time>2021-10-12T17:22:54Z</time>
      </trkpt>
      <trkpt lat="39.561420" lon="-6.417120">
        <ele>367.920</ele>
        <time>2021-10-12T17:26:50Z</time>
      </trkpt>
      <trkpt lat="39.561460" lon="-6.417150">
        <ele>367.708</ele>
        <time>2021-10-12T17:26:56Z</time>
      </trkpt>
      <trkpt lat="39.561392" lon="-6.417170">
        <ele>368.035</ele>
        <time>2021-10-12T17:44:04Z</time>
      </trkpt>
      <trkpt lat="39.561448" lon="-6.417112">
        <ele>367.823</ele>
        <time>2021-10-12T17:47:27Z</time>
      </trkpt>
      <trkpt lat="39.561498" lon="-6.417105">
        <ele>367.679</ele>
        <time>2021-10-12T17:47:33Z</time>
      </trkpt>
      <trkpt lat="39.561552" lon="-6.417126">
        <ele>367.422</ele>
        <time>2021-10-12T17:47:36Z</time>
      </trkpt>
      <trkpt lat="39.561597" lon="-6.417137">
        <ele>367.348</ele>
        <time>2021-10-12T17:47:39Z</time>
      </trkpt>
      <trkpt lat="39.561659" lon="-6.417136">
        <ele>367.077</ele>
        <time>2021-10-12T17:47:43Z</time>
      </trkpt>
      <trkpt lat="39.561714" lon="-6.417149">
        <ele>367.087</ele>
        <time>2021-10-12T17:47:45Z</time>
      </trkpt>
      <trkpt lat="39.561783" lon="-6.417163">
        <ele>366.938</ele>
        <time>2021-10-12T17:47:47Z</time>
      </trkpt>
      <trkpt lat="39.561859" lon="-6.417184">
        <ele>366.963</ele>
        <time>2021-10-12T17:47:49Z</time>
      </trkpt>
      <trkpt lat="39.561938" lon="-6.417205">
        <ele>366.944</ele>
        <time>2021-10-12T17:47:51Z</time>
      </trkpt>
      <trkpt lat="39.561990" lon="-6.417224">
        <ele>366.818</ele>
        <time>2021-10-12T17:47:52Z</time>
      </trkpt>
      <trkpt lat="39.562094" lon="-6.417259">
        <ele>366.508</ele>
        <time>2021-10-12T17:47:54Z</time>
      </trkpt>
      <trkpt lat="39.562160" lon="-6.417282">
        <ele>366.234</ele>
        <time>2021-10-12T17:47:56Z</time>
      </trkpt>
      <trkpt lat="39.562231" lon="-6.417307">
        <ele>366.042</ele>
        <time>2021-10-12T17:47:58Z</time>
      </trkpt>
      <trkpt lat="39.562284" lon="-6.417325">
        <ele>365.998</ele>
        <time>2021-10-12T17:47:59Z</time>
      </trkpt>
      <trkpt lat="39.562413" lon="-6.417362">
        <ele>365.711</ele>
        <time>2021-10-12T17:48:01Z</time>
      </trkpt>
      <trkpt lat="39.562477" lon="-6.417370">
        <ele>365.667</ele>
        <time>2021-10-12T17:48:02Z</time>
      </trkpt>
      <trkpt lat="39.562589" lon="-6.417393">
        <ele>365.126</ele>
        <time>2021-10-12T17:48:04Z</time>
      </trkpt>
      <trkpt lat="39.562703" lon="-6.417416">
        <ele>364.566</ele>
        <time>2021-10-12T17:48:06Z</time>
      </trkpt>
      <trkpt lat="39.562757" lon="-6.417428">
        <ele>364.157</ele>
        <time>2021-10-12T17:48:07Z</time>
      </trkpt>
      <trkpt lat="39.562814" lon="-6.417438">
        <ele>363.945</ele>
        <time>2021-10-12T17:48:08Z</time>
      </trkpt>
      <trkpt lat="39.562925" lon="-6.417466">
        <ele>363.547</ele>
        <time>2021-10-12T17:48:10Z</time>
      </trkpt>
      <trkpt lat="39.563046" lon="-6.417509">
        <ele>363.011</ele>
        <time>2021-10-12T17:48:12Z</time>
      </trkpt>
      <trkpt lat="39.563169" lon="-6.417557">
        <ele>362.608</ele>
        <time>2021-10-12T17:48:14Z</time>
      </trkpt>
      <trkpt lat="39.563289" lon="-6.417596">
        <ele>362.232</ele>
        <time>2021-10-12T17:48:16Z</time>
      </trkpt>
      <trkpt lat="39.563401" lon="-6.417641">
        <ele>361.950</ele>
        <time>2021-10-12T17:48:18Z</time>
      </trkpt>
      <trkpt lat="39.563454" lon="-6.417666">
        <ele>361.756</ele>
        <time>2021-10-12T17:48:19Z</time>
      </trkpt>
      <trkpt lat="39.563508" lon="-6.417690">
        <ele>361.619</ele>
        <time>2021-10-12T17:48:20Z</time>
      </trkpt>
      <trkpt lat="39.563624" lon="-6.417740">
        <ele>361.015</ele>
        <time>2021-10-12T17:48:22Z</time>
      </trkpt>
      <trkpt lat="39.563746" lon="-6.417795">
        <ele>360.024</ele>
        <time>2021-10-12T17:48:24Z</time>
      </trkpt>
      <trkpt lat="39.563804" lon="-6.417818">
        <ele>359.614</ele>
        <time>2021-10-12T17:48:25Z</time>
      </trkpt>
      <trkpt lat="39.563855" lon="-6.417836">
        <ele>359.275</ele>
        <time>2021-10-12T17:48:26Z</time>
      </trkpt>
      <trkpt lat="39.563931" lon="-6.417863">
        <ele>358.814</ele>
        <time>2021-10-12T17:48:28Z</time>
      </trkpt>
      <trkpt lat="39.564005" lon="-6.417893">
        <ele>358.454</ele>
        <time>2021-10-12T17:48:30Z</time>
      </trkpt>
      <trkpt lat="39.564062" lon="-6.417884">
        <ele>358.109</ele>
        <time>2021-10-12T17:48:32Z</time>
      </trkpt>
      <trkpt lat="39.564095" lon="-6.417817">
        <ele>358.208</ele>
        <time>2021-10-12T17:48:34Z</time>
      </trkpt>
      <trkpt lat="39.564153" lon="-6.417638">
        <ele>358.649</ele>
        <time>2021-10-12T17:48:36Z</time>
      </trkpt>
      <trkpt lat="39.564213" lon="-6.417422">
        <ele>358.727</ele>
        <time>2021-10-12T17:48:38Z</time>
      </trkpt>
      <trkpt lat="39.564262" lon="-6.417201">
        <ele>358.763</ele>
        <time>2021-10-12T17:48:40Z</time>
      </trkpt>
      <trkpt lat="39.564281" lon="-6.417109">
        <ele>358.616</ele>
        <time>2021-10-12T17:48:41Z</time>
      </trkpt>
      <trkpt lat="39.564302" lon="-6.417029">
        <ele>358.522</ele>
        <time>2021-10-12T17:48:42Z</time>
      </trkpt>
      <trkpt lat="39.564328" lon="-6.416909">
        <ele>358.471</ele>
        <time>2021-10-12T17:48:44Z</time>
      </trkpt>
      <trkpt lat="39.564345" lon="-6.416830">
        <ele>358.211</ele>
        <time>2021-10-12T17:48:46Z</time>
      </trkpt>
      <trkpt lat="39.564357" lon="-6.416758">
        <ele>358.132</ele>
        <time>2021-10-12T17:48:48Z</time>
      </trkpt>
      <trkpt lat="39.564346" lon="-6.416692">
        <ele>358.067</ele>
        <time>2021-10-12T17:48:50Z</time>
      </trkpt>
      <trkpt lat="39.564281" lon="-6.416621">
        <ele>358.081</ele>
        <time>2021-10-12T17:48:52Z</time>
      </trkpt>
      <trkpt lat="39.564218" lon="-6.416573">
        <ele>358.019</ele>
        <time>2021-10-12T17:48:53Z</time>
      </trkpt>
      <trkpt lat="39.564147" lon="-6.416520">
        <ele>358.108</ele>
        <time>2021-10-12T17:48:54Z</time>
      </trkpt>
      <trkpt lat="39.564001" lon="-6.416405">
        <ele>358.634</ele>
        <time>2021-10-12T17:48:56Z</time>
      </trkpt>
      <trkpt lat="39.563851" lon="-6.416291">
        <ele>358.962</ele>
        <time>2021-10-12T17:48:58Z</time>
      </trkpt>
      <trkpt lat="39.563765" lon="-6.416242">
        <ele>358.648</ele>
        <time>2021-10-12T17:48:59Z</time>
      </trkpt>
      <trkpt lat="39.563586" lon="-6.416176">
        <ele>358.081</ele>
        <time>2021-10-12T17:49:01Z</time>
      </trkpt>
      <trkpt lat="39.563490" lon="-6.416153">
        <ele>358.137</ele>
        <time>2021-10-12T17:49:02Z</time>
      </trkpt>
      <trkpt lat="39.563297" lon="-6.416107">
        <ele>358.466</ele>
        <time>2021-10-12T17:49:04Z</time>
      </trkpt>
      <trkpt lat="39.563204" lon="-6.416081">
        <ele>359.446</ele>
        <time>2021-10-12T17:49:05Z</time>
      </trkpt>
      <trkpt lat="39.563034" lon="-6.416028">
        <ele>360.757</ele>
        <time>2021-10-12T17:49:07Z</time>
      </trkpt>
      <trkpt lat="39.562955" lon="-6.416005">
        <ele>360.888</ele>
        <time>2021-10-12T17:49:08Z</time>
      </trkpt>
      <trkpt lat="39.562805" lon="-6.415962">
        <ele>360.924</ele>
        <time>2021-10-12T17:49:10Z</time>
      </trkpt>
      <trkpt lat="39.562723" lon="-6.415938">
        <ele>361.226</ele>
        <time>2021-10-12T17:49:11Z</time>
      </trkpt>
      <trkpt lat="39.562554" lon="-6.415891">
        <ele>361.808</ele>
        <time>2021-10-12T17:49:13Z</time>
      </trkpt>
      <trkpt lat="39.562468" lon="-6.415867">
        <ele>362.346</ele>
        <time>2021-10-12T17:49:14Z</time>
      </trkpt>
      <trkpt lat="39.562320" lon="-6.415825">
        <ele>363.974</ele>
        <time>2021-10-12T17:49:16Z</time>
      </trkpt>
      <trkpt lat="39.562247" lon="-6.415805">
        <ele>364.760</ele>
        <time>2021-10-12T17:49:17Z</time>
      </trkpt>
      <trkpt lat="39.562109" lon="-6.415766">
        <ele>365.143</ele>
        <time>2021-10-12T17:49:19Z</time>
      </trkpt>
      <trkpt lat="39.562040" lon="-6.415748">
        <ele>365.259</ele>
        <time>2021-10-12T17:49:20Z</time>
      </trkpt>
      <trkpt lat="39.561917" lon="-6.415722">
        <ele>365.578</ele>
        <time>2021-10-12T17:49:22Z</time>
      </trkpt>
      <trkpt lat="39.561866" lon="-6.415710">
        <ele>365.788</ele>
        <time>2021-10-12T17:49:23Z</time>
      </trkpt>
      <trkpt lat="39.561794" lon="-6.415695">
        <ele>366.099</ele>
        <time>2021-10-12T17:49:25Z</time>
      </trkpt>
      <trkpt lat="39.561705" lon="-6.415674">
        <ele>366.423</ele>
        <time>2021-10-12T17:49:27Z</time>
      </trkpt>
      <trkpt lat="39.561587" lon="-6.415644">
        <ele>366.783</ele>
        <time>2021-10-12T17:49:29Z</time>
      </trkpt>
      <trkpt lat="39.561445" lon="-6.415608">
        <ele>366.811</ele>
        <time>2021-10-12T17:49:31Z</time>
      </trkpt>
      <trkpt lat="39.561361" lon="-6.415588">
        <ele>366.908</ele>
        <time>2021-10-12T17:49:32Z</time>
      </trkpt>
      <trkpt lat="39.561205" lon="-6.415547">
        <ele>367.020</ele>
        <time>2021-10-12T17:49:34Z</time>
      </trkpt>
      <trkpt lat="39.561126" lon="-6.415523">
        <ele>366.968</ele>
        <time>2021-10-12T17:49:35Z</time>
      </trkpt>
      <trkpt lat="39.560969" lon="-6.415474">
        <ele>366.724</ele>
        <time>2021-10-12T17:49:37Z</time>
      </trkpt>
      <trkpt lat="39.560889" lon="-6.415450">
        <ele>366.657</ele>
        <time>2021-10-12T17:49:38Z</time>
      </trkpt>
      <trkpt lat="39.560741" lon="-6.415409">
        <ele>366.633</ele>
        <time>2021-10-12T17:49:40Z</time>
      </trkpt>
      <trkpt lat="39.560663" lon="-6.415389">
        <ele>366.812</ele>
        <time>2021-10-12T17:49:41Z</time>
      </trkpt>
      <trkpt lat="39.560498" lon="-6.415342">
        <ele>367.032</ele>
        <time>2021-10-12T17:49:43Z</time>
      </trkpt>
      <trkpt lat="39.560408" lon="-6.415318">
        <ele>367.083</ele>
        <time>2021-10-12T17:49:44Z</time>
      </trkpt>
      <trkpt lat="39.560252" lon="-6.415284">
        <ele>367.025</ele>
        <time>2021-10-12T17:49:46Z</time>
      </trkpt>
      <trkpt lat="39.560185" lon="-6.415272">
        <ele>367.026</ele>
        <time>2021-10-12T17:49:47Z</time>
      </trkpt>
      <trkpt lat="39.560123" lon="-6.415264">
        <ele>367.108</ele>
        <time>2021-10-12T17:49:48Z</time>
      </trkpt>
      <trkpt lat="39.560056" lon="-6.415259">
        <ele>367.108</ele>
        <time>2021-10-12T17:49:49Z</time>
      </trkpt>
      <trkpt lat="39.559989" lon="-6.415258">
        <ele>367.150</ele>
        <time>2021-10-12T17:49:50Z</time>
      </trkpt>
      <trkpt lat="39.559882" lon="-6.415261">
        <ele>367.598</ele>
        <time>2021-10-12T17:49:52Z</time>
      </trkpt>
      <trkpt lat="39.559837" lon="-6.415266">
        <ele>367.624</ele>
        <time>2021-10-12T17:49:53Z</time>
      </trkpt>
      <trkpt lat="39.559765" lon="-6.415276">
        <ele>367.897</ele>
        <time>2021-10-12T17:49:55Z</time>
      </trkpt>
      <trkpt lat="39.559685" lon="-6.415282">
        <ele>368.113</ele>
        <time>2021-10-12T17:49:57Z</time>
      </trkpt>
      <trkpt lat="39.559580" lon="-6.415287">
        <ele>368.572</ele>
        <time>2021-10-12T17:49:59Z</time>
      </trkpt>
      <trkpt lat="39.559459" lon="-6.415297">
        <ele>369.052</ele>
        <time>2021-10-12T17:50:01Z</time>
      </trkpt>
      <trkpt lat="39.559391" lon="-6.415303">
        <ele>369.053</ele>
        <time>2021-10-12T17:50:02Z</time>
      </trkpt>
      <trkpt lat="39.559248" lon="-6.415313">
        <ele>369.117</ele>
        <time>2021-10-12T17:50:04Z</time>
      </trkpt>
      <trkpt lat="39.559124" lon="-6.415322">
        <ele>369.287</ele>
        <time>2021-10-12T17:50:06Z</time>
      </trkpt>
      <trkpt lat="39.559025" lon="-6.415327">
        <ele>369.215</ele>
        <time>2021-10-12T17:50:08Z</time>
      </trkpt>
      <trkpt lat="39.558912" lon="-6.415332">
        <ele>369.208</ele>
        <time>2021-10-12T17:50:10Z</time>
      </trkpt>
      <trkpt lat="39.558842" lon="-6.415334">
        <ele>369.419</ele>
        <time>2021-10-12T17:50:11Z</time>
      </trkpt>
      <trkpt lat="39.558769" lon="-6.415335">
        <ele>369.617</ele>
        <time>2021-10-12T17:50:12Z</time>
      </trkpt>
      <trkpt lat="39.558610" lon="-6.415350">
        <ele>370.353</ele>
        <time>2021-10-12T17:50:14Z</time>
      </trkpt>
      <trkpt lat="39.558444" lon="-6.415379">
        <ele>371.056</ele>
        <time>2021-10-12T17:50:16Z</time>
      </trkpt>
      <trkpt lat="39.558272" lon="-6.415434">
        <ele>371.762</ele>
        <time>2021-10-12T17:50:18Z</time>
      </trkpt>
      <trkpt lat="39.558184" lon="-6.415475">
        <ele>372.131</ele>
        <time>2021-10-12T17:50:19Z</time>
      </trkpt>
      <trkpt lat="39.558099" lon="-6.415525">
        <ele>372.621</ele>
        <time>2021-10-12T17:50:20Z</time>
      </trkpt>
      <trkpt lat="39.557961" lon="-6.415614">
        <ele>373.372</ele>
        <time>2021-10-12T17:50:22Z</time>
      </trkpt>
      <trkpt lat="39.557905" lon="-6.415654">
        <ele>373.567</ele>
        <time>2021-10-12T17:50:23Z</time>
      </trkpt>
      <trkpt lat="39.557815" lon="-6.415724">
        <ele>374.181</ele>
        <time>2021-10-12T17:50:25Z</time>
      </trkpt>
      <trkpt lat="39.557769" lon="-6.415759">
        <ele>374.519</ele>
        <time>2021-10-12T17:50:26Z</time>
      </trkpt>
      <trkpt lat="39.557677" lon="-6.415831">
        <ele>375.308</ele>
        <time>2021-10-12T17:50:28Z</time>
      </trkpt>
      <trkpt lat="39.557635" lon="-6.415860">
        <ele>375.684</ele>
        <time>2021-10-12T17:50:30Z</time>
      </trkpt>
      <trkpt lat="39.557576" lon="-6.415895">
        <ele>375.852</ele>
        <time>2021-10-12T17:50:33Z</time>
      </trkpt>
      <trkpt lat="39.557523" lon="-6.415918">
        <ele>375.928</ele>
        <time>2021-10-12T17:50:35Z</time>
      </trkpt>
      <trkpt lat="39.557456" lon="-6.415926">
        <ele>375.971</ele>
        <time>2021-10-12T17:50:37Z</time>
      </trkpt>
      <trkpt lat="39.557386" lon="-6.415895">
        <ele>375.937</ele>
        <time>2021-10-12T17:50:39Z</time>
      </trkpt>
      <trkpt lat="39.557319" lon="-6.415875">
        <ele>375.976</ele>
        <time>2021-10-12T17:50:40Z</time>
      </trkpt>
      <trkpt lat="39.557180" lon="-6.415833">
        <ele>376.066</ele>
        <time>2021-10-12T17:50:42Z</time>
      </trkpt>
      <trkpt lat="39.557118" lon="-6.415814">
        <ele>376.037</ele>
        <time>2021-10-12T17:50:43Z</time>
      </trkpt>
      <trkpt lat="39.557042" lon="-6.415788">
        <ele>376.032</ele>
        <time>2021-10-12T17:50:44Z</time>
      </trkpt>
      <trkpt lat="39.556883" lon="-6.415735">
        <ele>376.092</ele>
        <time>2021-10-12T17:50:46Z</time>
      </trkpt>
      <trkpt lat="39.556802" lon="-6.415707">
        <ele>376.011</ele>
        <time>2021-10-12T17:50:47Z</time>
      </trkpt>
      <trkpt lat="39.556718" lon="-6.415678">
        <ele>376.008</ele>
        <time>2021-10-12T17:50:48Z</time>
      </trkpt>
      <trkpt lat="39.556563" lon="-6.415625">
        <ele>375.611</ele>
        <time>2021-10-12T17:50:50Z</time>
      </trkpt>
      <trkpt lat="39.556450" lon="-6.415584">
        <ele>375.219</ele>
        <time>2021-10-12T17:50:52Z</time>
      </trkpt>
      <trkpt lat="39.556387" lon="-6.415558">
        <ele>375.095</ele>
        <time>2021-10-12T17:50:54Z</time>
      </trkpt>
      <trkpt lat="39.556308" lon="-6.415530">
        <ele>374.738</ele>
        <time>2021-10-12T17:50:56Z</time>
      </trkpt>
      <trkpt lat="39.556256" lon="-6.415500">
        <ele>374.684</ele>
        <time>2021-10-12T17:50:58Z</time>
      </trkpt>
      <trkpt lat="39.556226" lon="-6.415426">
        <ele>374.733</ele>
        <time>2021-10-12T17:51:02Z</time>
      </trkpt>
      <trkpt lat="39.556218" lon="-6.415297">
        <ele>375.043</ele>
        <time>2021-10-12T17:51:04Z</time>
      </trkpt>
      <trkpt lat="39.556225" lon="-6.415045">
        <ele>374.594</ele>
        <time>2021-10-12T17:51:06Z</time>
      </trkpt>
      <trkpt lat="39.556239" lon="-6.414774">
        <ele>374.198</ele>
        <time>2021-10-12T17:51:08Z</time>
      </trkpt>
      <trkpt lat="39.556257" lon="-6.414539">
        <ele>373.315</ele>
        <time>2021-10-12T17:51:10Z</time>
      </trkpt>
      <trkpt lat="39.556273" lon="-6.414389">
        <ele>372.826</ele>
        <time>2021-10-12T17:51:12Z</time>
      </trkpt>
      <trkpt lat="39.556276" lon="-6.414308">
        <ele>372.608</ele>
        <time>2021-10-12T17:51:14Z</time>
      </trkpt>
      <trkpt lat="39.556270" lon="-6.414215">
        <ele>372.527</ele>
        <time>2021-10-12T17:51:16Z</time>
      </trkpt>
      <trkpt lat="39.556268" lon="-6.414128">
        <ele>372.375</ele>
        <time>2021-10-12T17:51:18Z</time>
      </trkpt>
      <trkpt lat="39.556275" lon="-6.414040">
        <ele>372.051</ele>
        <time>2021-10-12T17:51:20Z</time>
      </trkpt>
      <trkpt lat="39.556274" lon="-6.413953">
        <ele>371.664</ele>
        <time>2021-10-12T17:51:22Z</time>
      </trkpt>
      <trkpt lat="39.556274" lon="-6.413882">
        <ele>371.490</ele>
        <time>2021-10-12T17:51:24Z</time>
      </trkpt>
      <trkpt lat="39.556278" lon="-6.413816">
        <ele>371.039</ele>
        <time>2021-10-12T17:51:55Z</time>
      </trkpt>
      <trkpt lat="39.556281" lon="-6.413750">
        <ele>370.759</ele>
        <time>2021-10-12T17:51:56Z</time>
      </trkpt>
      <trkpt lat="39.556297" lon="-6.413535">
        <ele>369.510</ele>
        <time>2021-10-12T17:51:58Z</time>
      </trkpt>
      <trkpt lat="39.556318" lon="-6.413236">
        <ele>367.986</ele>
        <time>2021-10-12T17:52:00Z</time>
      </trkpt>
      <trkpt lat="39.556335" lon="-6.412928">
        <ele>367.660</ele>
        <time>2021-10-12T17:52:02Z</time>
      </trkpt>
      <trkpt lat="39.556352" lon="-6.412618">
        <ele>368.126</ele>
        <time>2021-10-12T17:52:04Z</time>
      </trkpt>
      <trkpt lat="39.556362" lon="-6.412446">
        <ele>368.308</ele>
        <time>2021-10-12T17:52:05Z</time>
      </trkpt>
      <trkpt lat="39.556383" lon="-6.412083">
        <ele>369.026</ele>
        <time>2021-10-12T17:52:07Z</time>
      </trkpt>
      <trkpt lat="39.556392" lon="-6.411894">
        <ele>369.064</ele>
        <time>2021-10-12T17:52:08Z</time>
      </trkpt>
      <trkpt lat="39.556411" lon="-6.411534">
        <ele>369.020</ele>
        <time>2021-10-12T17:52:10Z</time>
      </trkpt>
      <trkpt lat="39.556421" lon="-6.411352">
        <ele>369.083</ele>
        <time>2021-10-12T17:52:11Z</time>
      </trkpt>
      <trkpt lat="39.556441" lon="-6.410976">
        <ele>368.639</ele>
        <time>2021-10-12T17:52:13Z</time>
      </trkpt>
      <trkpt lat="39.556456" lon="-6.410767">
        <ele>368.228</ele>
        <time>2021-10-12T17:52:14Z</time>
      </trkpt>
      <trkpt lat="39.556483" lon="-6.410343">
        <ele>367.618</ele>
        <time>2021-10-12T17:52:16Z</time>
      </trkpt>
      <trkpt lat="39.556494" lon="-6.410121">
        <ele>367.279</ele>
        <time>2021-10-12T17:52:17Z</time>
      </trkpt>
      <trkpt lat="39.556516" lon="-6.409648">
        <ele>366.564</ele>
        <time>2021-10-12T17:52:19Z</time>
      </trkpt>
      <trkpt lat="39.556530" lon="-6.409387">
        <ele>366.606</ele>
        <time>2021-10-12T17:52:20Z</time>
      </trkpt>
      <trkpt lat="39.556560" lon="-6.408866">
        <ele>366.916</ele>
        <time>2021-10-12T17:52:22Z</time>
      </trkpt>
      <trkpt lat="39.556573" lon="-6.408583">
        <ele>365.208</ele>
        <time>2021-10-12T17:52:23Z</time>
      </trkpt>
      <trkpt lat="39.556587" lon="-6.408297">
        <ele>364.164</ele>
        <time>2021-10-12T17:52:24Z</time>
      </trkpt>
      <trkpt lat="39.556603" lon="-6.408006">
        <ele>365.282</ele>
        <time>2021-10-12T17:52:25Z</time>
      </trkpt>
      <trkpt lat="39.556620" lon="-6.407706">
        <ele>366.248</ele>
        <time>2021-10-12T17:52:26Z</time>
      </trkpt>
      <trkpt lat="39.556650" lon="-6.407174">
        <ele>366.161</ele>
        <time>2021-10-12T17:52:28Z</time>
      </trkpt>
      <trkpt lat="39.556665" lon="-6.406931">
        <ele>366.177</ele>
        <time>2021-10-12T17:52:29Z</time>
      </trkpt>
      <trkpt lat="39.556692" lon="-6.406470">
        <ele>367.616</ele>
        <time>2021-10-12T17:52:31Z</time>
      </trkpt>
      <trkpt lat="39.556703" lon="-6.406241">
        <ele>368.416</ele>
        <time>2021-10-12T17:52:32Z</time>
      </trkpt>
      <trkpt lat="39.556726" lon="-6.405791">
        <ele>368.847</ele>
        <time>2021-10-12T17:52:34Z</time>
      </trkpt>
      <trkpt lat="39.556741" lon="-6.405552">
        <ele>368.782</ele>
        <time>2021-10-12T17:52:35Z</time>
      </trkpt>
      <trkpt lat="39.556755" lon="-6.405309">
        <ele>369.643</ele>
        <time>2021-10-12T17:52:36Z</time>
      </trkpt>
      <trkpt lat="39.556781" lon="-6.404820">
        <ele>370.017</ele>
        <time>2021-10-12T17:52:38Z</time>
      </trkpt>
      <trkpt lat="39.556791" lon="-6.404402">
        <ele>368.808</ele>
        <time>2021-10-12T17:52:40Z</time>
      </trkpt>
      <trkpt lat="39.556737" lon="-6.404022">
        <ele>366.756</ele>
        <time>2021-10-12T17:52:42Z</time>
      </trkpt>
      <trkpt lat="39.556630" lon="-6.403676">
        <ele>365.924</ele>
        <time>2021-10-12T17:52:44Z</time>
      </trkpt>
      <trkpt lat="39.556540" lon="-6.403370">
        <ele>364.780</ele>
        <time>2021-10-12T17:52:46Z</time>
      </trkpt>
      <trkpt lat="39.556500" lon="-6.403214">
        <ele>364.283</ele>
        <time>2021-10-12T17:52:47Z</time>
      </trkpt>
      <trkpt lat="39.556432" lon="-6.402934">
        <ele>364.429</ele>
        <time>2021-10-12T17:52:49Z</time>
      </trkpt>
      <trkpt lat="39.556403" lon="-6.402805">
        <ele>364.948</ele>
        <time>2021-10-12T17:52:50Z</time>
      </trkpt>
      <trkpt lat="39.556351" lon="-6.402579">
        <ele>365.728</ele>
        <time>2021-10-12T17:52:52Z</time>
      </trkpt>
      <trkpt lat="39.556320" lon="-6.402458">
        <ele>366.049</ele>
        <time>2021-10-12T17:52:53Z</time>
      </trkpt>
      <trkpt lat="39.556246" lon="-6.402201">
        <ele>366.411</ele>
        <time>2021-10-12T17:52:55Z</time>
      </trkpt>
      <trkpt lat="39.556207" lon="-6.402067">
        <ele>366.121</ele>
        <time>2021-10-12T17:52:56Z</time>
      </trkpt>
      <trkpt lat="39.556132" lon="-6.401839">
        <ele>365.103</ele>
        <time>2021-10-12T17:52:58Z</time>
      </trkpt>
      <trkpt lat="39.556083" lon="-6.401745">
        <ele>364.608</ele>
        <time>2021-10-12T17:52:59Z</time>
      </trkpt>
      <trkpt lat="39.555962" lon="-6.401609">
        <ele>364.249</ele>
        <time>2021-10-12T17:53:01Z</time>
      </trkpt>
      <trkpt lat="39.555911" lon="-6.401542">
        <ele>364.137</ele>
        <time>2021-10-12T17:53:02Z</time>
      </trkpt>
      <trkpt lat="39.555886" lon="-6.401392">
        <ele>363.643</ele>
        <time>2021-10-12T17:53:04Z</time>
      </trkpt>
      <trkpt lat="39.555911" lon="-6.401322">
        <ele>363.076</ele>
        <time>2021-10-12T17:53:05Z</time>
      </trkpt>
      <trkpt lat="39.555960" lon="-6.401260">
        <ele>362.422</ele>
        <time>2021-10-12T17:53:06Z</time>
      </trkpt>
      <trkpt lat="39.556021" lon="-6.401223">
        <ele>361.991</ele>
        <time>2021-10-12T17:53:07Z</time>
      </trkpt>
      <trkpt lat="39.556091" lon="-6.401212">
        <ele>361.531</ele>
        <time>2021-10-12T17:53:08Z</time>
      </trkpt>
      <trkpt lat="39.556222" lon="-6.401285">
        <ele>360.832</ele>
        <time>2021-10-12T17:53:10Z</time>
      </trkpt>
      <trkpt lat="39.556265" lon="-6.401379">
        <ele>360.912</ele>
        <time>2021-10-12T17:53:11Z</time>
      </trkpt>
      <trkpt lat="39.556278" lon="-6.401620">
        <ele>362.532</ele>
        <time>2021-10-12T17:53:13Z</time>
      </trkpt>
      <trkpt lat="39.556264" lon="-6.401775">
        <ele>363.905</ele>
        <time>2021-10-12T17:53:14Z</time>
      </trkpt>
      <trkpt lat="39.556271" lon="-6.402061">
        <ele>365.808</ele>
        <time>2021-10-12T17:53:16Z</time>
      </trkpt>
      <trkpt lat="39.556290" lon="-6.402176">
        <ele>366.299</ele>
        <time>2021-10-12T17:53:17Z</time>
      </trkpt>
      <trkpt lat="39.556310" lon="-6.402266">
        <ele>366.257</ele>
        <time>2021-10-12T17:53:18Z</time>
      </trkpt>
      <trkpt lat="39.556345" lon="-6.402394">
        <ele>366.123</ele>
        <time>2021-10-12T17:53:20Z</time>
      </trkpt>
      <trkpt lat="39.556379" lon="-6.402503">
        <ele>366.036</ele>
        <time>2021-10-12T17:53:22Z</time>
      </trkpt>
      <trkpt lat="39.556406" lon="-6.402568">
        <ele>365.642</ele>
        <time>2021-10-12T17:53:23Z</time>
      </trkpt>
      <trkpt lat="39.556491" lon="-6.402678">
        <ele>364.931</ele>
        <time>2021-10-12T17:53:25Z</time>
      </trkpt>
      <trkpt lat="39.556548" lon="-6.402712">
        <ele>364.581</ele>
        <time>2021-10-12T17:53:26Z</time>
      </trkpt>
      <trkpt lat="39.556658" lon="-6.402730">
        <ele>364.012</ele>
        <time>2021-10-12T17:53:28Z</time>
      </trkpt>
      <trkpt lat="39.556746" lon="-6.402705">
        <ele>364.047</ele>
        <time>2021-10-12T17:53:30Z</time>
      </trkpt>
      <trkpt lat="39.556800" lon="-6.402661">
        <ele>364.029</ele>
        <time>2021-10-12T17:53:32Z</time>
      </trkpt>
      <trkpt lat="39.556861" lon="-6.402553">
        <ele>364.021</ele>
        <time>2021-10-12T17:53:34Z</time>
      </trkpt>
      <trkpt lat="39.556890" lon="-6.402481">
        <ele>364.008</ele>
        <time>2021-10-12T17:53:35Z</time>
      </trkpt>
      <trkpt lat="39.556915" lon="-6.402410">
        <ele>364.082</ele>
        <time>2021-10-12T17:53:36Z</time>
      </trkpt>
      <trkpt lat="39.556957" lon="-6.402294">
        <ele>364.020</ele>
        <time>2021-10-12T17:53:38Z</time>
      </trkpt>
      <trkpt lat="39.556984" lon="-6.402231">
        <ele>364.196</ele>
        <time>2021-10-12T17:53:40Z</time>
      </trkpt>
      <trkpt lat="39.557016" lon="-6.402183">
        <ele>364.229</ele>
        <time>2021-10-12T17:53:42Z</time>
      </trkpt>
      <trkpt lat="39.557059" lon="-6.402148">
        <ele>364.315</ele>
        <time>2021-10-12T17:53:44Z</time>
      </trkpt>
      <trkpt lat="39.557085" lon="-6.402092">
        <ele>364.344</ele>
        <time>2021-10-12T17:53:47Z</time>
      </trkpt>
      <trkpt lat="39.557107" lon="-6.402040">
        <ele>364.364</ele>
        <time>2021-10-12T17:53:59Z</time>
      </trkpt>
      <trkpt lat="39.557094" lon="-6.401958">
        <ele>364.195</ele>
        <time>2021-10-12T17:55:57Z</time>
      </trkpt>
      <trkpt lat="39.557110" lon="-6.402021">
        <ele>364.331</ele>
        <time>2021-10-12T17:55:59Z</time>
      </trkpt>
      <trkpt lat="39.557129" lon="-6.402097">
        <ele>364.561</ele>
        <time>2021-10-12T17:56:01Z</time>
      </trkpt>
      <trkpt lat="39.557144" lon="-6.402158">
        <ele>364.707</ele>
        <time>2021-10-12T17:56:05Z</time>
      </trkpt>
      <trkpt lat="39.557131" lon="-6.402093">
        <ele>364.508</ele>
        <time>2021-10-12T18:01:23Z</time>
      </trkpt>
      <trkpt lat="39.557116" lon="-6.402015">
        <ele>364.321</ele>
        <time>2021-10-12T18:01:25Z</time>
      </trkpt>
      <trkpt lat="39.557091" lon="-6.401957">
        <ele>364.139</ele>
        <time>2021-10-12T18:01:27Z</time>
      </trkpt>
      <trkpt lat="39.557074" lon="-6.401901">
        <ele>363.695</ele>
        <time>2021-10-12T18:01:50Z</time>
      </trkpt>
      <trkpt lat="39.557012" lon="-6.401892">
        <ele>363.178</ele>
        <time>2021-10-12T18:02:15Z</time>
      </trkpt>
      <trkpt lat="39.556963" lon="-6.401902">
        <ele>362.854</ele>
        <time>2021-10-12T18:02:17Z</time>
      </trkpt>
      <trkpt lat="39.556913" lon="-6.401915">
        <ele>362.883</ele>
        <time>2021-10-12T18:02:21Z</time>
      </trkpt>
      <trkpt lat="39.556846" lon="-6.401935">
        <ele>362.913</ele>
        <time>2021-10-12T18:02:37Z</time>
      </trkpt>
      <trkpt lat="39.556793" lon="-6.401990">
        <ele>363.284</ele>
        <time>2021-10-12T18:02:39Z</time>
      </trkpt>
      <trkpt lat="39.556778" lon="-6.402081">
        <ele>363.536</ele>
        <time>2021-10-12T18:02:41Z</time>
      </trkpt>
      <trkpt lat="39.556820" lon="-6.402183">
        <ele>363.917</ele>
        <time>2021-10-12T18:02:43Z</time>
      </trkpt>
      <trkpt lat="39.556885" lon="-6.402264">
        <ele>364.018</ele>
        <time>2021-10-12T18:02:45Z</time>
      </trkpt>
      <trkpt lat="39.556939" lon="-6.402340">
        <ele>364.008</ele>
        <time>2021-10-12T18:02:47Z</time>
      </trkpt>
      <trkpt lat="39.556950" lon="-6.402436">
        <ele>364.071</ele>
        <time>2021-10-12T18:02:49Z</time>
      </trkpt>
      <trkpt lat="39.556923" lon="-6.402545">
        <ele>364.079</ele>
        <time>2021-10-12T18:02:51Z</time>
      </trkpt>
      <trkpt lat="39.556898" lon="-6.402597">
        <ele>364.065</ele>
        <time>2021-10-12T18:02:52Z</time>
      </trkpt>
      <trkpt lat="39.556839" lon="-6.402690">
        <ele>364.048</ele>
        <time>2021-10-12T18:02:54Z</time>
      </trkpt>
      <trkpt lat="39.556741" lon="-6.402781">
        <ele>364.084</ele>
        <time>2021-10-12T18:02:56Z</time>
      </trkpt>
      <trkpt lat="39.556636" lon="-6.402833">
        <ele>364.123</ele>
        <time>2021-10-12T18:02:58Z</time>
      </trkpt>
      <trkpt lat="39.556552" lon="-6.402859">
        <ele>364.353</ele>
        <time>2021-10-12T18:03:00Z</time>
      </trkpt>
      <trkpt lat="39.556493" lon="-6.402867">
        <ele>364.434</ele>
        <time>2021-10-12T18:03:03Z</time>
      </trkpt>
      <trkpt lat="39.556426" lon="-6.402834">
        <ele>364.747</ele>
        <time>2021-10-12T18:03:05Z</time>
      </trkpt>
      <trkpt lat="39.556332" lon="-6.402647">
        <ele>365.429</ele>
        <time>2021-10-12T18:03:07Z</time>
      </trkpt>
      <trkpt lat="39.556290" lon="-6.402503">
        <ele>366.021</ele>
        <time>2021-10-12T18:03:08Z</time>
      </trkpt>
      <trkpt lat="39.556219" lon="-6.402207">
        <ele>366.608</ele>
        <time>2021-10-12T18:03:10Z</time>
      </trkpt>
      <trkpt lat="39.556139" lon="-6.401948">
        <ele>365.962</ele>
        <time>2021-10-12T18:03:12Z</time>
      </trkpt>
      <trkpt lat="39.556087" lon="-6.401835">
        <ele>365.220</ele>
        <time>2021-10-12T18:03:13Z</time>
      </trkpt>
      <trkpt lat="39.556028" lon="-6.401739">
        <ele>364.716</ele>
        <time>2021-10-12T18:03:14Z</time>
      </trkpt>
      <trkpt lat="39.555933" lon="-6.401557">
        <ele>364.169</ele>
        <time>2021-10-12T18:03:16Z</time>
      </trkpt>
      <trkpt lat="39.555906" lon="-6.401429">
        <ele>363.785</ele>
        <time>2021-10-12T18:03:17Z</time>
      </trkpt>
      <trkpt lat="39.555899" lon="-6.401275">
        <ele>362.854</ele>
        <time>2021-10-12T18:03:18Z</time>
      </trkpt>
      <trkpt lat="39.555903" lon="-6.400910">
        <ele>361.094</ele>
        <time>2021-10-12T18:03:20Z</time>
      </trkpt>
      <trkpt lat="39.555877" lon="-6.400710">
        <ele>360.845</ele>
        <time>2021-10-12T18:03:21Z</time>
      </trkpt>
      <trkpt lat="39.555786" lon="-6.400347">
        <ele>361.026</ele>
        <time>2021-10-12T18:03:23Z</time>
      </trkpt>
      <trkpt lat="39.555656" lon="-6.400085">
        <ele>360.147</ele>
        <time>2021-10-12T18:03:25Z</time>
      </trkpt>
      <trkpt lat="39.555583" lon="-6.399996">
        <ele>359.911</ele>
        <time>2021-10-12T18:03:26Z</time>
      </trkpt>
      <trkpt lat="39.555491" lon="-6.399803">
        <ele>358.708</ele>
        <time>2021-10-12T18:03:28Z</time>
      </trkpt>
      <trkpt lat="39.555483" lon="-6.399672">
        <ele>357.950</ele>
        <time>2021-10-12T18:03:29Z</time>
      </trkpt>
      <trkpt lat="39.555497" lon="-6.399353">
        <ele>356.768</ele>
        <time>2021-10-12T18:03:31Z</time>
      </trkpt>
      <trkpt lat="39.555476" lon="-6.399161">
        <ele>357.344</ele>
        <time>2021-10-12T18:03:32Z</time>
      </trkpt>
      <trkpt lat="39.555388" lon="-6.398779">
        <ele>356.067</ele>
        <time>2021-10-12T18:03:34Z</time>
      </trkpt>
      <trkpt lat="39.555338" lon="-6.398594">
        <ele>354.953</ele>
        <time>2021-10-12T18:03:35Z</time>
      </trkpt>
      <trkpt lat="39.555264" lon="-6.398323">
        <ele>353.072</ele>
        <time>2021-10-12T18:03:37Z</time>
      </trkpt>
      <trkpt lat="39.555234" lon="-6.398211">
        <ele>352.392</ele>
        <time>2021-10-12T18:03:38Z</time>
      </trkpt>
      <trkpt lat="39.555186" lon="-6.398003">
        <ele>351.023</ele>
        <time>2021-10-12T18:03:40Z</time>
      </trkpt>
      <trkpt lat="39.555159" lon="-6.397895">
        <ele>350.492</ele>
        <time>2021-10-12T18:03:41Z</time>
      </trkpt>
      <trkpt lat="39.555094" lon="-6.397679">
        <ele>348.773</ele>
        <time>2021-10-12T18:03:43Z</time>
      </trkpt>
      <trkpt lat="39.555053" lon="-6.397572">
        <ele>347.920</ele>
        <time>2021-10-12T18:03:44Z</time>
      </trkpt>
      <trkpt lat="39.554974" lon="-6.397398">
        <ele>346.908</ele>
        <time>2021-10-12T18:03:46Z</time>
      </trkpt>
      <trkpt lat="39.554931" lon="-6.397316">
        <ele>346.687</ele>
        <time>2021-10-12T18:03:47Z</time>
      </trkpt>
      <trkpt lat="39.554843" lon="-6.397144">
        <ele>345.915</ele>
        <time>2021-10-12T18:03:49Z</time>
      </trkpt>
      <trkpt lat="39.554796" lon="-6.397046">
        <ele>345.831</ele>
        <time>2021-10-12T18:03:50Z</time>
      </trkpt>
      <trkpt lat="39.554700" lon="-6.396841">
        <ele>346.424</ele>
        <time>2021-10-12T18:03:52Z</time>
      </trkpt>
      <trkpt lat="39.554593" lon="-6.396607">
        <ele>347.320</ele>
        <time>2021-10-12T18:03:54Z</time>
      </trkpt>
      <trkpt lat="39.554531" lon="-6.396469">
        <ele>348.239</ele>
        <time>2021-10-12T18:03:55Z</time>
      </trkpt>
      <trkpt lat="39.554462" lon="-6.396318">
        <ele>348.979</ele>
        <time>2021-10-12T18:03:56Z</time>
      </trkpt>
      <trkpt lat="39.554321" lon="-6.396021">
        <ele>349.630</ele>
        <time>2021-10-12T18:03:58Z</time>
      </trkpt>
      <trkpt lat="39.554244" lon="-6.395862">
        <ele>349.549</ele>
        <time>2021-10-12T18:03:59Z</time>
      </trkpt>
      <trkpt lat="39.554086" lon="-6.395533">
        <ele>350.602</ele>
        <time>2021-10-12T18:04:01Z</time>
      </trkpt>
      <trkpt lat="39.554005" lon="-6.395357">
        <ele>350.722</ele>
        <time>2021-10-12T18:04:02Z</time>
      </trkpt>
      <trkpt lat="39.553851" lon="-6.395040">
        <ele>350.308</ele>
        <time>2021-10-12T18:04:04Z</time>
      </trkpt>
      <trkpt lat="39.553692" lon="-6.394720">
        <ele>350.772</ele>
        <time>2021-10-12T18:04:06Z</time>
      </trkpt>
      <trkpt lat="39.553529" lon="-6.394376">
        <ele>352.650</ele>
        <time>2021-10-12T18:04:08Z</time>
      </trkpt>
      <trkpt lat="39.553360" lon="-6.394006">
        <ele>353.856</ele>
        <time>2021-10-12T18:04:10Z</time>
      </trkpt>
      <trkpt lat="39.553268" lon="-6.393813">
        <ele>354.729</ele>
        <time>2021-10-12T18:04:11Z</time>
      </trkpt>
      <trkpt lat="39.553081" lon="-6.393430">
        <ele>356.065</ele>
        <time>2021-10-12T18:04:13Z</time>
      </trkpt>
      <trkpt lat="39.552987" lon="-6.393241">
        <ele>356.564</ele>
        <time>2021-10-12T18:04:14Z</time>
      </trkpt>
      <trkpt lat="39.552815" lon="-6.392895">
        <ele>357.884</ele>
        <time>2021-10-12T18:04:16Z</time>
      </trkpt>
      <trkpt lat="39.552727" lon="-6.392724">
        <ele>358.965</ele>
        <time>2021-10-12T18:04:17Z</time>
      </trkpt>
      <trkpt lat="39.552554" lon="-6.392380">
        <ele>361.382</ele>
        <time>2021-10-12T18:04:19Z</time>
      </trkpt>
      <trkpt lat="39.552470" lon="-6.392201">
        <ele>362.143</ele>
        <time>2021-10-12T18:04:20Z</time>
      </trkpt>
      <trkpt lat="39.552306" lon="-6.391852">
        <ele>363.317</ele>
        <time>2021-10-12T18:04:22Z</time>
      </trkpt>
      <trkpt lat="39.552145" lon="-6.391509">
        <ele>364.408</ele>
        <time>2021-10-12T18:04:24Z</time>
      </trkpt>
      <trkpt lat="39.551981" lon="-6.391158">
        <ele>365.056</ele>
        <time>2021-10-12T18:04:26Z</time>
      </trkpt>
      <trkpt lat="39.551840" lon="-6.390821">
        <ele>364.494</ele>
        <time>2021-10-12T18:04:28Z</time>
      </trkpt>
      <trkpt lat="39.551700" lon="-6.390477">
        <ele>364.930</ele>
        <time>2021-10-12T18:04:30Z</time>
      </trkpt>
      <trkpt lat="39.551628" lon="-6.390307">
        <ele>365.013</ele>
        <time>2021-10-12T18:04:31Z</time>
      </trkpt>
      <trkpt lat="39.551553" lon="-6.390128">
        <ele>365.049</ele>
        <time>2021-10-12T18:04:32Z</time>
      </trkpt>
      <trkpt lat="39.551410" lon="-6.389784">
        <ele>364.278</ele>
        <time>2021-10-12T18:04:34Z</time>
      </trkpt>
      <trkpt lat="39.551257" lon="-6.389424">
        <ele>363.958</ele>
        <time>2021-10-12T18:04:36Z</time>
      </trkpt>
      <trkpt lat="39.551176" lon="-6.389236">
        <ele>364.569</ele>
        <time>2021-10-12T18:04:37Z</time>
      </trkpt>
      <trkpt lat="39.551094" lon="-6.389042">
        <ele>365.675</ele>
        <time>2021-10-12T18:04:38Z</time>
      </trkpt>
      <trkpt lat="39.550931" lon="-6.388660">
        <ele>367.028</ele>
        <time>2021-10-12T18:04:40Z</time>
      </trkpt>
      <trkpt lat="39.550847" lon="-6.388469">
        <ele>367.420</ele>
        <time>2021-10-12T18:04:41Z</time>
      </trkpt>
      <trkpt lat="39.550687" lon="-6.388085">
        <ele>369.008</ele>
        <time>2021-10-12T18:04:43Z</time>
      </trkpt>
      <trkpt lat="39.550605" lon="-6.387890">
        <ele>369.645</ele>
        <time>2021-10-12T18:04:44Z</time>
      </trkpt>
      <trkpt lat="39.550440" lon="-6.387503">
        <ele>370.023</ele>
        <time>2021-10-12T18:04:46Z</time>
      </trkpt>
      <trkpt lat="39.550265" lon="-6.387093">
        <ele>369.669</ele>
        <time>2021-10-12T18:04:48Z</time>
      </trkpt>
      <trkpt lat="39.550091" lon="-6.386684">
        <ele>369.762</ele>
        <time>2021-10-12T18:04:50Z</time>
      </trkpt>
      <trkpt lat="39.549922" lon="-6.386291">
        <ele>369.518</ele>
        <time>2021-10-12T18:04:52Z</time>
      </trkpt>
      <trkpt lat="39.549758" lon="-6.385905">
        <ele>369.047</ele>
        <time>2021-10-12T18:04:54Z</time>
      </trkpt>
      <trkpt lat="39.549594" lon="-6.385513">
        <ele>366.927</ele>
        <time>2021-10-12T18:04:56Z</time>
      </trkpt>
      <trkpt lat="39.549437" lon="-6.385145">
        <ele>365.098</ele>
        <time>2021-10-12T18:04:58Z</time>
      </trkpt>
      <trkpt lat="39.549360" lon="-6.384963">
        <ele>365.165</ele>
        <time>2021-10-12T18:04:59Z</time>
      </trkpt>
      <trkpt lat="39.549215" lon="-6.384620">
        <ele>365.268</ele>
        <time>2021-10-12T18:05:01Z</time>
      </trkpt>
      <trkpt lat="39.549139" lon="-6.384446">
        <ele>364.814</ele>
        <time>2021-10-12T18:05:02Z</time>
      </trkpt>
      <trkpt lat="39.549001" lon="-6.384114">
        <ele>363.808</ele>
        <time>2021-10-12T18:05:04Z</time>
      </trkpt>
      <trkpt lat="39.548938" lon="-6.383931">
        <ele>363.484</ele>
        <time>2021-10-12T18:05:05Z</time>
      </trkpt>
      <trkpt lat="39.548894" lon="-6.383728">
        <ele>361.932</ele>
        <time>2021-10-12T18:05:06Z</time>
      </trkpt>
      <trkpt lat="39.548875" lon="-6.383510">
        <ele>360.628</ele>
        <time>2021-10-12T18:05:07Z</time>
      </trkpt>
      <trkpt lat="39.548870" lon="-6.383276">
        <ele>359.631</ele>
        <time>2021-10-12T18:05:08Z</time>
      </trkpt>
      <trkpt lat="39.548858" lon="-6.382777">
        <ele>357.847</ele>
        <time>2021-10-12T18:05:10Z</time>
      </trkpt>
      <trkpt lat="39.548834" lon="-6.382239">
        <ele>359.256</ele>
        <time>2021-10-12T18:05:12Z</time>
      </trkpt>
      <trkpt lat="39.548818" lon="-6.381957">
        <ele>359.296</ele>
        <time>2021-10-12T18:05:13Z</time>
      </trkpt>
      <trkpt lat="39.548802" lon="-6.381663">
        <ele>358.187</ele>
        <time>2021-10-12T18:05:14Z</time>
      </trkpt>
      <trkpt lat="39.548772" lon="-6.381090">
        <ele>356.591</ele>
        <time>2021-10-12T18:05:16Z</time>
      </trkpt>
      <trkpt lat="39.548756" lon="-6.380792">
        <ele>356.081</ele>
        <time>2021-10-12T18:05:17Z</time>
      </trkpt>
      <trkpt lat="39.548716" lon="-6.380194">
        <ele>355.019</ele>
        <time>2021-10-12T18:05:19Z</time>
      </trkpt>
      <trkpt lat="39.548697" lon="-6.379888">
        <ele>353.808</ele>
        <time>2021-10-12T18:05:20Z</time>
      </trkpt>
      <trkpt lat="39.548664" lon="-6.379284">
        <ele>351.667</ele>
        <time>2021-10-12T18:05:22Z</time>
      </trkpt>
      <trkpt lat="39.548627" lon="-6.378672">
        <ele>350.195</ele>
        <time>2021-10-12T18:05:24Z</time>
      </trkpt>
      <trkpt lat="39.548589" lon="-6.378061">
        <ele>352.011</ele>
        <time>2021-10-12T18:05:26Z</time>
      </trkpt>
      <trkpt lat="39.548555" lon="-6.377530">
        <ele>352.694</ele>
        <time>2021-10-12T18:05:28Z</time>
      </trkpt>
      <trkpt lat="39.548539" lon="-6.377290">
        <ele>353.580</ele>
        <time>2021-10-12T18:05:29Z</time>
      </trkpt>
      <trkpt lat="39.548524" lon="-6.377062">
        <ele>355.119</ele>
        <time>2021-10-12T18:05:30Z</time>
      </trkpt>
      <trkpt lat="39.548510" lon="-6.376832">
        <ele>356.589</ele>
        <time>2021-10-12T18:05:31Z</time>
      </trkpt>
      <trkpt lat="39.548495" lon="-6.376589">
        <ele>357.860</ele>
        <time>2021-10-12T18:05:32Z</time>
      </trkpt>
      <trkpt lat="39.548462" lon="-6.376125">
        <ele>361.569</ele>
        <time>2021-10-12T18:05:34Z</time>
      </trkpt>
      <trkpt lat="39.548443" lon="-6.375886">
        <ele>361.004</ele>
        <time>2021-10-12T18:05:35Z</time>
      </trkpt>
      <trkpt lat="39.548411" lon="-6.375397">
        <ele>360.224</ele>
        <time>2021-10-12T18:05:37Z</time>
      </trkpt>
      <trkpt lat="39.548396" lon="-6.375140">
        <ele>359.908</ele>
        <time>2021-10-12T18:05:38Z</time>
      </trkpt>
      <trkpt lat="39.548365" lon="-6.374620">
        <ele>358.924</ele>
        <time>2021-10-12T18:05:40Z</time>
      </trkpt>
      <trkpt lat="39.548331" lon="-6.374080">
        <ele>359.332</ele>
        <time>2021-10-12T18:05:42Z</time>
      </trkpt>
      <trkpt lat="39.548294" lon="-6.373579">
        <ele>359.948</ele>
        <time>2021-10-12T18:05:44Z</time>
      </trkpt>
      <trkpt lat="39.548266" lon="-6.373110">
        <ele>358.261</ele>
        <time>2021-10-12T18:05:46Z</time>
      </trkpt>
      <trkpt lat="39.548242" lon="-6.372644">
        <ele>357.387</ele>
        <time>2021-10-12T18:05:48Z</time>
      </trkpt>
      <trkpt lat="39.548220" lon="-6.372177">
        <ele>356.516</ele>
        <time>2021-10-12T18:05:50Z</time>
      </trkpt>
      <trkpt lat="39.548194" lon="-6.371709">
        <ele>356.476</ele>
        <time>2021-10-12T18:05:52Z</time>
      </trkpt>
      <trkpt lat="39.548179" lon="-6.371472">
        <ele>356.987</ele>
        <time>2021-10-12T18:05:53Z</time>
      </trkpt>
      <trkpt lat="39.548164" lon="-6.371234">
        <ele>357.248</ele>
        <time>2021-10-12T18:05:54Z</time>
      </trkpt>
      <trkpt lat="39.548137" lon="-6.370741">
        <ele>356.261</ele>
        <time>2021-10-12T18:05:56Z</time>
      </trkpt>
      <trkpt lat="39.548109" lon="-6.370266">
        <ele>354.517</ele>
        <time>2021-10-12T18:05:58Z</time>
      </trkpt>
      <trkpt lat="39.548084" lon="-6.369763">
        <ele>350.308</ele>
        <time>2021-10-12T18:06:00Z</time>
      </trkpt>
      <trkpt lat="39.548071" lon="-6.369497">
        <ele>348.452</ele>
        <time>2021-10-12T18:06:01Z</time>
      </trkpt>
      <trkpt lat="39.548054" lon="-6.369220">
        <ele>346.470</ele>
        <time>2021-10-12T18:06:02Z</time>
      </trkpt>
      <trkpt lat="39.548024" lon="-6.368724">
        <ele>344.616</ele>
        <time>2021-10-12T18:06:04Z</time>
      </trkpt>
      <trkpt lat="39.547998" lon="-6.368233">
        <ele>343.559</ele>
        <time>2021-10-12T18:06:06Z</time>
      </trkpt>
      <trkpt lat="39.547984" lon="-6.367997">
        <ele>344.145</ele>
        <time>2021-10-12T18:06:07Z</time>
      </trkpt>
      <trkpt lat="39.547973" lon="-6.367765">
        <ele>345.624</ele>
        <time>2021-10-12T18:06:08Z</time>
      </trkpt>
      <trkpt lat="39.547952" lon="-6.367317">
        <ele>344.844</ele>
        <time>2021-10-12T18:06:10Z</time>
      </trkpt>
      <trkpt lat="39.547922" lon="-6.366867">
        <ele>341.995</ele>
        <time>2021-10-12T18:06:12Z</time>
      </trkpt>
      <trkpt lat="39.547908" lon="-6.366641">
        <ele>340.452</ele>
        <time>2021-10-12T18:06:13Z</time>
      </trkpt>
      <trkpt lat="39.547896" lon="-6.366408">
        <ele>339.653</ele>
        <time>2021-10-12T18:06:14Z</time>
      </trkpt>
      <trkpt lat="39.547872" lon="-6.365929">
        <ele>338.308</ele>
        <time>2021-10-12T18:06:16Z</time>
      </trkpt>
      <trkpt lat="39.547856" lon="-6.365674">
        <ele>337.308</ele>
        <time>2021-10-12T18:06:17Z</time>
      </trkpt>
      <trkpt lat="39.547825" lon="-6.365164">
        <ele>335.133</ele>
        <time>2021-10-12T18:06:19Z</time>
      </trkpt>
      <trkpt lat="39.547813" lon="-6.364907">
        <ele>333.841</ele>
        <time>2021-10-12T18:06:20Z</time>
      </trkpt>
      <trkpt lat="39.547787" lon="-6.364395">
        <ele>331.057</ele>
        <time>2021-10-12T18:06:22Z</time>
      </trkpt>
      <trkpt lat="39.547759" lon="-6.363908">
        <ele>331.020</ele>
        <time>2021-10-12T18:06:24Z</time>
      </trkpt>
      <trkpt lat="39.547726" lon="-6.363433">
        <ele>330.386</ele>
        <time>2021-10-12T18:06:26Z</time>
      </trkpt>
      <trkpt lat="39.547693" lon="-6.362999">
        <ele>330.225</ele>
        <time>2021-10-12T18:06:28Z</time>
      </trkpt>
      <trkpt lat="39.547670" lon="-6.362562">
        <ele>329.565</ele>
        <time>2021-10-12T18:06:30Z</time>
      </trkpt>
      <trkpt lat="39.547650" lon="-6.362145">
        <ele>327.196</ele>
        <time>2021-10-12T18:06:32Z</time>
      </trkpt>
      <trkpt lat="39.547622" lon="-6.361776">
        <ele>324.821</ele>
        <time>2021-10-12T18:06:34Z</time>
      </trkpt>
      <trkpt lat="39.547608" lon="-6.361600">
        <ele>323.741</ele>
        <time>2021-10-12T18:06:35Z</time>
      </trkpt>
      <trkpt lat="39.547598" lon="-6.361428">
        <ele>322.805</ele>
        <time>2021-10-12T18:06:36Z</time>
      </trkpt>
      <trkpt lat="39.547589" lon="-6.361257">
        <ele>323.008</ele>
        <time>2021-10-12T18:06:37Z</time>
      </trkpt>
      <trkpt lat="39.547582" lon="-6.361080">
        <ele>323.480</ele>
        <time>2021-10-12T18:06:38Z</time>
      </trkpt>
      <trkpt lat="39.547585" lon="-6.360748">
        <ele>323.458</ele>
        <time>2021-10-12T18:06:40Z</time>
      </trkpt>
      <trkpt lat="39.547662" lon="-6.360419">
        <ele>322.674</ele>
        <time>2021-10-12T18:06:42Z</time>
      </trkpt>
      <trkpt lat="39.547742" lon="-6.360260">
        <ele>322.177</ele>
        <time>2021-10-12T18:06:43Z</time>
      </trkpt>
      <trkpt lat="39.547848" lon="-6.360112">
        <ele>322.043</ele>
        <time>2021-10-12T18:06:44Z</time>
      </trkpt>
      <trkpt lat="39.548083" lon="-6.359833">
        <ele>322.112</ele>
        <time>2021-10-12T18:06:46Z</time>
      </trkpt>
      <trkpt lat="39.548315" lon="-6.359536">
        <ele>323.672</ele>
        <time>2021-10-12T18:06:48Z</time>
      </trkpt>
      <trkpt lat="39.548549" lon="-6.359221">
        <ele>323.353</ele>
        <time>2021-10-12T18:06:50Z</time>
      </trkpt>
      <trkpt lat="39.548781" lon="-6.358905">
        <ele>324.383</ele>
        <time>2021-10-12T18:06:52Z</time>
      </trkpt>
      <trkpt lat="39.549015" lon="-6.358581">
        <ele>325.625</ele>
        <time>2021-10-12T18:06:54Z</time>
      </trkpt>
      <trkpt lat="39.549198" lon="-6.358244">
        <ele>325.717</ele>
        <time>2021-10-12T18:06:56Z</time>
      </trkpt>
      <trkpt lat="39.549310" lon="-6.357868">
        <ele>325.708</ele>
        <time>2021-10-12T18:06:58Z</time>
      </trkpt>
      <trkpt lat="39.549363" lon="-6.357660">
        <ele>325.646</ele>
        <time>2021-10-12T18:06:59Z</time>
      </trkpt>
      <trkpt lat="39.549423" lon="-6.357447">
        <ele>325.384</ele>
        <time>2021-10-12T18:07:00Z</time>
      </trkpt>
      <trkpt lat="39.549553" lon="-6.357016">
        <ele>322.820</ele>
        <time>2021-10-12T18:07:02Z</time>
      </trkpt>
      <trkpt lat="39.549676" lon="-6.356621">
        <ele>321.193</ele>
        <time>2021-10-12T18:07:04Z</time>
      </trkpt>
      <trkpt lat="39.549803" lon="-6.356227">
        <ele>320.079</ele>
        <time>2021-10-12T18:07:06Z</time>
      </trkpt>
      <trkpt lat="39.549864" lon="-6.356037">
        <ele>319.698</ele>
        <time>2021-10-12T18:07:07Z</time>
      </trkpt>
      <trkpt lat="39.549927" lon="-6.355840">
        <ele>319.758</ele>
        <time>2021-10-12T18:07:08Z</time>
      </trkpt>
      <trkpt lat="39.550059" lon="-6.355447">
        <ele>320.679</ele>
        <time>2021-10-12T18:07:10Z</time>
      </trkpt>
      <trkpt lat="39.550172" lon="-6.355071">
        <ele>321.158</ele>
        <time>2021-10-12T18:07:12Z</time>
      </trkpt>
      <trkpt lat="39.550215" lon="-6.354717">
        <ele>320.052</ele>
        <time>2021-10-12T18:07:14Z</time>
      </trkpt>
      <trkpt lat="39.550213" lon="-6.354352">
        <ele>317.617</ele>
        <time>2021-10-12T18:07:16Z</time>
      </trkpt>
      <trkpt lat="39.550223" lon="-6.353969">
        <ele>314.208</ele>
        <time>2021-10-12T18:07:18Z</time>
      </trkpt>
      <trkpt lat="39.550273" lon="-6.353593">
        <ele>312.063</ele>
        <time>2021-10-12T18:07:20Z</time>
      </trkpt>
      <trkpt lat="39.550385" lon="-6.353216">
        <ele>309.891</ele>
        <time>2021-10-12T18:07:22Z</time>
      </trkpt>
      <trkpt lat="39.550463" lon="-6.353029">
        <ele>308.597</ele>
        <time>2021-10-12T18:07:23Z</time>
      </trkpt>
      <trkpt lat="39.550605" lon="-6.352675">
        <ele>307.210</ele>
        <time>2021-10-12T18:07:25Z</time>
      </trkpt>
      <trkpt lat="39.550673" lon="-6.352486">
        <ele>307.446</ele>
        <time>2021-10-12T18:07:26Z</time>
      </trkpt>
      <trkpt lat="39.550790" lon="-6.352139">
        <ele>307.055</ele>
        <time>2021-10-12T18:07:28Z</time>
      </trkpt>
      <trkpt lat="39.550848" lon="-6.351968">
        <ele>306.375</ele>
        <time>2021-10-12T18:07:29Z</time>
      </trkpt>
      <trkpt lat="39.550905" lon="-6.351801">
        <ele>305.456</ele>
        <time>2021-10-12T18:07:30Z</time>
      </trkpt>
      <trkpt lat="39.551022" lon="-6.351493">
        <ele>303.251</ele>
        <time>2021-10-12T18:07:32Z</time>
      </trkpt>
      <trkpt lat="39.551172" lon="-6.351297">
        <ele>302.601</ele>
        <time>2021-10-12T18:07:34Z</time>
      </trkpt>
      <trkpt lat="39.551279" lon="-6.351236">
        <ele>302.111</ele>
        <time>2021-10-12T18:07:35Z</time>
      </trkpt>
      <trkpt lat="39.551531" lon="-6.351168">
        <ele>301.308</ele>
        <time>2021-10-12T18:07:37Z</time>
      </trkpt>
      <trkpt lat="39.551665" lon="-6.351139">
        <ele>301.193</ele>
        <time>2021-10-12T18:07:38Z</time>
      </trkpt>
      <trkpt lat="39.551915" lon="-6.351041">
        <ele>299.831</ele>
        <time>2021-10-12T18:07:40Z</time>
      </trkpt>
      <trkpt lat="39.552023" lon="-6.350956">
        <ele>299.437</ele>
        <time>2021-10-12T18:07:41Z</time>
      </trkpt>
      <trkpt lat="39.552164" lon="-6.350695">
        <ele>299.320</ele>
        <time>2021-10-12T18:07:43Z</time>
      </trkpt>
      <trkpt lat="39.552210" lon="-6.350540">
        <ele>299.966</ele>
        <time>2021-10-12T18:07:44Z</time>
      </trkpt>
      <trkpt lat="39.552276" lon="-6.350204">
        <ele>300.735</ele>
        <time>2021-10-12T18:07:46Z</time>
      </trkpt>
      <trkpt lat="39.552300" lon="-6.349815">
        <ele>301.695</ele>
        <time>2021-10-12T18:07:48Z</time>
      </trkpt>
      <trkpt lat="39.552285" lon="-6.349610">
        <ele>301.486</ele>
        <time>2021-10-12T18:07:49Z</time>
      </trkpt>
      <trkpt lat="39.552260" lon="-6.349408">
        <ele>301.294</ele>
        <time>2021-10-12T18:07:50Z</time>
      </trkpt>
      <trkpt lat="39.552213" lon="-6.349035">
        <ele>302.057</ele>
        <time>2021-10-12T18:07:52Z</time>
      </trkpt>
      <trkpt lat="39.552196" lon="-6.348838">
        <ele>301.722</ele>
        <time>2021-10-12T18:07:53Z</time>
      </trkpt>
      <trkpt lat="39.552181" lon="-6.348634">
        <ele>301.108</ele>
        <time>2021-10-12T18:07:54Z</time>
      </trkpt>
      <trkpt lat="39.552152" lon="-6.348207">
        <ele>300.097</ele>
        <time>2021-10-12T18:07:56Z</time>
      </trkpt>
      <trkpt lat="39.552121" lon="-6.347799">
        <ele>299.585</ele>
        <time>2021-10-12T18:07:58Z</time>
      </trkpt>
      <trkpt lat="39.552092" lon="-6.347392">
        <ele>298.561</ele>
        <time>2021-10-12T18:08:00Z</time>
      </trkpt>
      <trkpt lat="39.552063" lon="-6.346996">
        <ele>297.944</ele>
        <time>2021-10-12T18:08:02Z</time>
      </trkpt>
      <trkpt lat="39.552054" lon="-6.346636">
        <ele>297.580</ele>
        <time>2021-10-12T18:08:04Z</time>
      </trkpt>
      <trkpt lat="39.552085" lon="-6.346309">
        <ele>295.269</ele>
        <time>2021-10-12T18:08:06Z</time>
      </trkpt>
      <trkpt lat="39.552107" lon="-6.346158">
        <ele>294.229</ele>
        <time>2021-10-12T18:08:07Z</time>
      </trkpt>
      <trkpt lat="39.552121" lon="-6.346007">
        <ele>293.270</ele>
        <time>2021-10-12T18:08:08Z</time>
      </trkpt>
      <trkpt lat="39.552087" lon="-6.345714">
        <ele>291.644</ele>
        <time>2021-10-12T18:08:10Z</time>
      </trkpt>
      <trkpt lat="39.552049" lon="-6.345571">
        <ele>290.905</ele>
        <time>2021-10-12T18:08:11Z</time>
      </trkpt>
      <trkpt lat="39.551972" lon="-6.345296">
        <ele>290.415</ele>
        <time>2021-10-12T18:08:13Z</time>
      </trkpt>
      <trkpt lat="39.551932" lon="-6.345174">
        <ele>290.308</ele>
        <time>2021-10-12T18:08:14Z</time>
      </trkpt>
      <trkpt lat="39.551814" lon="-6.344979">
        <ele>288.932</ele>
        <time>2021-10-12T18:08:16Z</time>
      </trkpt>
      <trkpt lat="39.551733" lon="-6.344916">
        <ele>288.660</ele>
        <time>2021-10-12T18:08:17Z</time>
      </trkpt>
      <trkpt lat="39.551642" lon="-6.344880">
        <ele>288.566</ele>
        <time>2021-10-12T18:08:18Z</time>
      </trkpt>
      <trkpt lat="39.551539" lon="-6.344876">
        <ele>288.189</ele>
        <time>2021-10-12T18:08:19Z</time>
      </trkpt>
      <trkpt lat="39.551426" lon="-6.344907">
        <ele>287.845</ele>
        <time>2021-10-12T18:08:20Z</time>
      </trkpt>
      <trkpt lat="39.551181" lon="-6.345046">
        <ele>285.324</ele>
        <time>2021-10-12T18:08:22Z</time>
      </trkpt>
      <trkpt lat="39.550942" lon="-6.345175">
        <ele>284.044</ele>
        <time>2021-10-12T18:08:24Z</time>
      </trkpt>
      <trkpt lat="39.550831" lon="-6.345200">
        <ele>283.465</ele>
        <time>2021-10-12T18:08:25Z</time>
      </trkpt>
      <trkpt lat="39.550727" lon="-6.345192">
        <ele>283.616</ele>
        <time>2021-10-12T18:08:26Z</time>
      </trkpt>
      <trkpt lat="39.550576" lon="-6.345082">
        <ele>282.976</ele>
        <time>2021-10-12T18:08:28Z</time>
      </trkpt>
      <trkpt lat="39.550446" lon="-6.344915">
        <ele>281.513</ele>
        <time>2021-10-12T18:08:30Z</time>
      </trkpt>
      <trkpt lat="39.550334" lon="-6.344694">
        <ele>280.708</ele>
        <time>2021-10-12T18:08:32Z</time>
      </trkpt>
      <trkpt lat="39.550252" lon="-6.344459">
        <ele>280.179</ele>
        <time>2021-10-12T18:08:34Z</time>
      </trkpt>
      <trkpt lat="39.550216" lon="-6.344334">
        <ele>278.767</ele>
        <time>2021-10-12T18:08:35Z</time>
      </trkpt>
      <trkpt lat="39.550184" lon="-6.344213">
        <ele>277.343</ele>
        <time>2021-10-12T18:08:36Z</time>
      </trkpt>
      <trkpt lat="39.550137" lon="-6.343968">
        <ele>274.196</ele>
        <time>2021-10-12T18:08:38Z</time>
      </trkpt>
      <trkpt lat="39.550103" lon="-6.343724">
        <ele>272.822</ele>
        <time>2021-10-12T18:08:40Z</time>
      </trkpt>
      <trkpt lat="39.550063" lon="-6.343484">
        <ele>273.661</ele>
        <time>2021-10-12T18:08:42Z</time>
      </trkpt>
      <trkpt lat="39.550081" lon="-6.343236">
        <ele>276.371</ele>
        <time>2021-10-12T18:08:44Z</time>
      </trkpt>
      <trkpt lat="39.550191" lon="-6.343008">
        <ele>279.222</ele>
        <time>2021-10-12T18:08:46Z</time>
      </trkpt>
      <trkpt lat="39.550264" lon="-6.342870">
        <ele>281.119</ele>
        <time>2021-10-12T18:08:47Z</time>
      </trkpt>
      <trkpt lat="39.550359" lon="-6.342533">
        <ele>284.809</ele>
        <time>2021-10-12T18:08:49Z</time>
      </trkpt>
      <trkpt lat="39.550364" lon="-6.342343">
        <ele>285.519</ele>
        <time>2021-10-12T18:08:50Z</time>
      </trkpt>
      <trkpt lat="39.550331" lon="-6.341960">
        <ele>286.408</ele>
        <time>2021-10-12T18:08:52Z</time>
      </trkpt>
      <trkpt lat="39.550292" lon="-6.341535">
        <ele>287.899</ele>
        <time>2021-10-12T18:08:54Z</time>
      </trkpt>
      <trkpt lat="39.550266" lon="-6.341313">
        <ele>287.867</ele>
        <time>2021-10-12T18:08:55Z</time>
      </trkpt>
      <trkpt lat="39.550225" lon="-6.341084">
        <ele>287.483</ele>
        <time>2021-10-12T18:08:56Z</time>
      </trkpt>
      <trkpt lat="39.550131" lon="-6.340657">
        <ele>288.666</ele>
        <time>2021-10-12T18:08:58Z</time>
      </trkpt>
      <trkpt lat="39.550049" lon="-6.340219">
        <ele>289.622</ele>
        <time>2021-10-12T18:09:00Z</time>
      </trkpt>
      <trkpt lat="39.549988" lon="-6.339801">
        <ele>290.731</ele>
        <time>2021-10-12T18:09:02Z</time>
      </trkpt>
      <trkpt lat="39.549939" lon="-6.339438">
        <ele>292.021</ele>
        <time>2021-10-12T18:09:04Z</time>
      </trkpt>
      <trkpt lat="39.549917" lon="-6.339257">
        <ele>293.492</ele>
        <time>2021-10-12T18:09:05Z</time>
      </trkpt>
      <trkpt lat="39.549902" lon="-6.338892">
        <ele>295.616</ele>
        <time>2021-10-12T18:09:07Z</time>
      </trkpt>
      <trkpt lat="39.549917" lon="-6.338703">
        <ele>296.276</ele>
        <time>2021-10-12T18:09:08Z</time>
      </trkpt>
      <trkpt lat="39.549962" lon="-6.338325">
        <ele>297.813</ele>
        <time>2021-10-12T18:09:10Z</time>
      </trkpt>
      <trkpt lat="39.550008" lon="-6.337940">
        <ele>299.508</ele>
        <time>2021-10-12T18:09:12Z</time>
      </trkpt>
      <trkpt lat="39.550030" lon="-6.337740">
        <ele>300.459</ele>
        <time>2021-10-12T18:09:13Z</time>
      </trkpt>
      <trkpt lat="39.550051" lon="-6.337541">
        <ele>301.987</ele>
        <time>2021-10-12T18:09:14Z</time>
      </trkpt>
      <trkpt lat="39.550080" lon="-6.337152">
        <ele>303.423</ele>
        <time>2021-10-12T18:09:16Z</time>
      </trkpt>
      <trkpt lat="39.550089" lon="-6.336955">
        <ele>303.986</ele>
        <time>2021-10-12T18:09:17Z</time>
      </trkpt>
      <trkpt lat="39.550088" lon="-6.336761">
        <ele>304.492</ele>
        <time>2021-10-12T18:09:18Z</time>
      </trkpt>
      <trkpt lat="39.550074" lon="-6.336566">
        <ele>305.151</ele>
        <time>2021-10-12T18:09:19Z</time>
      </trkpt>
      <trkpt lat="39.550050" lon="-6.336367">
        <ele>305.921</ele>
        <time>2021-10-12T18:09:20Z</time>
      </trkpt>
      <trkpt lat="39.550019" lon="-6.336166">
        <ele>306.822</ele>
        <time>2021-10-12T18:09:21Z</time>
      </trkpt>
      <trkpt lat="39.549946" lon="-6.335756">
        <ele>307.595</ele>
        <time>2021-10-12T18:09:23Z</time>
      </trkpt>
      <trkpt lat="39.549906" lon="-6.335545">
        <ele>308.849</ele>
        <time>2021-10-12T18:09:24Z</time>
      </trkpt>
      <trkpt lat="39.549827" lon="-6.335111">
        <ele>311.423</ele>
        <time>2021-10-12T18:09:26Z</time>
      </trkpt>
      <trkpt lat="39.549756" lon="-6.334677">
        <ele>311.008</ele>
        <time>2021-10-12T18:09:28Z</time>
      </trkpt>
      <trkpt lat="39.549721" lon="-6.334441">
        <ele>311.027</ele>
        <time>2021-10-12T18:09:29Z</time>
      </trkpt>
      <trkpt lat="39.549681" lon="-6.334203">
        <ele>312.755</ele>
        <time>2021-10-12T18:09:30Z</time>
      </trkpt>
      <trkpt lat="39.549599" lon="-6.333721">
        <ele>315.651</ele>
        <time>2021-10-12T18:09:32Z</time>
      </trkpt>
      <trkpt lat="39.549529" lon="-6.333327">
        <ele>316.664</ele>
        <time>2021-10-12T18:09:34Z</time>
      </trkpt>
      <trkpt lat="39.549466" lon="-6.332937">
        <ele>314.850</ele>
        <time>2021-10-12T18:09:36Z</time>
      </trkpt>
      <trkpt lat="39.549398" lon="-6.332546">
        <ele>314.769</ele>
        <time>2021-10-12T18:09:38Z</time>
      </trkpt>
      <trkpt lat="39.549336" lon="-6.332152">
        <ele>317.079</ele>
        <time>2021-10-12T18:09:40Z</time>
      </trkpt>
      <trkpt lat="39.549270" lon="-6.331749">
        <ele>320.420</ele>
        <time>2021-10-12T18:09:42Z</time>
      </trkpt>
      <trkpt lat="39.549236" lon="-6.331543">
        <ele>320.765</ele>
        <time>2021-10-12T18:09:43Z</time>
      </trkpt>
      <trkpt lat="39.549202" lon="-6.331328">
        <ele>320.468</ele>
        <time>2021-10-12T18:09:44Z</time>
      </trkpt>
      <trkpt lat="39.549131" lon="-6.330900">
        <ele>319.914</ele>
        <time>2021-10-12T18:09:46Z</time>
      </trkpt>
      <trkpt lat="39.549094" lon="-6.330681">
        <ele>321.108</ele>
        <time>2021-10-12T18:09:47Z</time>
      </trkpt>
      <trkpt lat="39.549059" lon="-6.330470">
        <ele>322.414</ele>
        <time>2021-10-12T18:09:48Z</time>
      </trkpt>
      <trkpt lat="39.548997" lon="-6.330075">
        <ele>323.852</ele>
        <time>2021-10-12T18:09:50Z</time>
      </trkpt>
      <trkpt lat="39.548927" lon="-6.329715">
        <ele>326.318</ele>
        <time>2021-10-12T18:09:52Z</time>
      </trkpt>
      <trkpt lat="39.548835" lon="-6.329343">
        <ele>326.431</ele>
        <time>2021-10-12T18:09:54Z</time>
      </trkpt>
      <trkpt lat="39.548784" lon="-6.329145">
        <ele>325.897</ele>
        <time>2021-10-12T18:09:55Z</time>
      </trkpt>
      <trkpt lat="39.548729" lon="-6.328930">
        <ele>324.876</ele>
        <time>2021-10-12T18:09:56Z</time>
      </trkpt>
      <trkpt lat="39.548626" lon="-6.328501">
        <ele>323.556</ele>
        <time>2021-10-12T18:09:58Z</time>
      </trkpt>
      <trkpt lat="39.548509" lon="-6.328031">
        <ele>324.847</ele>
        <time>2021-10-12T18:10:00Z</time>
      </trkpt>
      <trkpt lat="39.548384" lon="-6.327542">
        <ele>327.045</ele>
        <time>2021-10-12T18:10:02Z</time>
      </trkpt>
      <trkpt lat="39.548270" lon="-6.327070">
        <ele>328.447</ele>
        <time>2021-10-12T18:10:04Z</time>
      </trkpt>
      <trkpt lat="39.548211" lon="-6.326828">
        <ele>329.411</ele>
        <time>2021-10-12T18:10:05Z</time>
      </trkpt>
      <trkpt lat="39.548095" lon="-6.326352">
        <ele>332.308</ele>
        <time>2021-10-12T18:10:07Z</time>
      </trkpt>
      <trkpt lat="39.548041" lon="-6.326118">
        <ele>333.982</ele>
        <time>2021-10-12T18:10:08Z</time>
      </trkpt>
      <trkpt lat="39.547942" lon="-6.325669">
        <ele>334.210</ele>
        <time>2021-10-12T18:10:10Z</time>
      </trkpt>
      <trkpt lat="39.547908" lon="-6.325232">
        <ele>335.076</ele>
        <time>2021-10-12T18:10:12Z</time>
      </trkpt>
      <trkpt lat="39.547909" lon="-6.325033">
        <ele>335.429</ele>
        <time>2021-10-12T18:10:13Z</time>
      </trkpt>
      <trkpt lat="39.547911" lon="-6.324847">
        <ele>336.885</ele>
        <time>2021-10-12T18:10:14Z</time>
      </trkpt>
      <trkpt lat="39.547902" lon="-6.324481">
        <ele>339.654</ele>
        <time>2021-10-12T18:10:16Z</time>
      </trkpt>
      <trkpt lat="39.547889" lon="-6.324297">
        <ele>341.054</ele>
        <time>2021-10-12T18:10:17Z</time>
      </trkpt>
      <trkpt lat="39.547854" lon="-6.323930">
        <ele>343.155</ele>
        <time>2021-10-12T18:10:19Z</time>
      </trkpt>
      <trkpt lat="39.547833" lon="-6.323741">
        <ele>343.692</ele>
        <time>2021-10-12T18:10:20Z</time>
      </trkpt>
      <trkpt lat="39.547772" lon="-6.323397">
        <ele>344.073</ele>
        <time>2021-10-12T18:10:22Z</time>
      </trkpt>
      <trkpt lat="39.547699" lon="-6.323105">
        <ele>343.720</ele>
        <time>2021-10-12T18:10:24Z</time>
      </trkpt>
      <trkpt lat="39.547611" lon="-6.322812">
        <ele>344.308</ele>
        <time>2021-10-12T18:10:26Z</time>
      </trkpt>
      <trkpt lat="39.547525" lon="-6.322537">
        <ele>345.027</ele>
        <time>2021-10-12T18:10:28Z</time>
      </trkpt>
      <trkpt lat="39.547483" lon="-6.322390">
        <ele>345.355</ele>
        <time>2021-10-12T18:10:29Z</time>
      </trkpt>
      <trkpt lat="39.547441" lon="-6.322233">
        <ele>345.761</ele>
        <time>2021-10-12T18:10:30Z</time>
      </trkpt>
      <trkpt lat="39.547400" lon="-6.322066">
        <ele>345.884</ele>
        <time>2021-10-12T18:10:31Z</time>
      </trkpt>
      <trkpt lat="39.547356" lon="-6.321882">
        <ele>346.260</ele>
        <time>2021-10-12T18:10:32Z</time>
      </trkpt>
      <trkpt lat="39.547259" lon="-6.321521">
        <ele>347.519</ele>
        <time>2021-10-12T18:10:34Z</time>
      </trkpt>
      <trkpt lat="39.547206" lon="-6.321329">
        <ele>348.389</ele>
        <time>2021-10-12T18:10:35Z</time>
      </trkpt>
      <trkpt lat="39.547150" lon="-6.321140">
        <ele>349.250</ele>
        <time>2021-10-12T18:10:36Z</time>
      </trkpt>
      <trkpt lat="39.547041" lon="-6.320774">
        <ele>351.844</ele>
        <time>2021-10-12T18:10:38Z</time>
      </trkpt>
      <trkpt lat="39.546952" lon="-6.320465">
        <ele>352.305</ele>
        <time>2021-10-12T18:10:40Z</time>
      </trkpt>
      <trkpt lat="39.546912" lon="-6.320322">
        <ele>352.915</ele>
        <time>2021-10-12T18:10:41Z</time>
      </trkpt>
      <trkpt lat="39.546876" lon="-6.320196">
        <ele>353.208</ele>
        <time>2021-10-12T18:10:42Z</time>
      </trkpt>
      <trkpt lat="39.546816" lon="-6.319978">
        <ele>353.672</ele>
        <time>2021-10-12T18:10:44Z</time>
      </trkpt>
      <trkpt lat="39.546769" lon="-6.319819">
        <ele>354.090</ele>
        <time>2021-10-12T18:10:46Z</time>
      </trkpt>
      <trkpt lat="39.546748" lon="-6.319758">
        <ele>354.296</ele>
        <time>2021-10-12T18:10:47Z</time>
      </trkpt>
      <trkpt lat="39.546711" lon="-6.319676">
        <ele>354.329</ele>
        <time>2021-10-12T18:10:49Z</time>
      </trkpt>
      <trkpt lat="39.546684" lon="-6.319613">
        <ele>354.475</ele>
        <time>2021-10-12T18:10:51Z</time>
      </trkpt>
      <trkpt lat="39.546660" lon="-6.319559">
        <ele>354.624</ele>
        <time>2021-10-12T18:10:53Z</time>
      </trkpt>
      <trkpt lat="39.546655" lon="-6.319456">
        <ele>355.044</ele>
        <time>2021-10-12T18:10:55Z</time>
      </trkpt>
      <trkpt lat="39.546688" lon="-6.319387">
        <ele>355.275</ele>
        <time>2021-10-12T18:10:56Z</time>
      </trkpt>
      <trkpt lat="39.546855" lon="-6.319228">
        <ele>355.376</ele>
        <time>2021-10-12T18:10:58Z</time>
      </trkpt>
      <trkpt lat="39.546971" lon="-6.319152">
        <ele>355.090</ele>
        <time>2021-10-12T18:10:59Z</time>
      </trkpt>
      <trkpt lat="39.547272" lon="-6.318965">
        <ele>355.119</ele>
        <time>2021-10-12T18:11:01Z</time>
      </trkpt>
      <trkpt lat="39.547450" lon="-6.318842">
        <ele>356.008</ele>
        <time>2021-10-12T18:11:02Z</time>
      </trkpt>
      <trkpt lat="39.547797" lon="-6.318594">
        <ele>357.145</ele>
        <time>2021-10-12T18:11:04Z</time>
      </trkpt>
      <trkpt lat="39.548193" lon="-6.318321">
        <ele>359.083</ele>
        <time>2021-10-12T18:11:06Z</time>
      </trkpt>
      <trkpt lat="39.548409" lon="-6.318178">
        <ele>359.529</ele>
        <time>2021-10-12T18:11:07Z</time>
      </trkpt>
      <trkpt lat="39.548629" lon="-6.318031">
        <ele>360.032</ele>
        <time>2021-10-12T18:11:08Z</time>
      </trkpt>
      <trkpt lat="39.549097" lon="-6.317724">
        <ele>362.568</ele>
        <time>2021-10-12T18:11:10Z</time>
      </trkpt>
      <trkpt lat="39.549581" lon="-6.317395">
        <ele>363.187</ele>
        <time>2021-10-12T18:11:12Z</time>
      </trkpt>
      <trkpt lat="39.549824" lon="-6.317228">
        <ele>363.737</ele>
        <time>2021-10-12T18:11:13Z</time>
      </trkpt>
      <trkpt lat="39.550061" lon="-6.317064">
        <ele>365.858</ele>
        <time>2021-10-12T18:11:14Z</time>
      </trkpt>
      <trkpt lat="39.550529" lon="-6.316740">
        <ele>366.886</ele>
        <time>2021-10-12T18:11:16Z</time>
      </trkpt>
      <trkpt lat="39.551013" lon="-6.316407">
        <ele>366.960</ele>
        <time>2021-10-12T18:11:18Z</time>
      </trkpt>
      <trkpt lat="39.551269" lon="-6.316231">
        <ele>365.026</ele>
        <time>2021-10-12T18:11:19Z</time>
      </trkpt>
      <trkpt lat="39.551537" lon="-6.316046">
        <ele>361.608</ele>
        <time>2021-10-12T18:11:20Z</time>
      </trkpt>
      <trkpt lat="39.552059" lon="-6.315674">
        <ele>359.666</ele>
        <time>2021-10-12T18:11:22Z</time>
      </trkpt>
      <trkpt lat="39.552321" lon="-6.315484">
        <ele>360.674</ele>
        <time>2021-10-12T18:11:23Z</time>
      </trkpt>
      <trkpt lat="39.552845" lon="-6.315116">
        <ele>360.870</ele>
        <time>2021-10-12T18:11:25Z</time>
      </trkpt>
      <trkpt lat="39.553127" lon="-6.314931">
        <ele>360.033</ele>
        <time>2021-10-12T18:11:26Z</time>
      </trkpt>
      <trkpt lat="39.553657" lon="-6.314594">
        <ele>357.999</ele>
        <time>2021-10-12T18:11:28Z</time>
      </trkpt>
      <trkpt lat="39.553937" lon="-6.314428">
        <ele>355.898</ele>
        <time>2021-10-12T18:11:29Z</time>
      </trkpt>
      <trkpt lat="39.554501" lon="-6.314141">
        <ele>351.598</ele>
        <time>2021-10-12T18:11:31Z</time>
      </trkpt>
      <trkpt lat="39.554802" lon="-6.314002">
        <ele>350.049</ele>
        <time>2021-10-12T18:11:32Z</time>
      </trkpt>
      <trkpt lat="39.555363" lon="-6.313755">
        <ele>350.195</ele>
        <time>2021-10-12T18:11:34Z</time>
      </trkpt>
      <trkpt lat="39.555658" lon="-6.313629">
        <ele>349.749</ele>
        <time>2021-10-12T18:11:35Z</time>
      </trkpt>
      <trkpt lat="39.556224" lon="-6.313377">
        <ele>348.923</ele>
        <time>2021-10-12T18:11:37Z</time>
      </trkpt>
      <trkpt lat="39.556510" lon="-6.313246">
        <ele>349.608</ele>
        <time>2021-10-12T18:11:38Z</time>
      </trkpt>
      <trkpt lat="39.557067" lon="-6.313001">
        <ele>350.237</ele>
        <time>2021-10-12T18:11:40Z</time>
      </trkpt>
      <trkpt lat="39.557618" lon="-6.312758">
        <ele>348.635</ele>
        <time>2021-10-12T18:11:42Z</time>
      </trkpt>
      <trkpt lat="39.558168" lon="-6.312523">
        <ele>348.031</ele>
        <time>2021-10-12T18:11:44Z</time>
      </trkpt>
      <trkpt lat="39.558693" lon="-6.312289">
        <ele>344.594</ele>
        <time>2021-10-12T18:11:46Z</time>
      </trkpt>
      <trkpt lat="39.558958" lon="-6.312162">
        <ele>341.890</ele>
        <time>2021-10-12T18:11:47Z</time>
      </trkpt>
      <trkpt lat="39.559218" lon="-6.312033">
        <ele>341.969</ele>
        <time>2021-10-12T18:11:48Z</time>
      </trkpt>
      <trkpt lat="39.559481" lon="-6.311910">
        <ele>342.189</ele>
        <time>2021-10-12T18:11:49Z</time>
      </trkpt>
      <trkpt lat="39.559745" lon="-6.311787">
        <ele>341.160</ele>
        <time>2021-10-12T18:11:50Z</time>
      </trkpt>
      <trkpt lat="39.560269" lon="-6.311554">
        <ele>339.531</ele>
        <time>2021-10-12T18:11:52Z</time>
      </trkpt>
      <trkpt lat="39.560532" lon="-6.311430">
        <ele>338.061</ele>
        <time>2021-10-12T18:11:53Z</time>
      </trkpt>
      <trkpt lat="39.561060" lon="-6.311179">
        <ele>338.007</ele>
        <time>2021-10-12T18:11:55Z</time>
      </trkpt>
      <trkpt lat="39.561339" lon="-6.311045">
        <ele>336.608</ele>
        <time>2021-10-12T18:11:56Z</time>
      </trkpt>
      <trkpt lat="39.561867" lon="-6.310805">
        <ele>336.181</ele>
        <time>2021-10-12T18:11:58Z</time>
      </trkpt>
      <trkpt lat="39.562409" lon="-6.310559">
        <ele>336.379</ele>
        <time>2021-10-12T18:12:00Z</time>
      </trkpt>
      <trkpt lat="39.562964" lon="-6.310307">
        <ele>334.725</ele>
        <time>2021-10-12T18:12:02Z</time>
      </trkpt>
      <trkpt lat="39.563496" lon="-6.310067">
        <ele>328.738</ele>
        <time>2021-10-12T18:12:04Z</time>
      </trkpt>
      <trkpt lat="39.563783" lon="-6.309938">
        <ele>326.334</ele>
        <time>2021-10-12T18:12:05Z</time>
      </trkpt>
      <trkpt lat="39.564066" lon="-6.309817">
        <ele>326.643</ele>
        <time>2021-10-12T18:12:06Z</time>
      </trkpt>
      <trkpt lat="39.564637" lon="-6.309561">
        <ele>329.633</ele>
        <time>2021-10-12T18:12:08Z</time>
      </trkpt>
      <trkpt lat="39.565201" lon="-6.309301">
        <ele>330.584</ele>
        <time>2021-10-12T18:12:10Z</time>
      </trkpt>
      <trkpt lat="39.565760" lon="-6.309046">
        <ele>330.071</ele>
        <time>2021-10-12T18:12:12Z</time>
      </trkpt>
      <trkpt lat="39.566308" lon="-6.308801">
        <ele>330.141</ele>
        <time>2021-10-12T18:12:14Z</time>
      </trkpt>
      <trkpt lat="39.566846" lon="-6.308569">
        <ele>328.415</ele>
        <time>2021-10-12T18:12:16Z</time>
      </trkpt>
      <trkpt lat="39.567377" lon="-6.308331">
        <ele>328.608</ele>
        <time>2021-10-12T18:12:18Z</time>
      </trkpt>
      <trkpt lat="39.567642" lon="-6.308213">
        <ele>330.095</ele>
        <time>2021-10-12T18:12:19Z</time>
      </trkpt>
      <trkpt lat="39.567905" lon="-6.308096">
        <ele>331.813</ele>
        <time>2021-10-12T18:12:20Z</time>
      </trkpt>
      <trkpt lat="39.568424" lon="-6.307879">
        <ele>334.839</ele>
        <time>2021-10-12T18:12:22Z</time>
      </trkpt>
      <trkpt lat="39.568943" lon="-6.307668">
        <ele>336.132</ele>
        <time>2021-10-12T18:12:24Z</time>
      </trkpt>
      <trkpt lat="39.569452" lon="-6.307418">
        <ele>337.338</ele>
        <time>2021-10-12T18:12:26Z</time>
      </trkpt>
      <trkpt lat="39.569935" lon="-6.307189">
        <ele>338.557</ele>
        <time>2021-10-12T18:12:28Z</time>
      </trkpt>
      <trkpt lat="39.570438" lon="-6.306966">
        <ele>338.047</ele>
        <time>2021-10-12T18:12:30Z</time>
      </trkpt>
      <trkpt lat="39.570691" lon="-6.306856">
        <ele>337.758</ele>
        <time>2021-10-12T18:12:31Z</time>
      </trkpt>
      <trkpt lat="39.570957" lon="-6.306748">
        <ele>336.132</ele>
        <time>2021-10-12T18:12:32Z</time>
      </trkpt>
      <trkpt lat="39.571472" lon="-6.306548">
        <ele>333.692</ele>
        <time>2021-10-12T18:12:34Z</time>
      </trkpt>
      <trkpt lat="39.572018" lon="-6.306366">
        <ele>331.711</ele>
        <time>2021-10-12T18:12:36Z</time>
      </trkpt>
      <trkpt lat="39.572297" lon="-6.306283">
        <ele>331.008</ele>
        <time>2021-10-12T18:12:37Z</time>
      </trkpt>
      <trkpt lat="39.572584" lon="-6.306203">
        <ele>331.441</ele>
        <time>2021-10-12T18:12:38Z</time>
      </trkpt>
      <trkpt lat="39.573153" lon="-6.306063">
        <ele>332.889</ele>
        <time>2021-10-12T18:12:40Z</time>
      </trkpt>
      <trkpt lat="39.573742" lon="-6.305947">
        <ele>331.275</ele>
        <time>2021-10-12T18:12:42Z</time>
      </trkpt>
      <trkpt lat="39.574348" lon="-6.305854">
        <ele>328.438</ele>
        <time>2021-10-12T18:12:44Z</time>
      </trkpt>
      <trkpt lat="39.574956" lon="-6.305771">
        <ele>324.744</ele>
        <time>2021-10-12T18:12:46Z</time>
      </trkpt>
      <trkpt lat="39.575259" lon="-6.305726">
        <ele>326.323</ele>
        <time>2021-10-12T18:12:47Z</time>
      </trkpt>
      <trkpt lat="39.575852" lon="-6.305642">
        <ele>330.133</ele>
        <time>2021-10-12T18:12:49Z</time>
      </trkpt>
      <trkpt lat="39.576144" lon="-6.305598">
        <ele>331.184</ele>
        <time>2021-10-12T18:12:50Z</time>
      </trkpt>
      <trkpt lat="39.576707" lon="-6.305513">
        <ele>332.594</ele>
        <time>2021-10-12T18:12:52Z</time>
      </trkpt>
      <trkpt lat="39.577243" lon="-6.305440">
        <ele>336.157</ele>
        <time>2021-10-12T18:12:54Z</time>
      </trkpt>
      <trkpt lat="39.577500" lon="-6.305404">
        <ele>340.122</ele>
        <time>2021-10-12T18:12:55Z</time>
      </trkpt>
      <trkpt lat="39.577759" lon="-6.305367">
        <ele>341.608</ele>
        <time>2021-10-12T18:12:56Z</time>
      </trkpt>
      <trkpt lat="39.578240" lon="-6.305289">
        <ele>342.617</ele>
        <time>2021-10-12T18:12:58Z</time>
      </trkpt>
      <trkpt lat="39.578722" lon="-6.305215">
        <ele>343.825</ele>
        <time>2021-10-12T18:13:00Z</time>
      </trkpt>
      <trkpt lat="39.579232" lon="-6.305155">
        <ele>342.081</ele>
        <time>2021-10-12T18:13:02Z</time>
      </trkpt>
      <trkpt lat="39.579730" lon="-6.305127">
        <ele>341.984</ele>
        <time>2021-10-12T18:13:04Z</time>
      </trkpt>
      <trkpt lat="39.579991" lon="-6.305124">
        <ele>340.180</ele>
        <time>2021-10-12T18:13:05Z</time>
      </trkpt>
      <trkpt lat="39.580257" lon="-6.305134">
        <ele>337.259</ele>
        <time>2021-10-12T18:13:06Z</time>
      </trkpt>
      <trkpt lat="39.580792" lon="-6.305193">
        <ele>334.369</ele>
        <time>2021-10-12T18:13:08Z</time>
      </trkpt>
      <trkpt lat="39.581332" lon="-6.305305">
        <ele>333.940</ele>
        <time>2021-10-12T18:13:10Z</time>
      </trkpt>
      <trkpt lat="39.581857" lon="-6.305468">
        <ele>330.691</ele>
        <time>2021-10-12T18:13:12Z</time>
      </trkpt>
      <trkpt lat="39.582103" lon="-6.305564">
        <ele>330.581</ele>
        <time>2021-10-12T18:13:13Z</time>
      </trkpt>
      <trkpt lat="39.582345" lon="-6.305664">
        <ele>329.919</ele>
        <time>2021-10-12T18:13:14Z</time>
      </trkpt>
      <trkpt lat="39.582809" lon="-6.305874">
        <ele>327.408</ele>
        <time>2021-10-12T18:13:16Z</time>
      </trkpt>
      <trkpt lat="39.583038" lon="-6.305980">
        <ele>324.687</ele>
        <time>2021-10-12T18:13:17Z</time>
      </trkpt>
      <trkpt lat="39.583508" lon="-6.306169">
        <ele>322.955</ele>
        <time>2021-10-12T18:13:19Z</time>
      </trkpt>
      <trkpt lat="39.583757" lon="-6.306243">
        <ele>322.021</ele>
        <time>2021-10-12T18:13:20Z</time>
      </trkpt>
      <trkpt lat="39.584259" lon="-6.306341">
        <ele>319.754</ele>
        <time>2021-10-12T18:13:22Z</time>
      </trkpt>
      <trkpt lat="39.584524" lon="-6.306376">
        <ele>318.730</ele>
        <time>2021-10-12T18:13:23Z</time>
      </trkpt>
      <trkpt lat="39.585060" lon="-6.306433">
        <ele>316.459</ele>
        <time>2021-10-12T18:13:25Z</time>
      </trkpt>
      <trkpt lat="39.585329" lon="-6.306460">
        <ele>314.139</ele>
        <time>2021-10-12T18:13:26Z</time>
      </trkpt>
      <trkpt lat="39.585789" lon="-6.306498">
        <ele>310.550</ele>
        <time>2021-10-12T18:13:28Z</time>
      </trkpt>
      <trkpt lat="39.586241" lon="-6.306522">
        <ele>304.773</ele>
        <time>2021-10-12T18:13:30Z</time>
      </trkpt>
      <trkpt lat="39.586478" lon="-6.306502">
        <ele>302.185</ele>
        <time>2021-10-12T18:13:31Z</time>
      </trkpt>
      <trkpt lat="39.586728" lon="-6.306443">
        <ele>301.413</ele>
        <time>2021-10-12T18:13:32Z</time>
      </trkpt>
      <trkpt lat="39.587144" lon="-6.306211">
        <ele>302.208</ele>
        <time>2021-10-12T18:13:34Z</time>
      </trkpt>
      <trkpt lat="39.587513" lon="-6.305875">
        <ele>298.095</ele>
        <time>2021-10-12T18:13:36Z</time>
      </trkpt>
      <trkpt lat="39.587847" lon="-6.305450">
        <ele>296.243</ele>
        <time>2021-10-12T18:13:38Z</time>
      </trkpt>
      <trkpt lat="39.588124" lon="-6.304933">
        <ele>292.649</ele>
        <time>2021-10-12T18:13:40Z</time>
      </trkpt>
      <trkpt lat="39.588328" lon="-6.304383">
        <ele>289.712</ele>
        <time>2021-10-12T18:13:42Z</time>
      </trkpt>
      <trkpt lat="39.588414" lon="-6.304121">
        <ele>288.858</ele>
        <time>2021-10-12T18:13:43Z</time>
      </trkpt>
      <trkpt lat="39.588487" lon="-6.303869">
        <ele>289.627</ele>
        <time>2021-10-12T18:13:44Z</time>
      </trkpt>
      <trkpt lat="39.588534" lon="-6.303380">
        <ele>289.687</ele>
        <time>2021-10-12T18:13:46Z</time>
      </trkpt>
      <trkpt lat="39.588403" lon="-6.302906">
        <ele>287.128</ele>
        <time>2021-10-12T18:13:48Z</time>
      </trkpt>
      <trkpt lat="39.588284" lon="-6.302688">
        <ele>286.011</ele>
        <time>2021-10-12T18:13:49Z</time>
      </trkpt>
      <trkpt lat="39.588160" lon="-6.302478">
        <ele>285.021</ele>
        <time>2021-10-12T18:13:50Z</time>
      </trkpt>
      <trkpt lat="39.587986" lon="-6.302039">
        <ele>278.403</ele>
        <time>2021-10-12T18:13:52Z</time>
      </trkpt>
      <trkpt lat="39.587951" lon="-6.301793">
        <ele>276.608</ele>
        <time>2021-10-12T18:13:53Z</time>
      </trkpt>
      <trkpt lat="39.587975" lon="-6.301295">
        <ele>274.049</ele>
        <time>2021-10-12T18:13:55Z</time>
      </trkpt>
      <trkpt lat="39.587987" lon="-6.301051">
        <ele>272.517</ele>
        <time>2021-10-12T18:13:56Z</time>
      </trkpt>
      <trkpt lat="39.587900" lon="-6.300658">
        <ele>271.773</ele>
        <time>2021-10-12T18:13:58Z</time>
      </trkpt>
      <trkpt lat="39.587668" lon="-6.300375">
        <ele>271.036</ele>
        <time>2021-10-12T18:14:00Z</time>
      </trkpt>
      <trkpt lat="39.587511" lon="-6.300275">
        <ele>268.932</ele>
        <time>2021-10-12T18:14:01Z</time>
      </trkpt>
      <trkpt lat="39.587342" lon="-6.300191">
        <ele>268.631</ele>
        <time>2021-10-12T18:14:02Z</time>
      </trkpt>
      <trkpt lat="39.587040" lon="-6.300053">
        <ele>268.821</ele>
        <time>2021-10-12T18:14:04Z</time>
      </trkpt>
      <trkpt lat="39.586923" lon="-6.299957">
        <ele>268.962</ele>
        <time>2021-10-12T18:14:05Z</time>
      </trkpt>
      <trkpt lat="39.586779" lon="-6.299679">
        <ele>269.148</ele>
        <time>2021-10-12T18:14:07Z</time>
      </trkpt>
      <trkpt lat="39.586756" lon="-6.299511">
        <ele>268.861</ele>
        <time>2021-10-12T18:14:08Z</time>
      </trkpt>
      <trkpt lat="39.586821" lon="-6.299167">
        <ele>265.717</ele>
        <time>2021-10-12T18:14:10Z</time>
      </trkpt>
      <trkpt lat="39.587053" lon="-6.298860">
        <ele>263.608</ele>
        <time>2021-10-12T18:14:12Z</time>
      </trkpt>
      <trkpt lat="39.587375" lon="-6.298734">
        <ele>261.382</ele>
        <time>2021-10-12T18:14:14Z</time>
      </trkpt>
      <trkpt lat="39.587687" lon="-6.298868">
        <ele>259.050</ele>
        <time>2021-10-12T18:14:16Z</time>
      </trkpt>
      <trkpt lat="39.587822" lon="-6.299014">
        <ele>258.216</ele>
        <time>2021-10-12T18:14:17Z</time>
      </trkpt>
      <trkpt lat="39.587937" lon="-6.299206">
        <ele>257.389</ele>
        <time>2021-10-12T18:14:18Z</time>
      </trkpt>
      <trkpt lat="39.588037" lon="-6.299426">
        <ele>255.355</ele>
        <time>2021-10-12T18:14:19Z</time>
      </trkpt>
      <trkpt lat="39.588124" lon="-6.299669">
        <ele>253.684</ele>
        <time>2021-10-12T18:14:20Z</time>
      </trkpt>
      <trkpt lat="39.588276" lon="-6.300176">
        <ele>254.384</ele>
        <time>2021-10-12T18:14:22Z</time>
      </trkpt>
      <trkpt lat="39.588437" lon="-6.300673">
        <ele>255.035</ele>
        <time>2021-10-12T18:14:24Z</time>
      </trkpt>
      <trkpt lat="39.588653" lon="-6.301138">
        <ele>249.881</ele>
        <time>2021-10-12T18:14:26Z</time>
      </trkpt>
      <trkpt lat="39.588941" lon="-6.301527">
        <ele>244.861</ele>
        <time>2021-10-12T18:14:28Z</time>
      </trkpt>
      <trkpt lat="39.589281" lon="-6.301819">
        <ele>242.717</ele>
        <time>2021-10-12T18:14:30Z</time>
      </trkpt>
      <trkpt lat="39.589458" lon="-6.301922">
        <ele>241.408</ele>
        <time>2021-10-12T18:14:31Z</time>
      </trkpt>
      <trkpt lat="39.589639" lon="-6.302007">
        <ele>241.276</ele>
        <time>2021-10-12T18:14:32Z</time>
      </trkpt>
      <trkpt lat="39.589915" lon="-6.302145">
        <ele>238.134</ele>
        <time>2021-10-12T18:14:34Z</time>
      </trkpt>
      <trkpt lat="39.590088" lon="-6.302347">
        <ele>235.280</ele>
        <time>2021-10-12T18:14:36Z</time>
      </trkpt>
      <trkpt lat="39.590132" lon="-6.302498">
        <ele>234.493</ele>
        <time>2021-10-12T18:14:37Z</time>
      </trkpt>
      <trkpt lat="39.590149" lon="-6.302681">
        <ele>233.719</ele>
        <time>2021-10-12T18:14:38Z</time>
      </trkpt>
      <trkpt lat="39.590163" lon="-6.303068">
        <ele>235.178</ele>
        <time>2021-10-12T18:14:40Z</time>
      </trkpt>
      <trkpt lat="39.590182" lon="-6.303263">
        <ele>234.418</ele>
        <time>2021-10-12T18:14:41Z</time>
      </trkpt>
      <trkpt lat="39.590191" lon="-6.303634">
        <ele>231.099</ele>
        <time>2021-10-12T18:14:43Z</time>
      </trkpt>
      <trkpt lat="39.590164" lon="-6.303801">
        <ele>231.815</ele>
        <time>2021-10-12T18:14:44Z</time>
      </trkpt>
      <trkpt lat="39.590072" lon="-6.304066">
        <ele>233.465</ele>
        <time>2021-10-12T18:14:46Z</time>
      </trkpt>
      <trkpt lat="39.590020" lon="-6.304187">
        <ele>233.911</ele>
        <time>2021-10-12T18:14:47Z</time>
      </trkpt>
      <trkpt lat="39.589970" lon="-6.304307">
        <ele>233.808</ele>
        <time>2021-10-12T18:14:48Z</time>
      </trkpt>
      <trkpt lat="39.589903" lon="-6.304558">
        <ele>230.749</ele>
        <time>2021-10-12T18:14:50Z</time>
      </trkpt>
      <trkpt lat="39.589930" lon="-6.304823">
        <ele>222.437</ele>
        <time>2021-10-12T18:14:52Z</time>
      </trkpt>
      <trkpt lat="39.589979" lon="-6.304950">
        <ele>218.443</ele>
        <time>2021-10-12T18:14:53Z</time>
      </trkpt>
      <trkpt lat="39.590098" lon="-6.305206">
        <ele>212.526</ele>
        <time>2021-10-12T18:14:55Z</time>
      </trkpt>
      <trkpt lat="39.590155" lon="-6.305340">
        <ele>210.492</ele>
        <time>2021-10-12T18:14:56Z</time>
      </trkpt>
      <trkpt lat="39.590259" lon="-6.305582">
        <ele>208.441</ele>
        <time>2021-10-12T18:14:58Z</time>
      </trkpt>
      <trkpt lat="39.590310" lon="-6.305705">
        <ele>208.761</ele>
        <time>2021-10-12T18:14:59Z</time>
      </trkpt>
      <trkpt lat="39.590357" lon="-6.305821">
        <ele>209.632</ele>
        <time>2021-10-12T18:15:00Z</time>
      </trkpt>
      <trkpt lat="39.590450" lon="-6.306051">
        <ele>213.245</ele>
        <time>2021-10-12T18:15:02Z</time>
      </trkpt>
      <trkpt lat="39.590539" lon="-6.306278">
        <ele>217.747</ele>
        <time>2021-10-12T18:15:04Z</time>
      </trkpt>
      <trkpt lat="39.590664" lon="-6.306501">
        <ele>221.911</ele>
        <time>2021-10-12T18:15:06Z</time>
      </trkpt>
      <trkpt lat="39.590871" lon="-6.306693">
        <ele>225.708</ele>
        <time>2021-10-12T18:15:08Z</time>
      </trkpt>
      <trkpt lat="39.591151" lon="-6.306854">
        <ele>230.622</ele>
        <time>2021-10-12T18:15:10Z</time>
      </trkpt>
      <trkpt lat="39.591308" lon="-6.306940">
        <ele>232.620</ele>
        <time>2021-10-12T18:15:11Z</time>
      </trkpt>
      <trkpt lat="39.591635" lon="-6.307144">
        <ele>235.366</ele>
        <time>2021-10-12T18:15:13Z</time>
      </trkpt>
      <trkpt lat="39.591824" lon="-6.307260">
        <ele>237.499</ele>
        <time>2021-10-12T18:15:14Z</time>
      </trkpt>
      <trkpt lat="39.592225" lon="-6.307426">
        <ele>240.145</ele>
        <time>2021-10-12T18:15:16Z</time>
      </trkpt>
      <trkpt lat="39.592676" lon="-6.307436">
        <ele>243.324</ele>
        <time>2021-10-12T18:15:18Z</time>
      </trkpt>
      <trkpt lat="39.592902" lon="-6.307366">
        <ele>247.034</ele>
        <time>2021-10-12T18:15:19Z</time>
      </trkpt>
      <trkpt lat="39.593119" lon="-6.307223">
        <ele>251.155</ele>
        <time>2021-10-12T18:15:20Z</time>
      </trkpt>
      <trkpt lat="39.593491" lon="-6.306789">
        <ele>254.763</ele>
        <time>2021-10-12T18:15:22Z</time>
      </trkpt>
      <trkpt lat="39.593629" lon="-6.306505">
        <ele>253.744</ele>
        <time>2021-10-12T18:15:23Z</time>
      </trkpt>
      <trkpt lat="39.593793" lon="-6.305929">
        <ele>257.218</ele>
        <time>2021-10-12T18:15:25Z</time>
      </trkpt>
      <trkpt lat="39.593861" lon="-6.305673">
        <ele>260.008</ele>
        <time>2021-10-12T18:15:26Z</time>
      </trkpt>
      <trkpt lat="39.594072" lon="-6.305327">
        <ele>265.894</ele>
        <time>2021-10-12T18:15:28Z</time>
      </trkpt>
      <trkpt lat="39.594225" lon="-6.305227">
        <ele>267.032</ele>
        <time>2021-10-12T18:15:29Z</time>
      </trkpt>
      <trkpt lat="39.594398" lon="-6.305186">
        <ele>266.718</ele>
        <time>2021-10-12T18:15:30Z</time>
      </trkpt>
      <trkpt lat="39.594743" lon="-6.305291">
        <ele>264.341</ele>
        <time>2021-10-12T18:15:32Z</time>
      </trkpt>
      <trkpt lat="39.595003" lon="-6.305626">
        <ele>269.527</ele>
        <time>2021-10-12T18:15:34Z</time>
      </trkpt>
      <trkpt lat="39.595092" lon="-6.305864">
        <ele>273.316</ele>
        <time>2021-10-12T18:15:35Z</time>
      </trkpt>
      <trkpt lat="39.595144" lon="-6.306124">
        <ele>278.176</ele>
        <time>2021-10-12T18:15:36Z</time>
      </trkpt>
      <trkpt lat="39.595241" lon="-6.306618">
        <ele>282.627</ele>
        <time>2021-10-12T18:15:38Z</time>
      </trkpt>
      <trkpt lat="39.595469" lon="-6.306958">
        <ele>284.288</ele>
        <time>2021-10-12T18:15:40Z</time>
      </trkpt>
      <trkpt lat="39.595825" lon="-6.307068">
        <ele>282.324</ele>
        <time>2021-10-12T18:15:42Z</time>
      </trkpt>
      <trkpt lat="39.596018" lon="-6.307028">
        <ele>282.826</ele>
        <time>2021-10-12T18:15:43Z</time>
      </trkpt>
      <trkpt lat="39.596202" lon="-6.306927">
        <ele>282.708</ele>
        <time>2021-10-12T18:15:44Z</time>
      </trkpt>
      <trkpt lat="39.596460" lon="-6.306542">
        <ele>280.376</ele>
        <time>2021-10-12T18:15:46Z</time>
      </trkpt>
      <trkpt lat="39.596515" lon="-6.306023">
        <ele>280.744</ele>
        <time>2021-10-12T18:15:48Z</time>
      </trkpt>
      <trkpt lat="39.596474" lon="-6.305757">
        <ele>283.060</ele>
        <time>2021-10-12T18:15:49Z</time>
      </trkpt>
      <trkpt lat="39.596391" lon="-6.305498">
        <ele>285.123</ele>
        <time>2021-10-12T18:15:50Z</time>
      </trkpt>
      <trkpt lat="39.596175" lon="-6.305083">
        <ele>286.349</ele>
        <time>2021-10-12T18:15:52Z</time>
      </trkpt>
      <trkpt lat="39.596085" lon="-6.304884">
        <ele>285.968</ele>
        <time>2021-10-12T18:15:53Z</time>
      </trkpt>
      <trkpt lat="39.595998" lon="-6.304442">
        <ele>286.038</ele>
        <time>2021-10-12T18:15:55Z</time>
      </trkpt>
      <trkpt lat="39.596007" lon="-6.304200">
        <ele>285.259</ele>
        <time>2021-10-12T18:15:56Z</time>
      </trkpt>
      <trkpt lat="39.596124" lon="-6.303745">
        <ele>286.736</ele>
        <time>2021-10-12T18:15:58Z</time>
      </trkpt>
      <trkpt lat="39.596367" lon="-6.303353">
        <ele>293.417</ele>
        <time>2021-10-12T18:16:00Z</time>
      </trkpt>
      <trkpt lat="39.596529" lon="-6.303207">
        <ele>295.618</ele>
        <time>2021-10-12T18:16:01Z</time>
      </trkpt>
      <trkpt lat="39.596708" lon="-6.303090">
        <ele>297.908</ele>
        <time>2021-10-12T18:16:02Z</time>
      </trkpt>
      <trkpt lat="39.597077" lon="-6.302981">
        <ele>302.611</ele>
        <time>2021-10-12T18:16:04Z</time>
      </trkpt>
      <trkpt lat="39.597444" lon="-6.303023">
        <ele>307.259</ele>
        <time>2021-10-12T18:16:06Z</time>
      </trkpt>
      <trkpt lat="39.597757" lon="-6.303196">
        <ele>310.865</ele>
        <time>2021-10-12T18:16:08Z</time>
      </trkpt>
      <trkpt lat="39.598016" lon="-6.303480">
        <ele>315.138</ele>
        <time>2021-10-12T18:16:10Z</time>
      </trkpt>
      <trkpt lat="39.598252" lon="-6.303861">
        <ele>318.384</ele>
        <time>2021-10-12T18:16:12Z</time>
      </trkpt>
      <trkpt lat="39.598526" lon="-6.304229">
        <ele>321.863</ele>
        <time>2021-10-12T18:16:14Z</time>
      </trkpt>
      <trkpt lat="39.598858" lon="-6.304528">
        <ele>324.993</ele>
        <time>2021-10-12T18:16:16Z</time>
      </trkpt>
      <trkpt lat="39.599047" lon="-6.304659">
        <ele>325.164</ele>
        <time>2021-10-12T18:16:17Z</time>
      </trkpt>
      <trkpt lat="39.599452" lon="-6.304836">
        <ele>326.665</ele>
        <time>2021-10-12T18:16:19Z</time>
      </trkpt>
      <trkpt lat="39.599676" lon="-6.304891">
        <ele>326.468</ele>
        <time>2021-10-12T18:16:20Z</time>
      </trkpt>
      <trkpt lat="39.600122" lon="-6.304972">
        <ele>327.614</ele>
        <time>2021-10-12T18:16:22Z</time>
      </trkpt>
      <trkpt lat="39.600566" lon="-6.305063">
        <ele>330.408</ele>
        <time>2021-10-12T18:16:24Z</time>
      </trkpt>
      <trkpt lat="39.600773" lon="-6.305135">
        <ele>331.574</ele>
        <time>2021-10-12T18:16:25Z</time>
      </trkpt>
      <trkpt lat="39.600982" lon="-6.305245">
        <ele>331.852</ele>
        <time>2021-10-12T18:16:26Z</time>
      </trkpt>
      <trkpt lat="39.601354" lon="-6.305553">
        <ele>330.948</ele>
        <time>2021-10-12T18:16:28Z</time>
      </trkpt>
      <trkpt lat="39.601719" lon="-6.305930">
        <ele>333.351</ele>
        <time>2021-10-12T18:16:30Z</time>
      </trkpt>
      <trkpt lat="39.601910" lon="-6.306120">
        <ele>334.667</ele>
        <time>2021-10-12T18:16:31Z</time>
      </trkpt>
      <trkpt lat="39.602116" lon="-6.306319">
        <ele>336.216</ele>
        <time>2021-10-12T18:16:32Z</time>
      </trkpt>
      <trkpt lat="39.602506" lon="-6.306690">
        <ele>340.156</ele>
        <time>2021-10-12T18:16:34Z</time>
      </trkpt>
      <trkpt lat="39.602709" lon="-6.306882">
        <ele>340.447</ele>
        <time>2021-10-12T18:16:35Z</time>
      </trkpt>
      <trkpt lat="39.602913" lon="-6.307070">
        <ele>339.891</ele>
        <time>2021-10-12T18:16:36Z</time>
      </trkpt>
      <trkpt lat="39.603325" lon="-6.307460">
        <ele>340.181</ele>
        <time>2021-10-12T18:16:38Z</time>
      </trkpt>
      <trkpt lat="39.603743" lon="-6.307853">
        <ele>343.219</ele>
        <time>2021-10-12T18:16:40Z</time>
      </trkpt>
      <trkpt lat="39.603965" lon="-6.308049">
        <ele>342.008</ele>
        <time>2021-10-12T18:16:41Z</time>
      </trkpt>
      <trkpt lat="39.604194" lon="-6.308245">
        <ele>341.487</ele>
        <time>2021-10-12T18:16:42Z</time>
      </trkpt>
      <trkpt lat="39.604674" lon="-6.308609">
        <ele>340.215</ele>
        <time>2021-10-12T18:16:44Z</time>
      </trkpt>
      <trkpt lat="39.605178" lon="-6.308929">
        <ele>343.061</ele>
        <time>2021-10-12T18:16:46Z</time>
      </trkpt>
      <trkpt lat="39.605443" lon="-6.309068">
        <ele>345.294</ele>
        <time>2021-10-12T18:16:47Z</time>
      </trkpt>
      <trkpt lat="39.605715" lon="-6.309197">
        <ele>347.180</ele>
        <time>2021-10-12T18:16:48Z</time>
      </trkpt>
      <trkpt lat="39.606259" lon="-6.309446">
        <ele>351.589</ele>
        <time>2021-10-12T18:16:50Z</time>
      </trkpt>
      <trkpt lat="39.606793" lon="-6.309687">
        <ele>353.149</ele>
        <time>2021-10-12T18:16:52Z</time>
      </trkpt>
      <trkpt lat="39.607060" lon="-6.309811">
        <ele>353.280</ele>
        <time>2021-10-12T18:16:53Z</time>
      </trkpt>
      <trkpt lat="39.607589" lon="-6.310059">
        <ele>352.798</ele>
        <time>2021-10-12T18:16:55Z</time>
      </trkpt>
      <trkpt lat="39.607869" lon="-6.310187">
        <ele>352.515</ele>
        <time>2021-10-12T18:16:56Z</time>
      </trkpt>
      <trkpt lat="39.608383" lon="-6.310426">
        <ele>353.626</ele>
        <time>2021-10-12T18:16:58Z</time>
      </trkpt>
      <trkpt lat="39.608644" lon="-6.310550">
        <ele>354.108</ele>
        <time>2021-10-12T18:16:59Z</time>
      </trkpt>
      <trkpt lat="39.608901" lon="-6.310672">
        <ele>354.637</ele>
        <time>2021-10-12T18:17:00Z</time>
      </trkpt>
      <trkpt lat="39.609157" lon="-6.310787">
        <ele>355.045</ele>
        <time>2021-10-12T18:17:01Z</time>
      </trkpt>
      <trkpt lat="39.609422" lon="-6.310906">
        <ele>355.731</ele>
        <time>2021-10-12T18:17:02Z</time>
      </trkpt>
      <trkpt lat="39.609909" lon="-6.311118">
        <ele>355.654</ele>
        <time>2021-10-12T18:17:04Z</time>
      </trkpt>
      <trkpt lat="39.610381" lon="-6.311335">
        <ele>357.630</ele>
        <time>2021-10-12T18:17:06Z</time>
      </trkpt>
      <trkpt lat="39.610611" lon="-6.311438">
        <ele>357.079</ele>
        <time>2021-10-12T18:17:07Z</time>
      </trkpt>
      <trkpt lat="39.610845" lon="-6.311543">
        <ele>357.779</ele>
        <time>2021-10-12T18:17:08Z</time>
      </trkpt>
      <trkpt lat="39.611309" lon="-6.311737">
        <ele>361.430</ele>
        <time>2021-10-12T18:17:10Z</time>
      </trkpt>
      <trkpt lat="39.611783" lon="-6.311917">
        <ele>362.959</ele>
        <time>2021-10-12T18:17:12Z</time>
      </trkpt>
      <trkpt lat="39.612033" lon="-6.311990">
        <ele>364.703</ele>
        <time>2021-10-12T18:17:13Z</time>
      </trkpt>
      <trkpt lat="39.612295" lon="-6.312045">
        <ele>366.623</ele>
        <time>2021-10-12T18:17:14Z</time>
      </trkpt>
      <trkpt lat="39.612827" lon="-6.312073">
        <ele>369.708</ele>
        <time>2021-10-12T18:17:16Z</time>
      </trkpt>
      <trkpt lat="39.613391" lon="-6.312012">
        <ele>370.493</ele>
        <time>2021-10-12T18:17:18Z</time>
      </trkpt>
      <trkpt lat="39.613963" lon="-6.311846">
        <ele>369.491</ele>
        <time>2021-10-12T18:17:20Z</time>
      </trkpt>
      <trkpt lat="39.614514" lon="-6.311592">
        <ele>372.247</ele>
        <time>2021-10-12T18:17:22Z</time>
      </trkpt>
      <trkpt lat="39.615049" lon="-6.311297">
        <ele>370.210</ele>
        <time>2021-10-12T18:17:24Z</time>
      </trkpt>
      <trkpt lat="39.615576" lon="-6.311018">
        <ele>370.076</ele>
        <time>2021-10-12T18:17:26Z</time>
      </trkpt>
      <trkpt lat="39.616061" lon="-6.310794">
        <ele>368.995</ele>
        <time>2021-10-12T18:17:28Z</time>
      </trkpt>
      <trkpt lat="39.616311" lon="-6.310704">
        <ele>368.565</ele>
        <time>2021-10-12T18:17:29Z</time>
      </trkpt>
      <trkpt lat="39.616822" lon="-6.310613">
        <ele>365.436</ele>
        <time>2021-10-12T18:17:31Z</time>
      </trkpt>
      <trkpt lat="39.617095" lon="-6.310594">
        <ele>363.299</ele>
        <time>2021-10-12T18:17:32Z</time>
      </trkpt>
      <trkpt lat="39.617610" lon="-6.310569">
        <ele>359.307</ele>
        <time>2021-10-12T18:17:34Z</time>
      </trkpt>
      <trkpt lat="39.617875" lon="-6.310559">
        <ele>357.727</ele>
        <time>2021-10-12T18:17:35Z</time>
      </trkpt>
      <trkpt lat="39.618395" lon="-6.310523">
        <ele>357.908</ele>
        <time>2021-10-12T18:17:37Z</time>
      </trkpt>
      <trkpt lat="39.618655" lon="-6.310500">
        <ele>357.387</ele>
        <time>2021-10-12T18:17:38Z</time>
      </trkpt>
      <trkpt lat="39.619157" lon="-6.310466">
        <ele>356.035</ele>
        <time>2021-10-12T18:17:40Z</time>
      </trkpt>
      <trkpt lat="39.619647" lon="-6.310433">
        <ele>356.781</ele>
        <time>2021-10-12T18:17:42Z</time>
      </trkpt>
      <trkpt lat="39.620133" lon="-6.310396">
        <ele>355.454</ele>
        <time>2021-10-12T18:17:44Z</time>
      </trkpt>
      <trkpt lat="39.620601" lon="-6.310351">
        <ele>354.490</ele>
        <time>2021-10-12T18:17:46Z</time>
      </trkpt>
      <trkpt lat="39.621064" lon="-6.310323">
        <ele>356.059</ele>
        <time>2021-10-12T18:17:48Z</time>
      </trkpt>
      <trkpt lat="39.621540" lon="-6.310325">
        <ele>359.169</ele>
        <time>2021-10-12T18:17:50Z</time>
      </trkpt>
      <trkpt lat="39.622019" lon="-6.310386">
        <ele>357.680</ele>
        <time>2021-10-12T18:17:52Z</time>
      </trkpt>
      <trkpt lat="39.622503" lon="-6.310504">
        <ele>355.831</ele>
        <time>2021-10-12T18:17:54Z</time>
      </trkpt>
      <trkpt lat="39.622999" lon="-6.310674">
        <ele>354.361</ele>
        <time>2021-10-12T18:17:56Z</time>
      </trkpt>
      <trkpt lat="39.623474" lon="-6.310877">
        <ele>356.407</ele>
        <time>2021-10-12T18:17:58Z</time>
      </trkpt>
      <trkpt lat="39.623970" lon="-6.311104">
        <ele>355.708</ele>
        <time>2021-10-12T18:18:00Z</time>
      </trkpt>
      <trkpt lat="39.624486" lon="-6.311286">
        <ele>354.951</ele>
        <time>2021-10-12T18:18:02Z</time>
      </trkpt>
      <trkpt lat="39.624989" lon="-6.311400">
        <ele>359.099</ele>
        <time>2021-10-12T18:18:04Z</time>
      </trkpt>
      <trkpt lat="39.625507" lon="-6.311446">
        <ele>361.075</ele>
        <time>2021-10-12T18:18:06Z</time>
      </trkpt>
      <trkpt lat="39.625769" lon="-6.311450">
        <ele>362.818</ele>
        <time>2021-10-12T18:18:07Z</time>
      </trkpt>
      <trkpt lat="39.626037" lon="-6.311442">
        <ele>365.894</ele>
        <time>2021-10-12T18:18:08Z</time>
      </trkpt>
      <trkpt lat="39.626566" lon="-6.311381">
        <ele>368.173</ele>
        <time>2021-10-12T18:18:10Z</time>
      </trkpt>
      <trkpt lat="39.626831" lon="-6.311327">
        <ele>369.023</ele>
        <time>2021-10-12T18:18:11Z</time>
      </trkpt>
      <trkpt lat="39.627333" lon="-6.311183">
        <ele>370.794</ele>
        <time>2021-10-12T18:18:13Z</time>
      </trkpt>
      <trkpt lat="39.627571" lon="-6.311102">
        <ele>371.613</ele>
        <time>2021-10-12T18:18:14Z</time>
      </trkpt>
      <trkpt lat="39.628018" lon="-6.310953">
        <ele>375.343</ele>
        <time>2021-10-12T18:18:16Z</time>
      </trkpt>
      <trkpt lat="39.628237" lon="-6.310884">
        <ele>377.107</ele>
        <time>2021-10-12T18:18:17Z</time>
      </trkpt>
      <trkpt lat="39.628668" lon="-6.310771">
        <ele>378.208</ele>
        <time>2021-10-12T18:18:19Z</time>
      </trkpt>
      <trkpt lat="39.628894" lon="-6.310726">
        <ele>378.419</ele>
        <time>2021-10-12T18:18:20Z</time>
      </trkpt>
      <trkpt lat="39.629350" lon="-6.310681">
        <ele>379.497</ele>
        <time>2021-10-12T18:18:22Z</time>
      </trkpt>
      <trkpt lat="39.629821" lon="-6.310676">
        <ele>380.653</ele>
        <time>2021-10-12T18:18:24Z</time>
      </trkpt>
      <trkpt lat="39.630066" lon="-6.310674">
        <ele>380.566</ele>
        <time>2021-10-12T18:18:25Z</time>
      </trkpt>
      <trkpt lat="39.630323" lon="-6.310677">
        <ele>380.222</ele>
        <time>2021-10-12T18:18:26Z</time>
      </trkpt>
      <trkpt lat="39.630824" lon="-6.310682">
        <ele>381.591</ele>
        <time>2021-10-12T18:18:28Z</time>
      </trkpt>
      <trkpt lat="39.631088" lon="-6.310683">
        <ele>382.581</ele>
        <time>2021-10-12T18:18:29Z</time>
      </trkpt>
      <trkpt lat="39.631631" lon="-6.310687">
        <ele>384.372</ele>
        <time>2021-10-12T18:18:31Z</time>
      </trkpt>
      <trkpt lat="39.631914" lon="-6.310684">
        <ele>385.488</ele>
        <time>2021-10-12T18:18:32Z</time>
      </trkpt>
      <trkpt lat="39.632457" lon="-6.310669">
        <ele>384.624</ele>
        <time>2021-10-12T18:18:34Z</time>
      </trkpt>
      <trkpt lat="39.632749" lon="-6.310654">
        <ele>386.126</ele>
        <time>2021-10-12T18:18:35Z</time>
      </trkpt>
      <trkpt lat="39.633336" lon="-6.310587">
        <ele>385.908</ele>
        <time>2021-10-12T18:18:37Z</time>
      </trkpt>
      <trkpt lat="39.633640" lon="-6.310532">
        <ele>388.296</ele>
        <time>2021-10-12T18:18:38Z</time>
      </trkpt>
      <trkpt lat="39.634237" lon="-6.310384">
        <ele>390.524</ele>
        <time>2021-10-12T18:18:40Z</time>
      </trkpt>
      <trkpt lat="39.634824" lon="-6.310192">
        <ele>389.340</ele>
        <time>2021-10-12T18:18:42Z</time>
      </trkpt>
      <trkpt lat="39.635107" lon="-6.310080">
        <ele>387.573</ele>
        <time>2021-10-12T18:18:43Z</time>
      </trkpt>
      <trkpt lat="39.635372" lon="-6.309959">
        <ele>387.119</ele>
        <time>2021-10-12T18:18:44Z</time>
      </trkpt>
      <trkpt lat="39.635852" lon="-6.309684">
        <ele>389.258</ele>
        <time>2021-10-12T18:18:46Z</time>
      </trkpt>
      <trkpt lat="39.636316" lon="-6.309376">
        <ele>392.228</ele>
        <time>2021-10-12T18:18:48Z</time>
      </trkpt>
      <trkpt lat="39.636780" lon="-6.309057">
        <ele>392.619</ele>
        <time>2021-10-12T18:18:50Z</time>
      </trkpt>
      <trkpt lat="39.637244" lon="-6.308743">
        <ele>391.948</ele>
        <time>2021-10-12T18:18:52Z</time>
      </trkpt>
      <trkpt lat="39.637481" lon="-6.308585">
        <ele>391.261</ele>
        <time>2021-10-12T18:18:53Z</time>
      </trkpt>
      <trkpt lat="39.637723" lon="-6.308424">
        <ele>391.717</ele>
        <time>2021-10-12T18:18:54Z</time>
      </trkpt>
      <trkpt lat="39.638219" lon="-6.308092">
        <ele>391.608</ele>
        <time>2021-10-12T18:18:56Z</time>
      </trkpt>
      <trkpt lat="39.638706" lon="-6.307774">
        <ele>391.052</ele>
        <time>2021-10-12T18:18:58Z</time>
      </trkpt>
      <trkpt lat="39.638957" lon="-6.307610">
        <ele>391.060</ele>
        <time>2021-10-12T18:18:59Z</time>
      </trkpt>
      <trkpt lat="39.639208" lon="-6.307444">
        <ele>390.776</ele>
        <time>2021-10-12T18:19:00Z</time>
      </trkpt>
      <trkpt lat="39.639720" lon="-6.307097">
        <ele>390.049</ele>
        <time>2021-10-12T18:19:02Z</time>
      </trkpt>
      <trkpt lat="39.640208" lon="-6.306760">
        <ele>390.325</ele>
        <time>2021-10-12T18:19:04Z</time>
      </trkpt>
      <trkpt lat="39.640463" lon="-6.306586">
        <ele>390.134</ele>
        <time>2021-10-12T18:19:05Z</time>
      </trkpt>
      <trkpt lat="39.640973" lon="-6.306243">
        <ele>391.574</ele>
        <time>2021-10-12T18:19:07Z</time>
      </trkpt>
      <trkpt lat="39.641235" lon="-6.306068">
        <ele>392.025</ele>
        <time>2021-10-12T18:19:08Z</time>
      </trkpt>
      <trkpt lat="39.641742" lon="-6.305727">
        <ele>391.653</ele>
        <time>2021-10-12T18:19:10Z</time>
      </trkpt>
      <trkpt lat="39.642236" lon="-6.305373">
        <ele>392.704</ele>
        <time>2021-10-12T18:19:12Z</time>
      </trkpt>
      <trkpt lat="39.642478" lon="-6.305190">
        <ele>394.214</ele>
        <time>2021-10-12T18:19:13Z</time>
      </trkpt>
      <trkpt lat="39.642722" lon="-6.305008">
        <ele>395.008</ele>
        <time>2021-10-12T18:19:14Z</time>
      </trkpt>
      <trkpt lat="39.643203" lon="-6.304656">
        <ele>394.743</ele>
        <time>2021-10-12T18:19:16Z</time>
      </trkpt>
      <trkpt lat="39.643691" lon="-6.304300">
        <ele>394.541</ele>
        <time>2021-10-12T18:19:18Z</time>
      </trkpt>
      <trkpt lat="39.644173" lon="-6.303928">
        <ele>390.817</ele>
        <time>2021-10-12T18:19:20Z</time>
      </trkpt>
      <trkpt lat="39.644653" lon="-6.303538">
        <ele>391.370</ele>
        <time>2021-10-12T18:19:22Z</time>
      </trkpt>
      <trkpt lat="39.645128" lon="-6.303143">
        <ele>391.026</ele>
        <time>2021-10-12T18:19:24Z</time>
      </trkpt>
      <trkpt lat="39.645606" lon="-6.302741">
        <ele>392.275</ele>
        <time>2021-10-12T18:19:26Z</time>
      </trkpt>
      <trkpt lat="39.646071" lon="-6.302351">
        <ele>391.125</ele>
        <time>2021-10-12T18:19:28Z</time>
      </trkpt>
      <trkpt lat="39.646310" lon="-6.302151">
        <ele>388.636</ele>
        <time>2021-10-12T18:19:29Z</time>
      </trkpt>
      <trkpt lat="39.646792" lon="-6.301747">
        <ele>388.788</ele>
        <time>2021-10-12T18:19:31Z</time>
      </trkpt>
      <trkpt lat="39.647049" lon="-6.301533">
        <ele>388.124</ele>
        <time>2021-10-12T18:19:32Z</time>
      </trkpt>
      <trkpt lat="39.647519" lon="-6.301133">
        <ele>387.826</ele>
        <time>2021-10-12T18:19:34Z</time>
      </trkpt>
      <trkpt lat="39.648003" lon="-6.300719">
        <ele>390.608</ele>
        <time>2021-10-12T18:19:36Z</time>
      </trkpt>
      <trkpt lat="39.648475" lon="-6.300316">
        <ele>391.416</ele>
        <time>2021-10-12T18:19:38Z</time>
      </trkpt>
      <trkpt lat="39.648926" lon="-6.299907">
        <ele>390.324</ele>
        <time>2021-10-12T18:19:40Z</time>
      </trkpt>
      <trkpt lat="39.649346" lon="-6.299460">
        <ele>391.310</ele>
        <time>2021-10-12T18:19:42Z</time>
      </trkpt>
      <trkpt lat="39.649739" lon="-6.298992">
        <ele>390.693</ele>
        <time>2021-10-12T18:19:44Z</time>
      </trkpt>
      <trkpt lat="39.650115" lon="-6.298519">
        <ele>392.749</ele>
        <time>2021-10-12T18:19:46Z</time>
      </trkpt>
      <trkpt lat="39.650470" lon="-6.298021">
        <ele>392.148</ele>
        <time>2021-10-12T18:19:48Z</time>
      </trkpt>
      <trkpt lat="39.650802" lon="-6.297497">
        <ele>393.198</ele>
        <time>2021-10-12T18:19:50Z</time>
      </trkpt>
      <trkpt lat="39.651111" lon="-6.296966">
        <ele>393.089</ele>
        <time>2021-10-12T18:19:52Z</time>
      </trkpt>
      <trkpt lat="39.651260" lon="-6.296690">
        <ele>391.573</ele>
        <time>2021-10-12T18:19:53Z</time>
      </trkpt>
      <trkpt lat="39.651527" lon="-6.296138">
        <ele>392.085</ele>
        <time>2021-10-12T18:19:55Z</time>
      </trkpt>
      <trkpt lat="39.651666" lon="-6.295846">
        <ele>392.013</ele>
        <time>2021-10-12T18:19:56Z</time>
      </trkpt>
      <trkpt lat="39.651912" lon="-6.295305">
        <ele>391.908</ele>
        <time>2021-10-12T18:19:58Z</time>
      </trkpt>
      <trkpt lat="39.652170" lon="-6.294760">
        <ele>393.745</ele>
        <time>2021-10-12T18:20:00Z</time>
      </trkpt>
      <trkpt lat="39.652429" lon="-6.294203">
        <ele>396.633</ele>
        <time>2021-10-12T18:20:02Z</time>
      </trkpt>
      <trkpt lat="39.652671" lon="-6.293657">
        <ele>396.489</ele>
        <time>2021-10-12T18:20:04Z</time>
      </trkpt>
      <trkpt lat="39.652784" lon="-6.293367">
        <ele>395.162</ele>
        <time>2021-10-12T18:20:05Z</time>
      </trkpt>
      <trkpt lat="39.652878" lon="-6.293070">
        <ele>395.958</ele>
        <time>2021-10-12T18:20:06Z</time>
      </trkpt>
      <trkpt lat="39.653023" lon="-6.292460">
        <ele>397.297</ele>
        <time>2021-10-12T18:20:08Z</time>
      </trkpt>
      <trkpt lat="39.653111" lon="-6.291841">
        <ele>397.257</ele>
        <time>2021-10-12T18:20:10Z</time>
      </trkpt>
      <trkpt lat="39.653155" lon="-6.291202">
        <ele>396.028</ele>
        <time>2021-10-12T18:20:12Z</time>
      </trkpt>
      <trkpt lat="39.653195" lon="-6.290542">
        <ele>395.452</ele>
        <time>2021-10-12T18:20:14Z</time>
      </trkpt>
      <trkpt lat="39.653263" lon="-6.289877">
        <ele>393.953</ele>
        <time>2021-10-12T18:20:16Z</time>
      </trkpt>
      <trkpt lat="39.653397" lon="-6.289189">
        <ele>389.808</ele>
        <time>2021-10-12T18:20:18Z</time>
      </trkpt>
      <trkpt lat="39.653623" lon="-6.288501">
        <ele>389.908</ele>
        <time>2021-10-12T18:20:20Z</time>
      </trkpt>
      <trkpt lat="39.653928" lon="-6.287836">
        <ele>389.393</ele>
        <time>2021-10-12T18:20:22Z</time>
      </trkpt>
      <trkpt lat="39.654268" lon="-6.287188">
        <ele>388.951</ele>
        <time>2021-10-12T18:20:24Z</time>
      </trkpt>
      <trkpt lat="39.654438" lon="-6.286866">
        <ele>387.097</ele>
        <time>2021-10-12T18:20:25Z</time>
      </trkpt>
      <trkpt lat="39.654614" lon="-6.286529">
        <ele>386.450</ele>
        <time>2021-10-12T18:20:26Z</time>
      </trkpt>
      <trkpt lat="39.654939" lon="-6.285901">
        <ele>388.426</ele>
        <time>2021-10-12T18:20:28Z</time>
      </trkpt>
      <trkpt lat="39.655252" lon="-6.285271">
        <ele>389.025</ele>
        <time>2021-10-12T18:20:30Z</time>
      </trkpt>
      <trkpt lat="39.655405" lon="-6.284962">
        <ele>389.145</ele>
        <time>2021-10-12T18:20:31Z</time>
      </trkpt>
      <trkpt lat="39.655564" lon="-6.284651">
        <ele>390.576</ele>
        <time>2021-10-12T18:20:32Z</time>
      </trkpt>
      <trkpt lat="39.655861" lon="-6.284065">
        <ele>392.845</ele>
        <time>2021-10-12T18:20:34Z</time>
      </trkpt>
      <trkpt lat="39.656011" lon="-6.283766">
        <ele>391.647</ele>
        <time>2021-10-12T18:20:35Z</time>
      </trkpt>
      <trkpt lat="39.656315" lon="-6.283180">
        <ele>390.811</ele>
        <time>2021-10-12T18:20:37Z</time>
      </trkpt>
      <trkpt lat="39.656469" lon="-6.282884">
        <ele>392.108</ele>
        <time>2021-10-12T18:20:38Z</time>
      </trkpt>
      <trkpt lat="39.656768" lon="-6.282299">
        <ele>392.682</ele>
        <time>2021-10-12T18:20:40Z</time>
      </trkpt>
      <trkpt lat="39.656913" lon="-6.281999">
        <ele>392.180</ele>
        <time>2021-10-12T18:20:41Z</time>
      </trkpt>
      <trkpt lat="39.657057" lon="-6.281695">
        <ele>392.176</ele>
        <time>2021-10-12T18:20:42Z</time>
      </trkpt>
      <trkpt lat="39.657365" lon="-6.281075">
        <ele>393.649</ele>
        <time>2021-10-12T18:20:44Z</time>
      </trkpt>
      <trkpt lat="39.657682" lon="-6.280460">
        <ele>393.325</ele>
        <time>2021-10-12T18:20:46Z</time>
      </trkpt>
      <trkpt lat="39.658009" lon="-6.279824">
        <ele>392.354</ele>
        <time>2021-10-12T18:20:48Z</time>
      </trkpt>
      <trkpt lat="39.658174" lon="-6.279492">
        <ele>392.624</ele>
        <time>2021-10-12T18:20:49Z</time>
      </trkpt>
      <trkpt lat="39.658341" lon="-6.279155">
        <ele>392.135</ele>
        <time>2021-10-12T18:20:50Z</time>
      </trkpt>
      <trkpt lat="39.658678" lon="-6.278493">
        <ele>394.165</ele>
        <time>2021-10-12T18:20:52Z</time>
      </trkpt>
      <trkpt lat="39.658850" lon="-6.278157">
        <ele>394.968</ele>
        <time>2021-10-12T18:20:53Z</time>
      </trkpt>
      <trkpt lat="39.659021" lon="-6.277821">
        <ele>395.014</ele>
        <time>2021-10-12T18:20:54Z</time>
      </trkpt>
      <trkpt lat="39.659355" lon="-6.277137">
        <ele>394.708</ele>
        <time>2021-10-12T18:20:56Z</time>
      </trkpt>
      <trkpt lat="39.659631" lon="-6.276444">
        <ele>397.954</ele>
        <time>2021-10-12T18:20:58Z</time>
      </trkpt>
      <trkpt lat="39.659834" lon="-6.275684">
        <ele>400.152</ele>
        <time>2021-10-12T18:21:00Z</time>
      </trkpt>
      <trkpt lat="39.659914" lon="-6.275293">
        <ele>401.038</ele>
        <time>2021-10-12T18:21:01Z</time>
      </trkpt>
      <trkpt lat="39.659994" lon="-6.274894">
        <ele>401.821</ele>
        <time>2021-10-12T18:21:02Z</time>
      </trkpt>
      <trkpt lat="39.660158" lon="-6.274134">
        <ele>404.467</ele>
        <time>2021-10-12T18:21:04Z</time>
      </trkpt>
      <trkpt lat="39.660247" lon="-6.273744">
        <ele>404.616</ele>
        <time>2021-10-12T18:21:05Z</time>
      </trkpt>
      <trkpt lat="39.660421" lon="-6.272978">
        <ele>405.176</ele>
        <time>2021-10-12T18:21:07Z</time>
      </trkpt>
      <trkpt lat="39.660511" lon="-6.272589">
        <ele>406.657</ele>
        <time>2021-10-12T18:21:08Z</time>
      </trkpt>
      <trkpt lat="39.660712" lon="-6.271836">
        <ele>407.277</ele>
        <time>2021-10-12T18:21:10Z</time>
      </trkpt>
      <trkpt lat="39.660835" lon="-6.271469">
        <ele>407.061</ele>
        <time>2021-10-12T18:21:11Z</time>
      </trkpt>
      <trkpt lat="39.661122" lon="-6.270753">
        <ele>407.027</ele>
        <time>2021-10-12T18:21:13Z</time>
      </trkpt>
      <trkpt lat="39.661277" lon="-6.270392">
        <ele>408.508</ele>
        <time>2021-10-12T18:21:14Z</time>
      </trkpt>
      <trkpt lat="39.661577" lon="-6.269692">
        <ele>410.485</ele>
        <time>2021-10-12T18:21:16Z</time>
      </trkpt>
      <trkpt lat="39.661723" lon="-6.269342">
        <ele>411.083</ele>
        <time>2021-10-12T18:21:17Z</time>
      </trkpt>
      <trkpt lat="39.661967" lon="-6.268664">
        <ele>410.099</ele>
        <time>2021-10-12T18:21:19Z</time>
      </trkpt>
      <trkpt lat="39.662067" lon="-6.268300">
        <ele>409.132</ele>
        <time>2021-10-12T18:21:20Z</time>
      </trkpt>
      <trkpt lat="39.662188" lon="-6.267556">
        <ele>406.478</ele>
        <time>2021-10-12T18:21:22Z</time>
      </trkpt>
      <trkpt lat="39.662302" lon="-6.266789">
        <ele>403.497</ele>
        <time>2021-10-12T18:21:24Z</time>
      </trkpt>
      <trkpt lat="39.662429" lon="-6.265998">
        <ele>401.397</ele>
        <time>2021-10-12T18:21:26Z</time>
      </trkpt>
      <trkpt lat="39.662552" lon="-6.265249">
        <ele>401.818</ele>
        <time>2021-10-12T18:21:28Z</time>
      </trkpt>
      <trkpt lat="39.662687" lon="-6.264491">
        <ele>403.232</ele>
        <time>2021-10-12T18:21:30Z</time>
      </trkpt>
      <trkpt lat="39.662822" lon="-6.263727">
        <ele>405.792</ele>
        <time>2021-10-12T18:21:32Z</time>
      </trkpt>
      <trkpt lat="39.662957" lon="-6.263001">
        <ele>403.611</ele>
        <time>2021-10-12T18:21:34Z</time>
      </trkpt>
      <trkpt lat="39.663024" lon="-6.262631">
        <ele>403.008</ele>
        <time>2021-10-12T18:21:35Z</time>
      </trkpt>
      <trkpt lat="39.663145" lon="-6.261928">
        <ele>404.361</ele>
        <time>2021-10-12T18:21:37Z</time>
      </trkpt>
      <trkpt lat="39.663199" lon="-6.261604">
        <ele>403.589</ele>
        <time>2021-10-12T18:21:38Z</time>
      </trkpt>
      <trkpt lat="39.663298" lon="-6.260996">
        <ele>403.915</ele>
        <time>2021-10-12T18:21:40Z</time>
      </trkpt>
      <trkpt lat="39.663384" lon="-6.260360">
        <ele>405.038</ele>
        <time>2021-10-12T18:21:42Z</time>
      </trkpt>
      <trkpt lat="39.663404" lon="-6.260025">
        <ele>405.064</ele>
        <time>2021-10-12T18:21:43Z</time>
      </trkpt>
      <trkpt lat="39.663396" lon="-6.259678">
        <ele>404.193</ele>
        <time>2021-10-12T18:21:44Z</time>
      </trkpt>
      <trkpt lat="39.663326" lon="-6.258969">
        <ele>405.333</ele>
        <time>2021-10-12T18:21:46Z</time>
      </trkpt>
      <trkpt lat="39.663268" lon="-6.258608">
        <ele>404.264</ele>
        <time>2021-10-12T18:21:47Z</time>
      </trkpt>
      <trkpt lat="39.663094" lon="-6.257893">
        <ele>404.999</ele>
        <time>2021-10-12T18:21:49Z</time>
      </trkpt>
      <trkpt lat="39.662993" lon="-6.257530">
        <ele>405.507</ele>
        <time>2021-10-12T18:21:50Z</time>
      </trkpt>
      <trkpt lat="39.662795" lon="-6.256819">
        <ele>403.727</ele>
        <time>2021-10-12T18:21:52Z</time>
      </trkpt>
      <trkpt lat="39.662700" lon="-6.256465">
        <ele>402.708</ele>
        <time>2021-10-12T18:21:53Z</time>
      </trkpt>
      <trkpt lat="39.662513" lon="-6.255754">
        <ele>403.057</ele>
        <time>2021-10-12T18:21:55Z</time>
      </trkpt>
      <trkpt lat="39.662418" lon="-6.255385">
        <ele>403.375</ele>
        <time>2021-10-12T18:21:56Z</time>
      </trkpt>
      <trkpt lat="39.662248" lon="-6.254700">
        <ele>405.211</ele>
        <time>2021-10-12T18:21:58Z</time>
      </trkpt>
      <trkpt lat="39.662072" lon="-6.254016">
        <ele>403.974</ele>
        <time>2021-10-12T18:22:00Z</time>
      </trkpt>
      <trkpt lat="39.661989" lon="-6.253680">
        <ele>403.090</ele>
        <time>2021-10-12T18:22:01Z</time>
      </trkpt>
      <trkpt lat="39.661915" lon="-6.253336">
        <ele>403.139</ele>
        <time>2021-10-12T18:22:02Z</time>
      </trkpt>
      <trkpt lat="39.661821" lon="-6.252680">
        <ele>402.269</ele>
        <time>2021-10-12T18:22:04Z</time>
      </trkpt>
      <trkpt lat="39.661795" lon="-6.252333">
        <ele>403.110</ele>
        <time>2021-10-12T18:22:05Z</time>
      </trkpt>
      <trkpt lat="39.661801" lon="-6.251637">
        <ele>402.761</ele>
        <time>2021-10-12T18:22:07Z</time>
      </trkpt>
      <trkpt lat="39.661824" lon="-6.251264">
        <ele>405.021</ele>
        <time>2021-10-12T18:22:08Z</time>
      </trkpt>
      <trkpt lat="39.661892" lon="-6.250525">
        <ele>407.813</ele>
        <time>2021-10-12T18:22:10Z</time>
      </trkpt>
      <trkpt lat="39.661960" lon="-6.249775">
        <ele>409.808</ele>
        <time>2021-10-12T18:22:12Z</time>
      </trkpt>
      <trkpt lat="39.662026" lon="-6.249024">
        <ele>411.524</ele>
        <time>2021-10-12T18:22:14Z</time>
      </trkpt>
      <trkpt lat="39.662092" lon="-6.248283">
        <ele>412.452</ele>
        <time>2021-10-12T18:22:16Z</time>
      </trkpt>
      <trkpt lat="39.662124" lon="-6.247907">
        <ele>412.088</ele>
        <time>2021-10-12T18:22:17Z</time>
      </trkpt>
      <trkpt lat="39.662157" lon="-6.247520">
        <ele>412.091</ele>
        <time>2021-10-12T18:22:18Z</time>
      </trkpt>
      <trkpt lat="39.662219" lon="-6.246761">
        <ele>413.077</ele>
        <time>2021-10-12T18:22:20Z</time>
      </trkpt>
      <trkpt lat="39.662287" lon="-6.245998">
        <ele>412.036</ele>
        <time>2021-10-12T18:22:22Z</time>
      </trkpt>
      <trkpt lat="39.662323" lon="-6.245610">
        <ele>411.736</ele>
        <time>2021-10-12T18:22:23Z</time>
      </trkpt>
      <trkpt lat="39.662389" lon="-6.244848">
        <ele>408.727</ele>
        <time>2021-10-12T18:22:25Z</time>
      </trkpt>
      <trkpt lat="39.662418" lon="-6.244451">
        <ele>409.042</ele>
        <time>2021-10-12T18:22:26Z</time>
      </trkpt>
      <trkpt lat="39.662477" lon="-6.243721">
        <ele>409.922</ele>
        <time>2021-10-12T18:22:28Z</time>
      </trkpt>
      <trkpt lat="39.662507" lon="-6.243348">
        <ele>410.814</ele>
        <time>2021-10-12T18:22:29Z</time>
      </trkpt>
      <trkpt lat="39.662566" lon="-6.242619">
        <ele>409.708</ele>
        <time>2021-10-12T18:22:31Z</time>
      </trkpt>
      <trkpt lat="39.662590" lon="-6.242255">
        <ele>409.482</ele>
        <time>2021-10-12T18:22:32Z</time>
      </trkpt>
      <trkpt lat="39.662637" lon="-6.241585">
        <ele>407.870</ele>
        <time>2021-10-12T18:22:34Z</time>
      </trkpt>
      <trkpt lat="39.662694" lon="-6.240875">
        <ele>408.056</ele>
        <time>2021-10-12T18:22:36Z</time>
      </trkpt>
      <trkpt lat="39.662760" lon="-6.240145">
        <ele>404.039</ele>
        <time>2021-10-12T18:22:38Z</time>
      </trkpt>
      <trkpt lat="39.662823" lon="-6.239412">
        <ele>403.825</ele>
        <time>2021-10-12T18:22:40Z</time>
      </trkpt>
      <trkpt lat="39.662852" lon="-6.239042">
        <ele>404.144</ele>
        <time>2021-10-12T18:22:41Z</time>
      </trkpt>
      <trkpt lat="39.662920" lon="-6.238307">
        <ele>404.644</ele>
        <time>2021-10-12T18:22:43Z</time>
      </trkpt>
      <trkpt lat="39.662973" lon="-6.237940">
        <ele>406.495</ele>
        <time>2021-10-12T18:22:44Z</time>
      </trkpt>
      <trkpt lat="39.663153" lon="-6.237237">
        <ele>406.488</ele>
        <time>2021-10-12T18:22:46Z</time>
      </trkpt>
      <trkpt lat="39.663271" lon="-6.236892">
        <ele>407.924</ele>
        <time>2021-10-12T18:22:47Z</time>
      </trkpt>
      <trkpt lat="39.663401" lon="-6.236559">
        <ele>409.626</ele>
        <time>2021-10-12T18:22:48Z</time>
      </trkpt>
      <trkpt lat="39.663656" lon="-6.235916">
        <ele>412.108</ele>
        <time>2021-10-12T18:22:50Z</time>
      </trkpt>
      <trkpt lat="39.663900" lon="-6.235283">
        <ele>415.066</ele>
        <time>2021-10-12T18:22:52Z</time>
      </trkpt>
      <trkpt lat="39.664135" lon="-6.234655">
        <ele>417.194</ele>
        <time>2021-10-12T18:22:54Z</time>
      </trkpt>
      <trkpt lat="39.664253" lon="-6.234344">
        <ele>418.170</ele>
        <time>2021-10-12T18:22:55Z</time>
      </trkpt>
      <trkpt lat="39.664376" lon="-6.234019">
        <ele>418.993</ele>
        <time>2021-10-12T18:22:56Z</time>
      </trkpt>
      <trkpt lat="39.664609" lon="-6.233403">
        <ele>420.389</ele>
        <time>2021-10-12T18:22:58Z</time>
      </trkpt>
      <trkpt lat="39.664851" lon="-6.232773">
        <ele>423.058</ele>
        <time>2021-10-12T18:23:00Z</time>
      </trkpt>
      <trkpt lat="39.664970" lon="-6.232458">
        <ele>423.928</ele>
        <time>2021-10-12T18:23:01Z</time>
      </trkpt>
      <trkpt lat="39.665095" lon="-6.232130">
        <ele>424.529</ele>
        <time>2021-10-12T18:23:02Z</time>
      </trkpt>
      <trkpt lat="39.665321" lon="-6.231525">
        <ele>426.465</ele>
        <time>2021-10-12T18:23:04Z</time>
      </trkpt>
      <trkpt lat="39.665559" lon="-6.230900">
        <ele>426.068</ele>
        <time>2021-10-12T18:23:06Z</time>
      </trkpt>
      <trkpt lat="39.665679" lon="-6.230587">
        <ele>426.814</ele>
        <time>2021-10-12T18:23:07Z</time>
      </trkpt>
      <trkpt lat="39.665789" lon="-6.230284">
        <ele>428.008</ele>
        <time>2021-10-12T18:23:08Z</time>
      </trkpt>
      <trkpt lat="39.665985" lon="-6.229738">
        <ele>428.484</ele>
        <time>2021-10-12T18:23:10Z</time>
      </trkpt>
      <trkpt lat="39.666073" lon="-6.229481">
        <ele>428.072</ele>
        <time>2021-10-12T18:23:11Z</time>
      </trkpt>
      <trkpt lat="39.666154" lon="-6.229235">
        <ele>427.148</ele>
        <time>2021-10-12T18:23:12Z</time>
      </trkpt>
      <trkpt lat="39.666307" lon="-6.228774">
        <ele>426.391</ele>
        <time>2021-10-12T18:23:14Z</time>
      </trkpt>
      <trkpt lat="39.666457" lon="-6.228343">
        <ele>425.747</ele>
        <time>2021-10-12T18:23:16Z</time>
      </trkpt>
      <trkpt lat="39.666624" lon="-6.227886">
        <ele>426.066</ele>
        <time>2021-10-12T18:23:18Z</time>
      </trkpt>
      <trkpt lat="39.666808" lon="-6.227390">
        <ele>426.096</ele>
        <time>2021-10-12T18:23:20Z</time>
      </trkpt>
      <trkpt lat="39.666911" lon="-6.227126">
        <ele>426.017</ele>
        <time>2021-10-12T18:23:21Z</time>
      </trkpt>
      <trkpt lat="39.667132" lon="-6.226581">
        <ele>425.451</ele>
        <time>2021-10-12T18:23:23Z</time>
      </trkpt>
      <trkpt lat="39.667248" lon="-6.226301">
        <ele>425.101</ele>
        <time>2021-10-12T18:23:24Z</time>
      </trkpt>
      <trkpt lat="39.667359" lon="-6.226015">
        <ele>424.711</ele>
        <time>2021-10-12T18:23:25Z</time>
      </trkpt>
      <trkpt lat="39.667472" lon="-6.225707">
        <ele>423.608</ele>
        <time>2021-10-12T18:23:26Z</time>
      </trkpt>
      <trkpt lat="39.667683" lon="-6.225110">
        <ele>423.953</ele>
        <time>2021-10-12T18:23:28Z</time>
      </trkpt>
      <trkpt lat="39.667858" lon="-6.224472">
        <ele>426.291</ele>
        <time>2021-10-12T18:23:30Z</time>
      </trkpt>
      <trkpt lat="39.667961" lon="-6.223798">
        <ele>428.087</ele>
        <time>2021-10-12T18:23:32Z</time>
      </trkpt>
      <trkpt lat="39.667984" lon="-6.223149">
        <ele>428.150</ele>
        <time>2021-10-12T18:23:34Z</time>
      </trkpt>
      <trkpt lat="39.667986" lon="-6.222811">
        <ele>427.116</ele>
        <time>2021-10-12T18:23:35Z</time>
      </trkpt>
      <trkpt lat="39.667975" lon="-6.222475">
        <ele>426.375</ele>
        <time>2021-10-12T18:23:36Z</time>
      </trkpt>
      <trkpt lat="39.667934" lon="-6.221813">
        <ele>426.065</ele>
        <time>2021-10-12T18:23:38Z</time>
      </trkpt>
      <trkpt lat="39.667893" lon="-6.221167">
        <ele>425.946</ele>
        <time>2021-10-12T18:23:40Z</time>
      </trkpt>
      <trkpt lat="39.667860" lon="-6.220506">
        <ele>425.895</ele>
        <time>2021-10-12T18:23:42Z</time>
      </trkpt>
      <trkpt lat="39.667848" lon="-6.220164">
        <ele>424.649</ele>
        <time>2021-10-12T18:23:43Z</time>
      </trkpt>
      <trkpt lat="39.667831" lon="-6.219818">
        <ele>424.023</ele>
        <time>2021-10-12T18:23:44Z</time>
      </trkpt>
      <trkpt lat="39.667797" lon="-6.219097">
        <ele>422.808</ele>
        <time>2021-10-12T18:23:46Z</time>
      </trkpt>
      <trkpt lat="39.667770" lon="-6.218295">
        <ele>420.977</ele>
        <time>2021-10-12T18:23:48Z</time>
      </trkpt>
      <trkpt lat="39.667737" lon="-6.217397">
        <ele>421.775</ele>
        <time>2021-10-12T18:23:50Z</time>
      </trkpt>
      <trkpt lat="39.667665" lon="-6.215536">
        <ele>427.641</ele>
        <time>2021-10-12T18:23:54Z</time>
      </trkpt>
      <trkpt lat="39.667632" lon="-6.215096">
        <ele>428.384</ele>
        <time>2021-10-12T18:23:55Z</time>
      </trkpt>
      <trkpt lat="39.667602" lon="-6.214681">
        <ele>429.250</ele>
        <time>2021-10-12T18:23:56Z</time>
      </trkpt>
      <trkpt lat="39.667558" lon="-6.213984">
        <ele>430.899</ele>
        <time>2021-10-12T18:23:58Z</time>
      </trkpt>
      <trkpt lat="39.667546" lon="-6.213670">
        <ele>432.149</ele>
        <time>2021-10-12T18:23:59Z</time>
      </trkpt>
      <trkpt lat="39.667535" lon="-6.213378">
        <ele>434.220</ele>
        <time>2021-10-12T18:24:00Z</time>
      </trkpt>
      <trkpt lat="39.667521" lon="-6.212827">
        <ele>437.218</ele>
        <time>2021-10-12T18:24:02Z</time>
      </trkpt>
      <trkpt lat="39.667536" lon="-6.212274">
        <ele>438.998</ele>
        <time>2021-10-12T18:24:04Z</time>
      </trkpt>
      <trkpt lat="39.667568" lon="-6.211962">
        <ele>439.017</ele>
        <time>2021-10-12T18:24:05Z</time>
      </trkpt>
      <trkpt lat="39.667685" lon="-6.211308">
        <ele>435.608</ele>
        <time>2021-10-12T18:24:07Z</time>
      </trkpt>
      <trkpt lat="39.667773" lon="-6.210959">
        <ele>435.079</ele>
        <time>2021-10-12T18:24:08Z</time>
      </trkpt>
      <trkpt lat="39.667994" lon="-6.210286">
        <ele>436.367</ele>
        <time>2021-10-12T18:24:10Z</time>
      </trkpt>
      <trkpt lat="39.668235" lon="-6.209609">
        <ele>438.893</ele>
        <time>2021-10-12T18:24:12Z</time>
      </trkpt>
      <trkpt lat="39.668460" lon="-6.208956">
        <ele>438.396</ele>
        <time>2021-10-12T18:24:14Z</time>
      </trkpt>
      <trkpt lat="39.668663" lon="-6.208356">
        <ele>435.042</ele>
        <time>2021-10-12T18:24:16Z</time>
      </trkpt>
      <trkpt lat="39.668760" lon="-6.208054">
        <ele>433.991</ele>
        <time>2021-10-12T18:24:17Z</time>
      </trkpt>
      <trkpt lat="39.668961" lon="-6.207433">
        <ele>434.591</ele>
        <time>2021-10-12T18:24:19Z</time>
      </trkpt>
      <trkpt lat="39.669067" lon="-6.207103">
        <ele>434.562</ele>
        <time>2021-10-12T18:24:20Z</time>
      </trkpt>
      <trkpt lat="39.669264" lon="-6.206451">
        <ele>436.786</ele>
        <time>2021-10-12T18:24:22Z</time>
      </trkpt>
      <trkpt lat="39.669367" lon="-6.206109">
        <ele>437.360</ele>
        <time>2021-10-12T18:24:23Z</time>
      </trkpt>
      <trkpt lat="39.669470" lon="-6.205767">
        <ele>437.826</ele>
        <time>2021-10-12T18:24:24Z</time>
      </trkpt>
      <trkpt lat="39.669691" lon="-6.205059">
        <ele>439.008</ele>
        <time>2021-10-12T18:24:26Z</time>
      </trkpt>
      <trkpt lat="39.669911" lon="-6.204380">
        <ele>441.016</ele>
        <time>2021-10-12T18:24:28Z</time>
      </trkpt>
      <trkpt lat="39.670024" lon="-6.204029">
        <ele>441.014</ele>
        <time>2021-10-12T18:24:29Z</time>
      </trkpt>
      <trkpt lat="39.670236" lon="-6.203381">
        <ele>441.910</ele>
        <time>2021-10-12T18:24:31Z</time>
      </trkpt>
      <trkpt lat="39.670332" lon="-6.203069">
        <ele>442.843</ele>
        <time>2021-10-12T18:24:32Z</time>
      </trkpt>
      <trkpt lat="39.670499" lon="-6.202496">
        <ele>441.289</ele>
        <time>2021-10-12T18:24:34Z</time>
      </trkpt>
      <trkpt lat="39.670587" lon="-6.202199">
        <ele>440.918</ele>
        <time>2021-10-12T18:24:35Z</time>
      </trkpt>
      <trkpt lat="39.670680" lon="-6.201902">
        <ele>440.438</ele>
        <time>2021-10-12T18:24:36Z</time>
      </trkpt>
      <trkpt lat="39.670773" lon="-6.201602">
        <ele>441.029</ele>
        <time>2021-10-12T18:24:37Z</time>
      </trkpt>
      <trkpt lat="39.670870" lon="-6.201305">
        <ele>442.036</ele>
        <time>2021-10-12T18:24:38Z</time>
      </trkpt>
      <trkpt lat="39.671056" lon="-6.200716">
        <ele>441.217</ele>
        <time>2021-10-12T18:24:40Z</time>
      </trkpt>
      <trkpt lat="39.671149" lon="-6.200416">
        <ele>441.418</ele>
        <time>2021-10-12T18:24:41Z</time>
      </trkpt>
      <trkpt lat="39.671246" lon="-6.200105">
        <ele>441.508</ele>
        <time>2021-10-12T18:24:42Z</time>
      </trkpt>
      <trkpt lat="39.671452" lon="-6.199445">
        <ele>441.071</ele>
        <time>2021-10-12T18:24:44Z</time>
      </trkpt>
      <trkpt lat="39.671676" lon="-6.198749">
        <ele>443.069</ele>
        <time>2021-10-12T18:24:46Z</time>
      </trkpt>
      <trkpt lat="39.671902" lon="-6.198027">
        <ele>442.815</ele>
        <time>2021-10-12T18:24:48Z</time>
      </trkpt>
      <trkpt lat="39.672129" lon="-6.197291">
        <ele>444.468</ele>
        <time>2021-10-12T18:24:50Z</time>
      </trkpt>
      <trkpt lat="39.672359" lon="-6.196562">
        <ele>442.314</ele>
        <time>2021-10-12T18:24:52Z</time>
      </trkpt>
      <trkpt lat="39.672473" lon="-6.196200">
        <ele>442.013</ele>
        <time>2021-10-12T18:24:53Z</time>
      </trkpt>
      <trkpt lat="39.672694" lon="-6.195480">
        <ele>443.333</ele>
        <time>2021-10-12T18:24:55Z</time>
      </trkpt>
      <trkpt lat="39.672811" lon="-6.195098">
        <ele>443.484</ele>
        <time>2021-10-12T18:24:56Z</time>
      </trkpt>
      <trkpt lat="39.673024" lon="-6.194380">
        <ele>443.741</ele>
        <time>2021-10-12T18:24:58Z</time>
      </trkpt>
      <trkpt lat="39.673245" lon="-6.193648">
        <ele>443.281</ele>
        <time>2021-10-12T18:25:00Z</time>
      </trkpt>
      <trkpt lat="39.673357" lon="-6.193279">
        <ele>444.509</ele>
        <time>2021-10-12T18:25:01Z</time>
      </trkpt>
      <trkpt lat="39.673474" lon="-6.192898">
        <ele>445.408</ele>
        <time>2021-10-12T18:25:02Z</time>
      </trkpt>
      <trkpt lat="39.673684" lon="-6.192233">
        <ele>440.882</ele>
        <time>2021-10-12T18:25:04Z</time>
      </trkpt>
      <trkpt lat="39.673786" lon="-6.191895">
        <ele>440.950</ele>
        <time>2021-10-12T18:25:05Z</time>
      </trkpt>
      <trkpt lat="39.673890" lon="-6.191555">
        <ele>441.466</ele>
        <time>2021-10-12T18:25:06Z</time>
      </trkpt>
      <trkpt lat="39.673997" lon="-6.191221">
        <ele>443.039</ele>
        <time>2021-10-12T18:25:07Z</time>
      </trkpt>
      <trkpt lat="39.674103" lon="-6.190889">
        <ele>444.615</ele>
        <time>2021-10-12T18:25:08Z</time>
      </trkpt>
      <trkpt lat="39.674311" lon="-6.190249">
        <ele>445.484</ele>
        <time>2021-10-12T18:25:10Z</time>
      </trkpt>
      <trkpt lat="39.674415" lon="-6.189924">
        <ele>445.064</ele>
        <time>2021-10-12T18:25:11Z</time>
      </trkpt>
      <trkpt lat="39.674518" lon="-6.189601">
        <ele>444.955</ele>
        <time>2021-10-12T18:25:12Z</time>
      </trkpt>
      <trkpt lat="39.674729" lon="-6.188943">
        <ele>444.917</ele>
        <time>2021-10-12T18:25:14Z</time>
      </trkpt>
      <trkpt lat="39.674942" lon="-6.188268">
        <ele>440.087</ele>
        <time>2021-10-12T18:25:16Z</time>
      </trkpt>
      <trkpt lat="39.675150" lon="-6.187583">
        <ele>437.515</ele>
        <time>2021-10-12T18:25:18Z</time>
      </trkpt>
      <trkpt lat="39.675255" lon="-6.187238">
        <ele>438.908</ele>
        <time>2021-10-12T18:25:19Z</time>
      </trkpt>
      <trkpt lat="39.675361" lon="-6.186888">
        <ele>441.239</ele>
        <time>2021-10-12T18:25:20Z</time>
      </trkpt>
      <trkpt lat="39.675569" lon="-6.186219">
        <ele>444.217</ele>
        <time>2021-10-12T18:25:22Z</time>
      </trkpt>
      <trkpt lat="39.675774" lon="-6.185569">
        <ele>447.943</ele>
        <time>2021-10-12T18:25:24Z</time>
      </trkpt>
      <trkpt lat="39.675974" lon="-6.184934">
        <ele>445.956</ele>
        <time>2021-10-12T18:25:26Z</time>
      </trkpt>
      <trkpt lat="39.676174" lon="-6.184305">
        <ele>446.292</ele>
        <time>2021-10-12T18:25:28Z</time>
      </trkpt>
      <trkpt lat="39.676273" lon="-6.183973">
        <ele>446.741</ele>
        <time>2021-10-12T18:25:29Z</time>
      </trkpt>
      <trkpt lat="39.676374" lon="-6.183636">
        <ele>446.181</ele>
        <time>2021-10-12T18:25:30Z</time>
      </trkpt>
      <trkpt lat="39.676587" lon="-6.182939">
        <ele>443.782</ele>
        <time>2021-10-12T18:25:32Z</time>
      </trkpt>
      <trkpt lat="39.676789" lon="-6.182262">
        <ele>442.193</ele>
        <time>2021-10-12T18:25:34Z</time>
      </trkpt>
      <trkpt lat="39.676895" lon="-6.181914">
        <ele>441.865</ele>
        <time>2021-10-12T18:25:35Z</time>
      </trkpt>
      <trkpt lat="39.677000" lon="-6.181585">
        <ele>442.821</ele>
        <time>2021-10-12T18:25:36Z</time>
      </trkpt>
      <trkpt lat="39.677201" lon="-6.180952">
        <ele>440.808</ele>
        <time>2021-10-12T18:25:38Z</time>
      </trkpt>
      <trkpt lat="39.677414" lon="-6.180304">
        <ele>438.997</ele>
        <time>2021-10-12T18:25:40Z</time>
      </trkpt>
      <trkpt lat="39.677547" lon="-6.179965">
        <ele>436.985</ele>
        <time>2021-10-12T18:25:41Z</time>
      </trkpt>
      <trkpt lat="39.677865" lon="-6.179311">
        <ele>434.871</ele>
        <time>2021-10-12T18:25:43Z</time>
      </trkpt>
      <trkpt lat="39.678048" lon="-6.178995">
        <ele>434.624</ele>
        <time>2021-10-12T18:25:44Z</time>
      </trkpt>
      <trkpt lat="39.678423" lon="-6.178388">
        <ele>431.680</ele>
        <time>2021-10-12T18:25:46Z</time>
      </trkpt>
      <trkpt lat="39.678606" lon="-6.178082">
        <ele>432.879</ele>
        <time>2021-10-12T18:25:47Z</time>
      </trkpt>
      <trkpt lat="39.678964" lon="-6.177476">
        <ele>430.479</ele>
        <time>2021-10-12T18:25:49Z</time>
      </trkpt>
      <trkpt lat="39.679141" lon="-6.177177">
        <ele>430.360</ele>
        <time>2021-10-12T18:25:50Z</time>
      </trkpt>
      <trkpt lat="39.679482" lon="-6.176587">
        <ele>428.099</ele>
        <time>2021-10-12T18:25:52Z</time>
      </trkpt>
      <trkpt lat="39.679653" lon="-6.176287">
        <ele>428.007</ele>
        <time>2021-10-12T18:25:53Z</time>
      </trkpt>
      <trkpt lat="39.679985" lon="-6.175697">
        <ele>428.927</ele>
        <time>2021-10-12T18:25:55Z</time>
      </trkpt>
      <trkpt lat="39.680159" lon="-6.175397">
        <ele>430.108</ele>
        <time>2021-10-12T18:25:56Z</time>
      </trkpt>
      <trkpt lat="39.680495" lon="-6.174823">
        <ele>432.617</ele>
        <time>2021-10-12T18:25:58Z</time>
      </trkpt>
      <trkpt lat="39.680832" lon="-6.174243">
        <ele>435.065</ele>
        <time>2021-10-12T18:26:00Z</time>
      </trkpt>
      <trkpt lat="39.680994" lon="-6.173962">
        <ele>436.931</ele>
        <time>2021-10-12T18:26:01Z</time>
      </trkpt>
      <trkpt lat="39.681160" lon="-6.173677">
        <ele>439.314</ele>
        <time>2021-10-12T18:26:02Z</time>
      </trkpt>
      <trkpt lat="39.681473" lon="-6.173152">
        <ele>443.790</ele>
        <time>2021-10-12T18:26:04Z</time>
      </trkpt>
      <trkpt lat="39.681627" lon="-6.172892">
        <ele>444.639</ele>
        <time>2021-10-12T18:26:05Z</time>
      </trkpt>
      <trkpt lat="39.681917" lon="-6.172385">
        <ele>446.469</ele>
        <time>2021-10-12T18:26:07Z</time>
      </trkpt>
      <trkpt lat="39.682064" lon="-6.172129">
        <ele>446.820</ele>
        <time>2021-10-12T18:26:08Z</time>
      </trkpt>
      <trkpt lat="39.682364" lon="-6.171624">
        <ele>447.556</ele>
        <time>2021-10-12T18:26:10Z</time>
      </trkpt>
      <trkpt lat="39.682682" lon="-6.171089">
        <ele>447.259</ele>
        <time>2021-10-12T18:26:12Z</time>
      </trkpt>
      <trkpt lat="39.682848" lon="-6.170808">
        <ele>447.614</ele>
        <time>2021-10-12T18:26:13Z</time>
      </trkpt>
      <trkpt lat="39.683016" lon="-6.170512">
        <ele>448.908</ele>
        <time>2021-10-12T18:26:14Z</time>
      </trkpt>
      <trkpt lat="39.683360" lon="-6.169909">
        <ele>447.723</ele>
        <time>2021-10-12T18:26:16Z</time>
      </trkpt>
      <trkpt lat="39.683720" lon="-6.169284">
        <ele>448.671</ele>
        <time>2021-10-12T18:26:18Z</time>
      </trkpt>
      <trkpt lat="39.684095" lon="-6.168633">
        <ele>447.557</ele>
        <time>2021-10-12T18:26:20Z</time>
      </trkpt>
      <trkpt lat="39.684474" lon="-6.167990">
        <ele>447.030</ele>
        <time>2021-10-12T18:26:22Z</time>
      </trkpt>
      <trkpt lat="39.684859" lon="-6.167338">
        <ele>446.836</ele>
        <time>2021-10-12T18:26:24Z</time>
      </trkpt>
      <trkpt lat="39.685048" lon="-6.167015">
        <ele>446.985</ele>
        <time>2021-10-12T18:26:25Z</time>
      </trkpt>
      <trkpt lat="39.685240" lon="-6.166686">
        <ele>447.885</ele>
        <time>2021-10-12T18:26:26Z</time>
      </trkpt>
      <trkpt lat="39.685591" lon="-6.166071">
        <ele>449.146</ele>
        <time>2021-10-12T18:26:28Z</time>
      </trkpt>
      <trkpt lat="39.685953" lon="-6.165456">
        <ele>450.834</ele>
        <time>2021-10-12T18:26:30Z</time>
      </trkpt>
      <trkpt lat="39.686313" lon="-6.164829">
        <ele>450.455</ele>
        <time>2021-10-12T18:26:32Z</time>
      </trkpt>
      <trkpt lat="39.686625" lon="-6.164214">
        <ele>450.810</ele>
        <time>2021-10-12T18:26:34Z</time>
      </trkpt>
      <trkpt lat="39.686878" lon="-6.163507">
        <ele>452.008</ele>
        <time>2021-10-12T18:26:36Z</time>
      </trkpt>
      <trkpt lat="39.686976" lon="-6.163120">
        <ele>450.861</ele>
        <time>2021-10-12T18:26:37Z</time>
      </trkpt>
      <trkpt lat="39.687053" lon="-6.162716">
        <ele>451.739</ele>
        <time>2021-10-12T18:26:38Z</time>
      </trkpt>
      <trkpt lat="39.687119" lon="-6.161917">
        <ele>452.085</ele>
        <time>2021-10-12T18:26:40Z</time>
      </trkpt>
      <trkpt lat="39.687119" lon="-6.161532">
        <ele>452.088</ele>
        <time>2021-10-12T18:26:41Z</time>
      </trkpt>
      <trkpt lat="39.687103" lon="-6.160806">
        <ele>454.044</ele>
        <time>2021-10-12T18:26:43Z</time>
      </trkpt>
      <trkpt lat="39.687110" lon="-6.160437">
        <ele>453.563</ele>
        <time>2021-10-12T18:26:44Z</time>
      </trkpt>
      <trkpt lat="39.687196" lon="-6.159717">
        <ele>450.293</ele>
        <time>2021-10-12T18:26:46Z</time>
      </trkpt>
      <trkpt lat="39.687368" lon="-6.158995">
        <ele>447.664</ele>
        <time>2021-10-12T18:26:48Z</time>
      </trkpt>
      <trkpt lat="39.687637" lon="-6.158294">
        <ele>445.311</ele>
        <time>2021-10-12T18:26:50Z</time>
      </trkpt>
      <trkpt lat="39.687992" lon="-6.157635">
        <ele>440.821</ele>
        <time>2021-10-12T18:26:52Z</time>
      </trkpt>
      <trkpt lat="39.688203" lon="-6.157317">
        <ele>440.303</ele>
        <time>2021-10-12T18:26:53Z</time>
      </trkpt>
      <trkpt lat="39.688421" lon="-6.157005">
        <ele>439.708</ele>
        <time>2021-10-12T18:26:54Z</time>
      </trkpt>
      <trkpt lat="39.688866" lon="-6.156375">
        <ele>439.119</ele>
        <time>2021-10-12T18:26:56Z</time>
      </trkpt>
      <trkpt lat="39.689272" lon="-6.155765">
        <ele>443.417</ele>
        <time>2021-10-12T18:26:58Z</time>
      </trkpt>
      <trkpt lat="39.689678" lon="-6.155148">
        <ele>446.443</ele>
        <time>2021-10-12T18:27:00Z</time>
      </trkpt>
      <trkpt lat="39.689880" lon="-6.154840">
        <ele>447.186</ele>
        <time>2021-10-12T18:27:01Z</time>
      </trkpt>
      <trkpt lat="39.690088" lon="-6.154524">
        <ele>446.782</ele>
        <time>2021-10-12T18:27:02Z</time>
      </trkpt>
      <trkpt lat="39.690483" lon="-6.153931">
        <ele>442.171</ele>
        <time>2021-10-12T18:27:04Z</time>
      </trkpt>
      <trkpt lat="39.690685" lon="-6.153621">
        <ele>443.551</ele>
        <time>2021-10-12T18:27:05Z</time>
      </trkpt>
      <trkpt lat="39.691084" lon="-6.152997">
        <ele>444.222</ele>
        <time>2021-10-12T18:27:07Z</time>
      </trkpt>
      <trkpt lat="39.691282" lon="-6.152687">
        <ele>442.948</ele>
        <time>2021-10-12T18:27:08Z</time>
      </trkpt>
      <trkpt lat="39.691676" lon="-6.152091">
        <ele>442.161</ele>
        <time>2021-10-12T18:27:10Z</time>
      </trkpt>
      <trkpt lat="39.692050" lon="-6.151497">
        <ele>447.717</ele>
        <time>2021-10-12T18:27:12Z</time>
      </trkpt>
      <trkpt lat="39.692223" lon="-6.151186">
        <ele>450.508</ele>
        <time>2021-10-12T18:27:13Z</time>
      </trkpt>
      <trkpt lat="39.692381" lon="-6.150868">
        <ele>451.852</ele>
        <time>2021-10-12T18:27:14Z</time>
      </trkpt>
      <trkpt lat="39.692638" lon="-6.150244">
        <ele>452.640</ele>
        <time>2021-10-12T18:27:16Z</time>
      </trkpt>
      <trkpt lat="39.692762" lon="-6.149933">
        <ele>454.066</ele>
        <time>2021-10-12T18:27:17Z</time>
      </trkpt>
      <trkpt lat="39.693045" lon="-6.149332">
        <ele>455.489</ele>
        <time>2021-10-12T18:27:19Z</time>
      </trkpt>
      <trkpt lat="39.693226" lon="-6.149018">
        <ele>455.185</ele>
        <time>2021-10-12T18:27:20Z</time>
      </trkpt>
      <trkpt lat="39.693629" lon="-6.148466">
        <ele>454.354</ele>
        <time>2021-10-12T18:27:22Z</time>
      </trkpt>
      <trkpt lat="39.693859" lon="-6.148216">
        <ele>450.564</ele>
        <time>2021-10-12T18:27:23Z</time>
      </trkpt>
      <trkpt lat="39.694355" lon="-6.147782">
        <ele>448.065</ele>
        <time>2021-10-12T18:27:25Z</time>
      </trkpt>
      <trkpt lat="39.694630" lon="-6.147586">
        <ele>449.947</ele>
        <time>2021-10-12T18:27:26Z</time>
      </trkpt>
      <trkpt lat="39.695173" lon="-6.147294">
        <ele>448.229</ele>
        <time>2021-10-12T18:27:28Z</time>
      </trkpt>
      <trkpt lat="39.695758" lon="-6.147093">
        <ele>440.321</ele>
        <time>2021-10-12T18:27:30Z</time>
      </trkpt>
      <trkpt lat="39.696060" lon="-6.147032">
        <ele>438.408</ele>
        <time>2021-10-12T18:27:31Z</time>
      </trkpt>
      <trkpt lat="39.696378" lon="-6.147001">
        <ele>437.432</ele>
        <time>2021-10-12T18:27:32Z</time>
      </trkpt>
      <trkpt lat="39.696951" lon="-6.147009">
        <ele>435.720</ele>
        <time>2021-10-12T18:27:34Z</time>
      </trkpt>
      <trkpt lat="39.697512" lon="-6.147020">
        <ele>432.496</ele>
        <time>2021-10-12T18:27:36Z</time>
      </trkpt>
      <trkpt lat="39.698066" lon="-6.146968">
        <ele>433.749</ele>
        <time>2021-10-12T18:27:38Z</time>
      </trkpt>
      <trkpt lat="39.698608" lon="-6.146786">
        <ele>433.675</ele>
        <time>2021-10-12T18:27:40Z</time>
      </trkpt>
      <trkpt lat="39.699102" lon="-6.146498">
        <ele>430.594</ele>
        <time>2021-10-12T18:27:42Z</time>
      </trkpt>
      <trkpt lat="39.699535" lon="-6.146168">
        <ele>428.334</ele>
        <time>2021-10-12T18:27:44Z</time>
      </trkpt>
      <trkpt lat="39.699968" lon="-6.145829">
        <ele>427.115</ele>
        <time>2021-10-12T18:27:46Z</time>
      </trkpt>
      <trkpt lat="39.700426" lon="-6.145513">
        <ele>428.019</ele>
        <time>2021-10-12T18:27:48Z</time>
      </trkpt>
      <trkpt lat="39.700669" lon="-6.145386">
        <ele>428.409</ele>
        <time>2021-10-12T18:27:49Z</time>
      </trkpt>
      <trkpt lat="39.700928" lon="-6.145280">
        <ele>429.019</ele>
        <time>2021-10-12T18:27:50Z</time>
      </trkpt>
      <trkpt lat="39.701454" lon="-6.145116">
        <ele>426.908</ele>
        <time>2021-10-12T18:27:52Z</time>
      </trkpt>
      <trkpt lat="39.702016" lon="-6.145024">
        <ele>423.049</ele>
        <time>2021-10-12T18:27:54Z</time>
      </trkpt>
      <trkpt lat="39.702312" lon="-6.145000">
        <ele>423.057</ele>
        <time>2021-10-12T18:27:55Z</time>
      </trkpt>
      <trkpt lat="39.702618" lon="-6.144998">
        <ele>423.053</ele>
        <time>2021-10-12T18:27:56Z</time>
      </trkpt>
      <trkpt lat="39.703203" lon="-6.145080">
        <ele>422.926</ele>
        <time>2021-10-12T18:27:58Z</time>
      </trkpt>
      <trkpt lat="39.703760" lon="-6.145214">
        <ele>422.692</ele>
        <time>2021-10-12T18:28:00Z</time>
      </trkpt>
      <trkpt lat="39.704285" lon="-6.145274">
        <ele>424.081</ele>
        <time>2021-10-12T18:28:02Z</time>
      </trkpt>
      <trkpt lat="39.704785" lon="-6.145208">
        <ele>421.531</ele>
        <time>2021-10-12T18:28:04Z</time>
      </trkpt>
      <trkpt lat="39.705028" lon="-6.145128">
        <ele>419.752</ele>
        <time>2021-10-12T18:28:05Z</time>
      </trkpt>
      <trkpt lat="39.705256" lon="-6.145024">
        <ele>417.376</ele>
        <time>2021-10-12T18:28:06Z</time>
      </trkpt>
      <trkpt lat="39.705689" lon="-6.144743">
        <ele>416.690</ele>
        <time>2021-10-12T18:28:08Z</time>
      </trkpt>
      <trkpt lat="39.706087" lon="-6.144375">
        <ele>417.919</ele>
        <time>2021-10-12T18:28:10Z</time>
      </trkpt>
      <trkpt lat="39.706279" lon="-6.144161">
        <ele>417.408</ele>
        <time>2021-10-12T18:28:11Z</time>
      </trkpt>
      <trkpt lat="39.706467" lon="-6.143933">
        <ele>415.685</ele>
        <time>2021-10-12T18:28:12Z</time>
      </trkpt>
      <trkpt lat="39.706654" lon="-6.143704">
        <ele>411.493</ele>
        <time>2021-10-12T18:28:13Z</time>
      </trkpt>
      <trkpt lat="39.706845" lon="-6.143481">
        <ele>409.729</ele>
        <time>2021-10-12T18:28:14Z</time>
      </trkpt>
      <trkpt lat="39.707244" lon="-6.143045">
        <ele>409.892</ele>
        <time>2021-10-12T18:28:16Z</time>
      </trkpt>
      <trkpt lat="39.707457" lon="-6.142828">
        <ele>407.488</ele>
        <time>2021-10-12T18:28:17Z</time>
      </trkpt>
      <trkpt lat="39.707898" lon="-6.142413">
        <ele>404.447</ele>
        <time>2021-10-12T18:28:19Z</time>
      </trkpt>
      <trkpt lat="39.708132" lon="-6.142202">
        <ele>402.947</ele>
        <time>2021-10-12T18:28:20Z</time>
      </trkpt>
      <trkpt lat="39.708611" lon="-6.141792">
        <ele>399.928</ele>
        <time>2021-10-12T18:28:22Z</time>
      </trkpt>
      <trkpt lat="39.708857" lon="-6.141584">
        <ele>398.133</ele>
        <time>2021-10-12T18:28:23Z</time>
      </trkpt>
      <trkpt lat="39.709108" lon="-6.141370">
        <ele>396.523</ele>
        <time>2021-10-12T18:28:24Z</time>
      </trkpt>
      <trkpt lat="39.709361" lon="-6.141159">
        <ele>393.615</ele>
        <time>2021-10-12T18:28:25Z</time>
      </trkpt>
      <trkpt lat="39.709613" lon="-6.140948">
        <ele>391.808</ele>
        <time>2021-10-12T18:28:26Z</time>
      </trkpt>
      <trkpt lat="39.710080" lon="-6.140543">
        <ele>391.391</ele>
        <time>2021-10-12T18:28:28Z</time>
      </trkpt>
      <trkpt lat="39.710304" lon="-6.140345">
        <ele>390.659</ele>
        <time>2021-10-12T18:28:29Z</time>
      </trkpt>
      <trkpt lat="39.710519" lon="-6.140156">
        <ele>391.255</ele>
        <time>2021-10-12T18:28:30Z</time>
      </trkpt>
      <trkpt lat="39.710946" lon="-6.139788">
        <ele>391.198</ele>
        <time>2021-10-12T18:28:32Z</time>
      </trkpt>
      <trkpt lat="39.711356" lon="-6.139441">
        <ele>390.164</ele>
        <time>2021-10-12T18:28:34Z</time>
      </trkpt>
      <trkpt lat="39.711570" lon="-6.139253">
        <ele>389.583</ele>
        <time>2021-10-12T18:28:35Z</time>
      </trkpt>
      <trkpt lat="39.711785" lon="-6.139063">
        <ele>388.763</ele>
        <time>2021-10-12T18:28:36Z</time>
      </trkpt>
      <trkpt lat="39.712004" lon="-6.138870">
        <ele>388.474</ele>
        <time>2021-10-12T18:28:37Z</time>
      </trkpt>
      <trkpt lat="39.712226" lon="-6.138681">
        <ele>389.283</ele>
        <time>2021-10-12T18:28:38Z</time>
      </trkpt>
      <trkpt lat="39.712658" lon="-6.138308">
        <ele>386.925</ele>
        <time>2021-10-12T18:28:40Z</time>
      </trkpt>
      <trkpt lat="39.712862" lon="-6.138126">
        <ele>386.517</ele>
        <time>2021-10-12T18:28:41Z</time>
      </trkpt>
      <trkpt lat="39.713056" lon="-6.137952">
        <ele>386.608</ele>
        <time>2021-10-12T18:28:42Z</time>
      </trkpt>
      <trkpt lat="39.713249" lon="-6.137778">
        <ele>385.356</ele>
        <time>2021-10-12T18:28:43Z</time>
      </trkpt>
      <trkpt lat="39.713442" lon="-6.137593">
        <ele>383.434</ele>
        <time>2021-10-12T18:28:44Z</time>
      </trkpt>
      <trkpt lat="39.713782" lon="-6.137197">
        <ele>380.960</ele>
        <time>2021-10-12T18:28:46Z</time>
      </trkpt>
      <trkpt lat="39.714056" lon="-6.136781">
        <ele>380.633</ele>
        <time>2021-10-12T18:28:48Z</time>
      </trkpt>
      <trkpt lat="39.714185" lon="-6.136559">
        <ele>380.599</ele>
        <time>2021-10-12T18:28:49Z</time>
      </trkpt>
      <trkpt lat="39.714306" lon="-6.136328">
        <ele>381.138</ele>
        <time>2021-10-12T18:28:50Z</time>
      </trkpt>
      <trkpt lat="39.714537" lon="-6.135834">
        <ele>380.728</ele>
        <time>2021-10-12T18:28:52Z</time>
      </trkpt>
      <trkpt lat="39.714662" lon="-6.135573">
        <ele>379.989</ele>
        <time>2021-10-12T18:28:53Z</time>
      </trkpt>
      <trkpt lat="39.714929" lon="-6.135075">
        <ele>379.861</ele>
        <time>2021-10-12T18:28:55Z</time>
      </trkpt>
      <trkpt lat="39.715081" lon="-6.134819">
        <ele>379.921</ele>
        <time>2021-10-12T18:28:56Z</time>
      </trkpt>
      <trkpt lat="39.715412" lon="-6.134340">
        <ele>375.013</ele>
        <time>2021-10-12T18:28:58Z</time>
      </trkpt>
      <trkpt lat="39.715612" lon="-6.134081">
        <ele>375.208</ele>
        <time>2021-10-12T18:28:59Z</time>
      </trkpt>
      <trkpt lat="39.715824" lon="-6.133811">
        <ele>374.464</ele>
        <time>2021-10-12T18:29:00Z</time>
      </trkpt>
      <trkpt lat="39.716040" lon="-6.133532">
        <ele>372.272</ele>
        <time>2021-10-12T18:29:01Z</time>
      </trkpt>
      <trkpt lat="39.716272" lon="-6.133229">
        <ele>372.248</ele>
        <time>2021-10-12T18:29:02Z</time>
      </trkpt>
      <trkpt lat="39.716736" lon="-6.132617">
        <ele>373.161</ele>
        <time>2021-10-12T18:29:04Z</time>
      </trkpt>
      <trkpt lat="39.716990" lon="-6.132289">
        <ele>374.487</ele>
        <time>2021-10-12T18:29:05Z</time>
      </trkpt>
      <trkpt lat="39.717237" lon="-6.131966">
        <ele>375.166</ele>
        <time>2021-10-12T18:29:06Z</time>
      </trkpt>
      <trkpt lat="39.717685" lon="-6.131331">
        <ele>378.966</ele>
        <time>2021-10-12T18:29:08Z</time>
      </trkpt>
      <trkpt lat="39.718111" lon="-6.130754">
        <ele>377.367</ele>
        <time>2021-10-12T18:29:10Z</time>
      </trkpt>
      <trkpt lat="39.718320" lon="-6.130486">
        <ele>376.668</ele>
        <time>2021-10-12T18:29:11Z</time>
      </trkpt>
      <trkpt lat="39.718727" lon="-6.129993">
        <ele>377.442</ele>
        <time>2021-10-12T18:29:13Z</time>
      </trkpt>
      <trkpt lat="39.718935" lon="-6.129764">
        <ele>378.526</ele>
        <time>2021-10-12T18:29:14Z</time>
      </trkpt>
      <trkpt lat="39.719373" lon="-6.129363">
        <ele>374.608</ele>
        <time>2021-10-12T18:29:16Z</time>
      </trkpt>
      <trkpt lat="39.719835" lon="-6.129012">
        <ele>372.694</ele>
        <time>2021-10-12T18:29:18Z</time>
      </trkpt>
      <trkpt lat="39.720063" lon="-6.128835">
        <ele>371.662</ele>
        <time>2021-10-12T18:29:19Z</time>
      </trkpt>
      <trkpt lat="39.720287" lon="-6.128651">
        <ele>370.248</ele>
        <time>2021-10-12T18:29:20Z</time>
      </trkpt>
      <trkpt lat="39.720714" lon="-6.128251">
        <ele>373.441</ele>
        <time>2021-10-12T18:29:22Z</time>
      </trkpt>
      <trkpt lat="39.720917" lon="-6.128019">
        <ele>373.457</ele>
        <time>2021-10-12T18:29:23Z</time>
      </trkpt>
      <trkpt lat="39.721111" lon="-6.127772">
        <ele>373.086</ele>
        <time>2021-10-12T18:29:24Z</time>
      </trkpt>
      <trkpt lat="39.721297" lon="-6.127502">
        <ele>374.056</ele>
        <time>2021-10-12T18:29:25Z</time>
      </trkpt>
      <trkpt lat="39.721482" lon="-6.127202">
        <ele>375.417</ele>
        <time>2021-10-12T18:29:26Z</time>
      </trkpt>
      <trkpt lat="39.721843" lon="-6.126606">
        <ele>377.278</ele>
        <time>2021-10-12T18:29:28Z</time>
      </trkpt>
      <trkpt lat="39.722233" lon="-6.125993">
        <ele>378.633</ele>
        <time>2021-10-12T18:29:30Z</time>
      </trkpt>
      <trkpt lat="39.722629" lon="-6.125376">
        <ele>379.326</ele>
        <time>2021-10-12T18:29:32Z</time>
      </trkpt>
      <trkpt lat="39.722996" lon="-6.124814">
        <ele>377.708</ele>
        <time>2021-10-12T18:29:34Z</time>
      </trkpt>
      <trkpt lat="39.723184" lon="-6.124524">
        <ele>376.655</ele>
        <time>2021-10-12T18:29:35Z</time>
      </trkpt>
      <trkpt lat="39.723366" lon="-6.124236">
        <ele>376.243</ele>
        <time>2021-10-12T18:29:36Z</time>
      </trkpt>
      <trkpt lat="39.723543" lon="-6.123956">
        <ele>376.269</ele>
        <time>2021-10-12T18:29:37Z</time>
      </trkpt>
      <trkpt lat="39.723713" lon="-6.123689">
        <ele>374.982</ele>
        <time>2021-10-12T18:29:38Z</time>
      </trkpt>
      <trkpt lat="39.724042" lon="-6.123177">
        <ele>372.548</ele>
        <time>2021-10-12T18:29:40Z</time>
      </trkpt>
      <trkpt lat="39.724209" lon="-6.122915">
        <ele>371.857</ele>
        <time>2021-10-12T18:29:41Z</time>
      </trkpt>
      <trkpt lat="39.724551" lon="-6.122382">
        <ele>371.067</ele>
        <time>2021-10-12T18:29:43Z</time>
      </trkpt>
      <trkpt lat="39.724725" lon="-6.122109">
        <ele>370.658</ele>
        <time>2021-10-12T18:29:44Z</time>
      </trkpt>
      <trkpt lat="39.725073" lon="-6.121565">
        <ele>369.627</ele>
        <time>2021-10-12T18:29:46Z</time>
      </trkpt>
      <trkpt lat="39.725402" lon="-6.120984">
        <ele>369.668</ele>
        <time>2021-10-12T18:29:48Z</time>
      </trkpt>
      <trkpt lat="39.725540" lon="-6.120668">
        <ele>367.914</ele>
        <time>2021-10-12T18:29:49Z</time>
      </trkpt>
      <trkpt lat="39.725653" lon="-6.120338">
        <ele>368.608</ele>
        <time>2021-10-12T18:29:50Z</time>
      </trkpt>
      <trkpt lat="39.725840" lon="-6.119685">
        <ele>374.080</ele>
        <time>2021-10-12T18:29:52Z</time>
      </trkpt>
      <trkpt lat="39.726034" lon="-6.119051">
        <ele>373.638</ele>
        <time>2021-10-12T18:29:54Z</time>
      </trkpt>
      <trkpt lat="39.726157" lon="-6.118744">
        <ele>372.034</ele>
        <time>2021-10-12T18:29:55Z</time>
      </trkpt>
      <trkpt lat="39.726308" lon="-6.118432">
        <ele>370.257</ele>
        <time>2021-10-12T18:29:56Z</time>
      </trkpt>
      <trkpt lat="39.726665" lon="-6.117908">
        <ele>366.963</ele>
        <time>2021-10-12T18:29:58Z</time>
      </trkpt>
      <trkpt lat="39.726865" lon="-6.117646">
        <ele>366.412</ele>
        <time>2021-10-12T18:29:59Z</time>
      </trkpt>
      <trkpt lat="39.727074" lon="-6.117385">
        <ele>365.612</ele>
        <time>2021-10-12T18:30:00Z</time>
      </trkpt>
      <trkpt lat="39.727509" lon="-6.116863">
        <ele>361.143</ele>
        <time>2021-10-12T18:30:02Z</time>
      </trkpt>
      <trkpt lat="39.727939" lon="-6.116349">
        <ele>358.572</ele>
        <time>2021-10-12T18:30:04Z</time>
      </trkpt>
      <trkpt lat="39.728166" lon="-6.116089">
        <ele>358.513</ele>
        <time>2021-10-12T18:30:05Z</time>
      </trkpt>
      <trkpt lat="39.728652" lon="-6.115620">
        <ele>358.414</ele>
        <time>2021-10-12T18:30:07Z</time>
      </trkpt>
      <trkpt lat="39.728909" lon="-6.115414">
        <ele>362.108</ele>
        <time>2021-10-12T18:30:08Z</time>
      </trkpt>
      <trkpt lat="39.729411" lon="-6.115018">
        <ele>366.035</ele>
        <time>2021-10-12T18:30:10Z</time>
      </trkpt>
      <trkpt lat="39.729653" lon="-6.114822">
        <ele>366.943</ele>
        <time>2021-10-12T18:30:11Z</time>
      </trkpt>
      <trkpt lat="39.730111" lon="-6.114426">
        <ele>366.919</ele>
        <time>2021-10-12T18:30:13Z</time>
      </trkpt>
      <trkpt lat="39.730329" lon="-6.114218">
        <ele>365.012</ele>
        <time>2021-10-12T18:30:14Z</time>
      </trkpt>
      <trkpt lat="39.730742" lon="-6.113766">
        <ele>360.328</ele>
        <time>2021-10-12T18:30:16Z</time>
      </trkpt>
      <trkpt lat="39.731143" lon="-6.113267">
        <ele>361.157</ele>
        <time>2021-10-12T18:30:18Z</time>
      </trkpt>
      <trkpt lat="39.731352" lon="-6.113015">
        <ele>360.357</ele>
        <time>2021-10-12T18:30:19Z</time>
      </trkpt>
      <trkpt lat="39.731775" lon="-6.112519">
        <ele>358.558</ele>
        <time>2021-10-12T18:30:21Z</time>
      </trkpt>
      <trkpt lat="39.731993" lon="-6.112268">
        <ele>358.581</ele>
        <time>2021-10-12T18:30:22Z</time>
      </trkpt>
      <trkpt lat="39.732430" lon="-6.111766">
        <ele>355.561</ele>
        <time>2021-10-12T18:30:24Z</time>
      </trkpt>
      <trkpt lat="39.732649" lon="-6.111511">
        <ele>355.617</ele>
        <time>2021-10-12T18:30:25Z</time>
      </trkpt>
      <trkpt lat="39.732873" lon="-6.111249">
        <ele>356.208</ele>
        <time>2021-10-12T18:30:26Z</time>
      </trkpt>
      <trkpt lat="39.733300" lon="-6.110750">
        <ele>354.996</ele>
        <time>2021-10-12T18:30:28Z</time>
      </trkpt>
      <trkpt lat="39.733740" lon="-6.110242">
        <ele>352.434</ele>
        <time>2021-10-12T18:30:30Z</time>
      </trkpt>
      <trkpt lat="39.733966" lon="-6.109988">
        <ele>350.440</ele>
        <time>2021-10-12T18:30:31Z</time>
      </trkpt>
      <trkpt lat="39.734198" lon="-6.109717">
        <ele>347.813</ele>
        <time>2021-10-12T18:30:32Z</time>
      </trkpt>
      <trkpt lat="39.734615" lon="-6.109190">
        <ele>347.829</ele>
        <time>2021-10-12T18:30:34Z</time>
      </trkpt>
      <trkpt lat="39.734799" lon="-6.108890">
        <ele>350.158</ele>
        <time>2021-10-12T18:30:35Z</time>
      </trkpt>
      <trkpt lat="39.735088" lon="-6.108214">
        <ele>351.358</ele>
        <time>2021-10-12T18:30:37Z</time>
      </trkpt>
      <trkpt lat="39.735204" lon="-6.107842">
        <ele>350.269</ele>
        <time>2021-10-12T18:30:38Z</time>
      </trkpt>
      <trkpt lat="39.735336" lon="-6.107066">
        <ele>349.784</ele>
        <time>2021-10-12T18:30:40Z</time>
      </trkpt>
      <trkpt lat="39.735350" lon="-6.106265">
        <ele>352.407</ele>
        <time>2021-10-12T18:30:42Z</time>
      </trkpt>
      <trkpt lat="39.735332" lon="-6.105861">
        <ele>355.017</ele>
        <time>2021-10-12T18:30:43Z</time>
      </trkpt>
      <trkpt lat="39.735314" lon="-6.105462">
        <ele>356.108</ele>
        <time>2021-10-12T18:30:44Z</time>
      </trkpt>
      <trkpt lat="39.735292" lon="-6.104742">
        <ele>357.976</ele>
        <time>2021-10-12T18:30:46Z</time>
      </trkpt>
      <trkpt lat="39.735353" lon="-6.104054">
        <ele>358.274</ele>
        <time>2021-10-12T18:30:48Z</time>
      </trkpt>
      <trkpt lat="39.735428" lon="-6.103728">
        <ele>357.270</ele>
        <time>2021-10-12T18:30:49Z</time>
      </trkpt>
      <trkpt lat="39.735531" lon="-6.103418">
        <ele>354.973</ele>
        <time>2021-10-12T18:30:50Z</time>
      </trkpt>
      <trkpt lat="39.735807" lon="-6.102838">
        <ele>351.249</ele>
        <time>2021-10-12T18:30:52Z</time>
      </trkpt>
      <trkpt lat="39.735958" lon="-6.102545">
        <ele>351.128</ele>
        <time>2021-10-12T18:30:53Z</time>
      </trkpt>
      <trkpt lat="39.736106" lon="-6.102249">
        <ele>352.078</ele>
        <time>2021-10-12T18:30:54Z</time>
      </trkpt>
      <trkpt lat="39.736242" lon="-6.101950">
        <ele>352.559</ele>
        <time>2021-10-12T18:30:55Z</time>
      </trkpt>
      <trkpt lat="39.736363" lon="-6.101647">
        <ele>353.899</ele>
        <time>2021-10-12T18:30:56Z</time>
      </trkpt>
      <trkpt lat="39.736536" lon="-6.101079">
        <ele>350.907</ele>
        <time>2021-10-12T18:30:58Z</time>
      </trkpt>
      <trkpt lat="39.736597" lon="-6.100795">
        <ele>350.227</ele>
        <time>2021-10-12T18:30:59Z</time>
      </trkpt>
      <trkpt lat="39.736653" lon="-6.100517">
        <ele>350.008</ele>
        <time>2021-10-12T18:31:00Z</time>
      </trkpt>
      <trkpt lat="39.736770" lon="-6.099923">
        <ele>348.487</ele>
        <time>2021-10-12T18:31:02Z</time>
      </trkpt>
      <trkpt lat="39.736899" lon="-6.099327">
        <ele>345.295</ele>
        <time>2021-10-12T18:31:04Z</time>
      </trkpt>
      <trkpt lat="39.736968" lon="-6.099010">
        <ele>345.781</ele>
        <time>2021-10-12T18:31:05Z</time>
      </trkpt>
      <trkpt lat="39.737103" lon="-6.098383">
        <ele>347.574</ele>
        <time>2021-10-12T18:31:07Z</time>
      </trkpt>
      <trkpt lat="39.737170" lon="-6.098073">
        <ele>346.120</ele>
        <time>2021-10-12T18:31:08Z</time>
      </trkpt>
      <trkpt lat="39.737299" lon="-6.097474">
        <ele>343.879</ele>
        <time>2021-10-12T18:31:10Z</time>
      </trkpt>
      <trkpt lat="39.737366" lon="-6.097162">
        <ele>344.799</ele>
        <time>2021-10-12T18:31:11Z</time>
      </trkpt>
      <trkpt lat="39.737434" lon="-6.096849">
        <ele>345.480</ele>
        <time>2021-10-12T18:31:12Z</time>
      </trkpt>
      <trkpt lat="39.737602" lon="-6.096205">
        <ele>345.499</ele>
        <time>2021-10-12T18:31:14Z</time>
      </trkpt>
      <trkpt lat="39.737838" lon="-6.095585">
        <ele>343.707</ele>
        <time>2021-10-12T18:31:16Z</time>
      </trkpt>
      <trkpt lat="39.737989" lon="-6.095275">
        <ele>341.727</ele>
        <time>2021-10-12T18:31:17Z</time>
      </trkpt>
      <trkpt lat="39.738149" lon="-6.094965">
        <ele>339.508</ele>
        <time>2021-10-12T18:31:18Z</time>
      </trkpt>
      <trkpt lat="39.738494" lon="-6.094326">
        <ele>339.837</ele>
        <time>2021-10-12T18:31:20Z</time>
      </trkpt>
      <trkpt lat="39.738874" lon="-6.093718">
        <ele>338.785</ele>
        <time>2021-10-12T18:31:22Z</time>
      </trkpt>
      <trkpt lat="39.739098" lon="-6.093445">
        <ele>339.711</ele>
        <time>2021-10-12T18:31:23Z</time>
      </trkpt>
      <trkpt lat="39.739602" lon="-6.092991">
        <ele>340.974</ele>
        <time>2021-10-12T18:31:25Z</time>
      </trkpt>
      <trkpt lat="39.739892" lon="-6.092799">
        <ele>338.580</ele>
        <time>2021-10-12T18:31:26Z</time>
      </trkpt>
      <trkpt lat="39.740423" lon="-6.092495">
        <ele>336.079</ele>
        <time>2021-10-12T18:31:28Z</time>
      </trkpt>
      <trkpt lat="39.740922" lon="-6.092110">
        <ele>334.869</ele>
        <time>2021-10-12T18:31:30Z</time>
      </trkpt>
      <trkpt lat="39.741365" lon="-6.091582">
        <ele>330.780</ele>
        <time>2021-10-12T18:31:32Z</time>
      </trkpt>
      <trkpt lat="39.741713" lon="-6.090965">
        <ele>324.754</ele>
        <time>2021-10-12T18:31:34Z</time>
      </trkpt>
      <trkpt lat="39.741872" lon="-6.090643">
        <ele>322.156</ele>
        <time>2021-10-12T18:31:35Z</time>
      </trkpt>
      <trkpt lat="39.742169" lon="-6.090050">
        <ele>325.211</ele>
        <time>2021-10-12T18:31:37Z</time>
      </trkpt>
      <trkpt lat="39.742308" lon="-6.089763">
        <ele>326.608</ele>
        <time>2021-10-12T18:31:38Z</time>
      </trkpt>
      <trkpt lat="39.742552" lon="-6.089157">
        <ele>329.293</ele>
        <time>2021-10-12T18:31:40Z</time>
      </trkpt>
      <trkpt lat="39.742645" lon="-6.088830">
        <ele>332.261</ele>
        <time>2021-10-12T18:31:41Z</time>
      </trkpt>
      <trkpt lat="39.742734" lon="-6.088152">
        <ele>335.287</ele>
        <time>2021-10-12T18:31:43Z</time>
      </trkpt>
      <trkpt lat="39.742737" lon="-6.087796">
        <ele>335.680</ele>
        <time>2021-10-12T18:31:44Z</time>
      </trkpt>
      <trkpt lat="39.742703" lon="-6.087086">
        <ele>335.216</ele>
        <time>2021-10-12T18:31:46Z</time>
      </trkpt>
      <trkpt lat="39.742684" lon="-6.086723">
        <ele>335.095</ele>
        <time>2021-10-12T18:31:47Z</time>
      </trkpt>
      <trkpt lat="39.742708" lon="-6.085992">
        <ele>335.055</ele>
        <time>2021-10-12T18:31:49Z</time>
      </trkpt>
      <trkpt lat="39.742841" lon="-6.085265">
        <ele>334.866</ele>
        <time>2021-10-12T18:31:51Z</time>
      </trkpt>
      <trkpt lat="39.742950" lon="-6.084905">
        <ele>334.927</ele>
        <time>2021-10-12T18:31:52Z</time>
      </trkpt>
      <trkpt lat="39.743084" lon="-6.084557">
        <ele>336.068</ele>
        <time>2021-10-12T18:31:53Z</time>
      </trkpt>
      <trkpt lat="39.743243" lon="-6.084218">
        <ele>335.814</ele>
        <time>2021-10-12T18:31:54Z</time>
      </trkpt>
      <trkpt lat="39.743423" lon="-6.083886">
        <ele>335.408</ele>
        <time>2021-10-12T18:31:55Z</time>
      </trkpt>
      <trkpt lat="39.743620" lon="-6.083553">
        <ele>336.030</ele>
        <time>2021-10-12T18:31:56Z</time>
      </trkpt>
      <trkpt lat="39.743997" lon="-6.082914">
        <ele>338.698</ele>
        <time>2021-10-12T18:31:58Z</time>
      </trkpt>
      <trkpt lat="39.744363" lon="-6.082258">
        <ele>340.324</ele>
        <time>2021-10-12T18:32:00Z</time>
      </trkpt>
      <trkpt lat="39.744541" lon="-6.081921">
        <ele>340.457</ele>
        <time>2021-10-12T18:32:01Z</time>
      </trkpt>
      <trkpt lat="39.744728" lon="-6.081584">
        <ele>341.013</ele>
        <time>2021-10-12T18:32:02Z</time>
      </trkpt>
      <trkpt lat="39.745070" lon="-6.080955">
        <ele>340.882</ele>
        <time>2021-10-12T18:32:04Z</time>
      </trkpt>
      <trkpt lat="39.745389" lon="-6.080372">
        <ele>340.882</ele>
        <time>2021-10-12T18:32:06Z</time>
      </trkpt>
      <trkpt lat="39.745691" lon="-6.079792">
        <ele>340.923</ele>
        <time>2021-10-12T18:32:08Z</time>
      </trkpt>
      <trkpt lat="39.746015" lon="-6.079206">
        <ele>342.717</ele>
        <time>2021-10-12T18:32:10Z</time>
      </trkpt>
      <trkpt lat="39.746185" lon="-6.078911">
        <ele>343.087</ele>
        <time>2021-10-12T18:32:11Z</time>
      </trkpt>
      <trkpt lat="39.746514" lon="-6.078312">
        <ele>339.515</ele>
        <time>2021-10-12T18:32:13Z</time>
      </trkpt>
      <trkpt lat="39.746680" lon="-6.078005">
        <ele>338.808</ele>
        <time>2021-10-12T18:32:14Z</time>
      </trkpt>
      <trkpt lat="39.746993" lon="-6.077390">
        <ele>338.059</ele>
        <time>2021-10-12T18:32:16Z</time>
      </trkpt>
      <trkpt lat="39.747133" lon="-6.077066">
        <ele>337.887</ele>
        <time>2021-10-12T18:32:17Z</time>
      </trkpt>
      <trkpt lat="39.747248" lon="-6.076729">
        <ele>337.143</ele>
        <time>2021-10-12T18:32:18Z</time>
      </trkpt>
      <trkpt lat="39.747414" lon="-6.076016">
        <ele>335.016</ele>
        <time>2021-10-12T18:32:20Z</time>
      </trkpt>
      <trkpt lat="39.747521" lon="-6.075299">
        <ele>333.992</ele>
        <time>2021-10-12T18:32:22Z</time>
      </trkpt>
      <trkpt lat="39.747563" lon="-6.074936">
        <ele>332.751</ele>
        <time>2021-10-12T18:32:23Z</time>
      </trkpt>
      <trkpt lat="39.747649" lon="-6.074254">
        <ele>333.131</ele>
        <time>2021-10-12T18:32:25Z</time>
      </trkpt>
      <trkpt lat="39.747698" lon="-6.073911">
        <ele>333.592</ele>
        <time>2021-10-12T18:32:26Z</time>
      </trkpt>
      <trkpt lat="39.747795" lon="-6.073265">
        <ele>331.288</ele>
        <time>2021-10-12T18:32:28Z</time>
      </trkpt>
      <trkpt lat="39.747899" lon="-6.072587">
        <ele>329.824</ele>
        <time>2021-10-12T18:32:30Z</time>
      </trkpt>
      <trkpt lat="39.748000" lon="-6.071864">
        <ele>330.426</ele>
        <time>2021-10-12T18:32:32Z</time>
      </trkpt>
      <trkpt lat="39.748107" lon="-6.071136">
        <ele>333.308</ele>
        <time>2021-10-12T18:32:34Z</time>
      </trkpt>
      <trkpt lat="39.748162" lon="-6.070753">
        <ele>330.176</ele>
        <time>2021-10-12T18:32:35Z</time>
      </trkpt>
      <trkpt lat="39.748273" lon="-6.070004">
        <ele>327.454</ele>
        <time>2021-10-12T18:32:37Z</time>
      </trkpt>
      <trkpt lat="39.748381" lon="-6.069314">
        <ele>327.380</ele>
        <time>2021-10-12T18:32:39Z</time>
      </trkpt>
      <trkpt lat="39.748540" lon="-6.068640">
        <ele>325.483</ele>
        <time>2021-10-12T18:32:41Z</time>
      </trkpt>
      <trkpt lat="39.748653" lon="-6.068308">
        <ele>323.829</ele>
        <time>2021-10-12T18:32:42Z</time>
      </trkpt>
      <trkpt lat="39.748780" lon="-6.067976">
        <ele>323.158</ele>
        <time>2021-10-12T18:32:43Z</time>
      </trkpt>
      <trkpt lat="39.748921" lon="-6.067636">
        <ele>322.818</ele>
        <time>2021-10-12T18:32:44Z</time>
      </trkpt>
      <trkpt lat="39.749229" lon="-6.066961">
        <ele>319.369</ele>
        <time>2021-10-12T18:32:46Z</time>
      </trkpt>
      <trkpt lat="39.749383" lon="-6.066622">
        <ele>317.927</ele>
        <time>2021-10-12T18:32:47Z</time>
      </trkpt>
      <trkpt lat="39.749672" lon="-6.065956">
        <ele>321.168</ele>
        <time>2021-10-12T18:32:49Z</time>
      </trkpt>
      <trkpt lat="39.749805" lon="-6.065618">
        <ele>318.614</ele>
        <time>2021-10-12T18:32:50Z</time>
      </trkpt>
      <trkpt lat="39.750031" lon="-6.064945">
        <ele>316.908</ele>
        <time>2021-10-12T18:32:52Z</time>
      </trkpt>
      <trkpt lat="39.750230" lon="-6.064260">
        <ele>314.130</ele>
        <time>2021-10-12T18:32:54Z</time>
      </trkpt>
      <trkpt lat="39.750336" lon="-6.063924">
        <ele>312.448</ele>
        <time>2021-10-12T18:32:55Z</time>
      </trkpt>
      <trkpt lat="39.750464" lon="-6.063583">
        <ele>313.264</ele>
        <time>2021-10-12T18:32:56Z</time>
      </trkpt>
      <trkpt lat="39.750762" lon="-6.062971">
        <ele>313.037</ele>
        <time>2021-10-12T18:32:58Z</time>
      </trkpt>
      <trkpt lat="39.751100" lon="-6.062353">
        <ele>312.693</ele>
        <time>2021-10-12T18:33:00Z</time>
      </trkpt>
      <trkpt lat="39.751270" lon="-6.062040">
        <ele>311.732</ele>
        <time>2021-10-12T18:33:01Z</time>
      </trkpt>
      <trkpt lat="39.751438" lon="-6.061712">
        <ele>310.092</ele>
        <time>2021-10-12T18:33:02Z</time>
      </trkpt>
      <trkpt lat="39.751722" lon="-6.061030">
        <ele>306.533</ele>
        <time>2021-10-12T18:33:04Z</time>
      </trkpt>
      <trkpt lat="39.751835" lon="-6.060655">
        <ele>303.944</ele>
        <time>2021-10-12T18:33:05Z</time>
      </trkpt>
      <trkpt lat="39.751926" lon="-6.060263">
        <ele>303.105</ele>
        <time>2021-10-12T18:33:06Z</time>
      </trkpt>
      <trkpt lat="39.752048" lon="-6.059472">
        <ele>309.715</ele>
        <time>2021-10-12T18:33:08Z</time>
      </trkpt>
      <trkpt lat="39.752160" lon="-6.058699">
        <ele>312.208</ele>
        <time>2021-10-12T18:33:10Z</time>
      </trkpt>
      <trkpt lat="39.752279" lon="-6.057971">
        <ele>313.392</ele>
        <time>2021-10-12T18:33:12Z</time>
      </trkpt>
      <trkpt lat="39.752392" lon="-6.057280">
        <ele>314.950</ele>
        <time>2021-10-12T18:33:14Z</time>
      </trkpt>
      <trkpt lat="39.752492" lon="-6.056597">
        <ele>314.056</ele>
        <time>2021-10-12T18:33:16Z</time>
      </trkpt>
      <trkpt lat="39.752581" lon="-6.055893">
        <ele>315.279</ele>
        <time>2021-10-12T18:33:18Z</time>
      </trkpt>
      <trkpt lat="39.752627" lon="-6.055541">
        <ele>316.145</ele>
        <time>2021-10-12T18:33:19Z</time>
      </trkpt>
      <trkpt lat="39.752724" lon="-6.054838">
        <ele>317.264</ele>
        <time>2021-10-12T18:33:21Z</time>
      </trkpt>
      <trkpt lat="39.752789" lon="-6.054479">
        <ele>317.014</ele>
        <time>2021-10-12T18:33:22Z</time>
      </trkpt>
      <trkpt lat="39.752992" lon="-6.053767">
        <ele>316.975</ele>
        <time>2021-10-12T18:33:24Z</time>
      </trkpt>
      <trkpt lat="39.753136" lon="-6.053415">
        <ele>318.525</ele>
        <time>2021-10-12T18:33:25Z</time>
      </trkpt>
      <trkpt lat="39.753303" lon="-6.053052">
        <ele>320.926</ele>
        <time>2021-10-12T18:33:26Z</time>
      </trkpt>
      <trkpt lat="39.753639" lon="-6.052394">
        <ele>323.508</ele>
        <time>2021-10-12T18:33:28Z</time>
      </trkpt>
      <trkpt lat="39.753957" lon="-6.051758">
        <ele>329.708</ele>
        <time>2021-10-12T18:33:30Z</time>
      </trkpt>
      <trkpt lat="39.754103" lon="-6.051459">
        <ele>329.380</ele>
        <time>2021-10-12T18:33:31Z</time>
      </trkpt>
      <trkpt lat="39.754249" lon="-6.051150">
        <ele>329.088</ele>
        <time>2021-10-12T18:33:32Z</time>
      </trkpt>
      <trkpt lat="39.754519" lon="-6.050579">
        <ele>329.854</ele>
        <time>2021-10-12T18:33:34Z</time>
      </trkpt>
      <trkpt lat="39.754661" lon="-6.050280">
        <ele>328.737</ele>
        <time>2021-10-12T18:33:35Z</time>
      </trkpt>
      <trkpt lat="39.754941" lon="-6.049669">
        <ele>328.683</ele>
        <time>2021-10-12T18:33:37Z</time>
      </trkpt>
      <trkpt lat="39.755088" lon="-6.049351">
        <ele>328.712</ele>
        <time>2021-10-12T18:33:38Z</time>
      </trkpt>
      <trkpt lat="39.755398" lon="-6.048704">
        <ele>328.852</ele>
        <time>2021-10-12T18:33:40Z</time>
      </trkpt>
      <trkpt lat="39.755554" lon="-6.048378">
        <ele>330.793</ele>
        <time>2021-10-12T18:33:41Z</time>
      </trkpt>
      <trkpt lat="39.755875" lon="-6.047722">
        <ele>330.594</ele>
        <time>2021-10-12T18:33:43Z</time>
      </trkpt>
      <trkpt lat="39.756038" lon="-6.047385">
        <ele>331.457</ele>
        <time>2021-10-12T18:33:44Z</time>
      </trkpt>
      <trkpt lat="39.756357" lon="-6.046715">
        <ele>332.222</ele>
        <time>2021-10-12T18:33:46Z</time>
      </trkpt>
      <trkpt lat="39.756517" lon="-6.046385">
        <ele>330.508</ele>
        <time>2021-10-12T18:33:47Z</time>
      </trkpt>
      <trkpt lat="39.756824" lon="-6.045743">
        <ele>330.427</ele>
        <time>2021-10-12T18:33:49Z</time>
      </trkpt>
      <trkpt lat="39.756974" lon="-6.045417">
        <ele>331.125</ele>
        <time>2021-10-12T18:33:50Z</time>
      </trkpt>
      <trkpt lat="39.757268" lon="-6.044784">
        <ele>334.391</ele>
        <time>2021-10-12T18:33:52Z</time>
      </trkpt>
      <trkpt lat="39.757568" lon="-6.044146">
        <ele>332.774</ele>
        <time>2021-10-12T18:33:54Z</time>
      </trkpt>
      <trkpt lat="39.757875" lon="-6.043493">
        <ele>331.570</ele>
        <time>2021-10-12T18:33:56Z</time>
      </trkpt>
      <trkpt lat="39.758166" lon="-6.042861">
        <ele>332.769</ele>
        <time>2021-10-12T18:33:58Z</time>
      </trkpt>
      <trkpt lat="39.758317" lon="-6.042539">
        <ele>332.129</ele>
        <time>2021-10-12T18:33:59Z</time>
      </trkpt>
      <trkpt lat="39.758616" lon="-6.041904">
        <ele>332.450</ele>
        <time>2021-10-12T18:34:01Z</time>
      </trkpt>
      <trkpt lat="39.758774" lon="-6.041573">
        <ele>335.116</ele>
        <time>2021-10-12T18:34:02Z</time>
      </trkpt>
      <trkpt lat="39.759069" lon="-6.040926">
        <ele>335.376</ele>
        <time>2021-10-12T18:34:04Z</time>
      </trkpt>
      <trkpt lat="39.759335" lon="-6.040222">
        <ele>331.813</ele>
        <time>2021-10-12T18:34:06Z</time>
      </trkpt>
      <trkpt lat="39.759436" lon="-6.039852">
        <ele>331.408</ele>
        <time>2021-10-12T18:34:07Z</time>
      </trkpt>
      <trkpt lat="39.759516" lon="-6.039476">
        <ele>329.929</ele>
        <time>2021-10-12T18:34:08Z</time>
      </trkpt>
      <trkpt lat="39.759647" lon="-6.038712">
        <ele>327.197</ele>
        <time>2021-10-12T18:34:10Z</time>
      </trkpt>
      <trkpt lat="39.759716" lon="-6.038324">
        <ele>325.933</ele>
        <time>2021-10-12T18:34:11Z</time>
      </trkpt>
      <trkpt lat="39.759792" lon="-6.037939">
        <ele>324.656</ele>
        <time>2021-10-12T18:34:12Z</time>
      </trkpt>
      <trkpt lat="39.759940" lon="-6.037192">
        <ele>323.032</ele>
        <time>2021-10-12T18:34:14Z</time>
      </trkpt>
      <trkpt lat="39.760072" lon="-6.036522">
        <ele>322.581</ele>
        <time>2021-10-12T18:34:16Z</time>
      </trkpt>
      <trkpt lat="39.760135" lon="-6.036202">
        <ele>322.561</ele>
        <time>2021-10-12T18:34:17Z</time>
      </trkpt>
      <trkpt lat="39.760256" lon="-6.035597">
        <ele>321.172</ele>
        <time>2021-10-12T18:34:19Z</time>
      </trkpt>
      <trkpt lat="39.760313" lon="-6.035310">
        <ele>320.034</ele>
        <time>2021-10-12T18:34:20Z</time>
      </trkpt>
      <trkpt lat="39.760419" lon="-6.034752">
        <ele>317.655</ele>
        <time>2021-10-12T18:34:22Z</time>
      </trkpt>
      <trkpt lat="39.760534" lon="-6.034176">
        <ele>316.910</ele>
        <time>2021-10-12T18:34:24Z</time>
      </trkpt>
      <trkpt lat="39.760644" lon="-6.033526">
        <ele>316.608</ele>
        <time>2021-10-12T18:34:26Z</time>
      </trkpt>
      <trkpt lat="39.760704" lon="-6.032844">
        <ele>315.531</ele>
        <time>2021-10-12T18:34:28Z</time>
      </trkpt>
      <trkpt lat="39.760702" lon="-6.032111">
        <ele>310.749</ele>
        <time>2021-10-12T18:34:30Z</time>
      </trkpt>
      <trkpt lat="39.760677" lon="-6.031734">
        <ele>310.915</ele>
        <time>2021-10-12T18:34:31Z</time>
      </trkpt>
      <trkpt lat="39.760650" lon="-6.031345">
        <ele>311.168</ele>
        <time>2021-10-12T18:34:32Z</time>
      </trkpt>
      <trkpt lat="39.760623" lon="-6.030620">
        <ele>313.164</ele>
        <time>2021-10-12T18:34:34Z</time>
      </trkpt>
      <trkpt lat="39.760693" lon="-6.029881">
        <ele>313.673</ele>
        <time>2021-10-12T18:34:36Z</time>
      </trkpt>
      <trkpt lat="39.760866" lon="-6.029154">
        <ele>308.093</ele>
        <time>2021-10-12T18:34:38Z</time>
      </trkpt>
      <trkpt lat="39.761103" lon="-6.028454">
        <ele>308.024</ele>
        <time>2021-10-12T18:34:40Z</time>
      </trkpt>
      <trkpt lat="39.761364" lon="-6.027760">
        <ele>310.052</ele>
        <time>2021-10-12T18:34:42Z</time>
      </trkpt>
      <trkpt lat="39.761614" lon="-6.027067">
        <ele>307.253</ele>
        <time>2021-10-12T18:34:44Z</time>
      </trkpt>
      <trkpt lat="39.761847" lon="-6.026380">
        <ele>303.008</ele>
        <time>2021-10-12T18:34:46Z</time>
      </trkpt>
      <trkpt lat="39.762084" lon="-6.025705">
        <ele>301.008</ele>
        <time>2021-10-12T18:34:48Z</time>
      </trkpt>
      <trkpt lat="39.762319" lon="-6.025023">
        <ele>301.083</ele>
        <time>2021-10-12T18:34:50Z</time>
      </trkpt>
      <trkpt lat="39.762551" lon="-6.024332">
        <ele>300.181</ele>
        <time>2021-10-12T18:34:52Z</time>
      </trkpt>
      <trkpt lat="39.762673" lon="-6.023976">
        <ele>300.257</ele>
        <time>2021-10-12T18:34:53Z</time>
      </trkpt>
      <trkpt lat="39.762909" lon="-6.023271">
        <ele>302.630</ele>
        <time>2021-10-12T18:34:55Z</time>
      </trkpt>
      <trkpt lat="39.763036" lon="-6.022899">
        <ele>301.516</ele>
        <time>2021-10-12T18:34:56Z</time>
      </trkpt>
      <trkpt lat="39.763273" lon="-6.022199">
        <ele>300.935</ele>
        <time>2021-10-12T18:34:58Z</time>
      </trkpt>
      <trkpt lat="39.763518" lon="-6.021453">
        <ele>301.835</ele>
        <time>2021-10-12T18:35:00Z</time>
      </trkpt>
      <trkpt lat="39.763650" lon="-6.021079">
        <ele>300.956</ele>
        <time>2021-10-12T18:35:01Z</time>
      </trkpt>
      <trkpt lat="39.763800" lon="-6.020700">
        <ele>301.537</ele>
        <time>2021-10-12T18:35:02Z</time>
      </trkpt>
      <trkpt lat="39.764148" lon="-6.020018">
        <ele>304.949</ele>
        <time>2021-10-12T18:35:04Z</time>
      </trkpt>
      <trkpt lat="39.764358" lon="-6.019704">
        <ele>304.113</ele>
        <time>2021-10-12T18:35:05Z</time>
      </trkpt>
      <trkpt lat="39.764803" lon="-6.019132">
        <ele>307.008</ele>
        <time>2021-10-12T18:35:07Z</time>
      </trkpt>
      <trkpt lat="39.765022" lon="-6.018852">
        <ele>308.191</ele>
        <time>2021-10-12T18:35:08Z</time>
      </trkpt>
      <trkpt lat="39.765424" lon="-6.018325">
        <ele>308.049</ele>
        <time>2021-10-12T18:35:10Z</time>
      </trkpt>
      <trkpt lat="39.765603" lon="-6.018079">
        <ele>308.075</ele>
        <time>2021-10-12T18:35:11Z</time>
      </trkpt>
      <trkpt lat="39.765932" lon="-6.017626">
        <ele>308.738</ele>
        <time>2021-10-12T18:35:13Z</time>
      </trkpt>
      <trkpt lat="39.766088" lon="-6.017417">
        <ele>308.874</ele>
        <time>2021-10-12T18:35:14Z</time>
      </trkpt>
      <trkpt lat="39.766373" lon="-6.017021">
        <ele>307.043</ele>
        <time>2021-10-12T18:35:16Z</time>
      </trkpt>
      <trkpt lat="39.766636" lon="-6.016652">
        <ele>308.493</ele>
        <time>2021-10-12T18:35:18Z</time>
      </trkpt>
      <trkpt lat="39.766763" lon="-6.016474">
        <ele>308.114</ele>
        <time>2021-10-12T18:35:19Z</time>
      </trkpt>
      <trkpt lat="39.766882" lon="-6.016299">
        <ele>307.251</ele>
        <time>2021-10-12T18:35:20Z</time>
      </trkpt>
      <trkpt lat="39.767091" lon="-6.015964">
        <ele>304.901</ele>
        <time>2021-10-12T18:35:22Z</time>
      </trkpt>
      <trkpt lat="39.767180" lon="-6.015801">
        <ele>304.411</ele>
        <time>2021-10-12T18:35:23Z</time>
      </trkpt>
      <trkpt lat="39.767323" lon="-6.015480">
        <ele>305.508</ele>
        <time>2021-10-12T18:35:25Z</time>
      </trkpt>
      <trkpt lat="39.767383" lon="-6.015317">
        <ele>306.723</ele>
        <time>2021-10-12T18:35:26Z</time>
      </trkpt>
      <trkpt lat="39.767482" lon="-6.014986">
        <ele>309.081</ele>
        <time>2021-10-12T18:35:28Z</time>
      </trkpt>
      <trkpt lat="39.767528" lon="-6.014799">
        <ele>309.567</ele>
        <time>2021-10-12T18:35:29Z</time>
      </trkpt>
      <trkpt lat="39.767591" lon="-6.014378">
        <ele>309.840</ele>
        <time>2021-10-12T18:35:31Z</time>
      </trkpt>
      <trkpt lat="39.767614" lon="-6.014133">
        <ele>309.956</ele>
        <time>2021-10-12T18:35:32Z</time>
      </trkpt>
      <trkpt lat="39.767653" lon="-6.013620">
        <ele>308.555</ele>
        <time>2021-10-12T18:35:34Z</time>
      </trkpt>
      <trkpt lat="39.767688" lon="-6.013093">
        <ele>309.945</ele>
        <time>2021-10-12T18:35:36Z</time>
      </trkpt>
      <trkpt lat="39.767718" lon="-6.012627">
        <ele>309.896</ele>
        <time>2021-10-12T18:35:38Z</time>
      </trkpt>
      <trkpt lat="39.767736" lon="-6.012261">
        <ele>309.436</ele>
        <time>2021-10-12T18:35:40Z</time>
      </trkpt>
      <trkpt lat="39.767744" lon="-6.012106">
        <ele>309.417</ele>
        <time>2021-10-12T18:35:41Z</time>
      </trkpt>
      <trkpt lat="39.767762" lon="-6.011829">
        <ele>309.518</ele>
        <time>2021-10-12T18:35:43Z</time>
      </trkpt>
      <trkpt lat="39.767769" lon="-6.011691">
        <ele>309.908</ele>
        <time>2021-10-12T18:35:44Z</time>
      </trkpt>
      <trkpt lat="39.767786" lon="-6.011442">
        <ele>309.111</ele>
        <time>2021-10-12T18:35:46Z</time>
      </trkpt>
      <trkpt lat="39.767800" lon="-6.011218">
        <ele>308.989</ele>
        <time>2021-10-12T18:35:48Z</time>
      </trkpt>
      <trkpt lat="39.767805" lon="-6.011117">
        <ele>308.985</ele>
        <time>2021-10-12T18:35:49Z</time>
      </trkpt>
      <trkpt lat="39.767809" lon="-6.011032">
        <ele>309.298</ele>
        <time>2021-10-12T18:35:50Z</time>
      </trkpt>
      <trkpt lat="39.767813" lon="-6.010944">
        <ele>309.624</ele>
        <time>2021-10-12T18:35:52Z</time>
      </trkpt>
      <trkpt lat="39.767816" lon="-6.010883">
        <ele>309.813</ele>
        <time>2021-10-12T18:35:56Z</time>
      </trkpt>
      <trkpt lat="39.767915" lon="-6.010804">
        <ele>310.173</ele>
        <time>2021-10-12T18:36:00Z</time>
      </trkpt>
      <trkpt lat="39.768002" lon="-6.010798">
        <ele>310.154</ele>
        <time>2021-10-12T18:36:01Z</time>
      </trkpt>
      <trkpt lat="39.768100" lon="-6.010817">
        <ele>309.445</ele>
        <time>2021-10-12T18:36:02Z</time>
      </trkpt>
      <trkpt lat="39.768276" lon="-6.010872">
        <ele>306.747</ele>
        <time>2021-10-12T18:36:04Z</time>
      </trkpt>
      <trkpt lat="39.768360" lon="-6.010903">
        <ele>305.611</ele>
        <time>2021-10-12T18:36:05Z</time>
      </trkpt>
      <trkpt lat="39.768571" lon="-6.010969">
        <ele>303.808</ele>
        <time>2021-10-12T18:36:07Z</time>
      </trkpt>
      <trkpt lat="39.768706" lon="-6.011007">
        <ele>302.882</ele>
        <time>2021-10-12T18:36:08Z</time>
      </trkpt>
      <trkpt lat="39.768966" lon="-6.011075">
        <ele>301.220</ele>
        <time>2021-10-12T18:36:10Z</time>
      </trkpt>
      <trkpt lat="39.769222" lon="-6.011145">
        <ele>300.586</ele>
        <time>2021-10-12T18:36:12Z</time>
      </trkpt>
      <trkpt lat="39.769452" lon="-6.011211">
        <ele>298.749</ele>
        <time>2021-10-12T18:36:14Z</time>
      </trkpt>
      <trkpt lat="39.769652" lon="-6.011270">
        <ele>299.965</ele>
        <time>2021-10-12T18:36:16Z</time>
      </trkpt>
      <trkpt lat="39.769745" lon="-6.011296">
        <ele>300.594</ele>
        <time>2021-10-12T18:36:17Z</time>
      </trkpt>
      <trkpt lat="39.769916" lon="-6.011341">
        <ele>301.624</ele>
        <time>2021-10-12T18:36:19Z</time>
      </trkpt>
      <trkpt lat="39.770009" lon="-6.011365">
        <ele>302.165</ele>
        <time>2021-10-12T18:36:20Z</time>
      </trkpt>
      <trkpt lat="39.770188" lon="-6.011415">
        <ele>302.792</ele>
        <time>2021-10-12T18:36:22Z</time>
      </trkpt>
      <trkpt lat="39.770281" lon="-6.011443">
        <ele>303.073</ele>
        <time>2021-10-12T18:36:23Z</time>
      </trkpt>
      <trkpt lat="39.770472" lon="-6.011502">
        <ele>303.320</ele>
        <time>2021-10-12T18:36:25Z</time>
      </trkpt>
      <trkpt lat="39.770571" lon="-6.011530">
        <ele>303.508</ele>
        <time>2021-10-12T18:36:26Z</time>
      </trkpt>
      <trkpt lat="39.770744" lon="-6.011572">
        <ele>303.757</ele>
        <time>2021-10-12T18:36:28Z</time>
      </trkpt>
      <trkpt lat="39.770922" lon="-6.011614">
        <ele>303.995</ele>
        <time>2021-10-12T18:36:30Z</time>
      </trkpt>
      <trkpt lat="39.771016" lon="-6.011638">
        <ele>304.071</ele>
        <time>2021-10-12T18:36:31Z</time>
      </trkpt>
      <trkpt lat="39.771115" lon="-6.011663">
        <ele>304.024</ele>
        <time>2021-10-12T18:36:32Z</time>
      </trkpt>
      <trkpt lat="39.771293" lon="-6.011713">
        <ele>305.470</ele>
        <time>2021-10-12T18:36:34Z</time>
      </trkpt>
      <trkpt lat="39.771378" lon="-6.011748">
        <ele>305.969</ele>
        <time>2021-10-12T18:36:35Z</time>
      </trkpt>
      <trkpt lat="39.771513" lon="-6.011853">
        <ele>307.389</ele>
        <time>2021-10-12T18:36:37Z</time>
      </trkpt>
      <trkpt lat="39.771563" lon="-6.011914">
        <ele>307.920</ele>
        <time>2021-10-12T18:36:38Z</time>
      </trkpt>
      <trkpt lat="39.771640" lon="-6.012022">
        <ele>309.024</ele>
        <time>2021-10-12T18:36:40Z</time>
      </trkpt>
      <trkpt lat="39.771718" lon="-6.012059">
        <ele>309.804</ele>
        <time>2021-10-12T18:36:42Z</time>
      </trkpt>
      <trkpt lat="39.771807" lon="-6.012045">
        <ele>310.514</ele>
        <time>2021-10-12T18:36:44Z</time>
      </trkpt>
      <trkpt lat="39.771878" lon="-6.012014">
        <ele>311.208</ele>
        <time>2021-10-12T18:36:45Z</time>
      </trkpt>
      <trkpt lat="39.772036" lon="-6.011924">
        <ele>312.090</ele>
        <time>2021-10-12T18:36:47Z</time>
      </trkpt>
      <trkpt lat="39.772189" lon="-6.011786">
        <ele>311.978</ele>
        <time>2021-10-12T18:36:49Z</time>
      </trkpt>
      <trkpt lat="39.772256" lon="-6.011704">
        <ele>312.134</ele>
        <time>2021-10-12T18:36:50Z</time>
      </trkpt>
      <trkpt lat="39.772347" lon="-6.011571">
        <ele>312.637</ele>
        <time>2021-10-12T18:36:52Z</time>
      </trkpt>
      <trkpt lat="39.772397" lon="-6.011547">
        <ele>312.933</ele>
        <time>2021-10-12T18:36:53Z</time>
      </trkpt>
      <trkpt lat="39.772428" lon="-6.011501">
        <ele>313.252</ele>
        <time>2021-10-12T18:36:55Z</time>
      </trkpt>
      <trkpt lat="39.772422" lon="-6.011437">
        <ele>313.342</ele>
        <time>2021-10-12T18:36:57Z</time>
      </trkpt>
      <trkpt lat="39.772385" lon="-6.011386">
        <ele>313.243</ele>
        <time>2021-10-12T18:37:00Z</time>
      </trkpt>
      <trkpt lat="39.772349" lon="-6.011338">
        <ele>312.873</ele>
        <time>2021-10-12T18:37:01Z</time>
      </trkpt>
      <trkpt lat="39.772287" lon="-6.011255">
        <ele>312.485</ele>
        <time>2021-10-12T18:37:03Z</time>
      </trkpt>
      <trkpt lat="39.772242" lon="-6.011195">
        <ele>312.113</ele>
        <time>2021-10-12T18:37:04Z</time>
      </trkpt>
      <trkpt lat="39.772200" lon="-6.011136">
        <ele>311.808</ele>
        <time>2021-10-12T18:37:05Z</time>
      </trkpt>
      <trkpt lat="39.772122" lon="-6.011032">
        <ele>311.015</ele>
        <time>2021-10-12T18:37:07Z</time>
      </trkpt>
      <trkpt lat="39.772051" lon="-6.010956">
        <ele>310.573</ele>
        <time>2021-10-12T18:37:09Z</time>
      </trkpt>
      <trkpt lat="39.771990" lon="-6.010897">
        <ele>310.169</ele>
        <time>2021-10-12T18:37:11Z</time>
      </trkpt>
      <trkpt lat="39.771936" lon="-6.010835">
        <ele>309.932</ele>
        <time>2021-10-12T18:37:13Z</time>
      </trkpt>
      <trkpt lat="39.771905" lon="-6.010790">
        <ele>309.848</ele>
        <time>2021-10-12T18:37:15Z</time>
      </trkpt>
      <trkpt lat="39.771873" lon="-6.010745">
        <ele>309.667</ele>
        <time>2021-10-12T18:37:30Z</time>
      </trkpt>
      <trkpt lat="39.771808" lon="-6.010666">
        <ele>309.497</ele>
        <time>2021-10-12T18:37:36Z</time>
      </trkpt>
      <trkpt lat="39.771737" lon="-6.010602">
        <ele>309.288</ele>
        <time>2021-10-12T18:37:38Z</time>
      </trkpt>
      <trkpt lat="39.771669" lon="-6.010545">
        <ele>309.069</ele>
        <time>2021-10-12T18:37:40Z</time>
      </trkpt>
      <trkpt lat="39.771633" lon="-6.010493">
        <ele>308.804</ele>
        <time>2021-10-12T18:37:42Z</time>
      </trkpt>
      <trkpt lat="39.771623" lon="-6.010430">
        <ele>308.724</ele>
        <time>2021-10-12T18:37:53Z</time>
      </trkpt>
      <trkpt lat="39.771669" lon="-6.010392">
        <ele>309.008</ele>
        <time>2021-10-12T18:37:58Z</time>
      </trkpt>
      <trkpt lat="39.771714" lon="-6.010415">
        <ele>309.444</ele>
        <time>2021-10-12T18:38:18Z</time>
      </trkpt>
      <trkpt lat="39.771665" lon="-6.010441">
        <ele>309.032</ele>
        <time>2021-10-12T18:39:31Z</time>
      </trkpt>
      <trkpt lat="39.841802" lon="-6.028507">
        <ele>276.118</ele>
        <time>2021-10-13T08:24:53Z</time>
      </trkpt>
      <trkpt lat="39.841819" lon="-6.028766">
        <ele>276.198</ele>
        <time>2021-10-13T08:24:54Z</time>
      </trkpt>
      <trkpt lat="39.841814" lon="-6.029058">
        <ele>276.117</ele>
        <time>2021-10-13T08:24:56Z</time>
      </trkpt>
      <trkpt lat="39.841809" lon="-6.029353">
        <ele>277.808</ele>
        <time>2021-10-13T08:24:58Z</time>
      </trkpt>
      <trkpt lat="39.841815" lon="-6.029646">
        <ele>277.739</ele>
        <time>2021-10-13T08:25:00Z</time>
      </trkpt>
      <trkpt lat="39.841820" lon="-6.029803">
        <ele>278.927</ele>
        <time>2021-10-13T08:25:01Z</time>
      </trkpt>
      <trkpt lat="39.841826" lon="-6.029955">
        <ele>279.194</ele>
        <time>2021-10-13T08:25:02Z</time>
      </trkpt>
      <trkpt lat="39.841853" lon="-6.030248">
        <ele>280.714</ele>
        <time>2021-10-13T08:25:04Z</time>
      </trkpt>
      <trkpt lat="39.841885" lon="-6.030372">
        <ele>282.197</ele>
        <time>2021-10-13T08:25:05Z</time>
      </trkpt>
      <trkpt lat="39.841989" lon="-6.030530">
        <ele>282.563</ele>
        <time>2021-10-13T08:25:07Z</time>
      </trkpt>
      <trkpt lat="39.842153" lon="-6.030530">
        <ele>283.892</ele>
        <time>2021-10-13T08:25:09Z</time>
      </trkpt>
      <trkpt lat="39.842234" lon="-6.030460">
        <ele>283.937</ele>
        <time>2021-10-13T08:25:10Z</time>
      </trkpt>
      <trkpt lat="39.842301" lon="-6.030352">
        <ele>283.934</ele>
        <time>2021-10-13T08:25:11Z</time>
      </trkpt>
      <trkpt lat="39.842396" lon="-6.030019">
        <ele>286.555</ele>
        <time>2021-10-13T08:25:13Z</time>
      </trkpt>
      <trkpt lat="39.842481" lon="-6.029603">
        <ele>289.410</ele>
        <time>2021-10-13T08:25:15Z</time>
      </trkpt>
      <trkpt lat="39.842583" lon="-6.029197">
        <ele>292.208</ele>
        <time>2021-10-13T08:25:17Z</time>
      </trkpt>
      <trkpt lat="39.842647" lon="-6.029001">
        <ele>292.261</ele>
        <time>2021-10-13T08:25:18Z</time>
      </trkpt>
      <trkpt lat="39.842728" lon="-6.028814">
        <ele>293.249</ele>
        <time>2021-10-13T08:25:19Z</time>
      </trkpt>
      <trkpt lat="39.842820" lon="-6.028639">
        <ele>294.496</ele>
        <time>2021-10-13T08:25:20Z</time>
      </trkpt>
      <trkpt lat="39.843020" lon="-6.028312">
        <ele>296.566</ele>
        <time>2021-10-13T08:25:22Z</time>
      </trkpt>
      <trkpt lat="39.843226" lon="-6.027982">
        <ele>297.649</ele>
        <time>2021-10-13T08:25:24Z</time>
      </trkpt>
      <trkpt lat="39.843329" lon="-6.027806">
        <ele>299.235</ele>
        <time>2021-10-13T08:25:25Z</time>
      </trkpt>
      <trkpt lat="39.843427" lon="-6.027626">
        <ele>300.954</ele>
        <time>2021-10-13T08:25:26Z</time>
      </trkpt>
      <trkpt lat="39.843601" lon="-6.027308">
        <ele>302.539</ele>
        <time>2021-10-13T08:25:28Z</time>
      </trkpt>
      <trkpt lat="39.843770" lon="-6.027104">
        <ele>304.674</ele>
        <time>2021-10-13T08:25:30Z</time>
      </trkpt>
      <trkpt lat="39.843859" lon="-6.027068">
        <ele>305.256</ele>
        <time>2021-10-13T08:25:31Z</time>
      </trkpt>
      <trkpt lat="39.844036" lon="-6.027127">
        <ele>306.721</ele>
        <time>2021-10-13T08:25:33Z</time>
      </trkpt>
      <trkpt lat="39.844208" lon="-6.027358">
        <ele>308.008</ele>
        <time>2021-10-13T08:25:35Z</time>
      </trkpt>
      <trkpt lat="39.844423" lon="-6.027658">
        <ele>309.135</ele>
        <time>2021-10-13T08:25:37Z</time>
      </trkpt>
      <trkpt lat="39.844547" lon="-6.027820">
        <ele>310.093</ele>
        <time>2021-10-13T08:25:38Z</time>
      </trkpt>
      <trkpt lat="39.844805" lon="-6.028151">
        <ele>308.470</ele>
        <time>2021-10-13T08:25:40Z</time>
      </trkpt>
      <trkpt lat="39.844933" lon="-6.028319">
        <ele>307.960</ele>
        <time>2021-10-13T08:25:41Z</time>
      </trkpt>
      <trkpt lat="39.845193" lon="-6.028647">
        <ele>308.293</ele>
        <time>2021-10-13T08:25:43Z</time>
      </trkpt>
      <trkpt lat="39.845457" lon="-6.028981">
        <ele>308.799</ele>
        <time>2021-10-13T08:25:45Z</time>
      </trkpt>
      <trkpt lat="39.845592" lon="-6.029152">
        <ele>308.788</ele>
        <time>2021-10-13T08:25:46Z</time>
      </trkpt>
      <trkpt lat="39.845857" lon="-6.029477">
        <ele>310.173</ele>
        <time>2021-10-13T08:25:48Z</time>
      </trkpt>
      <trkpt lat="39.846101" lon="-6.029775">
        <ele>310.744</ele>
        <time>2021-10-13T08:25:50Z</time>
      </trkpt>
      <trkpt lat="39.846215" lon="-6.029926">
        <ele>311.805</ele>
        <time>2021-10-13T08:25:51Z</time>
      </trkpt>
      <trkpt lat="39.846409" lon="-6.030235">
        <ele>312.715</ele>
        <time>2021-10-13T08:25:53Z</time>
      </trkpt>
      <trkpt lat="39.846581" lon="-6.030513">
        <ele>314.808</ele>
        <time>2021-10-13T08:25:55Z</time>
      </trkpt>
      <trkpt lat="39.846788" lon="-6.030719">
        <ele>316.142</ele>
        <time>2021-10-13T08:25:57Z</time>
      </trkpt>
      <trkpt lat="39.847044" lon="-6.030841">
        <ele>316.840</ele>
        <time>2021-10-13T08:25:59Z</time>
      </trkpt>
      <trkpt lat="39.847177" lon="-6.030901">
        <ele>317.967</ele>
        <time>2021-10-13T08:26:00Z</time>
      </trkpt>
      <trkpt lat="39.847437" lon="-6.031021">
        <ele>318.187</ele>
        <time>2021-10-13T08:26:02Z</time>
      </trkpt>
      <trkpt lat="39.847567" lon="-6.031082">
        <ele>318.550</ele>
        <time>2021-10-13T08:26:03Z</time>
      </trkpt>
      <trkpt lat="39.847823" lon="-6.031190">
        <ele>318.716</ele>
        <time>2021-10-13T08:26:05Z</time>
      </trkpt>
      <trkpt lat="39.847951" lon="-6.031237">
        <ele>318.895</ele>
        <time>2021-10-13T08:26:06Z</time>
      </trkpt>
      <trkpt lat="39.848075" lon="-6.031287">
        <ele>319.010</ele>
        <time>2021-10-13T08:26:07Z</time>
      </trkpt>
      <trkpt lat="39.848319" lon="-6.031390">
        <ele>318.119</ele>
        <time>2021-10-13T08:26:09Z</time>
      </trkpt>
      <trkpt lat="39.848572" lon="-6.031506">
        <ele>318.209</ele>
        <time>2021-10-13T08:26:11Z</time>
      </trkpt>
      <trkpt lat="39.848707" lon="-6.031570">
        <ele>318.219</ele>
        <time>2021-10-13T08:26:12Z</time>
      </trkpt>
      <trkpt lat="39.848973" lon="-6.031686">
        <ele>318.608</ele>
        <time>2021-10-13T08:26:14Z</time>
      </trkpt>
      <trkpt lat="39.849098" lon="-6.031739">
        <ele>318.879</ele>
        <time>2021-10-13T08:26:15Z</time>
      </trkpt>
      <trkpt lat="39.849337" lon="-6.031811">
        <ele>317.617</ele>
        <time>2021-10-13T08:26:17Z</time>
      </trkpt>
      <trkpt lat="39.849449" lon="-6.031804">
        <ele>317.664</ele>
        <time>2021-10-13T08:26:18Z</time>
      </trkpt>
      <trkpt lat="39.849647" lon="-6.031701">
        <ele>317.684</ele>
        <time>2021-10-13T08:26:20Z</time>
      </trkpt>
      <trkpt lat="39.849730" lon="-6.031598">
        <ele>317.697</ele>
        <time>2021-10-13T08:26:21Z</time>
      </trkpt>
      <trkpt lat="39.849796" lon="-6.031456">
        <ele>318.533</ele>
        <time>2021-10-13T08:26:22Z</time>
      </trkpt>
      <trkpt lat="39.849849" lon="-6.031283">
        <ele>318.552</ele>
        <time>2021-10-13T08:26:23Z</time>
      </trkpt>
      <trkpt lat="39.849989" lon="-6.030933">
        <ele>319.937</ele>
        <time>2021-10-13T08:26:25Z</time>
      </trkpt>
      <trkpt lat="39.850107" lon="-6.030797">
        <ele>320.331</ele>
        <time>2021-10-13T08:26:26Z</time>
      </trkpt>
      <trkpt lat="39.850390" lon="-6.030601">
        <ele>319.661</ele>
        <time>2021-10-13T08:26:28Z</time>
      </trkpt>
      <trkpt lat="39.850638" lon="-6.030406">
        <ele>320.907</ele>
        <time>2021-10-13T08:26:30Z</time>
      </trkpt>
      <trkpt lat="39.850814" lon="-6.030115">
        <ele>322.708</ele>
        <time>2021-10-13T08:26:32Z</time>
      </trkpt>
      <trkpt lat="39.850921" lon="-6.029755">
        <ele>322.841</ele>
        <time>2021-10-13T08:26:34Z</time>
      </trkpt>
      <trkpt lat="39.850946" lon="-6.029564">
        <ele>324.319</ele>
        <time>2021-10-13T08:26:35Z</time>
      </trkpt>
      <trkpt lat="39.850930" lon="-6.029176">
        <ele>325.326</ele>
        <time>2021-10-13T08:26:37Z</time>
      </trkpt>
      <trkpt lat="39.850918" lon="-6.028979">
        <ele>326.166</ele>
        <time>2021-10-13T08:26:38Z</time>
      </trkpt>
      <trkpt lat="39.850906" lon="-6.028778">
        <ele>326.769</ele>
        <time>2021-10-13T08:26:39Z</time>
      </trkpt>
      <trkpt lat="39.850893" lon="-6.028378">
        <ele>327.675</ele>
        <time>2021-10-13T08:26:41Z</time>
      </trkpt>
      <trkpt lat="39.850938" lon="-6.027974">
        <ele>329.574</ele>
        <time>2021-10-13T08:26:43Z</time>
      </trkpt>
      <trkpt lat="39.850989" lon="-6.027773">
        <ele>330.519</ele>
        <time>2021-10-13T08:26:44Z</time>
      </trkpt>
      <trkpt lat="39.851131" lon="-6.027391">
        <ele>332.121</ele>
        <time>2021-10-13T08:26:46Z</time>
      </trkpt>
      <trkpt lat="39.851284" lon="-6.027037">
        <ele>333.741</ele>
        <time>2021-10-13T08:26:48Z</time>
      </trkpt>
      <trkpt lat="39.851359" lon="-6.026681">
        <ele>332.905</ele>
        <time>2021-10-13T08:26:50Z</time>
      </trkpt>
      <trkpt lat="39.851348" lon="-6.026501">
        <ele>333.308</ele>
        <time>2021-10-13T08:26:51Z</time>
      </trkpt>
      <trkpt lat="39.851256" lon="-6.026158">
        <ele>334.150</ele>
        <time>2021-10-13T08:26:53Z</time>
      </trkpt>
      <trkpt lat="39.851210" lon="-6.025793">
        <ele>335.338</ele>
        <time>2021-10-13T08:26:55Z</time>
      </trkpt>
      <trkpt lat="39.851225" lon="-6.025591">
        <ele>336.065</ele>
        <time>2021-10-13T08:26:56Z</time>
      </trkpt>
      <trkpt lat="39.851301" lon="-6.025225">
        <ele>338.085</ele>
        <time>2021-10-13T08:26:58Z</time>
      </trkpt>
      <trkpt lat="39.851475" lon="-6.024937">
        <ele>339.048</ele>
        <time>2021-10-13T08:27:00Z</time>
      </trkpt>
      <trkpt lat="39.851602" lon="-6.024826">
        <ele>339.314</ele>
        <time>2021-10-13T08:27:01Z</time>
      </trkpt>
      <trkpt lat="39.851889" lon="-6.024657">
        <ele>339.683</ele>
        <time>2021-10-13T08:27:03Z</time>
      </trkpt>
      <trkpt lat="39.852044" lon="-6.024593">
        <ele>339.838</ele>
        <time>2021-10-13T08:27:04Z</time>
      </trkpt>
      <trkpt lat="39.852371" lon="-6.024479">
        <ele>339.616</ele>
        <time>2021-10-13T08:27:06Z</time>
      </trkpt>
      <trkpt lat="39.852689" lon="-6.024364">
        <ele>338.576</ele>
        <time>2021-10-13T08:27:08Z</time>
      </trkpt>
      <trkpt lat="39.852844" lon="-6.024321">
        <ele>338.513</ele>
        <time>2021-10-13T08:27:09Z</time>
      </trkpt>
      <trkpt lat="39.853149" lon="-6.024305">
        <ele>339.008</ele>
        <time>2021-10-13T08:27:11Z</time>
      </trkpt>
      <trkpt lat="39.853295" lon="-6.024353">
        <ele>339.629</ele>
        <time>2021-10-13T08:27:12Z</time>
      </trkpt>
      <trkpt lat="39.853547" lon="-6.024577">
        <ele>339.527</ele>
        <time>2021-10-13T08:27:14Z</time>
      </trkpt>
      <trkpt lat="39.853655" lon="-6.024744">
        <ele>339.114</ele>
        <time>2021-10-13T08:27:15Z</time>
      </trkpt>
      <trkpt lat="39.853750" lon="-6.024933">
        <ele>338.374</ele>
        <time>2021-10-13T08:27:16Z</time>
      </trkpt>
      <trkpt lat="39.853836" lon="-6.025128">
        <ele>339.267</ele>
        <time>2021-10-13T08:27:17Z</time>
      </trkpt>
      <trkpt lat="39.853997" lon="-6.025525">
        <ele>342.033</ele>
        <time>2021-10-13T08:27:19Z</time>
      </trkpt>
      <trkpt lat="39.854160" lon="-6.025911">
        <ele>344.042</ele>
        <time>2021-10-13T08:27:21Z</time>
      </trkpt>
      <trkpt lat="39.854233" lon="-6.026084">
        <ele>345.077</ele>
        <time>2021-10-13T08:27:22Z</time>
      </trkpt>
      <trkpt lat="39.854349" lon="-6.026358">
        <ele>346.353</ele>
        <time>2021-10-13T08:27:24Z</time>
      </trkpt>
      <trkpt lat="39.854454" lon="-6.026564">
        <ele>347.504</ele>
        <time>2021-10-13T08:27:26Z</time>
      </trkpt>
      <trkpt lat="39.854613" lon="-6.026722">
        <ele>348.714</ele>
        <time>2021-10-13T08:27:28Z</time>
      </trkpt>
      <trkpt lat="39.854708" lon="-6.026774">
        <ele>349.508</ele>
        <time>2021-10-13T08:27:29Z</time>
      </trkpt>
      <trkpt lat="39.854800" lon="-6.026798">
        <ele>349.513</ele>
        <time>2021-10-13T08:27:30Z</time>
      </trkpt>
      <trkpt lat="39.854882" lon="-6.026799">
        <ele>348.641</ele>
        <time>2021-10-13T08:27:31Z</time>
      </trkpt>
      <trkpt lat="39.855026" lon="-6.026762">
        <ele>347.288</ele>
        <time>2021-10-13T08:27:33Z</time>
      </trkpt>
      <trkpt lat="39.855093" lon="-6.026764">
        <ele>347.248</ele>
        <time>2021-10-13T08:27:34Z</time>
      </trkpt>
      <trkpt lat="39.855233" lon="-6.026794">
        <ele>347.291</ele>
        <time>2021-10-13T08:27:36Z</time>
      </trkpt>
      <trkpt lat="39.855380" lon="-6.026826">
        <ele>347.747</ele>
        <time>2021-10-13T08:27:38Z</time>
      </trkpt>
      <trkpt lat="39.855446" lon="-6.026825">
        <ele>348.526</ele>
        <time>2021-10-13T08:27:39Z</time>
      </trkpt>
      <trkpt lat="39.855543" lon="-6.026730">
        <ele>349.811</ele>
        <time>2021-10-13T08:27:41Z</time>
      </trkpt>
      <trkpt lat="39.855549" lon="-6.026508">
        <ele>351.215</ele>
        <time>2021-10-13T08:27:43Z</time>
      </trkpt>
      <trkpt lat="39.855538" lon="-6.026380">
        <ele>351.465</ele>
        <time>2021-10-13T08:27:44Z</time>
      </trkpt>
      <trkpt lat="39.855545" lon="-6.026104">
        <ele>351.111</ele>
        <time>2021-10-13T08:27:46Z</time>
      </trkpt>
      <trkpt lat="39.855650" lon="-6.025799">
        <ele>351.908</ele>
        <time>2021-10-13T08:27:48Z</time>
      </trkpt>
      <trkpt lat="39.855765" lon="-6.025499">
        <ele>352.459</ele>
        <time>2021-10-13T08:27:50Z</time>
      </trkpt>
      <trkpt lat="39.855818" lon="-6.025186">
        <ele>353.937</ele>
        <time>2021-10-13T08:27:52Z</time>
      </trkpt>
      <trkpt lat="39.855749" lon="-6.024838">
        <ele>354.764</ele>
        <time>2021-10-13T08:27:54Z</time>
      </trkpt>
      <trkpt lat="39.855679" lon="-6.024661">
        <ele>355.134</ele>
        <time>2021-10-13T08:27:55Z</time>
      </trkpt>
      <trkpt lat="39.855518" lon="-6.024306">
        <ele>357.167</ele>
        <time>2021-10-13T08:27:57Z</time>
      </trkpt>
      <trkpt lat="39.855425" lon="-6.024129">
        <ele>357.793</ele>
        <time>2021-10-13T08:27:58Z</time>
      </trkpt>
      <trkpt lat="39.855337" lon="-6.023958">
        <ele>358.352</ele>
        <time>2021-10-13T08:27:59Z</time>
      </trkpt>
      <trkpt lat="39.855219" lon="-6.023636">
        <ele>360.647</ele>
        <time>2021-10-13T08:28:01Z</time>
      </trkpt>
      <trkpt lat="39.855210" lon="-6.023296">
        <ele>361.921</ele>
        <time>2021-10-13T08:28:03Z</time>
      </trkpt>
      <trkpt lat="39.855234" lon="-6.023110">
        <ele>361.941</ele>
        <time>2021-10-13T08:28:04Z</time>
      </trkpt>
      <trkpt lat="39.855283" lon="-6.022718">
        <ele>365.405</ele>
        <time>2021-10-13T08:28:06Z</time>
      </trkpt>
      <trkpt lat="39.855305" lon="-6.022511">
        <ele>366.508</ele>
        <time>2021-10-13T08:28:07Z</time>
      </trkpt>
      <trkpt lat="39.855345" lon="-6.022095">
        <ele>368.380</ele>
        <time>2021-10-13T08:28:09Z</time>
      </trkpt>
      <trkpt lat="39.855355" lon="-6.021890">
        <ele>368.428</ele>
        <time>2021-10-13T08:28:10Z</time>
      </trkpt>
      <trkpt lat="39.855315" lon="-6.021491">
        <ele>369.135</ele>
        <time>2021-10-13T08:28:12Z</time>
      </trkpt>
      <trkpt lat="39.855272" lon="-6.021292">
        <ele>369.655</ele>
        <time>2021-10-13T08:28:13Z</time>
      </trkpt>
      <trkpt lat="39.855219" lon="-6.021095">
        <ele>369.848</ele>
        <time>2021-10-13T08:28:14Z</time>
      </trkpt>
      <trkpt lat="39.855114" lon="-6.020697">
        <ele>370.544</ele>
        <time>2021-10-13T08:28:16Z</time>
      </trkpt>
      <trkpt lat="39.855064" lon="-6.020493">
        <ele>371.813</ele>
        <time>2021-10-13T08:28:17Z</time>
      </trkpt>
      <trkpt lat="39.855015" lon="-6.020290">
        <ele>371.928</ele>
        <time>2021-10-13T08:28:18Z</time>
      </trkpt>
      <trkpt lat="39.854967" lon="-6.020100">
        <ele>371.111</ele>
        <time>2021-10-13T08:28:19Z</time>
      </trkpt>
      <trkpt lat="39.854877" lon="-6.019758">
        <ele>371.321</ele>
        <time>2021-10-13T08:28:21Z</time>
      </trkpt>
      <trkpt lat="39.854790" lon="-6.019426">
        <ele>372.303</ele>
        <time>2021-10-13T08:28:23Z</time>
      </trkpt>
      <trkpt lat="39.854742" lon="-6.019250">
        <ele>371.808</ele>
        <time>2021-10-13T08:28:24Z</time>
      </trkpt>
      <trkpt lat="39.854693" lon="-6.019069">
        <ele>369.859</ele>
        <time>2021-10-13T08:28:25Z</time>
      </trkpt>
      <trkpt lat="39.854642" lon="-6.018882">
        <ele>371.227</ele>
        <time>2021-10-13T08:28:26Z</time>
      </trkpt>
      <trkpt lat="39.854543" lon="-6.018517">
        <ele>370.654</ele>
        <time>2021-10-13T08:28:28Z</time>
      </trkpt>
      <trkpt lat="39.854419" lon="-6.018157">
        <ele>370.684</ele>
        <time>2021-10-13T08:28:30Z</time>
      </trkpt>
      <trkpt lat="39.854335" lon="-6.017988">
        <ele>370.047</ele>
        <time>2021-10-13T08:28:31Z</time>
      </trkpt>
      <trkpt lat="39.854235" lon="-6.017830">
        <ele>369.923</ele>
        <time>2021-10-13T08:28:32Z</time>
      </trkpt>
      <trkpt lat="39.854120" lon="-6.017679">
        <ele>370.862</ele>
        <time>2021-10-13T08:28:33Z</time>
      </trkpt>
      <trkpt lat="39.853869" lon="-6.017374">
        <ele>368.957</ele>
        <time>2021-10-13T08:28:35Z</time>
      </trkpt>
      <trkpt lat="39.853605" lon="-6.017057">
        <ele>366.991</ele>
        <time>2021-10-13T08:28:37Z</time>
      </trkpt>
      <trkpt lat="39.853345" lon="-6.016753">
        <ele>367.181</ele>
        <time>2021-10-13T08:28:39Z</time>
      </trkpt>
      <trkpt lat="39.853123" lon="-6.016489">
        <ele>368.119</ele>
        <time>2021-10-13T08:28:41Z</time>
      </trkpt>
      <trkpt lat="39.852913" lon="-6.016228">
        <ele>367.508</ele>
        <time>2021-10-13T08:28:43Z</time>
      </trkpt>
      <trkpt lat="39.852730" lon="-6.015965">
        <ele>367.067</ele>
        <time>2021-10-13T08:28:45Z</time>
      </trkpt>
      <trkpt lat="39.852620" lon="-6.015659">
        <ele>366.875</ele>
        <time>2021-10-13T08:28:47Z</time>
      </trkpt>
      <trkpt lat="39.852596" lon="-6.015477">
        <ele>366.812</ele>
        <time>2021-10-13T08:28:48Z</time>
      </trkpt>
      <trkpt lat="39.852578" lon="-6.015081">
        <ele>364.352</ele>
        <time>2021-10-13T08:28:50Z</time>
      </trkpt>
      <trkpt lat="39.852567" lon="-6.014870">
        <ele>363.675</ele>
        <time>2021-10-13T08:28:51Z</time>
      </trkpt>
      <trkpt lat="39.852552" lon="-6.014653">
        <ele>363.571</ele>
        <time>2021-10-13T08:28:52Z</time>
      </trkpt>
      <trkpt lat="39.852534" lon="-6.014431">
        <ele>362.480</ele>
        <time>2021-10-13T08:28:53Z</time>
      </trkpt>
      <trkpt lat="39.852516" lon="-6.014205">
        <ele>361.465</ele>
        <time>2021-10-13T08:28:54Z</time>
      </trkpt>
      <trkpt lat="39.852487" lon="-6.013771">
        <ele>358.232</ele>
        <time>2021-10-13T08:28:56Z</time>
      </trkpt>
      <trkpt lat="39.852467" lon="-6.013386">
        <ele>357.492</ele>
        <time>2021-10-13T08:28:58Z</time>
      </trkpt>
      <trkpt lat="39.852462" lon="-6.013199">
        <ele>356.111</ele>
        <time>2021-10-13T08:28:59Z</time>
      </trkpt>
      <trkpt lat="39.852444" lon="-6.012847">
        <ele>355.908</ele>
        <time>2021-10-13T08:29:01Z</time>
      </trkpt>
      <trkpt lat="39.852416" lon="-6.012675">
        <ele>354.991</ele>
        <time>2021-10-13T08:29:02Z</time>
      </trkpt>
      <trkpt lat="39.852287" lon="-6.012377">
        <ele>353.099</ele>
        <time>2021-10-13T08:29:04Z</time>
      </trkpt>
      <trkpt lat="39.852179" lon="-6.012258">
        <ele>352.936</ele>
        <time>2021-10-13T08:29:05Z</time>
      </trkpt>
      <trkpt lat="39.851908" lon="-6.012141">
        <ele>350.536</ele>
        <time>2021-10-13T08:29:07Z</time>
      </trkpt>
      <trkpt lat="39.851602" lon="-6.012207">
        <ele>349.199</ele>
        <time>2021-10-13T08:29:09Z</time>
      </trkpt>
      <trkpt lat="39.851303" lon="-6.012454">
        <ele>347.375</ele>
        <time>2021-10-13T08:29:11Z</time>
      </trkpt>
      <trkpt lat="39.851049" lon="-6.012746">
        <ele>346.334</ele>
        <time>2021-10-13T08:29:13Z</time>
      </trkpt>
      <trkpt lat="39.850850" lon="-6.013049">
        <ele>344.079</ele>
        <time>2021-10-13T08:29:15Z</time>
      </trkpt>
      <trkpt lat="39.850768" lon="-6.013203">
        <ele>343.381</ele>
        <time>2021-10-13T08:29:16Z</time>
      </trkpt>
      <trkpt lat="39.850689" lon="-6.013352">
        <ele>342.761</ele>
        <time>2021-10-13T08:29:17Z</time>
      </trkpt>
      <trkpt lat="39.850528" lon="-6.013613">
        <ele>342.217</ele>
        <time>2021-10-13T08:29:19Z</time>
      </trkpt>
      <trkpt lat="39.850322" lon="-6.013770">
        <ele>340.008</ele>
        <time>2021-10-13T08:29:21Z</time>
      </trkpt>
      <trkpt lat="39.850206" lon="-6.013801">
        <ele>339.576</ele>
        <time>2021-10-13T08:29:22Z</time>
      </trkpt>
      <trkpt lat="39.849964" lon="-6.013758">
        <ele>338.424</ele>
        <time>2021-10-13T08:29:24Z</time>
      </trkpt>
      <trkpt lat="39.849852" lon="-6.013683">
        <ele>336.881</ele>
        <time>2021-10-13T08:29:25Z</time>
      </trkpt>
      <trkpt lat="39.849675" lon="-6.013462">
        <ele>336.811</ele>
        <time>2021-10-13T08:29:27Z</time>
      </trkpt>
      <trkpt lat="39.849594" lon="-6.013358">
        <ele>335.994</ele>
        <time>2021-10-13T08:29:28Z</time>
      </trkpt>
      <trkpt lat="39.849415" lon="-6.013222">
        <ele>332.120</ele>
        <time>2021-10-13T08:29:30Z</time>
      </trkpt>
      <trkpt lat="39.849319" lon="-6.013190">
        <ele>330.959</ele>
        <time>2021-10-13T08:29:31Z</time>
      </trkpt>
      <trkpt lat="39.849139" lon="-6.013211">
        <ele>331.064</ele>
        <time>2021-10-13T08:29:33Z</time>
      </trkpt>
      <trkpt lat="39.849017" lon="-6.013313">
        <ele>330.969</ele>
        <time>2021-10-13T08:29:35Z</time>
      </trkpt>
      <trkpt lat="39.848959" lon="-6.013360">
        <ele>330.104</ele>
        <time>2021-10-13T08:29:36Z</time>
      </trkpt>
      <trkpt lat="39.848842" lon="-6.013428">
        <ele>329.424</ele>
        <time>2021-10-13T08:29:38Z</time>
      </trkpt>
      <trkpt lat="39.848775" lon="-6.013450">
        <ele>329.408</ele>
        <time>2021-10-13T08:29:39Z</time>
      </trkpt>
      <trkpt lat="39.848624" lon="-6.013463">
        <ele>328.294</ele>
        <time>2021-10-13T08:29:41Z</time>
      </trkpt>
      <trkpt lat="39.848482" lon="-6.013427">
        <ele>326.832</ele>
        <time>2021-10-13T08:29:43Z</time>
      </trkpt>
      <trkpt lat="39.848414" lon="-6.013396">
        <ele>326.629</ele>
        <time>2021-10-13T08:29:44Z</time>
      </trkpt>
      <trkpt lat="39.848292" lon="-6.013309">
        <ele>325.869</ele>
        <time>2021-10-13T08:29:46Z</time>
      </trkpt>
      <trkpt lat="39.848190" lon="-6.013208">
        <ele>324.442</ele>
        <time>2021-10-13T08:29:48Z</time>
      </trkpt>
      <trkpt lat="39.848144" lon="-6.013155">
        <ele>324.118</ele>
        <time>2021-10-13T08:29:49Z</time>
      </trkpt>
      <trkpt lat="39.848098" lon="-6.013104">
        <ele>323.937</ele>
        <time>2021-10-13T08:29:50Z</time>
      </trkpt>
      <trkpt lat="39.848053" lon="-6.013054">
        <ele>323.812</ele>
        <time>2021-10-13T08:29:51Z</time>
      </trkpt>
      <trkpt lat="39.847955" lon="-6.012941">
        <ele>321.772</ele>
        <time>2021-10-13T08:29:53Z</time>
      </trkpt>
      <trkpt lat="39.847895" lon="-6.012870">
        <ele>321.413</ele>
        <time>2021-10-13T08:29:54Z</time>
      </trkpt>
      <trkpt lat="39.847787" lon="-6.012718">
        <ele>318.114</ele>
        <time>2021-10-13T08:29:56Z</time>
      </trkpt>
      <trkpt lat="39.847691" lon="-6.012541">
        <ele>317.308</ele>
        <time>2021-10-13T08:29:58Z</time>
      </trkpt>
      <trkpt lat="39.847590" lon="-6.012348">
        <ele>317.025</ele>
        <time>2021-10-13T08:30:00Z</time>
      </trkpt>
      <trkpt lat="39.847492" lon="-6.012117">
        <ele>315.183</ele>
        <time>2021-10-13T08:30:02Z</time>
      </trkpt>
      <trkpt lat="39.847441" lon="-6.011881">
        <ele>313.830</ele>
        <time>2021-10-13T08:30:04Z</time>
      </trkpt>
      <trkpt lat="39.847427" lon="-6.011766">
        <ele>313.870</ele>
        <time>2021-10-13T08:30:05Z</time>
      </trkpt>
      <trkpt lat="39.847417" lon="-6.011535">
        <ele>313.693</ele>
        <time>2021-10-13T08:30:07Z</time>
      </trkpt>
      <trkpt lat="39.847418" lon="-6.011411">
        <ele>313.329</ele>
        <time>2021-10-13T08:30:08Z</time>
      </trkpt>
      <trkpt lat="39.847432" lon="-6.011159">
        <ele>311.968</ele>
        <time>2021-10-13T08:30:10Z</time>
      </trkpt>
      <trkpt lat="39.847452" lon="-6.011027">
        <ele>311.843</ele>
        <time>2021-10-13T08:30:11Z</time>
      </trkpt>
      <trkpt lat="39.847516" lon="-6.010775">
        <ele>309.187</ele>
        <time>2021-10-13T08:30:13Z</time>
      </trkpt>
      <trkpt lat="39.847599" lon="-6.010540">
        <ele>309.542</ele>
        <time>2021-10-13T08:30:15Z</time>
      </trkpt>
      <trkpt lat="39.847673" lon="-6.010315">
        <ele>307.426</ele>
        <time>2021-10-13T08:30:17Z</time>
      </trkpt>
      <trkpt lat="39.847802" lon="-6.010110">
        <ele>305.708</ele>
        <time>2021-10-13T08:30:19Z</time>
      </trkpt>
      <trkpt lat="39.847889" lon="-6.010021">
        <ele>305.266</ele>
        <time>2021-10-13T08:30:20Z</time>
      </trkpt>
      <trkpt lat="39.847971" lon="-6.009931">
        <ele>304.854</ele>
        <time>2021-10-13T08:30:21Z</time>
      </trkpt>
      <trkpt lat="39.848094" lon="-6.009709">
        <ele>302.721</ele>
        <time>2021-10-13T08:30:23Z</time>
      </trkpt>
      <trkpt lat="39.848124" lon="-6.009569">
        <ele>301.931</ele>
        <time>2021-10-13T08:30:24Z</time>
      </trkpt>
      <trkpt lat="39.848129" lon="-6.009419">
        <ele>301.574</ele>
        <time>2021-10-13T08:30:25Z</time>
      </trkpt>
      <trkpt lat="39.848108" lon="-6.009273">
        <ele>301.370</ele>
        <time>2021-10-13T08:30:26Z</time>
      </trkpt>
      <trkpt lat="39.848034" lon="-6.009008">
        <ele>299.449</ele>
        <time>2021-10-13T08:30:28Z</time>
      </trkpt>
      <trkpt lat="39.847971" lon="-6.008735">
        <ele>298.464</ele>
        <time>2021-10-13T08:30:30Z</time>
      </trkpt>
      <trkpt lat="39.847951" lon="-6.008588">
        <ele>297.828</ele>
        <time>2021-10-13T08:30:31Z</time>
      </trkpt>
      <trkpt lat="39.847920" lon="-6.008444">
        <ele>295.889</ele>
        <time>2021-10-13T08:30:32Z</time>
      </trkpt>
      <trkpt lat="39.847795" lon="-6.008207">
        <ele>294.917</ele>
        <time>2021-10-13T08:30:34Z</time>
      </trkpt>
      <trkpt lat="39.847628" lon="-6.008014">
        <ele>292.908</ele>
        <time>2021-10-13T08:30:36Z</time>
      </trkpt>
      <trkpt lat="39.847557" lon="-6.007907">
        <ele>292.310</ele>
        <time>2021-10-13T08:30:37Z</time>
      </trkpt>
      <trkpt lat="39.847439" lon="-6.007687">
        <ele>290.988</ele>
        <time>2021-10-13T08:30:39Z</time>
      </trkpt>
      <trkpt lat="39.847388" lon="-6.007576">
        <ele>290.275</ele>
        <time>2021-10-13T08:30:40Z</time>
      </trkpt>
      <trkpt lat="39.847325" lon="-6.007349">
        <ele>288.695</ele>
        <time>2021-10-13T08:30:42Z</time>
      </trkpt>
      <trkpt lat="39.847307" lon="-6.007223">
        <ele>288.168</ele>
        <time>2021-10-13T08:30:43Z</time>
      </trkpt>
      <trkpt lat="39.847272" lon="-6.006931">
        <ele>287.654</ele>
        <time>2021-10-13T08:30:45Z</time>
      </trkpt>
      <trkpt lat="39.847254" lon="-6.006769">
        <ele>287.623</ele>
        <time>2021-10-13T08:30:46Z</time>
      </trkpt>
      <trkpt lat="39.847211" lon="-6.006443">
        <ele>285.928</ele>
        <time>2021-10-13T08:30:48Z</time>
      </trkpt>
      <trkpt lat="39.847167" lon="-6.006118">
        <ele>283.023</ele>
        <time>2021-10-13T08:30:50Z</time>
      </trkpt>
      <trkpt lat="39.847145" lon="-6.005954">
        <ele>282.683</ele>
        <time>2021-10-13T08:30:51Z</time>
      </trkpt>
      <trkpt lat="39.847124" lon="-6.005800">
        <ele>282.411</ele>
        <time>2021-10-13T08:30:52Z</time>
      </trkpt>
      <trkpt lat="39.847111" lon="-6.005504">
        <ele>280.608</ele>
        <time>2021-10-13T08:30:54Z</time>
      </trkpt>
      <trkpt lat="39.847161" lon="-6.005212">
        <ele>280.630</ele>
        <time>2021-10-13T08:30:56Z</time>
      </trkpt>
      <trkpt lat="39.847317" lon="-6.004968">
        <ele>279.068</ele>
        <time>2021-10-13T08:30:58Z</time>
      </trkpt>
      <trkpt lat="39.847432" lon="-6.004872">
        <ele>279.015</ele>
        <time>2021-10-13T08:30:59Z</time>
      </trkpt>
      <trkpt lat="39.847556" lon="-6.004785">
        <ele>277.715</ele>
        <time>2021-10-13T08:31:00Z</time>
      </trkpt>
      <trkpt lat="39.847746" lon="-6.004556">
        <ele>276.428</ele>
        <time>2021-10-13T08:31:02Z</time>
      </trkpt>
      <trkpt lat="39.847810" lon="-6.004248">
        <ele>275.644</ele>
        <time>2021-10-13T08:31:04Z</time>
      </trkpt>
      <trkpt lat="39.847793" lon="-6.004088">
        <ele>275.123</ele>
        <time>2021-10-13T08:31:05Z</time>
      </trkpt>
      <trkpt lat="39.847626" lon="-6.003831">
        <ele>273.748</ele>
        <time>2021-10-13T08:31:07Z</time>
      </trkpt>
      <trkpt lat="39.847505" lon="-6.003755">
        <ele>273.731</ele>
        <time>2021-10-13T08:31:08Z</time>
      </trkpt>
      <trkpt lat="39.847263" lon="-6.003745">
        <ele>273.761</ele>
        <time>2021-10-13T08:31:10Z</time>
      </trkpt>
      <trkpt lat="39.847147" lon="-6.003796">
        <ele>273.707</ele>
        <time>2021-10-13T08:31:11Z</time>
      </trkpt>
      <trkpt lat="39.846939" lon="-6.003826">
        <ele>273.808</ele>
        <time>2021-10-13T08:31:13Z</time>
      </trkpt>
      <trkpt lat="39.846765" lon="-6.003685">
        <ele>271.781</ele>
        <time>2021-10-13T08:31:15Z</time>
      </trkpt>
      <trkpt lat="39.846720" lon="-6.003512">
        <ele>271.339</ele>
        <time>2021-10-13T08:31:16Z</time>
      </trkpt>
      <trkpt lat="39.846689" lon="-6.003077">
        <ele>269.256</ele>
        <time>2021-10-13T08:31:18Z</time>
      </trkpt>
      <trkpt lat="39.846651" lon="-6.002698">
        <ele>269.716</ele>
        <time>2021-10-13T08:31:20Z</time>
      </trkpt>
      <trkpt lat="39.846641" lon="-6.002375">
        <ele>268.749</ele>
        <time>2021-10-13T08:31:22Z</time>
      </trkpt>
      <trkpt lat="39.846698" lon="-6.002075">
        <ele>269.375</ele>
        <time>2021-10-13T08:31:24Z</time>
      </trkpt>
      <trkpt lat="39.846772" lon="-6.001944">
        <ele>269.334</ele>
        <time>2021-10-13T08:31:25Z</time>
      </trkpt>
      <trkpt lat="39.846856" lon="-6.001813">
        <ele>268.639</ele>
        <time>2021-10-13T08:31:26Z</time>
      </trkpt>
      <trkpt lat="39.846968" lon="-6.001496">
        <ele>267.975</ele>
        <time>2021-10-13T08:31:28Z</time>
      </trkpt>
      <trkpt lat="39.847007" lon="-6.001322">
        <ele>267.228</ele>
        <time>2021-10-13T08:31:29Z</time>
      </trkpt>
      <trkpt lat="39.847078" lon="-6.000980">
        <ele>265.420</ele>
        <time>2021-10-13T08:31:31Z</time>
      </trkpt>
      <trkpt lat="39.847120" lon="-6.000812">
        <ele>263.508</ele>
        <time>2021-10-13T08:31:32Z</time>
      </trkpt>
      <trkpt lat="39.847190" lon="-6.000518">
        <ele>261.215</ele>
        <time>2021-10-13T08:31:34Z</time>
      </trkpt>
      <trkpt lat="39.847223" lon="-6.000237">
        <ele>261.253</ele>
        <time>2021-10-13T08:31:36Z</time>
      </trkpt>
      <trkpt lat="39.847207" lon="-6.000100">
        <ele>261.160</ele>
        <time>2021-10-13T08:31:37Z</time>
      </trkpt>
      <trkpt lat="39.847084" lon="-5.999879">
        <ele>257.860</ele>
        <time>2021-10-13T08:31:39Z</time>
      </trkpt>
      <trkpt lat="39.846880" lon="-5.999791">
        <ele>257.543</ele>
        <time>2021-10-13T08:31:41Z</time>
      </trkpt>
      <trkpt lat="39.846635" lon="-5.999921">
        <ele>255.229</ele>
        <time>2021-10-13T08:31:43Z</time>
      </trkpt>
      <trkpt lat="39.846518" lon="-6.000071">
        <ele>255.148</ele>
        <time>2021-10-13T08:31:44Z</time>
      </trkpt>
      <trkpt lat="39.846421" lon="-6.000248">
        <ele>253.733</ele>
        <time>2021-10-13T08:31:45Z</time>
      </trkpt>
      <trkpt lat="39.846252" lon="-6.000561">
        <ele>252.744</ele>
        <time>2021-10-13T08:31:47Z</time>
      </trkpt>
      <trkpt lat="39.846161" lon="-6.000686">
        <ele>251.905</ele>
        <time>2021-10-13T08:31:48Z</time>
      </trkpt>
      <trkpt lat="39.845967" lon="-6.000881">
        <ele>250.415</ele>
        <time>2021-10-13T08:31:50Z</time>
      </trkpt>
      <trkpt lat="39.845877" lon="-6.000953">
        <ele>250.108</ele>
        <time>2021-10-13T08:31:51Z</time>
      </trkpt>
      <trkpt lat="39.845714" lon="-6.001036">
        <ele>249.432</ele>
        <time>2021-10-13T08:31:53Z</time>
      </trkpt>
      <trkpt lat="39.845549" lon="-6.001047">
        <ele>248.790</ele>
        <time>2021-10-13T08:31:55Z</time>
      </trkpt>
      <trkpt lat="39.845460" lon="-6.001020">
        <ele>247.547</ele>
        <time>2021-10-13T08:31:56Z</time>
      </trkpt>
      <trkpt lat="39.845292" lon="-6.000908">
        <ele>245.977</ele>
        <time>2021-10-13T08:31:58Z</time>
      </trkpt>
      <trkpt lat="39.845209" lon="-6.000850">
        <ele>245.660</ele>
        <time>2021-10-13T08:31:59Z</time>
      </trkpt>
      <trkpt lat="39.845039" lon="-6.000773">
        <ele>243.376</ele>
        <time>2021-10-13T08:32:01Z</time>
      </trkpt>
      <trkpt lat="39.844945" lon="-6.000762">
        <ele>242.215</ele>
        <time>2021-10-13T08:32:02Z</time>
      </trkpt>
      <trkpt lat="39.844755" lon="-6.000836">
        <ele>240.740</ele>
        <time>2021-10-13T08:32:04Z</time>
      </trkpt>
      <trkpt lat="39.844660" lon="-6.000927">
        <ele>240.341</ele>
        <time>2021-10-13T08:32:05Z</time>
      </trkpt>
      <trkpt lat="39.844571" lon="-6.001046">
        <ele>240.381</ele>
        <time>2021-10-13T08:32:06Z</time>
      </trkpt>
      <trkpt lat="39.844405" lon="-6.001275">
        <ele>240.909</ele>
        <time>2021-10-13T08:32:08Z</time>
      </trkpt>
      <trkpt lat="39.844324" lon="-6.001366">
        <ele>241.208</ele>
        <time>2021-10-13T08:32:09Z</time>
      </trkpt>
      <trkpt lat="39.844148" lon="-6.001472">
        <ele>242.972</ele>
        <time>2021-10-13T08:32:11Z</time>
      </trkpt>
      <trkpt lat="39.843949" lon="-6.001450">
        <ele>243.060</ele>
        <time>2021-10-13T08:32:13Z</time>
      </trkpt>
      <trkpt lat="39.843758" lon="-6.001284">
        <ele>243.437</ele>
        <time>2021-10-13T08:32:15Z</time>
      </trkpt>
      <trkpt lat="39.843681" lon="-6.001151">
        <ele>243.997</ele>
        <time>2021-10-13T08:32:16Z</time>
      </trkpt>
      <trkpt lat="39.843521" lon="-6.000941">
        <ele>244.450</ele>
        <time>2021-10-13T08:32:18Z</time>
      </trkpt>
      <trkpt lat="39.843322" lon="-6.000882">
        <ele>246.086</ele>
        <time>2021-10-13T08:32:20Z</time>
      </trkpt>
      <trkpt lat="39.843136" lon="-6.001026">
        <ele>247.395</ele>
        <time>2021-10-13T08:32:22Z</time>
      </trkpt>
      <trkpt lat="39.843084" lon="-6.001170">
        <ele>247.890</ele>
        <time>2021-10-13T08:32:23Z</time>
      </trkpt>
      <trkpt lat="39.843034" lon="-6.001319">
        <ele>248.938</ele>
        <time>2021-10-13T08:32:24Z</time>
      </trkpt>
      <trkpt lat="39.842864" lon="-6.001537">
        <ele>249.470</ele>
        <time>2021-10-13T08:32:26Z</time>
      </trkpt>
      <trkpt lat="39.842625" lon="-6.001610">
        <ele>250.717</ele>
        <time>2021-10-13T08:32:28Z</time>
      </trkpt>
      <trkpt lat="39.842395" lon="-6.001777">
        <ele>252.308</ele>
        <time>2021-10-13T08:32:30Z</time>
      </trkpt>
      <trkpt lat="39.842291" lon="-6.001890">
        <ele>252.791</ele>
        <time>2021-10-13T08:32:31Z</time>
      </trkpt>
      <trkpt lat="39.842191" lon="-6.002000">
        <ele>254.149</ele>
        <time>2021-10-13T08:32:32Z</time>
      </trkpt>
      <trkpt lat="39.842020" lon="-6.002172">
        <ele>256.966</ele>
        <time>2021-10-13T08:32:34Z</time>
      </trkpt>
      <trkpt lat="39.841936" lon="-6.002238">
        <ele>257.116</ele>
        <time>2021-10-13T08:32:35Z</time>
      </trkpt>
      <trkpt lat="39.841746" lon="-6.002327">
        <ele>259.499</ele>
        <time>2021-10-13T08:32:37Z</time>
      </trkpt>
      <trkpt lat="39.841540" lon="-6.002322">
        <ele>261.245</ele>
        <time>2021-10-13T08:32:39Z</time>
      </trkpt>
      <trkpt lat="39.841454" lon="-6.002282">
        <ele>261.284</ele>
        <time>2021-10-13T08:32:40Z</time>
      </trkpt>
      <trkpt lat="39.841318" lon="-6.002178">
        <ele>261.789</ele>
        <time>2021-10-13T08:32:42Z</time>
      </trkpt>
      <trkpt lat="39.841256" lon="-6.002130">
        <ele>262.073</ele>
        <time>2021-10-13T08:32:43Z</time>
      </trkpt>
      <trkpt lat="39.841192" lon="-6.002069">
        <ele>262.085</ele>
        <time>2021-10-13T08:32:44Z</time>
      </trkpt>
      <trkpt lat="39.841079" lon="-6.001901">
        <ele>262.413</ele>
        <time>2021-10-13T08:32:46Z</time>
      </trkpt>
      <trkpt lat="39.841032" lon="-6.001803">
        <ele>262.008</ele>
        <time>2021-10-13T08:32:47Z</time>
      </trkpt>
      <trkpt lat="39.840995" lon="-6.001691">
        <ele>261.955</ele>
        <time>2021-10-13T08:32:48Z</time>
      </trkpt>
      <trkpt lat="39.840904" lon="-6.001453">
        <ele>261.813</ele>
        <time>2021-10-13T08:32:50Z</time>
      </trkpt>
      <trkpt lat="39.840841" lon="-6.001335">
        <ele>261.840</ele>
        <time>2021-10-13T08:32:51Z</time>
      </trkpt>
      <trkpt lat="39.840687" lon="-6.001112">
        <ele>259.380</ele>
        <time>2021-10-13T08:32:53Z</time>
      </trkpt>
      <trkpt lat="39.840508" lon="-6.000901">
        <ele>258.313</ele>
        <time>2021-10-13T08:32:55Z</time>
      </trkpt>
      <trkpt lat="39.840407" lon="-6.000794">
        <ele>257.759</ele>
        <time>2021-10-13T08:32:56Z</time>
      </trkpt>
      <trkpt lat="39.840212" lon="-6.000596">
        <ele>256.568</ele>
        <time>2021-10-13T08:32:58Z</time>
      </trkpt>
      <trkpt lat="39.840122" lon="-6.000499">
        <ele>255.693</ele>
        <time>2021-10-13T08:32:59Z</time>
      </trkpt>
      <trkpt lat="39.839956" lon="-6.000312">
        <ele>255.473</ele>
        <time>2021-10-13T08:33:01Z</time>
      </trkpt>
      <trkpt lat="39.839874" lon="-6.000225">
        <ele>255.485</ele>
        <time>2021-10-13T08:33:02Z</time>
      </trkpt>
      <trkpt lat="39.839736" lon="-6.000027">
        <ele>254.313</ele>
        <time>2021-10-13T08:33:04Z</time>
      </trkpt>
      <trkpt lat="39.839686" lon="-5.999892">
        <ele>254.308</ele>
        <time>2021-10-13T08:33:05Z</time>
      </trkpt>
      <trkpt lat="39.839634" lon="-5.999568">
        <ele>251.445</ele>
        <time>2021-10-13T08:33:07Z</time>
      </trkpt>
      <trkpt lat="39.839626" lon="-5.999395">
        <ele>251.443</ele>
        <time>2021-10-13T08:33:08Z</time>
      </trkpt>
      <trkpt lat="39.839632" lon="-5.999229">
        <ele>250.240</ele>
        <time>2021-10-13T08:33:09Z</time>
      </trkpt>
      <trkpt lat="39.839661" lon="-5.998916">
        <ele>250.610</ele>
        <time>2021-10-13T08:33:11Z</time>
      </trkpt>
      <trkpt lat="39.839657" lon="-5.998594">
        <ele>250.343</ele>
        <time>2021-10-13T08:33:13Z</time>
      </trkpt>
      <trkpt lat="39.839601" lon="-5.998249">
        <ele>249.179</ele>
        <time>2021-10-13T08:33:15Z</time>
      </trkpt>
      <trkpt lat="39.839513" lon="-5.997910">
        <ele>248.388</ele>
        <time>2021-10-13T08:33:17Z</time>
      </trkpt>
      <trkpt lat="39.839468" lon="-5.997748">
        <ele>248.213</ele>
        <time>2021-10-13T08:33:18Z</time>
      </trkpt>
      <trkpt lat="39.839423" lon="-5.997586">
        <ele>248.167</ele>
        <time>2021-10-13T08:33:19Z</time>
      </trkpt>
      <trkpt lat="39.839336" lon="-5.997255">
        <ele>245.981</ele>
        <time>2021-10-13T08:33:21Z</time>
      </trkpt>
      <trkpt lat="39.839220" lon="-5.996926">
        <ele>244.119</ele>
        <time>2021-10-13T08:33:23Z</time>
      </trkpt>
      <trkpt lat="39.839154" lon="-5.996771">
        <ele>243.508</ele>
        <time>2021-10-13T08:33:24Z</time>
      </trkpt>
      <trkpt lat="39.839090" lon="-5.996622">
        <ele>242.674</ele>
        <time>2021-10-13T08:33:25Z</time>
      </trkpt>
      <trkpt lat="39.839026" lon="-5.996475">
        <ele>242.142</ele>
        <time>2021-10-13T08:33:26Z</time>
      </trkpt>
      <trkpt lat="39.838907" lon="-5.996199">
        <ele>241.239</ele>
        <time>2021-10-13T08:33:28Z</time>
      </trkpt>
      <trkpt lat="39.838849" lon="-5.996051">
        <ele>239.769</ele>
        <time>2021-10-13T08:33:29Z</time>
      </trkpt>
      <trkpt lat="39.838746" lon="-5.995734">
        <ele>238.712</ele>
        <time>2021-10-13T08:33:31Z</time>
      </trkpt>
      <trkpt lat="39.838701" lon="-5.995575">
        <ele>238.348</ele>
        <time>2021-10-13T08:33:32Z</time>
      </trkpt>
      <trkpt lat="39.838625" lon="-5.995273">
        <ele>234.457</ele>
        <time>2021-10-13T08:33:34Z</time>
      </trkpt>
      <trkpt lat="39.838585" lon="-5.995125">
        <ele>232.252</ele>
        <time>2021-10-13T08:33:35Z</time>
      </trkpt>
      <trkpt lat="39.838503" lon="-5.994850">
        <ele>230.342</ele>
        <time>2021-10-13T08:33:37Z</time>
      </trkpt>
      <trkpt lat="39.838418" lon="-5.994572">
        <ele>229.422</ele>
        <time>2021-10-13T08:33:39Z</time>
      </trkpt>
      <trkpt lat="39.838375" lon="-5.994422">
        <ele>229.914</ele>
        <time>2021-10-13T08:33:40Z</time>
      </trkpt>
      <trkpt lat="39.838332" lon="-5.994272">
        <ele>229.908</ele>
        <time>2021-10-13T08:33:41Z</time>
      </trkpt>
      <trkpt lat="39.838286" lon="-5.994121">
        <ele>228.812</ele>
        <time>2021-10-13T08:33:42Z</time>
      </trkpt>
      <trkpt lat="39.838202" lon="-5.993827">
        <ele>226.920</ele>
        <time>2021-10-13T08:33:44Z</time>
      </trkpt>
      <trkpt lat="39.838167" lon="-5.993681">
        <ele>226.937</ele>
        <time>2021-10-13T08:33:45Z</time>
      </trkpt>
      <trkpt lat="39.838137" lon="-5.993542">
        <ele>226.927</ele>
        <time>2021-10-13T08:33:46Z</time>
      </trkpt>
      <trkpt lat="39.838084" lon="-5.993267">
        <ele>227.630</ele>
        <time>2021-10-13T08:33:48Z</time>
      </trkpt>
      <trkpt lat="39.838058" lon="-5.993131">
        <ele>227.976</ele>
        <time>2021-10-13T08:33:49Z</time>
      </trkpt>
      <trkpt lat="39.838014" lon="-5.992866">
        <ele>229.585</ele>
        <time>2021-10-13T08:33:51Z</time>
      </trkpt>
      <trkpt lat="39.837997" lon="-5.992736">
        <ele>229.520</ele>
        <time>2021-10-13T08:33:52Z</time>
      </trkpt>
      <trkpt lat="39.837969" lon="-5.992505">
        <ele>229.074</ele>
        <time>2021-10-13T08:33:54Z</time>
      </trkpt>
      <trkpt lat="39.837908" lon="-5.992324">
        <ele>229.056</ele>
        <time>2021-10-13T08:33:56Z</time>
      </trkpt>
      <trkpt lat="39.837839" lon="-5.992202">
        <ele>229.421</ele>
        <time>2021-10-13T08:33:58Z</time>
      </trkpt>
      <trkpt lat="39.837780" lon="-5.992104">
        <ele>229.308</ele>
        <time>2021-10-13T08:34:00Z</time>
      </trkpt>
      <trkpt lat="39.837752" lon="-5.992056">
        <ele>229.325</ele>
        <time>2021-10-13T08:34:01Z</time>
      </trkpt>
      <trkpt lat="39.837723" lon="-5.992005">
        <ele>229.153</ele>
        <time>2021-10-13T08:34:02Z</time>
      </trkpt>
      <trkpt lat="39.837659" lon="-5.991902">
        <ele>228.070</ele>
        <time>2021-10-13T08:34:04Z</time>
      </trkpt>
      <trkpt lat="39.837620" lon="-5.991846">
        <ele>227.480</ele>
        <time>2021-10-13T08:34:05Z</time>
      </trkpt>
      <trkpt lat="39.837542" lon="-5.991742">
        <ele>227.053</ele>
        <time>2021-10-13T08:34:07Z</time>
      </trkpt>
      <trkpt lat="39.837505" lon="-5.991700">
        <ele>226.949</ele>
        <time>2021-10-13T08:34:08Z</time>
      </trkpt>
      <trkpt lat="39.837466" lon="-5.991658">
        <ele>225.478</ele>
        <time>2021-10-13T08:34:09Z</time>
      </trkpt>
      <trkpt lat="39.837387" lon="-5.991565">
        <ele>225.423</ele>
        <time>2021-10-13T08:34:11Z</time>
      </trkpt>
      <trkpt lat="39.837298" lon="-5.991473">
        <ele>225.496</ele>
        <time>2021-10-13T08:34:13Z</time>
      </trkpt>
      <trkpt lat="39.837251" lon="-5.991428">
        <ele>225.731</ele>
        <time>2021-10-13T08:34:14Z</time>
      </trkpt>
      <trkpt lat="39.837203" lon="-5.991385">
        <ele>225.524</ele>
        <time>2021-10-13T08:34:15Z</time>
      </trkpt>
      <trkpt lat="39.837104" lon="-5.991307">
        <ele>225.608</ele>
        <time>2021-10-13T08:34:17Z</time>
      </trkpt>
      <trkpt lat="39.837052" lon="-5.991268">
        <ele>225.687</ele>
        <time>2021-10-13T08:34:18Z</time>
      </trkpt>
      <trkpt lat="39.836999" lon="-5.991230">
        <ele>225.675</ele>
        <time>2021-10-13T08:34:19Z</time>
      </trkpt>
      <trkpt lat="39.836878" lon="-5.991163">
        <ele>225.632</ele>
        <time>2021-10-13T08:34:21Z</time>
      </trkpt>
      <trkpt lat="39.836810" lon="-5.991129">
        <ele>225.652</ele>
        <time>2021-10-13T08:34:22Z</time>
      </trkpt>
      <trkpt lat="39.836669" lon="-5.991065">
        <ele>225.935</ele>
        <time>2021-10-13T08:34:24Z</time>
      </trkpt>
      <trkpt lat="39.836602" lon="-5.991040">
        <ele>226.711</ele>
        <time>2021-10-13T08:34:25Z</time>
      </trkpt>
      <trkpt lat="39.836539" lon="-5.991020">
        <ele>226.760</ele>
        <time>2021-10-13T08:34:26Z</time>
      </trkpt>
      <trkpt lat="39.836429" lon="-5.990988">
        <ele>226.335</ele>
        <time>2021-10-13T08:34:28Z</time>
      </trkpt>
      <trkpt lat="39.836325" lon="-5.990923">
        <ele>226.371</ele>
        <time>2021-10-13T08:34:30Z</time>
      </trkpt>
      <trkpt lat="39.836255" lon="-5.990778">
        <ele>227.341</ele>
        <time>2021-10-13T08:34:32Z</time>
      </trkpt>
      <trkpt lat="39.836260" lon="-5.990585">
        <ele>227.715</ele>
        <time>2021-10-13T08:34:34Z</time>
      </trkpt>
      <trkpt lat="39.836327" lon="-5.990392">
        <ele>227.808</ele>
        <time>2021-10-13T08:34:36Z</time>
      </trkpt>
      <trkpt lat="39.836453" lon="-5.990259">
        <ele>228.465</ele>
        <time>2021-10-13T08:34:38Z</time>
      </trkpt>
      <trkpt lat="39.836536" lon="-5.990211">
        <ele>228.853</ele>
        <time>2021-10-13T08:34:39Z</time>
      </trkpt>
      <trkpt lat="39.836702" lon="-5.990123">
        <ele>228.890</ele>
        <time>2021-10-13T08:34:41Z</time>
      </trkpt>
      <trkpt lat="39.836839" lon="-5.990026">
        <ele>229.530</ele>
        <time>2021-10-13T08:34:43Z</time>
      </trkpt>
      <trkpt lat="39.836946" lon="-5.989933">
        <ele>229.813</ele>
        <time>2021-10-13T08:34:45Z</time>
      </trkpt>
      <trkpt lat="39.837063" lon="-5.989837">
        <ele>229.449</ele>
        <time>2021-10-13T08:34:47Z</time>
      </trkpt>
      <trkpt lat="39.837184" lon="-5.989753">
        <ele>229.318</ele>
        <time>2021-10-13T08:34:49Z</time>
      </trkpt>
      <trkpt lat="39.837244" lon="-5.989707">
        <ele>230.523</ele>
        <time>2021-10-13T08:34:50Z</time>
      </trkpt>
      <trkpt lat="39.837304" lon="-5.989656">
        <ele>232.041</ele>
        <time>2021-10-13T08:34:51Z</time>
      </trkpt>
      <trkpt lat="39.837426" lon="-5.989532">
        <ele>232.681</ele>
        <time>2021-10-13T08:34:53Z</time>
      </trkpt>
      <trkpt lat="39.837542" lon="-5.989378">
        <ele>231.909</ele>
        <time>2021-10-13T08:34:55Z</time>
      </trkpt>
      <trkpt lat="39.837588" lon="-5.989291">
        <ele>232.308</ele>
        <time>2021-10-13T08:34:56Z</time>
      </trkpt>
      <trkpt lat="39.837669" lon="-5.989127">
        <ele>233.322</ele>
        <time>2021-10-13T08:34:58Z</time>
      </trkpt>
      <trkpt lat="39.837711" lon="-5.989049">
        <ele>233.780</ele>
        <time>2021-10-13T08:34:59Z</time>
      </trkpt>
      <trkpt lat="39.837773" lon="-5.988896">
        <ele>236.777</ele>
        <time>2021-10-13T08:35:01Z</time>
      </trkpt>
      <trkpt lat="39.837759" lon="-5.988721">
        <ele>239.017</ele>
        <time>2021-10-13T08:35:03Z</time>
      </trkpt>
      <trkpt lat="39.837714" lon="-5.988640">
        <ele>239.410</ele>
        <time>2021-10-13T08:35:04Z</time>
      </trkpt>
      <trkpt lat="39.837646" lon="-5.988580">
        <ele>240.296</ele>
        <time>2021-10-13T08:35:05Z</time>
      </trkpt>
      <trkpt lat="39.837482" lon="-5.988543">
        <ele>242.725</ele>
        <time>2021-10-13T08:35:07Z</time>
      </trkpt>
      <trkpt lat="39.837311" lon="-5.988638">
        <ele>245.360</ele>
        <time>2021-10-13T08:35:09Z</time>
      </trkpt>
      <trkpt lat="39.837238" lon="-5.988701">
        <ele>246.652</ele>
        <time>2021-10-13T08:35:10Z</time>
      </trkpt>
      <trkpt lat="39.837177" lon="-5.988765">
        <ele>248.053</ele>
        <time>2021-10-13T08:35:11Z</time>
      </trkpt>
      <trkpt lat="39.837137" lon="-5.988836">
        <ele>248.808</ele>
        <time>2021-10-13T08:35:12Z</time>
      </trkpt>
      <trkpt lat="39.837101" lon="-5.988966">
        <ele>250.808</ele>
        <time>2021-10-13T08:35:14Z</time>
      </trkpt>
      <trkpt lat="39.837073" lon="-5.989092">
        <ele>251.193</ele>
        <time>2021-10-13T08:35:16Z</time>
      </trkpt>
      <trkpt lat="39.837026" lon="-5.989228">
        <ele>251.891</ele>
        <time>2021-10-13T08:35:18Z</time>
      </trkpt>
      <trkpt lat="39.836942" lon="-5.989294">
        <ele>252.698</ele>
        <time>2021-10-13T08:35:20Z</time>
      </trkpt>
      <trkpt lat="39.836893" lon="-5.989243">
        <ele>254.218</ele>
        <time>2021-10-13T08:35:22Z</time>
      </trkpt>
      <trkpt lat="39.836905" lon="-5.989053">
        <ele>303.141</ele>
        <time>2021-10-13T08:35:24Z</time>
      </trkpt>
      <trkpt lat="39.836919" lon="-5.988902">
        <ele>304.017</ele>
        <time>2021-10-13T08:35:25Z</time>
      </trkpt>
      <trkpt lat="39.836931" lon="-5.988731">
        <ele>304.066</ele>
        <time>2021-10-13T08:35:26Z</time>
      </trkpt>
      <trkpt lat="39.836903" lon="-5.988375">
        <ele>304.021</ele>
        <time>2021-10-13T08:35:28Z</time>
      </trkpt>
      <trkpt lat="39.836785" lon="-5.988105">
        <ele>304.096</ele>
        <time>2021-10-13T08:35:30Z</time>
      </trkpt>
      <trkpt lat="39.836708" lon="-5.987987">
        <ele>304.031</ele>
        <time>2021-10-13T08:35:31Z</time>
      </trkpt>
      <trkpt lat="39.836632" lon="-5.987870">
        <ele>304.024</ele>
        <time>2021-10-13T08:35:32Z</time>
      </trkpt>
      <trkpt lat="39.836487" lon="-5.987632">
        <ele>304.008</ele>
        <time>2021-10-13T08:35:34Z</time>
      </trkpt>
      <trkpt lat="39.836420" lon="-5.987509">
        <ele>304.077</ele>
        <time>2021-10-13T08:35:35Z</time>
      </trkpt>
      <trkpt lat="39.836365" lon="-5.987383">
        <ele>304.035</ele>
        <time>2021-10-13T08:35:36Z</time>
      </trkpt>
      <trkpt lat="39.836289" lon="-5.987127">
        <ele>303.942</ele>
        <time>2021-10-13T08:35:38Z</time>
      </trkpt>
      <trkpt lat="39.836235" lon="-5.986879">
        <ele>303.942</ele>
        <time>2021-10-13T08:35:40Z</time>
      </trkpt>
      <trkpt lat="39.836210" lon="-5.986759">
        <ele>303.915</ele>
        <time>2021-10-13T08:35:41Z</time>
      </trkpt>
      <trkpt lat="39.836169" lon="-5.986519">
        <ele>303.951</ele>
        <time>2021-10-13T08:35:43Z</time>
      </trkpt>
      <trkpt lat="39.836152" lon="-5.986390">
        <ele>303.920</ele>
        <time>2021-10-13T08:35:44Z</time>
      </trkpt>
      <trkpt lat="39.836130" lon="-5.986104">
        <ele>303.955</ele>
        <time>2021-10-13T08:35:46Z</time>
      </trkpt>
      <trkpt lat="39.836137" lon="-5.985778">
        <ele>303.912</ele>
        <time>2021-10-13T08:35:48Z</time>
      </trkpt>
      <trkpt lat="39.836170" lon="-5.985403">
        <ele>304.032</ele>
        <time>2021-10-13T08:35:50Z</time>
      </trkpt>
      <trkpt lat="39.836185" lon="-5.985013">
        <ele>304.005</ele>
        <time>2021-10-13T08:35:52Z</time>
      </trkpt>
      <trkpt lat="39.836181" lon="-5.984840">
        <ele>304.008</ele>
        <time>2021-10-13T08:35:53Z</time>
      </trkpt>
      <trkpt lat="39.836169" lon="-5.984671">
        <ele>304.069</ele>
        <time>2021-10-13T08:35:54Z</time>
      </trkpt>
      <trkpt lat="39.836124" lon="-5.984337">
        <ele>304.037</ele>
        <time>2021-10-13T08:35:56Z</time>
      </trkpt>
      <trkpt lat="39.836085" lon="-5.984012">
        <ele>303.994</ele>
        <time>2021-10-13T08:35:58Z</time>
      </trkpt>
      <trkpt lat="39.836069" lon="-5.983838">
        <ele>303.974</ele>
        <time>2021-10-13T08:35:59Z</time>
      </trkpt>
      <trkpt lat="39.836055" lon="-5.983479">
        <ele>303.967</ele>
        <time>2021-10-13T08:36:01Z</time>
      </trkpt>
      <trkpt lat="39.836070" lon="-5.983109">
        <ele>303.993</ele>
        <time>2021-10-13T08:36:03Z</time>
      </trkpt>
      <trkpt lat="39.836136" lon="-5.982750">
        <ele>304.062</ele>
        <time>2021-10-13T08:36:05Z</time>
      </trkpt>
      <trkpt lat="39.836181" lon="-5.982577">
        <ele>304.077</ele>
        <time>2021-10-13T08:36:06Z</time>
      </trkpt>
      <trkpt lat="39.836254" lon="-5.982235">
        <ele>304.036</ele>
        <time>2021-10-13T08:36:08Z</time>
      </trkpt>
      <trkpt lat="39.836279" lon="-5.981908">
        <ele>304.017</ele>
        <time>2021-10-13T08:36:10Z</time>
      </trkpt>
      <trkpt lat="39.836204" lon="-5.981602">
        <ele>303.918</ele>
        <time>2021-10-13T08:36:12Z</time>
      </trkpt>
      <trkpt lat="39.836038" lon="-5.981327">
        <ele>303.908</ele>
        <time>2021-10-13T08:36:14Z</time>
      </trkpt>
      <trkpt lat="39.835951" lon="-5.981182">
        <ele>303.981</ele>
        <time>2021-10-13T08:36:15Z</time>
      </trkpt>
      <trkpt lat="39.835770" lon="-5.980867">
        <ele>303.929</ele>
        <time>2021-10-13T08:36:17Z</time>
      </trkpt>
      <trkpt lat="39.835675" lon="-5.980699">
        <ele>303.966</ele>
        <time>2021-10-13T08:36:18Z</time>
      </trkpt>
      <trkpt lat="39.835479" lon="-5.980363">
        <ele>303.946</ele>
        <time>2021-10-13T08:36:20Z</time>
      </trkpt>
      <trkpt lat="39.835293" lon="-5.980036">
        <ele>297.759</ele>
        <time>2021-10-13T08:36:22Z</time>
      </trkpt>
      <trkpt lat="39.835193" lon="-5.979866">
        <ele>297.715</ele>
        <time>2021-10-13T08:36:23Z</time>
      </trkpt>
      <trkpt lat="39.834982" lon="-5.979525">
        <ele>298.524</ele>
        <time>2021-10-13T08:36:25Z</time>
      </trkpt>
      <trkpt lat="39.834877" lon="-5.979353">
        <ele>298.279</ele>
        <time>2021-10-13T08:36:26Z</time>
      </trkpt>
      <trkpt lat="39.834776" lon="-5.979178">
        <ele>298.454</ele>
        <time>2021-10-13T08:36:27Z</time>
      </trkpt>
      <trkpt lat="39.834598" lon="-5.978830">
        <ele>300.956</ele>
        <time>2021-10-13T08:36:29Z</time>
      </trkpt>
      <trkpt lat="39.834529" lon="-5.978656">
        <ele>301.011</ele>
        <time>2021-10-13T08:36:30Z</time>
      </trkpt>
      <trkpt lat="39.834420" lon="-5.978310">
        <ele>301.108</ele>
        <time>2021-10-13T08:36:32Z</time>
      </trkpt>
      <trkpt lat="39.834333" lon="-5.978000">
        <ele>301.043</ele>
        <time>2021-10-13T08:36:34Z</time>
      </trkpt>
      <trkpt lat="39.834266" lon="-5.977732">
        <ele>302.131</ele>
        <time>2021-10-13T08:36:36Z</time>
      </trkpt>
      <trkpt lat="39.834217" lon="-5.977473">
        <ele>304.178</ele>
        <time>2021-10-13T08:36:38Z</time>
      </trkpt>
      <trkpt lat="39.834212" lon="-5.977198">
        <ele>304.748</ele>
        <time>2021-10-13T08:36:40Z</time>
      </trkpt>
      <trkpt lat="39.834218" lon="-5.977062">
        <ele>304.851</ele>
        <time>2021-10-13T08:36:41Z</time>
      </trkpt>
      <trkpt lat="39.834251" lon="-5.976774">
        <ele>306.467</ele>
        <time>2021-10-13T08:36:43Z</time>
      </trkpt>
      <trkpt lat="39.834281" lon="-5.976620">
        <ele>306.466</ele>
        <time>2021-10-13T08:36:44Z</time>
      </trkpt>
      <trkpt lat="39.834363" lon="-5.976313">
        <ele>307.561</ele>
        <time>2021-10-13T08:36:46Z</time>
      </trkpt>
      <trkpt lat="39.834411" lon="-5.976155">
        <ele>308.576</ele>
        <time>2021-10-13T08:36:47Z</time>
      </trkpt>
      <trkpt lat="39.834457" lon="-5.975998">
        <ele>308.590</ele>
        <time>2021-10-13T08:36:48Z</time>
      </trkpt>
      <trkpt lat="39.834552" lon="-5.975709">
        <ele>308.819</ele>
        <time>2021-10-13T08:36:50Z</time>
      </trkpt>
      <trkpt lat="39.834664" lon="-5.975421">
        <ele>309.808</ele>
        <time>2021-10-13T08:36:52Z</time>
      </trkpt>
      <trkpt lat="39.834728" lon="-5.975268">
        <ele>309.755</ele>
        <time>2021-10-13T08:36:53Z</time>
      </trkpt>
      <trkpt lat="39.834795" lon="-5.975112">
        <ele>307.813</ele>
        <time>2021-10-13T08:36:54Z</time>
      </trkpt>
      <trkpt lat="39.834933" lon="-5.974780">
        <ele>306.280</ele>
        <time>2021-10-13T08:36:56Z</time>
      </trkpt>
      <trkpt lat="39.835068" lon="-5.974457">
        <ele>303.950</ele>
        <time>2021-10-13T08:36:58Z</time>
      </trkpt>
      <trkpt lat="39.835203" lon="-5.974139">
        <ele>301.883</ele>
        <time>2021-10-13T08:37:00Z</time>
      </trkpt>
      <trkpt lat="39.835337" lon="-5.973807">
        <ele>298.799</ele>
        <time>2021-10-13T08:37:02Z</time>
      </trkpt>
      <trkpt lat="39.835406" lon="-5.973629">
        <ele>297.468</ele>
        <time>2021-10-13T08:37:03Z</time>
      </trkpt>
      <trkpt lat="39.835476" lon="-5.973449">
        <ele>296.753</ele>
        <time>2021-10-13T08:37:04Z</time>
      </trkpt>
      <trkpt lat="39.835614" lon="-5.973099">
        <ele>294.175</ele>
        <time>2021-10-13T08:37:06Z</time>
      </trkpt>
      <trkpt lat="39.835749" lon="-5.972763">
        <ele>291.528</ele>
        <time>2021-10-13T08:37:08Z</time>
      </trkpt>
      <trkpt lat="39.835817" lon="-5.972596">
        <ele>290.920</ele>
        <time>2021-10-13T08:37:09Z</time>
      </trkpt>
      <trkpt lat="39.835952" lon="-5.972274">
        <ele>288.508</ele>
        <time>2021-10-13T08:37:11Z</time>
      </trkpt>
      <trkpt lat="39.836112" lon="-5.971975">
        <ele>286.685</ele>
        <time>2021-10-13T08:37:13Z</time>
      </trkpt>
      <trkpt lat="39.836303" lon="-5.971706">
        <ele>284.593</ele>
        <time>2021-10-13T08:37:15Z</time>
      </trkpt>
      <trkpt lat="39.836409" lon="-5.971564">
        <ele>283.690</ele>
        <time>2021-10-13T08:37:16Z</time>
      </trkpt>
      <trkpt lat="39.836520" lon="-5.971415">
        <ele>281.530</ele>
        <time>2021-10-13T08:37:17Z</time>
      </trkpt>
      <trkpt lat="39.836749" lon="-5.971106">
        <ele>278.563</ele>
        <time>2021-10-13T08:37:19Z</time>
      </trkpt>
      <trkpt lat="39.836871" lon="-5.970947">
        <ele>276.719</ele>
        <time>2021-10-13T08:37:20Z</time>
      </trkpt>
      <trkpt lat="39.837114" lon="-5.970623">
        <ele>275.968</ele>
        <time>2021-10-13T08:37:22Z</time>
      </trkpt>
      <trkpt lat="39.837230" lon="-5.970462">
        <ele>274.793</ele>
        <time>2021-10-13T08:37:23Z</time>
      </trkpt>
      <trkpt lat="39.837449" lon="-5.970156">
        <ele>271.525</ele>
        <time>2021-10-13T08:37:25Z</time>
      </trkpt>
      <trkpt lat="39.837558" lon="-5.970004">
        <ele>271.926</ele>
        <time>2021-10-13T08:37:26Z</time>
      </trkpt>
      <trkpt lat="39.837741" lon="-5.969709">
        <ele>270.008</ele>
        <time>2021-10-13T08:37:28Z</time>
      </trkpt>
      <trkpt lat="39.837827" lon="-5.969554">
        <ele>269.008</ele>
        <time>2021-10-13T08:37:29Z</time>
      </trkpt>
      <trkpt lat="39.837907" lon="-5.969401">
        <ele>268.350</ele>
        <time>2021-10-13T08:37:30Z</time>
      </trkpt>
      <trkpt lat="39.838061" lon="-5.969094">
        <ele>266.128</ele>
        <time>2021-10-13T08:37:32Z</time>
      </trkpt>
      <trkpt lat="39.838210" lon="-5.968803">
        <ele>263.715</ele>
        <time>2021-10-13T08:37:34Z</time>
      </trkpt>
      <trkpt lat="39.838365" lon="-5.968518">
        <ele>262.415</ele>
        <time>2021-10-13T08:37:36Z</time>
      </trkpt>
      <trkpt lat="39.838571" lon="-5.968279">
        <ele>260.598</ele>
        <time>2021-10-13T08:37:38Z</time>
      </trkpt>
      <trkpt lat="39.838704" lon="-5.968178">
        <ele>259.934</ele>
        <time>2021-10-13T08:37:39Z</time>
      </trkpt>
      <trkpt lat="39.839005" lon="-5.967968">
        <ele>258.083</ele>
        <time>2021-10-13T08:37:41Z</time>
      </trkpt>
      <trkpt lat="39.839304" lon="-5.967762">
        <ele>256.588</ele>
        <time>2021-10-13T08:37:43Z</time>
      </trkpt>
      <trkpt lat="39.839449" lon="-5.967667">
        <ele>256.339</ele>
        <time>2021-10-13T08:37:44Z</time>
      </trkpt>
      <trkpt lat="39.839593" lon="-5.967581">
        <ele>256.401</ele>
        <time>2021-10-13T08:37:45Z</time>
      </trkpt>
      <trkpt lat="39.839878" lon="-5.967434">
        <ele>254.421</ele>
        <time>2021-10-13T08:37:47Z</time>
      </trkpt>
      <trkpt lat="39.840140" lon="-5.967254">
        <ele>255.608</ele>
        <time>2021-10-13T08:37:49Z</time>
      </trkpt>
      <trkpt lat="39.840358" lon="-5.966983">
        <ele>256.851</ele>
        <time>2021-10-13T08:37:51Z</time>
      </trkpt>
      <trkpt lat="39.840465" lon="-5.966838">
        <ele>257.399</ele>
        <time>2021-10-13T08:37:52Z</time>
      </trkpt>
      <trkpt lat="39.840666" lon="-5.966570">
        <ele>256.256</ele>
        <time>2021-10-13T08:37:54Z</time>
      </trkpt>
      <trkpt lat="39.840756" lon="-5.966444">
        <ele>256.356</ele>
        <time>2021-10-13T08:37:55Z</time>
      </trkpt>
      <trkpt lat="39.840843" lon="-5.966327">
        <ele>256.859</ele>
        <time>2021-10-13T08:37:56Z</time>
      </trkpt>
      <trkpt lat="39.840978" lon="-5.966148">
        <ele>257.685</ele>
        <time>2021-10-13T08:37:58Z</time>
      </trkpt>
      <trkpt lat="39.841032" lon="-5.966078">
        <ele>258.544</ele>
        <time>2021-10-13T08:37:59Z</time>
      </trkpt>
      <trkpt lat="39.841117" lon="-5.965951">
        <ele>258.939</ele>
        <time>2021-10-13T08:38:01Z</time>
      </trkpt>
      <trkpt lat="39.841146" lon="-5.965883">
        <ele>259.019</ele>
        <time>2021-10-13T08:38:02Z</time>
      </trkpt>
      <trkpt lat="39.841173" lon="-5.965740">
        <ele>259.509</ele>
        <time>2021-10-13T08:38:04Z</time>
      </trkpt>
      <trkpt lat="39.841178" lon="-5.965667">
        <ele>259.719</ele>
        <time>2021-10-13T08:38:05Z</time>
      </trkpt>
      <trkpt lat="39.841165" lon="-5.965505">
        <ele>259.308</ele>
        <time>2021-10-13T08:38:07Z</time>
      </trkpt>
      <trkpt lat="39.841152" lon="-5.965413">
        <ele>258.849</ele>
        <time>2021-10-13T08:38:08Z</time>
      </trkpt>
      <trkpt lat="39.841143" lon="-5.965316">
        <ele>258.767</ele>
        <time>2021-10-13T08:38:09Z</time>
      </trkpt>
      <trkpt lat="39.841124" lon="-5.965098">
        <ele>257.144</ele>
        <time>2021-10-13T08:38:11Z</time>
      </trkpt>
      <trkpt lat="39.841115" lon="-5.964984">
        <ele>256.384</ele>
        <time>2021-10-13T08:38:12Z</time>
      </trkpt>
      <trkpt lat="39.841096" lon="-5.964743">
        <ele>256.057</ele>
        <time>2021-10-13T08:38:14Z</time>
      </trkpt>
      <trkpt lat="39.841082" lon="-5.964611">
        <ele>255.323</ele>
        <time>2021-10-13T08:38:15Z</time>
      </trkpt>
      <trkpt lat="39.841052" lon="-5.964349">
        <ele>253.712</ele>
        <time>2021-10-13T08:38:17Z</time>
      </trkpt>
      <trkpt lat="39.841059" lon="-5.964091">
        <ele>254.487</ele>
        <time>2021-10-13T08:38:19Z</time>
      </trkpt>
      <trkpt lat="39.841078" lon="-5.963964">
        <ele>253.678</ele>
        <time>2021-10-13T08:38:20Z</time>
      </trkpt>
      <trkpt lat="39.841140" lon="-5.963698">
        <ele>251.333</ele>
        <time>2021-10-13T08:38:22Z</time>
      </trkpt>
      <trkpt lat="39.841214" lon="-5.963415">
        <ele>250.626</ele>
        <time>2021-10-13T08:38:24Z</time>
      </trkpt>
      <trkpt lat="39.841250" lon="-5.963267">
        <ele>249.308</ele>
        <time>2021-10-13T08:38:25Z</time>
      </trkpt>
      <trkpt lat="39.841331" lon="-5.962954">
        <ele>248.095</ele>
        <time>2021-10-13T08:38:27Z</time>
      </trkpt>
      <trkpt lat="39.841374" lon="-5.962788">
        <ele>245.283</ele>
        <time>2021-10-13T08:38:28Z</time>
      </trkpt>
      <trkpt lat="39.841419" lon="-5.962619">
        <ele>243.760</ele>
        <time>2021-10-13T08:38:29Z</time>
      </trkpt>
      <trkpt lat="39.841507" lon="-5.962266">
        <ele>239.490</ele>
        <time>2021-10-13T08:38:31Z</time>
      </trkpt>
      <trkpt lat="39.841595" lon="-5.961899">
        <ele>238.493</ele>
        <time>2021-10-13T08:38:33Z</time>
      </trkpt>
      <trkpt lat="39.841639" lon="-5.961719">
        <ele>237.259</ele>
        <time>2021-10-13T08:38:34Z</time>
      </trkpt>
      <trkpt lat="39.841681" lon="-5.961543">
        <ele>236.068</ele>
        <time>2021-10-13T08:38:35Z</time>
      </trkpt>
      <trkpt lat="39.841724" lon="-5.961373">
        <ele>235.853</ele>
        <time>2021-10-13T08:38:36Z</time>
      </trkpt>
      <trkpt lat="39.841855" lon="-5.961070">
        <ele>234.354</ele>
        <time>2021-10-13T08:38:38Z</time>
      </trkpt>
      <trkpt lat="39.842056" lon="-5.960861">
        <ele>233.356</ele>
        <time>2021-10-13T08:38:40Z</time>
      </trkpt>
      <trkpt lat="39.842175" lon="-5.960808">
        <ele>233.311</ele>
        <time>2021-10-13T08:38:41Z</time>
      </trkpt>
      <trkpt lat="39.842301" lon="-5.960786">
        <ele>232.908</ele>
        <time>2021-10-13T08:38:42Z</time>
      </trkpt>
      <trkpt lat="39.842435" lon="-5.960779">
        <ele>232.923</ele>
        <time>2021-10-13T08:38:43Z</time>
      </trkpt>
      <trkpt lat="39.842713" lon="-5.960759">
        <ele>231.441</ele>
        <time>2021-10-13T08:38:45Z</time>
      </trkpt>
      <trkpt lat="39.842854" lon="-5.960746">
        <ele>231.568</ele>
        <time>2021-10-13T08:38:46Z</time>
      </trkpt>
      <trkpt lat="39.842994" lon="-5.960728">
        <ele>231.788</ele>
        <time>2021-10-13T08:38:47Z</time>
      </trkpt>
      <trkpt lat="39.843248" lon="-5.960693">
        <ele>230.831</ele>
        <time>2021-10-13T08:38:49Z</time>
      </trkpt>
      <trkpt lat="39.843481" lon="-5.960658">
        <ele>229.767</ele>
        <time>2021-10-13T08:38:51Z</time>
      </trkpt>
      <trkpt lat="39.843590" lon="-5.960642">
        <ele>228.976</ele>
        <time>2021-10-13T08:38:52Z</time>
      </trkpt>
      <trkpt lat="39.843695" lon="-5.960627">
        <ele>228.651</ele>
        <time>2021-10-13T08:38:53Z</time>
      </trkpt>
      <trkpt lat="39.843899" lon="-5.960603">
        <ele>228.147</ele>
        <time>2021-10-13T08:38:55Z</time>
      </trkpt>
      <trkpt lat="39.843998" lon="-5.960589">
        <ele>227.729</ele>
        <time>2021-10-13T08:38:56Z</time>
      </trkpt>
      <trkpt lat="39.844095" lon="-5.960576">
        <ele>227.421</ele>
        <time>2021-10-13T08:38:57Z</time>
      </trkpt>
      <trkpt lat="39.844186" lon="-5.960563">
        <ele>226.608</ele>
        <time>2021-10-13T08:38:58Z</time>
      </trkpt>
      <trkpt lat="39.844272" lon="-5.960550">
        <ele>225.852</ele>
        <time>2021-10-13T08:38:59Z</time>
      </trkpt>
      <trkpt lat="39.844427" lon="-5.960521">
        <ele>226.010</ele>
        <time>2021-10-13T08:39:01Z</time>
      </trkpt>
      <trkpt lat="39.844575" lon="-5.960501">
        <ele>226.077</ele>
        <time>2021-10-13T08:39:03Z</time>
      </trkpt>
      <trkpt lat="39.844655" lon="-5.960492">
        <ele>226.027</ele>
        <time>2021-10-13T08:39:04Z</time>
      </trkpt>
      <trkpt lat="39.844841" lon="-5.960465">
        <ele>226.010</ele>
        <time>2021-10-13T08:39:06Z</time>
      </trkpt>
      <trkpt lat="39.844942" lon="-5.960442">
        <ele>226.236</ele>
        <time>2021-10-13T08:39:07Z</time>
      </trkpt>
      <trkpt lat="39.845151" lon="-5.960361">
        <ele>227.565</ele>
        <time>2021-10-13T08:39:09Z</time>
      </trkpt>
      <trkpt lat="39.845354" lon="-5.960228">
        <ele>226.120</ele>
        <time>2021-10-13T08:39:11Z</time>
      </trkpt>
      <trkpt lat="39.845541" lon="-5.960093">
        <ele>226.594</ele>
        <time>2021-10-13T08:39:13Z</time>
      </trkpt>
      <trkpt lat="39.845637" lon="-5.960035">
        <ele>227.257</ele>
        <time>2021-10-13T08:39:14Z</time>
      </trkpt>
      <trkpt lat="39.845842" lon="-5.959946">
        <ele>227.822</ele>
        <time>2021-10-13T08:39:16Z</time>
      </trkpt>
      <trkpt lat="39.846078" lon="-5.959893">
        <ele>228.908</ele>
        <time>2021-10-13T08:39:18Z</time>
      </trkpt>
      <trkpt lat="39.846331" lon="-5.959851">
        <ele>229.097</ele>
        <time>2021-10-13T08:39:20Z</time>
      </trkpt>
      <trkpt lat="39.846457" lon="-5.959827">
        <ele>229.035</ele>
        <time>2021-10-13T08:39:21Z</time>
      </trkpt>
      <trkpt lat="39.846707" lon="-5.959784">
        <ele>229.112</ele>
        <time>2021-10-13T08:39:23Z</time>
      </trkpt>
      <trkpt lat="39.846957" lon="-5.959740">
        <ele>230.422</ele>
        <time>2021-10-13T08:39:25Z</time>
      </trkpt>
      <trkpt lat="39.847084" lon="-5.959716">
        <ele>230.765</ele>
        <time>2021-10-13T08:39:26Z</time>
      </trkpt>
      <trkpt lat="39.847321" lon="-5.959640">
        <ele>231.111</ele>
        <time>2021-10-13T08:39:28Z</time>
      </trkpt>
      <trkpt lat="39.847436" lon="-5.959591">
        <ele>231.610</ele>
        <time>2021-10-13T08:39:29Z</time>
      </trkpt>
      <trkpt lat="39.847545" lon="-5.959546">
        <ele>231.655</ele>
        <time>2021-10-13T08:39:30Z</time>
      </trkpt>
      <trkpt lat="39.847771" lon="-5.959494">
        <ele>230.739</ele>
        <time>2021-10-13T08:39:32Z</time>
      </trkpt>
      <trkpt lat="39.847888" lon="-5.959496">
        <ele>231.301</ele>
        <time>2021-10-13T08:39:33Z</time>
      </trkpt>
      <trkpt lat="39.848129" lon="-5.959551">
        <ele>230.121</ele>
        <time>2021-10-13T08:39:35Z</time>
      </trkpt>
      <trkpt lat="39.848378" lon="-5.959624">
        <ele>231.408</ele>
        <time>2021-10-13T08:39:37Z</time>
      </trkpt>
      <trkpt lat="39.848506" lon="-5.959663">
        <ele>231.461</ele>
        <time>2021-10-13T08:39:38Z</time>
      </trkpt>
      <trkpt lat="39.848634" lon="-5.959702">
        <ele>231.439</ele>
        <time>2021-10-13T08:39:39Z</time>
      </trkpt>
      <trkpt lat="39.848884" lon="-5.959769">
        <ele>231.676</ele>
        <time>2021-10-13T08:39:41Z</time>
      </trkpt>
      <trkpt lat="39.849129" lon="-5.959810">
        <ele>231.016</ele>
        <time>2021-10-13T08:39:43Z</time>
      </trkpt>
      <trkpt lat="39.849254" lon="-5.959833">
        <ele>231.029</ele>
        <time>2021-10-13T08:39:44Z</time>
      </trkpt>
      <trkpt lat="39.849518" lon="-5.959882">
        <ele>231.815</ele>
        <time>2021-10-13T08:39:46Z</time>
      </trkpt>
      <trkpt lat="39.849795" lon="-5.959930">
        <ele>231.454</ele>
        <time>2021-10-13T08:39:48Z</time>
      </trkpt>
      <trkpt lat="39.850091" lon="-5.959977">
        <ele>231.379</ele>
        <time>2021-10-13T08:39:50Z</time>
      </trkpt>
      <trkpt lat="39.850391" lon="-5.960018">
        <ele>231.478</ele>
        <time>2021-10-13T08:39:52Z</time>
      </trkpt>
      <trkpt lat="39.850691" lon="-5.960063">
        <ele>231.633</ele>
        <time>2021-10-13T08:39:54Z</time>
      </trkpt>
      <trkpt lat="39.850840" lon="-5.960088">
        <ele>231.526</ele>
        <time>2021-10-13T08:39:55Z</time>
      </trkpt>
      <trkpt lat="39.850991" lon="-5.960109">
        <ele>231.208</ele>
        <time>2021-10-13T08:39:56Z</time>
      </trkpt>
      <trkpt lat="39.851272" lon="-5.960149">
        <ele>230.815</ele>
        <time>2021-10-13T08:39:58Z</time>
      </trkpt>
      <trkpt lat="39.851412" lon="-5.960169">
        <ele>231.813</ele>
        <time>2021-10-13T08:39:59Z</time>
      </trkpt>
      <trkpt lat="39.851688" lon="-5.960208">
        <ele>231.280</ele>
        <time>2021-10-13T08:40:01Z</time>
      </trkpt>
      <trkpt lat="39.851967" lon="-5.960255">
        <ele>232.460</ele>
        <time>2021-10-13T08:40:03Z</time>
      </trkpt>
      <trkpt lat="39.852242" lon="-5.960292">
        <ele>233.413</ele>
        <time>2021-10-13T08:40:05Z</time>
      </trkpt>
      <trkpt lat="39.852383" lon="-5.960302">
        <ele>233.789</ele>
        <time>2021-10-13T08:40:06Z</time>
      </trkpt>
      <trkpt lat="39.852662" lon="-5.960324">
        <ele>234.628</ele>
        <time>2021-10-13T08:40:08Z</time>
      </trkpt>
      <trkpt lat="39.852806" lon="-5.960343">
        <ele>234.553</ele>
        <time>2021-10-13T08:40:09Z</time>
      </trkpt>
      <trkpt lat="39.852950" lon="-5.960360">
        <ele>234.293</ele>
        <time>2021-10-13T08:40:10Z</time>
      </trkpt>
      <trkpt lat="39.853094" lon="-5.960372">
        <ele>235.265</ele>
        <time>2021-10-13T08:40:11Z</time>
      </trkpt>
      <trkpt lat="39.853383" lon="-5.960390">
        <ele>235.721</ele>
        <time>2021-10-13T08:40:13Z</time>
      </trkpt>
      <trkpt lat="39.853670" lon="-5.960399">
        <ele>235.508</ele>
        <time>2021-10-13T08:40:15Z</time>
      </trkpt>
      <trkpt lat="39.853813" lon="-5.960407">
        <ele>235.417</ele>
        <time>2021-10-13T08:40:16Z</time>
      </trkpt>
      <trkpt lat="39.854101" lon="-5.960418">
        <ele>236.985</ele>
        <time>2021-10-13T08:40:18Z</time>
      </trkpt>
      <trkpt lat="39.854387" lon="-5.960425">
        <ele>236.912</ele>
        <time>2021-10-13T08:40:20Z</time>
      </trkpt>
      <trkpt lat="39.854530" lon="-5.960426">
        <ele>236.472</ele>
        <time>2021-10-13T08:40:21Z</time>
      </trkpt>
      <trkpt lat="39.854810" lon="-5.960401">
        <ele>236.075</ele>
        <time>2021-10-13T08:40:23Z</time>
      </trkpt>
      <trkpt lat="39.854948" lon="-5.960371">
        <ele>236.261</ele>
        <time>2021-10-13T08:40:24Z</time>
      </trkpt>
      <trkpt lat="39.855084" lon="-5.960334">
        <ele>235.550</ele>
        <time>2021-10-13T08:40:25Z</time>
      </trkpt>
      <trkpt lat="39.855346" lon="-5.960257">
        <ele>235.355</ele>
        <time>2021-10-13T08:40:27Z</time>
      </trkpt>
      <trkpt lat="39.855606" lon="-5.960188">
        <ele>234.541</ele>
        <time>2021-10-13T08:40:29Z</time>
      </trkpt>
      <trkpt lat="39.855730" lon="-5.960153">
        <ele>234.581</ele>
        <time>2021-10-13T08:40:30Z</time>
      </trkpt>
      <trkpt lat="39.855847" lon="-5.960120">
        <ele>234.509</ele>
        <time>2021-10-13T08:40:31Z</time>
      </trkpt>
      <trkpt lat="39.856061" lon="-5.960054">
        <ele>235.908</ele>
        <time>2021-10-13T08:40:33Z</time>
      </trkpt>
      <trkpt lat="39.856162" lon="-5.960023">
        <ele>235.912</ele>
        <time>2021-10-13T08:40:34Z</time>
      </trkpt>
      <trkpt lat="39.856256" lon="-5.959995">
        <ele>236.050</ele>
        <time>2021-10-13T08:40:35Z</time>
      </trkpt>
      <trkpt lat="39.856429" lon="-5.959944">
        <ele>235.417</ele>
        <time>2021-10-13T08:40:37Z</time>
      </trkpt>
      <trkpt lat="39.856506" lon="-5.959923">
        <ele>235.497</ele>
        <time>2021-10-13T08:40:38Z</time>
      </trkpt>
      <trkpt lat="39.856572" lon="-5.959905">
        <ele>235.980</ele>
        <time>2021-10-13T08:40:39Z</time>
      </trkpt>
      <trkpt lat="39.856687" lon="-5.959876">
        <ele>236.586</ele>
        <time>2021-10-13T08:40:41Z</time>
      </trkpt>
      <trkpt lat="39.856738" lon="-5.959859">
        <ele>236.445</ele>
        <time>2021-10-13T08:40:42Z</time>
      </trkpt>
      <trkpt lat="39.856840" lon="-5.959805">
        <ele>236.380</ele>
        <time>2021-10-13T08:40:44Z</time>
      </trkpt>
      <trkpt lat="39.856939" lon="-5.959717">
        <ele>237.412</ele>
        <time>2021-10-13T08:40:46Z</time>
      </trkpt>
      <trkpt lat="39.856985" lon="-5.959658">
        <ele>237.432</ele>
        <time>2021-10-13T08:40:47Z</time>
      </trkpt>
      <trkpt lat="39.857029" lon="-5.959587">
        <ele>237.405</ele>
        <time>2021-10-13T08:40:48Z</time>
      </trkpt>
      <trkpt lat="39.857108" lon="-5.959433">
        <ele>236.408</ele>
        <time>2021-10-13T08:40:50Z</time>
      </trkpt>
      <trkpt lat="39.857184" lon="-5.959282">
        <ele>237.729</ele>
        <time>2021-10-13T08:40:52Z</time>
      </trkpt>
      <trkpt lat="39.857262" lon="-5.959135">
        <ele>237.677</ele>
        <time>2021-10-13T08:40:54Z</time>
      </trkpt>
      <trkpt lat="39.857301" lon="-5.959057">
        <ele>237.564</ele>
        <time>2021-10-13T08:40:55Z</time>
      </trkpt>
      <trkpt lat="39.857340" lon="-5.958976">
        <ele>237.524</ele>
        <time>2021-10-13T08:40:56Z</time>
      </trkpt>
      <trkpt lat="39.857406" lon="-5.958808">
        <ele>237.257</ele>
        <time>2021-10-13T08:40:58Z</time>
      </trkpt>
      <trkpt lat="39.857469" lon="-5.958618">
        <ele>235.553</ele>
        <time>2021-10-13T08:41:00Z</time>
      </trkpt>
      <trkpt lat="39.857531" lon="-5.958420">
        <ele>235.722</ele>
        <time>2021-10-13T08:41:02Z</time>
      </trkpt>
      <trkpt lat="39.857575" lon="-5.958210">
        <ele>236.017</ele>
        <time>2021-10-13T08:41:04Z</time>
      </trkpt>
      <trkpt lat="39.857606" lon="-5.957979">
        <ele>235.239</ele>
        <time>2021-10-13T08:41:06Z</time>
      </trkpt>
      <trkpt lat="39.857614" lon="-5.957857">
        <ele>234.901</ele>
        <time>2021-10-13T08:41:07Z</time>
      </trkpt>
      <trkpt lat="39.857620" lon="-5.957731">
        <ele>234.721</ele>
        <time>2021-10-13T08:41:08Z</time>
      </trkpt>
      <trkpt lat="39.857628" lon="-5.957476">
        <ele>235.008</ele>
        <time>2021-10-13T08:41:10Z</time>
      </trkpt>
      <trkpt lat="39.857650" lon="-5.957213">
        <ele>236.951</ele>
        <time>2021-10-13T08:41:12Z</time>
      </trkpt>
      <trkpt lat="39.857677" lon="-5.956909">
        <ele>238.029</ele>
        <time>2021-10-13T08:41:14Z</time>
      </trkpt>
      <trkpt lat="39.857717" lon="-5.956575">
        <ele>237.176</ele>
        <time>2021-10-13T08:41:16Z</time>
      </trkpt>
      <trkpt lat="39.857750" lon="-5.956399">
        <ele>237.466</ele>
        <time>2021-10-13T08:41:17Z</time>
      </trkpt>
      <trkpt lat="39.857818" lon="-5.956063">
        <ele>237.459</ele>
        <time>2021-10-13T08:41:19Z</time>
      </trkpt>
      <trkpt lat="39.857889" lon="-5.955741">
        <ele>238.145</ele>
        <time>2021-10-13T08:41:21Z</time>
      </trkpt>
      <trkpt lat="39.857970" lon="-5.955410">
        <ele>237.574</ele>
        <time>2021-10-13T08:41:23Z</time>
      </trkpt>
      <trkpt lat="39.858040" lon="-5.955066">
        <ele>236.289</ele>
        <time>2021-10-13T08:41:25Z</time>
      </trkpt>
      <trkpt lat="39.858060" lon="-5.954881">
        <ele>235.871</ele>
        <time>2021-10-13T08:41:26Z</time>
      </trkpt>
      <trkpt lat="39.858082" lon="-5.954536">
        <ele>237.041</ele>
        <time>2021-10-13T08:41:28Z</time>
      </trkpt>
      <trkpt lat="39.858126" lon="-5.954187">
        <ele>236.615</ele>
        <time>2021-10-13T08:41:30Z</time>
      </trkpt>
      <trkpt lat="39.858218" lon="-5.953834">
        <ele>235.708</ele>
        <time>2021-10-13T08:41:32Z</time>
      </trkpt>
      <trkpt lat="39.858321" lon="-5.953478">
        <ele>236.085</ele>
        <time>2021-10-13T08:41:34Z</time>
      </trkpt>
      <trkpt lat="39.858415" lon="-5.953118">
        <ele>236.783</ele>
        <time>2021-10-13T08:41:36Z</time>
      </trkpt>
      <trkpt lat="39.858527" lon="-5.952798">
        <ele>236.360</ele>
        <time>2021-10-13T08:41:38Z</time>
      </trkpt>
      <trkpt lat="39.858607" lon="-5.952652">
        <ele>235.790</ele>
        <time>2021-10-13T08:41:39Z</time>
      </trkpt>
      <trkpt lat="39.858807" lon="-5.952393">
        <ele>234.683</ele>
        <time>2021-10-13T08:41:41Z</time>
      </trkpt>
      <trkpt lat="39.858993" lon="-5.952144">
        <ele>233.219</ele>
        <time>2021-10-13T08:41:43Z</time>
      </trkpt>
      <trkpt lat="39.859115" lon="-5.951854">
        <ele>233.088</ele>
        <time>2021-10-13T08:41:45Z</time>
      </trkpt>
      <trkpt lat="39.859148" lon="-5.951515">
        <ele>232.323</ele>
        <time>2021-10-13T08:41:47Z</time>
      </trkpt>
      <trkpt lat="39.859138" lon="-5.951338">
        <ele>232.387</ele>
        <time>2021-10-13T08:41:48Z</time>
      </trkpt>
      <trkpt lat="39.859129" lon="-5.951157">
        <ele>231.942</ele>
        <time>2021-10-13T08:41:49Z</time>
      </trkpt>
      <trkpt lat="39.859124" lon="-5.950973">
        <ele>232.226</ele>
        <time>2021-10-13T08:41:50Z</time>
      </trkpt>
      <trkpt lat="39.859117" lon="-5.950608">
        <ele>233.408</ele>
        <time>2021-10-13T08:41:52Z</time>
      </trkpt>
      <trkpt lat="39.859122" lon="-5.950245">
        <ele>235.396</ele>
        <time>2021-10-13T08:41:54Z</time>
      </trkpt>
      <trkpt lat="39.859133" lon="-5.950070">
        <ele>236.064</ele>
        <time>2021-10-13T08:41:55Z</time>
      </trkpt>
      <trkpt lat="39.859149" lon="-5.949899">
        <ele>236.761</ele>
        <time>2021-10-13T08:41:56Z</time>
      </trkpt>
      <trkpt lat="39.859178" lon="-5.949566">
        <ele>238.051</ele>
        <time>2021-10-13T08:41:58Z</time>
      </trkpt>
      <trkpt lat="39.859192" lon="-5.949392">
        <ele>238.434</ele>
        <time>2021-10-13T08:41:59Z</time>
      </trkpt>
      <trkpt lat="39.859226" lon="-5.949042">
        <ele>239.150</ele>
        <time>2021-10-13T08:42:01Z</time>
      </trkpt>
      <trkpt lat="39.859241" lon="-5.948859">
        <ele>239.319</ele>
        <time>2021-10-13T08:42:02Z</time>
      </trkpt>
      <trkpt lat="39.859271" lon="-5.948484">
        <ele>240.624</ele>
        <time>2021-10-13T08:42:04Z</time>
      </trkpt>
      <trkpt lat="39.859307" lon="-5.948107">
        <ele>240.317</ele>
        <time>2021-10-13T08:42:06Z</time>
      </trkpt>
      <trkpt lat="39.859327" lon="-5.947915">
        <ele>240.387</ele>
        <time>2021-10-13T08:42:07Z</time>
      </trkpt>
      <trkpt lat="39.859346" lon="-5.947719">
        <ele>239.815</ele>
        <time>2021-10-13T08:42:08Z</time>
      </trkpt>
      <trkpt lat="39.859387" lon="-5.947325">
        <ele>240.708</ele>
        <time>2021-10-13T08:42:10Z</time>
      </trkpt>
      <trkpt lat="39.859407" lon="-5.947120">
        <ele>240.979</ele>
        <time>2021-10-13T08:42:11Z</time>
      </trkpt>
      <trkpt lat="39.859428" lon="-5.946912">
        <ele>240.957</ele>
        <time>2021-10-13T08:42:12Z</time>
      </trkpt>
      <trkpt lat="39.859466" lon="-5.946481">
        <ele>242.944</ele>
        <time>2021-10-13T08:42:14Z</time>
      </trkpt>
      <trkpt lat="39.859489" lon="-5.946261">
        <ele>242.964</ele>
        <time>2021-10-13T08:42:15Z</time>
      </trkpt>
      <trkpt lat="39.859531" lon="-5.945816">
        <ele>242.447</ele>
        <time>2021-10-13T08:42:17Z</time>
      </trkpt>
      <trkpt lat="39.859552" lon="-5.945586">
        <ele>242.183</ele>
        <time>2021-10-13T08:42:18Z</time>
      </trkpt>
      <trkpt lat="39.859573" lon="-5.945361">
        <ele>242.192</ele>
        <time>2021-10-13T08:42:19Z</time>
      </trkpt>
      <trkpt lat="39.859618" lon="-5.944891">
        <ele>242.337</ele>
        <time>2021-10-13T08:42:21Z</time>
      </trkpt>
      <trkpt lat="39.859635" lon="-5.944645">
        <ele>243.126</ele>
        <time>2021-10-13T08:42:22Z</time>
      </trkpt>
      <trkpt lat="39.859680" lon="-5.944151">
        <ele>242.847</ele>
        <time>2021-10-13T08:42:24Z</time>
      </trkpt>
      <trkpt lat="39.859704" lon="-5.943901">
        <ele>242.611</ele>
        <time>2021-10-13T08:42:25Z</time>
      </trkpt>
      <trkpt lat="39.859728" lon="-5.943641">
        <ele>242.908</ele>
        <time>2021-10-13T08:42:26Z</time>
      </trkpt>
      <trkpt lat="39.859778" lon="-5.943147">
        <ele>243.310</ele>
        <time>2021-10-13T08:42:28Z</time>
      </trkpt>
      <trkpt lat="39.859804" lon="-5.942892">
        <ele>243.878</ele>
        <time>2021-10-13T08:42:29Z</time>
      </trkpt>
      <trkpt lat="39.859829" lon="-5.942640">
        <ele>242.715</ele>
        <time>2021-10-13T08:42:30Z</time>
      </trkpt>
      <trkpt lat="39.859871" lon="-5.942162">
        <ele>243.385</ele>
        <time>2021-10-13T08:42:32Z</time>
      </trkpt>
      <trkpt lat="39.859910" lon="-5.941731">
        <ele>242.698</ele>
        <time>2021-10-13T08:42:34Z</time>
      </trkpt>
      <trkpt lat="39.859930" lon="-5.941528">
        <ele>241.934</ele>
        <time>2021-10-13T08:42:35Z</time>
      </trkpt>
      <trkpt lat="39.859969" lon="-5.941132">
        <ele>243.063</ele>
        <time>2021-10-13T08:42:37Z</time>
      </trkpt>
      <trkpt lat="39.860008" lon="-5.940750">
        <ele>242.268</ele>
        <time>2021-10-13T08:42:39Z</time>
      </trkpt>
      <trkpt lat="39.860037" lon="-5.940383">
        <ele>242.068</ele>
        <time>2021-10-13T08:42:41Z</time>
      </trkpt>
      <trkpt lat="39.860070" lon="-5.940034">
        <ele>241.642</ele>
        <time>2021-10-13T08:42:43Z</time>
      </trkpt>
      <trkpt lat="39.860109" lon="-5.939708">
        <ele>241.726</ele>
        <time>2021-10-13T08:42:45Z</time>
      </trkpt>
      <trkpt lat="39.860182" lon="-5.939399">
        <ele>238.708</ele>
        <time>2021-10-13T08:42:47Z</time>
      </trkpt>
      <trkpt lat="39.860240" lon="-5.939240">
        <ele>237.374</ele>
        <time>2021-10-13T08:42:48Z</time>
      </trkpt>
      <trkpt lat="39.860383" lon="-5.938904">
        <ele>235.532</ele>
        <time>2021-10-13T08:42:50Z</time>
      </trkpt>
      <trkpt lat="39.860467" lon="-5.938725">
        <ele>234.459</ele>
        <time>2021-10-13T08:42:51Z</time>
      </trkpt>
      <trkpt lat="39.860633" lon="-5.938365">
        <ele>231.959</ele>
        <time>2021-10-13T08:42:53Z</time>
      </trkpt>
      <trkpt lat="39.860787" lon="-5.938016">
        <ele>229.512</ele>
        <time>2021-10-13T08:42:55Z</time>
      </trkpt>
      <trkpt lat="39.860923" lon="-5.937680">
        <ele>229.638</ele>
        <time>2021-10-13T08:42:57Z</time>
      </trkpt>
      <trkpt lat="39.860993" lon="-5.937339">
        <ele>229.737</ele>
        <time>2021-10-13T08:42:59Z</time>
      </trkpt>
      <trkpt lat="39.860990" lon="-5.936969">
        <ele>228.532</ele>
        <time>2021-10-13T08:43:01Z</time>
      </trkpt>
      <trkpt lat="39.860982" lon="-5.936766">
        <ele>228.451</ele>
        <time>2021-10-13T08:43:02Z</time>
      </trkpt>
      <trkpt lat="39.860966" lon="-5.936359">
        <ele>228.601</ele>
        <time>2021-10-13T08:43:04Z</time>
      </trkpt>
      <trkpt lat="39.860955" lon="-5.935936">
        <ele>229.411</ele>
        <time>2021-10-13T08:43:06Z</time>
      </trkpt>
      <trkpt lat="39.860948" lon="-5.935521">
        <ele>230.008</ele>
        <time>2021-10-13T08:43:08Z</time>
      </trkpt>
      <trkpt lat="39.860940" lon="-5.935319">
        <ele>229.963</ele>
        <time>2021-10-13T08:43:09Z</time>
      </trkpt>
      <trkpt lat="39.860930" lon="-5.934921">
        <ele>229.791</ele>
        <time>2021-10-13T08:43:11Z</time>
      </trkpt>
      <trkpt lat="39.860926" lon="-5.934721">
        <ele>230.368</ele>
        <time>2021-10-13T08:43:12Z</time>
      </trkpt>
      <trkpt lat="39.860921" lon="-5.934325">
        <ele>231.028</ele>
        <time>2021-10-13T08:43:14Z</time>
      </trkpt>
      <trkpt lat="39.860914" lon="-5.933923">
        <ele>231.461</ele>
        <time>2021-10-13T08:43:16Z</time>
      </trkpt>
      <trkpt lat="39.860912" lon="-5.933719">
        <ele>231.537</ele>
        <time>2021-10-13T08:43:17Z</time>
      </trkpt>
      <trkpt lat="39.860903" lon="-5.933294">
        <ele>231.956</ele>
        <time>2021-10-13T08:43:19Z</time>
      </trkpt>
      <trkpt lat="39.860896" lon="-5.933069">
        <ele>232.171</ele>
        <time>2021-10-13T08:43:20Z</time>
      </trkpt>
      <trkpt lat="39.860891" lon="-5.932842">
        <ele>231.852</ele>
        <time>2021-10-13T08:43:21Z</time>
      </trkpt>
      <trkpt lat="39.860873" lon="-5.932375">
        <ele>230.853</ele>
        <time>2021-10-13T08:43:23Z</time>
      </trkpt>
      <trkpt lat="39.860851" lon="-5.931920">
        <ele>231.608</ele>
        <time>2021-10-13T08:43:25Z</time>
      </trkpt>
      <trkpt lat="39.860842" lon="-5.931715">
        <ele>231.308</ele>
        <time>2021-10-13T08:43:26Z</time>
      </trkpt>
      <trkpt lat="39.860822" lon="-5.931334">
        <ele>231.663</ele>
        <time>2021-10-13T08:43:28Z</time>
      </trkpt>
      <trkpt lat="39.860807" lon="-5.930949">
        <ele>232.261</ele>
        <time>2021-10-13T08:43:30Z</time>
      </trkpt>
      <trkpt lat="39.860795" lon="-5.930559">
        <ele>232.078</ele>
        <time>2021-10-13T08:43:32Z</time>
      </trkpt>
      <trkpt lat="39.860790" lon="-5.930167">
        <ele>232.748</ele>
        <time>2021-10-13T08:43:34Z</time>
      </trkpt>
      <trkpt lat="39.860824" lon="-5.929770">
        <ele>234.091</ele>
        <time>2021-10-13T08:43:36Z</time>
      </trkpt>
      <trkpt lat="39.860893" lon="-5.929364">
        <ele>232.317</ele>
        <time>2021-10-13T08:43:38Z</time>
      </trkpt>
      <trkpt lat="39.860933" lon="-5.929155">
        <ele>232.046</ele>
        <time>2021-10-13T08:43:39Z</time>
      </trkpt>
      <trkpt lat="39.861011" lon="-5.928736">
        <ele>232.571</ele>
        <time>2021-10-13T08:43:41Z</time>
      </trkpt>
      <trkpt lat="39.861050" lon="-5.928523">
        <ele>232.767</ele>
        <time>2021-10-13T08:43:42Z</time>
      </trkpt>
      <trkpt lat="39.861126" lon="-5.928107">
        <ele>232.781</ele>
        <time>2021-10-13T08:43:44Z</time>
      </trkpt>
      <trkpt lat="39.861201" lon="-5.927704">
        <ele>232.119</ele>
        <time>2021-10-13T08:43:46Z</time>
      </trkpt>
      <trkpt lat="39.861237" lon="-5.927507">
        <ele>232.508</ele>
        <time>2021-10-13T08:43:47Z</time>
      </trkpt>
      <trkpt lat="39.861272" lon="-5.927316">
        <ele>232.794</ele>
        <time>2021-10-13T08:43:48Z</time>
      </trkpt>
      <trkpt lat="39.861343" lon="-5.926941">
        <ele>233.382</ele>
        <time>2021-10-13T08:43:50Z</time>
      </trkpt>
      <trkpt lat="39.861447" lon="-5.926598">
        <ele>232.969</ele>
        <time>2021-10-13T08:43:52Z</time>
      </trkpt>
      <trkpt lat="39.861528" lon="-5.926442">
        <ele>232.939</ele>
        <time>2021-10-13T08:43:53Z</time>
      </trkpt>
      <trkpt lat="39.861738" lon="-5.926172">
        <ele>233.092</ele>
        <time>2021-10-13T08:43:55Z</time>
      </trkpt>
      <trkpt lat="39.861864" lon="-5.926036">
        <ele>232.448</ele>
        <time>2021-10-13T08:43:56Z</time>
      </trkpt>
      <trkpt lat="39.862100" lon="-5.925758">
        <ele>232.147</ele>
        <time>2021-10-13T08:43:58Z</time>
      </trkpt>
      <trkpt lat="39.862216" lon="-5.925616">
        <ele>232.022</ele>
        <time>2021-10-13T08:43:59Z</time>
      </trkpt>
      <trkpt lat="39.862436" lon="-5.925356">
        <ele>231.068</ele>
        <time>2021-10-13T08:44:01Z</time>
      </trkpt>
      <trkpt lat="39.862543" lon="-5.925226">
        <ele>231.042</ele>
        <time>2021-10-13T08:44:02Z</time>
      </trkpt>
      <trkpt lat="39.862753" lon="-5.924978">
        <ele>230.426</ele>
        <time>2021-10-13T08:44:04Z</time>
      </trkpt>
      <trkpt lat="39.862863" lon="-5.924852">
        <ele>229.308</ele>
        <time>2021-10-13T08:44:05Z</time>
      </trkpt>
      <trkpt lat="39.862964" lon="-5.924727">
        <ele>229.264</ele>
        <time>2021-10-13T08:44:06Z</time>
      </trkpt>
      <trkpt lat="39.863123" lon="-5.924480">
        <ele>229.252</ele>
        <time>2021-10-13T08:44:08Z</time>
      </trkpt>
      <trkpt lat="39.863207" lon="-5.924178">
        <ele>229.039</ele>
        <time>2021-10-13T08:44:10Z</time>
      </trkpt>
      <trkpt lat="39.863221" lon="-5.923828">
        <ele>229.069</ele>
        <time>2021-10-13T08:44:12Z</time>
      </trkpt>
      <trkpt lat="39.863226" lon="-5.923645">
        <ele>227.822</ele>
        <time>2021-10-13T08:44:13Z</time>
      </trkpt>
      <trkpt lat="39.863251" lon="-5.923276">
        <ele>228.038</ele>
        <time>2021-10-13T08:44:15Z</time>
      </trkpt>
      <trkpt lat="39.863267" lon="-5.923090">
        <ele>227.737</ele>
        <time>2021-10-13T08:44:16Z</time>
      </trkpt>
      <trkpt lat="39.863295" lon="-5.922722">
        <ele>227.112</ele>
        <time>2021-10-13T08:44:18Z</time>
      </trkpt>
      <trkpt lat="39.863311" lon="-5.922545">
        <ele>227.254</ele>
        <time>2021-10-13T08:44:19Z</time>
      </trkpt>
      <trkpt lat="39.863343" lon="-5.922208">
        <ele>227.656</ele>
        <time>2021-10-13T08:44:21Z</time>
      </trkpt>
      <trkpt lat="39.863357" lon="-5.922040">
        <ele>228.611</ele>
        <time>2021-10-13T08:44:22Z</time>
      </trkpt>
      <trkpt lat="39.863396" lon="-5.921695">
        <ele>228.508</ele>
        <time>2021-10-13T08:44:24Z</time>
      </trkpt>
      <trkpt lat="39.863471" lon="-5.921331">
        <ele>228.013</ele>
        <time>2021-10-13T08:44:26Z</time>
      </trkpt>
      <trkpt lat="39.863601" lon="-5.920990">
        <ele>227.571</ele>
        <time>2021-10-13T08:44:28Z</time>
      </trkpt>
      <trkpt lat="39.863678" lon="-5.920816">
        <ele>228.068</ele>
        <time>2021-10-13T08:44:29Z</time>
      </trkpt>
      <trkpt lat="39.863831" lon="-5.920460">
        <ele>227.798</ele>
        <time>2021-10-13T08:44:31Z</time>
      </trkpt>
      <trkpt lat="39.863906" lon="-5.920277">
        <ele>227.141</ele>
        <time>2021-10-13T08:44:32Z</time>
      </trkpt>
      <trkpt lat="39.864049" lon="-5.919930">
        <ele>225.787</ele>
        <time>2021-10-13T08:44:34Z</time>
      </trkpt>
      <trkpt lat="39.864117" lon="-5.919754">
        <ele>227.466</ele>
        <time>2021-10-13T08:44:35Z</time>
      </trkpt>
      <trkpt lat="39.864250" lon="-5.919435">
        <ele>226.151</ele>
        <time>2021-10-13T08:44:37Z</time>
      </trkpt>
      <trkpt lat="39.864314" lon="-5.919274">
        <ele>226.997</ele>
        <time>2021-10-13T08:44:38Z</time>
      </trkpt>
      <trkpt lat="39.864435" lon="-5.918926">
        <ele>227.623</ele>
        <time>2021-10-13T08:44:40Z</time>
      </trkpt>
      <trkpt lat="39.864494" lon="-5.918739">
        <ele>227.425</ele>
        <time>2021-10-13T08:44:41Z</time>
      </trkpt>
      <trkpt lat="39.864555" lon="-5.918546">
        <ele>227.308</ele>
        <time>2021-10-13T08:44:42Z</time>
      </trkpt>
      <trkpt lat="39.864618" lon="-5.918349">
        <ele>228.057</ele>
        <time>2021-10-13T08:44:43Z</time>
      </trkpt>
      <trkpt lat="39.864681" lon="-5.918150">
        <ele>228.265</ele>
        <time>2021-10-13T08:44:44Z</time>
      </trkpt>
      <trkpt lat="39.864799" lon="-5.917758">
        <ele>229.272</ele>
        <time>2021-10-13T08:44:46Z</time>
      </trkpt>
      <trkpt lat="39.864851" lon="-5.917560">
        <ele>228.642</ele>
        <time>2021-10-13T08:44:47Z</time>
      </trkpt>
      <trkpt lat="39.864956" lon="-5.917181">
        <ele>228.945</ele>
        <time>2021-10-13T08:44:49Z</time>
      </trkpt>
      <trkpt lat="39.865014" lon="-5.916987">
        <ele>227.651</ele>
        <time>2021-10-13T08:44:50Z</time>
      </trkpt>
      <trkpt lat="39.865130" lon="-5.916590">
        <ele>228.660</ele>
        <time>2021-10-13T08:44:52Z</time>
      </trkpt>
      <trkpt lat="39.865246" lon="-5.916219">
        <ele>228.535</ele>
        <time>2021-10-13T08:44:54Z</time>
      </trkpt>
      <trkpt lat="39.865303" lon="-5.916033">
        <ele>229.726</ele>
        <time>2021-10-13T08:44:55Z</time>
      </trkpt>
      <trkpt lat="39.865359" lon="-5.915837">
        <ele>230.047</ele>
        <time>2021-10-13T08:44:56Z</time>
      </trkpt>
      <trkpt lat="39.865470" lon="-5.915453">
        <ele>230.411</ele>
        <time>2021-10-13T08:44:58Z</time>
      </trkpt>
      <trkpt lat="39.865592" lon="-5.915058">
        <ele>230.108</ele>
        <time>2021-10-13T08:45:00Z</time>
      </trkpt>
      <trkpt lat="39.865719" lon="-5.914651">
        <ele>230.510</ele>
        <time>2021-10-13T08:45:02Z</time>
      </trkpt>
      <trkpt lat="39.865842" lon="-5.914256">
        <ele>230.548</ele>
        <time>2021-10-13T08:45:04Z</time>
      </trkpt>
      <trkpt lat="39.865956" lon="-5.913878">
        <ele>230.845</ele>
        <time>2021-10-13T08:45:06Z</time>
      </trkpt>
      <trkpt lat="39.866021" lon="-5.913711">
        <ele>230.845</ele>
        <time>2021-10-13T08:45:07Z</time>
      </trkpt>
      <trkpt lat="39.866213" lon="-5.913420">
        <ele>230.258</ele>
        <time>2021-10-13T08:45:09Z</time>
      </trkpt>
      <trkpt lat="39.866443" lon="-5.913153">
        <ele>228.954</ele>
        <time>2021-10-13T08:45:11Z</time>
      </trkpt>
      <trkpt lat="39.866561" lon="-5.913019">
        <ele>229.373</ele>
        <time>2021-10-13T08:45:12Z</time>
      </trkpt>
      <trkpt lat="39.866771" lon="-5.912768">
        <ele>230.918</ele>
        <time>2021-10-13T08:45:14Z</time>
      </trkpt>
      <trkpt lat="39.866964" lon="-5.912540">
        <ele>231.759</ele>
        <time>2021-10-13T08:45:16Z</time>
      </trkpt>
      <trkpt lat="39.867183" lon="-5.912336">
        <ele>231.603</ele>
        <time>2021-10-13T08:45:18Z</time>
      </trkpt>
      <trkpt lat="39.867310" lon="-5.912246">
        <ele>231.623</ele>
        <time>2021-10-13T08:45:19Z</time>
      </trkpt>
      <trkpt lat="39.867586" lon="-5.912076">
        <ele>228.908</ele>
        <time>2021-10-13T08:45:21Z</time>
      </trkpt>
      <trkpt lat="39.867729" lon="-5.911987">
        <ele>229.023</ele>
        <time>2021-10-13T08:45:22Z</time>
      </trkpt>
      <trkpt lat="39.867873" lon="-5.911897">
        <ele>229.621</ele>
        <time>2021-10-13T08:45:23Z</time>
      </trkpt>
      <trkpt lat="39.868158" lon="-5.911727">
        <ele>229.438</ele>
        <time>2021-10-13T08:45:25Z</time>
      </trkpt>
      <trkpt lat="39.868293" lon="-5.911647">
        <ele>229.418</ele>
        <time>2021-10-13T08:45:26Z</time>
      </trkpt>
      <trkpt lat="39.868538" lon="-5.911494">
        <ele>229.331</ele>
        <time>2021-10-13T08:45:28Z</time>
      </trkpt>
      <trkpt lat="39.868795" lon="-5.911335">
        <ele>229.447</ele>
        <time>2021-10-13T08:45:30Z</time>
      </trkpt>
      <trkpt lat="39.869060" lon="-5.911162">
        <ele>229.196</ele>
        <time>2021-10-13T08:45:32Z</time>
      </trkpt>
      <trkpt lat="39.869327" lon="-5.910997">
        <ele>229.921</ele>
        <time>2021-10-13T08:45:34Z</time>
      </trkpt>
      <trkpt lat="39.869604" lon="-5.910811">
        <ele>231.326</ele>
        <time>2021-10-13T08:45:36Z</time>
      </trkpt>
      <trkpt lat="39.869880" lon="-5.910614">
        <ele>231.047</ele>
        <time>2021-10-13T08:45:38Z</time>
      </trkpt>
      <trkpt lat="39.870159" lon="-5.910404">
        <ele>231.611</ele>
        <time>2021-10-13T08:45:40Z</time>
      </trkpt>
      <trkpt lat="39.870448" lon="-5.910185">
        <ele>233.108</ele>
        <time>2021-10-13T08:45:42Z</time>
      </trkpt>
      <trkpt lat="39.870597" lon="-5.910075">
        <ele>233.060</ele>
        <time>2021-10-13T08:45:43Z</time>
      </trkpt>
      <trkpt lat="39.870745" lon="-5.909961">
        <ele>231.948</ele>
        <time>2021-10-13T08:45:44Z</time>
      </trkpt>
      <trkpt lat="39.871033" lon="-5.909747">
        <ele>232.265</ele>
        <time>2021-10-13T08:45:46Z</time>
      </trkpt>
      <trkpt lat="39.871179" lon="-5.909640">
        <ele>231.375</ele>
        <time>2021-10-13T08:45:47Z</time>
      </trkpt>
      <trkpt lat="39.871322" lon="-5.909526">
        <ele>231.598</ele>
        <time>2021-10-13T08:45:48Z</time>
      </trkpt>
      <trkpt lat="39.871606" lon="-5.909302">
        <ele>232.434</ele>
        <time>2021-10-13T08:45:50Z</time>
      </trkpt>
      <trkpt lat="39.871750" lon="-5.909192">
        <ele>230.623</ele>
        <time>2021-10-13T08:45:51Z</time>
      </trkpt>
      <trkpt lat="39.872036" lon="-5.908976">
        <ele>230.348</ele>
        <time>2021-10-13T08:45:53Z</time>
      </trkpt>
      <trkpt lat="39.872314" lon="-5.908762">
        <ele>229.691</ele>
        <time>2021-10-13T08:45:55Z</time>
      </trkpt>
      <trkpt lat="39.872450" lon="-5.908659">
        <ele>227.981</ele>
        <time>2021-10-13T08:45:56Z</time>
      </trkpt>
      <trkpt lat="39.872659" lon="-5.908512">
        <ele>229.019</ele>
        <time>2021-10-13T08:45:58Z</time>
      </trkpt>
      <trkpt lat="39.872752" lon="-5.908446">
        <ele>228.708</ele>
        <time>2021-10-13T08:45:59Z</time>
      </trkpt>
      <trkpt lat="39.872930" lon="-5.908318">
        <ele>227.617</ele>
        <time>2021-10-13T08:46:01Z</time>
      </trkpt>
      <trkpt lat="39.873013" lon="-5.908250">
        <ele>229.185</ele>
        <time>2021-10-13T08:46:02Z</time>
      </trkpt>
      <trkpt lat="39.873189" lon="-5.908115">
        <ele>229.142</ele>
        <time>2021-10-13T08:46:04Z</time>
      </trkpt>
      <trkpt lat="39.873289" lon="-5.908036">
        <ele>229.112</ele>
        <time>2021-10-13T08:46:05Z</time>
      </trkpt>
      <trkpt lat="39.873397" lon="-5.907955">
        <ele>229.185</ele>
        <time>2021-10-13T08:46:06Z</time>
      </trkpt>
      <trkpt lat="39.873612" lon="-5.907789">
        <ele>229.021</ele>
        <time>2021-10-13T08:46:08Z</time>
      </trkpt>
      <trkpt lat="39.873720" lon="-5.907700">
        <ele>229.020</ele>
        <time>2021-10-13T08:46:09Z</time>
      </trkpt>
      <trkpt lat="39.873953" lon="-5.907528">
        <ele>229.125</ele>
        <time>2021-10-13T08:46:11Z</time>
      </trkpt>
      <trkpt lat="39.874075" lon="-5.907436">
        <ele>229.418</ele>
        <time>2021-10-13T08:46:12Z</time>
      </trkpt>
      <trkpt lat="39.874327" lon="-5.907249">
        <ele>229.398</ele>
        <time>2021-10-13T08:46:14Z</time>
      </trkpt>
      <trkpt lat="39.874456" lon="-5.907154">
        <ele>228.817</ele>
        <time>2021-10-13T08:46:15Z</time>
      </trkpt>
      <trkpt lat="39.874698" lon="-5.906976">
        <ele>229.908</ele>
        <time>2021-10-13T08:46:17Z</time>
      </trkpt>
      <trkpt lat="39.874932" lon="-5.906806">
        <ele>228.839</ele>
        <time>2021-10-13T08:46:19Z</time>
      </trkpt>
      <trkpt lat="39.875176" lon="-5.906631">
        <ele>230.117</ele>
        <time>2021-10-13T08:46:21Z</time>
      </trkpt>
      <trkpt lat="39.875427" lon="-5.906451">
        <ele>229.464</ele>
        <time>2021-10-13T08:46:23Z</time>
      </trkpt>
      <trkpt lat="39.875669" lon="-5.906258">
        <ele>229.114</ele>
        <time>2021-10-13T08:46:25Z</time>
      </trkpt>
      <trkpt lat="39.875788" lon="-5.906152">
        <ele>228.677</ele>
        <time>2021-10-13T08:46:26Z</time>
      </trkpt>
      <trkpt lat="39.876014" lon="-5.905932">
        <ele>229.593</ele>
        <time>2021-10-13T08:46:28Z</time>
      </trkpt>
      <trkpt lat="39.876238" lon="-5.905680">
        <ele>230.892</ele>
        <time>2021-10-13T08:46:30Z</time>
      </trkpt>
      <trkpt lat="39.876349" lon="-5.905545">
        <ele>230.767</ele>
        <time>2021-10-13T08:46:31Z</time>
      </trkpt>
      <trkpt lat="39.876462" lon="-5.905404">
        <ele>231.239</ele>
        <time>2021-10-13T08:46:32Z</time>
      </trkpt>
      <trkpt lat="39.876672" lon="-5.905144">
        <ele>231.801</ele>
        <time>2021-10-13T08:46:34Z</time>
      </trkpt>
      <trkpt lat="39.876777" lon="-5.905015">
        <ele>232.721</ele>
        <time>2021-10-13T08:46:35Z</time>
      </trkpt>
      <trkpt lat="39.876987" lon="-5.904760">
        <ele>234.108</ele>
        <time>2021-10-13T08:46:37Z</time>
      </trkpt>
      <trkpt lat="39.877202" lon="-5.904502">
        <ele>235.321</ele>
        <time>2021-10-13T08:46:39Z</time>
      </trkpt>
      <trkpt lat="39.877433" lon="-5.904224">
        <ele>235.759</ele>
        <time>2021-10-13T08:46:41Z</time>
      </trkpt>
      <trkpt lat="39.877675" lon="-5.903916">
        <ele>236.886</ele>
        <time>2021-10-13T08:46:43Z</time>
      </trkpt>
      <trkpt lat="39.877801" lon="-5.903759">
        <ele>236.336</ele>
        <time>2021-10-13T08:46:44Z</time>
      </trkpt>
      <trkpt lat="39.878040" lon="-5.903469">
        <ele>236.259</ele>
        <time>2021-10-13T08:46:46Z</time>
      </trkpt>
      <trkpt lat="39.878267" lon="-5.903195">
        <ele>238.075</ele>
        <time>2021-10-13T08:46:48Z</time>
      </trkpt>
      <trkpt lat="39.878378" lon="-5.903053">
        <ele>238.374</ele>
        <time>2021-10-13T08:46:49Z</time>
      </trkpt>
      <trkpt lat="39.878599" lon="-5.902774">
        <ele>238.169</ele>
        <time>2021-10-13T08:46:51Z</time>
      </trkpt>
      <trkpt lat="39.878817" lon="-5.902502">
        <ele>238.096</ele>
        <time>2021-10-13T08:46:53Z</time>
      </trkpt>
      <trkpt lat="39.878918" lon="-5.902374">
        <ele>237.231</ele>
        <time>2021-10-13T08:46:54Z</time>
      </trkpt>
      <trkpt lat="39.879122" lon="-5.902108">
        <ele>236.524</ele>
        <time>2021-10-13T08:46:56Z</time>
      </trkpt>
      <trkpt lat="39.879339" lon="-5.901844">
        <ele>237.708</ele>
        <time>2021-10-13T08:46:58Z</time>
      </trkpt>
      <trkpt lat="39.879459" lon="-5.901702">
        <ele>238.387</ele>
        <time>2021-10-13T08:46:59Z</time>
      </trkpt>
      <trkpt lat="39.879696" lon="-5.901420">
        <ele>241.845</ele>
        <time>2021-10-13T08:47:01Z</time>
      </trkpt>
      <trkpt lat="39.879812" lon="-5.901274">
        <ele>243.052</ele>
        <time>2021-10-13T08:47:02Z</time>
      </trkpt>
      <trkpt lat="39.880033" lon="-5.900984">
        <ele>244.472</ele>
        <time>2021-10-13T08:47:04Z</time>
      </trkpt>
      <trkpt lat="39.880140" lon="-5.900829">
        <ele>244.895</ele>
        <time>2021-10-13T08:47:05Z</time>
      </trkpt>
      <trkpt lat="39.880342" lon="-5.900503">
        <ele>246.331</ele>
        <time>2021-10-13T08:47:07Z</time>
      </trkpt>
      <trkpt lat="39.880540" lon="-5.900160">
        <ele>246.080</ele>
        <time>2021-10-13T08:47:09Z</time>
      </trkpt>
      <trkpt lat="39.880745" lon="-5.899806">
        <ele>247.575</ele>
        <time>2021-10-13T08:47:11Z</time>
      </trkpt>
      <trkpt lat="39.880852" lon="-5.899626">
        <ele>248.574</ele>
        <time>2021-10-13T08:47:12Z</time>
      </trkpt>
      <trkpt lat="39.880962" lon="-5.899445">
        <ele>249.056</ele>
        <time>2021-10-13T08:47:13Z</time>
      </trkpt>
      <trkpt lat="39.881168" lon="-5.899094">
        <ele>249.721</ele>
        <time>2021-10-13T08:47:15Z</time>
      </trkpt>
      <trkpt lat="39.881265" lon="-5.898928">
        <ele>250.008</ele>
        <time>2021-10-13T08:47:16Z</time>
      </trkpt>
      <trkpt lat="39.881446" lon="-5.898604">
        <ele>249.335</ele>
        <time>2021-10-13T08:47:18Z</time>
      </trkpt>
      <trkpt lat="39.881604" lon="-5.898286">
        <ele>249.483</ele>
        <time>2021-10-13T08:47:20Z</time>
      </trkpt>
      <trkpt lat="39.881785" lon="-5.897959">
        <ele>248.190</ele>
        <time>2021-10-13T08:47:22Z</time>
      </trkpt>
      <trkpt lat="39.881883" lon="-5.897797">
        <ele>248.480</ele>
        <time>2021-10-13T08:47:23Z</time>
      </trkpt>
      <trkpt lat="39.881984" lon="-5.897632">
        <ele>248.113</ele>
        <time>2021-10-13T08:47:24Z</time>
      </trkpt>
      <trkpt lat="39.882176" lon="-5.897325">
        <ele>248.549</ele>
        <time>2021-10-13T08:47:26Z</time>
      </trkpt>
      <trkpt lat="39.882373" lon="-5.897066">
        <ele>248.288</ele>
        <time>2021-10-13T08:47:28Z</time>
      </trkpt>
      <trkpt lat="39.882601" lon="-5.896837">
        <ele>249.183</ele>
        <time>2021-10-13T08:47:30Z</time>
      </trkpt>
      <trkpt lat="39.882851" lon="-5.896620">
        <ele>251.166</ele>
        <time>2021-10-13T08:47:32Z</time>
      </trkpt>
      <trkpt lat="39.883114" lon="-5.896408">
        <ele>252.229</ele>
        <time>2021-10-13T08:47:34Z</time>
      </trkpt>
      <trkpt lat="39.883365" lon="-5.896204">
        <ele>252.721</ele>
        <time>2021-10-13T08:47:36Z</time>
      </trkpt>
      <trkpt lat="39.883602" lon="-5.896010">
        <ele>252.508</ele>
        <time>2021-10-13T08:47:38Z</time>
      </trkpt>
      <trkpt lat="39.883723" lon="-5.895910">
        <ele>252.274</ele>
        <time>2021-10-13T08:47:39Z</time>
      </trkpt>
      <trkpt lat="39.883849" lon="-5.895802">
        <ele>251.932</ele>
        <time>2021-10-13T08:47:40Z</time>
      </trkpt>
      <trkpt lat="39.884114" lon="-5.895583">
        <ele>252.879</ele>
        <time>2021-10-13T08:47:42Z</time>
      </trkpt>
      <trkpt lat="39.884250" lon="-5.895471">
        <ele>252.679</ele>
        <time>2021-10-13T08:47:43Z</time>
      </trkpt>
      <trkpt lat="39.884385" lon="-5.895363">
        <ele>252.622</ele>
        <time>2021-10-13T08:47:44Z</time>
      </trkpt>
      <trkpt lat="39.884518" lon="-5.895260">
        <ele>252.548</ele>
        <time>2021-10-13T08:47:45Z</time>
      </trkpt>
      <trkpt lat="39.884787" lon="-5.895055">
        <ele>249.387</ele>
        <time>2021-10-13T08:47:47Z</time>
      </trkpt>
      <trkpt lat="39.885059" lon="-5.894834">
        <ele>249.242</ele>
        <time>2021-10-13T08:47:49Z</time>
      </trkpt>
      <trkpt lat="39.885314" lon="-5.894620">
        <ele>248.678</ele>
        <time>2021-10-13T08:47:51Z</time>
      </trkpt>
      <trkpt lat="39.885554" lon="-5.894415">
        <ele>248.033</ele>
        <time>2021-10-13T08:47:53Z</time>
      </trkpt>
      <trkpt lat="39.885678" lon="-5.894311">
        <ele>248.626</ele>
        <time>2021-10-13T08:47:54Z</time>
      </trkpt>
      <trkpt lat="39.885927" lon="-5.894100">
        <ele>249.908</ele>
        <time>2021-10-13T08:47:56Z</time>
      </trkpt>
      <trkpt lat="39.886173" lon="-5.893885">
        <ele>249.735</ele>
        <time>2021-10-13T08:47:58Z</time>
      </trkpt>
      <trkpt lat="39.886453" lon="-5.893693">
        <ele>249.293</ele>
        <time>2021-10-13T08:48:00Z</time>
      </trkpt>
      <trkpt lat="39.886611" lon="-5.893624">
        <ele>250.250</ele>
        <time>2021-10-13T08:48:01Z</time>
      </trkpt>
      <trkpt lat="39.886941" lon="-5.893556">
        <ele>251.750</ele>
        <time>2021-10-13T08:48:03Z</time>
      </trkpt>
      <trkpt lat="39.887113" lon="-5.893551">
        <ele>251.913</ele>
        <time>2021-10-13T08:48:04Z</time>
      </trkpt>
      <trkpt lat="39.887456" lon="-5.893561">
        <ele>252.799</ele>
        <time>2021-10-13T08:48:06Z</time>
      </trkpt>
      <trkpt lat="39.887626" lon="-5.893566">
        <ele>252.918</ele>
        <time>2021-10-13T08:48:07Z</time>
      </trkpt>
      <trkpt lat="39.887964" lon="-5.893579">
        <ele>255.283</ele>
        <time>2021-10-13T08:48:09Z</time>
      </trkpt>
      <trkpt lat="39.888138" lon="-5.893584">
        <ele>255.594</ele>
        <time>2021-10-13T08:48:10Z</time>
      </trkpt>
      <trkpt lat="39.888487" lon="-5.893587">
        <ele>254.557</ele>
        <time>2021-10-13T08:48:12Z</time>
      </trkpt>
      <trkpt lat="39.888834" lon="-5.893596">
        <ele>255.222</ele>
        <time>2021-10-13T08:48:14Z</time>
      </trkpt>
      <trkpt lat="39.889010" lon="-5.893602">
        <ele>255.808</ele>
        <time>2021-10-13T08:48:15Z</time>
      </trkpt>
      <trkpt lat="39.889357" lon="-5.893611">
        <ele>255.297</ele>
        <time>2021-10-13T08:48:17Z</time>
      </trkpt>
      <trkpt lat="39.889696" lon="-5.893611">
        <ele>255.525</ele>
        <time>2021-10-13T08:48:19Z</time>
      </trkpt>
      <trkpt lat="39.890031" lon="-5.893616">
        <ele>255.282</ele>
        <time>2021-10-13T08:48:21Z</time>
      </trkpt>
      <trkpt lat="39.890371" lon="-5.893633">
        <ele>254.462</ele>
        <time>2021-10-13T08:48:23Z</time>
      </trkpt>
      <trkpt lat="39.890545" lon="-5.893651">
        <ele>254.265</ele>
        <time>2021-10-13T08:48:24Z</time>
      </trkpt>
      <trkpt lat="39.890897" lon="-5.893705">
        <ele>253.671</ele>
        <time>2021-10-13T08:48:26Z</time>
      </trkpt>
      <trkpt lat="39.891235" lon="-5.893763">
        <ele>253.890</ele>
        <time>2021-10-13T08:48:28Z</time>
      </trkpt>
      <trkpt lat="39.891401" lon="-5.893796">
        <ele>253.595</ele>
        <time>2021-10-13T08:48:29Z</time>
      </trkpt>
      <trkpt lat="39.891724" lon="-5.893858">
        <ele>253.959</ele>
        <time>2021-10-13T08:48:31Z</time>
      </trkpt>
      <trkpt lat="39.891886" lon="-5.893886">
        <ele>253.603</ele>
        <time>2021-10-13T08:48:32Z</time>
      </trkpt>
      <trkpt lat="39.892046" lon="-5.893913">
        <ele>253.523</ele>
        <time>2021-10-13T08:48:33Z</time>
      </trkpt>
      <trkpt lat="39.892361" lon="-5.893968">
        <ele>255.108</ele>
        <time>2021-10-13T08:48:35Z</time>
      </trkpt>
      <trkpt lat="39.892521" lon="-5.893994">
        <ele>256.193</ele>
        <time>2021-10-13T08:48:36Z</time>
      </trkpt>
      <trkpt lat="39.892830" lon="-5.894034">
        <ele>254.211</ele>
        <time>2021-10-13T08:48:38Z</time>
      </trkpt>
      <trkpt lat="39.893116" lon="-5.894034">
        <ele>255.158</ele>
        <time>2021-10-13T08:48:40Z</time>
      </trkpt>
      <trkpt lat="39.893414" lon="-5.894005">
        <ele>253.648</ele>
        <time>2021-10-13T08:48:42Z</time>
      </trkpt>
      <trkpt lat="39.893734" lon="-5.893947">
        <ele>253.041</ele>
        <time>2021-10-13T08:48:44Z</time>
      </trkpt>
      <trkpt lat="39.894069" lon="-5.893879">
        <ele>252.417</ele>
        <time>2021-10-13T08:48:46Z</time>
      </trkpt>
      <trkpt lat="39.894410" lon="-5.893813">
        <ele>252.276</ele>
        <time>2021-10-13T08:48:48Z</time>
      </trkpt>
      <trkpt lat="39.894753" lon="-5.893751">
        <ele>251.851</ele>
        <time>2021-10-13T08:48:50Z</time>
      </trkpt>
      <trkpt lat="39.894928" lon="-5.893717">
        <ele>252.857</ele>
        <time>2021-10-13T08:48:51Z</time>
      </trkpt>
      <trkpt lat="39.895104" lon="-5.893686">
        <ele>253.800</ele>
        <time>2021-10-13T08:48:52Z</time>
      </trkpt>
      <trkpt lat="39.895458" lon="-5.893632">
        <ele>253.420</ele>
        <time>2021-10-13T08:48:54Z</time>
      </trkpt>
      <trkpt lat="39.895810" lon="-5.893593">
        <ele>252.808</ele>
        <time>2021-10-13T08:48:56Z</time>
      </trkpt>
      <trkpt lat="39.895978" lon="-5.893563">
        <ele>252.683</ele>
        <time>2021-10-13T08:48:57Z</time>
      </trkpt>
      <trkpt lat="39.896283" lon="-5.893492">
        <ele>251.981</ele>
        <time>2021-10-13T08:48:59Z</time>
      </trkpt>
      <trkpt lat="39.896438" lon="-5.893459">
        <ele>251.788</ele>
        <time>2021-10-13T08:49:00Z</time>
      </trkpt>
      <trkpt lat="39.896601" lon="-5.893431">
        <ele>251.688</ele>
        <time>2021-10-13T08:49:01Z</time>
      </trkpt>
      <trkpt lat="39.896943" lon="-5.893415">
        <ele>250.031</ele>
        <time>2021-10-13T08:49:03Z</time>
      </trkpt>
      <trkpt lat="39.897124" lon="-5.893434">
        <ele>250.267</ele>
        <time>2021-10-13T08:49:04Z</time>
      </trkpt>
      <trkpt lat="39.897486" lon="-5.893511">
        <ele>251.396</ele>
        <time>2021-10-13T08:49:06Z</time>
      </trkpt>
      <trkpt lat="39.897844" lon="-5.893607">
        <ele>252.411</ele>
        <time>2021-10-13T08:49:08Z</time>
      </trkpt>
      <trkpt lat="39.898171" lon="-5.893698">
        <ele>250.669</ele>
        <time>2021-10-13T08:49:10Z</time>
      </trkpt>
      <trkpt lat="39.898471" lon="-5.893777">
        <ele>251.004</ele>
        <time>2021-10-13T08:49:12Z</time>
      </trkpt>
      <trkpt lat="39.898622" lon="-5.893818">
        <ele>251.124</ele>
        <time>2021-10-13T08:49:13Z</time>
      </trkpt>
      <trkpt lat="39.898776" lon="-5.893858">
        <ele>250.608</ele>
        <time>2021-10-13T08:49:14Z</time>
      </trkpt>
      <trkpt lat="39.898930" lon="-5.893897">
        <ele>249.644</ele>
        <time>2021-10-13T08:49:15Z</time>
      </trkpt>
      <trkpt lat="39.899231" lon="-5.893972">
        <ele>248.712</ele>
        <time>2021-10-13T08:49:17Z</time>
      </trkpt>
      <trkpt lat="39.899374" lon="-5.894009">
        <ele>248.729</ele>
        <time>2021-10-13T08:49:18Z</time>
      </trkpt>
      <trkpt lat="39.899652" lon="-5.894085">
        <ele>247.659</ele>
        <time>2021-10-13T08:49:20Z</time>
      </trkpt>
      <trkpt lat="39.899782" lon="-5.894114">
        <ele>248.022</ele>
        <time>2021-10-13T08:49:21Z</time>
      </trkpt>
      <trkpt lat="39.899908" lon="-5.894141">
        <ele>247.498</ele>
        <time>2021-10-13T08:49:22Z</time>
      </trkpt>
      <trkpt lat="39.900157" lon="-5.894197">
        <ele>246.857</ele>
        <time>2021-10-13T08:49:24Z</time>
      </trkpt>
      <trkpt lat="39.900418" lon="-5.894257">
        <ele>246.012</ele>
        <time>2021-10-13T08:49:26Z</time>
      </trkpt>
      <trkpt lat="39.900681" lon="-5.894319">
        <ele>245.447</ele>
        <time>2021-10-13T08:49:28Z</time>
      </trkpt>
      <trkpt lat="39.900816" lon="-5.894353">
        <ele>244.729</ele>
        <time>2021-10-13T08:49:29Z</time>
      </trkpt>
      <trkpt lat="39.901079" lon="-5.894418">
        <ele>243.721</ele>
        <time>2021-10-13T08:49:31Z</time>
      </trkpt>
      <trkpt lat="39.901326" lon="-5.894475">
        <ele>242.508</ele>
        <time>2021-10-13T08:49:33Z</time>
      </trkpt>
      <trkpt lat="39.901572" lon="-5.894532">
        <ele>241.552</ele>
        <time>2021-10-13T08:49:35Z</time>
      </trkpt>
      <trkpt lat="39.901831" lon="-5.894600">
        <ele>241.540</ele>
        <time>2021-10-13T08:49:37Z</time>
      </trkpt>
      <trkpt lat="39.902094" lon="-5.894668">
        <ele>239.837</ele>
        <time>2021-10-13T08:49:39Z</time>
      </trkpt>
      <trkpt lat="39.902229" lon="-5.894705">
        <ele>239.187</ele>
        <time>2021-10-13T08:49:40Z</time>
      </trkpt>
      <trkpt lat="39.902364" lon="-5.894740">
        <ele>238.230</ele>
        <time>2021-10-13T08:49:41Z</time>
      </trkpt>
      <trkpt lat="39.902636" lon="-5.894810">
        <ele>237.476</ele>
        <time>2021-10-13T08:49:43Z</time>
      </trkpt>
      <trkpt lat="39.902913" lon="-5.894856">
        <ele>237.035</ele>
        <time>2021-10-13T08:49:45Z</time>
      </trkpt>
      <trkpt lat="39.903197" lon="-5.894843">
        <ele>237.190</ele>
        <time>2021-10-13T08:49:47Z</time>
      </trkpt>
      <trkpt lat="39.903343" lon="-5.894817">
        <ele>236.497</ele>
        <time>2021-10-13T08:49:48Z</time>
      </trkpt>
      <trkpt lat="39.903645" lon="-5.894738">
        <ele>235.323</ele>
        <time>2021-10-13T08:49:50Z</time>
      </trkpt>
      <trkpt lat="39.903980" lon="-5.894647">
        <ele>233.925</ele>
        <time>2021-10-13T08:49:52Z</time>
      </trkpt>
      <trkpt lat="39.904322" lon="-5.894563">
        <ele>231.508</ele>
        <time>2021-10-13T08:49:54Z</time>
      </trkpt>
      <trkpt lat="39.904497" lon="-5.894521">
        <ele>232.057</ele>
        <time>2021-10-13T08:49:55Z</time>
      </trkpt>
      <trkpt lat="39.904676" lon="-5.894476">
        <ele>231.765</ele>
        <time>2021-10-13T08:49:56Z</time>
      </trkpt>
      <trkpt lat="39.905008" lon="-5.894389">
        <ele>230.892</ele>
        <time>2021-10-13T08:49:58Z</time>
      </trkpt>
      <trkpt lat="39.905172" lon="-5.894352">
        <ele>230.142</ele>
        <time>2021-10-13T08:49:59Z</time>
      </trkpt>
      <trkpt lat="39.905479" lon="-5.894286">
        <ele>230.925</ele>
        <time>2021-10-13T08:50:01Z</time>
      </trkpt>
      <trkpt lat="39.905618" lon="-5.894254">
        <ele>230.911</ele>
        <time>2021-10-13T08:50:02Z</time>
      </trkpt>
      <trkpt lat="39.905868" lon="-5.894193">
        <ele>231.240</ele>
        <time>2021-10-13T08:50:04Z</time>
      </trkpt>
      <trkpt lat="39.906069" lon="-5.894121">
        <ele>233.345</ele>
        <time>2021-10-13T08:50:06Z</time>
      </trkpt>
      <trkpt lat="39.906174" lon="-5.894044">
        <ele>233.345</ele>
        <time>2021-10-13T08:50:08Z</time>
      </trkpt>
      <trkpt lat="39.906183" lon="-5.893975">
        <ele>233.947</ele>
        <time>2021-10-13T08:50:11Z</time>
      </trkpt>
      <trkpt lat="39.906191" lon="-5.893915">
        <ele>234.611</ele>
        <time>2021-10-13T08:50:35Z</time>
      </trkpt>
      <trkpt lat="39.906237" lon="-5.893886">
        <ele>235.008</ele>
        <time>2021-10-13T08:52:20Z</time>
      </trkpt>
      <trkpt lat="39.906356" lon="-5.893804">
        <ele>235.052</ele>
        <time>2021-10-13T08:52:22Z</time>
      </trkpt>
      <trkpt lat="39.906499" lon="-5.893691">
        <ele>235.850</ele>
        <time>2021-10-13T08:52:24Z</time>
      </trkpt>
      <trkpt lat="39.906562" lon="-5.893645">
        <ele>235.727</ele>
        <time>2021-10-13T08:52:25Z</time>
      </trkpt>
      <trkpt lat="39.906631" lon="-5.893600">
        <ele>235.897</ele>
        <time>2021-10-13T08:52:26Z</time>
      </trkpt>
      <trkpt lat="39.906777" lon="-5.893510">
        <ele>236.470</ele>
        <time>2021-10-13T08:52:28Z</time>
      </trkpt>
      <trkpt lat="39.906859" lon="-5.893460">
        <ele>236.996</ele>
        <time>2021-10-13T08:52:29Z</time>
      </trkpt>
      <trkpt lat="39.906951" lon="-5.893399">
        <ele>237.055</ele>
        <time>2021-10-13T08:52:30Z</time>
      </trkpt>
      <trkpt lat="39.907110" lon="-5.893292">
        <ele>238.080</ele>
        <time>2021-10-13T08:52:32Z</time>
      </trkpt>
      <trkpt lat="39.907175" lon="-5.893250">
        <ele>238.039</ele>
        <time>2021-10-13T08:52:33Z</time>
      </trkpt>
      <trkpt lat="39.907304" lon="-5.893177">
        <ele>238.101</ele>
        <time>2021-10-13T08:52:35Z</time>
      </trkpt>
      <trkpt lat="39.907480" lon="-5.893134">
        <ele>237.521</ele>
        <time>2021-10-13T08:52:37Z</time>
      </trkpt>
      <trkpt lat="39.907581" lon="-5.893130">
        <ele>237.408</ele>
        <time>2021-10-13T08:52:38Z</time>
      </trkpt>
      <trkpt lat="39.907801" lon="-5.893172">
        <ele>237.021</ele>
        <time>2021-10-13T08:52:40Z</time>
      </trkpt>
      <trkpt lat="39.908031" lon="-5.893275">
        <ele>236.759</ele>
        <time>2021-10-13T08:52:42Z</time>
      </trkpt>
      <trkpt lat="39.908142" lon="-5.893327">
        <ele>236.036</ele>
        <time>2021-10-13T08:52:43Z</time>
      </trkpt>
      <trkpt lat="39.908358" lon="-5.893429">
        <ele>234.856</ele>
        <time>2021-10-13T08:52:45Z</time>
      </trkpt>
      <trkpt lat="39.908469" lon="-5.893477">
        <ele>234.529</ele>
        <time>2021-10-13T08:52:46Z</time>
      </trkpt>
      <trkpt lat="39.908693" lon="-5.893574">
        <ele>234.575</ele>
        <time>2021-10-13T08:52:48Z</time>
      </trkpt>
      <trkpt lat="39.908814" lon="-5.893625">
        <ele>233.514</ele>
        <time>2021-10-13T08:52:49Z</time>
      </trkpt>
      <trkpt lat="39.909056" lon="-5.893730">
        <ele>234.079</ele>
        <time>2021-10-13T08:52:51Z</time>
      </trkpt>
      <trkpt lat="39.909297" lon="-5.893830">
        <ele>234.623</ele>
        <time>2021-10-13T08:52:53Z</time>
      </trkpt>
      <trkpt lat="39.909412" lon="-5.893875">
        <ele>234.783</ele>
        <time>2021-10-13T08:52:54Z</time>
      </trkpt>
      <trkpt lat="39.909623" lon="-5.893963">
        <ele>234.711</ele>
        <time>2021-10-13T08:52:56Z</time>
      </trkpt>
      <trkpt lat="39.909813" lon="-5.894063">
        <ele>234.408</ele>
        <time>2021-10-13T08:52:58Z</time>
      </trkpt>
      <trkpt lat="39.909907" lon="-5.894142">
        <ele>235.120</ele>
        <time>2021-10-13T08:52:59Z</time>
      </trkpt>
      <trkpt lat="39.910086" lon="-5.894377">
        <ele>235.238</ele>
        <time>2021-10-13T08:53:01Z</time>
      </trkpt>
      <trkpt lat="39.910171" lon="-5.894529">
        <ele>235.295</ele>
        <time>2021-10-13T08:53:02Z</time>
      </trkpt>
      <trkpt lat="39.910354" lon="-5.894882">
        <ele>236.715</ele>
        <time>2021-10-13T08:53:04Z</time>
      </trkpt>
      <trkpt lat="39.910442" lon="-5.895061">
        <ele>237.648</ele>
        <time>2021-10-13T08:53:05Z</time>
      </trkpt>
      <trkpt lat="39.910528" lon="-5.895243">
        <ele>237.354</ele>
        <time>2021-10-13T08:53:06Z</time>
      </trkpt>
      <trkpt lat="39.910615" lon="-5.895426">
        <ele>237.343</ele>
        <time>2021-10-13T08:53:07Z</time>
      </trkpt>
      <trkpt lat="39.910808" lon="-5.895791">
        <ele>237.798</ele>
        <time>2021-10-13T08:53:09Z</time>
      </trkpt>
      <trkpt lat="39.911021" lon="-5.896139">
        <ele>238.089</ele>
        <time>2021-10-13T08:53:11Z</time>
      </trkpt>
      <trkpt lat="39.911225" lon="-5.896473">
        <ele>239.606</ele>
        <time>2021-10-13T08:53:13Z</time>
      </trkpt>
      <trkpt lat="39.911410" lon="-5.896782">
        <ele>240.326</ele>
        <time>2021-10-13T08:53:15Z</time>
      </trkpt>
      <trkpt lat="39.911588" lon="-5.897089">
        <ele>240.008</ele>
        <time>2021-10-13T08:53:17Z</time>
      </trkpt>
      <trkpt lat="39.911747" lon="-5.897370">
        <ele>239.896</ele>
        <time>2021-10-13T08:53:19Z</time>
      </trkpt>
      <trkpt lat="39.911877" lon="-5.897612">
        <ele>240.724</ele>
        <time>2021-10-13T08:53:21Z</time>
      </trkpt>
      <trkpt lat="39.911976" lon="-5.897779">
        <ele>240.791</ele>
        <time>2021-10-13T08:53:23Z</time>
      </trkpt>
      <trkpt lat="39.912009" lon="-5.897837">
        <ele>241.171</ele>
        <time>2021-10-13T08:53:24Z</time>
      </trkpt>
      <trkpt lat="39.912066" lon="-5.897955">
        <ele>241.814</ele>
        <time>2021-10-13T08:53:26Z</time>
      </trkpt>
      <trkpt lat="39.912108" lon="-5.898045">
        <ele>241.790</ele>
        <time>2021-10-13T08:53:28Z</time>
      </trkpt>
      <trkpt lat="39.912146" lon="-5.898118">
        <ele>241.949</ele>
        <time>2021-10-13T08:53:30Z</time>
      </trkpt>
      <trkpt lat="39.912171" lon="-5.898167">
        <ele>241.724</ele>
        <time>2021-10-13T08:53:31Z</time>
      </trkpt>
      <trkpt lat="39.912222" lon="-5.898269">
        <ele>241.441</ele>
        <time>2021-10-13T08:53:33Z</time>
      </trkpt>
      <trkpt lat="39.912278" lon="-5.898373">
        <ele>241.481</ele>
        <time>2021-10-13T08:53:35Z</time>
      </trkpt>
      <trkpt lat="39.912348" lon="-5.898495">
        <ele>239.609</ele>
        <time>2021-10-13T08:53:37Z</time>
      </trkpt>
      <trkpt lat="39.912447" lon="-5.898662">
        <ele>239.108</ele>
        <time>2021-10-13T08:53:39Z</time>
      </trkpt>
      <trkpt lat="39.912574" lon="-5.898880">
        <ele>238.942</ele>
        <time>2021-10-13T08:53:41Z</time>
      </trkpt>
      <trkpt lat="39.912648" lon="-5.899013">
        <ele>238.480</ele>
        <time>2021-10-13T08:53:42Z</time>
      </trkpt>
      <trkpt lat="39.912817" lon="-5.899319">
        <ele>238.677</ele>
        <time>2021-10-13T08:53:44Z</time>
      </trkpt>
      <trkpt lat="39.912912" lon="-5.899495">
        <ele>238.197</ele>
        <time>2021-10-13T08:53:45Z</time>
      </trkpt>
      <trkpt lat="39.913122" lon="-5.899883">
        <ele>238.380</ele>
        <time>2021-10-13T08:53:47Z</time>
      </trkpt>
      <trkpt lat="39.913310" lon="-5.900249">
        <ele>238.736</ele>
        <time>2021-10-13T08:53:49Z</time>
      </trkpt>
      <trkpt lat="39.913467" lon="-5.900558">
        <ele>238.655</ele>
        <time>2021-10-13T08:53:51Z</time>
      </trkpt>
      <trkpt lat="39.913610" lon="-5.900834">
        <ele>238.730</ele>
        <time>2021-10-13T08:53:53Z</time>
      </trkpt>
      <trkpt lat="39.913683" lon="-5.900975">
        <ele>238.421</ele>
        <time>2021-10-13T08:53:54Z</time>
      </trkpt>
      <trkpt lat="39.913839" lon="-5.901275">
        <ele>237.641</ele>
        <time>2021-10-13T08:53:56Z</time>
      </trkpt>
      <trkpt lat="39.914026" lon="-5.901565">
        <ele>237.305</ele>
        <time>2021-10-13T08:53:58Z</time>
      </trkpt>
      <trkpt lat="39.914139" lon="-5.901708">
        <ele>237.808</ele>
        <time>2021-10-13T08:53:59Z</time>
      </trkpt>
      <trkpt lat="39.914351" lon="-5.901953">
        <ele>237.990</ele>
        <time>2021-10-13T08:54:01Z</time>
      </trkpt>
      <trkpt lat="39.914452" lon="-5.902068">
        <ele>238.558</ele>
        <time>2021-10-13T08:54:02Z</time>
      </trkpt>
      <trkpt lat="39.914626" lon="-5.902253">
        <ele>239.765</ele>
        <time>2021-10-13T08:54:04Z</time>
      </trkpt>
      <trkpt lat="39.914806" lon="-5.902390">
        <ele>239.785</ele>
        <time>2021-10-13T08:54:06Z</time>
      </trkpt>
      <trkpt lat="39.915020" lon="-5.902411">
        <ele>241.388</ele>
        <time>2021-10-13T08:54:08Z</time>
      </trkpt>
      <trkpt lat="39.915138" lon="-5.902385">
        <ele>241.464</ele>
        <time>2021-10-13T08:54:09Z</time>
      </trkpt>
      <trkpt lat="39.915385" lon="-5.902312">
        <ele>241.523</ele>
        <time>2021-10-13T08:54:11Z</time>
      </trkpt>
      <trkpt lat="39.915642" lon="-5.902260">
        <ele>240.388</ele>
        <time>2021-10-13T08:54:13Z</time>
      </trkpt>
      <trkpt lat="39.915917" lon="-5.902268">
        <ele>239.394</ele>
        <time>2021-10-13T08:54:15Z</time>
      </trkpt>
      <trkpt lat="39.916064" lon="-5.902294">
        <ele>238.957</ele>
        <time>2021-10-13T08:54:16Z</time>
      </trkpt>
      <trkpt lat="39.916219" lon="-5.902323">
        <ele>238.722</ele>
        <time>2021-10-13T08:54:17Z</time>
      </trkpt>
      <trkpt lat="39.916549" lon="-5.902395">
        <ele>238.708</ele>
        <time>2021-10-13T08:54:19Z</time>
      </trkpt>
      <trkpt lat="39.916713" lon="-5.902440">
        <ele>238.057</ele>
        <time>2021-10-13T08:54:20Z</time>
      </trkpt>
      <trkpt lat="39.916875" lon="-5.902484">
        <ele>237.755</ele>
        <time>2021-10-13T08:54:21Z</time>
      </trkpt>
      <trkpt lat="39.917192" lon="-5.902567">
        <ele>238.332</ele>
        <time>2021-10-13T08:54:23Z</time>
      </trkpt>
      <trkpt lat="39.917485" lon="-5.902638">
        <ele>239.412</ele>
        <time>2021-10-13T08:54:25Z</time>
      </trkpt>
      <trkpt lat="39.917629" lon="-5.902671">
        <ele>238.595</ele>
        <time>2021-10-13T08:54:26Z</time>
      </trkpt>
      <trkpt lat="39.917924" lon="-5.902737">
        <ele>240.771</ele>
        <time>2021-10-13T08:54:28Z</time>
      </trkpt>
      <trkpt lat="39.918078" lon="-5.902772">
        <ele>240.290</ele>
        <time>2021-10-13T08:54:29Z</time>
      </trkpt>
      <trkpt lat="39.918389" lon="-5.902839">
        <ele>239.015</ele>
        <time>2021-10-13T08:54:31Z</time>
      </trkpt>
      <trkpt lat="39.918547" lon="-5.902871">
        <ele>239.244</ele>
        <time>2021-10-13T08:54:32Z</time>
      </trkpt>
      <trkpt lat="39.918869" lon="-5.902934">
        <ele>240.505</ele>
        <time>2021-10-13T08:54:34Z</time>
      </trkpt>
      <trkpt lat="39.919036" lon="-5.902967">
        <ele>240.315</ele>
        <time>2021-10-13T08:54:35Z</time>
      </trkpt>
      <trkpt lat="39.919368" lon="-5.903039">
        <ele>239.108</ele>
        <time>2021-10-13T08:54:37Z</time>
      </trkpt>
      <trkpt lat="39.919696" lon="-5.903107">
        <ele>239.832</ele>
        <time>2021-10-13T08:54:39Z</time>
      </trkpt>
      <trkpt lat="39.920014" lon="-5.903174">
        <ele>240.140</ele>
        <time>2021-10-13T08:54:41Z</time>
      </trkpt>
      <trkpt lat="39.920335" lon="-5.903245">
        <ele>240.137</ele>
        <time>2021-10-13T08:54:43Z</time>
      </trkpt>
      <trkpt lat="39.920500" lon="-5.903280">
        <ele>239.787</ele>
        <time>2021-10-13T08:54:44Z</time>
      </trkpt>
      <trkpt lat="39.920818" lon="-5.903349">
        <ele>240.540</ele>
        <time>2021-10-13T08:54:46Z</time>
      </trkpt>
      <trkpt lat="39.920976" lon="-5.903381">
        <ele>240.286</ele>
        <time>2021-10-13T08:54:47Z</time>
      </trkpt>
      <trkpt lat="39.921295" lon="-5.903445">
        <ele>240.625</ele>
        <time>2021-10-13T08:54:49Z</time>
      </trkpt>
      <trkpt lat="39.921457" lon="-5.903481">
        <ele>240.590</ele>
        <time>2021-10-13T08:54:50Z</time>
      </trkpt>
      <trkpt lat="39.921623" lon="-5.903517">
        <ele>239.695</ele>
        <time>2021-10-13T08:54:51Z</time>
      </trkpt>
      <trkpt lat="39.921952" lon="-5.903588">
        <ele>240.749</ele>
        <time>2021-10-13T08:54:53Z</time>
      </trkpt>
      <trkpt lat="39.922272" lon="-5.903655">
        <ele>240.423</ele>
        <time>2021-10-13T08:54:55Z</time>
      </trkpt>
      <trkpt lat="39.922435" lon="-5.903689">
        <ele>240.808</ele>
        <time>2021-10-13T08:54:56Z</time>
      </trkpt>
      <trkpt lat="39.922746" lon="-5.903755">
        <ele>239.577</ele>
        <time>2021-10-13T08:54:58Z</time>
      </trkpt>
      <trkpt lat="39.923069" lon="-5.903817">
        <ele>239.955</ele>
        <time>2021-10-13T08:55:00Z</time>
      </trkpt>
      <trkpt lat="39.923406" lon="-5.903888">
        <ele>238.762</ele>
        <time>2021-10-13T08:55:02Z</time>
      </trkpt>
      <trkpt lat="39.923586" lon="-5.903928">
        <ele>237.672</ele>
        <time>2021-10-13T08:55:03Z</time>
      </trkpt>
      <trkpt lat="39.923918" lon="-5.904010">
        <ele>236.565</ele>
        <time>2021-10-13T08:55:05Z</time>
      </trkpt>
      <trkpt lat="39.924235" lon="-5.904089">
        <ele>236.731</ele>
        <time>2021-10-13T08:55:07Z</time>
      </trkpt>
      <trkpt lat="39.924389" lon="-5.904123">
        <ele>236.060</ele>
        <time>2021-10-13T08:55:08Z</time>
      </trkpt>
      <trkpt lat="39.924543" lon="-5.904154">
        <ele>235.845</ele>
        <time>2021-10-13T08:55:09Z</time>
      </trkpt>
      <trkpt lat="39.924859" lon="-5.904222">
        <ele>236.217</ele>
        <time>2021-10-13T08:55:11Z</time>
      </trkpt>
      <trkpt lat="39.925020" lon="-5.904260">
        <ele>236.487</ele>
        <time>2021-10-13T08:55:12Z</time>
      </trkpt>
      <trkpt lat="39.925341" lon="-5.904334">
        <ele>237.415</ele>
        <time>2021-10-13T08:55:14Z</time>
      </trkpt>
      <trkpt lat="39.925642" lon="-5.904401">
        <ele>237.308</ele>
        <time>2021-10-13T08:55:16Z</time>
      </trkpt>
      <trkpt lat="39.925791" lon="-5.904433">
        <ele>237.579</ele>
        <time>2021-10-13T08:55:17Z</time>
      </trkpt>
      <trkpt lat="39.925938" lon="-5.904461">
        <ele>237.127</ele>
        <time>2021-10-13T08:55:18Z</time>
      </trkpt>
      <trkpt lat="39.926224" lon="-5.904519">
        <ele>237.294</ele>
        <time>2021-10-13T08:55:20Z</time>
      </trkpt>
      <trkpt lat="39.926359" lon="-5.904553">
        <ele>237.644</ele>
        <time>2021-10-13T08:55:21Z</time>
      </trkpt>
      <trkpt lat="39.926605" lon="-5.904612">
        <ele>238.377</ele>
        <time>2021-10-13T08:55:23Z</time>
      </trkpt>
      <trkpt lat="39.926826" lon="-5.904658">
        <ele>240.433</ele>
        <time>2021-10-13T08:55:25Z</time>
      </trkpt>
      <trkpt lat="39.926964" lon="-5.904671">
        <ele>240.052</ele>
        <time>2021-10-13T08:55:27Z</time>
      </trkpt>
      <trkpt lat="39.927100" lon="-5.904603">
        <ele>240.277</ele>
        <time>2021-10-13T08:55:29Z</time>
      </trkpt>
      <trkpt lat="39.927151" lon="-5.904533">
        <ele>240.456</ele>
        <time>2021-10-13T08:55:30Z</time>
      </trkpt>
      <trkpt lat="39.927243" lon="-5.904387">
        <ele>240.659</ele>
        <time>2021-10-13T08:55:32Z</time>
      </trkpt>
      <trkpt lat="39.927368" lon="-5.904314">
        <ele>240.714</ele>
        <time>2021-10-13T08:55:34Z</time>
      </trkpt>
      <trkpt lat="39.927440" lon="-5.904321">
        <ele>240.208</ele>
        <time>2021-10-13T08:55:35Z</time>
      </trkpt>
      <trkpt lat="39.927499" lon="-5.904367">
        <ele>239.923</ele>
        <time>2021-10-13T08:55:36Z</time>
      </trkpt>
      <trkpt lat="39.927561" lon="-5.904574">
        <ele>240.281</ele>
        <time>2021-10-13T08:55:38Z</time>
      </trkpt>
      <trkpt lat="39.927557" lon="-5.904711">
        <ele>240.288</ele>
        <time>2021-10-13T08:55:39Z</time>
      </trkpt>
      <trkpt lat="39.927519" lon="-5.905017">
        <ele>239.148</ele>
        <time>2021-10-13T08:55:41Z</time>
      </trkpt>
      <trkpt lat="39.927522" lon="-5.905381">
        <ele>238.361</ele>
        <time>2021-10-13T08:55:43Z</time>
      </trkpt>
      <trkpt lat="39.927549" lon="-5.905815">
        <ele>237.687</ele>
        <time>2021-10-13T08:55:45Z</time>
      </trkpt>
      <trkpt lat="39.927570" lon="-5.906286">
        <ele>237.696</ele>
        <time>2021-10-13T08:55:47Z</time>
      </trkpt>
      <trkpt lat="39.927591" lon="-5.906766">
        <ele>237.981</ele>
        <time>2021-10-13T08:55:49Z</time>
      </trkpt>
      <trkpt lat="39.927614" lon="-5.907233">
        <ele>238.738</ele>
        <time>2021-10-13T08:55:51Z</time>
      </trkpt>
      <trkpt lat="39.927627" lon="-5.907474">
        <ele>240.270</ele>
        <time>2021-10-13T08:55:52Z</time>
      </trkpt>
      <trkpt lat="39.927639" lon="-5.907704">
        <ele>240.417</ele>
        <time>2021-10-13T08:55:53Z</time>
      </trkpt>
      <trkpt lat="39.927669" lon="-5.908103">
        <ele>243.008</ele>
        <time>2021-10-13T08:55:55Z</time>
      </trkpt>
      <trkpt lat="39.927682" lon="-5.908286">
        <ele>242.491</ele>
        <time>2021-10-13T08:55:56Z</time>
      </trkpt>
      <trkpt lat="39.927705" lon="-5.908639">
        <ele>242.649</ele>
        <time>2021-10-13T08:55:58Z</time>
      </trkpt>
      <trkpt lat="39.927717" lon="-5.908832">
        <ele>242.716</ele>
        <time>2021-10-13T08:55:59Z</time>
      </trkpt>
      <trkpt lat="39.927746" lon="-5.909236">
        <ele>242.336</ele>
        <time>2021-10-13T08:56:01Z</time>
      </trkpt>
      <trkpt lat="39.927761" lon="-5.909457">
        <ele>242.429</ele>
        <time>2021-10-13T08:56:02Z</time>
      </trkpt>
      <trkpt lat="39.927789" lon="-5.909910">
        <ele>242.035</ele>
        <time>2021-10-13T08:56:04Z</time>
      </trkpt>
      <trkpt lat="39.927821" lon="-5.910395">
        <ele>242.524</ele>
        <time>2021-10-13T08:56:06Z</time>
      </trkpt>
      <trkpt lat="39.927854" lon="-5.910910">
        <ele>241.319</ele>
        <time>2021-10-13T08:56:08Z</time>
      </trkpt>
      <trkpt lat="39.927868" lon="-5.911183">
        <ele>240.973</ele>
        <time>2021-10-13T08:56:09Z</time>
      </trkpt>
      <trkpt lat="39.927892" lon="-5.911706">
        <ele>240.685</ele>
        <time>2021-10-13T08:56:11Z</time>
      </trkpt>
      <trkpt lat="39.927921" lon="-5.912188">
        <ele>239.713</ele>
        <time>2021-10-13T08:56:13Z</time>
      </trkpt>
      <trkpt lat="39.927952" lon="-5.912634">
        <ele>239.508</ele>
        <time>2021-10-13T08:56:15Z</time>
      </trkpt>
      <trkpt lat="39.927967" lon="-5.912858">
        <ele>240.065</ele>
        <time>2021-10-13T08:56:16Z</time>
      </trkpt>
      <trkpt lat="39.927984" lon="-5.913091">
        <ele>239.433</ele>
        <time>2021-10-13T08:56:17Z</time>
      </trkpt>
      <trkpt lat="39.928016" lon="-5.913573">
        <ele>239.090</ele>
        <time>2021-10-13T08:56:19Z</time>
      </trkpt>
      <trkpt lat="39.928031" lon="-5.913822">
        <ele>238.940</ele>
        <time>2021-10-13T08:56:20Z</time>
      </trkpt>
      <trkpt lat="39.928045" lon="-5.914073">
        <ele>238.813</ele>
        <time>2021-10-13T08:56:21Z</time>
      </trkpt>
      <trkpt lat="39.928059" lon="-5.914327">
        <ele>237.849</ele>
        <time>2021-10-13T08:56:22Z</time>
      </trkpt>
      <trkpt lat="39.928071" lon="-5.914584">
        <ele>237.248</ele>
        <time>2021-10-13T08:56:23Z</time>
      </trkpt>
      <trkpt lat="39.928102" lon="-5.915099">
        <ele>237.863</ele>
        <time>2021-10-13T08:56:25Z</time>
      </trkpt>
      <trkpt lat="39.928116" lon="-5.915373">
        <ele>238.273</ele>
        <time>2021-10-13T08:56:26Z</time>
      </trkpt>
      <trkpt lat="39.928140" lon="-5.915881">
        <ele>237.485</ele>
        <time>2021-10-13T08:56:28Z</time>
      </trkpt>
      <trkpt lat="39.928168" lon="-5.916401">
        <ele>238.713</ele>
        <time>2021-10-13T08:56:30Z</time>
      </trkpt>
      <trkpt lat="39.928195" lon="-5.916919">
        <ele>238.508</ele>
        <time>2021-10-13T08:56:32Z</time>
      </trkpt>
      <trkpt lat="39.928219" lon="-5.917412">
        <ele>238.485</ele>
        <time>2021-10-13T08:56:34Z</time>
      </trkpt>
      <trkpt lat="39.928247" lon="-5.917916">
        <ele>239.153</ele>
        <time>2021-10-13T08:56:36Z</time>
      </trkpt>
      <trkpt lat="39.928275" lon="-5.918419">
        <ele>238.860</ele>
        <time>2021-10-13T08:56:38Z</time>
      </trkpt>
      <trkpt lat="39.928290" lon="-5.918672">
        <ele>238.560</ele>
        <time>2021-10-13T08:56:39Z</time>
      </trkpt>
      <trkpt lat="39.928322" lon="-5.919173">
        <ele>238.343</ele>
        <time>2021-10-13T08:56:41Z</time>
      </trkpt>
      <trkpt lat="39.928338" lon="-5.919433">
        <ele>238.049</ele>
        <time>2021-10-13T08:56:42Z</time>
      </trkpt>
      <trkpt lat="39.928391" lon="-5.919958">
        <ele>237.588</ele>
        <time>2021-10-13T08:56:44Z</time>
      </trkpt>
      <trkpt lat="39.928437" lon="-5.920231">
        <ele>237.653</ele>
        <time>2021-10-13T08:56:45Z</time>
      </trkpt>
      <trkpt lat="39.928496" lon="-5.920504">
        <ele>237.933</ele>
        <time>2021-10-13T08:56:46Z</time>
      </trkpt>
      <trkpt lat="39.928679" lon="-5.921113">
        <ele>237.923</ele>
        <time>2021-10-13T08:56:48Z</time>
      </trkpt>
      <trkpt lat="39.928903" lon="-5.921668">
        <ele>240.015</ele>
        <time>2021-10-13T08:56:50Z</time>
      </trkpt>
      <trkpt lat="39.929028" lon="-5.921937">
        <ele>240.808</ele>
        <time>2021-10-13T08:56:51Z</time>
      </trkpt>
      <trkpt lat="39.929269" lon="-5.922443">
        <ele>241.811</ele>
        <time>2021-10-13T08:56:53Z</time>
      </trkpt>
      <trkpt lat="39.929385" lon="-5.922695">
        <ele>242.299</ele>
        <time>2021-10-13T08:56:54Z</time>
      </trkpt>
      <trkpt lat="39.929494" lon="-5.922945">
        <ele>243.496</ele>
        <time>2021-10-13T08:56:55Z</time>
      </trkpt>
      <trkpt lat="39.929602" lon="-5.923202">
        <ele>244.056</ele>
        <time>2021-10-13T08:56:56Z</time>
      </trkpt>
      <trkpt lat="39.929771" lon="-5.923696">
        <ele>244.559</ele>
        <time>2021-10-13T08:56:58Z</time>
      </trkpt>
      <trkpt lat="39.929895" lon="-5.924205">
        <ele>247.385</ele>
        <time>2021-10-13T08:57:00Z</time>
      </trkpt>
      <trkpt lat="39.929979" lon="-5.924738">
        <ele>248.614</ele>
        <time>2021-10-13T08:57:02Z</time>
      </trkpt>
      <trkpt lat="39.930040" lon="-5.925255">
        <ele>250.489</ele>
        <time>2021-10-13T08:57:04Z</time>
      </trkpt>
      <trkpt lat="39.930072" lon="-5.925534">
        <ele>252.222</ele>
        <time>2021-10-13T08:57:05Z</time>
      </trkpt>
      <trkpt lat="39.930128" lon="-5.926093">
        <ele>254.162</ele>
        <time>2021-10-13T08:57:07Z</time>
      </trkpt>
      <trkpt lat="39.930154" lon="-5.926391">
        <ele>254.508</ele>
        <time>2021-10-13T08:57:08Z</time>
      </trkpt>
      <trkpt lat="39.930199" lon="-5.927019">
        <ele>249.208</ele>
        <time>2021-10-13T08:57:10Z</time>
      </trkpt>
      <trkpt lat="39.930219" lon="-5.927345">
        <ele>247.920</ele>
        <time>2021-10-13T08:57:11Z</time>
      </trkpt>
      <trkpt lat="39.930261" lon="-5.927935">
        <ele>254.288</ele>
        <time>2021-10-13T08:57:13Z</time>
      </trkpt>
      <trkpt lat="39.930292" lon="-5.928208">
        <ele>256.285</ele>
        <time>2021-10-13T08:57:14Z</time>
      </trkpt>
      <trkpt lat="39.930360" lon="-5.928713">
        <ele>257.655</ele>
        <time>2021-10-13T08:57:16Z</time>
      </trkpt>
      <trkpt lat="39.930392" lon="-5.928972">
        <ele>259.298</ele>
        <time>2021-10-13T08:57:17Z</time>
      </trkpt>
      <trkpt lat="39.930478" lon="-5.929493">
        <ele>260.844</ele>
        <time>2021-10-13T08:57:19Z</time>
      </trkpt>
      <trkpt lat="39.930542" lon="-5.929753">
        <ele>261.133</ele>
        <time>2021-10-13T08:57:20Z</time>
      </trkpt>
      <trkpt lat="39.930725" lon="-5.930244">
        <ele>263.088</ele>
        <time>2021-10-13T08:57:22Z</time>
      </trkpt>
      <trkpt lat="39.930838" lon="-5.930489">
        <ele>263.198</ele>
        <time>2021-10-13T08:57:23Z</time>
      </trkpt>
      <trkpt lat="39.930959" lon="-5.930725">
        <ele>264.015</ele>
        <time>2021-10-13T08:57:24Z</time>
      </trkpt>
      <trkpt lat="39.931209" lon="-5.931190">
        <ele>265.426</ele>
        <time>2021-10-13T08:57:26Z</time>
      </trkpt>
      <trkpt lat="39.931476" lon="-5.931599">
        <ele>268.508</ele>
        <time>2021-10-13T08:57:28Z</time>
      </trkpt>
      <trkpt lat="39.931635" lon="-5.931786">
        <ele>268.567</ele>
        <time>2021-10-13T08:57:29Z</time>
      </trkpt>
      <trkpt lat="39.931805" lon="-5.931954">
        <ele>269.275</ele>
        <time>2021-10-13T08:57:30Z</time>
      </trkpt>
      <trkpt lat="39.932159" lon="-5.932259">
        <ele>271.612</ele>
        <time>2021-10-13T08:57:32Z</time>
      </trkpt>
      <trkpt lat="39.932505" lon="-5.932532">
        <ele>273.392</ele>
        <time>2021-10-13T08:57:34Z</time>
      </trkpt>
      <trkpt lat="39.932681" lon="-5.932676">
        <ele>274.015</ele>
        <time>2021-10-13T08:57:35Z</time>
      </trkpt>
      <trkpt lat="39.932862" lon="-5.932819">
        <ele>274.781</ele>
        <time>2021-10-13T08:57:36Z</time>
      </trkpt>
      <trkpt lat="39.933231" lon="-5.933101">
        <ele>276.090</ele>
        <time>2021-10-13T08:57:38Z</time>
      </trkpt>
      <trkpt lat="39.933417" lon="-5.933244">
        <ele>276.025</ele>
        <time>2021-10-13T08:57:39Z</time>
      </trkpt>
      <trkpt lat="39.933768" lon="-5.933551">
        <ele>278.298</ele>
        <time>2021-10-13T08:57:41Z</time>
      </trkpt>
      <trkpt lat="39.934111" lon="-5.933889">
        <ele>279.615</ele>
        <time>2021-10-13T08:57:43Z</time>
      </trkpt>
      <trkpt lat="39.934282" lon="-5.934063">
        <ele>280.326</ele>
        <time>2021-10-13T08:57:44Z</time>
      </trkpt>
      <trkpt lat="39.934617" lon="-5.934418">
        <ele>280.708</ele>
        <time>2021-10-13T08:57:46Z</time>
      </trkpt>
      <trkpt lat="39.934784" lon="-5.934616">
        <ele>282.867</ele>
        <time>2021-10-13T08:57:47Z</time>
      </trkpt>
      <trkpt lat="39.934946" lon="-5.934822">
        <ele>283.745</ele>
        <time>2021-10-13T08:57:48Z</time>
      </trkpt>
      <trkpt lat="39.935242" lon="-5.935273">
        <ele>285.222</ele>
        <time>2021-10-13T08:57:50Z</time>
      </trkpt>
      <trkpt lat="39.935507" lon="-5.935773">
        <ele>286.582</ele>
        <time>2021-10-13T08:57:52Z</time>
      </trkpt>
      <trkpt lat="39.935766" lon="-5.936340">
        <ele>287.925</ele>
        <time>2021-10-13T08:57:54Z</time>
      </trkpt>
      <trkpt lat="39.935897" lon="-5.936657">
        <ele>288.671</ele>
        <time>2021-10-13T08:57:55Z</time>
      </trkpt>
      <trkpt lat="39.936024" lon="-5.936991">
        <ele>288.340</ele>
        <time>2021-10-13T08:57:56Z</time>
      </trkpt>
      <trkpt lat="39.936260" lon="-5.937627">
        <ele>289.255</ele>
        <time>2021-10-13T08:57:58Z</time>
      </trkpt>
      <trkpt lat="39.936371" lon="-5.937931">
        <ele>288.375</ele>
        <time>2021-10-13T08:57:59Z</time>
      </trkpt>
      <trkpt lat="39.936593" lon="-5.938479">
        <ele>289.128</ele>
        <time>2021-10-13T08:58:01Z</time>
      </trkpt>
      <trkpt lat="39.936714" lon="-5.938762">
        <ele>289.520</ele>
        <time>2021-10-13T08:58:02Z</time>
      </trkpt>
      <trkpt lat="39.936940" lon="-5.939283">
        <ele>291.008</ele>
        <time>2021-10-13T08:58:04Z</time>
      </trkpt>
      <trkpt lat="39.937059" lon="-5.939552">
        <ele>291.455</ele>
        <time>2021-10-13T08:58:05Z</time>
      </trkpt>
      <trkpt lat="39.937174" lon="-5.939822">
        <ele>291.773</ele>
        <time>2021-10-13T08:58:06Z</time>
      </trkpt>
      <trkpt lat="39.937290" lon="-5.940094">
        <ele>292.450</ele>
        <time>2021-10-13T08:58:07Z</time>
      </trkpt>
      <trkpt lat="39.937526" lon="-5.940630">
        <ele>293.030</ele>
        <time>2021-10-13T08:58:09Z</time>
      </trkpt>
      <trkpt lat="39.937648" lon="-5.940901">
        <ele>292.763</ele>
        <time>2021-10-13T08:58:10Z</time>
      </trkpt>
      <trkpt lat="39.937886" lon="-5.941444">
        <ele>294.559</ele>
        <time>2021-10-13T08:58:12Z</time>
      </trkpt>
      <trkpt lat="39.938004" lon="-5.941719">
        <ele>295.558</ele>
        <time>2021-10-13T08:58:13Z</time>
      </trkpt>
      <trkpt lat="39.938118" lon="-5.941994">
        <ele>297.053</ele>
        <time>2021-10-13T08:58:14Z</time>
      </trkpt>
      <trkpt lat="39.938223" lon="-5.942272">
        <ele>297.765</ele>
        <time>2021-10-13T08:58:15Z</time>
      </trkpt>
      <trkpt lat="39.938401" lon="-5.942836">
        <ele>297.868</ele>
        <time>2021-10-13T08:58:17Z</time>
      </trkpt>
      <trkpt lat="39.938556" lon="-5.943391">
        <ele>298.514</ele>
        <time>2021-10-13T08:58:19Z</time>
      </trkpt>
      <trkpt lat="39.938718" lon="-5.943950">
        <ele>298.608</ele>
        <time>2021-10-13T08:58:21Z</time>
      </trkpt>
      <trkpt lat="39.938885" lon="-5.944514">
        <ele>298.394</ele>
        <time>2021-10-13T08:58:23Z</time>
      </trkpt>
      <trkpt lat="39.939060" lon="-5.945081">
        <ele>298.592</ele>
        <time>2021-10-13T08:58:25Z</time>
      </trkpt>
      <trkpt lat="39.939148" lon="-5.945374">
        <ele>299.849</ele>
        <time>2021-10-13T08:58:26Z</time>
      </trkpt>
      <trkpt lat="39.939321" lon="-5.945939">
        <ele>300.669</ele>
        <time>2021-10-13T08:58:28Z</time>
      </trkpt>
      <trkpt lat="39.939408" lon="-5.946227">
        <ele>300.372</ele>
        <time>2021-10-13T08:58:29Z</time>
      </trkpt>
      <trkpt lat="39.939495" lon="-5.946515">
        <ele>300.958</ele>
        <time>2021-10-13T08:58:30Z</time>
      </trkpt>
      <trkpt lat="39.939582" lon="-5.946802">
        <ele>301.477</ele>
        <time>2021-10-13T08:58:31Z</time>
      </trkpt>
      <trkpt lat="39.939672" lon="-5.947090">
        <ele>302.362</ele>
        <time>2021-10-13T08:58:32Z</time>
      </trkpt>
      <trkpt lat="39.939836" lon="-5.947634">
        <ele>304.238</ele>
        <time>2021-10-13T08:58:34Z</time>
      </trkpt>
      <trkpt lat="39.940002" lon="-5.948170">
        <ele>305.370</ele>
        <time>2021-10-13T08:58:36Z</time>
      </trkpt>
      <trkpt lat="39.940086" lon="-5.948431">
        <ele>306.317</ele>
        <time>2021-10-13T08:58:37Z</time>
      </trkpt>
      <trkpt lat="39.940254" lon="-5.948944">
        <ele>307.008</ele>
        <time>2021-10-13T08:58:39Z</time>
      </trkpt>
      <trkpt lat="39.940352" lon="-5.949198">
        <ele>307.721</ele>
        <time>2021-10-13T08:58:40Z</time>
      </trkpt>
      <trkpt lat="39.940588" lon="-5.949682">
        <ele>308.129</ele>
        <time>2021-10-13T08:58:42Z</time>
      </trkpt>
      <trkpt lat="39.940847" lon="-5.950138">
        <ele>308.876</ele>
        <time>2021-10-13T08:58:44Z</time>
      </trkpt>
      <trkpt lat="39.941129" lon="-5.950576">
        <ele>309.336</ele>
        <time>2021-10-13T08:58:46Z</time>
      </trkpt>
      <trkpt lat="39.941283" lon="-5.950787">
        <ele>308.739</ele>
        <time>2021-10-13T08:58:47Z</time>
      </trkpt>
      <trkpt lat="39.941452" lon="-5.950994">
        <ele>307.785</ele>
        <time>2021-10-13T08:58:48Z</time>
      </trkpt>
      <trkpt lat="39.941626" lon="-5.951196">
        <ele>307.134</ele>
        <time>2021-10-13T08:58:49Z</time>
      </trkpt>
      <trkpt lat="39.941798" lon="-5.951403">
        <ele>307.169</ele>
        <time>2021-10-13T08:58:50Z</time>
      </trkpt>
      <trkpt lat="39.942136" lon="-5.951815">
        <ele>307.871</ele>
        <time>2021-10-13T08:58:52Z</time>
      </trkpt>
      <trkpt lat="39.942460" lon="-5.952221">
        <ele>307.641</ele>
        <time>2021-10-13T08:58:54Z</time>
      </trkpt>
      <trkpt lat="39.942613" lon="-5.952416">
        <ele>309.715</ele>
        <time>2021-10-13T08:58:55Z</time>
      </trkpt>
      <trkpt lat="39.942765" lon="-5.952611">
        <ele>310.008</ele>
        <time>2021-10-13T08:58:56Z</time>
      </trkpt>
      <trkpt lat="39.943046" lon="-5.952974">
        <ele>310.475</ele>
        <time>2021-10-13T08:58:58Z</time>
      </trkpt>
      <trkpt lat="39.943335" lon="-5.953348">
        <ele>311.563</ele>
        <time>2021-10-13T08:59:00Z</time>
      </trkpt>
      <trkpt lat="39.943481" lon="-5.953539">
        <ele>312.030</ele>
        <time>2021-10-13T08:59:01Z</time>
      </trkpt>
      <trkpt lat="39.943629" lon="-5.953741">
        <ele>311.960</ele>
        <time>2021-10-13T08:59:02Z</time>
      </trkpt>
      <trkpt lat="39.943914" lon="-5.954119">
        <ele>313.043</ele>
        <time>2021-10-13T08:59:04Z</time>
      </trkpt>
      <trkpt lat="39.944072" lon="-5.954317">
        <ele>313.899</ele>
        <time>2021-10-13T08:59:05Z</time>
      </trkpt>
      <trkpt lat="39.944393" lon="-5.954699">
        <ele>315.128</ele>
        <time>2021-10-13T08:59:07Z</time>
      </trkpt>
      <trkpt lat="39.944568" lon="-5.954891">
        <ele>315.493</ele>
        <time>2021-10-13T08:59:08Z</time>
      </trkpt>
      <trkpt lat="39.944749" lon="-5.955084">
        <ele>316.962</ele>
        <time>2021-10-13T08:59:09Z</time>
      </trkpt>
      <trkpt lat="39.944934" lon="-5.955283">
        <ele>317.683</ele>
        <time>2021-10-13T08:59:10Z</time>
      </trkpt>
      <trkpt lat="39.945304" lon="-5.955678">
        <ele>317.511</ele>
        <time>2021-10-13T08:59:12Z</time>
      </trkpt>
      <trkpt lat="39.945683" lon="-5.956058">
        <ele>317.408</ele>
        <time>2021-10-13T08:59:14Z</time>
      </trkpt>
      <trkpt lat="39.945877" lon="-5.956250">
        <ele>317.734</ele>
        <time>2021-10-13T08:59:15Z</time>
      </trkpt>
      <trkpt lat="39.946263" lon="-5.956633">
        <ele>315.252</ele>
        <time>2021-10-13T08:59:17Z</time>
      </trkpt>
      <trkpt lat="39.946641" lon="-5.957016">
        <ele>315.719</ele>
        <time>2021-10-13T08:59:19Z</time>
      </trkpt>
      <trkpt lat="39.946824" lon="-5.957208">
        <ele>315.679</ele>
        <time>2021-10-13T08:59:20Z</time>
      </trkpt>
      <trkpt lat="39.947149" lon="-5.957535">
        <ele>316.782</ele>
        <time>2021-10-13T08:59:22Z</time>
      </trkpt>
      <trkpt lat="39.947447" lon="-5.957831">
        <ele>318.268</ele>
        <time>2021-10-13T08:59:24Z</time>
      </trkpt>
      <trkpt lat="39.947713" lon="-5.958071">
        <ele>318.137</ele>
        <time>2021-10-13T08:59:26Z</time>
      </trkpt>
      <trkpt lat="39.947968" lon="-5.958195">
        <ele>318.952</ele>
        <time>2021-10-13T08:59:28Z</time>
      </trkpt>
      <trkpt lat="39.948099" lon="-5.958208">
        <ele>317.515</ele>
        <time>2021-10-13T08:59:29Z</time>
      </trkpt>
      <trkpt lat="39.948230" lon="-5.958189">
        <ele>318.065</ele>
        <time>2021-10-13T08:59:30Z</time>
      </trkpt>
      <trkpt lat="39.948500" lon="-5.958096">
        <ele>316.811</ele>
        <time>2021-10-13T08:59:32Z</time>
      </trkpt>
      <trkpt lat="39.948772" lon="-5.957946">
        <ele>314.408</ele>
        <time>2021-10-13T08:59:34Z</time>
      </trkpt>
      <trkpt lat="39.949051" lon="-5.957766">
        <ele>313.979</ele>
        <time>2021-10-13T08:59:36Z</time>
      </trkpt>
      <trkpt lat="39.949302" lon="-5.957626">
        <ele>312.797</ele>
        <time>2021-10-13T08:59:38Z</time>
      </trkpt>
      <trkpt lat="39.949507" lon="-5.957651">
        <ele>311.554</ele>
        <time>2021-10-13T08:59:40Z</time>
      </trkpt>
      <trkpt lat="39.949593" lon="-5.957750">
        <ele>310.914</ele>
        <time>2021-10-13T08:59:41Z</time>
      </trkpt>
      <trkpt lat="39.949669" lon="-5.957902">
        <ele>310.417</ele>
        <time>2021-10-13T08:59:42Z</time>
      </trkpt>
      <trkpt lat="39.949782" lon="-5.958340">
        <ele>309.143</ele>
        <time>2021-10-13T08:59:44Z</time>
      </trkpt>
      <trkpt lat="39.949828" lon="-5.958614">
        <ele>309.472</ele>
        <time>2021-10-13T08:59:45Z</time>
      </trkpt>
      <trkpt lat="39.949920" lon="-5.959178">
        <ele>309.867</ele>
        <time>2021-10-13T08:59:47Z</time>
      </trkpt>
      <trkpt lat="39.949992" lon="-5.959448">
        <ele>309.787</ele>
        <time>2021-10-13T08:59:48Z</time>
      </trkpt>
      <trkpt lat="39.950078" lon="-5.959722">
        <ele>310.042</ele>
        <time>2021-10-13T08:59:49Z</time>
      </trkpt>
      <trkpt lat="39.950232" lon="-5.960296">
        <ele>309.226</ele>
        <time>2021-10-13T08:59:51Z</time>
      </trkpt>
      <trkpt lat="39.950316" lon="-5.960864">
        <ele>308.508</ele>
        <time>2021-10-13T08:59:53Z</time>
      </trkpt>
      <trkpt lat="39.950344" lon="-5.961148">
        <ele>309.266</ele>
        <time>2021-10-13T08:59:54Z</time>
      </trkpt>
      <trkpt lat="39.950379" lon="-5.961436">
        <ele>309.284</ele>
        <time>2021-10-13T08:59:55Z</time>
      </trkpt>
      <trkpt lat="39.950438" lon="-5.961714">
        <ele>309.331</ele>
        <time>2021-10-13T08:59:56Z</time>
      </trkpt>
      <trkpt lat="39.950597" lon="-5.962194">
        <ele>311.591</ele>
        <time>2021-10-13T08:59:58Z</time>
      </trkpt>
      <trkpt lat="39.950684" lon="-5.962445">
        <ele>312.784</ele>
        <time>2021-10-13T08:59:59Z</time>
      </trkpt>
      <trkpt lat="39.950768" lon="-5.962695">
        <ele>313.780</ele>
        <time>2021-10-13T09:00:00Z</time>
      </trkpt>
      <trkpt lat="39.950930" lon="-5.963188">
        <ele>314.789</ele>
        <time>2021-10-13T09:00:02Z</time>
      </trkpt>
      <trkpt lat="39.951092" lon="-5.963679">
        <ele>315.664</ele>
        <time>2021-10-13T09:00:04Z</time>
      </trkpt>
      <trkpt lat="39.951176" lon="-5.963931">
        <ele>316.577</ele>
        <time>2021-10-13T09:00:05Z</time>
      </trkpt>
      <trkpt lat="39.951264" lon="-5.964182">
        <ele>316.061</ele>
        <time>2021-10-13T09:00:06Z</time>
      </trkpt>
      <trkpt lat="39.951359" lon="-5.964426">
        <ele>315.127</ele>
        <time>2021-10-13T09:00:07Z</time>
      </trkpt>
      <trkpt lat="39.951576" lon="-5.964904">
        <ele>314.608</ele>
        <time>2021-10-13T09:00:09Z</time>
      </trkpt>
      <trkpt lat="39.951819" lon="-5.965378">
        <ele>314.485</ele>
        <time>2021-10-13T09:00:11Z</time>
      </trkpt>
      <trkpt lat="39.952054" lon="-5.965848">
        <ele>313.333</ele>
        <time>2021-10-13T09:00:13Z</time>
      </trkpt>
      <trkpt lat="39.952300" lon="-5.966326">
        <ele>311.360</ele>
        <time>2021-10-13T09:00:15Z</time>
      </trkpt>
      <trkpt lat="39.952439" lon="-5.966598">
        <ele>311.130</ele>
        <time>2021-10-13T09:00:16Z</time>
      </trkpt>
      <trkpt lat="39.952580" lon="-5.966875">
        <ele>310.783</ele>
        <time>2021-10-13T09:00:17Z</time>
      </trkpt>
      <trkpt lat="39.952857" lon="-5.967422">
        <ele>311.459</ele>
        <time>2021-10-13T09:00:19Z</time>
      </trkpt>
      <trkpt lat="39.953130" lon="-5.967965">
        <ele>311.288</ele>
        <time>2021-10-13T09:00:21Z</time>
      </trkpt>
      <trkpt lat="39.953395" lon="-5.968491">
        <ele>311.143</ele>
        <time>2021-10-13T09:00:23Z</time>
      </trkpt>
      <trkpt lat="39.953527" lon="-5.968752">
        <ele>311.594</ele>
        <time>2021-10-13T09:00:24Z</time>
      </trkpt>
      <trkpt lat="39.953656" lon="-5.969016">
        <ele>311.257</ele>
        <time>2021-10-13T09:00:25Z</time>
      </trkpt>
      <trkpt lat="39.953791" lon="-5.969288">
        <ele>311.222</ele>
        <time>2021-10-13T09:00:26Z</time>
      </trkpt>
      <trkpt lat="39.954052" lon="-5.969809">
        <ele>310.508</ele>
        <time>2021-10-13T09:00:28Z</time>
      </trkpt>
      <trkpt lat="39.954186" lon="-5.970075">
        <ele>310.447</ele>
        <time>2021-10-13T09:00:29Z</time>
      </trkpt>
      <trkpt lat="39.954322" lon="-5.970342">
        <ele>311.235</ele>
        <time>2021-10-13T09:00:30Z</time>
      </trkpt>
      <trkpt lat="39.954575" lon="-5.970840">
        <ele>312.872</ele>
        <time>2021-10-13T09:00:32Z</time>
      </trkpt>
      <trkpt lat="39.954812" lon="-5.971307">
        <ele>313.082</ele>
        <time>2021-10-13T09:00:34Z</time>
      </trkpt>
      <trkpt lat="39.954923" lon="-5.971532">
        <ele>313.925</ele>
        <time>2021-10-13T09:00:35Z</time>
      </trkpt>
      <trkpt lat="39.955124" lon="-5.971948">
        <ele>316.281</ele>
        <time>2021-10-13T09:00:37Z</time>
      </trkpt>
      <trkpt lat="39.955222" lon="-5.972150">
        <ele>315.760</ele>
        <time>2021-10-13T09:00:38Z</time>
      </trkpt>
      <trkpt lat="39.955418" lon="-5.972544">
        <ele>316.345</ele>
        <time>2021-10-13T09:00:40Z</time>
      </trkpt>
      <trkpt lat="39.955517" lon="-5.972746">
        <ele>316.871</ele>
        <time>2021-10-13T09:00:41Z</time>
      </trkpt>
      <trkpt lat="39.955621" lon="-5.972955">
        <ele>317.141</ele>
        <time>2021-10-13T09:00:42Z</time>
      </trkpt>
      <trkpt lat="39.955732" lon="-5.973179">
        <ele>317.415</ele>
        <time>2021-10-13T09:00:43Z</time>
      </trkpt>
      <trkpt lat="39.955849" lon="-5.973420">
        <ele>317.208</ele>
        <time>2021-10-13T09:00:44Z</time>
      </trkpt>
      <trkpt lat="39.955983" lon="-5.973700">
        <ele>317.495</ele>
        <time>2021-10-13T09:00:45Z</time>
      </trkpt>
      <trkpt lat="39.956234" lon="-5.974219">
        <ele>320.853</ele>
        <time>2021-10-13T09:00:47Z</time>
      </trkpt>
      <trkpt lat="39.956501" lon="-5.974746">
        <ele>324.280</ele>
        <time>2021-10-13T09:00:49Z</time>
      </trkpt>
      <trkpt lat="39.956636" lon="-5.975011">
        <ele>326.170</ele>
        <time>2021-10-13T09:00:50Z</time>
      </trkpt>
      <trkpt lat="39.956904" lon="-5.975539">
        <ele>328.123</ele>
        <time>2021-10-13T09:00:52Z</time>
      </trkpt>
      <trkpt lat="39.957029" lon="-5.975786">
        <ele>329.999</ele>
        <time>2021-10-13T09:00:53Z</time>
      </trkpt>
      <trkpt lat="39.957268" lon="-5.976264">
        <ele>333.498</ele>
        <time>2021-10-13T09:00:55Z</time>
      </trkpt>
      <trkpt lat="39.957398" lon="-5.976521">
        <ele>334.683</ele>
        <time>2021-10-13T09:00:56Z</time>
      </trkpt>
      <trkpt lat="39.957641" lon="-5.976997">
        <ele>334.696</ele>
        <time>2021-10-13T09:00:58Z</time>
      </trkpt>
      <trkpt lat="39.957770" lon="-5.977251">
        <ele>336.031</ele>
        <time>2021-10-13T09:00:59Z</time>
      </trkpt>
      <trkpt lat="39.957897" lon="-5.977501">
        <ele>336.324</ele>
        <time>2021-10-13T09:01:00Z</time>
      </trkpt>
      <trkpt lat="39.958156" lon="-5.978003">
        <ele>335.308</ele>
        <time>2021-10-13T09:01:02Z</time>
      </trkpt>
      <trkpt lat="39.958413" lon="-5.978497">
        <ele>335.657</ele>
        <time>2021-10-13T09:01:04Z</time>
      </trkpt>
      <trkpt lat="39.958550" lon="-5.978745">
        <ele>335.645</ele>
        <time>2021-10-13T09:01:05Z</time>
      </trkpt>
      <trkpt lat="39.958697" lon="-5.978992">
        <ele>336.412</ele>
        <time>2021-10-13T09:01:06Z</time>
      </trkpt>
      <trkpt lat="39.958993" lon="-5.979478">
        <ele>337.822</ele>
        <time>2021-10-13T09:01:08Z</time>
      </trkpt>
      <trkpt lat="39.959139" lon="-5.979715">
        <ele>338.585</ele>
        <time>2021-10-13T09:01:09Z</time>
      </trkpt>
      <trkpt lat="39.959431" lon="-5.980184">
        <ele>339.861</ele>
        <time>2021-10-13T09:01:11Z</time>
      </trkpt>
      <trkpt lat="39.959719" lon="-5.980651">
        <ele>341.550</ele>
        <time>2021-10-13T09:01:13Z</time>
      </trkpt>
      <trkpt lat="39.959858" lon="-5.980887">
        <ele>341.845</ele>
        <time>2021-10-13T09:01:14Z</time>
      </trkpt>
      <trkpt lat="39.960129" lon="-5.981359">
        <ele>342.597</ele>
        <time>2021-10-13T09:01:16Z</time>
      </trkpt>
      <trkpt lat="39.960409" lon="-5.981839">
        <ele>342.223</ele>
        <time>2021-10-13T09:01:18Z</time>
      </trkpt>
      <trkpt lat="39.960688" lon="-5.982318">
        <ele>343.125</ele>
        <time>2021-10-13T09:01:20Z</time>
      </trkpt>
      <trkpt lat="39.961003" lon="-5.982848">
        <ele>343.608</ele>
        <time>2021-10-13T09:01:22Z</time>
      </trkpt>
      <trkpt lat="39.961300" lon="-5.983392">
        <ele>344.357</ele>
        <time>2021-10-13T09:01:24Z</time>
      </trkpt>
      <trkpt lat="39.961568" lon="-5.983957">
        <ele>345.385</ele>
        <time>2021-10-13T09:01:26Z</time>
      </trkpt>
      <trkpt lat="39.961695" lon="-5.984248">
        <ele>345.662</ele>
        <time>2021-10-13T09:01:27Z</time>
      </trkpt>
      <trkpt lat="39.961947" lon="-5.984832">
        <ele>345.472</ele>
        <time>2021-10-13T09:01:29Z</time>
      </trkpt>
      <trkpt lat="39.962205" lon="-5.985418">
        <ele>344.915</ele>
        <time>2021-10-13T09:01:31Z</time>
      </trkpt>
      <trkpt lat="39.962336" lon="-5.985712">
        <ele>344.441</ele>
        <time>2021-10-13T09:01:32Z</time>
      </trkpt>
      <trkpt lat="39.962592" lon="-5.986306">
        <ele>343.020</ele>
        <time>2021-10-13T09:01:34Z</time>
      </trkpt>
      <trkpt lat="39.962721" lon="-5.986605">
        <ele>342.885</ele>
        <time>2021-10-13T09:01:35Z</time>
      </trkpt>
      <trkpt lat="39.962972" lon="-5.987200">
        <ele>340.925</ele>
        <time>2021-10-13T09:01:37Z</time>
      </trkpt>
      <trkpt lat="39.963097" lon="-5.987497">
        <ele>340.326</ele>
        <time>2021-10-13T09:01:38Z</time>
      </trkpt>
      <trkpt lat="39.963344" lon="-5.988079">
        <ele>340.608</ele>
        <time>2021-10-13T09:01:40Z</time>
      </trkpt>
      <trkpt lat="39.963585" lon="-5.988644">
        <ele>340.408</ele>
        <time>2021-10-13T09:01:42Z</time>
      </trkpt>
      <trkpt lat="39.963709" lon="-5.988923">
        <ele>340.920</ele>
        <time>2021-10-13T09:01:43Z</time>
      </trkpt>
      <trkpt lat="39.963946" lon="-5.989462">
        <ele>341.738</ele>
        <time>2021-10-13T09:01:45Z</time>
      </trkpt>
      <trkpt lat="39.964065" lon="-5.989730">
        <ele>341.325</ele>
        <time>2021-10-13T09:01:46Z</time>
      </trkpt>
      <trkpt lat="39.964284" lon="-5.990218">
        <ele>341.495</ele>
        <time>2021-10-13T09:01:48Z</time>
      </trkpt>
      <trkpt lat="39.964390" lon="-5.990454">
        <ele>341.638</ele>
        <time>2021-10-13T09:01:49Z</time>
      </trkpt>
      <trkpt lat="39.964496" lon="-5.990696">
        <ele>341.744</ele>
        <time>2021-10-13T09:01:50Z</time>
      </trkpt>
      <trkpt lat="39.964708" lon="-5.991184">
        <ele>342.493</ele>
        <time>2021-10-13T09:01:52Z</time>
      </trkpt>
      <trkpt lat="39.964916" lon="-5.991684">
        <ele>342.628</ele>
        <time>2021-10-13T09:01:54Z</time>
      </trkpt>
      <trkpt lat="39.965113" lon="-5.992212">
        <ele>343.212</ele>
        <time>2021-10-13T09:01:56Z</time>
      </trkpt>
      <trkpt lat="39.965264" lon="-5.992757">
        <ele>344.932</ele>
        <time>2021-10-13T09:01:58Z</time>
      </trkpt>
      <trkpt lat="39.965322" lon="-5.993023">
        <ele>344.705</ele>
        <time>2021-10-13T09:01:59Z</time>
      </trkpt>
      <trkpt lat="39.965370" lon="-5.993269">
        <ele>345.608</ele>
        <time>2021-10-13T09:02:00Z</time>
      </trkpt>
      <trkpt lat="39.965448" lon="-5.993756">
        <ele>347.629</ele>
        <time>2021-10-13T09:02:02Z</time>
      </trkpt>
      <trkpt lat="39.965497" lon="-5.994201">
        <ele>348.377</ele>
        <time>2021-10-13T09:02:04Z</time>
      </trkpt>
      <trkpt lat="39.965528" lon="-5.994634">
        <ele>350.384</ele>
        <time>2021-10-13T09:02:06Z</time>
      </trkpt>
      <trkpt lat="39.965542" lon="-5.995009">
        <ele>351.234</ele>
        <time>2021-10-13T09:02:08Z</time>
      </trkpt>
      <trkpt lat="39.965535" lon="-5.995333">
        <ele>352.527</ele>
        <time>2021-10-13T09:02:10Z</time>
      </trkpt>
      <trkpt lat="39.965521" lon="-5.995514">
        <ele>352.913</ele>
        <time>2021-10-13T09:02:11Z</time>
      </trkpt>
      <trkpt lat="39.965515" lon="-5.995709">
        <ele>352.932</ele>
        <time>2021-10-13T09:02:12Z</time>
      </trkpt>
      <trkpt lat="39.965515" lon="-5.995921">
        <ele>353.227</ele>
        <time>2021-10-13T09:02:13Z</time>
      </trkpt>
      <trkpt lat="39.965508" lon="-5.996150">
        <ele>354.314</ele>
        <time>2021-10-13T09:02:14Z</time>
      </trkpt>
      <trkpt lat="39.965481" lon="-5.996658">
        <ele>355.154</ele>
        <time>2021-10-13T09:02:16Z</time>
      </trkpt>
      <trkpt lat="39.965455" lon="-5.997222">
        <ele>355.409</ele>
        <time>2021-10-13T09:02:18Z</time>
      </trkpt>
      <trkpt lat="39.965443" lon="-5.997830">
        <ele>357.608</ele>
        <time>2021-10-13T09:02:20Z</time>
      </trkpt>
      <trkpt lat="39.965446" lon="-5.998146">
        <ele>357.759</ele>
        <time>2021-10-13T09:02:21Z</time>
      </trkpt>
      <trkpt lat="39.965462" lon="-5.998464">
        <ele>358.157</ele>
        <time>2021-10-13T09:02:22Z</time>
      </trkpt>
      <trkpt lat="39.965536" lon="-5.999093">
        <ele>359.894</ele>
        <time>2021-10-13T09:02:24Z</time>
      </trkpt>
      <trkpt lat="39.965665" lon="-5.999736">
        <ele>364.134</ele>
        <time>2021-10-13T09:02:26Z</time>
      </trkpt>
      <trkpt lat="39.965826" lon="-6.000334">
        <ele>366.087</ele>
        <time>2021-10-13T09:02:28Z</time>
      </trkpt>
      <trkpt lat="39.966010" lon="-6.000937">
        <ele>370.613</ele>
        <time>2021-10-13T09:02:30Z</time>
      </trkpt>
      <trkpt lat="39.966105" lon="-6.001237">
        <ele>372.582</ele>
        <time>2021-10-13T09:02:31Z</time>
      </trkpt>
      <trkpt lat="39.966202" lon="-6.001539">
        <ele>374.187</ele>
        <time>2021-10-13T09:02:32Z</time>
      </trkpt>
      <trkpt lat="39.966371" lon="-6.002136">
        <ele>376.386</ele>
        <time>2021-10-13T09:02:34Z</time>
      </trkpt>
      <trkpt lat="39.966480" lon="-6.002758">
        <ele>379.960</ele>
        <time>2021-10-13T09:02:36Z</time>
      </trkpt>
      <trkpt lat="39.966507" lon="-6.003084">
        <ele>381.826</ele>
        <time>2021-10-13T09:02:37Z</time>
      </trkpt>
      <trkpt lat="39.966518" lon="-6.003747">
        <ele>385.808</ele>
        <time>2021-10-13T09:02:39Z</time>
      </trkpt>
      <trkpt lat="39.966476" lon="-6.004425">
        <ele>390.626</ele>
        <time>2021-10-13T09:02:41Z</time>
      </trkpt>
      <trkpt lat="39.966438" lon="-6.004764">
        <ele>392.014</ele>
        <time>2021-10-13T09:02:42Z</time>
      </trkpt>
      <trkpt lat="39.966361" lon="-6.005363">
        <ele>397.221</ele>
        <time>2021-10-13T09:02:44Z</time>
      </trkpt>
      <trkpt lat="39.966317" lon="-6.005867">
        <ele>401.221</ele>
        <time>2021-10-13T09:02:46Z</time>
      </trkpt>
      <trkpt lat="39.966306" lon="-6.006369">
        <ele>403.684</ele>
        <time>2021-10-13T09:02:48Z</time>
      </trkpt>
      <trkpt lat="39.966316" lon="-6.006898">
        <ele>407.560</ele>
        <time>2021-10-13T09:02:50Z</time>
      </trkpt>
      <trkpt lat="39.966361" lon="-6.007393">
        <ele>409.439</ele>
        <time>2021-10-13T09:02:52Z</time>
      </trkpt>
      <trkpt lat="39.966406" lon="-6.007873">
        <ele>408.574</ele>
        <time>2021-10-13T09:02:54Z</time>
      </trkpt>
      <trkpt lat="39.966436" lon="-6.008106">
        <ele>408.657</ele>
        <time>2021-10-13T09:02:55Z</time>
      </trkpt>
      <trkpt lat="39.966480" lon="-6.008370">
        <ele>408.000</ele>
        <time>2021-10-13T09:02:56Z</time>
      </trkpt>
      <trkpt lat="39.966592" lon="-6.008898">
        <ele>407.220</ele>
        <time>2021-10-13T09:02:58Z</time>
      </trkpt>
      <trkpt lat="39.966757" lon="-6.009461">
        <ele>406.708</ele>
        <time>2021-10-13T09:03:00Z</time>
      </trkpt>
      <trkpt lat="39.966848" lon="-6.009755">
        <ele>407.783</ele>
        <time>2021-10-13T09:03:01Z</time>
      </trkpt>
      <trkpt lat="39.967050" lon="-6.010358">
        <ele>407.011</ele>
        <time>2021-10-13T09:03:03Z</time>
      </trkpt>
      <trkpt lat="39.967253" lon="-6.010982">
        <ele>407.518</ele>
        <time>2021-10-13T09:03:05Z</time>
      </trkpt>
      <trkpt lat="39.967429" lon="-6.011591">
        <ele>406.678</ele>
        <time>2021-10-13T09:03:07Z</time>
      </trkpt>
      <trkpt lat="39.967524" lon="-6.011891">
        <ele>406.881</ele>
        <time>2021-10-13T09:03:08Z</time>
      </trkpt>
      <trkpt lat="39.967751" lon="-6.012462">
        <ele>407.557</ele>
        <time>2021-10-13T09:03:10Z</time>
      </trkpt>
      <trkpt lat="39.968027" lon="-6.012982">
        <ele>407.126</ele>
        <time>2021-10-13T09:03:12Z</time>
      </trkpt>
      <trkpt lat="39.968375" lon="-6.013457">
        <ele>408.171</ele>
        <time>2021-10-13T09:03:14Z</time>
      </trkpt>
      <trkpt lat="39.968586" lon="-6.013661">
        <ele>408.088</ele>
        <time>2021-10-13T09:03:15Z</time>
      </trkpt>
      <trkpt lat="39.968799" lon="-6.013849">
        <ele>408.824</ele>
        <time>2021-10-13T09:03:16Z</time>
      </trkpt>
      <trkpt lat="39.969007" lon="-6.014024">
        <ele>408.826</ele>
        <time>2021-10-13T09:03:17Z</time>
      </trkpt>
      <trkpt lat="39.969379" lon="-6.014380">
        <ele>407.208</ele>
        <time>2021-10-13T09:03:19Z</time>
      </trkpt>
      <trkpt lat="39.969549" lon="-6.014578">
        <ele>405.646</ele>
        <time>2021-10-13T09:03:20Z</time>
      </trkpt>
      <trkpt lat="39.969863" lon="-6.015005">
        <ele>404.054</ele>
        <time>2021-10-13T09:03:22Z</time>
      </trkpt>
      <trkpt lat="39.970189" lon="-6.015476">
        <ele>400.971</ele>
        <time>2021-10-13T09:03:24Z</time>
      </trkpt>
      <trkpt lat="39.970506" lon="-6.016013">
        <ele>398.151</ele>
        <time>2021-10-13T09:03:26Z</time>
      </trkpt>
      <trkpt lat="39.970813" lon="-6.016564">
        <ele>395.754</ele>
        <time>2021-10-13T09:03:28Z</time>
      </trkpt>
      <trkpt lat="39.970956" lon="-6.016864">
        <ele>395.140</ele>
        <time>2021-10-13T09:03:29Z</time>
      </trkpt>
      <trkpt lat="39.971213" lon="-6.017456">
        <ele>393.849</ele>
        <time>2021-10-13T09:03:31Z</time>
      </trkpt>
      <trkpt lat="39.971334" lon="-6.017751">
        <ele>394.244</ele>
        <time>2021-10-13T09:03:32Z</time>
      </trkpt>
      <trkpt lat="39.971444" lon="-6.018033">
        <ele>394.724</ele>
        <time>2021-10-13T09:03:33Z</time>
      </trkpt>
      <trkpt lat="39.971646" lon="-6.018553">
        <ele>398.504</ele>
        <time>2021-10-13T09:03:35Z</time>
      </trkpt>
      <trkpt lat="39.971752" lon="-6.018812">
        <ele>399.014</ele>
        <time>2021-10-13T09:03:36Z</time>
      </trkpt>
      <trkpt lat="39.971973" lon="-6.019305">
        <ele>401.208</ele>
        <time>2021-10-13T09:03:38Z</time>
      </trkpt>
      <trkpt lat="39.972088" lon="-6.019551">
        <ele>401.940</ele>
        <time>2021-10-13T09:03:39Z</time>
      </trkpt>
      <trkpt lat="39.972333" lon="-6.020031">
        <ele>402.958</ele>
        <time>2021-10-13T09:03:41Z</time>
      </trkpt>
      <trkpt lat="39.972617" lon="-6.020468">
        <ele>407.195</ele>
        <time>2021-10-13T09:03:43Z</time>
      </trkpt>
      <trkpt lat="39.972754" lon="-6.020670">
        <ele>407.655</ele>
        <time>2021-10-13T09:03:44Z</time>
      </trkpt>
      <trkpt lat="39.973006" lon="-6.021057">
        <ele>408.888</ele>
        <time>2021-10-13T09:03:46Z</time>
      </trkpt>
      <trkpt lat="39.973132" lon="-6.021258">
        <ele>409.654</ele>
        <time>2021-10-13T09:03:47Z</time>
      </trkpt>
      <trkpt lat="39.973359" lon="-6.021690">
        <ele>411.933</ele>
        <time>2021-10-13T09:03:49Z</time>
      </trkpt>
      <trkpt lat="39.973555" lon="-6.022183">
        <ele>411.928</ele>
        <time>2021-10-13T09:03:51Z</time>
      </trkpt>
      <trkpt lat="39.973703" lon="-6.022691">
        <ele>411.648</ele>
        <time>2021-10-13T09:03:53Z</time>
      </trkpt>
      <trkpt lat="39.973771" lon="-6.022921">
        <ele>411.361</ele>
        <time>2021-10-13T09:03:54Z</time>
      </trkpt>
      <trkpt lat="39.973910" lon="-6.023343">
        <ele>410.317</ele>
        <time>2021-10-13T09:03:56Z</time>
      </trkpt>
      <trkpt lat="39.973985" lon="-6.023549">
        <ele>409.008</ele>
        <time>2021-10-13T09:03:57Z</time>
      </trkpt>
      <trkpt lat="39.974067" lon="-6.023765">
        <ele>408.942</ele>
        <time>2021-10-13T09:03:58Z</time>
      </trkpt>
      <trkpt lat="39.974263" lon="-6.024191">
        <ele>407.310</ele>
        <time>2021-10-13T09:04:00Z</time>
      </trkpt>
      <trkpt lat="39.974523" lon="-6.024565">
        <ele>406.587</ele>
        <time>2021-10-13T09:04:02Z</time>
      </trkpt>
      <trkpt lat="39.974667" lon="-6.024726">
        <ele>405.277</ele>
        <time>2021-10-13T09:04:03Z</time>
      </trkpt>
      <trkpt lat="39.974962" lon="-6.025022">
        <ele>404.280</ele>
        <time>2021-10-13T09:04:05Z</time>
      </trkpt>
      <trkpt lat="39.975116" lon="-6.025172">
        <ele>404.356</ele>
        <time>2021-10-13T09:04:06Z</time>
      </trkpt>
      <trkpt lat="39.975269" lon="-6.025322">
        <ele>403.165</ele>
        <time>2021-10-13T09:04:07Z</time>
      </trkpt>
      <trkpt lat="39.975565" lon="-6.025635">
        <ele>401.940</ele>
        <time>2021-10-13T09:04:09Z</time>
      </trkpt>
      <trkpt lat="39.975699" lon="-6.025810">
        <ele>400.881</ele>
        <time>2021-10-13T09:04:10Z</time>
      </trkpt>
      <trkpt lat="39.975795" lon="-6.026023">
        <ele>400.361</ele>
        <time>2021-10-13T09:04:11Z</time>
      </trkpt>
      <trkpt lat="39.975947" lon="-6.026511">
        <ele>400.017</ele>
        <time>2021-10-13T09:04:13Z</time>
      </trkpt>
      <trkpt lat="39.976013" lon="-6.027057">
        <ele>399.908</ele>
        <time>2021-10-13T09:04:15Z</time>
      </trkpt>
      <trkpt lat="39.976000" lon="-6.027669">
        <ele>402.446</ele>
        <time>2021-10-13T09:04:17Z</time>
      </trkpt>
      <trkpt lat="39.975962" lon="-6.028271">
        <ele>404.834</ele>
        <time>2021-10-13T09:04:19Z</time>
      </trkpt>
      <trkpt lat="39.975965" lon="-6.028551">
        <ele>406.491</ele>
        <time>2021-10-13T09:04:20Z</time>
      </trkpt>
      <trkpt lat="39.976049" lon="-6.029044">
        <ele>409.041</ele>
        <time>2021-10-13T09:04:22Z</time>
      </trkpt>
      <trkpt lat="39.976203" lon="-6.029464">
        <ele>412.034</ele>
        <time>2021-10-13T09:04:24Z</time>
      </trkpt>
      <trkpt lat="39.976277" lon="-6.029663">
        <ele>413.360</ele>
        <time>2021-10-13T09:04:25Z</time>
      </trkpt>
      <trkpt lat="39.976351" lon="-6.029866">
        <ele>414.539</ele>
        <time>2021-10-13T09:04:26Z</time>
      </trkpt>
      <trkpt lat="39.976477" lon="-6.030204">
        <ele>415.174</ele>
        <time>2021-10-13T09:04:28Z</time>
      </trkpt>
      <trkpt lat="39.976542" lon="-6.030372">
        <ele>416.325</ele>
        <time>2021-10-13T09:04:29Z</time>
      </trkpt>
      <trkpt lat="39.976592" lon="-6.030521">
        <ele>415.926</ele>
        <time>2021-10-13T09:04:30Z</time>
      </trkpt>
      <trkpt lat="39.976671" lon="-6.030797">
        <ele>416.908</ele>
        <time>2021-10-13T09:04:32Z</time>
      </trkpt>
      <trkpt lat="39.976716" lon="-6.031037">
        <ele>417.208</ele>
        <time>2021-10-13T09:04:34Z</time>
      </trkpt>
      <trkpt lat="39.976731" lon="-6.031147">
        <ele>417.820</ele>
        <time>2021-10-13T09:04:35Z</time>
      </trkpt>
      <trkpt lat="39.976750" lon="-6.031340">
        <ele>417.888</ele>
        <time>2021-10-13T09:04:37Z</time>
      </trkpt>
      <trkpt lat="39.976820" lon="-6.031514">
        <ele>417.535</ele>
        <time>2021-10-13T09:04:39Z</time>
      </trkpt>
      <trkpt lat="39.976892" lon="-6.031704">
        <ele>417.865</ele>
        <time>2021-10-13T09:04:41Z</time>
      </trkpt>
      <trkpt lat="39.976917" lon="-6.031842">
        <ele>417.928</ele>
        <time>2021-10-13T09:04:42Z</time>
      </trkpt>
      <trkpt lat="39.976982" lon="-6.032115">
        <ele>417.944</ele>
        <time>2021-10-13T09:04:44Z</time>
      </trkpt>
      <trkpt lat="39.977031" lon="-6.032238">
        <ele>417.633</ele>
        <time>2021-10-13T09:04:45Z</time>
      </trkpt>
      <trkpt lat="39.977167" lon="-6.032467">
        <ele>417.138</ele>
        <time>2021-10-13T09:04:47Z</time>
      </trkpt>
      <trkpt lat="39.977245" lon="-6.032592">
        <ele>416.988</ele>
        <time>2021-10-13T09:04:48Z</time>
      </trkpt>
      <trkpt lat="39.977395" lon="-6.032900">
        <ele>416.624</ele>
        <time>2021-10-13T09:04:50Z</time>
      </trkpt>
      <trkpt lat="39.977536" lon="-6.033281">
        <ele>416.826</ele>
        <time>2021-10-13T09:04:52Z</time>
      </trkpt>
      <trkpt lat="39.977604" lon="-6.033482">
        <ele>417.508</ele>
        <time>2021-10-13T09:04:53Z</time>
      </trkpt>
      <trkpt lat="39.977733" lon="-6.033864">
        <ele>420.926</ele>
        <time>2021-10-13T09:04:55Z</time>
      </trkpt>
      <trkpt lat="39.977798" lon="-6.034050">
        <ele>422.694</ele>
        <time>2021-10-13T09:04:56Z</time>
      </trkpt>
      <trkpt lat="39.977902" lon="-6.034360">
        <ele>426.881</ele>
        <time>2021-10-13T09:04:58Z</time>
      </trkpt>
      <trkpt lat="39.977957" lon="-6.034525">
        <ele>427.211</ele>
        <time>2021-10-13T09:04:59Z</time>
      </trkpt>
      <trkpt lat="39.978067" lon="-6.034868">
        <ele>429.364</ele>
        <time>2021-10-13T09:05:01Z</time>
      </trkpt>
      <trkpt lat="39.978175" lon="-6.035217">
        <ele>429.860</ele>
        <time>2021-10-13T09:05:03Z</time>
      </trkpt>
      <trkpt lat="39.978228" lon="-6.035395">
        <ele>429.669</ele>
        <time>2021-10-13T09:05:04Z</time>
      </trkpt>
      <trkpt lat="39.978278" lon="-6.035568">
        <ele>428.454</ele>
        <time>2021-10-13T09:05:05Z</time>
      </trkpt>
      <trkpt lat="39.978362" lon="-6.035854">
        <ele>428.624</ele>
        <time>2021-10-13T09:05:07Z</time>
      </trkpt>
      <trkpt lat="39.978398" lon="-6.035967">
        <ele>428.604</ele>
        <time>2021-10-13T09:05:08Z</time>
      </trkpt>
      <trkpt lat="39.978429" lon="-6.036066">
        <ele>426.714</ele>
        <time>2021-10-13T09:05:09Z</time>
      </trkpt>
      <trkpt lat="39.978494" lon="-6.036207">
        <ele>426.408</ele>
        <time>2021-10-13T09:05:11Z</time>
      </trkpt>
      <trkpt lat="39.978603" lon="-6.036278">
        <ele>427.040</ele>
        <time>2021-10-13T09:05:13Z</time>
      </trkpt>
      <trkpt lat="39.978715" lon="-6.036354">
        <ele>428.188</ele>
        <time>2021-10-13T09:05:15Z</time>
      </trkpt>
      <trkpt lat="39.978737" lon="-6.036473">
        <ele>428.115</ele>
        <time>2021-10-13T09:05:17Z</time>
      </trkpt>
      <trkpt lat="39.978702" lon="-6.036544">
        <ele>428.085</ele>
        <time>2021-10-13T09:05:18Z</time>
      </trkpt>
      <trkpt lat="39.978567" lon="-6.036676">
        <ele>427.948</ele>
        <time>2021-10-13T09:05:20Z</time>
      </trkpt>
      <trkpt lat="39.978421" lon="-6.036869">
        <ele>429.584</ele>
        <time>2021-10-13T09:05:22Z</time>
      </trkpt>
      <trkpt lat="39.978357" lon="-6.036990">
        <ele>430.713</ele>
        <time>2021-10-13T09:05:23Z</time>
      </trkpt>
      <trkpt lat="39.978297" lon="-6.037122">
        <ele>430.768</ele>
        <time>2021-10-13T09:05:24Z</time>
      </trkpt>
      <trkpt lat="39.978190" lon="-6.037425">
        <ele>431.231</ele>
        <time>2021-10-13T09:05:26Z</time>
      </trkpt>
      <trkpt lat="39.978083" lon="-6.037763">
        <ele>432.061</ele>
        <time>2021-10-13T09:05:28Z</time>
      </trkpt>
      <trkpt lat="39.977992" lon="-6.038106">
        <ele>433.807</ele>
        <time>2021-10-13T09:05:30Z</time>
      </trkpt>
      <trkpt lat="39.977919" lon="-6.038396">
        <ele>433.908</ele>
        <time>2021-10-13T09:05:32Z</time>
      </trkpt>
      <trkpt lat="39.977880" lon="-6.038536">
        <ele>435.961</ele>
        <time>2021-10-13T09:05:33Z</time>
      </trkpt>
      <trkpt lat="39.977799" lon="-6.038744">
        <ele>436.689</ele>
        <time>2021-10-13T09:05:35Z</time>
      </trkpt>
      <trkpt lat="39.977666" lon="-6.038878">
        <ele>438.476</ele>
        <time>2021-10-13T09:05:37Z</time>
      </trkpt>
      <trkpt lat="39.977579" lon="-6.038923">
        <ele>438.596</ele>
        <time>2021-10-13T09:05:38Z</time>
      </trkpt>
      <trkpt lat="39.977483" lon="-6.038959">
        <ele>439.089</ele>
        <time>2021-10-13T09:05:39Z</time>
      </trkpt>
      <trkpt lat="39.977297" lon="-6.039040">
        <ele>439.125</ele>
        <time>2021-10-13T09:05:41Z</time>
      </trkpt>
      <trkpt lat="39.977218" lon="-6.039108">
        <ele>439.054</ele>
        <time>2021-10-13T09:05:42Z</time>
      </trkpt>
      <trkpt lat="39.977128" lon="-6.039291">
        <ele>439.069</ele>
        <time>2021-10-13T09:05:44Z</time>
      </trkpt>
      <trkpt lat="39.977110" lon="-6.039377">
        <ele>438.524</ele>
        <time>2021-10-13T09:05:45Z</time>
      </trkpt>
      <trkpt lat="39.977114" lon="-6.039533">
        <ele>438.804</ele>
        <time>2021-10-13T09:05:47Z</time>
      </trkpt>
      <trkpt lat="39.977127" lon="-6.039608">
        <ele>438.314</ele>
        <time>2021-10-13T09:05:48Z</time>
      </trkpt>
      <trkpt lat="39.977140" lon="-6.039681">
        <ele>438.008</ele>
        <time>2021-10-13T09:05:49Z</time>
      </trkpt>
      <trkpt lat="39.977158" lon="-6.039813">
        <ele>435.980</ele>
        <time>2021-10-13T09:05:51Z</time>
      </trkpt>
      <trkpt lat="39.977164" lon="-6.039878">
        <ele>435.988</ele>
        <time>2021-10-13T09:05:52Z</time>
      </trkpt>
      <trkpt lat="39.977169" lon="-6.039950">
        <ele>435.985</ele>
        <time>2021-10-13T09:05:53Z</time>
      </trkpt>
      <trkpt lat="39.977170" lon="-6.040030">
        <ele>435.965</ele>
        <time>2021-10-13T09:05:54Z</time>
      </trkpt>
      <trkpt lat="39.977169" lon="-6.040112">
        <ele>435.988</ele>
        <time>2021-10-13T09:05:55Z</time>
      </trkpt>
      <trkpt lat="39.977169" lon="-6.040196">
        <ele>436.124</ele>
        <time>2021-10-13T09:05:56Z</time>
      </trkpt>
      <trkpt lat="39.977171" lon="-6.040372">
        <ele>437.483</ele>
        <time>2021-10-13T09:05:58Z</time>
      </trkpt>
      <trkpt lat="39.977168" lon="-6.040572">
        <ele>439.058</ele>
        <time>2021-10-13T09:06:00Z</time>
      </trkpt>
      <trkpt lat="39.977164" lon="-6.040767">
        <ele>439.831</ele>
        <time>2021-10-13T09:06:02Z</time>
      </trkpt>
      <trkpt lat="39.977161" lon="-6.040960">
        <ele>439.661</ele>
        <time>2021-10-13T09:06:04Z</time>
      </trkpt>
      <trkpt lat="39.977162" lon="-6.041061">
        <ele>439.707</ele>
        <time>2021-10-13T09:06:05Z</time>
      </trkpt>
      <trkpt lat="39.977163" lon="-6.041278">
        <ele>439.208</ele>
        <time>2021-10-13T09:06:07Z</time>
      </trkpt>
      <trkpt lat="39.977161" lon="-6.041407">
        <ele>439.031</ele>
        <time>2021-10-13T09:06:08Z</time>
      </trkpt>
      <trkpt lat="39.977158" lon="-6.041535">
        <ele>439.039</ele>
        <time>2021-10-13T09:06:09Z</time>
      </trkpt>
      <trkpt lat="39.977155" lon="-6.041812">
        <ele>440.036</ele>
        <time>2021-10-13T09:06:11Z</time>
      </trkpt>
      <trkpt lat="39.977154" lon="-6.042102">
        <ele>439.966</ele>
        <time>2021-10-13T09:06:13Z</time>
      </trkpt>
      <trkpt lat="39.977153" lon="-6.042242">
        <ele>439.529</ele>
        <time>2021-10-13T09:06:14Z</time>
      </trkpt>
      <trkpt lat="39.977153" lon="-6.042508">
        <ele>439.235</ele>
        <time>2021-10-13T09:06:16Z</time>
      </trkpt>
      <trkpt lat="39.977156" lon="-6.042757">
        <ele>439.794</ele>
        <time>2021-10-13T09:06:18Z</time>
      </trkpt>
      <trkpt lat="39.977184" lon="-6.042975">
        <ele>439.739</ele>
        <time>2021-10-13T09:06:20Z</time>
      </trkpt>
      <trkpt lat="39.977207" lon="-6.043079">
        <ele>439.645</ele>
        <time>2021-10-13T09:06:21Z</time>
      </trkpt>
      <trkpt lat="39.977234" lon="-6.043186">
        <ele>440.147</ele>
        <time>2021-10-13T09:06:22Z</time>
      </trkpt>
      <trkpt lat="39.977264" lon="-6.043299">
        <ele>439.511</ele>
        <time>2021-10-13T09:06:23Z</time>
      </trkpt>
      <trkpt lat="39.977293" lon="-6.043408">
        <ele>439.208</ele>
        <time>2021-10-13T09:06:24Z</time>
      </trkpt>
      <trkpt lat="39.977350" lon="-6.043624">
        <ele>438.992</ele>
        <time>2021-10-13T09:06:26Z</time>
      </trkpt>
      <trkpt lat="39.977401" lon="-6.043837">
        <ele>438.780</ele>
        <time>2021-10-13T09:06:28Z</time>
      </trkpt>
      <trkpt lat="39.977427" lon="-6.043952">
        <ele>438.727</ele>
        <time>2021-10-13T09:06:29Z</time>
      </trkpt>
      <trkpt lat="39.977449" lon="-6.044062">
        <ele>438.177</ele>
        <time>2021-10-13T09:06:30Z</time>
      </trkpt>
      <trkpt lat="39.977493" lon="-6.044253">
        <ele>438.640</ele>
        <time>2021-10-13T09:06:32Z</time>
      </trkpt>
      <trkpt lat="39.977530" lon="-6.044389">
        <ele>439.016</ele>
        <time>2021-10-13T09:06:34Z</time>
      </trkpt>
      <trkpt lat="39.977571" lon="-6.044494">
        <ele>438.935</ele>
        <time>2021-10-13T09:06:36Z</time>
      </trkpt>
      <trkpt lat="39.977642" lon="-6.044645">
        <ele>438.910</ele>
        <time>2021-10-13T09:06:38Z</time>
      </trkpt>
      <trkpt lat="39.977687" lon="-6.044737">
        <ele>439.731</ele>
        <time>2021-10-13T09:06:39Z</time>
      </trkpt>
      <trkpt lat="39.977738" lon="-6.044833">
        <ele>439.961</ele>
        <time>2021-10-13T09:06:40Z</time>
      </trkpt>
      <trkpt lat="39.977858" lon="-6.045019">
        <ele>442.307</ele>
        <time>2021-10-13T09:06:42Z</time>
      </trkpt>
      <trkpt lat="39.977927" lon="-6.045103">
        <ele>444.308</ele>
        <time>2021-10-13T09:06:43Z</time>
      </trkpt>
      <trkpt lat="39.978068" lon="-6.045260">
        <ele>444.231</ele>
        <time>2021-10-13T09:06:45Z</time>
      </trkpt>
      <trkpt lat="39.978139" lon="-6.045329">
        <ele>444.069</ele>
        <time>2021-10-13T09:06:46Z</time>
      </trkpt>
      <trkpt lat="39.978268" lon="-6.045440">
        <ele>443.916</ele>
        <time>2021-10-13T09:06:48Z</time>
      </trkpt>
      <trkpt lat="39.978318" lon="-6.045488">
        <ele>444.496</ele>
        <time>2021-10-13T09:06:49Z</time>
      </trkpt>
      <trkpt lat="39.978376" lon="-6.045560">
        <ele>445.479</ele>
        <time>2021-10-13T09:06:51Z</time>
      </trkpt>
      <trkpt lat="39.978458" lon="-6.045649">
        <ele>446.675</ele>
        <time>2021-10-13T09:06:53Z</time>
      </trkpt>
      <trkpt lat="39.978545" lon="-6.045742">
        <ele>447.164</ele>
        <time>2021-10-13T09:06:55Z</time>
      </trkpt>
      <trkpt lat="39.978611" lon="-6.045811">
        <ele>447.789</ele>
        <time>2021-10-13T09:06:57Z</time>
      </trkpt>
      <trkpt lat="39.978672" lon="-6.045853">
        <ele>448.934</ele>
        <time>2021-10-13T09:06:59Z</time>
      </trkpt>
      <trkpt lat="39.978730" lon="-6.045857">
        <ele>449.555</ele>
        <time>2021-10-13T09:07:01Z</time>
      </trkpt>
      <trkpt lat="39.978746" lon="-6.045780">
        <ele>449.510</ele>
        <time>2021-10-13T09:07:03Z</time>
      </trkpt>
      <trkpt lat="39.978768" lon="-6.045723">
        <ele>449.408</ele>
        <time>2021-10-13T09:07:04Z</time>
      </trkpt>
      <trkpt lat="39.978840" lon="-6.045595">
        <ele>449.361</ele>
        <time>2021-10-13T09:07:06Z</time>
      </trkpt>
      <trkpt lat="39.978898" lon="-6.045532">
        <ele>447.139</ele>
        <time>2021-10-13T09:07:07Z</time>
      </trkpt>
      <trkpt lat="39.978889" lon="-6.045466">
        <ele>445.936</ele>
        <time>2021-10-13T09:07:09Z</time>
      </trkpt>
      <trkpt lat="39.978909" lon="-6.045409">
        <ele>445.956</ele>
        <time>2021-10-13T09:07:11Z</time>
      </trkpt>
      <trkpt lat="39.978971" lon="-6.045347">
        <ele>446.599</ele>
        <time>2021-10-13T09:07:13Z</time>
      </trkpt>
      <trkpt lat="39.979017" lon="-6.045305">
        <ele>446.975</ele>
        <time>2021-10-13T09:07:14Z</time>
      </trkpt>
      <trkpt lat="39.979063" lon="-6.045274">
        <ele>448.294</ele>
        <time>2021-10-13T09:07:15Z</time>
      </trkpt>
      <trkpt lat="39.979129" lon="-6.045232">
        <ele>449.259</ele>
        <time>2021-10-13T09:07:17Z</time>
      </trkpt>
      <trkpt lat="39.979193" lon="-6.045191">
        <ele>451.529</ele>
        <time>2021-10-13T09:07:19Z</time>
      </trkpt>
      <trkpt lat="39.979235" lon="-6.045159">
        <ele>453.300</ele>
        <time>2021-10-13T09:07:21Z</time>
      </trkpt>
      <trkpt lat="39.979180" lon="-6.045189">
        <ele>473.220</ele>
        <time>2021-10-13T09:07:32Z</time>
      </trkpt>
      <trkpt lat="39.979135" lon="-6.045222">
        <ele>490.608</ele>
        <time>2021-10-13T09:07:36Z</time>
      </trkpt>
      <trkpt lat="39.979097" lon="-6.045258">
        <ele>506.310</ele>
        <time>2021-10-13T09:07:48Z</time>
      </trkpt>
      <trkpt lat="39.979060" lon="-6.045292">
        <ele>506.618</ele>
        <time>2021-10-13T09:08:04Z</time>
      </trkpt>
      <trkpt lat="39.979101" lon="-6.045339">
        <ele>506.675</ele>
        <time>2021-10-13T09:08:25Z</time>
      </trkpt>
      <trkpt lat="39.979026" lon="-6.045392">
        <ele>506.615</ele>
        <time>2021-10-13T09:08:29Z</time>
      </trkpt>
      <trkpt lat="39.978954" lon="-6.045424">
        <ele>506.798</ele>
        <time>2021-10-13T09:08:30Z</time>
      </trkpt>
      <trkpt lat="39.978876" lon="-6.045473">
        <ele>506.774</ele>
        <time>2021-10-13T09:08:31Z</time>
      </trkpt>
      <trkpt lat="39.978798" lon="-6.045533">
        <ele>507.163</ele>
        <time>2021-10-13T09:08:32Z</time>
      </trkpt>
      <trkpt lat="39.978613" lon="-6.045713">
        <ele>507.118</ele>
        <time>2021-10-13T09:08:34Z</time>
      </trkpt>
      <trkpt lat="39.978437" lon="-6.045937">
        <ele>507.199</ele>
        <time>2021-10-13T09:08:36Z</time>
      </trkpt>
      <trkpt lat="39.978384" lon="-6.046023">
        <ele>507.107</ele>
        <time>2021-10-13T09:08:37Z</time>
      </trkpt>
      <trkpt lat="39.978340" lon="-6.046104">
        <ele>507.127</ele>
        <time>2021-10-13T09:08:38Z</time>
      </trkpt>
      <trkpt lat="39.978237" lon="-6.046233">
        <ele>507.108</ele>
        <time>2021-10-13T09:08:40Z</time>
      </trkpt>
      <trkpt lat="39.978149" lon="-6.046334">
        <ele>507.187</ele>
        <time>2021-10-13T09:08:42Z</time>
      </trkpt>
      <trkpt lat="39.978052" lon="-6.046439">
        <ele>507.165</ele>
        <time>2021-10-13T09:08:44Z</time>
      </trkpt>
      <trkpt lat="39.978089" lon="-6.046401">
        <ele>504.552</ele>
        <time>2021-10-13T09:08:52Z</time>
      </trkpt>
      <trkpt lat="39.978131" lon="-6.046363">
        <ele>504.022</ele>
        <time>2021-10-13T09:08:53Z</time>
      </trkpt>
      <trkpt lat="39.978170" lon="-6.046327">
        <ele>504.065</ele>
        <time>2021-10-13T09:08:55Z</time>
      </trkpt>
      <trkpt lat="39.978218" lon="-6.046284">
        <ele>504.031</ele>
        <time>2021-10-13T09:08:57Z</time>
      </trkpt>
      <trkpt lat="39.978262" lon="-6.046244">
        <ele>503.620</ele>
        <time>2021-10-13T09:08:59Z</time>
      </trkpt>
      <trkpt lat="39.978300" lon="-6.046208">
        <ele>503.615</ele>
        <time>2021-10-13T09:09:01Z</time>
      </trkpt>
      <trkpt lat="39.978346" lon="-6.046159">
        <ele>503.358</ele>
        <time>2021-10-13T09:09:03Z</time>
      </trkpt>
      <trkpt lat="39.978393" lon="-6.046109">
        <ele>503.352</ele>
        <time>2021-10-13T09:09:06Z</time>
      </trkpt>
      <trkpt lat="39.978439" lon="-6.046088">
        <ele>503.317</ele>
        <time>2021-10-13T09:09:07Z</time>
      </trkpt>
      <trkpt lat="39.978535" lon="-6.046044">
        <ele>503.308</ele>
        <time>2021-10-13T09:09:09Z</time>
      </trkpt>
      <trkpt lat="39.978591" lon="-6.046044">
        <ele>503.363</ele>
        <time>2021-10-13T09:09:11Z</time>
      </trkpt>
      <trkpt lat="39.978641" lon="-6.046058">
        <ele>503.191</ele>
        <time>2021-10-13T09:09:13Z</time>
      </trkpt>
      <trkpt lat="39.978685" lon="-6.046048">
        <ele>503.138</ele>
        <time>2021-10-13T09:09:21Z</time>
      </trkpt>
      <trkpt lat="39.978706" lon="-6.045994">
        <ele>503.278</ele>
        <time>2021-10-13T09:09:39Z</time>
      </trkpt>
      <trkpt lat="39.978700" lon="-6.045934">
        <ele>503.291</ele>
        <time>2021-10-13T09:09:54Z</time>
      </trkpt>
      <trkpt lat="39.978706" lon="-6.045875">
        <ele>503.217</ele>
        <time>2021-10-13T09:11:08Z</time>
      </trkpt>
      <trkpt lat="39.978693" lon="-6.045814">
        <ele>503.256</ele>
        <time>2021-10-13T09:11:59Z</time>
      </trkpt>
      <trkpt lat="39.978692" lon="-6.045745">
        <ele>503.271</ele>
        <time>2021-10-13T09:12:02Z</time>
      </trkpt>
      <trkpt lat="39.978680" lon="-6.045680">
        <ele>503.235</ele>
        <time>2021-10-13T09:12:04Z</time>
      </trkpt>
      <trkpt lat="39.978632" lon="-6.045657">
        <ele>503.186</ele>
        <time>2021-10-13T09:12:07Z</time>
      </trkpt>
      <trkpt lat="39.978592" lon="-6.045748">
        <ele>503.014</ele>
        <time>2021-10-13T09:12:10Z</time>
      </trkpt>
      <trkpt lat="39.978536" lon="-6.045817">
        <ele>503.008</ele>
        <time>2021-10-13T09:12:12Z</time>
      </trkpt>
      <trkpt lat="39.978424" lon="-6.045863">
        <ele>503.041</ele>
        <time>2021-10-13T09:12:13Z</time>
      </trkpt>
      <trkpt lat="39.978335" lon="-6.045900">
        <ele>502.689</ele>
        <time>2021-10-13T09:12:15Z</time>
      </trkpt>
      <trkpt lat="39.978232" lon="-6.045990">
        <ele>502.246</ele>
        <time>2021-10-13T09:12:17Z</time>
      </trkpt>
      <trkpt lat="39.978152" lon="-6.046102">
        <ele>502.266</ele>
        <time>2021-10-13T09:12:19Z</time>
      </trkpt>
      <trkpt lat="39.978118" lon="-6.046163">
        <ele>502.289</ele>
        <time>2021-10-13T09:12:20Z</time>
      </trkpt>
      <trkpt lat="39.978054" lon="-6.046322">
        <ele>502.295</ele>
        <time>2021-10-13T09:12:22Z</time>
      </trkpt>
      <trkpt lat="39.977997" lon="-6.046521">
        <ele>502.244</ele>
        <time>2021-10-13T09:12:24Z</time>
      </trkpt>
      <trkpt lat="39.977986" lon="-6.046623">
        <ele>502.259</ele>
        <time>2021-10-13T09:12:25Z</time>
      </trkpt>
      <trkpt lat="39.977991" lon="-6.046747">
        <ele>502.228</ele>
        <time>2021-10-13T09:12:26Z</time>
      </trkpt>
      <trkpt lat="39.978028" lon="-6.047013">
        <ele>502.189</ele>
        <time>2021-10-13T09:12:28Z</time>
      </trkpt>
      <trkpt lat="39.978054" lon="-6.047160">
        <ele>502.117</ele>
        <time>2021-10-13T09:12:29Z</time>
      </trkpt>
      <trkpt lat="39.978092" lon="-6.047299">
        <ele>502.108</ele>
        <time>2021-10-13T09:12:30Z</time>
      </trkpt>
      <trkpt lat="39.978170" lon="-6.047533">
        <ele>502.140</ele>
        <time>2021-10-13T09:12:32Z</time>
      </trkpt>
      <trkpt lat="39.978264" lon="-6.047744">
        <ele>502.158</ele>
        <time>2021-10-13T09:12:34Z</time>
      </trkpt>
      <trkpt lat="39.978323" lon="-6.047838">
        <ele>502.195</ele>
        <time>2021-10-13T09:12:35Z</time>
      </trkpt>
      <trkpt lat="39.978438" lon="-6.048020">
        <ele>502.165</ele>
        <time>2021-10-13T09:12:37Z</time>
      </trkpt>
      <trkpt lat="39.978558" lon="-6.048179">
        <ele>502.058</ele>
        <time>2021-10-13T09:12:39Z</time>
      </trkpt>
      <trkpt lat="39.978620" lon="-6.048317">
        <ele>502.084</ele>
        <time>2021-10-13T09:12:41Z</time>
      </trkpt>
      <trkpt lat="39.978678" lon="-6.048475">
        <ele>502.023</ele>
        <time>2021-10-13T09:12:43Z</time>
      </trkpt>
      <trkpt lat="39.978731" lon="-6.048638">
        <ele>502.048</ele>
        <time>2021-10-13T09:12:45Z</time>
      </trkpt>
      <trkpt lat="39.978784" lon="-6.048775">
        <ele>502.066</ele>
        <time>2021-10-13T09:12:47Z</time>
      </trkpt>
      <trkpt lat="39.978837" lon="-6.048925">
        <ele>502.029</ele>
        <time>2021-10-13T09:12:49Z</time>
      </trkpt>
      <trkpt lat="39.978884" lon="-6.048982">
        <ele>502.021</ele>
        <time>2021-10-13T09:12:50Z</time>
      </trkpt>
      <trkpt lat="39.978943" lon="-6.049122">
        <ele>502.008</ele>
        <time>2021-10-13T09:12:52Z</time>
      </trkpt>
      <trkpt lat="39.978972" lon="-6.049216">
        <ele>502.054</ele>
        <time>2021-10-13T09:12:53Z</time>
      </trkpt>
      <trkpt lat="39.979023" lon="-6.049406">
        <ele>502.072</ele>
        <time>2021-10-13T09:12:55Z</time>
      </trkpt>
      <trkpt lat="39.979045" lon="-6.049488">
        <ele>502.019</ele>
        <time>2021-10-13T09:12:56Z</time>
      </trkpt>
      <trkpt lat="39.979199" lon="-6.049531">
        <ele>502.029</ele>
        <time>2021-10-13T09:12:58Z</time>
      </trkpt>
      <trkpt lat="39.979314" lon="-6.049546">
        <ele>502.042</ele>
        <time>2021-10-13T09:12:59Z</time>
      </trkpt>
      <trkpt lat="39.979414" lon="-6.049567">
        <ele>502.038</ele>
        <time>2021-10-13T09:13:00Z</time>
      </trkpt>
      <trkpt lat="39.979570" lon="-6.049651">
        <ele>502.077</ele>
        <time>2021-10-13T09:13:02Z</time>
      </trkpt>
      <trkpt lat="39.979631" lon="-6.049706">
        <ele>502.092</ele>
        <time>2021-10-13T09:13:03Z</time>
      </trkpt>
      <trkpt lat="39.979684" lon="-6.049776">
        <ele>502.053</ele>
        <time>2021-10-13T09:13:04Z</time>
      </trkpt>
      <trkpt lat="39.979847" lon="-6.049937">
        <ele>502.004</ele>
        <time>2021-10-13T09:13:06Z</time>
      </trkpt>
      <trkpt lat="39.979928" lon="-6.050022">
        <ele>502.014</ele>
        <time>2021-10-13T09:13:07Z</time>
      </trkpt>
      <trkpt lat="39.980001" lon="-6.050103">
        <ele>502.008</ele>
        <time>2021-10-13T09:13:08Z</time>
      </trkpt>
      <trkpt lat="39.980126" lon="-6.050244">
        <ele>502.013</ele>
        <time>2021-10-13T09:13:10Z</time>
      </trkpt>
      <trkpt lat="39.980230" lon="-6.050370">
        <ele>502.071</ele>
        <time>2021-10-13T09:13:12Z</time>
      </trkpt>
      <trkpt lat="39.980279" lon="-6.050440">
        <ele>502.088</ele>
        <time>2021-10-13T09:13:13Z</time>
      </trkpt>
      <trkpt lat="39.980345" lon="-6.050520">
        <ele>502.088</ele>
        <time>2021-10-13T09:13:14Z</time>
      </trkpt>
      <trkpt lat="39.980486" lon="-6.050674">
        <ele>459.111</ele>
        <time>2021-10-13T09:13:16Z</time>
      </trkpt>
      <trkpt lat="39.980674" lon="-6.050815">
        <ele>455.537</ele>
        <time>2021-10-13T09:13:18Z</time>
      </trkpt>
      <trkpt lat="39.980857" lon="-6.050954">
        <ele>453.996</ele>
        <time>2021-10-13T09:13:20Z</time>
      </trkpt>
      <trkpt lat="39.981009" lon="-6.051107">
        <ele>450.391</ele>
        <time>2021-10-13T09:13:22Z</time>
      </trkpt>
      <trkpt lat="39.981127" lon="-6.051266">
        <ele>450.593</ele>
        <time>2021-10-13T09:13:24Z</time>
      </trkpt>
      <trkpt lat="39.981176" lon="-6.051334">
        <ele>450.865</ele>
        <time>2021-10-13T09:13:25Z</time>
      </trkpt>
      <trkpt lat="39.981223" lon="-6.051408">
        <ele>451.221</ele>
        <time>2021-10-13T09:13:26Z</time>
      </trkpt>
      <trkpt lat="39.981321" lon="-6.051545">
        <ele>451.608</ele>
        <time>2021-10-13T09:13:28Z</time>
      </trkpt>
      <trkpt lat="39.981539" lon="-6.051685">
        <ele>445.987</ele>
        <time>2021-10-13T09:13:30Z</time>
      </trkpt>
      <trkpt lat="39.981797" lon="-6.051796">
        <ele>441.965</ele>
        <time>2021-10-13T09:13:32Z</time>
      </trkpt>
      <trkpt lat="39.982089" lon="-6.051881">
        <ele>441.062</ele>
        <time>2021-10-13T09:13:34Z</time>
      </trkpt>
      <trkpt lat="39.982210" lon="-6.051929">
        <ele>440.632</ele>
        <time>2021-10-13T09:13:35Z</time>
      </trkpt>
      <trkpt lat="39.982412" lon="-6.052008">
        <ele>439.655</ele>
        <time>2021-10-13T09:13:37Z</time>
      </trkpt>
      <trkpt lat="39.982494" lon="-6.052047">
        <ele>438.811</ele>
        <time>2021-10-13T09:13:38Z</time>
      </trkpt>
      <trkpt lat="39.982672" lon="-6.052108">
        <ele>438.280</ele>
        <time>2021-10-13T09:13:40Z</time>
      </trkpt>
      <trkpt lat="39.982796" lon="-6.052126">
        <ele>437.795</ele>
        <time>2021-10-13T09:13:41Z</time>
      </trkpt>
      <trkpt lat="39.983039" lon="-6.052168">
        <ele>438.139</ele>
        <time>2021-10-13T09:13:43Z</time>
      </trkpt>
      <trkpt lat="39.983159" lon="-6.052192">
        <ele>436.801</ele>
        <time>2021-10-13T09:13:44Z</time>
      </trkpt>
      <trkpt lat="39.983387" lon="-6.052249">
        <ele>437.121</ele>
        <time>2021-10-13T09:13:46Z</time>
      </trkpt>
      <trkpt lat="39.983490" lon="-6.052303">
        <ele>438.608</ele>
        <time>2021-10-13T09:13:47Z</time>
      </trkpt>
      <trkpt lat="39.983584" lon="-6.052369">
        <ele>439.871</ele>
        <time>2021-10-13T09:13:48Z</time>
      </trkpt>
      <trkpt lat="39.983745" lon="-6.052533">
        <ele>441.019</ele>
        <time>2021-10-13T09:13:50Z</time>
      </trkpt>
      <trkpt lat="39.983926" lon="-6.052680">
        <ele>441.126</ele>
        <time>2021-10-13T09:13:52Z</time>
      </trkpt>
      <trkpt lat="39.984040" lon="-6.052740">
        <ele>440.976</ele>
        <time>2021-10-13T09:13:53Z</time>
      </trkpt>
      <trkpt lat="39.984327" lon="-6.052926">
        <ele>437.549</ele>
        <time>2021-10-13T09:13:55Z</time>
      </trkpt>
      <trkpt lat="39.984516" lon="-6.053055">
        <ele>442.045</ele>
        <time>2021-10-13T09:13:56Z</time>
      </trkpt>
      <trkpt lat="39.984706" lon="-6.053211">
        <ele>443.124</ele>
        <time>2021-10-13T09:13:57Z</time>
      </trkpt>
      <trkpt lat="39.985201" lon="-6.053506">
        <ele>443.839</ele>
        <time>2021-10-13T09:13:59Z</time>
      </trkpt>
      <trkpt lat="39.985452" lon="-6.053608">
        <ele>445.842</ele>
        <time>2021-10-13T09:14:00Z</time>
      </trkpt>
      <trkpt lat="39.985688" lon="-6.053716">
        <ele>447.222</ele>
        <time>2021-10-13T09:14:01Z</time>
      </trkpt>
      <trkpt lat="39.986116" lon="-6.053969">
        <ele>449.614</ele>
        <time>2021-10-13T09:14:03Z</time>
      </trkpt>
      <trkpt lat="39.986504" lon="-6.054300">
        <ele>448.508</ele>
        <time>2021-10-13T09:14:05Z</time>
      </trkpt>
      <trkpt lat="39.986857" lon="-6.054721">
        <ele>448.372</ele>
        <time>2021-10-13T09:14:07Z</time>
      </trkpt>
      <trkpt lat="39.987021" lon="-6.054957">
        <ele>447.110</ele>
        <time>2021-10-13T09:14:08Z</time>
      </trkpt>
      <trkpt lat="39.987331" lon="-6.055408">
        <ele>446.467</ele>
        <time>2021-10-13T09:14:10Z</time>
      </trkpt>
      <trkpt lat="39.987623" lon="-6.055844">
        <ele>446.917</ele>
        <time>2021-10-13T09:14:12Z</time>
      </trkpt>
      <trkpt lat="39.987757" lon="-6.056050">
        <ele>446.630</ele>
        <time>2021-10-13T09:14:13Z</time>
      </trkpt>
      <trkpt lat="39.987887" lon="-6.056259">
        <ele>446.676</ele>
        <time>2021-10-13T09:14:14Z</time>
      </trkpt>
      <trkpt lat="39.988114" lon="-6.056711">
        <ele>445.775</ele>
        <time>2021-10-13T09:14:16Z</time>
      </trkpt>
      <trkpt lat="39.988212" lon="-6.056964">
        <ele>446.670</ele>
        <time>2021-10-13T09:14:17Z</time>
      </trkpt>
      <trkpt lat="39.988299" lon="-6.057216">
        <ele>447.591</ele>
        <time>2021-10-13T09:14:18Z</time>
      </trkpt>
      <trkpt lat="39.988387" lon="-6.057469">
        <ele>447.581</ele>
        <time>2021-10-13T09:14:19Z</time>
      </trkpt>
      <trkpt lat="39.988477" lon="-6.057728">
        <ele>447.719</ele>
        <time>2021-10-13T09:14:20Z</time>
      </trkpt>
      <trkpt lat="39.988666" lon="-6.058238">
        <ele>449.708</ele>
        <time>2021-10-13T09:14:22Z</time>
      </trkpt>
      <trkpt lat="39.988915" lon="-6.058750">
        <ele>450.327</ele>
        <time>2021-10-13T09:14:24Z</time>
      </trkpt>
      <trkpt lat="39.989055" lon="-6.058993">
        <ele>451.395</ele>
        <time>2021-10-13T09:14:25Z</time>
      </trkpt>
      <trkpt lat="39.989199" lon="-6.059244">
        <ele>452.462</ele>
        <time>2021-10-13T09:14:26Z</time>
      </trkpt>
      <trkpt lat="39.989501" lon="-6.059733">
        <ele>454.562</ele>
        <time>2021-10-13T09:14:28Z</time>
      </trkpt>
      <trkpt lat="39.989679" lon="-6.059991">
        <ele>455.015</ele>
        <time>2021-10-13T09:14:29Z</time>
      </trkpt>
      <trkpt lat="39.990070" lon="-6.060535">
        <ele>455.861</ele>
        <time>2021-10-13T09:14:31Z</time>
      </trkpt>
      <trkpt lat="39.990462" lon="-6.061062">
        <ele>457.810</ele>
        <time>2021-10-13T09:14:33Z</time>
      </trkpt>
      <trkpt lat="39.990647" lon="-6.061308">
        <ele>458.065</ele>
        <time>2021-10-13T09:14:34Z</time>
      </trkpt>
      <trkpt lat="39.990818" lon="-6.061545">
        <ele>457.641</ele>
        <time>2021-10-13T09:14:35Z</time>
      </trkpt>
      <trkpt lat="39.991135" lon="-6.061976">
        <ele>459.281</ele>
        <time>2021-10-13T09:14:37Z</time>
      </trkpt>
      <trkpt lat="39.991283" lon="-6.062187">
        <ele>460.109</ele>
        <time>2021-10-13T09:14:38Z</time>
      </trkpt>
      <trkpt lat="39.991557" lon="-6.062576">
        <ele>461.608</ele>
        <time>2021-10-13T09:14:40Z</time>
      </trkpt>
      <trkpt lat="39.991836" lon="-6.062958">
        <ele>462.962</ele>
        <time>2021-10-13T09:14:42Z</time>
      </trkpt>
      <trkpt lat="39.991980" lon="-6.063164">
        <ele>463.810</ele>
        <time>2021-10-13T09:14:43Z</time>
      </trkpt>
      <trkpt lat="39.992121" lon="-6.063373">
        <ele>465.137</ele>
        <time>2021-10-13T09:14:44Z</time>
      </trkpt>
      <trkpt lat="39.992400" lon="-6.063783">
        <ele>466.617</ele>
        <time>2021-10-13T09:14:46Z</time>
      </trkpt>
      <trkpt lat="39.992698" lon="-6.064218">
        <ele>470.150</ele>
        <time>2021-10-13T09:14:48Z</time>
      </trkpt>
      <trkpt lat="39.992855" lon="-6.064448">
        <ele>471.116</ele>
        <time>2021-10-13T09:14:49Z</time>
      </trkpt>
      <trkpt lat="39.993022" lon="-6.064687">
        <ele>472.375</ele>
        <time>2021-10-13T09:14:50Z</time>
      </trkpt>
      <trkpt lat="39.993375" lon="-6.065181">
        <ele>476.950</ele>
        <time>2021-10-13T09:14:52Z</time>
      </trkpt>
      <trkpt lat="39.993741" lon="-6.065703">
        <ele>480.038</ele>
        <time>2021-10-13T09:14:54Z</time>
      </trkpt>
      <trkpt lat="39.994041" lon="-6.066166">
        <ele>482.770</ele>
        <time>2021-10-13T09:14:56Z</time>
      </trkpt>
      <trkpt lat="39.994293" lon="-6.066595">
        <ele>484.817</ele>
        <time>2021-10-13T09:14:58Z</time>
      </trkpt>
      <trkpt lat="39.994417" lon="-6.066812">
        <ele>485.608</ele>
        <time>2021-10-13T09:14:59Z</time>
      </trkpt>
      <trkpt lat="39.994583" lon="-6.067242">
        <ele>486.621</ele>
        <time>2021-10-13T09:15:01Z</time>
      </trkpt>
      <trkpt lat="39.994642" lon="-6.067478">
        <ele>487.449</ele>
        <time>2021-10-13T09:15:02Z</time>
      </trkpt>
      <trkpt lat="39.994724" lon="-6.067960">
        <ele>488.286</ele>
        <time>2021-10-13T09:15:04Z</time>
      </trkpt>
      <trkpt lat="39.994756" lon="-6.068219">
        <ele>489.386</ele>
        <time>2021-10-13T09:15:05Z</time>
      </trkpt>
      <trkpt lat="39.994816" lon="-6.068776">
        <ele>491.079</ele>
        <time>2021-10-13T09:15:07Z</time>
      </trkpt>
      <trkpt lat="39.994859" lon="-6.069066">
        <ele>491.865</ele>
        <time>2021-10-13T09:15:08Z</time>
      </trkpt>
      <trkpt lat="39.994948" lon="-6.069618">
        <ele>492.964</ele>
        <time>2021-10-13T09:15:10Z</time>
      </trkpt>
      <trkpt lat="39.995038" lon="-6.070180">
        <ele>493.919</ele>
        <time>2021-10-13T09:15:12Z</time>
      </trkpt>
      <trkpt lat="39.995081" lon="-6.070464">
        <ele>495.683</ele>
        <time>2021-10-13T09:15:13Z</time>
      </trkpt>
      <trkpt lat="39.995124" lon="-6.070751">
        <ele>496.125</ele>
        <time>2021-10-13T09:15:14Z</time>
      </trkpt>
      <trkpt lat="39.995199" lon="-6.071299">
        <ele>497.917</ele>
        <time>2021-10-13T09:15:16Z</time>
      </trkpt>
      <trkpt lat="39.995274" lon="-6.071839">
        <ele>499.608</ele>
        <time>2021-10-13T09:15:18Z</time>
      </trkpt>
      <trkpt lat="39.995352" lon="-6.072374">
        <ele>500.936</ele>
        <time>2021-10-13T09:15:20Z</time>
      </trkpt>
      <trkpt lat="39.995434" lon="-6.072902">
        <ele>504.164</ele>
        <time>2021-10-13T09:15:22Z</time>
      </trkpt>
      <trkpt lat="39.995478" lon="-6.073173">
        <ele>505.791</ele>
        <time>2021-10-13T09:15:23Z</time>
      </trkpt>
      <trkpt lat="39.995576" lon="-6.073742">
        <ele>507.561</ele>
        <time>2021-10-13T09:15:25Z</time>
      </trkpt>
      <trkpt lat="39.995631" lon="-6.074037">
        <ele>508.574</ele>
        <time>2021-10-13T09:15:26Z</time>
      </trkpt>
      <trkpt lat="39.995746" lon="-6.074582">
        <ele>511.220</ele>
        <time>2021-10-13T09:15:28Z</time>
      </trkpt>
      <trkpt lat="39.995817" lon="-6.074862">
        <ele>512.859</ele>
        <time>2021-10-13T09:15:29Z</time>
      </trkpt>
      <trkpt lat="39.995989" lon="-6.075374">
        <ele>515.074</ele>
        <time>2021-10-13T09:15:31Z</time>
      </trkpt>
      <trkpt lat="39.996192" lon="-6.075821">
        <ele>518.187</ele>
        <time>2021-10-13T09:15:33Z</time>
      </trkpt>
      <trkpt lat="39.996298" lon="-6.076033">
        <ele>519.442</ele>
        <time>2021-10-13T09:15:34Z</time>
      </trkpt>
      <trkpt lat="39.996522" lon="-6.076481">
        <ele>522.426</ele>
        <time>2021-10-13T09:15:36Z</time>
      </trkpt>
      <trkpt lat="39.996749" lon="-6.076976">
        <ele>526.208</ele>
        <time>2021-10-13T09:15:38Z</time>
      </trkpt>
      <trkpt lat="39.996961" lon="-6.077453">
        <ele>525.946</ele>
        <time>2021-10-13T09:15:40Z</time>
      </trkpt>
      <trkpt lat="39.997176" lon="-6.077983">
        <ele>527.774</ele>
        <time>2021-10-13T09:15:42Z</time>
      </trkpt>
      <trkpt lat="39.997275" lon="-6.078272">
        <ele>527.181</ele>
        <time>2021-10-13T09:15:43Z</time>
      </trkpt>
      <trkpt lat="39.997359" lon="-6.078588">
        <ele>526.961</ele>
        <time>2021-10-13T09:15:44Z</time>
      </trkpt>
      <trkpt lat="39.997488" lon="-6.079309">
        <ele>525.094</ele>
        <time>2021-10-13T09:15:46Z</time>
      </trkpt>
      <trkpt lat="39.997544" lon="-6.079737">
        <ele>524.050</ele>
        <time>2021-10-13T09:15:47Z</time>
      </trkpt>
      <trkpt lat="39.997616" lon="-6.080673">
        <ele>521.229</ele>
        <time>2021-10-13T09:15:49Z</time>
      </trkpt>
      <trkpt lat="39.997565" lon="-6.082835">
        <ele>516.974</ele>
        <time>2021-10-13T09:15:53Z</time>
      </trkpt>
      <trkpt lat="39.997433" lon="-6.083833">
        <ele>510.354</ele>
        <time>2021-10-13T09:15:55Z</time>
      </trkpt>
      <trkpt lat="39.997259" lon="-6.085367">
        <ele>507.456</ele>
        <time>2021-10-13T09:15:58Z</time>
      </trkpt>
      <trkpt lat="39.997238" lon="-6.087330">
        <ele>505.911</ele>
        <time>2021-10-13T09:16:02Z</time>
      </trkpt>
      <trkpt lat="39.997214" lon="-6.088151">
        <ele>508.108</ele>
        <time>2021-10-13T09:16:04Z</time>
      </trkpt>
      <trkpt lat="39.997190" lon="-6.088829">
        <ele>509.453</ele>
        <time>2021-10-13T09:16:06Z</time>
      </trkpt>
      <trkpt lat="39.997195" lon="-6.089117">
        <ele>509.261</ele>
        <time>2021-10-13T09:16:07Z</time>
      </trkpt>
      <trkpt lat="39.997229" lon="-6.089365">
        <ele>509.458</ele>
        <time>2021-10-13T09:16:08Z</time>
      </trkpt>
      <trkpt lat="39.997416" lon="-6.089662">
        <ele>510.428</ele>
        <time>2021-10-13T09:16:10Z</time>
      </trkpt>
      <trkpt lat="39.997765" lon="-6.089822">
        <ele>510.021</ele>
        <time>2021-10-13T09:16:12Z</time>
      </trkpt>
      <trkpt lat="39.998181" lon="-6.089822">
        <ele>509.227</ele>
        <time>2021-10-13T09:16:14Z</time>
      </trkpt>
      <trkpt lat="39.998586" lon="-6.089621">
        <ele>508.636</ele>
        <time>2021-10-13T09:16:16Z</time>
      </trkpt>
      <trkpt lat="39.998769" lon="-6.089435">
        <ele>507.741</ele>
        <time>2021-10-13T09:16:17Z</time>
      </trkpt>
      <trkpt lat="39.998931" lon="-6.089208">
        <ele>506.744</ele>
        <time>2021-10-13T09:16:18Z</time>
      </trkpt>
      <trkpt lat="39.999064" lon="-6.088944">
        <ele>505.805</ele>
        <time>2021-10-13T09:16:19Z</time>
      </trkpt>
      <trkpt lat="39.999169" lon="-6.088659">
        <ele>504.215</ele>
        <time>2021-10-13T09:16:20Z</time>
      </trkpt>
      <trkpt lat="39.999331" lon="-6.088118">
        <ele>500.808</ele>
        <time>2021-10-13T09:16:22Z</time>
      </trkpt>
      <trkpt lat="39.999416" lon="-6.087856">
        <ele>499.012</ele>
        <time>2021-10-13T09:16:23Z</time>
      </trkpt>
      <trkpt lat="39.999507" lon="-6.087611">
        <ele>496.260</ele>
        <time>2021-10-13T09:16:24Z</time>
      </trkpt>
      <trkpt lat="39.999739" lon="-6.087153">
        <ele>492.557</ele>
        <time>2021-10-13T09:16:26Z</time>
      </trkpt>
      <trkpt lat="40.000058" lon="-6.086782">
        <ele>489.127</ele>
        <time>2021-10-13T09:16:28Z</time>
      </trkpt>
      <trkpt lat="40.000245" lon="-6.086631">
        <ele>487.140</ele>
        <time>2021-10-13T09:16:29Z</time>
      </trkpt>
      <trkpt lat="40.000656" lon="-6.086433">
        <ele>481.976</ele>
        <time>2021-10-13T09:16:31Z</time>
      </trkpt>
      <trkpt lat="40.000854" lon="-6.086393">
        <ele>479.765</ele>
        <time>2021-10-13T09:16:32Z</time>
      </trkpt>
      <trkpt lat="40.001050" lon="-6.086359">
        <ele>478.340</ele>
        <time>2021-10-13T09:16:33Z</time>
      </trkpt>
      <trkpt lat="40.001248" lon="-6.086318">
        <ele>477.685</ele>
        <time>2021-10-13T09:16:34Z</time>
      </trkpt>
      <trkpt lat="40.001641" lon="-6.086225">
        <ele>474.089</ele>
        <time>2021-10-13T09:16:36Z</time>
      </trkpt>
      <trkpt lat="40.002040" lon="-6.086156">
        <ele>470.717</ele>
        <time>2021-10-13T09:16:38Z</time>
      </trkpt>
      <trkpt lat="40.002440" lon="-6.086140">
        <ele>468.008</ele>
        <time>2021-10-13T09:16:40Z</time>
      </trkpt>
      <trkpt lat="40.002632" lon="-6.086152">
        <ele>467.016</ele>
        <time>2021-10-13T09:16:41Z</time>
      </trkpt>
      <trkpt lat="40.003020" lon="-6.086224">
        <ele>465.434</ele>
        <time>2021-10-13T09:16:43Z</time>
      </trkpt>
      <trkpt lat="40.003219" lon="-6.086283">
        <ele>463.351</ele>
        <time>2021-10-13T09:16:44Z</time>
      </trkpt>
      <trkpt lat="40.003624" lon="-6.086452">
        <ele>459.451</ele>
        <time>2021-10-13T09:16:46Z</time>
      </trkpt>
      <trkpt lat="40.003845" lon="-6.086568">
        <ele>457.844</ele>
        <time>2021-10-13T09:16:47Z</time>
      </trkpt>
      <trkpt lat="40.004075" lon="-6.086700">
        <ele>456.430</ele>
        <time>2021-10-13T09:16:48Z</time>
      </trkpt>
      <trkpt lat="40.004329" lon="-6.086839">
        <ele>454.989</ele>
        <time>2021-10-13T09:16:49Z</time>
      </trkpt>
      <trkpt lat="40.004582" lon="-6.086970">
        <ele>452.724</ele>
        <time>2021-10-13T09:16:50Z</time>
      </trkpt>
      <trkpt lat="40.005044" lon="-6.087215">
        <ele>447.711</ele>
        <time>2021-10-13T09:16:52Z</time>
      </trkpt>
      <trkpt lat="40.005278" lon="-6.087339">
        <ele>446.021</ele>
        <time>2021-10-13T09:16:53Z</time>
      </trkpt>
      <trkpt lat="40.005741" lon="-6.087581">
        <ele>442.103</ele>
        <time>2021-10-13T09:16:55Z</time>
      </trkpt>
      <trkpt lat="40.005984" lon="-6.087703">
        <ele>440.108</ele>
        <time>2021-10-13T09:16:56Z</time>
      </trkpt>
      <trkpt lat="40.006443" lon="-6.087929">
        <ele>435.419</ele>
        <time>2021-10-13T09:16:58Z</time>
      </trkpt>
      <trkpt lat="40.006681" lon="-6.088041">
        <ele>433.327</ele>
        <time>2021-10-13T09:16:59Z</time>
      </trkpt>
      <trkpt lat="40.007157" lon="-6.088239">
        <ele>429.714</ele>
        <time>2021-10-13T09:17:01Z</time>
      </trkpt>
      <trkpt lat="40.007399" lon="-6.088314">
        <ele>427.984</ele>
        <time>2021-10-13T09:17:02Z</time>
      </trkpt>
      <trkpt lat="40.007866" lon="-6.088423">
        <ele>423.317</ele>
        <time>2021-10-13T09:17:04Z</time>
      </trkpt>
      <trkpt lat="40.008112" lon="-6.088470">
        <ele>421.233</ele>
        <time>2021-10-13T09:17:05Z</time>
      </trkpt>
      <trkpt lat="40.008629" lon="-6.088532">
        <ele>416.522</ele>
        <time>2021-10-13T09:17:07Z</time>
      </trkpt>
      <trkpt lat="40.008883" lon="-6.088547">
        <ele>414.297</ele>
        <time>2021-10-13T09:17:08Z</time>
      </trkpt>
      <trkpt lat="40.009355" lon="-6.088606">
        <ele>410.223</ele>
        <time>2021-10-13T09:17:10Z</time>
      </trkpt>
      <trkpt lat="40.009808" lon="-6.088732">
        <ele>406.083</ele>
        <time>2021-10-13T09:17:12Z</time>
      </trkpt>
      <trkpt lat="40.010269" lon="-6.088952">
        <ele>402.811</ele>
        <time>2021-10-13T09:17:14Z</time>
      </trkpt>
      <trkpt lat="40.010688" lon="-6.089311">
        <ele>398.008</ele>
        <time>2021-10-13T09:17:16Z</time>
      </trkpt>
      <trkpt lat="40.010890" lon="-6.089530">
        <ele>396.480</ele>
        <time>2021-10-13T09:17:17Z</time>
      </trkpt>
      <trkpt lat="40.011282" lon="-6.089995">
        <ele>393.448</ele>
        <time>2021-10-13T09:17:19Z</time>
      </trkpt>
      <trkpt lat="40.011468" lon="-6.090237">
        <ele>392.575</ele>
        <time>2021-10-13T09:17:20Z</time>
      </trkpt>
      <trkpt lat="40.011806" lon="-6.090700">
        <ele>391.655</ele>
        <time>2021-10-13T09:17:22Z</time>
      </trkpt>
      <trkpt lat="40.011961" lon="-6.090919">
        <ele>390.238</ele>
        <time>2021-10-13T09:17:23Z</time>
      </trkpt>
      <trkpt lat="40.012107" lon="-6.091125">
        <ele>389.634</ele>
        <time>2021-10-13T09:17:24Z</time>
      </trkpt>
      <trkpt lat="40.012407" lon="-6.091500">
        <ele>387.383</ele>
        <time>2021-10-13T09:17:26Z</time>
      </trkpt>
      <trkpt lat="40.012702" lon="-6.091827">
        <ele>385.098</ele>
        <time>2021-10-13T09:17:28Z</time>
      </trkpt>
      <trkpt lat="40.013019" lon="-6.092148">
        <ele>382.492</ele>
        <time>2021-10-13T09:17:30Z</time>
      </trkpt>
      <trkpt lat="40.013187" lon="-6.092306">
        <ele>380.473</ele>
        <time>2021-10-13T09:17:31Z</time>
      </trkpt>
      <trkpt lat="40.013345" lon="-6.092461">
        <ele>379.620</ele>
        <time>2021-10-13T09:17:32Z</time>
      </trkpt>
      <trkpt lat="40.013493" lon="-6.092610">
        <ele>378.308</ele>
        <time>2021-10-13T09:17:33Z</time>
      </trkpt>
      <trkpt lat="40.013740" lon="-6.092869">
        <ele>375.327</ele>
        <time>2021-10-13T09:17:35Z</time>
      </trkpt>
      <trkpt lat="40.013951" lon="-6.093094">
        <ele>372.585</ele>
        <time>2021-10-13T09:17:37Z</time>
      </trkpt>
      <trkpt lat="40.014053" lon="-6.093210">
        <ele>371.982</ele>
        <time>2021-10-13T09:17:38Z</time>
      </trkpt>
      <trkpt lat="40.014233" lon="-6.093421">
        <ele>370.262</ele>
        <time>2021-10-13T09:17:40Z</time>
      </trkpt>
      <trkpt lat="40.014311" lon="-6.093515">
        <ele>369.875</ele>
        <time>2021-10-13T09:17:41Z</time>
      </trkpt>
      <trkpt lat="40.014388" lon="-6.093604">
        <ele>368.371</ele>
        <time>2021-10-13T09:17:42Z</time>
      </trkpt>
      <trkpt lat="40.014519" lon="-6.093769">
        <ele>366.210</ele>
        <time>2021-10-13T09:17:44Z</time>
      </trkpt>
      <trkpt lat="40.014663" lon="-6.093908">
        <ele>364.235</ele>
        <time>2021-10-13T09:17:46Z</time>
      </trkpt>
      <trkpt lat="40.014757" lon="-6.093941">
        <ele>363.676</ele>
        <time>2021-10-13T09:17:47Z</time>
      </trkpt>
      <trkpt lat="40.014857" lon="-6.093946">
        <ele>362.890</ele>
        <time>2021-10-13T09:17:48Z</time>
      </trkpt>
      <trkpt lat="40.014972" lon="-6.093942">
        <ele>362.219</ele>
        <time>2021-10-13T09:17:49Z</time>
      </trkpt>
      <trkpt lat="40.015086" lon="-6.093958">
        <ele>362.708</ele>
        <time>2021-10-13T09:17:50Z</time>
      </trkpt>
      <trkpt lat="40.015278" lon="-6.094072">
        <ele>361.445</ele>
        <time>2021-10-13T09:17:52Z</time>
      </trkpt>
      <trkpt lat="40.015404" lon="-6.094304">
        <ele>360.363</ele>
        <time>2021-10-13T09:17:54Z</time>
      </trkpt>
      <trkpt lat="40.015413" lon="-6.094630">
        <ele>360.340</ele>
        <time>2021-10-13T09:17:56Z</time>
      </trkpt>
      <trkpt lat="40.015297" lon="-6.094944">
        <ele>360.130</ele>
        <time>2021-10-13T09:17:58Z</time>
      </trkpt>
      <trkpt lat="40.015205" lon="-6.095088">
        <ele>360.163</ele>
        <time>2021-10-13T09:17:59Z</time>
      </trkpt>
      <trkpt lat="40.015034" lon="-6.095344">
        <ele>359.099</ele>
        <time>2021-10-13T09:18:01Z</time>
      </trkpt>
      <trkpt lat="40.014983" lon="-6.095462">
        <ele>358.898</ele>
        <time>2021-10-13T09:18:02Z</time>
      </trkpt>
      <trkpt lat="40.014959" lon="-6.095667">
        <ele>357.453</ele>
        <time>2021-10-13T09:18:04Z</time>
      </trkpt>
      <trkpt lat="40.015012" lon="-6.095900">
        <ele>356.734</ele>
        <time>2021-10-13T09:18:06Z</time>
      </trkpt>
      <trkpt lat="40.015041" lon="-6.096038">
        <ele>355.955</ele>
        <time>2021-10-13T09:18:07Z</time>
      </trkpt>
      <trkpt lat="40.015067" lon="-6.096187">
        <ele>355.110</ele>
        <time>2021-10-13T09:18:08Z</time>
      </trkpt>
      <trkpt lat="40.015115" lon="-6.096523">
        <ele>353.608</ele>
        <time>2021-10-13T09:18:10Z</time>
      </trkpt>
      <trkpt lat="40.015159" lon="-6.096905">
        <ele>352.491</ele>
        <time>2021-10-13T09:18:12Z</time>
      </trkpt>
      <trkpt lat="40.015194" lon="-6.097279">
        <ele>349.969</ele>
        <time>2021-10-13T09:18:14Z</time>
      </trkpt>
      <trkpt lat="40.015224" lon="-6.097660">
        <ele>348.726</ele>
        <time>2021-10-13T09:18:16Z</time>
      </trkpt>
      <trkpt lat="40.015246" lon="-6.098060">
        <ele>346.916</ele>
        <time>2021-10-13T09:18:18Z</time>
      </trkpt>
      <trkpt lat="40.015252" lon="-6.098268">
        <ele>345.389</ele>
        <time>2021-10-13T09:18:19Z</time>
      </trkpt>
      <trkpt lat="40.015256" lon="-6.098492">
        <ele>344.965</ele>
        <time>2021-10-13T09:18:20Z</time>
      </trkpt>
      <trkpt lat="40.015256" lon="-6.098944">
        <ele>344.564</ele>
        <time>2021-10-13T09:18:22Z</time>
      </trkpt>
      <trkpt lat="40.015252" lon="-6.099151">
        <ele>344.869</ele>
        <time>2021-10-13T09:18:23Z</time>
      </trkpt>
      <trkpt lat="40.015243" lon="-6.099323">
        <ele>344.415</ele>
        <time>2021-10-13T09:18:24Z</time>
      </trkpt>
      <trkpt lat="40.015219" lon="-6.099623">
        <ele>344.465</ele>
        <time>2021-10-13T09:18:26Z</time>
      </trkpt>
      <trkpt lat="40.015187" lon="-6.099882">
        <ele>343.511</ele>
        <time>2021-10-13T09:18:28Z</time>
      </trkpt>
      <trkpt lat="40.015150" lon="-6.100156">
        <ele>342.508</ele>
        <time>2021-10-13T09:18:30Z</time>
      </trkpt>
      <trkpt lat="40.015104" lon="-6.100447">
        <ele>341.889</ele>
        <time>2021-10-13T09:18:32Z</time>
      </trkpt>
      <trkpt lat="40.015068" lon="-6.100653">
        <ele>340.937</ele>
        <time>2021-10-13T09:18:34Z</time>
      </trkpt>
      <trkpt lat="40.015058" lon="-6.100724">
        <ele>340.984</ele>
        <time>2021-10-13T09:18:35Z</time>
      </trkpt>
      <trkpt lat="40.015047" lon="-6.100786">
        <ele>340.834</ele>
        <time>2021-10-13T09:18:37Z</time>
      </trkpt>
      <trkpt lat="40.015050" lon="-6.100851">
        <ele>342.767</ele>
        <time>2021-10-13T09:18:45Z</time>
      </trkpt>
      <trkpt lat="40.015084" lon="-6.100967">
        <ele>374.463</ele>
        <time>2021-10-13T09:18:48Z</time>
      </trkpt>
      <trkpt lat="40.015133" lon="-6.101042">
        <ele>391.842</ele>
        <time>2021-10-13T09:18:49Z</time>
      </trkpt>
      <trkpt lat="40.015212" lon="-6.101112">
        <ele>391.957</ele>
        <time>2021-10-13T09:18:50Z</time>
      </trkpt>
      <trkpt lat="40.015373" lon="-6.101208">
        <ele>391.996</ele>
        <time>2021-10-13T09:18:52Z</time>
      </trkpt>
      <trkpt lat="40.015459" lon="-6.101245">
        <ele>391.931</ele>
        <time>2021-10-13T09:18:53Z</time>
      </trkpt>
      <trkpt lat="40.015612" lon="-6.101333">
        <ele>391.924</ele>
        <time>2021-10-13T09:18:55Z</time>
      </trkpt>
      <trkpt lat="40.015672" lon="-6.101376">
        <ele>391.908</ele>
        <time>2021-10-13T09:18:56Z</time>
      </trkpt>
      <trkpt lat="40.015791" lon="-6.101449">
        <ele>391.947</ele>
        <time>2021-10-13T09:18:58Z</time>
      </trkpt>
      <trkpt lat="40.015939" lon="-6.101532">
        <ele>391.915</ele>
        <time>2021-10-13T09:19:00Z</time>
      </trkpt>
      <trkpt lat="40.016018" lon="-6.101569">
        <ele>391.912</ele>
        <time>2021-10-13T09:19:01Z</time>
      </trkpt>
      <trkpt lat="40.016097" lon="-6.101604">
        <ele>391.912</ele>
        <time>2021-10-13T09:19:02Z</time>
      </trkpt>
      <trkpt lat="40.016215" lon="-6.101649">
        <ele>391.995</ele>
        <time>2021-10-13T09:19:04Z</time>
      </trkpt>
      <trkpt lat="40.016316" lon="-6.101690">
        <ele>391.951</ele>
        <time>2021-10-13T09:19:06Z</time>
      </trkpt>
      <trkpt lat="40.016417" lon="-6.101738">
        <ele>391.950</ele>
        <time>2021-10-13T09:19:08Z</time>
      </trkpt>
      <trkpt lat="40.016529" lon="-6.101798">
        <ele>391.985</ele>
        <time>2021-10-13T09:19:10Z</time>
      </trkpt>
      <trkpt lat="40.016642" lon="-6.101856">
        <ele>391.972</ele>
        <time>2021-10-13T09:19:12Z</time>
      </trkpt>
      <trkpt lat="40.016737" lon="-6.101907">
        <ele>391.913</ele>
        <time>2021-10-13T09:19:14Z</time>
      </trkpt>
      <trkpt lat="40.016828" lon="-6.101952">
        <ele>391.914</ele>
        <time>2021-10-13T09:19:16Z</time>
      </trkpt>
      <trkpt lat="40.016886" lon="-6.101978">
        <ele>391.908</ele>
        <time>2021-10-13T09:19:17Z</time>
      </trkpt>
      <trkpt lat="40.016996" lon="-6.102033">
        <ele>391.965</ele>
        <time>2021-10-13T09:19:19Z</time>
      </trkpt>
      <trkpt lat="40.017051" lon="-6.102057">
        <ele>391.943</ele>
        <time>2021-10-13T09:19:20Z</time>
      </trkpt>
      <trkpt lat="40.017161" lon="-6.102057">
        <ele>391.960</ele>
        <time>2021-10-13T09:19:22Z</time>
      </trkpt>
      <trkpt lat="40.017289" lon="-6.102014">
        <ele>391.920</ele>
        <time>2021-10-13T09:19:24Z</time>
      </trkpt>
      <trkpt lat="40.017374" lon="-6.101998">
        <ele>391.993</ele>
        <time>2021-10-13T09:19:25Z</time>
      </trkpt>
      <trkpt lat="40.017543" lon="-6.101930">
        <ele>391.979</ele>
        <time>2021-10-13T09:19:27Z</time>
      </trkpt>
      <trkpt lat="40.017618" lon="-6.101862">
        <ele>391.968</ele>
        <time>2021-10-13T09:19:28Z</time>
      </trkpt>
      <trkpt lat="40.017749" lon="-6.101719">
        <ele>391.943</ele>
        <time>2021-10-13T09:19:30Z</time>
      </trkpt>
      <trkpt lat="40.017879" lon="-6.101580">
        <ele>391.916</ele>
        <time>2021-10-13T09:19:32Z</time>
      </trkpt>
      <trkpt lat="40.017949" lon="-6.101503">
        <ele>391.976</ele>
        <time>2021-10-13T09:19:33Z</time>
      </trkpt>
      <trkpt lat="40.018107" lon="-6.101336">
        <ele>391.913</ele>
        <time>2021-10-13T09:19:35Z</time>
      </trkpt>
      <trkpt lat="40.018196" lon="-6.101247">
        <ele>391.908</ele>
        <time>2021-10-13T09:19:36Z</time>
      </trkpt>
      <trkpt lat="40.018285" lon="-6.101161">
        <ele>391.979</ele>
        <time>2021-10-13T09:19:37Z</time>
      </trkpt>
      <trkpt lat="40.018385" lon="-6.101081">
        <ele>391.927</ele>
        <time>2021-10-13T09:19:38Z</time>
      </trkpt>
      <trkpt lat="40.018563" lon="-6.100916">
        <ele>391.934</ele>
        <time>2021-10-13T09:19:40Z</time>
      </trkpt>
      <trkpt lat="40.018650" lon="-6.100831">
        <ele>391.954</ele>
        <time>2021-10-13T09:19:41Z</time>
      </trkpt>
      <trkpt lat="40.018826" lon="-6.100660">
        <ele>391.947</ele>
        <time>2021-10-13T09:19:43Z</time>
      </trkpt>
      <trkpt lat="40.018915" lon="-6.100575">
        <ele>355.233</ele>
        <time>2021-10-13T09:19:44Z</time>
      </trkpt>
      <trkpt lat="40.019089" lon="-6.100407">
        <ele>343.812</ele>
        <time>2021-10-13T09:19:46Z</time>
      </trkpt>
      <trkpt lat="40.019267" lon="-6.100235">
        <ele>343.377</ele>
        <time>2021-10-13T09:19:48Z</time>
      </trkpt>
      <trkpt lat="40.019355" lon="-6.100147">
        <ele>343.364</ele>
        <time>2021-10-13T09:19:49Z</time>
      </trkpt>
      <trkpt lat="40.019444" lon="-6.100052">
        <ele>343.706</ele>
        <time>2021-10-13T09:19:50Z</time>
      </trkpt>
      <trkpt lat="40.019620" lon="-6.099869">
        <ele>344.616</ele>
        <time>2021-10-13T09:19:52Z</time>
      </trkpt>
      <trkpt lat="40.019795" lon="-6.099695">
        <ele>344.408</ele>
        <time>2021-10-13T09:19:54Z</time>
      </trkpt>
      <trkpt lat="40.019877" lon="-6.099614">
        <ele>343.934</ele>
        <time>2021-10-13T09:19:55Z</time>
      </trkpt>
      <trkpt lat="40.019949" lon="-6.099544">
        <ele>343.852</ele>
        <time>2021-10-13T09:19:56Z</time>
      </trkpt>
      <trkpt lat="40.020092" lon="-6.099404">
        <ele>342.619</ele>
        <time>2021-10-13T09:19:58Z</time>
      </trkpt>
      <trkpt lat="40.020256" lon="-6.099241">
        <ele>342.579</ele>
        <time>2021-10-13T09:20:00Z</time>
      </trkpt>
      <trkpt lat="40.020343" lon="-6.099153">
        <ele>342.582</ele>
        <time>2021-10-13T09:20:01Z</time>
      </trkpt>
      <trkpt lat="40.020431" lon="-6.099068">
        <ele>342.118</ele>
        <time>2021-10-13T09:20:02Z</time>
      </trkpt>
      <trkpt lat="40.020608" lon="-6.098899">
        <ele>342.187</ele>
        <time>2021-10-13T09:20:04Z</time>
      </trkpt>
      <trkpt lat="40.020774" lon="-6.098742">
        <ele>342.052</ele>
        <time>2021-10-13T09:20:06Z</time>
      </trkpt>
      <trkpt lat="40.020847" lon="-6.098670">
        <ele>341.926</ele>
        <time>2021-10-13T09:20:07Z</time>
      </trkpt>
      <trkpt lat="40.020921" lon="-6.098596">
        <ele>341.947</ele>
        <time>2021-10-13T09:20:08Z</time>
      </trkpt>
      <trkpt lat="40.021067" lon="-6.098450">
        <ele>340.011</ele>
        <time>2021-10-13T09:20:10Z</time>
      </trkpt>
      <trkpt lat="40.021144" lon="-6.098372">
        <ele>340.708</ele>
        <time>2021-10-13T09:20:11Z</time>
      </trkpt>
      <trkpt lat="40.021296" lon="-6.098221">
        <ele>342.190</ele>
        <time>2021-10-13T09:20:13Z</time>
      </trkpt>
      <trkpt lat="40.021375" lon="-6.098144">
        <ele>341.318</ele>
        <time>2021-10-13T09:20:14Z</time>
      </trkpt>
      <trkpt lat="40.021522" lon="-6.097991">
        <ele>341.075</ele>
        <time>2021-10-13T09:20:16Z</time>
      </trkpt>
      <trkpt lat="40.021649" lon="-6.097866">
        <ele>341.895</ele>
        <time>2021-10-13T09:20:18Z</time>
      </trkpt>
      <trkpt lat="40.021767" lon="-6.097741">
        <ele>342.358</ele>
        <time>2021-10-13T09:20:20Z</time>
      </trkpt>
      <trkpt lat="40.021887" lon="-6.097621">
        <ele>342.834</ele>
        <time>2021-10-13T09:20:22Z</time>
      </trkpt>
      <trkpt lat="40.021941" lon="-6.097563">
        <ele>342.943</ele>
        <time>2021-10-13T09:20:23Z</time>
      </trkpt>
      <trkpt lat="40.021989" lon="-6.097510">
        <ele>342.948</ele>
        <time>2021-10-13T09:20:24Z</time>
      </trkpt>
      <trkpt lat="40.022075" lon="-6.097412">
        <ele>342.948</ele>
        <time>2021-10-13T09:20:26Z</time>
      </trkpt>
      <trkpt lat="40.022180" lon="-6.097291">
        <ele>342.961</ele>
        <time>2021-10-13T09:20:28Z</time>
      </trkpt>
      <trkpt lat="40.022254" lon="-6.097224">
        <ele>342.917</ele>
        <time>2021-10-13T09:20:29Z</time>
      </trkpt>
      <trkpt lat="40.022334" lon="-6.097152">
        <ele>343.208</ele>
        <time>2021-10-13T09:20:30Z</time>
      </trkpt>
      <trkpt lat="40.022508" lon="-6.097010">
        <ele>344.192</ele>
        <time>2021-10-13T09:20:32Z</time>
      </trkpt>
      <trkpt lat="40.022685" lon="-6.096884">
        <ele>343.370</ele>
        <time>2021-10-13T09:20:34Z</time>
      </trkpt>
      <trkpt lat="40.022861" lon="-6.096774">
        <ele>343.347</ele>
        <time>2021-10-13T09:20:36Z</time>
      </trkpt>
      <trkpt lat="40.023007" lon="-6.096682">
        <ele>343.797</ele>
        <time>2021-10-13T09:20:38Z</time>
      </trkpt>
      <trkpt lat="40.023147" lon="-6.096582">
        <ele>344.770</ele>
        <time>2021-10-13T09:20:40Z</time>
      </trkpt>
      <trkpt lat="40.023219" lon="-6.096526">
        <ele>345.076</ele>
        <time>2021-10-13T09:20:41Z</time>
      </trkpt>
      <trkpt lat="40.023371" lon="-6.096401">
        <ele>346.685</ele>
        <time>2021-10-13T09:20:43Z</time>
      </trkpt>
      <trkpt lat="40.023455" lon="-6.096329">
        <ele>347.820</ele>
        <time>2021-10-13T09:20:44Z</time>
      </trkpt>
      <trkpt lat="40.023631" lon="-6.096189">
        <ele>348.717</ele>
        <time>2021-10-13T09:20:46Z</time>
      </trkpt>
      <trkpt lat="40.023819" lon="-6.096048">
        <ele>348.887</ele>
        <time>2021-10-13T09:20:48Z</time>
      </trkpt>
      <trkpt lat="40.024002" lon="-6.095917">
        <ele>348.015</ele>
        <time>2021-10-13T09:20:50Z</time>
      </trkpt>
      <trkpt lat="40.024157" lon="-6.095812">
        <ele>348.708</ele>
        <time>2021-10-13T09:20:52Z</time>
      </trkpt>
      <trkpt lat="40.024309" lon="-6.095711">
        <ele>348.839</ele>
        <time>2021-10-13T09:20:54Z</time>
      </trkpt>
      <trkpt lat="40.024446" lon="-6.095624">
        <ele>347.967</ele>
        <time>2021-10-13T09:20:56Z</time>
      </trkpt>
      <trkpt lat="40.024554" lon="-6.095554">
        <ele>347.934</ele>
        <time>2021-10-13T09:20:58Z</time>
      </trkpt>
      <trkpt lat="40.024629" lon="-6.095475">
        <ele>348.294</ele>
        <time>2021-10-13T09:21:00Z</time>
      </trkpt>
      <trkpt lat="40.024668" lon="-6.095339">
        <ele>347.427</ele>
        <time>2021-10-13T09:21:02Z</time>
      </trkpt>
      <trkpt lat="40.024698" lon="-6.095199">
        <ele>347.373</ele>
        <time>2021-10-13T09:21:04Z</time>
      </trkpt>
      <trkpt lat="40.024724" lon="-6.095134">
        <ele>347.252</ele>
        <time>2021-10-13T09:21:05Z</time>
      </trkpt>
      <trkpt lat="40.024763" lon="-6.095089">
        <ele>346.697</ele>
        <time>2021-10-13T09:21:07Z</time>
      </trkpt>
      <trkpt lat="40.024803" lon="-6.095117">
        <ele>346.472</ele>
        <time>2021-10-13T09:21:09Z</time>
      </trkpt>
      <trkpt lat="40.025009" lon="-6.095197">
        <ele>344.813</ele>
        <time>2021-10-13T09:21:11Z</time>
      </trkpt>
      <trkpt lat="40.025118" lon="-6.095196">
        <ele>344.214</ele>
        <time>2021-10-13T09:21:12Z</time>
      </trkpt>
      <trkpt lat="40.025221" lon="-6.095158">
        <ele>344.108</ele>
        <time>2021-10-13T09:21:13Z</time>
      </trkpt>
      <trkpt lat="40.025317" lon="-6.095102">
        <ele>343.965</ele>
        <time>2021-10-13T09:21:14Z</time>
      </trkpt>
      <trkpt lat="40.025497" lon="-6.094981">
        <ele>342.853</ele>
        <time>2021-10-13T09:21:16Z</time>
      </trkpt>
      <trkpt lat="40.025674" lon="-6.094857">
        <ele>344.030</ele>
        <time>2021-10-13T09:21:18Z</time>
      </trkpt>
      <trkpt lat="40.025761" lon="-6.094799">
        <ele>344.090</ele>
        <time>2021-10-13T09:21:19Z</time>
      </trkpt>
      <trkpt lat="40.025846" lon="-6.094744">
        <ele>344.043</ele>
        <time>2021-10-13T09:21:20Z</time>
      </trkpt>
      <trkpt lat="40.026005" lon="-6.094647">
        <ele>344.349</ele>
        <time>2021-10-13T09:21:22Z</time>
      </trkpt>
      <trkpt lat="40.026152" lon="-6.094548">
        <ele>344.688</ele>
        <time>2021-10-13T09:21:24Z</time>
      </trkpt>
      <trkpt lat="40.026223" lon="-6.094495">
        <ele>345.513</ele>
        <time>2021-10-13T09:21:25Z</time>
      </trkpt>
      <trkpt lat="40.026295" lon="-6.094434">
        <ele>344.595</ele>
        <time>2021-10-13T09:21:26Z</time>
      </trkpt>
      <trkpt lat="40.026415" lon="-6.094270">
        <ele>346.049</ele>
        <time>2021-10-13T09:21:28Z</time>
      </trkpt>
      <trkpt lat="40.026457" lon="-6.094164">
        <ele>345.723</ele>
        <time>2021-10-13T09:21:29Z</time>
      </trkpt>
      <trkpt lat="40.026489" lon="-6.094055">
        <ele>346.108</ele>
        <time>2021-10-13T09:21:30Z</time>
      </trkpt>
      <trkpt lat="40.026538" lon="-6.093868">
        <ele>345.457</ele>
        <time>2021-10-13T09:21:32Z</time>
      </trkpt>
      <trkpt lat="40.026579" lon="-6.093704">
        <ele>344.895</ele>
        <time>2021-10-13T09:21:34Z</time>
      </trkpt>
      <trkpt lat="40.026602" lon="-6.093610">
        <ele>345.042</ele>
        <time>2021-10-13T09:21:35Z</time>
      </trkpt>
      <trkpt lat="40.026630" lon="-6.093511">
        <ele>344.922</ele>
        <time>2021-10-13T09:21:36Z</time>
      </trkpt>
      <trkpt lat="40.026664" lon="-6.093410">
        <ele>344.915</ele>
        <time>2021-10-13T09:21:37Z</time>
      </trkpt>
      <trkpt lat="40.026699" lon="-6.093305">
        <ele>344.971</ele>
        <time>2021-10-13T09:21:38Z</time>
      </trkpt>
      <trkpt lat="40.026759" lon="-6.093115">
        <ele>343.440</ele>
        <time>2021-10-13T09:21:40Z</time>
      </trkpt>
      <trkpt lat="40.026809" lon="-6.092960">
        <ele>343.075</ele>
        <time>2021-10-13T09:21:42Z</time>
      </trkpt>
      <trkpt lat="40.026851" lon="-6.092828">
        <ele>342.515</ele>
        <time>2021-10-13T09:21:44Z</time>
      </trkpt>
      <trkpt lat="40.026893" lon="-6.092722">
        <ele>341.965</ele>
        <time>2021-10-13T09:21:46Z</time>
      </trkpt>
      <trkpt lat="40.026933" lon="-6.092652">
        <ele>341.711</ele>
        <time>2021-10-13T09:21:48Z</time>
      </trkpt>
      <trkpt lat="40.026973" lon="-6.092593">
        <ele>342.408</ele>
        <time>2021-10-13T09:21:50Z</time>
      </trkpt>
      <trkpt lat="40.027031" lon="-6.092484">
        <ele>342.989</ele>
        <time>2021-10-13T09:21:52Z</time>
      </trkpt>
      <trkpt lat="40.027090" lon="-6.092364">
        <ele>342.917</ele>
        <time>2021-10-13T09:21:54Z</time>
      </trkpt>
      <trkpt lat="40.027160" lon="-6.092299">
        <ele>342.914</ele>
        <time>2021-10-13T09:21:56Z</time>
      </trkpt>
      <trkpt lat="40.027131" lon="-6.092115">
        <ele>342.924</ele>
        <time>2021-10-13T09:21:58Z</time>
      </trkpt>
      <trkpt lat="40.027106" lon="-6.091998">
        <ele>342.977</ele>
        <time>2021-10-13T09:21:59Z</time>
      </trkpt>
      <trkpt lat="40.027059" lon="-6.091774">
        <ele>342.853</ele>
        <time>2021-10-13T09:22:01Z</time>
      </trkpt>
      <trkpt lat="40.027038" lon="-6.091662">
        <ele>342.892</ele>
        <time>2021-10-13T09:22:02Z</time>
      </trkpt>
      <trkpt lat="40.027014" lon="-6.091442">
        <ele>342.817</ele>
        <time>2021-10-13T09:22:04Z</time>
      </trkpt>
      <trkpt lat="40.027016" lon="-6.091326">
        <ele>342.891</ele>
        <time>2021-10-13T09:22:05Z</time>
      </trkpt>
      <trkpt lat="40.027060" lon="-6.091093">
        <ele>342.981</ele>
        <time>2021-10-13T09:22:07Z</time>
      </trkpt>
      <trkpt lat="40.027103" lon="-6.090990">
        <ele>342.919</ele>
        <time>2021-10-13T09:22:08Z</time>
      </trkpt>
      <trkpt lat="40.027208" lon="-6.090812">
        <ele>342.908</ele>
        <time>2021-10-13T09:22:10Z</time>
      </trkpt>
      <trkpt lat="40.027274" lon="-6.090734">
        <ele>342.947</ele>
        <time>2021-10-13T09:22:11Z</time>
      </trkpt>
      <trkpt lat="40.027403" lon="-6.090594">
        <ele>342.945</ele>
        <time>2021-10-13T09:22:13Z</time>
      </trkpt>
      <trkpt lat="40.027464" lon="-6.090532">
        <ele>342.952</ele>
        <time>2021-10-13T09:22:14Z</time>
      </trkpt>
      <trkpt lat="40.027565" lon="-6.090437">
        <ele>342.922</ele>
        <time>2021-10-13T09:22:16Z</time>
      </trkpt>
      <trkpt lat="40.027607" lon="-6.090395">
        <ele>342.985</ele>
        <time>2021-10-13T09:22:17Z</time>
      </trkpt>
      <trkpt lat="40.027684" lon="-6.090318">
        <ele>342.971</ele>
        <time>2021-10-13T09:22:19Z</time>
      </trkpt>
      <trkpt lat="40.027748" lon="-6.090265">
        <ele>342.930</ele>
        <time>2021-10-13T09:22:21Z</time>
      </trkpt>
      <trkpt lat="40.027808" lon="-6.090200">
        <ele>342.925</ele>
        <time>2021-10-13T09:22:23Z</time>
      </trkpt>
      <trkpt lat="40.027846" lon="-6.090156">
        <ele>342.948</ele>
        <time>2021-10-13T09:22:25Z</time>
      </trkpt>
      <trkpt lat="40.027883" lon="-6.090123">
        <ele>342.861</ele>
        <time>2021-10-13T09:22:48Z</time>
      </trkpt>
      <trkpt lat="40.027931" lon="-6.090071">
        <ele>342.817</ele>
        <time>2021-10-13T09:22:51Z</time>
      </trkpt>
      <trkpt lat="40.027969" lon="-6.090027">
        <ele>342.808</ele>
        <time>2021-10-13T09:22:54Z</time>
      </trkpt>
      <trkpt lat="40.028022" lon="-6.089978">
        <ele>342.832</ele>
        <time>2021-10-13T09:23:07Z</time>
      </trkpt>
      <trkpt lat="40.028060" lon="-6.089942">
        <ele>342.860</ele>
        <time>2021-10-13T09:23:08Z</time>
      </trkpt>
      <trkpt lat="40.028152" lon="-6.089846">
        <ele>342.837</ele>
        <time>2021-10-13T09:23:10Z</time>
      </trkpt>
      <trkpt lat="40.028210" lon="-6.089785">
        <ele>342.897</ele>
        <time>2021-10-13T09:23:11Z</time>
      </trkpt>
      <trkpt lat="40.028272" lon="-6.089721">
        <ele>343.040</ele>
        <time>2021-10-13T09:23:12Z</time>
      </trkpt>
      <trkpt lat="40.028392" lon="-6.089596">
        <ele>343.026</ele>
        <time>2021-10-13T09:23:14Z</time>
      </trkpt>
      <trkpt lat="40.028531" lon="-6.089461">
        <ele>343.085</ele>
        <time>2021-10-13T09:23:16Z</time>
      </trkpt>
      <trkpt lat="40.028619" lon="-6.089372">
        <ele>343.080</ele>
        <time>2021-10-13T09:23:17Z</time>
      </trkpt>
      <trkpt lat="40.028799" lon="-6.089186">
        <ele>343.079</ele>
        <time>2021-10-13T09:23:19Z</time>
      </trkpt>
      <trkpt lat="40.028839" lon="-6.089127">
        <ele>343.005</ele>
        <time>2021-10-13T09:23:20Z</time>
      </trkpt>
      <trkpt lat="40.028901" lon="-6.089025">
        <ele>343.025</ele>
        <time>2021-10-13T09:23:22Z</time>
      </trkpt>
      <trkpt lat="40.028959" lon="-6.088929">
        <ele>343.008</ele>
        <time>2021-10-13T09:23:24Z</time>
      </trkpt>
      <trkpt lat="40.029003" lon="-6.088882">
        <ele>343.045</ele>
        <time>2021-10-13T09:23:26Z</time>
      </trkpt>
      <trkpt lat="40.029018" lon="-6.088954">
        <ele>343.053</ele>
        <time>2021-10-13T09:23:28Z</time>
      </trkpt>
      <trkpt lat="40.029071" lon="-6.089035">
        <ele>343.060</ele>
        <time>2021-10-13T09:23:30Z</time>
      </trkpt>
      <trkpt lat="40.029153" lon="-6.089160">
        <ele>343.060</ele>
        <time>2021-10-13T09:23:32Z</time>
      </trkpt>
      <trkpt lat="40.029241" lon="-6.089282">
        <ele>343.073</ele>
        <time>2021-10-13T09:23:34Z</time>
      </trkpt>
      <trkpt lat="40.029292" lon="-6.089350">
        <ele>343.039</ele>
        <time>2021-10-13T09:23:35Z</time>
      </trkpt>
      <trkpt lat="40.029393" lon="-6.089500">
        <ele>343.098</ele>
        <time>2021-10-13T09:23:37Z</time>
      </trkpt>
      <trkpt lat="40.029443" lon="-6.089591">
        <ele>343.023</ele>
        <time>2021-10-13T09:23:38Z</time>
      </trkpt>
      <trkpt lat="40.029541" lon="-6.089775">
        <ele>343.085</ele>
        <time>2021-10-13T09:23:40Z</time>
      </trkpt>
      <trkpt lat="40.029638" lon="-6.089964">
        <ele>343.089</ele>
        <time>2021-10-13T09:23:42Z</time>
      </trkpt>
      <trkpt lat="40.029663" lon="-6.090022">
        <ele>343.017</ele>
        <time>2021-10-13T09:23:43Z</time>
      </trkpt>
      <trkpt lat="40.029686" lon="-6.090077">
        <ele>343.008</ele>
        <time>2021-10-13T09:23:44Z</time>
      </trkpt>
      <trkpt lat="40.029722" lon="-6.090201">
        <ele>343.096</ele>
        <time>2021-10-13T09:23:46Z</time>
      </trkpt>
      <trkpt lat="40.029729" lon="-6.090288">
        <ele>343.094</ele>
        <time>2021-10-13T09:23:48Z</time>
      </trkpt>
      <trkpt lat="40.029711" lon="-6.090351">
        <ele>343.051</ele>
        <time>2021-10-13T09:23:52Z</time>
      </trkpt>
      <trkpt lat="40.029726" lon="-6.090420">
        <ele>343.031</ele>
        <time>2021-10-13T09:23:57Z</time>
      </trkpt>
      <trkpt lat="40.029696" lon="-6.090366">
        <ele>343.064</ele>
        <time>2021-10-13T09:24:05Z</time>
      </trkpt>
      <trkpt lat="40.029655" lon="-6.090327">
        <ele>343.030</ele>
        <time>2021-10-13T09:24:11Z</time>
      </trkpt>
      <trkpt lat="40.029695" lon="-6.090257">
        <ele>343.059</ele>
        <time>2021-10-13T09:24:18Z</time>
      </trkpt>
      <trkpt lat="40.029783" lon="-6.090118">
        <ele>343.054</ele>
        <time>2021-10-13T09:24:20Z</time>
      </trkpt>
      <trkpt lat="40.029839" lon="-6.090034">
        <ele>342.948</ele>
        <time>2021-10-13T09:24:22Z</time>
      </trkpt>
      <trkpt lat="40.029872" lon="-6.089983">
        <ele>342.861</ele>
        <time>2021-10-13T09:24:24Z</time>
      </trkpt>
      <trkpt lat="40.029915" lon="-6.089959">
        <ele>342.817</ele>
        <time>2021-10-13T09:24:28Z</time>
      </trkpt>
      <trkpt lat="40.029953" lon="-6.089996">
        <ele>342.908</ele>
        <time>2021-10-13T09:24:53Z</time>
      </trkpt>
      <trkpt lat="40.029950" lon="-6.090057">
        <ele>342.912</ele>
        <time>2021-10-13T09:25:00Z</time>
      </trkpt>
      <trkpt lat="40.029943" lon="-6.090119">
        <ele>342.930</ele>
        <time>2021-10-13T09:25:05Z</time>
      </trkpt>
      <trkpt lat="40.029939" lon="-6.090178">
        <ele>342.957</ele>
        <time>2021-10-13T09:25:12Z</time>
      </trkpt>
      <trkpt lat="40.029953" lon="-6.090242">
        <ele>342.947</ele>
        <time>2021-10-13T09:25:20Z</time>
      </trkpt>
      <trkpt lat="40.029974" lon="-6.090295">
        <ele>342.920</ele>
        <time>2021-10-13T09:25:32Z</time>
      </trkpt>
      <trkpt lat="40.029950" lon="-6.090224">
        <ele>343.436</ele>
        <time>2021-10-13T09:29:43Z</time>
      </trkpt>
      <trkpt lat="40.029936" lon="-6.090305">
        <ele>343.435</ele>
        <time>2021-10-13T09:29:51Z</time>
      </trkpt>
      <trkpt lat="40.029839" lon="-6.090415">
        <ele>359.990</ele>
        <time>2021-10-13T10:29:55Z</time>
      </trkpt>
      <trkpt lat="40.029922" lon="-6.090413">
        <ele>359.969</ele>
        <time>2021-10-13T10:29:57Z</time>
      </trkpt>
      <trkpt lat="40.029965" lon="-6.090392">
        <ele>359.904</ele>
        <time>2021-10-13T10:29:59Z</time>
      </trkpt>
      <trkpt lat="40.029917" lon="-6.090379">
        <ele>359.724</ele>
        <time>2021-10-13T10:35:08Z</time>
      </trkpt>
      <trkpt lat="40.029883" lon="-6.090420">
        <ele>359.708</ele>
        <time>2021-10-13T10:35:42Z</time>
      </trkpt>
      <trkpt lat="40.029860" lon="-6.090473">
        <ele>359.744</ele>
        <time>2021-10-13T10:35:45Z</time>
      </trkpt>
      <trkpt lat="40.029841" lon="-6.090527">
        <ele>359.732</ele>
        <time>2021-10-13T10:35:49Z</time>
      </trkpt>
      <trkpt lat="40.029860" lon="-6.090586">
        <ele>359.719</ele>
        <time>2021-10-13T10:35:52Z</time>
      </trkpt>
      <trkpt lat="40.029908" lon="-6.090656">
        <ele>359.599</ele>
        <time>2021-10-13T10:35:55Z</time>
      </trkpt>
      <trkpt lat="40.029970" lon="-6.090731">
        <ele>359.552</ele>
        <time>2021-10-13T10:35:57Z</time>
      </trkpt>
      <trkpt lat="40.030030" lon="-6.090805">
        <ele>359.558</ele>
        <time>2021-10-13T10:35:59Z</time>
      </trkpt>
      <trkpt lat="40.030092" lon="-6.090874">
        <ele>359.547</ele>
        <time>2021-10-13T10:36:01Z</time>
      </trkpt>
      <trkpt lat="40.030134" lon="-6.090901">
        <ele>359.512</ele>
        <time>2021-10-13T10:36:02Z</time>
      </trkpt>
      <trkpt lat="40.030196" lon="-6.090935">
        <ele>359.558</ele>
        <time>2021-10-13T10:36:04Z</time>
      </trkpt>
      <trkpt lat="40.030258" lon="-6.090978">
        <ele>359.552</ele>
        <time>2021-10-13T10:36:06Z</time>
      </trkpt>
      <trkpt lat="40.030318" lon="-6.091042">
        <ele>359.517</ele>
        <time>2021-10-13T10:36:08Z</time>
      </trkpt>
      <trkpt lat="40.030377" lon="-6.091101">
        <ele>359.508</ele>
        <time>2021-10-13T10:36:10Z</time>
      </trkpt>
      <trkpt lat="40.030441" lon="-6.091154">
        <ele>359.553</ele>
        <time>2021-10-13T10:36:12Z</time>
      </trkpt>
      <trkpt lat="40.030494" lon="-6.091194">
        <ele>359.631</ele>
        <time>2021-10-13T10:36:14Z</time>
      </trkpt>
      <trkpt lat="40.030539" lon="-6.091233">
        <ele>359.638</ele>
        <time>2021-10-13T10:36:17Z</time>
      </trkpt>
      <trkpt lat="40.030579" lon="-6.091289">
        <ele>359.638</ele>
        <time>2021-10-13T10:36:30Z</time>
      </trkpt>
      <trkpt lat="40.030607" lon="-6.091350">
        <ele>359.621</ele>
        <time>2021-10-13T10:36:32Z</time>
      </trkpt>
      <trkpt lat="40.030591" lon="-6.091427">
        <ele>359.657</ele>
        <time>2021-10-13T10:36:34Z</time>
      </trkpt>
      <trkpt lat="40.030564" lon="-6.091531">
        <ele>359.666</ele>
        <time>2021-10-13T10:36:36Z</time>
      </trkpt>
      <trkpt lat="40.030536" lon="-6.091630">
        <ele>359.621</ele>
        <time>2021-10-13T10:36:38Z</time>
      </trkpt>
      <trkpt lat="40.030511" lon="-6.091713">
        <ele>359.614</ele>
        <time>2021-10-13T10:36:40Z</time>
      </trkpt>
      <trkpt lat="40.030482" lon="-6.091795">
        <ele>359.654</ele>
        <time>2021-10-13T10:36:42Z</time>
      </trkpt>
      <trkpt lat="40.030479" lon="-6.091863">
        <ele>359.609</ele>
        <time>2021-10-13T10:36:45Z</time>
      </trkpt>
      <trkpt lat="40.030496" lon="-6.091936">
        <ele>359.608</ele>
        <time>2021-10-13T10:36:47Z</time>
      </trkpt>
      <trkpt lat="40.030521" lon="-6.091995">
        <ele>359.699</ele>
        <time>2021-10-13T10:36:49Z</time>
      </trkpt>
      <trkpt lat="40.030538" lon="-6.092064">
        <ele>359.657</ele>
        <time>2021-10-13T10:36:51Z</time>
      </trkpt>
      <trkpt lat="40.030583" lon="-6.092178">
        <ele>359.684</ele>
        <time>2021-10-13T10:36:53Z</time>
      </trkpt>
      <trkpt lat="40.030616" lon="-6.092250">
        <ele>359.674</ele>
        <time>2021-10-13T10:36:55Z</time>
      </trkpt>
      <trkpt lat="40.030650" lon="-6.092292">
        <ele>359.697</ele>
        <time>2021-10-13T10:36:57Z</time>
      </trkpt>
      <trkpt lat="40.030716" lon="-6.092315">
        <ele>359.653</ele>
        <time>2021-10-13T10:36:59Z</time>
      </trkpt>
      <trkpt lat="40.030790" lon="-6.092320">
        <ele>359.692</ele>
        <time>2021-10-13T10:37:01Z</time>
      </trkpt>
      <trkpt lat="40.030839" lon="-6.092314">
        <ele>359.667</ele>
        <time>2021-10-13T10:37:02Z</time>
      </trkpt>
      <trkpt lat="40.030940" lon="-6.092304">
        <ele>359.625</ele>
        <time>2021-10-13T10:37:04Z</time>
      </trkpt>
      <trkpt lat="40.031016" lon="-6.092285">
        <ele>359.626</ele>
        <time>2021-10-13T10:37:06Z</time>
      </trkpt>
      <trkpt lat="40.031183" lon="-6.092269">
        <ele>359.608</ele>
        <time>2021-10-13T10:37:08Z</time>
      </trkpt>
      <trkpt lat="40.031287" lon="-6.092202">
        <ele>359.608</ele>
        <time>2021-10-13T10:37:10Z</time>
      </trkpt>
      <trkpt lat="40.031380" lon="-6.092098">
        <ele>359.680</ele>
        <time>2021-10-13T10:37:12Z</time>
      </trkpt>
      <trkpt lat="40.031478" lon="-6.091962">
        <ele>359.648</ele>
        <time>2021-10-13T10:37:14Z</time>
      </trkpt>
      <trkpt lat="40.031549" lon="-6.091808">
        <ele>359.665</ele>
        <time>2021-10-13T10:37:16Z</time>
      </trkpt>
      <trkpt lat="40.031579" lon="-6.091733">
        <ele>359.685</ele>
        <time>2021-10-13T10:37:17Z</time>
      </trkpt>
      <trkpt lat="40.031604" lon="-6.091666">
        <ele>359.618</ele>
        <time>2021-10-13T10:37:18Z</time>
      </trkpt>
      <trkpt lat="40.031660" lon="-6.091539">
        <ele>359.554</ele>
        <time>2021-10-13T10:37:20Z</time>
      </trkpt>
      <trkpt lat="40.031716" lon="-6.091399">
        <ele>359.543</ele>
        <time>2021-10-13T10:37:22Z</time>
      </trkpt>
      <trkpt lat="40.031747" lon="-6.091323">
        <ele>359.558</ele>
        <time>2021-10-13T10:37:23Z</time>
      </trkpt>
      <trkpt lat="40.031800" lon="-6.091157">
        <ele>359.515</ele>
        <time>2021-10-13T10:37:25Z</time>
      </trkpt>
      <trkpt lat="40.031819" lon="-6.091064">
        <ele>359.565</ele>
        <time>2021-10-13T10:37:26Z</time>
      </trkpt>
      <trkpt lat="40.031840" lon="-6.090897">
        <ele>354.211</ele>
        <time>2021-10-13T10:37:28Z</time>
      </trkpt>
      <trkpt lat="40.031849" lon="-6.090816">
        <ele>354.208</ele>
        <time>2021-10-13T10:37:29Z</time>
      </trkpt>
      <trkpt lat="40.031870" lon="-6.090658">
        <ele>356.379</ele>
        <time>2021-10-13T10:37:31Z</time>
      </trkpt>
      <trkpt lat="40.031885" lon="-6.090584">
        <ele>358.177</ele>
        <time>2021-10-13T10:37:32Z</time>
      </trkpt>
      <trkpt lat="40.031925" lon="-6.090420">
        <ele>359.744</ele>
        <time>2021-10-13T10:37:34Z</time>
      </trkpt>
      <trkpt lat="40.031949" lon="-6.090330">
        <ele>360.714</ele>
        <time>2021-10-13T10:37:35Z</time>
      </trkpt>
      <trkpt lat="40.032000" lon="-6.090199">
        <ele>361.017</ele>
        <time>2021-10-13T10:37:37Z</time>
      </trkpt>
      <trkpt lat="40.032028" lon="-6.090136">
        <ele>361.393</ele>
        <time>2021-10-13T10:37:39Z</time>
      </trkpt>
      <trkpt lat="40.032062" lon="-6.090085">
        <ele>362.222</ele>
        <time>2021-10-13T10:37:41Z</time>
      </trkpt>
      <trkpt lat="40.032130" lon="-6.090046">
        <ele>363.687</ele>
        <time>2021-10-13T10:37:43Z</time>
      </trkpt>
      <trkpt lat="40.032179" lon="-6.090016">
        <ele>364.915</ele>
        <time>2021-10-13T10:37:44Z</time>
      </trkpt>
      <trkpt lat="40.032300" lon="-6.089962">
        <ele>366.565</ele>
        <time>2021-10-13T10:37:46Z</time>
      </trkpt>
      <trkpt lat="40.032438" lon="-6.089911">
        <ele>366.511</ele>
        <time>2021-10-13T10:37:48Z</time>
      </trkpt>
      <trkpt lat="40.032574" lon="-6.089832">
        <ele>366.508</ele>
        <time>2021-10-13T10:37:50Z</time>
      </trkpt>
      <trkpt lat="40.032695" lon="-6.089740">
        <ele>366.559</ele>
        <time>2021-10-13T10:37:52Z</time>
      </trkpt>
      <trkpt lat="40.032797" lon="-6.089622">
        <ele>366.567</ele>
        <time>2021-10-13T10:37:54Z</time>
      </trkpt>
      <trkpt lat="40.032898" lon="-6.089459">
        <ele>366.524</ele>
        <time>2021-10-13T10:37:56Z</time>
      </trkpt>
      <trkpt lat="40.032993" lon="-6.089284">
        <ele>366.594</ele>
        <time>2021-10-13T10:37:58Z</time>
      </trkpt>
      <trkpt lat="40.033030" lon="-6.089204">
        <ele>366.577</ele>
        <time>2021-10-13T10:37:59Z</time>
      </trkpt>
      <trkpt lat="40.033070" lon="-6.089120">
        <ele>366.543</ele>
        <time>2021-10-13T10:38:00Z</time>
      </trkpt>
      <trkpt lat="40.033119" lon="-6.089034">
        <ele>366.522</ele>
        <time>2021-10-13T10:38:01Z</time>
      </trkpt>
      <trkpt lat="40.033179" lon="-6.088941">
        <ele>366.517</ele>
        <time>2021-10-13T10:38:02Z</time>
      </trkpt>
      <trkpt lat="40.033300" lon="-6.088748">
        <ele>366.535</ele>
        <time>2021-10-13T10:38:04Z</time>
      </trkpt>
      <trkpt lat="40.033361" lon="-6.088658">
        <ele>366.586</ele>
        <time>2021-10-13T10:38:05Z</time>
      </trkpt>
      <trkpt lat="40.033418" lon="-6.088564">
        <ele>366.514</ele>
        <time>2021-10-13T10:38:06Z</time>
      </trkpt>
      <trkpt lat="40.033542" lon="-6.088369">
        <ele>366.508</ele>
        <time>2021-10-13T10:38:08Z</time>
      </trkpt>
      <trkpt lat="40.033665" lon="-6.088180">
        <ele>366.521</ele>
        <time>2021-10-13T10:38:10Z</time>
      </trkpt>
      <trkpt lat="40.033774" lon="-6.088020">
        <ele>366.599</ele>
        <time>2021-10-13T10:38:12Z</time>
      </trkpt>
      <trkpt lat="40.033827" lon="-6.087944">
        <ele>366.566</ele>
        <time>2021-10-13T10:38:13Z</time>
      </trkpt>
      <trkpt lat="40.033879" lon="-6.087868">
        <ele>366.596</ele>
        <time>2021-10-13T10:38:14Z</time>
      </trkpt>
      <trkpt lat="40.033977" lon="-6.087734">
        <ele>366.599</ele>
        <time>2021-10-13T10:38:16Z</time>
      </trkpt>
      <trkpt lat="40.034025" lon="-6.087662">
        <ele>366.535</ele>
        <time>2021-10-13T10:38:17Z</time>
      </trkpt>
      <trkpt lat="40.034077" lon="-6.087593">
        <ele>366.514</ele>
        <time>2021-10-13T10:38:18Z</time>
      </trkpt>
      <trkpt lat="40.034129" lon="-6.087525">
        <ele>366.519</ele>
        <time>2021-10-13T10:38:19Z</time>
      </trkpt>
      <trkpt lat="40.034180" lon="-6.087459">
        <ele>366.527</ele>
        <time>2021-10-13T10:38:20Z</time>
      </trkpt>
      <trkpt lat="40.034267" lon="-6.087346">
        <ele>366.568</ele>
        <time>2021-10-13T10:38:22Z</time>
      </trkpt>
      <trkpt lat="40.034300" lon="-6.087300">
        <ele>366.514</ele>
        <time>2021-10-13T10:38:23Z</time>
      </trkpt>
      <trkpt lat="40.034333" lon="-6.087239">
        <ele>366.508</ele>
        <time>2021-10-13T10:38:25Z</time>
      </trkpt>
      <trkpt lat="40.034379" lon="-6.087140">
        <ele>366.520</ele>
        <time>2021-10-13T10:38:27Z</time>
      </trkpt>
      <trkpt lat="40.034407" lon="-6.087065">
        <ele>366.538</ele>
        <time>2021-10-13T10:38:28Z</time>
      </trkpt>
      <trkpt lat="40.034438" lon="-6.086982">
        <ele>366.555</ele>
        <time>2021-10-13T10:38:29Z</time>
      </trkpt>
      <trkpt lat="40.034517" lon="-6.086797">
        <ele>366.585</ele>
        <time>2021-10-13T10:38:31Z</time>
      </trkpt>
      <trkpt lat="40.034564" lon="-6.086694">
        <ele>366.528</ele>
        <time>2021-10-13T10:38:32Z</time>
      </trkpt>
      <trkpt lat="40.034657" lon="-6.086496">
        <ele>366.574</ele>
        <time>2021-10-13T10:38:34Z</time>
      </trkpt>
      <trkpt lat="40.034748" lon="-6.086323">
        <ele>366.573</ele>
        <time>2021-10-13T10:38:36Z</time>
      </trkpt>
      <trkpt lat="40.034788" lon="-6.086251">
        <ele>366.528</ele>
        <time>2021-10-13T10:38:37Z</time>
      </trkpt>
      <trkpt lat="40.034822" lon="-6.086192">
        <ele>366.582</ele>
        <time>2021-10-13T10:38:38Z</time>
      </trkpt>
      <trkpt lat="40.034861" lon="-6.086117">
        <ele>366.543</ele>
        <time>2021-10-13T10:38:40Z</time>
      </trkpt>
      <trkpt lat="40.034871" lon="-6.086055">
        <ele>366.517</ele>
        <time>2021-10-13T10:38:43Z</time>
      </trkpt>
      <trkpt lat="40.034891" lon="-6.085997">
        <ele>366.508</ele>
        <time>2021-10-13T10:38:45Z</time>
      </trkpt>
      <trkpt lat="40.034974" lon="-6.085918">
        <ele>366.576</ele>
        <time>2021-10-13T10:38:47Z</time>
      </trkpt>
      <trkpt lat="40.035110" lon="-6.085846">
        <ele>395.094</ele>
        <time>2021-10-13T10:38:49Z</time>
      </trkpt>
      <trkpt lat="40.035182" lon="-6.085815">
        <ele>394.581</ele>
        <time>2021-10-13T10:38:50Z</time>
      </trkpt>
      <trkpt lat="40.035284" lon="-6.085787">
        <ele>393.241</ele>
        <time>2021-10-13T10:38:52Z</time>
      </trkpt>
      <trkpt lat="40.035333" lon="-6.085794">
        <ele>392.914</ele>
        <time>2021-10-13T10:38:54Z</time>
      </trkpt>
      <trkpt lat="40.035395" lon="-6.085824">
        <ele>391.120</ele>
        <time>2021-10-13T10:38:56Z</time>
      </trkpt>
      <trkpt lat="40.035462" lon="-6.085856">
        <ele>389.669</ele>
        <time>2021-10-13T10:38:58Z</time>
      </trkpt>
      <trkpt lat="40.035556" lon="-6.085886">
        <ele>389.114</ele>
        <time>2021-10-13T10:39:00Z</time>
      </trkpt>
      <trkpt lat="40.035612" lon="-6.085906">
        <ele>387.073</ele>
        <time>2021-10-13T10:39:01Z</time>
      </trkpt>
      <trkpt lat="40.035682" lon="-6.085930">
        <ele>385.585</ele>
        <time>2021-10-13T10:39:02Z</time>
      </trkpt>
      <trkpt lat="40.035878" lon="-6.086000">
        <ele>384.313</ele>
        <time>2021-10-13T10:39:04Z</time>
      </trkpt>
      <trkpt lat="40.036003" lon="-6.086044">
        <ele>383.808</ele>
        <time>2021-10-13T10:39:05Z</time>
      </trkpt>
      <trkpt lat="40.036260" lon="-6.086138">
        <ele>384.245</ele>
        <time>2021-10-13T10:39:07Z</time>
      </trkpt>
      <trkpt lat="40.036375" lon="-6.086188">
        <ele>384.233</ele>
        <time>2021-10-13T10:39:08Z</time>
      </trkpt>
      <trkpt lat="40.036536" lon="-6.086257">
        <ele>384.930</ele>
        <time>2021-10-13T10:39:10Z</time>
      </trkpt>
      <trkpt lat="40.036604" lon="-6.086292">
        <ele>384.970</ele>
        <time>2021-10-13T10:39:11Z</time>
      </trkpt>
      <trkpt lat="40.036661" lon="-6.086325">
        <ele>384.923</ele>
        <time>2021-10-13T10:39:12Z</time>
      </trkpt>
      <trkpt lat="40.036710" lon="-6.086356">
        <ele>384.979</ele>
        <time>2021-10-13T10:39:13Z</time>
      </trkpt>
      <trkpt lat="40.036763" lon="-6.086385">
        <ele>384.978</ele>
        <time>2021-10-13T10:39:14Z</time>
      </trkpt>
      <trkpt lat="40.036867" lon="-6.086431">
        <ele>385.493</ele>
        <time>2021-10-13T10:39:16Z</time>
      </trkpt>
      <trkpt lat="40.036906" lon="-6.086346">
        <ele>385.753</ele>
        <time>2021-10-13T10:39:22Z</time>
      </trkpt>
      <trkpt lat="40.036936" lon="-6.086231">
        <ele>385.704</ele>
        <time>2021-10-13T10:39:24Z</time>
      </trkpt>
      <trkpt lat="40.036913" lon="-6.086156">
        <ele>385.714</ele>
        <time>2021-10-13T10:39:26Z</time>
      </trkpt>
      <trkpt lat="40.036931" lon="-6.086091">
        <ele>385.608</ele>
        <time>2021-10-13T10:39:29Z</time>
      </trkpt>
      <trkpt lat="40.036972" lon="-6.085917">
        <ele>385.653</ele>
        <time>2021-10-13T10:39:30Z</time>
      </trkpt>
      <trkpt lat="40.036968" lon="-6.085855">
        <ele>385.681</ele>
        <time>2021-10-13T10:39:31Z</time>
      </trkpt>
      <trkpt lat="40.036964" lon="-6.085793">
        <ele>385.648</ele>
        <time>2021-10-13T10:39:32Z</time>
      </trkpt>
      <trkpt lat="40.036962" lon="-6.085666">
        <ele>385.668</ele>
        <time>2021-10-13T10:39:34Z</time>
      </trkpt>
      <trkpt lat="40.037007" lon="-6.085471">
        <ele>385.641</ele>
        <time>2021-10-13T10:39:36Z</time>
      </trkpt>
      <trkpt lat="40.037157" lon="-6.085266">
        <ele>385.767</ele>
        <time>2021-10-13T10:39:38Z</time>
      </trkpt>
      <trkpt lat="40.037342" lon="-6.085158">
        <ele>385.816</ele>
        <time>2021-10-13T10:39:40Z</time>
      </trkpt>
      <trkpt lat="40.037510" lon="-6.085026">
        <ele>385.881</ele>
        <time>2021-10-13T10:39:42Z</time>
      </trkpt>
      <trkpt lat="40.037585" lon="-6.084930">
        <ele>385.851</ele>
        <time>2021-10-13T10:39:43Z</time>
      </trkpt>
      <trkpt lat="40.037651" lon="-6.084816">
        <ele>385.801</ele>
        <time>2021-10-13T10:39:44Z</time>
      </trkpt>
      <trkpt lat="40.037763" lon="-6.084596">
        <ele>385.811</ele>
        <time>2021-10-13T10:39:46Z</time>
      </trkpt>
      <trkpt lat="40.037902" lon="-6.084329">
        <ele>385.808</ele>
        <time>2021-10-13T10:39:48Z</time>
      </trkpt>
      <trkpt lat="40.037979" lon="-6.084180">
        <ele>385.873</ele>
        <time>2021-10-13T10:39:49Z</time>
      </trkpt>
      <trkpt lat="40.038061" lon="-6.084025">
        <ele>385.821</ele>
        <time>2021-10-13T10:39:50Z</time>
      </trkpt>
      <trkpt lat="40.038221" lon="-6.083726">
        <ele>385.858</ele>
        <time>2021-10-13T10:39:52Z</time>
      </trkpt>
      <trkpt lat="40.038301" lon="-6.083581">
        <ele>385.848</ele>
        <time>2021-10-13T10:39:53Z</time>
      </trkpt>
      <trkpt lat="40.038368" lon="-6.083456">
        <ele>385.871</ele>
        <time>2021-10-13T10:39:54Z</time>
      </trkpt>
      <trkpt lat="40.038502" lon="-6.083218">
        <ele>385.737</ele>
        <time>2021-10-13T10:39:56Z</time>
      </trkpt>
      <trkpt lat="40.038605" lon="-6.083028">
        <ele>385.756</ele>
        <time>2021-10-13T10:39:58Z</time>
      </trkpt>
      <trkpt lat="40.038705" lon="-6.082858">
        <ele>385.761</ele>
        <time>2021-10-13T10:40:00Z</time>
      </trkpt>
      <trkpt lat="40.038739" lon="-6.082804">
        <ele>385.734</ele>
        <time>2021-10-13T10:40:01Z</time>
      </trkpt>
      <trkpt lat="40.038767" lon="-6.082731">
        <ele>385.755</ele>
        <time>2021-10-13T10:40:03Z</time>
      </trkpt>
      <trkpt lat="40.038706" lon="-6.082636">
        <ele>385.710</ele>
        <time>2021-10-13T10:40:05Z</time>
      </trkpt>
      <trkpt lat="40.038617" lon="-6.082476">
        <ele>385.708</ele>
        <time>2021-10-13T10:40:07Z</time>
      </trkpt>
      <trkpt lat="40.038586" lon="-6.082369">
        <ele>385.781</ele>
        <time>2021-10-13T10:40:08Z</time>
      </trkpt>
      <trkpt lat="40.038515" lon="-6.082164">
        <ele>385.729</ele>
        <time>2021-10-13T10:40:10Z</time>
      </trkpt>
      <trkpt lat="40.038439" lon="-6.081998">
        <ele>385.776</ele>
        <time>2021-10-13T10:40:12Z</time>
      </trkpt>
      <trkpt lat="40.038381" lon="-6.081877">
        <ele>385.796</ele>
        <time>2021-10-13T10:40:14Z</time>
      </trkpt>
      <trkpt lat="40.038315" lon="-6.081747">
        <ele>385.719</ele>
        <time>2021-10-13T10:40:16Z</time>
      </trkpt>
      <trkpt lat="40.038277" lon="-6.081674">
        <ele>385.745</ele>
        <time>2021-10-13T10:40:17Z</time>
      </trkpt>
      <trkpt lat="40.038239" lon="-6.081599">
        <ele>385.794</ele>
        <time>2021-10-13T10:40:18Z</time>
      </trkpt>
      <trkpt lat="40.038175" lon="-6.081458">
        <ele>385.789</ele>
        <time>2021-10-13T10:40:20Z</time>
      </trkpt>
      <trkpt lat="40.038120" lon="-6.081328">
        <ele>382.852</ele>
        <time>2021-10-13T10:40:22Z</time>
      </trkpt>
      <trkpt lat="40.038037" lon="-6.081219">
        <ele>385.253</ele>
        <time>2021-10-13T10:40:24Z</time>
      </trkpt>
      <trkpt lat="40.037987" lon="-6.081172">
        <ele>386.208</ele>
        <time>2021-10-13T10:40:25Z</time>
      </trkpt>
      <trkpt lat="40.037932" lon="-6.081123">
        <ele>386.608</ele>
        <time>2021-10-13T10:40:26Z</time>
      </trkpt>
      <trkpt lat="40.037815" lon="-6.081030">
        <ele>387.823</ele>
        <time>2021-10-13T10:40:28Z</time>
      </trkpt>
      <trkpt lat="40.037753" lon="-6.080982">
        <ele>388.071</ele>
        <time>2021-10-13T10:40:29Z</time>
      </trkpt>
      <trkpt lat="40.037698" lon="-6.080937">
        <ele>388.078</ele>
        <time>2021-10-13T10:40:30Z</time>
      </trkpt>
      <trkpt lat="40.037600" lon="-6.080858">
        <ele>388.058</ele>
        <time>2021-10-13T10:40:32Z</time>
      </trkpt>
      <trkpt lat="40.037550" lon="-6.080830">
        <ele>388.051</ele>
        <time>2021-10-13T10:40:34Z</time>
      </trkpt>
      <trkpt lat="40.037506" lon="-6.080795">
        <ele>386.797</ele>
        <time>2021-10-13T10:40:36Z</time>
      </trkpt>
      <trkpt lat="40.037452" lon="-6.080739">
        <ele>386.396</ele>
        <time>2021-10-13T10:40:38Z</time>
      </trkpt>
      <trkpt lat="40.037363" lon="-6.080637">
        <ele>383.761</ele>
        <time>2021-10-13T10:40:40Z</time>
      </trkpt>
      <trkpt lat="40.037256" lon="-6.080502">
        <ele>379.573</ele>
        <time>2021-10-13T10:40:42Z</time>
      </trkpt>
      <trkpt lat="40.037201" lon="-6.080407">
        <ele>377.885</ele>
        <time>2021-10-13T10:40:43Z</time>
      </trkpt>
      <trkpt lat="40.037138" lon="-6.080298">
        <ele>375.213</ele>
        <time>2021-10-13T10:40:44Z</time>
      </trkpt>
      <trkpt lat="40.037009" lon="-6.080051">
        <ele>371.708</ele>
        <time>2021-10-13T10:40:46Z</time>
      </trkpt>
      <trkpt lat="40.036953" lon="-6.079908">
        <ele>369.375</ele>
        <time>2021-10-13T10:40:47Z</time>
      </trkpt>
      <trkpt lat="40.036907" lon="-6.079770">
        <ele>367.993</ele>
        <time>2021-10-13T10:40:48Z</time>
      </trkpt>
      <trkpt lat="40.036848" lon="-6.079516">
        <ele>364.570</ele>
        <time>2021-10-13T10:40:50Z</time>
      </trkpt>
      <trkpt lat="40.036831" lon="-6.079301">
        <ele>362.460</ele>
        <time>2021-10-13T10:40:52Z</time>
      </trkpt>
      <trkpt lat="40.036844" lon="-6.079138">
        <ele>361.563</ele>
        <time>2021-10-13T10:40:54Z</time>
      </trkpt>
      <trkpt lat="40.036867" lon="-6.079018">
        <ele>359.879</ele>
        <time>2021-10-13T10:40:56Z</time>
      </trkpt>
      <trkpt lat="40.036873" lon="-6.078929">
        <ele>359.478</ele>
        <time>2021-10-13T10:40:58Z</time>
      </trkpt>
      <trkpt lat="40.036843" lon="-6.078820">
        <ele>358.983</ele>
        <time>2021-10-13T10:41:00Z</time>
      </trkpt>
      <trkpt lat="40.036775" lon="-6.078693">
        <ele>357.753</ele>
        <time>2021-10-13T10:41:02Z</time>
      </trkpt>
      <trkpt lat="40.036654" lon="-6.078601">
        <ele>356.104</ele>
        <time>2021-10-13T10:41:04Z</time>
      </trkpt>
      <trkpt lat="40.036475" lon="-6.078513">
        <ele>354.414</ele>
        <time>2021-10-13T10:41:06Z</time>
      </trkpt>
      <trkpt lat="40.036187" lon="-6.078352">
        <ele>351.108</ele>
        <time>2021-10-13T10:41:08Z</time>
      </trkpt>
      <trkpt lat="40.035926" lon="-6.078210">
        <ele>349.633</ele>
        <time>2021-10-13T10:41:10Z</time>
      </trkpt>
      <trkpt lat="40.035676" lon="-6.078055">
        <ele>348.881</ele>
        <time>2021-10-13T10:41:12Z</time>
      </trkpt>
      <trkpt lat="40.035563" lon="-6.077974">
        <ele>349.028</ele>
        <time>2021-10-13T10:41:13Z</time>
      </trkpt>
      <trkpt lat="40.035462" lon="-6.077894">
        <ele>349.518</ele>
        <time>2021-10-13T10:41:14Z</time>
      </trkpt>
      <trkpt lat="40.035287" lon="-6.077758">
        <ele>350.721</ele>
        <time>2021-10-13T10:41:16Z</time>
      </trkpt>
      <trkpt lat="40.035206" lon="-6.077702">
        <ele>350.767</ele>
        <time>2021-10-13T10:41:17Z</time>
      </trkpt>
      <trkpt lat="40.035078" lon="-6.077620">
        <ele>351.626</ele>
        <time>2021-10-13T10:41:19Z</time>
      </trkpt>
      <trkpt lat="40.035030" lon="-6.077583">
        <ele>351.451</ele>
        <time>2021-10-13T10:41:20Z</time>
      </trkpt>
      <trkpt lat="40.034982" lon="-6.077520">
        <ele>350.416</ele>
        <time>2021-10-13T10:41:22Z</time>
      </trkpt>
      <trkpt lat="40.034951" lon="-6.077474">
        <ele>350.076</ele>
        <time>2021-10-13T10:41:23Z</time>
      </trkpt>
      <trkpt lat="40.034902" lon="-6.077420">
        <ele>349.513</ele>
        <time>2021-10-13T10:41:24Z</time>
      </trkpt>
      <trkpt lat="40.034782" lon="-6.077293">
        <ele>348.508</ele>
        <time>2021-10-13T10:41:26Z</time>
      </trkpt>
      <trkpt lat="40.034701" lon="-6.077115">
        <ele>347.219</ele>
        <time>2021-10-13T10:41:28Z</time>
      </trkpt>
      <trkpt lat="40.034675" lon="-6.077001">
        <ele>346.237</ele>
        <time>2021-10-13T10:41:29Z</time>
      </trkpt>
      <trkpt lat="40.034660" lon="-6.076775">
        <ele>343.174</ele>
        <time>2021-10-13T10:41:31Z</time>
      </trkpt>
      <trkpt lat="40.034633" lon="-6.076676">
        <ele>341.974</ele>
        <time>2021-10-13T10:41:32Z</time>
      </trkpt>
      <trkpt lat="40.034549" lon="-6.076513">
        <ele>340.767</ele>
        <time>2021-10-13T10:41:34Z</time>
      </trkpt>
      <trkpt lat="40.034489" lon="-6.076416">
        <ele>340.783</ele>
        <time>2021-10-13T10:41:35Z</time>
      </trkpt>
      <trkpt lat="40.034340" lon="-6.076179">
        <ele>340.232</ele>
        <time>2021-10-13T10:41:37Z</time>
      </trkpt>
      <trkpt lat="40.034253" lon="-6.076052">
        <ele>339.757</ele>
        <time>2021-10-13T10:41:38Z</time>
      </trkpt>
      <trkpt lat="40.034083" lon="-6.075800">
        <ele>339.363</ele>
        <time>2021-10-13T10:41:40Z</time>
      </trkpt>
      <trkpt lat="40.033993" lon="-6.075655">
        <ele>339.344</ele>
        <time>2021-10-13T10:41:41Z</time>
      </trkpt>
      <trkpt lat="40.033830" lon="-6.075409">
        <ele>340.118</ele>
        <time>2021-10-13T10:41:43Z</time>
      </trkpt>
      <trkpt lat="40.033747" lon="-6.075284">
        <ele>340.208</ele>
        <time>2021-10-13T10:41:44Z</time>
      </trkpt>
      <trkpt lat="40.033597" lon="-6.075056">
        <ele>340.654</ele>
        <time>2021-10-13T10:41:46Z</time>
      </trkpt>
      <trkpt lat="40.033530" lon="-6.074951">
        <ele>340.682</ele>
        <time>2021-10-13T10:41:47Z</time>
      </trkpt>
      <trkpt lat="40.033390" lon="-6.074744">
        <ele>340.049</ele>
        <time>2021-10-13T10:41:49Z</time>
      </trkpt>
      <trkpt lat="40.033322" lon="-6.074640">
        <ele>339.729</ele>
        <time>2021-10-13T10:41:50Z</time>
      </trkpt>
      <trkpt lat="40.033193" lon="-6.074442">
        <ele>339.922</ele>
        <time>2021-10-13T10:41:52Z</time>
      </trkpt>
      <trkpt lat="40.033083" lon="-6.074269">
        <ele>339.738</ele>
        <time>2021-10-13T10:41:54Z</time>
      </trkpt>
      <trkpt lat="40.032978" lon="-6.074146">
        <ele>339.747</ele>
        <time>2021-10-13T10:41:56Z</time>
      </trkpt>
      <trkpt lat="40.032831" lon="-6.074106">
        <ele>339.972</ele>
        <time>2021-10-13T10:41:58Z</time>
      </trkpt>
      <trkpt lat="40.032633" lon="-6.074060">
        <ele>340.051</ele>
        <time>2021-10-13T10:42:00Z</time>
      </trkpt>
      <trkpt lat="40.032544" lon="-6.073993">
        <ele>340.601</ele>
        <time>2021-10-13T10:42:01Z</time>
      </trkpt>
      <trkpt lat="40.032471" lon="-6.073887">
        <ele>340.611</ele>
        <time>2021-10-13T10:42:02Z</time>
      </trkpt>
      <trkpt lat="40.032436" lon="-6.073621">
        <ele>341.008</ele>
        <time>2021-10-13T10:42:04Z</time>
      </trkpt>
      <trkpt lat="40.032540" lon="-6.073351">
        <ele>340.953</ele>
        <time>2021-10-13T10:42:06Z</time>
      </trkpt>
      <trkpt lat="40.032646" lon="-6.073254">
        <ele>340.981</ele>
        <time>2021-10-13T10:42:07Z</time>
      </trkpt>
      <trkpt lat="40.032791" lon="-6.073184">
        <ele>340.728</ele>
        <time>2021-10-13T10:42:08Z</time>
      </trkpt>
      <trkpt lat="40.033051" lon="-6.073033">
        <ele>340.848</ele>
        <time>2021-10-13T10:42:10Z</time>
      </trkpt>
      <trkpt lat="40.033152" lon="-6.072909">
        <ele>340.781</ele>
        <time>2021-10-13T10:42:11Z</time>
      </trkpt>
      <trkpt lat="40.033232" lon="-6.072732">
        <ele>340.367</ele>
        <time>2021-10-13T10:42:12Z</time>
      </trkpt>
      <trkpt lat="40.033296" lon="-6.072523">
        <ele>340.756</ele>
        <time>2021-10-13T10:42:13Z</time>
      </trkpt>
      <trkpt lat="40.033362" lon="-6.072315">
        <ele>340.691</ele>
        <time>2021-10-13T10:42:14Z</time>
      </trkpt>
      <trkpt lat="40.033506" lon="-6.071896">
        <ele>339.598</ele>
        <time>2021-10-13T10:42:16Z</time>
      </trkpt>
      <trkpt lat="40.033658" lon="-6.071495">
        <ele>339.315</ele>
        <time>2021-10-13T10:42:18Z</time>
      </trkpt>
      <trkpt lat="40.033816" lon="-6.071112">
        <ele>339.926</ele>
        <time>2021-10-13T10:42:20Z</time>
      </trkpt>
      <trkpt lat="40.033971" lon="-6.070737">
        <ele>342.008</ele>
        <time>2021-10-13T10:42:22Z</time>
      </trkpt>
      <trkpt lat="40.034055" lon="-6.070531">
        <ele>342.987</ele>
        <time>2021-10-13T10:42:23Z</time>
      </trkpt>
      <trkpt lat="40.034233" lon="-6.070094">
        <ele>343.445</ele>
        <time>2021-10-13T10:42:25Z</time>
      </trkpt>
      <trkpt lat="40.034348" lon="-6.069858">
        <ele>343.492</ele>
        <time>2021-10-13T10:42:26Z</time>
      </trkpt>
      <trkpt lat="40.034604" lon="-6.069447">
        <ele>343.222</ele>
        <time>2021-10-13T10:42:28Z</time>
      </trkpt>
      <trkpt lat="40.034897" lon="-6.069085">
        <ele>342.935</ele>
        <time>2021-10-13T10:42:30Z</time>
      </trkpt>
      <trkpt lat="40.035027" lon="-6.068956">
        <ele>342.931</ele>
        <time>2021-10-13T10:42:31Z</time>
      </trkpt>
      <trkpt lat="40.035159" lon="-6.068834">
        <ele>343.280</ele>
        <time>2021-10-13T10:42:32Z</time>
      </trkpt>
      <trkpt lat="40.035402" lon="-6.068608">
        <ele>343.295</ele>
        <time>2021-10-13T10:42:34Z</time>
      </trkpt>
      <trkpt lat="40.035527" lon="-6.068484">
        <ele>342.737</ele>
        <time>2021-10-13T10:42:35Z</time>
      </trkpt>
      <trkpt lat="40.035777" lon="-6.068226">
        <ele>342.549</ele>
        <time>2021-10-13T10:42:37Z</time>
      </trkpt>
      <trkpt lat="40.035906" lon="-6.068085">
        <ele>342.613</ele>
        <time>2021-10-13T10:42:38Z</time>
      </trkpt>
      <trkpt lat="40.036158" lon="-6.067802">
        <ele>342.108</ele>
        <time>2021-10-13T10:42:40Z</time>
      </trkpt>
      <trkpt lat="40.036296" lon="-6.067650">
        <ele>342.191</ele>
        <time>2021-10-13T10:42:41Z</time>
      </trkpt>
      <trkpt lat="40.036575" lon="-6.067338">
        <ele>342.759</ele>
        <time>2021-10-13T10:42:43Z</time>
      </trkpt>
      <trkpt lat="40.036729" lon="-6.067167">
        <ele>343.286</ele>
        <time>2021-10-13T10:42:44Z</time>
      </trkpt>
      <trkpt lat="40.037022" lon="-6.066842">
        <ele>342.916</ele>
        <time>2021-10-13T10:42:46Z</time>
      </trkpt>
      <trkpt lat="40.037184" lon="-6.066663">
        <ele>342.649</ele>
        <time>2021-10-13T10:42:47Z</time>
      </trkpt>
      <trkpt lat="40.037521" lon="-6.066289">
        <ele>342.435</ele>
        <time>2021-10-13T10:42:49Z</time>
      </trkpt>
      <trkpt lat="40.037709" lon="-6.066081">
        <ele>341.714</ele>
        <time>2021-10-13T10:42:50Z</time>
      </trkpt>
      <trkpt lat="40.038073" lon="-6.065672">
        <ele>342.199</ele>
        <time>2021-10-13T10:42:52Z</time>
      </trkpt>
      <trkpt lat="40.038257" lon="-6.065473">
        <ele>342.033</ele>
        <time>2021-10-13T10:42:53Z</time>
      </trkpt>
      <trkpt lat="40.038604" lon="-6.065091">
        <ele>342.823</ele>
        <time>2021-10-13T10:42:55Z</time>
      </trkpt>
      <trkpt lat="40.038777" lon="-6.064896">
        <ele>342.415</ele>
        <time>2021-10-13T10:42:56Z</time>
      </trkpt>
      <trkpt lat="40.039090" lon="-6.064536">
        <ele>343.008</ele>
        <time>2021-10-13T10:42:58Z</time>
      </trkpt>
      <trkpt lat="40.039253" lon="-6.064353">
        <ele>342.971</ele>
        <time>2021-10-13T10:42:59Z</time>
      </trkpt>
      <trkpt lat="40.039579" lon="-6.063994">
        <ele>342.519</ele>
        <time>2021-10-13T10:43:01Z</time>
      </trkpt>
      <trkpt lat="40.039751" lon="-6.063816">
        <ele>342.336</ele>
        <time>2021-10-13T10:43:02Z</time>
      </trkpt>
      <trkpt lat="40.040086" lon="-6.063499">
        <ele>344.036</ele>
        <time>2021-10-13T10:43:04Z</time>
      </trkpt>
      <trkpt lat="40.040425" lon="-6.063200">
        <ele>345.339</ele>
        <time>2021-10-13T10:43:06Z</time>
      </trkpt>
      <trkpt lat="40.040588" lon="-6.063056">
        <ele>346.375</ele>
        <time>2021-10-13T10:43:07Z</time>
      </trkpt>
      <trkpt lat="40.040752" lon="-6.062906">
        <ele>347.194</ele>
        <time>2021-10-13T10:43:08Z</time>
      </trkpt>
      <trkpt lat="40.041056" lon="-6.062625">
        <ele>347.879</ele>
        <time>2021-10-13T10:43:10Z</time>
      </trkpt>
      <trkpt lat="40.041214" lon="-6.062481">
        <ele>348.853</ele>
        <time>2021-10-13T10:43:11Z</time>
      </trkpt>
      <trkpt lat="40.041520" lon="-6.062167">
        <ele>350.404</ele>
        <time>2021-10-13T10:43:13Z</time>
      </trkpt>
      <trkpt lat="40.041670" lon="-6.061983">
        <ele>350.714</ele>
        <time>2021-10-13T10:43:14Z</time>
      </trkpt>
      <trkpt lat="40.041928" lon="-6.061577">
        <ele>353.208</ele>
        <time>2021-10-13T10:43:16Z</time>
      </trkpt>
      <trkpt lat="40.042040" lon="-6.061331">
        <ele>354.153</ele>
        <time>2021-10-13T10:43:17Z</time>
      </trkpt>
      <trkpt lat="40.042140" lon="-6.061064">
        <ele>354.931</ele>
        <time>2021-10-13T10:43:18Z</time>
      </trkpt>
      <trkpt lat="40.042336" lon="-6.060495">
        <ele>357.448</ele>
        <time>2021-10-13T10:43:20Z</time>
      </trkpt>
      <trkpt lat="40.042530" lon="-6.059953">
        <ele>359.768</ele>
        <time>2021-10-13T10:43:22Z</time>
      </trkpt>
      <trkpt lat="40.042627" lon="-6.059693">
        <ele>360.831</ele>
        <time>2021-10-13T10:43:23Z</time>
      </trkpt>
      <trkpt lat="40.042820" lon="-6.059186">
        <ele>363.097</ele>
        <time>2021-10-13T10:43:25Z</time>
      </trkpt>
      <trkpt lat="40.042921" lon="-6.058925">
        <ele>363.776</ele>
        <time>2021-10-13T10:43:26Z</time>
      </trkpt>
      <trkpt lat="40.043121" lon="-6.058410">
        <ele>364.721</ele>
        <time>2021-10-13T10:43:28Z</time>
      </trkpt>
      <trkpt lat="40.043229" lon="-6.058131">
        <ele>364.945</ele>
        <time>2021-10-13T10:43:29Z</time>
      </trkpt>
      <trkpt lat="40.043343" lon="-6.057845">
        <ele>365.147</ele>
        <time>2021-10-13T10:43:30Z</time>
      </trkpt>
      <trkpt lat="40.043460" lon="-6.057554">
        <ele>365.111</ele>
        <time>2021-10-13T10:43:31Z</time>
      </trkpt>
      <trkpt lat="40.043582" lon="-6.057252">
        <ele>364.708</ele>
        <time>2021-10-13T10:43:32Z</time>
      </trkpt>
      <trkpt lat="40.043811" lon="-6.056707">
        <ele>364.392</ele>
        <time>2021-10-13T10:43:34Z</time>
      </trkpt>
      <trkpt lat="40.044022" lon="-6.056194">
        <ele>364.470</ele>
        <time>2021-10-13T10:43:36Z</time>
      </trkpt>
      <trkpt lat="40.044115" lon="-6.055950">
        <ele>364.457</ele>
        <time>2021-10-13T10:43:37Z</time>
      </trkpt>
      <trkpt lat="40.044212" lon="-6.055696">
        <ele>364.447</ele>
        <time>2021-10-13T10:43:38Z</time>
      </trkpt>
      <trkpt lat="40.044398" lon="-6.055227">
        <ele>364.220</ele>
        <time>2021-10-13T10:43:40Z</time>
      </trkpt>
      <trkpt lat="40.044496" lon="-6.054985">
        <ele>364.776</ele>
        <time>2021-10-13T10:43:41Z</time>
      </trkpt>
      <trkpt lat="40.044687" lon="-6.054495">
        <ele>364.095</ele>
        <time>2021-10-13T10:43:43Z</time>
      </trkpt>
      <trkpt lat="40.044799" lon="-6.054229">
        <ele>363.750</ele>
        <time>2021-10-13T10:43:44Z</time>
      </trkpt>
      <trkpt lat="40.045030" lon="-6.053751">
        <ele>361.979</ele>
        <time>2021-10-13T10:43:46Z</time>
      </trkpt>
      <trkpt lat="40.045162" lon="-6.053514">
        <ele>361.605</ele>
        <time>2021-10-13T10:43:47Z</time>
      </trkpt>
      <trkpt lat="40.045456" lon="-6.053040">
        <ele>362.125</ele>
        <time>2021-10-13T10:43:49Z</time>
      </trkpt>
      <trkpt lat="40.045624" lon="-6.052793">
        <ele>362.708</ele>
        <time>2021-10-13T10:43:50Z</time>
      </trkpt>
      <trkpt lat="40.045973" lon="-6.052328">
        <ele>363.795</ele>
        <time>2021-10-13T10:43:52Z</time>
      </trkpt>
      <trkpt lat="40.046169" lon="-6.052103">
        <ele>363.763</ele>
        <time>2021-10-13T10:43:53Z</time>
      </trkpt>
      <trkpt lat="40.046566" lon="-6.051720">
        <ele>362.860</ele>
        <time>2021-10-13T10:43:55Z</time>
      </trkpt>
      <trkpt lat="40.046766" lon="-6.051551">
        <ele>361.110</ele>
        <time>2021-10-13T10:43:56Z</time>
      </trkpt>
      <trkpt lat="40.047147" lon="-6.051275">
        <ele>358.583</ele>
        <time>2021-10-13T10:43:58Z</time>
      </trkpt>
      <trkpt lat="40.047332" lon="-6.051158">
        <ele>357.319</ele>
        <time>2021-10-13T10:43:59Z</time>
      </trkpt>
      <trkpt lat="40.047682" lon="-6.050945">
        <ele>355.928</ele>
        <time>2021-10-13T10:44:01Z</time>
      </trkpt>
      <trkpt lat="40.047835" lon="-6.050843">
        <ele>354.933</ele>
        <time>2021-10-13T10:44:02Z</time>
      </trkpt>
      <trkpt lat="40.048113" lon="-6.050654">
        <ele>353.047</ele>
        <time>2021-10-13T10:44:04Z</time>
      </trkpt>
      <trkpt lat="40.048250" lon="-6.050564">
        <ele>351.829</ele>
        <time>2021-10-13T10:44:05Z</time>
      </trkpt>
      <trkpt lat="40.048380" lon="-6.050481">
        <ele>351.221</ele>
        <time>2021-10-13T10:44:06Z</time>
      </trkpt>
      <trkpt lat="40.048614" lon="-6.050337">
        <ele>350.108</ele>
        <time>2021-10-13T10:44:08Z</time>
      </trkpt>
      <trkpt lat="40.048789" lon="-6.050193">
        <ele>349.772</ele>
        <time>2021-10-13T10:44:10Z</time>
      </trkpt>
      <trkpt lat="40.048847" lon="-6.049977">
        <ele>349.430</ele>
        <time>2021-10-13T10:44:12Z</time>
      </trkpt>
      <trkpt lat="40.048886" lon="-6.049741">
        <ele>349.187</ele>
        <time>2021-10-13T10:44:14Z</time>
      </trkpt>
      <trkpt lat="40.048996" lon="-6.049601">
        <ele>349.187</ele>
        <time>2021-10-13T10:44:16Z</time>
      </trkpt>
      <trkpt lat="40.049073" lon="-6.049588">
        <ele>348.790</ele>
        <time>2021-10-13T10:44:17Z</time>
      </trkpt>
      <trkpt lat="40.049154" lon="-6.049594">
        <ele>348.346</ele>
        <time>2021-10-13T10:44:18Z</time>
      </trkpt>
      <trkpt lat="40.049352" lon="-6.049640">
        <ele>347.345</ele>
        <time>2021-10-13T10:44:20Z</time>
      </trkpt>
      <trkpt lat="40.049552" lon="-6.049615">
        <ele>347.530</ele>
        <time>2021-10-13T10:44:22Z</time>
      </trkpt>
      <trkpt lat="40.049659" lon="-6.049559">
        <ele>347.518</ele>
        <time>2021-10-13T10:44:23Z</time>
      </trkpt>
      <trkpt lat="40.049769" lon="-6.049475">
        <ele>347.398</ele>
        <time>2021-10-13T10:44:24Z</time>
      </trkpt>
      <trkpt lat="40.050061" lon="-6.049254">
        <ele>346.917</ele>
        <time>2021-10-13T10:44:26Z</time>
      </trkpt>
      <trkpt lat="40.050419" lon="-6.049011">
        <ele>348.308</ele>
        <time>2021-10-13T10:44:28Z</time>
      </trkpt>
      <trkpt lat="40.050629" lon="-6.048859">
        <ele>349.379</ele>
        <time>2021-10-13T10:44:29Z</time>
      </trkpt>
      <trkpt lat="40.051074" lon="-6.048518">
        <ele>350.787</ele>
        <time>2021-10-13T10:44:31Z</time>
      </trkpt>
      <trkpt lat="40.051325" lon="-6.048324">
        <ele>351.274</ele>
        <time>2021-10-13T10:44:32Z</time>
      </trkpt>
      <trkpt lat="40.051831" lon="-6.047928">
        <ele>351.744</ele>
        <time>2021-10-13T10:44:34Z</time>
      </trkpt>
      <trkpt lat="40.052391" lon="-6.047501">
        <ele>352.967</ele>
        <time>2021-10-13T10:44:36Z</time>
      </trkpt>
      <trkpt lat="40.052911" lon="-6.047063">
        <ele>355.033</ele>
        <time>2021-10-13T10:44:38Z</time>
      </trkpt>
      <trkpt lat="40.053313" lon="-6.046566">
        <ele>357.722</ele>
        <time>2021-10-13T10:44:40Z</time>
      </trkpt>
      <trkpt lat="40.053467" lon="-6.046269">
        <ele>359.527</ele>
        <time>2021-10-13T10:44:41Z</time>
      </trkpt>
      <trkpt lat="40.053679" lon="-6.045629">
        <ele>362.451</ele>
        <time>2021-10-13T10:44:43Z</time>
      </trkpt>
      <trkpt lat="40.053756" lon="-6.045278">
        <ele>364.401</ele>
        <time>2021-10-13T10:44:44Z</time>
      </trkpt>
      <trkpt lat="40.053829" lon="-6.044576">
        <ele>368.511</ele>
        <time>2021-10-13T10:44:46Z</time>
      </trkpt>
      <trkpt lat="40.053850" lon="-6.044207">
        <ele>370.208</ele>
        <time>2021-10-13T10:44:47Z</time>
      </trkpt>
      <trkpt lat="40.053934" lon="-6.043508">
        <ele>373.383</ele>
        <time>2021-10-13T10:44:49Z</time>
      </trkpt>
      <trkpt lat="40.053981" lon="-6.043152">
        <ele>374.871</ele>
        <time>2021-10-13T10:44:50Z</time>
      </trkpt>
      <trkpt lat="40.054063" lon="-6.042491">
        <ele>376.928</ele>
        <time>2021-10-13T10:44:52Z</time>
      </trkpt>
      <trkpt lat="40.054102" lon="-6.042147">
        <ele>377.298</ele>
        <time>2021-10-13T10:44:53Z</time>
      </trkpt>
      <trkpt lat="40.054184" lon="-6.041530">
        <ele>379.031</ele>
        <time>2021-10-13T10:44:55Z</time>
      </trkpt>
      <trkpt lat="40.054224" lon="-6.041234">
        <ele>379.367</ele>
        <time>2021-10-13T10:44:56Z</time>
      </trkpt>
      <trkpt lat="40.054306" lon="-6.040733">
        <ele>380.456</ele>
        <time>2021-10-13T10:44:58Z</time>
      </trkpt>
      <trkpt lat="40.054402" lon="-6.040366">
        <ele>380.981</ele>
        <time>2021-10-13T10:45:00Z</time>
      </trkpt>
      <trkpt lat="40.054535" lon="-6.039969">
        <ele>381.675</ele>
        <time>2021-10-13T10:45:02Z</time>
      </trkpt>
      <trkpt lat="40.054688" lon="-6.039557">
        <ele>383.628</ele>
        <time>2021-10-13T10:45:04Z</time>
      </trkpt>
      <trkpt lat="40.054768" lon="-6.039331">
        <ele>384.420</ele>
        <time>2021-10-13T10:45:05Z</time>
      </trkpt>
      <trkpt lat="40.054847" lon="-6.039101">
        <ele>385.008</ele>
        <time>2021-10-13T10:45:06Z</time>
      </trkpt>
      <trkpt lat="40.055011" lon="-6.038617">
        <ele>386.425</ele>
        <time>2021-10-13T10:45:08Z</time>
      </trkpt>
      <trkpt lat="40.055147" lon="-6.038199">
        <ele>387.433</ele>
        <time>2021-10-13T10:45:10Z</time>
      </trkpt>
      <trkpt lat="40.055211" lon="-6.038002">
        <ele>387.730</ele>
        <time>2021-10-13T10:45:11Z</time>
      </trkpt>
      <trkpt lat="40.055381" lon="-6.037618">
        <ele>389.450</ele>
        <time>2021-10-13T10:45:13Z</time>
      </trkpt>
      <trkpt lat="40.055490" lon="-6.037422">
        <ele>389.983</ele>
        <time>2021-10-13T10:45:14Z</time>
      </trkpt>
      <trkpt lat="40.055708" lon="-6.037049">
        <ele>390.289</ele>
        <time>2021-10-13T10:45:16Z</time>
      </trkpt>
      <trkpt lat="40.055943" lon="-6.036646">
        <ele>389.728</ele>
        <time>2021-10-13T10:45:18Z</time>
      </trkpt>
      <trkpt lat="40.056188" lon="-6.036207">
        <ele>389.013</ele>
        <time>2021-10-13T10:45:20Z</time>
      </trkpt>
      <trkpt lat="40.056413" lon="-6.035743">
        <ele>388.392</ele>
        <time>2021-10-13T10:45:22Z</time>
      </trkpt>
      <trkpt lat="40.056514" lon="-6.035481">
        <ele>388.273</ele>
        <time>2021-10-13T10:45:23Z</time>
      </trkpt>
      <trkpt lat="40.056662" lon="-6.034917">
        <ele>389.020</ele>
        <time>2021-10-13T10:45:25Z</time>
      </trkpt>
      <trkpt lat="40.056708" lon="-6.034601">
        <ele>389.208</ele>
        <time>2021-10-13T10:45:26Z</time>
      </trkpt>
      <trkpt lat="40.056746" lon="-6.033984">
        <ele>389.067</ele>
        <time>2021-10-13T10:45:28Z</time>
      </trkpt>
      <trkpt lat="40.056765" lon="-6.033664">
        <ele>388.465</ele>
        <time>2021-10-13T10:45:29Z</time>
      </trkpt>
      <trkpt lat="40.056800" lon="-6.033078">
        <ele>387.212</ele>
        <time>2021-10-13T10:45:31Z</time>
      </trkpt>
      <trkpt lat="40.056825" lon="-6.032784">
        <ele>386.412</ele>
        <time>2021-10-13T10:45:32Z</time>
      </trkpt>
      <trkpt lat="40.056883" lon="-6.032222">
        <ele>385.815</ele>
        <time>2021-10-13T10:45:34Z</time>
      </trkpt>
      <trkpt lat="40.056972" lon="-6.031654">
        <ele>385.011</ele>
        <time>2021-10-13T10:45:36Z</time>
      </trkpt>
      <trkpt lat="40.057045" lon="-6.031367">
        <ele>384.730</ele>
        <time>2021-10-13T10:45:37Z</time>
      </trkpt>
      <trkpt lat="40.057152" lon="-6.031084">
        <ele>384.275</ele>
        <time>2021-10-13T10:45:38Z</time>
      </trkpt>
      <trkpt lat="40.057435" lon="-6.030606">
        <ele>383.322</ele>
        <time>2021-10-13T10:45:40Z</time>
      </trkpt>
      <trkpt lat="40.057741" lon="-6.030184">
        <ele>383.462</ele>
        <time>2021-10-13T10:45:42Z</time>
      </trkpt>
      <trkpt lat="40.058012" lon="-6.029715">
        <ele>383.808</ele>
        <time>2021-10-13T10:45:44Z</time>
      </trkpt>
      <trkpt lat="40.058190" lon="-6.029159">
        <ele>384.008</ele>
        <time>2021-10-13T10:45:46Z</time>
      </trkpt>
      <trkpt lat="40.058245" lon="-6.028840">
        <ele>384.060</ele>
        <time>2021-10-13T10:45:47Z</time>
      </trkpt>
      <trkpt lat="40.058330" lon="-6.028150">
        <ele>383.228</ele>
        <time>2021-10-13T10:45:49Z</time>
      </trkpt>
      <trkpt lat="40.058377" lon="-6.027777">
        <ele>382.775</ele>
        <time>2021-10-13T10:45:50Z</time>
      </trkpt>
      <trkpt lat="40.058487" lon="-6.027078">
        <ele>382.645</ele>
        <time>2021-10-13T10:45:52Z</time>
      </trkpt>
      <trkpt lat="40.058612" lon="-6.026320">
        <ele>381.868</ele>
        <time>2021-10-13T10:45:54Z</time>
      </trkpt>
      <trkpt lat="40.058679" lon="-6.025911">
        <ele>381.644</ele>
        <time>2021-10-13T10:45:55Z</time>
      </trkpt>
      <trkpt lat="40.058756" lon="-6.025464">
        <ele>381.133</ele>
        <time>2021-10-13T10:45:56Z</time>
      </trkpt>
      <trkpt lat="40.058925" lon="-6.024643">
        <ele>380.228</ele>
        <time>2021-10-13T10:45:58Z</time>
      </trkpt>
      <trkpt lat="40.059085" lon="-6.023891">
        <ele>379.057</ele>
        <time>2021-10-13T10:46:00Z</time>
      </trkpt>
      <trkpt lat="40.059208" lon="-6.023240">
        <ele>377.800</ele>
        <time>2021-10-13T10:46:02Z</time>
      </trkpt>
      <trkpt lat="40.059292" lon="-6.022724">
        <ele>376.820</ele>
        <time>2021-10-13T10:46:04Z</time>
      </trkpt>
      <trkpt lat="40.059329" lon="-6.022481">
        <ele>377.008</ele>
        <time>2021-10-13T10:46:05Z</time>
      </trkpt>
      <trkpt lat="40.059412" lon="-6.022005">
        <ele>377.043</ele>
        <time>2021-10-13T10:46:07Z</time>
      </trkpt>
      <trkpt lat="40.059479" lon="-6.021747">
        <ele>376.381</ele>
        <time>2021-10-13T10:46:08Z</time>
      </trkpt>
      <trkpt lat="40.059660" lon="-6.021253">
        <ele>375.998</ele>
        <time>2021-10-13T10:46:10Z</time>
      </trkpt>
      <trkpt lat="40.059783" lon="-6.020993">
        <ele>375.888</ele>
        <time>2021-10-13T10:46:11Z</time>
      </trkpt>
      <trkpt lat="40.060079" lon="-6.020521">
        <ele>376.021</ele>
        <time>2021-10-13T10:46:13Z</time>
      </trkpt>
      <trkpt lat="40.060250" lon="-6.020309">
        <ele>376.497</ele>
        <time>2021-10-13T10:46:14Z</time>
      </trkpt>
      <trkpt lat="40.060626" lon="-6.019915">
        <ele>378.486</ele>
        <time>2021-10-13T10:46:16Z</time>
      </trkpt>
      <trkpt lat="40.061078" lon="-6.019494">
        <ele>379.881</ele>
        <time>2021-10-13T10:46:18Z</time>
      </trkpt>
      <trkpt lat="40.061301" lon="-6.019217">
        <ele>380.915</ele>
        <time>2021-10-13T10:46:19Z</time>
      </trkpt>
      <trkpt lat="40.061560" lon="-6.018929">
        <ele>382.665</ele>
        <time>2021-10-13T10:46:20Z</time>
      </trkpt>
      <trkpt lat="40.062739" lon="-6.017766">
        <ele>387.611</ele>
        <time>2021-10-13T10:46:24Z</time>
      </trkpt>
      <trkpt lat="40.063296" lon="-6.017201">
        <ele>393.108</ele>
        <time>2021-10-13T10:46:26Z</time>
      </trkpt>
      <trkpt lat="40.063779" lon="-6.016712">
        <ele>396.769</ele>
        <time>2021-10-13T10:46:28Z</time>
      </trkpt>
      <trkpt lat="40.064211" lon="-6.016269">
        <ele>398.837</ele>
        <time>2021-10-13T10:46:30Z</time>
      </trkpt>
      <trkpt lat="40.064643" lon="-6.015811">
        <ele>400.854</ele>
        <time>2021-10-13T10:46:32Z</time>
      </trkpt>
      <trkpt lat="40.065024" lon="-6.015395">
        <ele>401.974</ele>
        <time>2021-10-13T10:46:34Z</time>
      </trkpt>
      <trkpt lat="40.065210" lon="-6.015158">
        <ele>402.167</ele>
        <time>2021-10-13T10:46:35Z</time>
      </trkpt>
      <trkpt lat="40.065395" lon="-6.014905">
        <ele>402.063</ele>
        <time>2021-10-13T10:46:36Z</time>
      </trkpt>
      <trkpt lat="40.065764" lon="-6.014347">
        <ele>401.242</ele>
        <time>2021-10-13T10:46:38Z</time>
      </trkpt>
      <trkpt lat="40.066113" lon="-6.013807">
        <ele>401.197</ele>
        <time>2021-10-13T10:46:40Z</time>
      </trkpt>
      <trkpt lat="40.066297" lon="-6.013534">
        <ele>401.459</ele>
        <time>2021-10-13T10:46:41Z</time>
      </trkpt>
      <trkpt lat="40.066475" lon="-6.013265">
        <ele>401.503</ele>
        <time>2021-10-13T10:46:42Z</time>
      </trkpt>
      <trkpt lat="40.066824" lon="-6.012744">
        <ele>401.623</ele>
        <time>2021-10-13T10:46:44Z</time>
      </trkpt>
      <trkpt lat="40.067157" lon="-6.012246">
        <ele>400.208</ele>
        <time>2021-10-13T10:46:46Z</time>
      </trkpt>
      <trkpt lat="40.067510" lon="-6.011732">
        <ele>398.143</ele>
        <time>2021-10-13T10:46:48Z</time>
      </trkpt>
      <trkpt lat="40.067884" lon="-6.011185">
        <ele>394.511</ele>
        <time>2021-10-13T10:46:50Z</time>
      </trkpt>
      <trkpt lat="40.068247" lon="-6.010642">
        <ele>391.888</ele>
        <time>2021-10-13T10:46:52Z</time>
      </trkpt>
      <trkpt lat="40.068610" lon="-6.010056">
        <ele>389.368</ele>
        <time>2021-10-13T10:46:54Z</time>
      </trkpt>
      <trkpt lat="40.068774" lon="-6.009744">
        <ele>388.661</ele>
        <time>2021-10-13T10:46:55Z</time>
      </trkpt>
      <trkpt lat="40.068905" lon="-6.009410">
        <ele>387.387</ele>
        <time>2021-10-13T10:46:56Z</time>
      </trkpt>
      <trkpt lat="40.069057" lon="-6.008772">
        <ele>387.546</ele>
        <time>2021-10-13T10:46:58Z</time>
      </trkpt>
      <trkpt lat="40.069121" lon="-6.008443">
        <ele>386.831</ele>
        <time>2021-10-13T10:46:59Z</time>
      </trkpt>
      <trkpt lat="40.069280" lon="-6.007787">
        <ele>386.482</ele>
        <time>2021-10-13T10:47:01Z</time>
      </trkpt>
      <trkpt lat="40.069380" lon="-6.007442">
        <ele>386.143</ele>
        <time>2021-10-13T10:47:02Z</time>
      </trkpt>
      <trkpt lat="40.069625" lon="-6.006809">
        <ele>386.517</ele>
        <time>2021-10-13T10:47:04Z</time>
      </trkpt>
      <trkpt lat="40.069776" lon="-6.006497">
        <ele>387.108</ele>
        <time>2021-10-13T10:47:05Z</time>
      </trkpt>
      <trkpt lat="40.069942" lon="-6.006192">
        <ele>387.596</ele>
        <time>2021-10-13T10:47:06Z</time>
      </trkpt>
      <trkpt lat="40.070281" lon="-6.005586">
        <ele>389.444</ele>
        <time>2021-10-13T10:47:08Z</time>
      </trkpt>
      <trkpt lat="40.070606" lon="-6.005020">
        <ele>390.951</ele>
        <time>2021-10-13T10:47:10Z</time>
      </trkpt>
      <trkpt lat="40.070927" lon="-6.004462">
        <ele>393.271</ele>
        <time>2021-10-13T10:47:12Z</time>
      </trkpt>
      <trkpt lat="40.071272" lon="-6.003931">
        <ele>395.064</ele>
        <time>2021-10-13T10:47:14Z</time>
      </trkpt>
      <trkpt lat="40.071678" lon="-6.003510">
        <ele>397.220</ele>
        <time>2021-10-13T10:47:16Z</time>
      </trkpt>
      <trkpt lat="40.072188" lon="-6.003185">
        <ele>398.239</ele>
        <time>2021-10-13T10:47:18Z</time>
      </trkpt>
      <trkpt lat="40.072759" lon="-6.002916">
        <ele>399.724</ele>
        <time>2021-10-13T10:47:20Z</time>
      </trkpt>
      <trkpt lat="40.073305" lon="-6.002671">
        <ele>400.869</ele>
        <time>2021-10-13T10:47:22Z</time>
      </trkpt>
      <trkpt lat="40.073590" lon="-6.002542">
        <ele>401.204</ele>
        <time>2021-10-13T10:47:23Z</time>
      </trkpt>
      <trkpt lat="40.074148" lon="-6.002271">
        <ele>401.524</ele>
        <time>2021-10-13T10:47:25Z</time>
      </trkpt>
      <trkpt lat="40.074439" lon="-6.002116">
        <ele>401.908</ele>
        <time>2021-10-13T10:47:26Z</time>
      </trkpt>
      <trkpt lat="40.074951" lon="-6.001825">
        <ele>402.274</ele>
        <time>2021-10-13T10:47:28Z</time>
      </trkpt>
      <trkpt lat="40.075208" lon="-6.001680">
        <ele>402.412</ele>
        <time>2021-10-13T10:47:29Z</time>
      </trkpt>
      <trkpt lat="40.075659" lon="-6.001329">
        <ele>402.139</ele>
        <time>2021-10-13T10:47:31Z</time>
      </trkpt>
      <trkpt lat="40.075878" lon="-6.001116">
        <ele>402.199</ele>
        <time>2021-10-13T10:47:32Z</time>
      </trkpt>
      <trkpt lat="40.076295" lon="-6.000658">
        <ele>402.782</ele>
        <time>2021-10-13T10:47:34Z</time>
      </trkpt>
      <trkpt lat="40.076506" lon="-6.000413">
        <ele>402.658</ele>
        <time>2021-10-13T10:47:35Z</time>
      </trkpt>
      <trkpt lat="40.076918" lon="-5.999903">
        <ele>403.387</ele>
        <time>2021-10-13T10:47:37Z</time>
      </trkpt>
      <trkpt lat="40.077126" lon="-5.999626">
        <ele>404.192</ele>
        <time>2021-10-13T10:47:38Z</time>
      </trkpt>
      <trkpt lat="40.077515" lon="-5.999060">
        <ele>404.575</ele>
        <time>2021-10-13T10:47:40Z</time>
      </trkpt>
      <trkpt lat="40.077884" lon="-5.998437">
        <ele>405.928</ele>
        <time>2021-10-13T10:47:42Z</time>
      </trkpt>
      <trkpt lat="40.078243" lon="-5.997777">
        <ele>405.720</ele>
        <time>2021-10-13T10:47:44Z</time>
      </trkpt>
      <trkpt lat="40.078559" lon="-5.997185">
        <ele>406.508</ele>
        <time>2021-10-13T10:47:46Z</time>
      </trkpt>
      <trkpt lat="40.078725" lon="-5.996893">
        <ele>406.695</ele>
        <time>2021-10-13T10:47:47Z</time>
      </trkpt>
      <trkpt lat="40.078891" lon="-5.996603">
        <ele>406.673</ele>
        <time>2021-10-13T10:47:48Z</time>
      </trkpt>
      <trkpt lat="40.079062" lon="-5.996316">
        <ele>406.740</ele>
        <time>2021-10-13T10:47:49Z</time>
      </trkpt>
      <trkpt lat="40.079254" lon="-5.996031">
        <ele>406.740</ele>
        <time>2021-10-13T10:47:50Z</time>
      </trkpt>
      <trkpt lat="40.079675" lon="-5.995563">
        <ele>406.043</ele>
        <time>2021-10-13T10:47:52Z</time>
      </trkpt>
      <trkpt lat="40.079923" lon="-5.995360">
        <ele>405.889</ele>
        <time>2021-10-13T10:47:53Z</time>
      </trkpt>
      <trkpt lat="40.080189" lon="-5.995196">
        <ele>405.198</ele>
        <time>2021-10-13T10:47:54Z</time>
      </trkpt>
      <trkpt lat="40.080471" lon="-5.995063">
        <ele>404.323</ele>
        <time>2021-10-13T10:47:55Z</time>
      </trkpt>
      <trkpt lat="40.080773" lon="-5.994962">
        <ele>403.263</ele>
        <time>2021-10-13T10:47:56Z</time>
      </trkpt>
      <trkpt lat="40.081346" lon="-5.994817">
        <ele>401.744</ele>
        <time>2021-10-13T10:47:58Z</time>
      </trkpt>
      <trkpt lat="40.081933" lon="-5.994652">
        <ele>400.318</ele>
        <time>2021-10-13T10:48:00Z</time>
      </trkpt>
      <trkpt lat="40.082225" lon="-5.994558">
        <ele>399.508</ele>
        <time>2021-10-13T10:48:01Z</time>
      </trkpt>
      <trkpt lat="40.082532" lon="-5.994450">
        <ele>398.484</ele>
        <time>2021-10-13T10:48:02Z</time>
      </trkpt>
      <trkpt lat="40.083086" lon="-5.994292">
        <ele>396.572</ele>
        <time>2021-10-13T10:48:04Z</time>
      </trkpt>
      <trkpt lat="40.083361" lon="-5.994221">
        <ele>395.739</ele>
        <time>2021-10-13T10:48:05Z</time>
      </trkpt>
      <trkpt lat="40.083858" lon="-5.994039">
        <ele>393.859</ele>
        <time>2021-10-13T10:48:07Z</time>
      </trkpt>
      <trkpt lat="40.084118" lon="-5.993909">
        <ele>393.052</ele>
        <time>2021-10-13T10:48:08Z</time>
      </trkpt>
      <trkpt lat="40.084598" lon="-5.993581">
        <ele>391.958</ele>
        <time>2021-10-13T10:48:10Z</time>
      </trkpt>
      <trkpt lat="40.085050" lon="-5.993149">
        <ele>390.947</ele>
        <time>2021-10-13T10:48:12Z</time>
      </trkpt>
      <trkpt lat="40.085483" lon="-5.992700">
        <ele>390.852</ele>
        <time>2021-10-13T10:48:14Z</time>
      </trkpt>
      <trkpt lat="40.085906" lon="-5.992282">
        <ele>390.442</ele>
        <time>2021-10-13T10:48:16Z</time>
      </trkpt>
      <trkpt lat="40.086139" lon="-5.992065">
        <ele>389.722</ele>
        <time>2021-10-13T10:48:17Z</time>
      </trkpt>
      <trkpt lat="40.086383" lon="-5.991846">
        <ele>389.414</ele>
        <time>2021-10-13T10:48:18Z</time>
      </trkpt>
      <trkpt lat="40.086868" lon="-5.991409">
        <ele>389.308</ele>
        <time>2021-10-13T10:48:20Z</time>
      </trkpt>
      <trkpt lat="40.087281" lon="-5.990941">
        <ele>388.462</ele>
        <time>2021-10-13T10:48:22Z</time>
      </trkpt>
      <trkpt lat="40.087459" lon="-5.990659">
        <ele>388.520</ele>
        <time>2021-10-13T10:48:23Z</time>
      </trkpt>
      <trkpt lat="40.087598" lon="-5.990348">
        <ele>388.777</ele>
        <time>2021-10-13T10:48:24Z</time>
      </trkpt>
      <trkpt lat="40.087696" lon="-5.990005">
        <ele>388.677</ele>
        <time>2021-10-13T10:48:25Z</time>
      </trkpt>
      <trkpt lat="40.087756" lon="-5.989627">
        <ele>388.430</ele>
        <time>2021-10-13T10:48:26Z</time>
      </trkpt>
      <trkpt lat="40.087753" lon="-5.988891">
        <ele>387.746</ele>
        <time>2021-10-13T10:48:28Z</time>
      </trkpt>
      <trkpt lat="40.087754" lon="-5.988513">
        <ele>386.925</ele>
        <time>2021-10-13T10:48:29Z</time>
      </trkpt>
      <trkpt lat="40.087785" lon="-5.988139">
        <ele>386.550</ele>
        <time>2021-10-13T10:48:30Z</time>
      </trkpt>
      <trkpt lat="40.087840" lon="-5.987768">
        <ele>385.882</ele>
        <time>2021-10-13T10:48:31Z</time>
      </trkpt>
      <trkpt lat="40.087912" lon="-5.987388">
        <ele>384.543</ele>
        <time>2021-10-13T10:48:32Z</time>
      </trkpt>
      <trkpt lat="40.088033" lon="-5.986674">
        <ele>382.517</ele>
        <time>2021-10-13T10:48:34Z</time>
      </trkpt>
      <trkpt lat="40.088166" lon="-5.985965">
        <ele>380.408</ele>
        <time>2021-10-13T10:48:36Z</time>
      </trkpt>
      <trkpt lat="40.088333" lon="-5.985294">
        <ele>379.076</ele>
        <time>2021-10-13T10:48:38Z</time>
      </trkpt>
      <trkpt lat="40.088585" lon="-5.984715">
        <ele>378.314</ele>
        <time>2021-10-13T10:48:40Z</time>
      </trkpt>
      <trkpt lat="40.088763" lon="-5.984451">
        <ele>378.131</ele>
        <time>2021-10-13T10:48:41Z</time>
      </trkpt>
      <trkpt lat="40.088993" lon="-5.984236">
        <ele>378.431</ele>
        <time>2021-10-13T10:48:42Z</time>
      </trkpt>
      <trkpt lat="40.089486" lon="-5.983821">
        <ele>379.794</ele>
        <time>2021-10-13T10:48:44Z</time>
      </trkpt>
      <trkpt lat="40.089939" lon="-5.983411">
        <ele>381.350</ele>
        <time>2021-10-13T10:48:46Z</time>
      </trkpt>
      <trkpt lat="40.090392" lon="-5.983010">
        <ele>382.459</ele>
        <time>2021-10-13T10:48:48Z</time>
      </trkpt>
      <trkpt lat="40.090879" lon="-5.982712">
        <ele>383.424</ele>
        <time>2021-10-13T10:48:50Z</time>
      </trkpt>
      <trkpt lat="40.091337" lon="-5.982425">
        <ele>384.585</ele>
        <time>2021-10-13T10:48:52Z</time>
      </trkpt>
      <trkpt lat="40.091773" lon="-5.982130">
        <ele>384.889</ele>
        <time>2021-10-13T10:48:54Z</time>
      </trkpt>
      <trkpt lat="40.091974" lon="-5.981965">
        <ele>385.417</ele>
        <time>2021-10-13T10:48:55Z</time>
      </trkpt>
      <trkpt lat="40.092160" lon="-5.981761">
        <ele>385.408</ele>
        <time>2021-10-13T10:48:56Z</time>
      </trkpt>
      <trkpt lat="40.092270" lon="-5.981140">
        <ele>385.926</ele>
        <time>2021-10-13T10:48:58Z</time>
      </trkpt>
      <trkpt lat="40.092431" lon="-5.980431">
        <ele>386.414</ele>
        <time>2021-10-13T10:49:00Z</time>
      </trkpt>
      <trkpt lat="40.092530" lon="-5.980079">
        <ele>386.041</ele>
        <time>2021-10-13T10:49:01Z</time>
      </trkpt>
      <trkpt lat="40.092656" lon="-5.979729">
        <ele>385.851</ele>
        <time>2021-10-13T10:49:02Z</time>
      </trkpt>
      <trkpt lat="40.092953" lon="-5.979096">
        <ele>386.284</ele>
        <time>2021-10-13T10:49:04Z</time>
      </trkpt>
      <trkpt lat="40.093113" lon="-5.978784">
        <ele>385.830</ele>
        <time>2021-10-13T10:49:05Z</time>
      </trkpt>
      <trkpt lat="40.093270" lon="-5.978474">
        <ele>385.089</ele>
        <time>2021-10-13T10:49:06Z</time>
      </trkpt>
      <trkpt lat="40.093418" lon="-5.978158">
        <ele>384.174</ele>
        <time>2021-10-13T10:49:07Z</time>
      </trkpt>
      <trkpt lat="40.093554" lon="-5.977821">
        <ele>383.977</ele>
        <time>2021-10-13T10:49:08Z</time>
      </trkpt>
      <trkpt lat="40.093778" lon="-5.977149">
        <ele>382.761</ele>
        <time>2021-10-13T10:49:10Z</time>
      </trkpt>
      <trkpt lat="40.094001" lon="-5.976471">
        <ele>382.427</ele>
        <time>2021-10-13T10:49:12Z</time>
      </trkpt>
      <trkpt lat="40.094112" lon="-5.975731">
        <ele>383.708</ele>
        <time>2021-10-13T10:49:14Z</time>
      </trkpt>
      <trkpt lat="40.094110" lon="-5.975024">
        <ele>384.345</ele>
        <time>2021-10-13T10:49:16Z</time>
      </trkpt>
      <trkpt lat="40.094108" lon="-5.974316">
        <ele>384.033</ele>
        <time>2021-10-13T10:49:18Z</time>
      </trkpt>
      <trkpt lat="40.094119" lon="-5.973958">
        <ele>383.810</ele>
        <time>2021-10-13T10:49:19Z</time>
      </trkpt>
      <trkpt lat="40.094133" lon="-5.973587">
        <ele>384.090</ele>
        <time>2021-10-13T10:49:20Z</time>
      </trkpt>
      <trkpt lat="40.094136" lon="-5.972867">
        <ele>383.093</ele>
        <time>2021-10-13T10:49:22Z</time>
      </trkpt>
      <trkpt lat="40.094145" lon="-5.972500">
        <ele>382.719</ele>
        <time>2021-10-13T10:49:23Z</time>
      </trkpt>
      <trkpt lat="40.094175" lon="-5.972132">
        <ele>382.388</ele>
        <time>2021-10-13T10:49:24Z</time>
      </trkpt>
      <trkpt lat="40.094306" lon="-5.971385">
        <ele>381.113</ele>
        <time>2021-10-13T10:49:26Z</time>
      </trkpt>
      <trkpt lat="40.094521" lon="-5.970709">
        <ele>381.116</ele>
        <time>2021-10-13T10:49:28Z</time>
      </trkpt>
      <trkpt lat="40.094661" lon="-5.970386">
        <ele>380.676</ele>
        <time>2021-10-13T10:49:29Z</time>
      </trkpt>
      <trkpt lat="40.094964" lon="-5.969821">
        <ele>379.213</ele>
        <time>2021-10-13T10:49:31Z</time>
      </trkpt>
      <trkpt lat="40.095130" lon="-5.969583">
        <ele>378.108</ele>
        <time>2021-10-13T10:49:32Z</time>
      </trkpt>
      <trkpt lat="40.095427" lon="-5.969256">
        <ele>377.319</ele>
        <time>2021-10-13T10:49:34Z</time>
      </trkpt>
      <trkpt lat="40.095704" lon="-5.968974">
        <ele>377.327</ele>
        <time>2021-10-13T10:49:36Z</time>
      </trkpt>
      <trkpt lat="40.095846" lon="-5.968811">
        <ele>377.744</ele>
        <time>2021-10-13T10:49:37Z</time>
      </trkpt>
      <trkpt lat="40.096002" lon="-5.968632">
        <ele>377.844</ele>
        <time>2021-10-13T10:49:38Z</time>
      </trkpt>
      <trkpt lat="40.096312" lon="-5.968248">
        <ele>378.147</ele>
        <time>2021-10-13T10:49:40Z</time>
      </trkpt>
      <trkpt lat="40.096481" lon="-5.968038">
        <ele>378.523</ele>
        <time>2021-10-13T10:49:41Z</time>
      </trkpt>
      <trkpt lat="40.096649" lon="-5.967823">
        <ele>378.842</ele>
        <time>2021-10-13T10:49:42Z</time>
      </trkpt>
      <trkpt lat="40.096983" lon="-5.967381">
        <ele>378.967</ele>
        <time>2021-10-13T10:49:44Z</time>
      </trkpt>
      <trkpt lat="40.097299" lon="-5.966946">
        <ele>378.751</ele>
        <time>2021-10-13T10:49:46Z</time>
      </trkpt>
      <trkpt lat="40.097459" lon="-5.966720">
        <ele>378.901</ele>
        <time>2021-10-13T10:49:47Z</time>
      </trkpt>
      <trkpt lat="40.097615" lon="-5.966493">
        <ele>379.111</ele>
        <time>2021-10-13T10:49:48Z</time>
      </trkpt>
      <trkpt lat="40.097900" lon="-5.966069">
        <ele>379.008</ele>
        <time>2021-10-13T10:49:50Z</time>
      </trkpt>
      <trkpt lat="40.098125" lon="-5.965667">
        <ele>379.153</ele>
        <time>2021-10-13T10:49:52Z</time>
      </trkpt>
      <trkpt lat="40.098232" lon="-5.965459">
        <ele>378.991</ele>
        <time>2021-10-13T10:49:53Z</time>
      </trkpt>
      <trkpt lat="40.098333" lon="-5.965267">
        <ele>379.388</ele>
        <time>2021-10-13T10:49:54Z</time>
      </trkpt>
      <trkpt lat="40.098423" lon="-5.965096">
        <ele>380.148</ele>
        <time>2021-10-13T10:49:55Z</time>
      </trkpt>
      <trkpt lat="40.098508" lon="-5.964928">
        <ele>380.761</ele>
        <time>2021-10-13T10:49:56Z</time>
      </trkpt>
      <trkpt lat="40.098652" lon="-5.964610">
        <ele>381.297</ele>
        <time>2021-10-13T10:49:58Z</time>
      </trkpt>
      <trkpt lat="40.098734" lon="-5.964420">
        <ele>381.926</ele>
        <time>2021-10-13T10:49:59Z</time>
      </trkpt>
      <trkpt lat="40.098920" lon="-5.963990">
        <ele>382.591</ele>
        <time>2021-10-13T10:50:01Z</time>
      </trkpt>
      <trkpt lat="40.099036" lon="-5.963733">
        <ele>383.076</ele>
        <time>2021-10-13T10:50:02Z</time>
      </trkpt>
      <trkpt lat="40.099265" lon="-5.963240">
        <ele>383.490</ele>
        <time>2021-10-13T10:50:04Z</time>
      </trkpt>
      <trkpt lat="40.099513" lon="-5.962706">
        <ele>384.519</ele>
        <time>2021-10-13T10:50:06Z</time>
      </trkpt>
      <trkpt lat="40.099642" lon="-5.962427">
        <ele>384.508</ele>
        <time>2021-10-13T10:50:07Z</time>
      </trkpt>
      <trkpt lat="40.099779" lon="-5.962131">
        <ele>384.295</ele>
        <time>2021-10-13T10:50:08Z</time>
      </trkpt>
      <trkpt lat="40.100032" lon="-5.961556">
        <ele>384.073</ele>
        <time>2021-10-13T10:50:10Z</time>
      </trkpt>
      <trkpt lat="40.100137" lon="-5.961243">
        <ele>384.410</ele>
        <time>2021-10-13T10:50:11Z</time>
      </trkpt>
      <trkpt lat="40.100208" lon="-5.960915">
        <ele>384.650</ele>
        <time>2021-10-13T10:50:12Z</time>
      </trkpt>
      <trkpt lat="40.100244" lon="-5.960582">
        <ele>384.223</ele>
        <time>2021-10-13T10:50:13Z</time>
      </trkpt>
      <trkpt lat="40.100248" lon="-5.960236">
        <ele>384.299</ele>
        <time>2021-10-13T10:50:14Z</time>
      </trkpt>
      <trkpt lat="40.100214" lon="-5.959594">
        <ele>384.958</ele>
        <time>2021-10-13T10:50:16Z</time>
      </trkpt>
      <trkpt lat="40.100219" lon="-5.959276">
        <ele>385.583</ele>
        <time>2021-10-13T10:50:17Z</time>
      </trkpt>
      <trkpt lat="40.100257" lon="-5.958965">
        <ele>385.597</ele>
        <time>2021-10-13T10:50:18Z</time>
      </trkpt>
      <trkpt lat="40.100333" lon="-5.958666">
        <ele>385.223</ele>
        <time>2021-10-13T10:50:19Z</time>
      </trkpt>
      <trkpt lat="40.100456" lon="-5.958368">
        <ele>385.025</ele>
        <time>2021-10-13T10:50:20Z</time>
      </trkpt>
      <trkpt lat="40.100712" lon="-5.957811">
        <ele>384.208</ele>
        <time>2021-10-13T10:50:22Z</time>
      </trkpt>
      <trkpt lat="40.100954" lon="-5.957221">
        <ele>383.757</ele>
        <time>2021-10-13T10:50:24Z</time>
      </trkpt>
      <trkpt lat="40.101076" lon="-5.956918">
        <ele>384.495</ele>
        <time>2021-10-13T10:50:25Z</time>
      </trkpt>
      <trkpt lat="40.101204" lon="-5.956613">
        <ele>384.682</ele>
        <time>2021-10-13T10:50:26Z</time>
      </trkpt>
      <trkpt lat="40.101479" lon="-5.956084">
        <ele>385.392</ele>
        <time>2021-10-13T10:50:28Z</time>
      </trkpt>
      <trkpt lat="40.101849" lon="-5.955656">
        <ele>385.815</ele>
        <time>2021-10-13T10:50:30Z</time>
      </trkpt>
      <trkpt lat="40.102072" lon="-5.955503">
        <ele>385.631</ele>
        <time>2021-10-13T10:50:31Z</time>
      </trkpt>
      <trkpt lat="40.102325" lon="-5.955395">
        <ele>385.420</ele>
        <time>2021-10-13T10:50:32Z</time>
      </trkpt>
      <trkpt lat="40.102813" lon="-5.955326">
        <ele>385.285</ele>
        <time>2021-10-13T10:50:34Z</time>
      </trkpt>
      <trkpt lat="40.103044" lon="-5.955295">
        <ele>384.597</ele>
        <time>2021-10-13T10:50:35Z</time>
      </trkpt>
      <trkpt lat="40.103498" lon="-5.955216">
        <ele>384.223</ele>
        <time>2021-10-13T10:50:37Z</time>
      </trkpt>
      <trkpt lat="40.103729" lon="-5.955159">
        <ele>384.425</ele>
        <time>2021-10-13T10:50:38Z</time>
      </trkpt>
      <trkpt lat="40.104165" lon="-5.955040">
        <ele>384.808</ele>
        <time>2021-10-13T10:50:40Z</time>
      </trkpt>
      <trkpt lat="40.104384" lon="-5.954975">
        <ele>384.697</ele>
        <time>2021-10-13T10:50:41Z</time>
      </trkpt>
      <trkpt lat="40.104601" lon="-5.954904">
        <ele>384.345</ele>
        <time>2021-10-13T10:50:42Z</time>
      </trkpt>
      <trkpt lat="40.105037" lon="-5.954759">
        <ele>383.632</ele>
        <time>2021-10-13T10:50:44Z</time>
      </trkpt>
      <trkpt lat="40.105450" lon="-5.954615">
        <ele>384.132</ele>
        <time>2021-10-13T10:50:46Z</time>
      </trkpt>
      <trkpt lat="40.105661" lon="-5.954534">
        <ele>384.075</ele>
        <time>2021-10-13T10:50:47Z</time>
      </trkpt>
      <trkpt lat="40.105870" lon="-5.954436">
        <ele>383.561</ele>
        <time>2021-10-13T10:50:48Z</time>
      </trkpt>
      <trkpt lat="40.106280" lon="-5.954161">
        <ele>383.510</ele>
        <time>2021-10-13T10:50:50Z</time>
      </trkpt>
      <trkpt lat="40.106635" lon="-5.953764">
        <ele>384.635</ele>
        <time>2021-10-13T10:50:52Z</time>
      </trkpt>
      <trkpt lat="40.106804" lon="-5.953528">
        <ele>385.529</ele>
        <time>2021-10-13T10:50:53Z</time>
      </trkpt>
      <trkpt lat="40.106974" lon="-5.953291">
        <ele>386.600</ele>
        <time>2021-10-13T10:50:54Z</time>
      </trkpt>
      <trkpt lat="40.107313" lon="-5.952842">
        <ele>388.320</ele>
        <time>2021-10-13T10:50:56Z</time>
      </trkpt>
      <trkpt lat="40.107640" lon="-5.952427">
        <ele>388.408</ele>
        <time>2021-10-13T10:50:58Z</time>
      </trkpt>
      <trkpt lat="40.108001" lon="-5.951988">
        <ele>388.940</ele>
        <time>2021-10-13T10:51:00Z</time>
      </trkpt>
      <trkpt lat="40.108357" lon="-5.951537">
        <ele>388.638</ele>
        <time>2021-10-13T10:51:02Z</time>
      </trkpt>
      <trkpt lat="40.108641" lon="-5.951036">
        <ele>387.595</ele>
        <time>2021-10-13T10:51:04Z</time>
      </trkpt>
      <trkpt lat="40.108823" lon="-5.950445">
        <ele>386.515</ele>
        <time>2021-10-13T10:51:06Z</time>
      </trkpt>
      <trkpt lat="40.108891" lon="-5.949803">
        <ele>385.688</ele>
        <time>2021-10-13T10:51:08Z</time>
      </trkpt>
      <trkpt lat="40.108914" lon="-5.949221">
        <ele>385.364</ele>
        <time>2021-10-13T10:51:10Z</time>
      </trkpt>
      <trkpt lat="40.108932" lon="-5.948932">
        <ele>385.623</ele>
        <time>2021-10-13T10:51:11Z</time>
      </trkpt>
      <trkpt lat="40.108969" lon="-5.948356">
        <ele>386.118</ele>
        <time>2021-10-13T10:51:13Z</time>
      </trkpt>
      <trkpt lat="40.108992" lon="-5.948052">
        <ele>386.798</ele>
        <time>2021-10-13T10:51:14Z</time>
      </trkpt>
      <trkpt lat="40.109044" lon="-5.947466">
        <ele>386.815</ele>
        <time>2021-10-13T10:51:16Z</time>
      </trkpt>
      <trkpt lat="40.109143" lon="-5.946870">
        <ele>387.126</ele>
        <time>2021-10-13T10:51:18Z</time>
      </trkpt>
      <trkpt lat="40.109348" lon="-5.946301">
        <ele>387.108</ele>
        <time>2021-10-13T10:51:20Z</time>
      </trkpt>
      <trkpt lat="40.109624" lon="-5.945841">
        <ele>387.997</ele>
        <time>2021-10-13T10:51:22Z</time>
      </trkpt>
      <trkpt lat="40.109776" lon="-5.945636">
        <ele>387.725</ele>
        <time>2021-10-13T10:51:23Z</time>
      </trkpt>
      <trkpt lat="40.110078" lon="-5.945266">
        <ele>387.532</ele>
        <time>2021-10-13T10:51:25Z</time>
      </trkpt>
      <trkpt lat="40.110230" lon="-5.945094">
        <ele>387.742</ele>
        <time>2021-10-13T10:51:26Z</time>
      </trkpt>
      <trkpt lat="40.110476" lon="-5.944801">
        <ele>387.595</ele>
        <time>2021-10-13T10:51:28Z</time>
      </trkpt>
      <trkpt lat="40.110717" lon="-5.944485">
        <ele>388.271</ele>
        <time>2021-10-13T10:51:30Z</time>
      </trkpt>
      <trkpt lat="40.110835" lon="-5.944319">
        <ele>389.130</ele>
        <time>2021-10-13T10:51:31Z</time>
      </trkpt>
      <trkpt lat="40.110952" lon="-5.944142">
        <ele>389.145</ele>
        <time>2021-10-13T10:51:32Z</time>
      </trkpt>
      <trkpt lat="40.111166" lon="-5.943808">
        <ele>389.062</ele>
        <time>2021-10-13T10:51:34Z</time>
      </trkpt>
      <trkpt lat="40.111278" lon="-5.943633">
        <ele>389.283</ele>
        <time>2021-10-13T10:51:35Z</time>
      </trkpt>
      <trkpt lat="40.111388" lon="-5.943448">
        <ele>389.311</ele>
        <time>2021-10-13T10:51:36Z</time>
      </trkpt>
      <trkpt lat="40.111581" lon="-5.943035">
        <ele>389.308</ele>
        <time>2021-10-13T10:51:38Z</time>
      </trkpt>
      <trkpt lat="40.111722" lon="-5.942608">
        <ele>389.524</ele>
        <time>2021-10-13T10:51:40Z</time>
      </trkpt>
      <trkpt lat="40.111828" lon="-5.942105">
        <ele>389.962</ele>
        <time>2021-10-13T10:51:42Z</time>
      </trkpt>
      <trkpt lat="40.111878" lon="-5.941544">
        <ele>389.339</ele>
        <time>2021-10-13T10:51:44Z</time>
      </trkpt>
      <trkpt lat="40.111892" lon="-5.940952">
        <ele>389.669</ele>
        <time>2021-10-13T10:51:46Z</time>
      </trkpt>
      <trkpt lat="40.111908" lon="-5.940626">
        <ele>389.522</ele>
        <time>2021-10-13T10:51:47Z</time>
      </trkpt>
      <trkpt lat="40.111955" lon="-5.939971">
        <ele>389.588</ele>
        <time>2021-10-13T10:51:49Z</time>
      </trkpt>
      <trkpt lat="40.111989" lon="-5.939627">
        <ele>389.657</ele>
        <time>2021-10-13T10:51:50Z</time>
      </trkpt>
      <trkpt lat="40.112118" lon="-5.939001">
        <ele>389.872</ele>
        <time>2021-10-13T10:51:52Z</time>
      </trkpt>
      <trkpt lat="40.112227" lon="-5.938695">
        <ele>390.122</ele>
        <time>2021-10-13T10:51:53Z</time>
      </trkpt>
      <trkpt lat="40.112541" lon="-5.938121">
        <ele>391.162</ele>
        <time>2021-10-13T10:51:55Z</time>
      </trkpt>
      <trkpt lat="40.112725" lon="-5.937822">
        <ele>390.908</ele>
        <time>2021-10-13T10:51:56Z</time>
      </trkpt>
      <trkpt lat="40.113077" lon="-5.937254">
        <ele>390.808</ele>
        <time>2021-10-13T10:51:58Z</time>
      </trkpt>
      <trkpt lat="40.113439" lon="-5.936682">
        <ele>391.310</ele>
        <time>2021-10-13T10:52:00Z</time>
      </trkpt>
      <trkpt lat="40.113801" lon="-5.936111">
        <ele>391.098</ele>
        <time>2021-10-13T10:52:02Z</time>
      </trkpt>
      <trkpt lat="40.114127" lon="-5.935543">
        <ele>391.365</ele>
        <time>2021-10-13T10:52:04Z</time>
      </trkpt>
      <trkpt lat="40.114298" lon="-5.935251">
        <ele>391.325</ele>
        <time>2021-10-13T10:52:05Z</time>
      </trkpt>
      <trkpt lat="40.114475" lon="-5.934962">
        <ele>391.528</ele>
        <time>2021-10-13T10:52:06Z</time>
      </trkpt>
      <trkpt lat="40.114833" lon="-5.934342">
        <ele>391.394</ele>
        <time>2021-10-13T10:52:08Z</time>
      </trkpt>
      <trkpt lat="40.115187" lon="-5.933703">
        <ele>391.643</ele>
        <time>2021-10-13T10:52:10Z</time>
      </trkpt>
      <trkpt lat="40.115371" lon="-5.933373">
        <ele>391.788</ele>
        <time>2021-10-13T10:52:11Z</time>
      </trkpt>
      <trkpt lat="40.115556" lon="-5.933043">
        <ele>392.012</ele>
        <time>2021-10-13T10:52:12Z</time>
      </trkpt>
      <trkpt lat="40.115930" lon="-5.932400">
        <ele>392.232</ele>
        <time>2021-10-13T10:52:14Z</time>
      </trkpt>
      <trkpt lat="40.116296" lon="-5.931767">
        <ele>391.805</ele>
        <time>2021-10-13T10:52:16Z</time>
      </trkpt>
      <trkpt lat="40.116684" lon="-5.931088">
        <ele>392.708</ele>
        <time>2021-10-13T10:52:18Z</time>
      </trkpt>
      <trkpt lat="40.117077" lon="-5.930382">
        <ele>392.659</ele>
        <time>2021-10-13T10:52:20Z</time>
      </trkpt>
      <trkpt lat="40.117445" lon="-5.929704">
        <ele>392.987</ele>
        <time>2021-10-13T10:52:22Z</time>
      </trkpt>
      <trkpt lat="40.117796" lon="-5.929014">
        <ele>394.644</ele>
        <time>2021-10-13T10:52:24Z</time>
      </trkpt>
      <trkpt lat="40.118137" lon="-5.928303">
        <ele>396.124</ele>
        <time>2021-10-13T10:52:26Z</time>
      </trkpt>
      <trkpt lat="40.118432" lon="-5.927625">
        <ele>397.297</ele>
        <time>2021-10-13T10:52:28Z</time>
      </trkpt>
      <trkpt lat="40.118720" lon="-5.926907">
        <ele>397.953</ele>
        <time>2021-10-13T10:52:30Z</time>
      </trkpt>
      <trkpt lat="40.118857" lon="-5.926541">
        <ele>398.622</ele>
        <time>2021-10-13T10:52:31Z</time>
      </trkpt>
      <trkpt lat="40.118999" lon="-5.926157">
        <ele>399.237</ele>
        <time>2021-10-13T10:52:32Z</time>
      </trkpt>
      <trkpt lat="40.119317" lon="-5.925391">
        <ele>399.955</ele>
        <time>2021-10-13T10:52:34Z</time>
      </trkpt>
      <trkpt lat="40.119480" lon="-5.924975">
        <ele>400.207</ele>
        <time>2021-10-13T10:52:35Z</time>
      </trkpt>
      <trkpt lat="40.120069" lon="-5.923323">
        <ele>400.417</ele>
        <time>2021-10-13T10:52:39Z</time>
      </trkpt>
      <trkpt lat="40.120204" lon="-5.922958">
        <ele>399.708</ele>
        <time>2021-10-13T10:52:40Z</time>
      </trkpt>
      <trkpt lat="40.120476" lon="-5.922258">
        <ele>399.843</ele>
        <time>2021-10-13T10:52:42Z</time>
      </trkpt>
      <trkpt lat="40.120793" lon="-5.921587">
        <ele>399.561</ele>
        <time>2021-10-13T10:52:44Z</time>
      </trkpt>
      <trkpt lat="40.121196" lon="-5.920997">
        <ele>398.478</ele>
        <time>2021-10-13T10:52:46Z</time>
      </trkpt>
      <trkpt lat="40.121424" lon="-5.920709">
        <ele>398.298</ele>
        <time>2021-10-13T10:52:47Z</time>
      </trkpt>
      <trkpt lat="40.121646" lon="-5.920421">
        <ele>399.191</ele>
        <time>2021-10-13T10:52:48Z</time>
      </trkpt>
      <trkpt lat="40.122093" lon="-5.919836">
        <ele>400.067</ele>
        <time>2021-10-13T10:52:50Z</time>
      </trkpt>
      <trkpt lat="40.122521" lon="-5.919287">
        <ele>401.326</ele>
        <time>2021-10-13T10:52:52Z</time>
      </trkpt>
      <trkpt lat="40.122735" lon="-5.919012">
        <ele>402.551</ele>
        <time>2021-10-13T10:52:53Z</time>
      </trkpt>
      <trkpt lat="40.123133" lon="-5.918498">
        <ele>404.578</ele>
        <time>2021-10-13T10:52:55Z</time>
      </trkpt>
      <trkpt lat="40.123333" lon="-5.918239">
        <ele>405.233</ele>
        <time>2021-10-13T10:52:56Z</time>
      </trkpt>
      <trkpt lat="40.123716" lon="-5.917741">
        <ele>405.326</ele>
        <time>2021-10-13T10:52:58Z</time>
      </trkpt>
      <trkpt lat="40.124113" lon="-5.917214">
        <ele>405.208</ele>
        <time>2021-10-13T10:53:00Z</time>
      </trkpt>
      <trkpt lat="40.124323" lon="-5.916934">
        <ele>404.615</ele>
        <time>2021-10-13T10:53:01Z</time>
      </trkpt>
      <trkpt lat="40.124540" lon="-5.916646">
        <ele>403.893</ele>
        <time>2021-10-13T10:53:02Z</time>
      </trkpt>
      <trkpt lat="40.124958" lon="-5.916096">
        <ele>403.230</ele>
        <time>2021-10-13T10:53:04Z</time>
      </trkpt>
      <trkpt lat="40.125386" lon="-5.915535">
        <ele>402.610</ele>
        <time>2021-10-13T10:53:06Z</time>
      </trkpt>
      <trkpt lat="40.125808" lon="-5.914953">
        <ele>401.433</ele>
        <time>2021-10-13T10:53:08Z</time>
      </trkpt>
      <trkpt lat="40.126192" lon="-5.914390">
        <ele>402.179</ele>
        <time>2021-10-13T10:53:10Z</time>
      </trkpt>
      <trkpt lat="40.126521" lon="-5.913866">
        <ele>402.368</ele>
        <time>2021-10-13T10:53:12Z</time>
      </trkpt>
      <trkpt lat="40.126664" lon="-5.913617">
        <ele>402.223</ele>
        <time>2021-10-13T10:53:13Z</time>
      </trkpt>
      <trkpt lat="40.126800" lon="-5.913374">
        <ele>402.061</ele>
        <time>2021-10-13T10:53:14Z</time>
      </trkpt>
      <trkpt lat="40.127042" lon="-5.912943">
        <ele>401.721</ele>
        <time>2021-10-13T10:53:16Z</time>
      </trkpt>
      <trkpt lat="40.127297" lon="-5.912490">
        <ele>401.613</ele>
        <time>2021-10-13T10:53:18Z</time>
      </trkpt>
      <trkpt lat="40.127424" lon="-5.912257">
        <ele>401.308</ele>
        <time>2021-10-13T10:53:19Z</time>
      </trkpt>
      <trkpt lat="40.127563" lon="-5.911992">
        <ele>401.534</ele>
        <time>2021-10-13T10:53:20Z</time>
      </trkpt>
      <trkpt lat="40.127849" lon="-5.911448">
        <ele>401.252</ele>
        <time>2021-10-13T10:53:22Z</time>
      </trkpt>
      <trkpt lat="40.128129" lon="-5.910825">
        <ele>400.889</ele>
        <time>2021-10-13T10:53:24Z</time>
      </trkpt>
      <trkpt lat="40.128255" lon="-5.910485">
        <ele>401.249</ele>
        <time>2021-10-13T10:53:25Z</time>
      </trkpt>
      <trkpt lat="40.128384" lon="-5.910136">
        <ele>401.612</ele>
        <time>2021-10-13T10:53:26Z</time>
      </trkpt>
      <trkpt lat="40.128672" lon="-5.909499">
        <ele>402.988</ele>
        <time>2021-10-13T10:53:28Z</time>
      </trkpt>
      <trkpt lat="40.128825" lon="-5.909204">
        <ele>403.457</ele>
        <time>2021-10-13T10:53:29Z</time>
      </trkpt>
      <trkpt lat="40.128968" lon="-5.908933">
        <ele>403.572</ele>
        <time>2021-10-13T10:53:30Z</time>
      </trkpt>
      <trkpt lat="40.129252" lon="-5.908394">
        <ele>405.144</ele>
        <time>2021-10-13T10:53:32Z</time>
      </trkpt>
      <trkpt lat="40.129536" lon="-5.907859">
        <ele>406.105</ele>
        <time>2021-10-13T10:53:34Z</time>
      </trkpt>
      <trkpt lat="40.129689" lon="-5.907582">
        <ele>407.015</ele>
        <time>2021-10-13T10:53:35Z</time>
      </trkpt>
      <trkpt lat="40.129994" lon="-5.907027">
        <ele>408.708</ele>
        <time>2021-10-13T10:53:37Z</time>
      </trkpt>
      <trkpt lat="40.130152" lon="-5.906737">
        <ele>409.212</ele>
        <time>2021-10-13T10:53:38Z</time>
      </trkpt>
      <trkpt lat="40.130443" lon="-5.906189">
        <ele>410.920</ele>
        <time>2021-10-13T10:53:40Z</time>
      </trkpt>
      <trkpt lat="40.130742" lon="-5.905615">
        <ele>412.577</ele>
        <time>2021-10-13T10:53:42Z</time>
      </trkpt>
      <trkpt lat="40.131009" lon="-5.904987">
        <ele>412.887</ele>
        <time>2021-10-13T10:53:44Z</time>
      </trkpt>
      <trkpt lat="40.131219" lon="-5.904329">
        <ele>413.350</ele>
        <time>2021-10-13T10:53:46Z</time>
      </trkpt>
      <trkpt lat="40.131314" lon="-5.903989">
        <ele>413.786</ele>
        <time>2021-10-13T10:53:47Z</time>
      </trkpt>
      <trkpt lat="40.131502" lon="-5.903310">
        <ele>414.045</ele>
        <time>2021-10-13T10:53:49Z</time>
      </trkpt>
      <trkpt lat="40.131601" lon="-5.902960">
        <ele>414.950</ele>
        <time>2021-10-13T10:53:50Z</time>
      </trkpt>
      <trkpt lat="40.131789" lon="-5.902290">
        <ele>414.556</ele>
        <time>2021-10-13T10:53:52Z</time>
      </trkpt>
      <trkpt lat="40.131882" lon="-5.901947">
        <ele>414.459</ele>
        <time>2021-10-13T10:53:53Z</time>
      </trkpt>
      <trkpt lat="40.131981" lon="-5.901607">
        <ele>414.414</ele>
        <time>2021-10-13T10:53:54Z</time>
      </trkpt>
      <trkpt lat="40.132219" lon="-5.900923">
        <ele>415.508</ele>
        <time>2021-10-13T10:53:56Z</time>
      </trkpt>
      <trkpt lat="40.132523" lon="-5.900288">
        <ele>416.823</ele>
        <time>2021-10-13T10:53:58Z</time>
      </trkpt>
      <trkpt lat="40.132701" lon="-5.899978">
        <ele>417.141</ele>
        <time>2021-10-13T10:53:59Z</time>
      </trkpt>
      <trkpt lat="40.133083" lon="-5.899346">
        <ele>417.928</ele>
        <time>2021-10-13T10:54:01Z</time>
      </trkpt>
      <trkpt lat="40.133273" lon="-5.899015">
        <ele>418.358</ele>
        <time>2021-10-13T10:54:02Z</time>
      </trkpt>
      <trkpt lat="40.133619" lon="-5.898348">
        <ele>417.831</ele>
        <time>2021-10-13T10:54:04Z</time>
      </trkpt>
      <trkpt lat="40.133918" lon="-5.897611">
        <ele>416.347</ele>
        <time>2021-10-13T10:54:06Z</time>
      </trkpt>
      <trkpt lat="40.134053" lon="-5.897230">
        <ele>416.546</ele>
        <time>2021-10-13T10:54:07Z</time>
      </trkpt>
      <trkpt lat="40.134192" lon="-5.896844">
        <ele>416.731</ele>
        <time>2021-10-13T10:54:08Z</time>
      </trkpt>
      <trkpt lat="40.134463" lon="-5.896133">
        <ele>417.448</ele>
        <time>2021-10-13T10:54:10Z</time>
      </trkpt>
      <trkpt lat="40.134766" lon="-5.895485">
        <ele>417.761</ele>
        <time>2021-10-13T10:54:12Z</time>
      </trkpt>
      <trkpt lat="40.134952" lon="-5.895179">
        <ele>417.917</ele>
        <time>2021-10-13T10:54:13Z</time>
      </trkpt>
      <trkpt lat="40.135167" lon="-5.894877">
        <ele>418.208</ele>
        <time>2021-10-13T10:54:14Z</time>
      </trkpt>
      <trkpt lat="40.135605" lon="-5.894319">
        <ele>419.232</ele>
        <time>2021-10-13T10:54:16Z</time>
      </trkpt>
      <trkpt lat="40.136003" lon="-5.893768">
        <ele>420.290</ele>
        <time>2021-10-13T10:54:18Z</time>
      </trkpt>
      <trkpt lat="40.136305" lon="-5.893221">
        <ele>420.337</ele>
        <time>2021-10-13T10:54:20Z</time>
      </trkpt>
      <trkpt lat="40.136491" lon="-5.892604">
        <ele>420.757</ele>
        <time>2021-10-13T10:54:22Z</time>
      </trkpt>
      <trkpt lat="40.136546" lon="-5.892255">
        <ele>420.730</ele>
        <time>2021-10-13T10:54:23Z</time>
      </trkpt>
      <trkpt lat="40.136605" lon="-5.891546">
        <ele>420.726</ele>
        <time>2021-10-13T10:54:25Z</time>
      </trkpt>
      <trkpt lat="40.136633" lon="-5.891218">
        <ele>421.375</ele>
        <time>2021-10-13T10:54:26Z</time>
      </trkpt>
      <trkpt lat="40.136684" lon="-5.890661">
        <ele>421.070</ele>
        <time>2021-10-13T10:54:28Z</time>
      </trkpt>
      <trkpt lat="40.136736" lon="-5.890081">
        <ele>421.531</ele>
        <time>2021-10-13T10:54:30Z</time>
      </trkpt>
      <trkpt lat="40.136764" lon="-5.889781">
        <ele>422.261</ele>
        <time>2021-10-13T10:54:31Z</time>
      </trkpt>
      <trkpt lat="40.136794" lon="-5.889465">
        <ele>422.007</ele>
        <time>2021-10-13T10:54:32Z</time>
      </trkpt>
      <trkpt lat="40.136858" lon="-5.888836">
        <ele>421.708</ele>
        <time>2021-10-13T10:54:34Z</time>
      </trkpt>
      <trkpt lat="40.136893" lon="-5.888495">
        <ele>422.041</ele>
        <time>2021-10-13T10:54:35Z</time>
      </trkpt>
      <trkpt lat="40.136988" lon="-5.887779">
        <ele>422.459</ele>
        <time>2021-10-13T10:54:37Z</time>
      </trkpt>
      <trkpt lat="40.137069" lon="-5.887408">
        <ele>422.736</ele>
        <time>2021-10-13T10:54:38Z</time>
      </trkpt>
      <trkpt lat="40.137329" lon="-5.886729">
        <ele>424.296</ele>
        <time>2021-10-13T10:54:40Z</time>
      </trkpt>
      <trkpt lat="40.137512" lon="-5.886408">
        <ele>424.629</ele>
        <time>2021-10-13T10:54:41Z</time>
      </trkpt>
      <trkpt lat="40.137951" lon="-5.885831">
        <ele>426.525</ele>
        <time>2021-10-13T10:54:43Z</time>
      </trkpt>
      <trkpt lat="40.138199" lon="-5.885541">
        <ele>428.164</ele>
        <time>2021-10-13T10:54:44Z</time>
      </trkpt>
      <trkpt lat="40.138681" lon="-5.884955">
        <ele>430.489</ele>
        <time>2021-10-13T10:54:46Z</time>
      </trkpt>
      <trkpt lat="40.138930" lon="-5.884649">
        <ele>431.442</ele>
        <time>2021-10-13T10:54:47Z</time>
      </trkpt>
      <trkpt lat="40.139414" lon="-5.884047">
        <ele>432.722</ele>
        <time>2021-10-13T10:54:49Z</time>
      </trkpt>
      <trkpt lat="40.139649" lon="-5.883751">
        <ele>432.214</ele>
        <time>2021-10-13T10:54:50Z</time>
      </trkpt>
      <trkpt lat="40.140069" lon="-5.883214">
        <ele>432.208</ele>
        <time>2021-10-13T10:54:52Z</time>
      </trkpt>
      <trkpt lat="40.140276" lon="-5.882955">
        <ele>433.612</ele>
        <time>2021-10-13T10:54:53Z</time>
      </trkpt>
      <trkpt lat="40.140662" lon="-5.882459">
        <ele>435.670</ele>
        <time>2021-10-13T10:54:55Z</time>
      </trkpt>
      <trkpt lat="40.140849" lon="-5.882204">
        <ele>436.747</ele>
        <time>2021-10-13T10:54:56Z</time>
      </trkpt>
      <trkpt lat="40.141179" lon="-5.881700">
        <ele>440.357</ele>
        <time>2021-10-13T10:54:58Z</time>
      </trkpt>
      <trkpt lat="40.141501" lon="-5.881190">
        <ele>443.420</ele>
        <time>2021-10-13T10:55:00Z</time>
      </trkpt>
      <trkpt lat="40.141659" lon="-5.880943">
        <ele>445.546</ele>
        <time>2021-10-13T10:55:01Z</time>
      </trkpt>
      <trkpt lat="40.141822" lon="-5.880700">
        <ele>447.375</ele>
        <time>2021-10-13T10:55:02Z</time>
      </trkpt>
      <trkpt lat="40.142143" lon="-5.880251">
        <ele>451.120</ele>
        <time>2021-10-13T10:55:04Z</time>
      </trkpt>
      <trkpt lat="40.142479" lon="-5.879845">
        <ele>453.896</ele>
        <time>2021-10-13T10:55:06Z</time>
      </trkpt>
      <trkpt lat="40.142810" lon="-5.879493">
        <ele>456.031</ele>
        <time>2021-10-13T10:55:08Z</time>
      </trkpt>
      <trkpt lat="40.143110" lon="-5.879182">
        <ele>457.624</ele>
        <time>2021-10-13T10:55:10Z</time>
      </trkpt>
      <trkpt lat="40.143262" lon="-5.879021">
        <ele>458.608</ele>
        <time>2021-10-13T10:55:11Z</time>
      </trkpt>
      <trkpt lat="40.143416" lon="-5.878856">
        <ele>458.977</ele>
        <time>2021-10-13T10:55:12Z</time>
      </trkpt>
      <trkpt lat="40.143739" lon="-5.878506">
        <ele>459.095</ele>
        <time>2021-10-13T10:55:14Z</time>
      </trkpt>
      <trkpt lat="40.144083" lon="-5.878117">
        <ele>459.322</ele>
        <time>2021-10-13T10:55:16Z</time>
      </trkpt>
      <trkpt lat="40.144426" lon="-5.877696">
        <ele>459.322</ele>
        <time>2021-10-13T10:55:18Z</time>
      </trkpt>
      <trkpt lat="40.144598" lon="-5.877461">
        <ele>459.335</ele>
        <time>2021-10-13T10:55:19Z</time>
      </trkpt>
      <trkpt lat="40.144758" lon="-5.877220">
        <ele>459.141</ele>
        <time>2021-10-13T10:55:20Z</time>
      </trkpt>
      <trkpt lat="40.145074" lon="-5.876721">
        <ele>459.170</ele>
        <time>2021-10-13T10:55:22Z</time>
      </trkpt>
      <trkpt lat="40.145240" lon="-5.876461">
        <ele>459.265</ele>
        <time>2021-10-13T10:55:23Z</time>
      </trkpt>
      <trkpt lat="40.145561" lon="-5.875984">
        <ele>458.991</ele>
        <time>2021-10-13T10:55:25Z</time>
      </trkpt>
      <trkpt lat="40.145718" lon="-5.875761">
        <ele>458.781</ele>
        <time>2021-10-13T10:55:26Z</time>
      </trkpt>
      <trkpt lat="40.146000" lon="-5.875343">
        <ele>457.019</ele>
        <time>2021-10-13T10:55:28Z</time>
      </trkpt>
      <trkpt lat="40.146260" lon="-5.874899">
        <ele>456.008</ele>
        <time>2021-10-13T10:55:30Z</time>
      </trkpt>
      <trkpt lat="40.146378" lon="-5.874658">
        <ele>454.237</ele>
        <time>2021-10-13T10:55:31Z</time>
      </trkpt>
      <trkpt lat="40.146485" lon="-5.874391">
        <ele>452.675</ele>
        <time>2021-10-13T10:55:32Z</time>
      </trkpt>
      <trkpt lat="40.146689" lon="-5.873775">
        <ele>450.992</ele>
        <time>2021-10-13T10:55:34Z</time>
      </trkpt>
      <trkpt lat="40.146795" lon="-5.873448">
        <ele>450.312</ele>
        <time>2021-10-13T10:55:35Z</time>
      </trkpt>
      <trkpt lat="40.147011" lon="-5.872780">
        <ele>448.315</ele>
        <time>2021-10-13T10:55:37Z</time>
      </trkpt>
      <trkpt lat="40.147125" lon="-5.872433">
        <ele>447.511</ele>
        <time>2021-10-13T10:55:38Z</time>
      </trkpt>
      <trkpt lat="40.147330" lon="-5.871814">
        <ele>448.350</ele>
        <time>2021-10-13T10:55:40Z</time>
      </trkpt>
      <trkpt lat="40.147426" lon="-5.871529">
        <ele>448.555</ele>
        <time>2021-10-13T10:55:41Z</time>
      </trkpt>
      <trkpt lat="40.147628" lon="-5.870996">
        <ele>450.299</ele>
        <time>2021-10-13T10:55:43Z</time>
      </trkpt>
      <trkpt lat="40.147758" lon="-5.870741">
        <ele>451.507</ele>
        <time>2021-10-13T10:55:44Z</time>
      </trkpt>
      <trkpt lat="40.148059" lon="-5.870315">
        <ele>453.627</ele>
        <time>2021-10-13T10:55:46Z</time>
      </trkpt>
      <trkpt lat="40.148233" lon="-5.870125">
        <ele>454.408</ele>
        <time>2021-10-13T10:55:47Z</time>
      </trkpt>
      <trkpt lat="40.148405" lon="-5.869959">
        <ele>455.117</ele>
        <time>2021-10-13T10:55:48Z</time>
      </trkpt>
      <trkpt lat="40.148733" lon="-5.869645">
        <ele>455.895</ele>
        <time>2021-10-13T10:55:50Z</time>
      </trkpt>
      <trkpt lat="40.149030" lon="-5.869318">
        <ele>456.652</ele>
        <time>2021-10-13T10:55:52Z</time>
      </trkpt>
      <trkpt lat="40.149157" lon="-5.869142">
        <ele>457.162</ele>
        <time>2021-10-13T10:55:53Z</time>
      </trkpt>
      <trkpt lat="40.149348" lon="-5.868783">
        <ele>458.025</ele>
        <time>2021-10-13T10:55:55Z</time>
      </trkpt>
      <trkpt lat="40.149430" lon="-5.868584">
        <ele>457.471</ele>
        <time>2021-10-13T10:55:56Z</time>
      </trkpt>
      <trkpt lat="40.149577" lon="-5.868139">
        <ele>457.130</ele>
        <time>2021-10-13T10:55:58Z</time>
      </trkpt>
      <trkpt lat="40.149739" lon="-5.867637">
        <ele>456.235</ele>
        <time>2021-10-13T10:56:00Z</time>
      </trkpt>
      <trkpt lat="40.149922" lon="-5.867119">
        <ele>454.966</ele>
        <time>2021-10-13T10:56:02Z</time>
      </trkpt>
      <trkpt lat="40.150142" lon="-5.866650">
        <ele>453.629</ele>
        <time>2021-10-13T10:56:04Z</time>
      </trkpt>
      <trkpt lat="40.150482" lon="-5.866191">
        <ele>452.921</ele>
        <time>2021-10-13T10:56:06Z</time>
      </trkpt>
      <trkpt lat="40.150949" lon="-5.865725">
        <ele>451.708</ele>
        <time>2021-10-13T10:56:08Z</time>
      </trkpt>
      <trkpt lat="40.151447" lon="-5.865208">
        <ele>451.954</ele>
        <time>2021-10-13T10:56:10Z</time>
      </trkpt>
      <trkpt lat="40.151999" lon="-5.864632">
        <ele>452.772</ele>
        <time>2021-10-13T10:56:12Z</time>
      </trkpt>
      <trkpt lat="40.152788" lon="-5.863586">
        <ele>453.119</ele>
        <time>2021-10-13T10:56:15Z</time>
      </trkpt>
      <trkpt lat="40.153701" lon="-5.862231">
        <ele>454.719</ele>
        <time>2021-10-13T10:56:19Z</time>
      </trkpt>
      <trkpt lat="40.153903" lon="-5.861939">
        <ele>454.762</ele>
        <time>2021-10-13T10:56:20Z</time>
      </trkpt>
      <trkpt lat="40.154312" lon="-5.861433">
        <ele>454.828</ele>
        <time>2021-10-13T10:56:22Z</time>
      </trkpt>
      <trkpt lat="40.154545" lon="-5.861219">
        <ele>454.977</ele>
        <time>2021-10-13T10:56:23Z</time>
      </trkpt>
      <trkpt lat="40.155053" lon="-5.860941">
        <ele>455.332</ele>
        <time>2021-10-13T10:56:25Z</time>
      </trkpt>
      <trkpt lat="40.155333" lon="-5.860879">
        <ele>455.699</ele>
        <time>2021-10-13T10:56:26Z</time>
      </trkpt>
      <trkpt lat="40.155912" lon="-5.860846">
        <ele>456.507</ele>
        <time>2021-10-13T10:56:28Z</time>
      </trkpt>
      <trkpt lat="40.156427" lon="-5.860698">
        <ele>457.227</ele>
        <time>2021-10-13T10:56:30Z</time>
      </trkpt>
      <trkpt lat="40.156640" lon="-5.860545">
        <ele>457.508</ele>
        <time>2021-10-13T10:56:31Z</time>
      </trkpt>
      <trkpt lat="40.156832" lon="-5.860345">
        <ele>457.347</ele>
        <time>2021-10-13T10:56:32Z</time>
      </trkpt>
      <trkpt lat="40.157143" lon="-5.859828">
        <ele>457.755</ele>
        <time>2021-10-13T10:56:34Z</time>
      </trkpt>
      <trkpt lat="40.157272" lon="-5.859534">
        <ele>457.632</ele>
        <time>2021-10-13T10:56:35Z</time>
      </trkpt>
      <trkpt lat="40.157382" lon="-5.859248">
        <ele>457.492</ele>
        <time>2021-10-13T10:56:36Z</time>
      </trkpt>
      <trkpt lat="40.157487" lon="-5.858981">
        <ele>457.845</ele>
        <time>2021-10-13T10:56:37Z</time>
      </trkpt>
      <trkpt lat="40.157590" lon="-5.858733">
        <ele>458.011</ele>
        <time>2021-10-13T10:56:38Z</time>
      </trkpt>
      <trkpt lat="40.157754" lon="-5.858316">
        <ele>456.860</ele>
        <time>2021-10-13T10:56:40Z</time>
      </trkpt>
      <trkpt lat="40.157876" lon="-5.857914">
        <ele>456.875</ele>
        <time>2021-10-13T10:56:42Z</time>
      </trkpt>
      <trkpt lat="40.157927" lon="-5.857709">
        <ele>457.055</ele>
        <time>2021-10-13T10:56:43Z</time>
      </trkpt>
      <trkpt lat="40.157975" lon="-5.857500">
        <ele>457.507</ele>
        <time>2021-10-13T10:56:44Z</time>
      </trkpt>
      <trkpt lat="40.158054" lon="-5.857095">
        <ele>458.317</ele>
        <time>2021-10-13T10:56:46Z</time>
      </trkpt>
      <trkpt lat="40.158184" lon="-5.856677">
        <ele>459.008</ele>
        <time>2021-10-13T10:56:48Z</time>
      </trkpt>
      <trkpt lat="40.158285" lon="-5.856479">
        <ele>459.513</ele>
        <time>2021-10-13T10:56:49Z</time>
      </trkpt>
      <trkpt lat="40.158413" lon="-5.856298">
        <ele>459.181</ele>
        <time>2021-10-13T10:56:50Z</time>
      </trkpt>
      <trkpt lat="40.158709" lon="-5.856020">
        <ele>458.088</ele>
        <time>2021-10-13T10:56:52Z</time>
      </trkpt>
      <trkpt lat="40.158868" lon="-5.855901">
        <ele>457.388</ele>
        <time>2021-10-13T10:56:53Z</time>
      </trkpt>
      <trkpt lat="40.159169" lon="-5.855684">
        <ele>456.491</ele>
        <time>2021-10-13T10:56:55Z</time>
      </trkpt>
      <trkpt lat="40.159330" lon="-5.855570">
        <ele>456.387</ele>
        <time>2021-10-13T10:56:56Z</time>
      </trkpt>
      <trkpt lat="40.159646" lon="-5.855340">
        <ele>456.366</ele>
        <time>2021-10-13T10:56:58Z</time>
      </trkpt>
      <trkpt lat="40.159812" lon="-5.855215">
        <ele>456.561</ele>
        <time>2021-10-13T10:56:59Z</time>
      </trkpt>
      <trkpt lat="40.159981" lon="-5.855090">
        <ele>456.629</ele>
        <time>2021-10-13T10:57:00Z</time>
      </trkpt>
      <trkpt lat="40.160314" lon="-5.854840">
        <ele>456.700</ele>
        <time>2021-10-13T10:57:02Z</time>
      </trkpt>
      <trkpt lat="40.160609" lon="-5.854600">
        <ele>456.620</ele>
        <time>2021-10-13T10:57:04Z</time>
      </trkpt>
      <trkpt lat="40.160748" lon="-5.854471">
        <ele>456.408</ele>
        <time>2021-10-13T10:57:05Z</time>
      </trkpt>
      <trkpt lat="40.160885" lon="-5.854327">
        <ele>456.370</ele>
        <time>2021-10-13T10:57:06Z</time>
      </trkpt>
      <trkpt lat="40.161027" lon="-5.854163">
        <ele>456.018</ele>
        <time>2021-10-13T10:57:07Z</time>
      </trkpt>
      <trkpt lat="40.161178" lon="-5.853985">
        <ele>455.285</ele>
        <time>2021-10-13T10:57:08Z</time>
      </trkpt>
      <trkpt lat="40.161490" lon="-5.853613">
        <ele>452.855</ele>
        <time>2021-10-13T10:57:10Z</time>
      </trkpt>
      <trkpt lat="40.161823" lon="-5.853211">
        <ele>450.998</ele>
        <time>2021-10-13T10:57:12Z</time>
      </trkpt>
      <trkpt lat="40.161982" lon="-5.853018">
        <ele>450.054</ele>
        <time>2021-10-13T10:57:13Z</time>
      </trkpt>
      <trkpt lat="40.162136" lon="-5.852829">
        <ele>449.163</ele>
        <time>2021-10-13T10:57:14Z</time>
      </trkpt>
      <trkpt lat="40.162426" lon="-5.852471">
        <ele>447.388</ele>
        <time>2021-10-13T10:57:16Z</time>
      </trkpt>
      <trkpt lat="40.162733" lon="-5.852092">
        <ele>447.447</ele>
        <time>2021-10-13T10:57:18Z</time>
      </trkpt>
      <trkpt lat="40.162890" lon="-5.851901">
        <ele>447.429</ele>
        <time>2021-10-13T10:57:19Z</time>
      </trkpt>
      <trkpt lat="40.163048" lon="-5.851710">
        <ele>447.521</ele>
        <time>2021-10-13T10:57:20Z</time>
      </trkpt>
      <trkpt lat="40.163325" lon="-5.851331">
        <ele>448.108</ele>
        <time>2021-10-13T10:57:22Z</time>
      </trkpt>
      <trkpt lat="40.163547" lon="-5.850915">
        <ele>447.182</ele>
        <time>2021-10-13T10:57:24Z</time>
      </trkpt>
      <trkpt lat="40.163628" lon="-5.850686">
        <ele>448.280</ele>
        <time>2021-10-13T10:57:25Z</time>
      </trkpt>
      <trkpt lat="40.163697" lon="-5.850440">
        <ele>448.727</ele>
        <time>2021-10-13T10:57:26Z</time>
      </trkpt>
      <trkpt lat="40.163801" lon="-5.849979">
        <ele>448.957</ele>
        <time>2021-10-13T10:57:28Z</time>
      </trkpt>
      <trkpt lat="40.163928" lon="-5.849543">
        <ele>449.510</ele>
        <time>2021-10-13T10:57:30Z</time>
      </trkpt>
      <trkpt lat="40.164087" lon="-5.849150">
        <ele>448.596</ele>
        <time>2021-10-13T10:57:32Z</time>
      </trkpt>
      <trkpt lat="40.164291" lon="-5.848854">
        <ele>449.915</ele>
        <time>2021-10-13T10:57:34Z</time>
      </trkpt>
      <trkpt lat="40.164419" lon="-5.848710">
        <ele>449.890</ele>
        <time>2021-10-13T10:57:35Z</time>
      </trkpt>
      <trkpt lat="40.164729" lon="-5.848444">
        <ele>449.582</ele>
        <time>2021-10-13T10:57:37Z</time>
      </trkpt>
      <trkpt lat="40.164928" lon="-5.848303">
        <ele>449.543</ele>
        <time>2021-10-13T10:57:38Z</time>
      </trkpt>
      <trkpt lat="40.165341" lon="-5.847956">
        <ele>449.517</ele>
        <time>2021-10-13T10:57:40Z</time>
      </trkpt>
      <trkpt lat="40.165554" lon="-5.847775">
        <ele>450.008</ele>
        <time>2021-10-13T10:57:41Z</time>
      </trkpt>
      <trkpt lat="40.165954" lon="-5.847464">
        <ele>450.026</ele>
        <time>2021-10-13T10:57:43Z</time>
      </trkpt>
      <trkpt lat="40.166142" lon="-5.847316">
        <ele>450.374</ele>
        <time>2021-10-13T10:57:44Z</time>
      </trkpt>
      <trkpt lat="40.166499" lon="-5.847030">
        <ele>450.411</ele>
        <time>2021-10-13T10:57:46Z</time>
      </trkpt>
      <trkpt lat="40.166663" lon="-5.846889">
        <ele>450.551</ele>
        <time>2021-10-13T10:57:47Z</time>
      </trkpt>
      <trkpt lat="40.166939" lon="-5.846596">
        <ele>451.174</ele>
        <time>2021-10-13T10:57:49Z</time>
      </trkpt>
      <trkpt lat="40.167067" lon="-5.846434">
        <ele>451.270</ele>
        <time>2021-10-13T10:57:50Z</time>
      </trkpt>
      <trkpt lat="40.167281" lon="-5.846088">
        <ele>451.319</ele>
        <time>2021-10-13T10:57:52Z</time>
      </trkpt>
      <trkpt lat="40.167384" lon="-5.845868">
        <ele>450.644</ele>
        <time>2021-10-13T10:57:53Z</time>
      </trkpt>
      <trkpt lat="40.167485" lon="-5.845609">
        <ele>450.996</ele>
        <time>2021-10-13T10:57:54Z</time>
      </trkpt>
      <trkpt lat="40.167658" lon="-5.844968">
        <ele>451.431</ele>
        <time>2021-10-13T10:57:56Z</time>
      </trkpt>
      <trkpt lat="40.167807" lon="-5.844317">
        <ele>450.924</ele>
        <time>2021-10-13T10:57:58Z</time>
      </trkpt>
      <trkpt lat="40.167960" lon="-5.843718">
        <ele>451.208</ele>
        <time>2021-10-13T10:58:00Z</time>
      </trkpt>
      <trkpt lat="40.168134" lon="-5.843164">
        <ele>451.477</ele>
        <time>2021-10-13T10:58:02Z</time>
      </trkpt>
      <trkpt lat="40.168344" lon="-5.842682">
        <ele>452.395</ele>
        <time>2021-10-13T10:58:04Z</time>
      </trkpt>
      <trkpt lat="40.168615" lon="-5.842222">
        <ele>453.412</ele>
        <time>2021-10-13T10:58:06Z</time>
      </trkpt>
      <trkpt lat="40.168912" lon="-5.841838">
        <ele>453.762</ele>
        <time>2021-10-13T10:58:08Z</time>
      </trkpt>
      <trkpt lat="40.169199" lon="-5.841541">
        <ele>454.775</ele>
        <time>2021-10-13T10:58:10Z</time>
      </trkpt>
      <trkpt lat="40.169485" lon="-5.841298">
        <ele>454.471</ele>
        <time>2021-10-13T10:58:12Z</time>
      </trkpt>
      <trkpt lat="40.169761" lon="-5.841093">
        <ele>454.790</ele>
        <time>2021-10-13T10:58:14Z</time>
      </trkpt>
      <trkpt lat="40.170023" lon="-5.840949">
        <ele>454.265</ele>
        <time>2021-10-13T10:58:16Z</time>
      </trkpt>
      <trkpt lat="40.170158" lon="-5.840894">
        <ele>454.331</ele>
        <time>2021-10-13T10:58:17Z</time>
      </trkpt>
      <trkpt lat="40.170299" lon="-5.840846">
        <ele>454.061</ele>
        <time>2021-10-13T10:58:18Z</time>
      </trkpt>
      <trkpt lat="40.170448" lon="-5.840804">
        <ele>453.807</ele>
        <time>2021-10-13T10:58:19Z</time>
      </trkpt>
      <trkpt lat="40.170610" lon="-5.840767">
        <ele>454.008</ele>
        <time>2021-10-13T10:58:20Z</time>
      </trkpt>
      <trkpt lat="40.170947" lon="-5.840729">
        <ele>454.221</ele>
        <time>2021-10-13T10:58:22Z</time>
      </trkpt>
      <trkpt lat="40.171123" lon="-5.840721">
        <ele>454.259</ele>
        <time>2021-10-13T10:58:23Z</time>
      </trkpt>
      <trkpt lat="40.171290" lon="-5.840717">
        <ele>454.736</ele>
        <time>2021-10-13T10:58:24Z</time>
      </trkpt>
      <trkpt lat="40.171602" lon="-5.840714">
        <ele>455.816</ele>
        <time>2021-10-13T10:58:26Z</time>
      </trkpt>
      <trkpt lat="40.171880" lon="-5.840708">
        <ele>456.299</ele>
        <time>2021-10-13T10:58:28Z</time>
      </trkpt>
      <trkpt lat="40.172135" lon="-5.840697">
        <ele>456.835</ele>
        <time>2021-10-13T10:58:30Z</time>
      </trkpt>
      <trkpt lat="40.172255" lon="-5.840697">
        <ele>456.854</ele>
        <time>2021-10-13T10:58:31Z</time>
      </trkpt>
      <trkpt lat="40.172376" lon="-5.840697">
        <ele>457.549</ele>
        <time>2021-10-13T10:58:32Z</time>
      </trkpt>
      <trkpt lat="40.172611" lon="-5.840694">
        <ele>457.362</ele>
        <time>2021-10-13T10:58:34Z</time>
      </trkpt>
      <trkpt lat="40.172844" lon="-5.840696">
        <ele>457.283</ele>
        <time>2021-10-13T10:58:36Z</time>
      </trkpt>
      <trkpt lat="40.172952" lon="-5.840689">
        <ele>456.611</ele>
        <time>2021-10-13T10:58:37Z</time>
      </trkpt>
      <trkpt lat="40.173056" lon="-5.840675">
        <ele>456.508</ele>
        <time>2021-10-13T10:58:38Z</time>
      </trkpt>
      <trkpt lat="40.173240" lon="-5.840605">
        <ele>455.984</ele>
        <time>2021-10-13T10:58:40Z</time>
      </trkpt>
      <trkpt lat="40.173395" lon="-5.840419">
        <ele>455.442</ele>
        <time>2021-10-13T10:58:42Z</time>
      </trkpt>
      <trkpt lat="40.173466" lon="-5.840300">
        <ele>455.489</ele>
        <time>2021-10-13T10:58:43Z</time>
      </trkpt>
      <trkpt lat="40.173543" lon="-5.840177">
        <ele>455.549</ele>
        <time>2021-10-13T10:58:44Z</time>
      </trkpt>
      <trkpt lat="40.173697" lon="-5.839937">
        <ele>456.242</ele>
        <time>2021-10-13T10:58:46Z</time>
      </trkpt>
      <trkpt lat="40.173780" lon="-5.839813">
        <ele>455.768</ele>
        <time>2021-10-13T10:58:47Z</time>
      </trkpt>
      <trkpt lat="40.173945" lon="-5.839558">
        <ele>455.717</ele>
        <time>2021-10-13T10:58:49Z</time>
      </trkpt>
      <trkpt lat="40.174021" lon="-5.839439">
        <ele>456.462</ele>
        <time>2021-10-13T10:58:50Z</time>
      </trkpt>
      <trkpt lat="40.174155" lon="-5.839236">
        <ele>456.755</ele>
        <time>2021-10-13T10:58:52Z</time>
      </trkpt>
      <trkpt lat="40.174221" lon="-5.839138">
        <ele>457.107</ele>
        <time>2021-10-13T10:58:53Z</time>
      </trkpt>
      <trkpt lat="40.174285" lon="-5.839038">
        <ele>457.617</ele>
        <time>2021-10-13T10:58:54Z</time>
      </trkpt>
      <trkpt lat="40.174413" lon="-5.838813">
        <ele>458.208</ele>
        <time>2021-10-13T10:58:56Z</time>
      </trkpt>
      <trkpt lat="40.174513" lon="-5.838563">
        <ele>458.453</ele>
        <time>2021-10-13T10:58:58Z</time>
      </trkpt>
      <trkpt lat="40.174549" lon="-5.838431">
        <ele>458.791</ele>
        <time>2021-10-13T10:58:59Z</time>
      </trkpt>
      <trkpt lat="40.174597" lon="-5.838184">
        <ele>458.658</ele>
        <time>2021-10-13T10:59:01Z</time>
      </trkpt>
      <trkpt lat="40.174619" lon="-5.838065">
        <ele>458.688</ele>
        <time>2021-10-13T10:59:02Z</time>
      </trkpt>
      <trkpt lat="40.174664" lon="-5.837837">
        <ele>460.631</ele>
        <time>2021-10-13T10:59:04Z</time>
      </trkpt>
      <trkpt lat="40.174721" lon="-5.837573">
        <ele>460.457</ele>
        <time>2021-10-13T10:59:06Z</time>
      </trkpt>
      <trkpt lat="40.174749" lon="-5.837429">
        <ele>460.496</ele>
        <time>2021-10-13T10:59:07Z</time>
      </trkpt>
      <trkpt lat="40.174777" lon="-5.837278">
        <ele>460.891</ele>
        <time>2021-10-13T10:59:08Z</time>
      </trkpt>
      <trkpt lat="40.174826" lon="-5.836997">
        <ele>460.957</ele>
        <time>2021-10-13T10:59:10Z</time>
      </trkpt>
      <trkpt lat="40.174863" lon="-5.836712">
        <ele>461.100</ele>
        <time>2021-10-13T10:59:12Z</time>
      </trkpt>
      <trkpt lat="40.174884" lon="-5.836393">
        <ele>461.520</ele>
        <time>2021-10-13T10:59:14Z</time>
      </trkpt>
      <trkpt lat="40.174911" lon="-5.836048">
        <ele>461.508</ele>
        <time>2021-10-13T10:59:16Z</time>
      </trkpt>
      <trkpt lat="40.174928" lon="-5.835699">
        <ele>461.363</ele>
        <time>2021-10-13T10:59:18Z</time>
      </trkpt>
      <trkpt lat="40.174899" lon="-5.835359">
        <ele>461.171</ele>
        <time>2021-10-13T10:59:20Z</time>
      </trkpt>
      <trkpt lat="40.174831" lon="-5.835039">
        <ele>460.388</ele>
        <time>2021-10-13T10:59:22Z</time>
      </trkpt>
      <trkpt lat="40.174790" lon="-5.834879">
        <ele>460.758</ele>
        <time>2021-10-13T10:59:23Z</time>
      </trkpt>
      <trkpt lat="40.174709" lon="-5.834564">
        <ele>461.031</ele>
        <time>2021-10-13T10:59:25Z</time>
      </trkpt>
      <trkpt lat="40.174669" lon="-5.834403">
        <ele>459.827</ele>
        <time>2021-10-13T10:59:26Z</time>
      </trkpt>
      <trkpt lat="40.174606" lon="-5.834120">
        <ele>459.716</ele>
        <time>2021-10-13T10:59:28Z</time>
      </trkpt>
      <trkpt lat="40.174585" lon="-5.833986">
        <ele>459.261</ele>
        <time>2021-10-13T10:59:29Z</time>
      </trkpt>
      <trkpt lat="40.174600" lon="-5.833753">
        <ele>459.275</ele>
        <time>2021-10-13T10:59:31Z</time>
      </trkpt>
      <trkpt lat="40.174634" lon="-5.833654">
        <ele>459.528</ele>
        <time>2021-10-13T10:59:32Z</time>
      </trkpt>
      <trkpt lat="40.174730" lon="-5.833492">
        <ele>458.420</ele>
        <time>2021-10-13T10:59:34Z</time>
      </trkpt>
      <trkpt lat="40.174789" lon="-5.833418">
        <ele>457.908</ele>
        <time>2021-10-13T10:59:35Z</time>
      </trkpt>
      <trkpt lat="40.174920" lon="-5.833260">
        <ele>457.765</ele>
        <time>2021-10-13T10:59:37Z</time>
      </trkpt>
      <trkpt lat="40.174990" lon="-5.833175">
        <ele>457.533</ele>
        <time>2021-10-13T10:59:38Z</time>
      </trkpt>
      <trkpt lat="40.175114" lon="-5.833018">
        <ele>456.660</ele>
        <time>2021-10-13T10:59:40Z</time>
      </trkpt>
      <trkpt lat="40.175228" lon="-5.832872">
        <ele>456.590</ele>
        <time>2021-10-13T10:59:42Z</time>
      </trkpt>
      <trkpt lat="40.175282" lon="-5.832807">
        <ele>456.433</ele>
        <time>2021-10-13T10:59:43Z</time>
      </trkpt>
      <trkpt lat="40.175336" lon="-5.832739">
        <ele>456.819</ele>
        <time>2021-10-13T10:59:44Z</time>
      </trkpt>
      <trkpt lat="40.175440" lon="-5.832612">
        <ele>457.038</ele>
        <time>2021-10-13T10:59:46Z</time>
      </trkpt>
      <trkpt lat="40.175545" lon="-5.832474">
        <ele>457.333</ele>
        <time>2021-10-13T10:59:48Z</time>
      </trkpt>
      <trkpt lat="40.175600" lon="-5.832400">
        <ele>457.451</ele>
        <time>2021-10-13T10:59:49Z</time>
      </trkpt>
      <trkpt lat="40.175660" lon="-5.832328">
        <ele>457.601</ele>
        <time>2021-10-13T10:59:50Z</time>
      </trkpt>
      <trkpt lat="40.175761" lon="-5.832198">
        <ele>458.111</ele>
        <time>2021-10-13T10:59:52Z</time>
      </trkpt>
      <trkpt lat="40.175806" lon="-5.832135">
        <ele>458.508</ele>
        <time>2021-10-13T10:59:53Z</time>
      </trkpt>
      <trkpt lat="40.175847" lon="-5.832080">
        <ele>458.833</ele>
        <time>2021-10-13T10:59:54Z</time>
      </trkpt>
      <trkpt lat="40.175887" lon="-5.832032">
        <ele>459.191</ele>
        <time>2021-10-13T10:59:55Z</time>
      </trkpt>
      <trkpt lat="40.175928" lon="-5.831988">
        <ele>460.278</ele>
        <time>2021-10-13T10:59:56Z</time>
      </trkpt>
      <trkpt lat="40.176006" lon="-5.831897">
        <ele>460.668</ele>
        <time>2021-10-13T10:59:58Z</time>
      </trkpt>
      <trkpt lat="40.176079" lon="-5.831798">
        <ele>460.931</ele>
        <time>2021-10-13T11:00:00Z</time>
      </trkpt>
      <trkpt lat="40.176151" lon="-5.831710">
        <ele>461.197</ele>
        <time>2021-10-13T11:00:02Z</time>
      </trkpt>
      <trkpt lat="40.176233" lon="-5.831616">
        <ele>461.336</ele>
        <time>2021-10-13T11:00:04Z</time>
      </trkpt>
      <trkpt lat="40.176278" lon="-5.831562">
        <ele>461.011</ele>
        <time>2021-10-13T11:00:05Z</time>
      </trkpt>
      <trkpt lat="40.176322" lon="-5.831504">
        <ele>460.724</ele>
        <time>2021-10-13T11:00:06Z</time>
      </trkpt>
      <trkpt lat="40.176424" lon="-5.831367">
        <ele>460.104</ele>
        <time>2021-10-13T11:00:08Z</time>
      </trkpt>
      <trkpt lat="40.176531" lon="-5.831234">
        <ele>460.014</ele>
        <time>2021-10-13T11:00:10Z</time>
      </trkpt>
      <trkpt lat="40.176583" lon="-5.831173">
        <ele>460.608</ele>
        <time>2021-10-13T11:00:11Z</time>
      </trkpt>
      <trkpt lat="40.176634" lon="-5.831113">
        <ele>460.560</ele>
        <time>2021-10-13T11:00:12Z</time>
      </trkpt>
      <trkpt lat="40.176735" lon="-5.830992">
        <ele>461.238</ele>
        <time>2021-10-13T11:00:14Z</time>
      </trkpt>
      <trkpt lat="40.176821" lon="-5.830882">
        <ele>461.325</ele>
        <time>2021-10-13T11:00:16Z</time>
      </trkpt>
      <trkpt lat="40.176863" lon="-5.830826">
        <ele>462.185</ele>
        <time>2021-10-13T11:00:18Z</time>
      </trkpt>
      <trkpt lat="40.176893" lon="-5.830781">
        <ele>462.118</ele>
        <time>2021-10-13T11:00:21Z</time>
      </trkpt>
      <trkpt lat="40.176941" lon="-5.830724">
        <ele>462.434</ele>
        <time>2021-10-13T11:00:24Z</time>
      </trkpt>
      <trkpt lat="40.176995" lon="-5.830682">
        <ele>462.963</ele>
        <time>2021-10-13T11:00:26Z</time>
      </trkpt>
      <trkpt lat="40.177080" lon="-5.830555">
        <ele>463.658</ele>
        <time>2021-10-13T11:00:28Z</time>
      </trkpt>
      <trkpt lat="40.177124" lon="-5.830506">
        <ele>482.997</ele>
        <time>2021-10-13T11:00:29Z</time>
      </trkpt>
      <trkpt lat="40.177165" lon="-5.830459">
        <ele>500.923</ele>
        <time>2021-10-13T11:00:30Z</time>
      </trkpt>
      <trkpt lat="40.177204" lon="-5.830410">
        <ele>518.725</ele>
        <time>2021-10-13T11:00:31Z</time>
      </trkpt>
      <trkpt lat="40.177245" lon="-5.830358">
        <ele>518.708</ele>
        <time>2021-10-13T11:00:32Z</time>
      </trkpt>
      <trkpt lat="40.177331" lon="-5.830249">
        <ele>518.757</ele>
        <time>2021-10-13T11:00:34Z</time>
      </trkpt>
      <trkpt lat="40.177429" lon="-5.830119">
        <ele>518.715</ele>
        <time>2021-10-13T11:00:36Z</time>
      </trkpt>
      <trkpt lat="40.177481" lon="-5.830053">
        <ele>518.722</ele>
        <time>2021-10-13T11:00:37Z</time>
      </trkpt>
      <trkpt lat="40.177534" lon="-5.829985">
        <ele>518.762</ele>
        <time>2021-10-13T11:00:38Z</time>
      </trkpt>
      <trkpt lat="40.177639" lon="-5.829857">
        <ele>518.755</ele>
        <time>2021-10-13T11:00:40Z</time>
      </trkpt>
      <trkpt lat="40.177702" lon="-5.829785">
        <ele>518.761</ele>
        <time>2021-10-13T11:00:41Z</time>
      </trkpt>
      <trkpt lat="40.177766" lon="-5.829708">
        <ele>518.780</ele>
        <time>2021-10-13T11:00:42Z</time>
      </trkpt>
      <trkpt lat="40.177900" lon="-5.829536">
        <ele>518.755</ele>
        <time>2021-10-13T11:00:44Z</time>
      </trkpt>
      <trkpt lat="40.178023" lon="-5.829377">
        <ele>518.617</ele>
        <time>2021-10-13T11:00:46Z</time>
      </trkpt>
      <trkpt lat="40.178086" lon="-5.829293">
        <ele>518.687</ele>
        <time>2021-10-13T11:00:47Z</time>
      </trkpt>
      <trkpt lat="40.178219" lon="-5.829130">
        <ele>518.615</ele>
        <time>2021-10-13T11:00:49Z</time>
      </trkpt>
      <trkpt lat="40.178287" lon="-5.829044">
        <ele>518.508</ele>
        <time>2021-10-13T11:00:50Z</time>
      </trkpt>
      <trkpt lat="40.178412" lon="-5.828873">
        <ele>518.489</ele>
        <time>2021-10-13T11:00:52Z</time>
      </trkpt>
      <trkpt lat="40.178480" lon="-5.828786">
        <ele>518.477</ele>
        <time>2021-10-13T11:00:53Z</time>
      </trkpt>
      <trkpt lat="40.178550" lon="-5.828695">
        <ele>518.454</ele>
        <time>2021-10-13T11:00:54Z</time>
      </trkpt>
      <trkpt lat="40.178622" lon="-5.828602">
        <ele>518.474</ele>
        <time>2021-10-13T11:00:55Z</time>
      </trkpt>
      <trkpt lat="40.178699" lon="-5.828510">
        <ele>518.497</ele>
        <time>2021-10-13T11:00:56Z</time>
      </trkpt>
      <trkpt lat="40.178858" lon="-5.828327">
        <ele>518.483</ele>
        <time>2021-10-13T11:00:58Z</time>
      </trkpt>
      <trkpt lat="40.179025" lon="-5.828121">
        <ele>518.412</ele>
        <time>2021-10-13T11:01:00Z</time>
      </trkpt>
      <trkpt lat="40.179201" lon="-5.827907">
        <ele>518.497</ele>
        <time>2021-10-13T11:01:02Z</time>
      </trkpt>
      <trkpt lat="40.179361" lon="-5.827644">
        <ele>518.498</ele>
        <time>2021-10-13T11:01:04Z</time>
      </trkpt>
      <trkpt lat="40.179436" lon="-5.827473">
        <ele>518.415</ele>
        <time>2021-10-13T11:01:05Z</time>
      </trkpt>
      <trkpt lat="40.179507" lon="-5.827284">
        <ele>518.426</ele>
        <time>2021-10-13T11:01:06Z</time>
      </trkpt>
      <trkpt lat="40.179671" lon="-5.826924">
        <ele>518.408</ele>
        <time>2021-10-13T11:01:08Z</time>
      </trkpt>
      <trkpt lat="40.179897" lon="-5.826612">
        <ele>518.457</ele>
        <time>2021-10-13T11:01:10Z</time>
      </trkpt>
      <trkpt lat="40.180168" lon="-5.826286">
        <ele>518.425</ele>
        <time>2021-10-13T11:01:12Z</time>
      </trkpt>
      <trkpt lat="40.180453" lon="-5.825966">
        <ele>518.542</ele>
        <time>2021-10-13T11:01:14Z</time>
      </trkpt>
      <trkpt lat="40.180728" lon="-5.825656">
        <ele>518.692</ele>
        <time>2021-10-13T11:01:16Z</time>
      </trkpt>
      <trkpt lat="40.180858" lon="-5.825489">
        <ele>518.615</ele>
        <time>2021-10-13T11:01:17Z</time>
      </trkpt>
      <trkpt lat="40.181082" lon="-5.825152">
        <ele>518.611</ele>
        <time>2021-10-13T11:01:19Z</time>
      </trkpt>
      <trkpt lat="40.181214" lon="-5.825005">
        <ele>518.630</ele>
        <time>2021-10-13T11:01:20Z</time>
      </trkpt>
      <trkpt lat="40.181526" lon="-5.824800">
        <ele>518.675</ele>
        <time>2021-10-13T11:01:22Z</time>
      </trkpt>
      <trkpt lat="40.181708" lon="-5.824690">
        <ele>518.637</ele>
        <time>2021-10-13T11:01:23Z</time>
      </trkpt>
      <trkpt lat="40.182082" lon="-5.824423">
        <ele>518.649</ele>
        <time>2021-10-13T11:01:25Z</time>
      </trkpt>
      <trkpt lat="40.182278" lon="-5.824246">
        <ele>493.513</ele>
        <time>2021-10-13T11:01:26Z</time>
      </trkpt>
      <trkpt lat="40.182649" lon="-5.823847">
        <ele>467.908</ele>
        <time>2021-10-13T11:01:28Z</time>
      </trkpt>
      <trkpt lat="40.182834" lon="-5.823614">
        <ele>468.031</ele>
        <time>2021-10-13T11:01:29Z</time>
      </trkpt>
      <trkpt lat="40.183162" lon="-5.823089">
        <ele>468.319</ele>
        <time>2021-10-13T11:01:31Z</time>
      </trkpt>
      <trkpt lat="40.183304" lon="-5.822794">
        <ele>468.096</ele>
        <time>2021-10-13T11:01:32Z</time>
      </trkpt>
      <trkpt lat="40.183517" lon="-5.822173">
        <ele>468.616</ele>
        <time>2021-10-13T11:01:34Z</time>
      </trkpt>
      <trkpt lat="40.183598" lon="-5.821826">
        <ele>469.339</ele>
        <time>2021-10-13T11:01:35Z</time>
      </trkpt>
      <trkpt lat="40.183660" lon="-5.821460">
        <ele>469.235</ele>
        <time>2021-10-13T11:01:36Z</time>
      </trkpt>
      <trkpt lat="40.183693" lon="-5.821096">
        <ele>469.924</ele>
        <time>2021-10-13T11:01:37Z</time>
      </trkpt>
      <trkpt lat="40.183702" lon="-5.820721">
        <ele>470.639</ele>
        <time>2021-10-13T11:01:38Z</time>
      </trkpt>
      <trkpt lat="40.183653" lon="-5.819999">
        <ele>472.237</ele>
        <time>2021-10-13T11:01:40Z</time>
      </trkpt>
      <trkpt lat="40.183602" lon="-5.819635">
        <ele>473.349</ele>
        <time>2021-10-13T11:01:41Z</time>
      </trkpt>
      <trkpt lat="40.183542" lon="-5.819291">
        <ele>474.513</ele>
        <time>2021-10-13T11:01:42Z</time>
      </trkpt>
      <trkpt lat="40.183474" lon="-5.818623">
        <ele>476.808</ele>
        <time>2021-10-13T11:01:44Z</time>
      </trkpt>
      <trkpt lat="40.183531" lon="-5.817961">
        <ele>479.331</ele>
        <time>2021-10-13T11:01:46Z</time>
      </trkpt>
      <trkpt lat="40.183727" lon="-5.817347">
        <ele>481.389</ele>
        <time>2021-10-13T11:01:48Z</time>
      </trkpt>
      <trkpt lat="40.184065" lon="-5.816858">
        <ele>482.876</ele>
        <time>2021-10-13T11:01:50Z</time>
      </trkpt>
      <trkpt lat="40.184505" lon="-5.816501">
        <ele>484.196</ele>
        <time>2021-10-13T11:01:52Z</time>
      </trkpt>
      <trkpt lat="40.185005" lon="-5.816249">
        <ele>484.699</ele>
        <time>2021-10-13T11:01:54Z</time>
      </trkpt>
      <trkpt lat="40.185264" lon="-5.816170">
        <ele>485.165</ele>
        <time>2021-10-13T11:01:55Z</time>
      </trkpt>
      <trkpt lat="40.185523" lon="-5.816102">
        <ele>484.984</ele>
        <time>2021-10-13T11:01:56Z</time>
      </trkpt>
      <trkpt lat="40.185940" lon="-5.815976">
        <ele>483.939</ele>
        <time>2021-10-13T11:01:58Z</time>
      </trkpt>
      <trkpt lat="40.186104" lon="-5.815914">
        <ele>484.985</ele>
        <time>2021-10-13T11:01:59Z</time>
      </trkpt>
      <trkpt lat="40.186235" lon="-5.815854">
        <ele>486.489</ele>
        <time>2021-10-13T11:02:00Z</time>
      </trkpt>
      <trkpt lat="40.186455" lon="-5.815720">
        <ele>486.517</ele>
        <time>2021-10-13T11:02:02Z</time>
      </trkpt>
      <trkpt lat="40.186657" lon="-5.815561">
        <ele>487.308</ele>
        <time>2021-10-13T11:02:04Z</time>
      </trkpt>
      <trkpt lat="40.186768" lon="-5.815460">
        <ele>487.636</ele>
        <time>2021-10-13T11:02:05Z</time>
      </trkpt>
      <trkpt lat="40.187005" lon="-5.815217">
        <ele>489.444</ele>
        <time>2021-10-13T11:02:07Z</time>
      </trkpt>
      <trkpt lat="40.187129" lon="-5.815072">
        <ele>489.921</ele>
        <time>2021-10-13T11:02:08Z</time>
      </trkpt>
      <trkpt lat="40.187343" lon="-5.814748">
        <ele>491.971</ele>
        <time>2021-10-13T11:02:10Z</time>
      </trkpt>
      <trkpt lat="40.187437" lon="-5.814566">
        <ele>493.164</ele>
        <time>2021-10-13T11:02:11Z</time>
      </trkpt>
      <trkpt lat="40.187610" lon="-5.814188">
        <ele>494.690</ele>
        <time>2021-10-13T11:02:13Z</time>
      </trkpt>
      <trkpt lat="40.187714" lon="-5.814010">
        <ele>496.189</ele>
        <time>2021-10-13T11:02:14Z</time>
      </trkpt>
      <trkpt lat="40.187952" lon="-5.813703">
        <ele>498.524</ele>
        <time>2021-10-13T11:02:16Z</time>
      </trkpt>
      <trkpt lat="40.188080" lon="-5.813549">
        <ele>499.261</ele>
        <time>2021-10-13T11:02:17Z</time>
      </trkpt>
      <trkpt lat="40.188199" lon="-5.813376">
        <ele>500.121</ele>
        <time>2021-10-13T11:02:18Z</time>
      </trkpt>
      <trkpt lat="40.188383" lon="-5.812977">
        <ele>502.613</ele>
        <time>2021-10-13T11:02:20Z</time>
      </trkpt>
      <trkpt lat="40.188491" lon="-5.812583">
        <ele>503.608</ele>
        <time>2021-10-13T11:02:22Z</time>
      </trkpt>
      <trkpt lat="40.188523" lon="-5.812390">
        <ele>504.654</ele>
        <time>2021-10-13T11:02:23Z</time>
      </trkpt>
      <trkpt lat="40.188539" lon="-5.812207">
        <ele>505.042</ele>
        <time>2021-10-13T11:02:24Z</time>
      </trkpt>
      <trkpt lat="40.188516" lon="-5.811883">
        <ele>506.099</ele>
        <time>2021-10-13T11:02:26Z</time>
      </trkpt>
      <trkpt lat="40.188408" lon="-5.811663">
        <ele>506.469</ele>
        <time>2021-10-13T11:02:28Z</time>
      </trkpt>
      <trkpt lat="40.188244" lon="-5.811542">
        <ele>507.142</ele>
        <time>2021-10-13T11:02:30Z</time>
      </trkpt>
      <trkpt lat="40.188159" lon="-5.811496">
        <ele>507.438</ele>
        <time>2021-10-13T11:02:31Z</time>
      </trkpt>
      <trkpt lat="40.188079" lon="-5.811436">
        <ele>508.057</ele>
        <time>2021-10-13T11:02:32Z</time>
      </trkpt>
      <trkpt lat="40.187967" lon="-5.811284">
        <ele>507.432</ele>
        <time>2021-10-13T11:02:34Z</time>
      </trkpt>
      <trkpt lat="40.187884" lon="-5.811080">
        <ele>506.815</ele>
        <time>2021-10-13T11:02:36Z</time>
      </trkpt>
      <trkpt lat="40.187853" lon="-5.810944">
        <ele>506.765</ele>
        <time>2021-10-13T11:02:37Z</time>
      </trkpt>
      <trkpt lat="40.187830" lon="-5.810793">
        <ele>506.611</ele>
        <time>2021-10-13T11:02:38Z</time>
      </trkpt>
      <trkpt lat="40.187821" lon="-5.810481">
        <ele>505.808</ele>
        <time>2021-10-13T11:02:40Z</time>
      </trkpt>
      <trkpt lat="40.187852" lon="-5.810155">
        <ele>504.349</ele>
        <time>2021-10-13T11:02:42Z</time>
      </trkpt>
      <trkpt lat="40.187928" lon="-5.809839">
        <ele>504.097</ele>
        <time>2021-10-13T11:02:44Z</time>
      </trkpt>
      <trkpt lat="40.188014" lon="-5.809573">
        <ele>503.334</ele>
        <time>2021-10-13T11:02:46Z</time>
      </trkpt>
      <trkpt lat="40.188057" lon="-5.809446">
        <ele>503.314</ele>
        <time>2021-10-13T11:02:47Z</time>
      </trkpt>
      <trkpt lat="40.188100" lon="-5.809320">
        <ele>503.257</ele>
        <time>2021-10-13T11:02:48Z</time>
      </trkpt>
      <trkpt lat="40.188143" lon="-5.809202">
        <ele>503.233</ele>
        <time>2021-10-13T11:02:49Z</time>
      </trkpt>
      <trkpt lat="40.188190" lon="-5.809096">
        <ele>503.252</ele>
        <time>2021-10-13T11:02:50Z</time>
      </trkpt>
      <trkpt lat="40.188283" lon="-5.808913">
        <ele>503.517</ele>
        <time>2021-10-13T11:02:52Z</time>
      </trkpt>
      <trkpt lat="40.188329" lon="-5.808826">
        <ele>503.417</ele>
        <time>2021-10-13T11:02:53Z</time>
      </trkpt>
      <trkpt lat="40.188373" lon="-5.808743">
        <ele>503.487</ele>
        <time>2021-10-13T11:02:54Z</time>
      </trkpt>
      <trkpt lat="40.188417" lon="-5.808660">
        <ele>503.415</ele>
        <time>2021-10-13T11:02:55Z</time>
      </trkpt>
      <trkpt lat="40.188457" lon="-5.808578">
        <ele>503.208</ele>
        <time>2021-10-13T11:02:56Z</time>
      </trkpt>
      <trkpt lat="40.188522" lon="-5.808438">
        <ele>502.749</ele>
        <time>2021-10-13T11:02:58Z</time>
      </trkpt>
      <trkpt lat="40.188605" lon="-5.808274">
        <ele>503.177</ele>
        <time>2021-10-13T11:03:00Z</time>
      </trkpt>
      <trkpt lat="40.188656" lon="-5.808181">
        <ele>503.474</ele>
        <time>2021-10-13T11:03:01Z</time>
      </trkpt>
      <trkpt lat="40.188707" lon="-5.808084">
        <ele>503.634</ele>
        <time>2021-10-13T11:03:02Z</time>
      </trkpt>
      <trkpt lat="40.188815" lon="-5.807884">
        <ele>503.877</ele>
        <time>2021-10-13T11:03:04Z</time>
      </trkpt>
      <trkpt lat="40.188877" lon="-5.807774">
        <ele>504.373</ele>
        <time>2021-10-13T11:03:05Z</time>
      </trkpt>
      <trkpt lat="40.189028" lon="-5.807548">
        <ele>504.342</ele>
        <time>2021-10-13T11:03:07Z</time>
      </trkpt>
      <trkpt lat="40.189121" lon="-5.807432">
        <ele>504.747</ele>
        <time>2021-10-13T11:03:08Z</time>
      </trkpt>
      <trkpt lat="40.189303" lon="-5.807204">
        <ele>503.974</ele>
        <time>2021-10-13T11:03:10Z</time>
      </trkpt>
      <trkpt lat="40.189481" lon="-5.806977">
        <ele>503.756</ele>
        <time>2021-10-13T11:03:12Z</time>
      </trkpt>
      <trkpt lat="40.189576" lon="-5.806864">
        <ele>503.021</ele>
        <time>2021-10-13T11:03:13Z</time>
      </trkpt>
      <trkpt lat="40.189668" lon="-5.806750">
        <ele>503.008</ele>
        <time>2021-10-13T11:03:14Z</time>
      </trkpt>
      <trkpt lat="40.189832" lon="-5.806549">
        <ele>502.795</ele>
        <time>2021-10-13T11:03:16Z</time>
      </trkpt>
      <trkpt lat="40.189908" lon="-5.806455">
        <ele>502.753</ele>
        <time>2021-10-13T11:03:17Z</time>
      </trkpt>
      <trkpt lat="40.189980" lon="-5.806371">
        <ele>503.940</ele>
        <time>2021-10-13T11:03:18Z</time>
      </trkpt>
      <trkpt lat="40.190118" lon="-5.806226">
        <ele>503.590</ele>
        <time>2021-10-13T11:03:20Z</time>
      </trkpt>
      <trkpt lat="40.190250" lon="-5.806113">
        <ele>503.453</ele>
        <time>2021-10-13T11:03:22Z</time>
      </trkpt>
      <trkpt lat="40.190334" lon="-5.806076">
        <ele>503.489</ele>
        <time>2021-10-13T11:03:23Z</time>
      </trkpt>
      <trkpt lat="40.190429" lon="-5.806061">
        <ele>503.328</ele>
        <time>2021-10-13T11:03:24Z</time>
      </trkpt>
      <trkpt lat="40.190645" lon="-5.806128">
        <ele>502.813</ele>
        <time>2021-10-13T11:03:26Z</time>
      </trkpt>
      <trkpt lat="40.190860" lon="-5.806244">
        <ele>503.446</ele>
        <time>2021-10-13T11:03:28Z</time>
      </trkpt>
      <trkpt lat="40.191091" lon="-5.806361">
        <ele>504.988</ele>
        <time>2021-10-13T11:03:30Z</time>
      </trkpt>
      <trkpt lat="40.191324" lon="-5.806477">
        <ele>504.816</ele>
        <time>2021-10-13T11:03:32Z</time>
      </trkpt>
      <trkpt lat="40.191523" lon="-5.806570">
        <ele>504.708</ele>
        <time>2021-10-13T11:03:34Z</time>
      </trkpt>
      <trkpt lat="40.191718" lon="-5.806666">
        <ele>504.452</ele>
        <time>2021-10-13T11:03:36Z</time>
      </trkpt>
      <trkpt lat="40.191923" lon="-5.806762">
        <ele>503.580</ele>
        <time>2021-10-13T11:03:38Z</time>
      </trkpt>
      <trkpt lat="40.192114" lon="-5.806847">
        <ele>503.317</ele>
        <time>2021-10-13T11:03:40Z</time>
      </trkpt>
      <trkpt lat="40.192296" lon="-5.806936">
        <ele>503.517</ele>
        <time>2021-10-13T11:03:42Z</time>
      </trkpt>
      <trkpt lat="40.192381" lon="-5.806976">
        <ele>503.760</ele>
        <time>2021-10-13T11:03:43Z</time>
      </trkpt>
      <trkpt lat="40.192466" lon="-5.807012">
        <ele>504.336</ele>
        <time>2021-10-13T11:03:44Z</time>
      </trkpt>
      <trkpt lat="40.192621" lon="-5.807104">
        <ele>505.155</ele>
        <time>2021-10-13T11:03:46Z</time>
      </trkpt>
      <trkpt lat="40.192775" lon="-5.807279">
        <ele>506.080</ele>
        <time>2021-10-13T11:03:48Z</time>
      </trkpt>
      <trkpt lat="40.192868" lon="-5.807415">
        <ele>506.095</ele>
        <time>2021-10-13T11:03:49Z</time>
      </trkpt>
      <trkpt lat="40.192969" lon="-5.807579">
        <ele>504.849</ele>
        <time>2021-10-13T11:03:50Z</time>
      </trkpt>
      <trkpt lat="40.193152" lon="-5.807885">
        <ele>505.323</ele>
        <time>2021-10-13T11:03:52Z</time>
      </trkpt>
      <trkpt lat="40.193317" lon="-5.808159">
        <ele>504.708</ele>
        <time>2021-10-13T11:03:54Z</time>
      </trkpt>
      <trkpt lat="40.193470" lon="-5.808402">
        <ele>503.067</ele>
        <time>2021-10-13T11:03:56Z</time>
      </trkpt>
      <trkpt lat="40.193594" lon="-5.808569">
        <ele>503.095</ele>
        <time>2021-10-13T11:03:58Z</time>
      </trkpt>
      <trkpt lat="40.193720" lon="-5.808634">
        <ele>502.382</ele>
        <time>2021-10-13T11:04:00Z</time>
      </trkpt>
      <trkpt lat="40.193837" lon="-5.808568">
        <ele>501.992</ele>
        <time>2021-10-13T11:04:02Z</time>
      </trkpt>
      <trkpt lat="40.193982" lon="-5.808413">
        <ele>500.215</ele>
        <time>2021-10-13T11:04:04Z</time>
      </trkpt>
      <trkpt lat="40.194171" lon="-5.808207">
        <ele>498.921</ele>
        <time>2021-10-13T11:04:06Z</time>
      </trkpt>
      <trkpt lat="40.194362" lon="-5.808003">
        <ele>498.850</ele>
        <time>2021-10-13T11:04:08Z</time>
      </trkpt>
      <trkpt lat="40.194504" lon="-5.807855">
        <ele>499.945</ele>
        <time>2021-10-13T11:04:10Z</time>
      </trkpt>
      <trkpt lat="40.194568" lon="-5.807794">
        <ele>500.842</ele>
        <time>2021-10-13T11:04:11Z</time>
      </trkpt>
      <trkpt lat="40.194684" lon="-5.807686">
        <ele>501.122</ele>
        <time>2021-10-13T11:04:13Z</time>
      </trkpt>
      <trkpt lat="40.194748" lon="-5.807626">
        <ele>501.214</ele>
        <time>2021-10-13T11:04:14Z</time>
      </trkpt>
      <trkpt lat="40.194878" lon="-5.807501">
        <ele>501.608</ele>
        <time>2021-10-13T11:04:16Z</time>
      </trkpt>
      <trkpt lat="40.194951" lon="-5.807433">
        <ele>502.072</ele>
        <time>2021-10-13T11:04:17Z</time>
      </trkpt>
      <trkpt lat="40.195027" lon="-5.807367">
        <ele>502.590</ele>
        <time>2021-10-13T11:04:18Z</time>
      </trkpt>
      <trkpt lat="40.195163" lon="-5.807234">
        <ele>503.157</ele>
        <time>2021-10-13T11:04:20Z</time>
      </trkpt>
      <trkpt lat="40.195265" lon="-5.807132">
        <ele>504.067</ele>
        <time>2021-10-13T11:04:22Z</time>
      </trkpt>
      <trkpt lat="40.195345" lon="-5.807051">
        <ele>504.850</ele>
        <time>2021-10-13T11:04:24Z</time>
      </trkpt>
      <trkpt lat="40.195422" lon="-5.806981">
        <ele>505.026</ele>
        <time>2021-10-13T11:04:26Z</time>
      </trkpt>
      <trkpt lat="40.195515" lon="-5.806902">
        <ele>505.345</ele>
        <time>2021-10-13T11:04:28Z</time>
      </trkpt>
      <trkpt lat="40.195557" lon="-5.806856">
        <ele>505.650</ele>
        <time>2021-10-13T11:04:30Z</time>
      </trkpt>
      <trkpt lat="40.195597" lon="-5.806819">
        <ele>506.867</ele>
        <time>2021-10-13T11:04:32Z</time>
      </trkpt>
      <trkpt lat="40.195649" lon="-5.806773">
        <ele>507.281</ele>
        <time>2021-10-13T11:04:34Z</time>
      </trkpt>
      <trkpt lat="40.195680" lon="-5.806729">
        <ele>507.419</ele>
        <time>2021-10-13T11:04:36Z</time>
      </trkpt>
      <trkpt lat="40.195740" lon="-5.806669">
        <ele>507.408</ele>
        <time>2021-10-13T11:04:45Z</time>
      </trkpt>
      <trkpt lat="40.195784" lon="-5.806633">
        <ele>507.484</ele>
        <time>2021-10-13T11:04:46Z</time>
      </trkpt>
      <trkpt lat="40.195861" lon="-5.806590">
        <ele>507.492</ele>
        <time>2021-10-13T11:04:48Z</time>
      </trkpt>
      <trkpt lat="40.195976" lon="-5.806633">
        <ele>507.429</ele>
        <time>2021-10-13T11:04:50Z</time>
      </trkpt>
      <trkpt lat="40.196076" lon="-5.806743">
        <ele>507.499</ele>
        <time>2021-10-13T11:04:52Z</time>
      </trkpt>
      <trkpt lat="40.196116" lon="-5.806793">
        <ele>507.452</ele>
        <time>2021-10-13T11:04:53Z</time>
      </trkpt>
      <trkpt lat="40.196153" lon="-5.806831">
        <ele>507.468</ele>
        <time>2021-10-13T11:04:54Z</time>
      </trkpt>
      <trkpt lat="40.196219" lon="-5.806917">
        <ele>507.487</ele>
        <time>2021-10-13T11:04:56Z</time>
      </trkpt>
      <trkpt lat="40.196334" lon="-5.806970">
        <ele>507.482</ele>
        <time>2021-10-13T11:04:58Z</time>
      </trkpt>
      <trkpt lat="40.196482" lon="-5.806903">
        <ele>507.487</ele>
        <time>2021-10-13T11:05:00Z</time>
      </trkpt>
      <trkpt lat="40.196676" lon="-5.806690">
        <ele>507.442</ele>
        <time>2021-10-13T11:05:02Z</time>
      </trkpt>
      <trkpt lat="40.196878" lon="-5.806397">
        <ele>507.426</ele>
        <time>2021-10-13T11:05:04Z</time>
      </trkpt>
      <trkpt lat="40.196986" lon="-5.806241">
        <ele>507.408</ele>
        <time>2021-10-13T11:05:05Z</time>
      </trkpt>
      <trkpt lat="40.197232" lon="-5.805932">
        <ele>507.466</ele>
        <time>2021-10-13T11:05:07Z</time>
      </trkpt>
      <trkpt lat="40.197378" lon="-5.805762">
        <ele>507.494</ele>
        <time>2021-10-13T11:05:08Z</time>
      </trkpt>
      <trkpt lat="40.197674" lon="-5.805420">
        <ele>507.491</ele>
        <time>2021-10-13T11:05:10Z</time>
      </trkpt>
      <trkpt lat="40.197973" lon="-5.805053">
        <ele>507.561</ele>
        <time>2021-10-13T11:05:12Z</time>
      </trkpt>
      <trkpt lat="40.198118" lon="-5.804844">
        <ele>507.544</ele>
        <time>2021-10-13T11:05:13Z</time>
      </trkpt>
      <trkpt lat="40.198262" lon="-5.804615">
        <ele>507.530</ele>
        <time>2021-10-13T11:05:14Z</time>
      </trkpt>
      <trkpt lat="40.198517" lon="-5.804149">
        <ele>507.579</ele>
        <time>2021-10-13T11:05:16Z</time>
      </trkpt>
      <trkpt lat="40.198748" lon="-5.803663">
        <ele>507.564</ele>
        <time>2021-10-13T11:05:18Z</time>
      </trkpt>
      <trkpt lat="40.198854" lon="-5.803427">
        <ele>507.565</ele>
        <time>2021-10-13T11:05:19Z</time>
      </trkpt>
      <trkpt lat="40.198953" lon="-5.803183">
        <ele>507.568</ele>
        <time>2021-10-13T11:05:20Z</time>
      </trkpt>
      <trkpt lat="40.199098" lon="-5.802722">
        <ele>507.514</ele>
        <time>2021-10-13T11:05:22Z</time>
      </trkpt>
      <trkpt lat="40.199231" lon="-5.802271">
        <ele>507.508</ele>
        <time>2021-10-13T11:05:24Z</time>
      </trkpt>
      <trkpt lat="40.199297" lon="-5.802047">
        <ele>507.564</ele>
        <time>2021-10-13T11:05:25Z</time>
      </trkpt>
      <trkpt lat="40.199359" lon="-5.801812">
        <ele>507.592</ele>
        <time>2021-10-13T11:05:26Z</time>
      </trkpt>
      <trkpt lat="40.199438" lon="-5.801337">
        <ele>507.569</ele>
        <time>2021-10-13T11:05:28Z</time>
      </trkpt>
      <trkpt lat="40.199516" lon="-5.800819">
        <ele>507.529</ele>
        <time>2021-10-13T11:05:30Z</time>
      </trkpt>
      <trkpt lat="40.199597" lon="-5.800342">
        <ele>507.562</ele>
        <time>2021-10-13T11:05:32Z</time>
      </trkpt>
      <trkpt lat="40.199723" lon="-5.799952">
        <ele>507.568</ele>
        <time>2021-10-13T11:05:34Z</time>
      </trkpt>
      <trkpt lat="40.199941" lon="-5.799633">
        <ele>507.597</ele>
        <time>2021-10-13T11:05:36Z</time>
      </trkpt>
      <trkpt lat="40.200060" lon="-5.799504">
        <ele>507.542</ele>
        <time>2021-10-13T11:05:37Z</time>
      </trkpt>
      <trkpt lat="40.200176" lon="-5.799368">
        <ele>507.564</ele>
        <time>2021-10-13T11:05:38Z</time>
      </trkpt>
      <trkpt lat="40.200368" lon="-5.799062">
        <ele>507.506</ele>
        <time>2021-10-13T11:05:40Z</time>
      </trkpt>
      <trkpt lat="40.200483" lon="-5.798652">
        <ele>512.016</ele>
        <time>2021-10-13T11:05:42Z</time>
      </trkpt>
      <trkpt lat="40.200513" lon="-5.798419">
        <ele>515.908</ele>
        <time>2021-10-13T11:05:43Z</time>
      </trkpt>
      <trkpt lat="40.200556" lon="-5.798193">
        <ele>516.044</ele>
        <time>2021-10-13T11:05:44Z</time>
      </trkpt>
      <trkpt lat="40.200651" lon="-5.797809">
        <ele>518.082</ele>
        <time>2021-10-13T11:05:46Z</time>
      </trkpt>
      <trkpt lat="40.200702" lon="-5.797635">
        <ele>518.779</ele>
        <time>2021-10-13T11:05:47Z</time>
      </trkpt>
      <trkpt lat="40.200752" lon="-5.797477">
        <ele>519.359</ele>
        <time>2021-10-13T11:05:48Z</time>
      </trkpt>
      <trkpt lat="40.200838" lon="-5.797217">
        <ele>519.572</ele>
        <time>2021-10-13T11:05:50Z</time>
      </trkpt>
      <trkpt lat="40.200889" lon="-5.797055">
        <ele>520.498</ele>
        <time>2021-10-13T11:05:52Z</time>
      </trkpt>
      <trkpt lat="40.200886" lon="-5.796929">
        <ele>521.417</ele>
        <time>2021-10-13T11:05:54Z</time>
      </trkpt>
      <trkpt lat="40.200849" lon="-5.796809">
        <ele>521.922</ele>
        <time>2021-10-13T11:05:56Z</time>
      </trkpt>
      <trkpt lat="40.200830" lon="-5.796725">
        <ele>521.986</ele>
        <time>2021-10-13T11:05:58Z</time>
      </trkpt>
      <trkpt lat="40.200810" lon="-5.796626">
        <ele>521.960</ele>
        <time>2021-10-13T11:06:00Z</time>
      </trkpt>
      <trkpt lat="40.200810" lon="-5.796565">
        <ele>521.326</ele>
        <time>2021-10-13T11:06:03Z</time>
      </trkpt>
      <trkpt lat="40.200816" lon="-5.796625">
        <ele>519.608</ele>
        <time>2021-10-13T11:06:13Z</time>
      </trkpt>
      <trkpt lat="40.200850" lon="-5.796576">
        <ele>519.666</ele>
        <time>2021-10-13T11:06:31Z</time>
      </trkpt>
      <trkpt lat="40.200908" lon="-5.796502">
        <ele>519.694</ele>
        <time>2021-10-13T11:06:32Z</time>
      </trkpt>
      <trkpt lat="40.201060" lon="-5.796375">
        <ele>519.691</ele>
        <time>2021-10-13T11:06:34Z</time>
      </trkpt>
      <trkpt lat="40.201127" lon="-5.796322">
        <ele>519.611</ele>
        <time>2021-10-13T11:06:35Z</time>
      </trkpt>
      <trkpt lat="40.201266" lon="-5.796137">
        <ele>519.614</ele>
        <time>2021-10-13T11:06:37Z</time>
      </trkpt>
      <trkpt lat="40.201342" lon="-5.795964">
        <ele>519.610</ele>
        <time>2021-10-13T11:06:38Z</time>
      </trkpt>
      <trkpt lat="40.201490" lon="-5.795521">
        <ele>519.699</ele>
        <time>2021-10-13T11:06:40Z</time>
      </trkpt>
      <trkpt lat="40.201564" lon="-5.795289">
        <ele>519.614</ele>
        <time>2021-10-13T11:06:41Z</time>
      </trkpt>
      <trkpt lat="40.201682" lon="-5.794932">
        <ele>519.647</ele>
        <time>2021-10-13T11:06:43Z</time>
      </trkpt>
      <trkpt lat="40.201728" lon="-5.794779">
        <ele>519.629</ele>
        <time>2021-10-13T11:06:44Z</time>
      </trkpt>
      <trkpt lat="40.201787" lon="-5.794559">
        <ele>519.621</ele>
        <time>2021-10-13T11:06:46Z</time>
      </trkpt>
      <trkpt lat="40.201821" lon="-5.794471">
        <ele>519.608</ele>
        <time>2021-10-13T11:06:47Z</time>
      </trkpt>
      <trkpt lat="40.201856" lon="-5.794381">
        <ele>519.612</ele>
        <time>2021-10-13T11:06:48Z</time>
      </trkpt>
      <trkpt lat="40.201889" lon="-5.794284">
        <ele>519.680</ele>
        <time>2021-10-13T11:06:49Z</time>
      </trkpt>
      <trkpt lat="40.201910" lon="-5.794185">
        <ele>519.687</ele>
        <time>2021-10-13T11:06:50Z</time>
      </trkpt>
      <trkpt lat="40.201898" lon="-5.794031">
        <ele>519.677</ele>
        <time>2021-10-13T11:06:52Z</time>
      </trkpt>
      <trkpt lat="40.201868" lon="-5.793966">
        <ele>519.650</ele>
        <time>2021-10-13T11:06:53Z</time>
      </trkpt>
      <trkpt lat="40.201845" lon="-5.793901">
        <ele>519.616</ele>
        <time>2021-10-13T11:06:54Z</time>
      </trkpt>
      <trkpt lat="40.201843" lon="-5.793838">
        <ele>519.675</ele>
        <time>2021-10-13T11:06:55Z</time>
      </trkpt>
      <trkpt lat="40.201895" lon="-5.793762">
        <ele>519.670</ele>
        <time>2021-10-13T11:06:57Z</time>
      </trkpt>
      <trkpt lat="40.201966" lon="-5.793767">
        <ele>519.686</ele>
        <time>2021-10-13T11:06:59Z</time>
      </trkpt>
      <trkpt lat="40.202017" lon="-5.793773">
        <ele>519.660</ele>
        <time>2021-10-13T11:07:01Z</time>
      </trkpt>
      <trkpt lat="40.202082" lon="-5.793742">
        <ele>519.626</ele>
        <time>2021-10-13T11:07:04Z</time>
      </trkpt>
      <trkpt lat="40.202176" lon="-5.793585">
        <ele>519.608</ele>
        <time>2021-10-13T11:07:06Z</time>
      </trkpt>
      <trkpt lat="40.202289" lon="-5.793306">
        <ele>519.636</ele>
        <time>2021-10-13T11:07:08Z</time>
      </trkpt>
      <trkpt lat="40.202434" lon="-5.792885">
        <ele>519.594</ele>
        <time>2021-10-13T11:07:10Z</time>
      </trkpt>
      <trkpt lat="40.202609" lon="-5.792332">
        <ele>519.541</ele>
        <time>2021-10-13T11:07:12Z</time>
      </trkpt>
      <trkpt lat="40.202822" lon="-5.791710">
        <ele>519.511</ele>
        <time>2021-10-13T11:07:14Z</time>
      </trkpt>
      <trkpt lat="40.203031" lon="-5.791094">
        <ele>519.574</ele>
        <time>2021-10-13T11:07:16Z</time>
      </trkpt>
      <trkpt lat="40.203138" lon="-5.790775">
        <ele>519.550</ele>
        <time>2021-10-13T11:07:17Z</time>
      </trkpt>
      <trkpt lat="40.203241" lon="-5.790470">
        <ele>519.579</ele>
        <time>2021-10-13T11:07:18Z</time>
      </trkpt>
      <trkpt lat="40.203450" lon="-5.789844">
        <ele>519.674</ele>
        <time>2021-10-13T11:07:20Z</time>
      </trkpt>
      <trkpt lat="40.203665" lon="-5.789202">
        <ele>519.679</ele>
        <time>2021-10-13T11:07:22Z</time>
      </trkpt>
      <trkpt lat="40.203777" lon="-5.788874">
        <ele>519.605</ele>
        <time>2021-10-13T11:07:23Z</time>
      </trkpt>
      <trkpt lat="40.203993" lon="-5.788283">
        <ele>519.625</ele>
        <time>2021-10-13T11:07:25Z</time>
      </trkpt>
      <trkpt lat="40.204106" lon="-5.788012">
        <ele>519.608</ele>
        <time>2021-10-13T11:07:26Z</time>
      </trkpt>
      <trkpt lat="40.204338" lon="-5.787559">
        <ele>519.515</ele>
        <time>2021-10-13T11:07:28Z</time>
      </trkpt>
      <trkpt lat="40.204627" lon="-5.787131">
        <ele>519.583</ele>
        <time>2021-10-13T11:07:30Z</time>
      </trkpt>
      <trkpt lat="40.204959" lon="-5.786686">
        <ele>519.460</ele>
        <time>2021-10-13T11:07:32Z</time>
      </trkpt>
      <trkpt lat="40.205289" lon="-5.786230">
        <ele>519.540</ele>
        <time>2021-10-13T11:07:34Z</time>
      </trkpt>
      <trkpt lat="40.205471" lon="-5.785979">
        <ele>519.543</ele>
        <time>2021-10-13T11:07:35Z</time>
      </trkpt>
      <trkpt lat="40.205852" lon="-5.785465">
        <ele>519.599</ele>
        <time>2021-10-13T11:07:37Z</time>
      </trkpt>
      <trkpt lat="40.206058" lon="-5.785188">
        <ele>519.548</ele>
        <time>2021-10-13T11:07:38Z</time>
      </trkpt>
      <trkpt lat="40.206446" lon="-5.784662">
        <ele>519.573</ele>
        <time>2021-10-13T11:07:40Z</time>
      </trkpt>
      <trkpt lat="40.206803" lon="-5.784140">
        <ele>519.523</ele>
        <time>2021-10-13T11:07:42Z</time>
      </trkpt>
      <trkpt lat="40.207029" lon="-5.783660">
        <ele>519.483</ele>
        <time>2021-10-13T11:07:44Z</time>
      </trkpt>
      <trkpt lat="40.207154" lon="-5.783210">
        <ele>519.411</ele>
        <time>2021-10-13T11:07:46Z</time>
      </trkpt>
      <trkpt lat="40.207197" lon="-5.782985">
        <ele>519.408</ele>
        <time>2021-10-13T11:07:47Z</time>
      </trkpt>
      <trkpt lat="40.207256" lon="-5.782569">
        <ele>519.480</ele>
        <time>2021-10-13T11:07:49Z</time>
      </trkpt>
      <trkpt lat="40.207283" lon="-5.782369">
        <ele>519.488</ele>
        <time>2021-10-13T11:07:50Z</time>
      </trkpt>
      <trkpt lat="40.207331" lon="-5.782021">
        <ele>519.425</ele>
        <time>2021-10-13T11:07:52Z</time>
      </trkpt>
      <trkpt lat="40.207372" lon="-5.781703">
        <ele>519.495</ele>
        <time>2021-10-13T11:07:54Z</time>
      </trkpt>
      <trkpt lat="40.207394" lon="-5.781559">
        <ele>519.488</ele>
        <time>2021-10-13T11:07:55Z</time>
      </trkpt>
      <trkpt lat="40.207415" lon="-5.781413">
        <ele>519.434</ele>
        <time>2021-10-13T11:07:56Z</time>
      </trkpt>
      <trkpt lat="40.207455" lon="-5.781126">
        <ele>519.443</ele>
        <time>2021-10-13T11:07:58Z</time>
      </trkpt>
      <trkpt lat="40.207478" lon="-5.780975">
        <ele>519.418</ele>
        <time>2021-10-13T11:07:59Z</time>
      </trkpt>
      <trkpt lat="40.207524" lon="-5.780694">
        <ele>519.436</ele>
        <time>2021-10-13T11:08:01Z</time>
      </trkpt>
      <trkpt lat="40.207548" lon="-5.780563">
        <ele>519.417</ele>
        <time>2021-10-13T11:08:02Z</time>
      </trkpt>
      <trkpt lat="40.207595" lon="-5.780329">
        <ele>543.618</ele>
        <time>2021-10-13T11:08:04Z</time>
      </trkpt>
      <trkpt lat="40.207630" lon="-5.780109">
        <ele>544.708</ele>
        <time>2021-10-13T11:08:06Z</time>
      </trkpt>
      <trkpt lat="40.207602" lon="-5.779885">
        <ele>545.451</ele>
        <time>2021-10-13T11:08:08Z</time>
      </trkpt>
      <trkpt lat="40.207547" lon="-5.779666">
        <ele>546.369</ele>
        <time>2021-10-13T11:08:10Z</time>
      </trkpt>
      <trkpt lat="40.207593" lon="-5.779473">
        <ele>547.666</ele>
        <time>2021-10-13T11:08:12Z</time>
      </trkpt>
      <trkpt lat="40.207661" lon="-5.779394">
        <ele>548.256</ele>
        <time>2021-10-13T11:08:13Z</time>
      </trkpt>
      <trkpt lat="40.207752" lon="-5.779341">
        <ele>548.489</ele>
        <time>2021-10-13T11:08:14Z</time>
      </trkpt>
      <trkpt lat="40.207946" lon="-5.779353">
        <ele>549.035</ele>
        <time>2021-10-13T11:08:16Z</time>
      </trkpt>
      <trkpt lat="40.208131" lon="-5.779552">
        <ele>548.534</ele>
        <time>2021-10-13T11:08:18Z</time>
      </trkpt>
      <trkpt lat="40.208228" lon="-5.779651">
        <ele>548.369</ele>
        <time>2021-10-13T11:08:19Z</time>
      </trkpt>
      <trkpt lat="40.208340" lon="-5.779712">
        <ele>547.985</ele>
        <time>2021-10-13T11:08:20Z</time>
      </trkpt>
      <trkpt lat="40.208578" lon="-5.779778">
        <ele>548.989</ele>
        <time>2021-10-13T11:08:22Z</time>
      </trkpt>
      <trkpt lat="40.208819" lon="-5.779862">
        <ele>550.917</ele>
        <time>2021-10-13T11:08:24Z</time>
      </trkpt>
      <trkpt lat="40.209021" lon="-5.779934">
        <ele>551.408</ele>
        <time>2021-10-13T11:08:26Z</time>
      </trkpt>
      <trkpt lat="40.209149" lon="-5.779977">
        <ele>553.136</ele>
        <time>2021-10-13T11:08:28Z</time>
      </trkpt>
      <trkpt lat="40.209196" lon="-5.779994">
        <ele>553.674</ele>
        <time>2021-10-13T11:08:29Z</time>
      </trkpt>
      <trkpt lat="40.209246" lon="-5.780006">
        <ele>554.441</ele>
        <time>2021-10-13T11:08:30Z</time>
      </trkpt>
      <trkpt lat="40.209354" lon="-5.780017">
        <ele>556.371</ele>
        <time>2021-10-13T11:08:32Z</time>
      </trkpt>
      <trkpt lat="40.209489" lon="-5.779981">
        <ele>556.634</ele>
        <time>2021-10-13T11:08:34Z</time>
      </trkpt>
      <trkpt lat="40.209656" lon="-5.779858">
        <ele>559.370</ele>
        <time>2021-10-13T11:08:36Z</time>
      </trkpt>
      <trkpt lat="40.209882" lon="-5.779651">
        <ele>561.649</ele>
        <time>2021-10-13T11:08:38Z</time>
      </trkpt>
      <trkpt lat="40.210128" lon="-5.779445">
        <ele>562.134</ele>
        <time>2021-10-13T11:08:40Z</time>
      </trkpt>
      <trkpt lat="40.210402" lon="-5.779283">
        <ele>563.972</ele>
        <time>2021-10-13T11:08:42Z</time>
      </trkpt>
      <trkpt lat="40.210662" lon="-5.779157">
        <ele>566.513</ele>
        <time>2021-10-13T11:08:44Z</time>
      </trkpt>
      <trkpt lat="40.210909" lon="-5.779056">
        <ele>567.514</ele>
        <time>2021-10-13T11:08:46Z</time>
      </trkpt>
      <trkpt lat="40.211034" lon="-5.779013">
        <ele>569.108</ele>
        <time>2021-10-13T11:08:47Z</time>
      </trkpt>
      <trkpt lat="40.211156" lon="-5.778978">
        <ele>569.445</ele>
        <time>2021-10-13T11:08:48Z</time>
      </trkpt>
      <trkpt lat="40.211281" lon="-5.778939">
        <ele>570.613</ele>
        <time>2021-10-13T11:08:49Z</time>
      </trkpt>
      <trkpt lat="40.211417" lon="-5.778901">
        <ele>571.750</ele>
        <time>2021-10-13T11:08:50Z</time>
      </trkpt>
      <trkpt lat="40.211700" lon="-5.778874">
        <ele>575.410</ele>
        <time>2021-10-13T11:08:52Z</time>
      </trkpt>
      <trkpt lat="40.211843" lon="-5.778889">
        <ele>576.483</ele>
        <time>2021-10-13T11:08:53Z</time>
      </trkpt>
      <trkpt lat="40.212111" lon="-5.778937">
        <ele>579.919</ele>
        <time>2021-10-13T11:08:55Z</time>
      </trkpt>
      <trkpt lat="40.212349" lon="-5.778913">
        <ele>580.688</ele>
        <time>2021-10-13T11:08:57Z</time>
      </trkpt>
      <trkpt lat="40.212458" lon="-5.778862">
        <ele>583.813</ele>
        <time>2021-10-13T11:08:58Z</time>
      </trkpt>
      <trkpt lat="40.212672" lon="-5.778751">
        <ele>586.462</ele>
        <time>2021-10-13T11:09:00Z</time>
      </trkpt>
      <trkpt lat="40.212920" lon="-5.778756">
        <ele>590.283</ele>
        <time>2021-10-13T11:09:02Z</time>
      </trkpt>
      <trkpt lat="40.213204" lon="-5.778840">
        <ele>592.711</ele>
        <time>2021-10-13T11:09:04Z</time>
      </trkpt>
      <trkpt lat="40.213488" lon="-5.779007">
        <ele>596.408</ele>
        <time>2021-10-13T11:09:06Z</time>
      </trkpt>
      <trkpt lat="40.213735" lon="-5.779270">
        <ele>599.574</ele>
        <time>2021-10-13T11:09:08Z</time>
      </trkpt>
      <trkpt lat="40.213953" lon="-5.779483">
        <ele>602.492</ele>
        <time>2021-10-13T11:09:10Z</time>
      </trkpt>
      <trkpt lat="40.214081" lon="-5.779572">
        <ele>603.529</ele>
        <time>2021-10-13T11:09:11Z</time>
      </trkpt>
      <trkpt lat="40.214224" lon="-5.779640">
        <ele>605.189</ele>
        <time>2021-10-13T11:09:12Z</time>
      </trkpt>
      <trkpt lat="40.214369" lon="-5.779703">
        <ele>606.712</ele>
        <time>2021-10-13T11:09:13Z</time>
      </trkpt>
      <trkpt lat="40.214514" lon="-5.779791">
        <ele>607.958</ele>
        <time>2021-10-13T11:09:14Z</time>
      </trkpt>
      <trkpt lat="40.214771" lon="-5.780052">
        <ele>610.997</ele>
        <time>2021-10-13T11:09:16Z</time>
      </trkpt>
      <trkpt lat="40.214891" lon="-5.780218">
        <ele>612.132</ele>
        <time>2021-10-13T11:09:17Z</time>
      </trkpt>
      <trkpt lat="40.215003" lon="-5.780391">
        <ele>613.368</ele>
        <time>2021-10-13T11:09:18Z</time>
      </trkpt>
      <trkpt lat="40.215221" lon="-5.780706">
        <ele>615.542</ele>
        <time>2021-10-13T11:09:20Z</time>
      </trkpt>
      <trkpt lat="40.215411" lon="-5.780930">
        <ele>617.326</ele>
        <time>2021-10-13T11:09:22Z</time>
      </trkpt>
      <trkpt lat="40.215617" lon="-5.781070">
        <ele>619.108</ele>
        <time>2021-10-13T11:09:24Z</time>
      </trkpt>
      <trkpt lat="40.215743" lon="-5.781089">
        <ele>619.334</ele>
        <time>2021-10-13T11:09:25Z</time>
      </trkpt>
      <trkpt lat="40.215886" lon="-5.781082">
        <ele>620.842</ele>
        <time>2021-10-13T11:09:26Z</time>
      </trkpt>
      <trkpt lat="40.216175" lon="-5.781067">
        <ele>622.819</ele>
        <time>2021-10-13T11:09:28Z</time>
      </trkpt>
      <trkpt lat="40.216332" lon="-5.781075">
        <ele>623.599</ele>
        <time>2021-10-13T11:09:29Z</time>
      </trkpt>
      <trkpt lat="40.216495" lon="-5.781101">
        <ele>624.552</ele>
        <time>2021-10-13T11:09:30Z</time>
      </trkpt>
      <trkpt lat="40.216666" lon="-5.781142">
        <ele>624.968</ele>
        <time>2021-10-13T11:09:31Z</time>
      </trkpt>
      <trkpt lat="40.216834" lon="-5.781191">
        <ele>624.737</ele>
        <time>2021-10-13T11:09:32Z</time>
      </trkpt>
      <trkpt lat="40.217165" lon="-5.781297">
        <ele>624.752</ele>
        <time>2021-10-13T11:09:34Z</time>
      </trkpt>
      <trkpt lat="40.217314" lon="-5.781315">
        <ele>624.675</ele>
        <time>2021-10-13T11:09:35Z</time>
      </trkpt>
      <trkpt lat="40.217445" lon="-5.781282">
        <ele>624.928</ele>
        <time>2021-10-13T11:09:36Z</time>
      </trkpt>
      <trkpt lat="40.217663" lon="-5.781113">
        <ele>625.320</ele>
        <time>2021-10-13T11:09:38Z</time>
      </trkpt>
      <trkpt lat="40.217894" lon="-5.780955">
        <ele>625.308</ele>
        <time>2021-10-13T11:09:40Z</time>
      </trkpt>
      <trkpt lat="40.218135" lon="-5.780929">
        <ele>625.885</ele>
        <time>2021-10-13T11:09:42Z</time>
      </trkpt>
      <trkpt lat="40.218322" lon="-5.781061">
        <ele>626.373</ele>
        <time>2021-10-13T11:09:44Z</time>
      </trkpt>
      <trkpt lat="40.218465" lon="-5.781369">
        <ele>626.740</ele>
        <time>2021-10-13T11:09:46Z</time>
      </trkpt>
      <trkpt lat="40.218544" lon="-5.781565">
        <ele>627.780</ele>
        <time>2021-10-13T11:09:47Z</time>
      </trkpt>
      <trkpt lat="40.218746" lon="-5.781968">
        <ele>628.663</ele>
        <time>2021-10-13T11:09:49Z</time>
      </trkpt>
      <trkpt lat="40.218861" lon="-5.782173">
        <ele>629.689</ele>
        <time>2021-10-13T11:09:50Z</time>
      </trkpt>
      <trkpt lat="40.219102" lon="-5.782550">
        <ele>631.018</ele>
        <time>2021-10-13T11:09:52Z</time>
      </trkpt>
      <trkpt lat="40.219334" lon="-5.782891">
        <ele>631.743</ele>
        <time>2021-10-13T11:09:54Z</time>
      </trkpt>
      <trkpt lat="40.219520" lon="-5.783170">
        <ele>633.271</ele>
        <time>2021-10-13T11:09:56Z</time>
      </trkpt>
      <trkpt lat="40.219642" lon="-5.783366">
        <ele>634.341</ele>
        <time>2021-10-13T11:09:58Z</time>
      </trkpt>
      <trkpt lat="40.219670" lon="-5.783461">
        <ele>635.215</ele>
        <time>2021-10-13T11:09:59Z</time>
      </trkpt>
      <trkpt lat="40.219648" lon="-5.783653">
        <ele>638.208</ele>
        <time>2021-10-13T11:10:01Z</time>
      </trkpt>
      <trkpt lat="40.219595" lon="-5.783733">
        <ele>639.745</ele>
        <time>2021-10-13T11:10:02Z</time>
      </trkpt>
      <trkpt lat="40.219451" lon="-5.783766">
        <ele>641.943</ele>
        <time>2021-10-13T11:10:04Z</time>
      </trkpt>
      <trkpt lat="40.219371" lon="-5.783707">
        <ele>643.960</ele>
        <time>2021-10-13T11:10:05Z</time>
      </trkpt>
      <trkpt lat="40.219296" lon="-5.783612">
        <ele>645.010</ele>
        <time>2021-10-13T11:10:06Z</time>
      </trkpt>
      <trkpt lat="40.219234" lon="-5.783481">
        <ele>646.613</ele>
        <time>2021-10-13T11:10:07Z</time>
      </trkpt>
      <trkpt lat="40.219175" lon="-5.783309">
        <ele>648.819</ele>
        <time>2021-10-13T11:10:08Z</time>
      </trkpt>
      <trkpt lat="40.219019" lon="-5.782912">
        <ele>651.248</ele>
        <time>2021-10-13T11:10:10Z</time>
      </trkpt>
      <trkpt lat="40.218804" lon="-5.782524">
        <ele>653.313</ele>
        <time>2021-10-13T11:10:12Z</time>
      </trkpt>
      <trkpt lat="40.218563" lon="-5.782169">
        <ele>656.243</ele>
        <time>2021-10-13T11:10:14Z</time>
      </trkpt>
      <trkpt lat="40.218332" lon="-5.781878">
        <ele>657.564</ele>
        <time>2021-10-13T11:10:16Z</time>
      </trkpt>
      <trkpt lat="40.218148" lon="-5.781660">
        <ele>658.210</ele>
        <time>2021-10-13T11:10:18Z</time>
      </trkpt>
      <trkpt lat="40.218077" lon="-5.781590">
        <ele>659.008</ele>
        <time>2021-10-13T11:10:19Z</time>
      </trkpt>
      <trkpt lat="40.218010" lon="-5.781548">
        <ele>660.842</ele>
        <time>2021-10-13T11:10:20Z</time>
      </trkpt>
      <trkpt lat="40.217884" lon="-5.781608">
        <ele>661.370</ele>
        <time>2021-10-13T11:10:22Z</time>
      </trkpt>
      <trkpt lat="40.217753" lon="-5.781825">
        <ele>663.797</ele>
        <time>2021-10-13T11:10:24Z</time>
      </trkpt>
      <trkpt lat="40.217603" lon="-5.782090">
        <ele>665.777</ele>
        <time>2021-10-13T11:10:26Z</time>
      </trkpt>
      <trkpt lat="40.217479" lon="-5.782383">
        <ele>668.510</ele>
        <time>2021-10-13T11:10:28Z</time>
      </trkpt>
      <trkpt lat="40.217429" lon="-5.782555">
        <ele>668.616</ele>
        <time>2021-10-13T11:10:29Z</time>
      </trkpt>
      <trkpt lat="40.217381" lon="-5.782728">
        <ele>669.465</ele>
        <time>2021-10-13T11:10:30Z</time>
      </trkpt>
      <trkpt lat="40.217262" lon="-5.783079">
        <ele>671.760</ele>
        <time>2021-10-13T11:10:32Z</time>
      </trkpt>
      <trkpt lat="40.217094" lon="-5.783391">
        <ele>672.186</ele>
        <time>2021-10-13T11:10:34Z</time>
      </trkpt>
      <trkpt lat="40.216976" lon="-5.783520">
        <ele>671.960</ele>
        <time>2021-10-13T11:10:35Z</time>
      </trkpt>
      <trkpt lat="40.216844" lon="-5.783620">
        <ele>671.826</ele>
        <time>2021-10-13T11:10:36Z</time>
      </trkpt>
      <trkpt lat="40.216708" lon="-5.783695">
        <ele>672.508</ele>
        <time>2021-10-13T11:10:37Z</time>
      </trkpt>
      <trkpt lat="40.216568" lon="-5.783749">
        <ele>673.196</ele>
        <time>2021-10-13T11:10:38Z</time>
      </trkpt>
      <trkpt lat="40.216302" lon="-5.783751">
        <ele>674.574</ele>
        <time>2021-10-13T11:10:40Z</time>
      </trkpt>
      <trkpt lat="40.216030" lon="-5.783622">
        <ele>677.311</ele>
        <time>2021-10-13T11:10:42Z</time>
      </trkpt>
      <trkpt lat="40.215895" lon="-5.783513">
        <ele>677.871</ele>
        <time>2021-10-13T11:10:43Z</time>
      </trkpt>
      <trkpt lat="40.215771" lon="-5.783367">
        <ele>678.164</ele>
        <time>2021-10-13T11:10:44Z</time>
      </trkpt>
      <trkpt lat="40.215582" lon="-5.783022">
        <ele>680.140</ele>
        <time>2021-10-13T11:10:46Z</time>
      </trkpt>
      <trkpt lat="40.215506" lon="-5.782857">
        <ele>681.029</ele>
        <time>2021-10-13T11:10:47Z</time>
      </trkpt>
      <trkpt lat="40.215349" lon="-5.782591">
        <ele>682.624</ele>
        <time>2021-10-13T11:10:49Z</time>
      </trkpt>
      <trkpt lat="40.215243" lon="-5.782471">
        <ele>683.069</ele>
        <time>2021-10-13T11:10:50Z</time>
      </trkpt>
      <trkpt lat="40.215008" lon="-5.782272">
        <ele>685.604</ele>
        <time>2021-10-13T11:10:52Z</time>
      </trkpt>
      <trkpt lat="40.214722" lon="-5.782130">
        <ele>688.324</ele>
        <time>2021-10-13T11:10:54Z</time>
      </trkpt>
      <trkpt lat="40.214571" lon="-5.782084">
        <ele>689.008</ele>
        <time>2021-10-13T11:10:55Z</time>
      </trkpt>
      <trkpt lat="40.214437" lon="-5.782053">
        <ele>690.274</ele>
        <time>2021-10-13T11:10:56Z</time>
      </trkpt>
      <trkpt lat="40.214244" lon="-5.782104">
        <ele>691.282</ele>
        <time>2021-10-13T11:10:58Z</time>
      </trkpt>
      <trkpt lat="40.214105" lon="-5.782307">
        <ele>693.789</ele>
        <time>2021-10-13T11:11:00Z</time>
      </trkpt>
      <trkpt lat="40.213980" lon="-5.782634">
        <ele>696.679</ele>
        <time>2021-10-13T11:11:02Z</time>
      </trkpt>
      <trkpt lat="40.213830" lon="-5.782997">
        <ele>698.512</ele>
        <time>2021-10-13T11:11:04Z</time>
      </trkpt>
      <trkpt lat="40.213734" lon="-5.783190">
        <ele>700.358</ele>
        <time>2021-10-13T11:11:05Z</time>
      </trkpt>
      <trkpt lat="40.213516" lon="-5.783584">
        <ele>705.267</ele>
        <time>2021-10-13T11:11:07Z</time>
      </trkpt>
      <trkpt lat="40.213400" lon="-5.783784">
        <ele>707.322</ele>
        <time>2021-10-13T11:11:08Z</time>
      </trkpt>
      <trkpt lat="40.213209" lon="-5.784179">
        <ele>709.838</ele>
        <time>2021-10-13T11:11:10Z</time>
      </trkpt>
      <trkpt lat="40.213078" lon="-5.784603">
        <ele>713.170</ele>
        <time>2021-10-13T11:11:12Z</time>
      </trkpt>
      <trkpt lat="40.212996" lon="-5.785098">
        <ele>715.017</ele>
        <time>2021-10-13T11:11:14Z</time>
      </trkpt>
      <trkpt lat="40.212955" lon="-5.785593">
        <ele>719.608</ele>
        <time>2021-10-13T11:11:16Z</time>
      </trkpt>
      <trkpt lat="40.212944" lon="-5.786090">
        <ele>722.931</ele>
        <time>2021-10-13T11:11:18Z</time>
      </trkpt>
      <trkpt lat="40.212947" lon="-5.786624">
        <ele>726.629</ele>
        <time>2021-10-13T11:11:20Z</time>
      </trkpt>
      <trkpt lat="40.212937" lon="-5.787141">
        <ele>730.626</ele>
        <time>2021-10-13T11:11:22Z</time>
      </trkpt>
      <trkpt lat="40.212898" lon="-5.787628">
        <ele>733.946</ele>
        <time>2021-10-13T11:11:24Z</time>
      </trkpt>
      <trkpt lat="40.212802" lon="-5.788104">
        <ele>737.299</ele>
        <time>2021-10-13T11:11:26Z</time>
      </trkpt>
      <trkpt lat="40.212694" lon="-5.788544">
        <ele>740.095</ele>
        <time>2021-10-13T11:11:28Z</time>
      </trkpt>
      <trkpt lat="40.212649" lon="-5.788779">
        <ele>742.344</ele>
        <time>2021-10-13T11:11:29Z</time>
      </trkpt>
      <trkpt lat="40.212588" lon="-5.789290">
        <ele>744.439</ele>
        <time>2021-10-13T11:11:31Z</time>
      </trkpt>
      <trkpt lat="40.212561" lon="-5.789566">
        <ele>746.473</ele>
        <time>2021-10-13T11:11:32Z</time>
      </trkpt>
      <trkpt lat="40.212509" lon="-5.790087">
        <ele>750.185</ele>
        <time>2021-10-13T11:11:34Z</time>
      </trkpt>
      <trkpt lat="40.212440" lon="-5.790556">
        <ele>753.913</ele>
        <time>2021-10-13T11:11:36Z</time>
      </trkpt>
      <trkpt lat="40.212389" lon="-5.790763">
        <ele>754.508</ele>
        <time>2021-10-13T11:11:37Z</time>
      </trkpt>
      <trkpt lat="40.212321" lon="-5.790951">
        <ele>756.255</ele>
        <time>2021-10-13T11:11:38Z</time>
      </trkpt>
      <trkpt lat="40.212084" lon="-5.791234">
        <ele>761.253</ele>
        <time>2021-10-13T11:11:40Z</time>
      </trkpt>
      <trkpt lat="40.211929" lon="-5.791358">
        <ele>762.710</ele>
        <time>2021-10-13T11:11:41Z</time>
      </trkpt>
      <trkpt lat="40.211668" lon="-5.791602">
        <ele>764.890</ele>
        <time>2021-10-13T11:11:43Z</time>
      </trkpt>
      <trkpt lat="40.211576" lon="-5.791745">
        <ele>766.153</ele>
        <time>2021-10-13T11:11:44Z</time>
      </trkpt>
      <trkpt lat="40.211439" lon="-5.792076">
        <ele>769.279</ele>
        <time>2021-10-13T11:11:46Z</time>
      </trkpt>
      <trkpt lat="40.211391" lon="-5.792245">
        <ele>770.718</ele>
        <time>2021-10-13T11:11:47Z</time>
      </trkpt>
      <trkpt lat="40.211374" lon="-5.792538">
        <ele>773.233</ele>
        <time>2021-10-13T11:11:49Z</time>
      </trkpt>
      <trkpt lat="40.211414" lon="-5.792654">
        <ele>773.744</ele>
        <time>2021-10-13T11:11:50Z</time>
      </trkpt>
      <trkpt lat="40.211566" lon="-5.792868">
        <ele>774.605</ele>
        <time>2021-10-13T11:11:52Z</time>
      </trkpt>
      <trkpt lat="40.211679" lon="-5.792991">
        <ele>775.515</ele>
        <time>2021-10-13T11:11:53Z</time>
      </trkpt>
      <trkpt lat="40.211933" lon="-5.793282">
        <ele>778.708</ele>
        <time>2021-10-13T11:11:55Z</time>
      </trkpt>
      <trkpt lat="40.212059" lon="-5.793444">
        <ele>779.592</ele>
        <time>2021-10-13T11:11:56Z</time>
      </trkpt>
      <trkpt lat="40.212259" lon="-5.793698">
        <ele>780.120</ele>
        <time>2021-10-13T11:11:58Z</time>
      </trkpt>
      <trkpt lat="40.212448" lon="-5.793830">
        <ele>780.997</ele>
        <time>2021-10-13T11:12:00Z</time>
      </trkpt>
      <trkpt lat="40.212602" lon="-5.793792">
        <ele>784.167</ele>
        <time>2021-10-13T11:12:02Z</time>
      </trkpt>
      <trkpt lat="40.212753" lon="-5.793599">
        <ele>786.180</ele>
        <time>2021-10-13T11:12:04Z</time>
      </trkpt>
      <trkpt lat="40.212832" lon="-5.793447">
        <ele>787.936</ele>
        <time>2021-10-13T11:12:05Z</time>
      </trkpt>
      <trkpt lat="40.212917" lon="-5.793261">
        <ele>788.495</ele>
        <time>2021-10-13T11:12:06Z</time>
      </trkpt>
      <trkpt lat="40.213124" lon="-5.792905">
        <ele>790.810</ele>
        <time>2021-10-13T11:12:08Z</time>
      </trkpt>
      <trkpt lat="40.213344" lon="-5.792689">
        <ele>792.496</ele>
        <time>2021-10-13T11:12:10Z</time>
      </trkpt>
      <trkpt lat="40.213609" lon="-5.792633">
        <ele>794.331</ele>
        <time>2021-10-13T11:12:12Z</time>
      </trkpt>
      <trkpt lat="40.213764" lon="-5.792674">
        <ele>796.724</ele>
        <time>2021-10-13T11:12:13Z</time>
      </trkpt>
      <trkpt lat="40.213929" lon="-5.792723">
        <ele>797.708</ele>
        <time>2021-10-13T11:12:14Z</time>
      </trkpt>
      <trkpt lat="40.214240" lon="-5.792758">
        <ele>801.367</ele>
        <time>2021-10-13T11:12:16Z</time>
      </trkpt>
      <trkpt lat="40.214377" lon="-5.792754">
        <ele>801.965</ele>
        <time>2021-10-13T11:12:17Z</time>
      </trkpt>
      <trkpt lat="40.214498" lon="-5.792753">
        <ele>802.662</ele>
        <time>2021-10-13T11:12:18Z</time>
      </trkpt>
      <trkpt lat="40.214608" lon="-5.792767">
        <ele>803.992</ele>
        <time>2021-10-13T11:12:19Z</time>
      </trkpt>
      <trkpt lat="40.214708" lon="-5.792801">
        <ele>804.865</ele>
        <time>2021-10-13T11:12:20Z</time>
      </trkpt>
      <trkpt lat="40.214861" lon="-5.792970">
        <ele>806.631</ele>
        <time>2021-10-13T11:12:22Z</time>
      </trkpt>
      <trkpt lat="40.214910" lon="-5.793119">
        <ele>809.610</ele>
        <time>2021-10-13T11:12:23Z</time>
      </trkpt>
      <trkpt lat="40.214944" lon="-5.793317">
        <ele>811.465</ele>
        <time>2021-10-13T11:12:24Z</time>
      </trkpt>
      <trkpt lat="40.214944" lon="-5.793843">
        <ele>813.595</ele>
        <time>2021-10-13T11:12:26Z</time>
      </trkpt>
      <trkpt lat="40.214855" lon="-5.794401">
        <ele>817.249</ele>
        <time>2021-10-13T11:12:28Z</time>
      </trkpt>
      <trkpt lat="40.214809" lon="-5.794662">
        <ele>817.423</ele>
        <time>2021-10-13T11:12:29Z</time>
      </trkpt>
      <trkpt lat="40.214772" lon="-5.794890">
        <ele>818.608</ele>
        <time>2021-10-13T11:12:30Z</time>
      </trkpt>
      <trkpt lat="40.214738" lon="-5.795276">
        <ele>821.067</ele>
        <time>2021-10-13T11:12:32Z</time>
      </trkpt>
      <trkpt lat="40.214773" lon="-5.795637">
        <ele>823.725</ele>
        <time>2021-10-13T11:12:34Z</time>
      </trkpt>
      <trkpt lat="40.214807" lon="-5.795829">
        <ele>824.552</ele>
        <time>2021-10-13T11:12:35Z</time>
      </trkpt>
      <trkpt lat="40.214844" lon="-5.796226">
        <ele>826.832</ele>
        <time>2021-10-13T11:12:37Z</time>
      </trkpt>
      <trkpt lat="40.214821" lon="-5.796436">
        <ele>827.665</ele>
        <time>2021-10-13T11:12:38Z</time>
      </trkpt>
      <trkpt lat="40.214695" lon="-5.796847">
        <ele>830.781</ele>
        <time>2021-10-13T11:12:40Z</time>
      </trkpt>
      <trkpt lat="40.214558" lon="-5.797341">
        <ele>833.760</ele>
        <time>2021-10-13T11:12:42Z</time>
      </trkpt>
      <trkpt lat="40.214472" lon="-5.797979">
        <ele>834.695</ele>
        <time>2021-10-13T11:12:44Z</time>
      </trkpt>
      <trkpt lat="40.214404" lon="-5.798666">
        <ele>840.528</ele>
        <time>2021-10-13T11:12:46Z</time>
      </trkpt>
      <trkpt lat="40.214340" lon="-5.799286">
        <ele>844.089</ele>
        <time>2021-10-13T11:12:48Z</time>
      </trkpt>
      <trkpt lat="40.214317" lon="-5.799552">
        <ele>845.517</ele>
        <time>2021-10-13T11:12:49Z</time>
      </trkpt>
      <trkpt lat="40.214297" lon="-5.799781">
        <ele>846.608</ele>
        <time>2021-10-13T11:12:50Z</time>
      </trkpt>
      <trkpt lat="40.214230" lon="-5.800119">
        <ele>849.050</ele>
        <time>2021-10-13T11:12:52Z</time>
      </trkpt>
      <trkpt lat="40.214089" lon="-5.800375">
        <ele>850.658</ele>
        <time>2021-10-13T11:12:54Z</time>
      </trkpt>
      <trkpt lat="40.213984" lon="-5.800488">
        <ele>853.045</ele>
        <time>2021-10-13T11:12:55Z</time>
      </trkpt>
      <trkpt lat="40.213863" lon="-5.800597">
        <ele>854.685</ele>
        <time>2021-10-13T11:12:56Z</time>
      </trkpt>
      <trkpt lat="40.213605" lon="-5.800765">
        <ele>857.138</ele>
        <time>2021-10-13T11:12:58Z</time>
      </trkpt>
      <trkpt lat="40.213392" lon="-5.800930">
        <ele>859.314</ele>
        <time>2021-10-13T11:13:00Z</time>
      </trkpt>
      <trkpt lat="40.213311" lon="-5.801057">
        <ele>860.183</ele>
        <time>2021-10-13T11:13:01Z</time>
      </trkpt>
      <trkpt lat="40.213246" lon="-5.801215">
        <ele>862.938</ele>
        <time>2021-10-13T11:13:02Z</time>
      </trkpt>
      <trkpt lat="40.213144" lon="-5.801589">
        <ele>865.445</ele>
        <time>2021-10-13T11:13:04Z</time>
      </trkpt>
      <trkpt lat="40.213038" lon="-5.801968">
        <ele>867.647</ele>
        <time>2021-10-13T11:13:06Z</time>
      </trkpt>
      <trkpt lat="40.213002" lon="-5.802156">
        <ele>869.311</ele>
        <time>2021-10-13T11:13:07Z</time>
      </trkpt>
      <trkpt lat="40.212995" lon="-5.802318">
        <ele>871.308</ele>
        <time>2021-10-13T11:13:08Z</time>
      </trkpt>
      <trkpt lat="40.213081" lon="-5.802577">
        <ele>873.412</ele>
        <time>2021-10-13T11:13:10Z</time>
      </trkpt>
      <trkpt lat="40.213296" lon="-5.802734">
        <ele>876.030</ele>
        <time>2021-10-13T11:13:12Z</time>
      </trkpt>
      <trkpt lat="40.213438" lon="-5.802765">
        <ele>876.697</ele>
        <time>2021-10-13T11:13:13Z</time>
      </trkpt>
      <trkpt lat="40.213584" lon="-5.802790">
        <ele>879.967</ele>
        <time>2021-10-13T11:13:14Z</time>
      </trkpt>
      <trkpt lat="40.213799" lon="-5.802879">
        <ele>880.820</ele>
        <time>2021-10-13T11:13:16Z</time>
      </trkpt>
      <trkpt lat="40.213908" lon="-5.803038">
        <ele>884.116</ele>
        <time>2021-10-13T11:13:18Z</time>
      </trkpt>
      <trkpt lat="40.213871" lon="-5.803285">
        <ele>885.365</ele>
        <time>2021-10-13T11:13:20Z</time>
      </trkpt>
      <trkpt lat="40.213707" lon="-5.803627">
        <ele>888.870</ele>
        <time>2021-10-13T11:13:22Z</time>
      </trkpt>
      <trkpt lat="40.213606" lon="-5.803829">
        <ele>890.048</ele>
        <time>2021-10-13T11:13:23Z</time>
      </trkpt>
      <trkpt lat="40.213400" lon="-5.804225">
        <ele>893.361</ele>
        <time>2021-10-13T11:13:25Z</time>
      </trkpt>
      <trkpt lat="40.213304" lon="-5.804393">
        <ele>894.717</ele>
        <time>2021-10-13T11:13:26Z</time>
      </trkpt>
      <trkpt lat="40.213158" lon="-5.804693">
        <ele>897.708</ele>
        <time>2021-10-13T11:13:28Z</time>
      </trkpt>
      <trkpt lat="40.213068" lon="-5.805037">
        <ele>898.192</ele>
        <time>2021-10-13T11:13:30Z</time>
      </trkpt>
      <trkpt lat="40.213030" lon="-5.805211">
        <ele>899.460</ele>
        <time>2021-10-13T11:13:31Z</time>
      </trkpt>
      <trkpt lat="40.212984" lon="-5.805388">
        <ele>900.557</ele>
        <time>2021-10-13T11:13:32Z</time>
      </trkpt>
      <trkpt lat="40.212905" lon="-5.805745">
        <ele>903.047</ele>
        <time>2021-10-13T11:13:34Z</time>
      </trkpt>
      <trkpt lat="40.212823" lon="-5.806138">
        <ele>905.190</ele>
        <time>2021-10-13T11:13:36Z</time>
      </trkpt>
      <trkpt lat="40.212726" lon="-5.806501">
        <ele>908.546</ele>
        <time>2021-10-13T11:13:38Z</time>
      </trkpt>
      <trkpt lat="40.212656" lon="-5.806859">
        <ele>912.225</ele>
        <time>2021-10-13T11:13:40Z</time>
      </trkpt>
      <trkpt lat="40.212612" lon="-5.807233">
        <ele>916.270</ele>
        <time>2021-10-13T11:13:42Z</time>
      </trkpt>
      <trkpt lat="40.212568" lon="-5.807417">
        <ele>917.369</ele>
        <time>2021-10-13T11:13:43Z</time>
      </trkpt>
      <trkpt lat="40.212506" lon="-5.807595">
        <ele>918.804</ele>
        <time>2021-10-13T11:13:44Z</time>
      </trkpt>
      <trkpt lat="40.212377" lon="-5.807885">
        <ele>921.424</ele>
        <time>2021-10-13T11:13:46Z</time>
      </trkpt>
      <trkpt lat="40.212299" lon="-5.807997">
        <ele>922.108</ele>
        <time>2021-10-13T11:13:47Z</time>
      </trkpt>
      <trkpt lat="40.212070" lon="-5.808127">
        <ele>922.874</ele>
        <time>2021-10-13T11:13:49Z</time>
      </trkpt>
      <trkpt lat="40.211936" lon="-5.808180">
        <ele>924.582</ele>
        <time>2021-10-13T11:13:50Z</time>
      </trkpt>
      <trkpt lat="40.211720" lon="-5.808402">
        <ele>926.819</ele>
        <time>2021-10-13T11:13:52Z</time>
      </trkpt>
      <trkpt lat="40.211629" lon="-5.808547">
        <ele>928.369</ele>
        <time>2021-10-13T11:13:53Z</time>
      </trkpt>
      <trkpt lat="40.211457" lon="-5.808758">
        <ele>930.292</ele>
        <time>2021-10-13T11:13:55Z</time>
      </trkpt>
      <trkpt lat="40.211339" lon="-5.808815">
        <ele>931.268</ele>
        <time>2021-10-13T11:13:56Z</time>
      </trkpt>
      <trkpt lat="40.211061" lon="-5.808852">
        <ele>934.157</ele>
        <time>2021-10-13T11:13:58Z</time>
      </trkpt>
      <trkpt lat="40.210806" lon="-5.808924">
        <ele>936.382</ele>
        <time>2021-10-13T11:14:00Z</time>
      </trkpt>
      <trkpt lat="40.210695" lon="-5.809006">
        <ele>937.127</ele>
        <time>2021-10-13T11:14:01Z</time>
      </trkpt>
      <trkpt lat="40.210584" lon="-5.809125">
        <ele>938.868</ele>
        <time>2021-10-13T11:14:02Z</time>
      </trkpt>
      <trkpt lat="40.210380" lon="-5.809368">
        <ele>940.814</ele>
        <time>2021-10-13T11:14:04Z</time>
      </trkpt>
      <trkpt lat="40.210294" lon="-5.809469">
        <ele>942.708</ele>
        <time>2021-10-13T11:14:05Z</time>
      </trkpt>
      <trkpt lat="40.210227" lon="-5.809562">
        <ele>943.950</ele>
        <time>2021-10-13T11:14:06Z</time>
      </trkpt>
      <trkpt lat="40.210173" lon="-5.809742">
        <ele>947.218</ele>
        <time>2021-10-13T11:14:08Z</time>
      </trkpt>
      <trkpt lat="40.210250" lon="-5.809850">
        <ele>948.195</ele>
        <time>2021-10-13T11:14:10Z</time>
      </trkpt>
      <trkpt lat="40.210336" lon="-5.809872">
        <ele>948.275</ele>
        <time>2021-10-13T11:14:11Z</time>
      </trkpt>
      <trkpt lat="40.210575" lon="-5.809779">
        <ele>951.448</ele>
        <time>2021-10-13T11:14:13Z</time>
      </trkpt>
      <trkpt lat="40.210710" lon="-5.809649">
        <ele>953.924</ele>
        <time>2021-10-13T11:14:14Z</time>
      </trkpt>
      <trkpt lat="40.210992" lon="-5.809367">
        <ele>954.413</ele>
        <time>2021-10-13T11:14:16Z</time>
      </trkpt>
      <trkpt lat="40.211319" lon="-5.809194">
        <ele>955.928</ele>
        <time>2021-10-13T11:14:18Z</time>
      </trkpt>
      <trkpt lat="40.211480" lon="-5.809167">
        <ele>957.178</ele>
        <time>2021-10-13T11:14:19Z</time>
      </trkpt>
      <trkpt lat="40.211628" lon="-5.809160">
        <ele>957.733</ele>
        <time>2021-10-13T11:14:20Z</time>
      </trkpt>
      <trkpt lat="40.211873" lon="-5.809074">
        <ele>959.126</ele>
        <time>2021-10-13T11:14:22Z</time>
      </trkpt>
      <trkpt lat="40.211977" lon="-5.808977">
        <ele>959.608</ele>
        <time>2021-10-13T11:14:23Z</time>
      </trkpt>
      <trkpt lat="40.212077" lon="-5.808868">
        <ele>960.435</ele>
        <time>2021-10-13T11:14:24Z</time>
      </trkpt>
      <trkpt lat="40.212311" lon="-5.808771">
        <ele>962.773</ele>
        <time>2021-10-13T11:14:26Z</time>
      </trkpt>
      <trkpt lat="40.212567" lon="-5.808813">
        <ele>964.070</ele>
        <time>2021-10-13T11:14:28Z</time>
      </trkpt>
      <trkpt lat="40.212685" lon="-5.808801">
        <ele>964.740</ele>
        <time>2021-10-13T11:14:29Z</time>
      </trkpt>
      <trkpt lat="40.212882" lon="-5.808687">
        <ele>966.463</ele>
        <time>2021-10-13T11:14:31Z</time>
      </trkpt>
      <trkpt lat="40.212953" lon="-5.808566">
        <ele>968.419</ele>
        <time>2021-10-13T11:14:32Z</time>
      </trkpt>
      <trkpt lat="40.213065" lon="-5.808233">
        <ele>969.688</ele>
        <time>2021-10-13T11:14:34Z</time>
      </trkpt>
      <trkpt lat="40.213140" lon="-5.808066">
        <ele>971.143</ele>
        <time>2021-10-13T11:14:35Z</time>
      </trkpt>
      <trkpt lat="40.213225" lon="-5.807905">
        <ele>972.643</ele>
        <time>2021-10-13T11:14:36Z</time>
      </trkpt>
      <trkpt lat="40.213399" lon="-5.807629">
        <ele>975.364</ele>
        <time>2021-10-13T11:14:38Z</time>
      </trkpt>
      <trkpt lat="40.213532" lon="-5.807377">
        <ele>976.810</ele>
        <time>2021-10-13T11:14:40Z</time>
      </trkpt>
      <trkpt lat="40.213569" lon="-5.807224">
        <ele>978.108</ele>
        <time>2021-10-13T11:14:41Z</time>
      </trkpt>
      <trkpt lat="40.213594" lon="-5.807053">
        <ele>978.772</ele>
        <time>2021-10-13T11:14:42Z</time>
      </trkpt>
      <trkpt lat="40.213632" lon="-5.806878">
        <ele>979.160</ele>
        <time>2021-10-13T11:14:43Z</time>
      </trkpt>
      <trkpt lat="40.213707" lon="-5.806698">
        <ele>979.967</ele>
        <time>2021-10-13T11:14:44Z</time>
      </trkpt>
      <trkpt lat="40.213938" lon="-5.806334">
        <ele>982.477</ele>
        <time>2021-10-13T11:14:46Z</time>
      </trkpt>
      <trkpt lat="40.214066" lon="-5.806148">
        <ele>984.040</ele>
        <time>2021-10-13T11:14:47Z</time>
      </trkpt>
      <trkpt lat="40.214296" lon="-5.805821">
        <ele>987.486</ele>
        <time>2021-10-13T11:14:49Z</time>
      </trkpt>
      <trkpt lat="40.214391" lon="-5.805699">
        <ele>988.715</ele>
        <time>2021-10-13T11:14:50Z</time>
      </trkpt>
      <trkpt lat="40.214524" lon="-5.805608">
        <ele>989.510</ele>
        <time>2021-10-13T11:14:52Z</time>
      </trkpt>
      <trkpt lat="40.214633" lon="-5.805653">
        <ele>991.772</ele>
        <time>2021-10-13T11:14:54Z</time>
      </trkpt>
      <trkpt lat="40.214668" lon="-5.805818">
        <ele>993.013</ele>
        <time>2021-10-13T11:14:56Z</time>
      </trkpt>
      <trkpt lat="40.214547" lon="-5.806005">
        <ele>994.314</ele>
        <time>2021-10-13T11:14:58Z</time>
      </trkpt>
      <trkpt lat="40.214454" lon="-5.806105">
        <ele>995.308</ele>
        <time>2021-10-13T11:14:59Z</time>
      </trkpt>
      <trkpt lat="40.214233" lon="-5.806379">
        <ele>997.945</ele>
        <time>2021-10-13T11:15:01Z</time>
      </trkpt>
      <trkpt lat="40.214118" lon="-5.806570">
        <ele>1000.043</ele>
        <time>2021-10-13T11:15:02Z</time>
      </trkpt>
      <trkpt lat="40.213949" lon="-5.806977">
        <ele>1001.080</ele>
        <time>2021-10-13T11:15:04Z</time>
      </trkpt>
      <trkpt lat="40.213882" lon="-5.807422">
        <ele>1002.790</ele>
        <time>2021-10-13T11:15:06Z</time>
      </trkpt>
      <trkpt lat="40.213854" lon="-5.807648">
        <ele>1003.663</ele>
        <time>2021-10-13T11:15:07Z</time>
      </trkpt>
      <trkpt lat="40.213794" lon="-5.807854">
        <ele>1004.469</ele>
        <time>2021-10-13T11:15:08Z</time>
      </trkpt>
      <trkpt lat="40.213607" lon="-5.808196">
        <ele>1006.758</ele>
        <time>2021-10-13T11:15:10Z</time>
      </trkpt>
      <trkpt lat="40.213448" lon="-5.808575">
        <ele>1008.023</ele>
        <time>2021-10-13T11:15:12Z</time>
      </trkpt>
      <trkpt lat="40.213412" lon="-5.808782">
        <ele>1009.063</ele>
        <time>2021-10-13T11:15:13Z</time>
      </trkpt>
      <trkpt lat="40.213404" lon="-5.808983">
        <ele>1010.844</ele>
        <time>2021-10-13T11:15:14Z</time>
      </trkpt>
      <trkpt lat="40.213403" lon="-5.809319">
        <ele>1013.118</ele>
        <time>2021-10-13T11:15:16Z</time>
      </trkpt>
      <trkpt lat="40.213367" lon="-5.809469">
        <ele>1013.908</ele>
        <time>2021-10-13T11:15:17Z</time>
      </trkpt>
      <trkpt lat="40.213191" lon="-5.809713">
        <ele>1016.444</ele>
        <time>2021-10-13T11:15:19Z</time>
      </trkpt>
      <trkpt lat="40.213057" lon="-5.809830">
        <ele>1016.832</ele>
        <time>2021-10-13T11:15:20Z</time>
      </trkpt>
      <trkpt lat="40.212772" lon="-5.810057">
        <ele>1019.379</ele>
        <time>2021-10-13T11:15:22Z</time>
      </trkpt>
      <trkpt lat="40.212499" lon="-5.810292">
        <ele>1022.789</ele>
        <time>2021-10-13T11:15:24Z</time>
      </trkpt>
      <trkpt lat="40.212312" lon="-5.810551">
        <ele>1025.182</ele>
        <time>2021-10-13T11:15:26Z</time>
      </trkpt>
      <trkpt lat="40.212244" lon="-5.810874">
        <ele>1025.868</ele>
        <time>2021-10-13T11:15:28Z</time>
      </trkpt>
      <trkpt lat="40.212230" lon="-5.811062">
        <ele>1027.227</ele>
        <time>2021-10-13T11:15:29Z</time>
      </trkpt>
      <trkpt lat="40.212222" lon="-5.811237">
        <ele>1029.342</ele>
        <time>2021-10-13T11:15:30Z</time>
      </trkpt>
      <trkpt lat="40.212208" lon="-5.811402">
        <ele>1029.766</ele>
        <time>2021-10-13T11:15:31Z</time>
      </trkpt>
      <trkpt lat="40.212191" lon="-5.811543">
        <ele>1029.729</ele>
        <time>2021-10-13T11:15:32Z</time>
      </trkpt>
      <trkpt lat="40.212165" lon="-5.811773">
        <ele>1032.221</ele>
        <time>2021-10-13T11:15:34Z</time>
      </trkpt>
      <trkpt lat="40.212148" lon="-5.811955">
        <ele>1034.008</ele>
        <time>2021-10-13T11:15:36Z</time>
      </trkpt>
      <trkpt lat="40.212133" lon="-5.812111">
        <ele>1035.694</ele>
        <time>2021-10-13T11:15:38Z</time>
      </trkpt>
      <trkpt lat="40.212118" lon="-5.812242">
        <ele>1036.922</ele>
        <time>2021-10-13T11:15:40Z</time>
      </trkpt>
      <trkpt lat="40.212109" lon="-5.812318">
        <ele>1038.249</ele>
        <time>2021-10-13T11:15:42Z</time>
      </trkpt>
      <trkpt lat="40.212099" lon="-5.812388">
        <ele>1039.329</ele>
        <time>2021-10-13T11:15:44Z</time>
      </trkpt>
      <trkpt lat="40.212091" lon="-5.812460">
        <ele>1039.452</ele>
        <time>2021-10-13T11:15:47Z</time>
      </trkpt>
      <trkpt lat="40.212066" lon="-5.812533">
        <ele>1040.018</ele>
        <time>2021-10-13T11:29:00Z</time>
      </trkpt>
      <trkpt lat="40.212060" lon="-5.812601">
        <ele>1040.047</ele>
        <time>2021-10-13T11:29:01Z</time>
      </trkpt>
      <trkpt lat="40.212048" lon="-5.812699">
        <ele>1040.012</ele>
        <time>2021-10-13T11:29:02Z</time>
      </trkpt>
      <trkpt lat="40.212019" lon="-5.812940">
        <ele>1046.947</ele>
        <time>2021-10-13T11:29:04Z</time>
      </trkpt>
      <trkpt lat="40.211984" lon="-5.813208">
        <ele>1047.829</ele>
        <time>2021-10-13T11:29:06Z</time>
      </trkpt>
      <trkpt lat="40.211944" lon="-5.813506">
        <ele>1048.921</ele>
        <time>2021-10-13T11:29:08Z</time>
      </trkpt>
      <trkpt lat="40.211896" lon="-5.813815">
        <ele>1051.008</ele>
        <time>2021-10-13T11:29:10Z</time>
      </trkpt>
      <trkpt lat="40.211824" lon="-5.814100">
        <ele>1051.872</ele>
        <time>2021-10-13T11:29:12Z</time>
      </trkpt>
      <trkpt lat="40.211779" lon="-5.814220">
        <ele>1052.290</ele>
        <time>2021-10-13T11:29:13Z</time>
      </trkpt>
      <trkpt lat="40.211729" lon="-5.814337">
        <ele>1052.797</ele>
        <time>2021-10-13T11:29:14Z</time>
      </trkpt>
      <trkpt lat="40.211658" lon="-5.814542">
        <ele>1052.777</ele>
        <time>2021-10-13T11:29:16Z</time>
      </trkpt>
      <trkpt lat="40.211628" lon="-5.814741">
        <ele>1051.860</ele>
        <time>2021-10-13T11:29:18Z</time>
      </trkpt>
      <trkpt lat="40.211664" lon="-5.814972">
        <ele>1051.896</ele>
        <time>2021-10-13T11:29:20Z</time>
      </trkpt>
      <trkpt lat="40.211767" lon="-5.815221">
        <ele>1053.235</ele>
        <time>2021-10-13T11:29:22Z</time>
      </trkpt>
      <trkpt lat="40.211855" lon="-5.815343">
        <ele>1053.560</ele>
        <time>2021-10-13T11:29:23Z</time>
      </trkpt>
      <trkpt lat="40.211980" lon="-5.815457">
        <ele>1054.781</ele>
        <time>2021-10-13T11:29:24Z</time>
      </trkpt>
      <trkpt lat="40.212121" lon="-5.815572">
        <ele>1055.061</ele>
        <time>2021-10-13T11:29:25Z</time>
      </trkpt>
      <trkpt lat="40.212256" lon="-5.815698">
        <ele>1056.017</ele>
        <time>2021-10-13T11:29:26Z</time>
      </trkpt>
      <trkpt lat="40.212478" lon="-5.815989">
        <ele>1056.508</ele>
        <time>2021-10-13T11:29:28Z</time>
      </trkpt>
      <trkpt lat="40.212587" lon="-5.816145">
        <ele>1056.956</ele>
        <time>2021-10-13T11:29:29Z</time>
      </trkpt>
      <trkpt lat="40.212812" lon="-5.816391">
        <ele>1058.384</ele>
        <time>2021-10-13T11:29:31Z</time>
      </trkpt>
      <trkpt lat="40.212925" lon="-5.816481">
        <ele>1059.151</ele>
        <time>2021-10-13T11:29:32Z</time>
      </trkpt>
      <trkpt lat="40.213076" lon="-5.816700">
        <ele>1059.571</ele>
        <time>2021-10-13T11:29:34Z</time>
      </trkpt>
      <trkpt lat="40.213118" lon="-5.816858">
        <ele>1061.964</ele>
        <time>2021-10-13T11:29:35Z</time>
      </trkpt>
      <trkpt lat="40.213151" lon="-5.817036">
        <ele>1064.390</ele>
        <time>2021-10-13T11:29:36Z</time>
      </trkpt>
      <trkpt lat="40.213193" lon="-5.817223">
        <ele>1065.189</ele>
        <time>2021-10-13T11:29:37Z</time>
      </trkpt>
      <trkpt lat="40.213246" lon="-5.817416">
        <ele>1067.144</ele>
        <time>2021-10-13T11:29:38Z</time>
      </trkpt>
      <trkpt lat="40.213378" lon="-5.817724">
        <ele>1071.165</ele>
        <time>2021-10-13T11:29:40Z</time>
      </trkpt>
      <trkpt lat="40.213576" lon="-5.817952">
        <ele>1072.168</ele>
        <time>2021-10-13T11:29:42Z</time>
      </trkpt>
      <trkpt lat="40.213705" lon="-5.818052">
        <ele>1074.514</ele>
        <time>2021-10-13T11:29:43Z</time>
      </trkpt>
      <trkpt lat="40.213849" lon="-5.818159">
        <ele>1076.508</ele>
        <time>2021-10-13T11:29:44Z</time>
      </trkpt>
      <trkpt lat="40.214156" lon="-5.818384">
        <ele>1079.864</ele>
        <time>2021-10-13T11:29:46Z</time>
      </trkpt>
      <trkpt lat="40.214478" lon="-5.818617">
        <ele>1083.662</ele>
        <time>2021-10-13T11:29:48Z</time>
      </trkpt>
      <trkpt lat="40.214752" lon="-5.818814">
        <ele>1087.179</ele>
        <time>2021-10-13T11:29:50Z</time>
      </trkpt>
      <trkpt lat="40.214981" lon="-5.818956">
        <ele>1090.629</ele>
        <time>2021-10-13T11:29:52Z</time>
      </trkpt>
      <trkpt lat="40.215193" lon="-5.819006">
        <ele>1091.112</ele>
        <time>2021-10-13T11:29:54Z</time>
      </trkpt>
      <trkpt lat="40.215306" lon="-5.818992">
        <ele>1091.118</ele>
        <time>2021-10-13T11:29:55Z</time>
      </trkpt>
      <trkpt lat="40.215422" lon="-5.818959">
        <ele>1091.717</ele>
        <time>2021-10-13T11:29:56Z</time>
      </trkpt>
      <trkpt lat="40.215593" lon="-5.818860">
        <ele>1093.312</ele>
        <time>2021-10-13T11:29:58Z</time>
      </trkpt>
      <trkpt lat="40.215645" lon="-5.818782">
        <ele>1095.293</ele>
        <time>2021-10-13T11:29:59Z</time>
      </trkpt>
      <trkpt lat="40.215665" lon="-5.818579">
        <ele>1096.165</ele>
        <time>2021-10-13T11:30:01Z</time>
      </trkpt>
      <trkpt lat="40.215600" lon="-5.818491">
        <ele>1097.021</ele>
        <time>2021-10-13T11:30:02Z</time>
      </trkpt>
      <trkpt lat="40.215401" lon="-5.818393">
        <ele>1099.608</ele>
        <time>2021-10-13T11:30:04Z</time>
      </trkpt>
      <trkpt lat="40.215271" lon="-5.818388">
        <ele>1101.067</ele>
        <time>2021-10-13T11:30:05Z</time>
      </trkpt>
      <trkpt lat="40.215127" lon="-5.818391">
        <ele>1102.325</ele>
        <time>2021-10-13T11:30:06Z</time>
      </trkpt>
      <trkpt lat="40.214850" lon="-5.818302">
        <ele>1105.222</ele>
        <time>2021-10-13T11:30:08Z</time>
      </trkpt>
      <trkpt lat="40.214583" lon="-5.818056">
        <ele>1107.592</ele>
        <time>2021-10-13T11:30:10Z</time>
      </trkpt>
      <trkpt lat="40.214300" lon="-5.817745">
        <ele>1109.015</ele>
        <time>2021-10-13T11:30:12Z</time>
      </trkpt>
      <trkpt lat="40.214170" lon="-5.817583">
        <ele>1110.151</ele>
        <time>2021-10-13T11:30:13Z</time>
      </trkpt>
      <trkpt lat="40.214066" lon="-5.817410">
        <ele>1111.440</ele>
        <time>2021-10-13T11:30:14Z</time>
      </trkpt>
      <trkpt lat="40.213946" lon="-5.817016">
        <ele>1113.645</ele>
        <time>2021-10-13T11:30:16Z</time>
      </trkpt>
      <trkpt lat="40.213916" lon="-5.816572">
        <ele>1115.288</ele>
        <time>2021-10-13T11:30:18Z</time>
      </trkpt>
      <trkpt lat="40.213935" lon="-5.816360">
        <ele>1116.224</ele>
        <time>2021-10-13T11:30:19Z</time>
      </trkpt>
      <trkpt lat="40.213986" lon="-5.816157">
        <ele>1117.826</ele>
        <time>2021-10-13T11:30:20Z</time>
      </trkpt>
      <trkpt lat="40.214152" lon="-5.815812">
        <ele>1118.808</ele>
        <time>2021-10-13T11:30:22Z</time>
      </trkpt>
      <trkpt lat="40.214254" lon="-5.815670">
        <ele>1119.986</ele>
        <time>2021-10-13T11:30:23Z</time>
      </trkpt>
      <trkpt lat="40.214376" lon="-5.815562">
        <ele>1120.794</ele>
        <time>2021-10-13T11:30:24Z</time>
      </trkpt>
      <trkpt lat="40.214607" lon="-5.815372">
        <ele>1120.451</ele>
        <time>2021-10-13T11:30:26Z</time>
      </trkpt>
      <trkpt lat="40.214715" lon="-5.815095">
        <ele>1121.531</ele>
        <time>2021-10-13T11:30:28Z</time>
      </trkpt>
      <trkpt lat="40.214731" lon="-5.814909">
        <ele>1122.664</ele>
        <time>2021-10-13T11:30:29Z</time>
      </trkpt>
      <trkpt lat="40.214737" lon="-5.814708">
        <ele>1123.560</ele>
        <time>2021-10-13T11:30:30Z</time>
      </trkpt>
      <trkpt lat="40.214756" lon="-5.814303">
        <ele>1124.689</ele>
        <time>2021-10-13T11:30:32Z</time>
      </trkpt>
      <trkpt lat="40.214862" lon="-5.813948">
        <ele>1127.124</ele>
        <time>2021-10-13T11:30:34Z</time>
      </trkpt>
      <trkpt lat="40.215088" lon="-5.813644">
        <ele>1128.835</ele>
        <time>2021-10-13T11:30:36Z</time>
      </trkpt>
      <trkpt lat="40.215234" lon="-5.813506">
        <ele>1130.086</ele>
        <time>2021-10-13T11:30:37Z</time>
      </trkpt>
      <trkpt lat="40.215383" lon="-5.813356">
        <ele>1131.214</ele>
        <time>2021-10-13T11:30:38Z</time>
      </trkpt>
      <trkpt lat="40.215648" lon="-5.813019">
        <ele>1133.908</ele>
        <time>2021-10-13T11:30:40Z</time>
      </trkpt>
      <trkpt lat="40.215912" lon="-5.812712">
        <ele>1137.691</ele>
        <time>2021-10-13T11:30:42Z</time>
      </trkpt>
      <trkpt lat="40.216034" lon="-5.812607">
        <ele>1139.689</ele>
        <time>2021-10-13T11:30:43Z</time>
      </trkpt>
      <trkpt lat="40.216141" lon="-5.812538">
        <ele>1141.756</ele>
        <time>2021-10-13T11:30:44Z</time>
      </trkpt>
      <trkpt lat="40.216310" lon="-5.812528">
        <ele>1143.936</ele>
        <time>2021-10-13T11:30:46Z</time>
      </trkpt>
      <trkpt lat="40.216381" lon="-5.812584">
        <ele>1144.299</ele>
        <time>2021-10-13T11:30:47Z</time>
      </trkpt>
      <trkpt lat="40.216423" lon="-5.812676">
        <ele>1144.595</ele>
        <time>2021-10-13T11:30:48Z</time>
      </trkpt>
      <trkpt lat="40.216386" lon="-5.812901">
        <ele>1145.954</ele>
        <time>2021-10-13T11:30:50Z</time>
      </trkpt>
      <trkpt lat="40.216223" lon="-5.813087">
        <ele>1147.379</ele>
        <time>2021-10-13T11:30:52Z</time>
      </trkpt>
      <trkpt lat="40.216107" lon="-5.813179">
        <ele>1147.411</ele>
        <time>2021-10-13T11:30:53Z</time>
      </trkpt>
      <trkpt lat="40.215983" lon="-5.813279">
        <ele>1147.321</ele>
        <time>2021-10-13T11:30:54Z</time>
      </trkpt>
      <trkpt lat="40.215859" lon="-5.813391">
        <ele>1146.803</ele>
        <time>2021-10-13T11:30:55Z</time>
      </trkpt>
      <trkpt lat="40.215733" lon="-5.813524">
        <ele>1146.408</ele>
        <time>2021-10-13T11:30:56Z</time>
      </trkpt>
      <trkpt lat="40.215543" lon="-5.813784">
        <ele>1146.429</ele>
        <time>2021-10-13T11:30:58Z</time>
      </trkpt>
      <trkpt lat="40.215427" lon="-5.814001">
        <ele>1146.567</ele>
        <time>2021-10-13T11:31:00Z</time>
      </trkpt>
      <trkpt lat="40.215395" lon="-5.814094">
        <ele>1147.234</ele>
        <time>2021-10-13T11:31:01Z</time>
      </trkpt>
      <trkpt lat="40.215381" lon="-5.814173">
        <ele>1147.274</ele>
        <time>2021-10-13T11:31:02Z</time>
      </trkpt>
      <trkpt lat="40.215389" lon="-5.814263">
        <ele>1147.297</ele>
        <time>2021-10-13T11:31:04Z</time>
      </trkpt>
      <trkpt lat="40.215370" lon="-5.814329">
        <ele>1147.213</ele>
        <time>2021-10-13T11:31:07Z</time>
      </trkpt>
      <trkpt lat="40.215319" lon="-5.814293">
        <ele>1147.532</ele>
        <time>2021-10-13T11:31:10Z</time>
      </trkpt>
      <trkpt lat="40.215306" lon="-5.814234">
        <ele>1147.437</ele>
        <time>2021-10-13T11:31:12Z</time>
      </trkpt>
      <trkpt lat="40.215355" lon="-5.814233">
        <ele>1148.098</ele>
        <time>2021-10-13T11:43:52Z</time>
      </trkpt>
      <trkpt lat="40.215369" lon="-5.814290">
        <ele>1148.015</ele>
        <time>2021-10-13T11:43:53Z</time>
      </trkpt>
      <trkpt lat="40.215395" lon="-5.814358">
        <ele>1148.026</ele>
        <time>2021-10-13T11:43:55Z</time>
      </trkpt>
      <trkpt lat="40.215442" lon="-5.814436">
        <ele>1148.008</ele>
        <time>2021-10-13T11:43:56Z</time>
      </trkpt>
      <trkpt lat="40.215501" lon="-5.814578">
        <ele>1146.737</ele>
        <time>2021-10-13T11:43:58Z</time>
      </trkpt>
      <trkpt lat="40.215530" lon="-5.814661">
        <ele>1148.195</ele>
        <time>2021-10-13T11:43:59Z</time>
      </trkpt>
      <trkpt lat="40.215561" lon="-5.814749">
        <ele>1148.152</ele>
        <time>2021-10-13T11:44:00Z</time>
      </trkpt>
      <trkpt lat="40.215622" lon="-5.814908">
        <ele>1149.972</ele>
        <time>2021-10-13T11:44:02Z</time>
      </trkpt>
      <trkpt lat="40.215667" lon="-5.815032">
        <ele>1150.325</ele>
        <time>2021-10-13T11:44:04Z</time>
      </trkpt>
      <trkpt lat="40.215690" lon="-5.815086">
        <ele>1150.911</ele>
        <time>2021-10-13T11:44:05Z</time>
      </trkpt>
      <trkpt lat="40.215717" lon="-5.815146">
        <ele>1151.020</ele>
        <time>2021-10-13T11:44:06Z</time>
      </trkpt>
      <trkpt lat="40.215776" lon="-5.815313">
        <ele>1151.685</ele>
        <time>2021-10-13T11:44:08Z</time>
      </trkpt>
      <trkpt lat="40.215854" lon="-5.815509">
        <ele>1153.378</ele>
        <time>2021-10-13T11:44:10Z</time>
      </trkpt>
      <trkpt lat="40.215949" lon="-5.815681">
        <ele>1154.533</ele>
        <time>2021-10-13T11:44:12Z</time>
      </trkpt>
      <trkpt lat="40.216002" lon="-5.815727">
        <ele>1155.326</ele>
        <time>2021-10-13T11:44:13Z</time>
      </trkpt>
      <trkpt lat="40.216066" lon="-5.815745">
        <ele>1156.008</ele>
        <time>2021-10-13T11:44:14Z</time>
      </trkpt>
      <trkpt lat="40.216197" lon="-5.815673">
        <ele>1156.855</ele>
        <time>2021-10-13T11:44:16Z</time>
      </trkpt>
      <trkpt lat="40.216263" lon="-5.815454">
        <ele>1158.323</ele>
        <time>2021-10-13T11:44:18Z</time>
      </trkpt>
      <trkpt lat="40.216224" lon="-5.815141">
        <ele>1159.910</ele>
        <time>2021-10-13T11:44:20Z</time>
      </trkpt>
      <trkpt lat="40.216159" lon="-5.814794">
        <ele>1160.440</ele>
        <time>2021-10-13T11:44:22Z</time>
      </trkpt>
      <trkpt lat="40.216169" lon="-5.814470">
        <ele>1162.163</ele>
        <time>2021-10-13T11:44:24Z</time>
      </trkpt>
      <trkpt lat="40.216204" lon="-5.814314">
        <ele>1162.789</ele>
        <time>2021-10-13T11:44:25Z</time>
      </trkpt>
      <trkpt lat="40.216258" lon="-5.814161">
        <ele>1163.988</ele>
        <time>2021-10-13T11:44:26Z</time>
      </trkpt>
      <trkpt lat="40.216423" lon="-5.813925">
        <ele>1166.073</ele>
        <time>2021-10-13T11:44:28Z</time>
      </trkpt>
      <trkpt lat="40.216526" lon="-5.813832">
        <ele>1166.947</ele>
        <time>2021-10-13T11:44:29Z</time>
      </trkpt>
      <trkpt lat="40.216632" lon="-5.813760">
        <ele>1167.429</ele>
        <time>2021-10-13T11:44:30Z</time>
      </trkpt>
      <trkpt lat="40.216867" lon="-5.813703">
        <ele>1169.221</ele>
        <time>2021-10-13T11:44:32Z</time>
      </trkpt>
      <trkpt lat="40.217122" lon="-5.813744">
        <ele>1171.408</ele>
        <time>2021-10-13T11:44:34Z</time>
      </trkpt>
      <trkpt lat="40.217396" lon="-5.813774">
        <ele>1174.422</ele>
        <time>2021-10-13T11:44:36Z</time>
      </trkpt>
      <trkpt lat="40.217534" lon="-5.813758">
        <ele>1175.810</ele>
        <time>2021-10-13T11:44:37Z</time>
      </trkpt>
      <trkpt lat="40.217673" lon="-5.813709">
        <ele>1177.287</ele>
        <time>2021-10-13T11:44:38Z</time>
      </trkpt>
      <trkpt lat="40.217904" lon="-5.813509">
        <ele>1179.027</ele>
        <time>2021-10-13T11:44:40Z</time>
      </trkpt>
      <trkpt lat="40.218008" lon="-5.813380">
        <ele>1180.730</ele>
        <time>2021-10-13T11:44:41Z</time>
      </trkpt>
      <trkpt lat="40.218235" lon="-5.813153">
        <ele>1183.386</ele>
        <time>2021-10-13T11:44:43Z</time>
      </trkpt>
      <trkpt lat="40.218361" lon="-5.813078">
        <ele>1184.215</ele>
        <time>2021-10-13T11:44:44Z</time>
      </trkpt>
      <trkpt lat="40.218609" lon="-5.813049">
        <ele>1185.790</ele>
        <time>2021-10-13T11:44:46Z</time>
      </trkpt>
      <trkpt lat="40.218860" lon="-5.813096">
        <ele>1187.413</ele>
        <time>2021-10-13T11:44:48Z</time>
      </trkpt>
      <trkpt lat="40.218978" lon="-5.813139">
        <ele>1188.443</ele>
        <time>2021-10-13T11:44:49Z</time>
      </trkpt>
      <trkpt lat="40.219091" lon="-5.813214">
        <ele>1188.707</ele>
        <time>2021-10-13T11:44:50Z</time>
      </trkpt>
      <trkpt lat="40.219276" lon="-5.813461">
        <ele>1190.608</ele>
        <time>2021-10-13T11:44:52Z</time>
      </trkpt>
      <trkpt lat="40.219462" lon="-5.813778">
        <ele>1193.179</ele>
        <time>2021-10-13T11:44:54Z</time>
      </trkpt>
      <trkpt lat="40.219562" lon="-5.813946">
        <ele>1194.267</ele>
        <time>2021-10-13T11:44:55Z</time>
      </trkpt>
      <trkpt lat="40.219660" lon="-5.814110">
        <ele>1195.434</ele>
        <time>2021-10-13T11:44:56Z</time>
      </trkpt>
      <trkpt lat="40.219829" lon="-5.814383">
        <ele>1197.614</ele>
        <time>2021-10-13T11:44:58Z</time>
      </trkpt>
      <trkpt lat="40.219914" lon="-5.814515">
        <ele>1198.197</ele>
        <time>2021-10-13T11:44:59Z</time>
      </trkpt>
      <trkpt lat="40.220073" lon="-5.814729">
        <ele>1201.423</ele>
        <time>2021-10-13T11:45:01Z</time>
      </trkpt>
      <trkpt lat="40.220153" lon="-5.814805">
        <ele>1201.712</ele>
        <time>2021-10-13T11:45:02Z</time>
      </trkpt>
      <trkpt lat="40.220319" lon="-5.814866">
        <ele>1205.037</ele>
        <time>2021-10-13T11:45:04Z</time>
      </trkpt>
      <trkpt lat="40.220492" lon="-5.814775">
        <ele>1206.936</ele>
        <time>2021-10-13T11:45:06Z</time>
      </trkpt>
      <trkpt lat="40.220566" lon="-5.814660">
        <ele>1208.217</ele>
        <time>2021-10-13T11:45:07Z</time>
      </trkpt>
      <trkpt lat="40.220634" lon="-5.814504">
        <ele>1209.318</ele>
        <time>2021-10-13T11:45:08Z</time>
      </trkpt>
      <trkpt lat="40.220801" lon="-5.814223">
        <ele>1210.608</ele>
        <time>2021-10-13T11:45:10Z</time>
      </trkpt>
      <trkpt lat="40.220998" lon="-5.813953">
        <ele>1212.971</ele>
        <time>2021-10-13T11:45:12Z</time>
      </trkpt>
      <trkpt lat="40.221136" lon="-5.813666">
        <ele>1215.299</ele>
        <time>2021-10-13T11:45:14Z</time>
      </trkpt>
      <trkpt lat="40.221206" lon="-5.813332">
        <ele>1217.656</ele>
        <time>2021-10-13T11:45:16Z</time>
      </trkpt>
      <trkpt lat="40.221260" lon="-5.813136">
        <ele>1218.266</ele>
        <time>2021-10-13T11:45:17Z</time>
      </trkpt>
      <trkpt lat="40.221390" lon="-5.812758">
        <ele>1222.029</ele>
        <time>2021-10-13T11:45:19Z</time>
      </trkpt>
      <trkpt lat="40.221452" lon="-5.812592">
        <ele>1222.985</ele>
        <time>2021-10-13T11:45:20Z</time>
      </trkpt>
      <trkpt lat="40.221569" lon="-5.812358">
        <ele>1224.634</ele>
        <time>2021-10-13T11:45:22Z</time>
      </trkpt>
      <trkpt lat="40.221711" lon="-5.812266">
        <ele>1226.779</ele>
        <time>2021-10-13T11:45:24Z</time>
      </trkpt>
      <trkpt lat="40.221777" lon="-5.812285">
        <ele>1227.154</ele>
        <time>2021-10-13T11:45:25Z</time>
      </trkpt>
      <trkpt lat="40.221823" lon="-5.812356">
        <ele>1228.056</ele>
        <time>2021-10-13T11:45:26Z</time>
      </trkpt>
      <trkpt lat="40.221806" lon="-5.812641">
        <ele>1229.611</ele>
        <time>2021-10-13T11:45:28Z</time>
      </trkpt>
      <trkpt lat="40.221738" lon="-5.812828">
        <ele>1231.008</ele>
        <time>2021-10-13T11:45:29Z</time>
      </trkpt>
      <trkpt lat="40.221570" lon="-5.813234">
        <ele>1231.783</ele>
        <time>2021-10-13T11:45:31Z</time>
      </trkpt>
      <trkpt lat="40.221489" lon="-5.813471">
        <ele>1232.181</ele>
        <time>2021-10-13T11:45:32Z</time>
      </trkpt>
      <trkpt lat="40.221347" lon="-5.813976">
        <ele>1231.698</ele>
        <time>2021-10-13T11:45:34Z</time>
      </trkpt>
      <trkpt lat="40.221198" lon="-5.814541">
        <ele>1232.978</ele>
        <time>2021-10-13T11:45:36Z</time>
      </trkpt>
      <trkpt lat="40.221137" lon="-5.814822">
        <ele>1233.741</ele>
        <time>2021-10-13T11:45:37Z</time>
      </trkpt>
      <trkpt lat="40.221088" lon="-5.815117">
        <ele>1235.187</ele>
        <time>2021-10-13T11:45:38Z</time>
      </trkpt>
      <trkpt lat="40.221029" lon="-5.815631">
        <ele>1238.736</ele>
        <time>2021-10-13T11:45:40Z</time>
      </trkpt>
      <trkpt lat="40.221016" lon="-5.816023">
        <ele>1241.781</ele>
        <time>2021-10-13T11:45:42Z</time>
      </trkpt>
      <trkpt lat="40.221134" lon="-5.816344">
        <ele>1244.318</ele>
        <time>2021-10-13T11:45:44Z</time>
      </trkpt>
      <trkpt lat="40.221367" lon="-5.816657">
        <ele>1248.198</ele>
        <time>2021-10-13T11:45:46Z</time>
      </trkpt>
      <trkpt lat="40.221590" lon="-5.817046">
        <ele>1251.217</ele>
        <time>2021-10-13T11:45:48Z</time>
      </trkpt>
      <trkpt lat="40.221661" lon="-5.817282">
        <ele>1251.908</ele>
        <time>2021-10-13T11:45:49Z</time>
      </trkpt>
      <trkpt lat="40.221724" lon="-5.817539">
        <ele>1252.819</ele>
        <time>2021-10-13T11:45:50Z</time>
      </trkpt>
      <trkpt lat="40.221899" lon="-5.818030">
        <ele>1255.257</ele>
        <time>2021-10-13T11:45:52Z</time>
      </trkpt>
      <trkpt lat="40.222007" lon="-5.818281">
        <ele>1256.564</ele>
        <time>2021-10-13T11:45:53Z</time>
      </trkpt>
      <trkpt lat="40.222117" lon="-5.818534">
        <ele>1258.134</ele>
        <time>2021-10-13T11:45:54Z</time>
      </trkpt>
      <trkpt lat="40.222351" lon="-5.819034">
        <ele>1261.357</ele>
        <time>2021-10-13T11:45:56Z</time>
      </trkpt>
      <trkpt lat="40.222630" lon="-5.819449">
        <ele>1264.323</ele>
        <time>2021-10-13T11:45:58Z</time>
      </trkpt>
      <trkpt lat="40.222882" lon="-5.819833">
        <ele>1268.492</ele>
        <time>2021-10-13T11:46:00Z</time>
      </trkpt>
      <trkpt lat="40.222978" lon="-5.820026">
        <ele>1269.447</ele>
        <time>2021-10-13T11:46:01Z</time>
      </trkpt>
      <trkpt lat="40.223066" lon="-5.820227">
        <ele>1270.895</ele>
        <time>2021-10-13T11:46:02Z</time>
      </trkpt>
      <trkpt lat="40.223198" lon="-5.820641">
        <ele>1273.749</ele>
        <time>2021-10-13T11:46:04Z</time>
      </trkpt>
      <trkpt lat="40.223246" lon="-5.820868">
        <ele>1275.223</ele>
        <time>2021-10-13T11:46:05Z</time>
      </trkpt>
      <trkpt lat="40.223339" lon="-5.821359">
        <ele>1276.608</ele>
        <time>2021-10-13T11:46:07Z</time>
      </trkpt>
      <trkpt lat="40.223397" lon="-5.821629">
        <ele>1277.327</ele>
        <time>2021-10-13T11:46:08Z</time>
      </trkpt>
      <trkpt lat="40.223511" lon="-5.822119">
        <ele>1279.635</ele>
        <time>2021-10-13T11:46:10Z</time>
      </trkpt>
      <trkpt lat="40.223552" lon="-5.822567">
        <ele>1281.592</ele>
        <time>2021-10-13T11:46:12Z</time>
      </trkpt>
      <trkpt lat="40.223526" lon="-5.822777">
        <ele>1282.682</ele>
        <time>2021-10-13T11:46:13Z</time>
      </trkpt>
      <trkpt lat="40.223482" lon="-5.822983">
        <ele>1284.475</ele>
        <time>2021-10-13T11:46:14Z</time>
      </trkpt>
      <trkpt lat="40.223433" lon="-5.823378">
        <ele>1287.091</ele>
        <time>2021-10-13T11:46:16Z</time>
      </trkpt>
      <trkpt lat="40.223461" lon="-5.823816">
        <ele>1289.090</ele>
        <time>2021-10-13T11:46:18Z</time>
      </trkpt>
      <trkpt lat="40.223556" lon="-5.824262">
        <ele>1292.155</ele>
        <time>2021-10-13T11:46:20Z</time>
      </trkpt>
      <trkpt lat="40.223573" lon="-5.824687">
        <ele>1295.399</ele>
        <time>2021-10-13T11:46:22Z</time>
      </trkpt>
      <trkpt lat="40.223538" lon="-5.824893">
        <ele>1296.707</ele>
        <time>2021-10-13T11:46:23Z</time>
      </trkpt>
      <trkpt lat="40.223444" lon="-5.825310">
        <ele>1299.227</ele>
        <time>2021-10-13T11:46:25Z</time>
      </trkpt>
      <trkpt lat="40.223416" lon="-5.825535">
        <ele>1300.908</ele>
        <time>2021-10-13T11:46:26Z</time>
      </trkpt>
      <trkpt lat="40.223398" lon="-5.825765">
        <ele>1302.247</ele>
        <time>2021-10-13T11:46:27Z</time>
      </trkpt>
      <trkpt lat="40.223357" lon="-5.826182">
        <ele>1304.595</ele>
        <time>2021-10-13T11:46:29Z</time>
      </trkpt>
      <trkpt lat="40.223336" lon="-5.826534">
        <ele>1306.492</ele>
        <time>2021-10-13T11:46:31Z</time>
      </trkpt>
      <trkpt lat="40.223369" lon="-5.826701">
        <ele>1308.032</ele>
        <time>2021-10-13T11:46:32Z</time>
      </trkpt>
      <trkpt lat="40.223497" lon="-5.826963">
        <ele>1309.815</ele>
        <time>2021-10-13T11:46:34Z</time>
      </trkpt>
      <trkpt lat="40.223593" lon="-5.827072">
        <ele>1310.641</ele>
        <time>2021-10-13T11:46:35Z</time>
      </trkpt>
      <trkpt lat="40.223765" lon="-5.827317">
        <ele>1311.310</ele>
        <time>2021-10-13T11:46:37Z</time>
      </trkpt>
      <trkpt lat="40.223812" lon="-5.827455">
        <ele>1311.695</ele>
        <time>2021-10-13T11:46:38Z</time>
      </trkpt>
      <trkpt lat="40.223864" lon="-5.827736">
        <ele>1312.731</ele>
        <time>2021-10-13T11:46:40Z</time>
      </trkpt>
      <trkpt lat="40.223910" lon="-5.827889">
        <ele>1313.761</ele>
        <time>2021-10-13T11:46:41Z</time>
      </trkpt>
      <trkpt lat="40.223969" lon="-5.828034">
        <ele>1314.707</ele>
        <time>2021-10-13T11:46:42Z</time>
      </trkpt>
      <trkpt lat="40.224051" lon="-5.828320">
        <ele>1315.908</ele>
        <time>2021-10-13T11:46:44Z</time>
      </trkpt>
      <trkpt lat="40.224034" lon="-5.828612">
        <ele>1316.951</ele>
        <time>2021-10-13T11:46:46Z</time>
      </trkpt>
      <trkpt lat="40.223935" lon="-5.828943">
        <ele>1318.039</ele>
        <time>2021-10-13T11:46:48Z</time>
      </trkpt>
      <trkpt lat="40.223844" lon="-5.829330">
        <ele>1320.286</ele>
        <time>2021-10-13T11:46:50Z</time>
      </trkpt>
      <trkpt lat="40.223768" lon="-5.829756">
        <ele>1321.776</ele>
        <time>2021-10-13T11:46:52Z</time>
      </trkpt>
      <trkpt lat="40.223729" lon="-5.829988">
        <ele>1323.419</ele>
        <time>2021-10-13T11:46:53Z</time>
      </trkpt>
      <trkpt lat="40.223682" lon="-5.830474">
        <ele>1325.595</ele>
        <time>2021-10-13T11:46:55Z</time>
      </trkpt>
      <trkpt lat="40.223675" lon="-5.830732">
        <ele>1326.614</ele>
        <time>2021-10-13T11:46:56Z</time>
      </trkpt>
      <trkpt lat="40.223640" lon="-5.831148">
        <ele>1329.129</ele>
        <time>2021-10-13T11:46:58Z</time>
      </trkpt>
      <trkpt lat="40.223587" lon="-5.831341">
        <ele>1330.485</ele>
        <time>2021-10-13T11:46:59Z</time>
      </trkpt>
      <trkpt lat="40.223519" lon="-5.831533">
        <ele>1331.489</ele>
        <time>2021-10-13T11:47:00Z</time>
      </trkpt>
      <trkpt lat="40.223390" lon="-5.831973">
        <ele>1334.617</ele>
        <time>2021-10-13T11:47:02Z</time>
      </trkpt>
      <trkpt lat="40.223248" lon="-5.832454">
        <ele>1338.208</ele>
        <time>2021-10-13T11:47:04Z</time>
      </trkpt>
      <trkpt lat="40.223081" lon="-5.832954">
        <ele>1340.966</ele>
        <time>2021-10-13T11:47:06Z</time>
      </trkpt>
      <trkpt lat="40.222897" lon="-5.833352">
        <ele>1344.234</ele>
        <time>2021-10-13T11:47:08Z</time>
      </trkpt>
      <trkpt lat="40.222758" lon="-5.833650">
        <ele>1348.151</ele>
        <time>2021-10-13T11:47:10Z</time>
      </trkpt>
      <trkpt lat="40.222725" lon="-5.833789">
        <ele>1348.441</ele>
        <time>2021-10-13T11:47:11Z</time>
      </trkpt>
      <trkpt lat="40.222739" lon="-5.834016">
        <ele>1352.294</ele>
        <time>2021-10-13T11:47:13Z</time>
      </trkpt>
      <trkpt lat="40.222776" lon="-5.834110">
        <ele>1353.730</ele>
        <time>2021-10-13T11:47:14Z</time>
      </trkpt>
      <trkpt lat="40.222891" lon="-5.834250">
        <ele>1354.989</ele>
        <time>2021-10-13T11:47:16Z</time>
      </trkpt>
      <trkpt lat="40.222978" lon="-5.834317">
        <ele>1355.364</ele>
        <time>2021-10-13T11:47:17Z</time>
      </trkpt>
      <trkpt lat="40.223183" lon="-5.834437">
        <ele>1355.912</ele>
        <time>2021-10-13T11:47:19Z</time>
      </trkpt>
      <trkpt lat="40.223305" lon="-5.834504">
        <ele>1356.432</ele>
        <time>2021-10-13T11:47:20Z</time>
      </trkpt>
      <trkpt lat="40.223562" lon="-5.834660">
        <ele>1359.105</ele>
        <time>2021-10-13T11:47:22Z</time>
      </trkpt>
      <trkpt lat="40.223705" lon="-5.834744">
        <ele>1360.808</ele>
        <time>2021-10-13T11:47:23Z</time>
      </trkpt>
      <trkpt lat="40.224003" lon="-5.834914">
        <ele>1362.699</ele>
        <time>2021-10-13T11:47:25Z</time>
      </trkpt>
      <trkpt lat="40.224160" lon="-5.835004">
        <ele>1363.367</ele>
        <time>2021-10-13T11:47:26Z</time>
      </trkpt>
      <trkpt lat="40.224441" lon="-5.835170">
        <ele>1365.414</ele>
        <time>2021-10-13T11:47:28Z</time>
      </trkpt>
      <trkpt lat="40.224581" lon="-5.835240">
        <ele>1366.224</ele>
        <time>2021-10-13T11:47:29Z</time>
      </trkpt>
      <trkpt lat="40.224725" lon="-5.835286">
        <ele>1367.947</ele>
        <time>2021-10-13T11:47:30Z</time>
      </trkpt>
      <trkpt lat="40.224874" lon="-5.835315">
        <ele>1369.083</ele>
        <time>2021-10-13T11:47:31Z</time>
      </trkpt>
      <trkpt lat="40.225028" lon="-5.835331">
        <ele>1369.382</ele>
        <time>2021-10-13T11:47:32Z</time>
      </trkpt>
      <trkpt lat="40.225316" lon="-5.835322">
        <ele>1371.277</ele>
        <time>2021-10-13T11:47:34Z</time>
      </trkpt>
      <trkpt lat="40.225568" lon="-5.835241">
        <ele>1373.154</ele>
        <time>2021-10-13T11:47:36Z</time>
      </trkpt>
      <trkpt lat="40.225827" lon="-5.835135">
        <ele>1375.156</ele>
        <time>2021-10-13T11:47:38Z</time>
      </trkpt>
      <trkpt lat="40.226084" lon="-5.835003">
        <ele>1377.711</ele>
        <time>2021-10-13T11:47:40Z</time>
      </trkpt>
      <trkpt lat="40.226355" lon="-5.834852">
        <ele>1379.908</ele>
        <time>2021-10-13T11:47:42Z</time>
      </trkpt>
      <trkpt lat="40.226642" lon="-5.834727">
        <ele>1382.393</ele>
        <time>2021-10-13T11:47:44Z</time>
      </trkpt>
      <trkpt lat="40.226934" lon="-5.834664">
        <ele>1384.681</ele>
        <time>2021-10-13T11:47:46Z</time>
      </trkpt>
      <trkpt lat="40.227079" lon="-5.834640">
        <ele>1386.038</ele>
        <time>2021-10-13T11:47:47Z</time>
      </trkpt>
      <trkpt lat="40.227326" lon="-5.834593">
        <ele>1387.458</ele>
        <time>2021-10-13T11:47:49Z</time>
      </trkpt>
      <trkpt lat="40.227438" lon="-5.834574">
        <ele>1388.171</ele>
        <time>2021-10-13T11:47:50Z</time>
      </trkpt>
      <trkpt lat="40.227648" lon="-5.834541">
        <ele>1389.687</ele>
        <time>2021-10-13T11:47:52Z</time>
      </trkpt>
      <trkpt lat="40.227762" lon="-5.834521">
        <ele>1390.226</ele>
        <time>2021-10-13T11:47:53Z</time>
      </trkpt>
      <trkpt lat="40.227996" lon="-5.834485">
        <ele>1392.741</ele>
        <time>2021-10-13T11:47:55Z</time>
      </trkpt>
      <trkpt lat="40.228104" lon="-5.834485">
        <ele>1393.225</ele>
        <time>2021-10-13T11:47:56Z</time>
      </trkpt>
      <trkpt lat="40.228276" lon="-5.834569">
        <ele>1394.326</ele>
        <time>2021-10-13T11:47:58Z</time>
      </trkpt>
      <trkpt lat="40.228396" lon="-5.834787">
        <ele>1396.808</ele>
        <time>2021-10-13T11:48:00Z</time>
      </trkpt>
      <trkpt lat="40.228447" lon="-5.834932">
        <ele>1396.908</ele>
        <time>2021-10-13T11:48:01Z</time>
      </trkpt>
      <trkpt lat="40.228504" lon="-5.835090">
        <ele>1397.970</ele>
        <time>2021-10-13T11:48:02Z</time>
      </trkpt>
      <trkpt lat="40.228640" lon="-5.835399">
        <ele>1399.418</ele>
        <time>2021-10-13T11:48:04Z</time>
      </trkpt>
      <trkpt lat="40.228785" lon="-5.835679">
        <ele>1400.675</ele>
        <time>2021-10-13T11:48:06Z</time>
      </trkpt>
      <trkpt lat="40.228898" lon="-5.835907">
        <ele>1402.115</ele>
        <time>2021-10-13T11:48:08Z</time>
      </trkpt>
      <trkpt lat="40.228934" lon="-5.836130">
        <ele>1404.298</ele>
        <time>2021-10-13T11:48:10Z</time>
      </trkpt>
      <trkpt lat="40.228918" lon="-5.836249">
        <ele>1405.384</ele>
        <time>2021-10-13T11:48:11Z</time>
      </trkpt>
      <trkpt lat="40.228877" lon="-5.836366">
        <ele>1406.443</ele>
        <time>2021-10-13T11:48:12Z</time>
      </trkpt>
      <trkpt lat="40.228814" lon="-5.836473">
        <ele>1408.258</ele>
        <time>2021-10-13T11:48:13Z</time>
      </trkpt>
      <trkpt lat="40.228731" lon="-5.836571">
        <ele>1408.251</ele>
        <time>2021-10-13T11:48:14Z</time>
      </trkpt>
      <trkpt lat="40.228598" lon="-5.836782">
        <ele>1408.801</ele>
        <time>2021-10-13T11:48:16Z</time>
      </trkpt>
      <trkpt lat="40.228538" lon="-5.837054">
        <ele>1409.611</ele>
        <time>2021-10-13T11:48:18Z</time>
      </trkpt>
      <trkpt lat="40.228525" lon="-5.837380">
        <ele>1408.808</ele>
        <time>2021-10-13T11:48:20Z</time>
      </trkpt>
      <trkpt lat="40.228531" lon="-5.837712">
        <ele>1407.733</ele>
        <time>2021-10-13T11:48:22Z</time>
      </trkpt>
      <trkpt lat="40.228525" lon="-5.837860">
        <ele>1407.571</ele>
        <time>2021-10-13T11:48:23Z</time>
      </trkpt>
      <trkpt lat="40.228493" lon="-5.838109">
        <ele>1407.088</ele>
        <time>2021-10-13T11:48:25Z</time>
      </trkpt>
      <trkpt lat="40.228474" lon="-5.838224">
        <ele>1407.098</ele>
        <time>2021-10-13T11:48:26Z</time>
      </trkpt>
      <trkpt lat="40.228443" lon="-5.838445">
        <ele>1406.021</ele>
        <time>2021-10-13T11:48:28Z</time>
      </trkpt>
      <trkpt lat="40.228388" lon="-5.838667">
        <ele>1404.997</ele>
        <time>2021-10-13T11:48:30Z</time>
      </trkpt>
      <trkpt lat="40.228328" lon="-5.838768">
        <ele>1404.556</ele>
        <time>2021-10-13T11:48:31Z</time>
      </trkpt>
      <trkpt lat="40.228242" lon="-5.838862">
        <ele>1404.681</ele>
        <time>2021-10-13T11:48:32Z</time>
      </trkpt>
      <trkpt lat="40.228028" lon="-5.839001">
        <ele>1402.724</ele>
        <time>2021-10-13T11:48:34Z</time>
      </trkpt>
      <trkpt lat="40.227809" lon="-5.839101">
        <ele>1401.504</ele>
        <time>2021-10-13T11:48:36Z</time>
      </trkpt>
      <trkpt lat="40.227638" lon="-5.839215">
        <ele>1400.314</ele>
        <time>2021-10-13T11:48:38Z</time>
      </trkpt>
      <trkpt lat="40.227513" lon="-5.839427">
        <ele>1399.808</ele>
        <time>2021-10-13T11:48:40Z</time>
      </trkpt>
      <trkpt lat="40.227445" lon="-5.839557">
        <ele>1399.710</ele>
        <time>2021-10-13T11:48:41Z</time>
      </trkpt>
      <trkpt lat="40.227275" lon="-5.839830">
        <ele>1399.048</ele>
        <time>2021-10-13T11:48:43Z</time>
      </trkpt>
      <trkpt lat="40.227179" lon="-5.839980">
        <ele>1399.045</ele>
        <time>2021-10-13T11:48:44Z</time>
      </trkpt>
      <trkpt lat="40.227006" lon="-5.840293">
        <ele>1397.375</ele>
        <time>2021-10-13T11:48:46Z</time>
      </trkpt>
      <trkpt lat="40.226897" lon="-5.840660">
        <ele>1396.728</ele>
        <time>2021-10-13T11:48:48Z</time>
      </trkpt>
      <trkpt lat="40.226874" lon="-5.840834">
        <ele>1396.444</ele>
        <time>2021-10-13T11:48:49Z</time>
      </trkpt>
      <trkpt lat="40.226860" lon="-5.841004">
        <ele>1395.793</ele>
        <time>2021-10-13T11:48:50Z</time>
      </trkpt>
      <trkpt lat="40.226837" lon="-5.841319">
        <ele>1395.378</ele>
        <time>2021-10-13T11:48:52Z</time>
      </trkpt>
      <trkpt lat="40.226832" lon="-5.841659">
        <ele>1395.243</ele>
        <time>2021-10-13T11:48:54Z</time>
      </trkpt>
      <trkpt lat="40.226870" lon="-5.842040">
        <ele>1395.664</ele>
        <time>2021-10-13T11:48:56Z</time>
      </trkpt>
      <trkpt lat="40.226936" lon="-5.842419">
        <ele>1395.710</ele>
        <time>2021-10-13T11:48:58Z</time>
      </trkpt>
      <trkpt lat="40.227004" lon="-5.842782">
        <ele>1396.308</ele>
        <time>2021-10-13T11:49:00Z</time>
      </trkpt>
      <trkpt lat="40.227064" lon="-5.843112">
        <ele>1396.252</ele>
        <time>2021-10-13T11:49:02Z</time>
      </trkpt>
      <trkpt lat="40.227130" lon="-5.843387">
        <ele>1396.580</ele>
        <time>2021-10-13T11:49:04Z</time>
      </trkpt>
      <trkpt lat="40.227181" lon="-5.843522">
        <ele>1396.777</ele>
        <time>2021-10-13T11:49:05Z</time>
      </trkpt>
      <trkpt lat="40.227243" lon="-5.843658">
        <ele>1396.937</ele>
        <time>2021-10-13T11:49:06Z</time>
      </trkpt>
      <trkpt lat="40.227388" lon="-5.843936">
        <ele>1397.970</ele>
        <time>2021-10-13T11:49:08Z</time>
      </trkpt>
      <trkpt lat="40.227551" lon="-5.844199">
        <ele>1398.666</ele>
        <time>2021-10-13T11:49:10Z</time>
      </trkpt>
      <trkpt lat="40.227638" lon="-5.844337">
        <ele>1398.655</ele>
        <time>2021-10-13T11:49:11Z</time>
      </trkpt>
      <trkpt lat="40.227727" lon="-5.844473">
        <ele>1399.080</ele>
        <time>2021-10-13T11:49:12Z</time>
      </trkpt>
      <trkpt lat="40.227904" lon="-5.844737">
        <ele>1399.812</ele>
        <time>2021-10-13T11:49:14Z</time>
      </trkpt>
      <trkpt lat="40.228080" lon="-5.844941">
        <ele>1400.832</ele>
        <time>2021-10-13T11:49:16Z</time>
      </trkpt>
      <trkpt lat="40.228160" lon="-5.845035">
        <ele>1400.805</ele>
        <time>2021-10-13T11:49:17Z</time>
      </trkpt>
      <trkpt lat="40.228280" lon="-5.845195">
        <ele>1402.608</ele>
        <time>2021-10-13T11:49:19Z</time>
      </trkpt>
      <trkpt lat="40.228317" lon="-5.845269">
        <ele>1402.879</ele>
        <time>2021-10-13T11:49:20Z</time>
      </trkpt>
      <trkpt lat="40.228322" lon="-5.845414">
        <ele>1404.627</ele>
        <time>2021-10-13T11:49:22Z</time>
      </trkpt>
      <trkpt lat="40.228294" lon="-5.845490">
        <ele>1404.324</ele>
        <time>2021-10-13T11:49:23Z</time>
      </trkpt>
      <trkpt lat="40.228190" lon="-5.845664">
        <ele>1404.224</ele>
        <time>2021-10-13T11:49:25Z</time>
      </trkpt>
      <trkpt lat="40.228113" lon="-5.845756">
        <ele>1404.037</ele>
        <time>2021-10-13T11:49:26Z</time>
      </trkpt>
      <trkpt lat="40.227919" lon="-5.845930">
        <ele>1403.563</ele>
        <time>2021-10-13T11:49:28Z</time>
      </trkpt>
      <trkpt lat="40.227789" lon="-5.846004">
        <ele>1403.342</ele>
        <time>2021-10-13T11:49:29Z</time>
      </trkpt>
      <trkpt lat="40.227486" lon="-5.846102">
        <ele>1400.677</ele>
        <time>2021-10-13T11:49:31Z</time>
      </trkpt>
      <trkpt lat="40.227328" lon="-5.846146">
        <ele>1399.583</ele>
        <time>2021-10-13T11:49:32Z</time>
      </trkpt>
      <trkpt lat="40.227047" lon="-5.846272">
        <ele>1397.325</ele>
        <time>2021-10-13T11:49:34Z</time>
      </trkpt>
      <trkpt lat="40.226928" lon="-5.846381">
        <ele>1396.317</ele>
        <time>2021-10-13T11:49:35Z</time>
      </trkpt>
      <trkpt lat="40.226826" lon="-5.846505">
        <ele>1395.508</ele>
        <time>2021-10-13T11:49:36Z</time>
      </trkpt>
      <trkpt lat="40.226727" lon="-5.846622">
        <ele>1394.816</ele>
        <time>2021-10-13T11:49:37Z</time>
      </trkpt>
      <trkpt lat="40.226626" lon="-5.846735">
        <ele>1394.064</ele>
        <time>2021-10-13T11:49:38Z</time>
      </trkpt>
      <trkpt lat="40.226503" lon="-5.846996">
        <ele>1393.621</ele>
        <time>2021-10-13T11:49:40Z</time>
      </trkpt>
      <trkpt lat="40.226503" lon="-5.847316">
        <ele>1391.851</ele>
        <time>2021-10-13T11:49:42Z</time>
      </trkpt>
      <trkpt lat="40.226526" lon="-5.847485">
        <ele>1391.834</ele>
        <time>2021-10-13T11:49:43Z</time>
      </trkpt>
      <trkpt lat="40.226543" lon="-5.847659">
        <ele>1390.960</ele>
        <time>2021-10-13T11:49:44Z</time>
      </trkpt>
      <trkpt lat="40.226540" lon="-5.847963">
        <ele>1390.359</ele>
        <time>2021-10-13T11:49:46Z</time>
      </trkpt>
      <trkpt lat="40.226442" lon="-5.848217">
        <ele>1389.314</ele>
        <time>2021-10-13T11:49:48Z</time>
      </trkpt>
      <trkpt lat="40.226359" lon="-5.848305">
        <ele>1389.324</ele>
        <time>2021-10-13T11:49:49Z</time>
      </trkpt>
      <trkpt lat="40.226254" lon="-5.848356">
        <ele>1389.104</ele>
        <time>2021-10-13T11:49:50Z</time>
      </trkpt>
      <trkpt lat="40.226015" lon="-5.848366">
        <ele>1387.214</ele>
        <time>2021-10-13T11:49:52Z</time>
      </trkpt>
      <trkpt lat="40.225755" lon="-5.848301">
        <ele>1386.608</ele>
        <time>2021-10-13T11:49:54Z</time>
      </trkpt>
      <trkpt lat="40.225512" lon="-5.848108">
        <ele>1385.520</ele>
        <time>2021-10-13T11:49:56Z</time>
      </trkpt>
      <trkpt lat="40.225281" lon="-5.847880">
        <ele>1384.168</ele>
        <time>2021-10-13T11:49:58Z</time>
      </trkpt>
      <trkpt lat="40.225153" lon="-5.847766">
        <ele>1383.135</ele>
        <time>2021-10-13T11:49:59Z</time>
      </trkpt>
      <trkpt lat="40.224867" lon="-5.847574">
        <ele>1381.095</ele>
        <time>2021-10-13T11:50:01Z</time>
      </trkpt>
      <trkpt lat="40.224708" lon="-5.847482">
        <ele>1379.828</ele>
        <time>2021-10-13T11:50:02Z</time>
      </trkpt>
      <trkpt lat="40.224394" lon="-5.847277">
        <ele>1377.034</ele>
        <time>2021-10-13T11:50:04Z</time>
      </trkpt>
      <trkpt lat="40.224105" lon="-5.847031">
        <ele>1375.623</ele>
        <time>2021-10-13T11:50:06Z</time>
      </trkpt>
      <trkpt lat="40.223867" lon="-5.846756">
        <ele>1372.988</ele>
        <time>2021-10-13T11:50:08Z</time>
      </trkpt>
      <trkpt lat="40.223675" lon="-5.846516">
        <ele>1371.668</ele>
        <time>2021-10-13T11:50:10Z</time>
      </trkpt>
      <trkpt lat="40.223571" lon="-5.846406">
        <ele>1371.342</ele>
        <time>2021-10-13T11:50:11Z</time>
      </trkpt>
      <trkpt lat="40.223362" lon="-5.846224">
        <ele>1371.226</ele>
        <time>2021-10-13T11:50:13Z</time>
      </trkpt>
      <trkpt lat="40.223242" lon="-5.846155">
        <ele>1370.408</ele>
        <time>2021-10-13T11:50:14Z</time>
      </trkpt>
      <trkpt lat="40.222984" lon="-5.846048">
        <ele>1370.154</ele>
        <time>2021-10-13T11:50:16Z</time>
      </trkpt>
      <trkpt lat="40.222850" lon="-5.846010">
        <ele>1367.912</ele>
        <time>2021-10-13T11:50:17Z</time>
      </trkpt>
      <trkpt lat="40.222715" lon="-5.845987">
        <ele>1367.549</ele>
        <time>2021-10-13T11:50:18Z</time>
      </trkpt>
      <trkpt lat="40.222581" lon="-5.845981">
        <ele>1367.279</ele>
        <time>2021-10-13T11:50:19Z</time>
      </trkpt>
      <trkpt lat="40.222441" lon="-5.846004">
        <ele>1366.822</ele>
        <time>2021-10-13T11:50:20Z</time>
      </trkpt>
      <trkpt lat="40.222199" lon="-5.846146">
        <ele>1365.698</ele>
        <time>2021-10-13T11:50:22Z</time>
      </trkpt>
      <trkpt lat="40.221987" lon="-5.846458">
        <ele>1364.687</ele>
        <time>2021-10-13T11:50:24Z</time>
      </trkpt>
      <trkpt lat="40.221877" lon="-5.846655">
        <ele>1365.382</ele>
        <time>2021-10-13T11:50:25Z</time>
      </trkpt>
      <trkpt lat="40.221751" lon="-5.846852">
        <ele>1365.531</ele>
        <time>2021-10-13T11:50:26Z</time>
      </trkpt>
      <trkpt lat="40.221475" lon="-5.847171">
        <ele>1366.461</ele>
        <time>2021-10-13T11:50:28Z</time>
      </trkpt>
      <trkpt lat="40.221311" lon="-5.847303">
        <ele>1367.307</ele>
        <time>2021-10-13T11:50:29Z</time>
      </trkpt>
      <trkpt lat="40.221015" lon="-5.847534">
        <ele>1369.108</ele>
        <time>2021-10-13T11:50:31Z</time>
      </trkpt>
      <trkpt lat="40.220877" lon="-5.847621">
        <ele>1370.091</ele>
        <time>2021-10-13T11:50:32Z</time>
      </trkpt>
      <trkpt lat="40.220601" lon="-5.847699">
        <ele>1372.169</ele>
        <time>2021-10-13T11:50:34Z</time>
      </trkpt>
      <trkpt lat="40.220355" lon="-5.847792">
        <ele>1372.556</ele>
        <time>2021-10-13T11:50:36Z</time>
      </trkpt>
      <trkpt lat="40.220138" lon="-5.848026">
        <ele>1373.236</ele>
        <time>2021-10-13T11:50:38Z</time>
      </trkpt>
      <trkpt lat="40.220000" lon="-5.848298">
        <ele>1373.689</ele>
        <time>2021-10-13T11:50:40Z</time>
      </trkpt>
      <trkpt lat="40.219975" lon="-5.848642">
        <ele>1373.665</ele>
        <time>2021-10-13T11:50:42Z</time>
      </trkpt>
      <trkpt lat="40.220013" lon="-5.849078">
        <ele>1373.424</ele>
        <time>2021-10-13T11:50:44Z</time>
      </trkpt>
      <trkpt lat="40.220099" lon="-5.849570">
        <ele>1375.199</ele>
        <time>2021-10-13T11:50:46Z</time>
      </trkpt>
      <trkpt lat="40.220157" lon="-5.849841">
        <ele>1375.415</ele>
        <time>2021-10-13T11:50:47Z</time>
      </trkpt>
      <trkpt lat="40.220220" lon="-5.850114">
        <ele>1376.965</ele>
        <time>2021-10-13T11:50:48Z</time>
      </trkpt>
      <trkpt lat="40.220352" lon="-5.850653">
        <ele>1379.011</ele>
        <time>2021-10-13T11:50:50Z</time>
      </trkpt>
      <trkpt lat="40.220482" lon="-5.851124">
        <ele>1381.408</ele>
        <time>2021-10-13T11:50:52Z</time>
      </trkpt>
      <trkpt lat="40.220650" lon="-5.851533">
        <ele>1383.539</ele>
        <time>2021-10-13T11:50:54Z</time>
      </trkpt>
      <trkpt lat="40.220871" lon="-5.851838">
        <ele>1385.367</ele>
        <time>2021-10-13T11:50:56Z</time>
      </trkpt>
      <trkpt lat="40.221135" lon="-5.852107">
        <ele>1387.344</ele>
        <time>2021-10-13T11:50:58Z</time>
      </trkpt>
      <trkpt lat="40.221370" lon="-5.852481">
        <ele>1388.784</ele>
        <time>2021-10-13T11:51:00Z</time>
      </trkpt>
      <trkpt lat="40.221465" lon="-5.852694">
        <ele>1390.057</ele>
        <time>2021-10-13T11:51:01Z</time>
      </trkpt>
      <trkpt lat="40.221541" lon="-5.852904">
        <ele>1391.153</ele>
        <time>2021-10-13T11:51:02Z</time>
      </trkpt>
      <trkpt lat="40.221666" lon="-5.853254">
        <ele>1393.212</ele>
        <time>2021-10-13T11:51:04Z</time>
      </trkpt>
      <trkpt lat="40.221770" lon="-5.853564">
        <ele>1395.357</ele>
        <time>2021-10-13T11:51:06Z</time>
      </trkpt>
      <trkpt lat="40.221761" lon="-5.853877">
        <ele>1396.753</ele>
        <time>2021-10-13T11:51:08Z</time>
      </trkpt>
      <trkpt lat="40.221609" lon="-5.854137">
        <ele>1398.504</ele>
        <time>2021-10-13T11:51:10Z</time>
      </trkpt>
      <trkpt lat="40.221496" lon="-5.854252">
        <ele>1399.214</ele>
        <time>2021-10-13T11:51:11Z</time>
      </trkpt>
      <trkpt lat="40.221348" lon="-5.854525">
        <ele>1399.908</ele>
        <time>2021-10-13T11:51:13Z</time>
      </trkpt>
      <trkpt lat="40.221319" lon="-5.854703">
        <ele>1400.173</ele>
        <time>2021-10-13T11:51:14Z</time>
      </trkpt>
      <trkpt lat="40.221298" lon="-5.855106">
        <ele>1401.371</ele>
        <time>2021-10-13T11:51:16Z</time>
      </trkpt>
      <trkpt lat="40.221310" lon="-5.855332">
        <ele>1401.068</ele>
        <time>2021-10-13T11:51:17Z</time>
      </trkpt>
      <trkpt lat="40.221405" lon="-5.855784">
        <ele>1402.458</ele>
        <time>2021-10-13T11:51:19Z</time>
      </trkpt>
      <trkpt lat="40.221477" lon="-5.856019">
        <ele>1402.771</ele>
        <time>2021-10-13T11:51:20Z</time>
      </trkpt>
      <trkpt lat="40.221588" lon="-5.856483">
        <ele>1402.947</ele>
        <time>2021-10-13T11:51:22Z</time>
      </trkpt>
      <trkpt lat="40.221615" lon="-5.856957">
        <ele>1403.286</ele>
        <time>2021-10-13T11:51:24Z</time>
      </trkpt>
      <trkpt lat="40.221576" lon="-5.857365">
        <ele>1404.611</ele>
        <time>2021-10-13T11:51:26Z</time>
      </trkpt>
      <trkpt lat="40.221608" lon="-5.857723">
        <ele>1405.051</ele>
        <time>2021-10-13T11:51:28Z</time>
      </trkpt>
      <trkpt lat="40.221664" lon="-5.857894">
        <ele>1405.201</ele>
        <time>2021-10-13T11:51:29Z</time>
      </trkpt>
      <trkpt lat="40.221802" lon="-5.858219">
        <ele>1407.011</ele>
        <time>2021-10-13T11:51:31Z</time>
      </trkpt>
      <trkpt lat="40.221883" lon="-5.858399">
        <ele>1407.908</ele>
        <time>2021-10-13T11:51:32Z</time>
      </trkpt>
      <trkpt lat="40.222038" lon="-5.858767">
        <ele>1410.043</ele>
        <time>2021-10-13T11:51:34Z</time>
      </trkpt>
      <trkpt lat="40.222164" lon="-5.859137">
        <ele>1412.671</ele>
        <time>2021-10-13T11:51:36Z</time>
      </trkpt>
      <trkpt lat="40.222164" lon="-5.859490">
        <ele>1414.358</ele>
        <time>2021-10-13T11:51:38Z</time>
      </trkpt>
      <trkpt lat="40.222076" lon="-5.859813">
        <ele>1415.338</ele>
        <time>2021-10-13T11:51:40Z</time>
      </trkpt>
      <trkpt lat="40.222062" lon="-5.860150">
        <ele>1415.911</ele>
        <time>2021-10-13T11:51:42Z</time>
      </trkpt>
      <trkpt lat="40.222095" lon="-5.860324">
        <ele>1417.717</ele>
        <time>2021-10-13T11:51:43Z</time>
      </trkpt>
      <trkpt lat="40.222133" lon="-5.860509">
        <ele>1418.086</ele>
        <time>2021-10-13T11:51:44Z</time>
      </trkpt>
      <trkpt lat="40.222189" lon="-5.860889">
        <ele>1419.581</ele>
        <time>2021-10-13T11:51:46Z</time>
      </trkpt>
      <trkpt lat="40.222203" lon="-5.861104">
        <ele>1420.615</ele>
        <time>2021-10-13T11:51:47Z</time>
      </trkpt>
      <trkpt lat="40.222216" lon="-5.861312">
        <ele>1421.265</ele>
        <time>2021-10-13T11:51:48Z</time>
      </trkpt>
      <trkpt lat="40.222306" lon="-5.861701">
        <ele>1422.311</ele>
        <time>2021-10-13T11:51:50Z</time>
      </trkpt>
      <trkpt lat="40.222491" lon="-5.862008">
        <ele>1424.208</ele>
        <time>2021-10-13T11:51:52Z</time>
      </trkpt>
      <trkpt lat="40.222614" lon="-5.862134">
        <ele>1425.179</ele>
        <time>2021-10-13T11:51:53Z</time>
      </trkpt>
      <trkpt lat="40.222739" lon="-5.862253">
        <ele>1426.177</ele>
        <time>2021-10-13T11:51:54Z</time>
      </trkpt>
      <trkpt lat="40.222853" lon="-5.862387">
        <ele>1426.774</ele>
        <time>2021-10-13T11:51:55Z</time>
      </trkpt>
      <trkpt lat="40.222949" lon="-5.862553">
        <ele>1427.654</ele>
        <time>2021-10-13T11:51:56Z</time>
      </trkpt>
      <trkpt lat="40.223075" lon="-5.862932">
        <ele>1429.327</ele>
        <time>2021-10-13T11:51:58Z</time>
      </trkpt>
      <trkpt lat="40.223116" lon="-5.863142">
        <ele>1429.243</ele>
        <time>2021-10-13T11:51:59Z</time>
      </trkpt>
      <trkpt lat="40.223135" lon="-5.863540">
        <ele>1430.212</ele>
        <time>2021-10-13T11:52:01Z</time>
      </trkpt>
      <trkpt lat="40.223112" lon="-5.863728">
        <ele>1430.727</ele>
        <time>2021-10-13T11:52:02Z</time>
      </trkpt>
      <trkpt lat="40.223034" lon="-5.864042">
        <ele>1431.185</ele>
        <time>2021-10-13T11:52:04Z</time>
      </trkpt>
      <trkpt lat="40.223003" lon="-5.864190">
        <ele>1431.389</ele>
        <time>2021-10-13T11:52:05Z</time>
      </trkpt>
      <trkpt lat="40.222975" lon="-5.864336">
        <ele>1431.917</ele>
        <time>2021-10-13T11:52:06Z</time>
      </trkpt>
      <trkpt lat="40.222905" lon="-5.864640">
        <ele>1432.308</ele>
        <time>2021-10-13T11:52:08Z</time>
      </trkpt>
      <trkpt lat="40.222750" lon="-5.864908">
        <ele>1431.866</ele>
        <time>2021-10-13T11:52:10Z</time>
      </trkpt>
      <trkpt lat="40.222535" lon="-5.865181">
        <ele>1431.874</ele>
        <time>2021-10-13T11:52:12Z</time>
      </trkpt>
      <trkpt lat="40.222351" lon="-5.865529">
        <ele>1430.871</ele>
        <time>2021-10-13T11:52:14Z</time>
      </trkpt>
      <trkpt lat="40.222256" lon="-5.865970">
        <ele>1430.751</ele>
        <time>2021-10-13T11:52:16Z</time>
      </trkpt>
      <trkpt lat="40.222211" lon="-5.866234">
        <ele>1430.614</ele>
        <time>2021-10-13T11:52:17Z</time>
      </trkpt>
      <trkpt lat="40.222099" lon="-5.866768">
        <ele>1429.090</ele>
        <time>2021-10-13T11:52:19Z</time>
      </trkpt>
      <trkpt lat="40.222036" lon="-5.867049">
        <ele>1428.479</ele>
        <time>2021-10-13T11:52:20Z</time>
      </trkpt>
      <trkpt lat="40.221948" lon="-5.867594">
        <ele>1428.794</ele>
        <time>2021-10-13T11:52:22Z</time>
      </trkpt>
      <trkpt lat="40.221931" lon="-5.867856">
        <ele>1429.257</ele>
        <time>2021-10-13T11:52:23Z</time>
      </trkpt>
      <trkpt lat="40.221928" lon="-5.868094">
        <ele>1429.900</ele>
        <time>2021-10-13T11:52:24Z</time>
      </trkpt>
      <trkpt lat="40.221932" lon="-5.868316">
        <ele>1431.020</ele>
        <time>2021-10-13T11:52:25Z</time>
      </trkpt>
      <trkpt lat="40.221933" lon="-5.868539">
        <ele>1431.808</ele>
        <time>2021-10-13T11:52:26Z</time>
      </trkpt>
      <trkpt lat="40.221935" lon="-5.868970">
        <ele>1433.113</ele>
        <time>2021-10-13T11:52:28Z</time>
      </trkpt>
      <trkpt lat="40.221951" lon="-5.869187">
        <ele>1432.911</ele>
        <time>2021-10-13T11:52:29Z</time>
      </trkpt>
      <trkpt lat="40.222046" lon="-5.869586">
        <ele>1433.768</ele>
        <time>2021-10-13T11:52:31Z</time>
      </trkpt>
      <trkpt lat="40.222129" lon="-5.869780">
        <ele>1433.718</ele>
        <time>2021-10-13T11:52:32Z</time>
      </trkpt>
      <trkpt lat="40.222292" lon="-5.870134">
        <ele>1433.911</ele>
        <time>2021-10-13T11:52:34Z</time>
      </trkpt>
      <trkpt lat="40.222399" lon="-5.870451">
        <ele>1435.137</ele>
        <time>2021-10-13T11:52:36Z</time>
      </trkpt>
      <trkpt lat="40.222405" lon="-5.870751">
        <ele>1435.716</ele>
        <time>2021-10-13T11:52:38Z</time>
      </trkpt>
      <trkpt lat="40.222306" lon="-5.871009">
        <ele>1437.181</ele>
        <time>2021-10-13T11:52:40Z</time>
      </trkpt>
      <trkpt lat="40.222132" lon="-5.871188">
        <ele>1437.277</ele>
        <time>2021-10-13T11:52:42Z</time>
      </trkpt>
      <trkpt lat="40.222049" lon="-5.871262">
        <ele>1436.461</ele>
        <time>2021-10-13T11:52:43Z</time>
      </trkpt>
      <trkpt lat="40.221978" lon="-5.871343">
        <ele>1436.327</ele>
        <time>2021-10-13T11:52:44Z</time>
      </trkpt>
      <trkpt lat="40.221905" lon="-5.871503">
        <ele>1436.708</ele>
        <time>2021-10-13T11:52:46Z</time>
      </trkpt>
      <trkpt lat="40.221891" lon="-5.871634">
        <ele>1437.355</ele>
        <time>2021-10-13T11:52:48Z</time>
      </trkpt>
      <trkpt lat="40.221892" lon="-5.871728">
        <ele>1437.123</ele>
        <time>2021-10-13T11:52:50Z</time>
      </trkpt>
      <trkpt lat="40.221908" lon="-5.871797">
        <ele>1437.150</ele>
        <time>2021-10-13T11:52:52Z</time>
      </trkpt>
      <trkpt lat="40.221928" lon="-5.871855">
        <ele>1436.910</ele>
        <time>2021-10-13T11:52:54Z</time>
      </trkpt>
      <trkpt lat="40.221964" lon="-5.871899">
        <ele>1436.433</ele>
        <time>2021-10-13T11:52:56Z</time>
      </trkpt>
      <trkpt lat="40.221999" lon="-5.871941">
        <ele>1436.229</ele>
        <time>2021-10-13T11:52:59Z</time>
      </trkpt>
      <trkpt lat="40.222046" lon="-5.871983">
        <ele>1436.088</ele>
        <time>2021-10-13T11:53:02Z</time>
      </trkpt>
      <trkpt lat="40.222151" lon="-5.872043">
        <ele>1435.973</ele>
        <time>2021-10-13T11:53:12Z</time>
      </trkpt>
      <trkpt lat="40.222255" lon="-5.872090">
        <ele>1435.926</ele>
        <time>2021-10-13T11:53:13Z</time>
      </trkpt>
      <trkpt lat="40.222357" lon="-5.872125">
        <ele>1435.947</ele>
        <time>2021-10-13T11:53:14Z</time>
      </trkpt>
      <trkpt lat="40.222539" lon="-5.872171">
        <ele>1435.711</ele>
        <time>2021-10-13T11:53:16Z</time>
      </trkpt>
      <trkpt lat="40.222719" lon="-5.872241">
        <ele>1434.308</ele>
        <time>2021-10-13T11:53:18Z</time>
      </trkpt>
      <trkpt lat="40.222813" lon="-5.872304">
        <ele>1434.340</ele>
        <time>2021-10-13T11:53:19Z</time>
      </trkpt>
      <trkpt lat="40.222913" lon="-5.872373">
        <ele>1434.258</ele>
        <time>2021-10-13T11:53:20Z</time>
      </trkpt>
      <trkpt lat="40.223108" lon="-5.872507">
        <ele>1433.685</ele>
        <time>2021-10-13T11:53:22Z</time>
      </trkpt>
      <trkpt lat="40.223321" lon="-5.872645">
        <ele>1432.735</ele>
        <time>2021-10-13T11:53:24Z</time>
      </trkpt>
      <trkpt lat="40.223435" lon="-5.872721">
        <ele>1431.228</ele>
        <time>2021-10-13T11:53:25Z</time>
      </trkpt>
      <trkpt lat="40.223551" lon="-5.872797">
        <ele>1431.244</ele>
        <time>2021-10-13T11:53:26Z</time>
      </trkpt>
      <trkpt lat="40.223776" lon="-5.872943">
        <ele>1430.783</ele>
        <time>2021-10-13T11:53:28Z</time>
      </trkpt>
      <trkpt lat="40.223906" lon="-5.873023">
        <ele>1430.228</ele>
        <time>2021-10-13T11:53:29Z</time>
      </trkpt>
      <trkpt lat="40.224172" lon="-5.873185">
        <ele>1429.532</ele>
        <time>2021-10-13T11:53:31Z</time>
      </trkpt>
      <trkpt lat="40.224306" lon="-5.873284">
        <ele>1428.592</ele>
        <time>2021-10-13T11:53:32Z</time>
      </trkpt>
      <trkpt lat="40.224526" lon="-5.873552">
        <ele>1427.311</ele>
        <time>2021-10-13T11:53:34Z</time>
      </trkpt>
      <trkpt lat="40.224703" lon="-5.873903">
        <ele>1425.408</ele>
        <time>2021-10-13T11:53:36Z</time>
      </trkpt>
      <trkpt lat="40.224792" lon="-5.874087">
        <ele>1424.551</ele>
        <time>2021-10-13T11:53:37Z</time>
      </trkpt>
      <trkpt lat="40.224882" lon="-5.874270">
        <ele>1424.069</ele>
        <time>2021-10-13T11:53:38Z</time>
      </trkpt>
      <trkpt lat="40.225059" lon="-5.874599">
        <ele>1422.296</ele>
        <time>2021-10-13T11:53:40Z</time>
      </trkpt>
      <trkpt lat="40.225276" lon="-5.874904">
        <ele>1420.776</ele>
        <time>2021-10-13T11:53:42Z</time>
      </trkpt>
      <trkpt lat="40.225549" lon="-5.875128">
        <ele>1419.099</ele>
        <time>2021-10-13T11:53:44Z</time>
      </trkpt>
      <trkpt lat="40.225819" lon="-5.875203">
        <ele>1416.685</ele>
        <time>2021-10-13T11:53:46Z</time>
      </trkpt>
      <trkpt lat="40.226086" lon="-5.875141">
        <ele>1414.274</ele>
        <time>2021-10-13T11:53:48Z</time>
      </trkpt>
      <trkpt lat="40.226304" lon="-5.874939">
        <ele>1412.879</ele>
        <time>2021-10-13T11:53:50Z</time>
      </trkpt>
      <trkpt lat="40.226474" lon="-5.874683">
        <ele>1412.211</ele>
        <time>2021-10-13T11:53:52Z</time>
      </trkpt>
      <trkpt lat="40.226695" lon="-5.874504">
        <ele>1410.421</ele>
        <time>2021-10-13T11:53:54Z</time>
      </trkpt>
      <trkpt lat="40.226832" lon="-5.874478">
        <ele>1409.403</ele>
        <time>2021-10-13T11:53:55Z</time>
      </trkpt>
      <trkpt lat="40.226984" lon="-5.874495">
        <ele>1408.808</ele>
        <time>2021-10-13T11:53:56Z</time>
      </trkpt>
      <trkpt lat="40.227276" lon="-5.874585">
        <ele>1407.339</ele>
        <time>2021-10-13T11:53:58Z</time>
      </trkpt>
      <trkpt lat="40.227414" lon="-5.874644">
        <ele>1407.077</ele>
        <time>2021-10-13T11:53:59Z</time>
      </trkpt>
      <trkpt lat="40.227656" lon="-5.874847">
        <ele>1406.644</ele>
        <time>2021-10-13T11:54:01Z</time>
      </trkpt>
      <trkpt lat="40.227772" lon="-5.874984">
        <ele>1406.224</ele>
        <time>2021-10-13T11:54:02Z</time>
      </trkpt>
      <trkpt lat="40.227998" lon="-5.875264">
        <ele>1406.447</ele>
        <time>2021-10-13T11:54:04Z</time>
      </trkpt>
      <trkpt lat="40.228200" lon="-5.875612">
        <ele>1405.563</ele>
        <time>2021-10-13T11:54:06Z</time>
      </trkpt>
      <trkpt lat="40.228290" lon="-5.875807">
        <ele>1404.772</ele>
        <time>2021-10-13T11:54:07Z</time>
      </trkpt>
      <trkpt lat="40.228387" lon="-5.876010">
        <ele>1404.357</ele>
        <time>2021-10-13T11:54:08Z</time>
      </trkpt>
      <trkpt lat="40.228602" lon="-5.876366">
        <ele>1402.647</ele>
        <time>2021-10-13T11:54:10Z</time>
      </trkpt>
      <trkpt lat="40.228735" lon="-5.876519">
        <ele>1402.429</ele>
        <time>2021-10-13T11:54:11Z</time>
      </trkpt>
      <trkpt lat="40.228880" lon="-5.876649">
        <ele>1402.121</ele>
        <time>2021-10-13T11:54:12Z</time>
      </trkpt>
      <trkpt lat="40.229025" lon="-5.876775">
        <ele>1400.808</ele>
        <time>2021-10-13T11:54:13Z</time>
      </trkpt>
      <trkpt lat="40.229169" lon="-5.876907">
        <ele>1399.252</ele>
        <time>2021-10-13T11:54:14Z</time>
      </trkpt>
      <trkpt lat="40.229442" lon="-5.877172">
        <ele>1397.790</ele>
        <time>2021-10-13T11:54:16Z</time>
      </trkpt>
      <trkpt lat="40.229752" lon="-5.877366">
        <ele>1396.777</ele>
        <time>2021-10-13T11:54:18Z</time>
      </trkpt>
      <trkpt lat="40.229919" lon="-5.877439">
        <ele>1395.877</ele>
        <time>2021-10-13T11:54:19Z</time>
      </trkpt>
      <trkpt lat="40.230092" lon="-5.877526">
        <ele>1395.030</ele>
        <time>2021-10-13T11:54:20Z</time>
      </trkpt>
      <trkpt lat="40.230404" lon="-5.877751">
        <ele>1393.056</ele>
        <time>2021-10-13T11:54:22Z</time>
      </trkpt>
      <trkpt lat="40.230553" lon="-5.877883">
        <ele>1393.055</ele>
        <time>2021-10-13T11:54:23Z</time>
      </trkpt>
      <trkpt lat="40.230703" lon="-5.877993">
        <ele>1391.910</ele>
        <time>2021-10-13T11:54:24Z</time>
      </trkpt>
      <trkpt lat="40.230969" lon="-5.878135">
        <ele>1389.354</ele>
        <time>2021-10-13T11:54:26Z</time>
      </trkpt>
      <trkpt lat="40.231121" lon="-5.878249">
        <ele>1388.656</ele>
        <time>2021-10-13T11:54:28Z</time>
      </trkpt>
      <trkpt lat="40.231143" lon="-5.878324">
        <ele>1388.211</ele>
        <time>2021-10-13T11:54:29Z</time>
      </trkpt>
      <trkpt lat="40.231144" lon="-5.878409">
        <ele>1387.708</ele>
        <time>2021-10-13T11:54:30Z</time>
      </trkpt>
      <trkpt lat="40.231008" lon="-5.878513">
        <ele>1385.383</ele>
        <time>2021-10-13T11:54:32Z</time>
      </trkpt>
      <trkpt lat="40.230803" lon="-5.878415">
        <ele>1383.441</ele>
        <time>2021-10-13T11:54:34Z</time>
      </trkpt>
      <trkpt lat="40.230678" lon="-5.878310">
        <ele>1382.298</ele>
        <time>2021-10-13T11:54:35Z</time>
      </trkpt>
      <trkpt lat="40.230393" lon="-5.878089">
        <ele>1379.118</ele>
        <time>2021-10-13T11:54:37Z</time>
      </trkpt>
      <trkpt lat="40.230235" lon="-5.877990">
        <ele>1378.711</ele>
        <time>2021-10-13T11:54:38Z</time>
      </trkpt>
      <trkpt lat="40.229914" lon="-5.877893">
        <ele>1377.437</ele>
        <time>2021-10-13T11:54:40Z</time>
      </trkpt>
      <trkpt lat="40.229747" lon="-5.877871">
        <ele>1377.436</ele>
        <time>2021-10-13T11:54:41Z</time>
      </trkpt>
      <trkpt lat="40.229412" lon="-5.877822">
        <ele>1375.811</ele>
        <time>2021-10-13T11:54:43Z</time>
      </trkpt>
      <trkpt lat="40.229241" lon="-5.877782">
        <ele>1374.083</ele>
        <time>2021-10-13T11:54:44Z</time>
      </trkpt>
      <trkpt lat="40.228938" lon="-5.877668">
        <ele>1371.625</ele>
        <time>2021-10-13T11:54:46Z</time>
      </trkpt>
      <trkpt lat="40.228787" lon="-5.877587">
        <ele>1370.917</ele>
        <time>2021-10-13T11:54:47Z</time>
      </trkpt>
      <trkpt lat="40.228483" lon="-5.877367">
        <ele>1368.208</ele>
        <time>2021-10-13T11:54:49Z</time>
      </trkpt>
      <trkpt lat="40.228319" lon="-5.877241">
        <ele>1367.156</ele>
        <time>2021-10-13T11:54:50Z</time>
      </trkpt>
      <trkpt lat="40.228008" lon="-5.876988">
        <ele>1364.594</ele>
        <time>2021-10-13T11:54:52Z</time>
      </trkpt>
      <trkpt lat="40.227868" lon="-5.876841">
        <ele>1363.051</ele>
        <time>2021-10-13T11:54:53Z</time>
      </trkpt>
      <trkpt lat="40.227744" lon="-5.876684">
        <ele>1361.141</ele>
        <time>2021-10-13T11:54:54Z</time>
      </trkpt>
      <trkpt lat="40.227519" lon="-5.876374">
        <ele>1357.584</ele>
        <time>2021-10-13T11:54:56Z</time>
      </trkpt>
      <trkpt lat="40.227305" lon="-5.876155">
        <ele>1354.290</ele>
        <time>2021-10-13T11:54:58Z</time>
      </trkpt>
      <trkpt lat="40.227043" lon="-5.876044">
        <ele>1352.729</ele>
        <time>2021-10-13T11:55:00Z</time>
      </trkpt>
      <trkpt lat="40.226781" lon="-5.876147">
        <ele>1350.314</ele>
        <time>2021-10-13T11:55:02Z</time>
      </trkpt>
      <trkpt lat="40.226575" lon="-5.876426">
        <ele>1347.566</ele>
        <time>2021-10-13T11:55:04Z</time>
      </trkpt>
      <trkpt lat="40.226317" lon="-5.876705">
        <ele>1344.429</ele>
        <time>2021-10-13T11:55:06Z</time>
      </trkpt>
      <trkpt lat="40.226044" lon="-5.876952">
        <ele>1342.921</ele>
        <time>2021-10-13T11:55:08Z</time>
      </trkpt>
      <trkpt lat="40.225802" lon="-5.877152">
        <ele>1340.108</ele>
        <time>2021-10-13T11:55:10Z</time>
      </trkpt>
      <trkpt lat="40.225573" lon="-5.877266">
        <ele>1338.074</ele>
        <time>2021-10-13T11:55:12Z</time>
      </trkpt>
      <trkpt lat="40.225405" lon="-5.877362">
        <ele>1337.322</ele>
        <time>2021-10-13T11:55:14Z</time>
      </trkpt>
      <trkpt lat="40.225329" lon="-5.877512">
        <ele>1337.589</ele>
        <time>2021-10-13T11:55:16Z</time>
      </trkpt>
      <trkpt lat="40.225382" lon="-5.877675">
        <ele>1337.519</ele>
        <time>2021-10-13T11:55:18Z</time>
      </trkpt>
      <trkpt lat="40.225472" lon="-5.877709">
        <ele>1336.962</ele>
        <time>2021-10-13T11:55:19Z</time>
      </trkpt>
      <trkpt lat="40.225593" lon="-5.877697">
        <ele>1336.538</ele>
        <time>2021-10-13T11:55:20Z</time>
      </trkpt>
      <trkpt lat="40.225825" lon="-5.877544">
        <ele>1335.897</ele>
        <time>2021-10-13T11:55:22Z</time>
      </trkpt>
      <trkpt lat="40.225937" lon="-5.877420">
        <ele>1335.652</ele>
        <time>2021-10-13T11:55:23Z</time>
      </trkpt>
      <trkpt lat="40.226042" lon="-5.877281">
        <ele>1333.962</ele>
        <time>2021-10-13T11:55:24Z</time>
      </trkpt>
      <trkpt lat="40.226153" lon="-5.877144">
        <ele>1334.083</ele>
        <time>2021-10-13T11:55:25Z</time>
      </trkpt>
      <trkpt lat="40.226278" lon="-5.877016">
        <ele>1333.311</ele>
        <time>2021-10-13T11:55:26Z</time>
      </trkpt>
      <trkpt lat="40.226554" lon="-5.876811">
        <ele>1332.908</ele>
        <time>2021-10-13T11:55:28Z</time>
      </trkpt>
      <trkpt lat="40.226809" lon="-5.876627">
        <ele>1332.114</ele>
        <time>2021-10-13T11:55:30Z</time>
      </trkpt>
      <trkpt lat="40.226927" lon="-5.876562">
        <ele>1332.182</ele>
        <time>2021-10-13T11:55:31Z</time>
      </trkpt>
      <trkpt lat="40.227039" lon="-5.876531">
        <ele>1332.319</ele>
        <time>2021-10-13T11:55:32Z</time>
      </trkpt>
      <trkpt lat="40.227241" lon="-5.876599">
        <ele>1332.899</ele>
        <time>2021-10-13T11:55:34Z</time>
      </trkpt>
      <trkpt lat="40.227329" lon="-5.876708">
        <ele>1332.832</ele>
        <time>2021-10-13T11:55:35Z</time>
      </trkpt>
      <trkpt lat="40.227483" lon="-5.877082">
        <ele>1332.358</ele>
        <time>2021-10-13T11:55:37Z</time>
      </trkpt>
      <trkpt lat="40.227576" lon="-5.877317">
        <ele>1331.447</ele>
        <time>2021-10-13T11:55:38Z</time>
      </trkpt>
      <trkpt lat="40.227813" lon="-5.877754">
        <ele>1329.412</ele>
        <time>2021-10-13T11:55:40Z</time>
      </trkpt>
      <trkpt lat="40.228069" lon="-5.878166">
        <ele>1328.759</ele>
        <time>2021-10-13T11:55:42Z</time>
      </trkpt>
      <trkpt lat="40.228194" lon="-5.878379">
        <ele>1327.703</ele>
        <time>2021-10-13T11:55:43Z</time>
      </trkpt>
      <trkpt lat="40.228319" lon="-5.878595">
        <ele>1325.323</ele>
        <time>2021-10-13T11:55:44Z</time>
      </trkpt>
      <trkpt lat="40.228591" lon="-5.878937">
        <ele>1321.908</ele>
        <time>2021-10-13T11:55:46Z</time>
      </trkpt>
      <trkpt lat="40.228748" lon="-5.879067">
        <ele>1319.963</ele>
        <time>2021-10-13T11:55:47Z</time>
      </trkpt>
      <trkpt lat="40.229086" lon="-5.879217">
        <ele>1317.081</ele>
        <time>2021-10-13T11:55:49Z</time>
      </trkpt>
      <trkpt lat="40.229263" lon="-5.879259">
        <ele>1315.368</ele>
        <time>2021-10-13T11:55:50Z</time>
      </trkpt>
      <trkpt lat="40.229581" lon="-5.879332">
        <ele>1313.138</ele>
        <time>2021-10-13T11:55:52Z</time>
      </trkpt>
      <trkpt lat="40.229860" lon="-5.879506">
        <ele>1309.951</ele>
        <time>2021-10-13T11:55:54Z</time>
      </trkpt>
      <trkpt lat="40.229983" lon="-5.879647">
        <ele>1308.767</ele>
        <time>2021-10-13T11:55:55Z</time>
      </trkpt>
      <trkpt lat="40.230106" lon="-5.879812">
        <ele>1307.746</ele>
        <time>2021-10-13T11:55:56Z</time>
      </trkpt>
      <trkpt lat="40.230307" lon="-5.880161">
        <ele>1305.481</ele>
        <time>2021-10-13T11:55:58Z</time>
      </trkpt>
      <trkpt lat="40.230391" lon="-5.880578">
        <ele>1304.789</ele>
        <time>2021-10-13T11:56:00Z</time>
      </trkpt>
      <trkpt lat="40.230343" lon="-5.880994">
        <ele>1300.806</ele>
        <time>2021-10-13T11:56:02Z</time>
      </trkpt>
      <trkpt lat="40.230277" lon="-5.881366">
        <ele>1298.126</ele>
        <time>2021-10-13T11:56:04Z</time>
      </trkpt>
      <trkpt lat="40.230329" lon="-5.881714">
        <ele>1296.408</ele>
        <time>2021-10-13T11:56:06Z</time>
      </trkpt>
      <trkpt lat="40.230403" lon="-5.881858">
        <ele>1295.286</ele>
        <time>2021-10-13T11:56:07Z</time>
      </trkpt>
      <trkpt lat="40.230518" lon="-5.881973">
        <ele>1294.554</ele>
        <time>2021-10-13T11:56:08Z</time>
      </trkpt>
      <trkpt lat="40.230814" lon="-5.882091">
        <ele>1292.911</ele>
        <time>2021-10-13T11:56:10Z</time>
      </trkpt>
      <trkpt lat="40.231141" lon="-5.882069">
        <ele>1291.551</ele>
        <time>2021-10-13T11:56:12Z</time>
      </trkpt>
      <trkpt lat="40.231467" lon="-5.882020">
        <ele>1290.144</ele>
        <time>2021-10-13T11:56:14Z</time>
      </trkpt>
      <trkpt lat="40.231759" lon="-5.882114">
        <ele>1289.230</ele>
        <time>2021-10-13T11:56:16Z</time>
      </trkpt>
      <trkpt lat="40.232006" lon="-5.882334">
        <ele>1288.599</ele>
        <time>2021-10-13T11:56:18Z</time>
      </trkpt>
      <trkpt lat="40.232153" lon="-5.882712">
        <ele>1287.994</ele>
        <time>2021-10-13T11:56:20Z</time>
      </trkpt>
      <trkpt lat="40.232303" lon="-5.883098">
        <ele>1284.832</ele>
        <time>2021-10-13T11:56:22Z</time>
      </trkpt>
      <trkpt lat="40.232412" lon="-5.883272">
        <ele>1283.892</ele>
        <time>2021-10-13T11:56:23Z</time>
      </trkpt>
      <trkpt lat="40.232631" lon="-5.883597">
        <ele>1281.211</ele>
        <time>2021-10-13T11:56:25Z</time>
      </trkpt>
      <trkpt lat="40.232757" lon="-5.883730">
        <ele>1279.808</ele>
        <time>2021-10-13T11:56:26Z</time>
      </trkpt>
      <trkpt lat="40.233044" lon="-5.883875">
        <ele>1277.561</ele>
        <time>2021-10-13T11:56:28Z</time>
      </trkpt>
      <trkpt lat="40.233220" lon="-5.883930">
        <ele>1277.389</ele>
        <time>2021-10-13T11:56:29Z</time>
      </trkpt>
      <trkpt lat="40.233626" lon="-5.884058">
        <ele>1276.376</ele>
        <time>2021-10-13T11:56:31Z</time>
      </trkpt>
      <trkpt lat="40.233850" lon="-5.884131">
        <ele>1275.716</ele>
        <time>2021-10-13T11:56:32Z</time>
      </trkpt>
      <trkpt lat="40.234242" lon="-5.884250">
        <ele>1273.819</ele>
        <time>2021-10-13T11:56:34Z</time>
      </trkpt>
      <trkpt lat="40.234592" lon="-5.884384">
        <ele>1272.655</ele>
        <time>2021-10-13T11:56:36Z</time>
      </trkpt>
      <trkpt lat="40.234876" lon="-5.884644">
        <ele>1271.474</ele>
        <time>2021-10-13T11:56:38Z</time>
      </trkpt>
      <trkpt lat="40.235072" lon="-5.884968">
        <ele>1268.799</ele>
        <time>2021-10-13T11:56:40Z</time>
      </trkpt>
      <trkpt lat="40.235153" lon="-5.885089">
        <ele>1267.932</ele>
        <time>2021-10-13T11:56:41Z</time>
      </trkpt>
      <trkpt lat="40.235316" lon="-5.885200">
        <ele>1265.692</ele>
        <time>2021-10-13T11:56:43Z</time>
      </trkpt>
      <trkpt lat="40.235417" lon="-5.885203">
        <ele>1264.311</ele>
        <time>2021-10-13T11:56:44Z</time>
      </trkpt>
      <trkpt lat="40.235674" lon="-5.885159">
        <ele>1263.908</ele>
        <time>2021-10-13T11:56:46Z</time>
      </trkpt>
      <trkpt lat="40.235842" lon="-5.885156">
        <ele>1263.961</ele>
        <time>2021-10-13T11:56:47Z</time>
      </trkpt>
      <trkpt lat="40.236189" lon="-5.885247">
        <ele>1260.329</ele>
        <time>2021-10-13T11:56:49Z</time>
      </trkpt>
      <trkpt lat="40.236355" lon="-5.885307">
        <ele>1258.946</ele>
        <time>2021-10-13T11:56:50Z</time>
      </trkpt>
      <trkpt lat="40.236645" lon="-5.885464">
        <ele>1257.286</ele>
        <time>2021-10-13T11:56:52Z</time>
      </trkpt>
      <trkpt lat="40.236781" lon="-5.885587">
        <ele>1256.399</ele>
        <time>2021-10-13T11:56:53Z</time>
      </trkpt>
      <trkpt lat="40.236991" lon="-5.885943">
        <ele>1253.165</ele>
        <time>2021-10-13T11:56:55Z</time>
      </trkpt>
      <trkpt lat="40.237067" lon="-5.886156">
        <ele>1252.394</ele>
        <time>2021-10-13T11:56:56Z</time>
      </trkpt>
      <trkpt lat="40.237190" lon="-5.886537">
        <ele>1250.119</ele>
        <time>2021-10-13T11:56:58Z</time>
      </trkpt>
      <trkpt lat="40.237400" lon="-5.886863">
        <ele>1246.227</ele>
        <time>2021-10-13T11:57:00Z</time>
      </trkpt>
      <trkpt lat="40.237662" lon="-5.887159">
        <ele>1242.668</ele>
        <time>2021-10-13T11:57:02Z</time>
      </trkpt>
      <trkpt lat="40.237915" lon="-5.887438">
        <ele>1238.714</ele>
        <time>2021-10-13T11:57:04Z</time>
      </trkpt>
      <trkpt lat="40.238078" lon="-5.887812">
        <ele>1234.508</ele>
        <time>2021-10-13T11:57:06Z</time>
      </trkpt>
      <trkpt lat="40.238192" lon="-5.888212">
        <ele>1231.020</ele>
        <time>2021-10-13T11:57:08Z</time>
      </trkpt>
      <trkpt lat="40.238349" lon="-5.888580">
        <ele>1229.148</ele>
        <time>2021-10-13T11:57:10Z</time>
      </trkpt>
      <trkpt lat="40.238456" lon="-5.888744">
        <ele>1228.115</ele>
        <time>2021-10-13T11:57:11Z</time>
      </trkpt>
      <trkpt lat="40.238574" lon="-5.888884">
        <ele>1226.445</ele>
        <time>2021-10-13T11:57:12Z</time>
      </trkpt>
      <trkpt lat="40.238832" lon="-5.889121">
        <ele>1223.368</ele>
        <time>2021-10-13T11:57:14Z</time>
      </trkpt>
      <trkpt lat="40.239124" lon="-5.889307">
        <ele>1221.394</ele>
        <time>2021-10-13T11:57:16Z</time>
      </trkpt>
      <trkpt lat="40.239276" lon="-5.889394">
        <ele>1220.743</ele>
        <time>2021-10-13T11:57:17Z</time>
      </trkpt>
      <trkpt lat="40.239425" lon="-5.889478">
        <ele>1219.848</ele>
        <time>2021-10-13T11:57:18Z</time>
      </trkpt>
      <trkpt lat="40.239727" lon="-5.889612">
        <ele>1217.619</ele>
        <time>2021-10-13T11:57:20Z</time>
      </trkpt>
      <trkpt lat="40.239998" lon="-5.889687">
        <ele>1216.409</ele>
        <time>2021-10-13T11:57:22Z</time>
      </trkpt>
      <trkpt lat="40.240117" lon="-5.889698">
        <ele>1214.919</ele>
        <time>2021-10-13T11:57:23Z</time>
      </trkpt>
      <trkpt lat="40.240304" lon="-5.889613">
        <ele>1213.008</ele>
        <time>2021-10-13T11:57:25Z</time>
      </trkpt>
      <trkpt lat="40.240374" lon="-5.889512">
        <ele>1212.199</ele>
        <time>2021-10-13T11:57:26Z</time>
      </trkpt>
      <trkpt lat="40.240452" lon="-5.889214">
        <ele>1208.867</ele>
        <time>2021-10-13T11:57:28Z</time>
      </trkpt>
      <trkpt lat="40.240515" lon="-5.888810">
        <ele>1205.914</ele>
        <time>2021-10-13T11:57:30Z</time>
      </trkpt>
      <trkpt lat="40.240552" lon="-5.888605">
        <ele>1204.584</ele>
        <time>2021-10-13T11:57:31Z</time>
      </trkpt>
      <trkpt lat="40.240589" lon="-5.888408">
        <ele>1204.177</ele>
        <time>2021-10-13T11:57:32Z</time>
      </trkpt>
      <trkpt lat="40.240623" lon="-5.888051">
        <ele>1202.813</ele>
        <time>2021-10-13T11:57:34Z</time>
      </trkpt>
      <trkpt lat="40.240568" lon="-5.887741">
        <ele>1202.192</ele>
        <time>2021-10-13T11:57:36Z</time>
      </trkpt>
      <trkpt lat="40.240550" lon="-5.887518">
        <ele>1200.997</ele>
        <time>2021-10-13T11:57:38Z</time>
      </trkpt>
      <trkpt lat="40.240632" lon="-5.887430">
        <ele>1200.828</ele>
        <time>2021-10-13T11:57:40Z</time>
      </trkpt>
      <trkpt lat="40.240699" lon="-5.887454">
        <ele>1200.889</ele>
        <time>2021-10-13T11:57:41Z</time>
      </trkpt>
      <trkpt lat="40.240764" lon="-5.887526">
        <ele>1200.817</ele>
        <time>2021-10-13T11:57:42Z</time>
      </trkpt>
      <trkpt lat="40.240820" lon="-5.887635">
        <ele>1200.708</ele>
        <time>2021-10-13T11:57:43Z</time>
      </trkpt>
      <trkpt lat="40.240854" lon="-5.887788">
        <ele>1199.630</ele>
        <time>2021-10-13T11:57:44Z</time>
      </trkpt>
      <trkpt lat="40.240861" lon="-5.888209">
        <ele>1197.848</ele>
        <time>2021-10-13T11:57:46Z</time>
      </trkpt>
      <trkpt lat="40.240863" lon="-5.888707">
        <ele>1194.395</ele>
        <time>2021-10-13T11:57:48Z</time>
      </trkpt>
      <trkpt lat="40.240939" lon="-5.889202">
        <ele>1191.335</ele>
        <time>2021-10-13T11:57:50Z</time>
      </trkpt>
      <trkpt lat="40.241109" lon="-5.889668">
        <ele>1189.058</ele>
        <time>2021-10-13T11:57:52Z</time>
      </trkpt>
      <trkpt lat="40.241290" lon="-5.890102">
        <ele>1187.234</ele>
        <time>2021-10-13T11:57:54Z</time>
      </trkpt>
      <trkpt lat="40.241376" lon="-5.890309">
        <ele>1185.713</ele>
        <time>2021-10-13T11:57:55Z</time>
      </trkpt>
      <trkpt lat="40.241462" lon="-5.890527">
        <ele>1184.428</ele>
        <time>2021-10-13T11:57:56Z</time>
      </trkpt>
      <trkpt lat="40.241613" lon="-5.890943">
        <ele>1181.094</ele>
        <time>2021-10-13T11:57:58Z</time>
      </trkpt>
      <trkpt lat="40.241669" lon="-5.891153">
        <ele>1179.457</ele>
        <time>2021-10-13T11:57:59Z</time>
      </trkpt>
      <trkpt lat="40.241697" lon="-5.891357">
        <ele>1178.122</ele>
        <time>2021-10-13T11:58:00Z</time>
      </trkpt>
      <trkpt lat="40.241666" lon="-5.891749">
        <ele>1174.608</ele>
        <time>2021-10-13T11:58:02Z</time>
      </trkpt>
      <trkpt lat="40.241557" lon="-5.892090">
        <ele>1171.977</ele>
        <time>2021-10-13T11:58:04Z</time>
      </trkpt>
      <trkpt lat="40.241374" lon="-5.892316">
        <ele>1169.435</ele>
        <time>2021-10-13T11:58:06Z</time>
      </trkpt>
      <trkpt lat="40.241122" lon="-5.892384">
        <ele>1168.332</ele>
        <time>2021-10-13T11:58:08Z</time>
      </trkpt>
      <trkpt lat="40.240855" lon="-5.892319">
        <ele>1164.922</ele>
        <time>2021-10-13T11:58:10Z</time>
      </trkpt>
      <trkpt lat="40.240591" lon="-5.892201">
        <ele>1161.865</ele>
        <time>2021-10-13T11:58:12Z</time>
      </trkpt>
      <trkpt lat="40.240464" lon="-5.892136">
        <ele>1161.291</ele>
        <time>2021-10-13T11:58:13Z</time>
      </trkpt>
      <trkpt lat="40.240338" lon="-5.892068">
        <ele>1160.740</ele>
        <time>2021-10-13T11:58:14Z</time>
      </trkpt>
      <trkpt lat="40.240094" lon="-5.891956">
        <ele>1160.115</ele>
        <time>2021-10-13T11:58:16Z</time>
      </trkpt>
      <trkpt lat="40.239972" lon="-5.891900">
        <ele>1159.054</ele>
        <time>2021-10-13T11:58:17Z</time>
      </trkpt>
      <trkpt lat="40.239757" lon="-5.891751">
        <ele>1157.656</ele>
        <time>2021-10-13T11:58:19Z</time>
      </trkpt>
      <trkpt lat="40.239661" lon="-5.891652">
        <ele>1156.611</ele>
        <time>2021-10-13T11:58:20Z</time>
      </trkpt>
      <trkpt lat="40.239491" lon="-5.891457">
        <ele>1156.108</ele>
        <time>2021-10-13T11:58:22Z</time>
      </trkpt>
      <trkpt lat="40.239405" lon="-5.891359">
        <ele>1156.043</ele>
        <time>2021-10-13T11:58:23Z</time>
      </trkpt>
      <trkpt lat="40.239321" lon="-5.891267">
        <ele>1154.611</ele>
        <time>2021-10-13T11:58:24Z</time>
      </trkpt>
      <trkpt lat="40.239239" lon="-5.891178">
        <ele>1153.538</ele>
        <time>2021-10-13T11:58:25Z</time>
      </trkpt>
      <trkpt lat="40.239153" lon="-5.891094">
        <ele>1153.118</ele>
        <time>2021-10-13T11:58:26Z</time>
      </trkpt>
      <trkpt lat="40.238988" lon="-5.890949">
        <ele>1151.431</ele>
        <time>2021-10-13T11:58:28Z</time>
      </trkpt>
      <trkpt lat="40.238844" lon="-5.890839">
        <ele>1150.397</ele>
        <time>2021-10-13T11:58:30Z</time>
      </trkpt>
      <trkpt lat="40.238773" lon="-5.890794">
        <ele>1149.986</ele>
        <time>2021-10-13T11:58:31Z</time>
      </trkpt>
      <trkpt lat="40.238696" lon="-5.890757">
        <ele>1149.211</ele>
        <time>2021-10-13T11:58:32Z</time>
      </trkpt>
      <trkpt lat="40.238515" lon="-5.890692">
        <ele>1149.152</ele>
        <time>2021-10-13T11:58:34Z</time>
      </trkpt>
      <trkpt lat="40.238308" lon="-5.890613">
        <ele>1149.053</ele>
        <time>2021-10-13T11:58:36Z</time>
      </trkpt>
      <trkpt lat="40.238191" lon="-5.890553">
        <ele>1149.008</ele>
        <time>2021-10-13T11:58:37Z</time>
      </trkpt>
      <trkpt lat="40.238059" lon="-5.890473">
        <ele>1148.808</ele>
        <time>2021-10-13T11:58:38Z</time>
      </trkpt>
      <trkpt lat="40.237792" lon="-5.890269">
        <ele>1147.833</ele>
        <time>2021-10-13T11:58:40Z</time>
      </trkpt>
      <trkpt lat="40.237663" lon="-5.890167">
        <ele>1148.051</ele>
        <time>2021-10-13T11:58:41Z</time>
      </trkpt>
      <trkpt lat="40.237535" lon="-5.890080">
        <ele>1147.448</ele>
        <time>2021-10-13T11:58:42Z</time>
      </trkpt>
      <trkpt lat="40.237274" lon="-5.889938">
        <ele>1146.388</ele>
        <time>2021-10-13T11:58:44Z</time>
      </trkpt>
      <trkpt lat="40.237036" lon="-5.889805">
        <ele>1144.191</ele>
        <time>2021-10-13T11:58:46Z</time>
      </trkpt>
      <trkpt lat="40.236931" lon="-5.889705">
        <ele>1144.027</ele>
        <time>2021-10-13T11:58:47Z</time>
      </trkpt>
      <trkpt lat="40.236833" lon="-5.889582">
        <ele>1142.226</ele>
        <time>2021-10-13T11:58:48Z</time>
      </trkpt>
      <trkpt lat="40.236646" lon="-5.889297">
        <ele>1140.541</ele>
        <time>2021-10-13T11:58:50Z</time>
      </trkpt>
      <trkpt lat="40.236481" lon="-5.889051">
        <ele>1138.687</ele>
        <time>2021-10-13T11:58:52Z</time>
      </trkpt>
      <trkpt lat="40.236414" lon="-5.888962">
        <ele>1138.642</ele>
        <time>2021-10-13T11:58:53Z</time>
      </trkpt>
      <trkpt lat="40.236300" lon="-5.888868">
        <ele>1137.626</ele>
        <time>2021-10-13T11:58:55Z</time>
      </trkpt>
      <trkpt lat="40.236242" lon="-5.888870">
        <ele>1136.508</ele>
        <time>2021-10-13T11:58:56Z</time>
      </trkpt>
      <trkpt lat="40.236158" lon="-5.888962">
        <ele>1134.656</ele>
        <time>2021-10-13T11:58:58Z</time>
      </trkpt>
      <trkpt lat="40.236155" lon="-5.889042">
        <ele>1134.344</ele>
        <time>2021-10-13T11:58:59Z</time>
      </trkpt>
      <trkpt lat="40.236184" lon="-5.889130">
        <ele>1133.781</ele>
        <time>2021-10-13T11:59:00Z</time>
      </trkpt>
      <trkpt lat="40.236352" lon="-5.889276">
        <ele>1131.011</ele>
        <time>2021-10-13T11:59:02Z</time>
      </trkpt>
      <trkpt lat="40.236567" lon="-5.889395">
        <ele>1130.384</ele>
        <time>2021-10-13T11:59:04Z</time>
      </trkpt>
      <trkpt lat="40.236739" lon="-5.889631">
        <ele>1129.310</ele>
        <time>2021-10-13T11:59:06Z</time>
      </trkpt>
      <trkpt lat="40.236816" lon="-5.889796">
        <ele>1128.539</ele>
        <time>2021-10-13T11:59:07Z</time>
      </trkpt>
      <trkpt lat="40.236905" lon="-5.889971">
        <ele>1127.954</ele>
        <time>2021-10-13T11:59:08Z</time>
      </trkpt>
      <trkpt lat="40.237138" lon="-5.890293">
        <ele>1125.736</ele>
        <time>2021-10-13T11:59:10Z</time>
      </trkpt>
      <trkpt lat="40.237418" lon="-5.890643">
        <ele>1122.817</ele>
        <time>2021-10-13T11:59:12Z</time>
      </trkpt>
      <trkpt lat="40.237556" lon="-5.890843">
        <ele>1120.718</ele>
        <time>2021-10-13T11:59:13Z</time>
      </trkpt>
      <trkpt lat="40.237695" lon="-5.891058">
        <ele>1119.608</ele>
        <time>2021-10-13T11:59:14Z</time>
      </trkpt>
      <trkpt lat="40.237931" lon="-5.891473">
        <ele>1117.861</ele>
        <time>2021-10-13T11:59:16Z</time>
      </trkpt>
      <trkpt lat="40.238037" lon="-5.891680">
        <ele>1116.869</ele>
        <time>2021-10-13T11:59:17Z</time>
      </trkpt>
      <trkpt lat="40.238215" lon="-5.892074">
        <ele>1114.346</ele>
        <time>2021-10-13T11:59:19Z</time>
      </trkpt>
      <trkpt lat="40.238285" lon="-5.892261">
        <ele>1113.016</ele>
        <time>2021-10-13T11:59:20Z</time>
      </trkpt>
      <trkpt lat="40.238409" lon="-5.892540">
        <ele>1111.319</ele>
        <time>2021-10-13T11:59:22Z</time>
      </trkpt>
      <trkpt lat="40.238496" lon="-5.892647">
        <ele>1111.035</ele>
        <time>2021-10-13T11:59:23Z</time>
      </trkpt>
      <trkpt lat="40.238601" lon="-5.892721">
        <ele>1111.044</ele>
        <time>2021-10-13T11:59:24Z</time>
      </trkpt>
      <trkpt lat="40.238861" lon="-5.892755">
        <ele>1109.799</ele>
        <time>2021-10-13T11:59:26Z</time>
      </trkpt>
      <trkpt lat="40.239119" lon="-5.892796">
        <ele>1108.486</ele>
        <time>2021-10-13T11:59:28Z</time>
      </trkpt>
      <trkpt lat="40.239347" lon="-5.892942">
        <ele>1106.860</ele>
        <time>2021-10-13T11:59:30Z</time>
      </trkpt>
      <trkpt lat="40.239533" lon="-5.893261">
        <ele>1104.226</ele>
        <time>2021-10-13T11:59:32Z</time>
      </trkpt>
      <trkpt lat="40.239710" lon="-5.893657">
        <ele>1101.708</ele>
        <time>2021-10-13T11:59:34Z</time>
      </trkpt>
      <trkpt lat="40.239907" lon="-5.894062">
        <ele>1099.836</ele>
        <time>2021-10-13T11:59:36Z</time>
      </trkpt>
      <trkpt lat="40.239992" lon="-5.894246">
        <ele>1098.444</ele>
        <time>2021-10-13T11:59:37Z</time>
      </trkpt>
      <trkpt lat="40.240119" lon="-5.894531">
        <ele>1095.251</ele>
        <time>2021-10-13T11:59:39Z</time>
      </trkpt>
      <trkpt lat="40.240185" lon="-5.894778">
        <ele>1094.611</ele>
        <time>2021-10-13T11:59:41Z</time>
      </trkpt>
      <trkpt lat="40.240189" lon="-5.894903">
        <ele>1092.344</ele>
        <time>2021-10-13T11:59:42Z</time>
      </trkpt>
      <trkpt lat="40.240168" lon="-5.895033">
        <ele>1091.860</ele>
        <time>2021-10-13T11:59:43Z</time>
      </trkpt>
      <trkpt lat="40.240140" lon="-5.895162">
        <ele>1089.759</ele>
        <time>2021-10-13T11:59:44Z</time>
      </trkpt>
      <trkpt lat="40.240142" lon="-5.895376">
        <ele>1087.464</ele>
        <time>2021-10-13T11:59:46Z</time>
      </trkpt>
      <trkpt lat="40.240188" lon="-5.895447">
        <ele>1086.832</ele>
        <time>2021-10-13T11:59:47Z</time>
      </trkpt>
      <trkpt lat="40.240263" lon="-5.895490">
        <ele>1085.092</ele>
        <time>2021-10-13T11:59:48Z</time>
      </trkpt>
      <trkpt lat="40.240477" lon="-5.895511">
        <ele>1083.111</ele>
        <time>2021-10-13T11:59:50Z</time>
      </trkpt>
      <trkpt lat="40.240773" lon="-5.895529">
        <ele>1080.408</ele>
        <time>2021-10-13T11:59:52Z</time>
      </trkpt>
      <trkpt lat="40.241078" lon="-5.895669">
        <ele>1077.991</ele>
        <time>2021-10-13T11:59:54Z</time>
      </trkpt>
      <trkpt lat="40.241219" lon="-5.895777">
        <ele>1077.369</ele>
        <time>2021-10-13T11:59:55Z</time>
      </trkpt>
      <trkpt lat="40.241348" lon="-5.895898">
        <ele>1076.376</ele>
        <time>2021-10-13T11:59:56Z</time>
      </trkpt>
      <trkpt lat="40.241597" lon="-5.896099">
        <ele>1073.656</ele>
        <time>2021-10-13T11:59:58Z</time>
      </trkpt>
      <trkpt lat="40.241807" lon="-5.896337">
        <ele>1070.559</ele>
        <time>2021-10-13T12:00:00Z</time>
      </trkpt>
      <trkpt lat="40.241922" lon="-5.896636">
        <ele>1069.575</ele>
        <time>2021-10-13T12:00:02Z</time>
      </trkpt>
      <trkpt lat="40.241950" lon="-5.896981">
        <ele>1066.774</ele>
        <time>2021-10-13T12:00:04Z</time>
      </trkpt>
      <trkpt lat="40.241915" lon="-5.897350">
        <ele>1063.819</ele>
        <time>2021-10-13T12:00:06Z</time>
      </trkpt>
      <trkpt lat="40.241840" lon="-5.897733">
        <ele>1060.549</ele>
        <time>2021-10-13T12:00:08Z</time>
      </trkpt>
      <trkpt lat="40.241802" lon="-5.897929">
        <ele>1058.502</ele>
        <time>2021-10-13T12:00:09Z</time>
      </trkpt>
      <trkpt lat="40.241767" lon="-5.898121">
        <ele>1056.822</ele>
        <time>2021-10-13T12:00:10Z</time>
      </trkpt>
      <trkpt lat="40.241735" lon="-5.898308">
        <ele>1055.608</ele>
        <time>2021-10-13T12:00:11Z</time>
      </trkpt>
      <trkpt lat="40.241709" lon="-5.898653">
        <ele>1053.062</ele>
        <time>2021-10-13T12:00:13Z</time>
      </trkpt>
      <trkpt lat="40.241782" lon="-5.898916">
        <ele>1050.110</ele>
        <time>2021-10-13T12:00:15Z</time>
      </trkpt>
      <trkpt lat="40.241940" lon="-5.899088">
        <ele>1049.287</ele>
        <time>2021-10-13T12:00:17Z</time>
      </trkpt>
      <trkpt lat="40.242051" lon="-5.899232">
        <ele>1047.437</ele>
        <time>2021-10-13T12:00:19Z</time>
      </trkpt>
      <trkpt lat="40.242047" lon="-5.899377">
        <ele>1045.790</ele>
        <time>2021-10-13T12:00:21Z</time>
      </trkpt>
      <trkpt lat="40.242006" lon="-5.899411">
        <ele>1044.536</ele>
        <time>2021-10-13T12:00:22Z</time>
      </trkpt>
      <trkpt lat="40.241947" lon="-5.899393">
        <ele>1043.445</ele>
        <time>2021-10-13T12:00:23Z</time>
      </trkpt>
      <trkpt lat="40.241769" lon="-5.899225">
        <ele>1042.410</ele>
        <time>2021-10-13T12:00:25Z</time>
      </trkpt>
      <trkpt lat="40.241671" lon="-5.899028">
        <ele>1042.269</ele>
        <time>2021-10-13T12:00:26Z</time>
      </trkpt>
      <trkpt lat="40.241557" lon="-5.898587">
        <ele>1041.804</ele>
        <time>2021-10-13T12:00:28Z</time>
      </trkpt>
      <trkpt lat="40.241551" lon="-5.898148">
        <ele>1042.224</ele>
        <time>2021-10-13T12:00:30Z</time>
      </trkpt>
      <trkpt lat="40.241562" lon="-5.897958">
        <ele>1041.808</ele>
        <time>2021-10-13T12:00:31Z</time>
      </trkpt>
      <trkpt lat="40.241575" lon="-5.897779">
        <ele>1041.534</ele>
        <time>2021-10-13T12:00:32Z</time>
      </trkpt>
      <trkpt lat="40.241593" lon="-5.897509">
        <ele>1040.712</ele>
        <time>2021-10-13T12:00:34Z</time>
      </trkpt>
      <trkpt lat="40.241550" lon="-5.897318">
        <ele>1039.849</ele>
        <time>2021-10-13T12:00:36Z</time>
      </trkpt>
      <trkpt lat="40.241500" lon="-5.897269">
        <ele>1039.659</ele>
        <time>2021-10-13T12:00:37Z</time>
      </trkpt>
      <trkpt lat="40.241373" lon="-5.897283">
        <ele>1038.332</ele>
        <time>2021-10-13T12:00:39Z</time>
      </trkpt>
      <trkpt lat="40.241318" lon="-5.897489">
        <ele>1037.478</ele>
        <time>2021-10-13T12:00:41Z</time>
      </trkpt>
      <trkpt lat="40.241331" lon="-5.897691">
        <ele>1037.467</ele>
        <time>2021-10-13T12:00:42Z</time>
      </trkpt>
      <trkpt lat="40.241341" lon="-5.898185">
        <ele>1036.352</ele>
        <time>2021-10-13T12:00:44Z</time>
      </trkpt>
      <trkpt lat="40.241281" lon="-5.898678">
        <ele>1035.853</ele>
        <time>2021-10-13T12:00:46Z</time>
      </trkpt>
      <trkpt lat="40.241294" lon="-5.899129">
        <ele>1034.404</ele>
        <time>2021-10-13T12:00:48Z</time>
      </trkpt>
      <trkpt lat="40.241331" lon="-5.899334">
        <ele>1033.614</ele>
        <time>2021-10-13T12:00:49Z</time>
      </trkpt>
      <trkpt lat="40.241384" lon="-5.899531">
        <ele>1032.608</ele>
        <time>2021-10-13T12:00:50Z</time>
      </trkpt>
      <trkpt lat="40.241522" lon="-5.899894">
        <ele>1032.023</ele>
        <time>2021-10-13T12:00:52Z</time>
      </trkpt>
      <trkpt lat="40.241687" lon="-5.900139">
        <ele>1029.371</ele>
        <time>2021-10-13T12:00:54Z</time>
      </trkpt>
      <trkpt lat="40.241895" lon="-5.900229">
        <ele>1028.138</ele>
        <time>2021-10-13T12:00:56Z</time>
      </trkpt>
      <trkpt lat="40.242163" lon="-5.900239">
        <ele>1027.338</ele>
        <time>2021-10-13T12:00:58Z</time>
      </trkpt>
      <trkpt lat="40.242481" lon="-5.900268">
        <ele>1025.451</ele>
        <time>2021-10-13T12:01:00Z</time>
      </trkpt>
      <trkpt lat="40.242648" lon="-5.900284">
        <ele>1025.047</ele>
        <time>2021-10-13T12:01:01Z</time>
      </trkpt>
      <trkpt lat="40.242813" lon="-5.900285">
        <ele>1024.666</ele>
        <time>2021-10-13T12:01:02Z</time>
      </trkpt>
      <trkpt lat="40.243096" lon="-5.900212">
        <ele>1023.731</ele>
        <time>2021-10-13T12:01:04Z</time>
      </trkpt>
      <trkpt lat="40.243320" lon="-5.900009">
        <ele>1021.442</ele>
        <time>2021-10-13T12:01:06Z</time>
      </trkpt>
      <trkpt lat="40.243409" lon="-5.899876">
        <ele>1020.422</ele>
        <time>2021-10-13T12:01:07Z</time>
      </trkpt>
      <trkpt lat="40.243498" lon="-5.899737">
        <ele>1019.314</ele>
        <time>2021-10-13T12:01:08Z</time>
      </trkpt>
      <trkpt lat="40.243676" lon="-5.899436">
        <ele>1017.908</ele>
        <time>2021-10-13T12:01:10Z</time>
      </trkpt>
      <trkpt lat="40.243834" lon="-5.899096">
        <ele>1014.812</ele>
        <time>2021-10-13T12:01:12Z</time>
      </trkpt>
      <trkpt lat="40.243904" lon="-5.898917">
        <ele>1013.870</ele>
        <time>2021-10-13T12:01:13Z</time>
      </trkpt>
      <trkpt lat="40.243972" lon="-5.898741">
        <ele>1012.877</ele>
        <time>2021-10-13T12:01:14Z</time>
      </trkpt>
      <trkpt lat="40.244066" lon="-5.898403">
        <ele>1011.847</ele>
        <time>2021-10-13T12:01:16Z</time>
      </trkpt>
      <trkpt lat="40.244098" lon="-5.898239">
        <ele>1011.240</ele>
        <time>2021-10-13T12:01:17Z</time>
      </trkpt>
      <trkpt lat="40.244145" lon="-5.897902">
        <ele>1010.166</ele>
        <time>2021-10-13T12:01:19Z</time>
      </trkpt>
      <trkpt lat="40.244168" lon="-5.897717">
        <ele>1009.685</ele>
        <time>2021-10-13T12:01:20Z</time>
      </trkpt>
      <trkpt lat="40.244207" lon="-5.897328">
        <ele>1009.010</ele>
        <time>2021-10-13T12:01:22Z</time>
      </trkpt>
      <trkpt lat="40.244245" lon="-5.896915">
        <ele>1008.671</ele>
        <time>2021-10-13T12:01:24Z</time>
      </trkpt>
      <trkpt lat="40.244266" lon="-5.896715">
        <ele>1009.141</ele>
        <time>2021-10-13T12:01:25Z</time>
      </trkpt>
      <trkpt lat="40.244288" lon="-5.896520">
        <ele>1009.015</ele>
        <time>2021-10-13T12:01:26Z</time>
      </trkpt>
      <trkpt lat="40.244332" lon="-5.896156">
        <ele>1009.908</ele>
        <time>2021-10-13T12:01:28Z</time>
      </trkpt>
      <trkpt lat="40.244378" lon="-5.895782">
        <ele>1011.335</ele>
        <time>2021-10-13T12:01:30Z</time>
      </trkpt>
      <trkpt lat="40.244442" lon="-5.895428">
        <ele>1011.583</ele>
        <time>2021-10-13T12:01:32Z</time>
      </trkpt>
      <trkpt lat="40.244547" lon="-5.895110">
        <ele>1011.360</ele>
        <time>2021-10-13T12:01:34Z</time>
      </trkpt>
      <trkpt lat="40.244603" lon="-5.894953">
        <ele>1011.010</ele>
        <time>2021-10-13T12:01:35Z</time>
      </trkpt>
      <trkpt lat="40.244666" lon="-5.894795">
        <ele>1010.123</ele>
        <time>2021-10-13T12:01:36Z</time>
      </trkpt>
      <trkpt lat="40.244790" lon="-5.894477">
        <ele>1009.759</ele>
        <time>2021-10-13T12:01:38Z</time>
      </trkpt>
      <trkpt lat="40.244898" lon="-5.894147">
        <ele>1008.358</ele>
        <time>2021-10-13T12:01:40Z</time>
      </trkpt>
      <trkpt lat="40.244985" lon="-5.893851">
        <ele>1008.133</ele>
        <time>2021-10-13T12:01:42Z</time>
      </trkpt>
      <trkpt lat="40.245039" lon="-5.893730">
        <ele>1008.141</ele>
        <time>2021-10-13T12:01:43Z</time>
      </trkpt>
      <trkpt lat="40.245206" lon="-5.893548">
        <ele>1007.181</ele>
        <time>2021-10-13T12:01:45Z</time>
      </trkpt>
      <trkpt lat="40.245389" lon="-5.893370">
        <ele>1005.709</ele>
        <time>2021-10-13T12:01:47Z</time>
      </trkpt>
      <trkpt lat="40.245475" lon="-5.893259">
        <ele>1004.808</ele>
        <time>2021-10-13T12:01:48Z</time>
      </trkpt>
      <trkpt lat="40.245630" lon="-5.893028">
        <ele>1004.282</ele>
        <time>2021-10-13T12:01:50Z</time>
      </trkpt>
      <trkpt lat="40.245711" lon="-5.892916">
        <ele>1002.870</ele>
        <time>2021-10-13T12:01:51Z</time>
      </trkpt>
      <trkpt lat="40.245906" lon="-5.892696">
        <ele>1000.787</ele>
        <time>2021-10-13T12:01:53Z</time>
      </trkpt>
      <trkpt lat="40.246122" lon="-5.892448">
        <ele>998.627</ele>
        <time>2021-10-13T12:01:55Z</time>
      </trkpt>
      <trkpt lat="40.246239" lon="-5.892316">
        <ele>997.850</ele>
        <time>2021-10-13T12:01:56Z</time>
      </trkpt>
      <trkpt lat="40.246452" lon="-5.892065">
        <ele>995.246</ele>
        <time>2021-10-13T12:01:58Z</time>
      </trkpt>
      <trkpt lat="40.246553" lon="-5.891932">
        <ele>994.515</ele>
        <time>2021-10-13T12:01:59Z</time>
      </trkpt>
      <trkpt lat="40.246723" lon="-5.891648">
        <ele>991.690</ele>
        <time>2021-10-13T12:02:01Z</time>
      </trkpt>
      <trkpt lat="40.246792" lon="-5.891491">
        <ele>991.537</ele>
        <time>2021-10-13T12:02:02Z</time>
      </trkpt>
      <trkpt lat="40.246884" lon="-5.891171">
        <ele>988.549</ele>
        <time>2021-10-13T12:02:04Z</time>
      </trkpt>
      <trkpt lat="40.246910" lon="-5.891002">
        <ele>989.213</ele>
        <time>2021-10-13T12:02:05Z</time>
      </trkpt>
      <trkpt lat="40.246945" lon="-5.890677">
        <ele>988.308</ele>
        <time>2021-10-13T12:02:07Z</time>
      </trkpt>
      <trkpt lat="40.246982" lon="-5.890522">
        <ele>988.321</ele>
        <time>2021-10-13T12:02:08Z</time>
      </trkpt>
      <trkpt lat="40.247030" lon="-5.890372">
        <ele>988.339</ele>
        <time>2021-10-13T12:02:09Z</time>
      </trkpt>
      <trkpt lat="40.247131" lon="-5.890092">
        <ele>987.416</ele>
        <time>2021-10-13T12:02:11Z</time>
      </trkpt>
      <trkpt lat="40.247248" lon="-5.889790">
        <ele>985.596</ele>
        <time>2021-10-13T12:02:13Z</time>
      </trkpt>
      <trkpt lat="40.247408" lon="-5.889487">
        <ele>983.229</ele>
        <time>2021-10-13T12:02:15Z</time>
      </trkpt>
      <trkpt lat="40.247594" lon="-5.889196">
        <ele>980.775</ele>
        <time>2021-10-13T12:02:17Z</time>
      </trkpt>
      <trkpt lat="40.247764" lon="-5.888901">
        <ele>978.334</ele>
        <time>2021-10-13T12:02:19Z</time>
      </trkpt>
      <trkpt lat="40.247833" lon="-5.888746">
        <ele>977.539</ele>
        <time>2021-10-13T12:02:20Z</time>
      </trkpt>
      <trkpt lat="40.247950" lon="-5.888423">
        <ele>973.492</ele>
        <time>2021-10-13T12:02:22Z</time>
      </trkpt>
      <trkpt lat="40.248053" lon="-5.888094">
        <ele>970.473</ele>
        <time>2021-10-13T12:02:24Z</time>
      </trkpt>
      <trkpt lat="40.248101" lon="-5.887932">
        <ele>969.220</ele>
        <time>2021-10-13T12:02:25Z</time>
      </trkpt>
      <trkpt lat="40.248146" lon="-5.887768">
        <ele>968.008</ele>
        <time>2021-10-13T12:02:26Z</time>
      </trkpt>
      <trkpt lat="40.248201" lon="-5.887425">
        <ele>966.227</ele>
        <time>2021-10-13T12:02:28Z</time>
      </trkpt>
      <trkpt lat="40.248209" lon="-5.887240">
        <ele>964.025</ele>
        <time>2021-10-13T12:02:29Z</time>
      </trkpt>
      <trkpt lat="40.248177" lon="-5.886873">
        <ele>959.332</ele>
        <time>2021-10-13T12:02:31Z</time>
      </trkpt>
      <trkpt lat="40.248142" lon="-5.886691">
        <ele>956.512</ele>
        <time>2021-10-13T12:02:32Z</time>
      </trkpt>
      <trkpt lat="40.248049" lon="-5.886370">
        <ele>951.745</ele>
        <time>2021-10-13T12:02:34Z</time>
      </trkpt>
      <trkpt lat="40.247912" lon="-5.886131">
        <ele>948.691</ele>
        <time>2021-10-13T12:02:36Z</time>
      </trkpt>
      <trkpt lat="40.247821" lon="-5.886050">
        <ele>947.080</ele>
        <time>2021-10-13T12:02:37Z</time>
      </trkpt>
      <trkpt lat="40.247615" lon="-5.885954">
        <ele>943.825</ele>
        <time>2021-10-13T12:02:39Z</time>
      </trkpt>
      <trkpt lat="40.247499" lon="-5.885959">
        <ele>942.252</ele>
        <time>2021-10-13T12:02:40Z</time>
      </trkpt>
      <trkpt lat="40.247377" lon="-5.885976">
        <ele>940.453</ele>
        <time>2021-10-13T12:02:41Z</time>
      </trkpt>
      <trkpt lat="40.247135" lon="-5.885957">
        <ele>937.508</ele>
        <time>2021-10-13T12:02:43Z</time>
      </trkpt>
      <trkpt lat="40.246913" lon="-5.885845">
        <ele>936.708</ele>
        <time>2021-10-13T12:02:45Z</time>
      </trkpt>
      <trkpt lat="40.246719" lon="-5.885676">
        <ele>933.633</ele>
        <time>2021-10-13T12:02:47Z</time>
      </trkpt>
      <trkpt lat="40.246647" lon="-5.885573">
        <ele>933.321</ele>
        <time>2021-10-13T12:02:48Z</time>
      </trkpt>
      <trkpt lat="40.246602" lon="-5.885450">
        <ele>933.378</ele>
        <time>2021-10-13T12:02:49Z</time>
      </trkpt>
      <trkpt lat="40.246601" lon="-5.885084">
        <ele>932.728</ele>
        <time>2021-10-13T12:02:51Z</time>
      </trkpt>
      <trkpt lat="40.246643" lon="-5.884842">
        <ele>932.091</ele>
        <time>2021-10-13T12:02:52Z</time>
      </trkpt>
      <trkpt lat="40.246688" lon="-5.884592">
        <ele>931.057</ele>
        <time>2021-10-13T12:02:53Z</time>
      </trkpt>
      <trkpt lat="40.246749" lon="-5.884131">
        <ele>929.576</ele>
        <time>2021-10-13T12:02:55Z</time>
      </trkpt>
      <trkpt lat="40.246768" lon="-5.883921">
        <ele>929.791</ele>
        <time>2021-10-13T12:02:56Z</time>
      </trkpt>
      <trkpt lat="40.246779" lon="-5.883552">
        <ele>929.357</ele>
        <time>2021-10-13T12:02:58Z</time>
      </trkpt>
      <trkpt lat="40.246737" lon="-5.883210">
        <ele>927.700</ele>
        <time>2021-10-13T12:03:00Z</time>
      </trkpt>
      <trkpt lat="40.246646" lon="-5.882926">
        <ele>925.720</ele>
        <time>2021-10-13T12:03:02Z</time>
      </trkpt>
      <trkpt lat="40.246491" lon="-5.882784">
        <ele>925.008</ele>
        <time>2021-10-13T12:03:04Z</time>
      </trkpt>
      <trkpt lat="40.246388" lon="-5.882767">
        <ele>924.353</ele>
        <time>2021-10-13T12:03:05Z</time>
      </trkpt>
      <trkpt lat="40.246278" lon="-5.882778">
        <ele>924.371</ele>
        <time>2021-10-13T12:03:06Z</time>
      </trkpt>
      <trkpt lat="40.246070" lon="-5.882808">
        <ele>923.738</ele>
        <time>2021-10-13T12:03:08Z</time>
      </trkpt>
      <trkpt lat="40.245912" lon="-5.882775">
        <ele>921.998</ele>
        <time>2021-10-13T12:03:10Z</time>
      </trkpt>
      <trkpt lat="40.245849" lon="-5.882721">
        <ele>922.221</ele>
        <time>2021-10-13T12:03:11Z</time>
      </trkpt>
      <trkpt lat="40.245781" lon="-5.882555">
        <ele>922.067</ele>
        <time>2021-10-13T12:03:13Z</time>
      </trkpt>
      <trkpt lat="40.245891" lon="-5.882350">
        <ele>922.476</ele>
        <time>2021-10-13T12:03:15Z</time>
      </trkpt>
      <trkpt lat="40.246016" lon="-5.882227">
        <ele>922.711</ele>
        <time>2021-10-13T12:03:16Z</time>
      </trkpt>
      <trkpt lat="40.246167" lon="-5.882079">
        <ele>922.274</ele>
        <time>2021-10-13T12:03:17Z</time>
      </trkpt>
      <trkpt lat="40.246435" lon="-5.881720">
        <ele>920.256</ele>
        <time>2021-10-13T12:03:19Z</time>
      </trkpt>
      <trkpt lat="40.246583" lon="-5.881366">
        <ele>919.921</ele>
        <time>2021-10-13T12:03:21Z</time>
      </trkpt>
      <trkpt lat="40.246631" lon="-5.880979">
        <ele>917.608</ele>
        <time>2021-10-13T12:03:23Z</time>
      </trkpt>
      <trkpt lat="40.246625" lon="-5.880547">
        <ele>917.415</ele>
        <time>2021-10-13T12:03:25Z</time>
      </trkpt>
      <trkpt lat="40.246618" lon="-5.880327">
        <ele>916.933</ele>
        <time>2021-10-13T12:03:26Z</time>
      </trkpt>
      <trkpt lat="40.246609" lon="-5.879932">
        <ele>915.040</ele>
        <time>2021-10-13T12:03:28Z</time>
      </trkpt>
      <trkpt lat="40.246651" lon="-5.879568">
        <ele>913.050</ele>
        <time>2021-10-13T12:03:30Z</time>
      </trkpt>
      <trkpt lat="40.246705" lon="-5.879407">
        <ele>912.693</ele>
        <time>2021-10-13T12:03:31Z</time>
      </trkpt>
      <trkpt lat="40.246773" lon="-5.879259">
        <ele>912.189</ele>
        <time>2021-10-13T12:03:32Z</time>
      </trkpt>
      <trkpt lat="40.246925" lon="-5.879018">
        <ele>911.438</ele>
        <time>2021-10-13T12:03:34Z</time>
      </trkpt>
      <trkpt lat="40.247117" lon="-5.878882">
        <ele>909.273</ele>
        <time>2021-10-13T12:03:36Z</time>
      </trkpt>
      <trkpt lat="40.247234" lon="-5.878888">
        <ele>909.152</ele>
        <time>2021-10-13T12:03:37Z</time>
      </trkpt>
      <trkpt lat="40.247493" lon="-5.879033">
        <ele>907.253</ele>
        <time>2021-10-13T12:03:39Z</time>
      </trkpt>
      <trkpt lat="40.247627" lon="-5.879130">
        <ele>905.908</ele>
        <time>2021-10-13T12:03:40Z</time>
      </trkpt>
      <trkpt lat="40.247891" lon="-5.879362">
        <ele>903.508</ele>
        <time>2021-10-13T12:03:42Z</time>
      </trkpt>
      <trkpt lat="40.248125" lon="-5.879645">
        <ele>901.473</ele>
        <time>2021-10-13T12:03:44Z</time>
      </trkpt>
      <trkpt lat="40.248357" lon="-5.879940">
        <ele>899.471</ele>
        <time>2021-10-13T12:03:46Z</time>
      </trkpt>
      <trkpt lat="40.248599" lon="-5.880216">
        <ele>897.498</ele>
        <time>2021-10-13T12:03:48Z</time>
      </trkpt>
      <trkpt lat="40.248714" lon="-5.880350">
        <ele>896.658</ele>
        <time>2021-10-13T12:03:49Z</time>
      </trkpt>
      <trkpt lat="40.248949" lon="-5.880596">
        <ele>893.891</ele>
        <time>2021-10-13T12:03:51Z</time>
      </trkpt>
      <trkpt lat="40.249196" lon="-5.880793">
        <ele>893.457</ele>
        <time>2021-10-13T12:03:53Z</time>
      </trkpt>
      <trkpt lat="40.249473" lon="-5.880912">
        <ele>892.086</ele>
        <time>2021-10-13T12:03:55Z</time>
      </trkpt>
      <trkpt lat="40.249619" lon="-5.880961">
        <ele>890.191</ele>
        <time>2021-10-13T12:03:56Z</time>
      </trkpt>
      <trkpt lat="40.249892" lon="-5.881057">
        <ele>889.661</ele>
        <time>2021-10-13T12:03:58Z</time>
      </trkpt>
      <trkpt lat="40.250022" lon="-5.881129">
        <ele>889.021</ele>
        <time>2021-10-13T12:03:59Z</time>
      </trkpt>
      <trkpt lat="40.250252" lon="-5.881334">
        <ele>886.513</ele>
        <time>2021-10-13T12:04:01Z</time>
      </trkpt>
      <trkpt lat="40.250352" lon="-5.881465">
        <ele>884.308</ele>
        <time>2021-10-13T12:04:02Z</time>
      </trkpt>
      <trkpt lat="40.250575" lon="-5.881646">
        <ele>881.184</ele>
        <time>2021-10-13T12:04:04Z</time>
      </trkpt>
      <trkpt lat="40.250858" lon="-5.881703">
        <ele>876.142</ele>
        <time>2021-10-13T12:04:06Z</time>
      </trkpt>
      <trkpt lat="40.251155" lon="-5.881626">
        <ele>873.359</ele>
        <time>2021-10-13T12:04:08Z</time>
      </trkpt>
      <trkpt lat="40.251302" lon="-5.881545">
        <ele>871.419</ele>
        <time>2021-10-13T12:04:09Z</time>
      </trkpt>
      <trkpt lat="40.251461" lon="-5.881451">
        <ele>868.922</ele>
        <time>2021-10-13T12:04:10Z</time>
      </trkpt>
      <trkpt lat="40.251625" lon="-5.881359">
        <ele>867.738</ele>
        <time>2021-10-13T12:04:11Z</time>
      </trkpt>
      <trkpt lat="40.251788" lon="-5.881268">
        <ele>866.937</ele>
        <time>2021-10-13T12:04:12Z</time>
      </trkpt>
      <trkpt lat="40.252097" lon="-5.881099">
        <ele>863.552</ele>
        <time>2021-10-13T12:04:14Z</time>
      </trkpt>
      <trkpt lat="40.252246" lon="-5.881023">
        <ele>861.755</ele>
        <time>2021-10-13T12:04:15Z</time>
      </trkpt>
      <trkpt lat="40.252537" lon="-5.880875">
        <ele>858.207</ele>
        <time>2021-10-13T12:04:17Z</time>
      </trkpt>
      <trkpt lat="40.252817" lon="-5.880739">
        <ele>855.217</ele>
        <time>2021-10-13T12:04:19Z</time>
      </trkpt>
      <trkpt lat="40.253050" lon="-5.880621">
        <ele>852.008</ele>
        <time>2021-10-13T12:04:21Z</time>
      </trkpt>
      <trkpt lat="40.253218" lon="-5.880450">
        <ele>850.433</ele>
        <time>2021-10-13T12:04:23Z</time>
      </trkpt>
      <trkpt lat="40.253267" lon="-5.880347">
        <ele>848.891</ele>
        <time>2021-10-13T12:04:24Z</time>
      </trkpt>
      <trkpt lat="40.253272" lon="-5.880220">
        <ele>848.168</ele>
        <time>2021-10-13T12:04:25Z</time>
      </trkpt>
      <trkpt lat="40.253228" lon="-5.880058">
        <ele>847.168</ele>
        <time>2021-10-13T12:04:26Z</time>
      </trkpt>
      <trkpt lat="40.253033" lon="-5.879698">
        <ele>843.721</ele>
        <time>2021-10-13T12:04:28Z</time>
      </trkpt>
      <trkpt lat="40.252845" lon="-5.879365">
        <ele>841.457</ele>
        <time>2021-10-13T12:04:30Z</time>
      </trkpt>
      <trkpt lat="40.252773" lon="-5.879095">
        <ele>840.516</ele>
        <time>2021-10-13T12:04:32Z</time>
      </trkpt>
      <trkpt lat="40.252805" lon="-5.878865">
        <ele>837.441</ele>
        <time>2021-10-13T12:04:34Z</time>
      </trkpt>
      <trkpt lat="40.252855" lon="-5.878769">
        <ele>837.094</ele>
        <time>2021-10-13T12:04:35Z</time>
      </trkpt>
      <trkpt lat="40.253039" lon="-5.878674">
        <ele>834.257</ele>
        <time>2021-10-13T12:04:37Z</time>
      </trkpt>
      <trkpt lat="40.253171" lon="-5.878673">
        <ele>833.522</ele>
        <time>2021-10-13T12:04:38Z</time>
      </trkpt>
      <trkpt lat="40.253508" lon="-5.878739">
        <ele>830.708</ele>
        <time>2021-10-13T12:04:40Z</time>
      </trkpt>
      <trkpt lat="40.253823" lon="-5.878765">
        <ele>829.197</ele>
        <time>2021-10-13T12:04:42Z</time>
      </trkpt>
      <trkpt lat="40.253960" lon="-5.878749">
        <ele>828.335</ele>
        <time>2021-10-13T12:04:43Z</time>
      </trkpt>
      <trkpt lat="40.254085" lon="-5.878715">
        <ele>827.682</ele>
        <time>2021-10-13T12:04:44Z</time>
      </trkpt>
      <trkpt lat="40.254323" lon="-5.878662">
        <ele>827.032</ele>
        <time>2021-10-13T12:04:46Z</time>
      </trkpt>
      <trkpt lat="40.254438" lon="-5.878653">
        <ele>826.645</ele>
        <time>2021-10-13T12:04:47Z</time>
      </trkpt>
      <trkpt lat="40.254636" lon="-5.878670">
        <ele>825.791</ele>
        <time>2021-10-13T12:04:49Z</time>
      </trkpt>
      <trkpt lat="40.254746" lon="-5.878856">
        <ele>825.080</ele>
        <time>2021-10-13T12:04:51Z</time>
      </trkpt>
      <trkpt lat="40.254755" lon="-5.879215">
        <ele>824.325</ele>
        <time>2021-10-13T12:04:53Z</time>
      </trkpt>
      <trkpt lat="40.254776" lon="-5.879403">
        <ele>824.274</ele>
        <time>2021-10-13T12:04:54Z</time>
      </trkpt>
      <trkpt lat="40.254902" lon="-5.879690">
        <ele>823.656</ele>
        <time>2021-10-13T12:04:56Z</time>
      </trkpt>
      <trkpt lat="40.255113" lon="-5.879847">
        <ele>824.821</ele>
        <time>2021-10-13T12:04:58Z</time>
      </trkpt>
      <trkpt lat="40.255241" lon="-5.879914">
        <ele>824.808</ele>
        <time>2021-10-13T12:04:59Z</time>
      </trkpt>
      <trkpt lat="40.255495" lon="-5.880084">
        <ele>823.365</ele>
        <time>2021-10-13T12:05:01Z</time>
      </trkpt>
      <trkpt lat="40.255604" lon="-5.880191">
        <ele>822.693</ele>
        <time>2021-10-13T12:05:02Z</time>
      </trkpt>
      <trkpt lat="40.255776" lon="-5.880382">
        <ele>821.120</ele>
        <time>2021-10-13T12:05:04Z</time>
      </trkpt>
      <trkpt lat="40.255857" lon="-5.880432">
        <ele>820.740</ele>
        <time>2021-10-13T12:05:05Z</time>
      </trkpt>
      <trkpt lat="40.256006" lon="-5.880420">
        <ele>818.863</ele>
        <time>2021-10-13T12:05:07Z</time>
      </trkpt>
      <trkpt lat="40.256061" lon="-5.880336">
        <ele>818.699</ele>
        <time>2021-10-13T12:05:08Z</time>
      </trkpt>
      <trkpt lat="40.256106" lon="-5.880205">
        <ele>818.158</ele>
        <time>2021-10-13T12:05:09Z</time>
      </trkpt>
      <trkpt lat="40.256159" lon="-5.880041">
        <ele>817.573</ele>
        <time>2021-10-13T12:05:10Z</time>
      </trkpt>
      <trkpt lat="40.256316" lon="-5.879752">
        <ele>816.735</ele>
        <time>2021-10-13T12:05:12Z</time>
      </trkpt>
      <trkpt lat="40.256425" lon="-5.879650">
        <ele>816.586</ele>
        <time>2021-10-13T12:05:13Z</time>
      </trkpt>
      <trkpt lat="40.256698" lon="-5.879482">
        <ele>816.114</ele>
        <time>2021-10-13T12:05:15Z</time>
      </trkpt>
      <trkpt lat="40.256838" lon="-5.879399">
        <ele>815.608</ele>
        <time>2021-10-13T12:05:16Z</time>
      </trkpt>
      <trkpt lat="40.257095" lon="-5.879247">
        <ele>815.181</ele>
        <time>2021-10-13T12:05:18Z</time>
      </trkpt>
      <trkpt lat="40.257293" lon="-5.879034">
        <ele>814.339</ele>
        <time>2021-10-13T12:05:20Z</time>
      </trkpt>
      <trkpt lat="40.257448" lon="-5.878748">
        <ele>812.656</ele>
        <time>2021-10-13T12:05:22Z</time>
      </trkpt>
      <trkpt lat="40.257524" lon="-5.878424">
        <ele>811.286</ele>
        <time>2021-10-13T12:05:24Z</time>
      </trkpt>
      <trkpt lat="40.257532" lon="-5.878258">
        <ele>809.849</ele>
        <time>2021-10-13T12:05:25Z</time>
      </trkpt>
      <trkpt lat="40.257530" lon="-5.878081">
        <ele>808.345</ele>
        <time>2021-10-13T12:05:26Z</time>
      </trkpt>
      <trkpt lat="40.257520" lon="-5.877754">
        <ele>807.164</ele>
        <time>2021-10-13T12:05:28Z</time>
      </trkpt>
      <trkpt lat="40.257552" lon="-5.877422">
        <ele>804.989</ele>
        <time>2021-10-13T12:05:30Z</time>
      </trkpt>
      <trkpt lat="40.257672" lon="-5.877077">
        <ele>802.822</ele>
        <time>2021-10-13T12:05:32Z</time>
      </trkpt>
      <trkpt lat="40.257850" lon="-5.876744">
        <ele>801.362</ele>
        <time>2021-10-13T12:05:34Z</time>
      </trkpt>
      <trkpt lat="40.257943" lon="-5.876574">
        <ele>801.008</ele>
        <time>2021-10-13T12:05:35Z</time>
      </trkpt>
      <trkpt lat="40.258030" lon="-5.876403">
        <ele>800.408</ele>
        <time>2021-10-13T12:05:36Z</time>
      </trkpt>
      <trkpt lat="40.258171" lon="-5.876059">
        <ele>798.650</ele>
        <time>2021-10-13T12:05:38Z</time>
      </trkpt>
      <trkpt lat="40.258224" lon="-5.875886">
        <ele>797.898</ele>
        <time>2021-10-13T12:05:39Z</time>
      </trkpt>
      <trkpt lat="40.258270" lon="-5.875718">
        <ele>796.885</ele>
        <time>2021-10-13T12:05:40Z</time>
      </trkpt>
      <trkpt lat="40.258304" lon="-5.875541">
        <ele>795.795</ele>
        <time>2021-10-13T12:05:41Z</time>
      </trkpt>
      <trkpt lat="40.258319" lon="-5.875168">
        <ele>793.588</ele>
        <time>2021-10-13T12:05:43Z</time>
      </trkpt>
      <trkpt lat="40.258298" lon="-5.874984">
        <ele>793.334</ele>
        <time>2021-10-13T12:05:44Z</time>
      </trkpt>
      <trkpt lat="40.258243" lon="-5.874642">
        <ele>791.193</ele>
        <time>2021-10-13T12:05:46Z</time>
      </trkpt>
      <trkpt lat="40.258257" lon="-5.874306">
        <ele>790.278</ele>
        <time>2021-10-13T12:05:48Z</time>
      </trkpt>
      <trkpt lat="40.258294" lon="-5.874118">
        <ele>789.145</ele>
        <time>2021-10-13T12:05:49Z</time>
      </trkpt>
      <trkpt lat="40.258341" lon="-5.873920">
        <ele>788.847</ele>
        <time>2021-10-13T12:05:50Z</time>
      </trkpt>
      <trkpt lat="40.258438" lon="-5.873547">
        <ele>787.911</ele>
        <time>2021-10-13T12:05:52Z</time>
      </trkpt>
      <trkpt lat="40.258490" lon="-5.873379">
        <ele>788.408</ele>
        <time>2021-10-13T12:05:53Z</time>
      </trkpt>
      <trkpt lat="40.258615" lon="-5.873094">
        <ele>788.682</ele>
        <time>2021-10-13T12:05:55Z</time>
      </trkpt>
      <trkpt lat="40.258696" lon="-5.872974">
        <ele>788.010</ele>
        <time>2021-10-13T12:05:56Z</time>
      </trkpt>
      <trkpt lat="40.258846" lon="-5.872785">
        <ele>788.317</ele>
        <time>2021-10-13T12:05:58Z</time>
      </trkpt>
      <trkpt lat="40.258956" lon="-5.872600">
        <ele>787.817</ele>
        <time>2021-10-13T12:06:00Z</time>
      </trkpt>
      <trkpt lat="40.258977" lon="-5.872483">
        <ele>787.160</ele>
        <time>2021-10-13T12:06:01Z</time>
      </trkpt>
      <trkpt lat="40.258978" lon="-5.872340">
        <ele>787.186</ele>
        <time>2021-10-13T12:06:02Z</time>
      </trkpt>
      <trkpt lat="40.258964" lon="-5.872015">
        <ele>785.775</ele>
        <time>2021-10-13T12:06:04Z</time>
      </trkpt>
      <trkpt lat="40.258963" lon="-5.871839">
        <ele>785.540</ele>
        <time>2021-10-13T12:06:05Z</time>
      </trkpt>
      <trkpt lat="40.258961" lon="-5.871504">
        <ele>784.032</ele>
        <time>2021-10-13T12:06:07Z</time>
      </trkpt>
      <trkpt lat="40.258960" lon="-5.871341">
        <ele>783.192</ele>
        <time>2021-10-13T12:06:08Z</time>
      </trkpt>
      <trkpt lat="40.258953" lon="-5.871179">
        <ele>782.711</ele>
        <time>2021-10-13T12:06:09Z</time>
      </trkpt>
      <trkpt lat="40.258912" lon="-5.870879">
        <ele>779.208</ele>
        <time>2021-10-13T12:06:11Z</time>
      </trkpt>
      <trkpt lat="40.258873" lon="-5.870734">
        <ele>779.171</ele>
        <time>2021-10-13T12:06:12Z</time>
      </trkpt>
      <trkpt lat="40.258832" lon="-5.870594">
        <ele>777.389</ele>
        <time>2021-10-13T12:06:13Z</time>
      </trkpt>
      <trkpt lat="40.258790" lon="-5.870457">
        <ele>776.436</ele>
        <time>2021-10-13T12:06:14Z</time>
      </trkpt>
      <trkpt lat="40.258741" lon="-5.870325">
        <ele>775.396</ele>
        <time>2021-10-13T12:06:15Z</time>
      </trkpt>
      <trkpt lat="40.258637" lon="-5.870085">
        <ele>772.979</ele>
        <time>2021-10-13T12:06:17Z</time>
      </trkpt>
      <trkpt lat="40.258543" lon="-5.869859">
        <ele>772.795</ele>
        <time>2021-10-13T12:06:19Z</time>
      </trkpt>
      <trkpt lat="40.258503" lon="-5.869751">
        <ele>771.114</ele>
        <time>2021-10-13T12:06:20Z</time>
      </trkpt>
      <trkpt lat="40.258466" lon="-5.869643">
        <ele>770.879</ele>
        <time>2021-10-13T12:06:21Z</time>
      </trkpt>
      <trkpt lat="40.258418" lon="-5.869427">
        <ele>770.551</ele>
        <time>2021-10-13T12:06:23Z</time>
      </trkpt>
      <trkpt lat="40.258442" lon="-5.869275">
        <ele>770.801</ele>
        <time>2021-10-13T12:06:25Z</time>
      </trkpt>
      <trkpt lat="40.258493" lon="-5.869241">
        <ele>771.111</ele>
        <time>2021-10-13T12:06:26Z</time>
      </trkpt>
      <trkpt lat="40.258649" lon="-5.869251">
        <ele>771.208</ele>
        <time>2021-10-13T12:06:28Z</time>
      </trkpt>
      <trkpt lat="40.258847" lon="-5.869331">
        <ele>771.273</ele>
        <time>2021-10-13T12:06:30Z</time>
      </trkpt>
      <trkpt lat="40.258969" lon="-5.869371">
        <ele>771.121</ele>
        <time>2021-10-13T12:06:31Z</time>
      </trkpt>
      <trkpt lat="40.259103" lon="-5.869387">
        <ele>770.698</ele>
        <time>2021-10-13T12:06:32Z</time>
      </trkpt>
      <trkpt lat="40.259355" lon="-5.869318">
        <ele>769.318</ele>
        <time>2021-10-13T12:06:34Z</time>
      </trkpt>
      <trkpt lat="40.259473" lon="-5.869236">
        <ele>768.691</ele>
        <time>2021-10-13T12:06:35Z</time>
      </trkpt>
      <trkpt lat="40.259675" lon="-5.868980">
        <ele>766.017</ele>
        <time>2021-10-13T12:06:37Z</time>
      </trkpt>
      <trkpt lat="40.259828" lon="-5.868669">
        <ele>764.046</ele>
        <time>2021-10-13T12:06:39Z</time>
      </trkpt>
      <trkpt lat="40.259889" lon="-5.868503">
        <ele>762.791</ele>
        <time>2021-10-13T12:06:40Z</time>
      </trkpt>
      <trkpt lat="40.259975" lon="-5.868190">
        <ele>762.159</ele>
        <time>2021-10-13T12:06:42Z</time>
      </trkpt>
      <trkpt lat="40.260022" lon="-5.868027">
        <ele>762.103</ele>
        <time>2021-10-13T12:06:43Z</time>
      </trkpt>
      <trkpt lat="40.260129" lon="-5.867709">
        <ele>760.823</ele>
        <time>2021-10-13T12:06:45Z</time>
      </trkpt>
      <trkpt lat="40.260207" lon="-5.867569">
        <ele>760.208</ele>
        <time>2021-10-13T12:06:46Z</time>
      </trkpt>
      <trkpt lat="40.260305" lon="-5.867441">
        <ele>760.023</ele>
        <time>2021-10-13T12:06:47Z</time>
      </trkpt>
      <trkpt lat="40.260523" lon="-5.867212">
        <ele>759.161</ele>
        <time>2021-10-13T12:06:49Z</time>
      </trkpt>
      <trkpt lat="40.260634" lon="-5.867096">
        <ele>757.888</ele>
        <time>2021-10-13T12:06:50Z</time>
      </trkpt>
      <trkpt lat="40.260740" lon="-5.866970">
        <ele>756.838</ele>
        <time>2021-10-13T12:06:51Z</time>
      </trkpt>
      <trkpt lat="40.260933" lon="-5.866701">
        <ele>754.141</ele>
        <time>2021-10-13T12:06:53Z</time>
      </trkpt>
      <trkpt lat="40.261074" lon="-5.866426">
        <ele>753.657</ele>
        <time>2021-10-13T12:06:55Z</time>
      </trkpt>
      <trkpt lat="40.261142" lon="-5.866289">
        <ele>752.546</ele>
        <time>2021-10-13T12:06:56Z</time>
      </trkpt>
      <trkpt lat="40.261294" lon="-5.866086">
        <ele>752.311</ele>
        <time>2021-10-13T12:06:58Z</time>
      </trkpt>
      <trkpt lat="40.261475" lon="-5.866005">
        <ele>750.569</ele>
        <time>2021-10-13T12:07:00Z</time>
      </trkpt>
      <trkpt lat="40.261568" lon="-5.866022">
        <ele>749.804</ele>
        <time>2021-10-13T12:07:01Z</time>
      </trkpt>
      <trkpt lat="40.261661" lon="-5.866095">
        <ele>749.524</ele>
        <time>2021-10-13T12:07:02Z</time>
      </trkpt>
      <trkpt lat="40.261847" lon="-5.866343">
        <ele>748.208</ele>
        <time>2021-10-13T12:07:04Z</time>
      </trkpt>
      <trkpt lat="40.261957" lon="-5.866481">
        <ele>747.714</ele>
        <time>2021-10-13T12:07:05Z</time>
      </trkpt>
      <trkpt lat="40.262200" lon="-5.866719">
        <ele>744.762</ele>
        <time>2021-10-13T12:07:07Z</time>
      </trkpt>
      <trkpt lat="40.262325" lon="-5.866813">
        <ele>743.749</ele>
        <time>2021-10-13T12:07:08Z</time>
      </trkpt>
      <trkpt lat="40.262445" lon="-5.866901">
        <ele>743.239</ele>
        <time>2021-10-13T12:07:09Z</time>
      </trkpt>
      <trkpt lat="40.262669" lon="-5.867059">
        <ele>741.862</ele>
        <time>2021-10-13T12:07:11Z</time>
      </trkpt>
      <trkpt lat="40.262782" lon="-5.867125">
        <ele>740.348</ele>
        <time>2021-10-13T12:07:12Z</time>
      </trkpt>
      <trkpt lat="40.262894" lon="-5.867179">
        <ele>739.067</ele>
        <time>2021-10-13T12:07:13Z</time>
      </trkpt>
      <trkpt lat="40.263129" lon="-5.867245">
        <ele>738.362</ele>
        <time>2021-10-13T12:07:15Z</time>
      </trkpt>
      <trkpt lat="40.263255" lon="-5.867263">
        <ele>737.781</ele>
        <time>2021-10-13T12:07:16Z</time>
      </trkpt>
      <trkpt lat="40.263388" lon="-5.867281">
        <ele>736.861</ele>
        <time>2021-10-13T12:07:17Z</time>
      </trkpt>
      <trkpt lat="40.263633" lon="-5.867293">
        <ele>735.117</ele>
        <time>2021-10-13T12:07:19Z</time>
      </trkpt>
      <trkpt lat="40.263742" lon="-5.867282">
        <ele>733.908</ele>
        <time>2021-10-13T12:07:20Z</time>
      </trkpt>
      <trkpt lat="40.263926" lon="-5.867225">
        <ele>731.656</ele>
        <time>2021-10-13T12:07:22Z</time>
      </trkpt>
      <trkpt lat="40.264046" lon="-5.867104">
        <ele>730.024</ele>
        <time>2021-10-13T12:07:24Z</time>
      </trkpt>
      <trkpt lat="40.264060" lon="-5.866878">
        <ele>729.681</ele>
        <time>2021-10-13T12:07:26Z</time>
      </trkpt>
      <trkpt lat="40.264027" lon="-5.866677">
        <ele>728.021</ele>
        <time>2021-10-13T12:07:28Z</time>
      </trkpt>
      <trkpt lat="40.264020" lon="-5.866578">
        <ele>727.384</ele>
        <time>2021-10-13T12:07:29Z</time>
      </trkpt>
      <trkpt lat="40.264022" lon="-5.866487">
        <ele>727.090</ele>
        <time>2021-10-13T12:07:30Z</time>
      </trkpt>
      <trkpt lat="40.264036" lon="-5.866322">
        <ele>726.749</ele>
        <time>2021-10-13T12:07:32Z</time>
      </trkpt>
      <trkpt lat="40.264060" lon="-5.866195">
        <ele>725.844</ele>
        <time>2021-10-13T12:07:34Z</time>
      </trkpt>
      <trkpt lat="40.264097" lon="-5.866104">
        <ele>725.026</ele>
        <time>2021-10-13T12:07:36Z</time>
      </trkpt>
      <trkpt lat="40.264152" lon="-5.866023">
        <ele>723.747</ele>
        <time>2021-10-13T12:07:38Z</time>
      </trkpt>
      <trkpt lat="40.264229" lon="-5.865904">
        <ele>722.511</ele>
        <time>2021-10-13T12:07:40Z</time>
      </trkpt>
      <trkpt lat="40.264291" lon="-5.865853">
        <ele>721.808</ele>
        <time>2021-10-13T12:07:41Z</time>
      </trkpt>
      <trkpt lat="40.264446" lon="-5.865784">
        <ele>721.360</ele>
        <time>2021-10-13T12:07:43Z</time>
      </trkpt>
      <trkpt lat="40.264517" lon="-5.865759">
        <ele>721.448</ele>
        <time>2021-10-13T12:07:44Z</time>
      </trkpt>
      <trkpt lat="40.264634" lon="-5.865713">
        <ele>721.595</ele>
        <time>2021-10-13T12:07:46Z</time>
      </trkpt>
      <trkpt lat="40.264690" lon="-5.865688">
        <ele>721.595</ele>
        <time>2021-10-13T12:07:47Z</time>
      </trkpt>
      <trkpt lat="40.264811" lon="-5.865615">
        <ele>721.728</ele>
        <time>2021-10-13T12:07:49Z</time>
      </trkpt>
      <trkpt lat="40.264999" lon="-5.865493">
        <ele>722.314</ele>
        <time>2021-10-13T12:07:51Z</time>
      </trkpt>
      <trkpt lat="40.265113" lon="-5.865431">
        <ele>722.653</ele>
        <time>2021-10-13T12:07:52Z</time>
      </trkpt>
      <trkpt lat="40.265337" lon="-5.865327">
        <ele>722.338</ele>
        <time>2021-10-13T12:07:54Z</time>
      </trkpt>
      <trkpt lat="40.265440" lon="-5.865286">
        <ele>722.383</ele>
        <time>2021-10-13T12:07:55Z</time>
      </trkpt>
      <trkpt lat="40.265541" lon="-5.865246">
        <ele>721.425</ele>
        <time>2021-10-13T12:07:56Z</time>
      </trkpt>
      <trkpt lat="40.265717" lon="-5.865175">
        <ele>721.317</ele>
        <time>2021-10-13T12:07:58Z</time>
      </trkpt>
      <trkpt lat="40.265800" lon="-5.865134">
        <ele>720.408</ele>
        <time>2021-10-13T12:07:59Z</time>
      </trkpt>
      <trkpt lat="40.265957" lon="-5.865040">
        <ele>719.696</ele>
        <time>2021-10-13T12:08:01Z</time>
      </trkpt>
      <trkpt lat="40.266034" lon="-5.864971">
        <ele>718.534</ele>
        <time>2021-10-13T12:08:02Z</time>
      </trkpt>
      <trkpt lat="40.266168" lon="-5.864795">
        <ele>716.871</ele>
        <time>2021-10-13T12:08:04Z</time>
      </trkpt>
      <trkpt lat="40.266291" lon="-5.864578">
        <ele>716.661</ele>
        <time>2021-10-13T12:08:06Z</time>
      </trkpt>
      <trkpt lat="40.266343" lon="-5.864452">
        <ele>716.634</ele>
        <time>2021-10-13T12:08:07Z</time>
      </trkpt>
      <trkpt lat="40.266415" lon="-5.864177">
        <ele>714.470</ele>
        <time>2021-10-13T12:08:09Z</time>
      </trkpt>
      <trkpt lat="40.266438" lon="-5.863879">
        <ele>714.459</ele>
        <time>2021-10-13T12:08:11Z</time>
      </trkpt>
      <trkpt lat="40.266425" lon="-5.863564">
        <ele>713.694</ele>
        <time>2021-10-13T12:08:13Z</time>
      </trkpt>
      <trkpt lat="40.266411" lon="-5.863411">
        <ele>713.061</ele>
        <time>2021-10-13T12:08:14Z</time>
      </trkpt>
      <trkpt lat="40.266366" lon="-5.863139">
        <ele>712.121</ele>
        <time>2021-10-13T12:08:16Z</time>
      </trkpt>
      <trkpt lat="40.266329" lon="-5.863016">
        <ele>711.113</ele>
        <time>2021-10-13T12:08:17Z</time>
      </trkpt>
      <trkpt lat="40.266286" lon="-5.862902">
        <ele>710.608</ele>
        <time>2021-10-13T12:08:18Z</time>
      </trkpt>
      <trkpt lat="40.266196" lon="-5.862667">
        <ele>708.484</ele>
        <time>2021-10-13T12:08:20Z</time>
      </trkpt>
      <trkpt lat="40.266150" lon="-5.862537">
        <ele>707.872</ele>
        <time>2021-10-13T12:08:21Z</time>
      </trkpt>
      <trkpt lat="40.266068" lon="-5.862292">
        <ele>705.799</ele>
        <time>2021-10-13T12:08:23Z</time>
      </trkpt>
      <trkpt lat="40.266048" lon="-5.862174">
        <ele>704.939</ele>
        <time>2021-10-13T12:08:24Z</time>
      </trkpt>
      <trkpt lat="40.266068" lon="-5.861948">
        <ele>703.962</ele>
        <time>2021-10-13T12:08:26Z</time>
      </trkpt>
      <trkpt lat="40.266183" lon="-5.861761">
        <ele>703.798</ele>
        <time>2021-10-13T12:08:28Z</time>
      </trkpt>
      <trkpt lat="40.266385" lon="-5.861656">
        <ele>702.827</ele>
        <time>2021-10-13T12:08:30Z</time>
      </trkpt>
      <trkpt lat="40.266583" lon="-5.861697">
        <ele>701.972</ele>
        <time>2021-10-13T12:08:32Z</time>
      </trkpt>
      <trkpt lat="40.266729" lon="-5.861938">
        <ele>700.452</ele>
        <time>2021-10-13T12:08:34Z</time>
      </trkpt>
      <trkpt lat="40.266775" lon="-5.862102">
        <ele>699.653</ele>
        <time>2021-10-13T12:08:35Z</time>
      </trkpt>
      <trkpt lat="40.266860" lon="-5.862401">
        <ele>699.308</ele>
        <time>2021-10-13T12:08:37Z</time>
      </trkpt>
      <trkpt lat="40.267000" lon="-5.862609">
        <ele>698.308</ele>
        <time>2021-10-13T12:08:39Z</time>
      </trkpt>
      <trkpt lat="40.267165" lon="-5.862762">
        <ele>697.353</ele>
        <time>2021-10-13T12:08:41Z</time>
      </trkpt>
      <trkpt lat="40.267332" lon="-5.862902">
        <ele>694.941</ele>
        <time>2021-10-13T12:08:43Z</time>
      </trkpt>
      <trkpt lat="40.267491" lon="-5.863029">
        <ele>694.178</ele>
        <time>2021-10-13T12:08:45Z</time>
      </trkpt>
      <trkpt lat="40.267650" lon="-5.863112">
        <ele>692.548</ele>
        <time>2021-10-13T12:08:47Z</time>
      </trkpt>
      <trkpt lat="40.267733" lon="-5.863125">
        <ele>692.421</ele>
        <time>2021-10-13T12:08:48Z</time>
      </trkpt>
      <trkpt lat="40.267913" lon="-5.863148">
        <ele>691.317</ele>
        <time>2021-10-13T12:08:50Z</time>
      </trkpt>
      <trkpt lat="40.268119" lon="-5.863174">
        <ele>689.866</ele>
        <time>2021-10-13T12:08:52Z</time>
      </trkpt>
      <trkpt lat="40.268317" lon="-5.863221">
        <ele>688.631</ele>
        <time>2021-10-13T12:08:54Z</time>
      </trkpt>
      <trkpt lat="40.268404" lon="-5.863282">
        <ele>688.676</ele>
        <time>2021-10-13T12:08:55Z</time>
      </trkpt>
      <trkpt lat="40.268484" lon="-5.863368">
        <ele>687.790</ele>
        <time>2021-10-13T12:08:56Z</time>
      </trkpt>
      <trkpt lat="40.268652" lon="-5.863527">
        <ele>688.019</ele>
        <time>2021-10-13T12:08:58Z</time>
      </trkpt>
      <trkpt lat="40.268746" lon="-5.863576">
        <ele>688.008</ele>
        <time>2021-10-13T12:08:59Z</time>
      </trkpt>
      <trkpt lat="40.268839" lon="-5.863619">
        <ele>687.835</ele>
        <time>2021-10-13T12:09:00Z</time>
      </trkpt>
      <trkpt lat="40.268997" lon="-5.863762">
        <ele>687.523</ele>
        <time>2021-10-13T12:09:02Z</time>
      </trkpt>
      <trkpt lat="40.269096" lon="-5.864017">
        <ele>688.130</ele>
        <time>2021-10-13T12:09:04Z</time>
      </trkpt>
      <trkpt lat="40.269213" lon="-5.864303">
        <ele>685.260</ele>
        <time>2021-10-13T12:09:06Z</time>
      </trkpt>
      <trkpt lat="40.269290" lon="-5.864429">
        <ele>683.953</ele>
        <time>2021-10-13T12:09:07Z</time>
      </trkpt>
      <trkpt lat="40.269454" lon="-5.864663">
        <ele>682.929</ele>
        <time>2021-10-13T12:09:09Z</time>
      </trkpt>
      <trkpt lat="40.269609" lon="-5.864857">
        <ele>682.068</ele>
        <time>2021-10-13T12:09:11Z</time>
      </trkpt>
      <trkpt lat="40.269721" lon="-5.864987">
        <ele>679.893</ele>
        <time>2021-10-13T12:09:13Z</time>
      </trkpt>
      <trkpt lat="40.269774" lon="-5.865047">
        <ele>679.646</ele>
        <time>2021-10-13T12:09:14Z</time>
      </trkpt>
      <trkpt lat="40.269875" lon="-5.865169">
        <ele>678.088</ele>
        <time>2021-10-13T12:09:16Z</time>
      </trkpt>
      <trkpt lat="40.269927" lon="-5.865233">
        <ele>677.416</ele>
        <time>2021-10-13T12:09:17Z</time>
      </trkpt>
      <trkpt lat="40.270021" lon="-5.865366">
        <ele>675.808</ele>
        <time>2021-10-13T12:09:19Z</time>
      </trkpt>
      <trkpt lat="40.270070" lon="-5.865434">
        <ele>675.872</ele>
        <time>2021-10-13T12:09:20Z</time>
      </trkpt>
      <trkpt lat="40.270122" lon="-5.865497">
        <ele>675.140</ele>
        <time>2021-10-13T12:09:21Z</time>
      </trkpt>
      <trkpt lat="40.270243" lon="-5.865578">
        <ele>676.277</ele>
        <time>2021-10-13T12:09:23Z</time>
      </trkpt>
      <trkpt lat="40.270389" lon="-5.865545">
        <ele>676.067</ele>
        <time>2021-10-13T12:09:25Z</time>
      </trkpt>
      <trkpt lat="40.270472" lon="-5.865487">
        <ele>676.070</ele>
        <time>2021-10-13T12:09:26Z</time>
      </trkpt>
      <trkpt lat="40.270646" lon="-5.865358">
        <ele>675.816</ele>
        <time>2021-10-13T12:09:28Z</time>
      </trkpt>
      <trkpt lat="40.270742" lon="-5.865293">
        <ele>675.165</ele>
        <time>2021-10-13T12:09:29Z</time>
      </trkpt>
      <trkpt lat="40.270845" lon="-5.865228">
        <ele>674.620</ele>
        <time>2021-10-13T12:09:30Z</time>
      </trkpt>
      <trkpt lat="40.271054" lon="-5.865100">
        <ele>673.726</ele>
        <time>2021-10-13T12:09:32Z</time>
      </trkpt>
      <trkpt lat="40.271241" lon="-5.864978">
        <ele>673.647</ele>
        <time>2021-10-13T12:09:34Z</time>
      </trkpt>
      <trkpt lat="40.271420" lon="-5.864865">
        <ele>674.011</ele>
        <time>2021-10-13T12:09:36Z</time>
      </trkpt>
      <trkpt lat="40.271514" lon="-5.864802">
        <ele>674.008</ele>
        <time>2021-10-13T12:09:37Z</time>
      </trkpt>
      <trkpt lat="40.271608" lon="-5.864737">
        <ele>672.520</ele>
        <time>2021-10-13T12:09:38Z</time>
      </trkpt>
      <trkpt lat="40.271766" lon="-5.864656">
        <ele>671.348</ele>
        <time>2021-10-13T12:09:40Z</time>
      </trkpt>
      <trkpt lat="40.271825" lon="-5.864619">
        <ele>671.245</ele>
        <time>2021-10-13T12:09:41Z</time>
      </trkpt>
      <trkpt lat="40.271913" lon="-5.864563">
        <ele>670.035</ele>
        <time>2021-10-13T12:09:43Z</time>
      </trkpt>
      <trkpt lat="40.271960" lon="-5.864539">
        <ele>669.788</ele>
        <time>2021-10-13T12:09:45Z</time>
      </trkpt>
      <trkpt lat="40.272010" lon="-5.864491">
        <ele>669.514</ele>
        <time>2021-10-13T12:09:48Z</time>
      </trkpt>
      <trkpt lat="40.272035" lon="-5.864324">
        <ele>669.823</ele>
        <time>2021-10-13T12:09:50Z</time>
      </trkpt>
      <trkpt lat="40.272063" lon="-5.864055">
        <ele>671.758</ele>
        <time>2021-10-13T12:09:52Z</time>
      </trkpt>
      <trkpt lat="40.272087" lon="-5.863763">
        <ele>671.898</ele>
        <time>2021-10-13T12:09:54Z</time>
      </trkpt>
      <trkpt lat="40.272101" lon="-5.863639">
        <ele>672.215</ele>
        <time>2021-10-13T12:09:55Z</time>
      </trkpt>
      <trkpt lat="40.272111" lon="-5.863541">
        <ele>671.826</ele>
        <time>2021-10-13T12:09:56Z</time>
      </trkpt>
      <trkpt lat="40.272121" lon="-5.863387">
        <ele>671.308</ele>
        <time>2021-10-13T12:09:58Z</time>
      </trkpt>
      <trkpt lat="40.272128" lon="-5.863317">
        <ele>670.977</ele>
        <time>2021-10-13T12:09:59Z</time>
      </trkpt>
      <trkpt lat="40.272137" lon="-5.863246">
        <ele>670.815</ele>
        <time>2021-10-13T12:10:00Z</time>
      </trkpt>
      <trkpt lat="40.272144" lon="-5.863172">
        <ele>670.832</ele>
        <time>2021-10-13T12:10:01Z</time>
      </trkpt>
      <trkpt lat="40.272150" lon="-5.863086">
        <ele>670.892</ele>
        <time>2021-10-13T12:10:02Z</time>
      </trkpt>
      <trkpt lat="40.272173" lon="-5.862872">
        <ele>671.745</ele>
        <time>2021-10-13T12:10:04Z</time>
      </trkpt>
      <trkpt lat="40.272198" lon="-5.862649">
        <ele>674.051</ele>
        <time>2021-10-13T12:10:06Z</time>
      </trkpt>
      <trkpt lat="40.272215" lon="-5.862444">
        <ele>676.710</ele>
        <time>2021-10-13T12:10:08Z</time>
      </trkpt>
      <trkpt lat="40.272225" lon="-5.862285">
        <ele>679.335</ele>
        <time>2021-10-13T12:10:10Z</time>
      </trkpt>
      <trkpt lat="40.272229" lon="-5.862222">
        <ele>680.721</ele>
        <time>2021-10-13T12:10:11Z</time>
      </trkpt>
      <trkpt lat="40.272223" lon="-5.862134">
        <ele>681.441</ele>
        <time>2021-10-13T12:10:13Z</time>
      </trkpt>
      <trkpt lat="40.272196" lon="-5.862024">
        <ele>681.905</ele>
        <time>2021-10-13T12:10:15Z</time>
      </trkpt>
      <trkpt lat="40.272189" lon="-5.861874">
        <ele>682.208</ele>
        <time>2021-10-13T12:10:17Z</time>
      </trkpt>
      <trkpt lat="40.272222" lon="-5.861818">
        <ele>682.570</ele>
        <time>2021-10-13T12:10:18Z</time>
      </trkpt>
      <trkpt lat="40.272321" lon="-5.861783">
        <ele>682.358</ele>
        <time>2021-10-13T12:10:20Z</time>
      </trkpt>
      <trkpt lat="40.272388" lon="-5.861800">
        <ele>682.245</ele>
        <time>2021-10-13T12:10:22Z</time>
      </trkpt>
      <trkpt lat="40.272480" lon="-5.861903">
        <ele>681.825</ele>
        <time>2021-10-13T12:10:25Z</time>
      </trkpt>
      <trkpt lat="40.272591" lon="-5.861975">
        <ele>680.918</ele>
        <time>2021-10-13T12:10:26Z</time>
      </trkpt>
      <trkpt lat="40.272862" lon="-5.862115">
        <ele>675.024</ele>
        <time>2021-10-13T12:10:28Z</time>
      </trkpt>
      <trkpt lat="40.272984" lon="-5.862177">
        <ele>673.543</ele>
        <time>2021-10-13T12:10:29Z</time>
      </trkpt>
      <trkpt lat="40.273099" lon="-5.862229">
        <ele>672.048</ele>
        <time>2021-10-13T12:10:30Z</time>
      </trkpt>
      <trkpt lat="40.273319" lon="-5.862325">
        <ele>668.921</ele>
        <time>2021-10-13T12:10:32Z</time>
      </trkpt>
      <trkpt lat="40.273523" lon="-5.862441">
        <ele>667.241</ele>
        <time>2021-10-13T12:10:34Z</time>
      </trkpt>
      <trkpt lat="40.273723" lon="-5.862536">
        <ele>666.205</ele>
        <time>2021-10-13T12:10:36Z</time>
      </trkpt>
      <trkpt lat="40.273895" lon="-5.862605">
        <ele>666.108</ele>
        <time>2021-10-13T12:10:38Z</time>
      </trkpt>
      <trkpt lat="40.274005" lon="-5.862659">
        <ele>665.430</ele>
        <time>2021-10-13T12:10:40Z</time>
      </trkpt>
      <trkpt lat="40.274057" lon="-5.862696">
        <ele>665.548</ele>
        <time>2021-10-13T12:10:42Z</time>
      </trkpt>
      <trkpt lat="40.274129" lon="-5.862745">
        <ele>666.285</ele>
        <time>2021-10-13T12:10:44Z</time>
      </trkpt>
      <trkpt lat="40.274227" lon="-5.862806">
        <ele>666.435</ele>
        <time>2021-10-13T12:10:46Z</time>
      </trkpt>
      <trkpt lat="40.274272" lon="-5.862836">
        <ele>666.888</ele>
        <time>2021-10-13T12:10:47Z</time>
      </trkpt>
      <trkpt lat="40.274333" lon="-5.862875">
        <ele>667.864</ele>
        <time>2021-10-13T12:10:49Z</time>
      </trkpt>
      <trkpt lat="40.274403" lon="-5.862917">
        <ele>693.553</ele>
        <time>2021-10-13T12:10:51Z</time>
      </trkpt>
      <trkpt lat="40.274466" lon="-5.862954">
        <ele>716.488</ele>
        <time>2021-10-13T12:10:53Z</time>
      </trkpt>
      <trkpt lat="40.274528" lon="-5.862981">
        <ele>728.688</ele>
        <time>2021-10-13T12:10:55Z</time>
      </trkpt>
      <trkpt lat="40.274595" lon="-5.862991">
        <ele>728.624</ele>
        <time>2021-10-13T12:10:57Z</time>
      </trkpt>
      <trkpt lat="40.274641" lon="-5.862980">
        <ele>728.626</ele>
        <time>2021-10-13T12:10:58Z</time>
      </trkpt>
      <trkpt lat="40.274692" lon="-5.862953">
        <ele>728.608</ele>
        <time>2021-10-13T12:10:59Z</time>
      </trkpt>
      <trkpt lat="40.274758" lon="-5.862866">
        <ele>728.676</ele>
        <time>2021-10-13T12:11:01Z</time>
      </trkpt>
      <trkpt lat="40.274801" lon="-5.862809">
        <ele>728.694</ele>
        <time>2021-10-13T12:11:03Z</time>
      </trkpt>
      <trkpt lat="40.274870" lon="-5.862747">
        <ele>728.611</ele>
        <time>2021-10-13T12:11:05Z</time>
      </trkpt>
      <trkpt lat="40.274921" lon="-5.862711">
        <ele>728.611</ele>
        <time>2021-10-13T12:11:06Z</time>
      </trkpt>
      <trkpt lat="40.275043" lon="-5.862684">
        <ele>728.694</ele>
        <time>2021-10-13T12:11:08Z</time>
      </trkpt>
      <trkpt lat="40.275152" lon="-5.862741">
        <ele>728.690</ele>
        <time>2021-10-13T12:11:10Z</time>
      </trkpt>
      <trkpt lat="40.275197" lon="-5.862796">
        <ele>728.629</ele>
        <time>2021-10-13T12:11:11Z</time>
      </trkpt>
      <trkpt lat="40.275247" lon="-5.862986">
        <ele>728.684</ele>
        <time>2021-10-13T12:11:13Z</time>
      </trkpt>
      <trkpt lat="40.275244" lon="-5.863227">
        <ele>728.647</ele>
        <time>2021-10-13T12:11:15Z</time>
      </trkpt>
      <trkpt lat="40.275233" lon="-5.863358">
        <ele>728.629</ele>
        <time>2021-10-13T12:11:16Z</time>
      </trkpt>
      <trkpt lat="40.275222" lon="-5.863489">
        <ele>728.621</ele>
        <time>2021-10-13T12:11:17Z</time>
      </trkpt>
      <trkpt lat="40.275208" lon="-5.863744">
        <ele>728.608</ele>
        <time>2021-10-13T12:11:19Z</time>
      </trkpt>
      <trkpt lat="40.275200" lon="-5.863868">
        <ele>728.672</ele>
        <time>2021-10-13T12:11:20Z</time>
      </trkpt>
      <trkpt lat="40.275194" lon="-5.863987">
        <ele>728.640</ele>
        <time>2021-10-13T12:11:21Z</time>
      </trkpt>
      <trkpt lat="40.275177" lon="-5.864217">
        <ele>728.697</ele>
        <time>2021-10-13T12:11:23Z</time>
      </trkpt>
      <trkpt lat="40.275160" lon="-5.864446">
        <ele>728.637</ele>
        <time>2021-10-13T12:11:25Z</time>
      </trkpt>
      <trkpt lat="40.275151" lon="-5.864572">
        <ele>728.660</ele>
        <time>2021-10-13T12:11:26Z</time>
      </trkpt>
      <trkpt lat="40.275122" lon="-5.864843">
        <ele>728.746</ele>
        <time>2021-10-13T12:11:28Z</time>
      </trkpt>
      <trkpt lat="40.275097" lon="-5.864983">
        <ele>728.715</ele>
        <time>2021-10-13T12:11:29Z</time>
      </trkpt>
      <trkpt lat="40.275041" lon="-5.865238">
        <ele>728.690</ele>
        <time>2021-10-13T12:11:31Z</time>
      </trkpt>
      <trkpt lat="40.275013" lon="-5.865358">
        <ele>728.621</ele>
        <time>2021-10-13T12:11:32Z</time>
      </trkpt>
      <trkpt lat="40.274966" lon="-5.865575">
        <ele>728.641</ele>
        <time>2021-10-13T12:11:34Z</time>
      </trkpt>
      <trkpt lat="40.274935" lon="-5.865785">
        <ele>728.605</ele>
        <time>2021-10-13T12:11:36Z</time>
      </trkpt>
      <trkpt lat="40.274946" lon="-5.865890">
        <ele>728.608</ele>
        <time>2021-10-13T12:11:37Z</time>
      </trkpt>
      <trkpt lat="40.275036" lon="-5.866072">
        <ele>728.730</ele>
        <time>2021-10-13T12:11:39Z</time>
      </trkpt>
      <trkpt lat="40.275114" lon="-5.866130">
        <ele>728.758</ele>
        <time>2021-10-13T12:11:40Z</time>
      </trkpt>
      <trkpt lat="40.275293" lon="-5.866128">
        <ele>728.735</ele>
        <time>2021-10-13T12:11:42Z</time>
      </trkpt>
      <trkpt lat="40.275419" lon="-5.865882">
        <ele>728.665</ele>
        <time>2021-10-13T12:11:44Z</time>
      </trkpt>
      <trkpt lat="40.275450" lon="-5.865706">
        <ele>728.698</ele>
        <time>2021-10-13T12:11:45Z</time>
      </trkpt>
      <trkpt lat="40.275506" lon="-5.865377">
        <ele>689.924</ele>
        <time>2021-10-13T12:11:47Z</time>
      </trkpt>
      <trkpt lat="40.275536" lon="-5.865233">
        <ele>651.883</ele>
        <time>2021-10-13T12:11:48Z</time>
      </trkpt>
      <trkpt lat="40.275583" lon="-5.864964">
        <ele>649.638</ele>
        <time>2021-10-13T12:11:50Z</time>
      </trkpt>
      <trkpt lat="40.275620" lon="-5.864723">
        <ele>649.596</ele>
        <time>2021-10-13T12:11:52Z</time>
      </trkpt>
      <trkpt lat="40.275642" lon="-5.864503">
        <ele>650.231</ele>
        <time>2021-10-13T12:11:54Z</time>
      </trkpt>
      <trkpt lat="40.275653" lon="-5.864385">
        <ele>650.224</ele>
        <time>2021-10-13T12:11:55Z</time>
      </trkpt>
      <trkpt lat="40.275662" lon="-5.864244">
        <ele>650.308</ele>
        <time>2021-10-13T12:11:56Z</time>
      </trkpt>
      <trkpt lat="40.275674" lon="-5.863933">
        <ele>650.747</ele>
        <time>2021-10-13T12:11:58Z</time>
      </trkpt>
      <trkpt lat="40.275693" lon="-5.863629">
        <ele>651.925</ele>
        <time>2021-10-13T12:12:00Z</time>
      </trkpt>
      <trkpt lat="40.275770" lon="-5.863387">
        <ele>653.292</ele>
        <time>2021-10-13T12:12:02Z</time>
      </trkpt>
      <trkpt lat="40.275919" lon="-5.863265">
        <ele>652.792</ele>
        <time>2021-10-13T12:12:04Z</time>
      </trkpt>
      <trkpt lat="40.276010" lon="-5.863276">
        <ele>651.885</ele>
        <time>2021-10-13T12:12:05Z</time>
      </trkpt>
      <trkpt lat="40.276134" lon="-5.863411">
        <ele>651.691</ele>
        <time>2021-10-13T12:12:07Z</time>
      </trkpt>
      <trkpt lat="40.276186" lon="-5.863663">
        <ele>650.030</ele>
        <time>2021-10-13T12:12:09Z</time>
      </trkpt>
      <trkpt lat="40.276189" lon="-5.864059">
        <ele>649.285</ele>
        <time>2021-10-13T12:12:11Z</time>
      </trkpt>
      <trkpt lat="40.276299" lon="-5.864457">
        <ele>644.882</ele>
        <time>2021-10-13T12:12:13Z</time>
      </trkpt>
      <trkpt lat="40.276398" lon="-5.864633">
        <ele>642.743</ele>
        <time>2021-10-13T12:12:14Z</time>
      </trkpt>
      <trkpt lat="40.276511" lon="-5.864795">
        <ele>641.517</ele>
        <time>2021-10-13T12:12:15Z</time>
      </trkpt>
      <trkpt lat="40.276617" lon="-5.864950">
        <ele>641.108</ele>
        <time>2021-10-13T12:12:16Z</time>
      </trkpt>
      <trkpt lat="40.276819" lon="-5.865248">
        <ele>637.626</ele>
        <time>2021-10-13T12:12:18Z</time>
      </trkpt>
      <trkpt lat="40.276912" lon="-5.865395">
        <ele>636.634</ele>
        <time>2021-10-13T12:12:19Z</time>
      </trkpt>
      <trkpt lat="40.277064" lon="-5.865684">
        <ele>635.281</ele>
        <time>2021-10-13T12:12:21Z</time>
      </trkpt>
      <trkpt lat="40.277191" lon="-5.865964">
        <ele>634.151</ele>
        <time>2021-10-13T12:12:23Z</time>
      </trkpt>
      <trkpt lat="40.277255" lon="-5.866089">
        <ele>633.864</ele>
        <time>2021-10-13T12:12:24Z</time>
      </trkpt>
      <trkpt lat="40.277366" lon="-5.866277">
        <ele>632.540</ele>
        <time>2021-10-13T12:12:26Z</time>
      </trkpt>
      <trkpt lat="40.277452" lon="-5.866399">
        <ele>632.329</ele>
        <time>2021-10-13T12:12:28Z</time>
      </trkpt>
      <trkpt lat="40.277498" lon="-5.866460">
        <ele>631.574</ele>
        <time>2021-10-13T12:12:29Z</time>
      </trkpt>
      <trkpt lat="40.277587" lon="-5.866552">
        <ele>630.646</ele>
        <time>2021-10-13T12:12:31Z</time>
      </trkpt>
      <trkpt lat="40.277634" lon="-5.866588">
        <ele>630.588</ele>
        <time>2021-10-13T12:12:32Z</time>
      </trkpt>
      <trkpt lat="40.277730" lon="-5.866651">
        <ele>629.816</ele>
        <time>2021-10-13T12:12:34Z</time>
      </trkpt>
      <trkpt lat="40.277830" lon="-5.866713">
        <ele>629.508</ele>
        <time>2021-10-13T12:12:36Z</time>
      </trkpt>
      <trkpt lat="40.277879" lon="-5.866742">
        <ele>629.422</ele>
        <time>2021-10-13T12:12:37Z</time>
      </trkpt>
      <trkpt lat="40.277982" lon="-5.866804">
        <ele>629.470</ele>
        <time>2021-10-13T12:12:39Z</time>
      </trkpt>
      <trkpt lat="40.278032" lon="-5.866834">
        <ele>629.487</ele>
        <time>2021-10-13T12:12:40Z</time>
      </trkpt>
      <trkpt lat="40.278122" lon="-5.866904">
        <ele>629.727</ele>
        <time>2021-10-13T12:12:42Z</time>
      </trkpt>
      <trkpt lat="40.278192" lon="-5.866984">
        <ele>629.490</ele>
        <time>2021-10-13T12:12:44Z</time>
      </trkpt>
      <trkpt lat="40.278273" lon="-5.867090">
        <ele>629.336</ele>
        <time>2021-10-13T12:12:46Z</time>
      </trkpt>
      <trkpt lat="40.278381" lon="-5.867279">
        <ele>629.435</ele>
        <time>2021-10-13T12:12:48Z</time>
      </trkpt>
      <trkpt lat="40.278513" lon="-5.867572">
        <ele>629.530</ele>
        <time>2021-10-13T12:12:50Z</time>
      </trkpt>
      <trkpt lat="40.278700" lon="-5.867922">
        <ele>629.555</ele>
        <time>2021-10-13T12:12:52Z</time>
      </trkpt>
      <trkpt lat="40.278793" lon="-5.868118">
        <ele>630.207</ele>
        <time>2021-10-13T12:12:53Z</time>
      </trkpt>
      <trkpt lat="40.278935" lon="-5.868513">
        <ele>631.817</ele>
        <time>2021-10-13T12:12:55Z</time>
      </trkpt>
      <trkpt lat="40.278980" lon="-5.868695">
        <ele>633.208</ele>
        <time>2021-10-13T12:12:56Z</time>
      </trkpt>
      <trkpt lat="40.279047" lon="-5.869003">
        <ele>633.433</ele>
        <time>2021-10-13T12:12:58Z</time>
      </trkpt>
      <trkpt lat="40.279085" lon="-5.869176">
        <ele>635.271</ele>
        <time>2021-10-13T12:12:59Z</time>
      </trkpt>
      <trkpt lat="40.279176" lon="-5.869566">
        <ele>636.468</ele>
        <time>2021-10-13T12:13:01Z</time>
      </trkpt>
      <trkpt lat="40.279218" lon="-5.869779">
        <ele>638.318</ele>
        <time>2021-10-13T12:13:02Z</time>
      </trkpt>
      <trkpt lat="40.279301" lon="-5.870202">
        <ele>639.631</ele>
        <time>2021-10-13T12:13:04Z</time>
      </trkpt>
      <trkpt lat="40.279388" lon="-5.870656">
        <ele>640.737</ele>
        <time>2021-10-13T12:13:06Z</time>
      </trkpt>
      <trkpt lat="40.279429" lon="-5.870894">
        <ele>641.626</ele>
        <time>2021-10-13T12:13:07Z</time>
      </trkpt>
      <trkpt lat="40.279525" lon="-5.871395">
        <ele>641.781</ele>
        <time>2021-10-13T12:13:09Z</time>
      </trkpt>
      <trkpt lat="40.279631" lon="-5.871919">
        <ele>640.511</ele>
        <time>2021-10-13T12:13:11Z</time>
      </trkpt>
      <trkpt lat="40.279726" lon="-5.872457">
        <ele>638.821</ele>
        <time>2021-10-13T12:13:13Z</time>
      </trkpt>
      <trkpt lat="40.279766" lon="-5.872723">
        <ele>638.103</ele>
        <time>2021-10-13T12:13:14Z</time>
      </trkpt>
      <trkpt lat="40.279808" lon="-5.872997">
        <ele>637.708</ele>
        <time>2021-10-13T12:13:15Z</time>
      </trkpt>
      <trkpt lat="40.279892" lon="-5.873557">
        <ele>636.519</ele>
        <time>2021-10-13T12:13:17Z</time>
      </trkpt>
      <trkpt lat="40.279975" lon="-5.874131">
        <ele>634.057</ele>
        <time>2021-10-13T12:13:19Z</time>
      </trkpt>
      <trkpt lat="40.280017" lon="-5.874425">
        <ele>633.344</ele>
        <time>2021-10-13T12:13:20Z</time>
      </trkpt>
      <trkpt lat="40.280059" lon="-5.874715">
        <ele>632.824</ele>
        <time>2021-10-13T12:13:21Z</time>
      </trkpt>
      <trkpt lat="40.280138" lon="-5.875261">
        <ele>630.957</ele>
        <time>2021-10-13T12:13:23Z</time>
      </trkpt>
      <trkpt lat="40.280174" lon="-5.875519">
        <ele>630.323</ele>
        <time>2021-10-13T12:13:24Z</time>
      </trkpt>
      <trkpt lat="40.280209" lon="-5.875769">
        <ele>628.972</ele>
        <time>2021-10-13T12:13:25Z</time>
      </trkpt>
      <trkpt lat="40.280245" lon="-5.876014">
        <ele>627.847</ele>
        <time>2021-10-13T12:13:26Z</time>
      </trkpt>
      <trkpt lat="40.280313" lon="-5.876475">
        <ele>626.716</ele>
        <time>2021-10-13T12:13:28Z</time>
      </trkpt>
      <trkpt lat="40.280385" lon="-5.876918">
        <ele>624.376</ele>
        <time>2021-10-13T12:13:30Z</time>
      </trkpt>
      <trkpt lat="40.280520" lon="-5.877320">
        <ele>623.213</ele>
        <time>2021-10-13T12:13:32Z</time>
      </trkpt>
      <trkpt lat="40.280723" lon="-5.877663">
        <ele>620.908</ele>
        <time>2021-10-13T12:13:34Z</time>
      </trkpt>
      <trkpt lat="40.280849" lon="-5.877817">
        <ele>620.279</ele>
        <time>2021-10-13T12:13:35Z</time>
      </trkpt>
      <trkpt lat="40.281138" lon="-5.878100">
        <ele>617.417</ele>
        <time>2021-10-13T12:13:37Z</time>
      </trkpt>
      <trkpt lat="40.281292" lon="-5.878215">
        <ele>616.524</ele>
        <time>2021-10-13T12:13:38Z</time>
      </trkpt>
      <trkpt lat="40.281448" lon="-5.878311">
        <ele>615.364</ele>
        <time>2021-10-13T12:13:39Z</time>
      </trkpt>
      <trkpt lat="40.281702" lon="-5.878456">
        <ele>613.447</ele>
        <time>2021-10-13T12:13:41Z</time>
      </trkpt>
      <trkpt lat="40.281806" lon="-5.878518">
        <ele>612.463</ele>
        <time>2021-10-13T12:13:42Z</time>
      </trkpt>
      <trkpt lat="40.281979" lon="-5.878614">
        <ele>611.672</ele>
        <time>2021-10-13T12:13:44Z</time>
      </trkpt>
      <trkpt lat="40.282131" lon="-5.878695">
        <ele>609.327</ele>
        <time>2021-10-13T12:13:46Z</time>
      </trkpt>
      <trkpt lat="40.282283" lon="-5.878731">
        <ele>609.427</ele>
        <time>2021-10-13T12:13:48Z</time>
      </trkpt>
      <trkpt lat="40.282457" lon="-5.878771">
        <ele>609.568</ele>
        <time>2021-10-13T12:13:50Z</time>
      </trkpt>
      <trkpt lat="40.282620" lon="-5.878962">
        <ele>608.814</ele>
        <time>2021-10-13T12:13:52Z</time>
      </trkpt>
      <trkpt lat="40.282725" lon="-5.879065">
        <ele>608.808</ele>
        <time>2021-10-13T12:13:53Z</time>
      </trkpt>
      <trkpt lat="40.283020" lon="-5.879262">
        <ele>607.960</ele>
        <time>2021-10-13T12:13:55Z</time>
      </trkpt>
      <trkpt lat="40.283193" lon="-5.879383">
        <ele>607.178</ele>
        <time>2021-10-13T12:13:56Z</time>
      </trkpt>
      <trkpt lat="40.283541" lon="-5.879668">
        <ele>606.915</ele>
        <time>2021-10-13T12:13:58Z</time>
      </trkpt>
      <trkpt lat="40.283724" lon="-5.879829">
        <ele>606.855</ele>
        <time>2021-10-13T12:13:59Z</time>
      </trkpt>
      <trkpt lat="40.283905" lon="-5.879980">
        <ele>606.078</ele>
        <time>2021-10-13T12:14:00Z</time>
      </trkpt>
      <trkpt lat="40.284241" lon="-5.880270">
        <ele>605.484</ele>
        <time>2021-10-13T12:14:02Z</time>
      </trkpt>
      <trkpt lat="40.284515" lon="-5.880522">
        <ele>605.043</ele>
        <time>2021-10-13T12:14:04Z</time>
      </trkpt>
      <trkpt lat="40.284632" lon="-5.880620">
        <ele>604.438</ele>
        <time>2021-10-13T12:14:05Z</time>
      </trkpt>
      <trkpt lat="40.284828" lon="-5.880784">
        <ele>604.649</ele>
        <time>2021-10-13T12:14:07Z</time>
      </trkpt>
      <trkpt lat="40.284914" lon="-5.880862">
        <ele>604.602</ele>
        <time>2021-10-13T12:14:08Z</time>
      </trkpt>
      <trkpt lat="40.285051" lon="-5.881011">
        <ele>604.722</ele>
        <time>2021-10-13T12:14:10Z</time>
      </trkpt>
      <trkpt lat="40.285101" lon="-5.881074">
        <ele>604.808</ele>
        <time>2021-10-13T12:14:11Z</time>
      </trkpt>
      <trkpt lat="40.285170" lon="-5.881170">
        <ele>606.052</ele>
        <time>2021-10-13T12:14:13Z</time>
      </trkpt>
      <trkpt lat="40.285212" lon="-5.881209">
        <ele>607.230</ele>
        <time>2021-10-13T12:14:15Z</time>
      </trkpt>
      <trkpt lat="40.285286" lon="-5.881193">
        <ele>608.617</ele>
        <time>2021-10-13T12:14:18Z</time>
      </trkpt>
      <trkpt lat="40.285337" lon="-5.881162">
        <ele>609.437</ele>
        <time>2021-10-13T12:14:19Z</time>
      </trkpt>
      <trkpt lat="40.285406" lon="-5.881093">
        <ele>610.150</ele>
        <time>2021-10-13T12:14:20Z</time>
      </trkpt>
      <trkpt lat="40.285491" lon="-5.881016">
        <ele>610.566</ele>
        <time>2021-10-13T12:14:21Z</time>
      </trkpt>
      <trkpt lat="40.285724" lon="-5.880806">
        <ele>609.675</ele>
        <time>2021-10-13T12:14:23Z</time>
      </trkpt>
      <trkpt lat="40.285959" lon="-5.880572">
        <ele>609.120</ele>
        <time>2021-10-13T12:14:25Z</time>
      </trkpt>
      <trkpt lat="40.286079" lon="-5.880453">
        <ele>609.427</ele>
        <time>2021-10-13T12:14:26Z</time>
      </trkpt>
      <trkpt lat="40.286319" lon="-5.880219">
        <ele>610.568</ele>
        <time>2021-10-13T12:14:28Z</time>
      </trkpt>
      <trkpt lat="40.286573" lon="-5.879979">
        <ele>611.414</ele>
        <time>2021-10-13T12:14:30Z</time>
      </trkpt>
      <trkpt lat="40.286854" lon="-5.879710">
        <ele>613.408</ele>
        <time>2021-10-13T12:14:32Z</time>
      </trkpt>
      <trkpt lat="40.287148" lon="-5.879435">
        <ele>614.750</ele>
        <time>2021-10-13T12:14:34Z</time>
      </trkpt>
      <trkpt lat="40.287309" lon="-5.879285">
        <ele>615.598</ele>
        <time>2021-10-13T12:14:35Z</time>
      </trkpt>
      <trkpt lat="40.287629" lon="-5.878987">
        <ele>617.615</ele>
        <time>2021-10-13T12:14:37Z</time>
      </trkpt>
      <trkpt lat="40.287793" lon="-5.878834">
        <ele>617.785</ele>
        <time>2021-10-13T12:14:38Z</time>
      </trkpt>
      <trkpt lat="40.288126" lon="-5.878538">
        <ele>619.638</ele>
        <time>2021-10-13T12:14:40Z</time>
      </trkpt>
      <trkpt lat="40.288491" lon="-5.878236">
        <ele>620.964</ele>
        <time>2021-10-13T12:14:42Z</time>
      </trkpt>
      <trkpt lat="40.288686" lon="-5.878081">
        <ele>622.013</ele>
        <time>2021-10-13T12:14:43Z</time>
      </trkpt>
      <trkpt lat="40.288877" lon="-5.877928">
        <ele>622.848</ele>
        <time>2021-10-13T12:14:44Z</time>
      </trkpt>
      <trkpt lat="40.289235" lon="-5.877644">
        <ele>623.386</ele>
        <time>2021-10-13T12:14:46Z</time>
      </trkpt>
      <trkpt lat="40.289413" lon="-5.877508">
        <ele>623.660</ele>
        <time>2021-10-13T12:14:47Z</time>
      </trkpt>
      <trkpt lat="40.289592" lon="-5.877370">
        <ele>624.626</ele>
        <time>2021-10-13T12:14:48Z</time>
      </trkpt>
      <trkpt lat="40.289768" lon="-5.877230">
        <ele>625.608</ele>
        <time>2021-10-13T12:14:49Z</time>
      </trkpt>
      <trkpt lat="40.290120" lon="-5.876952">
        <ele>625.936</ele>
        <time>2021-10-13T12:14:51Z</time>
      </trkpt>
      <trkpt lat="40.290296" lon="-5.876816">
        <ele>627.054</ele>
        <time>2021-10-13T12:14:52Z</time>
      </trkpt>
      <trkpt lat="40.290469" lon="-5.876682">
        <ele>627.971</ele>
        <time>2021-10-13T12:14:53Z</time>
      </trkpt>
      <trkpt lat="40.290807" lon="-5.876414">
        <ele>629.521</ele>
        <time>2021-10-13T12:14:55Z</time>
      </trkpt>
      <trkpt lat="40.290978" lon="-5.876280">
        <ele>630.714</ele>
        <time>2021-10-13T12:14:56Z</time>
      </trkpt>
      <trkpt lat="40.291303" lon="-5.876028">
        <ele>632.510</ele>
        <time>2021-10-13T12:14:58Z</time>
      </trkpt>
      <trkpt lat="40.291640" lon="-5.875771">
        <ele>634.749</ele>
        <time>2021-10-13T12:15:00Z</time>
      </trkpt>
      <trkpt lat="40.291815" lon="-5.875635">
        <ele>635.814</ele>
        <time>2021-10-13T12:15:01Z</time>
      </trkpt>
      <trkpt lat="40.291998" lon="-5.875489">
        <ele>637.178</ele>
        <time>2021-10-13T12:15:02Z</time>
      </trkpt>
      <trkpt lat="40.292364" lon="-5.875200">
        <ele>638.933</ele>
        <time>2021-10-13T12:15:04Z</time>
      </trkpt>
      <trkpt lat="40.292550" lon="-5.875053">
        <ele>639.926</ele>
        <time>2021-10-13T12:15:05Z</time>
      </trkpt>
      <trkpt lat="40.292913" lon="-5.874767">
        <ele>641.208</ele>
        <time>2021-10-13T12:15:07Z</time>
      </trkpt>
      <trkpt lat="40.293259" lon="-5.874501">
        <ele>643.285</ele>
        <time>2021-10-13T12:15:09Z</time>
      </trkpt>
      <trkpt lat="40.293436" lon="-5.874388">
        <ele>643.763</ele>
        <time>2021-10-13T12:15:10Z</time>
      </trkpt>
      <trkpt lat="40.293803" lon="-5.874227">
        <ele>645.810</ele>
        <time>2021-10-13T12:15:12Z</time>
      </trkpt>
      <trkpt lat="40.294170" lon="-5.874100">
        <ele>647.340</ele>
        <time>2021-10-13T12:15:14Z</time>
      </trkpt>
      <trkpt lat="40.294522" lon="-5.873973">
        <ele>649.023</ele>
        <time>2021-10-13T12:15:16Z</time>
      </trkpt>
      <trkpt lat="40.294704" lon="-5.873926">
        <ele>649.369</ele>
        <time>2021-10-13T12:15:17Z</time>
      </trkpt>
      <trkpt lat="40.294893" lon="-5.873895">
        <ele>650.268</ele>
        <time>2021-10-13T12:15:18Z</time>
      </trkpt>
      <trkpt lat="40.295299" lon="-5.873878">
        <ele>651.933</ele>
        <time>2021-10-13T12:15:20Z</time>
      </trkpt>
      <trkpt lat="40.295511" lon="-5.873883">
        <ele>653.165</ele>
        <time>2021-10-13T12:15:21Z</time>
      </trkpt>
      <trkpt lat="40.295727" lon="-5.873879">
        <ele>654.268</ele>
        <time>2021-10-13T12:15:22Z</time>
      </trkpt>
      <trkpt lat="40.295943" lon="-5.873852">
        <ele>654.914</ele>
        <time>2021-10-13T12:15:23Z</time>
      </trkpt>
      <trkpt lat="40.296349" lon="-5.873753">
        <ele>657.608</ele>
        <time>2021-10-13T12:15:25Z</time>
      </trkpt>
      <trkpt lat="40.296537" lon="-5.873687">
        <ele>658.774</ele>
        <time>2021-10-13T12:15:26Z</time>
      </trkpt>
      <trkpt lat="40.296856" lon="-5.873518">
        <ele>659.412</ele>
        <time>2021-10-13T12:15:28Z</time>
      </trkpt>
      <trkpt lat="40.297141" lon="-5.873261">
        <ele>658.729</ele>
        <time>2021-10-13T12:15:30Z</time>
      </trkpt>
      <trkpt lat="40.297273" lon="-5.873094">
        <ele>658.229</ele>
        <time>2021-10-13T12:15:31Z</time>
      </trkpt>
      <trkpt lat="40.297406" lon="-5.872906">
        <ele>657.452</ele>
        <time>2021-10-13T12:15:32Z</time>
      </trkpt>
      <trkpt lat="40.297700" lon="-5.872549">
        <ele>656.998</ele>
        <time>2021-10-13T12:15:34Z</time>
      </trkpt>
      <trkpt lat="40.298074" lon="-5.872263">
        <ele>656.477</ele>
        <time>2021-10-13T12:15:36Z</time>
      </trkpt>
      <trkpt lat="40.298494" lon="-5.872087">
        <ele>657.232</ele>
        <time>2021-10-13T12:15:38Z</time>
      </trkpt>
      <trkpt lat="40.298872" lon="-5.871908">
        <ele>657.199</ele>
        <time>2021-10-13T12:15:40Z</time>
      </trkpt>
      <trkpt lat="40.299203" lon="-5.871649">
        <ele>657.007</ele>
        <time>2021-10-13T12:15:42Z</time>
      </trkpt>
      <trkpt lat="40.299359" lon="-5.871485">
        <ele>656.427</ele>
        <time>2021-10-13T12:15:43Z</time>
      </trkpt>
      <trkpt lat="40.299516" lon="-5.871315">
        <ele>655.508</ele>
        <time>2021-10-13T12:15:44Z</time>
      </trkpt>
      <trkpt lat="40.299857" lon="-5.871008">
        <ele>654.937</ele>
        <time>2021-10-13T12:15:46Z</time>
      </trkpt>
      <trkpt lat="40.300053" lon="-5.870883">
        <ele>654.965</ele>
        <time>2021-10-13T12:15:47Z</time>
      </trkpt>
      <trkpt lat="40.300480" lon="-5.870675">
        <ele>655.782</ele>
        <time>2021-10-13T12:15:49Z</time>
      </trkpt>
      <trkpt lat="40.300705" lon="-5.870575">
        <ele>654.842</ele>
        <time>2021-10-13T12:15:50Z</time>
      </trkpt>
      <trkpt lat="40.301163" lon="-5.870373">
        <ele>654.235</ele>
        <time>2021-10-13T12:15:52Z</time>
      </trkpt>
      <trkpt lat="40.301627" lon="-5.870158">
        <ele>653.821</ele>
        <time>2021-10-13T12:15:54Z</time>
      </trkpt>
      <trkpt lat="40.301861" lon="-5.870051">
        <ele>654.220</ele>
        <time>2021-10-13T12:15:55Z</time>
      </trkpt>
      <trkpt lat="40.302101" lon="-5.869939">
        <ele>655.625</ele>
        <time>2021-10-13T12:15:56Z</time>
      </trkpt>
      <trkpt lat="40.302562" lon="-5.869723">
        <ele>656.541</ele>
        <time>2021-10-13T12:15:58Z</time>
      </trkpt>
      <trkpt lat="40.303015" lon="-5.869509">
        <ele>658.181</ele>
        <time>2021-10-13T12:16:00Z</time>
      </trkpt>
      <trkpt lat="40.303226" lon="-5.869409">
        <ele>659.009</ele>
        <time>2021-10-13T12:16:01Z</time>
      </trkpt>
      <trkpt lat="40.303433" lon="-5.869311">
        <ele>660.008</ele>
        <time>2021-10-13T12:16:02Z</time>
      </trkpt>
      <trkpt lat="40.303848" lon="-5.869172">
        <ele>661.322</ele>
        <time>2021-10-13T12:16:04Z</time>
      </trkpt>
      <trkpt lat="40.304288" lon="-5.869102">
        <ele>663.040</ele>
        <time>2021-10-13T12:16:06Z</time>
      </trkpt>
      <trkpt lat="40.304721" lon="-5.868984">
        <ele>666.277</ele>
        <time>2021-10-13T12:16:08Z</time>
      </trkpt>
      <trkpt lat="40.305101" lon="-5.868822">
        <ele>668.487</ele>
        <time>2021-10-13T12:16:10Z</time>
      </trkpt>
      <trkpt lat="40.305480" lon="-5.868592">
        <ele>669.630</ele>
        <time>2021-10-13T12:16:12Z</time>
      </trkpt>
      <trkpt lat="40.305855" lon="-5.868286">
        <ele>669.856</ele>
        <time>2021-10-13T12:16:14Z</time>
      </trkpt>
      <trkpt lat="40.306054" lon="-5.868113">
        <ele>669.815</ele>
        <time>2021-10-13T12:16:15Z</time>
      </trkpt>
      <trkpt lat="40.306250" lon="-5.867949">
        <ele>669.950</ele>
        <time>2021-10-13T12:16:16Z</time>
      </trkpt>
      <trkpt lat="40.306444" lon="-5.867779">
        <ele>669.448</ele>
        <time>2021-10-13T12:16:17Z</time>
      </trkpt>
      <trkpt lat="40.306825" lon="-5.867403">
        <ele>667.661</ele>
        <time>2021-10-13T12:16:19Z</time>
      </trkpt>
      <trkpt lat="40.307020" lon="-5.867200">
        <ele>667.917</ele>
        <time>2021-10-13T12:16:20Z</time>
      </trkpt>
      <trkpt lat="40.307212" lon="-5.866984">
        <ele>667.508</ele>
        <time>2021-10-13T12:16:21Z</time>
      </trkpt>
      <trkpt lat="40.307586" lon="-5.866553">
        <ele>666.892</ele>
        <time>2021-10-13T12:16:23Z</time>
      </trkpt>
      <trkpt lat="40.307765" lon="-5.866329">
        <ele>666.440</ele>
        <time>2021-10-13T12:16:24Z</time>
      </trkpt>
      <trkpt lat="40.307930" lon="-5.866091">
        <ele>666.157</ele>
        <time>2021-10-13T12:16:25Z</time>
      </trkpt>
      <trkpt lat="40.308092" lon="-5.865837">
        <ele>666.487</ele>
        <time>2021-10-13T12:16:26Z</time>
      </trkpt>
      <trkpt lat="40.308401" lon="-5.865372">
        <ele>666.190</ele>
        <time>2021-10-13T12:16:28Z</time>
      </trkpt>
      <trkpt lat="40.308576" lon="-5.865151">
        <ele>666.726</ele>
        <time>2021-10-13T12:16:29Z</time>
      </trkpt>
      <trkpt lat="40.308767" lon="-5.864955">
        <ele>667.955</ele>
        <time>2021-10-13T12:16:30Z</time>
      </trkpt>
      <trkpt lat="40.309182" lon="-5.864632">
        <ele>669.220</ele>
        <time>2021-10-13T12:16:32Z</time>
      </trkpt>
      <trkpt lat="40.309560" lon="-5.864338">
        <ele>670.516</ele>
        <time>2021-10-13T12:16:34Z</time>
      </trkpt>
      <trkpt lat="40.309899" lon="-5.864014">
        <ele>672.076</ele>
        <time>2021-10-13T12:16:36Z</time>
      </trkpt>
      <trkpt lat="40.310216" lon="-5.863694">
        <ele>674.113</ele>
        <time>2021-10-13T12:16:38Z</time>
      </trkpt>
      <trkpt lat="40.310565" lon="-5.863447">
        <ele>676.708</ele>
        <time>2021-10-13T12:16:40Z</time>
      </trkpt>
      <trkpt lat="40.310970" lon="-5.863293">
        <ele>678.879</ele>
        <time>2021-10-13T12:16:42Z</time>
      </trkpt>
      <trkpt lat="40.311184" lon="-5.863222">
        <ele>680.057</ele>
        <time>2021-10-13T12:16:43Z</time>
      </trkpt>
      <trkpt lat="40.311605" lon="-5.863075">
        <ele>682.484</ele>
        <time>2021-10-13T12:16:45Z</time>
      </trkpt>
      <trkpt lat="40.311801" lon="-5.863003">
        <ele>682.924</ele>
        <time>2021-10-13T12:16:46Z</time>
      </trkpt>
      <trkpt lat="40.312142" lon="-5.862864">
        <ele>684.737</ele>
        <time>2021-10-13T12:16:48Z</time>
      </trkpt>
      <trkpt lat="40.312298" lon="-5.862791">
        <ele>685.493</ele>
        <time>2021-10-13T12:16:49Z</time>
      </trkpt>
      <trkpt lat="40.312600" lon="-5.862644">
        <ele>687.942</ele>
        <time>2021-10-13T12:16:51Z</time>
      </trkpt>
      <trkpt lat="40.312761" lon="-5.862563">
        <ele>688.597</ele>
        <time>2021-10-13T12:16:52Z</time>
      </trkpt>
      <trkpt lat="40.312915" lon="-5.862480">
        <ele>689.593</ele>
        <time>2021-10-13T12:16:53Z</time>
      </trkpt>
      <trkpt lat="40.313179" lon="-5.862280">
        <ele>691.665</ele>
        <time>2021-10-13T12:16:55Z</time>
      </trkpt>
      <trkpt lat="40.313289" lon="-5.862135">
        <ele>692.221</ele>
        <time>2021-10-13T12:16:56Z</time>
      </trkpt>
      <trkpt lat="40.313467" lon="-5.861790">
        <ele>693.408</ele>
        <time>2021-10-13T12:16:58Z</time>
      </trkpt>
      <trkpt lat="40.313560" lon="-5.861600">
        <ele>693.497</ele>
        <time>2021-10-13T12:16:59Z</time>
      </trkpt>
      <trkpt lat="40.313773" lon="-5.861249">
        <ele>694.315</ele>
        <time>2021-10-13T12:17:01Z</time>
      </trkpt>
      <trkpt lat="40.313902" lon="-5.861091">
        <ele>694.852</ele>
        <time>2021-10-13T12:17:02Z</time>
      </trkpt>
      <trkpt lat="40.314182" lon="-5.860814">
        <ele>694.542</ele>
        <time>2021-10-13T12:17:04Z</time>
      </trkpt>
      <trkpt lat="40.314329" lon="-5.860674">
        <ele>692.425</ele>
        <time>2021-10-13T12:17:05Z</time>
      </trkpt>
      <trkpt lat="40.314464" lon="-5.860559">
        <ele>691.671</ele>
        <time>2021-10-13T12:17:06Z</time>
      </trkpt>
      <trkpt lat="40.314716" lon="-5.860395">
        <ele>689.260</ele>
        <time>2021-10-13T12:17:08Z</time>
      </trkpt>
      <trkpt lat="40.314966" lon="-5.860254">
        <ele>688.785</ele>
        <time>2021-10-13T12:17:10Z</time>
      </trkpt>
      <trkpt lat="40.315110" lon="-5.860202">
        <ele>688.535</ele>
        <time>2021-10-13T12:17:11Z</time>
      </trkpt>
      <trkpt lat="40.315255" lon="-5.860155">
        <ele>689.986</ele>
        <time>2021-10-13T12:17:12Z</time>
      </trkpt>
      <trkpt lat="40.315539" lon="-5.860058">
        <ele>693.314</ele>
        <time>2021-10-13T12:17:14Z</time>
      </trkpt>
      <trkpt lat="40.315671" lon="-5.860003">
        <ele>694.808</ele>
        <time>2021-10-13T12:17:15Z</time>
      </trkpt>
      <trkpt lat="40.315894" lon="-5.859922">
        <ele>697.271</ele>
        <time>2021-10-13T12:17:17Z</time>
      </trkpt>
      <trkpt lat="40.316066" lon="-5.859865">
        <ele>699.869</ele>
        <time>2021-10-13T12:17:19Z</time>
      </trkpt>
      <trkpt lat="40.316147" lon="-5.859834">
        <ele>699.876</ele>
        <time>2021-10-13T12:17:20Z</time>
      </trkpt>
      <trkpt lat="40.316333" lon="-5.859765">
        <ele>700.676</ele>
        <time>2021-10-13T12:17:22Z</time>
      </trkpt>
      <trkpt lat="40.316529" lon="-5.859676">
        <ele>702.119</ele>
        <time>2021-10-13T12:17:24Z</time>
      </trkpt>
      <trkpt lat="40.316627" lon="-5.859628">
        <ele>702.575</ele>
        <time>2021-10-13T12:17:25Z</time>
      </trkpt>
      <trkpt lat="40.316725" lon="-5.859579">
        <ele>702.874</ele>
        <time>2021-10-13T12:17:26Z</time>
      </trkpt>
      <trkpt lat="40.316910" lon="-5.859493">
        <ele>703.639</ele>
        <time>2021-10-13T12:17:28Z</time>
      </trkpt>
      <trkpt lat="40.317008" lon="-5.859448">
        <ele>703.414</ele>
        <time>2021-10-13T12:17:29Z</time>
      </trkpt>
      <trkpt lat="40.317207" lon="-5.859353">
        <ele>703.454</ele>
        <time>2021-10-13T12:17:31Z</time>
      </trkpt>
      <trkpt lat="40.317315" lon="-5.859303">
        <ele>702.409</ele>
        <time>2021-10-13T12:17:32Z</time>
      </trkpt>
      <trkpt lat="40.317528" lon="-5.859202">
        <ele>702.408</ele>
        <time>2021-10-13T12:17:34Z</time>
      </trkpt>
      <trkpt lat="40.317640" lon="-5.859137">
        <ele>703.089</ele>
        <time>2021-10-13T12:17:35Z</time>
      </trkpt>
      <trkpt lat="40.317839" lon="-5.859045">
        <ele>703.027</ele>
        <time>2021-10-13T12:17:37Z</time>
      </trkpt>
      <trkpt lat="40.317968" lon="-5.858991">
        <ele>702.374</ele>
        <time>2021-10-13T12:17:39Z</time>
      </trkpt>
      <trkpt lat="40.318031" lon="-5.858971">
        <ele>702.084</ele>
        <time>2021-10-13T12:17:41Z</time>
      </trkpt>
      <trkpt lat="40.318063" lon="-5.858922">
        <ele>702.087</ele>
        <time>2021-10-13T12:17:44Z</time>
      </trkpt>
      <trkpt lat="40.318080" lon="-5.858828">
        <ele>701.863</ele>
        <time>2021-10-13T12:17:46Z</time>
      </trkpt>
      <trkpt lat="40.318083" lon="-5.858709">
        <ele>702.412</ele>
        <time>2021-10-13T12:17:48Z</time>
      </trkpt>
      <trkpt lat="40.318060" lon="-5.858534">
        <ele>747.517</ele>
        <time>2021-10-13T12:17:50Z</time>
      </trkpt>
      <trkpt lat="40.318035" lon="-5.858392">
        <ele>762.968</ele>
        <time>2021-10-13T12:17:52Z</time>
      </trkpt>
      <trkpt lat="40.318027" lon="-5.858330">
        <ele>762.942</ele>
        <time>2021-10-13T12:17:53Z</time>
      </trkpt>
      <trkpt lat="40.317965" lon="-5.858281">
        <ele>762.926</ele>
        <time>2021-10-13T12:17:55Z</time>
      </trkpt>
      <trkpt lat="40.317904" lon="-5.858215">
        <ele>762.908</ele>
        <time>2021-10-13T12:17:57Z</time>
      </trkpt>
      <trkpt lat="40.317851" lon="-5.858148">
        <ele>762.934</ele>
        <time>2021-10-13T12:17:59Z</time>
      </trkpt>
      <trkpt lat="40.317800" lon="-5.858096">
        <ele>762.952</ele>
        <time>2021-10-13T12:18:01Z</time>
      </trkpt>
      <trkpt lat="40.317769" lon="-5.858022">
        <ele>762.999</ele>
        <time>2021-10-13T12:18:03Z</time>
      </trkpt>
      <trkpt lat="40.317768" lon="-5.857912">
        <ele>762.989</ele>
        <time>2021-10-13T12:18:05Z</time>
      </trkpt>
      <trkpt lat="40.317780" lon="-5.857762">
        <ele>762.952</ele>
        <time>2021-10-13T12:18:07Z</time>
      </trkpt>
      <trkpt lat="40.317807" lon="-5.857612">
        <ele>762.948</ele>
        <time>2021-10-13T12:18:09Z</time>
      </trkpt>
      <trkpt lat="40.317836" lon="-5.857532">
        <ele>762.937</ele>
        <time>2021-10-13T12:18:10Z</time>
      </trkpt>
      <trkpt lat="40.317894" lon="-5.857396">
        <ele>762.972</ele>
        <time>2021-10-13T12:18:12Z</time>
      </trkpt>
      <trkpt lat="40.317937" lon="-5.857326">
        <ele>762.933</ele>
        <time>2021-10-13T12:18:15Z</time>
      </trkpt>
      <trkpt lat="40.317985" lon="-5.857251">
        <ele>762.923</ele>
        <time>2021-10-13T12:18:17Z</time>
      </trkpt>
      <trkpt lat="40.318014" lon="-5.857200">
        <ele>762.915</ele>
        <time>2021-10-13T12:18:20Z</time>
      </trkpt>
      <trkpt lat="40.318060" lon="-5.857203">
        <ele>768.208</ele>
        <time>2021-10-13T12:19:00Z</time>
      </trkpt>
      <trkpt lat="40.317986" lon="-5.857198">
        <ele>768.271</ele>
        <time>2021-10-13T12:19:09Z</time>
      </trkpt>
      <trkpt lat="40.317941" lon="-5.857195">
        <ele>768.289</ele>
        <time>2021-10-13T12:19:11Z</time>
      </trkpt>
      <trkpt lat="40.318002" lon="-5.857206">
        <ele>768.136</ele>
        <time>2021-10-13T12:20:17Z</time>
      </trkpt>
      <trkpt lat="40.318005" lon="-5.857281">
        <ele>768.016</ele>
        <time>2021-10-13T12:24:48Z</time>
      </trkpt>
      <trkpt lat="40.317980" lon="-5.857386">
        <ele>768.059</ele>
        <time>2021-10-13T12:24:50Z</time>
      </trkpt>
      <trkpt lat="40.317934" lon="-5.857515">
        <ele>768.015</ele>
        <time>2021-10-13T12:24:52Z</time>
      </trkpt>
      <trkpt lat="40.317892" lon="-5.857588">
        <ele>767.924</ele>
        <time>2021-10-13T12:24:53Z</time>
      </trkpt>
      <trkpt lat="40.317858" lon="-5.857654">
        <ele>767.829</ele>
        <time>2021-10-13T12:24:54Z</time>
      </trkpt>
      <trkpt lat="40.317833" lon="-5.857751">
        <ele>767.884</ele>
        <time>2021-10-13T12:24:56Z</time>
      </trkpt>
      <trkpt lat="40.317834" lon="-5.857853">
        <ele>767.807</ele>
        <time>2021-10-13T12:24:58Z</time>
      </trkpt>
      <trkpt lat="40.317841" lon="-5.857947">
        <ele>767.817</ele>
        <time>2021-10-13T12:25:00Z</time>
      </trkpt>
      <trkpt lat="40.317884" lon="-5.858032">
        <ele>767.808</ele>
        <time>2021-10-13T12:25:02Z</time>
      </trkpt>
      <trkpt lat="40.317940" lon="-5.858111">
        <ele>767.866</ele>
        <time>2021-10-13T12:25:04Z</time>
      </trkpt>
      <trkpt lat="40.317982" lon="-5.858175">
        <ele>767.864</ele>
        <time>2021-10-13T12:25:05Z</time>
      </trkpt>
      <trkpt lat="40.318025" lon="-5.858245">
        <ele>767.841</ele>
        <time>2021-10-13T12:25:06Z</time>
      </trkpt>
      <trkpt lat="40.318097" lon="-5.858368">
        <ele>767.861</ele>
        <time>2021-10-13T12:25:08Z</time>
      </trkpt>
      <trkpt lat="40.318149" lon="-5.858476">
        <ele>767.874</ele>
        <time>2021-10-13T12:25:10Z</time>
      </trkpt>
      <trkpt lat="40.318184" lon="-5.858567">
        <ele>767.820</ele>
        <time>2021-10-13T12:25:12Z</time>
      </trkpt>
      <trkpt lat="40.318231" lon="-5.858654">
        <ele>767.829</ele>
        <time>2021-10-13T12:25:14Z</time>
      </trkpt>
      <trkpt lat="40.318294" lon="-5.858744">
        <ele>767.884</ele>
        <time>2021-10-13T12:25:16Z</time>
      </trkpt>
      <trkpt lat="40.318321" lon="-5.858793">
        <ele>767.885</ele>
        <time>2021-10-13T12:25:18Z</time>
      </trkpt>
      <trkpt lat="40.318388" lon="-5.858792">
        <ele>767.989</ele>
        <time>2021-10-13T12:25:21Z</time>
      </trkpt>
      <trkpt lat="40.318454" lon="-5.858766">
        <ele>767.917</ele>
        <time>2021-10-13T12:25:22Z</time>
      </trkpt>
      <trkpt lat="40.318540" lon="-5.858709">
        <ele>767.908</ele>
        <time>2021-10-13T12:25:23Z</time>
      </trkpt>
      <trkpt lat="40.318706" lon="-5.858556">
        <ele>767.996</ele>
        <time>2021-10-13T12:25:25Z</time>
      </trkpt>
      <trkpt lat="40.318790" lon="-5.858475">
        <ele>767.964</ele>
        <time>2021-10-13T12:25:26Z</time>
      </trkpt>
      <trkpt lat="40.318949" lon="-5.858322">
        <ele>767.961</ele>
        <time>2021-10-13T12:25:28Z</time>
      </trkpt>
      <trkpt lat="40.319077" lon="-5.858183">
        <ele>767.911</ele>
        <time>2021-10-13T12:25:30Z</time>
      </trkpt>
      <trkpt lat="40.319190" lon="-5.858071">
        <ele>767.914</ele>
        <time>2021-10-13T12:25:32Z</time>
      </trkpt>
      <trkpt lat="40.319315" lon="-5.857989">
        <ele>767.930</ele>
        <time>2021-10-13T12:25:34Z</time>
      </trkpt>
      <trkpt lat="40.319378" lon="-5.857939">
        <ele>767.929</ele>
        <time>2021-10-13T12:25:35Z</time>
      </trkpt>
      <trkpt lat="40.319439" lon="-5.857886">
        <ele>767.984</ele>
        <time>2021-10-13T12:25:36Z</time>
      </trkpt>
      <trkpt lat="40.319572" lon="-5.857792">
        <ele>767.955</ele>
        <time>2021-10-13T12:25:38Z</time>
      </trkpt>
      <trkpt lat="40.319745" lon="-5.857684">
        <ele>767.907</ele>
        <time>2021-10-13T12:25:40Z</time>
      </trkpt>
      <trkpt lat="40.319945" lon="-5.857582">
        <ele>767.917</ele>
        <time>2021-10-13T12:25:42Z</time>
      </trkpt>
      <trkpt lat="40.320156" lon="-5.857504">
        <ele>718.308</ele>
        <time>2021-10-13T12:25:44Z</time>
      </trkpt>
      <trkpt lat="40.320374" lon="-5.857421">
        <ele>718.313</ele>
        <time>2021-10-13T12:25:46Z</time>
      </trkpt>
      <trkpt lat="40.320483" lon="-5.857384">
        <ele>720.131</ele>
        <time>2021-10-13T12:25:47Z</time>
      </trkpt>
      <trkpt lat="40.320586" lon="-5.857343">
        <ele>721.218</ele>
        <time>2021-10-13T12:25:48Z</time>
      </trkpt>
      <trkpt lat="40.320774" lon="-5.857264">
        <ele>721.318</ele>
        <time>2021-10-13T12:25:50Z</time>
      </trkpt>
      <trkpt lat="40.320940" lon="-5.857204">
        <ele>724.531</ele>
        <time>2021-10-13T12:25:52Z</time>
      </trkpt>
      <trkpt lat="40.321111" lon="-5.857170">
        <ele>724.767</ele>
        <time>2021-10-13T12:25:54Z</time>
      </trkpt>
      <trkpt lat="40.321207" lon="-5.857158">
        <ele>724.816</ele>
        <time>2021-10-13T12:25:55Z</time>
      </trkpt>
      <trkpt lat="40.321314" lon="-5.857148">
        <ele>725.391</ele>
        <time>2021-10-13T12:25:56Z</time>
      </trkpt>
      <trkpt lat="40.321544" lon="-5.857130">
        <ele>728.378</ele>
        <time>2021-10-13T12:25:58Z</time>
      </trkpt>
      <trkpt lat="40.321672" lon="-5.857120">
        <ele>728.733</ele>
        <time>2021-10-13T12:25:59Z</time>
      </trkpt>
      <trkpt lat="40.321972" lon="-5.857087">
        <ele>731.126</ele>
        <time>2021-10-13T12:26:01Z</time>
      </trkpt>
      <trkpt lat="40.322129" lon="-5.857055">
        <ele>732.008</ele>
        <time>2021-10-13T12:26:02Z</time>
      </trkpt>
      <trkpt lat="40.322399" lon="-5.857009">
        <ele>734.235</ele>
        <time>2021-10-13T12:26:04Z</time>
      </trkpt>
      <trkpt lat="40.322520" lon="-5.856984">
        <ele>735.273</ele>
        <time>2021-10-13T12:26:05Z</time>
      </trkpt>
      <trkpt lat="40.322634" lon="-5.856963">
        <ele>735.270</ele>
        <time>2021-10-13T12:26:06Z</time>
      </trkpt>
      <trkpt lat="40.322846" lon="-5.856918">
        <ele>736.660</ele>
        <time>2021-10-13T12:26:08Z</time>
      </trkpt>
      <trkpt lat="40.322984" lon="-5.856823">
        <ele>737.143</ele>
        <time>2021-10-13T12:26:10Z</time>
      </trkpt>
      <trkpt lat="40.323002" lon="-5.856753">
        <ele>737.429</ele>
        <time>2021-10-13T12:26:11Z</time>
      </trkpt>
      <trkpt lat="40.322947" lon="-5.856594">
        <ele>737.788</ele>
        <time>2021-10-13T12:26:13Z</time>
      </trkpt>
      <trkpt lat="40.322879" lon="-5.856525">
        <ele>737.763</ele>
        <time>2021-10-13T12:26:14Z</time>
      </trkpt>
      <trkpt lat="40.322630" lon="-5.856411">
        <ele>736.319</ele>
        <time>2021-10-13T12:26:16Z</time>
      </trkpt>
      <trkpt lat="40.322274" lon="-5.856320">
        <ele>736.209</ele>
        <time>2021-10-13T12:26:18Z</time>
      </trkpt>
      <trkpt lat="40.322078" lon="-5.856302">
        <ele>736.019</ele>
        <time>2021-10-13T12:26:19Z</time>
      </trkpt>
      <trkpt lat="40.321881" lon="-5.856288">
        <ele>736.408</ele>
        <time>2021-10-13T12:26:20Z</time>
      </trkpt>
      <trkpt lat="40.321503" lon="-5.856257">
        <ele>735.629</ele>
        <time>2021-10-13T12:26:22Z</time>
      </trkpt>
      <trkpt lat="40.321309" lon="-5.856240">
        <ele>735.957</ele>
        <time>2021-10-13T12:26:23Z</time>
      </trkpt>
      <trkpt lat="40.320946" lon="-5.856211">
        <ele>736.144</ele>
        <time>2021-10-13T12:26:25Z</time>
      </trkpt>
      <trkpt lat="40.320776" lon="-5.856197">
        <ele>737.084</ele>
        <time>2021-10-13T12:26:26Z</time>
      </trkpt>
      <trkpt lat="40.320491" lon="-5.856173">
        <ele>736.957</ele>
        <time>2021-10-13T12:26:28Z</time>
      </trkpt>
      <trkpt lat="40.320365" lon="-5.856167">
        <ele>737.093</ele>
        <time>2021-10-13T12:26:29Z</time>
      </trkpt>
      <trkpt lat="40.320139" lon="-5.856178">
        <ele>736.612</ele>
        <time>2021-10-13T12:26:31Z</time>
      </trkpt>
      <trkpt lat="40.320034" lon="-5.856195">
        <ele>738.197</ele>
        <time>2021-10-13T12:26:32Z</time>
      </trkpt>
      <trkpt lat="40.319856" lon="-5.856235">
        <ele>737.841</ele>
        <time>2021-10-13T12:26:34Z</time>
      </trkpt>
      <trkpt lat="40.319727" lon="-5.856223">
        <ele>738.081</ele>
        <time>2021-10-13T12:26:36Z</time>
      </trkpt>
      <trkpt lat="40.319684" lon="-5.856107">
        <ele>738.509</ele>
        <time>2021-10-13T12:26:38Z</time>
      </trkpt>
      <trkpt lat="40.319732" lon="-5.856005">
        <ele>739.008</ele>
        <time>2021-10-13T12:26:40Z</time>
      </trkpt>
      <trkpt lat="40.319785" lon="-5.855965">
        <ele>739.182</ele>
        <time>2021-10-13T12:26:41Z</time>
      </trkpt>
      <trkpt lat="40.319980" lon="-5.855939">
        <ele>739.390</ele>
        <time>2021-10-13T12:26:43Z</time>
      </trkpt>
      <trkpt lat="40.320109" lon="-5.855918">
        <ele>740.587</ele>
        <time>2021-10-13T12:26:44Z</time>
      </trkpt>
      <trkpt lat="40.320407" lon="-5.855845">
        <ele>742.787</ele>
        <time>2021-10-13T12:26:46Z</time>
      </trkpt>
      <trkpt lat="40.320574" lon="-5.855815">
        <ele>744.170</ele>
        <time>2021-10-13T12:26:47Z</time>
      </trkpt>
      <trkpt lat="40.320745" lon="-5.855784">
        <ele>744.526</ele>
        <time>2021-10-13T12:26:48Z</time>
      </trkpt>
      <trkpt lat="40.320918" lon="-5.855752">
        <ele>745.255</ele>
        <time>2021-10-13T12:26:49Z</time>
      </trkpt>
      <trkpt lat="40.321093" lon="-5.855718">
        <ele>745.780</ele>
        <time>2021-10-13T12:26:50Z</time>
      </trkpt>
      <trkpt lat="40.321438" lon="-5.855642">
        <ele>748.574</ele>
        <time>2021-10-13T12:26:52Z</time>
      </trkpt>
      <trkpt lat="40.321620" lon="-5.855614">
        <ele>748.956</ele>
        <time>2021-10-13T12:26:53Z</time>
      </trkpt>
      <trkpt lat="40.321991" lon="-5.855610">
        <ele>750.621</ele>
        <time>2021-10-13T12:26:55Z</time>
      </trkpt>
      <trkpt lat="40.322188" lon="-5.855611">
        <ele>752.508</ele>
        <time>2021-10-13T12:26:56Z</time>
      </trkpt>
      <trkpt lat="40.322562" lon="-5.855605">
        <ele>755.745</ele>
        <time>2021-10-13T12:26:58Z</time>
      </trkpt>
      <trkpt lat="40.322756" lon="-5.855587">
        <ele>757.033</ele>
        <time>2021-10-13T12:26:59Z</time>
      </trkpt>
      <trkpt lat="40.323142" lon="-5.855464">
        <ele>757.640</ele>
        <time>2021-10-13T12:27:01Z</time>
      </trkpt>
      <trkpt lat="40.323319" lon="-5.855382">
        <ele>758.970</ele>
        <time>2021-10-13T12:27:02Z</time>
      </trkpt>
      <trkpt lat="40.323606" lon="-5.855263">
        <ele>761.583</ele>
        <time>2021-10-13T12:27:04Z</time>
      </trkpt>
      <trkpt lat="40.323858" lon="-5.855241">
        <ele>763.599</ele>
        <time>2021-10-13T12:27:06Z</time>
      </trkpt>
      <trkpt lat="40.323981" lon="-5.855288">
        <ele>763.548</ele>
        <time>2021-10-13T12:27:07Z</time>
      </trkpt>
      <trkpt lat="40.324110" lon="-5.855363">
        <ele>764.223</ele>
        <time>2021-10-13T12:27:08Z</time>
      </trkpt>
      <trkpt lat="40.324394" lon="-5.855532">
        <ele>766.873</ele>
        <time>2021-10-13T12:27:10Z</time>
      </trkpt>
      <trkpt lat="40.324715" lon="-5.855709">
        <ele>769.285</ele>
        <time>2021-10-13T12:27:12Z</time>
      </trkpt>
      <trkpt lat="40.324999" lon="-5.855862">
        <ele>770.213</ele>
        <time>2021-10-13T12:27:14Z</time>
      </trkpt>
      <trkpt lat="40.325203" lon="-5.856006">
        <ele>772.808</ele>
        <time>2021-10-13T12:27:16Z</time>
      </trkpt>
      <trkpt lat="40.325281" lon="-5.856100">
        <ele>773.445</ele>
        <time>2021-10-13T12:27:17Z</time>
      </trkpt>
      <trkpt lat="40.325326" lon="-5.856356">
        <ele>774.483</ele>
        <time>2021-10-13T12:27:19Z</time>
      </trkpt>
      <trkpt lat="40.325275" lon="-5.856512">
        <ele>776.980</ele>
        <time>2021-10-13T12:27:20Z</time>
      </trkpt>
      <trkpt lat="40.325014" lon="-5.856778">
        <ele>777.650</ele>
        <time>2021-10-13T12:27:22Z</time>
      </trkpt>
      <trkpt lat="40.324688" lon="-5.857029">
        <ele>779.213</ele>
        <time>2021-10-13T12:27:24Z</time>
      </trkpt>
      <trkpt lat="40.324369" lon="-5.857293">
        <ele>779.549</ele>
        <time>2021-10-13T12:27:26Z</time>
      </trkpt>
      <trkpt lat="40.324066" lon="-5.857604">
        <ele>780.268</ele>
        <time>2021-10-13T12:27:28Z</time>
      </trkpt>
      <trkpt lat="40.323930" lon="-5.857787">
        <ele>780.773</ele>
        <time>2021-10-13T12:27:29Z</time>
      </trkpt>
      <trkpt lat="40.323773" lon="-5.858185">
        <ele>779.676</ele>
        <time>2021-10-13T12:27:31Z</time>
      </trkpt>
      <trkpt lat="40.323757" lon="-5.858407">
        <ele>778.890</ele>
        <time>2021-10-13T12:27:32Z</time>
      </trkpt>
      <trkpt lat="40.323842" lon="-5.858840">
        <ele>779.819</ele>
        <time>2021-10-13T12:27:34Z</time>
      </trkpt>
      <trkpt lat="40.323899" lon="-5.859066">
        <ele>780.108</ele>
        <time>2021-10-13T12:27:35Z</time>
      </trkpt>
      <trkpt lat="40.323968" lon="-5.859288">
        <ele>781.255</ele>
        <time>2021-10-13T12:27:36Z</time>
      </trkpt>
      <trkpt lat="40.324102" lon="-5.859733">
        <ele>783.583</ele>
        <time>2021-10-13T12:27:38Z</time>
      </trkpt>
      <trkpt lat="40.324172" lon="-5.860103">
        <ele>785.110</ele>
        <time>2021-10-13T12:27:40Z</time>
      </trkpt>
      <trkpt lat="40.324174" lon="-5.860258">
        <ele>787.470</ele>
        <time>2021-10-13T12:27:41Z</time>
      </trkpt>
      <trkpt lat="40.324102" lon="-5.860492">
        <ele>790.153</ele>
        <time>2021-10-13T12:27:43Z</time>
      </trkpt>
      <trkpt lat="40.324080" lon="-5.860600">
        <ele>791.129</ele>
        <time>2021-10-13T12:27:44Z</time>
      </trkpt>
      <trkpt lat="40.324137" lon="-5.860797">
        <ele>793.458</ele>
        <time>2021-10-13T12:27:46Z</time>
      </trkpt>
      <trkpt lat="40.324300" lon="-5.860908">
        <ele>794.263</ele>
        <time>2021-10-13T12:27:48Z</time>
      </trkpt>
      <trkpt lat="40.324583" lon="-5.860800">
        <ele>796.534</ele>
        <time>2021-10-13T12:27:50Z</time>
      </trkpt>
      <trkpt lat="40.324953" lon="-5.860487">
        <ele>797.155</ele>
        <time>2021-10-13T12:27:52Z</time>
      </trkpt>
      <trkpt lat="40.325143" lon="-5.860299">
        <ele>798.310</ele>
        <time>2021-10-13T12:27:53Z</time>
      </trkpt>
      <trkpt lat="40.325325" lon="-5.860095">
        <ele>798.208</ele>
        <time>2021-10-13T12:27:54Z</time>
      </trkpt>
      <trkpt lat="40.325668" lon="-5.859700">
        <ele>799.891</ele>
        <time>2021-10-13T12:27:56Z</time>
      </trkpt>
      <trkpt lat="40.325933" lon="-5.859426">
        <ele>800.999</ele>
        <time>2021-10-13T12:27:58Z</time>
      </trkpt>
      <trkpt lat="40.326040" lon="-5.859325">
        <ele>802.076</ele>
        <time>2021-10-13T12:27:59Z</time>
      </trkpt>
      <trkpt lat="40.326231" lon="-5.859130">
        <ele>804.256</ele>
        <time>2021-10-13T12:28:01Z</time>
      </trkpt>
      <trkpt lat="40.326353" lon="-5.859001">
        <ele>804.819</ele>
        <time>2021-10-13T12:28:02Z</time>
      </trkpt>
      <trkpt lat="40.326641" lon="-5.858751">
        <ele>805.315</ele>
        <time>2021-10-13T12:28:04Z</time>
      </trkpt>
      <trkpt lat="40.326952" lon="-5.858444">
        <ele>806.594</ele>
        <time>2021-10-13T12:28:06Z</time>
      </trkpt>
      <trkpt lat="40.327317" lon="-5.858040">
        <ele>807.079</ele>
        <time>2021-10-13T12:28:08Z</time>
      </trkpt>
      <trkpt lat="40.327655" lon="-5.857667">
        <ele>807.788</ele>
        <time>2021-10-13T12:28:10Z</time>
      </trkpt>
      <trkpt lat="40.327785" lon="-5.857523">
        <ele>807.024</ele>
        <time>2021-10-13T12:28:11Z</time>
      </trkpt>
      <trkpt lat="40.327967" lon="-5.857311">
        <ele>807.126</ele>
        <time>2021-10-13T12:28:13Z</time>
      </trkpt>
      <trkpt lat="40.328012" lon="-5.857217">
        <ele>807.208</ele>
        <time>2021-10-13T12:28:14Z</time>
      </trkpt>
      <trkpt lat="40.327972" lon="-5.857060">
        <ele>808.186</ele>
        <time>2021-10-13T12:28:16Z</time>
      </trkpt>
      <trkpt lat="40.327907" lon="-5.857002">
        <ele>809.184</ele>
        <time>2021-10-13T12:28:17Z</time>
      </trkpt>
      <trkpt lat="40.327703" lon="-5.857003">
        <ele>810.791</ele>
        <time>2021-10-13T12:28:19Z</time>
      </trkpt>
      <trkpt lat="40.327568" lon="-5.857075">
        <ele>811.691</ele>
        <time>2021-10-13T12:28:20Z</time>
      </trkpt>
      <trkpt lat="40.327312" lon="-5.857162">
        <ele>815.054</ele>
        <time>2021-10-13T12:28:22Z</time>
      </trkpt>
      <trkpt lat="40.327110" lon="-5.857062">
        <ele>815.270</ele>
        <time>2021-10-13T12:28:24Z</time>
      </trkpt>
      <trkpt lat="40.327025" lon="-5.856934">
        <ele>817.199</ele>
        <time>2021-10-13T12:28:25Z</time>
      </trkpt>
      <trkpt lat="40.326950" lon="-5.856744">
        <ele>817.774</ele>
        <time>2021-10-13T12:28:26Z</time>
      </trkpt>
      <trkpt lat="40.326845" lon="-5.856326">
        <ele>821.834</ele>
        <time>2021-10-13T12:28:28Z</time>
      </trkpt>
      <trkpt lat="40.326823" lon="-5.856125">
        <ele>822.455</ele>
        <time>2021-10-13T12:28:29Z</time>
      </trkpt>
      <trkpt lat="40.326871" lon="-5.855780">
        <ele>824.310</ele>
        <time>2021-10-13T12:28:31Z</time>
      </trkpt>
      <trkpt lat="40.326962" lon="-5.855655">
        <ele>825.208</ele>
        <time>2021-10-13T12:28:32Z</time>
      </trkpt>
      <trkpt lat="40.327220" lon="-5.855552">
        <ele>826.251</ele>
        <time>2021-10-13T12:28:34Z</time>
      </trkpt>
      <trkpt lat="40.327496" lon="-5.855639">
        <ele>828.519</ele>
        <time>2021-10-13T12:28:36Z</time>
      </trkpt>
      <trkpt lat="40.327786" lon="-5.855729">
        <ele>829.546</ele>
        <time>2021-10-13T12:28:38Z</time>
      </trkpt>
      <trkpt lat="40.328092" lon="-5.855631">
        <ele>830.856</ele>
        <time>2021-10-13T12:28:40Z</time>
      </trkpt>
      <trkpt lat="40.328260" lon="-5.855541">
        <ele>831.239</ele>
        <time>2021-10-13T12:28:41Z</time>
      </trkpt>
      <trkpt lat="40.328642" lon="-5.855328">
        <ele>834.885</ele>
        <time>2021-10-13T12:28:43Z</time>
      </trkpt>
      <trkpt lat="40.328855" lon="-5.855208">
        <ele>835.994</ele>
        <time>2021-10-13T12:28:44Z</time>
      </trkpt>
      <trkpt lat="40.329283" lon="-5.854963">
        <ele>836.939</ele>
        <time>2021-10-13T12:28:46Z</time>
      </trkpt>
      <trkpt lat="40.329656" lon="-5.854640">
        <ele>839.622</ele>
        <time>2021-10-13T12:28:48Z</time>
      </trkpt>
      <trkpt lat="40.329819" lon="-5.854430">
        <ele>840.962</ele>
        <time>2021-10-13T12:28:49Z</time>
      </trkpt>
      <trkpt lat="40.329984" lon="-5.854204">
        <ele>841.808</ele>
        <time>2021-10-13T12:28:50Z</time>
      </trkpt>
      <trkpt lat="40.330353" lon="-5.853777">
        <ele>843.408</ele>
        <time>2021-10-13T12:28:52Z</time>
      </trkpt>
      <trkpt lat="40.330560" lon="-5.853567">
        <ele>844.450</ele>
        <time>2021-10-13T12:28:53Z</time>
      </trkpt>
      <trkpt lat="40.330758" lon="-5.853369">
        <ele>845.628</ele>
        <time>2021-10-13T12:28:54Z</time>
      </trkpt>
      <trkpt lat="40.331100" lon="-5.852974">
        <ele>848.635</ele>
        <time>2021-10-13T12:28:56Z</time>
      </trkpt>
      <trkpt lat="40.331372" lon="-5.852662">
        <ele>850.375</ele>
        <time>2021-10-13T12:28:58Z</time>
      </trkpt>
      <trkpt lat="40.331515" lon="-5.852540">
        <ele>851.068</ele>
        <time>2021-10-13T12:28:59Z</time>
      </trkpt>
      <trkpt lat="40.331662" lon="-5.852431">
        <ele>852.144</ele>
        <time>2021-10-13T12:29:00Z</time>
      </trkpt>
      <trkpt lat="40.331963" lon="-5.852215">
        <ele>854.953</ele>
        <time>2021-10-13T12:29:02Z</time>
      </trkpt>
      <trkpt lat="40.332234" lon="-5.852047">
        <ele>856.648</ele>
        <time>2021-10-13T12:29:04Z</time>
      </trkpt>
      <trkpt lat="40.332370" lon="-5.851993">
        <ele>857.743</ele>
        <time>2021-10-13T12:29:05Z</time>
      </trkpt>
      <trkpt lat="40.332524" lon="-5.851961">
        <ele>858.864</ele>
        <time>2021-10-13T12:29:06Z</time>
      </trkpt>
      <trkpt lat="40.332696" lon="-5.851949">
        <ele>859.110</ele>
        <time>2021-10-13T12:29:07Z</time>
      </trkpt>
      <trkpt lat="40.332885" lon="-5.851938">
        <ele>860.308</ele>
        <time>2021-10-13T12:29:08Z</time>
      </trkpt>
      <trkpt lat="40.333286" lon="-5.851894">
        <ele>864.272</ele>
        <time>2021-10-13T12:29:10Z</time>
      </trkpt>
      <trkpt lat="40.333705" lon="-5.851804">
        <ele>866.220</ele>
        <time>2021-10-13T12:29:12Z</time>
      </trkpt>
      <trkpt lat="40.333914" lon="-5.851729">
        <ele>866.927</ele>
        <time>2021-10-13T12:29:13Z</time>
      </trkpt>
      <trkpt lat="40.334117" lon="-5.851629">
        <ele>869.877</ele>
        <time>2021-10-13T12:29:14Z</time>
      </trkpt>
      <trkpt lat="40.334513" lon="-5.851373">
        <ele>873.170</ele>
        <time>2021-10-13T12:29:16Z</time>
      </trkpt>
      <trkpt lat="40.334718" lon="-5.851237">
        <ele>874.256</ele>
        <time>2021-10-13T12:29:17Z</time>
      </trkpt>
      <trkpt lat="40.335154" lon="-5.850939">
        <ele>878.175</ele>
        <time>2021-10-13T12:29:19Z</time>
      </trkpt>
      <trkpt lat="40.335383" lon="-5.850784">
        <ele>879.920</ele>
        <time>2021-10-13T12:29:20Z</time>
      </trkpt>
      <trkpt lat="40.335804" lon="-5.850500">
        <ele>882.728</ele>
        <time>2021-10-13T12:29:22Z</time>
      </trkpt>
      <trkpt lat="40.336163" lon="-5.850264">
        <ele>885.689</ele>
        <time>2021-10-13T12:29:24Z</time>
      </trkpt>
      <trkpt lat="40.336497" lon="-5.850050">
        <ele>888.717</ele>
        <time>2021-10-13T12:29:26Z</time>
      </trkpt>
      <trkpt lat="40.336826" lon="-5.849844">
        <ele>889.108</ele>
        <time>2021-10-13T12:29:28Z</time>
      </trkpt>
      <trkpt lat="40.337017" lon="-5.849745">
        <ele>890.150</ele>
        <time>2021-10-13T12:29:29Z</time>
      </trkpt>
      <trkpt lat="40.337439" lon="-5.849612">
        <ele>892.278</ele>
        <time>2021-10-13T12:29:31Z</time>
      </trkpt>
      <trkpt lat="40.337678" lon="-5.849572">
        <ele>893.355</ele>
        <time>2021-10-13T12:29:32Z</time>
      </trkpt>
      <trkpt lat="40.338134" lon="-5.849486">
        <ele>896.075</ele>
        <time>2021-10-13T12:29:34Z</time>
      </trkpt>
      <trkpt lat="40.338594" lon="-5.849399">
        <ele>897.148</ele>
        <time>2021-10-13T12:29:36Z</time>
      </trkpt>
      <trkpt lat="40.338811" lon="-5.849353">
        <ele>897.744</ele>
        <time>2021-10-13T12:29:37Z</time>
      </trkpt>
      <trkpt lat="40.339006" lon="-5.849315">
        <ele>898.373</ele>
        <time>2021-10-13T12:29:38Z</time>
      </trkpt>
      <trkpt lat="40.339361" lon="-5.849240">
        <ele>899.118</ele>
        <time>2021-10-13T12:29:40Z</time>
      </trkpt>
      <trkpt lat="40.339535" lon="-5.849210">
        <ele>899.941</ele>
        <time>2021-10-13T12:29:41Z</time>
      </trkpt>
      <trkpt lat="40.339865" lon="-5.849138">
        <ele>900.181</ele>
        <time>2021-10-13T12:29:43Z</time>
      </trkpt>
      <trkpt lat="40.340022" lon="-5.849099">
        <ele>900.409</ele>
        <time>2021-10-13T12:29:44Z</time>
      </trkpt>
      <trkpt lat="40.340266" lon="-5.849022">
        <ele>901.408</ele>
        <time>2021-10-13T12:29:46Z</time>
      </trkpt>
      <trkpt lat="40.340362" lon="-5.848976">
        <ele>901.392</ele>
        <time>2021-10-13T12:29:47Z</time>
      </trkpt>
      <trkpt lat="40.340510" lon="-5.848918">
        <ele>901.330</ele>
        <time>2021-10-13T12:29:49Z</time>
      </trkpt>
      <trkpt lat="40.340566" lon="-5.848919">
        <ele>901.337</ele>
        <time>2021-10-13T12:29:50Z</time>
      </trkpt>
      <trkpt lat="40.340619" lon="-5.848946">
        <ele>901.557</ele>
        <time>2021-10-13T12:29:52Z</time>
      </trkpt>
      <trkpt lat="40.340668" lon="-5.848990">
        <ele>900.980</ele>
        <time>2021-10-13T12:29:55Z</time>
      </trkpt>
      <trkpt lat="40.340714" lon="-5.848974">
        <ele>916.666</ele>
        <time>2021-10-13T12:30:21Z</time>
      </trkpt>
      <trkpt lat="40.340765" lon="-5.848922">
        <ele>938.195</ele>
        <time>2021-10-13T12:35:08Z</time>
      </trkpt>
      <trkpt lat="40.340853" lon="-5.848864">
        <ele>954.510</ele>
        <time>2021-10-13T12:35:10Z</time>
      </trkpt>
      <trkpt lat="40.340893" lon="-5.848833">
        <ele>954.532</ele>
        <time>2021-10-13T12:35:12Z</time>
      </trkpt>
      <trkpt lat="40.340903" lon="-5.848762">
        <ele>954.592</ele>
        <time>2021-10-13T12:35:18Z</time>
      </trkpt>
      <trkpt lat="40.340962" lon="-5.848658">
        <ele>953.411</ele>
        <time>2021-10-13T12:35:20Z</time>
      </trkpt>
      <trkpt lat="40.341147" lon="-5.848527">
        <ele>953.408</ele>
        <time>2021-10-13T12:35:22Z</time>
      </trkpt>
      <trkpt lat="40.341437" lon="-5.848365">
        <ele>953.491</ele>
        <time>2021-10-13T12:35:24Z</time>
      </trkpt>
      <trkpt lat="40.341680" lon="-5.848229">
        <ele>953.489</ele>
        <time>2021-10-13T12:35:26Z</time>
      </trkpt>
      <trkpt lat="40.341861" lon="-5.848127">
        <ele>953.326</ele>
        <time>2021-10-13T12:35:28Z</time>
      </trkpt>
      <trkpt lat="40.341943" lon="-5.848078">
        <ele>953.366</ele>
        <time>2021-10-13T12:35:29Z</time>
      </trkpt>
      <trkpt lat="40.342088" lon="-5.847999">
        <ele>953.369</ele>
        <time>2021-10-13T12:35:31Z</time>
      </trkpt>
      <trkpt lat="40.342167" lon="-5.847954">
        <ele>953.375</ele>
        <time>2021-10-13T12:35:32Z</time>
      </trkpt>
      <trkpt lat="40.342355" lon="-5.847845">
        <ele>953.274</ele>
        <time>2021-10-13T12:35:34Z</time>
      </trkpt>
      <trkpt lat="40.342573" lon="-5.847712">
        <ele>953.299</ele>
        <time>2021-10-13T12:35:36Z</time>
      </trkpt>
      <trkpt lat="40.342689" lon="-5.847647">
        <ele>953.281</ele>
        <time>2021-10-13T12:35:37Z</time>
      </trkpt>
      <trkpt lat="40.342812" lon="-5.847564">
        <ele>953.261</ele>
        <time>2021-10-13T12:35:38Z</time>
      </trkpt>
      <trkpt lat="40.343044" lon="-5.847326">
        <ele>953.217</ele>
        <time>2021-10-13T12:35:40Z</time>
      </trkpt>
      <trkpt lat="40.343184" lon="-5.847183">
        <ele>953.208</ele>
        <time>2021-10-13T12:35:41Z</time>
      </trkpt>
      <trkpt lat="40.343482" lon="-5.846857">
        <ele>953.296</ele>
        <time>2021-10-13T12:35:43Z</time>
      </trkpt>
      <trkpt lat="40.343641" lon="-5.846677">
        <ele>953.274</ele>
        <time>2021-10-13T12:35:44Z</time>
      </trkpt>
      <trkpt lat="40.343937" lon="-5.846330">
        <ele>953.381</ele>
        <time>2021-10-13T12:35:46Z</time>
      </trkpt>
      <trkpt lat="40.344212" lon="-5.846005">
        <ele>953.331</ele>
        <time>2021-10-13T12:35:48Z</time>
      </trkpt>
      <trkpt lat="40.344468" lon="-5.845735">
        <ele>953.354</ele>
        <time>2021-10-13T12:35:50Z</time>
      </trkpt>
      <trkpt lat="40.344703" lon="-5.845528">
        <ele>953.330</ele>
        <time>2021-10-13T12:35:52Z</time>
      </trkpt>
      <trkpt lat="40.344936" lon="-5.845387">
        <ele>953.339</ele>
        <time>2021-10-13T12:35:54Z</time>
      </trkpt>
      <trkpt lat="40.345056" lon="-5.845329">
        <ele>953.314</ele>
        <time>2021-10-13T12:35:55Z</time>
      </trkpt>
      <trkpt lat="40.345177" lon="-5.845262">
        <ele>953.367</ele>
        <time>2021-10-13T12:35:56Z</time>
      </trkpt>
      <trkpt lat="40.345383" lon="-5.845040">
        <ele>953.381</ele>
        <time>2021-10-13T12:35:58Z</time>
      </trkpt>
      <trkpt lat="40.345465" lon="-5.844888">
        <ele>953.319</ele>
        <time>2021-10-13T12:35:59Z</time>
      </trkpt>
      <trkpt lat="40.345541" lon="-5.844722">
        <ele>953.308</ele>
        <time>2021-10-13T12:36:00Z</time>
      </trkpt>
      <trkpt lat="40.345693" lon="-5.844393">
        <ele>953.414</ele>
        <time>2021-10-13T12:36:02Z</time>
      </trkpt>
      <trkpt lat="40.345918" lon="-5.844141">
        <ele>953.452</ele>
        <time>2021-10-13T12:36:04Z</time>
      </trkpt>
      <trkpt lat="40.346073" lon="-5.844047">
        <ele>920.239</ele>
        <time>2021-10-13T12:36:05Z</time>
      </trkpt>
      <trkpt lat="40.346245" lon="-5.843984">
        <ele>887.439</ele>
        <time>2021-10-13T12:36:06Z</time>
      </trkpt>
      <trkpt lat="40.346430" lon="-5.843951">
        <ele>889.042</ele>
        <time>2021-10-13T12:36:07Z</time>
      </trkpt>
      <trkpt lat="40.346623" lon="-5.843938">
        <ele>890.688</ele>
        <time>2021-10-13T12:36:08Z</time>
      </trkpt>
      <trkpt lat="40.346975" lon="-5.843876">
        <ele>892.747</ele>
        <time>2021-10-13T12:36:10Z</time>
      </trkpt>
      <trkpt lat="40.347133" lon="-5.843788">
        <ele>893.652</ele>
        <time>2021-10-13T12:36:11Z</time>
      </trkpt>
      <trkpt lat="40.347402" lon="-5.843504">
        <ele>895.521</ele>
        <time>2021-10-13T12:36:13Z</time>
      </trkpt>
      <trkpt lat="40.347534" lon="-5.843333">
        <ele>896.141</ele>
        <time>2021-10-13T12:36:14Z</time>
      </trkpt>
      <trkpt lat="40.347815" lon="-5.842997">
        <ele>897.505</ele>
        <time>2021-10-13T12:36:16Z</time>
      </trkpt>
      <trkpt lat="40.347985" lon="-5.842866">
        <ele>898.108</ele>
        <time>2021-10-13T12:36:17Z</time>
      </trkpt>
      <trkpt lat="40.348354" lon="-5.842739">
        <ele>901.540</ele>
        <time>2021-10-13T12:36:19Z</time>
      </trkpt>
      <trkpt lat="40.348543" lon="-5.842718">
        <ele>901.628</ele>
        <time>2021-10-13T12:36:20Z</time>
      </trkpt>
      <trkpt lat="40.348859" lon="-5.842587">
        <ele>905.465</ele>
        <time>2021-10-13T12:36:22Z</time>
      </trkpt>
      <trkpt lat="40.349008" lon="-5.842461">
        <ele>906.455</ele>
        <time>2021-10-13T12:36:23Z</time>
      </trkpt>
      <trkpt lat="40.349165" lon="-5.842327">
        <ele>907.618</ele>
        <time>2021-10-13T12:36:24Z</time>
      </trkpt>
      <trkpt lat="40.349331" lon="-5.842187">
        <ele>908.684</ele>
        <time>2021-10-13T12:36:25Z</time>
      </trkpt>
      <trkpt lat="40.349687" lon="-5.841899">
        <ele>911.753</ele>
        <time>2021-10-13T12:36:27Z</time>
      </trkpt>
      <trkpt lat="40.350042" lon="-5.841600">
        <ele>913.368</ele>
        <time>2021-10-13T12:36:29Z</time>
      </trkpt>
      <trkpt lat="40.350223" lon="-5.841443">
        <ele>914.815</ele>
        <time>2021-10-13T12:36:30Z</time>
      </trkpt>
      <trkpt lat="40.350571" lon="-5.841145">
        <ele>916.065</ele>
        <time>2021-10-13T12:36:32Z</time>
      </trkpt>
      <trkpt lat="40.350866" lon="-5.840773">
        <ele>920.811</ele>
        <time>2021-10-13T12:36:34Z</time>
      </trkpt>
      <trkpt lat="40.350988" lon="-5.840548">
        <ele>922.408</ele>
        <time>2021-10-13T12:36:35Z</time>
      </trkpt>
      <trkpt lat="40.351157" lon="-5.840155">
        <ele>925.379</ele>
        <time>2021-10-13T12:36:37Z</time>
      </trkpt>
      <trkpt lat="40.351208" lon="-5.839979">
        <ele>925.257</ele>
        <time>2021-10-13T12:36:38Z</time>
      </trkpt>
      <trkpt lat="40.351219" lon="-5.839588">
        <ele>928.814</ele>
        <time>2021-10-13T12:36:40Z</time>
      </trkpt>
      <trkpt lat="40.351193" lon="-5.839142">
        <ele>931.854</ele>
        <time>2021-10-13T12:36:42Z</time>
      </trkpt>
      <trkpt lat="40.351235" lon="-5.838650">
        <ele>933.157</ele>
        <time>2021-10-13T12:36:44Z</time>
      </trkpt>
      <trkpt lat="40.351340" lon="-5.838164">
        <ele>935.833</ele>
        <time>2021-10-13T12:36:46Z</time>
      </trkpt>
      <trkpt lat="40.351417" lon="-5.837675">
        <ele>935.522</ele>
        <time>2021-10-13T12:36:48Z</time>
      </trkpt>
      <trkpt lat="40.351444" lon="-5.837425">
        <ele>936.797</ele>
        <time>2021-10-13T12:36:49Z</time>
      </trkpt>
      <trkpt lat="40.351458" lon="-5.837183">
        <ele>937.411</ele>
        <time>2021-10-13T12:36:50Z</time>
      </trkpt>
      <trkpt lat="40.351420" lon="-5.836725">
        <ele>938.821</ele>
        <time>2021-10-13T12:36:52Z</time>
      </trkpt>
      <trkpt lat="40.351296" lon="-5.836331">
        <ele>940.303</ele>
        <time>2021-10-13T12:36:54Z</time>
      </trkpt>
      <trkpt lat="40.351233" lon="-5.836164">
        <ele>941.608</ele>
        <time>2021-10-13T12:36:55Z</time>
      </trkpt>
      <trkpt lat="40.351199" lon="-5.835987">
        <ele>943.389</ele>
        <time>2021-10-13T12:36:56Z</time>
      </trkpt>
      <trkpt lat="40.351203" lon="-5.835634">
        <ele>944.477</ele>
        <time>2021-10-13T12:36:58Z</time>
      </trkpt>
      <trkpt lat="40.351247" lon="-5.835444">
        <ele>944.914</ele>
        <time>2021-10-13T12:36:59Z</time>
      </trkpt>
      <trkpt lat="40.351315" lon="-5.835244">
        <ele>946.474</ele>
        <time>2021-10-13T12:37:00Z</time>
      </trkpt>
      <trkpt lat="40.351389" lon="-5.835030">
        <ele>947.477</ele>
        <time>2021-10-13T12:37:01Z</time>
      </trkpt>
      <trkpt lat="40.351454" lon="-5.834797">
        <ele>948.073</ele>
        <time>2021-10-13T12:37:02Z</time>
      </trkpt>
      <trkpt lat="40.351542" lon="-5.834327">
        <ele>949.892</ele>
        <time>2021-10-13T12:37:04Z</time>
      </trkpt>
      <trkpt lat="40.351656" lon="-5.833876">
        <ele>952.177</ele>
        <time>2021-10-13T12:37:06Z</time>
      </trkpt>
      <trkpt lat="40.351863" lon="-5.833505">
        <ele>955.727</ele>
        <time>2021-10-13T12:37:08Z</time>
      </trkpt>
      <trkpt lat="40.352095" lon="-5.833230">
        <ele>957.068</ele>
        <time>2021-10-13T12:37:10Z</time>
      </trkpt>
      <trkpt lat="40.352232" lon="-5.832863">
        <ele>958.214</ele>
        <time>2021-10-13T12:37:12Z</time>
      </trkpt>
      <trkpt lat="40.352274" lon="-5.832655">
        <ele>958.808</ele>
        <time>2021-10-13T12:37:13Z</time>
      </trkpt>
      <trkpt lat="40.352309" lon="-5.832455">
        <ele>959.410</ele>
        <time>2021-10-13T12:37:14Z</time>
      </trkpt>
      <trkpt lat="40.352386" lon="-5.832137">
        <ele>960.168</ele>
        <time>2021-10-13T12:37:16Z</time>
      </trkpt>
      <trkpt lat="40.352522" lon="-5.831934">
        <ele>962.055</ele>
        <time>2021-10-13T12:37:18Z</time>
      </trkpt>
      <trkpt lat="40.352772" lon="-5.831870">
        <ele>962.045</ele>
        <time>2021-10-13T12:37:20Z</time>
      </trkpt>
      <trkpt lat="40.353035" lon="-5.831928">
        <ele>963.088</ele>
        <time>2021-10-13T12:37:22Z</time>
      </trkpt>
      <trkpt lat="40.353146" lon="-5.832017">
        <ele>963.194</ele>
        <time>2021-10-13T12:37:23Z</time>
      </trkpt>
      <trkpt lat="40.353233" lon="-5.832144">
        <ele>963.553</ele>
        <time>2021-10-13T12:37:24Z</time>
      </trkpt>
      <trkpt lat="40.353315" lon="-5.832526">
        <ele>965.398</ele>
        <time>2021-10-13T12:37:26Z</time>
      </trkpt>
      <trkpt lat="40.353319" lon="-5.832991">
        <ele>966.716</ele>
        <time>2021-10-13T12:37:28Z</time>
      </trkpt>
      <trkpt lat="40.353382" lon="-5.833409">
        <ele>966.976</ele>
        <time>2021-10-13T12:37:30Z</time>
      </trkpt>
      <trkpt lat="40.353556" lon="-5.833635">
        <ele>967.313</ele>
        <time>2021-10-13T12:37:32Z</time>
      </trkpt>
      <trkpt lat="40.353845" lon="-5.833570">
        <ele>968.608</ele>
        <time>2021-10-13T12:37:34Z</time>
      </trkpt>
      <trkpt lat="40.354037" lon="-5.833465">
        <ele>969.179</ele>
        <time>2021-10-13T12:37:35Z</time>
      </trkpt>
      <trkpt lat="40.354449" lon="-5.833281">
        <ele>968.357</ele>
        <time>2021-10-13T12:37:37Z</time>
      </trkpt>
      <trkpt lat="40.354660" lon="-5.833181">
        <ele>967.944</ele>
        <time>2021-10-13T12:37:38Z</time>
      </trkpt>
      <trkpt lat="40.355035" lon="-5.832941">
        <ele>968.354</ele>
        <time>2021-10-13T12:37:40Z</time>
      </trkpt>
      <trkpt lat="40.355226" lon="-5.832767">
        <ele>967.787</ele>
        <time>2021-10-13T12:37:41Z</time>
      </trkpt>
      <trkpt lat="40.355420" lon="-5.832562">
        <ele>967.473</ele>
        <time>2021-10-13T12:37:42Z</time>
      </trkpt>
      <trkpt lat="40.355847" lon="-5.832153">
        <ele>966.812</ele>
        <time>2021-10-13T12:37:44Z</time>
      </trkpt>
      <trkpt lat="40.356311" lon="-5.831851">
        <ele>967.037</ele>
        <time>2021-10-13T12:37:46Z</time>
      </trkpt>
      <trkpt lat="40.356540" lon="-5.831741">
        <ele>966.632</ele>
        <time>2021-10-13T12:37:47Z</time>
      </trkpt>
      <trkpt lat="40.356941" lon="-5.831533">
        <ele>966.492</ele>
        <time>2021-10-13T12:37:49Z</time>
      </trkpt>
      <trkpt lat="40.357117" lon="-5.831409">
        <ele>966.311</ele>
        <time>2021-10-13T12:37:50Z</time>
      </trkpt>
      <trkpt lat="40.357413" lon="-5.831071">
        <ele>964.108</ele>
        <time>2021-10-13T12:37:52Z</time>
      </trkpt>
      <trkpt lat="40.357703" lon="-5.830650">
        <ele>962.931</ele>
        <time>2021-10-13T12:37:54Z</time>
      </trkpt>
      <trkpt lat="40.357835" lon="-5.830427">
        <ele>961.339</ele>
        <time>2021-10-13T12:37:55Z</time>
      </trkpt>
      <trkpt lat="40.357941" lon="-5.830181">
        <ele>961.186</ele>
        <time>2021-10-13T12:37:56Z</time>
      </trkpt>
      <trkpt lat="40.358070" lon="-5.829656">
        <ele>960.276</ele>
        <time>2021-10-13T12:37:58Z</time>
      </trkpt>
      <trkpt lat="40.358127" lon="-5.829399">
        <ele>959.599</ele>
        <time>2021-10-13T12:37:59Z</time>
      </trkpt>
      <trkpt lat="40.358266" lon="-5.828980">
        <ele>959.395</ele>
        <time>2021-10-13T12:38:01Z</time>
      </trkpt>
      <trkpt lat="40.358358" lon="-5.828812">
        <ele>958.814</ele>
        <time>2021-10-13T12:38:02Z</time>
      </trkpt>
      <trkpt lat="40.358633" lon="-5.828608">
        <ele>958.899</ele>
        <time>2021-10-13T12:38:04Z</time>
      </trkpt>
      <trkpt lat="40.358822" lon="-5.828546">
        <ele>958.587</ele>
        <time>2021-10-13T12:38:05Z</time>
      </trkpt>
      <trkpt lat="40.359224" lon="-5.828424">
        <ele>960.742</ele>
        <time>2021-10-13T12:38:07Z</time>
      </trkpt>
      <trkpt lat="40.359419" lon="-5.828358">
        <ele>961.526</ele>
        <time>2021-10-13T12:38:08Z</time>
      </trkpt>
      <trkpt lat="40.359752" lon="-5.828213">
        <ele>962.808</ele>
        <time>2021-10-13T12:38:10Z</time>
      </trkpt>
      <trkpt lat="40.359897" lon="-5.828114">
        <ele>963.176</ele>
        <time>2021-10-13T12:38:11Z</time>
      </trkpt>
      <trkpt lat="40.360157" lon="-5.827805">
        <ele>962.194</ele>
        <time>2021-10-13T12:38:13Z</time>
      </trkpt>
      <trkpt lat="40.360282" lon="-5.827603">
        <ele>961.941</ele>
        <time>2021-10-13T12:38:14Z</time>
      </trkpt>
      <trkpt lat="40.360553" lon="-5.827202">
        <ele>960.711</ele>
        <time>2021-10-13T12:38:16Z</time>
      </trkpt>
      <trkpt lat="40.360879" lon="-5.826800">
        <ele>958.444</ele>
        <time>2021-10-13T12:38:18Z</time>
      </trkpt>
      <trkpt lat="40.361067" lon="-5.826618">
        <ele>956.920</ele>
        <time>2021-10-13T12:38:19Z</time>
      </trkpt>
      <trkpt lat="40.361266" lon="-5.826462">
        <ele>955.679</ele>
        <time>2021-10-13T12:38:20Z</time>
      </trkpt>
      <trkpt lat="40.361671" lon="-5.826261">
        <ele>953.214</ele>
        <time>2021-10-13T12:38:22Z</time>
      </trkpt>
      <trkpt lat="40.361891" lon="-5.826219">
        <ele>952.477</ele>
        <time>2021-10-13T12:38:23Z</time>
      </trkpt>
      <trkpt lat="40.362327" lon="-5.826200">
        <ele>952.061</ele>
        <time>2021-10-13T12:38:25Z</time>
      </trkpt>
      <trkpt lat="40.362535" lon="-5.826160">
        <ele>952.027</ele>
        <time>2021-10-13T12:38:26Z</time>
      </trkpt>
      <trkpt lat="40.362921" lon="-5.825970">
        <ele>951.508</ele>
        <time>2021-10-13T12:38:28Z</time>
      </trkpt>
      <trkpt lat="40.363116" lon="-5.825831">
        <ele>951.455</ele>
        <time>2021-10-13T12:38:29Z</time>
      </trkpt>
      <trkpt lat="40.363514" lon="-5.825537">
        <ele>950.643</ele>
        <time>2021-10-13T12:38:31Z</time>
      </trkpt>
      <trkpt lat="40.363734" lon="-5.825385">
        <ele>949.440</ele>
        <time>2021-10-13T12:38:32Z</time>
      </trkpt>
      <trkpt lat="40.364170" lon="-5.825087">
        <ele>947.650</ele>
        <time>2021-10-13T12:38:34Z</time>
      </trkpt>
      <trkpt lat="40.364394" lon="-5.824940">
        <ele>946.553</ele>
        <time>2021-10-13T12:38:35Z</time>
      </trkpt>
      <trkpt lat="40.364612" lon="-5.824807">
        <ele>945.119</ele>
        <time>2021-10-13T12:38:36Z</time>
      </trkpt>
      <trkpt lat="40.364827" lon="-5.824675">
        <ele>944.028</ele>
        <time>2021-10-13T12:38:37Z</time>
      </trkpt>
      <trkpt lat="40.365027" lon="-5.824548">
        <ele>943.393</ele>
        <time>2021-10-13T12:38:38Z</time>
      </trkpt>
      <trkpt lat="40.365378" lon="-5.824260">
        <ele>940.991</ele>
        <time>2021-10-13T12:38:40Z</time>
      </trkpt>
      <trkpt lat="40.365538" lon="-5.824070">
        <ele>939.781</ele>
        <time>2021-10-13T12:38:41Z</time>
      </trkpt>
      <trkpt lat="40.365696" lon="-5.823866">
        <ele>938.519</ele>
        <time>2021-10-13T12:38:42Z</time>
      </trkpt>
      <trkpt lat="40.365866" lon="-5.823650">
        <ele>938.008</ele>
        <time>2021-10-13T12:38:43Z</time>
      </trkpt>
      <trkpt lat="40.366043" lon="-5.823450">
        <ele>936.697</ele>
        <time>2021-10-13T12:38:44Z</time>
      </trkpt>
      <trkpt lat="40.366389" lon="-5.823113">
        <ele>935.895</ele>
        <time>2021-10-13T12:38:46Z</time>
      </trkpt>
      <trkpt lat="40.366709" lon="-5.822702">
        <ele>934.052</ele>
        <time>2021-10-13T12:38:48Z</time>
      </trkpt>
      <trkpt lat="40.366846" lon="-5.822450">
        <ele>933.722</ele>
        <time>2021-10-13T12:38:49Z</time>
      </trkpt>
      <trkpt lat="40.366971" lon="-5.822171">
        <ele>933.225</ele>
        <time>2021-10-13T12:38:50Z</time>
      </trkpt>
      <trkpt lat="40.367195" lon="-5.821636">
        <ele>931.481</ele>
        <time>2021-10-13T12:38:52Z</time>
      </trkpt>
      <trkpt lat="40.367302" lon="-5.821384">
        <ele>931.170</ele>
        <time>2021-10-13T12:38:53Z</time>
      </trkpt>
      <trkpt lat="40.367505" lon="-5.820937">
        <ele>930.535</ele>
        <time>2021-10-13T12:38:55Z</time>
      </trkpt>
      <trkpt lat="40.367612" lon="-5.820745">
        <ele>930.291</ele>
        <time>2021-10-13T12:38:56Z</time>
      </trkpt>
      <trkpt lat="40.367858" lon="-5.820497">
        <ele>930.281</ele>
        <time>2021-10-13T12:38:58Z</time>
      </trkpt>
      <trkpt lat="40.368201" lon="-5.820471">
        <ele>929.019</ele>
        <time>2021-10-13T12:39:00Z</time>
      </trkpt>
      <trkpt lat="40.368401" lon="-5.820521">
        <ele>929.008</ele>
        <time>2021-10-13T12:39:01Z</time>
      </trkpt>
      <trkpt lat="40.368623" lon="-5.820582">
        <ele>929.097</ele>
        <time>2021-10-13T12:39:02Z</time>
      </trkpt>
      <trkpt lat="40.369087" lon="-5.820666">
        <ele>929.035</ele>
        <time>2021-10-13T12:39:04Z</time>
      </trkpt>
      <trkpt lat="40.369582" lon="-5.820744">
        <ele>928.532</ele>
        <time>2021-10-13T12:39:06Z</time>
      </trkpt>
      <trkpt lat="40.369823" lon="-5.820783">
        <ele>929.152</ele>
        <time>2021-10-13T12:39:07Z</time>
      </trkpt>
      <trkpt lat="40.370060" lon="-5.820823">
        <ele>929.735</ele>
        <time>2021-10-13T12:39:08Z</time>
      </trkpt>
      <trkpt lat="40.370432" lon="-5.820866">
        <ele>929.411</ele>
        <time>2021-10-13T12:39:10Z</time>
      </trkpt>
      <trkpt lat="40.370600" lon="-5.820872">
        <ele>929.270</ele>
        <time>2021-10-13T12:39:11Z</time>
      </trkpt>
      <trkpt lat="40.370761" lon="-5.820856">
        <ele>929.375</ele>
        <time>2021-10-13T12:39:12Z</time>
      </trkpt>
      <trkpt lat="40.370921" lon="-5.820818">
        <ele>928.698</ele>
        <time>2021-10-13T12:39:13Z</time>
      </trkpt>
      <trkpt lat="40.371099" lon="-5.820755">
        <ele>927.415</ele>
        <time>2021-10-13T12:39:14Z</time>
      </trkpt>
      <trkpt lat="40.371487" lon="-5.820566">
        <ele>925.526</ele>
        <time>2021-10-13T12:39:16Z</time>
      </trkpt>
      <trkpt lat="40.371695" lon="-5.820451">
        <ele>925.008</ele>
        <time>2021-10-13T12:39:17Z</time>
      </trkpt>
      <trkpt lat="40.372092" lon="-5.820228">
        <ele>922.917</ele>
        <time>2021-10-13T12:39:19Z</time>
      </trkpt>
      <trkpt lat="40.372279" lon="-5.820119">
        <ele>921.565</ele>
        <time>2021-10-13T12:39:20Z</time>
      </trkpt>
      <trkpt lat="40.372631" lon="-5.819916">
        <ele>920.412</ele>
        <time>2021-10-13T12:39:22Z</time>
      </trkpt>
      <trkpt lat="40.372995" lon="-5.819689">
        <ele>919.312</ele>
        <time>2021-10-13T12:39:24Z</time>
      </trkpt>
      <trkpt lat="40.373374" lon="-5.819396">
        <ele>917.325</ele>
        <time>2021-10-13T12:39:26Z</time>
      </trkpt>
      <trkpt lat="40.373734" lon="-5.819047">
        <ele>915.371</ele>
        <time>2021-10-13T12:39:28Z</time>
      </trkpt>
      <trkpt lat="40.374063" lon="-5.818632">
        <ele>912.360</ele>
        <time>2021-10-13T12:39:30Z</time>
      </trkpt>
      <trkpt lat="40.374384" lon="-5.818235">
        <ele>909.595</ele>
        <time>2021-10-13T12:39:32Z</time>
      </trkpt>
      <trkpt lat="40.374770" lon="-5.817917">
        <ele>908.438</ele>
        <time>2021-10-13T12:39:34Z</time>
      </trkpt>
      <trkpt lat="40.374994" lon="-5.817778">
        <ele>908.270</ele>
        <time>2021-10-13T12:39:35Z</time>
      </trkpt>
      <trkpt lat="40.375472" lon="-5.817504">
        <ele>907.817</ele>
        <time>2021-10-13T12:39:37Z</time>
      </trkpt>
      <trkpt lat="40.375729" lon="-5.817355">
        <ele>907.508</ele>
        <time>2021-10-13T12:39:38Z</time>
      </trkpt>
      <trkpt lat="40.376224" lon="-5.817067">
        <ele>906.221</ele>
        <time>2021-10-13T12:39:40Z</time>
      </trkpt>
      <trkpt lat="40.376720" lon="-5.816765">
        <ele>908.099</ele>
        <time>2021-10-13T12:39:42Z</time>
      </trkpt>
      <trkpt lat="40.376974" lon="-5.816610">
        <ele>908.466</ele>
        <time>2021-10-13T12:39:43Z</time>
      </trkpt>
      <trkpt lat="40.377217" lon="-5.816465">
        <ele>909.266</ele>
        <time>2021-10-13T12:39:44Z</time>
      </trkpt>
      <trkpt lat="40.377651" lon="-5.816216">
        <ele>911.419</ele>
        <time>2021-10-13T12:39:46Z</time>
      </trkpt>
      <trkpt lat="40.378062" lon="-5.816056">
        <ele>913.995</ele>
        <time>2021-10-13T12:39:48Z</time>
      </trkpt>
      <trkpt lat="40.378456" lon="-5.815932">
        <ele>915.454</ele>
        <time>2021-10-13T12:39:50Z</time>
      </trkpt>
      <trkpt lat="40.378827" lon="-5.815692">
        <ele>914.449</ele>
        <time>2021-10-13T12:39:52Z</time>
      </trkpt>
      <trkpt lat="40.379018" lon="-5.815510">
        <ele>914.917</ele>
        <time>2021-10-13T12:39:53Z</time>
      </trkpt>
      <trkpt lat="40.379208" lon="-5.815305">
        <ele>915.187</ele>
        <time>2021-10-13T12:39:54Z</time>
      </trkpt>
      <trkpt lat="40.379622" lon="-5.814910">
        <ele>913.415</ele>
        <time>2021-10-13T12:39:56Z</time>
      </trkpt>
      <trkpt lat="40.380045" lon="-5.814606">
        <ele>910.608</ele>
        <time>2021-10-13T12:39:58Z</time>
      </trkpt>
      <trkpt lat="40.380412" lon="-5.814275">
        <ele>908.799</ele>
        <time>2021-10-13T12:40:00Z</time>
      </trkpt>
      <trkpt lat="40.380690" lon="-5.813827">
        <ele>906.857</ele>
        <time>2021-10-13T12:40:02Z</time>
      </trkpt>
      <trkpt lat="40.380880" lon="-5.813298">
        <ele>906.174</ele>
        <time>2021-10-13T12:40:04Z</time>
      </trkpt>
      <trkpt lat="40.380946" lon="-5.812991">
        <ele>905.434</ele>
        <time>2021-10-13T12:40:05Z</time>
      </trkpt>
      <trkpt lat="40.381007" lon="-5.812687">
        <ele>904.997</ele>
        <time>2021-10-13T12:40:06Z</time>
      </trkpt>
      <trkpt lat="40.381159" lon="-5.812087">
        <ele>903.653</ele>
        <time>2021-10-13T12:40:08Z</time>
      </trkpt>
      <trkpt lat="40.381391" lon="-5.811576">
        <ele>901.882</ele>
        <time>2021-10-13T12:40:10Z</time>
      </trkpt>
      <trkpt lat="40.381531" lon="-5.811359">
        <ele>901.147</ele>
        <time>2021-10-13T12:40:11Z</time>
      </trkpt>
      <trkpt lat="40.381671" lon="-5.811154">
        <ele>900.144</ele>
        <time>2021-10-13T12:40:12Z</time>
      </trkpt>
      <trkpt lat="40.381906" lon="-5.810695">
        <ele>899.705</ele>
        <time>2021-10-13T12:40:14Z</time>
      </trkpt>
      <trkpt lat="40.382049" lon="-5.810214">
        <ele>897.215</ele>
        <time>2021-10-13T12:40:16Z</time>
      </trkpt>
      <trkpt lat="40.382123" lon="-5.809782">
        <ele>897.108</ele>
        <time>2021-10-13T12:40:18Z</time>
      </trkpt>
      <trkpt lat="40.382133" lon="-5.809374">
        <ele>894.942</ele>
        <time>2021-10-13T12:40:20Z</time>
      </trkpt>
      <trkpt lat="40.382099" lon="-5.809004">
        <ele>894.440</ele>
        <time>2021-10-13T12:40:22Z</time>
      </trkpt>
      <trkpt lat="40.382039" lon="-5.808623">
        <ele>892.947</ele>
        <time>2021-10-13T12:40:24Z</time>
      </trkpt>
      <trkpt lat="40.381984" lon="-5.808204">
        <ele>891.387</ele>
        <time>2021-10-13T12:40:26Z</time>
      </trkpt>
      <trkpt lat="40.381976" lon="-5.807759">
        <ele>890.190</ele>
        <time>2021-10-13T12:40:28Z</time>
      </trkpt>
      <trkpt lat="40.381985" lon="-5.807522">
        <ele>890.526</ele>
        <time>2021-10-13T12:40:29Z</time>
      </trkpt>
      <trkpt lat="40.381972" lon="-5.807055">
        <ele>888.525</ele>
        <time>2021-10-13T12:40:31Z</time>
      </trkpt>
      <trkpt lat="40.381937" lon="-5.806829">
        <ele>888.630</ele>
        <time>2021-10-13T12:40:32Z</time>
      </trkpt>
      <trkpt lat="40.381840" lon="-5.806440">
        <ele>887.325</ele>
        <time>2021-10-13T12:40:34Z</time>
      </trkpt>
      <trkpt lat="40.381788" lon="-5.806253">
        <ele>886.926</ele>
        <time>2021-10-13T12:40:35Z</time>
      </trkpt>
      <trkpt lat="40.381702" lon="-5.805899">
        <ele>886.408</ele>
        <time>2021-10-13T12:40:37Z</time>
      </trkpt>
      <trkpt lat="40.381661" lon="-5.805713">
        <ele>887.208</ele>
        <time>2021-10-13T12:40:38Z</time>
      </trkpt>
      <trkpt lat="40.381615" lon="-5.805341">
        <ele>887.370</ele>
        <time>2021-10-13T12:40:40Z</time>
      </trkpt>
      <trkpt lat="40.381610" lon="-5.805146">
        <ele>886.778</ele>
        <time>2021-10-13T12:40:41Z</time>
      </trkpt>
      <trkpt lat="40.381616" lon="-5.804956">
        <ele>886.825</ele>
        <time>2021-10-13T12:40:42Z</time>
      </trkpt>
      <trkpt lat="40.381639" lon="-5.804593">
        <ele>887.095</ele>
        <time>2021-10-13T12:40:44Z</time>
      </trkpt>
      <trkpt lat="40.381665" lon="-5.804275">
        <ele>888.378</ele>
        <time>2021-10-13T12:40:46Z</time>
      </trkpt>
      <trkpt lat="40.381694" lon="-5.804123">
        <ele>889.294</ele>
        <time>2021-10-13T12:40:47Z</time>
      </trkpt>
      <trkpt lat="40.381804" lon="-5.803843">
        <ele>889.233</ele>
        <time>2021-10-13T12:40:49Z</time>
      </trkpt>
      <trkpt lat="40.381887" lon="-5.803718">
        <ele>889.658</ele>
        <time>2021-10-13T12:40:50Z</time>
      </trkpt>
      <trkpt lat="40.382062" lon="-5.803523">
        <ele>889.639</ele>
        <time>2021-10-13T12:40:52Z</time>
      </trkpt>
      <trkpt lat="40.382148" lon="-5.803419">
        <ele>888.901</ele>
        <time>2021-10-13T12:40:53Z</time>
      </trkpt>
      <trkpt lat="40.382306" lon="-5.803179">
        <ele>888.121</ele>
        <time>2021-10-13T12:40:55Z</time>
      </trkpt>
      <trkpt lat="40.382369" lon="-5.803019">
        <ele>887.508</ele>
        <time>2021-10-13T12:40:56Z</time>
      </trkpt>
      <trkpt lat="40.382397" lon="-5.802632">
        <ele>885.181</ele>
        <time>2021-10-13T12:40:58Z</time>
      </trkpt>
      <trkpt lat="40.382306" lon="-5.802146">
        <ele>883.839</ele>
        <time>2021-10-13T12:41:00Z</time>
      </trkpt>
      <trkpt lat="40.382236" lon="-5.801880">
        <ele>883.376</ele>
        <time>2021-10-13T12:41:01Z</time>
      </trkpt>
      <trkpt lat="40.382164" lon="-5.801606">
        <ele>881.946</ele>
        <time>2021-10-13T12:41:02Z</time>
      </trkpt>
      <trkpt lat="40.382025" lon="-5.801028">
        <ele>879.149</ele>
        <time>2021-10-13T12:41:04Z</time>
      </trkpt>
      <trkpt lat="40.381932" lon="-5.800503">
        <ele>878.375</ele>
        <time>2021-10-13T12:41:06Z</time>
      </trkpt>
      <trkpt lat="40.381883" lon="-5.800056">
        <ele>877.554</ele>
        <time>2021-10-13T12:41:08Z</time>
      </trkpt>
      <trkpt lat="40.381869" lon="-5.799654">
        <ele>875.819</ele>
        <time>2021-10-13T12:41:10Z</time>
      </trkpt>
      <trkpt lat="40.381887" lon="-5.799447">
        <ele>875.673</ele>
        <time>2021-10-13T12:41:11Z</time>
      </trkpt>
      <trkpt lat="40.381911" lon="-5.799235">
        <ele>875.385</ele>
        <time>2021-10-13T12:41:12Z</time>
      </trkpt>
      <trkpt lat="40.381915" lon="-5.798783">
        <ele>874.613</ele>
        <time>2021-10-13T12:41:14Z</time>
      </trkpt>
      <trkpt lat="40.381798" lon="-5.798394">
        <ele>875.308</ele>
        <time>2021-10-13T12:41:16Z</time>
      </trkpt>
      <trkpt lat="40.381703" lon="-5.798242">
        <ele>874.845</ele>
        <time>2021-10-13T12:41:17Z</time>
      </trkpt>
      <trkpt lat="40.381512" lon="-5.797985">
        <ele>874.883</ele>
        <time>2021-10-13T12:41:19Z</time>
      </trkpt>
      <trkpt lat="40.381454" lon="-5.797850">
        <ele>875.160</ele>
        <time>2021-10-13T12:41:20Z</time>
      </trkpt>
      <trkpt lat="40.381432" lon="-5.797558">
        <ele>875.710</ele>
        <time>2021-10-13T12:41:22Z</time>
      </trkpt>
      <trkpt lat="40.381450" lon="-5.797397">
        <ele>875.173</ele>
        <time>2021-10-13T12:41:23Z</time>
      </trkpt>
      <trkpt lat="40.381510" lon="-5.797077">
        <ele>874.589</ele>
        <time>2021-10-13T12:41:25Z</time>
      </trkpt>
      <trkpt lat="40.381560" lon="-5.796938">
        <ele>872.838</ele>
        <time>2021-10-13T12:41:26Z</time>
      </trkpt>
      <trkpt lat="40.381727" lon="-5.796766">
        <ele>870.313</ele>
        <time>2021-10-13T12:41:28Z</time>
      </trkpt>
      <trkpt lat="40.381828" lon="-5.796713">
        <ele>867.786</ele>
        <time>2021-10-13T12:41:29Z</time>
      </trkpt>
      <trkpt lat="40.381937" lon="-5.796672">
        <ele>867.060</ele>
        <time>2021-10-13T12:41:30Z</time>
      </trkpt>
      <trkpt lat="40.382154" lon="-5.796569">
        <ele>863.626</ele>
        <time>2021-10-13T12:41:32Z</time>
      </trkpt>
      <trkpt lat="40.382317" lon="-5.796420">
        <ele>861.108</ele>
        <time>2021-10-13T12:41:34Z</time>
      </trkpt>
      <trkpt lat="40.382424" lon="-5.796141">
        <ele>859.326</ele>
        <time>2021-10-13T12:41:36Z</time>
      </trkpt>
      <trkpt lat="40.382468" lon="-5.795959">
        <ele>858.424</ele>
        <time>2021-10-13T12:41:37Z</time>
      </trkpt>
      <trkpt lat="40.382523" lon="-5.795755">
        <ele>857.211</ele>
        <time>2021-10-13T12:41:38Z</time>
      </trkpt>
      <trkpt lat="40.382649" lon="-5.795342">
        <ele>855.361</ele>
        <time>2021-10-13T12:41:40Z</time>
      </trkpt>
      <trkpt lat="40.382720" lon="-5.795132">
        <ele>855.354</ele>
        <time>2021-10-13T12:41:41Z</time>
      </trkpt>
      <trkpt lat="40.382878" lon="-5.794726">
        <ele>854.270</ele>
        <time>2021-10-13T12:41:43Z</time>
      </trkpt>
      <trkpt lat="40.382967" lon="-5.794527">
        <ele>854.139</ele>
        <time>2021-10-13T12:41:44Z</time>
      </trkpt>
      <trkpt lat="40.383145" lon="-5.794161">
        <ele>853.954</ele>
        <time>2021-10-13T12:41:46Z</time>
      </trkpt>
      <trkpt lat="40.383312" lon="-5.793807">
        <ele>853.256</ele>
        <time>2021-10-13T12:41:48Z</time>
      </trkpt>
      <trkpt lat="40.383458" lon="-5.793461">
        <ele>852.959</ele>
        <time>2021-10-13T12:41:50Z</time>
      </trkpt>
      <trkpt lat="40.383583" lon="-5.793099">
        <ele>851.614</ele>
        <time>2021-10-13T12:41:52Z</time>
      </trkpt>
      <trkpt lat="40.383669" lon="-5.792700">
        <ele>852.308</ele>
        <time>2021-10-13T12:41:54Z</time>
      </trkpt>
      <trkpt lat="40.383713" lon="-5.792275">
        <ele>852.593</ele>
        <time>2021-10-13T12:41:56Z</time>
      </trkpt>
      <trkpt lat="40.383727" lon="-5.791857">
        <ele>853.081</ele>
        <time>2021-10-13T12:41:58Z</time>
      </trkpt>
      <trkpt lat="40.383703" lon="-5.791442">
        <ele>852.938</ele>
        <time>2021-10-13T12:42:00Z</time>
      </trkpt>
      <trkpt lat="40.383668" lon="-5.791050">
        <ele>853.168</ele>
        <time>2021-10-13T12:42:02Z</time>
      </trkpt>
      <trkpt lat="40.383633" lon="-5.790663">
        <ele>852.341</ele>
        <time>2021-10-13T12:42:04Z</time>
      </trkpt>
      <trkpt lat="40.383609" lon="-5.790451">
        <ele>852.197</ele>
        <time>2021-10-13T12:42:05Z</time>
      </trkpt>
      <trkpt lat="40.383570" lon="-5.790241">
        <ele>851.336</ele>
        <time>2021-10-13T12:42:06Z</time>
      </trkpt>
      <trkpt lat="40.383425" lon="-5.789835">
        <ele>850.511</ele>
        <time>2021-10-13T12:42:08Z</time>
      </trkpt>
      <trkpt lat="40.383269" lon="-5.789468">
        <ele>848.914</ele>
        <time>2021-10-13T12:42:10Z</time>
      </trkpt>
      <trkpt lat="40.383148" lon="-5.789103">
        <ele>847.054</ele>
        <time>2021-10-13T12:42:12Z</time>
      </trkpt>
      <trkpt lat="40.383091" lon="-5.788716">
        <ele>846.209</ele>
        <time>2021-10-13T12:42:14Z</time>
      </trkpt>
      <trkpt lat="40.383142" lon="-5.788334">
        <ele>845.608</ele>
        <time>2021-10-13T12:42:16Z</time>
      </trkpt>
      <trkpt lat="40.383204" lon="-5.788135">
        <ele>845.519</ele>
        <time>2021-10-13T12:42:17Z</time>
      </trkpt>
      <trkpt lat="40.383271" lon="-5.787941">
        <ele>846.067</ele>
        <time>2021-10-13T12:42:18Z</time>
      </trkpt>
      <trkpt lat="40.383334" lon="-5.787758">
        <ele>846.334</ele>
        <time>2021-10-13T12:42:19Z</time>
      </trkpt>
      <trkpt lat="40.383402" lon="-5.787575">
        <ele>846.324</ele>
        <time>2021-10-13T12:42:20Z</time>
      </trkpt>
      <trkpt lat="40.383570" lon="-5.787249">
        <ele>847.517</ele>
        <time>2021-10-13T12:42:22Z</time>
      </trkpt>
      <trkpt lat="40.383684" lon="-5.787092">
        <ele>848.193</ele>
        <time>2021-10-13T12:42:23Z</time>
      </trkpt>
      <trkpt lat="40.383951" lon="-5.786811">
        <ele>850.952</ele>
        <time>2021-10-13T12:42:25Z</time>
      </trkpt>
      <trkpt lat="40.384089" lon="-5.786666">
        <ele>851.637</ele>
        <time>2021-10-13T12:42:26Z</time>
      </trkpt>
      <trkpt lat="40.384312" lon="-5.786342">
        <ele>854.319</ele>
        <time>2021-10-13T12:42:28Z</time>
      </trkpt>
      <trkpt lat="40.384409" lon="-5.786161">
        <ele>856.109</ele>
        <time>2021-10-13T12:42:29Z</time>
      </trkpt>
      <trkpt lat="40.384564" lon="-5.785789">
        <ele>859.019</ele>
        <time>2021-10-13T12:42:31Z</time>
      </trkpt>
      <trkpt lat="40.384616" lon="-5.785592">
        <ele>859.808</ele>
        <time>2021-10-13T12:42:32Z</time>
      </trkpt>
      <trkpt lat="40.384684" lon="-5.785213">
        <ele>861.429</ele>
        <time>2021-10-13T12:42:34Z</time>
      </trkpt>
      <trkpt lat="40.384708" lon="-5.785016">
        <ele>862.457</ele>
        <time>2021-10-13T12:42:35Z</time>
      </trkpt>
      <trkpt lat="40.384728" lon="-5.784818">
        <ele>863.654</ele>
        <time>2021-10-13T12:42:36Z</time>
      </trkpt>
      <trkpt lat="40.384748" lon="-5.784616">
        <ele>864.634</ele>
        <time>2021-10-13T12:42:37Z</time>
      </trkpt>
      <trkpt lat="40.384769" lon="-5.784402">
        <ele>866.287</ele>
        <time>2021-10-13T12:42:38Z</time>
      </trkpt>
      <trkpt lat="40.384806" lon="-5.783981">
        <ele>866.923</ele>
        <time>2021-10-13T12:42:40Z</time>
      </trkpt>
      <trkpt lat="40.384823" lon="-5.783783">
        <ele>867.762</ele>
        <time>2021-10-13T12:42:41Z</time>
      </trkpt>
      <trkpt lat="40.384860" lon="-5.783416">
        <ele>870.117</ele>
        <time>2021-10-13T12:42:43Z</time>
      </trkpt>
      <trkpt lat="40.384878" lon="-5.783234">
        <ele>870.622</ele>
        <time>2021-10-13T12:42:44Z</time>
      </trkpt>
      <trkpt lat="40.384873" lon="-5.782916">
        <ele>873.262</ele>
        <time>2021-10-13T12:42:46Z</time>
      </trkpt>
      <trkpt lat="40.384833" lon="-5.782778">
        <ele>873.608</ele>
        <time>2021-10-13T12:42:47Z</time>
      </trkpt>
      <trkpt lat="40.384696" lon="-5.782579">
        <ele>876.508</ele>
        <time>2021-10-13T12:42:49Z</time>
      </trkpt>
      <trkpt lat="40.384604" lon="-5.782504">
        <ele>877.620</ele>
        <time>2021-10-13T12:42:50Z</time>
      </trkpt>
      <trkpt lat="40.384437" lon="-5.782283">
        <ele>879.348</ele>
        <time>2021-10-13T12:42:52Z</time>
      </trkpt>
      <trkpt lat="40.384384" lon="-5.782135">
        <ele>879.675</ele>
        <time>2021-10-13T12:42:53Z</time>
      </trkpt>
      <trkpt lat="40.384336" lon="-5.781784">
        <ele>881.195</ele>
        <time>2021-10-13T12:42:55Z</time>
      </trkpt>
      <trkpt lat="40.384317" lon="-5.781608">
        <ele>881.798</ele>
        <time>2021-10-13T12:42:56Z</time>
      </trkpt>
      <trkpt lat="40.384290" lon="-5.781280">
        <ele>882.494</ele>
        <time>2021-10-13T12:42:58Z</time>
      </trkpt>
      <trkpt lat="40.384288" lon="-5.780879">
        <ele>883.653</ele>
        <time>2021-10-13T12:43:00Z</time>
      </trkpt>
      <trkpt lat="40.384297" lon="-5.780632">
        <ele>884.198</ele>
        <time>2021-10-13T12:43:01Z</time>
      </trkpt>
      <trkpt lat="40.384311" lon="-5.780359">
        <ele>883.713</ele>
        <time>2021-10-13T12:43:02Z</time>
      </trkpt>
      <trkpt lat="40.384315" lon="-5.779824">
        <ele>884.543</ele>
        <time>2021-10-13T12:43:04Z</time>
      </trkpt>
      <trkpt lat="40.384295" lon="-5.779590">
        <ele>883.907</ele>
        <time>2021-10-13T12:43:05Z</time>
      </trkpt>
      <trkpt lat="40.384268" lon="-5.779388">
        <ele>884.208</ele>
        <time>2021-10-13T12:43:06Z</time>
      </trkpt>
      <trkpt lat="40.384237" lon="-5.779205">
        <ele>885.179</ele>
        <time>2021-10-13T12:43:07Z</time>
      </trkpt>
      <trkpt lat="40.384211" lon="-5.779033">
        <ele>885.417</ele>
        <time>2021-10-13T12:43:08Z</time>
      </trkpt>
      <trkpt lat="40.384188" lon="-5.778762">
        <ele>885.914</ele>
        <time>2021-10-13T12:43:10Z</time>
      </trkpt>
      <trkpt lat="40.384189" lon="-5.778650">
        <ele>886.144</ele>
        <time>2021-10-13T12:43:11Z</time>
      </trkpt>
      <trkpt lat="40.384193" lon="-5.778540">
        <ele>886.197</ele>
        <time>2021-10-13T12:43:12Z</time>
      </trkpt>
      <trkpt lat="40.384206" lon="-5.778297">
        <ele>887.333</ele>
        <time>2021-10-13T12:43:14Z</time>
      </trkpt>
      <trkpt lat="40.384203" lon="-5.778034">
        <ele>888.792</ele>
        <time>2021-10-13T12:43:16Z</time>
      </trkpt>
      <trkpt lat="40.384192" lon="-5.777884">
        <ele>889.537</ele>
        <time>2021-10-13T12:43:17Z</time>
      </trkpt>
      <trkpt lat="40.384138" lon="-5.777540">
        <ele>890.774</ele>
        <time>2021-10-13T12:43:19Z</time>
      </trkpt>
      <trkpt lat="40.384099" lon="-5.777343">
        <ele>891.456</ele>
        <time>2021-10-13T12:43:20Z</time>
      </trkpt>
      <trkpt lat="40.384024" lon="-5.776935">
        <ele>894.821</ele>
        <time>2021-10-13T12:43:22Z</time>
      </trkpt>
      <trkpt lat="40.383984" lon="-5.776715">
        <ele>895.408</ele>
        <time>2021-10-13T12:43:23Z</time>
      </trkpt>
      <trkpt lat="40.383942" lon="-5.776488">
        <ele>896.235</ele>
        <time>2021-10-13T12:43:24Z</time>
      </trkpt>
      <trkpt lat="40.383858" lon="-5.776023">
        <ele>898.693</ele>
        <time>2021-10-13T12:43:26Z</time>
      </trkpt>
      <trkpt lat="40.383777" lon="-5.775592">
        <ele>900.490</ele>
        <time>2021-10-13T12:43:28Z</time>
      </trkpt>
      <trkpt lat="40.383693" lon="-5.775168">
        <ele>902.670</ele>
        <time>2021-10-13T12:43:30Z</time>
      </trkpt>
      <trkpt lat="40.383633" lon="-5.774773">
        <ele>905.593</ele>
        <time>2021-10-13T12:43:32Z</time>
      </trkpt>
      <trkpt lat="40.383604" lon="-5.774388">
        <ele>907.069</ele>
        <time>2021-10-13T12:43:34Z</time>
      </trkpt>
      <trkpt lat="40.383604" lon="-5.774189">
        <ele>908.228</ele>
        <time>2021-10-13T12:43:35Z</time>
      </trkpt>
      <trkpt lat="40.383613" lon="-5.773983">
        <ele>909.413</ele>
        <time>2021-10-13T12:43:36Z</time>
      </trkpt>
      <trkpt lat="40.383657" lon="-5.773557">
        <ele>910.565</ele>
        <time>2021-10-13T12:43:38Z</time>
      </trkpt>
      <trkpt lat="40.383730" lon="-5.773147">
        <ele>912.368</ele>
        <time>2021-10-13T12:43:40Z</time>
      </trkpt>
      <trkpt lat="40.383763" lon="-5.772945">
        <ele>913.014</ele>
        <time>2021-10-13T12:43:41Z</time>
      </trkpt>
      <trkpt lat="40.383824" lon="-5.772558">
        <ele>913.808</ele>
        <time>2021-10-13T12:43:43Z</time>
      </trkpt>
      <trkpt lat="40.383856" lon="-5.772364">
        <ele>915.114</ele>
        <time>2021-10-13T12:43:44Z</time>
      </trkpt>
      <trkpt lat="40.383913" lon="-5.771999">
        <ele>917.562</ele>
        <time>2021-10-13T12:43:46Z</time>
      </trkpt>
      <trkpt lat="40.383946" lon="-5.771660">
        <ele>919.359</ele>
        <time>2021-10-13T12:43:48Z</time>
      </trkpt>
      <trkpt lat="40.383934" lon="-5.771331">
        <ele>920.629</ele>
        <time>2021-10-13T12:43:50Z</time>
      </trkpt>
      <trkpt lat="40.383880" lon="-5.771003">
        <ele>922.072</ele>
        <time>2021-10-13T12:43:52Z</time>
      </trkpt>
      <trkpt lat="40.383848" lon="-5.770819">
        <ele>922.938</ele>
        <time>2021-10-13T12:43:53Z</time>
      </trkpt>
      <trkpt lat="40.383818" lon="-5.770641">
        <ele>923.487</ele>
        <time>2021-10-13T12:43:54Z</time>
      </trkpt>
      <trkpt lat="40.383790" lon="-5.770458">
        <ele>923.742</ele>
        <time>2021-10-13T12:43:55Z</time>
      </trkpt>
      <trkpt lat="40.383761" lon="-5.770267">
        <ele>924.751</ele>
        <time>2021-10-13T12:43:56Z</time>
      </trkpt>
      <trkpt lat="40.383697" lon="-5.769880">
        <ele>926.501</ele>
        <time>2021-10-13T12:43:58Z</time>
      </trkpt>
      <trkpt lat="40.383663" lon="-5.769665">
        <ele>926.911</ele>
        <time>2021-10-13T12:43:59Z</time>
      </trkpt>
      <trkpt lat="40.383599" lon="-5.769218">
        <ele>929.608</ele>
        <time>2021-10-13T12:44:01Z</time>
      </trkpt>
      <trkpt lat="40.383567" lon="-5.768980">
        <ele>930.913</ele>
        <time>2021-10-13T12:44:02Z</time>
      </trkpt>
      <trkpt lat="40.383514" lon="-5.768535">
        <ele>932.621</ele>
        <time>2021-10-13T12:44:04Z</time>
      </trkpt>
      <trkpt lat="40.383473" lon="-5.768145">
        <ele>933.838</ele>
        <time>2021-10-13T12:44:06Z</time>
      </trkpt>
      <trkpt lat="40.383454" lon="-5.767968">
        <ele>934.878</ele>
        <time>2021-10-13T12:44:07Z</time>
      </trkpt>
      <trkpt lat="40.383433" lon="-5.767796">
        <ele>936.521</ele>
        <time>2021-10-13T12:44:08Z</time>
      </trkpt>
      <trkpt lat="40.383377" lon="-5.767461">
        <ele>938.037</ele>
        <time>2021-10-13T12:44:10Z</time>
      </trkpt>
      <trkpt lat="40.383323" lon="-5.767134">
        <ele>939.466</ele>
        <time>2021-10-13T12:44:12Z</time>
      </trkpt>
      <trkpt lat="40.383313" lon="-5.766860">
        <ele>939.791</ele>
        <time>2021-10-13T12:44:14Z</time>
      </trkpt>
      <trkpt lat="40.383355" lon="-5.766639">
        <ele>941.628</ele>
        <time>2021-10-13T12:44:16Z</time>
      </trkpt>
      <trkpt lat="40.383385" lon="-5.766537">
        <ele>942.089</ele>
        <time>2021-10-13T12:44:17Z</time>
      </trkpt>
      <trkpt lat="40.383414" lon="-5.766438">
        <ele>942.017</ele>
        <time>2021-10-13T12:44:18Z</time>
      </trkpt>
      <trkpt lat="40.383477" lon="-5.766236">
        <ele>941.408</ele>
        <time>2021-10-13T12:44:20Z</time>
      </trkpt>
      <trkpt lat="40.383532" lon="-5.766052">
        <ele>941.330</ele>
        <time>2021-10-13T12:44:22Z</time>
      </trkpt>
      <trkpt lat="40.383556" lon="-5.765969">
        <ele>941.988</ele>
        <time>2021-10-13T12:44:23Z</time>
      </trkpt>
      <trkpt lat="40.383584" lon="-5.765884">
        <ele>941.995</ele>
        <time>2021-10-13T12:44:24Z</time>
      </trkpt>
      <trkpt lat="40.383648" lon="-5.765699">
        <ele>942.195</ele>
        <time>2021-10-13T12:44:26Z</time>
      </trkpt>
      <trkpt lat="40.383707" lon="-5.765507">
        <ele>943.248</ele>
        <time>2021-10-13T12:44:28Z</time>
      </trkpt>
      <trkpt lat="40.383760" lon="-5.765305">
        <ele>944.654</ele>
        <time>2021-10-13T12:44:30Z</time>
      </trkpt>
      <trkpt lat="40.383776" lon="-5.765198">
        <ele>944.793</ele>
        <time>2021-10-13T12:44:31Z</time>
      </trkpt>
      <trkpt lat="40.383788" lon="-5.765086">
        <ele>944.958</ele>
        <time>2021-10-13T12:44:32Z</time>
      </trkpt>
      <trkpt lat="40.383816" lon="-5.764881">
        <ele>946.053</ele>
        <time>2021-10-13T12:44:34Z</time>
      </trkpt>
      <trkpt lat="40.383827" lon="-5.764780">
        <ele>946.904</ele>
        <time>2021-10-13T12:44:35Z</time>
      </trkpt>
      <trkpt lat="40.383841" lon="-5.764606">
        <ele>947.914</ele>
        <time>2021-10-13T12:44:37Z</time>
      </trkpt>
      <trkpt lat="40.383845" lon="-5.764529">
        <ele>947.308</ele>
        <time>2021-10-13T12:44:38Z</time>
      </trkpt>
      <trkpt lat="40.383863" lon="-5.764368">
        <ele>948.383</ele>
        <time>2021-10-13T12:44:40Z</time>
      </trkpt>
      <trkpt lat="40.383876" lon="-5.764281">
        <ele>948.431</ele>
        <time>2021-10-13T12:44:41Z</time>
      </trkpt>
      <trkpt lat="40.383908" lon="-5.764115">
        <ele>948.468</ele>
        <time>2021-10-13T12:44:43Z</time>
      </trkpt>
      <trkpt lat="40.383921" lon="-5.764045">
        <ele>949.168</ele>
        <time>2021-10-13T12:44:44Z</time>
      </trkpt>
      <trkpt lat="40.383938" lon="-5.763951">
        <ele>949.411</ele>
        <time>2021-10-13T12:44:46Z</time>
      </trkpt>
      <trkpt lat="40.383954" lon="-5.763884">
        <ele>950.097</ele>
        <time>2021-10-13T12:44:48Z</time>
      </trkpt>
      <trkpt lat="40.383972" lon="-5.763804">
        <ele>950.726</ele>
        <time>2021-10-13T12:44:50Z</time>
      </trkpt>
      <trkpt lat="40.383982" lon="-5.763738">
        <ele>951.141</ele>
        <time>2021-10-13T12:44:51Z</time>
      </trkpt>
      <trkpt lat="40.383990" lon="-5.763672">
        <ele>952.284</ele>
        <time>2021-10-13T12:44:54Z</time>
      </trkpt>
      <trkpt lat="40.383997" lon="-5.763579">
        <ele>975.907</ele>
        <time>2021-10-13T12:44:57Z</time>
      </trkpt>
      <trkpt lat="40.384027" lon="-5.763463">
        <ele>1007.117</ele>
        <time>2021-10-13T12:44:59Z</time>
      </trkpt>
      <trkpt lat="40.384048" lon="-5.763383">
        <ele>1011.708</ele>
        <time>2021-10-13T12:45:00Z</time>
      </trkpt>
      <trkpt lat="40.384066" lon="-5.763287">
        <ele>1011.786</ele>
        <time>2021-10-13T12:45:01Z</time>
      </trkpt>
      <trkpt lat="40.384086" lon="-5.763187">
        <ele>1011.764</ele>
        <time>2021-10-13T12:45:02Z</time>
      </trkpt>
      <trkpt lat="40.384134" lon="-5.763006">
        <ele>1011.711</ele>
        <time>2021-10-13T12:45:04Z</time>
      </trkpt>
      <trkpt lat="40.384149" lon="-5.762905">
        <ele>1011.721</ele>
        <time>2021-10-13T12:45:05Z</time>
      </trkpt>
      <trkpt lat="40.384156" lon="-5.762698">
        <ele>1011.724</ele>
        <time>2021-10-13T12:45:07Z</time>
      </trkpt>
      <trkpt lat="40.384155" lon="-5.762598">
        <ele>1011.730</ele>
        <time>2021-10-13T12:45:08Z</time>
      </trkpt>
      <trkpt lat="40.384149" lon="-5.762421">
        <ele>1011.749</ele>
        <time>2021-10-13T12:45:10Z</time>
      </trkpt>
      <trkpt lat="40.384138" lon="-5.762304">
        <ele>1011.744</ele>
        <time>2021-10-13T12:45:12Z</time>
      </trkpt>
      <trkpt lat="40.384138" lon="-5.762218">
        <ele>1011.717</ele>
        <time>2021-10-13T12:45:14Z</time>
      </trkpt>
      <trkpt lat="40.384151" lon="-5.762095">
        <ele>1011.787</ele>
        <time>2021-10-13T12:45:16Z</time>
      </trkpt>
      <trkpt lat="40.384165" lon="-5.762019">
        <ele>1011.715</ele>
        <time>2021-10-13T12:45:17Z</time>
      </trkpt>
      <trkpt lat="40.384181" lon="-5.761938">
        <ele>1011.708</ele>
        <time>2021-10-13T12:45:18Z</time>
      </trkpt>
      <trkpt lat="40.384212" lon="-5.761764">
        <ele>1011.759</ele>
        <time>2021-10-13T12:45:20Z</time>
      </trkpt>
      <trkpt lat="40.384246" lon="-5.761584">
        <ele>1011.727</ele>
        <time>2021-10-13T12:45:22Z</time>
      </trkpt>
      <trkpt lat="40.384273" lon="-5.761426">
        <ele>1011.714</ele>
        <time>2021-10-13T12:45:24Z</time>
      </trkpt>
      <trkpt lat="40.384292" lon="-5.761281">
        <ele>1011.754</ele>
        <time>2021-10-13T12:45:26Z</time>
      </trkpt>
      <trkpt lat="40.384311" lon="-5.761128">
        <ele>1011.727</ele>
        <time>2021-10-13T12:45:28Z</time>
      </trkpt>
      <trkpt lat="40.384335" lon="-5.760952">
        <ele>1011.793</ele>
        <time>2021-10-13T12:45:30Z</time>
      </trkpt>
      <trkpt lat="40.384347" lon="-5.760857">
        <ele>1011.712</ele>
        <time>2021-10-13T12:45:31Z</time>
      </trkpt>
      <trkpt lat="40.384359" lon="-5.760757">
        <ele>1011.787</ele>
        <time>2021-10-13T12:45:32Z</time>
      </trkpt>
      <trkpt lat="40.384381" lon="-5.760566">
        <ele>1011.776</ele>
        <time>2021-10-13T12:45:34Z</time>
      </trkpt>
      <trkpt lat="40.384404" lon="-5.760352">
        <ele>1011.790</ele>
        <time>2021-10-13T12:45:36Z</time>
      </trkpt>
      <trkpt lat="40.384414" lon="-5.760238">
        <ele>1011.719</ele>
        <time>2021-10-13T12:45:37Z</time>
      </trkpt>
      <trkpt lat="40.384422" lon="-5.760115">
        <ele>1011.708</ele>
        <time>2021-10-13T12:45:38Z</time>
      </trkpt>
      <trkpt lat="40.384435" lon="-5.759880">
        <ele>1011.765</ele>
        <time>2021-10-13T12:45:40Z</time>
      </trkpt>
      <trkpt lat="40.384439" lon="-5.759680">
        <ele>1011.633</ele>
        <time>2021-10-13T12:45:42Z</time>
      </trkpt>
      <trkpt lat="40.384441" lon="-5.759598">
        <ele>1011.530</ele>
        <time>2021-10-13T12:45:43Z</time>
      </trkpt>
      <trkpt lat="40.384444" lon="-5.759519">
        <ele>1011.560</ele>
        <time>2021-10-13T12:45:44Z</time>
      </trkpt>
      <trkpt lat="40.384440" lon="-5.759371">
        <ele>1011.583</ele>
        <time>2021-10-13T12:45:46Z</time>
      </trkpt>
      <trkpt lat="40.384433" lon="-5.759308">
        <ele>1011.559</ele>
        <time>2021-10-13T12:45:47Z</time>
      </trkpt>
      <trkpt lat="40.384423" lon="-5.759224">
        <ele>1011.548</ele>
        <time>2021-10-13T12:45:49Z</time>
      </trkpt>
      <trkpt lat="40.384414" lon="-5.759150">
        <ele>1011.593</ele>
        <time>2021-10-13T12:45:51Z</time>
      </trkpt>
      <trkpt lat="40.384404" lon="-5.759086">
        <ele>1011.538</ele>
        <time>2021-10-13T12:45:53Z</time>
      </trkpt>
      <trkpt lat="40.384403" lon="-5.759010">
        <ele>992.170</ele>
        <time>2021-10-13T12:46:20Z</time>
      </trkpt>
      <trkpt lat="40.384395" lon="-5.758900">
        <ele>964.117</ele>
        <time>2021-10-13T12:46:22Z</time>
      </trkpt>
      <trkpt lat="40.384386" lon="-5.758726">
        <ele>935.708</ele>
        <time>2021-10-13T12:46:24Z</time>
      </trkpt>
      <trkpt lat="40.384383" lon="-5.758631">
        <ele>935.711</ele>
        <time>2021-10-13T12:46:25Z</time>
      </trkpt>
      <trkpt lat="40.384384" lon="-5.758526">
        <ele>935.769</ele>
        <time>2021-10-13T12:46:26Z</time>
      </trkpt>
      <trkpt lat="40.384398" lon="-5.758322">
        <ele>935.786</ele>
        <time>2021-10-13T12:46:28Z</time>
      </trkpt>
      <trkpt lat="40.384422" lon="-5.758114">
        <ele>935.776</ele>
        <time>2021-10-13T12:46:30Z</time>
      </trkpt>
      <trkpt lat="40.384450" lon="-5.757888">
        <ele>935.769</ele>
        <time>2021-10-13T12:46:32Z</time>
      </trkpt>
      <trkpt lat="40.384475" lon="-5.757670">
        <ele>935.725</ele>
        <time>2021-10-13T12:46:34Z</time>
      </trkpt>
      <trkpt lat="40.384489" lon="-5.757464">
        <ele>935.744</ele>
        <time>2021-10-13T12:46:36Z</time>
      </trkpt>
      <trkpt lat="40.384501" lon="-5.757372">
        <ele>935.749</ele>
        <time>2021-10-13T12:46:37Z</time>
      </trkpt>
      <trkpt lat="40.384510" lon="-5.757288">
        <ele>935.751</ele>
        <time>2021-10-13T12:46:38Z</time>
      </trkpt>
      <trkpt lat="40.384521" lon="-5.757131">
        <ele>935.701</ele>
        <time>2021-10-13T12:46:40Z</time>
      </trkpt>
      <trkpt lat="40.384531" lon="-5.757041">
        <ele>935.711</ele>
        <time>2021-10-13T12:46:41Z</time>
      </trkpt>
      <trkpt lat="40.384542" lon="-5.756948">
        <ele>935.708</ele>
        <time>2021-10-13T12:46:42Z</time>
      </trkpt>
      <trkpt lat="40.384554" lon="-5.756850">
        <ele>935.713</ele>
        <time>2021-10-13T12:46:43Z</time>
      </trkpt>
      <trkpt lat="40.384568" lon="-5.756752">
        <ele>935.791</ele>
        <time>2021-10-13T12:46:44Z</time>
      </trkpt>
      <trkpt lat="40.384597" lon="-5.756602">
        <ele>935.768</ele>
        <time>2021-10-13T12:46:46Z</time>
      </trkpt>
      <trkpt lat="40.384624" lon="-5.756493">
        <ele>935.798</ele>
        <time>2021-10-13T12:46:48Z</time>
      </trkpt>
      <trkpt lat="40.384645" lon="-5.756434">
        <ele>935.781</ele>
        <time>2021-10-13T12:46:49Z</time>
      </trkpt>
      <trkpt lat="40.384675" lon="-5.756370">
        <ele>935.727</ele>
        <time>2021-10-13T12:46:50Z</time>
      </trkpt>
      <trkpt lat="40.384741" lon="-5.756265">
        <ele>935.756</ele>
        <time>2021-10-13T12:46:52Z</time>
      </trkpt>
      <trkpt lat="40.384788" lon="-5.756187">
        <ele>935.721</ele>
        <time>2021-10-13T12:46:54Z</time>
      </trkpt>
      <trkpt lat="40.384819" lon="-5.756132">
        <ele>935.716</ele>
        <time>2021-10-13T12:46:55Z</time>
      </trkpt>
      <trkpt lat="40.384860" lon="-5.756064">
        <ele>935.776</ele>
        <time>2021-10-13T12:46:56Z</time>
      </trkpt>
      <trkpt lat="40.384962" lon="-5.755877">
        <ele>935.713</ele>
        <time>2021-10-13T12:46:58Z</time>
      </trkpt>
      <trkpt lat="40.385075" lon="-5.755625">
        <ele>935.708</ele>
        <time>2021-10-13T12:47:00Z</time>
      </trkpt>
      <trkpt lat="40.385210" lon="-5.755346">
        <ele>935.799</ele>
        <time>2021-10-13T12:47:02Z</time>
      </trkpt>
      <trkpt lat="40.385334" lon="-5.755107">
        <ele>935.887</ele>
        <time>2021-10-13T12:47:04Z</time>
      </trkpt>
      <trkpt lat="40.385434" lon="-5.754914">
        <ele>935.824</ele>
        <time>2021-10-13T12:47:06Z</time>
      </trkpt>
      <trkpt lat="40.385512" lon="-5.754763">
        <ele>935.914</ele>
        <time>2021-10-13T12:47:08Z</time>
      </trkpt>
      <trkpt lat="40.385596" lon="-5.754591">
        <ele>935.937</ele>
        <time>2021-10-13T12:47:10Z</time>
      </trkpt>
      <trkpt lat="40.385722" lon="-5.754349">
        <ele>935.983</ele>
        <time>2021-10-13T12:47:12Z</time>
      </trkpt>
      <trkpt lat="40.385854" lon="-5.754118">
        <ele>935.942</ele>
        <time>2021-10-13T12:47:14Z</time>
      </trkpt>
      <trkpt lat="40.385984" lon="-5.753857">
        <ele>935.997</ele>
        <time>2021-10-13T12:47:16Z</time>
      </trkpt>
      <trkpt lat="40.386153" lon="-5.753555">
        <ele>935.921</ele>
        <time>2021-10-13T12:47:18Z</time>
      </trkpt>
      <trkpt lat="40.386251" lon="-5.753403">
        <ele>941.741</ele>
        <time>2021-10-13T12:47:19Z</time>
      </trkpt>
      <trkpt lat="40.386365" lon="-5.753246">
        <ele>947.705</ele>
        <time>2021-10-13T12:47:20Z</time>
      </trkpt>
      <trkpt lat="40.386628" lon="-5.753030">
        <ele>947.208</ele>
        <time>2021-10-13T12:47:22Z</time>
      </trkpt>
      <trkpt lat="40.386759" lon="-5.752948">
        <ele>947.840</ele>
        <time>2021-10-13T12:47:23Z</time>
      </trkpt>
      <trkpt lat="40.387013" lon="-5.752817">
        <ele>949.658</ele>
        <time>2021-10-13T12:47:25Z</time>
      </trkpt>
      <trkpt lat="40.387135" lon="-5.752755">
        <ele>949.415</ele>
        <time>2021-10-13T12:47:26Z</time>
      </trkpt>
      <trkpt lat="40.387335" lon="-5.752643">
        <ele>951.515</ele>
        <time>2021-10-13T12:47:28Z</time>
      </trkpt>
      <trkpt lat="40.387414" lon="-5.752588">
        <ele>953.928</ele>
        <time>2021-10-13T12:47:29Z</time>
      </trkpt>
      <trkpt lat="40.387531" lon="-5.752510">
        <ele>956.824</ele>
        <time>2021-10-13T12:47:31Z</time>
      </trkpt>
      <trkpt lat="40.387605" lon="-5.752474">
        <ele>959.283</ele>
        <time>2021-10-13T12:47:32Z</time>
      </trkpt>
      <trkpt lat="40.387795" lon="-5.752383">
        <ele>962.678</ele>
        <time>2021-10-13T12:47:34Z</time>
      </trkpt>
      <trkpt lat="40.387879" lon="-5.752346">
        <ele>964.479</ele>
        <time>2021-10-13T12:47:35Z</time>
      </trkpt>
      <trkpt lat="40.388025" lon="-5.752275">
        <ele>965.905</ele>
        <time>2021-10-13T12:47:37Z</time>
      </trkpt>
      <trkpt lat="40.388103" lon="-5.752226">
        <ele>966.125</ele>
        <time>2021-10-13T12:47:38Z</time>
      </trkpt>
      <trkpt lat="40.388266" lon="-5.752101">
        <ele>966.408</ele>
        <time>2021-10-13T12:47:40Z</time>
      </trkpt>
      <trkpt lat="40.388436" lon="-5.751933">
        <ele>966.625</ele>
        <time>2021-10-13T12:47:42Z</time>
      </trkpt>
      <trkpt lat="40.388608" lon="-5.751725">
        <ele>966.893</ele>
        <time>2021-10-13T12:47:44Z</time>
      </trkpt>
      <trkpt lat="40.388807" lon="-5.751502">
        <ele>967.230</ele>
        <time>2021-10-13T12:47:46Z</time>
      </trkpt>
      <trkpt lat="40.388922" lon="-5.751359">
        <ele>967.410</ele>
        <time>2021-10-13T12:47:47Z</time>
      </trkpt>
      <trkpt lat="40.389149" lon="-5.751037">
        <ele>969.043</ele>
        <time>2021-10-13T12:47:49Z</time>
      </trkpt>
      <trkpt lat="40.389255" lon="-5.750876">
        <ele>970.849</ele>
        <time>2021-10-13T12:47:50Z</time>
      </trkpt>
      <trkpt lat="40.389427" lon="-5.750545">
        <ele>972.568</ele>
        <time>2021-10-13T12:47:52Z</time>
      </trkpt>
      <trkpt lat="40.389492" lon="-5.750360">
        <ele>973.533</ele>
        <time>2021-10-13T12:47:53Z</time>
      </trkpt>
      <trkpt lat="40.389549" lon="-5.750165">
        <ele>974.884</ele>
        <time>2021-10-13T12:47:54Z</time>
      </trkpt>
      <trkpt lat="40.389605" lon="-5.749971">
        <ele>976.307</ele>
        <time>2021-10-13T12:47:55Z</time>
      </trkpt>
      <trkpt lat="40.389656" lon="-5.749787">
        <ele>977.317</ele>
        <time>2021-10-13T12:47:56Z</time>
      </trkpt>
      <trkpt lat="40.389745" lon="-5.749491">
        <ele>979.208</ele>
        <time>2021-10-13T12:47:58Z</time>
      </trkpt>
      <trkpt lat="40.389828" lon="-5.749238">
        <ele>981.186</ele>
        <time>2021-10-13T12:48:00Z</time>
      </trkpt>
      <trkpt lat="40.389864" lon="-5.749116">
        <ele>981.334</ele>
        <time>2021-10-13T12:48:01Z</time>
      </trkpt>
      <trkpt lat="40.389903" lon="-5.748990">
        <ele>982.021</ele>
        <time>2021-10-13T12:48:02Z</time>
      </trkpt>
      <trkpt lat="40.389975" lon="-5.748774">
        <ele>982.671</ele>
        <time>2021-10-13T12:48:04Z</time>
      </trkpt>
      <trkpt lat="40.390006" lon="-5.748672">
        <ele>983.594</ele>
        <time>2021-10-13T12:48:05Z</time>
      </trkpt>
      <trkpt lat="40.390068" lon="-5.748468">
        <ele>984.210</ele>
        <time>2021-10-13T12:48:07Z</time>
      </trkpt>
      <trkpt lat="40.390099" lon="-5.748372">
        <ele>984.619</ele>
        <time>2021-10-13T12:48:08Z</time>
      </trkpt>
      <trkpt lat="40.390168" lon="-5.748183">
        <ele>984.974</ele>
        <time>2021-10-13T12:48:10Z</time>
      </trkpt>
      <trkpt lat="40.390225" lon="-5.748005">
        <ele>986.029</ele>
        <time>2021-10-13T12:48:12Z</time>
      </trkpt>
      <trkpt lat="40.390270" lon="-5.747865">
        <ele>986.200</ele>
        <time>2021-10-13T12:48:14Z</time>
      </trkpt>
      <trkpt lat="40.390343" lon="-5.747669">
        <ele>986.220</ele>
        <time>2021-10-13T12:48:16Z</time>
      </trkpt>
      <trkpt lat="40.390386" lon="-5.747547">
        <ele>985.808</ele>
        <time>2021-10-13T12:48:17Z</time>
      </trkpt>
      <trkpt lat="40.390429" lon="-5.747426">
        <ele>986.310</ele>
        <time>2021-10-13T12:48:18Z</time>
      </trkpt>
      <trkpt lat="40.390511" lon="-5.747184">
        <ele>986.458</ele>
        <time>2021-10-13T12:48:20Z</time>
      </trkpt>
      <trkpt lat="40.390572" lon="-5.746938">
        <ele>986.355</ele>
        <time>2021-10-13T12:48:22Z</time>
      </trkpt>
      <trkpt lat="40.390643" lon="-5.746643">
        <ele>988.085</ele>
        <time>2021-10-13T12:48:24Z</time>
      </trkpt>
      <trkpt lat="40.390672" lon="-5.746470">
        <ele>987.678</ele>
        <time>2021-10-13T12:48:25Z</time>
      </trkpt>
      <trkpt lat="40.390695" lon="-5.746276">
        <ele>988.094</ele>
        <time>2021-10-13T12:48:26Z</time>
      </trkpt>
      <trkpt lat="40.390726" lon="-5.745881">
        <ele>989.523</ele>
        <time>2021-10-13T12:48:28Z</time>
      </trkpt>
      <trkpt lat="40.390751" lon="-5.745470">
        <ele>990.298</ele>
        <time>2021-10-13T12:48:30Z</time>
      </trkpt>
      <trkpt lat="40.390763" lon="-5.745267">
        <ele>990.292</ele>
        <time>2021-10-13T12:48:31Z</time>
      </trkpt>
      <trkpt lat="40.390778" lon="-5.745060">
        <ele>990.773</ele>
        <time>2021-10-13T12:48:32Z</time>
      </trkpt>
      <trkpt lat="40.390806" lon="-5.744675">
        <ele>992.620</ele>
        <time>2021-10-13T12:48:34Z</time>
      </trkpt>
      <trkpt lat="40.390820" lon="-5.744499">
        <ele>993.008</ele>
        <time>2021-10-13T12:48:35Z</time>
      </trkpt>
      <trkpt lat="40.390847" lon="-5.744171">
        <ele>993.497</ele>
        <time>2021-10-13T12:48:37Z</time>
      </trkpt>
      <trkpt lat="40.390858" lon="-5.744005">
        <ele>994.565</ele>
        <time>2021-10-13T12:48:38Z</time>
      </trkpt>
      <trkpt lat="40.390877" lon="-5.743666">
        <ele>997.522</ele>
        <time>2021-10-13T12:48:40Z</time>
      </trkpt>
      <trkpt lat="40.390887" lon="-5.743313">
        <ele>1000.022</ele>
        <time>2021-10-13T12:48:42Z</time>
      </trkpt>
      <trkpt lat="40.390890" lon="-5.743142">
        <ele>1001.315</ele>
        <time>2021-10-13T12:48:43Z</time>
      </trkpt>
      <trkpt lat="40.390893" lon="-5.742971">
        <ele>1003.261</ele>
        <time>2021-10-13T12:48:44Z</time>
      </trkpt>
      <trkpt lat="40.390924" lon="-5.742664">
        <ele>1005.630</ele>
        <time>2021-10-13T12:48:46Z</time>
      </trkpt>
      <trkpt lat="40.390949" lon="-5.742516">
        <ele>1008.045</ele>
        <time>2021-10-13T12:48:47Z</time>
      </trkpt>
      <trkpt lat="40.391014" lon="-5.742251">
        <ele>1009.723</ele>
        <time>2021-10-13T12:48:49Z</time>
      </trkpt>
      <trkpt lat="40.391049" lon="-5.742132">
        <ele>1010.083</ele>
        <time>2021-10-13T12:48:50Z</time>
      </trkpt>
      <trkpt lat="40.391117" lon="-5.741938">
        <ele>1010.711</ele>
        <time>2021-10-13T12:48:52Z</time>
      </trkpt>
      <trkpt lat="40.391152" lon="-5.741851">
        <ele>1010.708</ele>
        <time>2021-10-13T12:48:53Z</time>
      </trkpt>
      <trkpt lat="40.391225" lon="-5.741680">
        <ele>1010.580</ele>
        <time>2021-10-13T12:48:55Z</time>
      </trkpt>
      <trkpt lat="40.391251" lon="-5.741597">
        <ele>1010.258</ele>
        <time>2021-10-13T12:48:56Z</time>
      </trkpt>
      <trkpt lat="40.391241" lon="-5.741411">
        <ele>1009.425</ele>
        <time>2021-10-13T12:48:58Z</time>
      </trkpt>
      <trkpt lat="40.391229" lon="-5.741313">
        <ele>1009.675</ele>
        <time>2021-10-13T12:48:59Z</time>
      </trkpt>
      <trkpt lat="40.391237" lon="-5.741223">
        <ele>1010.368</ele>
        <time>2021-10-13T12:49:00Z</time>
      </trkpt>
      <trkpt lat="40.391333" lon="-5.741096">
        <ele>1010.414</ele>
        <time>2021-10-13T12:49:02Z</time>
      </trkpt>
      <trkpt lat="40.391522" lon="-5.741072">
        <ele>1010.213</ele>
        <time>2021-10-13T12:49:04Z</time>
      </trkpt>
      <trkpt lat="40.391620" lon="-5.741072">
        <ele>1009.858</ele>
        <time>2021-10-13T12:49:05Z</time>
      </trkpt>
      <trkpt lat="40.391820" lon="-5.740951">
        <ele>1009.433</ele>
        <time>2021-10-13T12:49:07Z</time>
      </trkpt>
      <trkpt lat="40.391928" lon="-5.740843">
        <ele>1009.723</ele>
        <time>2021-10-13T12:49:08Z</time>
      </trkpt>
      <trkpt lat="40.392166" lon="-5.740640">
        <ele>1009.315</ele>
        <time>2021-10-13T12:49:10Z</time>
      </trkpt>
      <trkpt lat="40.392295" lon="-5.740554">
        <ele>1009.608</ele>
        <time>2021-10-13T12:49:11Z</time>
      </trkpt>
      <trkpt lat="40.392434" lon="-5.740486">
        <ele>1009.381</ele>
        <time>2021-10-13T12:49:12Z</time>
      </trkpt>
      <trkpt lat="40.392579" lon="-5.740432">
        <ele>1008.549</ele>
        <time>2021-10-13T12:49:13Z</time>
      </trkpt>
      <trkpt lat="40.392736" lon="-5.740384">
        <ele>1008.816</ele>
        <time>2021-10-13T12:49:14Z</time>
      </trkpt>
      <trkpt lat="40.393067" lon="-5.740331">
        <ele>1010.556</ele>
        <time>2021-10-13T12:49:16Z</time>
      </trkpt>
      <trkpt lat="40.393423" lon="-5.740254">
        <ele>1012.089</ele>
        <time>2021-10-13T12:49:18Z</time>
      </trkpt>
      <trkpt lat="40.393779" lon="-5.740142">
        <ele>1013.975</ele>
        <time>2021-10-13T12:49:20Z</time>
      </trkpt>
      <trkpt lat="40.394091" lon="-5.739987">
        <ele>1017.044</ele>
        <time>2021-10-13T12:49:22Z</time>
      </trkpt>
      <trkpt lat="40.394382" lon="-5.739801">
        <ele>1020.519</ele>
        <time>2021-10-13T12:49:24Z</time>
      </trkpt>
      <trkpt lat="40.394667" lon="-5.739597">
        <ele>1022.813</ele>
        <time>2021-10-13T12:49:26Z</time>
      </trkpt>
      <trkpt lat="40.394928" lon="-5.739339">
        <ele>1024.343</ele>
        <time>2021-10-13T12:49:28Z</time>
      </trkpt>
      <trkpt lat="40.395184" lon="-5.739036">
        <ele>1025.607</ele>
        <time>2021-10-13T12:49:30Z</time>
      </trkpt>
      <trkpt lat="40.395398" lon="-5.738701">
        <ele>1027.408</ele>
        <time>2021-10-13T12:49:32Z</time>
      </trkpt>
      <trkpt lat="40.395543" lon="-5.738394">
        <ele>1029.019</ele>
        <time>2021-10-13T12:49:34Z</time>
      </trkpt>
      <trkpt lat="40.395678" lon="-5.738119">
        <ele>1030.747</ele>
        <time>2021-10-13T12:49:36Z</time>
      </trkpt>
      <trkpt lat="40.395796" lon="-5.737889">
        <ele>1031.674</ele>
        <time>2021-10-13T12:49:38Z</time>
      </trkpt>
      <trkpt lat="40.395879" lon="-5.737700">
        <ele>1032.384</ele>
        <time>2021-10-13T12:49:40Z</time>
      </trkpt>
      <trkpt lat="40.395933" lon="-5.737474">
        <ele>1033.587</ele>
        <time>2021-10-13T12:49:42Z</time>
      </trkpt>
      <trkpt lat="40.396029" lon="-5.737242">
        <ele>1035.093</ele>
        <time>2021-10-13T12:49:44Z</time>
      </trkpt>
      <trkpt lat="40.396181" lon="-5.737061">
        <ele>1035.252</ele>
        <time>2021-10-13T12:49:46Z</time>
      </trkpt>
      <trkpt lat="40.396275" lon="-5.736969">
        <ele>1035.187</ele>
        <time>2021-10-13T12:49:47Z</time>
      </trkpt>
      <trkpt lat="40.396451" lon="-5.736703">
        <ele>1035.222</ele>
        <time>2021-10-13T12:49:49Z</time>
      </trkpt>
      <trkpt lat="40.396546" lon="-5.736513">
        <ele>1035.662</ele>
        <time>2021-10-13T12:49:50Z</time>
      </trkpt>
      <trkpt lat="40.396768" lon="-5.736085">
        <ele>1037.308</ele>
        <time>2021-10-13T12:49:52Z</time>
      </trkpt>
      <trkpt lat="40.397055" lon="-5.735553">
        <ele>1037.608</ele>
        <time>2021-10-13T12:49:54Z</time>
      </trkpt>
      <trkpt lat="40.397218" lon="-5.735257">
        <ele>1038.370</ele>
        <time>2021-10-13T12:49:55Z</time>
      </trkpt>
      <trkpt lat="40.397387" lon="-5.734948">
        <ele>1039.718</ele>
        <time>2021-10-13T12:49:56Z</time>
      </trkpt>
      <trkpt lat="40.397677" lon="-5.734402">
        <ele>1043.545</ele>
        <time>2021-10-13T12:49:58Z</time>
      </trkpt>
      <trkpt lat="40.397806" lon="-5.734152">
        <ele>1045.625</ele>
        <time>2021-10-13T12:49:59Z</time>
      </trkpt>
      <trkpt lat="40.398056" lon="-5.733683">
        <ele>1049.978</ele>
        <time>2021-10-13T12:50:01Z</time>
      </trkpt>
      <trkpt lat="40.398181" lon="-5.733454">
        <ele>1051.784</ele>
        <time>2021-10-13T12:50:02Z</time>
      </trkpt>
      <trkpt lat="40.398402" lon="-5.733040">
        <ele>1054.913</ele>
        <time>2021-10-13T12:50:04Z</time>
      </trkpt>
      <trkpt lat="40.398592" lon="-5.732615">
        <ele>1058.558</ele>
        <time>2021-10-13T12:50:06Z</time>
      </trkpt>
      <trkpt lat="40.398738" lon="-5.732118">
        <ele>1062.432</ele>
        <time>2021-10-13T12:50:08Z</time>
      </trkpt>
      <trkpt lat="40.398853" lon="-5.731619">
        <ele>1065.892</ele>
        <time>2021-10-13T12:50:10Z</time>
      </trkpt>
      <trkpt lat="40.398954" lon="-5.731157">
        <ele>1068.411</ele>
        <time>2021-10-13T12:50:12Z</time>
      </trkpt>
      <trkpt lat="40.399002" lon="-5.730936">
        <ele>1070.308</ele>
        <time>2021-10-13T12:50:13Z</time>
      </trkpt>
      <trkpt lat="40.399051" lon="-5.730719">
        <ele>1072.111</ele>
        <time>2021-10-13T12:50:14Z</time>
      </trkpt>
      <trkpt lat="40.399149" lon="-5.730325">
        <ele>1074.559</ele>
        <time>2021-10-13T12:50:16Z</time>
      </trkpt>
      <trkpt lat="40.399204" lon="-5.730122">
        <ele>1076.666</ele>
        <time>2021-10-13T12:50:17Z</time>
      </trkpt>
      <trkpt lat="40.399364" lon="-5.729734">
        <ele>1078.466</ele>
        <time>2021-10-13T12:50:19Z</time>
      </trkpt>
      <trkpt lat="40.399492" lon="-5.729550">
        <ele>1079.179</ele>
        <time>2021-10-13T12:50:20Z</time>
      </trkpt>
      <trkpt lat="40.399827" lon="-5.729224">
        <ele>1081.845</ele>
        <time>2021-10-13T12:50:22Z</time>
      </trkpt>
      <trkpt lat="40.400006" lon="-5.729056">
        <ele>1083.044</ele>
        <time>2021-10-13T12:50:23Z</time>
      </trkpt>
      <trkpt lat="40.400317" lon="-5.728766">
        <ele>1084.039</ele>
        <time>2021-10-13T12:50:25Z</time>
      </trkpt>
      <trkpt lat="40.400470" lon="-5.728637">
        <ele>1084.464</ele>
        <time>2021-10-13T12:50:26Z</time>
      </trkpt>
      <trkpt lat="40.400792" lon="-5.728456">
        <ele>1086.106</ele>
        <time>2021-10-13T12:50:28Z</time>
      </trkpt>
      <trkpt lat="40.400978" lon="-5.728410">
        <ele>1086.816</ele>
        <time>2021-10-13T12:50:29Z</time>
      </trkpt>
      <trkpt lat="40.401184" lon="-5.728415">
        <ele>1087.508</ele>
        <time>2021-10-13T12:50:30Z</time>
      </trkpt>
      <trkpt lat="40.401613" lon="-5.728477">
        <ele>1088.154</ele>
        <time>2021-10-13T12:50:32Z</time>
      </trkpt>
      <trkpt lat="40.401980" lon="-5.728514">
        <ele>1088.782</ele>
        <time>2021-10-13T12:50:34Z</time>
      </trkpt>
      <trkpt lat="40.402146" lon="-5.728508">
        <ele>1089.149</ele>
        <time>2021-10-13T12:50:35Z</time>
      </trkpt>
      <trkpt lat="40.402303" lon="-5.728466">
        <ele>1089.749</ele>
        <time>2021-10-13T12:50:36Z</time>
      </trkpt>
      <trkpt lat="40.402565" lon="-5.728209">
        <ele>1090.642</ele>
        <time>2021-10-13T12:50:38Z</time>
      </trkpt>
      <trkpt lat="40.402774" lon="-5.727806">
        <ele>1092.698</ele>
        <time>2021-10-13T12:50:40Z</time>
      </trkpt>
      <trkpt lat="40.402889" lon="-5.727592">
        <ele>1093.497</ele>
        <time>2021-10-13T12:50:41Z</time>
      </trkpt>
      <trkpt lat="40.403116" lon="-5.727192">
        <ele>1094.242</ele>
        <time>2021-10-13T12:50:43Z</time>
      </trkpt>
      <trkpt lat="40.403228" lon="-5.726996">
        <ele>1095.856</ele>
        <time>2021-10-13T12:50:44Z</time>
      </trkpt>
      <trkpt lat="40.403443" lon="-5.726589">
        <ele>1099.259</ele>
        <time>2021-10-13T12:50:46Z</time>
      </trkpt>
      <trkpt lat="40.403547" lon="-5.726364">
        <ele>1101.014</ele>
        <time>2021-10-13T12:50:47Z</time>
      </trkpt>
      <trkpt lat="40.403738" lon="-5.725915">
        <ele>1103.108</ele>
        <time>2021-10-13T12:50:49Z</time>
      </trkpt>
      <trkpt lat="40.403828" lon="-5.725683">
        <ele>1105.063</ele>
        <time>2021-10-13T12:50:50Z</time>
      </trkpt>
      <trkpt lat="40.403995" lon="-5.725259">
        <ele>1107.681</ele>
        <time>2021-10-13T12:50:52Z</time>
      </trkpt>
      <trkpt lat="40.404078" lon="-5.725059">
        <ele>1108.858</ele>
        <time>2021-10-13T12:50:53Z</time>
      </trkpt>
      <trkpt lat="40.404170" lon="-5.724853">
        <ele>1109.638</ele>
        <time>2021-10-13T12:50:54Z</time>
      </trkpt>
      <trkpt lat="40.404415" lon="-5.724423">
        <ele>1110.721</ele>
        <time>2021-10-13T12:50:56Z</time>
      </trkpt>
      <trkpt lat="40.404759" lon="-5.724024">
        <ele>1113.537</ele>
        <time>2021-10-13T12:50:58Z</time>
      </trkpt>
      <trkpt lat="40.404965" lon="-5.723843">
        <ele>1114.736</ele>
        <time>2021-10-13T12:50:59Z</time>
      </trkpt>
      <trkpt lat="40.405411" lon="-5.723506">
        <ele>1116.151</ele>
        <time>2021-10-13T12:51:01Z</time>
      </trkpt>
      <trkpt lat="40.405655" lon="-5.723360">
        <ele>1116.799</ele>
        <time>2021-10-13T12:51:02Z</time>
      </trkpt>
      <trkpt lat="40.406127" lon="-5.723133">
        <ele>1121.707</ele>
        <time>2021-10-13T12:51:04Z</time>
      </trkpt>
      <trkpt lat="40.406372" lon="-5.723014">
        <ele>1123.027</ele>
        <time>2021-10-13T12:51:05Z</time>
      </trkpt>
      <trkpt lat="40.406850" lon="-5.722774">
        <ele>1126.308</ele>
        <time>2021-10-13T12:51:07Z</time>
      </trkpt>
      <trkpt lat="40.407086" lon="-5.722646">
        <ele>1127.827</ele>
        <time>2021-10-13T12:51:08Z</time>
      </trkpt>
      <trkpt lat="40.407497" lon="-5.722429">
        <ele>1132.435</ele>
        <time>2021-10-13T12:51:10Z</time>
      </trkpt>
      <trkpt lat="40.407856" lon="-5.722247">
        <ele>1135.572</ele>
        <time>2021-10-13T12:51:12Z</time>
      </trkpt>
      <trkpt lat="40.408210" lon="-5.722073">
        <ele>1136.582</ele>
        <time>2021-10-13T12:51:14Z</time>
      </trkpt>
      <trkpt lat="40.408588" lon="-5.721884">
        <ele>1138.235</ele>
        <time>2021-10-13T12:51:16Z</time>
      </trkpt>
      <trkpt lat="40.408789" lon="-5.721779">
        <ele>1139.041</ele>
        <time>2021-10-13T12:51:17Z</time>
      </trkpt>
      <trkpt lat="40.408977" lon="-5.721681">
        <ele>1139.950</ele>
        <time>2021-10-13T12:51:18Z</time>
      </trkpt>
      <trkpt lat="40.409316" lon="-5.721501">
        <ele>1141.295</ele>
        <time>2021-10-13T12:51:20Z</time>
      </trkpt>
      <trkpt lat="40.409606" lon="-5.721335">
        <ele>1142.169</ele>
        <time>2021-10-13T12:51:22Z</time>
      </trkpt>
      <trkpt lat="40.409915" lon="-5.721100">
        <ele>1143.504</ele>
        <time>2021-10-13T12:51:24Z</time>
      </trkpt>
      <trkpt lat="40.410195" lon="-5.720802">
        <ele>1144.224</ele>
        <time>2021-10-13T12:51:26Z</time>
      </trkpt>
      <trkpt lat="40.410397" lon="-5.720532">
        <ele>1144.008</ele>
        <time>2021-10-13T12:51:28Z</time>
      </trkpt>
      <trkpt lat="40.410469" lon="-5.720396">
        <ele>1144.264</ele>
        <time>2021-10-13T12:51:29Z</time>
      </trkpt>
      <trkpt lat="40.410564" lon="-5.720175">
        <ele>1144.562</ele>
        <time>2021-10-13T12:51:31Z</time>
      </trkpt>
      <trkpt lat="40.410618" lon="-5.720110">
        <ele>1145.139</ele>
        <time>2021-10-13T12:51:32Z</time>
      </trkpt>
      <trkpt lat="40.410761" lon="-5.720117">
        <ele>1144.489</ele>
        <time>2021-10-13T12:51:34Z</time>
      </trkpt>
      <trkpt lat="40.410843" lon="-5.720183">
        <ele>1144.562</ele>
        <time>2021-10-13T12:51:35Z</time>
      </trkpt>
      <trkpt lat="40.410983" lon="-5.720423">
        <ele>1144.718</ele>
        <time>2021-10-13T12:51:37Z</time>
      </trkpt>
      <trkpt lat="40.411070" lon="-5.720550">
        <ele>1145.247</ele>
        <time>2021-10-13T12:51:38Z</time>
      </trkpt>
      <trkpt lat="40.411296" lon="-5.720717">
        <ele>1144.112</ele>
        <time>2021-10-13T12:51:40Z</time>
      </trkpt>
      <trkpt lat="40.411499" lon="-5.720738">
        <ele>1144.811</ele>
        <time>2021-10-13T12:51:42Z</time>
      </trkpt>
      <trkpt lat="40.411599" lon="-5.720686">
        <ele>1144.821</ele>
        <time>2021-10-13T12:51:43Z</time>
      </trkpt>
      <trkpt lat="40.411696" lon="-5.720599">
        <ele>1143.703</ele>
        <time>2021-10-13T12:51:44Z</time>
      </trkpt>
      <trkpt lat="40.411851" lon="-5.720333">
        <ele>1144.308</ele>
        <time>2021-10-13T12:51:46Z</time>
      </trkpt>
      <trkpt lat="40.411975" lon="-5.720028">
        <ele>1145.349</ele>
        <time>2021-10-13T12:51:48Z</time>
      </trkpt>
      <trkpt lat="40.412024" lon="-5.719885">
        <ele>1146.597</ele>
        <time>2021-10-13T12:51:49Z</time>
      </trkpt>
      <trkpt lat="40.412071" lon="-5.719751">
        <ele>1147.524</ele>
        <time>2021-10-13T12:51:50Z</time>
      </trkpt>
      <trkpt lat="40.412173" lon="-5.719503">
        <ele>1148.284</ele>
        <time>2021-10-13T12:51:52Z</time>
      </trkpt>
      <trkpt lat="40.412317" lon="-5.719277">
        <ele>1150.247</ele>
        <time>2021-10-13T12:51:54Z</time>
      </trkpt>
      <trkpt lat="40.412403" lon="-5.719161">
        <ele>1150.483</ele>
        <time>2021-10-13T12:51:55Z</time>
      </trkpt>
      <trkpt lat="40.412500" lon="-5.719034">
        <ele>1151.142</ele>
        <time>2021-10-13T12:51:56Z</time>
      </trkpt>
      <trkpt lat="40.412745" lon="-5.718789">
        <ele>1152.217</ele>
        <time>2021-10-13T12:51:58Z</time>
      </trkpt>
      <trkpt lat="40.413054" lon="-5.718520">
        <ele>1153.022</ele>
        <time>2021-10-13T12:52:00Z</time>
      </trkpt>
      <trkpt lat="40.413395" lon="-5.718211">
        <ele>1152.962</ele>
        <time>2021-10-13T12:52:02Z</time>
      </trkpt>
      <trkpt lat="40.413751" lon="-5.717858">
        <ele>1153.708</ele>
        <time>2021-10-13T12:52:04Z</time>
      </trkpt>
      <trkpt lat="40.413935" lon="-5.717665">
        <ele>1153.508</ele>
        <time>2021-10-13T12:52:05Z</time>
      </trkpt>
      <trkpt lat="40.414283" lon="-5.717288">
        <ele>1154.550</ele>
        <time>2021-10-13T12:52:07Z</time>
      </trkpt>
      <trkpt lat="40.414446" lon="-5.717105">
        <ele>1154.618</ele>
        <time>2021-10-13T12:52:08Z</time>
      </trkpt>
      <trkpt lat="40.414751" lon="-5.716756">
        <ele>1155.185</ele>
        <time>2021-10-13T12:52:10Z</time>
      </trkpt>
      <trkpt lat="40.415069" lon="-5.716399">
        <ele>1156.535</ele>
        <time>2021-10-13T12:52:12Z</time>
      </trkpt>
      <trkpt lat="40.415237" lon="-5.716220">
        <ele>1157.578</ele>
        <time>2021-10-13T12:52:13Z</time>
      </trkpt>
      <trkpt lat="40.415413" lon="-5.716041">
        <ele>1158.544</ele>
        <time>2021-10-13T12:52:14Z</time>
      </trkpt>
      <trkpt lat="40.415775" lon="-5.715684">
        <ele>1161.113</ele>
        <time>2021-10-13T12:52:16Z</time>
      </trkpt>
      <trkpt lat="40.415962" lon="-5.715500">
        <ele>1162.668</ele>
        <time>2021-10-13T12:52:17Z</time>
      </trkpt>
      <trkpt lat="40.416145" lon="-5.715325">
        <ele>1163.672</ele>
        <time>2021-10-13T12:52:18Z</time>
      </trkpt>
      <trkpt lat="40.416322" lon="-5.715162">
        <ele>1164.813</ele>
        <time>2021-10-13T12:52:19Z</time>
      </trkpt>
      <trkpt lat="40.416497" lon="-5.715000">
        <ele>1165.514</ele>
        <time>2021-10-13T12:52:20Z</time>
      </trkpt>
      <trkpt lat="40.416848" lon="-5.714678">
        <ele>1166.408</ele>
        <time>2021-10-13T12:52:22Z</time>
      </trkpt>
      <trkpt lat="40.417035" lon="-5.714506">
        <ele>1166.815</ele>
        <time>2021-10-13T12:52:23Z</time>
      </trkpt>
      <trkpt lat="40.417224" lon="-5.714332">
        <ele>1167.193</ele>
        <time>2021-10-13T12:52:24Z</time>
      </trkpt>
      <trkpt lat="40.417600" lon="-5.713983">
        <ele>1168.130</ele>
        <time>2021-10-13T12:52:26Z</time>
      </trkpt>
      <trkpt lat="40.417960" lon="-5.713641">
        <ele>1168.740</ele>
        <time>2021-10-13T12:52:28Z</time>
      </trkpt>
      <trkpt lat="40.418145" lon="-5.713463">
        <ele>1169.223</ele>
        <time>2021-10-13T12:52:29Z</time>
      </trkpt>
      <trkpt lat="40.418523" lon="-5.713108">
        <ele>1171.549</ele>
        <time>2021-10-13T12:52:31Z</time>
      </trkpt>
      <trkpt lat="40.418721" lon="-5.712927">
        <ele>1172.958</ele>
        <time>2021-10-13T12:52:32Z</time>
      </trkpt>
      <trkpt lat="40.419099" lon="-5.712593">
        <ele>1174.623</ele>
        <time>2021-10-13T12:52:34Z</time>
      </trkpt>
      <trkpt lat="40.419472" lon="-5.712261">
        <ele>1177.715</ele>
        <time>2021-10-13T12:52:36Z</time>
      </trkpt>
      <trkpt lat="40.419649" lon="-5.712089">
        <ele>1178.665</ele>
        <time>2021-10-13T12:52:37Z</time>
      </trkpt>
      <trkpt lat="40.419818" lon="-5.711905">
        <ele>1179.311</ele>
        <time>2021-10-13T12:52:38Z</time>
      </trkpt>
      <trkpt lat="40.420098" lon="-5.711532">
        <ele>1180.608</ele>
        <time>2021-10-13T12:52:40Z</time>
      </trkpt>
      <trkpt lat="40.420222" lon="-5.711329">
        <ele>1181.519</ele>
        <time>2021-10-13T12:52:41Z</time>
      </trkpt>
      <trkpt lat="40.420477" lon="-5.710888">
        <ele>1183.017</ele>
        <time>2021-10-13T12:52:43Z</time>
      </trkpt>
      <trkpt lat="40.420619" lon="-5.710656">
        <ele>1184.474</ele>
        <time>2021-10-13T12:52:44Z</time>
      </trkpt>
      <trkpt lat="40.420901" lon="-5.710195">
        <ele>1186.614</ele>
        <time>2021-10-13T12:52:46Z</time>
      </trkpt>
      <trkpt lat="40.421043" lon="-5.709959">
        <ele>1188.177</ele>
        <time>2021-10-13T12:52:47Z</time>
      </trkpt>
      <trkpt lat="40.421331" lon="-5.709495">
        <ele>1190.693</ele>
        <time>2021-10-13T12:52:49Z</time>
      </trkpt>
      <trkpt lat="40.421487" lon="-5.709271">
        <ele>1192.692</ele>
        <time>2021-10-13T12:52:50Z</time>
      </trkpt>
      <trkpt lat="40.421822" lon="-5.708876">
        <ele>1194.687</ele>
        <time>2021-10-13T12:52:52Z</time>
      </trkpt>
      <trkpt lat="40.422168" lon="-5.708514">
        <ele>1196.394</ele>
        <time>2021-10-13T12:52:54Z</time>
      </trkpt>
      <trkpt lat="40.422495" lon="-5.708174">
        <ele>1198.157</ele>
        <time>2021-10-13T12:52:56Z</time>
      </trkpt>
      <trkpt lat="40.422805" lon="-5.707908">
        <ele>1199.022</ele>
        <time>2021-10-13T12:52:58Z</time>
      </trkpt>
      <trkpt lat="40.423163" lon="-5.707728">
        <ele>1198.408</ele>
        <time>2021-10-13T12:53:00Z</time>
      </trkpt>
      <trkpt lat="40.423586" lon="-5.707667">
        <ele>1197.667</ele>
        <time>2021-10-13T12:53:02Z</time>
      </trkpt>
      <trkpt lat="40.424047" lon="-5.707677">
        <ele>1195.375</ele>
        <time>2021-10-13T12:53:04Z</time>
      </trkpt>
      <trkpt lat="40.424296" lon="-5.707694">
        <ele>1193.452</ele>
        <time>2021-10-13T12:53:05Z</time>
      </trkpt>
      <trkpt lat="40.424555" lon="-5.707716">
        <ele>1191.352</ele>
        <time>2021-10-13T12:53:06Z</time>
      </trkpt>
      <trkpt lat="40.425086" lon="-5.707762">
        <ele>1187.315</ele>
        <time>2021-10-13T12:53:08Z</time>
      </trkpt>
      <trkpt lat="40.425570" lon="-5.707793">
        <ele>1184.421</ele>
        <time>2021-10-13T12:53:10Z</time>
      </trkpt>
      <trkpt lat="40.425800" lon="-5.707814">
        <ele>1182.890</ele>
        <time>2021-10-13T12:53:11Z</time>
      </trkpt>
      <trkpt lat="40.426215" lon="-5.707903">
        <ele>1180.395</ele>
        <time>2021-10-13T12:53:13Z</time>
      </trkpt>
      <trkpt lat="40.426415" lon="-5.707994">
        <ele>1178.451</ele>
        <time>2021-10-13T12:53:14Z</time>
      </trkpt>
      <trkpt lat="40.426784" lon="-5.708281">
        <ele>1175.401</ele>
        <time>2021-10-13T12:53:16Z</time>
      </trkpt>
      <trkpt lat="40.427149" lon="-5.708629">
        <ele>1172.211</ele>
        <time>2021-10-13T12:53:18Z</time>
      </trkpt>
      <trkpt lat="40.427326" lon="-5.708795">
        <ele>1170.708</ele>
        <time>2021-10-13T12:53:19Z</time>
      </trkpt>
      <trkpt lat="40.427496" lon="-5.708954">
        <ele>1169.273</ele>
        <time>2021-10-13T12:53:20Z</time>
      </trkpt>
      <trkpt lat="40.427804" lon="-5.709261">
        <ele>1167.371</ele>
        <time>2021-10-13T12:53:22Z</time>
      </trkpt>
      <trkpt lat="40.428051" lon="-5.709623">
        <ele>1164.698</ele>
        <time>2021-10-13T12:53:24Z</time>
      </trkpt>
      <trkpt lat="40.428151" lon="-5.709839">
        <ele>1163.858</ele>
        <time>2021-10-13T12:53:25Z</time>
      </trkpt>
      <trkpt lat="40.428236" lon="-5.710085">
        <ele>1163.071</ele>
        <time>2021-10-13T12:53:26Z</time>
      </trkpt>
      <trkpt lat="40.428393" lon="-5.710580">
        <ele>1160.087</ele>
        <time>2021-10-13T12:53:28Z</time>
      </trkpt>
      <trkpt lat="40.428600" lon="-5.711064">
        <ele>1158.146</ele>
        <time>2021-10-13T12:53:30Z</time>
      </trkpt>
      <trkpt lat="40.428706" lon="-5.711275">
        <ele>1157.591</ele>
        <time>2021-10-13T12:53:31Z</time>
      </trkpt>
      <trkpt lat="40.428800" lon="-5.711456">
        <ele>1156.397</ele>
        <time>2021-10-13T12:53:32Z</time>
      </trkpt>
      <trkpt lat="40.428945" lon="-5.711709">
        <ele>1154.623</ele>
        <time>2021-10-13T12:53:34Z</time>
      </trkpt>
      <trkpt lat="40.429116" lon="-5.711837">
        <ele>1154.725</ele>
        <time>2021-10-13T12:53:36Z</time>
      </trkpt>
      <trkpt lat="40.429301" lon="-5.711793">
        <ele>1154.208</ele>
        <time>2021-10-13T12:53:38Z</time>
      </trkpt>
      <trkpt lat="40.429392" lon="-5.711571">
        <ele>1152.577</ele>
        <time>2021-10-13T12:53:40Z</time>
      </trkpt>
      <trkpt lat="40.429383" lon="-5.711425">
        <ele>1151.835</ele>
        <time>2021-10-13T12:53:41Z</time>
      </trkpt>
      <trkpt lat="40.429191" lon="-5.711101">
        <ele>1151.212</ele>
        <time>2021-10-13T12:53:43Z</time>
      </trkpt>
      <trkpt lat="40.429041" lon="-5.710911">
        <ele>1150.932</ele>
        <time>2021-10-13T12:53:44Z</time>
      </trkpt>
      <trkpt lat="40.428762" lon="-5.710492">
        <ele>1151.175</ele>
        <time>2021-10-13T12:53:46Z</time>
      </trkpt>
      <trkpt lat="40.428555" lon="-5.709950">
        <ele>1151.351</ele>
        <time>2021-10-13T12:53:48Z</time>
      </trkpt>
      <trkpt lat="40.428410" lon="-5.709276">
        <ele>1151.750</ele>
        <time>2021-10-13T12:53:50Z</time>
      </trkpt>
      <trkpt lat="40.428289" lon="-5.708631">
        <ele>1150.135</ele>
        <time>2021-10-13T12:53:52Z</time>
      </trkpt>
      <trkpt lat="40.428232" lon="-5.708334">
        <ele>1150.091</ele>
        <time>2021-10-13T12:53:53Z</time>
      </trkpt>
      <trkpt lat="40.428135" lon="-5.707792">
        <ele>1150.281</ele>
        <time>2021-10-13T12:53:55Z</time>
      </trkpt>
      <trkpt lat="40.428102" lon="-5.707527">
        <ele>1149.019</ele>
        <time>2021-10-13T12:53:56Z</time>
      </trkpt>
      <trkpt lat="40.428070" lon="-5.707054">
        <ele>1148.608</ele>
        <time>2021-10-13T12:53:58Z</time>
      </trkpt>
      <trkpt lat="40.428063" lon="-5.706825">
        <ele>1148.367</ele>
        <time>2021-10-13T12:53:59Z</time>
      </trkpt>
      <trkpt lat="40.428056" lon="-5.706604">
        <ele>1147.535</ele>
        <time>2021-10-13T12:54:00Z</time>
      </trkpt>
      <trkpt lat="40.428018" lon="-5.706194">
        <ele>1146.672</ele>
        <time>2021-10-13T12:54:02Z</time>
      </trkpt>
      <trkpt lat="40.427910" lon="-5.705852">
        <ele>1144.762</ele>
        <time>2021-10-13T12:54:04Z</time>
      </trkpt>
      <trkpt lat="40.427630" lon="-5.705673">
        <ele>1144.125</ele>
        <time>2021-10-13T12:54:06Z</time>
      </trkpt>
      <trkpt lat="40.427174" lon="-5.705580">
        <ele>1142.561</ele>
        <time>2021-10-13T12:54:08Z</time>
      </trkpt>
      <trkpt lat="40.426713" lon="-5.705485">
        <ele>1137.960</ele>
        <time>2021-10-13T12:54:10Z</time>
      </trkpt>
      <trkpt lat="40.426503" lon="-5.705435">
        <ele>1135.925</ele>
        <time>2021-10-13T12:54:11Z</time>
      </trkpt>
      <trkpt lat="40.426136" lon="-5.705313">
        <ele>1133.343</ele>
        <time>2021-10-13T12:54:13Z</time>
      </trkpt>
      <trkpt lat="40.425977" lon="-5.705221">
        <ele>1132.464</ele>
        <time>2021-10-13T12:54:14Z</time>
      </trkpt>
      <trkpt lat="40.425746" lon="-5.704927">
        <ele>1129.310</ele>
        <time>2021-10-13T12:54:16Z</time>
      </trkpt>
      <trkpt lat="40.425640" lon="-5.704535">
        <ele>1127.508</ele>
        <time>2021-10-13T12:54:18Z</time>
      </trkpt>
      <trkpt lat="40.425730" lon="-5.704104">
        <ele>1125.612</ele>
        <time>2021-10-13T12:54:20Z</time>
      </trkpt>
      <trkpt lat="40.426079" lon="-5.703783">
        <ele>1123.280</ele>
        <time>2021-10-13T12:54:22Z</time>
      </trkpt>
      <trkpt lat="40.426295" lon="-5.703652">
        <ele>1121.467</ele>
        <time>2021-10-13T12:54:23Z</time>
      </trkpt>
      <trkpt lat="40.426680" lon="-5.703346">
        <ele>1118.177</ele>
        <time>2021-10-13T12:54:25Z</time>
      </trkpt>
      <trkpt lat="40.426842" lon="-5.703121">
        <ele>1117.170</ele>
        <time>2021-10-13T12:54:26Z</time>
      </trkpt>
      <trkpt lat="40.427131" lon="-5.702658">
        <ele>1114.546</ele>
        <time>2021-10-13T12:54:28Z</time>
      </trkpt>
      <trkpt lat="40.427479" lon="-5.702241">
        <ele>1111.935</ele>
        <time>2021-10-13T12:54:30Z</time>
      </trkpt>
      <trkpt lat="40.427681" lon="-5.702062">
        <ele>1110.850</ele>
        <time>2021-10-13T12:54:31Z</time>
      </trkpt>
      <trkpt lat="40.427897" lon="-5.701884">
        <ele>1109.499</ele>
        <time>2021-10-13T12:54:32Z</time>
      </trkpt>
      <trkpt lat="40.428313" lon="-5.701525">
        <ele>1106.107</ele>
        <time>2021-10-13T12:54:34Z</time>
      </trkpt>
      <trkpt lat="40.428523" lon="-5.701310">
        <ele>1104.927</ele>
        <time>2021-10-13T12:54:35Z</time>
      </trkpt>
      <trkpt lat="40.428720" lon="-5.701067">
        <ele>1103.408</ele>
        <time>2021-10-13T12:54:36Z</time>
      </trkpt>
      <trkpt lat="40.428909" lon="-5.700809">
        <ele>1101.787</ele>
        <time>2021-10-13T12:54:37Z</time>
      </trkpt>
      <trkpt lat="40.429097" lon="-5.700538">
        <ele>1099.485</ele>
        <time>2021-10-13T12:54:38Z</time>
      </trkpt>
      <trkpt lat="40.429464" lon="-5.700002">
        <ele>1095.052</ele>
        <time>2021-10-13T12:54:40Z</time>
      </trkpt>
      <trkpt lat="40.429853" lon="-5.699456">
        <ele>1092.572</ele>
        <time>2021-10-13T12:54:42Z</time>
      </trkpt>
      <trkpt lat="40.430030" lon="-5.699201">
        <ele>1091.185</ele>
        <time>2021-10-13T12:54:43Z</time>
      </trkpt>
      <trkpt lat="40.430211" lon="-5.698958">
        <ele>1089.641</ele>
        <time>2021-10-13T12:54:44Z</time>
      </trkpt>
      <trkpt lat="40.430580" lon="-5.698550">
        <ele>1088.030</ele>
        <time>2021-10-13T12:54:46Z</time>
      </trkpt>
      <trkpt lat="40.430790" lon="-5.698371">
        <ele>1086.685</ele>
        <time>2021-10-13T12:54:47Z</time>
      </trkpt>
      <trkpt lat="40.431257" lon="-5.698072">
        <ele>1084.279</ele>
        <time>2021-10-13T12:54:49Z</time>
      </trkpt>
      <trkpt lat="40.431500" lon="-5.697919">
        <ele>1083.305</ele>
        <time>2021-10-13T12:54:50Z</time>
      </trkpt>
      <trkpt lat="40.431977" lon="-5.697614">
        <ele>1082.625</ele>
        <time>2021-10-13T12:54:52Z</time>
      </trkpt>
      <trkpt lat="40.432215" lon="-5.697456">
        <ele>1082.008</ele>
        <time>2021-10-13T12:54:53Z</time>
      </trkpt>
      <trkpt lat="40.432656" lon="-5.697152">
        <ele>1081.265</ele>
        <time>2021-10-13T12:54:55Z</time>
      </trkpt>
      <trkpt lat="40.432865" lon="-5.697013">
        <ele>1080.433</ele>
        <time>2021-10-13T12:54:56Z</time>
      </trkpt>
      <trkpt lat="40.433214" lon="-5.696770">
        <ele>1080.290</ele>
        <time>2021-10-13T12:54:58Z</time>
      </trkpt>
      <trkpt lat="40.433542" lon="-5.696501">
        <ele>1078.650</ele>
        <time>2021-10-13T12:55:00Z</time>
      </trkpt>
      <trkpt lat="40.433710" lon="-5.696370">
        <ele>1077.163</ele>
        <time>2021-10-13T12:55:01Z</time>
      </trkpt>
      <trkpt lat="40.433885" lon="-5.696235">
        <ele>1075.629</ele>
        <time>2021-10-13T12:55:02Z</time>
      </trkpt>
      <trkpt lat="40.434214" lon="-5.695981">
        <ele>1072.588</ele>
        <time>2021-10-13T12:55:04Z</time>
      </trkpt>
      <trkpt lat="40.434380" lon="-5.695853">
        <ele>1071.343</ele>
        <time>2021-10-13T12:55:05Z</time>
      </trkpt>
      <trkpt lat="40.434672" lon="-5.695623">
        <ele>1068.144</ele>
        <time>2021-10-13T12:55:07Z</time>
      </trkpt>
      <trkpt lat="40.434809" lon="-5.695516">
        <ele>1066.905</ele>
        <time>2021-10-13T12:55:08Z</time>
      </trkpt>
      <trkpt lat="40.435032" lon="-5.695309">
        <ele>1064.815</ele>
        <time>2021-10-13T12:55:10Z</time>
      </trkpt>
      <trkpt lat="40.435193" lon="-5.695065">
        <ele>1063.608</ele>
        <time>2021-10-13T12:55:12Z</time>
      </trkpt>
      <trkpt lat="40.435282" lon="-5.694956">
        <ele>1063.542</ele>
        <time>2021-10-13T12:55:13Z</time>
      </trkpt>
      <trkpt lat="40.435389" lon="-5.694872">
        <ele>1063.310</ele>
        <time>2021-10-13T12:55:14Z</time>
      </trkpt>
      <trkpt lat="40.435617" lon="-5.694778">
        <ele>1062.817</ele>
        <time>2021-10-13T12:55:16Z</time>
      </trkpt>
      <trkpt lat="40.435723" lon="-5.694697">
        <ele>1062.847</ele>
        <time>2021-10-13T12:55:17Z</time>
      </trkpt>
      <trkpt lat="40.435806" lon="-5.694556">
        <ele>1061.930</ele>
        <time>2021-10-13T12:55:18Z</time>
      </trkpt>
      <trkpt lat="40.435880" lon="-5.694383">
        <ele>1061.956</ele>
        <time>2021-10-13T12:55:19Z</time>
      </trkpt>
      <trkpt lat="40.435942" lon="-5.694148">
        <ele>1062.865</ele>
        <time>2021-10-13T12:55:20Z</time>
      </trkpt>
      <trkpt lat="40.436094" lon="-5.693609">
        <ele>1061.940</ele>
        <time>2021-10-13T12:55:22Z</time>
      </trkpt>
      <trkpt lat="40.436315" lon="-5.693060">
        <ele>1057.049</ele>
        <time>2021-10-13T12:55:24Z</time>
      </trkpt>
      <trkpt lat="40.436591" lon="-5.692540">
        <ele>1055.202</ele>
        <time>2021-10-13T12:55:26Z</time>
      </trkpt>
      <trkpt lat="40.436979" lon="-5.692113">
        <ele>1054.122</ele>
        <time>2021-10-13T12:55:28Z</time>
      </trkpt>
      <trkpt lat="40.437187" lon="-5.691939">
        <ele>1053.208</ele>
        <time>2021-10-13T12:55:29Z</time>
      </trkpt>
      <trkpt lat="40.437574" lon="-5.691692">
        <ele>1049.822</ele>
        <time>2021-10-13T12:55:31Z</time>
      </trkpt>
      <trkpt lat="40.437756" lon="-5.691616">
        <ele>1047.980</ele>
        <time>2021-10-13T12:55:32Z</time>
      </trkpt>
      <trkpt lat="40.438034" lon="-5.691535">
        <ele>1046.937</ele>
        <time>2021-10-13T12:55:34Z</time>
      </trkpt>
      <trkpt lat="40.438151" lon="-5.691496">
        <ele>1046.087</ele>
        <time>2021-10-13T12:55:35Z</time>
      </trkpt>
      <trkpt lat="40.438339" lon="-5.691350">
        <ele>1044.950</ele>
        <time>2021-10-13T12:55:37Z</time>
      </trkpt>
      <trkpt lat="40.438446" lon="-5.691271">
        <ele>1044.416</ele>
        <time>2021-10-13T12:55:38Z</time>
      </trkpt>
      <trkpt lat="40.438704" lon="-5.691161">
        <ele>1043.515</ele>
        <time>2021-10-13T12:55:40Z</time>
      </trkpt>
      <trkpt lat="40.438996" lon="-5.690973">
        <ele>1041.620</ele>
        <time>2021-10-13T12:55:42Z</time>
      </trkpt>
      <trkpt lat="40.439314" lon="-5.690646">
        <ele>1037.029</ele>
        <time>2021-10-13T12:55:44Z</time>
      </trkpt>
      <trkpt lat="40.439587" lon="-5.690329">
        <ele>1035.200</ele>
        <time>2021-10-13T12:55:46Z</time>
      </trkpt>
      <trkpt lat="40.439710" lon="-5.690168">
        <ele>1033.620</ele>
        <time>2021-10-13T12:55:47Z</time>
      </trkpt>
      <trkpt lat="40.439933" lon="-5.689845">
        <ele>1031.108</ele>
        <time>2021-10-13T12:55:49Z</time>
      </trkpt>
      <trkpt lat="40.440023" lon="-5.689684">
        <ele>1029.870</ele>
        <time>2021-10-13T12:55:50Z</time>
      </trkpt>
      <trkpt lat="40.440152" lon="-5.689413">
        <ele>1029.238</ele>
        <time>2021-10-13T12:55:52Z</time>
      </trkpt>
      <trkpt lat="40.440189" lon="-5.689294">
        <ele>1028.915</ele>
        <time>2021-10-13T12:55:53Z</time>
      </trkpt>
      <trkpt lat="40.440207" lon="-5.689066">
        <ele>1028.615</ele>
        <time>2021-10-13T12:55:55Z</time>
      </trkpt>
      <trkpt lat="40.440189" lon="-5.688958">
        <ele>1029.498</ele>
        <time>2021-10-13T12:55:56Z</time>
      </trkpt>
      <trkpt lat="40.440211" lon="-5.688767">
        <ele>1029.364</ele>
        <time>2021-10-13T12:55:58Z</time>
      </trkpt>
      <trkpt lat="40.440263" lon="-5.688696">
        <ele>1029.113</ele>
        <time>2021-10-13T12:55:59Z</time>
      </trkpt>
      <trkpt lat="40.440335" lon="-5.688667">
        <ele>1028.418</ele>
        <time>2021-10-13T12:56:00Z</time>
      </trkpt>
      <trkpt lat="40.440515" lon="-5.688732">
        <ele>1026.564</ele>
        <time>2021-10-13T12:56:02Z</time>
      </trkpt>
      <trkpt lat="40.440731" lon="-5.688816">
        <ele>1025.406</ele>
        <time>2021-10-13T12:56:04Z</time>
      </trkpt>
      <trkpt lat="40.440846" lon="-5.688780">
        <ele>1025.316</ele>
        <time>2021-10-13T12:56:05Z</time>
      </trkpt>
      <trkpt lat="40.441099" lon="-5.688551">
        <ele>1024.408</ele>
        <time>2021-10-13T12:56:07Z</time>
      </trkpt>
      <trkpt lat="40.441244" lon="-5.688394">
        <ele>1024.054</ele>
        <time>2021-10-13T12:56:08Z</time>
      </trkpt>
      <trkpt lat="40.441566" lon="-5.688072">
        <ele>1024.082</ele>
        <time>2021-10-13T12:56:10Z</time>
      </trkpt>
      <trkpt lat="40.441961" lon="-5.687713">
        <ele>1025.559</ele>
        <time>2021-10-13T12:56:12Z</time>
      </trkpt>
      <trkpt lat="40.442172" lon="-5.687526">
        <ele>1025.999</ele>
        <time>2021-10-13T12:56:13Z</time>
      </trkpt>
      <trkpt lat="40.442392" lon="-5.687341">
        <ele>1027.272</ele>
        <time>2021-10-13T12:56:14Z</time>
      </trkpt>
      <trkpt lat="40.442773" lon="-5.687058">
        <ele>1029.548</ele>
        <time>2021-10-13T12:56:16Z</time>
      </trkpt>
      <trkpt lat="40.442941" lon="-5.686935">
        <ele>1030.827</ele>
        <time>2021-10-13T12:56:17Z</time>
      </trkpt>
      <trkpt lat="40.443245" lon="-5.686702">
        <ele>1031.412</ele>
        <time>2021-10-13T12:56:19Z</time>
      </trkpt>
      <trkpt lat="40.443412" lon="-5.686584">
        <ele>1031.721</ele>
        <time>2021-10-13T12:56:20Z</time>
      </trkpt>
      <trkpt lat="40.443768" lon="-5.686348">
        <ele>1032.441</ele>
        <time>2021-10-13T12:56:22Z</time>
      </trkpt>
      <trkpt lat="40.443959" lon="-5.686228">
        <ele>1032.005</ele>
        <time>2021-10-13T12:56:23Z</time>
      </trkpt>
      <trkpt lat="40.444156" lon="-5.686113">
        <ele>1031.908</ele>
        <time>2021-10-13T12:56:24Z</time>
      </trkpt>
      <trkpt lat="40.444357" lon="-5.685999">
        <ele>1032.280</ele>
        <time>2021-10-13T12:56:25Z</time>
      </trkpt>
      <trkpt lat="40.444572" lon="-5.685884">
        <ele>1032.628</ele>
        <time>2021-10-13T12:56:26Z</time>
      </trkpt>
      <trkpt lat="40.445010" lon="-5.685648">
        <ele>1032.955</ele>
        <time>2021-10-13T12:56:28Z</time>
      </trkpt>
      <trkpt lat="40.445252" lon="-5.685525">
        <ele>1033.755</ele>
        <time>2021-10-13T12:56:29Z</time>
      </trkpt>
      <trkpt lat="40.445733" lon="-5.685276">
        <ele>1036.028</ele>
        <time>2021-10-13T12:56:31Z</time>
      </trkpt>
      <trkpt lat="40.445983" lon="-5.685158">
        <ele>1037.614</ele>
        <time>2021-10-13T12:56:32Z</time>
      </trkpt>
      <trkpt lat="40.446441" lon="-5.684938">
        <ele>1039.273</ele>
        <time>2021-10-13T12:56:34Z</time>
      </trkpt>
      <trkpt lat="40.446897" lon="-5.684713">
        <ele>1040.598</ele>
        <time>2021-10-13T12:56:36Z</time>
      </trkpt>
      <trkpt lat="40.447127" lon="-5.684597">
        <ele>1041.983</ele>
        <time>2021-10-13T12:56:37Z</time>
      </trkpt>
      <trkpt lat="40.447361" lon="-5.684478">
        <ele>1043.825</ele>
        <time>2021-10-13T12:56:38Z</time>
      </trkpt>
      <trkpt lat="40.447824" lon="-5.684243">
        <ele>1044.317</ele>
        <time>2021-10-13T12:56:40Z</time>
      </trkpt>
      <trkpt lat="40.448309" lon="-5.684004">
        <ele>1046.008</ele>
        <time>2021-10-13T12:56:42Z</time>
      </trkpt>
      <trkpt lat="40.448555" lon="-5.683888">
        <ele>1046.396</ele>
        <time>2021-10-13T12:56:43Z</time>
      </trkpt>
      <trkpt lat="40.448803" lon="-5.683767">
        <ele>1046.034</ele>
        <time>2021-10-13T12:56:44Z</time>
      </trkpt>
      <trkpt lat="40.449229" lon="-5.683557">
        <ele>1045.451</ele>
        <time>2021-10-13T12:56:46Z</time>
      </trkpt>
      <trkpt lat="40.449416" lon="-5.683464">
        <ele>1044.731</ele>
        <time>2021-10-13T12:56:47Z</time>
      </trkpt>
      <trkpt lat="40.449586" lon="-5.683374">
        <ele>1044.024</ele>
        <time>2021-10-13T12:56:48Z</time>
      </trkpt>
      <trkpt lat="40.449738" lon="-5.683286">
        <ele>1043.060</ele>
        <time>2021-10-13T12:56:49Z</time>
      </trkpt>
      <trkpt lat="40.449875" lon="-5.683186">
        <ele>1042.739</ele>
        <time>2021-10-13T12:56:50Z</time>
      </trkpt>
      <trkpt lat="40.450092" lon="-5.682951">
        <ele>1040.694</ele>
        <time>2021-10-13T12:56:52Z</time>
      </trkpt>
      <trkpt lat="40.450207" lon="-5.682711">
        <ele>1040.037</ele>
        <time>2021-10-13T12:56:54Z</time>
      </trkpt>
      <trkpt lat="40.450201" lon="-5.682454">
        <ele>1039.449</ele>
        <time>2021-10-13T12:56:56Z</time>
      </trkpt>
      <trkpt lat="40.450074" lon="-5.682199">
        <ele>1039.113</ele>
        <time>2021-10-13T12:56:58Z</time>
      </trkpt>
      <trkpt lat="40.449952" lon="-5.681943">
        <ele>1038.808</ele>
        <time>2021-10-13T12:57:00Z</time>
      </trkpt>
      <trkpt lat="40.449910" lon="-5.681697">
        <ele>1038.221</ele>
        <time>2021-10-13T12:57:02Z</time>
      </trkpt>
      <trkpt lat="40.449912" lon="-5.681481">
        <ele>1038.129</ele>
        <time>2021-10-13T12:57:04Z</time>
      </trkpt>
      <trkpt lat="40.449922" lon="-5.681381">
        <ele>1038.156</ele>
        <time>2021-10-13T12:57:05Z</time>
      </trkpt>
      <trkpt lat="40.450004" lon="-5.681240">
        <ele>1037.786</ele>
        <time>2021-10-13T12:57:07Z</time>
      </trkpt>
      <trkpt lat="40.450070" lon="-5.681212">
        <ele>1037.719</ele>
        <time>2021-10-13T12:57:08Z</time>
      </trkpt>
      <trkpt lat="40.450197" lon="-5.681256">
        <ele>1037.675</ele>
        <time>2021-10-13T12:57:10Z</time>
      </trkpt>
      <trkpt lat="40.450290" lon="-5.681409">
        <ele>1037.134</ele>
        <time>2021-10-13T12:57:12Z</time>
      </trkpt>
      <trkpt lat="40.450306" lon="-5.681533">
        <ele>1036.789</ele>
        <time>2021-10-13T12:57:13Z</time>
      </trkpt>
      <trkpt lat="40.450313" lon="-5.681672">
        <ele>1036.978</ele>
        <time>2021-10-13T12:57:14Z</time>
      </trkpt>
      <trkpt lat="40.450379" lon="-5.681960">
        <ele>1037.333</ele>
        <time>2021-10-13T12:57:16Z</time>
      </trkpt>
      <trkpt lat="40.450437" lon="-5.682123">
        <ele>1037.626</ele>
        <time>2021-10-13T12:57:17Z</time>
      </trkpt>
      <trkpt lat="40.450559" lon="-5.682509">
        <ele>1038.308</ele>
        <time>2021-10-13T12:57:19Z</time>
      </trkpt>
      <trkpt lat="40.450623" lon="-5.682724">
        <ele>1038.595</ele>
        <time>2021-10-13T12:57:20Z</time>
      </trkpt>
      <trkpt lat="40.450731" lon="-5.683083">
        <ele>1038.823</ele>
        <time>2021-10-13T12:57:22Z</time>
      </trkpt>
      <trkpt lat="40.450821" lon="-5.683386">
        <ele>1039.520</ele>
        <time>2021-10-13T12:57:24Z</time>
      </trkpt>
      <trkpt lat="40.450928" lon="-5.683634">
        <ele>1042.310</ele>
        <time>2021-10-13T12:57:26Z</time>
      </trkpt>
      <trkpt lat="40.451066" lon="-5.683757">
        <ele>1045.483</ele>
        <time>2021-10-13T12:57:28Z</time>
      </trkpt>
      <trkpt lat="40.451214" lon="-5.683876">
        <ele>1046.979</ele>
        <time>2021-10-13T12:57:30Z</time>
      </trkpt>
      <trkpt lat="40.451264" lon="-5.684080">
        <ele>1047.038</ele>
        <time>2021-10-13T12:57:32Z</time>
      </trkpt>
      <trkpt lat="40.451238" lon="-5.684325">
        <ele>1046.863</ele>
        <time>2021-10-13T12:57:34Z</time>
      </trkpt>
      <trkpt lat="40.451313" lon="-5.684469">
        <ele>1045.533</ele>
        <time>2021-10-13T12:57:36Z</time>
      </trkpt>
      <trkpt lat="40.451392" lon="-5.684476">
        <ele>1045.023</ele>
        <time>2021-10-13T12:57:37Z</time>
      </trkpt>
      <trkpt lat="40.451491" lon="-5.684433">
        <ele>1044.515</ele>
        <time>2021-10-13T12:57:38Z</time>
      </trkpt>
      <trkpt lat="40.451696" lon="-5.684171">
        <ele>1043.808</ele>
        <time>2021-10-13T12:57:40Z</time>
      </trkpt>
      <trkpt lat="40.451794" lon="-5.683965">
        <ele>1042.341</ele>
        <time>2021-10-13T12:57:41Z</time>
      </trkpt>
      <trkpt lat="40.451893" lon="-5.683725">
        <ele>1041.669</ele>
        <time>2021-10-13T12:57:42Z</time>
      </trkpt>
      <trkpt lat="40.451996" lon="-5.683480">
        <ele>1040.546</ele>
        <time>2021-10-13T12:57:43Z</time>
      </trkpt>
      <trkpt lat="40.452118" lon="-5.683246">
        <ele>1039.256</ele>
        <time>2021-10-13T12:57:44Z</time>
      </trkpt>
      <trkpt lat="40.452429" lon="-5.682857">
        <ele>1036.659</ele>
        <time>2021-10-13T12:57:46Z</time>
      </trkpt>
      <trkpt lat="40.452622" lon="-5.682686">
        <ele>1034.535</ele>
        <time>2021-10-13T12:57:47Z</time>
      </trkpt>
      <trkpt lat="40.452827" lon="-5.682527">
        <ele>1033.824</ele>
        <time>2021-10-13T12:57:48Z</time>
      </trkpt>
      <trkpt lat="40.453029" lon="-5.682380">
        <ele>1032.399</ele>
        <time>2021-10-13T12:57:49Z</time>
      </trkpt>
      <trkpt lat="40.453230" lon="-5.682238">
        <ele>1030.658</ele>
        <time>2021-10-13T12:57:50Z</time>
      </trkpt>
      <trkpt lat="40.453623" lon="-5.681974">
        <ele>1028.352</ele>
        <time>2021-10-13T12:57:52Z</time>
      </trkpt>
      <trkpt lat="40.454030" lon="-5.681735">
        <ele>1028.017</ele>
        <time>2021-10-13T12:57:54Z</time>
      </trkpt>
      <trkpt lat="40.454439" lon="-5.681522">
        <ele>1028.108</ele>
        <time>2021-10-13T12:57:56Z</time>
      </trkpt>
      <trkpt lat="40.454810" lon="-5.681328">
        <ele>1028.183</ele>
        <time>2021-10-13T12:57:58Z</time>
      </trkpt>
      <trkpt lat="40.455188" lon="-5.681132">
        <ele>1028.521</ele>
        <time>2021-10-13T12:58:00Z</time>
      </trkpt>
      <trkpt lat="40.455579" lon="-5.680936">
        <ele>1029.548</ele>
        <time>2021-10-13T12:58:02Z</time>
      </trkpt>
      <trkpt lat="40.455959" lon="-5.680734">
        <ele>1030.478</ele>
        <time>2021-10-13T12:58:04Z</time>
      </trkpt>
      <trkpt lat="40.456155" lon="-5.680624">
        <ele>1029.721</ele>
        <time>2021-10-13T12:58:05Z</time>
      </trkpt>
      <trkpt lat="40.456352" lon="-5.680518">
        <ele>1029.687</ele>
        <time>2021-10-13T12:58:06Z</time>
      </trkpt>
      <trkpt lat="40.456553" lon="-5.680416">
        <ele>1030.326</ele>
        <time>2021-10-13T12:58:07Z</time>
      </trkpt>
      <trkpt lat="40.456764" lon="-5.680310">
        <ele>1031.451</ele>
        <time>2021-10-13T12:58:08Z</time>
      </trkpt>
      <trkpt lat="40.457162" lon="-5.680107">
        <ele>1031.517</ele>
        <time>2021-10-13T12:58:10Z</time>
      </trkpt>
      <trkpt lat="40.457534" lon="-5.679919">
        <ele>1033.987</ele>
        <time>2021-10-13T12:58:12Z</time>
      </trkpt>
      <trkpt lat="40.457876" lon="-5.679743">
        <ele>1035.215</ele>
        <time>2021-10-13T12:58:14Z</time>
      </trkpt>
      <trkpt lat="40.458206" lon="-5.679569">
        <ele>1037.808</ele>
        <time>2021-10-13T12:58:16Z</time>
      </trkpt>
      <trkpt lat="40.458382" lon="-5.679476">
        <ele>1038.539</ele>
        <time>2021-10-13T12:58:17Z</time>
      </trkpt>
      <trkpt lat="40.458566" lon="-5.679384">
        <ele>1039.087</ele>
        <time>2021-10-13T12:58:18Z</time>
      </trkpt>
      <trkpt lat="40.458951" lon="-5.679185">
        <ele>1038.894</ele>
        <time>2021-10-13T12:58:20Z</time>
      </trkpt>
      <trkpt lat="40.459321" lon="-5.678977">
        <ele>1038.794</ele>
        <time>2021-10-13T12:58:22Z</time>
      </trkpt>
      <trkpt lat="40.459704" lon="-5.678776">
        <ele>1038.787</ele>
        <time>2021-10-13T12:58:24Z</time>
      </trkpt>
      <trkpt lat="40.459895" lon="-5.678681">
        <ele>1039.743</ele>
        <time>2021-10-13T12:58:25Z</time>
      </trkpt>
      <trkpt lat="40.460089" lon="-5.678588">
        <ele>1040.472</ele>
        <time>2021-10-13T12:58:26Z</time>
      </trkpt>
      <trkpt lat="40.460426" lon="-5.678431">
        <ele>1040.917</ele>
        <time>2021-10-13T12:58:28Z</time>
      </trkpt>
      <trkpt lat="40.460757" lon="-5.678298">
        <ele>1042.448</ele>
        <time>2021-10-13T12:58:30Z</time>
      </trkpt>
      <trkpt lat="40.461121" lon="-5.678195">
        <ele>1043.061</ele>
        <time>2021-10-13T12:58:32Z</time>
      </trkpt>
      <trkpt lat="40.461515" lon="-5.678128">
        <ele>1043.917</ele>
        <time>2021-10-13T12:58:34Z</time>
      </trkpt>
      <trkpt lat="40.461922" lon="-5.678152">
        <ele>1044.208</ele>
        <time>2021-10-13T12:58:36Z</time>
      </trkpt>
      <trkpt lat="40.462310" lon="-5.678279">
        <ele>1045.242</ele>
        <time>2021-10-13T12:58:38Z</time>
      </trkpt>
      <trkpt lat="40.462618" lon="-5.678470">
        <ele>1046.330</ele>
        <time>2021-10-13T12:58:40Z</time>
      </trkpt>
      <trkpt lat="40.462751" lon="-5.678575">
        <ele>1046.017</ele>
        <time>2021-10-13T12:58:41Z</time>
      </trkpt>
      <trkpt lat="40.462981" lon="-5.678760">
        <ele>1046.097</ele>
        <time>2021-10-13T12:58:43Z</time>
      </trkpt>
      <trkpt lat="40.463097" lon="-5.678822">
        <ele>1045.220</ele>
        <time>2021-10-13T12:58:44Z</time>
      </trkpt>
      <trkpt lat="40.463314" lon="-5.678865">
        <ele>1044.316</ele>
        <time>2021-10-13T12:58:46Z</time>
      </trkpt>
      <trkpt lat="40.463480" lon="-5.678783">
        <ele>1042.855</ele>
        <time>2021-10-13T12:58:48Z</time>
      </trkpt>
      <trkpt lat="40.463541" lon="-5.678693">
        <ele>1042.420</ele>
        <time>2021-10-13T12:58:49Z</time>
      </trkpt>
      <trkpt lat="40.463581" lon="-5.678584">
        <ele>1040.547</ele>
        <time>2021-10-13T12:58:50Z</time>
      </trkpt>
      <trkpt lat="40.463663" lon="-5.678400">
        <ele>1039.929</ele>
        <time>2021-10-13T12:58:52Z</time>
      </trkpt>
      <trkpt lat="40.463721" lon="-5.678353">
        <ele>1039.721</ele>
        <time>2021-10-13T12:58:53Z</time>
      </trkpt>
      <trkpt lat="40.463838" lon="-5.678356">
        <ele>1038.208</ele>
        <time>2021-10-13T12:58:55Z</time>
      </trkpt>
      <trkpt lat="40.463894" lon="-5.678429">
        <ele>1038.042</ele>
        <time>2021-10-13T12:58:56Z</time>
      </trkpt>
      <trkpt lat="40.464025" lon="-5.678657">
        <ele>1036.130</ele>
        <time>2021-10-13T12:58:58Z</time>
      </trkpt>
      <trkpt lat="40.464227" lon="-5.678747">
        <ele>1035.437</ele>
        <time>2021-10-13T12:59:00Z</time>
      </trkpt>
      <trkpt lat="40.464495" lon="-5.678670">
        <ele>1035.987</ele>
        <time>2021-10-13T12:59:02Z</time>
      </trkpt>
      <trkpt lat="40.464837" lon="-5.678548">
        <ele>1037.510</ele>
        <time>2021-10-13T12:59:04Z</time>
      </trkpt>
      <trkpt lat="40.465030" lon="-5.678528">
        <ele>1038.156</ele>
        <time>2021-10-13T12:59:05Z</time>
      </trkpt>
      <trkpt lat="40.465434" lon="-5.678631">
        <ele>1040.395</ele>
        <time>2021-10-13T12:59:07Z</time>
      </trkpt>
      <trkpt lat="40.465648" lon="-5.678747">
        <ele>1042.030</ele>
        <time>2021-10-13T12:59:08Z</time>
      </trkpt>
      <trkpt lat="40.466059" lon="-5.678991">
        <ele>1045.484</ele>
        <time>2021-10-13T12:59:10Z</time>
      </trkpt>
      <trkpt lat="40.466274" lon="-5.679122">
        <ele>1047.207</ele>
        <time>2021-10-13T12:59:11Z</time>
      </trkpt>
      <trkpt lat="40.466705" lon="-5.679421">
        <ele>1051.117</ele>
        <time>2021-10-13T12:59:13Z</time>
      </trkpt>
      <trkpt lat="40.466935" lon="-5.679601">
        <ele>1052.408</ele>
        <time>2021-10-13T12:59:14Z</time>
      </trkpt>
      <trkpt lat="40.467376" lon="-5.679959">
        <ele>1056.736</ele>
        <time>2021-10-13T12:59:16Z</time>
      </trkpt>
      <trkpt lat="40.467834" lon="-5.680323">
        <ele>1059.534</ele>
        <time>2021-10-13T12:59:18Z</time>
      </trkpt>
      <trkpt lat="40.468306" lon="-5.680689">
        <ele>1061.361</ele>
        <time>2021-10-13T12:59:20Z</time>
      </trkpt>
      <trkpt lat="40.468781" lon="-5.681036">
        <ele>1062.361</ele>
        <time>2021-10-13T12:59:22Z</time>
      </trkpt>
      <trkpt lat="40.469277" lon="-5.681360">
        <ele>1064.234</ele>
        <time>2021-10-13T12:59:24Z</time>
      </trkpt>
      <trkpt lat="40.469535" lon="-5.681514">
        <ele>1064.530</ele>
        <time>2021-10-13T12:59:25Z</time>
      </trkpt>
      <trkpt lat="40.469803" lon="-5.681654">
        <ele>1065.529</ele>
        <time>2021-10-13T12:59:26Z</time>
      </trkpt>
      <trkpt lat="40.470316" lon="-5.681902">
        <ele>1066.374</ele>
        <time>2021-10-13T12:59:28Z</time>
      </trkpt>
      <trkpt lat="40.470564" lon="-5.682014">
        <ele>1066.013</ele>
        <time>2021-10-13T12:59:29Z</time>
      </trkpt>
      <trkpt lat="40.470795" lon="-5.682119">
        <ele>1065.543</ele>
        <time>2021-10-13T12:59:30Z</time>
      </trkpt>
      <trkpt lat="40.471233" lon="-5.682309">
        <ele>1066.607</ele>
        <time>2021-10-13T12:59:32Z</time>
      </trkpt>
      <trkpt lat="40.471654" lon="-5.682447">
        <ele>1066.708</ele>
        <time>2021-10-13T12:59:34Z</time>
      </trkpt>
      <trkpt lat="40.471870" lon="-5.682500">
        <ele>1067.069</ele>
        <time>2021-10-13T12:59:35Z</time>
      </trkpt>
      <trkpt lat="40.472087" lon="-5.682534">
        <ele>1067.817</ele>
        <time>2021-10-13T12:59:36Z</time>
      </trkpt>
      <trkpt lat="40.472520" lon="-5.682545">
        <ele>1068.184</ele>
        <time>2021-10-13T12:59:38Z</time>
      </trkpt>
      <trkpt lat="40.472950" lon="-5.682531">
        <ele>1066.744</ele>
        <time>2021-10-13T12:59:40Z</time>
      </trkpt>
      <trkpt lat="40.473178" lon="-5.682527">
        <ele>1064.717</ele>
        <time>2021-10-13T12:59:41Z</time>
      </trkpt>
      <trkpt lat="40.473624" lon="-5.682524">
        <ele>1062.443</ele>
        <time>2021-10-13T12:59:43Z</time>
      </trkpt>
      <trkpt lat="40.473858" lon="-5.682515">
        <ele>1060.372</ele>
        <time>2021-10-13T12:59:44Z</time>
      </trkpt>
      <trkpt lat="40.474308" lon="-5.682452">
        <ele>1056.727</ele>
        <time>2021-10-13T12:59:46Z</time>
      </trkpt>
      <trkpt lat="40.474536" lon="-5.682414">
        <ele>1054.797</ele>
        <time>2021-10-13T12:59:47Z</time>
      </trkpt>
      <trkpt lat="40.474755" lon="-5.682376">
        <ele>1052.323</ele>
        <time>2021-10-13T12:59:48Z</time>
      </trkpt>
      <trkpt lat="40.475172" lon="-5.682328">
        <ele>1048.425</ele>
        <time>2021-10-13T12:59:50Z</time>
      </trkpt>
      <trkpt lat="40.475540" lon="-5.682309">
        <ele>1044.408</ele>
        <time>2021-10-13T12:59:52Z</time>
      </trkpt>
      <trkpt lat="40.475724" lon="-5.682310">
        <ele>1043.387</ele>
        <time>2021-10-13T12:59:53Z</time>
      </trkpt>
      <trkpt lat="40.476085" lon="-5.682338">
        <ele>1040.815</ele>
        <time>2021-10-13T12:59:55Z</time>
      </trkpt>
      <trkpt lat="40.476263" lon="-5.682358">
        <ele>1038.762</ele>
        <time>2021-10-13T12:59:56Z</time>
      </trkpt>
      <trkpt lat="40.476556" lon="-5.682383">
        <ele>1036.982</ele>
        <time>2021-10-13T12:59:58Z</time>
      </trkpt>
      <trkpt lat="40.476682" lon="-5.682378">
        <ele>1036.325</ele>
        <time>2021-10-13T12:59:59Z</time>
      </trkpt>
      <trkpt lat="40.476895" lon="-5.682305">
        <ele>1035.531</ele>
        <time>2021-10-13T13:00:01Z</time>
      </trkpt>
      <trkpt lat="40.476985" lon="-5.682228">
        <ele>1035.580</ele>
        <time>2021-10-13T13:00:02Z</time>
      </trkpt>
      <trkpt lat="40.477085" lon="-5.682013">
        <ele>1034.645</ele>
        <time>2021-10-13T13:00:04Z</time>
      </trkpt>
      <trkpt lat="40.477106" lon="-5.681785">
        <ele>1034.696</ele>
        <time>2021-10-13T13:00:06Z</time>
      </trkpt>
      <trkpt lat="40.477134" lon="-5.681691">
        <ele>1034.631</ele>
        <time>2021-10-13T13:00:07Z</time>
      </trkpt>
      <trkpt lat="40.477194" lon="-5.681608">
        <ele>1034.724</ele>
        <time>2021-10-13T13:00:08Z</time>
      </trkpt>
      <trkpt lat="40.477389" lon="-5.681494">
        <ele>1035.608</ele>
        <time>2021-10-13T13:00:10Z</time>
      </trkpt>
      <trkpt lat="40.477663" lon="-5.681346">
        <ele>1035.627</ele>
        <time>2021-10-13T13:00:12Z</time>
      </trkpt>
      <trkpt lat="40.477970" lon="-5.681053">
        <ele>1035.755</ele>
        <time>2021-10-13T13:00:14Z</time>
      </trkpt>
      <trkpt lat="40.478317" lon="-5.680735">
        <ele>1035.522</ele>
        <time>2021-10-13T13:00:16Z</time>
      </trkpt>
      <trkpt lat="40.478514" lon="-5.680569">
        <ele>1035.442</ele>
        <time>2021-10-13T13:00:17Z</time>
      </trkpt>
      <trkpt lat="40.478932" lon="-5.680216">
        <ele>1034.045</ele>
        <time>2021-10-13T13:00:19Z</time>
      </trkpt>
      <trkpt lat="40.479166" lon="-5.680023">
        <ele>1034.271</ele>
        <time>2021-10-13T13:00:20Z</time>
      </trkpt>
      <trkpt lat="40.479625" lon="-5.679653">
        <ele>1034.280</ele>
        <time>2021-10-13T13:00:22Z</time>
      </trkpt>
      <trkpt lat="40.480016" lon="-5.679305">
        <ele>1034.055</ele>
        <time>2021-10-13T13:00:24Z</time>
      </trkpt>
      <trkpt lat="40.480346" lon="-5.679033">
        <ele>1033.818</ele>
        <time>2021-10-13T13:00:26Z</time>
      </trkpt>
      <trkpt lat="40.480674" lon="-5.678878">
        <ele>1033.898</ele>
        <time>2021-10-13T13:00:28Z</time>
      </trkpt>
      <trkpt lat="40.480846" lon="-5.678852">
        <ele>1033.417</ele>
        <time>2021-10-13T13:00:29Z</time>
      </trkpt>
      <trkpt lat="40.481009" lon="-5.678848">
        <ele>1033.008</ele>
        <time>2021-10-13T13:00:30Z</time>
      </trkpt>
      <trkpt lat="40.481297" lon="-5.678879">
        <ele>1033.159</ele>
        <time>2021-10-13T13:00:32Z</time>
      </trkpt>
      <trkpt lat="40.481508" lon="-5.678842">
        <ele>1031.577</ele>
        <time>2021-10-13T13:00:34Z</time>
      </trkpt>
      <trkpt lat="40.481596" lon="-5.678779">
        <ele>1031.414</ele>
        <time>2021-10-13T13:00:35Z</time>
      </trkpt>
      <trkpt lat="40.481667" lon="-5.678698">
        <ele>1031.444</ele>
        <time>2021-10-13T13:00:36Z</time>
      </trkpt>
      <trkpt lat="40.481814" lon="-5.678595">
        <ele>1031.547</ele>
        <time>2021-10-13T13:00:38Z</time>
      </trkpt>
      <trkpt lat="40.481975" lon="-5.678640">
        <ele>1030.423</ele>
        <time>2021-10-13T13:00:40Z</time>
      </trkpt>
      <trkpt lat="40.482040" lon="-5.678727">
        <ele>1030.062</ele>
        <time>2021-10-13T13:00:41Z</time>
      </trkpt>
      <trkpt lat="40.482084" lon="-5.678849">
        <ele>1029.927</ele>
        <time>2021-10-13T13:00:42Z</time>
      </trkpt>
      <trkpt lat="40.482240" lon="-5.679062">
        <ele>1028.844</ele>
        <time>2021-10-13T13:00:44Z</time>
      </trkpt>
      <trkpt lat="40.482480" lon="-5.679074">
        <ele>1028.405</ele>
        <time>2021-10-13T13:00:46Z</time>
      </trkpt>
      <trkpt lat="40.482620" lon="-5.679003">
        <ele>1028.415</ele>
        <time>2021-10-13T13:00:47Z</time>
      </trkpt>
      <trkpt lat="40.482902" lon="-5.678692">
        <ele>1028.208</ele>
        <time>2021-10-13T13:00:49Z</time>
      </trkpt>
      <trkpt lat="40.483053" lon="-5.678458">
        <ele>1028.552</ele>
        <time>2021-10-13T13:00:50Z</time>
      </trkpt>
      <trkpt lat="40.483387" lon="-5.678004">
        <ele>1029.290</ele>
        <time>2021-10-13T13:00:52Z</time>
      </trkpt>
      <trkpt lat="40.483589" lon="-5.677805">
        <ele>1029.637</ele>
        <time>2021-10-13T13:00:53Z</time>
      </trkpt>
      <trkpt lat="40.484044" lon="-5.677474">
        <ele>1030.097</ele>
        <time>2021-10-13T13:00:55Z</time>
      </trkpt>
      <trkpt lat="40.484300" lon="-5.677350">
        <ele>1029.440</ele>
        <time>2021-10-13T13:00:56Z</time>
      </trkpt>
      <trkpt lat="40.484831" lon="-5.677217">
        <ele>1029.376</ele>
        <time>2021-10-13T13:00:58Z</time>
      </trkpt>
      <trkpt lat="40.485115" lon="-5.677183">
        <ele>1029.115</ele>
        <time>2021-10-13T13:00:59Z</time>
      </trkpt>
      <trkpt lat="40.485676" lon="-5.677138">
        <ele>1029.080</ele>
        <time>2021-10-13T13:01:01Z</time>
      </trkpt>
      <trkpt lat="40.485951" lon="-5.677114">
        <ele>1028.954</ele>
        <time>2021-10-13T13:01:02Z</time>
      </trkpt>
      <trkpt lat="40.486480" lon="-5.677065">
        <ele>1026.656</ele>
        <time>2021-10-13T13:01:04Z</time>
      </trkpt>
      <trkpt lat="40.486758" lon="-5.677038">
        <ele>1024.911</ele>
        <time>2021-10-13T13:01:05Z</time>
      </trkpt>
      <trkpt lat="40.487036" lon="-5.677010">
        <ele>1023.208</ele>
        <time>2021-10-13T13:01:06Z</time>
      </trkpt>
      <trkpt lat="40.487586" lon="-5.676955">
        <ele>1021.183</ele>
        <time>2021-10-13T13:01:08Z</time>
      </trkpt>
      <trkpt lat="40.488068" lon="-5.676898">
        <ele>1019.741</ele>
        <time>2021-10-13T13:01:10Z</time>
      </trkpt>
      <trkpt lat="40.488301" lon="-5.676875">
        <ele>1019.388</ele>
        <time>2021-10-13T13:01:11Z</time>
      </trkpt>
      <trkpt lat="40.488523" lon="-5.676851">
        <ele>1018.338</ele>
        <time>2021-10-13T13:01:12Z</time>
      </trkpt>
      <trkpt lat="40.488964" lon="-5.676811">
        <ele>1017.381</ele>
        <time>2021-10-13T13:01:14Z</time>
      </trkpt>
      <trkpt lat="40.489383" lon="-5.676760">
        <ele>1017.457</ele>
        <time>2021-10-13T13:01:16Z</time>
      </trkpt>
      <trkpt lat="40.489597" lon="-5.676740">
        <ele>1016.966</ele>
        <time>2021-10-13T13:01:17Z</time>
      </trkpt>
      <trkpt lat="40.489808" lon="-5.676721">
        <ele>1016.131</ele>
        <time>2021-10-13T13:01:18Z</time>
      </trkpt>
      <trkpt lat="40.490230" lon="-5.676673">
        <ele>1016.739</ele>
        <time>2021-10-13T13:01:20Z</time>
      </trkpt>
      <trkpt lat="40.490646" lon="-5.676626">
        <ele>1016.601</ele>
        <time>2021-10-13T13:01:22Z</time>
      </trkpt>
      <trkpt lat="40.491098" lon="-5.676574">
        <ele>1016.621</ele>
        <time>2021-10-13T13:01:24Z</time>
      </trkpt>
      <trkpt lat="40.491331" lon="-5.676545">
        <ele>1016.108</ele>
        <time>2021-10-13T13:01:25Z</time>
      </trkpt>
      <trkpt lat="40.491816" lon="-5.676490">
        <ele>1015.331</ele>
        <time>2021-10-13T13:01:27Z</time>
      </trkpt>
      <trkpt lat="40.492336" lon="-5.676434">
        <ele>1016.199</ele>
        <time>2021-10-13T13:01:29Z</time>
      </trkpt>
      <trkpt lat="40.492608" lon="-5.676399">
        <ele>1016.016</ele>
        <time>2021-10-13T13:01:30Z</time>
      </trkpt>
      <trkpt lat="40.493165" lon="-5.676347">
        <ele>1015.446</ele>
        <time>2021-10-13T13:01:32Z</time>
      </trkpt>
      <trkpt lat="40.493697" lon="-5.676300">
        <ele>1015.339</ele>
        <time>2021-10-13T13:01:34Z</time>
      </trkpt>
      <trkpt lat="40.493968" lon="-5.676276">
        <ele>1014.865</ele>
        <time>2021-10-13T13:01:35Z</time>
      </trkpt>
      <trkpt lat="40.494504" lon="-5.676230">
        <ele>1016.244</ele>
        <time>2021-10-13T13:01:37Z</time>
      </trkpt>
      <trkpt lat="40.494776" lon="-5.676225">
        <ele>1016.839</ele>
        <time>2021-10-13T13:01:38Z</time>
      </trkpt>
      <trkpt lat="40.495288" lon="-5.676218">
        <ele>1017.071</ele>
        <time>2021-10-13T13:01:40Z</time>
      </trkpt>
      <trkpt lat="40.495533" lon="-5.676214">
        <ele>1018.341</ele>
        <time>2021-10-13T13:01:41Z</time>
      </trkpt>
      <trkpt lat="40.495760" lon="-5.676216">
        <ele>1019.115</ele>
        <time>2021-10-13T13:01:42Z</time>
      </trkpt>
      <trkpt lat="40.496174" lon="-5.676230">
        <ele>1019.708</ele>
        <time>2021-10-13T13:01:44Z</time>
      </trkpt>
      <trkpt lat="40.496521" lon="-5.676256">
        <ele>1017.795</ele>
        <time>2021-10-13T13:01:46Z</time>
      </trkpt>
      <trkpt lat="40.496683" lon="-5.676273">
        <ele>1016.713</ele>
        <time>2021-10-13T13:01:47Z</time>
      </trkpt>
      <trkpt lat="40.496994" lon="-5.676361">
        <ele>1013.710</ele>
        <time>2021-10-13T13:01:49Z</time>
      </trkpt>
      <trkpt lat="40.497144" lon="-5.676444">
        <ele>1012.820</ele>
        <time>2021-10-13T13:01:50Z</time>
      </trkpt>
      <trkpt lat="40.497390" lon="-5.676672">
        <ele>1011.243</ele>
        <time>2021-10-13T13:01:52Z</time>
      </trkpt>
      <trkpt lat="40.497495" lon="-5.676810">
        <ele>1009.679</ele>
        <time>2021-10-13T13:01:53Z</time>
      </trkpt>
      <trkpt lat="40.497594" lon="-5.676953">
        <ele>1008.858</ele>
        <time>2021-10-13T13:01:54Z</time>
      </trkpt>
      <trkpt lat="40.497790" lon="-5.677232">
        <ele>1007.053</ele>
        <time>2021-10-13T13:01:56Z</time>
      </trkpt>
      <trkpt lat="40.497993" lon="-5.677452">
        <ele>1005.176</ele>
        <time>2021-10-13T13:01:58Z</time>
      </trkpt>
      <trkpt lat="40.498215" lon="-5.677531">
        <ele>1003.890</ele>
        <time>2021-10-13T13:02:00Z</time>
      </trkpt>
      <trkpt lat="40.498401" lon="-5.677419">
        <ele>1003.519</ele>
        <time>2021-10-13T13:02:02Z</time>
      </trkpt>
      <trkpt lat="40.498569" lon="-5.677307">
        <ele>1003.508</ele>
        <time>2021-10-13T13:02:04Z</time>
      </trkpt>
      <trkpt lat="40.498674" lon="-5.677294">
        <ele>1003.615</ele>
        <time>2021-10-13T13:02:05Z</time>
      </trkpt>
      <trkpt lat="40.498786" lon="-5.677298">
        <ele>1003.663</ele>
        <time>2021-10-13T13:02:06Z</time>
      </trkpt>
      <trkpt lat="40.499041" lon="-5.677257">
        <ele>1003.370</ele>
        <time>2021-10-13T13:02:08Z</time>
      </trkpt>
      <trkpt lat="40.499299" lon="-5.677053">
        <ele>999.770</ele>
        <time>2021-10-13T13:02:10Z</time>
      </trkpt>
      <trkpt lat="40.499439" lon="-5.676894">
        <ele>998.643</ele>
        <time>2021-10-13T13:02:11Z</time>
      </trkpt>
      <trkpt lat="40.499759" lon="-5.676568">
        <ele>996.529</ele>
        <time>2021-10-13T13:02:13Z</time>
      </trkpt>
      <trkpt lat="40.499940" lon="-5.676437">
        <ele>994.198</ele>
        <time>2021-10-13T13:02:14Z</time>
      </trkpt>
      <trkpt lat="40.500339" lon="-5.676303">
        <ele>991.413</ele>
        <time>2021-10-13T13:02:16Z</time>
      </trkpt>
      <trkpt lat="40.500560" lon="-5.676294">
        <ele>989.867</ele>
        <time>2021-10-13T13:02:17Z</time>
      </trkpt>
      <trkpt lat="40.500788" lon="-5.676307">
        <ele>989.281</ele>
        <time>2021-10-13T13:02:18Z</time>
      </trkpt>
      <trkpt lat="40.501262" lon="-5.676364">
        <ele>987.419</ele>
        <time>2021-10-13T13:02:20Z</time>
      </trkpt>
      <trkpt lat="40.501733" lon="-5.676405">
        <ele>986.408</ele>
        <time>2021-10-13T13:02:22Z</time>
      </trkpt>
      <trkpt lat="40.502178" lon="-5.676426">
        <ele>987.144</ele>
        <time>2021-10-13T13:02:24Z</time>
      </trkpt>
      <trkpt lat="40.502584" lon="-5.676427">
        <ele>986.152</ele>
        <time>2021-10-13T13:02:26Z</time>
      </trkpt>
      <trkpt lat="40.502942" lon="-5.676422">
        <ele>987.249</ele>
        <time>2021-10-13T13:02:28Z</time>
      </trkpt>
      <trkpt lat="40.503123" lon="-5.676434">
        <ele>987.029</ele>
        <time>2021-10-13T13:02:29Z</time>
      </trkpt>
      <trkpt lat="40.503301" lon="-5.676468">
        <ele>986.792</ele>
        <time>2021-10-13T13:02:30Z</time>
      </trkpt>
      <trkpt lat="40.503651" lon="-5.676600">
        <ele>986.818</ele>
        <time>2021-10-13T13:02:32Z</time>
      </trkpt>
      <trkpt lat="40.503987" lon="-5.676724">
        <ele>987.377</ele>
        <time>2021-10-13T13:02:34Z</time>
      </trkpt>
      <trkpt lat="40.504158" lon="-5.676752">
        <ele>987.652</ele>
        <time>2021-10-13T13:02:35Z</time>
      </trkpt>
      <trkpt lat="40.504485" lon="-5.676711">
        <ele>988.244</ele>
        <time>2021-10-13T13:02:37Z</time>
      </trkpt>
      <trkpt lat="40.504652" lon="-5.676644">
        <ele>987.805</ele>
        <time>2021-10-13T13:02:38Z</time>
      </trkpt>
      <trkpt lat="40.504977" lon="-5.676442">
        <ele>987.315</ele>
        <time>2021-10-13T13:02:40Z</time>
      </trkpt>
      <trkpt lat="40.505151" lon="-5.676322">
        <ele>986.708</ele>
        <time>2021-10-13T13:02:41Z</time>
      </trkpt>
      <trkpt lat="40.505538" lon="-5.676125">
        <ele>984.682</ele>
        <time>2021-10-13T13:02:43Z</time>
      </trkpt>
      <trkpt lat="40.505767" lon="-5.676054">
        <ele>982.910</ele>
        <time>2021-10-13T13:02:44Z</time>
      </trkpt>
      <trkpt lat="40.506237" lon="-5.675930">
        <ele>978.037</ele>
        <time>2021-10-13T13:02:46Z</time>
      </trkpt>
      <trkpt lat="40.506492" lon="-5.675859">
        <ele>976.467</ele>
        <time>2021-10-13T13:02:47Z</time>
      </trkpt>
      <trkpt lat="40.506755" lon="-5.675789">
        <ele>974.740</ele>
        <time>2021-10-13T13:02:48Z</time>
      </trkpt>
      <trkpt lat="40.507293" lon="-5.675638">
        <ele>970.646</ele>
        <time>2021-10-13T13:02:50Z</time>
      </trkpt>
      <trkpt lat="40.507794" lon="-5.675488">
        <ele>966.835</ele>
        <time>2021-10-13T13:02:52Z</time>
      </trkpt>
      <trkpt lat="40.508034" lon="-5.675423">
        <ele>966.080</ele>
        <time>2021-10-13T13:02:53Z</time>
      </trkpt>
      <trkpt lat="40.508494" lon="-5.675313">
        <ele>964.891</ele>
        <time>2021-10-13T13:02:55Z</time>
      </trkpt>
      <trkpt lat="40.508730" lon="-5.675254">
        <ele>963.581</ele>
        <time>2021-10-13T13:02:56Z</time>
      </trkpt>
      <trkpt lat="40.509196" lon="-5.675150">
        <ele>962.919</ele>
        <time>2021-10-13T13:02:58Z</time>
      </trkpt>
      <trkpt lat="40.509436" lon="-5.675094">
        <ele>962.508</ele>
        <time>2021-10-13T13:02:59Z</time>
      </trkpt>
      <trkpt lat="40.509677" lon="-5.675037">
        <ele>962.757</ele>
        <time>2021-10-13T13:03:00Z</time>
      </trkpt>
      <trkpt lat="40.510169" lon="-5.674923">
        <ele>963.165</ele>
        <time>2021-10-13T13:03:02Z</time>
      </trkpt>
      <trkpt lat="40.510648" lon="-5.674820">
        <ele>963.892</ele>
        <time>2021-10-13T13:03:04Z</time>
      </trkpt>
      <trkpt lat="40.511133" lon="-5.674743">
        <ele>963.632</ele>
        <time>2021-10-13T13:03:06Z</time>
      </trkpt>
      <trkpt lat="40.511381" lon="-5.674730">
        <ele>964.385</ele>
        <time>2021-10-13T13:03:07Z</time>
      </trkpt>
      <trkpt lat="40.511634" lon="-5.674736">
        <ele>964.921</ele>
        <time>2021-10-13T13:03:08Z</time>
      </trkpt>
      <trkpt lat="40.512123" lon="-5.674758">
        <ele>965.890</ele>
        <time>2021-10-13T13:03:10Z</time>
      </trkpt>
      <trkpt lat="40.512361" lon="-5.674761">
        <ele>966.995</ele>
        <time>2021-10-13T13:03:11Z</time>
      </trkpt>
      <trkpt lat="40.512584" lon="-5.674765">
        <ele>967.814</ele>
        <time>2021-10-13T13:03:12Z</time>
      </trkpt>
      <trkpt lat="40.513005" lon="-5.674770">
        <ele>968.854</ele>
        <time>2021-10-13T13:03:14Z</time>
      </trkpt>
      <trkpt lat="40.513370" lon="-5.674768">
        <ele>970.009</ele>
        <time>2021-10-13T13:03:16Z</time>
      </trkpt>
      <trkpt lat="40.513717" lon="-5.674748">
        <ele>970.408</ele>
        <time>2021-10-13T13:03:18Z</time>
      </trkpt>
      <trkpt lat="40.514074" lon="-5.674634">
        <ele>971.669</ele>
        <time>2021-10-13T13:03:20Z</time>
      </trkpt>
      <trkpt lat="40.514398" lon="-5.674429">
        <ele>970.947</ele>
        <time>2021-10-13T13:03:22Z</time>
      </trkpt>
      <trkpt lat="40.514561" lon="-5.674313">
        <ele>970.964</ele>
        <time>2021-10-13T13:03:23Z</time>
      </trkpt>
      <trkpt lat="40.514924" lon="-5.674109">
        <ele>970.544</ele>
        <time>2021-10-13T13:03:25Z</time>
      </trkpt>
      <trkpt lat="40.515135" lon="-5.674034">
        <ele>969.687</ele>
        <time>2021-10-13T13:03:26Z</time>
      </trkpt>
      <trkpt lat="40.515584" lon="-5.673913">
        <ele>968.063</ele>
        <time>2021-10-13T13:03:28Z</time>
      </trkpt>
      <trkpt lat="40.515827" lon="-5.673864">
        <ele>966.982</ele>
        <time>2021-10-13T13:03:29Z</time>
      </trkpt>
      <trkpt lat="40.516352" lon="-5.673765">
        <ele>964.287</ele>
        <time>2021-10-13T13:03:31Z</time>
      </trkpt>
      <trkpt lat="40.516628" lon="-5.673705">
        <ele>963.365</ele>
        <time>2021-10-13T13:03:32Z</time>
      </trkpt>
      <trkpt lat="40.517132" lon="-5.673581">
        <ele>958.968</ele>
        <time>2021-10-13T13:03:34Z</time>
      </trkpt>
      <trkpt lat="40.517375" lon="-5.673515">
        <ele>957.714</ele>
        <time>2021-10-13T13:03:35Z</time>
      </trkpt>
      <trkpt lat="40.517854" lon="-5.673401">
        <ele>955.808</ele>
        <time>2021-10-13T13:03:37Z</time>
      </trkpt>
      <trkpt lat="40.518098" lon="-5.673338">
        <ele>955.764</ele>
        <time>2021-10-13T13:03:38Z</time>
      </trkpt>
      <trkpt lat="40.518551" lon="-5.673217">
        <ele>955.012</ele>
        <time>2021-10-13T13:03:40Z</time>
      </trkpt>
      <trkpt lat="40.518979" lon="-5.673103">
        <ele>955.399</ele>
        <time>2021-10-13T13:03:42Z</time>
      </trkpt>
      <trkpt lat="40.519368" lon="-5.672995">
        <ele>954.769</ele>
        <time>2021-10-13T13:03:44Z</time>
      </trkpt>
      <trkpt lat="40.519727" lon="-5.672887">
        <ele>955.912</ele>
        <time>2021-10-13T13:03:46Z</time>
      </trkpt>
      <trkpt lat="40.519898" lon="-5.672847">
        <ele>956.358</ele>
        <time>2021-10-13T13:03:47Z</time>
      </trkpt>
      <trkpt lat="40.520218" lon="-5.672790">
        <ele>954.457</ele>
        <time>2021-10-13T13:03:49Z</time>
      </trkpt>
      <trkpt lat="40.520383" lon="-5.672767">
        <ele>953.632</ele>
        <time>2021-10-13T13:03:50Z</time>
      </trkpt>
      <trkpt lat="40.520700" lon="-5.672715">
        <ele>953.292</ele>
        <time>2021-10-13T13:03:52Z</time>
      </trkpt>
      <trkpt lat="40.521016" lon="-5.672658">
        <ele>952.273</ele>
        <time>2021-10-13T13:03:54Z</time>
      </trkpt>
      <trkpt lat="40.521170" lon="-5.672630">
        <ele>951.620</ele>
        <time>2021-10-13T13:03:55Z</time>
      </trkpt>
      <trkpt lat="40.521322" lon="-5.672602">
        <ele>951.708</ele>
        <time>2021-10-13T13:03:56Z</time>
      </trkpt>
      <trkpt lat="40.521620" lon="-5.672551">
        <ele>951.717</ele>
        <time>2021-10-13T13:03:58Z</time>
      </trkpt>
      <trkpt lat="40.521782" lon="-5.672526">
        <ele>952.185</ele>
        <time>2021-10-13T13:03:59Z</time>
      </trkpt>
      <trkpt lat="40.522111" lon="-5.672489">
        <ele>951.522</ele>
        <time>2021-10-13T13:04:01Z</time>
      </trkpt>
      <trkpt lat="40.522283" lon="-5.672480">
        <ele>951.882</ele>
        <time>2021-10-13T13:04:02Z</time>
      </trkpt>
      <trkpt lat="40.522601" lon="-5.672493">
        <ele>951.595</ele>
        <time>2021-10-13T13:04:04Z</time>
      </trkpt>
      <trkpt lat="40.522755" lon="-5.672510">
        <ele>951.861</ele>
        <time>2021-10-13T13:04:05Z</time>
      </trkpt>
      <trkpt lat="40.523039" lon="-5.672563">
        <ele>953.450</ele>
        <time>2021-10-13T13:04:07Z</time>
      </trkpt>
      <trkpt lat="40.523173" lon="-5.672596">
        <ele>953.625</ele>
        <time>2021-10-13T13:04:08Z</time>
      </trkpt>
      <trkpt lat="40.523393" lon="-5.672661">
        <ele>953.681</ele>
        <time>2021-10-13T13:04:10Z</time>
      </trkpt>
      <trkpt lat="40.523565" lon="-5.672714">
        <ele>955.261</ele>
        <time>2021-10-13T13:04:12Z</time>
      </trkpt>
      <trkpt lat="40.523727" lon="-5.672730">
        <ele>955.717</ele>
        <time>2021-10-13T13:04:14Z</time>
      </trkpt>
      <trkpt lat="40.523847" lon="-5.672646">
        <ele>957.208</ele>
        <time>2021-10-13T13:04:16Z</time>
      </trkpt>
      <trkpt lat="40.523901" lon="-5.672565">
        <ele>957.246</ele>
        <time>2021-10-13T13:04:17Z</time>
      </trkpt>
      <trkpt lat="40.524026" lon="-5.672471">
        <ele>956.624</ele>
        <time>2021-10-13T13:04:19Z</time>
      </trkpt>
      <trkpt lat="40.524094" lon="-5.672487">
        <ele>956.251</ele>
        <time>2021-10-13T13:04:20Z</time>
      </trkpt>
      <trkpt lat="40.524176" lon="-5.672637">
        <ele>955.751</ele>
        <time>2021-10-13T13:04:22Z</time>
      </trkpt>
      <trkpt lat="40.524235" lon="-5.672919">
        <ele>955.544</ele>
        <time>2021-10-13T13:04:24Z</time>
      </trkpt>
      <trkpt lat="40.524297" lon="-5.673078">
        <ele>955.460</ele>
        <time>2021-10-13T13:04:25Z</time>
      </trkpt>
      <trkpt lat="40.524395" lon="-5.673230">
        <ele>954.359</ele>
        <time>2021-10-13T13:04:26Z</time>
      </trkpt>
      <trkpt lat="40.524673" lon="-5.673509">
        <ele>952.964</ele>
        <time>2021-10-13T13:04:28Z</time>
      </trkpt>
      <trkpt lat="40.524830" lon="-5.673671">
        <ele>951.895</ele>
        <time>2021-10-13T13:04:29Z</time>
      </trkpt>
      <trkpt lat="40.524990" lon="-5.673845">
        <ele>950.749</ele>
        <time>2021-10-13T13:04:30Z</time>
      </trkpt>
      <trkpt lat="40.525316" lon="-5.674212">
        <ele>948.723</ele>
        <time>2021-10-13T13:04:32Z</time>
      </trkpt>
      <trkpt lat="40.525663" lon="-5.674567">
        <ele>947.608</ele>
        <time>2021-10-13T13:04:34Z</time>
      </trkpt>
      <trkpt lat="40.525852" lon="-5.674733">
        <ele>946.917</ele>
        <time>2021-10-13T13:04:35Z</time>
      </trkpt>
      <trkpt lat="40.526247" lon="-5.674983">
        <ele>947.565</ele>
        <time>2021-10-13T13:04:37Z</time>
      </trkpt>
      <trkpt lat="40.526467" lon="-5.675060">
        <ele>947.622</ele>
        <time>2021-10-13T13:04:38Z</time>
      </trkpt>
      <trkpt lat="40.526891" lon="-5.675175">
        <ele>947.792</ele>
        <time>2021-10-13T13:04:40Z</time>
      </trkpt>
      <trkpt lat="40.527109" lon="-5.675242">
        <ele>948.095</ele>
        <time>2021-10-13T13:04:41Z</time>
      </trkpt>
      <trkpt lat="40.527541" lon="-5.675393">
        <ele>949.211</ele>
        <time>2021-10-13T13:04:43Z</time>
      </trkpt>
      <trkpt lat="40.527768" lon="-5.675469">
        <ele>949.010</ele>
        <time>2021-10-13T13:04:44Z</time>
      </trkpt>
      <trkpt lat="40.528166" lon="-5.675602">
        <ele>948.975</ele>
        <time>2021-10-13T13:04:46Z</time>
      </trkpt>
      <trkpt lat="40.528527" lon="-5.675731">
        <ele>948.892</ele>
        <time>2021-10-13T13:04:48Z</time>
      </trkpt>
      <trkpt lat="40.528700" lon="-5.675793">
        <ele>948.673</ele>
        <time>2021-10-13T13:04:49Z</time>
      </trkpt>
      <trkpt lat="40.528884" lon="-5.675857">
        <ele>949.220</ele>
        <time>2021-10-13T13:04:50Z</time>
      </trkpt>
      <trkpt lat="40.529240" lon="-5.675975">
        <ele>949.508</ele>
        <time>2021-10-13T13:04:52Z</time>
      </trkpt>
      <trkpt lat="40.529626" lon="-5.676106">
        <ele>949.477</ele>
        <time>2021-10-13T13:04:54Z</time>
      </trkpt>
      <trkpt lat="40.529827" lon="-5.676179">
        <ele>949.655</ele>
        <time>2021-10-13T13:04:55Z</time>
      </trkpt>
      <trkpt lat="40.530034" lon="-5.676256">
        <ele>949.822</ele>
        <time>2021-10-13T13:04:56Z</time>
      </trkpt>
      <trkpt lat="40.530427" lon="-5.676403">
        <ele>950.832</ele>
        <time>2021-10-13T13:04:58Z</time>
      </trkpt>
      <trkpt lat="40.530620" lon="-5.676473">
        <ele>951.045</ele>
        <time>2021-10-13T13:04:59Z</time>
      </trkpt>
      <trkpt lat="40.530803" lon="-5.676534">
        <ele>951.291</ele>
        <time>2021-10-13T13:05:00Z</time>
      </trkpt>
      <trkpt lat="40.531145" lon="-5.676649">
        <ele>950.320</ele>
        <time>2021-10-13T13:05:02Z</time>
      </trkpt>
      <trkpt lat="40.531463" lon="-5.676757">
        <ele>950.235</ele>
        <time>2021-10-13T13:05:04Z</time>
      </trkpt>
      <trkpt lat="40.531628" lon="-5.676809">
        <ele>949.622</ele>
        <time>2021-10-13T13:05:05Z</time>
      </trkpt>
      <trkpt lat="40.531967" lon="-5.676845">
        <ele>949.162</ele>
        <time>2021-10-13T13:05:07Z</time>
      </trkpt>
      <trkpt lat="40.532137" lon="-5.676825">
        <ele>948.908</ele>
        <time>2021-10-13T13:05:08Z</time>
      </trkpt>
      <trkpt lat="40.532476" lon="-5.676736">
        <ele>949.008</ele>
        <time>2021-10-13T13:05:10Z</time>
      </trkpt>
      <trkpt lat="40.532812" lon="-5.676644">
        <ele>948.980</ele>
        <time>2021-10-13T13:05:12Z</time>
      </trkpt>
      <trkpt lat="40.533142" lon="-5.676556">
        <ele>949.118</ele>
        <time>2021-10-13T13:05:14Z</time>
      </trkpt>
      <trkpt lat="40.533466" lon="-5.676467">
        <ele>949.885</ele>
        <time>2021-10-13T13:05:16Z</time>
      </trkpt>
      <trkpt lat="40.533775" lon="-5.676385">
        <ele>952.185</ele>
        <time>2021-10-13T13:05:18Z</time>
      </trkpt>
      <trkpt lat="40.534041" lon="-5.676312">
        <ele>954.298</ele>
        <time>2021-10-13T13:05:20Z</time>
      </trkpt>
      <trkpt lat="40.534296" lon="-5.676248">
        <ele>954.924</ele>
        <time>2021-10-13T13:05:22Z</time>
      </trkpt>
      <trkpt lat="40.534522" lon="-5.676184">
        <ele>956.853</ele>
        <time>2021-10-13T13:05:24Z</time>
      </trkpt>
      <trkpt lat="40.534613" lon="-5.676159">
        <ele>957.178</ele>
        <time>2021-10-13T13:05:25Z</time>
      </trkpt>
      <trkpt lat="40.534695" lon="-5.676137">
        <ele>958.176</ele>
        <time>2021-10-13T13:05:26Z</time>
      </trkpt>
      <trkpt lat="40.534847" lon="-5.676101">
        <ele>958.790</ele>
        <time>2021-10-13T13:05:28Z</time>
      </trkpt>
      <trkpt lat="40.535032" lon="-5.676056">
        <ele>960.219</ele>
        <time>2021-10-13T13:05:30Z</time>
      </trkpt>
      <trkpt lat="40.535133" lon="-5.676030">
        <ele>960.608</ele>
        <time>2021-10-13T13:05:31Z</time>
      </trkpt>
      <trkpt lat="40.535244" lon="-5.676002">
        <ele>961.465</ele>
        <time>2021-10-13T13:05:32Z</time>
      </trkpt>
      <trkpt lat="40.535470" lon="-5.675945">
        <ele>961.753</ele>
        <time>2021-10-13T13:05:34Z</time>
      </trkpt>
      <trkpt lat="40.535591" lon="-5.675914">
        <ele>962.090</ele>
        <time>2021-10-13T13:05:35Z</time>
      </trkpt>
      <trkpt lat="40.535841" lon="-5.675854">
        <ele>963.590</ele>
        <time>2021-10-13T13:05:37Z</time>
      </trkpt>
      <trkpt lat="40.535976" lon="-5.675821">
        <ele>963.683</ele>
        <time>2021-10-13T13:05:38Z</time>
      </trkpt>
      <trkpt lat="40.536231" lon="-5.675755">
        <ele>965.319</ele>
        <time>2021-10-13T13:05:40Z</time>
      </trkpt>
      <trkpt lat="40.536475" lon="-5.675702">
        <ele>966.758</ele>
        <time>2021-10-13T13:05:42Z</time>
      </trkpt>
      <trkpt lat="40.536598" lon="-5.675672">
        <ele>967.283</ele>
        <time>2021-10-13T13:05:43Z</time>
      </trkpt>
      <trkpt lat="40.536723" lon="-5.675641">
        <ele>967.611</ele>
        <time>2021-10-13T13:05:44Z</time>
      </trkpt>
      <trkpt lat="40.536937" lon="-5.675587">
        <ele>968.321</ele>
        <time>2021-10-13T13:05:46Z</time>
      </trkpt>
      <trkpt lat="40.537051" lon="-5.675557">
        <ele>968.703</ele>
        <time>2021-10-13T13:05:47Z</time>
      </trkpt>
      <trkpt lat="40.537293" lon="-5.675494">
        <ele>969.408</ele>
        <time>2021-10-13T13:05:49Z</time>
      </trkpt>
      <trkpt lat="40.537415" lon="-5.675460">
        <ele>969.629</ele>
        <time>2021-10-13T13:05:50Z</time>
      </trkpt>
      <trkpt lat="40.537632" lon="-5.675405">
        <ele>971.067</ele>
        <time>2021-10-13T13:05:52Z</time>
      </trkpt>
      <trkpt lat="40.537753" lon="-5.675379">
        <ele>971.174</ele>
        <time>2021-10-13T13:05:53Z</time>
      </trkpt>
      <trkpt lat="40.537877" lon="-5.675351">
        <ele>971.994</ele>
        <time>2021-10-13T13:05:54Z</time>
      </trkpt>
      <trkpt lat="40.538127" lon="-5.675287">
        <ele>972.997</ele>
        <time>2021-10-13T13:05:56Z</time>
      </trkpt>
      <trkpt lat="40.538374" lon="-5.675222">
        <ele>973.923</ele>
        <time>2021-10-13T13:05:58Z</time>
      </trkpt>
      <trkpt lat="40.538505" lon="-5.675188">
        <ele>974.082</ele>
        <time>2021-10-13T13:05:59Z</time>
      </trkpt>
      <trkpt lat="40.538641" lon="-5.675152">
        <ele>974.737</ele>
        <time>2021-10-13T13:06:00Z</time>
      </trkpt>
      <trkpt lat="40.538782" lon="-5.675115">
        <ele>975.948</ele>
        <time>2021-10-13T13:06:01Z</time>
      </trkpt>
      <trkpt lat="40.538934" lon="-5.675075">
        <ele>976.161</ele>
        <time>2021-10-13T13:06:02Z</time>
      </trkpt>
      <trkpt lat="40.539241" lon="-5.674993">
        <ele>976.717</ele>
        <time>2021-10-13T13:06:04Z</time>
      </trkpt>
      <trkpt lat="40.539572" lon="-5.674923">
        <ele>976.808</ele>
        <time>2021-10-13T13:06:06Z</time>
      </trkpt>
      <trkpt lat="40.539886" lon="-5.674880">
        <ele>976.942</ele>
        <time>2021-10-13T13:06:08Z</time>
      </trkpt>
      <trkpt lat="40.540164" lon="-5.674868">
        <ele>977.710</ele>
        <time>2021-10-13T13:06:10Z</time>
      </trkpt>
      <trkpt lat="40.540316" lon="-5.674868">
        <ele>977.857</ele>
        <time>2021-10-13T13:06:11Z</time>
      </trkpt>
      <trkpt lat="40.540653" lon="-5.674882">
        <ele>977.827</ele>
        <time>2021-10-13T13:06:13Z</time>
      </trkpt>
      <trkpt lat="40.540838" lon="-5.674898">
        <ele>978.230</ele>
        <time>2021-10-13T13:06:14Z</time>
      </trkpt>
      <trkpt lat="40.541205" lon="-5.674950">
        <ele>979.166</ele>
        <time>2021-10-13T13:06:16Z</time>
      </trkpt>
      <trkpt lat="40.541566" lon="-5.675015">
        <ele>979.335</ele>
        <time>2021-10-13T13:06:18Z</time>
      </trkpt>
      <trkpt lat="40.541730" lon="-5.675047">
        <ele>980.080</ele>
        <time>2021-10-13T13:06:19Z</time>
      </trkpt>
      <trkpt lat="40.541899" lon="-5.675080">
        <ele>980.655</ele>
        <time>2021-10-13T13:06:20Z</time>
      </trkpt>
      <trkpt lat="40.542229" lon="-5.675153">
        <ele>980.607</ele>
        <time>2021-10-13T13:06:22Z</time>
      </trkpt>
      <trkpt lat="40.542395" lon="-5.675190">
        <ele>980.917</ele>
        <time>2021-10-13T13:06:23Z</time>
      </trkpt>
      <trkpt lat="40.542714" lon="-5.675266">
        <ele>981.608</ele>
        <time>2021-10-13T13:06:25Z</time>
      </trkpt>
      <trkpt lat="40.542872" lon="-5.675305">
        <ele>982.773</ele>
        <time>2021-10-13T13:06:26Z</time>
      </trkpt>
      <trkpt lat="40.543165" lon="-5.675377">
        <ele>982.781</ele>
        <time>2021-10-13T13:06:28Z</time>
      </trkpt>
      <trkpt lat="40.543310" lon="-5.675417">
        <ele>982.718</ele>
        <time>2021-10-13T13:06:29Z</time>
      </trkpt>
      <trkpt lat="40.543444" lon="-5.675456">
        <ele>983.458</ele>
        <time>2021-10-13T13:06:30Z</time>
      </trkpt>
      <trkpt lat="40.543571" lon="-5.675494">
        <ele>984.591</ele>
        <time>2021-10-13T13:06:31Z</time>
      </trkpt>
      <trkpt lat="40.543693" lon="-5.675529">
        <ele>984.387</ele>
        <time>2021-10-13T13:06:32Z</time>
      </trkpt>
      <trkpt lat="40.543929" lon="-5.675599">
        <ele>984.616</ele>
        <time>2021-10-13T13:06:34Z</time>
      </trkpt>
      <trkpt lat="40.544183" lon="-5.675675">
        <ele>985.291</ele>
        <time>2021-10-13T13:06:36Z</time>
      </trkpt>
      <trkpt lat="40.544315" lon="-5.675715">
        <ele>985.544</ele>
        <time>2021-10-13T13:06:37Z</time>
      </trkpt>
      <trkpt lat="40.544456" lon="-5.675759">
        <ele>985.505</ele>
        <time>2021-10-13T13:06:38Z</time>
      </trkpt>
      <trkpt lat="40.544731" lon="-5.675842">
        <ele>985.815</ele>
        <time>2021-10-13T13:06:40Z</time>
      </trkpt>
      <trkpt lat="40.544871" lon="-5.675884">
        <ele>986.808</ele>
        <time>2021-10-13T13:06:41Z</time>
      </trkpt>
      <trkpt lat="40.545123" lon="-5.675957">
        <ele>987.162</ele>
        <time>2021-10-13T13:06:43Z</time>
      </trkpt>
      <trkpt lat="40.545241" lon="-5.675993">
        <ele>987.580</ele>
        <time>2021-10-13T13:06:44Z</time>
      </trkpt>
      <trkpt lat="40.545468" lon="-5.676062">
        <ele>987.997</ele>
        <time>2021-10-13T13:06:46Z</time>
      </trkpt>
      <trkpt lat="40.545590" lon="-5.676098">
        <ele>989.217</ele>
        <time>2021-10-13T13:06:47Z</time>
      </trkpt>
      <trkpt lat="40.545865" lon="-5.676181">
        <ele>989.550</ele>
        <time>2021-10-13T13:06:49Z</time>
      </trkpt>
      <trkpt lat="40.545998" lon="-5.676221">
        <ele>990.046</ele>
        <time>2021-10-13T13:06:50Z</time>
      </trkpt>
      <trkpt lat="40.546227" lon="-5.676292">
        <ele>990.565</ele>
        <time>2021-10-13T13:06:52Z</time>
      </trkpt>
      <trkpt lat="40.546333" lon="-5.676327">
        <ele>990.760</ele>
        <time>2021-10-13T13:06:53Z</time>
      </trkpt>
      <trkpt lat="40.546540" lon="-5.676397">
        <ele>991.969</ele>
        <time>2021-10-13T13:06:55Z</time>
      </trkpt>
      <trkpt lat="40.546649" lon="-5.676431">
        <ele>991.904</ele>
        <time>2021-10-13T13:06:56Z</time>
      </trkpt>
      <trkpt lat="40.546859" lon="-5.676482">
        <ele>992.824</ele>
        <time>2021-10-13T13:06:58Z</time>
      </trkpt>
      <trkpt lat="40.546968" lon="-5.676498">
        <ele>993.408</ele>
        <time>2021-10-13T13:06:59Z</time>
      </trkpt>
      <trkpt lat="40.547080" lon="-5.676511">
        <ele>993.994</ele>
        <time>2021-10-13T13:07:00Z</time>
      </trkpt>
      <trkpt lat="40.547293" lon="-5.676521">
        <ele>994.242</ele>
        <time>2021-10-13T13:07:02Z</time>
      </trkpt>
      <trkpt lat="40.547470" lon="-5.676507">
        <ele>994.239</ele>
        <time>2021-10-13T13:07:04Z</time>
      </trkpt>
      <trkpt lat="40.547553" lon="-5.676495">
        <ele>994.779</ele>
        <time>2021-10-13T13:07:05Z</time>
      </trkpt>
      <trkpt lat="40.547636" lon="-5.676477">
        <ele>994.772</ele>
        <time>2021-10-13T13:07:06Z</time>
      </trkpt>
      <trkpt lat="40.547812" lon="-5.676428">
        <ele>994.848</ele>
        <time>2021-10-13T13:07:08Z</time>
      </trkpt>
      <trkpt lat="40.548005" lon="-5.676360">
        <ele>995.297</ele>
        <time>2021-10-13T13:07:10Z</time>
      </trkpt>
      <trkpt lat="40.548101" lon="-5.676326">
        <ele>995.482</ele>
        <time>2021-10-13T13:07:11Z</time>
      </trkpt>
      <trkpt lat="40.548186" lon="-5.676295">
        <ele>996.913</ele>
        <time>2021-10-13T13:07:12Z</time>
      </trkpt>
      <trkpt lat="40.548346" lon="-5.676235">
        <ele>997.743</ele>
        <time>2021-10-13T13:07:14Z</time>
      </trkpt>
      <trkpt lat="40.548511" lon="-5.676176">
        <ele>998.607</ele>
        <time>2021-10-13T13:07:16Z</time>
      </trkpt>
      <trkpt lat="40.548595" lon="-5.676140">
        <ele>999.508</ele>
        <time>2021-10-13T13:07:17Z</time>
      </trkpt>
      <trkpt lat="40.548744" lon="-5.676080">
        <ele>1000.579</ele>
        <time>2021-10-13T13:07:19Z</time>
      </trkpt>
      <trkpt lat="40.548822" lon="-5.676053">
        <ele>1001.047</ele>
        <time>2021-10-13T13:07:20Z</time>
      </trkpt>
      <trkpt lat="40.548988" lon="-5.675991">
        <ele>1001.964</ele>
        <time>2021-10-13T13:07:22Z</time>
      </trkpt>
      <trkpt lat="40.549179" lon="-5.675918">
        <ele>1002.844</ele>
        <time>2021-10-13T13:07:24Z</time>
      </trkpt>
      <trkpt lat="40.549280" lon="-5.675879">
        <ele>1003.467</ele>
        <time>2021-10-13T13:07:25Z</time>
      </trkpt>
      <trkpt lat="40.549384" lon="-5.675840">
        <ele>1003.833</ele>
        <time>2021-10-13T13:07:26Z</time>
      </trkpt>
      <trkpt lat="40.549558" lon="-5.675775">
        <ele>1003.432</ele>
        <time>2021-10-13T13:07:28Z</time>
      </trkpt>
      <trkpt lat="40.549718" lon="-5.675710">
        <ele>1003.547</ele>
        <time>2021-10-13T13:07:30Z</time>
      </trkpt>
      <trkpt lat="40.549809" lon="-5.675670">
        <ele>1004.372</ele>
        <time>2021-10-13T13:07:31Z</time>
      </trkpt>
      <trkpt lat="40.549912" lon="-5.675629">
        <ele>1005.013</ele>
        <time>2021-10-13T13:07:32Z</time>
      </trkpt>
      <trkpt lat="40.550124" lon="-5.675552">
        <ele>1005.714</ele>
        <time>2021-10-13T13:07:34Z</time>
      </trkpt>
      <trkpt lat="40.550349" lon="-5.675475">
        <ele>1007.308</ele>
        <time>2021-10-13T13:07:36Z</time>
      </trkpt>
      <trkpt lat="40.550459" lon="-5.675438">
        <ele>1007.815</ele>
        <time>2021-10-13T13:07:37Z</time>
      </trkpt>
      <trkpt lat="40.550567" lon="-5.675400">
        <ele>1008.353</ele>
        <time>2021-10-13T13:07:38Z</time>
      </trkpt>
      <trkpt lat="40.550785" lon="-5.675331">
        <ele>1009.720</ele>
        <time>2021-10-13T13:07:40Z</time>
      </trkpt>
      <trkpt lat="40.551007" lon="-5.675244">
        <ele>1011.320</ele>
        <time>2021-10-13T13:07:42Z</time>
      </trkpt>
      <trkpt lat="40.551226" lon="-5.675161">
        <ele>1011.733</ele>
        <time>2021-10-13T13:07:44Z</time>
      </trkpt>
      <trkpt lat="40.551407" lon="-5.675096">
        <ele>1012.349</ele>
        <time>2021-10-13T13:07:46Z</time>
      </trkpt>
      <trkpt lat="40.551502" lon="-5.675064">
        <ele>1012.358</ele>
        <time>2021-10-13T13:07:47Z</time>
      </trkpt>
      <trkpt lat="40.551604" lon="-5.675028">
        <ele>1012.393</ele>
        <time>2021-10-13T13:07:48Z</time>
      </trkpt>
      <trkpt lat="40.551826" lon="-5.674949">
        <ele>1013.236</ele>
        <time>2021-10-13T13:07:50Z</time>
      </trkpt>
      <trkpt lat="40.552057" lon="-5.674874">
        <ele>1013.417</ele>
        <time>2021-10-13T13:07:52Z</time>
      </trkpt>
      <trkpt lat="40.552280" lon="-5.674799">
        <ele>1013.818</ele>
        <time>2021-10-13T13:07:54Z</time>
      </trkpt>
      <trkpt lat="40.552470" lon="-5.674738">
        <ele>1013.608</ele>
        <time>2021-10-13T13:07:56Z</time>
      </trkpt>
      <trkpt lat="40.552645" lon="-5.674678">
        <ele>1014.381</ele>
        <time>2021-10-13T13:07:58Z</time>
      </trkpt>
      <trkpt lat="40.552852" lon="-5.674610">
        <ele>1014.319</ele>
        <time>2021-10-13T13:08:00Z</time>
      </trkpt>
      <trkpt lat="40.553048" lon="-5.674544">
        <ele>1014.946</ele>
        <time>2021-10-13T13:08:02Z</time>
      </trkpt>
      <trkpt lat="40.553219" lon="-5.674475">
        <ele>1014.986</ele>
        <time>2021-10-13T13:08:04Z</time>
      </trkpt>
      <trkpt lat="40.553308" lon="-5.674448">
        <ele>1015.149</ele>
        <time>2021-10-13T13:08:05Z</time>
      </trkpt>
      <trkpt lat="40.553463" lon="-5.674395">
        <ele>1016.265</ele>
        <time>2021-10-13T13:08:07Z</time>
      </trkpt>
      <trkpt lat="40.553544" lon="-5.674366">
        <ele>1017.614</ele>
        <time>2021-10-13T13:08:08Z</time>
      </trkpt>
      <trkpt lat="40.553707" lon="-5.674306">
        <ele>1018.399</ele>
        <time>2021-10-13T13:08:10Z</time>
      </trkpt>
      <trkpt lat="40.553798" lon="-5.674274">
        <ele>1018.898</ele>
        <time>2021-10-13T13:08:11Z</time>
      </trkpt>
      <trkpt lat="40.553888" lon="-5.674242">
        <ele>1019.015</ele>
        <time>2021-10-13T13:08:12Z</time>
      </trkpt>
      <trkpt lat="40.554068" lon="-5.674164">
        <ele>1019.326</ele>
        <time>2021-10-13T13:08:14Z</time>
      </trkpt>
      <trkpt lat="40.554202" lon="-5.674114">
        <ele>1019.508</ele>
        <time>2021-10-13T13:08:16Z</time>
      </trkpt>
      <trkpt lat="40.554321" lon="-5.674059">
        <ele>1019.617</ele>
        <time>2021-10-13T13:08:18Z</time>
      </trkpt>
      <trkpt lat="40.554426" lon="-5.673996">
        <ele>1019.245</ele>
        <time>2021-10-13T13:08:20Z</time>
      </trkpt>
      <trkpt lat="40.554496" lon="-5.673972">
        <ele>1018.942</ele>
        <time>2021-10-13T13:08:22Z</time>
      </trkpt>
      <trkpt lat="40.554559" lon="-5.673950">
        <ele>1019.562</ele>
        <time>2021-10-13T13:08:24Z</time>
      </trkpt>
      <trkpt lat="40.554619" lon="-5.673914">
        <ele>1021.465</ele>
        <time>2021-10-13T13:08:26Z</time>
      </trkpt>
      <trkpt lat="40.554663" lon="-5.673886">
        <ele>1021.421</ele>
        <time>2021-10-13T13:08:27Z</time>
      </trkpt>
      <trkpt lat="40.554727" lon="-5.673846">
        <ele>1045.250</ele>
        <time>2021-10-13T13:08:30Z</time>
      </trkpt>
      <trkpt lat="40.554779" lon="-5.673831">
        <ele>1063.045</ele>
        <time>2021-10-13T13:08:32Z</time>
      </trkpt>
      <trkpt lat="40.554832" lon="-5.673814">
        <ele>1076.819</ele>
        <time>2021-10-13T13:08:35Z</time>
      </trkpt>
      <trkpt lat="40.554893" lon="-5.673796">
        <ele>1076.809</ele>
        <time>2021-10-13T13:08:38Z</time>
      </trkpt>
      <trkpt lat="40.554985" lon="-5.673754">
        <ele>1076.819</ele>
        <time>2021-10-13T13:08:40Z</time>
      </trkpt>
      <trkpt lat="40.555103" lon="-5.673686">
        <ele>1076.708</ele>
        <time>2021-10-13T13:08:42Z</time>
      </trkpt>
      <trkpt lat="40.555218" lon="-5.673642">
        <ele>1076.629</ele>
        <time>2021-10-13T13:08:44Z</time>
      </trkpt>
      <trkpt lat="40.555331" lon="-5.673594">
        <ele>1076.617</ele>
        <time>2021-10-13T13:08:46Z</time>
      </trkpt>
      <trkpt lat="40.555388" lon="-5.673560">
        <ele>1076.614</ele>
        <time>2021-10-13T13:08:47Z</time>
      </trkpt>
      <trkpt lat="40.555446" lon="-5.673524">
        <ele>1076.654</ele>
        <time>2021-10-13T13:08:48Z</time>
      </trkpt>
      <trkpt lat="40.555503" lon="-5.673492">
        <ele>1076.687</ele>
        <time>2021-10-13T13:08:49Z</time>
      </trkpt>
      <trkpt lat="40.555560" lon="-5.673463">
        <ele>1076.663</ele>
        <time>2021-10-13T13:08:50Z</time>
      </trkpt>
      <trkpt lat="40.555656" lon="-5.673421">
        <ele>1076.642</ele>
        <time>2021-10-13T13:08:52Z</time>
      </trkpt>
      <trkpt lat="40.555702" lon="-5.673399">
        <ele>1076.667</ele>
        <time>2021-10-13T13:08:53Z</time>
      </trkpt>
      <trkpt lat="40.555761" lon="-5.673342">
        <ele>1076.632</ele>
        <time>2021-10-13T13:08:55Z</time>
      </trkpt>
      <trkpt lat="40.555812" lon="-5.673290">
        <ele>1076.692</ele>
        <time>2021-10-13T13:08:57Z</time>
      </trkpt>
      <trkpt lat="40.555805" lon="-5.673367">
        <ele>1071.711</ele>
        <time>2021-10-13T13:09:15Z</time>
      </trkpt>
      <trkpt lat="40.555794" lon="-5.673476">
        <ele>1071.708</ele>
        <time>2021-10-13T13:09:17Z</time>
      </trkpt>
      <trkpt lat="40.555793" lon="-5.673556">
        <ele>1071.711</ele>
        <time>2021-10-13T13:09:19Z</time>
      </trkpt>
      <trkpt lat="40.555858" lon="-5.673515">
        <ele>1071.669</ele>
        <time>2021-10-13T13:09:43Z</time>
      </trkpt>
      <trkpt lat="40.555900" lon="-5.673475">
        <ele>1071.676</ele>
        <time>2021-10-13T13:09:44Z</time>
      </trkpt>
      <trkpt lat="40.556024" lon="-5.673389">
        <ele>1071.626</ele>
        <time>2021-10-13T13:09:46Z</time>
      </trkpt>
      <trkpt lat="40.556145" lon="-5.673282">
        <ele>1071.759</ele>
        <time>2021-10-13T13:09:48Z</time>
      </trkpt>
      <trkpt lat="40.556209" lon="-5.673194">
        <ele>1071.775</ele>
        <time>2021-10-13T13:09:49Z</time>
      </trkpt>
      <trkpt lat="40.556269" lon="-5.673112">
        <ele>1071.724</ele>
        <time>2021-10-13T13:09:50Z</time>
      </trkpt>
      <trkpt lat="40.556361" lon="-5.673018">
        <ele>1071.699</ele>
        <time>2021-10-13T13:09:52Z</time>
      </trkpt>
      <trkpt lat="40.556426" lon="-5.672997">
        <ele>1071.615</ele>
        <time>2021-10-13T13:09:54Z</time>
      </trkpt>
      <trkpt lat="40.556492" lon="-5.672984">
        <ele>1071.665</ele>
        <time>2021-10-13T13:09:56Z</time>
      </trkpt>
      <trkpt lat="40.556569" lon="-5.672963">
        <ele>1071.611</ele>
        <time>2021-10-13T13:09:58Z</time>
      </trkpt>
      <trkpt lat="40.556623" lon="-5.672955">
        <ele>1071.608</ele>
        <time>2021-10-13T13:10:00Z</time>
      </trkpt>
      <trkpt lat="40.556691" lon="-5.672950">
        <ele>1071.649</ele>
        <time>2021-10-13T13:10:02Z</time>
      </trkpt>
      <trkpt lat="40.556779" lon="-5.672932">
        <ele>1071.667</ele>
        <time>2021-10-13T13:10:04Z</time>
      </trkpt>
      <trkpt lat="40.556821" lon="-5.672901">
        <ele>1071.624</ele>
        <time>2021-10-13T13:10:05Z</time>
      </trkpt>
      <trkpt lat="40.556873" lon="-5.672832">
        <ele>1071.614</ele>
        <time>2021-10-13T13:10:07Z</time>
      </trkpt>
      <trkpt lat="40.556920" lon="-5.672746">
        <ele>1071.617</ele>
        <time>2021-10-13T13:10:09Z</time>
      </trkpt>
      <trkpt lat="40.556945" lon="-5.672696">
        <ele>1071.683</ele>
        <time>2021-10-13T13:10:10Z</time>
      </trkpt>
      <trkpt lat="40.556966" lon="-5.672639">
        <ele>1071.612</ele>
        <time>2021-10-13T13:10:11Z</time>
      </trkpt>
      <trkpt lat="40.556985" lon="-5.672579">
        <ele>1071.667</ele>
        <time>2021-10-13T13:10:12Z</time>
      </trkpt>
      <trkpt lat="40.557006" lon="-5.672517">
        <ele>1071.677</ele>
        <time>2021-10-13T13:10:13Z</time>
      </trkpt>
      <trkpt lat="40.557064" lon="-5.672409">
        <ele>1071.661</ele>
        <time>2021-10-13T13:10:15Z</time>
      </trkpt>
      <trkpt lat="40.557155" lon="-5.672290">
        <ele>1071.627</ele>
        <time>2021-10-13T13:10:17Z</time>
      </trkpt>
      <trkpt lat="40.557209" lon="-5.672222">
        <ele>1071.608</ele>
        <time>2021-10-13T13:10:19Z</time>
      </trkpt>
      <trkpt lat="40.557217" lon="-5.672145">
        <ele>1071.665</ele>
        <time>2021-10-13T13:10:23Z</time>
      </trkpt>
      <trkpt lat="40.557176" lon="-5.672117">
        <ele>1071.693</ele>
        <time>2021-10-13T13:10:26Z</time>
      </trkpt>
      <trkpt lat="40.557115" lon="-5.672097">
        <ele>1071.620</ele>
        <time>2021-10-13T13:10:29Z</time>
      </trkpt>
      <trkpt lat="40.557069" lon="-5.672088">
        <ele>1071.640</ele>
        <time>2021-10-13T13:10:33Z</time>
      </trkpt>
      <trkpt lat="40.557123" lon="-5.672100">
        <ele>1071.653</ele>
        <time>2021-10-13T13:10:40Z</time>
      </trkpt>
      <trkpt lat="40.557171" lon="-5.672059">
        <ele>1071.639</ele>
        <time>2021-10-13T13:10:42Z</time>
      </trkpt>
      <trkpt lat="40.557207" lon="-5.672003">
        <ele>1071.648</ele>
        <time>2021-10-13T13:10:45Z</time>
      </trkpt>
      <trkpt lat="40.557174" lon="-5.671922">
        <ele>1048.493</ele>
        <time>2021-10-13T13:11:06Z</time>
      </trkpt>
      <trkpt lat="40.557127" lon="-5.671886">
        <ele>1030.277</ele>
        <time>2021-10-13T13:11:08Z</time>
      </trkpt>
      <trkpt lat="40.557090" lon="-5.671818">
        <ele>1021.561</ele>
        <time>2021-10-13T13:11:11Z</time>
      </trkpt>
      <trkpt lat="40.557107" lon="-5.671736">
        <ele>1021.527</ele>
        <time>2021-10-13T13:11:13Z</time>
      </trkpt>
      <trkpt lat="40.557084" lon="-5.671791">
        <ele>1021.508</ele>
        <time>2021-10-13T13:11:18Z</time>
      </trkpt>
      <trkpt lat="40.557034" lon="-5.671754">
        <ele>1021.585</ele>
        <time>2021-10-13T13:12:45Z</time>
      </trkpt>
      <trkpt lat="40.556997" lon="-5.671710">
        <ele>1021.553</ele>
        <time>2021-10-13T13:12:47Z</time>
      </trkpt>
      <trkpt lat="40.557008" lon="-5.671783">
        <ele>1021.530</ele>
        <time>2021-10-13T13:12:51Z</time>
      </trkpt>
      <trkpt lat="40.557058" lon="-5.671859">
        <ele>1021.550</ele>
        <time>2021-10-13T13:13:01Z</time>
      </trkpt>
      <trkpt lat="40.557108" lon="-5.671898">
        <ele>1021.553</ele>
        <time>2021-10-13T13:13:02Z</time>
      </trkpt>
      <trkpt lat="40.557153" lon="-5.671969">
        <ele>1021.669</ele>
        <time>2021-10-13T13:13:04Z</time>
      </trkpt>
      <trkpt lat="40.557184" lon="-5.672029">
        <ele>1021.698</ele>
        <time>2021-10-13T13:13:06Z</time>
      </trkpt>
      <trkpt lat="40.557213" lon="-5.672091">
        <ele>1021.583</ele>
        <time>2021-10-13T13:13:08Z</time>
      </trkpt>
      <trkpt lat="40.557245" lon="-5.672135">
        <ele>1021.597</ele>
        <time>2021-10-13T13:13:11Z</time>
      </trkpt>
      <trkpt lat="40.557290" lon="-5.672151">
        <ele>1021.523</ele>
        <time>2021-10-13T13:13:15Z</time>
      </trkpt>
      <trkpt lat="40.557321" lon="-5.672046">
        <ele>1021.525</ele>
        <time>2021-10-13T13:13:17Z</time>
      </trkpt>
      <trkpt lat="40.557335" lon="-5.671978">
        <ele>1021.508</ele>
        <time>2021-10-13T13:13:19Z</time>
      </trkpt>
      <trkpt lat="40.557351" lon="-5.671922">
        <ele>1021.517</ele>
        <time>2021-10-13T13:13:21Z</time>
      </trkpt>
      <trkpt lat="40.557352" lon="-5.671836">
        <ele>1021.575</ele>
        <time>2021-10-13T13:13:23Z</time>
      </trkpt>
      <trkpt lat="40.557337" lon="-5.671759">
        <ele>1021.562</ele>
        <time>2021-10-13T13:13:25Z</time>
      </trkpt>
      <trkpt lat="40.557334" lon="-5.671698">
        <ele>1021.552</ele>
        <time>2021-10-13T13:13:26Z</time>
      </trkpt>
      <trkpt lat="40.557344" lon="-5.671629">
        <ele>1021.675</ele>
        <time>2021-10-13T13:13:28Z</time>
      </trkpt>
      <trkpt lat="40.557373" lon="-5.671578">
        <ele>1021.641</ele>
        <time>2021-10-13T13:13:31Z</time>
      </trkpt>
      <trkpt lat="40.557443" lon="-5.671602">
        <ele>1021.680</ele>
        <time>2021-10-13T13:13:32Z</time>
      </trkpt>
      <trkpt lat="40.557490" lon="-5.671588">
        <ele>1021.665</ele>
        <time>2021-10-13T13:13:34Z</time>
      </trkpt>
      <trkpt lat="40.557537" lon="-5.671563">
        <ele>1021.662</ele>
        <time>2021-10-13T13:13:36Z</time>
      </trkpt>
      <trkpt lat="40.557555" lon="-5.671501">
        <ele>1021.683</ele>
        <time>2021-10-13T13:13:40Z</time>
      </trkpt>
      <trkpt lat="40.557571" lon="-5.671439">
        <ele>1021.611</ele>
        <time>2021-10-13T13:13:48Z</time>
      </trkpt>
      <trkpt lat="40.557590" lon="-5.671379">
        <ele>1021.808</ele>
        <time>2021-10-13T13:14:02Z</time>
      </trkpt>
      <trkpt lat="40.557628" lon="-5.671345">
        <ele>1021.864</ele>
        <time>2021-10-13T13:14:06Z</time>
      </trkpt>
      <trkpt lat="40.557666" lon="-5.671287">
        <ele>1021.872</ele>
        <time>2021-10-13T13:14:08Z</time>
      </trkpt>
      <trkpt lat="40.557701" lon="-5.671225">
        <ele>1021.869</ele>
        <time>2021-10-13T13:14:10Z</time>
      </trkpt>
      <trkpt lat="40.557744" lon="-5.671186">
        <ele>1021.899</ele>
        <time>2021-10-13T13:14:12Z</time>
      </trkpt>
      <trkpt lat="40.557777" lon="-5.671132">
        <ele>1021.972</ele>
        <time>2021-10-13T13:14:35Z</time>
      </trkpt>
      <trkpt lat="40.557860" lon="-5.671149">
        <ele>1021.998</ele>
        <time>2021-10-13T13:14:45Z</time>
      </trkpt>
      <trkpt lat="40.557815" lon="-5.671159">
        <ele>1022.157</ele>
        <time>2021-10-13T13:16:08Z</time>
      </trkpt>
      <trkpt lat="40.557749" lon="-5.671094">
        <ele>1022.142</ele>
        <time>2021-10-13T13:16:34Z</time>
      </trkpt>
      <trkpt lat="40.557772" lon="-5.671152">
        <ele>1022.126</ele>
        <time>2021-10-13T13:17:11Z</time>
      </trkpt>
      <trkpt lat="40.557807" lon="-5.671199">
        <ele>1022.147</ele>
        <time>2021-10-13T13:17:17Z</time>
      </trkpt>
      <trkpt lat="40.557801" lon="-5.671261">
        <ele>1022.211</ele>
        <time>2021-10-13T13:17:55Z</time>
      </trkpt>
      <trkpt lat="40.557790" lon="-5.671319">
        <ele>1022.208</ele>
        <time>2021-10-13T13:18:06Z</time>
      </trkpt>
      <trkpt lat="40.557810" lon="-5.671478">
        <ele>1022.240</ele>
        <time>2021-10-13T13:18:12Z</time>
      </trkpt>
      <trkpt lat="40.557793" lon="-5.671547">
        <ele>1022.068</ele>
        <time>2021-10-13T13:18:16Z</time>
      </trkpt>
      <trkpt lat="40.557788" lon="-5.671612">
        <ele>1022.025</ele>
        <time>2021-10-13T13:18:17Z</time>
      </trkpt>
      <trkpt lat="40.557776" lon="-5.671670">
        <ele>1022.065</ele>
        <time>2021-10-13T13:18:19Z</time>
      </trkpt>
      <trkpt lat="40.557748" lon="-5.671733">
        <ele>1022.128</ele>
        <time>2021-10-13T13:18:33Z</time>
      </trkpt>
      <trkpt lat="40.557719" lon="-5.671794">
        <ele>1022.184</ele>
        <time>2021-10-13T13:18:36Z</time>
      </trkpt>
      <trkpt lat="40.557697" lon="-5.671867">
        <ele>1022.113</ele>
        <time>2021-10-13T13:18:39Z</time>
      </trkpt>
      <trkpt lat="40.557654" lon="-5.671888">
        <ele>1022.168</ele>
        <time>2021-10-13T13:18:43Z</time>
      </trkpt>
      <trkpt lat="40.557678" lon="-5.671805">
        <ele>1021.969</ele>
        <time>2021-10-13T13:20:36Z</time>
      </trkpt>
      <trkpt lat="40.557672" lon="-5.671745">
        <ele>1021.904</ele>
        <time>2021-10-13T13:20:38Z</time>
      </trkpt>
      <trkpt lat="40.557738" lon="-5.671735">
        <ele>1021.924</ele>
        <time>2021-10-13T13:21:10Z</time>
      </trkpt>
      <trkpt lat="40.557780" lon="-5.671758">
        <ele>1021.908</ele>
        <time>2021-10-13T13:21:16Z</time>
      </trkpt>
      <trkpt lat="40.557904" lon="-5.671841">
        <ele>1021.884</ele>
        <time>2021-10-13T13:21:17Z</time>
      </trkpt>
      <trkpt lat="40.558026" lon="-5.671981">
        <ele>1021.852</ele>
        <time>2021-10-13T13:21:19Z</time>
      </trkpt>
      <trkpt lat="40.558083" lon="-5.672060">
        <ele>1021.899</ele>
        <time>2021-10-13T13:21:20Z</time>
      </trkpt>
      <trkpt lat="40.558092" lon="-5.672123">
        <ele>1021.889</ele>
        <time>2021-10-13T13:21:22Z</time>
      </trkpt>
      <trkpt lat="40.558039" lon="-5.672108">
        <ele>1021.832</ele>
        <time>2021-10-13T13:21:23Z</time>
      </trkpt>
      <trkpt lat="40.557994" lon="-5.672112">
        <ele>1021.848</ele>
        <time>2021-10-13T13:21:25Z</time>
      </trkpt>
      <trkpt lat="40.558007" lon="-5.672293">
        <ele>1021.827</ele>
        <time>2021-10-13T13:21:27Z</time>
      </trkpt>
      <trkpt lat="40.558036" lon="-5.672411">
        <ele>1021.822</ele>
        <time>2021-10-13T13:21:28Z</time>
      </trkpt>
      <trkpt lat="40.557973" lon="-5.672389">
        <ele>1021.897</ele>
        <time>2021-10-13T13:21:33Z</time>
      </trkpt>
      <trkpt lat="40.557909" lon="-5.672317">
        <ele>1021.823</ele>
        <time>2021-10-13T13:21:35Z</time>
      </trkpt>
      <trkpt lat="40.557870" lon="-5.672259">
        <ele>1021.825</ele>
        <time>2021-10-13T13:21:37Z</time>
      </trkpt>
      <trkpt lat="40.557844" lon="-5.672181">
        <ele>1021.908</ele>
        <time>2021-10-13T13:21:40Z</time>
      </trkpt>
      <trkpt lat="40.557831" lon="-5.672098">
        <ele>1021.967</ele>
        <time>2021-10-13T13:21:42Z</time>
      </trkpt>
      <trkpt lat="40.557806" lon="-5.672035">
        <ele>1021.965</ele>
        <time>2021-10-13T13:21:44Z</time>
      </trkpt>
      <trkpt lat="40.557789" lon="-5.671918">
        <ele>1021.972</ele>
        <time>2021-10-13T13:21:48Z</time>
      </trkpt>
      <trkpt lat="40.557746" lon="-5.671790">
        <ele>1021.942</ele>
        <time>2021-10-13T13:21:50Z</time>
      </trkpt>
      <trkpt lat="40.557719" lon="-5.671742">
        <ele>1021.975</ele>
        <time>2021-10-13T13:21:54Z</time>
      </trkpt>
      <trkpt lat="40.557670" lon="-5.671673">
        <ele>1021.961</ele>
        <time>2021-10-13T13:21:57Z</time>
      </trkpt>
      <trkpt lat="40.557639" lon="-5.671619">
        <ele>1021.970</ele>
        <time>2021-10-13T13:21:58Z</time>
      </trkpt>
      <trkpt lat="40.557588" lon="-5.671575">
        <ele>1021.935</ele>
        <time>2021-10-13T13:22:07Z</time>
      </trkpt>
      <trkpt lat="40.557548" lon="-5.671523">
        <ele>1021.981</ele>
        <time>2021-10-13T13:22:09Z</time>
      </trkpt>
      <trkpt lat="40.557576" lon="-5.671587">
        <ele>1022.061</ele>
        <time>2021-10-13T13:22:14Z</time>
      </trkpt>
      <trkpt lat="40.557628" lon="-5.671655">
        <ele>1022.017</ele>
        <time>2021-10-13T13:22:16Z</time>
      </trkpt>
      <trkpt lat="40.557673" lon="-5.671702">
        <ele>1022.008</ele>
        <time>2021-10-13T13:22:18Z</time>
      </trkpt>
      <trkpt lat="40.557705" lon="-5.671743">
        <ele>1022.076</ele>
        <time>2021-10-13T13:22:26Z</time>
      </trkpt>
      <trkpt lat="40.557657" lon="-5.671798">
        <ele>1022.094</ele>
        <time>2021-10-13T13:22:41Z</time>
      </trkpt>
      <trkpt lat="40.557621" lon="-5.671833">
        <ele>1022.021</ele>
        <time>2021-10-13T13:22:42Z</time>
      </trkpt>
      <trkpt lat="40.557651" lon="-5.671775">
        <ele>1022.091</ele>
        <time>2021-10-13T13:22:44Z</time>
      </trkpt>
      <trkpt lat="40.557670" lon="-5.671834">
        <ele>1022.134</ele>
        <time>2021-10-13T13:23:05Z</time>
      </trkpt>
      <trkpt lat="40.557700" lon="-5.671878">
        <ele>1022.190</ele>
        <time>2021-10-13T13:23:09Z</time>
      </trkpt>
      <trkpt lat="40.557725" lon="-5.671941">
        <ele>1022.129</ele>
        <time>2021-10-13T13:23:10Z</time>
      </trkpt>
      <trkpt lat="40.557751" lon="-5.672007">
        <ele>1022.114</ele>
        <time>2021-10-13T13:23:12Z</time>
      </trkpt>
      <trkpt lat="40.557793" lon="-5.672050">
        <ele>1022.128</ele>
        <time>2021-10-13T13:23:14Z</time>
      </trkpt>
      <trkpt lat="40.557761" lon="-5.671994">
        <ele>1022.389</ele>
        <time>2021-10-13T13:23:17Z</time>
      </trkpt>
      <trkpt lat="40.557732" lon="-5.671932">
        <ele>1022.317</ele>
        <time>2021-10-13T13:23:19Z</time>
      </trkpt>
      <trkpt lat="40.557701" lon="-5.671884">
        <ele>1022.308</ele>
        <time>2021-10-13T13:23:23Z</time>
      </trkpt>
      <trkpt lat="40.557723" lon="-5.671831">
        <ele>1022.360</ele>
        <time>2021-10-13T13:23:25Z</time>
      </trkpt>
      <trkpt lat="40.557772" lon="-5.671732">
        <ele>1022.328</ele>
        <time>2021-10-13T13:23:27Z</time>
      </trkpt>
      <trkpt lat="40.557827" lon="-5.671710">
        <ele>1022.335</ele>
        <time>2021-10-13T13:23:29Z</time>
      </trkpt>
      <trkpt lat="40.557891" lon="-5.671772">
        <ele>1022.335</ele>
        <time>2021-10-13T13:23:31Z</time>
      </trkpt>
      <trkpt lat="40.557948" lon="-5.671816">
        <ele>1022.368</ele>
        <time>2021-10-13T13:23:32Z</time>
      </trkpt>
      <trkpt lat="40.558010" lon="-5.671863">
        <ele>1022.354</ele>
        <time>2021-10-13T13:23:34Z</time>
      </trkpt>
      <trkpt lat="40.558117" lon="-5.671939">
        <ele>1022.343</ele>
        <time>2021-10-13T13:23:37Z</time>
      </trkpt>
      <trkpt lat="40.557985" lon="-5.671832">
        <ele>1022.328</ele>
        <time>2021-10-13T13:23:39Z</time>
      </trkpt>
      <trkpt lat="40.557925" lon="-5.671814">
        <ele>1022.359</ele>
        <time>2021-10-13T13:23:40Z</time>
      </trkpt>
      <trkpt lat="40.557852" lon="-5.671793">
        <ele>1022.303</ele>
        <time>2021-10-13T13:23:42Z</time>
      </trkpt>
      <trkpt lat="40.557783" lon="-5.671772">
        <ele>1022.323</ele>
        <time>2021-10-13T13:23:44Z</time>
      </trkpt>
      <trkpt lat="40.557869" lon="-5.671731">
        <ele>1022.308</ele>
        <time>2021-10-13T13:23:46Z</time>
      </trkpt>
      <trkpt lat="40.557813" lon="-5.671807">
        <ele>1022.313</ele>
        <time>2021-10-13T13:23:50Z</time>
      </trkpt>
      <trkpt lat="40.557714" lon="-5.671865">
        <ele>1022.331</ele>
        <time>2021-10-13T13:23:52Z</time>
      </trkpt>
      <trkpt lat="40.557663" lon="-5.671884">
        <ele>1022.328</ele>
        <time>2021-10-13T13:23:55Z</time>
      </trkpt>
      <trkpt lat="40.557612" lon="-5.671940">
        <ele>1022.348</ele>
        <time>2021-10-13T13:24:07Z</time>
      </trkpt>
      <trkpt lat="40.557571" lon="-5.671982">
        <ele>1022.361</ele>
        <time>2021-10-13T13:24:08Z</time>
      </trkpt>
      <trkpt lat="40.557503" lon="-5.672024">
        <ele>1022.377</ele>
        <time>2021-10-13T13:24:10Z</time>
      </trkpt>
      <trkpt lat="40.557455" lon="-5.672030">
        <ele>1022.336</ele>
        <time>2021-10-13T13:24:12Z</time>
      </trkpt>
      <trkpt lat="40.557501" lon="-5.672011">
        <ele>1022.341</ele>
        <time>2021-10-13T13:24:18Z</time>
      </trkpt>
      <trkpt lat="40.557536" lon="-5.672052">
        <ele>1022.369</ele>
        <time>2021-10-13T13:24:23Z</time>
      </trkpt>
      <trkpt lat="40.557566" lon="-5.672002">
        <ele>1022.304</ele>
        <time>2021-10-13T13:24:27Z</time>
      </trkpt>
      <trkpt lat="40.557580" lon="-5.671943">
        <ele>1022.324</ele>
        <time>2021-10-13T13:24:29Z</time>
      </trkpt>
      <trkpt lat="40.557600" lon="-5.671864">
        <ele>1022.308</ele>
        <time>2021-10-13T13:24:33Z</time>
      </trkpt>
      <trkpt lat="40.557611" lon="-5.671806">
        <ele>1022.384</ele>
        <time>2021-10-13T13:24:35Z</time>
      </trkpt>
      <trkpt lat="40.557653" lon="-5.671747">
        <ele>1022.352</ele>
        <time>2021-10-13T13:24:44Z</time>
      </trkpt>
      <trkpt lat="40.557719" lon="-5.671702">
        <ele>1022.319</ele>
        <time>2021-10-13T13:24:46Z</time>
      </trkpt>
      <trkpt lat="40.557765" lon="-5.671605">
        <ele>1022.369</ele>
        <time>2021-10-13T13:24:48Z</time>
      </trkpt>
      <trkpt lat="40.557711" lon="-5.671650">
        <ele>1022.312</ele>
        <time>2021-10-13T13:24:50Z</time>
      </trkpt>
      <trkpt lat="40.557664" lon="-5.671695">
        <ele>1022.388</ele>
        <time>2021-10-13T13:24:54Z</time>
      </trkpt>
      <trkpt lat="40.557619" lon="-5.671667">
        <ele>1022.347</ele>
        <time>2021-10-13T13:25:06Z</time>
      </trkpt>
      <trkpt lat="40.557656" lon="-5.671629">
        <ele>1022.332</ele>
        <time>2021-10-13T13:25:10Z</time>
      </trkpt>
      <trkpt lat="40.557694" lon="-5.671662">
        <ele>1022.424</ele>
        <time>2021-10-13T13:26:17Z</time>
      </trkpt>
      <trkpt lat="40.557764" lon="-5.671724">
        <ele>1022.404</ele>
        <time>2021-10-13T13:26:19Z</time>
      </trkpt>
      <trkpt lat="40.557847" lon="-5.671769">
        <ele>1022.414</ele>
        <time>2021-10-13T13:26:21Z</time>
      </trkpt>
      <trkpt lat="40.557902" lon="-5.671790">
        <ele>1022.408</ele>
        <time>2021-10-13T13:26:22Z</time>
      </trkpt>
      <trkpt lat="40.557958" lon="-5.671814">
        <ele>1022.420</ele>
        <time>2021-10-13T13:26:23Z</time>
      </trkpt>
      <trkpt lat="40.558049" lon="-5.671833">
        <ele>1022.448</ele>
        <time>2021-10-13T13:26:25Z</time>
      </trkpt>
      <trkpt lat="40.557957" lon="-5.671773">
        <ele>1022.425</ele>
        <time>2021-10-13T13:26:26Z</time>
      </trkpt>
      <trkpt lat="40.557878" lon="-5.671731">
        <ele>1022.485</ele>
        <time>2021-10-13T13:26:28Z</time>
      </trkpt>
      <trkpt lat="40.557788" lon="-5.671717">
        <ele>1022.498</ele>
        <time>2021-10-13T13:26:29Z</time>
      </trkpt>
      <trkpt lat="40.557693" lon="-5.671712">
        <ele>1022.494</ele>
        <time>2021-10-13T13:26:35Z</time>
      </trkpt>
      <trkpt lat="40.557627" lon="-5.671697">
        <ele>1022.413</ele>
        <time>2021-10-13T13:26:36Z</time>
      </trkpt>
      <trkpt lat="40.557577" lon="-5.671685">
        <ele>1022.468</ele>
        <time>2021-10-13T13:26:37Z</time>
      </trkpt>
      <trkpt lat="40.557520" lon="-5.671675">
        <ele>1022.456</ele>
        <time>2021-10-13T13:26:39Z</time>
      </trkpt>
      <trkpt lat="40.557459" lon="-5.671670">
        <ele>1022.459</ele>
        <time>2021-10-13T13:26:41Z</time>
      </trkpt>
      <trkpt lat="40.557644" lon="-5.671723">
        <ele>1022.414</ele>
        <time>2021-10-13T13:26:52Z</time>
      </trkpt>
      <trkpt lat="40.557707" lon="-5.671750">
        <ele>1022.408</ele>
        <time>2021-10-13T13:26:59Z</time>
      </trkpt>
      <trkpt lat="40.557634" lon="-5.671688">
        <ele>1022.443</ele>
        <time>2021-10-13T13:27:16Z</time>
      </trkpt>
      <trkpt lat="40.557700" lon="-5.671755">
        <ele>1022.441</ele>
        <time>2021-10-13T13:27:22Z</time>
      </trkpt>
      <trkpt lat="40.557714" lon="-5.671642">
        <ele>1022.438</ele>
        <time>2021-10-13T13:27:41Z</time>
      </trkpt>
      <trkpt lat="40.557759" lon="-5.671560">
        <ele>1022.428</ele>
        <time>2021-10-13T13:27:43Z</time>
      </trkpt>
      <trkpt lat="40.557826" lon="-5.671497">
        <ele>1022.411</ele>
        <time>2021-10-13T13:27:44Z</time>
      </trkpt>
      <trkpt lat="40.557915" lon="-5.671425">
        <ele>1022.487</ele>
        <time>2021-10-13T13:27:45Z</time>
      </trkpt>
      <trkpt lat="40.557962" lon="-5.671410">
        <ele>1022.466</ele>
        <time>2021-10-13T13:27:49Z</time>
      </trkpt>
      <trkpt lat="40.557983" lon="-5.671345">
        <ele>1022.471</ele>
        <time>2021-10-13T13:28:04Z</time>
      </trkpt>
      <trkpt lat="40.558030" lon="-5.671264">
        <ele>1022.492</ele>
        <time>2021-10-13T13:28:24Z</time>
      </trkpt>
      <trkpt lat="40.557977" lon="-5.671241">
        <ele>1022.473</ele>
        <time>2021-10-13T13:28:34Z</time>
      </trkpt>
      <trkpt lat="40.557965" lon="-5.671308">
        <ele>1022.420</ele>
        <time>2021-10-13T13:28:43Z</time>
      </trkpt>
      <trkpt lat="40.557990" lon="-5.671399">
        <ele>1022.308</ele>
        <time>2021-10-13T13:29:15Z</time>
      </trkpt>
      <trkpt lat="40.558036" lon="-5.671427">
        <ele>1022.367</ele>
        <time>2021-10-13T13:29:17Z</time>
      </trkpt>
      <trkpt lat="40.557993" lon="-5.671443">
        <ele>1022.295</ele>
        <time>2021-10-13T13:30:00Z</time>
      </trkpt>
      <trkpt lat="40.557939" lon="-5.671469">
        <ele>1022.212</ele>
        <time>2021-10-13T13:30:06Z</time>
      </trkpt>
      <trkpt lat="40.557905" lon="-5.671518">
        <ele>1022.222</ele>
        <time>2021-10-13T13:30:08Z</time>
      </trkpt>
      <trkpt lat="40.557820" lon="-5.671675">
        <ele>1022.215</ele>
        <time>2021-10-13T13:30:17Z</time>
      </trkpt>
      <trkpt lat="40.557835" lon="-5.671746">
        <ele>1022.241</ele>
        <time>2021-10-13T13:30:30Z</time>
      </trkpt>
      <trkpt lat="40.557849" lon="-5.671684">
        <ele>1022.230</ele>
        <time>2021-10-13T13:30:33Z</time>
      </trkpt>
      <trkpt lat="40.557866" lon="-5.671618">
        <ele>1022.215</ele>
        <time>2021-10-13T13:30:34Z</time>
      </trkpt>
      <trkpt lat="40.557895" lon="-5.671513">
        <ele>1022.272</ele>
        <time>2021-10-13T13:30:36Z</time>
      </trkpt>
      <trkpt lat="40.557907" lon="-5.671455">
        <ele>1022.213</ele>
        <time>2021-10-13T13:30:38Z</time>
      </trkpt>
      <trkpt lat="40.557942" lon="-5.671369">
        <ele>1022.214</ele>
        <time>2021-10-13T13:30:41Z</time>
      </trkpt>
      <trkpt lat="40.557977" lon="-5.671300">
        <ele>1022.208</ele>
        <time>2021-10-13T13:30:43Z</time>
      </trkpt>
      <trkpt lat="40.558067" lon="-5.670827">
        <ele>1022.245</ele>
        <time>2021-10-13T13:31:07Z</time>
      </trkpt>
      <trkpt lat="40.557676" lon="-5.671837">
        <ele>1022.273</ele>
        <time>2021-10-13T13:31:32Z</time>
      </trkpt>
      <trkpt lat="40.557705" lon="-5.671776">
        <ele>1022.250</ele>
        <time>2021-10-13T13:31:37Z</time>
      </trkpt>
      <trkpt lat="40.557748" lon="-5.671491">
        <ele>1022.050</ele>
        <time>2021-10-13T13:32:56Z</time>
      </trkpt>
      <trkpt lat="40.557799" lon="-5.671446">
        <ele>1021.953</ele>
        <time>2021-10-13T13:32:59Z</time>
      </trkpt>
      <trkpt lat="40.557834" lon="-5.671403">
        <ele>1021.919</ele>
        <time>2021-10-13T13:33:03Z</time>
      </trkpt>
      <trkpt lat="40.557931" lon="-5.671310">
        <ele>1021.958</ele>
        <time>2021-10-13T13:33:07Z</time>
      </trkpt>
      <trkpt lat="40.558006" lon="-5.671257">
        <ele>1021.953</ele>
        <time>2021-10-13T13:33:08Z</time>
      </trkpt>
      <trkpt lat="40.558066" lon="-5.671196">
        <ele>1021.981</ele>
        <time>2021-10-13T13:33:10Z</time>
      </trkpt>
      <trkpt lat="40.558066" lon="-5.671121">
        <ele>1021.961</ele>
        <time>2021-10-13T13:33:12Z</time>
      </trkpt>
      <trkpt lat="40.558078" lon="-5.671052">
        <ele>1021.917</ele>
        <time>2021-10-13T13:33:15Z</time>
      </trkpt>
      <trkpt lat="40.558076" lon="-5.671135">
        <ele>1021.908</ele>
        <time>2021-10-13T13:33:18Z</time>
      </trkpt>
      <trkpt lat="40.558064" lon="-5.671201">
        <ele>1021.916</ele>
        <time>2021-10-13T13:33:20Z</time>
      </trkpt>
      <trkpt lat="40.558054" lon="-5.671302">
        <ele>1021.974</ele>
        <time>2021-10-13T13:33:26Z</time>
      </trkpt>
      <trkpt lat="40.558052" lon="-5.671452">
        <ele>1021.971</ele>
        <time>2021-10-13T13:33:28Z</time>
      </trkpt>
      <trkpt lat="40.558076" lon="-5.671544">
        <ele>1021.981</ele>
        <time>2021-10-13T13:33:30Z</time>
      </trkpt>
      <trkpt lat="40.558137" lon="-5.671622">
        <ele>1021.864</ele>
        <time>2021-10-13T13:33:32Z</time>
      </trkpt>
      <trkpt lat="40.558181" lon="-5.671660">
        <ele>1021.820</ele>
        <time>2021-10-13T13:33:36Z</time>
      </trkpt>
      <trkpt lat="40.558135" lon="-5.671643">
        <ele>1021.819</ele>
        <time>2021-10-13T13:33:39Z</time>
      </trkpt>
      <trkpt lat="40.558093" lon="-5.671598">
        <ele>1021.864</ele>
        <time>2021-10-13T13:33:41Z</time>
      </trkpt>
      <trkpt lat="40.558058" lon="-5.671547">
        <ele>1021.873</ele>
        <time>2021-10-13T13:33:45Z</time>
      </trkpt>
      <trkpt lat="40.558055" lon="-5.671480">
        <ele>1021.885</ele>
        <time>2021-10-13T13:33:50Z</time>
      </trkpt>
      <trkpt lat="40.558005" lon="-5.671466">
        <ele>1021.713</ele>
        <time>2021-10-13T13:34:06Z</time>
      </trkpt>
      <trkpt lat="40.557960" lon="-5.671537">
        <ele>1021.708</ele>
        <time>2021-10-13T13:34:08Z</time>
      </trkpt>
      <trkpt lat="40.557902" lon="-5.671612">
        <ele>1021.625</ele>
        <time>2021-10-13T13:34:25Z</time>
      </trkpt>
      <trkpt lat="40.557861" lon="-5.671647">
        <ele>1021.693</ele>
        <time>2021-10-13T13:34:27Z</time>
      </trkpt>
      <trkpt lat="40.557807" lon="-5.671682">
        <ele>1021.530</ele>
        <time>2021-10-13T13:34:33Z</time>
      </trkpt>
      <trkpt lat="40.557771" lon="-5.671727">
        <ele>1021.530</ele>
        <time>2021-10-13T13:34:35Z</time>
      </trkpt>
      <trkpt lat="40.557757" lon="-5.671789">
        <ele>1021.543</ele>
        <time>2021-10-13T13:34:38Z</time>
      </trkpt>
      <trkpt lat="40.557782" lon="-5.671859">
        <ele>1021.589</ele>
        <time>2021-10-13T13:34:43Z</time>
      </trkpt>
      <trkpt lat="40.557735" lon="-5.671921">
        <ele>1021.588</ele>
        <time>2021-10-13T13:34:45Z</time>
      </trkpt>
      <trkpt lat="40.557670" lon="-5.671972">
        <ele>1021.583</ele>
        <time>2021-10-13T13:34:47Z</time>
      </trkpt>
      <trkpt lat="40.557629" lon="-5.672003">
        <ele>1021.592</ele>
        <time>2021-10-13T13:34:49Z</time>
      </trkpt>
      <trkpt lat="40.557597" lon="-5.672046">
        <ele>1021.573</ele>
        <time>2021-10-13T13:34:52Z</time>
      </trkpt>
      <trkpt lat="40.557568" lon="-5.672099">
        <ele>1021.520</ele>
        <time>2021-10-13T13:34:55Z</time>
      </trkpt>
      <trkpt lat="40.557566" lon="-5.672234">
        <ele>1021.508</ele>
        <time>2021-10-13T13:35:03Z</time>
      </trkpt>
      <trkpt lat="40.557546" lon="-5.672298">
        <ele>1021.557</ele>
        <time>2021-10-13T13:35:09Z</time>
      </trkpt>
      <trkpt lat="40.557600" lon="-5.672246">
        <ele>1021.595</ele>
        <time>2021-10-13T13:35:11Z</time>
      </trkpt>
      <trkpt lat="40.557604" lon="-5.672093">
        <ele>1021.562</ele>
        <time>2021-10-13T13:35:13Z</time>
      </trkpt>
      <trkpt lat="40.557605" lon="-5.672020">
        <ele>1021.522</ele>
        <time>2021-10-13T13:35:14Z</time>
      </trkpt>
      <trkpt lat="40.557621" lon="-5.671910">
        <ele>1021.585</ele>
        <time>2021-10-13T13:35:18Z</time>
      </trkpt>
      <trkpt lat="40.557624" lon="-5.671839">
        <ele>1021.571</ele>
        <time>2021-10-13T13:35:21Z</time>
      </trkpt>
      <trkpt lat="40.557701" lon="-5.671852">
        <ele>1021.460</ele>
        <time>2021-10-13T13:35:42Z</time>
      </trkpt>
      <trkpt lat="40.557644" lon="-5.671913">
        <ele>1021.325</ele>
        <time>2021-10-13T13:36:22Z</time>
      </trkpt>
      <trkpt lat="40.557603" lon="-5.671954">
        <ele>1021.313</ele>
        <time>2021-10-13T13:36:25Z</time>
      </trkpt>
      <trkpt lat="40.557593" lon="-5.672031">
        <ele>1021.343</ele>
        <time>2021-10-13T13:36:30Z</time>
      </trkpt>
      <trkpt lat="40.557565" lon="-5.672131">
        <ele>1021.307</ele>
        <time>2021-10-13T13:36:41Z</time>
      </trkpt>
      <trkpt lat="40.557535" lon="-5.672210">
        <ele>1021.408</ele>
        <time>2021-10-13T13:36:43Z</time>
      </trkpt>
      <trkpt lat="40.557513" lon="-5.672272">
        <ele>1021.439</ele>
        <time>2021-10-13T13:36:47Z</time>
      </trkpt>
      <trkpt lat="40.557564" lon="-5.672255">
        <ele>1021.497</ele>
        <time>2021-10-13T13:37:17Z</time>
      </trkpt>
      <trkpt lat="40.557609" lon="-5.672278">
        <ele>1021.464</ele>
        <time>2021-10-13T13:37:34Z</time>
      </trkpt>
      <trkpt lat="40.557619" lon="-5.672220">
        <ele>1021.474</ele>
        <time>2021-10-13T13:38:01Z</time>
      </trkpt>
      <trkpt lat="40.557618" lon="-5.672155">
        <ele>1021.527</ele>
        <time>2021-10-13T13:38:12Z</time>
      </trkpt>
      <trkpt lat="40.557623" lon="-5.672094">
        <ele>1021.573</ele>
        <time>2021-10-13T13:38:20Z</time>
      </trkpt>
      <trkpt lat="40.557644" lon="-5.671981">
        <ele>1021.542</ele>
        <time>2021-10-13T13:38:37Z</time>
      </trkpt>
      <trkpt lat="40.557670" lon="-5.671915">
        <ele>1021.577</ele>
        <time>2021-10-13T13:38:38Z</time>
      </trkpt>
      <trkpt lat="40.557712" lon="-5.671811">
        <ele>1021.587</ele>
        <time>2021-10-13T13:38:40Z</time>
      </trkpt>
      <trkpt lat="40.557731" lon="-5.671733">
        <ele>1021.542</ele>
        <time>2021-10-13T13:38:43Z</time>
      </trkpt>
      <trkpt lat="40.557742" lon="-5.671674">
        <ele>1021.626</ele>
        <time>2021-10-13T13:38:45Z</time>
      </trkpt>
      <trkpt lat="40.557696" lon="-5.671697">
        <ele>1021.608</ele>
        <time>2021-10-13T13:39:12Z</time>
      </trkpt>
      <trkpt lat="40.557747" lon="-5.671646">
        <ele>1021.666</ele>
        <time>2021-10-13T13:39:15Z</time>
      </trkpt>
      <trkpt lat="40.557769" lon="-5.671582">
        <ele>1021.684</ele>
        <time>2021-10-13T13:39:17Z</time>
      </trkpt>
      <trkpt lat="40.557772" lon="-5.671520">
        <ele>1021.691</ele>
        <time>2021-10-13T13:39:22Z</time>
      </trkpt>
      <trkpt lat="40.557766" lon="-5.671589">
        <ele>1021.641</ele>
        <time>2021-10-13T13:39:51Z</time>
      </trkpt>
      <trkpt lat="40.557758" lon="-5.671660">
        <ele>1021.624</ele>
        <time>2021-10-13T13:39:53Z</time>
      </trkpt>
      <trkpt lat="40.557734" lon="-5.671766">
        <ele>1021.670</ele>
        <time>2021-10-13T13:40:04Z</time>
      </trkpt>
      <trkpt lat="40.557718" lon="-5.671822">
        <ele>1021.669</ele>
        <time>2021-10-13T13:40:06Z</time>
      </trkpt>
      <trkpt lat="40.557746" lon="-5.671878">
        <ele>1021.684</ele>
        <time>2021-10-13T13:40:20Z</time>
      </trkpt>
      <trkpt lat="40.557728" lon="-5.671808">
        <ele>1021.586</ele>
        <time>2021-10-13T13:40:41Z</time>
      </trkpt>
      <trkpt lat="40.557718" lon="-5.671745">
        <ele>1021.460</ele>
        <time>2021-10-13T13:40:43Z</time>
      </trkpt>
      <trkpt lat="40.557715" lon="-5.671815">
        <ele>1021.326</ele>
        <time>2021-10-13T13:41:21Z</time>
      </trkpt>
      <trkpt lat="40.557661" lon="-5.671894">
        <ele>1021.308</ele>
        <time>2021-10-13T13:41:37Z</time>
      </trkpt>
      <trkpt lat="40.557617" lon="-5.671924">
        <ele>1021.316</ele>
        <time>2021-10-13T13:41:39Z</time>
      </trkpt>
      <trkpt lat="40.557654" lon="-5.671879">
        <ele>1021.374</ele>
        <time>2021-10-13T13:41:43Z</time>
      </trkpt>
      <trkpt lat="40.557608" lon="-5.671914">
        <ele>1021.571</ele>
        <time>2021-10-13T13:41:54Z</time>
      </trkpt>
      <trkpt lat="40.557643" lon="-5.671872">
        <ele>1021.531</ele>
        <time>2021-10-13T13:41:59Z</time>
      </trkpt>
      <trkpt lat="40.557683" lon="-5.671916">
        <ele>1021.574</ele>
        <time>2021-10-13T13:42:19Z</time>
      </trkpt>
      <trkpt lat="40.557722" lon="-5.671955">
        <ele>1021.590</ele>
        <time>2021-10-13T13:42:20Z</time>
      </trkpt>
      <trkpt lat="40.557774" lon="-5.671946">
        <ele>1021.579</ele>
        <time>2021-10-13T13:42:23Z</time>
      </trkpt>
      <trkpt lat="40.557714" lon="-5.671896">
        <ele>1021.534</ele>
        <time>2021-10-13T13:42:42Z</time>
      </trkpt>
      <trkpt lat="40.557668" lon="-5.671871">
        <ele>1021.676</ele>
        <time>2021-10-13T13:42:46Z</time>
      </trkpt>
      <trkpt lat="40.557721" lon="-5.671874">
        <ele>1021.690</ele>
        <time>2021-10-13T13:43:25Z</time>
      </trkpt>
      <trkpt lat="40.557676" lon="-5.671921">
        <ele>1021.619</ele>
        <time>2021-10-13T13:43:55Z</time>
      </trkpt>
      <trkpt lat="40.557650" lon="-5.671861">
        <ele>1021.608</ele>
        <time>2021-10-13T13:44:14Z</time>
      </trkpt>
      <trkpt lat="40.557637" lon="-5.671799">
        <ele>1021.685</ele>
        <time>2021-10-13T13:44:17Z</time>
      </trkpt>
      <trkpt lat="40.557602" lon="-5.671758">
        <ele>1021.683</ele>
        <time>2021-10-13T13:44:24Z</time>
      </trkpt>
      <trkpt lat="40.557548" lon="-5.671724">
        <ele>1021.690</ele>
        <time>2021-10-13T13:44:29Z</time>
      </trkpt>
      <trkpt lat="40.557496" lon="-5.671712">
        <ele>1021.660</ele>
        <time>2021-10-13T13:44:32Z</time>
      </trkpt>
      <trkpt lat="40.557446" lon="-5.671718">
        <ele>1021.513</ele>
        <time>2021-10-13T13:44:35Z</time>
      </trkpt>
      <trkpt lat="40.557401" lon="-5.671735">
        <ele>1021.559</ele>
        <time>2021-10-13T13:44:37Z</time>
      </trkpt>
      <trkpt lat="40.557354" lon="-5.671751">
        <ele>1021.568</ele>
        <time>2021-10-13T13:44:41Z</time>
      </trkpt>
      <trkpt lat="40.557308" lon="-5.671782">
        <ele>1021.533</ele>
        <time>2021-10-13T13:44:45Z</time>
      </trkpt>
      <trkpt lat="40.557262" lon="-5.671802">
        <ele>1021.546</ele>
        <time>2021-10-13T13:45:02Z</time>
      </trkpt>
      <trkpt lat="40.557216" lon="-5.671783">
        <ele>1021.588</ele>
        <time>2021-10-13T13:45:11Z</time>
      </trkpt>
      <trkpt lat="40.557174" lon="-5.671762">
        <ele>1021.516</ele>
        <time>2021-10-13T13:45:57Z</time>
      </trkpt>
      <trkpt lat="40.557130" lon="-5.671799">
        <ele>1021.508</ele>
        <time>2021-10-13T13:46:02Z</time>
      </trkpt>
      <trkpt lat="40.557074" lon="-5.671838">
        <ele>1021.582</ele>
        <time>2021-10-13T13:46:32Z</time>
      </trkpt>
      <trkpt lat="40.556988" lon="-5.671848">
        <ele>1021.350</ele>
        <time>2021-10-13T13:46:34Z</time>
      </trkpt>
      <trkpt lat="40.556943" lon="-5.671864">
        <ele>1021.367</ele>
        <time>2021-10-13T13:46:36Z</time>
      </trkpt>
      <trkpt lat="40.556987" lon="-5.671879">
        <ele>1021.347</ele>
        <time>2021-10-13T13:46:42Z</time>
      </trkpt>
      <trkpt lat="40.557034" lon="-5.671863">
        <ele>1021.250</ele>
        <time>2021-10-13T13:46:57Z</time>
      </trkpt>
      <trkpt lat="40.557051" lon="-5.671808">
        <ele>1021.226</ele>
        <time>2021-10-13T13:47:05Z</time>
      </trkpt>
      <trkpt lat="40.557006" lon="-5.671830">
        <ele>1021.345</ele>
        <time>2021-10-13T13:49:24Z</time>
      </trkpt>
      <trkpt lat="40.556967" lon="-5.671781">
        <ele>1021.340</ele>
        <time>2021-10-13T13:49:27Z</time>
      </trkpt>
      <trkpt lat="40.556929" lon="-5.671725">
        <ele>1021.395</ele>
        <time>2021-10-13T13:49:29Z</time>
      </trkpt>
      <trkpt lat="40.556900" lon="-5.671680">
        <ele>1021.349</ele>
        <time>2021-10-13T13:49:31Z</time>
      </trkpt>
      <trkpt lat="40.556856" lon="-5.671633">
        <ele>1021.623</ele>
        <time>2021-10-13T13:49:33Z</time>
      </trkpt>
      <trkpt lat="40.556821" lon="-5.671595">
        <ele>1021.608</ele>
        <time>2021-10-13T13:49:34Z</time>
      </trkpt>
      <trkpt lat="40.556733" lon="-5.671536">
        <ele>1021.647</ele>
        <time>2021-10-13T13:49:36Z</time>
      </trkpt>
      <trkpt lat="40.556624" lon="-5.671492">
        <ele>1021.645</ele>
        <time>2021-10-13T13:49:38Z</time>
      </trkpt>
      <trkpt lat="40.556570" lon="-5.671469">
        <ele>1021.692</ele>
        <time>2021-10-13T13:49:40Z</time>
      </trkpt>
      <trkpt lat="40.556517" lon="-5.671453">
        <ele>1021.652</ele>
        <time>2021-10-13T13:49:42Z</time>
      </trkpt>
      <trkpt lat="40.556458" lon="-5.671420">
        <ele>1021.665</ele>
        <time>2021-10-13T13:49:44Z</time>
      </trkpt>
      <trkpt lat="40.556402" lon="-5.671376">
        <ele>1021.651</ele>
        <time>2021-10-13T13:49:46Z</time>
      </trkpt>
      <trkpt lat="40.556327" lon="-5.671328">
        <ele>1021.630</ele>
        <time>2021-10-13T13:49:48Z</time>
      </trkpt>
      <trkpt lat="40.556254" lon="-5.671294">
        <ele>1021.685</ele>
        <time>2021-10-13T13:49:50Z</time>
      </trkpt>
      <trkpt lat="40.556180" lon="-5.671261">
        <ele>1021.696</ele>
        <time>2021-10-13T13:49:52Z</time>
      </trkpt>
      <trkpt lat="40.556101" lon="-5.671230">
        <ele>1021.631</ele>
        <time>2021-10-13T13:49:54Z</time>
      </trkpt>
      <trkpt lat="40.556033" lon="-5.671206">
        <ele>1021.624</ele>
        <time>2021-10-13T13:49:56Z</time>
      </trkpt>
      <trkpt lat="40.555957" lon="-5.671186">
        <ele>1021.608</ele>
        <time>2021-10-13T13:49:58Z</time>
      </trkpt>
      <trkpt lat="40.555876" lon="-5.671165">
        <ele>1021.687</ele>
        <time>2021-10-13T13:50:00Z</time>
      </trkpt>
      <trkpt lat="40.555791" lon="-5.671141">
        <ele>1021.685</ele>
        <time>2021-10-13T13:50:02Z</time>
      </trkpt>
      <trkpt lat="40.555710" lon="-5.671132">
        <ele>1021.692</ele>
        <time>2021-10-13T13:50:04Z</time>
      </trkpt>
      <trkpt lat="40.555627" lon="-5.671148">
        <ele>1021.662</ele>
        <time>2021-10-13T13:50:06Z</time>
      </trkpt>
      <trkpt lat="40.555531" lon="-5.671231">
        <ele>1021.625</ele>
        <time>2021-10-13T13:50:08Z</time>
      </trkpt>
      <trkpt lat="40.555448" lon="-5.671338">
        <ele>1021.671</ele>
        <time>2021-10-13T13:50:10Z</time>
      </trkpt>
      <trkpt lat="40.555357" lon="-5.671428">
        <ele>1021.620</ele>
        <time>2021-10-13T13:50:12Z</time>
      </trkpt>
      <trkpt lat="40.555310" lon="-5.671469">
        <ele>1021.615</ele>
        <time>2021-10-13T13:50:13Z</time>
      </trkpt>
      <trkpt lat="40.555267" lon="-5.671510">
        <ele>1021.683</ele>
        <time>2021-10-13T13:50:14Z</time>
      </trkpt>
      <trkpt lat="40.555191" lon="-5.671597">
        <ele>1021.625</ele>
        <time>2021-10-13T13:50:16Z</time>
      </trkpt>
      <trkpt lat="40.555119" lon="-5.671691">
        <ele>1021.617</ele>
        <time>2021-10-13T13:50:18Z</time>
      </trkpt>
      <trkpt lat="40.555083" lon="-5.671733">
        <ele>1021.608</ele>
        <time>2021-10-13T13:50:19Z</time>
      </trkpt>
      <trkpt lat="40.555043" lon="-5.671781">
        <ele>1021.616</ele>
        <time>2021-10-13T13:50:21Z</time>
      </trkpt>
      <trkpt lat="40.554992" lon="-5.671812">
        <ele>1021.644</ele>
        <time>2021-10-13T13:50:24Z</time>
      </trkpt>
      <trkpt lat="40.554945" lon="-5.671833">
        <ele>1021.691</ele>
        <time>2021-10-13T13:50:30Z</time>
      </trkpt>
      <trkpt lat="40.554920" lon="-5.671899">
        <ele>1021.671</ele>
        <time>2021-10-13T13:50:34Z</time>
      </trkpt>
      <trkpt lat="40.554924" lon="-5.672036">
        <ele>1021.614</ele>
        <time>2021-10-13T13:50:36Z</time>
      </trkpt>
      <trkpt lat="40.554957" lon="-5.672174">
        <ele>1021.780</ele>
        <time>2021-10-13T13:50:38Z</time>
      </trkpt>
      <trkpt lat="40.554979" lon="-5.672271">
        <ele>1021.769</ele>
        <time>2021-10-13T13:50:40Z</time>
      </trkpt>
      <trkpt lat="40.555012" lon="-5.672364">
        <ele>1021.784</ele>
        <time>2021-10-13T13:50:42Z</time>
      </trkpt>
      <trkpt lat="40.555031" lon="-5.672444">
        <ele>1021.738</ele>
        <time>2021-10-13T13:50:44Z</time>
      </trkpt>
      <trkpt lat="40.555043" lon="-5.672522">
        <ele>1021.770</ele>
        <time>2021-10-13T13:50:46Z</time>
      </trkpt>
      <trkpt lat="40.555044" lon="-5.672586">
        <ele>1021.717</ele>
        <time>2021-10-13T13:50:49Z</time>
      </trkpt>
      <trkpt lat="40.555045" lon="-5.672650">
        <ele>1021.708</ele>
        <time>2021-10-13T13:51:26Z</time>
      </trkpt>
      <trkpt lat="40.555053" lon="-5.672760">
        <ele>1021.731</ele>
        <time>2021-10-13T13:51:28Z</time>
      </trkpt>
      <trkpt lat="40.555064" lon="-5.672850">
        <ele>1021.779</ele>
        <time>2021-10-13T13:51:30Z</time>
      </trkpt>
      <trkpt lat="40.555084" lon="-5.672932">
        <ele>1021.786</ele>
        <time>2021-10-13T13:51:32Z</time>
      </trkpt>
      <trkpt lat="40.555098" lon="-5.673003">
        <ele>1021.766</ele>
        <time>2021-10-13T13:51:34Z</time>
      </trkpt>
      <trkpt lat="40.555117" lon="-5.673066">
        <ele>1021.719</ele>
        <time>2021-10-13T13:51:36Z</time>
      </trkpt>
      <trkpt lat="40.555134" lon="-5.673128">
        <ele>1021.715</ele>
        <time>2021-10-13T13:51:38Z</time>
      </trkpt>
      <trkpt lat="40.555143" lon="-5.673188">
        <ele>1021.724</ele>
        <time>2021-10-13T13:51:40Z</time>
      </trkpt>
      <trkpt lat="40.555144" lon="-5.673264">
        <ele>1021.779</ele>
        <time>2021-10-13T13:51:43Z</time>
      </trkpt>
      <trkpt lat="40.555153" lon="-5.673330">
        <ele>1021.744</ele>
        <time>2021-10-13T13:51:48Z</time>
      </trkpt>
      <trkpt lat="40.555176" lon="-5.673424">
        <ele>1021.705</ele>
        <time>2021-10-13T13:51:55Z</time>
      </trkpt>
      <trkpt lat="40.555198" lon="-5.673481">
        <ele>1021.715</ele>
        <time>2021-10-13T13:51:57Z</time>
      </trkpt>
      <trkpt lat="40.555215" lon="-5.673551">
        <ele>1021.708</ele>
        <time>2021-10-13T13:52:42Z</time>
      </trkpt>
      <trkpt lat="40.555261" lon="-5.673573">
        <ele>1021.742</ele>
        <time>2021-10-13T13:52:45Z</time>
      </trkpt>
      <trkpt lat="40.555314" lon="-5.673561">
        <ele>1021.720</ele>
        <time>2021-10-13T13:52:48Z</time>
      </trkpt>
      <trkpt lat="40.555359" lon="-5.673544">
        <ele>1021.797</ele>
        <time>2021-10-13T13:52:52Z</time>
      </trkpt>
      <trkpt lat="40.555404" lon="-5.673487">
        <ele>1021.767</ele>
        <time>2021-10-13T13:53:16Z</time>
      </trkpt>
      <trkpt lat="40.555465" lon="-5.673465">
        <ele>1021.720</ele>
        <time>2021-10-13T13:53:19Z</time>
      </trkpt>
      <trkpt lat="40.555512" lon="-5.673467">
        <ele>1021.716</ele>
        <time>2021-10-13T13:53:21Z</time>
      </trkpt>
      <trkpt lat="40.555559" lon="-5.673465">
        <ele>1021.755</ele>
        <time>2021-10-13T13:53:23Z</time>
      </trkpt>
      <trkpt lat="40.555615" lon="-5.673449">
        <ele>1021.720</ele>
        <time>2021-10-13T13:53:26Z</time>
      </trkpt>
      <trkpt lat="40.555683" lon="-5.673416">
        <ele>1021.844</ele>
        <time>2021-10-13T13:53:28Z</time>
      </trkpt>
      <trkpt lat="40.555728" lon="-5.673392">
        <ele>1021.805</ele>
        <time>2021-10-13T13:53:29Z</time>
      </trkpt>
      <trkpt lat="40.555803" lon="-5.673352">
        <ele>1021.815</ele>
        <time>2021-10-13T13:53:31Z</time>
      </trkpt>
      <trkpt lat="40.555864" lon="-5.673320">
        <ele>1021.808</ele>
        <time>2021-10-13T13:53:33Z</time>
      </trkpt>
      <trkpt lat="40.555946" lon="-5.673271">
        <ele>1021.892</ele>
        <time>2021-10-13T13:53:35Z</time>
      </trkpt>
      <trkpt lat="40.556053" lon="-5.673203">
        <ele>1021.830</ele>
        <time>2021-10-13T13:53:37Z</time>
      </trkpt>
      <trkpt lat="40.556114" lon="-5.673160">
        <ele>1021.897</ele>
        <time>2021-10-13T13:53:38Z</time>
      </trkpt>
      <trkpt lat="40.556227" lon="-5.673085">
        <ele>1021.797</ele>
        <time>2021-10-13T13:53:40Z</time>
      </trkpt>
      <trkpt lat="40.556278" lon="-5.673060">
        <ele>1021.740</ele>
        <time>2021-10-13T13:53:41Z</time>
      </trkpt>
      <trkpt lat="40.556352" lon="-5.673023">
        <ele>1021.746</ele>
        <time>2021-10-13T13:53:43Z</time>
      </trkpt>
      <trkpt lat="40.556440" lon="-5.672985">
        <ele>1021.755</ele>
        <time>2021-10-13T13:53:45Z</time>
      </trkpt>
      <trkpt lat="40.556511" lon="-5.672958">
        <ele>1021.820</ele>
        <time>2021-10-13T13:53:47Z</time>
      </trkpt>
      <trkpt lat="40.556560" lon="-5.672937">
        <ele>1021.814</ele>
        <time>2021-10-13T13:53:49Z</time>
      </trkpt>
      <trkpt lat="40.556614" lon="-5.672921">
        <ele>1021.854</ele>
        <time>2021-10-13T13:53:52Z</time>
      </trkpt>
      <trkpt lat="40.556662" lon="-5.672904">
        <ele>1021.809</ele>
        <time>2021-10-13T13:54:15Z</time>
      </trkpt>
      <trkpt lat="40.556724" lon="-5.672896">
        <ele>1021.808</ele>
        <time>2021-10-13T13:54:17Z</time>
      </trkpt>
      <trkpt lat="40.556818" lon="-5.672878">
        <ele>1021.839</ele>
        <time>2021-10-13T13:54:19Z</time>
      </trkpt>
      <trkpt lat="40.556880" lon="-5.672863">
        <ele>1021.847</ele>
        <time>2021-10-13T13:54:20Z</time>
      </trkpt>
      <trkpt lat="40.557011" lon="-5.672847">
        <ele>1021.714</ele>
        <time>2021-10-13T13:54:22Z</time>
      </trkpt>
      <trkpt lat="40.557089" lon="-5.672841">
        <ele>1021.784</ele>
        <time>2021-10-13T13:54:23Z</time>
      </trkpt>
      <trkpt lat="40.557257" lon="-5.672828">
        <ele>1021.717</ele>
        <time>2021-10-13T13:54:25Z</time>
      </trkpt>
      <trkpt lat="40.557332" lon="-5.672820">
        <ele>1021.783</ele>
        <time>2021-10-13T13:54:26Z</time>
      </trkpt>
      <trkpt lat="40.557465" lon="-5.672811">
        <ele>1021.712</ele>
        <time>2021-10-13T13:54:28Z</time>
      </trkpt>
      <trkpt lat="40.557611" lon="-5.672811">
        <ele>1021.777</ele>
        <time>2021-10-13T13:54:30Z</time>
      </trkpt>
      <trkpt lat="40.557770" lon="-5.672819">
        <ele>1021.752</ele>
        <time>2021-10-13T13:54:32Z</time>
      </trkpt>
      <trkpt lat="40.557921" lon="-5.672823">
        <ele>1021.753</ele>
        <time>2021-10-13T13:54:34Z</time>
      </trkpt>
      <trkpt lat="40.557997" lon="-5.672816">
        <ele>1021.708</ele>
        <time>2021-10-13T13:54:35Z</time>
      </trkpt>
      <trkpt lat="40.558166" lon="-5.672803">
        <ele>1021.608</ele>
        <time>2021-10-13T13:54:37Z</time>
      </trkpt>
      <trkpt lat="40.558253" lon="-5.672802">
        <ele>1021.613</ele>
        <time>2021-10-13T13:54:38Z</time>
      </trkpt>
      <trkpt lat="40.558405" lon="-5.672789">
        <ele>1021.681</ele>
        <time>2021-10-13T13:54:40Z</time>
      </trkpt>
      <trkpt lat="40.558474" lon="-5.672780">
        <ele>1021.648</ele>
        <time>2021-10-13T13:54:41Z</time>
      </trkpt>
      <trkpt lat="40.558592" lon="-5.672763">
        <ele>1021.678</ele>
        <time>2021-10-13T13:54:43Z</time>
      </trkpt>
      <trkpt lat="40.558642" lon="-5.672757">
        <ele>1021.651</ele>
        <time>2021-10-13T13:54:44Z</time>
      </trkpt>
      <trkpt lat="40.558691" lon="-5.672749">
        <ele>1021.627</ele>
        <time>2021-10-13T13:54:46Z</time>
      </trkpt>
      <trkpt lat="40.558737" lon="-5.672747">
        <ele>1021.626</ele>
        <time>2021-10-13T13:54:49Z</time>
      </trkpt>
      <trkpt lat="40.558801" lon="-5.672737">
        <ele>1021.651</ele>
        <time>2021-10-13T13:55:06Z</time>
      </trkpt>
      <trkpt lat="40.558850" lon="-5.672723">
        <ele>1021.677</ele>
        <time>2021-10-13T13:55:07Z</time>
      </trkpt>
      <trkpt lat="40.558911" lon="-5.672703">
        <ele>1021.761</ele>
        <time>2021-10-13T13:55:08Z</time>
      </trkpt>
      <trkpt lat="40.559063" lon="-5.672652">
        <ele>1021.827</ele>
        <time>2021-10-13T13:55:10Z</time>
      </trkpt>
      <trkpt lat="40.559160" lon="-5.672620">
        <ele>1021.808</ele>
        <time>2021-10-13T13:55:11Z</time>
      </trkpt>
      <trkpt lat="40.559367" lon="-5.672552">
        <ele>1021.655</ele>
        <time>2021-10-13T13:55:13Z</time>
      </trkpt>
      <trkpt lat="40.559475" lon="-5.672512">
        <ele>1021.673</ele>
        <time>2021-10-13T13:55:14Z</time>
      </trkpt>
      <trkpt lat="40.559674" lon="-5.672442">
        <ele>1020.860</ele>
        <time>2021-10-13T13:55:16Z</time>
      </trkpt>
      <trkpt lat="40.559770" lon="-5.672406">
        <ele>1019.740</ele>
        <time>2021-10-13T13:55:17Z</time>
      </trkpt>
      <trkpt lat="40.559956" lon="-5.672327">
        <ele>1018.873</ele>
        <time>2021-10-13T13:55:19Z</time>
      </trkpt>
      <trkpt lat="40.560048" lon="-5.672288">
        <ele>1017.239</ele>
        <time>2021-10-13T13:55:20Z</time>
      </trkpt>
      <trkpt lat="40.560232" lon="-5.672218">
        <ele>1018.738</ele>
        <time>2021-10-13T13:55:22Z</time>
      </trkpt>
      <trkpt lat="40.560333" lon="-5.672185">
        <ele>1018.783</ele>
        <time>2021-10-13T13:55:23Z</time>
      </trkpt>
      <trkpt lat="40.560528" lon="-5.672118">
        <ele>1019.046</ele>
        <time>2021-10-13T13:55:25Z</time>
      </trkpt>
      <trkpt lat="40.560618" lon="-5.672085">
        <ele>1019.088</ele>
        <time>2021-10-13T13:55:26Z</time>
      </trkpt>
      <trkpt lat="40.560780" lon="-5.672015">
        <ele>1018.216</ele>
        <time>2021-10-13T13:55:28Z</time>
      </trkpt>
      <trkpt lat="40.560942" lon="-5.671932">
        <ele>1017.108</ele>
        <time>2021-10-13T13:55:30Z</time>
      </trkpt>
      <trkpt lat="40.561018" lon="-5.671893">
        <ele>1015.842</ele>
        <time>2021-10-13T13:55:31Z</time>
      </trkpt>
      <trkpt lat="40.561089" lon="-5.671859">
        <ele>1015.230</ele>
        <time>2021-10-13T13:55:32Z</time>
      </trkpt>
      <trkpt lat="40.561222" lon="-5.671792">
        <ele>1014.567</ele>
        <time>2021-10-13T13:55:34Z</time>
      </trkpt>
      <trkpt lat="40.561386" lon="-5.671710">
        <ele>1012.987</ele>
        <time>2021-10-13T13:55:36Z</time>
      </trkpt>
      <trkpt lat="40.561605" lon="-5.671616">
        <ele>1011.220</ele>
        <time>2021-10-13T13:55:38Z</time>
      </trkpt>
      <trkpt lat="40.561826" lon="-5.671524">
        <ele>1008.466</ele>
        <time>2021-10-13T13:55:40Z</time>
      </trkpt>
      <trkpt lat="40.562023" lon="-5.671431">
        <ele>1007.025</ele>
        <time>2021-10-13T13:55:42Z</time>
      </trkpt>
      <trkpt lat="40.562124" lon="-5.671385">
        <ele>1006.740</ele>
        <time>2021-10-13T13:55:43Z</time>
      </trkpt>
      <trkpt lat="40.562235" lon="-5.671338">
        <ele>1006.032</ele>
        <time>2021-10-13T13:55:44Z</time>
      </trkpt>
      <trkpt lat="40.562436" lon="-5.671251">
        <ele>1005.592</ele>
        <time>2021-10-13T13:55:46Z</time>
      </trkpt>
      <trkpt lat="40.562617" lon="-5.671167">
        <ele>1005.511</ele>
        <time>2021-10-13T13:55:48Z</time>
      </trkpt>
      <trkpt lat="40.562711" lon="-5.671124">
        <ele>1005.308</ele>
        <time>2021-10-13T13:55:49Z</time>
      </trkpt>
      <trkpt lat="40.562820" lon="-5.671075">
        <ele>1005.321</ele>
        <time>2021-10-13T13:55:50Z</time>
      </trkpt>
      <trkpt lat="40.563043" lon="-5.670972">
        <ele>1005.499</ele>
        <time>2021-10-13T13:55:52Z</time>
      </trkpt>
      <trkpt lat="40.563165" lon="-5.670915">
        <ele>1005.466</ele>
        <time>2021-10-13T13:55:53Z</time>
      </trkpt>
      <trkpt lat="40.563427" lon="-5.670795">
        <ele>1004.736</ele>
        <time>2021-10-13T13:55:55Z</time>
      </trkpt>
      <trkpt lat="40.563563" lon="-5.670734">
        <ele>1003.439</ele>
        <time>2021-10-13T13:55:56Z</time>
      </trkpt>
      <trkpt lat="40.563800" lon="-5.670630">
        <ele>1003.745</ele>
        <time>2021-10-13T13:55:58Z</time>
      </trkpt>
      <trkpt lat="40.563910" lon="-5.670581">
        <ele>1003.114</ele>
        <time>2021-10-13T13:55:59Z</time>
      </trkpt>
      <trkpt lat="40.564114" lon="-5.670491">
        <ele>1002.259</ele>
        <time>2021-10-13T13:56:01Z</time>
      </trkpt>
      <trkpt lat="40.564211" lon="-5.670449">
        <ele>1001.953</ele>
        <time>2021-10-13T13:56:02Z</time>
      </trkpt>
      <trkpt lat="40.564372" lon="-5.670375">
        <ele>1001.004</ele>
        <time>2021-10-13T13:56:04Z</time>
      </trkpt>
      <trkpt lat="40.564449" lon="-5.670334">
        <ele>1000.914</ele>
        <time>2021-10-13T13:56:05Z</time>
      </trkpt>
      <trkpt lat="40.564617" lon="-5.670243">
        <ele>1000.508</ele>
        <time>2021-10-13T13:56:07Z</time>
      </trkpt>
      <trkpt lat="40.564712" lon="-5.670198">
        <ele>1000.323</ele>
        <time>2021-10-13T13:56:08Z</time>
      </trkpt>
      <trkpt lat="40.564877" lon="-5.670119">
        <ele>999.921</ele>
        <time>2021-10-13T13:56:10Z</time>
      </trkpt>
      <trkpt lat="40.565029" lon="-5.670050">
        <ele>999.498</ele>
        <time>2021-10-13T13:56:12Z</time>
      </trkpt>
      <trkpt lat="40.565098" lon="-5.670015">
        <ele>999.388</ele>
        <time>2021-10-13T13:56:13Z</time>
      </trkpt>
      <trkpt lat="40.565167" lon="-5.669979">
        <ele>999.221</ele>
        <time>2021-10-13T13:56:14Z</time>
      </trkpt>
      <trkpt lat="40.565314" lon="-5.669904">
        <ele>998.337</ele>
        <time>2021-10-13T13:56:16Z</time>
      </trkpt>
      <trkpt lat="40.565401" lon="-5.669860">
        <ele>997.956</ele>
        <time>2021-10-13T13:56:17Z</time>
      </trkpt>
      <trkpt lat="40.565591" lon="-5.669771">
        <ele>998.091</ele>
        <time>2021-10-13T13:56:19Z</time>
      </trkpt>
      <trkpt lat="40.565684" lon="-5.669728">
        <ele>997.592</ele>
        <time>2021-10-13T13:56:20Z</time>
      </trkpt>
      <trkpt lat="40.565869" lon="-5.669630">
        <ele>997.473</ele>
        <time>2021-10-13T13:56:22Z</time>
      </trkpt>
      <trkpt lat="40.566097" lon="-5.669499">
        <ele>996.920</ele>
        <time>2021-10-13T13:56:24Z</time>
      </trkpt>
      <trkpt lat="40.566219" lon="-5.669418">
        <ele>997.008</ele>
        <time>2021-10-13T13:56:25Z</time>
      </trkpt>
      <trkpt lat="40.566342" lon="-5.669328">
        <ele>996.557</ele>
        <time>2021-10-13T13:56:26Z</time>
      </trkpt>
      <trkpt lat="40.566578" lon="-5.669160">
        <ele>995.995</ele>
        <time>2021-10-13T13:56:28Z</time>
      </trkpt>
      <trkpt lat="40.566700" lon="-5.669074">
        <ele>995.752</ele>
        <time>2021-10-13T13:56:29Z</time>
      </trkpt>
      <trkpt lat="40.566937" lon="-5.668906">
        <ele>995.322</ele>
        <time>2021-10-13T13:56:31Z</time>
      </trkpt>
      <trkpt lat="40.567051" lon="-5.668822">
        <ele>995.795</ele>
        <time>2021-10-13T13:56:32Z</time>
      </trkpt>
      <trkpt lat="40.567217" lon="-5.668693">
        <ele>996.081</ele>
        <time>2021-10-13T13:56:34Z</time>
      </trkpt>
      <trkpt lat="40.567284" lon="-5.668641">
        <ele>996.140</ele>
        <time>2021-10-13T13:56:35Z</time>
      </trkpt>
      <trkpt lat="40.567405" lon="-5.668552">
        <ele>995.785</ele>
        <time>2021-10-13T13:56:37Z</time>
      </trkpt>
      <trkpt lat="40.567467" lon="-5.668508">
        <ele>995.692</ele>
        <time>2021-10-13T13:56:38Z</time>
      </trkpt>
      <trkpt lat="40.567607" lon="-5.668404">
        <ele>995.673</ele>
        <time>2021-10-13T13:56:40Z</time>
      </trkpt>
      <trkpt lat="40.567691" lon="-5.668341">
        <ele>995.520</ele>
        <time>2021-10-13T13:56:41Z</time>
      </trkpt>
      <trkpt lat="40.567874" lon="-5.668209">
        <ele>994.508</ele>
        <time>2021-10-13T13:56:43Z</time>
      </trkpt>
      <trkpt lat="40.567975" lon="-5.668141">
        <ele>994.477</ele>
        <time>2021-10-13T13:56:44Z</time>
      </trkpt>
      <trkpt lat="40.568175" lon="-5.668005">
        <ele>993.245</ele>
        <time>2021-10-13T13:56:46Z</time>
      </trkpt>
      <trkpt lat="40.568281" lon="-5.667926">
        <ele>992.962</ele>
        <time>2021-10-13T13:56:47Z</time>
      </trkpt>
      <trkpt lat="40.568391" lon="-5.667845">
        <ele>992.982</ele>
        <time>2021-10-13T13:56:48Z</time>
      </trkpt>
      <trkpt lat="40.568502" lon="-5.667764">
        <ele>992.985</ele>
        <time>2021-10-13T13:56:49Z</time>
      </trkpt>
      <trkpt lat="40.568622" lon="-5.667680">
        <ele>993.061</ele>
        <time>2021-10-13T13:56:50Z</time>
      </trkpt>
      <trkpt lat="40.568864" lon="-5.667510">
        <ele>992.690</ele>
        <time>2021-10-13T13:56:52Z</time>
      </trkpt>
      <trkpt lat="40.568992" lon="-5.667419">
        <ele>992.595</ele>
        <time>2021-10-13T13:56:53Z</time>
      </trkpt>
      <trkpt lat="40.569239" lon="-5.667243">
        <ele>991.643</ele>
        <time>2021-10-13T13:56:55Z</time>
      </trkpt>
      <trkpt lat="40.569359" lon="-5.667161">
        <ele>990.864</ele>
        <time>2021-10-13T13:56:56Z</time>
      </trkpt>
      <trkpt lat="40.569570" lon="-5.667012">
        <ele>990.410</ele>
        <time>2021-10-13T13:56:58Z</time>
      </trkpt>
      <trkpt lat="40.569672" lon="-5.666937">
        <ele>989.608</ele>
        <time>2021-10-13T13:56:59Z</time>
      </trkpt>
      <trkpt lat="40.569780" lon="-5.666861">
        <ele>989.492</ele>
        <time>2021-10-13T13:57:00Z</time>
      </trkpt>
      <trkpt lat="40.570007" lon="-5.666695">
        <ele>987.830</ele>
        <time>2021-10-13T13:57:02Z</time>
      </trkpt>
      <trkpt lat="40.570233" lon="-5.666526">
        <ele>986.667</ele>
        <time>2021-10-13T13:57:04Z</time>
      </trkpt>
      <trkpt lat="40.570454" lon="-5.666366">
        <ele>985.677</ele>
        <time>2021-10-13T13:57:06Z</time>
      </trkpt>
      <trkpt lat="40.570559" lon="-5.666292">
        <ele>984.950</ele>
        <time>2021-10-13T13:57:07Z</time>
      </trkpt>
      <trkpt lat="40.570661" lon="-5.666216">
        <ele>984.336</ele>
        <time>2021-10-13T13:57:08Z</time>
      </trkpt>
      <trkpt lat="40.570821" lon="-5.666080">
        <ele>983.795</ele>
        <time>2021-10-13T13:57:10Z</time>
      </trkpt>
      <trkpt lat="40.570884" lon="-5.666007">
        <ele>983.770</ele>
        <time>2021-10-13T13:57:11Z</time>
      </trkpt>
      <trkpt lat="40.570960" lon="-5.665872">
        <ele>983.248</ele>
        <time>2021-10-13T13:57:13Z</time>
      </trkpt>
      <trkpt lat="40.570984" lon="-5.665816">
        <ele>982.961</ele>
        <time>2021-10-13T13:57:14Z</time>
      </trkpt>
      <trkpt lat="40.571013" lon="-5.665728">
        <ele>982.417</ele>
        <time>2021-10-13T13:57:16Z</time>
      </trkpt>
      <trkpt lat="40.571037" lon="-5.665675">
        <ele>982.308</ele>
        <time>2021-10-13T13:57:17Z</time>
      </trkpt>
      <trkpt lat="40.571126" lon="-5.665617">
        <ele>982.282</ele>
        <time>2021-10-13T13:57:19Z</time>
      </trkpt>
      <trkpt lat="40.571197" lon="-5.665618">
        <ele>982.220</ele>
        <time>2021-10-13T13:57:20Z</time>
      </trkpt>
      <trkpt lat="40.571361" lon="-5.665646">
        <ele>982.547</ele>
        <time>2021-10-13T13:57:22Z</time>
      </trkpt>
      <trkpt lat="40.571557" lon="-5.665584">
        <ele>982.797</ele>
        <time>2021-10-13T13:57:24Z</time>
      </trkpt>
      <trkpt lat="40.571808" lon="-5.665418">
        <ele>983.240</ele>
        <time>2021-10-13T13:57:26Z</time>
      </trkpt>
      <trkpt lat="40.572139" lon="-5.665178">
        <ele>983.746</ele>
        <time>2021-10-13T13:57:28Z</time>
      </trkpt>
      <trkpt lat="40.572310" lon="-5.665055">
        <ele>983.925</ele>
        <time>2021-10-13T13:57:29Z</time>
      </trkpt>
      <trkpt lat="40.572486" lon="-5.664926">
        <ele>983.980</ele>
        <time>2021-10-13T13:57:30Z</time>
      </trkpt>
      <trkpt lat="40.572845" lon="-5.664648">
        <ele>983.946</ele>
        <time>2021-10-13T13:57:32Z</time>
      </trkpt>
      <trkpt lat="40.573202" lon="-5.664363">
        <ele>983.688</ele>
        <time>2021-10-13T13:57:34Z</time>
      </trkpt>
      <trkpt lat="40.573538" lon="-5.664094">
        <ele>983.316</ele>
        <time>2021-10-13T13:57:36Z</time>
      </trkpt>
      <trkpt lat="40.573698" lon="-5.663971">
        <ele>983.108</ele>
        <time>2021-10-13T13:57:37Z</time>
      </trkpt>
      <trkpt lat="40.573869" lon="-5.663839">
        <ele>982.812</ele>
        <time>2021-10-13T13:57:38Z</time>
      </trkpt>
      <trkpt lat="40.574205" lon="-5.663584">
        <ele>981.210</ele>
        <time>2021-10-13T13:57:40Z</time>
      </trkpt>
      <trkpt lat="40.574380" lon="-5.663448">
        <ele>980.527</ele>
        <time>2021-10-13T13:57:41Z</time>
      </trkpt>
      <trkpt lat="40.574553" lon="-5.663309">
        <ele>980.047</ele>
        <time>2021-10-13T13:57:42Z</time>
      </trkpt>
      <trkpt lat="40.574905" lon="-5.663012">
        <ele>978.010</ele>
        <time>2021-10-13T13:57:44Z</time>
      </trkpt>
      <trkpt lat="40.575268" lon="-5.662715">
        <ele>975.866</ele>
        <time>2021-10-13T13:57:46Z</time>
      </trkpt>
      <trkpt lat="40.575658" lon="-5.662403">
        <ele>975.175</ele>
        <time>2021-10-13T13:57:48Z</time>
      </trkpt>
      <trkpt lat="40.575857" lon="-5.662248">
        <ele>974.370</ele>
        <time>2021-10-13T13:57:49Z</time>
      </trkpt>
      <trkpt lat="40.576057" lon="-5.662091">
        <ele>973.436</ele>
        <time>2021-10-13T13:57:50Z</time>
      </trkpt>
      <trkpt lat="40.576411" lon="-5.661806">
        <ele>971.917</ele>
        <time>2021-10-13T13:57:52Z</time>
      </trkpt>
      <trkpt lat="40.576581" lon="-5.661666">
        <ele>971.318</ele>
        <time>2021-10-13T13:57:53Z</time>
      </trkpt>
      <trkpt lat="40.576753" lon="-5.661525">
        <ele>970.308</ele>
        <time>2021-10-13T13:57:54Z</time>
      </trkpt>
      <trkpt lat="40.577106" lon="-5.661242">
        <ele>969.131</ele>
        <time>2021-10-13T13:57:56Z</time>
      </trkpt>
      <trkpt lat="40.577478" lon="-5.660953">
        <ele>967.799</ele>
        <time>2021-10-13T13:57:58Z</time>
      </trkpt>
      <trkpt lat="40.577872" lon="-5.660657">
        <ele>967.356</ele>
        <time>2021-10-13T13:58:00Z</time>
      </trkpt>
      <trkpt lat="40.578274" lon="-5.660360">
        <ele>965.546</ele>
        <time>2021-10-13T13:58:02Z</time>
      </trkpt>
      <trkpt lat="40.578656" lon="-5.660093">
        <ele>965.339</ele>
        <time>2021-10-13T13:58:04Z</time>
      </trkpt>
      <trkpt lat="40.578850" lon="-5.659958">
        <ele>964.485</ele>
        <time>2021-10-13T13:58:05Z</time>
      </trkpt>
      <trkpt lat="40.579217" lon="-5.659693">
        <ele>963.894</ele>
        <time>2021-10-13T13:58:07Z</time>
      </trkpt>
      <trkpt lat="40.579407" lon="-5.659556">
        <ele>963.669</ele>
        <time>2021-10-13T13:58:08Z</time>
      </trkpt>
      <trkpt lat="40.579737" lon="-5.659307">
        <ele>963.554</ele>
        <time>2021-10-13T13:58:10Z</time>
      </trkpt>
      <trkpt lat="40.580067" lon="-5.659057">
        <ele>963.056</ele>
        <time>2021-10-13T13:58:12Z</time>
      </trkpt>
      <trkpt lat="40.580418" lon="-5.658818">
        <ele>962.411</ele>
        <time>2021-10-13T13:58:14Z</time>
      </trkpt>
      <trkpt lat="40.580780" lon="-5.658629">
        <ele>963.208</ele>
        <time>2021-10-13T13:58:16Z</time>
      </trkpt>
      <trkpt lat="40.580983" lon="-5.658560">
        <ele>962.753</ele>
        <time>2021-10-13T13:58:17Z</time>
      </trkpt>
      <trkpt lat="40.581411" lon="-5.658483">
        <ele>961.681</ele>
        <time>2021-10-13T13:58:19Z</time>
      </trkpt>
      <trkpt lat="40.581647" lon="-5.658486">
        <ele>961.468</ele>
        <time>2021-10-13T13:58:20Z</time>
      </trkpt>
      <trkpt lat="40.582089" lon="-5.658583">
        <ele>961.158</ele>
        <time>2021-10-13T13:58:22Z</time>
      </trkpt>
      <trkpt lat="40.582316" lon="-5.658652">
        <ele>960.481</ele>
        <time>2021-10-13T13:58:23Z</time>
      </trkpt>
      <trkpt lat="40.582778" lon="-5.658768">
        <ele>958.977</ele>
        <time>2021-10-13T13:58:25Z</time>
      </trkpt>
      <trkpt lat="40.583025" lon="-5.658791">
        <ele>957.956</ele>
        <time>2021-10-13T13:58:26Z</time>
      </trkpt>
      <trkpt lat="40.583488" lon="-5.658720">
        <ele>957.111</ele>
        <time>2021-10-13T13:58:28Z</time>
      </trkpt>
      <trkpt lat="40.583726" lon="-5.658624">
        <ele>956.452</ele>
        <time>2021-10-13T13:58:29Z</time>
      </trkpt>
      <trkpt lat="40.584181" lon="-5.658322">
        <ele>956.253</ele>
        <time>2021-10-13T13:58:31Z</time>
      </trkpt>
      <trkpt lat="40.584404" lon="-5.658107">
        <ele>957.508</ele>
        <time>2021-10-13T13:58:32Z</time>
      </trkpt>
      <trkpt lat="40.584742" lon="-5.657610">
        <ele>958.408</ele>
        <time>2021-10-13T13:58:34Z</time>
      </trkpt>
      <trkpt lat="40.584897" lon="-5.657329">
        <ele>959.273</ele>
        <time>2021-10-13T13:58:35Z</time>
      </trkpt>
      <trkpt lat="40.585044" lon="-5.657059">
        <ele>959.591</ele>
        <time>2021-10-13T13:58:36Z</time>
      </trkpt>
      <trkpt lat="40.585190" lon="-5.656797">
        <ele>959.418</ele>
        <time>2021-10-13T13:58:37Z</time>
      </trkpt>
      <trkpt lat="40.585327" lon="-5.656554">
        <ele>959.488</ele>
        <time>2021-10-13T13:58:38Z</time>
      </trkpt>
      <trkpt lat="40.585574" lon="-5.656118">
        <ele>959.381</ele>
        <time>2021-10-13T13:58:40Z</time>
      </trkpt>
      <trkpt lat="40.585831" lon="-5.655670">
        <ele>957.847</ele>
        <time>2021-10-13T13:58:42Z</time>
      </trkpt>
      <trkpt lat="40.586126" lon="-5.655214">
        <ele>956.096</ele>
        <time>2021-10-13T13:58:44Z</time>
      </trkpt>
      <trkpt lat="40.586474" lon="-5.654803">
        <ele>954.451</ele>
        <time>2021-10-13T13:58:46Z</time>
      </trkpt>
      <trkpt lat="40.586683" lon="-5.654617">
        <ele>953.838</ele>
        <time>2021-10-13T13:58:47Z</time>
      </trkpt>
      <trkpt lat="40.587140" lon="-5.654303">
        <ele>952.870</ele>
        <time>2021-10-13T13:58:49Z</time>
      </trkpt>
      <trkpt lat="40.587392" lon="-5.654146">
        <ele>953.117</ele>
        <time>2021-10-13T13:58:50Z</time>
      </trkpt>
      <trkpt lat="40.587869" lon="-5.653843">
        <ele>952.708</ele>
        <time>2021-10-13T13:58:52Z</time>
      </trkpt>
      <trkpt lat="40.588361" lon="-5.653509">
        <ele>952.981</ele>
        <time>2021-10-13T13:58:54Z</time>
      </trkpt>
      <trkpt lat="40.588610" lon="-5.653332">
        <ele>953.559</ele>
        <time>2021-10-13T13:58:55Z</time>
      </trkpt>
      <trkpt lat="40.588872" lon="-5.653139">
        <ele>953.676</ele>
        <time>2021-10-13T13:58:56Z</time>
      </trkpt>
      <trkpt lat="40.589360" lon="-5.652771">
        <ele>955.386</ele>
        <time>2021-10-13T13:58:58Z</time>
      </trkpt>
      <trkpt lat="40.589610" lon="-5.652581">
        <ele>956.439</ele>
        <time>2021-10-13T13:58:59Z</time>
      </trkpt>
      <trkpt lat="40.590100" lon="-5.652199">
        <ele>959.395</ele>
        <time>2021-10-13T13:59:01Z</time>
      </trkpt>
      <trkpt lat="40.590358" lon="-5.652001">
        <ele>960.794</ele>
        <time>2021-10-13T13:59:02Z</time>
      </trkpt>
      <trkpt lat="40.590849" lon="-5.651633">
        <ele>963.199</ele>
        <time>2021-10-13T13:59:04Z</time>
      </trkpt>
      <trkpt lat="40.591347" lon="-5.651254">
        <ele>963.828</ele>
        <time>2021-10-13T13:59:06Z</time>
      </trkpt>
      <trkpt lat="40.591598" lon="-5.651064">
        <ele>964.389</ele>
        <time>2021-10-13T13:59:07Z</time>
      </trkpt>
      <trkpt lat="40.591857" lon="-5.650869">
        <ele>964.117</ele>
        <time>2021-10-13T13:59:08Z</time>
      </trkpt>
      <trkpt lat="40.592353" lon="-5.650494">
        <ele>963.008</ele>
        <time>2021-10-13T13:59:10Z</time>
      </trkpt>
      <trkpt lat="40.592610" lon="-5.650300">
        <ele>962.360</ele>
        <time>2021-10-13T13:59:11Z</time>
      </trkpt>
      <trkpt lat="40.592869" lon="-5.650110">
        <ele>961.988</ele>
        <time>2021-10-13T13:59:12Z</time>
      </trkpt>
      <trkpt lat="40.593402" lon="-5.649717">
        <ele>960.115</ele>
        <time>2021-10-13T13:59:14Z</time>
      </trkpt>
      <trkpt lat="40.593921" lon="-5.649323">
        <ele>958.275</ele>
        <time>2021-10-13T13:59:16Z</time>
      </trkpt>
      <trkpt lat="40.594457" lon="-5.648911">
        <ele>955.758</ele>
        <time>2021-10-13T13:59:18Z</time>
      </trkpt>
      <trkpt lat="40.594729" lon="-5.648711">
        <ele>955.184</ele>
        <time>2021-10-13T13:59:19Z</time>
      </trkpt>
      <trkpt lat="40.595009" lon="-5.648504">
        <ele>954.843</ele>
        <time>2021-10-13T13:59:20Z</time>
      </trkpt>
      <trkpt lat="40.595521" lon="-5.648113">
        <ele>953.498</ele>
        <time>2021-10-13T13:59:22Z</time>
      </trkpt>
      <trkpt lat="40.595786" lon="-5.647912">
        <ele>953.618</ele>
        <time>2021-10-13T13:59:23Z</time>
      </trkpt>
      <trkpt lat="40.596048" lon="-5.647714">
        <ele>953.498</ele>
        <time>2021-10-13T13:59:24Z</time>
      </trkpt>
      <trkpt lat="40.596590" lon="-5.647305">
        <ele>953.217</ele>
        <time>2021-10-13T13:59:26Z</time>
      </trkpt>
      <trkpt lat="40.597119" lon="-5.646895">
        <ele>952.708</ele>
        <time>2021-10-13T13:59:28Z</time>
      </trkpt>
      <trkpt lat="40.597393" lon="-5.646683">
        <ele>952.669</ele>
        <time>2021-10-13T13:59:29Z</time>
      </trkpt>
      <trkpt lat="40.597671" lon="-5.646476">
        <ele>952.577</ele>
        <time>2021-10-13T13:59:30Z</time>
      </trkpt>
      <trkpt lat="40.598243" lon="-5.646050">
        <ele>951.224</ele>
        <time>2021-10-13T13:59:32Z</time>
      </trkpt>
      <trkpt lat="40.598792" lon="-5.645642">
        <ele>950.084</ele>
        <time>2021-10-13T13:59:34Z</time>
      </trkpt>
      <trkpt lat="40.599074" lon="-5.645431">
        <ele>949.387</ele>
        <time>2021-10-13T13:59:35Z</time>
      </trkpt>
      <trkpt lat="40.599632" lon="-5.645014">
        <ele>948.463</ele>
        <time>2021-10-13T13:59:37Z</time>
      </trkpt>
      <trkpt lat="40.599908" lon="-5.644809">
        <ele>948.782</ele>
        <time>2021-10-13T13:59:38Z</time>
      </trkpt>
      <trkpt lat="40.600182" lon="-5.644612">
        <ele>948.617</ele>
        <time>2021-10-13T13:59:39Z</time>
      </trkpt>
      <trkpt lat="40.600451" lon="-5.644416">
        <ele>949.058</ele>
        <time>2021-10-13T13:59:40Z</time>
      </trkpt>
      <trkpt lat="40.600977" lon="-5.644023">
        <ele>950.052</ele>
        <time>2021-10-13T13:59:42Z</time>
      </trkpt>
      <trkpt lat="40.601502" lon="-5.643628">
        <ele>949.917</ele>
        <time>2021-10-13T13:59:44Z</time>
      </trkpt>
      <trkpt lat="40.601761" lon="-5.643431">
        <ele>950.208</ele>
        <time>2021-10-13T13:59:45Z</time>
      </trkpt>
      <trkpt lat="40.602287" lon="-5.643045">
        <ele>950.753</ele>
        <time>2021-10-13T13:59:47Z</time>
      </trkpt>
      <trkpt lat="40.602549" lon="-5.642852">
        <ele>950.471</ele>
        <time>2021-10-13T13:59:48Z</time>
      </trkpt>
      <trkpt lat="40.603068" lon="-5.642469">
        <ele>948.318</ele>
        <time>2021-10-13T13:59:50Z</time>
      </trkpt>
      <trkpt lat="40.603332" lon="-5.642273">
        <ele>946.828</ele>
        <time>2021-10-13T13:59:51Z</time>
      </trkpt>
      <trkpt lat="40.603597" lon="-5.642076">
        <ele>945.021</ele>
        <time>2021-10-13T13:59:52Z</time>
      </trkpt>
      <trkpt lat="40.603864" lon="-5.641871">
        <ele>943.287</ele>
        <time>2021-10-13T13:59:53Z</time>
      </trkpt>
      <trkpt lat="40.604396" lon="-5.641470">
        <ele>939.286</ele>
        <time>2021-10-13T13:59:55Z</time>
      </trkpt>
      <trkpt lat="40.604681" lon="-5.641258">
        <ele>937.971</ele>
        <time>2021-10-13T13:59:56Z</time>
      </trkpt>
      <trkpt lat="40.605210" lon="-5.640863">
        <ele>934.473</ele>
        <time>2021-10-13T13:59:58Z</time>
      </trkpt>
      <trkpt lat="40.605484" lon="-5.640665">
        <ele>933.085</ele>
        <time>2021-10-13T13:59:59Z</time>
      </trkpt>
      <trkpt lat="40.606023" lon="-5.640271">
        <ele>932.613</ele>
        <time>2021-10-13T14:00:01Z</time>
      </trkpt>
      <trkpt lat="40.606296" lon="-5.640070">
        <ele>932.508</ele>
        <time>2021-10-13T14:00:02Z</time>
      </trkpt>
      <trkpt lat="40.606801" lon="-5.639697">
        <ele>933.085</ele>
        <time>2021-10-13T14:00:04Z</time>
      </trkpt>
      <trkpt lat="40.607309" lon="-5.639324">
        <ele>932.723</ele>
        <time>2021-10-13T14:00:06Z</time>
      </trkpt>
      <trkpt lat="40.607564" lon="-5.639138">
        <ele>932.780</ele>
        <time>2021-10-13T14:00:07Z</time>
      </trkpt>
      <trkpt lat="40.608059" lon="-5.638768">
        <ele>931.610</ele>
        <time>2021-10-13T14:00:09Z</time>
      </trkpt>
      <trkpt lat="40.608306" lon="-5.638580">
        <ele>931.063</ele>
        <time>2021-10-13T14:00:10Z</time>
      </trkpt>
      <trkpt lat="40.608550" lon="-5.638395">
        <ele>930.219</ele>
        <time>2021-10-13T14:00:11Z</time>
      </trkpt>
      <trkpt lat="40.608796" lon="-5.638215">
        <ele>929.628</ele>
        <time>2021-10-13T14:00:12Z</time>
      </trkpt>
      <trkpt lat="40.609284" lon="-5.637857">
        <ele>929.113</ele>
        <time>2021-10-13T14:00:14Z</time>
      </trkpt>
      <trkpt lat="40.609528" lon="-5.637676">
        <ele>929.071</ele>
        <time>2021-10-13T14:00:15Z</time>
      </trkpt>
      <trkpt lat="40.610008" lon="-5.637321">
        <ele>928.341</ele>
        <time>2021-10-13T14:00:17Z</time>
      </trkpt>
      <trkpt lat="40.610476" lon="-5.636974">
        <ele>928.415</ele>
        <time>2021-10-13T14:00:19Z</time>
      </trkpt>
      <trkpt lat="40.610711" lon="-5.636799">
        <ele>928.108</ele>
        <time>2021-10-13T14:00:20Z</time>
      </trkpt>
      <trkpt lat="40.610950" lon="-5.636625">
        <ele>927.935</ele>
        <time>2021-10-13T14:00:21Z</time>
      </trkpt>
      <trkpt lat="40.611191" lon="-5.636443">
        <ele>928.273</ele>
        <time>2021-10-13T14:00:22Z</time>
      </trkpt>
      <trkpt lat="40.611434" lon="-5.636260">
        <ele>928.690</ele>
        <time>2021-10-13T14:00:23Z</time>
      </trkpt>
      <trkpt lat="40.611926" lon="-5.635890">
        <ele>928.420</ele>
        <time>2021-10-13T14:00:25Z</time>
      </trkpt>
      <trkpt lat="40.612182" lon="-5.635693">
        <ele>928.563</ele>
        <time>2021-10-13T14:00:26Z</time>
      </trkpt>
      <trkpt lat="40.612664" lon="-5.635327">
        <ele>928.469</ele>
        <time>2021-10-13T14:00:28Z</time>
      </trkpt>
      <trkpt lat="40.612913" lon="-5.635139">
        <ele>928.198</ele>
        <time>2021-10-13T14:00:29Z</time>
      </trkpt>
      <trkpt lat="40.613413" lon="-5.634756">
        <ele>927.563</ele>
        <time>2021-10-13T14:00:31Z</time>
      </trkpt>
      <trkpt lat="40.613676" lon="-5.634559">
        <ele>927.367</ele>
        <time>2021-10-13T14:00:32Z</time>
      </trkpt>
      <trkpt lat="40.614170" lon="-5.634191">
        <ele>927.981</ele>
        <time>2021-10-13T14:00:34Z</time>
      </trkpt>
      <trkpt lat="40.614423" lon="-5.634004">
        <ele>928.119</ele>
        <time>2021-10-13T14:00:35Z</time>
      </trkpt>
      <trkpt lat="40.614921" lon="-5.633647">
        <ele>928.808</ele>
        <time>2021-10-13T14:00:37Z</time>
      </trkpt>
      <trkpt lat="40.615165" lon="-5.633471">
        <ele>930.064</ele>
        <time>2021-10-13T14:00:38Z</time>
      </trkpt>
      <trkpt lat="40.615403" lon="-5.633298">
        <ele>931.272</ele>
        <time>2021-10-13T14:00:39Z</time>
      </trkpt>
      <trkpt lat="40.615866" lon="-5.632959">
        <ele>933.979</ele>
        <time>2021-10-13T14:00:41Z</time>
      </trkpt>
      <trkpt lat="40.616338" lon="-5.632619">
        <ele>936.499</ele>
        <time>2021-10-13T14:00:43Z</time>
      </trkpt>
      <trkpt lat="40.616827" lon="-5.632303">
        <ele>939.372</ele>
        <time>2021-10-13T14:00:45Z</time>
      </trkpt>
      <trkpt lat="40.617328" lon="-5.631978">
        <ele>942.498</ele>
        <time>2021-10-13T14:00:47Z</time>
      </trkpt>
      <trkpt lat="40.617593" lon="-5.631808">
        <ele>944.137</ele>
        <time>2021-10-13T14:00:48Z</time>
      </trkpt>
      <trkpt lat="40.618109" lon="-5.631492">
        <ele>947.452</ele>
        <time>2021-10-13T14:00:50Z</time>
      </trkpt>
      <trkpt lat="40.618373" lon="-5.631338">
        <ele>948.532</ele>
        <time>2021-10-13T14:00:51Z</time>
      </trkpt>
      <trkpt lat="40.618881" lon="-5.631048">
        <ele>949.792</ele>
        <time>2021-10-13T14:00:53Z</time>
      </trkpt>
      <trkpt lat="40.619127" lon="-5.630914">
        <ele>950.511</ele>
        <time>2021-10-13T14:00:54Z</time>
      </trkpt>
      <trkpt lat="40.619369" lon="-5.630780">
        <ele>951.408</ele>
        <time>2021-10-13T14:00:55Z</time>
      </trkpt>
      <trkpt lat="40.619613" lon="-5.630644">
        <ele>952.431</ele>
        <time>2021-10-13T14:00:56Z</time>
      </trkpt>
      <trkpt lat="40.620073" lon="-5.630393">
        <ele>953.739</ele>
        <time>2021-10-13T14:00:58Z</time>
      </trkpt>
      <trkpt lat="40.620309" lon="-5.630257">
        <ele>954.866</ele>
        <time>2021-10-13T14:00:59Z</time>
      </trkpt>
      <trkpt lat="40.620547" lon="-5.630119">
        <ele>955.586</ele>
        <time>2021-10-13T14:01:00Z</time>
      </trkpt>
      <trkpt lat="40.620786" lon="-5.629980">
        <ele>956.929</ele>
        <time>2021-10-13T14:01:01Z</time>
      </trkpt>
      <trkpt lat="40.621039" lon="-5.629833">
        <ele>957.425</ele>
        <time>2021-10-13T14:01:02Z</time>
      </trkpt>
      <trkpt lat="40.621508" lon="-5.629573">
        <ele>958.864</ele>
        <time>2021-10-13T14:01:04Z</time>
      </trkpt>
      <trkpt lat="40.621750" lon="-5.629441">
        <ele>959.119</ele>
        <time>2021-10-13T14:01:05Z</time>
      </trkpt>
      <trkpt lat="40.621993" lon="-5.629322">
        <ele>959.387</ele>
        <time>2021-10-13T14:01:06Z</time>
      </trkpt>
      <trkpt lat="40.622483" lon="-5.629126">
        <ele>958.542</ele>
        <time>2021-10-13T14:01:08Z</time>
      </trkpt>
      <trkpt lat="40.622984" lon="-5.629027">
        <ele>957.226</ele>
        <time>2021-10-13T14:01:10Z</time>
      </trkpt>
      <trkpt lat="40.623244" lon="-5.629012">
        <ele>955.808</ele>
        <time>2021-10-13T14:01:11Z</time>
      </trkpt>
      <trkpt lat="40.623767" lon="-5.629011">
        <ele>954.046</ele>
        <time>2021-10-13T14:01:13Z</time>
      </trkpt>
      <trkpt lat="40.624040" lon="-5.629006">
        <ele>952.864</ele>
        <time>2021-10-13T14:01:14Z</time>
      </trkpt>
      <trkpt lat="40.624594" lon="-5.628981">
        <ele>950.971</ele>
        <time>2021-10-13T14:01:16Z</time>
      </trkpt>
      <trkpt lat="40.624878" lon="-5.628969">
        <ele>950.091</ele>
        <time>2021-10-13T14:01:17Z</time>
      </trkpt>
      <trkpt lat="40.625161" lon="-5.628957">
        <ele>948.654</ele>
        <time>2021-10-13T14:01:18Z</time>
      </trkpt>
      <trkpt lat="40.625729" lon="-5.628943">
        <ele>945.820</ele>
        <time>2021-10-13T14:01:20Z</time>
      </trkpt>
      <trkpt lat="40.626283" lon="-5.628919">
        <ele>944.269</ele>
        <time>2021-10-13T14:01:22Z</time>
      </trkpt>
      <trkpt lat="40.626548" lon="-5.628904">
        <ele>944.384</ele>
        <time>2021-10-13T14:01:23Z</time>
      </trkpt>
      <trkpt lat="40.627051" lon="-5.628875">
        <ele>943.457</ele>
        <time>2021-10-13T14:01:25Z</time>
      </trkpt>
      <trkpt lat="40.627312" lon="-5.628862">
        <ele>942.900</ele>
        <time>2021-10-13T14:01:26Z</time>
      </trkpt>
      <trkpt lat="40.627788" lon="-5.628846">
        <ele>941.520</ele>
        <time>2021-10-13T14:01:28Z</time>
      </trkpt>
      <trkpt lat="40.628032" lon="-5.628832">
        <ele>941.408</ele>
        <time>2021-10-13T14:01:29Z</time>
      </trkpt>
      <trkpt lat="40.628273" lon="-5.628817">
        <ele>941.123</ele>
        <time>2021-10-13T14:01:30Z</time>
      </trkpt>
      <trkpt lat="40.628764" lon="-5.628789">
        <ele>940.451</ele>
        <time>2021-10-13T14:01:32Z</time>
      </trkpt>
      <trkpt lat="40.629221" lon="-5.628767">
        <ele>939.378</ele>
        <time>2021-10-13T14:01:34Z</time>
      </trkpt>
      <trkpt lat="40.629671" lon="-5.628749">
        <ele>938.278</ele>
        <time>2021-10-13T14:01:36Z</time>
      </trkpt>
      <trkpt lat="40.630067" lon="-5.628732">
        <ele>937.361</ele>
        <time>2021-10-13T14:01:38Z</time>
      </trkpt>
      <trkpt lat="40.630257" lon="-5.628723">
        <ele>937.027</ele>
        <time>2021-10-13T14:01:39Z</time>
      </trkpt>
      <trkpt lat="40.630627" lon="-5.628713">
        <ele>936.526</ele>
        <time>2021-10-13T14:01:41Z</time>
      </trkpt>
      <trkpt lat="40.631013" lon="-5.628693">
        <ele>935.211</ele>
        <time>2021-10-13T14:01:43Z</time>
      </trkpt>
      <trkpt lat="40.631200" lon="-5.628680">
        <ele>935.362</ele>
        <time>2021-10-13T14:01:44Z</time>
      </trkpt>
      <trkpt lat="40.631528" lon="-5.628656">
        <ele>934.883</ele>
        <time>2021-10-13T14:01:46Z</time>
      </trkpt>
      <trkpt lat="40.631675" lon="-5.628648">
        <ele>934.711</ele>
        <time>2021-10-13T14:01:47Z</time>
      </trkpt>
      <trkpt lat="40.631916" lon="-5.628614">
        <ele>933.808</ele>
        <time>2021-10-13T14:01:49Z</time>
      </trkpt>
      <trkpt lat="40.632091" lon="-5.628496">
        <ele>933.744</ele>
        <time>2021-10-13T14:01:51Z</time>
      </trkpt>
      <trkpt lat="40.632164" lon="-5.628417">
        <ele>933.392</ele>
        <time>2021-10-13T14:01:52Z</time>
      </trkpt>
      <trkpt lat="40.632323" lon="-5.628348">
        <ele>933.949</ele>
        <time>2021-10-13T14:01:54Z</time>
      </trkpt>
      <trkpt lat="40.632523" lon="-5.628443">
        <ele>934.569</ele>
        <time>2021-10-13T14:01:56Z</time>
      </trkpt>
      <trkpt lat="40.632748" lon="-5.628595">
        <ele>934.452</ele>
        <time>2021-10-13T14:01:58Z</time>
      </trkpt>
      <trkpt lat="40.633077" lon="-5.628627">
        <ele>933.838</ele>
        <time>2021-10-13T14:02:00Z</time>
      </trkpt>
      <trkpt lat="40.633275" lon="-5.628614">
        <ele>934.427</ele>
        <time>2021-10-13T14:02:01Z</time>
      </trkpt>
      <trkpt lat="40.633499" lon="-5.628597">
        <ele>934.452</ele>
        <time>2021-10-13T14:02:02Z</time>
      </trkpt>
      <trkpt lat="40.633961" lon="-5.628565">
        <ele>934.619</ele>
        <time>2021-10-13T14:02:04Z</time>
      </trkpt>
      <trkpt lat="40.634219" lon="-5.628546">
        <ele>934.009</ele>
        <time>2021-10-13T14:02:05Z</time>
      </trkpt>
      <trkpt lat="40.634482" lon="-5.628527">
        <ele>934.619</ele>
        <time>2021-10-13T14:02:06Z</time>
      </trkpt>
      <trkpt lat="40.635024" lon="-5.628499">
        <ele>935.808</ele>
        <time>2021-10-13T14:02:08Z</time>
      </trkpt>
      <trkpt lat="40.635303" lon="-5.628492">
        <ele>935.769</ele>
        <time>2021-10-13T14:02:09Z</time>
      </trkpt>
      <trkpt lat="40.635872" lon="-5.628505">
        <ele>935.827</ele>
        <time>2021-10-13T14:02:11Z</time>
      </trkpt>
      <trkpt lat="40.636161" lon="-5.628529">
        <ele>935.844</ele>
        <time>2021-10-13T14:02:12Z</time>
      </trkpt>
      <trkpt lat="40.636460" lon="-5.628568">
        <ele>936.024</ele>
        <time>2021-10-13T14:02:13Z</time>
      </trkpt>
      <trkpt lat="40.637085" lon="-5.628682">
        <ele>935.787</ele>
        <time>2021-10-13T14:02:15Z</time>
      </trkpt>
      <trkpt lat="40.637698" lon="-5.628808">
        <ele>935.253</ele>
        <time>2021-10-13T14:02:17Z</time>
      </trkpt>
      <trkpt lat="40.638022" lon="-5.628867">
        <ele>934.352</ele>
        <time>2021-10-13T14:02:18Z</time>
      </trkpt>
      <trkpt lat="40.638656" lon="-5.628956">
        <ele>933.177</ele>
        <time>2021-10-13T14:02:20Z</time>
      </trkpt>
      <trkpt lat="40.638980" lon="-5.628982">
        <ele>931.921</ele>
        <time>2021-10-13T14:02:21Z</time>
      </trkpt>
      <trkpt lat="40.639300" lon="-5.628991">
        <ele>930.441</ele>
        <time>2021-10-13T14:02:22Z</time>
      </trkpt>
      <trkpt lat="40.639625" lon="-5.628985">
        <ele>929.105</ele>
        <time>2021-10-13T14:02:23Z</time>
      </trkpt>
      <trkpt lat="40.640272" lon="-5.628941">
        <ele>928.308</ele>
        <time>2021-10-13T14:02:25Z</time>
      </trkpt>
      <trkpt lat="40.640614" lon="-5.628912">
        <ele>927.050</ele>
        <time>2021-10-13T14:02:26Z</time>
      </trkpt>
      <trkpt lat="40.641245" lon="-5.628859">
        <ele>923.828</ele>
        <time>2021-10-13T14:02:28Z</time>
      </trkpt>
      <trkpt lat="40.641570" lon="-5.628835">
        <ele>923.395</ele>
        <time>2021-10-13T14:02:29Z</time>
      </trkpt>
      <trkpt lat="40.642211" lon="-5.628789">
        <ele>922.275</ele>
        <time>2021-10-13T14:02:31Z</time>
      </trkpt>
      <trkpt lat="40.642537" lon="-5.628765">
        <ele>921.288</ele>
        <time>2021-10-13T14:02:32Z</time>
      </trkpt>
      <trkpt lat="40.643141" lon="-5.628719">
        <ele>920.984</ele>
        <time>2021-10-13T14:02:34Z</time>
      </trkpt>
      <trkpt lat="40.643448" lon="-5.628694">
        <ele>920.283</ele>
        <time>2021-10-13T14:02:35Z</time>
      </trkpt>
      <trkpt lat="40.643755" lon="-5.628669">
        <ele>919.758</ele>
        <time>2021-10-13T14:02:36Z</time>
      </trkpt>
      <trkpt lat="40.644059" lon="-5.628645">
        <ele>919.027</ele>
        <time>2021-10-13T14:02:37Z</time>
      </trkpt>
      <trkpt lat="40.644667" lon="-5.628599">
        <ele>917.768</ele>
        <time>2021-10-13T14:02:39Z</time>
      </trkpt>
      <trkpt lat="40.644970" lon="-5.628576">
        <ele>916.514</ele>
        <time>2021-10-13T14:02:40Z</time>
      </trkpt>
      <trkpt lat="40.645573" lon="-5.628537">
        <ele>915.408</ele>
        <time>2021-10-13T14:02:42Z</time>
      </trkpt>
      <trkpt lat="40.645874" lon="-5.628521">
        <ele>914.950</ele>
        <time>2021-10-13T14:02:43Z</time>
      </trkpt>
      <trkpt lat="40.646468" lon="-5.628488">
        <ele>914.498</ele>
        <time>2021-10-13T14:02:45Z</time>
      </trkpt>
      <trkpt lat="40.647046" lon="-5.628444">
        <ele>914.395</ele>
        <time>2021-10-13T14:02:47Z</time>
      </trkpt>
      <trkpt lat="40.647336" lon="-5.628420">
        <ele>914.645</ele>
        <time>2021-10-13T14:02:48Z</time>
      </trkpt>
      <trkpt lat="40.647617" lon="-5.628391">
        <ele>915.628</ele>
        <time>2021-10-13T14:02:49Z</time>
      </trkpt>
      <trkpt lat="40.647900" lon="-5.628362">
        <ele>916.424</ele>
        <time>2021-10-13T14:02:50Z</time>
      </trkpt>
      <trkpt lat="40.648186" lon="-5.628339">
        <ele>917.033</ele>
        <time>2021-10-13T14:02:51Z</time>
      </trkpt>
      <trkpt lat="40.648764" lon="-5.628272">
        <ele>917.528</ele>
        <time>2021-10-13T14:02:53Z</time>
      </trkpt>
      <trkpt lat="40.649376" lon="-5.628180">
        <ele>917.933</ele>
        <time>2021-10-13T14:02:55Z</time>
      </trkpt>
      <trkpt lat="40.649691" lon="-5.628125">
        <ele>917.523</ele>
        <time>2021-10-13T14:02:56Z</time>
      </trkpt>
      <trkpt lat="40.650234" lon="-5.628028">
        <ele>916.915</ele>
        <time>2021-10-13T14:02:58Z</time>
      </trkpt>
      <trkpt lat="40.650770" lon="-5.627936">
        <ele>916.108</ele>
        <time>2021-10-13T14:03:00Z</time>
      </trkpt>
      <trkpt lat="40.651318" lon="-5.627874">
        <ele>915.151</ele>
        <time>2021-10-13T14:03:02Z</time>
      </trkpt>
      <trkpt lat="40.651840" lon="-5.627902">
        <ele>915.049</ele>
        <time>2021-10-13T14:03:04Z</time>
      </trkpt>
      <trkpt lat="40.652107" lon="-5.627959">
        <ele>915.216</ele>
        <time>2021-10-13T14:03:05Z</time>
      </trkpt>
      <trkpt lat="40.652369" lon="-5.628050">
        <ele>916.266</ele>
        <time>2021-10-13T14:03:06Z</time>
      </trkpt>
      <trkpt lat="40.652873" lon="-5.628283">
        <ele>915.939</ele>
        <time>2021-10-13T14:03:08Z</time>
      </trkpt>
      <trkpt lat="40.653123" lon="-5.628390">
        <ele>915.395</ele>
        <time>2021-10-13T14:03:09Z</time>
      </trkpt>
      <trkpt lat="40.653627" lon="-5.628586">
        <ele>914.724</ele>
        <time>2021-10-13T14:03:11Z</time>
      </trkpt>
      <trkpt lat="40.654150" lon="-5.628738">
        <ele>912.939</ele>
        <time>2021-10-13T14:03:13Z</time>
      </trkpt>
      <trkpt lat="40.654420" lon="-5.628773">
        <ele>912.814</ele>
        <time>2021-10-13T14:03:14Z</time>
      </trkpt>
      <trkpt lat="40.654691" lon="-5.628772">
        <ele>912.554</ele>
        <time>2021-10-13T14:03:15Z</time>
      </trkpt>
      <trkpt lat="40.655239" lon="-5.628638">
        <ele>910.409</ele>
        <time>2021-10-13T14:03:17Z</time>
      </trkpt>
      <trkpt lat="40.655508" lon="-5.628494">
        <ele>909.208</ele>
        <time>2021-10-13T14:03:18Z</time>
      </trkpt>
      <trkpt lat="40.656003" lon="-5.628067">
        <ele>907.999</ele>
        <time>2021-10-13T14:03:20Z</time>
      </trkpt>
      <trkpt lat="40.656228" lon="-5.627786">
        <ele>907.777</ele>
        <time>2021-10-13T14:03:21Z</time>
      </trkpt>
      <trkpt lat="40.656668" lon="-5.627234">
        <ele>906.794</ele>
        <time>2021-10-13T14:03:23Z</time>
      </trkpt>
      <trkpt lat="40.657160" lon="-5.626791">
        <ele>905.514</ele>
        <time>2021-10-13T14:03:25Z</time>
      </trkpt>
      <trkpt lat="40.657434" lon="-5.626611">
        <ele>904.767</ele>
        <time>2021-10-13T14:03:26Z</time>
      </trkpt>
      <trkpt lat="40.657983" lon="-5.626321">
        <ele>903.193</ele>
        <time>2021-10-13T14:03:28Z</time>
      </trkpt>
      <trkpt lat="40.658275" lon="-5.626181">
        <ele>902.692</ele>
        <time>2021-10-13T14:03:29Z</time>
      </trkpt>
      <trkpt lat="40.658567" lon="-5.626039">
        <ele>901.497</ele>
        <time>2021-10-13T14:03:30Z</time>
      </trkpt>
      <trkpt lat="40.658860" lon="-5.625896">
        <ele>900.038</ele>
        <time>2021-10-13T14:03:31Z</time>
      </trkpt>
      <trkpt lat="40.659164" lon="-5.625754">
        <ele>899.870</ele>
        <time>2021-10-13T14:03:32Z</time>
      </trkpt>
      <trkpt lat="40.659731" lon="-5.625496">
        <ele>899.317</ele>
        <time>2021-10-13T14:03:34Z</time>
      </trkpt>
      <trkpt lat="40.660020" lon="-5.625362">
        <ele>899.208</ele>
        <time>2021-10-13T14:03:35Z</time>
      </trkpt>
      <trkpt lat="40.660581" lon="-5.625082">
        <ele>897.991</ele>
        <time>2021-10-13T14:03:37Z</time>
      </trkpt>
      <trkpt lat="40.661152" lon="-5.624794">
        <ele>897.729</ele>
        <time>2021-10-13T14:03:39Z</time>
      </trkpt>
      <trkpt lat="40.661728" lon="-5.624514">
        <ele>896.866</ele>
        <time>2021-10-13T14:03:41Z</time>
      </trkpt>
      <trkpt lat="40.662309" lon="-5.624227">
        <ele>896.696</ele>
        <time>2021-10-13T14:03:43Z</time>
      </trkpt>
      <trkpt lat="40.662895" lon="-5.623934">
        <ele>895.539</ele>
        <time>2021-10-13T14:03:45Z</time>
      </trkpt>
      <trkpt lat="40.663183" lon="-5.623792">
        <ele>895.795</ele>
        <time>2021-10-13T14:03:46Z</time>
      </trkpt>
      <trkpt lat="40.663742" lon="-5.623517">
        <ele>895.054</ele>
        <time>2021-10-13T14:03:48Z</time>
      </trkpt>
      <trkpt lat="40.664269" lon="-5.623260">
        <ele>894.269</ele>
        <time>2021-10-13T14:03:50Z</time>
      </trkpt>
      <trkpt lat="40.664772" lon="-5.623028">
        <ele>893.468</ele>
        <time>2021-10-13T14:03:52Z</time>
      </trkpt>
      <trkpt lat="40.665020" lon="-5.622915">
        <ele>892.942</ele>
        <time>2021-10-13T14:03:53Z</time>
      </trkpt>
      <trkpt lat="40.665504" lon="-5.622690">
        <ele>892.226</ele>
        <time>2021-10-13T14:03:55Z</time>
      </trkpt>
      <trkpt lat="40.665748" lon="-5.622570">
        <ele>892.208</ele>
        <time>2021-10-13T14:03:56Z</time>
      </trkpt>
      <trkpt lat="40.666189" lon="-5.622348">
        <ele>891.724</ele>
        <time>2021-10-13T14:03:58Z</time>
      </trkpt>
      <trkpt lat="40.666419" lon="-5.622231">
        <ele>891.232</ele>
        <time>2021-10-13T14:03:59Z</time>
      </trkpt>
      <trkpt lat="40.666896" lon="-5.621995">
        <ele>890.369</ele>
        <time>2021-10-13T14:04:01Z</time>
      </trkpt>
      <trkpt lat="40.667160" lon="-5.621872">
        <ele>890.159</ele>
        <time>2021-10-13T14:04:02Z</time>
      </trkpt>
      <trkpt lat="40.667646" lon="-5.621637">
        <ele>889.852</ele>
        <time>2021-10-13T14:04:04Z</time>
      </trkpt>
      <trkpt lat="40.667904" lon="-5.621511">
        <ele>889.778</ele>
        <time>2021-10-13T14:04:05Z</time>
      </trkpt>
      <trkpt lat="40.668409" lon="-5.621263">
        <ele>888.967</ele>
        <time>2021-10-13T14:04:07Z</time>
      </trkpt>
      <trkpt lat="40.668922" lon="-5.621011">
        <ele>888.992</ele>
        <time>2021-10-13T14:04:09Z</time>
      </trkpt>
      <trkpt lat="40.669182" lon="-5.620883">
        <ele>888.992</ele>
        <time>2021-10-13T14:04:10Z</time>
      </trkpt>
      <trkpt lat="40.669711" lon="-5.620631">
        <ele>888.073</ele>
        <time>2021-10-13T14:04:12Z</time>
      </trkpt>
      <trkpt lat="40.670250" lon="-5.620377">
        <ele>888.520</ele>
        <time>2021-10-13T14:04:14Z</time>
      </trkpt>
      <trkpt lat="40.670793" lon="-5.620109">
        <ele>887.708</ele>
        <time>2021-10-13T14:04:16Z</time>
      </trkpt>
      <trkpt lat="40.671070" lon="-5.619970">
        <ele>887.827</ele>
        <time>2021-10-13T14:04:17Z</time>
      </trkpt>
      <trkpt lat="40.671621" lon="-5.619696">
        <ele>887.785</ele>
        <time>2021-10-13T14:04:19Z</time>
      </trkpt>
      <trkpt lat="40.671895" lon="-5.619560">
        <ele>887.132</ele>
        <time>2021-10-13T14:04:20Z</time>
      </trkpt>
      <trkpt lat="40.672435" lon="-5.619289">
        <ele>887.342</ele>
        <time>2021-10-13T14:04:22Z</time>
      </trkpt>
      <trkpt lat="40.672982" lon="-5.619099">
        <ele>886.825</ele>
        <time>2021-10-13T14:04:24Z</time>
      </trkpt>
      <trkpt lat="40.673263" lon="-5.619054">
        <ele>885.881</ele>
        <time>2021-10-13T14:04:25Z</time>
      </trkpt>
      <trkpt lat="40.673559" lon="-5.619053">
        <ele>884.460</ele>
        <time>2021-10-13T14:04:26Z</time>
      </trkpt>
      <trkpt lat="40.674087" lon="-5.619156">
        <ele>881.885</ele>
        <time>2021-10-13T14:04:28Z</time>
      </trkpt>
      <trkpt lat="40.674354" lon="-5.619245">
        <ele>880.182</ele>
        <time>2021-10-13T14:04:29Z</time>
      </trkpt>
      <trkpt lat="40.674622" lon="-5.619334">
        <ele>878.043</ele>
        <time>2021-10-13T14:04:30Z</time>
      </trkpt>
      <trkpt lat="40.674886" lon="-5.619417">
        <ele>876.017</ele>
        <time>2021-10-13T14:04:31Z</time>
      </trkpt>
      <trkpt lat="40.675150" lon="-5.619493">
        <ele>874.108</ele>
        <time>2021-10-13T14:04:32Z</time>
      </trkpt>
      <trkpt lat="40.675641" lon="-5.619626">
        <ele>870.136</ele>
        <time>2021-10-13T14:04:34Z</time>
      </trkpt>
      <trkpt lat="40.675899" lon="-5.619694">
        <ele>868.394</ele>
        <time>2021-10-13T14:04:35Z</time>
      </trkpt>
      <trkpt lat="40.676154" lon="-5.619766">
        <ele>866.661</ele>
        <time>2021-10-13T14:04:36Z</time>
      </trkpt>
      <trkpt lat="40.676653" lon="-5.619901">
        <ele>863.411</ele>
        <time>2021-10-13T14:04:38Z</time>
      </trkpt>
      <trkpt lat="40.676893" lon="-5.619963">
        <ele>861.964</ele>
        <time>2021-10-13T14:04:39Z</time>
      </trkpt>
      <trkpt lat="40.677122" lon="-5.620022">
        <ele>860.830</ele>
        <time>2021-10-13T14:04:40Z</time>
      </trkpt>
      <trkpt lat="40.677344" lon="-5.620080">
        <ele>859.379</ele>
        <time>2021-10-13T14:04:41Z</time>
      </trkpt>
      <trkpt lat="40.677750" lon="-5.620188">
        <ele>856.184</ele>
        <time>2021-10-13T14:04:43Z</time>
      </trkpt>
      <trkpt lat="40.677940" lon="-5.620234">
        <ele>855.076</ele>
        <time>2021-10-13T14:04:44Z</time>
      </trkpt>
      <trkpt lat="40.678295" lon="-5.620300">
        <ele>852.290</ele>
        <time>2021-10-13T14:04:46Z</time>
      </trkpt>
      <trkpt lat="40.678483" lon="-5.620308">
        <ele>851.319</ele>
        <time>2021-10-13T14:04:47Z</time>
      </trkpt>
      <trkpt lat="40.678861" lon="-5.620264">
        <ele>848.908</ele>
        <time>2021-10-13T14:04:49Z</time>
      </trkpt>
      <trkpt lat="40.679055" lon="-5.620223">
        <ele>847.995</ele>
        <time>2021-10-13T14:04:50Z</time>
      </trkpt>
      <trkpt lat="40.679437" lon="-5.620140">
        <ele>845.133</ele>
        <time>2021-10-13T14:04:52Z</time>
      </trkpt>
      <trkpt lat="40.679633" lon="-5.620090">
        <ele>844.230</ele>
        <time>2021-10-13T14:04:53Z</time>
      </trkpt>
      <trkpt lat="40.679831" lon="-5.620039">
        <ele>843.530</ele>
        <time>2021-10-13T14:04:54Z</time>
      </trkpt>
      <trkpt lat="40.680249" lon="-5.619979">
        <ele>843.443</ele>
        <time>2021-10-13T14:04:56Z</time>
      </trkpt>
      <trkpt lat="40.680637" lon="-5.620025">
        <ele>843.999</ele>
        <time>2021-10-13T14:04:58Z</time>
      </trkpt>
      <trkpt lat="40.681022" lon="-5.620163">
        <ele>844.228</ele>
        <time>2021-10-13T14:05:00Z</time>
      </trkpt>
      <trkpt lat="40.681206" lon="-5.620251">
        <ele>843.663</ele>
        <time>2021-10-13T14:05:01Z</time>
      </trkpt>
      <trkpt lat="40.681382" lon="-5.620333">
        <ele>843.014</ele>
        <time>2021-10-13T14:05:02Z</time>
      </trkpt>
      <trkpt lat="40.681708" lon="-5.620484">
        <ele>842.354</ele>
        <time>2021-10-13T14:05:04Z</time>
      </trkpt>
      <trkpt lat="40.682037" lon="-5.620636">
        <ele>841.609</ele>
        <time>2021-10-13T14:05:06Z</time>
      </trkpt>
      <trkpt lat="40.682369" lon="-5.620791">
        <ele>841.608</ele>
        <time>2021-10-13T14:05:08Z</time>
      </trkpt>
      <trkpt lat="40.682540" lon="-5.620868">
        <ele>841.579</ele>
        <time>2021-10-13T14:05:09Z</time>
      </trkpt>
      <trkpt lat="40.682870" lon="-5.621012">
        <ele>841.857</ele>
        <time>2021-10-13T14:05:11Z</time>
      </trkpt>
      <trkpt lat="40.683203" lon="-5.621154">
        <ele>841.814</ele>
        <time>2021-10-13T14:05:13Z</time>
      </trkpt>
      <trkpt lat="40.683369" lon="-5.621228">
        <ele>842.224</ele>
        <time>2021-10-13T14:05:14Z</time>
      </trkpt>
      <trkpt lat="40.683535" lon="-5.621302">
        <ele>842.247</ele>
        <time>2021-10-13T14:05:15Z</time>
      </trkpt>
      <trkpt lat="40.683702" lon="-5.621372">
        <ele>842.083</ele>
        <time>2021-10-13T14:05:16Z</time>
      </trkpt>
      <trkpt lat="40.683869" lon="-5.621443">
        <ele>842.132</ele>
        <time>2021-10-13T14:05:17Z</time>
      </trkpt>
      <trkpt lat="40.684215" lon="-5.621591">
        <ele>842.777</ele>
        <time>2021-10-13T14:05:19Z</time>
      </trkpt>
      <trkpt lat="40.684579" lon="-5.621754">
        <ele>843.355</ele>
        <time>2021-10-13T14:05:21Z</time>
      </trkpt>
      <trkpt lat="40.684779" lon="-5.621839">
        <ele>843.207</ele>
        <time>2021-10-13T14:05:22Z</time>
      </trkpt>
      <trkpt lat="40.685189" lon="-5.622023">
        <ele>844.617</ele>
        <time>2021-10-13T14:05:24Z</time>
      </trkpt>
      <trkpt lat="40.685636" lon="-5.622224">
        <ele>844.908</ele>
        <time>2021-10-13T14:05:26Z</time>
      </trkpt>
      <trkpt lat="40.686077" lon="-5.622419">
        <ele>846.273</ele>
        <time>2021-10-13T14:05:28Z</time>
      </trkpt>
      <trkpt lat="40.686548" lon="-5.622622">
        <ele>847.271</ele>
        <time>2021-10-13T14:05:30Z</time>
      </trkpt>
      <trkpt lat="40.686793" lon="-5.622729">
        <ele>848.278</ele>
        <time>2021-10-13T14:05:31Z</time>
      </trkpt>
      <trkpt lat="40.687044" lon="-5.622844">
        <ele>848.118</ele>
        <time>2021-10-13T14:05:32Z</time>
      </trkpt>
      <trkpt lat="40.687520" lon="-5.623054">
        <ele>848.251</ele>
        <time>2021-10-13T14:05:34Z</time>
      </trkpt>
      <trkpt lat="40.687769" lon="-5.623166">
        <ele>848.337</ele>
        <time>2021-10-13T14:05:35Z</time>
      </trkpt>
      <trkpt lat="40.688018" lon="-5.623272">
        <ele>847.376</ele>
        <time>2021-10-13T14:05:36Z</time>
      </trkpt>
      <trkpt lat="40.688498" lon="-5.623477">
        <ele>846.091</ele>
        <time>2021-10-13T14:05:38Z</time>
      </trkpt>
      <trkpt lat="40.688743" lon="-5.623573">
        <ele>845.496</ele>
        <time>2021-10-13T14:05:39Z</time>
      </trkpt>
      <trkpt lat="40.689000" lon="-5.623651">
        <ele>844.631</ele>
        <time>2021-10-13T14:05:40Z</time>
      </trkpt>
      <trkpt lat="40.689536" lon="-5.623714">
        <ele>843.924</ele>
        <time>2021-10-13T14:05:42Z</time>
      </trkpt>
      <trkpt lat="40.690076" lon="-5.623634">
        <ele>843.008</ele>
        <time>2021-10-13T14:05:44Z</time>
      </trkpt>
      <trkpt lat="40.690577" lon="-5.623402">
        <ele>841.977</ele>
        <time>2021-10-13T14:05:46Z</time>
      </trkpt>
      <trkpt lat="40.691044" lon="-5.623099">
        <ele>842.235</ele>
        <time>2021-10-13T14:05:48Z</time>
      </trkpt>
      <trkpt lat="40.691280" lon="-5.622944">
        <ele>841.522</ele>
        <time>2021-10-13T14:05:49Z</time>
      </trkpt>
      <trkpt lat="40.691520" lon="-5.622791">
        <ele>840.482</ele>
        <time>2021-10-13T14:05:50Z</time>
      </trkpt>
      <trkpt lat="40.691759" lon="-5.622641">
        <ele>840.225</ele>
        <time>2021-10-13T14:05:51Z</time>
      </trkpt>
      <trkpt lat="40.692240" lon="-5.622361">
        <ele>840.641</ele>
        <time>2021-10-13T14:05:53Z</time>
      </trkpt>
      <trkpt lat="40.692492" lon="-5.622233">
        <ele>840.240</ele>
        <time>2021-10-13T14:05:54Z</time>
      </trkpt>
      <trkpt lat="40.693014" lon="-5.622028">
        <ele>838.945</ele>
        <time>2021-10-13T14:05:56Z</time>
      </trkpt>
      <trkpt lat="40.693561" lon="-5.621942">
        <ele>838.893</ele>
        <time>2021-10-13T14:05:58Z</time>
      </trkpt>
      <trkpt lat="40.694129" lon="-5.622016">
        <ele>838.265</ele>
        <time>2021-10-13T14:06:00Z</time>
      </trkpt>
      <trkpt lat="40.694699" lon="-5.622219">
        <ele>838.921</ele>
        <time>2021-10-13T14:06:02Z</time>
      </trkpt>
      <trkpt lat="40.695230" lon="-5.622451">
        <ele>838.708</ele>
        <time>2021-10-13T14:06:04Z</time>
      </trkpt>
      <trkpt lat="40.695781" lon="-5.622692">
        <ele>838.357</ele>
        <time>2021-10-13T14:06:06Z</time>
      </trkpt>
      <trkpt lat="40.696058" lon="-5.622820">
        <ele>838.955</ele>
        <time>2021-10-13T14:06:07Z</time>
      </trkpt>
      <trkpt lat="40.696604" lon="-5.623069">
        <ele>838.722</ele>
        <time>2021-10-13T14:06:09Z</time>
      </trkpt>
      <trkpt lat="40.696883" lon="-5.623173">
        <ele>838.612</ele>
        <time>2021-10-13T14:06:10Z</time>
      </trkpt>
      <trkpt lat="40.697162" lon="-5.623252">
        <ele>838.595</ele>
        <time>2021-10-13T14:06:11Z</time>
      </trkpt>
      <trkpt lat="40.697441" lon="-5.623301">
        <ele>838.641</ele>
        <time>2021-10-13T14:06:12Z</time>
      </trkpt>
      <trkpt lat="40.697995" lon="-5.623310">
        <ele>839.540</ele>
        <time>2021-10-13T14:06:14Z</time>
      </trkpt>
      <trkpt lat="40.698274" lon="-5.623287">
        <ele>839.725</ele>
        <time>2021-10-13T14:06:15Z</time>
      </trkpt>
      <trkpt lat="40.698823" lon="-5.623221">
        <ele>840.128</ele>
        <time>2021-10-13T14:06:17Z</time>
      </trkpt>
      <trkpt lat="40.699377" lon="-5.623150">
        <ele>840.489</ele>
        <time>2021-10-13T14:06:19Z</time>
      </trkpt>
      <trkpt lat="40.699930" lon="-5.623082">
        <ele>840.317</ele>
        <time>2021-10-13T14:06:21Z</time>
      </trkpt>
      <trkpt lat="40.700496" lon="-5.623007">
        <ele>840.108</ele>
        <time>2021-10-13T14:06:23Z</time>
      </trkpt>
      <trkpt lat="40.700789" lon="-5.622976">
        <ele>839.930</ele>
        <time>2021-10-13T14:06:24Z</time>
      </trkpt>
      <trkpt lat="40.701395" lon="-5.622913">
        <ele>839.988</ele>
        <time>2021-10-13T14:06:26Z</time>
      </trkpt>
      <trkpt lat="40.701966" lon="-5.622859">
        <ele>839.455</ele>
        <time>2021-10-13T14:06:28Z</time>
      </trkpt>
      <trkpt lat="40.702535" lon="-5.622797">
        <ele>839.385</ele>
        <time>2021-10-13T14:06:30Z</time>
      </trkpt>
      <trkpt lat="40.703084" lon="-5.622732">
        <ele>839.068</ele>
        <time>2021-10-13T14:06:32Z</time>
      </trkpt>
      <trkpt lat="40.703552" lon="-5.622666">
        <ele>839.814</ele>
        <time>2021-10-13T14:06:34Z</time>
      </trkpt>
      <trkpt lat="40.704004" lon="-5.622584">
        <ele>840.673</ele>
        <time>2021-10-13T14:06:36Z</time>
      </trkpt>
      <trkpt lat="40.704476" lon="-5.622478">
        <ele>840.778</ele>
        <time>2021-10-13T14:06:38Z</time>
      </trkpt>
      <trkpt lat="40.704966" lon="-5.622359">
        <ele>841.798</ele>
        <time>2021-10-13T14:06:40Z</time>
      </trkpt>
      <trkpt lat="40.705461" lon="-5.622239">
        <ele>842.015</ele>
        <time>2021-10-13T14:06:42Z</time>
      </trkpt>
      <trkpt lat="40.705958" lon="-5.622133">
        <ele>843.526</ele>
        <time>2021-10-13T14:06:44Z</time>
      </trkpt>
      <trkpt lat="40.706222" lon="-5.622096">
        <ele>844.108</ele>
        <time>2021-10-13T14:06:45Z</time>
      </trkpt>
      <trkpt lat="40.706757" lon="-5.622059">
        <ele>846.577</ele>
        <time>2021-10-13T14:06:47Z</time>
      </trkpt>
      <trkpt lat="40.707032" lon="-5.622068">
        <ele>846.315</ele>
        <time>2021-10-13T14:06:48Z</time>
      </trkpt>
      <trkpt lat="40.707576" lon="-5.622135">
        <ele>847.512</ele>
        <time>2021-10-13T14:06:50Z</time>
      </trkpt>
      <trkpt lat="40.707855" lon="-5.622178">
        <ele>847.922</ele>
        <time>2021-10-13T14:06:51Z</time>
      </trkpt>
      <trkpt lat="40.708133" lon="-5.622227">
        <ele>848.685</ele>
        <time>2021-10-13T14:06:52Z</time>
      </trkpt>
      <trkpt lat="40.708679" lon="-5.622349">
        <ele>849.931</ele>
        <time>2021-10-13T14:06:54Z</time>
      </trkpt>
      <trkpt lat="40.708947" lon="-5.622407">
        <ele>850.240</ele>
        <time>2021-10-13T14:06:55Z</time>
      </trkpt>
      <trkpt lat="40.709229" lon="-5.622446">
        <ele>850.515</ele>
        <time>2021-10-13T14:06:56Z</time>
      </trkpt>
      <trkpt lat="40.709746" lon="-5.622459">
        <ele>850.125</ele>
        <time>2021-10-13T14:06:58Z</time>
      </trkpt>
      <trkpt lat="40.710013" lon="-5.622412">
        <ele>850.126</ele>
        <time>2021-10-13T14:06:59Z</time>
      </trkpt>
      <trkpt lat="40.710275" lon="-5.622316">
        <ele>849.908</ele>
        <time>2021-10-13T14:07:00Z</time>
      </trkpt>
      <trkpt lat="40.710529" lon="-5.622169">
        <ele>849.208</ele>
        <time>2021-10-13T14:07:01Z</time>
      </trkpt>
      <trkpt lat="40.710784" lon="-5.621969">
        <ele>848.790</ele>
        <time>2021-10-13T14:07:02Z</time>
      </trkpt>
      <trkpt lat="40.711207" lon="-5.621481">
        <ele>848.268</ele>
        <time>2021-10-13T14:07:04Z</time>
      </trkpt>
      <trkpt lat="40.711588" lon="-5.620901">
        <ele>846.735</ele>
        <time>2021-10-13T14:07:06Z</time>
      </trkpt>
      <trkpt lat="40.711963" lon="-5.620333">
        <ele>846.455</ele>
        <time>2021-10-13T14:07:08Z</time>
      </trkpt>
      <trkpt lat="40.712154" lon="-5.620057">
        <ele>845.658</ele>
        <time>2021-10-13T14:07:09Z</time>
      </trkpt>
      <trkpt lat="40.712530" lon="-5.619534">
        <ele>843.914</ele>
        <time>2021-10-13T14:07:11Z</time>
      </trkpt>
      <trkpt lat="40.712721" lon="-5.619280">
        <ele>843.493</ele>
        <time>2021-10-13T14:07:12Z</time>
      </trkpt>
      <trkpt lat="40.713109" lon="-5.618859">
        <ele>842.768</ele>
        <time>2021-10-13T14:07:14Z</time>
      </trkpt>
      <trkpt lat="40.713324" lon="-5.618694">
        <ele>841.859</ele>
        <time>2021-10-13T14:07:15Z</time>
      </trkpt>
      <trkpt lat="40.713791" lon="-5.618464">
        <ele>841.303</ele>
        <time>2021-10-13T14:07:17Z</time>
      </trkpt>
      <trkpt lat="40.714293" lon="-5.618403">
        <ele>839.923</ele>
        <time>2021-10-13T14:07:19Z</time>
      </trkpt>
      <trkpt lat="40.714803" lon="-5.618480">
        <ele>840.308</ele>
        <time>2021-10-13T14:07:21Z</time>
      </trkpt>
      <trkpt lat="40.715061" lon="-5.618558">
        <ele>840.753</ele>
        <time>2021-10-13T14:07:22Z</time>
      </trkpt>
      <trkpt lat="40.715585" lon="-5.618714">
        <ele>840.611</ele>
        <time>2021-10-13T14:07:24Z</time>
      </trkpt>
      <trkpt lat="40.716141" lon="-5.618856">
        <ele>841.358</ele>
        <time>2021-10-13T14:07:26Z</time>
      </trkpt>
      <trkpt lat="40.716683" lon="-5.618994">
        <ele>842.288</ele>
        <time>2021-10-13T14:07:28Z</time>
      </trkpt>
      <trkpt lat="40.717250" lon="-5.619139">
        <ele>844.271</ele>
        <time>2021-10-13T14:07:30Z</time>
      </trkpt>
      <trkpt lat="40.717848" lon="-5.619305">
        <ele>846.517</ele>
        <time>2021-10-13T14:07:32Z</time>
      </trkpt>
      <trkpt lat="40.718405" lon="-5.619533">
        <ele>849.776</ele>
        <time>2021-10-13T14:07:34Z</time>
      </trkpt>
      <trkpt lat="40.718954" lon="-5.619857">
        <ele>853.081</ele>
        <time>2021-10-13T14:07:36Z</time>
      </trkpt>
      <trkpt lat="40.719450" lon="-5.620295">
        <ele>854.917</ele>
        <time>2021-10-13T14:07:38Z</time>
      </trkpt>
      <trkpt lat="40.719898" lon="-5.620837">
        <ele>858.687</ele>
        <time>2021-10-13T14:07:40Z</time>
      </trkpt>
      <trkpt lat="40.720113" lon="-5.621132">
        <ele>860.615</ele>
        <time>2021-10-13T14:07:41Z</time>
      </trkpt>
      <trkpt lat="40.720495" lon="-5.621761">
        <ele>864.308</ele>
        <time>2021-10-13T14:07:43Z</time>
      </trkpt>
      <trkpt lat="40.720662" lon="-5.622098">
        <ele>865.999</ele>
        <time>2021-10-13T14:07:44Z</time>
      </trkpt>
      <trkpt lat="40.720815" lon="-5.622450">
        <ele>867.797</ele>
        <time>2021-10-13T14:07:45Z</time>
      </trkpt>
      <trkpt lat="40.721104" lon="-5.623173">
        <ele>870.594</ele>
        <time>2021-10-13T14:07:47Z</time>
      </trkpt>
      <trkpt lat="40.721395" lon="-5.623897">
        <ele>875.094</ele>
        <time>2021-10-13T14:07:49Z</time>
      </trkpt>
      <trkpt lat="40.721533" lon="-5.624251">
        <ele>875.997</ele>
        <time>2021-10-13T14:07:50Z</time>
      </trkpt>
      <trkpt lat="40.721806" lon="-5.624945">
        <ele>879.263</ele>
        <time>2021-10-13T14:07:52Z</time>
      </trkpt>
      <trkpt lat="40.721945" lon="-5.625294">
        <ele>880.882</ele>
        <time>2021-10-13T14:07:53Z</time>
      </trkpt>
      <trkpt lat="40.722230" lon="-5.625984">
        <ele>884.897</ele>
        <time>2021-10-13T14:07:55Z</time>
      </trkpt>
      <trkpt lat="40.722390" lon="-5.626342">
        <ele>885.971</ele>
        <time>2021-10-13T14:07:56Z</time>
      </trkpt>
      <trkpt lat="40.722716" lon="-5.626951">
        <ele>888.441</ele>
        <time>2021-10-13T14:07:58Z</time>
      </trkpt>
      <trkpt lat="40.722914" lon="-5.627240">
        <ele>890.415</ele>
        <time>2021-10-13T14:07:59Z</time>
      </trkpt>
      <trkpt lat="40.723351" lon="-5.627772">
        <ele>893.108</ele>
        <time>2021-10-13T14:08:01Z</time>
      </trkpt>
      <trkpt lat="40.723602" lon="-5.628031">
        <ele>895.065</ele>
        <time>2021-10-13T14:08:02Z</time>
      </trkpt>
      <trkpt lat="40.724103" lon="-5.628468">
        <ele>897.983</ele>
        <time>2021-10-13T14:08:04Z</time>
      </trkpt>
      <trkpt lat="40.724633" lon="-5.628902">
        <ele>901.010</ele>
        <time>2021-10-13T14:08:06Z</time>
      </trkpt>
      <trkpt lat="40.725174" lon="-5.629347">
        <ele>901.480</ele>
        <time>2021-10-13T14:08:08Z</time>
      </trkpt>
      <trkpt lat="40.725705" lon="-5.629776">
        <ele>902.563</ele>
        <time>2021-10-13T14:08:10Z</time>
      </trkpt>
      <trkpt lat="40.726242" lon="-5.630208">
        <ele>902.039</ele>
        <time>2021-10-13T14:08:12Z</time>
      </trkpt>
      <trkpt lat="40.726779" lon="-5.630642">
        <ele>899.778</ele>
        <time>2021-10-13T14:08:14Z</time>
      </trkpt>
      <trkpt lat="40.727053" lon="-5.630855">
        <ele>899.023</ele>
        <time>2021-10-13T14:08:15Z</time>
      </trkpt>
      <trkpt lat="40.727327" lon="-5.631059">
        <ele>898.015</ele>
        <time>2021-10-13T14:08:16Z</time>
      </trkpt>
      <trkpt lat="40.727599" lon="-5.631259">
        <ele>896.665</ele>
        <time>2021-10-13T14:08:17Z</time>
      </trkpt>
      <trkpt lat="40.727876" lon="-5.631445">
        <ele>895.511</ele>
        <time>2021-10-13T14:08:18Z</time>
      </trkpt>
      <trkpt lat="40.728426" lon="-5.631774">
        <ele>894.508</ele>
        <time>2021-10-13T14:08:20Z</time>
      </trkpt>
      <trkpt lat="40.728713" lon="-5.631917">
        <ele>893.459</ele>
        <time>2021-10-13T14:08:21Z</time>
      </trkpt>
      <trkpt lat="40.729302" lon="-5.632149">
        <ele>891.787</ele>
        <time>2021-10-13T14:08:23Z</time>
      </trkpt>
      <trkpt lat="40.729909" lon="-5.632301">
        <ele>891.354</ele>
        <time>2021-10-13T14:08:25Z</time>
      </trkpt>
      <trkpt lat="40.730232" lon="-5.632341">
        <ele>891.674</ele>
        <time>2021-10-13T14:08:26Z</time>
      </trkpt>
      <trkpt lat="40.730827" lon="-5.632349">
        <ele>893.497</ele>
        <time>2021-10-13T14:08:28Z</time>
      </trkpt>
      <trkpt lat="40.731131" lon="-5.632327">
        <ele>894.583</ele>
        <time>2021-10-13T14:08:29Z</time>
      </trkpt>
      <trkpt lat="40.731724" lon="-5.632202">
        <ele>898.012</ele>
        <time>2021-10-13T14:08:31Z</time>
      </trkpt>
      <trkpt lat="40.732029" lon="-5.632096">
        <ele>899.427</ele>
        <time>2021-10-13T14:08:32Z</time>
      </trkpt>
      <trkpt lat="40.732575" lon="-5.631828">
        <ele>902.738</ele>
        <time>2021-10-13T14:08:34Z</time>
      </trkpt>
      <trkpt lat="40.732854" lon="-5.631659">
        <ele>904.570</ele>
        <time>2021-10-13T14:08:35Z</time>
      </trkpt>
      <trkpt lat="40.733380" lon="-5.631271">
        <ele>906.317</ele>
        <time>2021-10-13T14:08:37Z</time>
      </trkpt>
      <trkpt lat="40.733888" lon="-5.630821">
        <ele>907.108</ele>
        <time>2021-10-13T14:08:39Z</time>
      </trkpt>
      <trkpt lat="40.734380" lon="-5.630357">
        <ele>908.781</ele>
        <time>2021-10-13T14:08:41Z</time>
      </trkpt>
      <trkpt lat="40.734852" lon="-5.629894">
        <ele>911.059</ele>
        <time>2021-10-13T14:08:43Z</time>
      </trkpt>
      <trkpt lat="40.735311" lon="-5.629439">
        <ele>911.566</ele>
        <time>2021-10-13T14:08:45Z</time>
      </trkpt>
      <trkpt lat="40.735542" lon="-5.629216">
        <ele>911.386</ele>
        <time>2021-10-13T14:08:46Z</time>
      </trkpt>
      <trkpt lat="40.735999" lon="-5.628800">
        <ele>909.579</ele>
        <time>2021-10-13T14:08:48Z</time>
      </trkpt>
      <trkpt lat="40.736240" lon="-5.628602">
        <ele>907.615</ele>
        <time>2021-10-13T14:08:49Z</time>
      </trkpt>
      <trkpt lat="40.736747" lon="-5.628235">
        <ele>904.354</ele>
        <time>2021-10-13T14:08:51Z</time>
      </trkpt>
      <trkpt lat="40.737293" lon="-5.627940">
        <ele>900.969</ele>
        <time>2021-10-13T14:08:53Z</time>
      </trkpt>
      <trkpt lat="40.737874" lon="-5.627751">
        <ele>897.588</ele>
        <time>2021-10-13T14:08:55Z</time>
      </trkpt>
      <trkpt lat="40.738190" lon="-5.627698">
        <ele>895.624</ele>
        <time>2021-10-13T14:08:56Z</time>
      </trkpt>
      <trkpt lat="40.738785" lon="-5.627659">
        <ele>891.526</ele>
        <time>2021-10-13T14:08:58Z</time>
      </trkpt>
      <trkpt lat="40.739095" lon="-5.627647">
        <ele>889.508</ele>
        <time>2021-10-13T14:08:59Z</time>
      </trkpt>
      <trkpt lat="40.739406" lon="-5.627633">
        <ele>887.366</ele>
        <time>2021-10-13T14:09:00Z</time>
      </trkpt>
      <trkpt lat="40.740038" lon="-5.627599">
        <ele>885.274</ele>
        <time>2021-10-13T14:09:02Z</time>
      </trkpt>
      <trkpt lat="40.740588" lon="-5.627558">
        <ele>883.941</ele>
        <time>2021-10-13T14:09:04Z</time>
      </trkpt>
      <trkpt lat="40.740846" lon="-5.627537">
        <ele>884.121</ele>
        <time>2021-10-13T14:09:05Z</time>
      </trkpt>
      <trkpt lat="40.741338" lon="-5.627498">
        <ele>884.044</ele>
        <time>2021-10-13T14:09:07Z</time>
      </trkpt>
      <trkpt lat="40.741582" lon="-5.627474">
        <ele>883.960</ele>
        <time>2021-10-13T14:09:08Z</time>
      </trkpt>
      <trkpt lat="40.742053" lon="-5.627437">
        <ele>884.619</ele>
        <time>2021-10-13T14:09:10Z</time>
      </trkpt>
      <trkpt lat="40.742516" lon="-5.627402">
        <ele>884.024</ele>
        <time>2021-10-13T14:09:12Z</time>
      </trkpt>
      <trkpt lat="40.742977" lon="-5.627363">
        <ele>882.689</ele>
        <time>2021-10-13T14:09:14Z</time>
      </trkpt>
      <trkpt lat="40.743216" lon="-5.627344">
        <ele>881.206</ele>
        <time>2021-10-13T14:09:15Z</time>
      </trkpt>
      <trkpt lat="40.743693" lon="-5.627307">
        <ele>878.726</ele>
        <time>2021-10-13T14:09:17Z</time>
      </trkpt>
      <trkpt lat="40.743933" lon="-5.627285">
        <ele>877.308</ele>
        <time>2021-10-13T14:09:18Z</time>
      </trkpt>
      <trkpt lat="40.744176" lon="-5.627264">
        <ele>876.326</ele>
        <time>2021-10-13T14:09:19Z</time>
      </trkpt>
      <trkpt lat="40.744661" lon="-5.627228">
        <ele>875.764</ele>
        <time>2021-10-13T14:09:21Z</time>
      </trkpt>
      <trkpt lat="40.744908" lon="-5.627212">
        <ele>875.461</ele>
        <time>2021-10-13T14:09:22Z</time>
      </trkpt>
      <trkpt lat="40.745385" lon="-5.627182">
        <ele>877.071</ele>
        <time>2021-10-13T14:09:24Z</time>
      </trkpt>
      <trkpt lat="40.745864" lon="-5.627153">
        <ele>878.614</ele>
        <time>2021-10-13T14:09:26Z</time>
      </trkpt>
      <trkpt lat="40.746299" lon="-5.627121">
        <ele>879.060</ele>
        <time>2021-10-13T14:09:28Z</time>
      </trkpt>
      <trkpt lat="40.746696" lon="-5.627087">
        <ele>879.249</ele>
        <time>2021-10-13T14:09:30Z</time>
      </trkpt>
      <trkpt lat="40.747065" lon="-5.627064">
        <ele>879.274</ele>
        <time>2021-10-13T14:09:32Z</time>
      </trkpt>
      <trkpt lat="40.747383" lon="-5.627058">
        <ele>879.116</ele>
        <time>2021-10-13T14:09:34Z</time>
      </trkpt>
      <trkpt lat="40.747687" lon="-5.627080">
        <ele>879.676</ele>
        <time>2021-10-13T14:09:36Z</time>
      </trkpt>
      <trkpt lat="40.747963" lon="-5.627120">
        <ele>880.313</ele>
        <time>2021-10-13T14:09:38Z</time>
      </trkpt>
      <trkpt lat="40.748211" lon="-5.627163">
        <ele>880.208</ele>
        <time>2021-10-13T14:09:40Z</time>
      </trkpt>
      <trkpt lat="40.748437" lon="-5.627206">
        <ele>880.149</ele>
        <time>2021-10-13T14:09:42Z</time>
      </trkpt>
      <trkpt lat="40.748552" lon="-5.627229">
        <ele>879.847</ele>
        <time>2021-10-13T14:09:43Z</time>
      </trkpt>
      <trkpt lat="40.748800" lon="-5.627274">
        <ele>879.524</ele>
        <time>2021-10-13T14:09:45Z</time>
      </trkpt>
      <trkpt lat="40.748933" lon="-5.627290">
        <ele>879.364</ele>
        <time>2021-10-13T14:09:46Z</time>
      </trkpt>
      <trkpt lat="40.749196" lon="-5.627299">
        <ele>879.347</ele>
        <time>2021-10-13T14:09:48Z</time>
      </trkpt>
      <trkpt lat="40.749328" lon="-5.627293">
        <ele>879.923</ele>
        <time>2021-10-13T14:09:49Z</time>
      </trkpt>
      <trkpt lat="40.749590" lon="-5.627269">
        <ele>879.992</ele>
        <time>2021-10-13T14:09:51Z</time>
      </trkpt>
      <trkpt lat="40.749849" lon="-5.627252">
        <ele>879.857</ele>
        <time>2021-10-13T14:09:53Z</time>
      </trkpt>
      <trkpt lat="40.749981" lon="-5.627246">
        <ele>880.593</ele>
        <time>2021-10-13T14:09:54Z</time>
      </trkpt>
      <trkpt lat="40.750110" lon="-5.627237">
        <ele>880.665</ele>
        <time>2021-10-13T14:09:55Z</time>
      </trkpt>
      <trkpt lat="40.750243" lon="-5.627228">
        <ele>882.121</ele>
        <time>2021-10-13T14:09:56Z</time>
      </trkpt>
      <trkpt lat="40.750497" lon="-5.627209">
        <ele>882.808</ele>
        <time>2021-10-13T14:09:58Z</time>
      </trkpt>
      <trkpt lat="40.750766" lon="-5.627192">
        <ele>884.427</ele>
        <time>2021-10-13T14:10:00Z</time>
      </trkpt>
      <trkpt lat="40.750912" lon="-5.627187">
        <ele>885.865</ele>
        <time>2021-10-13T14:10:01Z</time>
      </trkpt>
      <trkpt lat="40.751068" lon="-5.627188">
        <ele>886.122</ele>
        <time>2021-10-13T14:10:02Z</time>
      </trkpt>
      <trkpt lat="40.751383" lon="-5.627225">
        <ele>887.432</ele>
        <time>2021-10-13T14:10:04Z</time>
      </trkpt>
      <trkpt lat="40.751721" lon="-5.627323">
        <ele>888.365</ele>
        <time>2021-10-13T14:10:06Z</time>
      </trkpt>
      <trkpt lat="40.751896" lon="-5.627406">
        <ele>888.671</ele>
        <time>2021-10-13T14:10:07Z</time>
      </trkpt>
      <trkpt lat="40.752242" lon="-5.627633">
        <ele>890.580</ele>
        <time>2021-10-13T14:10:09Z</time>
      </trkpt>
      <trkpt lat="40.752417" lon="-5.627768">
        <ele>891.695</ele>
        <time>2021-10-13T14:10:10Z</time>
      </trkpt>
      <trkpt lat="40.752594" lon="-5.627905">
        <ele>891.999</ele>
        <time>2021-10-13T14:10:11Z</time>
      </trkpt>
      <trkpt lat="40.752957" lon="-5.628169">
        <ele>895.107</ele>
        <time>2021-10-13T14:10:13Z</time>
      </trkpt>
      <trkpt lat="40.753156" lon="-5.628303">
        <ele>896.227</ele>
        <time>2021-10-13T14:10:14Z</time>
      </trkpt>
      <trkpt lat="40.753593" lon="-5.628569">
        <ele>897.308</ele>
        <time>2021-10-13T14:10:16Z</time>
      </trkpt>
      <trkpt lat="40.754080" lon="-5.628794">
        <ele>898.417</ele>
        <time>2021-10-13T14:10:18Z</time>
      </trkpt>
      <trkpt lat="40.754609" lon="-5.628994">
        <ele>900.295</ele>
        <time>2021-10-13T14:10:20Z</time>
      </trkpt>
      <trkpt lat="40.754882" lon="-5.629083">
        <ele>901.072</ele>
        <time>2021-10-13T14:10:21Z</time>
      </trkpt>
      <trkpt lat="40.755442" lon="-5.629225">
        <ele>903.932</ele>
        <time>2021-10-13T14:10:23Z</time>
      </trkpt>
      <trkpt lat="40.756029" lon="-5.629294">
        <ele>906.495</ele>
        <time>2021-10-13T14:10:25Z</time>
      </trkpt>
      <trkpt lat="40.756346" lon="-5.629306">
        <ele>908.171</ele>
        <time>2021-10-13T14:10:26Z</time>
      </trkpt>
      <trkpt lat="40.756946" lon="-5.629227">
        <ele>910.380</ele>
        <time>2021-10-13T14:10:28Z</time>
      </trkpt>
      <trkpt lat="40.757252" lon="-5.629177">
        <ele>911.185</ele>
        <time>2021-10-13T14:10:29Z</time>
      </trkpt>
      <trkpt lat="40.757560" lon="-5.629115">
        <ele>911.877</ele>
        <time>2021-10-13T14:10:30Z</time>
      </trkpt>
      <trkpt lat="40.757870" lon="-5.629041">
        <ele>912.361</ele>
        <time>2021-10-13T14:10:31Z</time>
      </trkpt>
      <trkpt lat="40.758187" lon="-5.628958">
        <ele>913.627</ele>
        <time>2021-10-13T14:10:32Z</time>
      </trkpt>
      <trkpt lat="40.758790" lon="-5.628777">
        <ele>917.008</ele>
        <time>2021-10-13T14:10:34Z</time>
      </trkpt>
      <trkpt lat="40.759396" lon="-5.628557">
        <ele>920.245</ele>
        <time>2021-10-13T14:10:36Z</time>
      </trkpt>
      <trkpt lat="40.760013" lon="-5.628335">
        <ele>922.533</ele>
        <time>2021-10-13T14:10:38Z</time>
      </trkpt>
      <trkpt lat="40.760648" lon="-5.628108">
        <ele>923.440</ele>
        <time>2021-10-13T14:10:40Z</time>
      </trkpt>
      <trkpt lat="40.761292" lon="-5.627870">
        <ele>926.460</ele>
        <time>2021-10-13T14:10:42Z</time>
      </trkpt>
      <trkpt lat="40.761930" lon="-5.627621">
        <ele>929.813</ele>
        <time>2021-10-13T14:10:44Z</time>
      </trkpt>
      <trkpt lat="40.762557" lon="-5.627376">
        <ele>933.499</ele>
        <time>2021-10-13T14:10:46Z</time>
      </trkpt>
      <trkpt lat="40.762878" lon="-5.627260">
        <ele>934.878</ele>
        <time>2021-10-13T14:10:47Z</time>
      </trkpt>
      <trkpt lat="40.763499" lon="-5.627036">
        <ele>937.093</ele>
        <time>2021-10-13T14:10:49Z</time>
      </trkpt>
      <trkpt lat="40.764085" lon="-5.626824">
        <ele>940.242</ele>
        <time>2021-10-13T14:10:51Z</time>
      </trkpt>
      <trkpt lat="40.764364" lon="-5.626717">
        <ele>941.322</ele>
        <time>2021-10-13T14:10:52Z</time>
      </trkpt>
      <trkpt lat="40.764891" lon="-5.626519">
        <ele>943.614</ele>
        <time>2021-10-13T14:10:54Z</time>
      </trkpt>
      <trkpt lat="40.765143" lon="-5.626429">
        <ele>944.308</ele>
        <time>2021-10-13T14:10:55Z</time>
      </trkpt>
      <trkpt lat="40.765395" lon="-5.626339">
        <ele>945.162</ele>
        <time>2021-10-13T14:10:56Z</time>
      </trkpt>
      <trkpt lat="40.765881" lon="-5.626172">
        <ele>946.580</ele>
        <time>2021-10-13T14:10:58Z</time>
      </trkpt>
      <trkpt lat="40.766129" lon="-5.626078">
        <ele>946.577</ele>
        <time>2021-10-13T14:10:59Z</time>
      </trkpt>
      <trkpt lat="40.766378" lon="-5.625980">
        <ele>946.677</ele>
        <time>2021-10-13T14:11:00Z</time>
      </trkpt>
      <trkpt lat="40.766629" lon="-5.625883">
        <ele>947.390</ele>
        <time>2021-10-13T14:11:01Z</time>
      </trkpt>
      <trkpt lat="40.766889" lon="-5.625788">
        <ele>948.596</ele>
        <time>2021-10-13T14:11:02Z</time>
      </trkpt>
      <trkpt lat="40.767398" lon="-5.625606">
        <ele>949.965</ele>
        <time>2021-10-13T14:11:04Z</time>
      </trkpt>
      <trkpt lat="40.767932" lon="-5.625411">
        <ele>953.680</ele>
        <time>2021-10-13T14:11:06Z</time>
      </trkpt>
      <trkpt lat="40.768207" lon="-5.625319">
        <ele>954.968</ele>
        <time>2021-10-13T14:11:07Z</time>
      </trkpt>
      <trkpt lat="40.768486" lon="-5.625236">
        <ele>956.642</ele>
        <time>2021-10-13T14:11:08Z</time>
      </trkpt>
      <trkpt lat="40.769058" lon="-5.625133">
        <ele>959.026</ele>
        <time>2021-10-13T14:11:10Z</time>
      </trkpt>
      <trkpt lat="40.769353" lon="-5.625113">
        <ele>960.508</ele>
        <time>2021-10-13T14:11:11Z</time>
      </trkpt>
      <trkpt lat="40.769652" lon="-5.625120">
        <ele>961.874</ele>
        <time>2021-10-13T14:11:12Z</time>
      </trkpt>
      <trkpt lat="40.770257" lon="-5.625184">
        <ele>963.122</ele>
        <time>2021-10-13T14:11:14Z</time>
      </trkpt>
      <trkpt lat="40.770854" lon="-5.625335">
        <ele>964.399</ele>
        <time>2021-10-13T14:11:16Z</time>
      </trkpt>
      <trkpt lat="40.771151" lon="-5.625443">
        <ele>964.699</ele>
        <time>2021-10-13T14:11:17Z</time>
      </trkpt>
      <trkpt lat="40.771446" lon="-5.625555">
        <ele>964.742</ele>
        <time>2021-10-13T14:11:18Z</time>
      </trkpt>
      <trkpt lat="40.771744" lon="-5.625666">
        <ele>964.788</ele>
        <time>2021-10-13T14:11:19Z</time>
      </trkpt>
      <trkpt lat="40.772336" lon="-5.625874">
        <ele>964.517</ele>
        <time>2021-10-13T14:11:21Z</time>
      </trkpt>
      <trkpt lat="40.772638" lon="-5.625976">
        <ele>964.542</ele>
        <time>2021-10-13T14:11:22Z</time>
      </trkpt>
      <trkpt lat="40.772939" lon="-5.626079">
        <ele>964.116</ele>
        <time>2021-10-13T14:11:23Z</time>
      </trkpt>
      <trkpt lat="40.773535" lon="-5.626283">
        <ele>964.676</ele>
        <time>2021-10-13T14:11:25Z</time>
      </trkpt>
      <trkpt lat="40.773841" lon="-5.626388">
        <ele>965.113</ele>
        <time>2021-10-13T14:11:26Z</time>
      </trkpt>
      <trkpt lat="40.774406" lon="-5.626583">
        <ele>966.308</ele>
        <time>2021-10-13T14:11:28Z</time>
      </trkpt>
      <trkpt lat="40.774985" lon="-5.626783">
        <ele>966.979</ele>
        <time>2021-10-13T14:11:30Z</time>
      </trkpt>
      <trkpt lat="40.775577" lon="-5.626988">
        <ele>967.417</ele>
        <time>2021-10-13T14:11:32Z</time>
      </trkpt>
      <trkpt lat="40.776163" lon="-5.627193">
        <ele>967.064</ele>
        <time>2021-10-13T14:11:34Z</time>
      </trkpt>
      <trkpt lat="40.776766" lon="-5.627403">
        <ele>966.274</ele>
        <time>2021-10-13T14:11:36Z</time>
      </trkpt>
      <trkpt lat="40.777071" lon="-5.627509">
        <ele>965.277</ele>
        <time>2021-10-13T14:11:37Z</time>
      </trkpt>
      <trkpt lat="40.777680" lon="-5.627720">
        <ele>963.853</ele>
        <time>2021-10-13T14:11:39Z</time>
      </trkpt>
      <trkpt lat="40.777990" lon="-5.627828">
        <ele>962.782</ele>
        <time>2021-10-13T14:11:40Z</time>
      </trkpt>
      <trkpt lat="40.778606" lon="-5.628039">
        <ele>961.077</ele>
        <time>2021-10-13T14:11:42Z</time>
      </trkpt>
      <trkpt lat="40.778910" lon="-5.628143">
        <ele>959.627</ele>
        <time>2021-10-13T14:11:43Z</time>
      </trkpt>
      <trkpt lat="40.779210" lon="-5.628245">
        <ele>959.768</ele>
        <time>2021-10-13T14:11:44Z</time>
      </trkpt>
      <trkpt lat="40.779808" lon="-5.628449">
        <ele>959.014</ele>
        <time>2021-10-13T14:11:46Z</time>
      </trkpt>
      <trkpt lat="40.780105" lon="-5.628552">
        <ele>959.108</ele>
        <time>2021-10-13T14:11:47Z</time>
      </trkpt>
      <trkpt lat="40.780698" lon="-5.628764">
        <ele>958.590</ele>
        <time>2021-10-13T14:11:49Z</time>
      </trkpt>
      <trkpt lat="40.781303" lon="-5.628971">
        <ele>959.298</ele>
        <time>2021-10-13T14:11:51Z</time>
      </trkpt>
      <trkpt lat="40.781918" lon="-5.629179">
        <ele>959.055</ele>
        <time>2021-10-13T14:11:53Z</time>
      </trkpt>
      <trkpt lat="40.782227" lon="-5.629291">
        <ele>959.175</ele>
        <time>2021-10-13T14:11:54Z</time>
      </trkpt>
      <trkpt lat="40.782836" lon="-5.629499">
        <ele>959.038</ele>
        <time>2021-10-13T14:11:56Z</time>
      </trkpt>
      <trkpt lat="40.783421" lon="-5.629697">
        <ele>958.354</ele>
        <time>2021-10-13T14:11:58Z</time>
      </trkpt>
      <trkpt lat="40.784019" lon="-5.629904">
        <ele>957.793</ele>
        <time>2021-10-13T14:12:00Z</time>
      </trkpt>
      <trkpt lat="40.784319" lon="-5.630014">
        <ele>956.838</ele>
        <time>2021-10-13T14:12:01Z</time>
      </trkpt>
      <trkpt lat="40.784629" lon="-5.630127">
        <ele>955.178</ele>
        <time>2021-10-13T14:12:02Z</time>
      </trkpt>
      <trkpt lat="40.785222" lon="-5.630328">
        <ele>952.433</ele>
        <time>2021-10-13T14:12:04Z</time>
      </trkpt>
      <trkpt lat="40.785526" lon="-5.630430">
        <ele>951.826</ele>
        <time>2021-10-13T14:12:05Z</time>
      </trkpt>
      <trkpt lat="40.785831" lon="-5.630532">
        <ele>951.408</ele>
        <time>2021-10-13T14:12:06Z</time>
      </trkpt>
      <trkpt lat="40.786435" lon="-5.630745">
        <ele>952.395</ele>
        <time>2021-10-13T14:12:08Z</time>
      </trkpt>
      <trkpt lat="40.786739" lon="-5.630848">
        <ele>951.983</ele>
        <time>2021-10-13T14:12:09Z</time>
      </trkpt>
      <trkpt lat="40.787336" lon="-5.631053">
        <ele>953.310</ele>
        <time>2021-10-13T14:12:11Z</time>
      </trkpt>
      <trkpt lat="40.787922" lon="-5.631256">
        <ele>955.160</ele>
        <time>2021-10-13T14:12:13Z</time>
      </trkpt>
      <trkpt lat="40.788510" lon="-5.631461">
        <ele>958.253</ele>
        <time>2021-10-13T14:12:15Z</time>
      </trkpt>
      <trkpt lat="40.788804" lon="-5.631569">
        <ele>959.329</ele>
        <time>2021-10-13T14:12:16Z</time>
      </trkpt>
      <trkpt lat="40.789098" lon="-5.631676">
        <ele>960.498</ele>
        <time>2021-10-13T14:12:17Z</time>
      </trkpt>
      <trkpt lat="40.789689" lon="-5.631882">
        <ele>961.393</ele>
        <time>2021-10-13T14:12:19Z</time>
      </trkpt>
      <trkpt lat="40.789992" lon="-5.631986">
        <ele>961.344</ele>
        <time>2021-10-13T14:12:20Z</time>
      </trkpt>
      <trkpt lat="40.790597" lon="-5.632194">
        <ele>961.605</ele>
        <time>2021-10-13T14:12:22Z</time>
      </trkpt>
      <trkpt lat="40.790905" lon="-5.632298">
        <ele>961.615</ele>
        <time>2021-10-13T14:12:23Z</time>
      </trkpt>
      <trkpt lat="40.791511" lon="-5.632504">
        <ele>962.008</ele>
        <time>2021-10-13T14:12:25Z</time>
      </trkpt>
      <trkpt lat="40.791821" lon="-5.632611">
        <ele>961.962</ele>
        <time>2021-10-13T14:12:26Z</time>
      </trkpt>
      <trkpt lat="40.792407" lon="-5.632816">
        <ele>961.740</ele>
        <time>2021-10-13T14:12:28Z</time>
      </trkpt>
      <trkpt lat="40.792712" lon="-5.632926">
        <ele>961.937</ele>
        <time>2021-10-13T14:12:29Z</time>
      </trkpt>
      <trkpt lat="40.793318" lon="-5.633143">
        <ele>964.657</ele>
        <time>2021-10-13T14:12:31Z</time>
      </trkpt>
      <trkpt lat="40.793637" lon="-5.633248">
        <ele>965.610</ele>
        <time>2021-10-13T14:12:32Z</time>
      </trkpt>
      <trkpt lat="40.794244" lon="-5.633407">
        <ele>968.376</ele>
        <time>2021-10-13T14:12:34Z</time>
      </trkpt>
      <trkpt lat="40.794567" lon="-5.633452">
        <ele>969.045</ele>
        <time>2021-10-13T14:12:35Z</time>
      </trkpt>
      <trkpt lat="40.795229" lon="-5.633467">
        <ele>970.160</ele>
        <time>2021-10-13T14:12:37Z</time>
      </trkpt>
      <trkpt lat="40.795569" lon="-5.633448">
        <ele>970.633</ele>
        <time>2021-10-13T14:12:38Z</time>
      </trkpt>
      <trkpt lat="40.795908" lon="-5.633423">
        <ele>971.623</ele>
        <time>2021-10-13T14:12:39Z</time>
      </trkpt>
      <trkpt lat="40.796571" lon="-5.633378">
        <ele>973.315</ele>
        <time>2021-10-13T14:12:41Z</time>
      </trkpt>
      <trkpt lat="40.796895" lon="-5.633357">
        <ele>974.608</ele>
        <time>2021-10-13T14:12:42Z</time>
      </trkpt>
      <trkpt lat="40.797525" lon="-5.633315">
        <ele>977.331</ele>
        <time>2021-10-13T14:12:44Z</time>
      </trkpt>
      <trkpt lat="40.798134" lon="-5.633274">
        <ele>979.779</ele>
        <time>2021-10-13T14:12:46Z</time>
      </trkpt>
      <trkpt lat="40.798720" lon="-5.633229">
        <ele>981.346</ele>
        <time>2021-10-13T14:12:48Z</time>
      </trkpt>
      <trkpt lat="40.799011" lon="-5.633205">
        <ele>982.886</ele>
        <time>2021-10-13T14:12:49Z</time>
      </trkpt>
      <trkpt lat="40.799302" lon="-5.633181">
        <ele>983.769</ele>
        <time>2021-10-13T14:12:50Z</time>
      </trkpt>
      <trkpt lat="40.799879" lon="-5.633136">
        <ele>984.945</ele>
        <time>2021-10-13T14:12:52Z</time>
      </trkpt>
      <trkpt lat="40.800453" lon="-5.633106">
        <ele>987.024</ele>
        <time>2021-10-13T14:12:54Z</time>
      </trkpt>
      <trkpt lat="40.800743" lon="-5.633091">
        <ele>987.839</ele>
        <time>2021-10-13T14:12:55Z</time>
      </trkpt>
      <trkpt lat="40.801041" lon="-5.633074">
        <ele>988.338</ele>
        <time>2021-10-13T14:12:56Z</time>
      </trkpt>
      <trkpt lat="40.801612" lon="-5.633030">
        <ele>989.070</ele>
        <time>2021-10-13T14:12:58Z</time>
      </trkpt>
      <trkpt lat="40.801910" lon="-5.633007">
        <ele>989.517</ele>
        <time>2021-10-13T14:12:59Z</time>
      </trkpt>
      <trkpt lat="40.802505" lon="-5.632963">
        <ele>989.708</ele>
        <time>2021-10-13T14:13:01Z</time>
      </trkpt>
      <trkpt lat="40.802812" lon="-5.632948">
        <ele>989.891</ele>
        <time>2021-10-13T14:13:02Z</time>
      </trkpt>
      <trkpt lat="40.803405" lon="-5.632916">
        <ele>990.459</ele>
        <time>2021-10-13T14:13:04Z</time>
      </trkpt>
      <trkpt lat="40.803996" lon="-5.632879">
        <ele>990.676</ele>
        <time>2021-10-13T14:13:06Z</time>
      </trkpt>
      <trkpt lat="40.804565" lon="-5.632835">
        <ele>990.416</ele>
        <time>2021-10-13T14:13:08Z</time>
      </trkpt>
      <trkpt lat="40.805154" lon="-5.632798">
        <ele>991.189</ele>
        <time>2021-10-13T14:13:10Z</time>
      </trkpt>
      <trkpt lat="40.805455" lon="-5.632779">
        <ele>991.885</ele>
        <time>2021-10-13T14:13:11Z</time>
      </trkpt>
      <trkpt lat="40.805759" lon="-5.632760">
        <ele>992.014</ele>
        <time>2021-10-13T14:13:12Z</time>
      </trkpt>
      <trkpt lat="40.806360" lon="-5.632702">
        <ele>993.899</ele>
        <time>2021-10-13T14:13:14Z</time>
      </trkpt>
      <trkpt lat="40.806940" lon="-5.632621">
        <ele>996.688</ele>
        <time>2021-10-13T14:13:16Z</time>
      </trkpt>
      <trkpt lat="40.807224" lon="-5.632565">
        <ele>997.524</ele>
        <time>2021-10-13T14:13:17Z</time>
      </trkpt>
      <trkpt lat="40.807773" lon="-5.632402">
        <ele>1000.526</ele>
        <time>2021-10-13T14:13:19Z</time>
      </trkpt>
      <trkpt lat="40.808045" lon="-5.632294">
        <ele>1001.408</ele>
        <time>2021-10-13T14:13:20Z</time>
      </trkpt>
      <trkpt lat="40.808567" lon="-5.632015">
        <ele>1004.736</ele>
        <time>2021-10-13T14:13:22Z</time>
      </trkpt>
      <trkpt lat="40.809060" lon="-5.631660">
        <ele>1005.844</ele>
        <time>2021-10-13T14:13:24Z</time>
      </trkpt>
      <trkpt lat="40.809540" lon="-5.631270">
        <ele>1007.931</ele>
        <time>2021-10-13T14:13:26Z</time>
      </trkpt>
      <trkpt lat="40.809987" lon="-5.630862">
        <ele>1009.261</ele>
        <time>2021-10-13T14:13:28Z</time>
      </trkpt>
      <trkpt lat="40.810434" lon="-5.630436">
        <ele>1009.434</ele>
        <time>2021-10-13T14:13:30Z</time>
      </trkpt>
      <trkpt lat="40.810890" lon="-5.630007">
        <ele>1009.570</ele>
        <time>2021-10-13T14:13:32Z</time>
      </trkpt>
      <trkpt lat="40.811361" lon="-5.629610">
        <ele>1008.239</ele>
        <time>2021-10-13T14:13:34Z</time>
      </trkpt>
      <trkpt lat="40.811617" lon="-5.629417">
        <ele>1007.864</ele>
        <time>2021-10-13T14:13:35Z</time>
      </trkpt>
      <trkpt lat="40.811879" lon="-5.629235">
        <ele>1008.125</ele>
        <time>2021-10-13T14:13:36Z</time>
      </trkpt>
      <trkpt lat="40.812435" lon="-5.628921">
        <ele>1007.126</ele>
        <time>2021-10-13T14:13:38Z</time>
      </trkpt>
      <trkpt lat="40.812727" lon="-5.628798">
        <ele>1006.408</ele>
        <time>2021-10-13T14:13:39Z</time>
      </trkpt>
      <trkpt lat="40.813024" lon="-5.628704">
        <ele>1006.008</ele>
        <time>2021-10-13T14:13:40Z</time>
      </trkpt>
      <trkpt lat="40.813632" lon="-5.628608">
        <ele>1005.110</ele>
        <time>2021-10-13T14:13:42Z</time>
      </trkpt>
      <trkpt lat="40.813945" lon="-5.628602">
        <ele>1004.638</ele>
        <time>2021-10-13T14:13:43Z</time>
      </trkpt>
      <trkpt lat="40.814573" lon="-5.628653">
        <ele>1003.245</ele>
        <time>2021-10-13T14:13:45Z</time>
      </trkpt>
      <trkpt lat="40.815189" lon="-5.628823">
        <ele>1001.935</ele>
        <time>2021-10-13T14:13:47Z</time>
      </trkpt>
      <trkpt lat="40.815485" lon="-5.628960">
        <ele>1001.028</ele>
        <time>2021-10-13T14:13:48Z</time>
      </trkpt>
      <trkpt lat="40.815773" lon="-5.629129">
        <ele>999.574</ele>
        <time>2021-10-13T14:13:49Z</time>
      </trkpt>
      <trkpt lat="40.816331" lon="-5.629535">
        <ele>996.823</ele>
        <time>2021-10-13T14:13:51Z</time>
      </trkpt>
      <trkpt lat="40.816604" lon="-5.629766">
        <ele>994.798</ele>
        <time>2021-10-13T14:13:52Z</time>
      </trkpt>
      <trkpt lat="40.817132" lon="-5.630275">
        <ele>990.136</ele>
        <time>2021-10-13T14:13:54Z</time>
      </trkpt>
      <trkpt lat="40.817650" lon="-5.630826">
        <ele>985.117</ele>
        <time>2021-10-13T14:13:56Z</time>
      </trkpt>
      <trkpt lat="40.818150" lon="-5.631380">
        <ele>980.618</ele>
        <time>2021-10-13T14:13:58Z</time>
      </trkpt>
      <trkpt lat="40.818630" lon="-5.631912">
        <ele>976.408</ele>
        <time>2021-10-13T14:14:00Z</time>
      </trkpt>
      <trkpt lat="40.818863" lon="-5.632170">
        <ele>974.551</ele>
        <time>2021-10-13T14:14:01Z</time>
      </trkpt>
      <trkpt lat="40.819093" lon="-5.632429">
        <ele>972.659</ele>
        <time>2021-10-13T14:14:02Z</time>
      </trkpt>
      <trkpt lat="40.819525" lon="-5.632906">
        <ele>969.956</ele>
        <time>2021-10-13T14:14:04Z</time>
      </trkpt>
      <trkpt lat="40.819967" lon="-5.633387">
        <ele>966.236</ele>
        <time>2021-10-13T14:14:06Z</time>
      </trkpt>
      <trkpt lat="40.820190" lon="-5.633629">
        <ele>964.849</ele>
        <time>2021-10-13T14:14:07Z</time>
      </trkpt>
      <trkpt lat="40.820634" lon="-5.634114">
        <ele>961.365</ele>
        <time>2021-10-13T14:14:09Z</time>
      </trkpt>
      <trkpt lat="40.821053" lon="-5.634570">
        <ele>959.954</ele>
        <time>2021-10-13T14:14:11Z</time>
      </trkpt>
      <trkpt lat="40.821249" lon="-5.634783">
        <ele>959.259</ele>
        <time>2021-10-13T14:14:12Z</time>
      </trkpt>
      <trkpt lat="40.821440" lon="-5.634990">
        <ele>958.673</ele>
        <time>2021-10-13T14:14:13Z</time>
      </trkpt>
      <trkpt lat="40.821628" lon="-5.635194">
        <ele>957.885</ele>
        <time>2021-10-13T14:14:14Z</time>
      </trkpt>
      <trkpt lat="40.821999" lon="-5.635598">
        <ele>954.913</ele>
        <time>2021-10-13T14:14:16Z</time>
      </trkpt>
      <trkpt lat="40.822378" lon="-5.636000">
        <ele>950.808</ele>
        <time>2021-10-13T14:14:18Z</time>
      </trkpt>
      <trkpt lat="40.822585" lon="-5.636206">
        <ele>949.415</ele>
        <time>2021-10-13T14:14:19Z</time>
      </trkpt>
      <trkpt lat="40.822797" lon="-5.636398">
        <ele>948.373</ele>
        <time>2021-10-13T14:14:20Z</time>
      </trkpt>
      <trkpt lat="40.823017" lon="-5.636574">
        <ele>947.440</ele>
        <time>2021-10-13T14:14:21Z</time>
      </trkpt>
      <trkpt lat="40.823247" lon="-5.636736">
        <ele>946.570</ele>
        <time>2021-10-13T14:14:22Z</time>
      </trkpt>
      <trkpt lat="40.823732" lon="-5.637027">
        <ele>945.163</ele>
        <time>2021-10-13T14:14:24Z</time>
      </trkpt>
      <trkpt lat="40.824243" lon="-5.637309">
        <ele>944.169</ele>
        <time>2021-10-13T14:14:26Z</time>
      </trkpt>
      <trkpt lat="40.824742" lon="-5.637590">
        <ele>942.398</ele>
        <time>2021-10-13T14:14:28Z</time>
      </trkpt>
      <trkpt lat="40.825254" lon="-5.637880">
        <ele>938.863</ele>
        <time>2021-10-13T14:14:30Z</time>
      </trkpt>
      <trkpt lat="40.825784" lon="-5.638168">
        <ele>936.273</ele>
        <time>2021-10-13T14:14:32Z</time>
      </trkpt>
      <trkpt lat="40.826307" lon="-5.638400">
        <ele>933.585</ele>
        <time>2021-10-13T14:14:34Z</time>
      </trkpt>
      <trkpt lat="40.826855" lon="-5.638562">
        <ele>930.713</ele>
        <time>2021-10-13T14:14:36Z</time>
      </trkpt>
      <trkpt lat="40.827421" lon="-5.638640">
        <ele>929.708</ele>
        <time>2021-10-13T14:14:38Z</time>
      </trkpt>
      <trkpt lat="40.827706" lon="-5.638649">
        <ele>929.045</ele>
        <time>2021-10-13T14:14:39Z</time>
      </trkpt>
      <trkpt lat="40.828258" lon="-5.638629">
        <ele>928.153</ele>
        <time>2021-10-13T14:14:41Z</time>
      </trkpt>
      <trkpt lat="40.828796" lon="-5.638604">
        <ele>926.550</ele>
        <time>2021-10-13T14:14:43Z</time>
      </trkpt>
      <trkpt lat="40.829317" lon="-5.638590">
        <ele>925.510</ele>
        <time>2021-10-13T14:14:45Z</time>
      </trkpt>
      <trkpt lat="40.829572" lon="-5.638585">
        <ele>924.553</ele>
        <time>2021-10-13T14:14:46Z</time>
      </trkpt>
      <trkpt lat="40.830092" lon="-5.638568">
        <ele>924.049</ele>
        <time>2021-10-13T14:14:48Z</time>
      </trkpt>
      <trkpt lat="40.830365" lon="-5.638565">
        <ele>923.168</ele>
        <time>2021-10-13T14:14:49Z</time>
      </trkpt>
      <trkpt lat="40.830945" lon="-5.638560">
        <ele>921.253</ele>
        <time>2021-10-13T14:14:51Z</time>
      </trkpt>
      <trkpt lat="40.831266" lon="-5.638557">
        <ele>920.955</ele>
        <time>2021-10-13T14:14:52Z</time>
      </trkpt>
      <trkpt lat="40.831586" lon="-5.638554">
        <ele>921.007</ele>
        <time>2021-10-13T14:14:53Z</time>
      </trkpt>
      <trkpt lat="40.832251" lon="-5.638550">
        <ele>920.917</ele>
        <time>2021-10-13T14:14:55Z</time>
      </trkpt>
      <trkpt lat="40.832590" lon="-5.638533">
        <ele>920.808</ele>
        <time>2021-10-13T14:14:56Z</time>
      </trkpt>
      <trkpt lat="40.833198" lon="-5.638491">
        <ele>921.753</ele>
        <time>2021-10-13T14:14:58Z</time>
      </trkpt>
      <trkpt lat="40.833751" lon="-5.638481">
        <ele>923.211</ele>
        <time>2021-10-13T14:15:00Z</time>
      </trkpt>
      <trkpt lat="40.834014" lon="-5.638480">
        <ele>923.638</ele>
        <time>2021-10-13T14:15:01Z</time>
      </trkpt>
      <trkpt lat="40.834283" lon="-5.638479">
        <ele>923.458</ele>
        <time>2021-10-13T14:15:02Z</time>
      </trkpt>
      <trkpt lat="40.834809" lon="-5.638474">
        <ele>922.961</ele>
        <time>2021-10-13T14:15:04Z</time>
      </trkpt>
      <trkpt lat="40.835349" lon="-5.638457">
        <ele>922.867</ele>
        <time>2021-10-13T14:15:06Z</time>
      </trkpt>
      <trkpt lat="40.835918" lon="-5.638490">
        <ele>923.486</ele>
        <time>2021-10-13T14:15:08Z</time>
      </trkpt>
      <trkpt lat="40.836478" lon="-5.638615">
        <ele>922.761</ele>
        <time>2021-10-13T14:15:10Z</time>
      </trkpt>
      <trkpt lat="40.836987" lon="-5.638806">
        <ele>921.577</ele>
        <time>2021-10-13T14:15:12Z</time>
      </trkpt>
      <trkpt lat="40.837220" lon="-5.638909">
        <ele>920.561</ele>
        <time>2021-10-13T14:15:13Z</time>
      </trkpt>
      <trkpt lat="40.837648" lon="-5.639122">
        <ele>918.927</ele>
        <time>2021-10-13T14:15:15Z</time>
      </trkpt>
      <trkpt lat="40.838054" lon="-5.639344">
        <ele>916.008</ele>
        <time>2021-10-13T14:15:17Z</time>
      </trkpt>
      <trkpt lat="40.838480" lon="-5.639566">
        <ele>913.885</ele>
        <time>2021-10-13T14:15:19Z</time>
      </trkpt>
      <trkpt lat="40.838958" lon="-5.639805">
        <ele>910.833</ele>
        <time>2021-10-13T14:15:21Z</time>
      </trkpt>
      <trkpt lat="40.839479" lon="-5.640045">
        <ele>908.080</ele>
        <time>2021-10-13T14:15:23Z</time>
      </trkpt>
      <trkpt lat="40.839762" lon="-5.640159">
        <ele>906.940</ele>
        <time>2021-10-13T14:15:24Z</time>
      </trkpt>
      <trkpt lat="40.840353" lon="-5.640382">
        <ele>905.563</ele>
        <time>2021-10-13T14:15:26Z</time>
      </trkpt>
      <trkpt lat="40.840947" lon="-5.640598">
        <ele>905.959</ele>
        <time>2021-10-13T14:15:28Z</time>
      </trkpt>
      <trkpt lat="40.841558" lon="-5.640826">
        <ele>909.378</ele>
        <time>2021-10-13T14:15:30Z</time>
      </trkpt>
      <trkpt lat="40.842176" lon="-5.641058">
        <ele>912.053</ele>
        <time>2021-10-13T14:15:32Z</time>
      </trkpt>
      <trkpt lat="40.842770" lon="-5.641289">
        <ele>913.769</ele>
        <time>2021-10-13T14:15:34Z</time>
      </trkpt>
      <trkpt lat="40.843077" lon="-5.641407">
        <ele>914.104</ele>
        <time>2021-10-13T14:15:35Z</time>
      </trkpt>
      <trkpt lat="40.843678" lon="-5.641639">
        <ele>914.224</ele>
        <time>2021-10-13T14:15:37Z</time>
      </trkpt>
      <trkpt lat="40.843977" lon="-5.641767">
        <ele>913.908</ele>
        <time>2021-10-13T14:15:38Z</time>
      </trkpt>
      <trkpt lat="40.844553" lon="-5.642087">
        <ele>913.094</ele>
        <time>2021-10-13T14:15:40Z</time>
      </trkpt>
      <trkpt lat="40.845114" lon="-5.642478">
        <ele>912.822</ele>
        <time>2021-10-13T14:15:42Z</time>
      </trkpt>
      <trkpt lat="40.845665" lon="-5.642877">
        <ele>912.339</ele>
        <time>2021-10-13T14:15:44Z</time>
      </trkpt>
      <trkpt lat="40.845942" lon="-5.643075">
        <ele>911.559</ele>
        <time>2021-10-13T14:15:45Z</time>
      </trkpt>
      <trkpt lat="40.846221" lon="-5.643275">
        <ele>910.362</ele>
        <time>2021-10-13T14:15:46Z</time>
      </trkpt>
      <trkpt lat="40.846785" lon="-5.643678">
        <ele>907.558</ele>
        <time>2021-10-13T14:15:48Z</time>
      </trkpt>
      <trkpt lat="40.847077" lon="-5.643879">
        <ele>905.987</ele>
        <time>2021-10-13T14:15:49Z</time>
      </trkpt>
      <trkpt lat="40.847658" lon="-5.644289">
        <ele>902.632</ele>
        <time>2021-10-13T14:15:51Z</time>
      </trkpt>
      <trkpt lat="40.847950" lon="-5.644497">
        <ele>901.179</ele>
        <time>2021-10-13T14:15:52Z</time>
      </trkpt>
      <trkpt lat="40.848528" lon="-5.644909">
        <ele>899.005</ele>
        <time>2021-10-13T14:15:54Z</time>
      </trkpt>
      <trkpt lat="40.848820" lon="-5.645116">
        <ele>897.925</ele>
        <time>2021-10-13T14:15:55Z</time>
      </trkpt>
      <trkpt lat="40.849115" lon="-5.645326">
        <ele>896.608</ele>
        <time>2021-10-13T14:15:56Z</time>
      </trkpt>
      <trkpt lat="40.849686" lon="-5.645729">
        <ele>895.675</ele>
        <time>2021-10-13T14:15:58Z</time>
      </trkpt>
      <trkpt lat="40.849974" lon="-5.645933">
        <ele>895.253</ele>
        <time>2021-10-13T14:15:59Z</time>
      </trkpt>
      <trkpt lat="40.850546" lon="-5.646341">
        <ele>894.510</ele>
        <time>2021-10-13T14:16:01Z</time>
      </trkpt>
      <trkpt lat="40.850835" lon="-5.646549">
        <ele>894.180</ele>
        <time>2021-10-13T14:16:02Z</time>
      </trkpt>
      <trkpt lat="40.851383" lon="-5.646941">
        <ele>893.033</ele>
        <time>2021-10-13T14:16:04Z</time>
      </trkpt>
      <trkpt lat="40.851664" lon="-5.647140">
        <ele>892.599</ele>
        <time>2021-10-13T14:16:05Z</time>
      </trkpt>
      <trkpt lat="40.852233" lon="-5.647532">
        <ele>890.388</ele>
        <time>2021-10-13T14:16:07Z</time>
      </trkpt>
      <trkpt lat="40.852808" lon="-5.647939">
        <ele>886.433</ele>
        <time>2021-10-13T14:16:09Z</time>
      </trkpt>
      <trkpt lat="40.853361" lon="-5.648333">
        <ele>883.232</ele>
        <time>2021-10-13T14:16:11Z</time>
      </trkpt>
      <trkpt lat="40.853634" lon="-5.648527">
        <ele>881.992</ele>
        <time>2021-10-13T14:16:12Z</time>
      </trkpt>
      <trkpt lat="40.853889" lon="-5.648708">
        <ele>881.011</ele>
        <time>2021-10-13T14:16:13Z</time>
      </trkpt>
      <trkpt lat="40.854142" lon="-5.648886">
        <ele>880.908</ele>
        <time>2021-10-13T14:16:14Z</time>
      </trkpt>
      <trkpt lat="40.854636" lon="-5.649232">
        <ele>881.441</ele>
        <time>2021-10-13T14:16:16Z</time>
      </trkpt>
      <trkpt lat="40.855084" lon="-5.649544">
        <ele>882.649</ele>
        <time>2021-10-13T14:16:18Z</time>
      </trkpt>
      <trkpt lat="40.855462" lon="-5.649807">
        <ele>884.246</ele>
        <time>2021-10-13T14:16:20Z</time>
      </trkpt>
      <trkpt lat="40.855631" lon="-5.649925">
        <ele>884.826</ele>
        <time>2021-10-13T14:16:21Z</time>
      </trkpt>
      <trkpt lat="40.855963" lon="-5.650146">
        <ele>885.819</ele>
        <time>2021-10-13T14:16:23Z</time>
      </trkpt>
      <trkpt lat="40.856302" lon="-5.650349">
        <ele>885.435</ele>
        <time>2021-10-13T14:16:25Z</time>
      </trkpt>
      <trkpt lat="40.856471" lon="-5.650440">
        <ele>885.224</ele>
        <time>2021-10-13T14:16:26Z</time>
      </trkpt>
      <trkpt lat="40.856789" lon="-5.650619">
        <ele>884.849</ele>
        <time>2021-10-13T14:16:28Z</time>
      </trkpt>
      <trkpt lat="40.857131" lon="-5.650810">
        <ele>883.756</ele>
        <time>2021-10-13T14:16:30Z</time>
      </trkpt>
      <trkpt lat="40.857309" lon="-5.650911">
        <ele>883.159</ele>
        <time>2021-10-13T14:16:31Z</time>
      </trkpt>
      <trkpt lat="40.857496" lon="-5.651018">
        <ele>882.314</ele>
        <time>2021-10-13T14:16:32Z</time>
      </trkpt>
      <trkpt lat="40.857858" lon="-5.651222">
        <ele>882.208</ele>
        <time>2021-10-13T14:16:34Z</time>
      </trkpt>
      <trkpt lat="40.858042" lon="-5.651324">
        <ele>882.033</ele>
        <time>2021-10-13T14:16:35Z</time>
      </trkpt>
      <trkpt lat="40.858435" lon="-5.651549">
        <ele>880.591</ele>
        <time>2021-10-13T14:16:37Z</time>
      </trkpt>
      <trkpt lat="40.858861" lon="-5.651794">
        <ele>881.158</ele>
        <time>2021-10-13T14:16:39Z</time>
      </trkpt>
      <trkpt lat="40.859073" lon="-5.651915">
        <ele>880.678</ele>
        <time>2021-10-13T14:16:40Z</time>
      </trkpt>
      <trkpt lat="40.859470" lon="-5.652133">
        <ele>880.761</ele>
        <time>2021-10-13T14:16:42Z</time>
      </trkpt>
      <trkpt lat="40.859845" lon="-5.652354">
        <ele>879.457</ele>
        <time>2021-10-13T14:16:44Z</time>
      </trkpt>
      <trkpt lat="40.860241" lon="-5.652582">
        <ele>879.516</ele>
        <time>2021-10-13T14:16:46Z</time>
      </trkpt>
      <trkpt lat="40.860678" lon="-5.652822">
        <ele>879.731</ele>
        <time>2021-10-13T14:16:48Z</time>
      </trkpt>
      <trkpt lat="40.861151" lon="-5.653089">
        <ele>878.637</ele>
        <time>2021-10-13T14:16:50Z</time>
      </trkpt>
      <trkpt lat="40.861670" lon="-5.653376">
        <ele>877.249</ele>
        <time>2021-10-13T14:16:52Z</time>
      </trkpt>
      <trkpt lat="40.861943" lon="-5.653536">
        <ele>876.513</ele>
        <time>2021-10-13T14:16:53Z</time>
      </trkpt>
      <trkpt lat="40.862216" lon="-5.653703">
        <ele>876.008</ele>
        <time>2021-10-13T14:16:54Z</time>
      </trkpt>
      <trkpt lat="40.862761" lon="-5.654089">
        <ele>875.421</ele>
        <time>2021-10-13T14:16:56Z</time>
      </trkpt>
      <trkpt lat="40.863269" lon="-5.654542">
        <ele>876.899</ele>
        <time>2021-10-13T14:16:58Z</time>
      </trkpt>
      <trkpt lat="40.863748" lon="-5.655085">
        <ele>877.756</ele>
        <time>2021-10-13T14:17:00Z</time>
      </trkpt>
      <trkpt lat="40.864212" lon="-5.655667">
        <ele>879.266</ele>
        <time>2021-10-13T14:17:02Z</time>
      </trkpt>
      <trkpt lat="40.864687" lon="-5.656164">
        <ele>880.099</ele>
        <time>2021-10-13T14:17:04Z</time>
      </trkpt>
      <trkpt lat="40.864946" lon="-5.656390">
        <ele>879.965</ele>
        <time>2021-10-13T14:17:05Z</time>
      </trkpt>
      <trkpt lat="40.865474" lon="-5.656784">
        <ele>879.974</ele>
        <time>2021-10-13T14:17:07Z</time>
      </trkpt>
      <trkpt lat="40.866033" lon="-5.657072">
        <ele>878.739</ele>
        <time>2021-10-13T14:17:09Z</time>
      </trkpt>
      <trkpt lat="40.866614" lon="-5.657268">
        <ele>877.026</ele>
        <time>2021-10-13T14:17:11Z</time>
      </trkpt>
      <trkpt lat="40.866913" lon="-5.657359">
        <ele>875.447</ele>
        <time>2021-10-13T14:17:12Z</time>
      </trkpt>
      <trkpt lat="40.867514" lon="-5.657557">
        <ele>872.911</ele>
        <time>2021-10-13T14:17:14Z</time>
      </trkpt>
      <trkpt lat="40.868134" lon="-5.657767">
        <ele>871.708</ele>
        <time>2021-10-13T14:17:16Z</time>
      </trkpt>
      <trkpt lat="40.868448" lon="-5.657876">
        <ele>870.680</ele>
        <time>2021-10-13T14:17:17Z</time>
      </trkpt>
      <trkpt lat="40.869076" lon="-5.658109">
        <ele>868.898</ele>
        <time>2021-10-13T14:17:19Z</time>
      </trkpt>
      <trkpt lat="40.869704" lon="-5.658330">
        <ele>866.975</ele>
        <time>2021-10-13T14:17:21Z</time>
      </trkpt>
      <trkpt lat="40.870017" lon="-5.658438">
        <ele>866.845</ele>
        <time>2021-10-13T14:17:22Z</time>
      </trkpt>
      <trkpt lat="40.870618" lon="-5.658655">
        <ele>865.848</ele>
        <time>2021-10-13T14:17:24Z</time>
      </trkpt>
      <trkpt lat="40.871207" lon="-5.658881">
        <ele>863.774</ele>
        <time>2021-10-13T14:17:26Z</time>
      </trkpt>
      <trkpt lat="40.871732" lon="-5.659114">
        <ele>862.423</ele>
        <time>2021-10-13T14:17:28Z</time>
      </trkpt>
      <trkpt lat="40.871985" lon="-5.659231">
        <ele>861.978</ele>
        <time>2021-10-13T14:17:29Z</time>
      </trkpt>
      <trkpt lat="40.872481" lon="-5.659441">
        <ele>861.236</ele>
        <time>2021-10-13T14:17:31Z</time>
      </trkpt>
      <trkpt lat="40.872744" lon="-5.659535">
        <ele>860.517</ele>
        <time>2021-10-13T14:17:32Z</time>
      </trkpt>
      <trkpt lat="40.873253" lon="-5.659662">
        <ele>860.918</ele>
        <time>2021-10-13T14:17:34Z</time>
      </trkpt>
      <trkpt lat="40.873521" lon="-5.659706">
        <ele>861.308</ele>
        <time>2021-10-13T14:17:35Z</time>
      </trkpt>
      <trkpt lat="40.874071" lon="-5.659736">
        <ele>861.721</ele>
        <time>2021-10-13T14:17:37Z</time>
      </trkpt>
      <trkpt lat="40.874646" lon="-5.659676">
        <ele>861.539</ele>
        <time>2021-10-13T14:17:39Z</time>
      </trkpt>
      <trkpt lat="40.875247" lon="-5.659540">
        <ele>861.586</ele>
        <time>2021-10-13T14:17:41Z</time>
      </trkpt>
      <trkpt lat="40.875867" lon="-5.659364">
        <ele>860.346</ele>
        <time>2021-10-13T14:17:43Z</time>
      </trkpt>
      <trkpt lat="40.876496" lon="-5.659179">
        <ele>859.089</ele>
        <time>2021-10-13T14:17:45Z</time>
      </trkpt>
      <trkpt lat="40.877126" lon="-5.659035">
        <ele>857.325</ele>
        <time>2021-10-13T14:17:47Z</time>
      </trkpt>
      <trkpt lat="40.877443" lon="-5.658990">
        <ele>856.494</ele>
        <time>2021-10-13T14:17:48Z</time>
      </trkpt>
      <trkpt lat="40.878067" lon="-5.658991">
        <ele>855.179</ele>
        <time>2021-10-13T14:17:50Z</time>
      </trkpt>
      <trkpt lat="40.878682" lon="-5.659116">
        <ele>853.876</ele>
        <time>2021-10-13T14:17:52Z</time>
      </trkpt>
      <trkpt lat="40.879290" lon="-5.659390">
        <ele>852.390</ele>
        <time>2021-10-13T14:17:54Z</time>
      </trkpt>
      <trkpt lat="40.879877" lon="-5.659776">
        <ele>851.819</ele>
        <time>2021-10-13T14:17:56Z</time>
      </trkpt>
      <trkpt lat="40.880390" lon="-5.660260">
        <ele>852.308</ele>
        <time>2021-10-13T14:17:58Z</time>
      </trkpt>
      <trkpt lat="40.880858" lon="-5.660818">
        <ele>854.615</ele>
        <time>2021-10-13T14:18:00Z</time>
      </trkpt>
      <trkpt lat="40.881317" lon="-5.661394">
        <ele>856.883</ele>
        <time>2021-10-13T14:18:02Z</time>
      </trkpt>
      <trkpt lat="40.881760" lon="-5.661941">
        <ele>859.060</ele>
        <time>2021-10-13T14:18:04Z</time>
      </trkpt>
      <trkpt lat="40.881990" lon="-5.662210">
        <ele>860.050</ele>
        <time>2021-10-13T14:18:05Z</time>
      </trkpt>
      <trkpt lat="40.882463" lon="-5.662715">
        <ele>862.693</ele>
        <time>2021-10-13T14:18:07Z</time>
      </trkpt>
      <trkpt lat="40.882716" lon="-5.662952">
        <ele>863.089</ele>
        <time>2021-10-13T14:18:08Z</time>
      </trkpt>
      <trkpt lat="40.882977" lon="-5.663170">
        <ele>863.428</ele>
        <time>2021-10-13T14:18:09Z</time>
      </trkpt>
      <trkpt lat="40.883249" lon="-5.663375">
        <ele>864.133</ele>
        <time>2021-10-13T14:18:10Z</time>
      </trkpt>
      <trkpt lat="40.883533" lon="-5.663555">
        <ele>865.399</ele>
        <time>2021-10-13T14:18:11Z</time>
      </trkpt>
      <trkpt lat="40.884130" lon="-5.663842">
        <ele>865.507</ele>
        <time>2021-10-13T14:18:13Z</time>
      </trkpt>
      <trkpt lat="40.884749" lon="-5.664021">
        <ele>865.827</ele>
        <time>2021-10-13T14:18:15Z</time>
      </trkpt>
      <trkpt lat="40.885380" lon="-5.664111">
        <ele>864.208</ele>
        <time>2021-10-13T14:18:17Z</time>
      </trkpt>
      <trkpt lat="40.885698" lon="-5.664132">
        <ele>863.567</ele>
        <time>2021-10-13T14:18:18Z</time>
      </trkpt>
      <trkpt lat="40.886007" lon="-5.664144">
        <ele>863.245</ele>
        <time>2021-10-13T14:18:19Z</time>
      </trkpt>
      <trkpt lat="40.886615" lon="-5.664163">
        <ele>862.012</ele>
        <time>2021-10-13T14:18:21Z</time>
      </trkpt>
      <trkpt lat="40.887219" lon="-5.664168">
        <ele>860.522</ele>
        <time>2021-10-13T14:18:23Z</time>
      </trkpt>
      <trkpt lat="40.887526" lon="-5.664173">
        <ele>859.775</ele>
        <time>2021-10-13T14:18:24Z</time>
      </trkpt>
      <trkpt lat="40.887836" lon="-5.664179">
        <ele>858.761</ele>
        <time>2021-10-13T14:18:25Z</time>
      </trkpt>
      <trkpt lat="40.888148" lon="-5.664190">
        <ele>857.980</ele>
        <time>2021-10-13T14:18:26Z</time>
      </trkpt>
      <trkpt lat="40.888773" lon="-5.664199">
        <ele>855.515</ele>
        <time>2021-10-13T14:18:28Z</time>
      </trkpt>
      <trkpt lat="40.889088" lon="-5.664203">
        <ele>854.449</ele>
        <time>2021-10-13T14:18:29Z</time>
      </trkpt>
      <trkpt lat="40.889694" lon="-5.664209">
        <ele>852.402</ele>
        <time>2021-10-13T14:18:31Z</time>
      </trkpt>
      <trkpt lat="40.889987" lon="-5.664212">
        <ele>851.622</ele>
        <time>2021-10-13T14:18:32Z</time>
      </trkpt>
      <trkpt lat="40.890526" lon="-5.664220">
        <ele>850.608</ele>
        <time>2021-10-13T14:18:34Z</time>
      </trkpt>
      <trkpt lat="40.890791" lon="-5.664230">
        <ele>850.112</ele>
        <time>2021-10-13T14:18:35Z</time>
      </trkpt>
      <trkpt lat="40.891049" lon="-5.664237">
        <ele>849.710</ele>
        <time>2021-10-13T14:18:36Z</time>
      </trkpt>
      <trkpt lat="40.891548" lon="-5.664242">
        <ele>847.317</ele>
        <time>2021-10-13T14:18:38Z</time>
      </trkpt>
      <trkpt lat="40.892026" lon="-5.664254">
        <ele>845.497</ele>
        <time>2021-10-13T14:18:40Z</time>
      </trkpt>
      <trkpt lat="40.892279" lon="-5.664257">
        <ele>844.870</ele>
        <time>2021-10-13T14:18:41Z</time>
      </trkpt>
      <trkpt lat="40.892824" lon="-5.664265">
        <ele>843.316</ele>
        <time>2021-10-13T14:18:43Z</time>
      </trkpt>
      <trkpt lat="40.893407" lon="-5.664276">
        <ele>841.095</ele>
        <time>2021-10-13T14:18:45Z</time>
      </trkpt>
      <trkpt lat="40.894000" lon="-5.664293">
        <ele>839.690</ele>
        <time>2021-10-13T14:18:47Z</time>
      </trkpt>
      <trkpt lat="40.894297" lon="-5.664297">
        <ele>838.322</ele>
        <time>2021-10-13T14:18:48Z</time>
      </trkpt>
      <trkpt lat="40.894880" lon="-5.664308">
        <ele>837.062</ele>
        <time>2021-10-13T14:18:50Z</time>
      </trkpt>
      <trkpt lat="40.895170" lon="-5.664315">
        <ele>836.508</ele>
        <time>2021-10-13T14:18:51Z</time>
      </trkpt>
      <trkpt lat="40.895462" lon="-5.664326">
        <ele>836.008</ele>
        <time>2021-10-13T14:18:52Z</time>
      </trkpt>
      <trkpt lat="40.896044" lon="-5.664335">
        <ele>835.220</ele>
        <time>2021-10-13T14:18:54Z</time>
      </trkpt>
      <trkpt lat="40.896634" lon="-5.664342">
        <ele>833.258</ele>
        <time>2021-10-13T14:18:56Z</time>
      </trkpt>
      <trkpt lat="40.897187" lon="-5.664352">
        <ele>832.385</ele>
        <time>2021-10-13T14:18:58Z</time>
      </trkpt>
      <trkpt lat="40.897459" lon="-5.664357">
        <ele>832.085</ele>
        <time>2021-10-13T14:18:59Z</time>
      </trkpt>
      <trkpt lat="40.897983" lon="-5.664369">
        <ele>831.648</ele>
        <time>2021-10-13T14:19:01Z</time>
      </trkpt>
      <trkpt lat="40.898253" lon="-5.664372">
        <ele>831.874</ele>
        <time>2021-10-13T14:19:02Z</time>
      </trkpt>
      <trkpt lat="40.898759" lon="-5.664386">
        <ele>831.013</ele>
        <time>2021-10-13T14:19:04Z</time>
      </trkpt>
      <trkpt lat="40.899015" lon="-5.664393">
        <ele>831.078</ele>
        <time>2021-10-13T14:19:05Z</time>
      </trkpt>
      <trkpt lat="40.899521" lon="-5.664399">
        <ele>830.155</ele>
        <time>2021-10-13T14:19:07Z</time>
      </trkpt>
      <trkpt lat="40.899776" lon="-5.664401">
        <ele>829.707</ele>
        <time>2021-10-13T14:19:08Z</time>
      </trkpt>
      <trkpt lat="40.900031" lon="-5.664404">
        <ele>829.617</ele>
        <time>2021-10-13T14:19:09Z</time>
      </trkpt>
      <trkpt lat="40.900291" lon="-5.664407">
        <ele>829.608</ele>
        <time>2021-10-13T14:19:10Z</time>
      </trkpt>
      <trkpt lat="40.900827" lon="-5.664415">
        <ele>829.453</ele>
        <time>2021-10-13T14:19:12Z</time>
      </trkpt>
      <trkpt lat="40.901100" lon="-5.664425">
        <ele>829.041</ele>
        <time>2021-10-13T14:19:13Z</time>
      </trkpt>
      <trkpt lat="40.901659" lon="-5.664436">
        <ele>828.528</ele>
        <time>2021-10-13T14:19:15Z</time>
      </trkpt>
      <trkpt lat="40.902229" lon="-5.664438">
        <ele>827.738</ele>
        <time>2021-10-13T14:19:17Z</time>
      </trkpt>
      <trkpt lat="40.902515" lon="-5.664443">
        <ele>827.561</ele>
        <time>2021-10-13T14:19:18Z</time>
      </trkpt>
      <trkpt lat="40.903073" lon="-5.664462">
        <ele>827.037</ele>
        <time>2021-10-13T14:19:20Z</time>
      </trkpt>
      <trkpt lat="40.903608" lon="-5.664471">
        <ele>826.286</ele>
        <time>2021-10-13T14:19:22Z</time>
      </trkpt>
      <trkpt lat="40.903873" lon="-5.664473">
        <ele>825.461</ele>
        <time>2021-10-13T14:19:23Z</time>
      </trkpt>
      <trkpt lat="40.904139" lon="-5.664475">
        <ele>825.038</ele>
        <time>2021-10-13T14:19:24Z</time>
      </trkpt>
      <trkpt lat="40.904407" lon="-5.664479">
        <ele>825.270</ele>
        <time>2021-10-13T14:19:25Z</time>
      </trkpt>
      <trkpt lat="40.904680" lon="-5.664483">
        <ele>825.317</ele>
        <time>2021-10-13T14:19:26Z</time>
      </trkpt>
      <trkpt lat="40.905210" lon="-5.664494">
        <ele>824.708</ele>
        <time>2021-10-13T14:19:28Z</time>
      </trkpt>
      <trkpt lat="40.905488" lon="-5.664501">
        <ele>824.371</ele>
        <time>2021-10-13T14:19:29Z</time>
      </trkpt>
      <trkpt lat="40.905760" lon="-5.664503">
        <ele>824.299</ele>
        <time>2021-10-13T14:19:30Z</time>
      </trkpt>
      <trkpt lat="40.906034" lon="-5.664508">
        <ele>823.926</ele>
        <time>2021-10-13T14:19:31Z</time>
      </trkpt>
      <trkpt lat="40.906315" lon="-5.664518">
        <ele>823.696</ele>
        <time>2021-10-13T14:19:32Z</time>
      </trkpt>
      <trkpt lat="40.906849" lon="-5.664527">
        <ele>822.469</ele>
        <time>2021-10-13T14:19:34Z</time>
      </trkpt>
      <trkpt lat="40.907391" lon="-5.664537">
        <ele>822.985</ele>
        <time>2021-10-13T14:19:36Z</time>
      </trkpt>
      <trkpt lat="40.907667" lon="-5.664542">
        <ele>823.214</ele>
        <time>2021-10-13T14:19:37Z</time>
      </trkpt>
      <trkpt lat="40.907946" lon="-5.664547">
        <ele>823.619</ele>
        <time>2021-10-13T14:19:38Z</time>
      </trkpt>
      <trkpt lat="40.908503" lon="-5.664547">
        <ele>825.346</ele>
        <time>2021-10-13T14:19:40Z</time>
      </trkpt>
      <trkpt lat="40.908787" lon="-5.664551">
        <ele>825.788</ele>
        <time>2021-10-13T14:19:41Z</time>
      </trkpt>
      <trkpt lat="40.909357" lon="-5.664562">
        <ele>826.916</ele>
        <time>2021-10-13T14:19:43Z</time>
      </trkpt>
      <trkpt lat="40.909937" lon="-5.664569">
        <ele>829.408</ele>
        <time>2021-10-13T14:19:45Z</time>
      </trkpt>
      <trkpt lat="40.910510" lon="-5.664578">
        <ele>830.042</ele>
        <time>2021-10-13T14:19:47Z</time>
      </trkpt>
      <trkpt lat="40.910780" lon="-5.664582">
        <ele>830.570</ele>
        <time>2021-10-13T14:19:48Z</time>
      </trkpt>
      <trkpt lat="40.911038" lon="-5.664586">
        <ele>831.537</ele>
        <time>2021-10-13T14:19:49Z</time>
      </trkpt>
      <trkpt lat="40.911548" lon="-5.664593">
        <ele>831.617</ele>
        <time>2021-10-13T14:19:51Z</time>
      </trkpt>
      <trkpt lat="40.911808" lon="-5.664596">
        <ele>830.870</ele>
        <time>2021-10-13T14:19:52Z</time>
      </trkpt>
      <trkpt lat="40.912068" lon="-5.664600">
        <ele>830.096</ele>
        <time>2021-10-13T14:19:53Z</time>
      </trkpt>
      <trkpt lat="40.912317" lon="-5.664606">
        <ele>829.585</ele>
        <time>2021-10-13T14:19:54Z</time>
      </trkpt>
      <trkpt lat="40.912556" lon="-5.664616">
        <ele>828.620</ele>
        <time>2021-10-13T14:19:55Z</time>
      </trkpt>
      <trkpt lat="40.912792" lon="-5.664632">
        <ele>827.721</ele>
        <time>2021-10-13T14:19:56Z</time>
      </trkpt>
      <trkpt lat="40.913254" lon="-5.664681">
        <ele>826.241</ele>
        <time>2021-10-13T14:19:58Z</time>
      </trkpt>
      <trkpt lat="40.913481" lon="-5.664720">
        <ele>824.605</ele>
        <time>2021-10-13T14:19:59Z</time>
      </trkpt>
      <trkpt lat="40.913699" lon="-5.664769">
        <ele>823.208</ele>
        <time>2021-10-13T14:20:00Z</time>
      </trkpt>
      <trkpt lat="40.914113" lon="-5.664892">
        <ele>821.250</ele>
        <time>2021-10-13T14:20:02Z</time>
      </trkpt>
      <trkpt lat="40.914486" lon="-5.664992">
        <ele>820.278</ele>
        <time>2021-10-13T14:20:04Z</time>
      </trkpt>
      <trkpt lat="40.914833" lon="-5.665086">
        <ele>819.085</ele>
        <time>2021-10-13T14:20:06Z</time>
      </trkpt>
      <trkpt lat="40.914993" lon="-5.665132">
        <ele>819.355</ele>
        <time>2021-10-13T14:20:07Z</time>
      </trkpt>
      <trkpt lat="40.915260" lon="-5.665199">
        <ele>819.858</ele>
        <time>2021-10-13T14:20:09Z</time>
      </trkpt>
      <trkpt lat="40.915359" lon="-5.665221">
        <ele>819.794</ele>
        <time>2021-10-13T14:20:10Z</time>
      </trkpt>
      <trkpt lat="40.915524" lon="-5.665237">
        <ele>818.873</ele>
        <time>2021-10-13T14:20:12Z</time>
      </trkpt>
      <trkpt lat="40.915670" lon="-5.665209">
        <ele>818.918</ele>
        <time>2021-10-13T14:20:14Z</time>
      </trkpt>
      <trkpt lat="40.915806" lon="-5.665238">
        <ele>819.055</ele>
        <time>2021-10-13T14:20:16Z</time>
      </trkpt>
      <trkpt lat="40.915959" lon="-5.665334">
        <ele>819.007</ele>
        <time>2021-10-13T14:20:18Z</time>
      </trkpt>
      <trkpt lat="40.916044" lon="-5.665379">
        <ele>818.817</ele>
        <time>2021-10-13T14:20:19Z</time>
      </trkpt>
      <trkpt lat="40.916235" lon="-5.665450">
        <ele>818.408</ele>
        <time>2021-10-13T14:20:21Z</time>
      </trkpt>
      <trkpt lat="40.916469" lon="-5.665517">
        <ele>817.683</ele>
        <time>2021-10-13T14:20:23Z</time>
      </trkpt>
      <trkpt lat="40.916610" lon="-5.665555">
        <ele>815.831</ele>
        <time>2021-10-13T14:20:24Z</time>
      </trkpt>
      <trkpt lat="40.916753" lon="-5.665595">
        <ele>815.568</ele>
        <time>2021-10-13T14:20:25Z</time>
      </trkpt>
      <trkpt lat="40.916909" lon="-5.665637">
        <ele>814.918</ele>
        <time>2021-10-13T14:20:26Z</time>
      </trkpt>
      <trkpt lat="40.917241" lon="-5.665724">
        <ele>813.061</ele>
        <time>2021-10-13T14:20:28Z</time>
      </trkpt>
      <trkpt lat="40.917605" lon="-5.665821">
        <ele>810.837</ele>
        <time>2021-10-13T14:20:30Z</time>
      </trkpt>
      <trkpt lat="40.917784" lon="-5.665870">
        <ele>810.066</ele>
        <time>2021-10-13T14:20:31Z</time>
      </trkpt>
      <trkpt lat="40.917956" lon="-5.665922">
        <ele>809.541</ele>
        <time>2021-10-13T14:20:32Z</time>
      </trkpt>
      <trkpt lat="40.918253" lon="-5.666048">
        <ele>808.526</ele>
        <time>2021-10-13T14:20:34Z</time>
      </trkpt>
      <trkpt lat="40.918522" lon="-5.666217">
        <ele>807.947</ele>
        <time>2021-10-13T14:20:36Z</time>
      </trkpt>
      <trkpt lat="40.918656" lon="-5.666314">
        <ele>808.111</ele>
        <time>2021-10-13T14:20:37Z</time>
      </trkpt>
      <trkpt lat="40.918917" lon="-5.666579">
        <ele>808.708</ele>
        <time>2021-10-13T14:20:39Z</time>
      </trkpt>
      <trkpt lat="40.919045" lon="-5.666736">
        <ele>809.180</ele>
        <time>2021-10-13T14:20:40Z</time>
      </trkpt>
      <trkpt lat="40.919292" lon="-5.667098">
        <ele>811.258</ele>
        <time>2021-10-13T14:20:42Z</time>
      </trkpt>
      <trkpt lat="40.919516" lon="-5.667534">
        <ele>814.485</ele>
        <time>2021-10-13T14:20:44Z</time>
      </trkpt>
      <trkpt lat="40.919636" lon="-5.667764">
        <ele>815.655</ele>
        <time>2021-10-13T14:20:45Z</time>
      </trkpt>
      <trkpt lat="40.919774" lon="-5.667988">
        <ele>816.888</ele>
        <time>2021-10-13T14:20:46Z</time>
      </trkpt>
      <trkpt lat="40.920087" lon="-5.668405">
        <ele>820.114</ele>
        <time>2021-10-13T14:20:48Z</time>
      </trkpt>
      <trkpt lat="40.920492" lon="-5.668746">
        <ele>821.523</ele>
        <time>2021-10-13T14:20:50Z</time>
      </trkpt>
      <trkpt lat="40.921002" lon="-5.668962">
        <ele>822.958</ele>
        <time>2021-10-13T14:20:52Z</time>
      </trkpt>
      <trkpt lat="40.921550" lon="-5.669009">
        <ele>823.155</ele>
        <time>2021-10-13T14:20:54Z</time>
      </trkpt>
      <trkpt lat="40.921826" lon="-5.668972">
        <ele>823.607</ele>
        <time>2021-10-13T14:20:55Z</time>
      </trkpt>
      <trkpt lat="40.922099" lon="-5.668892">
        <ele>824.417</ele>
        <time>2021-10-13T14:20:56Z</time>
      </trkpt>
      <trkpt lat="40.922567" lon="-5.668666">
        <ele>825.308</ele>
        <time>2021-10-13T14:20:58Z</time>
      </trkpt>
      <trkpt lat="40.923018" lon="-5.668448">
        <ele>826.833</ele>
        <time>2021-10-13T14:21:00Z</time>
      </trkpt>
      <trkpt lat="40.923245" lon="-5.668360">
        <ele>826.991</ele>
        <time>2021-10-13T14:21:01Z</time>
      </trkpt>
      <trkpt lat="40.923480" lon="-5.668283">
        <ele>826.858</ele>
        <time>2021-10-13T14:21:02Z</time>
      </trkpt>
      <trkpt lat="40.923927" lon="-5.668187">
        <ele>825.538</ele>
        <time>2021-10-13T14:21:04Z</time>
      </trkpt>
      <trkpt lat="40.924153" lon="-5.668162">
        <ele>824.221</ele>
        <time>2021-10-13T14:21:05Z</time>
      </trkpt>
      <trkpt lat="40.924626" lon="-5.668155">
        <ele>821.987</ele>
        <time>2021-10-13T14:21:07Z</time>
      </trkpt>
      <trkpt lat="40.925152" lon="-5.668212">
        <ele>819.496</ele>
        <time>2021-10-13T14:21:09Z</time>
      </trkpt>
      <trkpt lat="40.925429" lon="-5.668251">
        <ele>818.881</ele>
        <time>2021-10-13T14:21:10Z</time>
      </trkpt>
      <trkpt lat="40.925984" lon="-5.668321">
        <ele>818.527</ele>
        <time>2021-10-13T14:21:12Z</time>
      </trkpt>
      <trkpt lat="40.926500" lon="-5.668380">
        <ele>818.868</ele>
        <time>2021-10-13T14:21:14Z</time>
      </trkpt>
      <trkpt lat="40.926992" lon="-5.668442">
        <ele>820.214</ele>
        <time>2021-10-13T14:21:16Z</time>
      </trkpt>
      <trkpt lat="40.927241" lon="-5.668473">
        <ele>821.408</ele>
        <time>2021-10-13T14:21:17Z</time>
      </trkpt>
      <trkpt lat="40.927744" lon="-5.668531">
        <ele>822.750</ele>
        <time>2021-10-13T14:21:19Z</time>
      </trkpt>
      <trkpt lat="40.927999" lon="-5.668564">
        <ele>823.578</ele>
        <time>2021-10-13T14:21:20Z</time>
      </trkpt>
      <trkpt lat="40.928510" lon="-5.668628">
        <ele>824.995</ele>
        <time>2021-10-13T14:21:22Z</time>
      </trkpt>
      <trkpt lat="40.928768" lon="-5.668659">
        <ele>826.385</ele>
        <time>2021-10-13T14:21:23Z</time>
      </trkpt>
      <trkpt lat="40.929263" lon="-5.668720">
        <ele>826.888</ele>
        <time>2021-10-13T14:21:25Z</time>
      </trkpt>
      <trkpt lat="40.929502" lon="-5.668750">
        <ele>826.984</ele>
        <time>2021-10-13T14:21:26Z</time>
      </trkpt>
      <trkpt lat="40.929923" lon="-5.668798">
        <ele>828.753</ele>
        <time>2021-10-13T14:21:28Z</time>
      </trkpt>
      <trkpt lat="40.930356" lon="-5.668849">
        <ele>829.998</ele>
        <time>2021-10-13T14:21:30Z</time>
      </trkpt>
      <trkpt lat="40.930584" lon="-5.668877">
        <ele>830.467</ele>
        <time>2021-10-13T14:21:31Z</time>
      </trkpt>
      <trkpt lat="40.930826" lon="-5.668900">
        <ele>830.681</ele>
        <time>2021-10-13T14:21:32Z</time>
      </trkpt>
      <trkpt lat="40.931303" lon="-5.668920">
        <ele>832.219</ele>
        <time>2021-10-13T14:21:34Z</time>
      </trkpt>
      <trkpt lat="40.931557" lon="-5.668925">
        <ele>832.708</ele>
        <time>2021-10-13T14:21:35Z</time>
      </trkpt>
      <trkpt lat="40.931813" lon="-5.668925">
        <ele>833.444</ele>
        <time>2021-10-13T14:21:36Z</time>
      </trkpt>
      <trkpt lat="40.932070" lon="-5.668924">
        <ele>834.052</ele>
        <time>2021-10-13T14:21:37Z</time>
      </trkpt>
      <trkpt lat="40.932565" lon="-5.668877">
        <ele>834.869</ele>
        <time>2021-10-13T14:21:39Z</time>
      </trkpt>
      <trkpt lat="40.932807" lon="-5.668836">
        <ele>834.729</ele>
        <time>2021-10-13T14:21:40Z</time>
      </trkpt>
      <trkpt lat="40.933258" lon="-5.668700">
        <ele>834.742</ele>
        <time>2021-10-13T14:21:42Z</time>
      </trkpt>
      <trkpt lat="40.933470" lon="-5.668606">
        <ele>834.578</ele>
        <time>2021-10-13T14:21:43Z</time>
      </trkpt>
      <trkpt lat="40.933679" lon="-5.668503">
        <ele>833.977</ele>
        <time>2021-10-13T14:21:44Z</time>
      </trkpt>
      <trkpt lat="40.934079" lon="-5.668309">
        <ele>834.272</ele>
        <time>2021-10-13T14:21:46Z</time>
      </trkpt>
      <trkpt lat="40.934485" lon="-5.668157">
        <ele>832.849</ele>
        <time>2021-10-13T14:21:48Z</time>
      </trkpt>
      <trkpt lat="40.934704" lon="-5.668094">
        <ele>832.202</ele>
        <time>2021-10-13T14:21:49Z</time>
      </trkpt>
      <trkpt lat="40.935154" lon="-5.668017">
        <ele>831.422</ele>
        <time>2021-10-13T14:21:51Z</time>
      </trkpt>
      <trkpt lat="40.935605" lon="-5.668001">
        <ele>831.308</ele>
        <time>2021-10-13T14:21:53Z</time>
      </trkpt>
      <trkpt lat="40.935818" lon="-5.668015">
        <ele>830.782</ele>
        <time>2021-10-13T14:21:54Z</time>
      </trkpt>
      <trkpt lat="40.936020" lon="-5.668036">
        <ele>830.580</ele>
        <time>2021-10-13T14:21:55Z</time>
      </trkpt>
      <trkpt lat="40.936218" lon="-5.668060">
        <ele>830.487</ele>
        <time>2021-10-13T14:21:56Z</time>
      </trkpt>
      <trkpt lat="40.936571" lon="-5.668107">
        <ele>829.577</ele>
        <time>2021-10-13T14:21:58Z</time>
      </trkpt>
      <trkpt lat="40.936754" lon="-5.668136">
        <ele>829.390</ele>
        <time>2021-10-13T14:21:59Z</time>
      </trkpt>
      <trkpt lat="40.937124" lon="-5.668193">
        <ele>828.336</ele>
        <time>2021-10-13T14:22:01Z</time>
      </trkpt>
      <trkpt lat="40.937332" lon="-5.668225">
        <ele>828.315</ele>
        <time>2021-10-13T14:22:02Z</time>
      </trkpt>
      <trkpt lat="40.937729" lon="-5.668286">
        <ele>828.150</ele>
        <time>2021-10-13T14:22:04Z</time>
      </trkpt>
      <trkpt lat="40.937931" lon="-5.668318">
        <ele>828.337</ele>
        <time>2021-10-13T14:22:05Z</time>
      </trkpt>
      <trkpt lat="40.938337" lon="-5.668380">
        <ele>827.549</ele>
        <time>2021-10-13T14:22:07Z</time>
      </trkpt>
      <trkpt lat="40.938728" lon="-5.668441">
        <ele>827.413</ele>
        <time>2021-10-13T14:22:09Z</time>
      </trkpt>
      <trkpt lat="40.939075" lon="-5.668495">
        <ele>826.808</ele>
        <time>2021-10-13T14:22:11Z</time>
      </trkpt>
      <trkpt lat="40.939229" lon="-5.668521">
        <ele>826.991</ele>
        <time>2021-10-13T14:22:12Z</time>
      </trkpt>
      <trkpt lat="40.939510" lon="-5.668562">
        <ele>826.989</ele>
        <time>2021-10-13T14:22:14Z</time>
      </trkpt>
      <trkpt lat="40.939642" lon="-5.668581">
        <ele>826.816</ele>
        <time>2021-10-13T14:22:15Z</time>
      </trkpt>
      <trkpt lat="40.939892" lon="-5.668622">
        <ele>826.746</ele>
        <time>2021-10-13T14:22:17Z</time>
      </trkpt>
      <trkpt lat="40.940119" lon="-5.668667">
        <ele>826.599</ele>
        <time>2021-10-13T14:22:19Z</time>
      </trkpt>
      <trkpt lat="40.940329" lon="-5.668693">
        <ele>826.275</ele>
        <time>2021-10-13T14:22:21Z</time>
      </trkpt>
      <trkpt lat="40.940423" lon="-5.668705">
        <ele>825.334</ele>
        <time>2021-10-13T14:22:22Z</time>
      </trkpt>
      <trkpt lat="40.940563" lon="-5.668713">
        <ele>824.599</ele>
        <time>2021-10-13T14:22:24Z</time>
      </trkpt>
      <trkpt lat="40.940614" lon="-5.668704">
        <ele>824.648</ele>
        <time>2021-10-13T14:22:26Z</time>
      </trkpt>
      <trkpt lat="40.940687" lon="-5.668649">
        <ele>824.461</ele>
        <time>2021-10-13T14:22:29Z</time>
      </trkpt>
      <trkpt lat="40.940784" lon="-5.668491">
        <ele>824.317</ele>
        <time>2021-10-13T14:22:31Z</time>
      </trkpt>
      <trkpt lat="40.940851" lon="-5.668388">
        <ele>823.908</ele>
        <time>2021-10-13T14:22:32Z</time>
      </trkpt>
      <trkpt lat="40.941024" lon="-5.668249">
        <ele>822.652</ele>
        <time>2021-10-13T14:22:34Z</time>
      </trkpt>
      <trkpt lat="40.941242" lon="-5.668211">
        <ele>821.870</ele>
        <time>2021-10-13T14:22:36Z</time>
      </trkpt>
      <trkpt lat="40.941445" lon="-5.668284">
        <ele>820.127</ele>
        <time>2021-10-13T14:22:38Z</time>
      </trkpt>
      <trkpt lat="40.941595" lon="-5.668439">
        <ele>819.747</ele>
        <time>2021-10-13T14:22:40Z</time>
      </trkpt>
      <trkpt lat="40.941646" lon="-5.668539">
        <ele>819.870</ele>
        <time>2021-10-13T14:22:41Z</time>
      </trkpt>
      <trkpt lat="40.941682" lon="-5.668642">
        <ele>819.776</ele>
        <time>2021-10-13T14:22:42Z</time>
      </trkpt>
      <trkpt lat="40.941736" lon="-5.668803">
        <ele>819.555</ele>
        <time>2021-10-13T14:22:44Z</time>
      </trkpt>
      <trkpt lat="40.941821" lon="-5.668904">
        <ele>818.710</ele>
        <time>2021-10-13T14:22:46Z</time>
      </trkpt>
      <trkpt lat="40.941884" lon="-5.668930">
        <ele>818.626</ele>
        <time>2021-10-13T14:22:47Z</time>
      </trkpt>
      <trkpt lat="40.941954" lon="-5.668945">
        <ele>818.347</ele>
        <time>2021-10-13T14:22:48Z</time>
      </trkpt>
      <trkpt lat="40.942075" lon="-5.668960">
        <ele>818.211</ele>
        <time>2021-10-13T14:22:50Z</time>
      </trkpt>
      <trkpt lat="40.942131" lon="-5.668969">
        <ele>818.208</ele>
        <time>2021-10-13T14:22:51Z</time>
      </trkpt>
      <trkpt lat="40.942184" lon="-5.668978">
        <ele>817.620</ele>
        <time>2021-10-13T14:22:52Z</time>
      </trkpt>
      <trkpt lat="40.942303" lon="-5.668996">
        <ele>817.278</ele>
        <time>2021-10-13T14:22:54Z</time>
      </trkpt>
      <trkpt lat="40.942487" lon="-5.669024">
        <ele>817.095</ele>
        <time>2021-10-13T14:22:56Z</time>
      </trkpt>
      <trkpt lat="40.942714" lon="-5.669063">
        <ele>815.795</ele>
        <time>2021-10-13T14:22:58Z</time>
      </trkpt>
      <trkpt lat="40.942964" lon="-5.669109">
        <ele>814.938</ele>
        <time>2021-10-13T14:23:00Z</time>
      </trkpt>
      <trkpt lat="40.943093" lon="-5.669133">
        <ele>814.974</ele>
        <time>2021-10-13T14:23:01Z</time>
      </trkpt>
      <trkpt lat="40.943228" lon="-5.669157">
        <ele>813.523</ele>
        <time>2021-10-13T14:23:02Z</time>
      </trkpt>
      <trkpt lat="40.943502" lon="-5.669200">
        <ele>813.478</ele>
        <time>2021-10-13T14:23:04Z</time>
      </trkpt>
      <trkpt lat="40.943797" lon="-5.669248">
        <ele>812.947</ele>
        <time>2021-10-13T14:23:06Z</time>
      </trkpt>
      <trkpt lat="40.944085" lon="-5.669295">
        <ele>812.829</ele>
        <time>2021-10-13T14:23:08Z</time>
      </trkpt>
      <trkpt lat="40.944365" lon="-5.669341">
        <ele>811.821</ele>
        <time>2021-10-13T14:23:10Z</time>
      </trkpt>
      <trkpt lat="40.944643" lon="-5.669387">
        <ele>812.108</ele>
        <time>2021-10-13T14:23:12Z</time>
      </trkpt>
      <trkpt lat="40.944772" lon="-5.669409">
        <ele>811.822</ele>
        <time>2021-10-13T14:23:13Z</time>
      </trkpt>
      <trkpt lat="40.944898" lon="-5.669430">
        <ele>811.580</ele>
        <time>2021-10-13T14:23:14Z</time>
      </trkpt>
      <trkpt lat="40.945151" lon="-5.669464">
        <ele>811.847</ele>
        <time>2021-10-13T14:23:16Z</time>
      </trkpt>
      <trkpt lat="40.945280" lon="-5.669478">
        <ele>812.037</ele>
        <time>2021-10-13T14:23:17Z</time>
      </trkpt>
      <trkpt lat="40.945556" lon="-5.669516">
        <ele>812.170</ele>
        <time>2021-10-13T14:23:19Z</time>
      </trkpt>
      <trkpt lat="40.945708" lon="-5.669538">
        <ele>812.246</ele>
        <time>2021-10-13T14:23:20Z</time>
      </trkpt>
      <trkpt lat="40.946024" lon="-5.669600">
        <ele>810.995</ele>
        <time>2021-10-13T14:23:22Z</time>
      </trkpt>
      <trkpt lat="40.946185" lon="-5.669636">
        <ele>811.240</ele>
        <time>2021-10-13T14:23:23Z</time>
      </trkpt>
      <trkpt lat="40.946502" lon="-5.669703">
        <ele>810.746</ele>
        <time>2021-10-13T14:23:25Z</time>
      </trkpt>
      <trkpt lat="40.946653" lon="-5.669732">
        <ele>810.388</ele>
        <time>2021-10-13T14:23:26Z</time>
      </trkpt>
      <trkpt lat="40.946915" lon="-5.669779">
        <ele>809.116</ele>
        <time>2021-10-13T14:23:28Z</time>
      </trkpt>
      <trkpt lat="40.947041" lon="-5.669796">
        <ele>809.108</ele>
        <time>2021-10-13T14:23:29Z</time>
      </trkpt>
      <trkpt lat="40.947276" lon="-5.669830">
        <ele>809.052</ele>
        <time>2021-10-13T14:23:31Z</time>
      </trkpt>
      <trkpt lat="40.947400" lon="-5.669850">
        <ele>808.380</ele>
        <time>2021-10-13T14:23:32Z</time>
      </trkpt>
      <trkpt lat="40.947627" lon="-5.669887">
        <ele>808.027</ele>
        <time>2021-10-13T14:23:34Z</time>
      </trkpt>
      <trkpt lat="40.947732" lon="-5.669908">
        <ele>808.077</ele>
        <time>2021-10-13T14:23:35Z</time>
      </trkpt>
      <trkpt lat="40.947936" lon="-5.669940">
        <ele>808.170</ele>
        <time>2021-10-13T14:23:37Z</time>
      </trkpt>
      <trkpt lat="40.948047" lon="-5.669955">
        <ele>807.876</ele>
        <time>2021-10-13T14:23:38Z</time>
      </trkpt>
      <trkpt lat="40.948261" lon="-5.669995">
        <ele>808.115</ele>
        <time>2021-10-13T14:23:40Z</time>
      </trkpt>
      <trkpt lat="40.948443" lon="-5.670021">
        <ele>808.530</ele>
        <time>2021-10-13T14:23:42Z</time>
      </trkpt>
      <trkpt lat="40.948585" lon="-5.670040">
        <ele>807.872</ele>
        <time>2021-10-13T14:23:44Z</time>
      </trkpt>
      <trkpt lat="40.948640" lon="-5.670048">
        <ele>808.213</ele>
        <time>2021-10-13T14:23:45Z</time>
      </trkpt>
      <trkpt lat="40.948734" lon="-5.670065">
        <ele>808.514</ele>
        <time>2021-10-13T14:23:47Z</time>
      </trkpt>
      <trkpt lat="40.948780" lon="-5.670073">
        <ele>808.508</ele>
        <time>2021-10-13T14:23:48Z</time>
      </trkpt>
      <trkpt lat="40.948876" lon="-5.670087">
        <ele>808.565</ele>
        <time>2021-10-13T14:23:50Z</time>
      </trkpt>
      <trkpt lat="40.948988" lon="-5.670101">
        <ele>808.843</ele>
        <time>2021-10-13T14:23:52Z</time>
      </trkpt>
      <trkpt lat="40.949056" lon="-5.670109">
        <ele>809.190</ele>
        <time>2021-10-13T14:23:53Z</time>
      </trkpt>
      <trkpt lat="40.949130" lon="-5.670120">
        <ele>809.410</ele>
        <time>2021-10-13T14:23:54Z</time>
      </trkpt>
      <trkpt lat="40.949212" lon="-5.670132">
        <ele>811.143</ele>
        <time>2021-10-13T14:23:55Z</time>
      </trkpt>
      <trkpt lat="40.949307" lon="-5.670144">
        <ele>811.819</ele>
        <time>2021-10-13T14:23:56Z</time>
      </trkpt>
      <trkpt lat="40.949499" lon="-5.670157">
        <ele>812.388</ele>
        <time>2021-10-13T14:23:58Z</time>
      </trkpt>
      <trkpt lat="40.949689" lon="-5.670170">
        <ele>813.343</ele>
        <time>2021-10-13T14:24:00Z</time>
      </trkpt>
      <trkpt lat="40.949883" lon="-5.670181">
        <ele>813.747</ele>
        <time>2021-10-13T14:24:02Z</time>
      </trkpt>
      <trkpt lat="40.950073" lon="-5.670190">
        <ele>814.929</ele>
        <time>2021-10-13T14:24:04Z</time>
      </trkpt>
      <trkpt lat="40.950282" lon="-5.670201">
        <ele>815.021</ele>
        <time>2021-10-13T14:24:06Z</time>
      </trkpt>
      <trkpt lat="40.950394" lon="-5.670200">
        <ele>814.608</ele>
        <time>2021-10-13T14:24:07Z</time>
      </trkpt>
      <trkpt lat="40.950615" lon="-5.670181">
        <ele>813.272</ele>
        <time>2021-10-13T14:24:09Z</time>
      </trkpt>
      <trkpt lat="40.950722" lon="-5.670170">
        <ele>812.410</ele>
        <time>2021-10-13T14:24:10Z</time>
      </trkpt>
      <trkpt lat="40.950824" lon="-5.670161">
        <ele>811.737</ele>
        <time>2021-10-13T14:24:11Z</time>
      </trkpt>
      <trkpt lat="40.951027" lon="-5.670134">
        <ele>810.267</ele>
        <time>2021-10-13T14:24:13Z</time>
      </trkpt>
      <trkpt lat="40.951218" lon="-5.670112">
        <ele>806.220</ele>
        <time>2021-10-13T14:24:15Z</time>
      </trkpt>
      <trkpt lat="40.951407" lon="-5.670084">
        <ele>804.346</ele>
        <time>2021-10-13T14:24:17Z</time>
      </trkpt>
      <trkpt lat="40.951606" lon="-5.670050">
        <ele>802.795</ele>
        <time>2021-10-13T14:24:19Z</time>
      </trkpt>
      <trkpt lat="40.951707" lon="-5.670031">
        <ele>800.840</ele>
        <time>2021-10-13T14:24:20Z</time>
      </trkpt>
      <trkpt lat="40.951906" lon="-5.669997">
        <ele>800.326</ele>
        <time>2021-10-13T14:24:22Z</time>
      </trkpt>
      <trkpt lat="40.951998" lon="-5.669977">
        <ele>800.047</ele>
        <time>2021-10-13T14:24:23Z</time>
      </trkpt>
      <trkpt lat="40.952171" lon="-5.669936">
        <ele>799.711</ele>
        <time>2021-10-13T14:24:25Z</time>
      </trkpt>
      <trkpt lat="40.952255" lon="-5.669915">
        <ele>799.508</ele>
        <time>2021-10-13T14:24:26Z</time>
      </trkpt>
      <trkpt lat="40.952408" lon="-5.669879">
        <ele>798.640</ele>
        <time>2021-10-13T14:24:28Z</time>
      </trkpt>
      <trkpt lat="40.952482" lon="-5.669860">
        <ele>798.058</ele>
        <time>2021-10-13T14:24:29Z</time>
      </trkpt>
      <trkpt lat="40.952624" lon="-5.669823">
        <ele>796.735</ele>
        <time>2021-10-13T14:24:31Z</time>
      </trkpt>
      <trkpt lat="40.952698" lon="-5.669802">
        <ele>796.585</ele>
        <time>2021-10-13T14:24:32Z</time>
      </trkpt>
      <trkpt lat="40.952859" lon="-5.669749">
        <ele>795.938</ele>
        <time>2021-10-13T14:24:34Z</time>
      </trkpt>
      <trkpt lat="40.952947" lon="-5.669720">
        <ele>795.514</ele>
        <time>2021-10-13T14:24:35Z</time>
      </trkpt>
      <trkpt lat="40.953028" lon="-5.669692">
        <ele>795.193</ele>
        <time>2021-10-13T14:24:36Z</time>
      </trkpt>
      <trkpt lat="40.953162" lon="-5.669647">
        <ele>793.938</ele>
        <time>2021-10-13T14:24:38Z</time>
      </trkpt>
      <trkpt lat="40.953260" lon="-5.669611">
        <ele>793.199</ele>
        <time>2021-10-13T14:24:40Z</time>
      </trkpt>
      <trkpt lat="40.953328" lon="-5.669588">
        <ele>792.207</ele>
        <time>2021-10-13T14:24:42Z</time>
      </trkpt>
      <trkpt lat="40.953405" lon="-5.669562">
        <ele>791.927</ele>
        <time>2021-10-13T14:24:44Z</time>
      </trkpt>
      <trkpt lat="40.953482" lon="-5.669522">
        <ele>791.608</ele>
        <time>2021-10-13T14:24:46Z</time>
      </trkpt>
      <trkpt lat="40.953538" lon="-5.669483">
        <ele>791.427</ele>
        <time>2021-10-13T14:24:47Z</time>
      </trkpt>
      <trkpt lat="40.953606" lon="-5.669414">
        <ele>791.515</ele>
        <time>2021-10-13T14:24:49Z</time>
      </trkpt>
      <trkpt lat="40.953652" lon="-5.669339">
        <ele>814.192</ele>
        <time>2021-10-13T14:24:50Z</time>
      </trkpt>
      <trkpt lat="40.953694" lon="-5.669244">
        <ele>836.632</ele>
        <time>2021-10-13T14:24:51Z</time>
      </trkpt>
      <trkpt lat="40.953730" lon="-5.669137">
        <ele>836.625</ele>
        <time>2021-10-13T14:24:52Z</time>
      </trkpt>
      <trkpt lat="40.953814" lon="-5.668963">
        <ele>836.571</ele>
        <time>2021-10-13T14:24:54Z</time>
      </trkpt>
      <trkpt lat="40.953947" lon="-5.668840">
        <ele>836.570</ele>
        <time>2021-10-13T14:24:56Z</time>
      </trkpt>
      <trkpt lat="40.954121" lon="-5.668808">
        <ele>836.585</ele>
        <time>2021-10-13T14:24:58Z</time>
      </trkpt>
      <trkpt lat="40.954290" lon="-5.668877">
        <ele>836.521</ele>
        <time>2021-10-13T14:25:00Z</time>
      </trkpt>
      <trkpt lat="40.954430" lon="-5.669050">
        <ele>836.541</ele>
        <time>2021-10-13T14:25:02Z</time>
      </trkpt>
      <trkpt lat="40.954514" lon="-5.669291">
        <ele>836.505</ele>
        <time>2021-10-13T14:25:04Z</time>
      </trkpt>
      <trkpt lat="40.954552" lon="-5.669405">
        <ele>836.508</ele>
        <time>2021-10-13T14:25:05Z</time>
      </trkpt>
      <trkpt lat="40.954601" lon="-5.669498">
        <ele>836.490</ele>
        <time>2021-10-13T14:25:06Z</time>
      </trkpt>
      <trkpt lat="40.954661" lon="-5.669580">
        <ele>836.498</ele>
        <time>2021-10-13T14:25:07Z</time>
      </trkpt>
      <trkpt lat="40.954815" lon="-5.669741">
        <ele>836.425</ele>
        <time>2021-10-13T14:25:09Z</time>
      </trkpt>
      <trkpt lat="40.954911" lon="-5.669819">
        <ele>836.485</ele>
        <time>2021-10-13T14:25:10Z</time>
      </trkpt>
      <trkpt lat="40.955127" lon="-5.669966">
        <ele>836.588</ele>
        <time>2021-10-13T14:25:12Z</time>
      </trkpt>
      <trkpt lat="40.955233" lon="-5.670034">
        <ele>836.524</ele>
        <time>2021-10-13T14:25:13Z</time>
      </trkpt>
      <trkpt lat="40.955432" lon="-5.670183">
        <ele>836.593</ele>
        <time>2021-10-13T14:25:15Z</time>
      </trkpt>
      <trkpt lat="40.955623" lon="-5.670364">
        <ele>836.528</ele>
        <time>2021-10-13T14:25:17Z</time>
      </trkpt>
      <trkpt lat="40.955705" lon="-5.670460">
        <ele>836.535</ele>
        <time>2021-10-13T14:25:18Z</time>
      </trkpt>
      <trkpt lat="40.955836" lon="-5.670643">
        <ele>836.586</ele>
        <time>2021-10-13T14:25:20Z</time>
      </trkpt>
      <trkpt lat="40.955884" lon="-5.670723">
        <ele>836.514</ele>
        <time>2021-10-13T14:25:21Z</time>
      </trkpt>
      <trkpt lat="40.955925" lon="-5.670802">
        <ele>836.508</ele>
        <time>2021-10-13T14:25:22Z</time>
      </trkpt>
      <trkpt lat="40.955966" lon="-5.670887">
        <ele>836.581</ele>
        <time>2021-10-13T14:25:23Z</time>
      </trkpt>
      <trkpt lat="40.956051" lon="-5.671086">
        <ele>836.569</ele>
        <time>2021-10-13T14:25:25Z</time>
      </trkpt>
      <trkpt lat="40.956093" lon="-5.671199">
        <ele>836.566</ele>
        <time>2021-10-13T14:25:26Z</time>
      </trkpt>
      <trkpt lat="40.956171" lon="-5.671435">
        <ele>836.466</ele>
        <time>2021-10-13T14:25:28Z</time>
      </trkpt>
      <trkpt lat="40.956260" lon="-5.671710">
        <ele>836.419</ele>
        <time>2021-10-13T14:25:30Z</time>
      </trkpt>
      <trkpt lat="40.956347" lon="-5.671961">
        <ele>836.575</ele>
        <time>2021-10-13T14:25:32Z</time>
      </trkpt>
      <trkpt lat="40.956437" lon="-5.672202">
        <ele>836.544</ele>
        <time>2021-10-13T14:25:34Z</time>
      </trkpt>
      <trkpt lat="40.956488" lon="-5.672331">
        <ele>836.589</ele>
        <time>2021-10-13T14:25:35Z</time>
      </trkpt>
      <trkpt lat="40.956540" lon="-5.672463">
        <ele>836.542</ele>
        <time>2021-10-13T14:25:36Z</time>
      </trkpt>
      <trkpt lat="40.956655" lon="-5.672742">
        <ele>836.622</ele>
        <time>2021-10-13T14:25:38Z</time>
      </trkpt>
      <trkpt lat="40.956770" lon="-5.673000">
        <ele>836.614</ele>
        <time>2021-10-13T14:25:40Z</time>
      </trkpt>
      <trkpt lat="40.956825" lon="-5.673114">
        <ele>836.608</ele>
        <time>2021-10-13T14:25:41Z</time>
      </trkpt>
      <trkpt lat="40.956933" lon="-5.673310">
        <ele>836.762</ele>
        <time>2021-10-13T14:25:43Z</time>
      </trkpt>
      <trkpt lat="40.956982" lon="-5.673396">
        <ele>836.760</ele>
        <time>2021-10-13T14:25:44Z</time>
      </trkpt>
      <trkpt lat="40.957071" lon="-5.673553">
        <ele>836.787</ele>
        <time>2021-10-13T14:25:46Z</time>
      </trkpt>
      <trkpt lat="40.957115" lon="-5.673633">
        <ele>836.737</ele>
        <time>2021-10-13T14:25:47Z</time>
      </trkpt>
      <trkpt lat="40.957163" lon="-5.673718">
        <ele>836.770</ele>
        <time>2021-10-13T14:25:48Z</time>
      </trkpt>
      <trkpt lat="40.957254" lon="-5.673879">
        <ele>786.146</ele>
        <time>2021-10-13T14:25:50Z</time>
      </trkpt>
      <trkpt lat="40.957292" lon="-5.673948">
        <ele>782.435</ele>
        <time>2021-10-13T14:25:51Z</time>
      </trkpt>
      <trkpt lat="40.957326" lon="-5.674001">
        <ele>782.440</ele>
        <time>2021-10-13T14:25:53Z</time>
      </trkpt>
      <trkpt lat="40.957359" lon="-5.674052">
        <ele>782.515</ele>
        <time>2021-10-13T14:25:57Z</time>
      </trkpt>
      <trkpt lat="40.957385" lon="-5.674102">
        <ele>783.165</ele>
        <time>2021-10-13T14:26:02Z</time>
      </trkpt>
      <trkpt lat="40.957420" lon="-5.674177">
        <ele>783.211</ele>
        <time>2021-10-13T14:26:04Z</time>
      </trkpt>
      <trkpt lat="40.957445" lon="-5.674228">
        <ele>783.508</ele>
        <time>2021-10-13T14:26:06Z</time>
      </trkpt>
      <trkpt lat="40.957474" lon="-5.674291">
        <ele>783.499</ele>
        <time>2021-10-13T14:26:09Z</time>
      </trkpt>
      <trkpt lat="40.957500" lon="-5.674342">
        <ele>783.447</ele>
        <time>2021-10-13T14:26:12Z</time>
      </trkpt>
      <trkpt lat="40.957522" lon="-5.674394">
        <ele>783.464</ele>
        <time>2021-10-13T14:26:14Z</time>
      </trkpt>
      <trkpt lat="40.957588" lon="-5.674514">
        <ele>783.334</ele>
        <time>2021-10-13T14:26:16Z</time>
      </trkpt>
      <trkpt lat="40.957620" lon="-5.674573">
        <ele>783.317</ele>
        <time>2021-10-13T14:26:17Z</time>
      </trkpt>
      <trkpt lat="40.957682" lon="-5.674693">
        <ele>782.793</ele>
        <time>2021-10-13T14:26:19Z</time>
      </trkpt>
      <trkpt lat="40.957714" lon="-5.674746">
        <ele>782.752</ele>
        <time>2021-10-13T14:26:20Z</time>
      </trkpt>
      <trkpt lat="40.957748" lon="-5.674790">
        <ele>782.897</ele>
        <time>2021-10-13T14:26:21Z</time>
      </trkpt>
      <trkpt lat="40.957808" lon="-5.674849">
        <ele>783.022</ele>
        <time>2021-10-13T14:26:23Z</time>
      </trkpt>
      <trkpt lat="40.957884" lon="-5.674884">
        <ele>783.262</ele>
        <time>2021-10-13T14:26:25Z</time>
      </trkpt>
      <trkpt lat="40.957947" lon="-5.674903">
        <ele>783.308</ele>
        <time>2021-10-13T14:26:26Z</time>
      </trkpt>
      <trkpt lat="40.958120" lon="-5.674928">
        <ele>783.408</ele>
        <time>2021-10-13T14:26:28Z</time>
      </trkpt>
      <trkpt lat="40.958225" lon="-5.674908">
        <ele>783.230</ele>
        <time>2021-10-13T14:26:29Z</time>
      </trkpt>
      <trkpt lat="40.958328" lon="-5.674859">
        <ele>783.238</ele>
        <time>2021-10-13T14:26:30Z</time>
      </trkpt>
      <trkpt lat="40.958424" lon="-5.674786">
        <ele>783.085</ele>
        <time>2021-10-13T14:26:31Z</time>
      </trkpt>
      <trkpt lat="40.958512" lon="-5.674706">
        <ele>783.085</ele>
        <time>2021-10-13T14:26:32Z</time>
      </trkpt>
      <trkpt lat="40.958665" lon="-5.674575">
        <ele>782.538</ele>
        <time>2021-10-13T14:26:34Z</time>
      </trkpt>
      <trkpt lat="40.958819" lon="-5.674446">
        <ele>781.294</ele>
        <time>2021-10-13T14:26:36Z</time>
      </trkpt>
      <trkpt lat="40.958899" lon="-5.674372">
        <ele>781.273</ele>
        <time>2021-10-13T14:26:37Z</time>
      </trkpt>
      <trkpt lat="40.958985" lon="-5.674292">
        <ele>781.278</ele>
        <time>2021-10-13T14:26:38Z</time>
      </trkpt>
      <trkpt lat="40.959076" lon="-5.674209">
        <ele>781.332</ele>
        <time>2021-10-13T14:26:39Z</time>
      </trkpt>
      <trkpt lat="40.959171" lon="-5.674124">
        <ele>782.092</ele>
        <time>2021-10-13T14:26:40Z</time>
      </trkpt>
      <trkpt lat="40.959374" lon="-5.673944">
        <ele>781.811</ele>
        <time>2021-10-13T14:26:42Z</time>
      </trkpt>
      <trkpt lat="40.959572" lon="-5.673777">
        <ele>781.508</ele>
        <time>2021-10-13T14:26:44Z</time>
      </trkpt>
      <trkpt lat="40.959724" lon="-5.673646">
        <ele>781.491</ele>
        <time>2021-10-13T14:26:46Z</time>
      </trkpt>
      <trkpt lat="40.959778" lon="-5.673593">
        <ele>781.799</ele>
        <time>2021-10-13T14:26:47Z</time>
      </trkpt>
      <trkpt lat="40.959863" lon="-5.673515">
        <ele>781.876</ele>
        <time>2021-10-13T14:26:49Z</time>
      </trkpt>
      <trkpt lat="40.959906" lon="-5.673473">
        <ele>782.196</ele>
        <time>2021-10-13T14:26:52Z</time>
      </trkpt>
      <trkpt lat="40.959950" lon="-5.673435">
        <ele>782.119</ele>
        <time>2021-10-13T14:27:16Z</time>
      </trkpt>
      <trkpt lat="40.960034" lon="-5.673355">
        <ele>782.375</ele>
        <time>2021-10-13T14:27:18Z</time>
      </trkpt>
      <trkpt lat="40.960078" lon="-5.673315">
        <ele>782.314</ele>
        <time>2021-10-13T14:27:19Z</time>
      </trkpt>
      <trkpt lat="40.960135" lon="-5.673256">
        <ele>782.339</ele>
        <time>2021-10-13T14:27:21Z</time>
      </trkpt>
      <trkpt lat="40.960193" lon="-5.673181">
        <ele>782.484</ele>
        <time>2021-10-13T14:27:23Z</time>
      </trkpt>
      <trkpt lat="40.960231" lon="-5.673123">
        <ele>782.407</ele>
        <time>2021-10-13T14:27:24Z</time>
      </trkpt>
      <trkpt lat="40.960312" lon="-5.673003">
        <ele>782.417</ele>
        <time>2021-10-13T14:27:26Z</time>
      </trkpt>
      <trkpt lat="40.960413" lon="-5.672960">
        <ele>782.408</ele>
        <time>2021-10-13T14:27:28Z</time>
      </trkpt>
      <trkpt lat="40.960515" lon="-5.673028">
        <ele>782.336</ele>
        <time>2021-10-13T14:27:30Z</time>
      </trkpt>
      <trkpt lat="40.960544" lon="-5.673108">
        <ele>782.354</ele>
        <time>2021-10-13T14:27:31Z</time>
      </trkpt>
      <trkpt lat="40.960561" lon="-5.673202">
        <ele>782.331</ele>
        <time>2021-10-13T14:27:32Z</time>
      </trkpt>
      <trkpt lat="40.960602" lon="-5.673413">
        <ele>782.351</ele>
        <time>2021-10-13T14:27:34Z</time>
      </trkpt>
      <trkpt lat="40.960688" lon="-5.673649">
        <ele>782.314</ele>
        <time>2021-10-13T14:27:36Z</time>
      </trkpt>
      <trkpt lat="40.960822" lon="-5.673922">
        <ele>782.320</ele>
        <time>2021-10-13T14:27:38Z</time>
      </trkpt>
      <trkpt lat="40.960897" lon="-5.674060">
        <ele>782.399</ele>
        <time>2021-10-13T14:27:39Z</time>
      </trkpt>
      <trkpt lat="40.961039" lon="-5.674323">
        <ele>782.334</ele>
        <time>2021-10-13T14:27:41Z</time>
      </trkpt>
      <trkpt lat="40.961105" lon="-5.674427">
        <ele>782.359</ele>
        <time>2021-10-13T14:27:42Z</time>
      </trkpt>
      <trkpt lat="40.961236" lon="-5.674597">
        <ele>782.403</ele>
        <time>2021-10-13T14:27:44Z</time>
      </trkpt>
      <trkpt lat="40.961375" lon="-5.674722">
        <ele>782.423</ele>
        <time>2021-10-13T14:27:46Z</time>
      </trkpt>
      <trkpt lat="40.961439" lon="-5.674759">
        <ele>782.408</ele>
        <time>2021-10-13T14:27:47Z</time>
      </trkpt>
      <trkpt lat="40.961600" lon="-5.674808">
        <ele>782.453</ele>
        <time>2021-10-13T14:27:49Z</time>
      </trkpt>
      <trkpt lat="40.961766" lon="-5.674875">
        <ele>782.491</ele>
        <time>2021-10-13T14:27:51Z</time>
      </trkpt>
      <trkpt lat="40.961830" lon="-5.674933">
        <ele>782.488</ele>
        <time>2021-10-13T14:27:52Z</time>
      </trkpt>
      <trkpt lat="40.961872" lon="-5.675014">
        <ele>782.488</ele>
        <time>2021-10-13T14:27:53Z</time>
      </trkpt>
      <trkpt lat="40.961900" lon="-5.675257">
        <ele>782.411</ele>
        <time>2021-10-13T14:27:55Z</time>
      </trkpt>
      <trkpt lat="40.961920" lon="-5.675402">
        <ele>782.427</ele>
        <time>2021-10-13T14:27:56Z</time>
      </trkpt>
      <trkpt lat="40.962026" lon="-5.675649">
        <ele>782.466</ele>
        <time>2021-10-13T14:27:58Z</time>
      </trkpt>
      <trkpt lat="40.962090" lon="-5.675758">
        <ele>782.471</ele>
        <time>2021-10-13T14:27:59Z</time>
      </trkpt>
      <trkpt lat="40.962145" lon="-5.675850">
        <ele>782.438</ele>
        <time>2021-10-13T14:28:00Z</time>
      </trkpt>
      <trkpt lat="40.962184" lon="-5.675913">
        <ele>782.470</ele>
        <time>2021-10-13T14:28:01Z</time>
      </trkpt>
      <trkpt lat="40.962216" lon="-5.675960">
        <ele>789.117</ele>
        <time>2021-10-13T14:28:51Z</time>
      </trkpt>
      <trkpt lat="40.962235" lon="-5.676021">
        <ele>789.108</ele>
        <time>2021-10-13T14:28:52Z</time>
      </trkpt>
      <trkpt lat="40.962269" lon="-5.676095">
        <ele>789.111</ele>
        <time>2021-10-13T14:28:53Z</time>
      </trkpt>
      <trkpt lat="40.962450" lon="-5.676370">
        <ele>789.219</ele>
        <time>2021-10-13T14:28:55Z</time>
      </trkpt>
      <trkpt lat="40.962571" lon="-5.676567">
        <ele>789.326</ele>
        <time>2021-10-13T14:28:56Z</time>
      </trkpt>
      <trkpt lat="40.962804" lon="-5.676939">
        <ele>789.436</ele>
        <time>2021-10-13T14:28:58Z</time>
      </trkpt>
      <trkpt lat="40.962911" lon="-5.677117">
        <ele>789.449</ele>
        <time>2021-10-13T14:28:59Z</time>
      </trkpt>
      <trkpt lat="40.963120" lon="-5.677441">
        <ele>789.465</ele>
        <time>2021-10-13T14:29:01Z</time>
      </trkpt>
      <trkpt lat="40.963233" lon="-5.677610">
        <ele>789.464</ele>
        <time>2021-10-13T14:29:02Z</time>
      </trkpt>
      <trkpt lat="40.963465" lon="-5.677944">
        <ele>789.489</ele>
        <time>2021-10-13T14:29:04Z</time>
      </trkpt>
      <trkpt lat="40.963588" lon="-5.678113">
        <ele>789.424</ele>
        <time>2021-10-13T14:29:05Z</time>
      </trkpt>
      <trkpt lat="40.963712" lon="-5.678280">
        <ele>789.404</ele>
        <time>2021-10-13T14:29:06Z</time>
      </trkpt>
      <trkpt lat="40.963955" lon="-5.678592">
        <ele>789.414</ele>
        <time>2021-10-13T14:29:08Z</time>
      </trkpt>
      <trkpt lat="40.964070" lon="-5.678742">
        <ele>789.408</ele>
        <time>2021-10-13T14:29:09Z</time>
      </trkpt>
      <trkpt lat="40.964288" lon="-5.679020">
        <ele>789.480</ele>
        <time>2021-10-13T14:29:11Z</time>
      </trkpt>
      <trkpt lat="40.964484" lon="-5.679260">
        <ele>789.458</ele>
        <time>2021-10-13T14:29:13Z</time>
      </trkpt>
      <trkpt lat="40.964575" lon="-5.679364">
        <ele>789.475</ele>
        <time>2021-10-13T14:29:14Z</time>
      </trkpt>
      <trkpt lat="40.964725" lon="-5.679540">
        <ele>789.465</ele>
        <time>2021-10-13T14:29:16Z</time>
      </trkpt>
      <trkpt lat="40.964777" lon="-5.679602">
        <ele>789.438</ele>
        <time>2021-10-13T14:29:17Z</time>
      </trkpt>
      <trkpt lat="40.964818" lon="-5.679653">
        <ele>789.424</ele>
        <time>2021-10-13T14:29:18Z</time>
      </trkpt>
      <trkpt lat="40.964895" lon="-5.679747">
        <ele>789.473</ele>
        <time>2021-10-13T14:29:20Z</time>
      </trkpt>
      <trkpt lat="40.964932" lon="-5.679793">
        <ele>789.448</ele>
        <time>2021-10-13T14:29:21Z</time>
      </trkpt>
      <trkpt lat="40.965000" lon="-5.679880">
        <ele>789.476</ele>
        <time>2021-10-13T14:29:23Z</time>
      </trkpt>
      <trkpt lat="40.965051" lon="-5.679932">
        <ele>789.490</ele>
        <time>2021-10-13T14:29:26Z</time>
      </trkpt>
      <trkpt lat="40.965126" lon="-5.679975">
        <ele>789.419</ele>
        <time>2021-10-13T14:29:29Z</time>
      </trkpt>
      <trkpt lat="40.965274" lon="-5.680015">
        <ele>789.408</ele>
        <time>2021-10-13T14:29:31Z</time>
      </trkpt>
      <trkpt lat="40.965365" lon="-5.680043">
        <ele>789.475</ele>
        <time>2021-10-13T14:29:32Z</time>
      </trkpt>
      <trkpt lat="40.965533" lon="-5.680129">
        <ele>789.473</ele>
        <time>2021-10-13T14:29:34Z</time>
      </trkpt>
      <trkpt lat="40.965634" lon="-5.680155">
        <ele>789.490</ele>
        <time>2021-10-13T14:29:35Z</time>
      </trkpt>
      <trkpt lat="40.965816" lon="-5.680133">
        <ele>789.380</ele>
        <time>2021-10-13T14:29:37Z</time>
      </trkpt>
      <trkpt lat="40.965887" lon="-5.680111">
        <ele>789.343</ele>
        <time>2021-10-13T14:29:38Z</time>
      </trkpt>
      <trkpt lat="40.965941" lon="-5.680084">
        <ele>789.369</ele>
        <time>2021-10-13T14:29:39Z</time>
      </trkpt>
      <trkpt lat="40.966034" lon="-5.680023">
        <ele>789.388</ele>
        <time>2021-10-13T14:29:41Z</time>
      </trkpt>
      <trkpt lat="40.966096" lon="-5.679986">
        <ele>789.353</ele>
        <time>2021-10-13T14:29:42Z</time>
      </trkpt>
      <trkpt lat="40.966169" lon="-5.679945">
        <ele>789.338</ele>
        <time>2021-10-13T14:29:43Z</time>
      </trkpt>
      <trkpt lat="40.966334" lon="-5.679854">
        <ele>789.370</ele>
        <time>2021-10-13T14:29:45Z</time>
      </trkpt>
      <trkpt lat="40.966422" lon="-5.679801">
        <ele>789.317</ele>
        <time>2021-10-13T14:29:46Z</time>
      </trkpt>
      <trkpt lat="40.966612" lon="-5.679691">
        <ele>789.908</ele>
        <time>2021-10-13T14:29:48Z</time>
      </trkpt>
      <trkpt lat="40.966712" lon="-5.679632">
        <ele>789.921</ele>
        <time>2021-10-13T14:29:49Z</time>
      </trkpt>
      <trkpt lat="40.966814" lon="-5.679574">
        <ele>790.479</ele>
        <time>2021-10-13T14:29:50Z</time>
      </trkpt>
      <trkpt lat="40.966908" lon="-5.679518">
        <ele>790.776</ele>
        <time>2021-10-13T14:29:51Z</time>
      </trkpt>
      <trkpt lat="40.967069" lon="-5.679429">
        <ele>791.086</ele>
        <time>2021-10-13T14:29:53Z</time>
      </trkpt>
      <trkpt lat="40.967214" lon="-5.679344">
        <ele>791.339</ele>
        <time>2021-10-13T14:29:55Z</time>
      </trkpt>
      <trkpt lat="40.967299" lon="-5.679297">
        <ele>791.575</ele>
        <time>2021-10-13T14:29:56Z</time>
      </trkpt>
      <trkpt lat="40.967454" lon="-5.679209">
        <ele>792.054</ele>
        <time>2021-10-13T14:29:58Z</time>
      </trkpt>
      <trkpt lat="40.967531" lon="-5.679161">
        <ele>792.699</ele>
        <time>2021-10-13T14:29:59Z</time>
      </trkpt>
      <trkpt lat="40.967605" lon="-5.679114">
        <ele>793.228</ele>
        <time>2021-10-13T14:30:00Z</time>
      </trkpt>
      <trkpt lat="40.967738" lon="-5.679034">
        <ele>794.089</ele>
        <time>2021-10-13T14:30:02Z</time>
      </trkpt>
      <trkpt lat="40.967839" lon="-5.678972">
        <ele>795.217</ele>
        <time>2021-10-13T14:30:04Z</time>
      </trkpt>
      <trkpt lat="40.967883" lon="-5.678947">
        <ele>795.808</ele>
        <time>2021-10-13T14:30:06Z</time>
      </trkpt>
      <trkpt lat="40.967954" lon="-5.678897">
        <ele>799.640</ele>
        <time>2021-10-13T14:30:19Z</time>
      </trkpt>
      <trkpt lat="40.968017" lon="-5.678861">
        <ele>799.638</ele>
        <time>2021-10-13T14:30:20Z</time>
      </trkpt>
      <trkpt lat="40.968186" lon="-5.678764">
        <ele>799.675</ele>
        <time>2021-10-13T14:30:22Z</time>
      </trkpt>
      <trkpt lat="40.968332" lon="-5.678670">
        <ele>799.675</ele>
        <time>2021-10-13T14:30:24Z</time>
      </trkpt>
      <trkpt lat="40.968449" lon="-5.678593">
        <ele>799.668</ele>
        <time>2021-10-13T14:30:26Z</time>
      </trkpt>
      <trkpt lat="40.968604" lon="-5.678485">
        <ele>799.634</ele>
        <time>2021-10-13T14:30:28Z</time>
      </trkpt>
      <trkpt lat="40.968697" lon="-5.678410">
        <ele>799.653</ele>
        <time>2021-10-13T14:30:29Z</time>
      </trkpt>
      <trkpt lat="40.968787" lon="-5.678332">
        <ele>799.628</ele>
        <time>2021-10-13T14:30:30Z</time>
      </trkpt>
      <trkpt lat="40.968868" lon="-5.678252">
        <ele>799.674</ele>
        <time>2021-10-13T14:30:31Z</time>
      </trkpt>
      <trkpt lat="40.968938" lon="-5.678173">
        <ele>799.656</ele>
        <time>2021-10-13T14:30:32Z</time>
      </trkpt>
      <trkpt lat="40.969042" lon="-5.678034">
        <ele>799.621</ele>
        <time>2021-10-13T14:30:34Z</time>
      </trkpt>
      <trkpt lat="40.969088" lon="-5.677966">
        <ele>799.608</ele>
        <time>2021-10-13T14:30:35Z</time>
      </trkpt>
      <trkpt lat="40.969179" lon="-5.677828">
        <ele>799.655</ele>
        <time>2021-10-13T14:30:37Z</time>
      </trkpt>
      <trkpt lat="40.969273" lon="-5.677691">
        <ele>799.683</ele>
        <time>2021-10-13T14:30:39Z</time>
      </trkpt>
      <trkpt lat="40.969353" lon="-5.677575">
        <ele>799.680</ele>
        <time>2021-10-13T14:30:41Z</time>
      </trkpt>
      <trkpt lat="40.969432" lon="-5.677451">
        <ele>799.630</ele>
        <time>2021-10-13T14:30:43Z</time>
      </trkpt>
      <trkpt lat="40.969466" lon="-5.677399">
        <ele>799.623</ele>
        <time>2021-10-13T14:30:44Z</time>
      </trkpt>
      <trkpt lat="40.969520" lon="-5.677321">
        <ele>799.639</ele>
        <time>2021-10-13T14:30:46Z</time>
      </trkpt>
      <trkpt lat="40.969567" lon="-5.677253">
        <ele>799.658</ele>
        <time>2021-10-13T14:30:48Z</time>
      </trkpt>
      <trkpt lat="40.969607" lon="-5.677194">
        <ele>799.693</ele>
        <time>2021-10-13T14:30:50Z</time>
      </trkpt>
      <trkpt lat="40.969643" lon="-5.677142">
        <ele>799.615</ele>
        <time>2021-10-13T14:30:53Z</time>
      </trkpt>
      <trkpt lat="40.969668" lon="-5.677088">
        <ele>799.665</ele>
        <time>2021-10-13T14:31:17Z</time>
      </trkpt>
      <trkpt lat="40.969699" lon="-5.677031">
        <ele>799.611</ele>
        <time>2021-10-13T14:31:19Z</time>
      </trkpt>
      <trkpt lat="40.969754" lon="-5.676942">
        <ele>799.608</ele>
        <time>2021-10-13T14:31:27Z</time>
      </trkpt>
      <trkpt lat="40.969828" lon="-5.676815">
        <ele>799.619</ele>
        <time>2021-10-13T14:31:29Z</time>
      </trkpt>
      <trkpt lat="40.969887" lon="-5.676690">
        <ele>799.667</ele>
        <time>2021-10-13T14:31:31Z</time>
      </trkpt>
      <trkpt lat="40.969920" lon="-5.676625">
        <ele>799.684</ele>
        <time>2021-10-13T14:31:32Z</time>
      </trkpt>
      <trkpt lat="40.970002" lon="-5.676541">
        <ele>799.554</ele>
        <time>2021-10-13T14:31:34Z</time>
      </trkpt>
      <trkpt lat="40.970046" lon="-5.676509">
        <ele>799.597</ele>
        <time>2021-10-13T14:31:35Z</time>
      </trkpt>
      <trkpt lat="40.970086" lon="-5.676469">
        <ele>799.583</ele>
        <time>2021-10-13T14:31:36Z</time>
      </trkpt>
      <trkpt lat="40.970159" lon="-5.676358">
        <ele>799.562</ele>
        <time>2021-10-13T14:31:38Z</time>
      </trkpt>
      <trkpt lat="40.970238" lon="-5.676232">
        <ele>799.597</ele>
        <time>2021-10-13T14:31:40Z</time>
      </trkpt>
      <trkpt lat="40.970283" lon="-5.676167">
        <ele>799.571</ele>
        <time>2021-10-13T14:31:41Z</time>
      </trkpt>
      <trkpt lat="40.970328" lon="-5.676098">
        <ele>799.541</ele>
        <time>2021-10-13T14:31:42Z</time>
      </trkpt>
      <trkpt lat="40.970418" lon="-5.675954">
        <ele>799.515</ele>
        <time>2021-10-13T14:31:44Z</time>
      </trkpt>
      <trkpt lat="40.970519" lon="-5.675797">
        <ele>799.508</ele>
        <time>2021-10-13T14:31:46Z</time>
      </trkpt>
      <trkpt lat="40.970620" lon="-5.675642">
        <ele>799.515</ele>
        <time>2021-10-13T14:31:48Z</time>
      </trkpt>
      <trkpt lat="40.970671" lon="-5.675565">
        <ele>799.533</ele>
        <time>2021-10-13T14:31:49Z</time>
      </trkpt>
      <trkpt lat="40.970770" lon="-5.675417">
        <ele>799.540</ele>
        <time>2021-10-13T14:31:51Z</time>
      </trkpt>
      <trkpt lat="40.970869" lon="-5.675265">
        <ele>799.590</ele>
        <time>2021-10-13T14:31:53Z</time>
      </trkpt>
      <trkpt lat="40.970966" lon="-5.675114">
        <ele>799.533</ele>
        <time>2021-10-13T14:31:55Z</time>
      </trkpt>
      <trkpt lat="40.971015" lon="-5.675035">
        <ele>799.539</ele>
        <time>2021-10-13T14:31:56Z</time>
      </trkpt>
      <trkpt lat="40.971102" lon="-5.674902">
        <ele>799.588</ele>
        <time>2021-10-13T14:31:58Z</time>
      </trkpt>
      <trkpt lat="40.971181" lon="-5.674782">
        <ele>799.523</ele>
        <time>2021-10-13T14:32:00Z</time>
      </trkpt>
      <trkpt lat="40.971224" lon="-5.674719">
        <ele>799.568</ele>
        <time>2021-10-13T14:32:01Z</time>
      </trkpt>
      <trkpt lat="40.971269" lon="-5.674648">
        <ele>799.542</ele>
        <time>2021-10-13T14:32:02Z</time>
      </trkpt>
      <trkpt lat="40.971367" lon="-5.674500">
        <ele>799.526</ele>
        <time>2021-10-13T14:32:04Z</time>
      </trkpt>
      <trkpt lat="40.971417" lon="-5.674426">
        <ele>799.508</ele>
        <time>2021-10-13T14:32:05Z</time>
      </trkpt>
      <trkpt lat="40.971464" lon="-5.674352">
        <ele>799.594</ele>
        <time>2021-10-13T14:32:06Z</time>
      </trkpt>
      <trkpt lat="40.971552" lon="-5.674210">
        <ele>799.542</ele>
        <time>2021-10-13T14:32:08Z</time>
      </trkpt>
      <trkpt lat="40.971636" lon="-5.674081">
        <ele>799.529</ele>
        <time>2021-10-13T14:32:10Z</time>
      </trkpt>
      <trkpt lat="40.971721" lon="-5.673946">
        <ele>799.579</ele>
        <time>2021-10-13T14:32:12Z</time>
      </trkpt>
      <trkpt lat="40.971806" lon="-5.673822">
        <ele>799.572</ele>
        <time>2021-10-13T14:32:14Z</time>
      </trkpt>
      <trkpt lat="40.971843" lon="-5.673764">
        <ele>799.588</ele>
        <time>2021-10-13T14:32:15Z</time>
      </trkpt>
      <trkpt lat="40.971878" lon="-5.673710">
        <ele>799.617</ele>
        <time>2021-10-13T14:32:16Z</time>
      </trkpt>
      <trkpt lat="40.971913" lon="-5.673657">
        <ele>799.672</ele>
        <time>2021-10-13T14:32:17Z</time>
      </trkpt>
      <trkpt lat="40.971983" lon="-5.673553">
        <ele>799.636</ele>
        <time>2021-10-13T14:32:19Z</time>
      </trkpt>
      <trkpt lat="40.972057" lon="-5.673441">
        <ele>799.617</ele>
        <time>2021-10-13T14:32:21Z</time>
      </trkpt>
      <trkpt lat="40.972095" lon="-5.673381">
        <ele>799.618</ele>
        <time>2021-10-13T14:32:22Z</time>
      </trkpt>
      <trkpt lat="40.972134" lon="-5.673323">
        <ele>799.608</ele>
        <time>2021-10-13T14:32:23Z</time>
      </trkpt>
      <trkpt lat="40.972206" lon="-5.673213">
        <ele>799.631</ele>
        <time>2021-10-13T14:32:25Z</time>
      </trkpt>
      <trkpt lat="40.972242" lon="-5.673155">
        <ele>818.489</ele>
        <time>2021-10-13T14:32:26Z</time>
      </trkpt>
      <trkpt lat="40.972304" lon="-5.673051">
        <ele>821.476</ele>
        <time>2021-10-13T14:32:28Z</time>
      </trkpt>
      <trkpt lat="40.972349" lon="-5.672974">
        <ele>822.866</ele>
        <time>2021-10-13T14:32:30Z</time>
      </trkpt>
      <trkpt lat="40.972388" lon="-5.672908">
        <ele>824.099</ele>
        <time>2021-10-13T14:32:32Z</time>
      </trkpt>
      <trkpt lat="40.972423" lon="-5.672844">
        <ele>824.795</ele>
        <time>2021-10-13T14:32:34Z</time>
      </trkpt>
      <trkpt lat="40.972465" lon="-5.672766">
        <ele>825.774</ele>
        <time>2021-10-13T14:32:49Z</time>
      </trkpt>
      <trkpt lat="40.972497" lon="-5.672712">
        <ele>825.729</ele>
        <time>2021-10-13T14:32:51Z</time>
      </trkpt>
      <trkpt lat="40.972526" lon="-5.672651">
        <ele>825.754</ele>
        <time>2021-10-13T14:33:12Z</time>
      </trkpt>
      <trkpt lat="40.972559" lon="-5.672580">
        <ele>825.756</ele>
        <time>2021-10-13T14:33:14Z</time>
      </trkpt>
      <trkpt lat="40.972592" lon="-5.672516">
        <ele>825.711</ele>
        <time>2021-10-13T14:33:37Z</time>
      </trkpt>
      <trkpt lat="40.972654" lon="-5.672406">
        <ele>825.708</ele>
        <time>2021-10-13T14:33:39Z</time>
      </trkpt>
      <trkpt lat="40.972687" lon="-5.672345">
        <ele>825.713</ele>
        <time>2021-10-13T14:33:41Z</time>
      </trkpt>
      <trkpt lat="40.972741" lon="-5.672267">
        <ele>825.751</ele>
        <time>2021-10-13T14:33:43Z</time>
      </trkpt>
      <trkpt lat="40.972785" lon="-5.672209">
        <ele>825.628</ele>
        <time>2021-10-13T14:33:45Z</time>
      </trkpt>
      <trkpt lat="40.972830" lon="-5.672140">
        <ele>825.678</ele>
        <time>2021-10-13T14:33:47Z</time>
      </trkpt>
      <trkpt lat="40.972867" lon="-5.672090">
        <ele>825.661</ele>
        <time>2021-10-13T14:33:52Z</time>
      </trkpt>
      <trkpt lat="40.972915" lon="-5.672050">
        <ele>825.657</ele>
        <time>2021-10-13T14:33:58Z</time>
      </trkpt>
      <trkpt lat="40.972971" lon="-5.671985">
        <ele>825.616</ele>
        <time>2021-10-13T14:34:12Z</time>
      </trkpt>
      <trkpt lat="40.973008" lon="-5.671928">
        <ele>825.671</ele>
        <time>2021-10-13T14:34:13Z</time>
      </trkpt>
      <trkpt lat="40.973140" lon="-5.671811">
        <ele>825.615</ele>
        <time>2021-10-13T14:34:15Z</time>
      </trkpt>
      <trkpt lat="40.973227" lon="-5.671783">
        <ele>825.565</ele>
        <time>2021-10-13T14:34:16Z</time>
      </trkpt>
      <trkpt lat="40.973312" lon="-5.671768">
        <ele>825.511</ele>
        <time>2021-10-13T14:34:17Z</time>
      </trkpt>
      <trkpt lat="40.973471" lon="-5.671685">
        <ele>825.508</ele>
        <time>2021-10-13T14:34:19Z</time>
      </trkpt>
      <trkpt lat="40.973555" lon="-5.671598">
        <ele>825.599</ele>
        <time>2021-10-13T14:34:20Z</time>
      </trkpt>
      <trkpt lat="40.973645" lon="-5.671483">
        <ele>825.587</ele>
        <time>2021-10-13T14:34:21Z</time>
      </trkpt>
      <trkpt lat="40.973742" lon="-5.671346">
        <ele>825.574</ele>
        <time>2021-10-13T14:34:22Z</time>
      </trkpt>
      <trkpt lat="40.973846" lon="-5.671199">
        <ele>825.524</ele>
        <time>2021-10-13T14:34:23Z</time>
      </trkpt>
      <trkpt lat="40.974079" lon="-5.670888">
        <ele>825.517</ele>
        <time>2021-10-13T14:34:25Z</time>
      </trkpt>
      <trkpt lat="40.974206" lon="-5.670722">
        <ele>825.543</ele>
        <time>2021-10-13T14:34:26Z</time>
      </trkpt>
      <trkpt lat="40.974457" lon="-5.670406">
        <ele>825.552</ele>
        <time>2021-10-13T14:34:28Z</time>
      </trkpt>
      <trkpt lat="40.974705" lon="-5.670099">
        <ele>825.517</ele>
        <time>2021-10-13T14:34:30Z</time>
      </trkpt>
      <trkpt lat="40.974825" lon="-5.669952">
        <ele>825.577</ele>
        <time>2021-10-13T14:34:31Z</time>
      </trkpt>
      <trkpt lat="40.974944" lon="-5.669806">
        <ele>825.561</ele>
        <time>2021-10-13T14:34:32Z</time>
      </trkpt>
      <trkpt lat="40.975176" lon="-5.669518">
        <ele>825.527</ele>
        <time>2021-10-13T14:34:34Z</time>
      </trkpt>
      <trkpt lat="40.975303" lon="-5.669363">
        <ele>825.508</ele>
        <time>2021-10-13T14:34:35Z</time>
      </trkpt>
      <trkpt lat="40.975554" lon="-5.669060">
        <ele>825.555</ele>
        <time>2021-10-13T14:34:37Z</time>
      </trkpt>
      <trkpt lat="40.975679" lon="-5.668908">
        <ele>825.543</ele>
        <time>2021-10-13T14:34:38Z</time>
      </trkpt>
      <trkpt lat="40.975802" lon="-5.668760">
        <ele>825.520</ele>
        <time>2021-10-13T14:34:39Z</time>
      </trkpt>
      <trkpt lat="40.975925" lon="-5.668614">
        <ele>825.580</ele>
        <time>2021-10-13T14:34:40Z</time>
      </trkpt>
      <trkpt lat="40.976163" lon="-5.668331">
        <ele>825.513</ele>
        <time>2021-10-13T14:34:42Z</time>
      </trkpt>
      <trkpt lat="40.976388" lon="-5.668058">
        <ele>825.589</ele>
        <time>2021-10-13T14:34:44Z</time>
      </trkpt>
      <trkpt lat="40.976573" lon="-5.667829">
        <ele>825.648</ele>
        <time>2021-10-13T14:34:46Z</time>
      </trkpt>
      <trkpt lat="40.976639" lon="-5.667747">
        <ele>825.643</ele>
        <time>2021-10-13T14:34:47Z</time>
      </trkpt>
      <trkpt lat="40.976727" lon="-5.667644">
        <ele>825.651</ele>
        <time>2021-10-13T14:34:49Z</time>
      </trkpt>
      <trkpt lat="40.976773" lon="-5.667595">
        <ele>825.601</ele>
        <time>2021-10-13T14:34:51Z</time>
      </trkpt>
      <trkpt lat="40.976808" lon="-5.667554">
        <ele>825.611</ele>
        <time>2021-10-13T14:34:52Z</time>
      </trkpt>
      <trkpt lat="40.976887" lon="-5.667459">
        <ele>825.608</ele>
        <time>2021-10-13T14:34:54Z</time>
      </trkpt>
      <trkpt lat="40.976969" lon="-5.667357">
        <ele>825.653</ele>
        <time>2021-10-13T14:34:56Z</time>
      </trkpt>
      <trkpt lat="40.977034" lon="-5.667272">
        <ele>825.621</ele>
        <time>2021-10-13T14:34:58Z</time>
      </trkpt>
      <trkpt lat="40.977066" lon="-5.667225">
        <ele>825.628</ele>
        <time>2021-10-13T14:35:09Z</time>
      </trkpt>
      <trkpt lat="40.977100" lon="-5.667156">
        <ele>825.678</ele>
        <time>2021-10-13T14:35:11Z</time>
      </trkpt>
      <trkpt lat="40.977124" lon="-5.667015">
        <ele>825.631</ele>
        <time>2021-10-13T14:35:13Z</time>
      </trkpt>
      <trkpt lat="40.977141" lon="-5.666911">
        <ele>825.617</ele>
        <time>2021-10-13T14:35:14Z</time>
      </trkpt>
      <trkpt lat="40.977214" lon="-5.666725">
        <ele>825.626</ele>
        <time>2021-10-13T14:35:16Z</time>
      </trkpt>
      <trkpt lat="40.977271" lon="-5.666664">
        <ele>825.681</ele>
        <time>2021-10-13T14:35:17Z</time>
      </trkpt>
      <trkpt lat="40.977394" lon="-5.666613">
        <ele>825.639</ele>
        <time>2021-10-13T14:35:19Z</time>
      </trkpt>
      <trkpt lat="40.977441" lon="-5.666613">
        <ele>825.601</ele>
        <time>2021-10-13T14:35:20Z</time>
      </trkpt>
      <trkpt lat="40.977504" lon="-5.666613">
        <ele>825.621</ele>
        <time>2021-10-13T14:35:22Z</time>
      </trkpt>
      <trkpt lat="40.977568" lon="-5.666597">
        <ele>825.508</ele>
        <time>2021-10-13T14:35:25Z</time>
      </trkpt>
      <trkpt lat="40.977628" lon="-5.666541">
        <ele>825.571</ele>
        <time>2021-10-13T14:35:27Z</time>
      </trkpt>
      <trkpt lat="40.977677" lon="-5.666483">
        <ele>825.579</ele>
        <time>2021-10-13T14:35:28Z</time>
      </trkpt>
      <trkpt lat="40.977814" lon="-5.666320">
        <ele>825.526</ele>
        <time>2021-10-13T14:35:30Z</time>
      </trkpt>
      <trkpt lat="40.977976" lon="-5.666130">
        <ele>825.566</ele>
        <time>2021-10-13T14:35:32Z</time>
      </trkpt>
      <trkpt lat="40.978145" lon="-5.665926">
        <ele>825.519</ele>
        <time>2021-10-13T14:35:34Z</time>
      </trkpt>
      <trkpt lat="40.978306" lon="-5.665728">
        <ele>825.555</ele>
        <time>2021-10-13T14:35:36Z</time>
      </trkpt>
      <trkpt lat="40.978436" lon="-5.665574">
        <ele>825.524</ele>
        <time>2021-10-13T14:35:38Z</time>
      </trkpt>
      <trkpt lat="40.978485" lon="-5.665518">
        <ele>825.539</ele>
        <time>2021-10-13T14:35:39Z</time>
      </trkpt>
      <trkpt lat="40.978519" lon="-5.665476">
        <ele>825.583</ele>
        <time>2021-10-13T14:35:40Z</time>
      </trkpt>
      <trkpt lat="40.978557" lon="-5.665432">
        <ele>825.525</ele>
        <time>2021-10-13T14:35:43Z</time>
      </trkpt>
      <trkpt lat="40.978600" lon="-5.665369">
        <ele>825.517</ele>
        <time>2021-10-13T14:36:04Z</time>
      </trkpt>
      <trkpt lat="40.978675" lon="-5.665242">
        <ele>825.508</ele>
        <time>2021-10-13T14:36:06Z</time>
      </trkpt>
      <trkpt lat="40.978722" lon="-5.665167">
        <ele>825.536</ele>
        <time>2021-10-13T14:36:07Z</time>
      </trkpt>
      <trkpt lat="40.978789" lon="-5.664993">
        <ele>825.564</ele>
        <time>2021-10-13T14:36:09Z</time>
      </trkpt>
      <trkpt lat="40.978817" lon="-5.664757">
        <ele>825.561</ele>
        <time>2021-10-13T14:36:11Z</time>
      </trkpt>
      <trkpt lat="40.978828" lon="-5.664629">
        <ele>825.551</ele>
        <time>2021-10-13T14:36:12Z</time>
      </trkpt>
      <trkpt lat="40.978842" lon="-5.664506">
        <ele>825.534</ele>
        <time>2021-10-13T14:36:13Z</time>
      </trkpt>
      <trkpt lat="40.978859" lon="-5.664390">
        <ele>825.540</ele>
        <time>2021-10-13T14:36:14Z</time>
      </trkpt>
      <trkpt lat="40.978887" lon="-5.664181">
        <ele>825.569</ele>
        <time>2021-10-13T14:36:16Z</time>
      </trkpt>
      <trkpt lat="40.978901" lon="-5.663989">
        <ele>825.554</ele>
        <time>2021-10-13T14:36:18Z</time>
      </trkpt>
      <trkpt lat="40.978875" lon="-5.663806">
        <ele>825.554</ele>
        <time>2021-10-13T14:36:20Z</time>
      </trkpt>
      <trkpt lat="40.978793" lon="-5.663587">
        <ele>825.556</ele>
        <time>2021-10-13T14:36:22Z</time>
      </trkpt>
      <trkpt lat="40.978758" lon="-5.663474">
        <ele>825.511</ele>
        <time>2021-10-13T14:36:23Z</time>
      </trkpt>
      <trkpt lat="40.978740" lon="-5.663372">
        <ele>825.508</ele>
        <time>2021-10-13T14:36:24Z</time>
      </trkpt>
      <trkpt lat="40.978737" lon="-5.663278">
        <ele>825.523</ele>
        <time>2021-10-13T14:36:25Z</time>
      </trkpt>
      <trkpt lat="40.978755" lon="-5.663187">
        <ele>825.591</ele>
        <time>2021-10-13T14:36:26Z</time>
      </trkpt>
      <trkpt lat="40.978859" lon="-5.663022">
        <ele>825.558</ele>
        <time>2021-10-13T14:36:28Z</time>
      </trkpt>
      <trkpt lat="40.979033" lon="-5.662900">
        <ele>825.518</ele>
        <time>2021-10-13T14:36:30Z</time>
      </trkpt>
      <trkpt lat="40.979128" lon="-5.662885">
        <ele>825.571</ele>
        <time>2021-10-13T14:36:31Z</time>
      </trkpt>
      <trkpt lat="40.979214" lon="-5.662902">
        <ele>825.517</ele>
        <time>2021-10-13T14:36:32Z</time>
      </trkpt>
      <trkpt lat="40.979347" lon="-5.663024">
        <ele>825.586</ele>
        <time>2021-10-13T14:36:34Z</time>
      </trkpt>
      <trkpt lat="40.979398" lon="-5.663119">
        <ele>825.571</ele>
        <time>2021-10-13T14:36:35Z</time>
      </trkpt>
      <trkpt lat="40.979431" lon="-5.663214">
        <ele>825.576</ele>
        <time>2021-10-13T14:36:36Z</time>
      </trkpt>
      <trkpt lat="40.979471" lon="-5.663343">
        <ele>825.590</ele>
        <time>2021-10-13T14:36:38Z</time>
      </trkpt>
      <trkpt lat="40.979512" lon="-5.663384">
        <ele>825.519</ele>
        <time>2021-10-13T14:36:42Z</time>
      </trkpt>
      <trkpt lat="40.979591" lon="-5.663393">
        <ele>825.508</ele>
        <time>2021-10-13T14:36:44Z</time>
      </trkpt>
      <trkpt lat="40.979714" lon="-5.663412">
        <ele>825.545</ele>
        <time>2021-10-13T14:36:46Z</time>
      </trkpt>
      <trkpt lat="40.979780" lon="-5.663424">
        <ele>825.573</ele>
        <time>2021-10-13T14:36:47Z</time>
      </trkpt>
      <trkpt lat="40.979929" lon="-5.663449">
        <ele>825.550</ele>
        <time>2021-10-13T14:36:49Z</time>
      </trkpt>
      <trkpt lat="40.980088" lon="-5.663476">
        <ele>825.610</ele>
        <time>2021-10-13T14:36:51Z</time>
      </trkpt>
      <trkpt lat="40.980251" lon="-5.663502">
        <ele>825.693</ele>
        <time>2021-10-13T14:36:53Z</time>
      </trkpt>
      <trkpt lat="40.980432" lon="-5.663529">
        <ele>825.699</ele>
        <time>2021-10-13T14:36:55Z</time>
      </trkpt>
      <trkpt lat="40.980540" lon="-5.663546">
        <ele>825.658</ele>
        <time>2021-10-13T14:36:56Z</time>
      </trkpt>
      <trkpt lat="40.980767" lon="-5.663584">
        <ele>825.693</ele>
        <time>2021-10-13T14:36:58Z</time>
      </trkpt>
      <trkpt lat="40.980992" lon="-5.663625">
        <ele>825.632</ele>
        <time>2021-10-13T14:37:00Z</time>
      </trkpt>
      <trkpt lat="40.981223" lon="-5.663667">
        <ele>825.692</ele>
        <time>2021-10-13T14:37:02Z</time>
      </trkpt>
      <trkpt lat="40.981442" lon="-5.663700">
        <ele>836.811</ele>
        <time>2021-10-13T14:37:04Z</time>
      </trkpt>
      <trkpt lat="40.981552" lon="-5.663718">
        <ele>836.808</ele>
        <time>2021-10-13T14:37:05Z</time>
      </trkpt>
      <trkpt lat="40.981782" lon="-5.663763">
        <ele>837.061</ele>
        <time>2021-10-13T14:37:07Z</time>
      </trkpt>
      <trkpt lat="40.981905" lon="-5.663785">
        <ele>837.529</ele>
        <time>2021-10-13T14:37:08Z</time>
      </trkpt>
      <trkpt lat="40.982155" lon="-5.663823">
        <ele>837.986</ele>
        <time>2021-10-13T14:37:10Z</time>
      </trkpt>
      <trkpt lat="40.982279" lon="-5.663842">
        <ele>839.186</ele>
        <time>2021-10-13T14:37:11Z</time>
      </trkpt>
      <trkpt lat="40.982515" lon="-5.663880">
        <ele>839.419</ele>
        <time>2021-10-13T14:37:13Z</time>
      </trkpt>
      <trkpt lat="40.982631" lon="-5.663901">
        <ele>840.885</ele>
        <time>2021-10-13T14:37:14Z</time>
      </trkpt>
      <trkpt lat="40.982865" lon="-5.663947">
        <ele>840.934</ele>
        <time>2021-10-13T14:37:16Z</time>
      </trkpt>
      <trkpt lat="40.983120" lon="-5.663995">
        <ele>841.439</ele>
        <time>2021-10-13T14:37:18Z</time>
      </trkpt>
      <trkpt lat="40.983370" lon="-5.664037">
        <ele>842.741</ele>
        <time>2021-10-13T14:37:20Z</time>
      </trkpt>
      <trkpt lat="40.983602" lon="-5.664076">
        <ele>843.481</ele>
        <time>2021-10-13T14:37:22Z</time>
      </trkpt>
      <trkpt lat="40.983724" lon="-5.664097">
        <ele>843.609</ele>
        <time>2021-10-13T14:37:23Z</time>
      </trkpt>
      <trkpt lat="40.983967" lon="-5.664143">
        <ele>844.608</ele>
        <time>2021-10-13T14:37:25Z</time>
      </trkpt>
      <trkpt lat="40.984095" lon="-5.664168">
        <ele>844.642</ele>
        <time>2021-10-13T14:37:26Z</time>
      </trkpt>
      <trkpt lat="40.984358" lon="-5.664214">
        <ele>845.540</ele>
        <time>2021-10-13T14:37:28Z</time>
      </trkpt>
      <trkpt lat="40.984624" lon="-5.664256">
        <ele>846.827</ele>
        <time>2021-10-13T14:37:30Z</time>
      </trkpt>
      <trkpt lat="40.984755" lon="-5.664278">
        <ele>846.997</ele>
        <time>2021-10-13T14:37:31Z</time>
      </trkpt>
      <trkpt lat="40.984892" lon="-5.664301">
        <ele>846.660</ele>
        <time>2021-10-13T14:37:32Z</time>
      </trkpt>
      <trkpt lat="40.985160" lon="-5.664347">
        <ele>847.656</ele>
        <time>2021-10-13T14:37:34Z</time>
      </trkpt>
      <trkpt lat="40.985430" lon="-5.664392">
        <ele>846.455</ele>
        <time>2021-10-13T14:37:36Z</time>
      </trkpt>
      <trkpt lat="40.985566" lon="-5.664416">
        <ele>846.710</ele>
        <time>2021-10-13T14:37:37Z</time>
      </trkpt>
      <trkpt lat="40.985701" lon="-5.664439">
        <ele>846.632</ele>
        <time>2021-10-13T14:37:38Z</time>
      </trkpt>
      <trkpt lat="40.985985" lon="-5.664493">
        <ele>844.792</ele>
        <time>2021-10-13T14:37:40Z</time>
      </trkpt>
      <trkpt lat="40.986144" lon="-5.664525">
        <ele>843.911</ele>
        <time>2021-10-13T14:37:41Z</time>
      </trkpt>
      <trkpt lat="40.986479" lon="-5.664582">
        <ele>842.508</ele>
        <time>2021-10-13T14:37:43Z</time>
      </trkpt>
      <trkpt lat="40.986824" lon="-5.664640">
        <ele>841.161</ele>
        <time>2021-10-13T14:37:45Z</time>
      </trkpt>
      <trkpt lat="40.987201" lon="-5.664722">
        <ele>839.059</ele>
        <time>2021-10-13T14:37:47Z</time>
      </trkpt>
      <trkpt lat="40.987413" lon="-5.664767">
        <ele>839.246</ele>
        <time>2021-10-13T14:37:48Z</time>
      </trkpt>
      <trkpt lat="40.987639" lon="-5.664804">
        <ele>838.476</ele>
        <time>2021-10-13T14:37:49Z</time>
      </trkpt>
      <trkpt lat="40.987873" lon="-5.664838">
        <ele>837.369</ele>
        <time>2021-10-13T14:37:50Z</time>
      </trkpt>
      <trkpt lat="40.988358" lon="-5.664905">
        <ele>834.845</ele>
        <time>2021-10-13T14:37:52Z</time>
      </trkpt>
      <trkpt lat="40.988609" lon="-5.664948">
        <ele>833.584</ele>
        <time>2021-10-13T14:37:53Z</time>
      </trkpt>
      <trkpt lat="40.989111" lon="-5.665034">
        <ele>831.769</ele>
        <time>2021-10-13T14:37:55Z</time>
      </trkpt>
      <trkpt lat="40.989369" lon="-5.665079">
        <ele>830.992</ele>
        <time>2021-10-13T14:37:56Z</time>
      </trkpt>
      <trkpt lat="40.989845" lon="-5.665162">
        <ele>829.973</ele>
        <time>2021-10-13T14:37:58Z</time>
      </trkpt>
      <trkpt lat="40.990075" lon="-5.665201">
        <ele>828.920</ele>
        <time>2021-10-13T14:37:59Z</time>
      </trkpt>
      <trkpt lat="40.990292" lon="-5.665238">
        <ele>827.908</ele>
        <time>2021-10-13T14:38:00Z</time>
      </trkpt>
      <trkpt lat="40.990719" lon="-5.665314">
        <ele>827.017</ele>
        <time>2021-10-13T14:38:02Z</time>
      </trkpt>
      <trkpt lat="40.991132" lon="-5.665388">
        <ele>825.875</ele>
        <time>2021-10-13T14:38:04Z</time>
      </trkpt>
      <trkpt lat="40.991341" lon="-5.665420">
        <ele>825.382</ele>
        <time>2021-10-13T14:38:05Z</time>
      </trkpt>
      <trkpt lat="40.991541" lon="-5.665456">
        <ele>824.632</ele>
        <time>2021-10-13T14:38:06Z</time>
      </trkpt>
      <trkpt lat="40.991897" lon="-5.665520">
        <ele>824.345</ele>
        <time>2021-10-13T14:38:08Z</time>
      </trkpt>
      <trkpt lat="40.992047" lon="-5.665542">
        <ele>824.071</ele>
        <time>2021-10-13T14:38:09Z</time>
      </trkpt>
      <trkpt lat="40.992302" lon="-5.665546">
        <ele>823.540</ele>
        <time>2021-10-13T14:38:11Z</time>
      </trkpt>
      <trkpt lat="40.992532" lon="-5.665510">
        <ele>823.595</ele>
        <time>2021-10-13T14:38:13Z</time>
      </trkpt>
      <trkpt lat="40.992741" lon="-5.665543">
        <ele>823.065</ele>
        <time>2021-10-13T14:38:15Z</time>
      </trkpt>
      <trkpt lat="40.992850" lon="-5.665592">
        <ele>823.068</ele>
        <time>2021-10-13T14:38:16Z</time>
      </trkpt>
      <trkpt lat="40.993125" lon="-5.665685">
        <ele>822.014</ele>
        <time>2021-10-13T14:38:18Z</time>
      </trkpt>
      <trkpt lat="40.993292" lon="-5.665716">
        <ele>822.008</ele>
        <time>2021-10-13T14:38:19Z</time>
      </trkpt>
      <trkpt lat="40.993477" lon="-5.665746">
        <ele>821.534</ele>
        <time>2021-10-13T14:38:20Z</time>
      </trkpt>
      <trkpt lat="40.993674" lon="-5.665779">
        <ele>820.432</ele>
        <time>2021-10-13T14:38:21Z</time>
      </trkpt>
      <trkpt lat="40.994078" lon="-5.665847">
        <ele>820.319</ele>
        <time>2021-10-13T14:38:23Z</time>
      </trkpt>
      <trkpt lat="40.994284" lon="-5.665886">
        <ele>819.819</ele>
        <time>2021-10-13T14:38:24Z</time>
      </trkpt>
      <trkpt lat="40.994693" lon="-5.665957">
        <ele>817.852</ele>
        <time>2021-10-13T14:38:26Z</time>
      </trkpt>
      <trkpt lat="40.995067" lon="-5.666024">
        <ele>817.038</ele>
        <time>2021-10-13T14:38:28Z</time>
      </trkpt>
      <trkpt lat="40.995247" lon="-5.666055">
        <ele>816.217</ele>
        <time>2021-10-13T14:38:29Z</time>
      </trkpt>
      <trkpt lat="40.995568" lon="-5.666109">
        <ele>814.632</ele>
        <time>2021-10-13T14:38:31Z</time>
      </trkpt>
      <trkpt lat="40.995720" lon="-5.666135">
        <ele>814.355</ele>
        <time>2021-10-13T14:38:32Z</time>
      </trkpt>
      <trkpt lat="40.995972" lon="-5.666182">
        <ele>814.507</ele>
        <time>2021-10-13T14:38:34Z</time>
      </trkpt>
      <trkpt lat="40.996177" lon="-5.666215">
        <ele>814.217</ele>
        <time>2021-10-13T14:38:36Z</time>
      </trkpt>
      <trkpt lat="40.996332" lon="-5.666228">
        <ele>814.608</ele>
        <time>2021-10-13T14:38:38Z</time>
      </trkpt>
      <trkpt lat="40.996395" lon="-5.666223">
        <ele>814.443</ele>
        <time>2021-10-13T14:38:39Z</time>
      </trkpt>
      <trkpt lat="40.996526" lon="-5.666162">
        <ele>814.831</ele>
        <time>2021-10-13T14:38:41Z</time>
      </trkpt>
      <trkpt lat="40.996596" lon="-5.666103">
        <ele>814.848</ele>
        <time>2021-10-13T14:38:42Z</time>
      </trkpt>
      <trkpt lat="40.996667" lon="-5.666060">
        <ele>814.838</ele>
        <time>2021-10-13T14:38:43Z</time>
      </trkpt>
      <trkpt lat="40.996739" lon="-5.666052">
        <ele>815.191</ele>
        <time>2021-10-13T14:38:44Z</time>
      </trkpt>
      <trkpt lat="40.996886" lon="-5.666166">
        <ele>814.767</ele>
        <time>2021-10-13T14:38:46Z</time>
      </trkpt>
      <trkpt lat="40.996978" lon="-5.666265">
        <ele>814.616</ele>
        <time>2021-10-13T14:38:47Z</time>
      </trkpt>
      <trkpt lat="40.997231" lon="-5.666413">
        <ele>812.261</ele>
        <time>2021-10-13T14:38:49Z</time>
      </trkpt>
      <trkpt lat="40.997395" lon="-5.666448">
        <ele>812.172</ele>
        <time>2021-10-13T14:38:50Z</time>
      </trkpt>
      <trkpt lat="40.997724" lon="-5.666480">
        <ele>811.213</ele>
        <time>2021-10-13T14:38:52Z</time>
      </trkpt>
      <trkpt lat="40.997864" lon="-5.666495">
        <ele>810.814</ele>
        <time>2021-10-13T14:38:53Z</time>
      </trkpt>
      <trkpt lat="40.998083" lon="-5.666501">
        <ele>810.708</ele>
        <time>2021-10-13T14:38:55Z</time>
      </trkpt>
      <trkpt lat="40.998168" lon="-5.666479">
        <ele>810.835</ele>
        <time>2021-10-13T14:38:56Z</time>
      </trkpt>
      <trkpt lat="40.998306" lon="-5.666349">
        <ele>811.133</ele>
        <time>2021-10-13T14:38:58Z</time>
      </trkpt>
      <trkpt lat="40.998486" lon="-5.666189">
        <ele>812.430</ele>
        <time>2021-10-13T14:39:00Z</time>
      </trkpt>
      <trkpt lat="40.998700" lon="-5.666143">
        <ele>813.080</ele>
        <time>2021-10-13T14:39:02Z</time>
      </trkpt>
      <trkpt lat="40.998909" lon="-5.666191">
        <ele>813.143</ele>
        <time>2021-10-13T14:39:04Z</time>
      </trkpt>
      <trkpt lat="40.999005" lon="-5.666258">
        <ele>813.139</ele>
        <time>2021-10-13T14:39:05Z</time>
      </trkpt>
      <trkpt lat="40.999137" lon="-5.666502">
        <ele>812.818</ele>
        <time>2021-10-13T14:39:07Z</time>
      </trkpt>
      <trkpt lat="40.999179" lon="-5.666631">
        <ele>812.533</ele>
        <time>2021-10-13T14:39:08Z</time>
      </trkpt>
      <trkpt lat="40.999303" lon="-5.666796">
        <ele>812.599</ele>
        <time>2021-10-13T14:39:10Z</time>
      </trkpt>
      <trkpt lat="40.999390" lon="-5.666837">
        <ele>811.807</ele>
        <time>2021-10-13T14:39:11Z</time>
      </trkpt>
      <trkpt lat="40.999500" lon="-5.666859">
        <ele>811.627</ele>
        <time>2021-10-13T14:39:12Z</time>
      </trkpt>
      <trkpt lat="40.999773" lon="-5.666859">
        <ele>812.508</ele>
        <time>2021-10-13T14:39:14Z</time>
      </trkpt>
      <trkpt lat="41.000063" lon="-5.666893">
        <ele>815.237</ele>
        <time>2021-10-13T14:39:16Z</time>
      </trkpt>
      <trkpt lat="41.000200" lon="-5.666911">
        <ele>815.475</ele>
        <time>2021-10-13T14:39:17Z</time>
      </trkpt>
      <trkpt lat="41.000464" lon="-5.666956">
        <ele>815.712</ele>
        <time>2021-10-13T14:39:19Z</time>
      </trkpt>
      <trkpt lat="41.000602" lon="-5.666986">
        <ele>815.742</ele>
        <time>2021-10-13T14:39:20Z</time>
      </trkpt>
      <trkpt lat="41.000896" lon="-5.667055">
        <ele>816.435</ele>
        <time>2021-10-13T14:39:22Z</time>
      </trkpt>
      <trkpt lat="41.001037" lon="-5.667089">
        <ele>816.511</ele>
        <time>2021-10-13T14:39:23Z</time>
      </trkpt>
      <trkpt lat="41.001289" lon="-5.667148">
        <ele>816.660</ele>
        <time>2021-10-13T14:39:25Z</time>
      </trkpt>
      <trkpt lat="41.001407" lon="-5.667174">
        <ele>816.425</ele>
        <time>2021-10-13T14:39:26Z</time>
      </trkpt>
      <trkpt lat="41.001608" lon="-5.667209">
        <ele>816.434</ele>
        <time>2021-10-13T14:39:28Z</time>
      </trkpt>
      <trkpt lat="41.001771" lon="-5.667221">
        <ele>816.455</ele>
        <time>2021-10-13T14:39:30Z</time>
      </trkpt>
      <trkpt lat="41.001852" lon="-5.667213">
        <ele>816.310</ele>
        <time>2021-10-13T14:39:31Z</time>
      </trkpt>
      <trkpt lat="41.001943" lon="-5.667189">
        <ele>816.208</ele>
        <time>2021-10-13T14:39:32Z</time>
      </trkpt>
      <trkpt lat="41.002133" lon="-5.667107">
        <ele>815.661</ele>
        <time>2021-10-13T14:39:34Z</time>
      </trkpt>
      <trkpt lat="41.002228" lon="-5.667089">
        <ele>815.059</ele>
        <time>2021-10-13T14:39:35Z</time>
      </trkpt>
      <trkpt lat="41.002413" lon="-5.667162">
        <ele>814.316</ele>
        <time>2021-10-13T14:39:37Z</time>
      </trkpt>
      <trkpt lat="41.002610" lon="-5.667325">
        <ele>814.266</ele>
        <time>2021-10-13T14:39:39Z</time>
      </trkpt>
      <trkpt lat="41.002892" lon="-5.667444">
        <ele>814.179</ele>
        <time>2021-10-13T14:39:41Z</time>
      </trkpt>
      <trkpt lat="41.003083" lon="-5.667485">
        <ele>813.665</ele>
        <time>2021-10-13T14:39:42Z</time>
      </trkpt>
      <trkpt lat="41.003548" lon="-5.667574">
        <ele>812.684</ele>
        <time>2021-10-13T14:39:44Z</time>
      </trkpt>
      <trkpt lat="41.004100" lon="-5.667675">
        <ele>811.759</ele>
        <time>2021-10-13T14:39:46Z</time>
      </trkpt>
      <trkpt lat="41.004406" lon="-5.667732">
        <ele>811.578</ele>
        <time>2021-10-13T14:39:47Z</time>
      </trkpt>
      <trkpt lat="41.005020" lon="-5.667825">
        <ele>810.333</ele>
        <time>2021-10-13T14:39:49Z</time>
      </trkpt>
      <trkpt lat="41.005630" lon="-5.667904">
        <ele>810.226</ele>
        <time>2021-10-13T14:39:51Z</time>
      </trkpt>
      <trkpt lat="41.006209" lon="-5.668005">
        <ele>808.708</ele>
        <time>2021-10-13T14:39:53Z</time>
      </trkpt>
      <trkpt lat="41.006500" lon="-5.668063">
        <ele>809.345</ele>
        <time>2021-10-13T14:39:54Z</time>
      </trkpt>
      <trkpt lat="41.006801" lon="-5.668122">
        <ele>809.313</ele>
        <time>2021-10-13T14:39:55Z</time>
      </trkpt>
      <trkpt lat="41.007115" lon="-5.668182">
        <ele>809.530</ele>
        <time>2021-10-13T14:39:56Z</time>
      </trkpt>
      <trkpt lat="41.007744" lon="-5.668301">
        <ele>810.530</ele>
        <time>2021-10-13T14:39:58Z</time>
      </trkpt>
      <trkpt lat="41.008398" lon="-5.668412">
        <ele>810.963</ele>
        <time>2021-10-13T14:40:00Z</time>
      </trkpt>
      <trkpt lat="41.008726" lon="-5.668469">
        <ele>811.879</ele>
        <time>2021-10-13T14:40:01Z</time>
      </trkpt>
      <trkpt lat="41.009065" lon="-5.668527">
        <ele>812.668</ele>
        <time>2021-10-13T14:40:02Z</time>
      </trkpt>
      <trkpt lat="41.009721" lon="-5.668640">
        <ele>811.653</ele>
        <time>2021-10-13T14:40:04Z</time>
      </trkpt>
      <trkpt lat="41.010389" lon="-5.668759">
        <ele>811.422</ele>
        <time>2021-10-13T14:40:06Z</time>
      </trkpt>
      <trkpt lat="41.010713" lon="-5.668817">
        <ele>811.762</ele>
        <time>2021-10-13T14:40:07Z</time>
      </trkpt>
      <trkpt lat="41.011340" lon="-5.668934">
        <ele>811.908</ele>
        <time>2021-10-13T14:40:09Z</time>
      </trkpt>
      <trkpt lat="41.011967" lon="-5.669055">
        <ele>810.608</ele>
        <time>2021-10-13T14:40:11Z</time>
      </trkpt>
      <trkpt lat="41.012286" lon="-5.669118">
        <ele>810.830</ele>
        <time>2021-10-13T14:40:12Z</time>
      </trkpt>
      <trkpt lat="41.012918" lon="-5.669241">
        <ele>810.768</ele>
        <time>2021-10-13T14:40:14Z</time>
      </trkpt>
      <trkpt lat="41.013228" lon="-5.669290">
        <ele>810.595</ele>
        <time>2021-10-13T14:40:15Z</time>
      </trkpt>
      <trkpt lat="41.013529" lon="-5.669323">
        <ele>809.845</ele>
        <time>2021-10-13T14:40:16Z</time>
      </trkpt>
      <trkpt lat="41.013798" lon="-5.669349">
        <ele>809.838</ele>
        <time>2021-10-13T14:40:17Z</time>
      </trkpt>
      <trkpt lat="41.014301" lon="-5.669422">
        <ele>810.714</ele>
        <time>2021-10-13T14:40:19Z</time>
      </trkpt>
      <trkpt lat="41.014778" lon="-5.669511">
        <ele>811.123</ele>
        <time>2021-10-13T14:40:21Z</time>
      </trkpt>
      <trkpt lat="41.015019" lon="-5.669557">
        <ele>812.048</ele>
        <time>2021-10-13T14:40:22Z</time>
      </trkpt>
      <trkpt lat="41.015264" lon="-5.669603">
        <ele>812.525</ele>
        <time>2021-10-13T14:40:23Z</time>
      </trkpt>
      <trkpt lat="41.015510" lon="-5.669648">
        <ele>813.126</ele>
        <time>2021-10-13T14:40:24Z</time>
      </trkpt>
      <trkpt lat="41.015991" lon="-5.669742">
        <ele>813.808</ele>
        <time>2021-10-13T14:40:26Z</time>
      </trkpt>
      <trkpt lat="41.016434" lon="-5.669819">
        <ele>815.008</ele>
        <time>2021-10-13T14:40:28Z</time>
      </trkpt>
      <trkpt lat="41.016880" lon="-5.669899">
        <ele>815.370</ele>
        <time>2021-10-13T14:40:30Z</time>
      </trkpt>
      <trkpt lat="41.017103" lon="-5.669937">
        <ele>815.938</ele>
        <time>2021-10-13T14:40:31Z</time>
      </trkpt>
      <trkpt lat="41.017329" lon="-5.669976">
        <ele>816.375</ele>
        <time>2021-10-13T14:40:32Z</time>
      </trkpt>
      <trkpt lat="41.017732" lon="-5.670042">
        <ele>815.675</ele>
        <time>2021-10-13T14:40:34Z</time>
      </trkpt>
      <trkpt lat="41.017916" lon="-5.670071">
        <ele>815.548</ele>
        <time>2021-10-13T14:40:35Z</time>
      </trkpt>
      <trkpt lat="41.018086" lon="-5.670097">
        <ele>815.754</ele>
        <time>2021-10-13T14:40:36Z</time>
      </trkpt>
      <trkpt lat="41.018402" lon="-5.670153">
        <ele>817.113</ele>
        <time>2021-10-13T14:40:38Z</time>
      </trkpt>
      <trkpt lat="41.018553" lon="-5.670179">
        <ele>817.748</ele>
        <time>2021-10-13T14:40:39Z</time>
      </trkpt>
      <trkpt lat="41.018859" lon="-5.670234">
        <ele>817.367</ele>
        <time>2021-10-13T14:40:41Z</time>
      </trkpt>
      <trkpt lat="41.019170" lon="-5.670299">
        <ele>818.881</ele>
        <time>2021-10-13T14:40:43Z</time>
      </trkpt>
      <trkpt lat="41.019480" lon="-5.670362">
        <ele>819.319</ele>
        <time>2021-10-13T14:40:45Z</time>
      </trkpt>
      <trkpt lat="41.019793" lon="-5.670421">
        <ele>819.608</ele>
        <time>2021-10-13T14:40:47Z</time>
      </trkpt>
      <trkpt lat="41.020108" lon="-5.670476">
        <ele>819.494</ele>
        <time>2021-10-13T14:40:49Z</time>
      </trkpt>
      <trkpt lat="41.020263" lon="-5.670502">
        <ele>819.632</ele>
        <time>2021-10-13T14:40:50Z</time>
      </trkpt>
      <trkpt lat="41.020573" lon="-5.670552">
        <ele>819.989</ele>
        <time>2021-10-13T14:40:52Z</time>
      </trkpt>
      <trkpt lat="41.020737" lon="-5.670577">
        <ele>819.939</ele>
        <time>2021-10-13T14:40:53Z</time>
      </trkpt>
      <trkpt lat="41.021089" lon="-5.670641">
        <ele>820.032</ele>
        <time>2021-10-13T14:40:55Z</time>
      </trkpt>
      <trkpt lat="41.021281" lon="-5.670687">
        <ele>820.378</ele>
        <time>2021-10-13T14:40:56Z</time>
      </trkpt>
      <trkpt lat="41.021700" lon="-5.670803">
        <ele>820.477</ele>
        <time>2021-10-13T14:40:58Z</time>
      </trkpt>
      <trkpt lat="41.021934" lon="-5.670870">
        <ele>820.212</ele>
        <time>2021-10-13T14:40:59Z</time>
      </trkpt>
      <trkpt lat="41.022433" lon="-5.671002">
        <ele>820.688</ele>
        <time>2021-10-13T14:41:01Z</time>
      </trkpt>
      <trkpt lat="41.022686" lon="-5.671071">
        <ele>820.124</ele>
        <time>2021-10-13T14:41:02Z</time>
      </trkpt>
      <trkpt lat="41.023144" lon="-5.671207">
        <ele>819.926</ele>
        <time>2021-10-13T14:41:04Z</time>
      </trkpt>
      <trkpt lat="41.023376" lon="-5.671281">
        <ele>820.308</ele>
        <time>2021-10-13T14:41:05Z</time>
      </trkpt>
      <trkpt lat="41.023836" lon="-5.671428">
        <ele>820.586</ele>
        <time>2021-10-13T14:41:07Z</time>
      </trkpt>
      <trkpt lat="41.024292" lon="-5.671569">
        <ele>820.884</ele>
        <time>2021-10-13T14:41:09Z</time>
      </trkpt>
      <trkpt lat="41.024525" lon="-5.671635">
        <ele>821.081</ele>
        <time>2021-10-13T14:41:10Z</time>
      </trkpt>
      <trkpt lat="41.024992" lon="-5.671769">
        <ele>821.291</ele>
        <time>2021-10-13T14:41:12Z</time>
      </trkpt>
      <trkpt lat="41.025234" lon="-5.671842">
        <ele>821.484</ele>
        <time>2021-10-13T14:41:13Z</time>
      </trkpt>
      <trkpt lat="41.025720" lon="-5.671987">
        <ele>822.030</ele>
        <time>2021-10-13T14:41:15Z</time>
      </trkpt>
      <trkpt lat="41.026211" lon="-5.672144">
        <ele>822.639</ele>
        <time>2021-10-13T14:41:17Z</time>
      </trkpt>
      <trkpt lat="41.026688" lon="-5.672295">
        <ele>823.294</ele>
        <time>2021-10-13T14:41:19Z</time>
      </trkpt>
      <trkpt lat="41.027127" lon="-5.672432">
        <ele>822.568</ele>
        <time>2021-10-13T14:41:21Z</time>
      </trkpt>
      <trkpt lat="41.027551" lon="-5.672558">
        <ele>823.042</ele>
        <time>2021-10-13T14:41:23Z</time>
      </trkpt>
      <trkpt lat="41.027951" lon="-5.672684">
        <ele>822.626</ele>
        <time>2021-10-13T14:41:25Z</time>
      </trkpt>
      <trkpt lat="41.028146" lon="-5.672744">
        <ele>822.608</ele>
        <time>2021-10-13T14:41:26Z</time>
      </trkpt>
      <trkpt lat="41.028504" lon="-5.672854">
        <ele>821.764</ele>
        <time>2021-10-13T14:41:28Z</time>
      </trkpt>
      <trkpt lat="41.028868" lon="-5.672961">
        <ele>820.842</ele>
        <time>2021-10-13T14:41:30Z</time>
      </trkpt>
      <trkpt lat="41.029050" lon="-5.673014">
        <ele>819.799</ele>
        <time>2021-10-13T14:41:31Z</time>
      </trkpt>
      <trkpt lat="41.029238" lon="-5.673070">
        <ele>819.769</ele>
        <time>2021-10-13T14:41:32Z</time>
      </trkpt>
      <trkpt lat="41.029626" lon="-5.673192">
        <ele>820.482</ele>
        <time>2021-10-13T14:41:34Z</time>
      </trkpt>
      <trkpt lat="41.029836" lon="-5.673254">
        <ele>820.158</ele>
        <time>2021-10-13T14:41:35Z</time>
      </trkpt>
      <trkpt lat="41.030273" lon="-5.673383">
        <ele>818.617</ele>
        <time>2021-10-13T14:41:37Z</time>
      </trkpt>
      <trkpt lat="41.030498" lon="-5.673454">
        <ele>818.032</ele>
        <time>2021-10-13T14:41:38Z</time>
      </trkpt>
      <trkpt lat="41.030947" lon="-5.673593">
        <ele>816.296</ele>
        <time>2021-10-13T14:41:40Z</time>
      </trkpt>
      <trkpt lat="41.031363" lon="-5.673715">
        <ele>814.131</ele>
        <time>2021-10-13T14:41:42Z</time>
      </trkpt>
      <trkpt lat="41.031747" lon="-5.673832">
        <ele>811.824</ele>
        <time>2021-10-13T14:41:44Z</time>
      </trkpt>
      <trkpt lat="41.031933" lon="-5.673893">
        <ele>810.308</ele>
        <time>2021-10-13T14:41:45Z</time>
      </trkpt>
      <trkpt lat="41.032108" lon="-5.673949">
        <ele>809.197</ele>
        <time>2021-10-13T14:41:46Z</time>
      </trkpt>
      <trkpt lat="41.032275" lon="-5.674003">
        <ele>808.055</ele>
        <time>2021-10-13T14:41:47Z</time>
      </trkpt>
      <trkpt lat="41.032603" lon="-5.674103">
        <ele>805.592</ele>
        <time>2021-10-13T14:41:49Z</time>
      </trkpt>
      <trkpt lat="41.032773" lon="-5.674153">
        <ele>804.842</ele>
        <time>2021-10-13T14:41:50Z</time>
      </trkpt>
      <trkpt lat="41.032959" lon="-5.674208">
        <ele>804.185</ele>
        <time>2021-10-13T14:41:51Z</time>
      </trkpt>
      <trkpt lat="41.033347" lon="-5.674323">
        <ele>802.271</ele>
        <time>2021-10-13T14:41:53Z</time>
      </trkpt>
      <trkpt lat="41.033756" lon="-5.674445">
        <ele>799.440</ele>
        <time>2021-10-13T14:41:55Z</time>
      </trkpt>
      <trkpt lat="41.033978" lon="-5.674516">
        <ele>798.325</ele>
        <time>2021-10-13T14:41:56Z</time>
      </trkpt>
      <trkpt lat="41.034417" lon="-5.674655">
        <ele>796.079</ele>
        <time>2021-10-13T14:41:58Z</time>
      </trkpt>
      <trkpt lat="41.034637" lon="-5.674720">
        <ele>795.305</ele>
        <time>2021-10-13T14:41:59Z</time>
      </trkpt>
      <trkpt lat="41.034848" lon="-5.674783">
        <ele>794.325</ele>
        <time>2021-10-13T14:42:00Z</time>
      </trkpt>
      <trkpt lat="41.035051" lon="-5.674846">
        <ele>792.908</ele>
        <time>2021-10-13T14:42:01Z</time>
      </trkpt>
      <trkpt lat="41.035259" lon="-5.674910">
        <ele>791.875</ele>
        <time>2021-10-13T14:42:02Z</time>
      </trkpt>
      <trkpt lat="41.035670" lon="-5.675030">
        <ele>790.863</ele>
        <time>2021-10-13T14:42:04Z</time>
      </trkpt>
      <trkpt lat="41.035886" lon="-5.675095">
        <ele>790.850</ele>
        <time>2021-10-13T14:42:05Z</time>
      </trkpt>
      <trkpt lat="41.036341" lon="-5.675231">
        <ele>789.550</ele>
        <time>2021-10-13T14:42:07Z</time>
      </trkpt>
      <trkpt lat="41.036586" lon="-5.675303">
        <ele>789.393</ele>
        <time>2021-10-13T14:42:08Z</time>
      </trkpt>
      <trkpt lat="41.036837" lon="-5.675380">
        <ele>790.439</ele>
        <time>2021-10-13T14:42:09Z</time>
      </trkpt>
      <trkpt lat="41.037341" lon="-5.675541">
        <ele>791.628</ele>
        <time>2021-10-13T14:42:11Z</time>
      </trkpt>
      <trkpt lat="41.037857" lon="-5.675699">
        <ele>793.473</ele>
        <time>2021-10-13T14:42:13Z</time>
      </trkpt>
      <trkpt lat="41.038378" lon="-5.675859">
        <ele>796.583</ele>
        <time>2021-10-13T14:42:15Z</time>
      </trkpt>
      <trkpt lat="41.038907" lon="-5.676016">
        <ele>798.725</ele>
        <time>2021-10-13T14:42:17Z</time>
      </trkpt>
      <trkpt lat="41.039418" lon="-5.676173">
        <ele>801.917</ele>
        <time>2021-10-13T14:42:19Z</time>
      </trkpt>
      <trkpt lat="41.039668" lon="-5.676251">
        <ele>803.508</ele>
        <time>2021-10-13T14:42:20Z</time>
      </trkpt>
      <trkpt lat="41.039916" lon="-5.676324">
        <ele>804.236</ele>
        <time>2021-10-13T14:42:21Z</time>
      </trkpt>
      <trkpt lat="41.040163" lon="-5.676397">
        <ele>805.414</ele>
        <time>2021-10-13T14:42:22Z</time>
      </trkpt>
      <trkpt lat="41.040665" lon="-5.676543">
        <ele>807.631</ele>
        <time>2021-10-13T14:42:24Z</time>
      </trkpt>
      <trkpt lat="41.040917" lon="-5.676617">
        <ele>809.181</ele>
        <time>2021-10-13T14:42:25Z</time>
      </trkpt>
      <trkpt lat="41.041176" lon="-5.676694">
        <ele>810.224</ele>
        <time>2021-10-13T14:42:26Z</time>
      </trkpt>
      <trkpt lat="41.041672" lon="-5.676841">
        <ele>812.090</ele>
        <time>2021-10-13T14:42:28Z</time>
      </trkpt>
      <trkpt lat="41.041930" lon="-5.676919">
        <ele>813.389</ele>
        <time>2021-10-13T14:42:29Z</time>
      </trkpt>
      <trkpt lat="41.042427" lon="-5.677077">
        <ele>814.714</ele>
        <time>2021-10-13T14:42:31Z</time>
      </trkpt>
      <trkpt lat="41.042668" lon="-5.677153">
        <ele>814.825</ele>
        <time>2021-10-13T14:42:32Z</time>
      </trkpt>
      <trkpt lat="41.043102" lon="-5.677292">
        <ele>814.926</ele>
        <time>2021-10-13T14:42:34Z</time>
      </trkpt>
      <trkpt lat="41.043539" lon="-5.677456">
        <ele>815.308</ele>
        <time>2021-10-13T14:42:36Z</time>
      </trkpt>
      <trkpt lat="41.043989" lon="-5.677657">
        <ele>816.308</ele>
        <time>2021-10-13T14:42:38Z</time>
      </trkpt>
      <trkpt lat="41.044459" lon="-5.677878">
        <ele>816.470</ele>
        <time>2021-10-13T14:42:40Z</time>
      </trkpt>
      <trkpt lat="41.044692" lon="-5.677986">
        <ele>816.278</ele>
        <time>2021-10-13T14:42:41Z</time>
      </trkpt>
      <trkpt lat="41.044923" lon="-5.678094">
        <ele>816.235</ele>
        <time>2021-10-13T14:42:42Z</time>
      </trkpt>
      <trkpt lat="41.045369" lon="-5.678314">
        <ele>816.435</ele>
        <time>2021-10-13T14:42:44Z</time>
      </trkpt>
      <trkpt lat="41.045803" lon="-5.678528">
        <ele>817.288</ele>
        <time>2021-10-13T14:42:46Z</time>
      </trkpt>
      <trkpt lat="41.046025" lon="-5.678632">
        <ele>817.294</ele>
        <time>2021-10-13T14:42:47Z</time>
      </trkpt>
      <trkpt lat="41.046254" lon="-5.678739">
        <ele>817.533</ele>
        <time>2021-10-13T14:42:48Z</time>
      </trkpt>
      <trkpt lat="41.046718" lon="-5.678954">
        <ele>818.048</ele>
        <time>2021-10-13T14:42:50Z</time>
      </trkpt>
      <trkpt lat="41.046954" lon="-5.679061">
        <ele>818.121</ele>
        <time>2021-10-13T14:42:51Z</time>
      </trkpt>
      <trkpt lat="41.047189" lon="-5.679163">
        <ele>817.941</ele>
        <time>2021-10-13T14:42:52Z</time>
      </trkpt>
      <trkpt lat="41.047625" lon="-5.679355">
        <ele>817.805</ele>
        <time>2021-10-13T14:42:54Z</time>
      </trkpt>
      <trkpt lat="41.047831" lon="-5.679447">
        <ele>817.908</ele>
        <time>2021-10-13T14:42:55Z</time>
      </trkpt>
      <trkpt lat="41.048029" lon="-5.679537">
        <ele>817.460</ele>
        <time>2021-10-13T14:42:56Z</time>
      </trkpt>
      <trkpt lat="41.048392" lon="-5.679702">
        <ele>817.438</ele>
        <time>2021-10-13T14:42:58Z</time>
      </trkpt>
      <trkpt lat="41.048787" lon="-5.679886">
        <ele>816.915</ele>
        <time>2021-10-13T14:43:00Z</time>
      </trkpt>
      <trkpt lat="41.049244" lon="-5.680101">
        <ele>817.185</ele>
        <time>2021-10-13T14:43:02Z</time>
      </trkpt>
      <trkpt lat="41.049709" lon="-5.680319">
        <ele>816.058</ele>
        <time>2021-10-13T14:43:04Z</time>
      </trkpt>
      <trkpt lat="41.050165" lon="-5.680533">
        <ele>815.654</ele>
        <time>2021-10-13T14:43:06Z</time>
      </trkpt>
      <trkpt lat="41.050609" lon="-5.680726">
        <ele>815.623</ele>
        <time>2021-10-13T14:43:08Z</time>
      </trkpt>
      <trkpt lat="41.050833" lon="-5.680820">
        <ele>815.078</ele>
        <time>2021-10-13T14:43:09Z</time>
      </trkpt>
      <trkpt lat="41.051052" lon="-5.680917">
        <ele>814.817</ele>
        <time>2021-10-13T14:43:10Z</time>
      </trkpt>
      <trkpt lat="41.051483" lon="-5.681117">
        <ele>814.687</ele>
        <time>2021-10-13T14:43:12Z</time>
      </trkpt>
      <trkpt lat="41.051903" lon="-5.681313">
        <ele>815.215</ele>
        <time>2021-10-13T14:43:14Z</time>
      </trkpt>
      <trkpt lat="41.052112" lon="-5.681409">
        <ele>815.108</ele>
        <time>2021-10-13T14:43:15Z</time>
      </trkpt>
      <trkpt lat="41.052535" lon="-5.681597">
        <ele>815.949</ele>
        <time>2021-10-13T14:43:17Z</time>
      </trkpt>
      <trkpt lat="41.052748" lon="-5.681696">
        <ele>816.127</ele>
        <time>2021-10-13T14:43:18Z</time>
      </trkpt>
      <trkpt lat="41.053185" lon="-5.681902">
        <ele>817.374</ele>
        <time>2021-10-13T14:43:20Z</time>
      </trkpt>
      <trkpt lat="41.053413" lon="-5.682009">
        <ele>817.394</ele>
        <time>2021-10-13T14:43:21Z</time>
      </trkpt>
      <trkpt lat="41.053643" lon="-5.682110">
        <ele>817.277</ele>
        <time>2021-10-13T14:43:22Z</time>
      </trkpt>
      <trkpt lat="41.054094" lon="-5.682309">
        <ele>817.633</ele>
        <time>2021-10-13T14:43:24Z</time>
      </trkpt>
      <trkpt lat="41.054526" lon="-5.682503">
        <ele>817.522</ele>
        <time>2021-10-13T14:43:26Z</time>
      </trkpt>
      <trkpt lat="41.054945" lon="-5.682689">
        <ele>818.787</ele>
        <time>2021-10-13T14:43:28Z</time>
      </trkpt>
      <trkpt lat="41.055152" lon="-5.682785">
        <ele>818.851</ele>
        <time>2021-10-13T14:43:29Z</time>
      </trkpt>
      <trkpt lat="41.055556" lon="-5.682975">
        <ele>819.201</ele>
        <time>2021-10-13T14:43:31Z</time>
      </trkpt>
      <trkpt lat="41.055760" lon="-5.683075">
        <ele>819.711</ele>
        <time>2021-10-13T14:43:32Z</time>
      </trkpt>
      <trkpt lat="41.056159" lon="-5.683260">
        <ele>820.108</ele>
        <time>2021-10-13T14:43:34Z</time>
      </trkpt>
      <trkpt lat="41.056372" lon="-5.683353">
        <ele>819.833</ele>
        <time>2021-10-13T14:43:35Z</time>
      </trkpt>
      <trkpt lat="41.056811" lon="-5.683547">
        <ele>820.441</ele>
        <time>2021-10-13T14:43:37Z</time>
      </trkpt>
      <trkpt lat="41.057033" lon="-5.683649">
        <ele>820.368</ele>
        <time>2021-10-13T14:43:38Z</time>
      </trkpt>
      <trkpt lat="41.057473" lon="-5.683843">
        <ele>820.748</ele>
        <time>2021-10-13T14:43:40Z</time>
      </trkpt>
      <trkpt lat="41.057682" lon="-5.683934">
        <ele>820.671</ele>
        <time>2021-10-13T14:43:41Z</time>
      </trkpt>
      <trkpt lat="41.058064" lon="-5.684106">
        <ele>820.767</ele>
        <time>2021-10-13T14:43:43Z</time>
      </trkpt>
      <trkpt lat="41.058424" lon="-5.684274">
        <ele>820.646</ele>
        <time>2021-10-13T14:43:45Z</time>
      </trkpt>
      <trkpt lat="41.058784" lon="-5.684450">
        <ele>821.071</ele>
        <time>2021-10-13T14:43:47Z</time>
      </trkpt>
      <trkpt lat="41.058975" lon="-5.684543">
        <ele>821.074</ele>
        <time>2021-10-13T14:43:48Z</time>
      </trkpt>
      <trkpt lat="41.059178" lon="-5.684636">
        <ele>821.156</ele>
        <time>2021-10-13T14:43:49Z</time>
      </trkpt>
      <trkpt lat="41.059388" lon="-5.684728">
        <ele>820.721</ele>
        <time>2021-10-13T14:43:50Z</time>
      </trkpt>
      <trkpt lat="41.059833" lon="-5.684923">
        <ele>820.508</ele>
        <time>2021-10-13T14:43:52Z</time>
      </trkpt>
      <trkpt lat="41.060275" lon="-5.685120">
        <ele>820.375</ele>
        <time>2021-10-13T14:43:54Z</time>
      </trkpt>
      <trkpt lat="41.060684" lon="-5.685310">
        <ele>820.253</ele>
        <time>2021-10-13T14:43:56Z</time>
      </trkpt>
      <trkpt lat="41.061104" lon="-5.685507">
        <ele>819.510</ele>
        <time>2021-10-13T14:43:58Z</time>
      </trkpt>
      <trkpt lat="41.061571" lon="-5.685735">
        <ele>819.560</ele>
        <time>2021-10-13T14:44:00Z</time>
      </trkpt>
      <trkpt lat="41.062098" lon="-5.685987">
        <ele>819.083</ele>
        <time>2021-10-13T14:44:02Z</time>
      </trkpt>
      <trkpt lat="41.062662" lon="-5.686252">
        <ele>818.769</ele>
        <time>2021-10-13T14:44:04Z</time>
      </trkpt>
      <trkpt lat="41.062972" lon="-5.686397">
        <ele>818.838</ele>
        <time>2021-10-13T14:44:05Z</time>
      </trkpt>
      <trkpt lat="41.063285" lon="-5.686541">
        <ele>818.663</ele>
        <time>2021-10-13T14:44:06Z</time>
      </trkpt>
      <trkpt lat="41.063596" lon="-5.686670">
        <ele>818.575</ele>
        <time>2021-10-13T14:44:07Z</time>
      </trkpt>
      <trkpt lat="41.063903" lon="-5.686792">
        <ele>818.628</ele>
        <time>2021-10-13T14:44:08Z</time>
      </trkpt>
      <trkpt lat="41.064208" lon="-5.686916">
        <ele>818.520</ele>
        <time>2021-10-13T14:44:09Z</time>
      </trkpt>
      <trkpt lat="41.064799" lon="-5.687190">
        <ele>818.908</ele>
        <time>2021-10-13T14:44:11Z</time>
      </trkpt>
      <trkpt lat="41.065392" lon="-5.687470">
        <ele>818.565</ele>
        <time>2021-10-13T14:44:13Z</time>
      </trkpt>
      <trkpt lat="41.065694" lon="-5.687612">
        <ele>818.143</ele>
        <time>2021-10-13T14:44:14Z</time>
      </trkpt>
      <trkpt lat="41.066312" lon="-5.687900">
        <ele>818.040</ele>
        <time>2021-10-13T14:44:16Z</time>
      </trkpt>
      <trkpt lat="41.066626" lon="-5.688046">
        <ele>818.060</ele>
        <time>2021-10-13T14:44:17Z</time>
      </trkpt>
      <trkpt lat="41.067255" lon="-5.688337">
        <ele>817.393</ele>
        <time>2021-10-13T14:44:19Z</time>
      </trkpt>
      <trkpt lat="41.067573" lon="-5.688478">
        <ele>817.329</ele>
        <time>2021-10-13T14:44:20Z</time>
      </trkpt>
      <trkpt lat="41.068206" lon="-5.688773">
        <ele>817.268</ele>
        <time>2021-10-13T14:44:22Z</time>
      </trkpt>
      <trkpt lat="41.068833" lon="-5.689062">
        <ele>817.083</ele>
        <time>2021-10-13T14:44:24Z</time>
      </trkpt>
      <trkpt lat="41.069457" lon="-5.689342">
        <ele>816.149</ele>
        <time>2021-10-13T14:44:26Z</time>
      </trkpt>
      <trkpt lat="41.070054" lon="-5.689609">
        <ele>815.102</ele>
        <time>2021-10-13T14:44:28Z</time>
      </trkpt>
      <trkpt lat="41.070355" lon="-5.689749">
        <ele>815.022</ele>
        <time>2021-10-13T14:44:29Z</time>
      </trkpt>
      <trkpt lat="41.070949" lon="-5.690024">
        <ele>814.108</ele>
        <time>2021-10-13T14:44:31Z</time>
      </trkpt>
      <trkpt lat="41.071254" lon="-5.690164">
        <ele>813.652</ele>
        <time>2021-10-13T14:44:32Z</time>
      </trkpt>
      <trkpt lat="41.071840" lon="-5.690435">
        <ele>813.430</ele>
        <time>2021-10-13T14:44:34Z</time>
      </trkpt>
      <trkpt lat="41.072441" lon="-5.690714">
        <ele>812.847</ele>
        <time>2021-10-13T14:44:36Z</time>
      </trkpt>
      <trkpt lat="41.073053" lon="-5.690998">
        <ele>812.187</ele>
        <time>2021-10-13T14:44:38Z</time>
      </trkpt>
      <trkpt lat="41.073360" lon="-5.691140">
        <ele>811.590</ele>
        <time>2021-10-13T14:44:39Z</time>
      </trkpt>
      <trkpt lat="41.073666" lon="-5.691280">
        <ele>811.366</ele>
        <time>2021-10-13T14:44:40Z</time>
      </trkpt>
      <trkpt lat="41.074263" lon="-5.691550">
        <ele>810.985</ele>
        <time>2021-10-13T14:44:42Z</time>
      </trkpt>
      <trkpt lat="41.074849" lon="-5.691820">
        <ele>811.030</ele>
        <time>2021-10-13T14:44:44Z</time>
      </trkpt>
      <trkpt lat="41.075424" lon="-5.692085">
        <ele>810.486</ele>
        <time>2021-10-13T14:44:46Z</time>
      </trkpt>
      <trkpt lat="41.075984" lon="-5.692345">
        <ele>810.660</ele>
        <time>2021-10-13T14:44:48Z</time>
      </trkpt>
      <trkpt lat="41.076270" lon="-5.692478">
        <ele>810.326</ele>
        <time>2021-10-13T14:44:49Z</time>
      </trkpt>
      <trkpt lat="41.076834" lon="-5.692737">
        <ele>810.308</ele>
        <time>2021-10-13T14:44:51Z</time>
      </trkpt>
      <trkpt lat="41.077399" lon="-5.692995">
        <ele>810.586</ele>
        <time>2021-10-13T14:44:53Z</time>
      </trkpt>
      <trkpt lat="41.077957" lon="-5.693248">
        <ele>811.324</ele>
        <time>2021-10-13T14:44:55Z</time>
      </trkpt>
      <trkpt lat="41.078241" lon="-5.693378">
        <ele>811.411</ele>
        <time>2021-10-13T14:44:56Z</time>
      </trkpt>
      <trkpt lat="41.078774" lon="-5.693622">
        <ele>812.841</ele>
        <time>2021-10-13T14:44:58Z</time>
      </trkpt>
      <trkpt lat="41.079306" lon="-5.693860">
        <ele>813.374</ele>
        <time>2021-10-13T14:45:00Z</time>
      </trkpt>
      <trkpt lat="41.079835" lon="-5.694108">
        <ele>813.850</ele>
        <time>2021-10-13T14:45:02Z</time>
      </trkpt>
      <trkpt lat="41.080343" lon="-5.694345">
        <ele>813.729</ele>
        <time>2021-10-13T14:45:04Z</time>
      </trkpt>
      <trkpt lat="41.080608" lon="-5.694468">
        <ele>813.654</ele>
        <time>2021-10-13T14:45:05Z</time>
      </trkpt>
      <trkpt lat="41.081148" lon="-5.694707">
        <ele>814.072</ele>
        <time>2021-10-13T14:45:07Z</time>
      </trkpt>
      <trkpt lat="41.081700" lon="-5.694955">
        <ele>813.513</ele>
        <time>2021-10-13T14:45:09Z</time>
      </trkpt>
      <trkpt lat="41.082262" lon="-5.695215">
        <ele>812.714</ele>
        <time>2021-10-13T14:45:11Z</time>
      </trkpt>
      <trkpt lat="41.082548" lon="-5.695349">
        <ele>812.408</ele>
        <time>2021-10-13T14:45:12Z</time>
      </trkpt>
      <trkpt lat="41.083113" lon="-5.695614">
        <ele>811.315</ele>
        <time>2021-10-13T14:45:14Z</time>
      </trkpt>
      <trkpt lat="41.083377" lon="-5.695738">
        <ele>811.043</ele>
        <time>2021-10-13T14:45:15Z</time>
      </trkpt>
      <trkpt lat="41.083881" lon="-5.695969">
        <ele>810.020</ele>
        <time>2021-10-13T14:45:17Z</time>
      </trkpt>
      <trkpt lat="41.084129" lon="-5.696076">
        <ele>809.870</ele>
        <time>2021-10-13T14:45:18Z</time>
      </trkpt>
      <trkpt lat="41.084373" lon="-5.696185">
        <ele>810.053</ele>
        <time>2021-10-13T14:45:19Z</time>
      </trkpt>
      <trkpt lat="41.084851" lon="-5.696402">
        <ele>809.549</ele>
        <time>2021-10-13T14:45:21Z</time>
      </trkpt>
      <trkpt lat="41.085301" lon="-5.696606">
        <ele>808.698</ele>
        <time>2021-10-13T14:45:23Z</time>
      </trkpt>
      <trkpt lat="41.085714" lon="-5.696790">
        <ele>808.373</ele>
        <time>2021-10-13T14:45:25Z</time>
      </trkpt>
      <trkpt lat="41.085923" lon="-5.696883">
        <ele>807.464</ele>
        <time>2021-10-13T14:45:26Z</time>
      </trkpt>
      <trkpt lat="41.086313" lon="-5.697046">
        <ele>806.506</ele>
        <time>2021-10-13T14:45:28Z</time>
      </trkpt>
      <trkpt lat="41.086693" lon="-5.697222">
        <ele>805.316</ele>
        <time>2021-10-13T14:45:30Z</time>
      </trkpt>
      <trkpt lat="41.086883" lon="-5.697311">
        <ele>805.208</ele>
        <time>2021-10-13T14:45:31Z</time>
      </trkpt>
      <trkpt lat="41.087076" lon="-5.697396">
        <ele>804.884</ele>
        <time>2021-10-13T14:45:32Z</time>
      </trkpt>
      <trkpt lat="41.087444" lon="-5.697561">
        <ele>804.272</ele>
        <time>2021-10-13T14:45:34Z</time>
      </trkpt>
      <trkpt lat="41.087850" lon="-5.697763">
        <ele>803.559</ele>
        <time>2021-10-13T14:45:36Z</time>
      </trkpt>
      <trkpt lat="41.088079" lon="-5.697878">
        <ele>803.739</ele>
        <time>2021-10-13T14:45:37Z</time>
      </trkpt>
      <trkpt lat="41.088566" lon="-5.698111">
        <ele>803.952</ele>
        <time>2021-10-13T14:45:39Z</time>
      </trkpt>
      <trkpt lat="41.088823" lon="-5.698230">
        <ele>804.598</ele>
        <time>2021-10-13T14:45:40Z</time>
      </trkpt>
      <trkpt lat="41.089351" lon="-5.698476">
        <ele>805.237</ele>
        <time>2021-10-13T14:45:42Z</time>
      </trkpt>
      <trkpt lat="41.089625" lon="-5.698597">
        <ele>805.612</ele>
        <time>2021-10-13T14:45:43Z</time>
      </trkpt>
      <trkpt lat="41.090176" lon="-5.698843">
        <ele>807.684</ele>
        <time>2021-10-13T14:45:45Z</time>
      </trkpt>
      <trkpt lat="41.090455" lon="-5.698973">
        <ele>808.307</ele>
        <time>2021-10-13T14:45:46Z</time>
      </trkpt>
      <trkpt lat="41.090733" lon="-5.699104">
        <ele>809.217</ele>
        <time>2021-10-13T14:45:47Z</time>
      </trkpt>
      <trkpt lat="41.091282" lon="-5.699350">
        <ele>810.808</ele>
        <time>2021-10-13T14:45:49Z</time>
      </trkpt>
      <trkpt lat="41.091544" lon="-5.699464">
        <ele>811.876</ele>
        <time>2021-10-13T14:45:50Z</time>
      </trkpt>
      <trkpt lat="41.092046" lon="-5.699666">
        <ele>813.644</ele>
        <time>2021-10-13T14:45:52Z</time>
      </trkpt>
      <trkpt lat="41.092569" lon="-5.699813">
        <ele>814.961</ele>
        <time>2021-10-13T14:45:54Z</time>
      </trkpt>
      <trkpt lat="41.093128" lon="-5.699920">
        <ele>816.221</ele>
        <time>2021-10-13T14:45:56Z</time>
      </trkpt>
      <trkpt lat="41.093677" lon="-5.699963">
        <ele>817.574</ele>
        <time>2021-10-13T14:45:58Z</time>
      </trkpt>
      <trkpt lat="41.093967" lon="-5.699965">
        <ele>817.850</ele>
        <time>2021-10-13T14:45:59Z</time>
      </trkpt>
      <trkpt lat="41.094552" lon="-5.699938">
        <ele>818.019</ele>
        <time>2021-10-13T14:46:01Z</time>
      </trkpt>
      <trkpt lat="41.094853" lon="-5.699910">
        <ele>818.674</ele>
        <time>2021-10-13T14:46:02Z</time>
      </trkpt>
      <trkpt lat="41.095432" lon="-5.699856">
        <ele>818.351</ele>
        <time>2021-10-13T14:46:04Z</time>
      </trkpt>
      <trkpt lat="41.095738" lon="-5.699830">
        <ele>817.601</ele>
        <time>2021-10-13T14:46:05Z</time>
      </trkpt>
      <trkpt lat="41.096339" lon="-5.699782">
        <ele>818.211</ele>
        <time>2021-10-13T14:46:07Z</time>
      </trkpt>
      <trkpt lat="41.096646" lon="-5.699757">
        <ele>817.608</ele>
        <time>2021-10-13T14:46:08Z</time>
      </trkpt>
      <trkpt lat="41.096956" lon="-5.699733">
        <ele>817.163</ele>
        <time>2021-10-13T14:46:09Z</time>
      </trkpt>
      <trkpt lat="41.097575" lon="-5.699686">
        <ele>816.371</ele>
        <time>2021-10-13T14:46:11Z</time>
      </trkpt>
      <trkpt lat="41.098183" lon="-5.699639">
        <ele>816.848</ele>
        <time>2021-10-13T14:46:13Z</time>
      </trkpt>
      <trkpt lat="41.098487" lon="-5.699616">
        <ele>816.898</ele>
        <time>2021-10-13T14:46:14Z</time>
      </trkpt>
      <trkpt lat="41.099089" lon="-5.699568">
        <ele>817.371</ele>
        <time>2021-10-13T14:46:16Z</time>
      </trkpt>
      <trkpt lat="41.099395" lon="-5.699543">
        <ele>817.997</ele>
        <time>2021-10-13T14:46:17Z</time>
      </trkpt>
      <trkpt lat="41.100013" lon="-5.699493">
        <ele>818.996</ele>
        <time>2021-10-13T14:46:19Z</time>
      </trkpt>
      <trkpt lat="41.100629" lon="-5.699453">
        <ele>820.361</ele>
        <time>2021-10-13T14:46:21Z</time>
      </trkpt>
      <trkpt lat="41.101230" lon="-5.699409">
        <ele>821.199</ele>
        <time>2021-10-13T14:46:23Z</time>
      </trkpt>
      <trkpt lat="41.101829" lon="-5.699358">
        <ele>821.707</ele>
        <time>2021-10-13T14:46:25Z</time>
      </trkpt>
      <trkpt lat="41.102144" lon="-5.699332">
        <ele>822.227</ele>
        <time>2021-10-13T14:46:26Z</time>
      </trkpt>
      <trkpt lat="41.102754" lon="-5.699281">
        <ele>824.008</ele>
        <time>2021-10-13T14:46:28Z</time>
      </trkpt>
      <trkpt lat="41.103388" lon="-5.699231">
        <ele>825.067</ele>
        <time>2021-10-13T14:46:30Z</time>
      </trkpt>
      <trkpt lat="41.104039" lon="-5.699192">
        <ele>825.875</ele>
        <time>2021-10-13T14:46:32Z</time>
      </trkpt>
      <trkpt lat="41.104668" lon="-5.699181">
        <ele>827.482</ele>
        <time>2021-10-13T14:46:34Z</time>
      </trkpt>
      <trkpt lat="41.104991" lon="-5.699199">
        <ele>827.522</ele>
        <time>2021-10-13T14:46:35Z</time>
      </trkpt>
      <trkpt lat="41.105635" lon="-5.699289">
        <ele>828.495</ele>
        <time>2021-10-13T14:46:37Z</time>
      </trkpt>
      <trkpt lat="41.106268" lon="-5.699401">
        <ele>829.111</ele>
        <time>2021-10-13T14:46:39Z</time>
      </trkpt>
      <trkpt lat="41.106891" lon="-5.699446">
        <ele>830.670</ele>
        <time>2021-10-13T14:46:41Z</time>
      </trkpt>
      <trkpt lat="41.107200" lon="-5.699442">
        <ele>830.545</ele>
        <time>2021-10-13T14:46:42Z</time>
      </trkpt>
      <trkpt lat="41.107510" lon="-5.699424">
        <ele>830.312</ele>
        <time>2021-10-13T14:46:43Z</time>
      </trkpt>
      <trkpt lat="41.108115" lon="-5.699375">
        <ele>830.032</ele>
        <time>2021-10-13T14:46:45Z</time>
      </trkpt>
      <trkpt lat="41.108729" lon="-5.699330">
        <ele>828.805</ele>
        <time>2021-10-13T14:46:47Z</time>
      </trkpt>
      <trkpt lat="41.109050" lon="-5.699310">
        <ele>828.608</ele>
        <time>2021-10-13T14:46:48Z</time>
      </trkpt>
      <trkpt lat="41.109696" lon="-5.699267">
        <ele>828.159</ele>
        <time>2021-10-13T14:46:50Z</time>
      </trkpt>
      <trkpt lat="41.110363" lon="-5.699209">
        <ele>826.037</ele>
        <time>2021-10-13T14:46:52Z</time>
      </trkpt>
      <trkpt lat="41.110698" lon="-5.699182">
        <ele>825.494</ele>
        <time>2021-10-13T14:46:53Z</time>
      </trkpt>
      <trkpt lat="41.111368" lon="-5.699130">
        <ele>824.594</ele>
        <time>2021-10-13T14:46:55Z</time>
      </trkpt>
      <trkpt lat="41.111712" lon="-5.699105">
        <ele>823.817</ele>
        <time>2021-10-13T14:46:56Z</time>
      </trkpt>
      <trkpt lat="41.112371" lon="-5.699066">
        <ele>822.913</ele>
        <time>2021-10-13T14:46:58Z</time>
      </trkpt>
      <trkpt lat="41.113042" lon="-5.699030">
        <ele>821.882</ele>
        <time>2021-10-13T14:47:00Z</time>
      </trkpt>
      <trkpt lat="41.113724" lon="-5.699022">
        <ele>820.027</ele>
        <time>2021-10-13T14:47:02Z</time>
      </trkpt>
      <trkpt lat="41.114387" lon="-5.699043">
        <ele>820.563</ele>
        <time>2021-10-13T14:47:04Z</time>
      </trkpt>
      <trkpt lat="41.114724" lon="-5.699058">
        <ele>820.544</ele>
        <time>2021-10-13T14:47:05Z</time>
      </trkpt>
      <trkpt lat="41.115381" lon="-5.699103">
        <ele>822.718</ele>
        <time>2021-10-13T14:47:07Z</time>
      </trkpt>
      <trkpt lat="41.115704" lon="-5.699124">
        <ele>823.208</ele>
        <time>2021-10-13T14:47:08Z</time>
      </trkpt>
      <trkpt lat="41.116025" lon="-5.699144">
        <ele>824.524</ele>
        <time>2021-10-13T14:47:09Z</time>
      </trkpt>
      <trkpt lat="41.116666" lon="-5.699192">
        <ele>825.192</ele>
        <time>2021-10-13T14:47:11Z</time>
      </trkpt>
      <trkpt lat="41.117298" lon="-5.699241">
        <ele>826.299</ele>
        <time>2021-10-13T14:47:13Z</time>
      </trkpt>
      <trkpt lat="41.117869" lon="-5.699277">
        <ele>827.039</ele>
        <time>2021-10-13T14:47:15Z</time>
      </trkpt>
      <trkpt lat="41.118380" lon="-5.699303">
        <ele>826.172</ele>
        <time>2021-10-13T14:47:17Z</time>
      </trkpt>
      <trkpt lat="41.118839" lon="-5.699354">
        <ele>825.618</ele>
        <time>2021-10-13T14:47:19Z</time>
      </trkpt>
      <trkpt lat="41.119061" lon="-5.699424">
        <ele>826.037</ele>
        <time>2021-10-13T14:47:20Z</time>
      </trkpt>
      <trkpt lat="41.119481" lon="-5.699683">
        <ele>825.922</ele>
        <time>2021-10-13T14:47:22Z</time>
      </trkpt>
      <trkpt lat="41.119837" lon="-5.700125">
        <ele>825.594</ele>
        <time>2021-10-13T14:47:24Z</time>
      </trkpt>
      <trkpt lat="41.120111" lon="-5.700699">
        <ele>824.857</ele>
        <time>2021-10-13T14:47:26Z</time>
      </trkpt>
      <trkpt lat="41.120376" lon="-5.701223">
        <ele>825.122</ele>
        <time>2021-10-13T14:47:28Z</time>
      </trkpt>
      <trkpt lat="41.120543" lon="-5.701424">
        <ele>824.408</ele>
        <time>2021-10-13T14:47:29Z</time>
      </trkpt>
      <trkpt lat="41.120919" lon="-5.701625">
        <ele>823.947</ele>
        <time>2021-10-13T14:47:31Z</time>
      </trkpt>
      <trkpt lat="41.121112" lon="-5.701655">
        <ele>823.115</ele>
        <time>2021-10-13T14:47:32Z</time>
      </trkpt>
      <trkpt lat="41.121449" lon="-5.701566">
        <ele>822.412</ele>
        <time>2021-10-13T14:47:34Z</time>
      </trkpt>
      <trkpt lat="41.121604" lon="-5.701470">
        <ele>822.432</ele>
        <time>2021-10-13T14:47:35Z</time>
      </trkpt>
      <trkpt lat="41.121870" lon="-5.701204">
        <ele>823.035</ele>
        <time>2021-10-13T14:47:37Z</time>
      </trkpt>
      <trkpt lat="41.122027" lon="-5.700933">
        <ele>824.161</ele>
        <time>2021-10-13T14:47:39Z</time>
      </trkpt>
      <trkpt lat="41.122071" lon="-5.700814">
        <ele>824.490</ele>
        <time>2021-10-13T14:47:40Z</time>
      </trkpt>
      <trkpt lat="41.122096" lon="-5.700595">
        <ele>824.565</ele>
        <time>2021-10-13T14:47:42Z</time>
      </trkpt>
      <trkpt lat="41.122078" lon="-5.700492">
        <ele>824.472</ele>
        <time>2021-10-13T14:47:43Z</time>
      </trkpt>
      <trkpt lat="41.122042" lon="-5.700385">
        <ele>824.313</ele>
        <time>2021-10-13T14:47:44Z</time>
      </trkpt>
      <trkpt lat="41.122001" lon="-5.700151">
        <ele>824.514</ele>
        <time>2021-10-13T14:47:46Z</time>
      </trkpt>
      <trkpt lat="41.122026" lon="-5.700033">
        <ele>825.708</ele>
        <time>2021-10-13T14:47:47Z</time>
      </trkpt>
      <trkpt lat="41.122136" lon="-5.699795">
        <ele>825.915</ele>
        <time>2021-10-13T14:47:49Z</time>
      </trkpt>
      <trkpt lat="41.122224" lon="-5.699478">
        <ele>826.233</ele>
        <time>2021-10-13T14:47:51Z</time>
      </trkpt>
      <trkpt lat="41.122242" lon="-5.699289">
        <ele>826.470</ele>
        <time>2021-10-13T14:47:52Z</time>
      </trkpt>
      <trkpt lat="41.122256" lon="-5.698889">
        <ele>826.670</ele>
        <time>2021-10-13T14:47:54Z</time>
      </trkpt>
      <trkpt lat="41.122259" lon="-5.698554">
        <ele>827.593</ele>
        <time>2021-10-13T14:47:56Z</time>
      </trkpt>
      <trkpt lat="41.122194" lon="-5.698303">
        <ele>827.719</ele>
        <time>2021-10-13T14:47:58Z</time>
      </trkpt>
      <trkpt lat="41.122141" lon="-5.698192">
        <ele>827.718</ele>
        <time>2021-10-13T14:47:59Z</time>
      </trkpt>
      <trkpt lat="41.122077" lon="-5.697987">
        <ele>828.153</ele>
        <time>2021-10-13T14:48:01Z</time>
      </trkpt>
      <trkpt lat="41.122087" lon="-5.697891">
        <ele>828.225</ele>
        <time>2021-10-13T14:48:02Z</time>
      </trkpt>
      <trkpt lat="41.122176" lon="-5.697729">
        <ele>828.226</ele>
        <time>2021-10-13T14:48:04Z</time>
      </trkpt>
      <trkpt lat="41.122299" lon="-5.697548">
        <ele>827.308</ele>
        <time>2021-10-13T14:48:06Z</time>
      </trkpt>
      <trkpt lat="41.122351" lon="-5.697432">
        <ele>827.108</ele>
        <time>2021-10-13T14:48:07Z</time>
      </trkpt>
      <trkpt lat="41.122389" lon="-5.697294">
        <ele>826.810</ele>
        <time>2021-10-13T14:48:08Z</time>
      </trkpt>
      <trkpt lat="41.122478" lon="-5.696985">
        <ele>826.498</ele>
        <time>2021-10-13T14:48:10Z</time>
      </trkpt>
      <trkpt lat="41.122647" lon="-5.696668">
        <ele>826.945</ele>
        <time>2021-10-13T14:48:12Z</time>
      </trkpt>
      <trkpt lat="41.122895" lon="-5.696393">
        <ele>824.255</ele>
        <time>2021-10-13T14:48:14Z</time>
      </trkpt>
      <trkpt lat="41.123203" lon="-5.696209">
        <ele>823.228</ele>
        <time>2021-10-13T14:48:16Z</time>
      </trkpt>
      <trkpt lat="41.123379" lon="-5.696168">
        <ele>822.234</ele>
        <time>2021-10-13T14:48:17Z</time>
      </trkpt>
      <trkpt lat="41.123756" lon="-5.696210">
        <ele>821.123</ele>
        <time>2021-10-13T14:48:19Z</time>
      </trkpt>
      <trkpt lat="41.124107" lon="-5.696434">
        <ele>820.038</ele>
        <time>2021-10-13T14:48:21Z</time>
      </trkpt>
      <trkpt lat="41.124422" lon="-5.696778">
        <ele>818.145</ele>
        <time>2021-10-13T14:48:23Z</time>
      </trkpt>
      <trkpt lat="41.124589" lon="-5.696949">
        <ele>817.747</ele>
        <time>2021-10-13T14:48:24Z</time>
      </trkpt>
      <trkpt lat="41.124972" lon="-5.697236">
        <ele>817.611</ele>
        <time>2021-10-13T14:48:26Z</time>
      </trkpt>
      <trkpt lat="41.125419" lon="-5.697387">
        <ele>816.408</ele>
        <time>2021-10-13T14:48:28Z</time>
      </trkpt>
      <trkpt lat="41.125925" lon="-5.697391">
        <ele>815.642</ele>
        <time>2021-10-13T14:48:30Z</time>
      </trkpt>
      <trkpt lat="41.126185" lon="-5.697359">
        <ele>814.950</ele>
        <time>2021-10-13T14:48:31Z</time>
      </trkpt>
      <trkpt lat="41.126458" lon="-5.697324">
        <ele>814.577</ele>
        <time>2021-10-13T14:48:32Z</time>
      </trkpt>
      <trkpt lat="41.127011" lon="-5.697261">
        <ele>811.887</ele>
        <time>2021-10-13T14:48:34Z</time>
      </trkpt>
      <trkpt lat="41.127302" lon="-5.697231">
        <ele>810.580</ele>
        <time>2021-10-13T14:48:35Z</time>
      </trkpt>
      <trkpt lat="41.127886" lon="-5.697181">
        <ele>808.696</ele>
        <time>2021-10-13T14:48:37Z</time>
      </trkpt>
      <trkpt lat="41.128174" lon="-5.697149">
        <ele>807.355</ele>
        <time>2021-10-13T14:48:38Z</time>
      </trkpt>
      <trkpt lat="41.128454" lon="-5.697118">
        <ele>806.630</ele>
        <time>2021-10-13T14:48:39Z</time>
      </trkpt>
      <trkpt lat="41.128727" lon="-5.697089">
        <ele>806.467</ele>
        <time>2021-10-13T14:48:40Z</time>
      </trkpt>
      <trkpt lat="41.129241" lon="-5.697036">
        <ele>806.281</ele>
        <time>2021-10-13T14:48:42Z</time>
      </trkpt>
      <trkpt lat="41.129712" lon="-5.696985">
        <ele>804.619</ele>
        <time>2021-10-13T14:48:44Z</time>
      </trkpt>
      <trkpt lat="41.129933" lon="-5.696961">
        <ele>804.108</ele>
        <time>2021-10-13T14:48:45Z</time>
      </trkpt>
      <trkpt lat="41.130353" lon="-5.696918">
        <ele>803.154</ele>
        <time>2021-10-13T14:48:47Z</time>
      </trkpt>
      <trkpt lat="41.130779" lon="-5.696886">
        <ele>802.822</ele>
        <time>2021-10-13T14:48:49Z</time>
      </trkpt>
      <trkpt lat="41.131239" lon="-5.696842">
        <ele>802.349</ele>
        <time>2021-10-13T14:48:51Z</time>
      </trkpt>
      <trkpt lat="41.131720" lon="-5.696790">
        <ele>802.719</ele>
        <time>2021-10-13T14:48:53Z</time>
      </trkpt>
      <trkpt lat="41.132215" lon="-5.696745">
        <ele>802.782</ele>
        <time>2021-10-13T14:48:55Z</time>
      </trkpt>
      <trkpt lat="41.132478" lon="-5.696718">
        <ele>802.678</ele>
        <time>2021-10-13T14:48:56Z</time>
      </trkpt>
      <trkpt lat="41.132992" lon="-5.696667">
        <ele>802.887</ele>
        <time>2021-10-13T14:48:58Z</time>
      </trkpt>
      <trkpt lat="41.133514" lon="-5.696614">
        <ele>802.922</ele>
        <time>2021-10-13T14:49:00Z</time>
      </trkpt>
      <trkpt lat="41.134043" lon="-5.696556">
        <ele>802.788</ele>
        <time>2021-10-13T14:49:02Z</time>
      </trkpt>
      <trkpt lat="41.134545" lon="-5.696500">
        <ele>803.624</ele>
        <time>2021-10-13T14:49:04Z</time>
      </trkpt>
      <trkpt lat="41.134800" lon="-5.696479">
        <ele>804.226</ele>
        <time>2021-10-13T14:49:05Z</time>
      </trkpt>
      <trkpt lat="41.135050" lon="-5.696456">
        <ele>804.608</ele>
        <time>2021-10-13T14:49:06Z</time>
      </trkpt>
      <trkpt lat="41.135538" lon="-5.696405">
        <ele>805.516</ele>
        <time>2021-10-13T14:49:08Z</time>
      </trkpt>
      <trkpt lat="41.136007" lon="-5.696352">
        <ele>806.894</ele>
        <time>2021-10-13T14:49:10Z</time>
      </trkpt>
      <trkpt lat="41.136241" lon="-5.696328">
        <ele>807.471</ele>
        <time>2021-10-13T14:49:11Z</time>
      </trkpt>
      <trkpt lat="41.136698" lon="-5.696278">
        <ele>808.141</ele>
        <time>2021-10-13T14:49:13Z</time>
      </trkpt>
      <trkpt lat="41.136926" lon="-5.696251">
        <ele>809.014</ele>
        <time>2021-10-13T14:49:14Z</time>
      </trkpt>
      <trkpt lat="41.137153" lon="-5.696227">
        <ele>809.670</ele>
        <time>2021-10-13T14:49:15Z</time>
      </trkpt>
      <trkpt lat="41.137608" lon="-5.696178">
        <ele>811.479</ele>
        <time>2021-10-13T14:49:17Z</time>
      </trkpt>
      <trkpt lat="41.138092" lon="-5.696137">
        <ele>812.994</ele>
        <time>2021-10-13T14:49:19Z</time>
      </trkpt>
      <trkpt lat="41.138606" lon="-5.696089">
        <ele>814.216</ele>
        <time>2021-10-13T14:49:21Z</time>
      </trkpt>
      <trkpt lat="41.138877" lon="-5.696061">
        <ele>815.076</ele>
        <time>2021-10-13T14:49:22Z</time>
      </trkpt>
      <trkpt lat="41.139155" lon="-5.696032">
        <ele>816.113</ele>
        <time>2021-10-13T14:49:23Z</time>
      </trkpt>
      <trkpt lat="41.139736" lon="-5.695975">
        <ele>818.608</ele>
        <time>2021-10-13T14:49:25Z</time>
      </trkpt>
      <trkpt lat="41.140046" lon="-5.695944">
        <ele>820.249</ele>
        <time>2021-10-13T14:49:26Z</time>
      </trkpt>
      <trkpt lat="41.140653" lon="-5.695881">
        <ele>822.037</ele>
        <time>2021-10-13T14:49:28Z</time>
      </trkpt>
      <trkpt lat="41.140968" lon="-5.695848">
        <ele>822.794</ele>
        <time>2021-10-13T14:49:29Z</time>
      </trkpt>
      <trkpt lat="41.141591" lon="-5.695776">
        <ele>824.754</ele>
        <time>2021-10-13T14:49:31Z</time>
      </trkpt>
      <trkpt lat="41.141908" lon="-5.695739">
        <ele>826.067</ele>
        <time>2021-10-13T14:49:32Z</time>
      </trkpt>
      <trkpt lat="41.142515" lon="-5.695681">
        <ele>826.153</ele>
        <time>2021-10-13T14:49:34Z</time>
      </trkpt>
      <trkpt lat="41.143129" lon="-5.695630">
        <ele>826.632</ele>
        <time>2021-10-13T14:49:36Z</time>
      </trkpt>
      <trkpt lat="41.143734" lon="-5.695571">
        <ele>826.937</ele>
        <time>2021-10-13T14:49:38Z</time>
      </trkpt>
      <trkpt lat="41.144042" lon="-5.695533">
        <ele>826.773</ele>
        <time>2021-10-13T14:49:39Z</time>
      </trkpt>
      <trkpt lat="41.144664" lon="-5.695469">
        <ele>826.185</ele>
        <time>2021-10-13T14:49:41Z</time>
      </trkpt>
      <trkpt lat="41.144984" lon="-5.695436">
        <ele>826.513</ele>
        <time>2021-10-13T14:49:42Z</time>
      </trkpt>
      <trkpt lat="41.145307" lon="-5.695409">
        <ele>826.708</ele>
        <time>2021-10-13T14:49:43Z</time>
      </trkpt>
      <trkpt lat="41.145629" lon="-5.695382">
        <ele>826.375</ele>
        <time>2021-10-13T14:49:44Z</time>
      </trkpt>
      <trkpt lat="41.146243" lon="-5.695339">
        <ele>827.353</ele>
        <time>2021-10-13T14:49:46Z</time>
      </trkpt>
      <trkpt lat="41.146541" lon="-5.695322">
        <ele>827.540</ele>
        <time>2021-10-13T14:49:47Z</time>
      </trkpt>
      <trkpt lat="41.146830" lon="-5.695313">
        <ele>827.840</ele>
        <time>2021-10-13T14:49:48Z</time>
      </trkpt>
      <trkpt lat="41.147393" lon="-5.695306">
        <ele>827.883</ele>
        <time>2021-10-13T14:49:50Z</time>
      </trkpt>
      <trkpt lat="41.147676" lon="-5.695297">
        <ele>827.259</ele>
        <time>2021-10-13T14:49:51Z</time>
      </trkpt>
      <trkpt lat="41.148242" lon="-5.695292">
        <ele>827.638</ele>
        <time>2021-10-13T14:49:53Z</time>
      </trkpt>
      <trkpt lat="41.148535" lon="-5.695289">
        <ele>827.223</ele>
        <time>2021-10-13T14:49:54Z</time>
      </trkpt>
      <trkpt lat="41.148831" lon="-5.695286">
        <ele>826.936</ele>
        <time>2021-10-13T14:49:55Z</time>
      </trkpt>
      <trkpt lat="41.149140" lon="-5.695281">
        <ele>827.317</ele>
        <time>2021-10-13T14:49:56Z</time>
      </trkpt>
      <trkpt lat="41.149731" lon="-5.695269">
        <ele>827.118</ele>
        <time>2021-10-13T14:49:58Z</time>
      </trkpt>
      <trkpt lat="41.150031" lon="-5.695265">
        <ele>827.408</ele>
        <time>2021-10-13T14:49:59Z</time>
      </trkpt>
      <trkpt lat="41.150619" lon="-5.695249">
        <ele>827.871</ele>
        <time>2021-10-13T14:50:01Z</time>
      </trkpt>
      <trkpt lat="41.150910" lon="-5.695240">
        <ele>828.389</ele>
        <time>2021-10-13T14:50:02Z</time>
      </trkpt>
      <trkpt lat="41.151467" lon="-5.695232">
        <ele>828.096</ele>
        <time>2021-10-13T14:50:04Z</time>
      </trkpt>
      <trkpt lat="41.151750" lon="-5.695223">
        <ele>827.856</ele>
        <time>2021-10-13T14:50:05Z</time>
      </trkpt>
      <trkpt lat="41.152317" lon="-5.695215">
        <ele>828.919</ele>
        <time>2021-10-13T14:50:07Z</time>
      </trkpt>
      <trkpt lat="41.152870" lon="-5.695204">
        <ele>831.125</ele>
        <time>2021-10-13T14:50:09Z</time>
      </trkpt>
      <trkpt lat="41.153149" lon="-5.695200">
        <ele>832.794</ele>
        <time>2021-10-13T14:50:10Z</time>
      </trkpt>
      <trkpt lat="41.153700" lon="-5.695189">
        <ele>832.939</ele>
        <time>2021-10-13T14:50:12Z</time>
      </trkpt>
      <trkpt lat="41.154222" lon="-5.695181">
        <ele>833.995</ele>
        <time>2021-10-13T14:50:14Z</time>
      </trkpt>
      <trkpt lat="41.154456" lon="-5.695176">
        <ele>834.049</ele>
        <time>2021-10-13T14:50:15Z</time>
      </trkpt>
      <trkpt lat="41.154680" lon="-5.695170">
        <ele>834.023</ele>
        <time>2021-10-13T14:50:16Z</time>
      </trkpt>
      <trkpt lat="41.155109" lon="-5.695155">
        <ele>835.508</ele>
        <time>2021-10-13T14:50:18Z</time>
      </trkpt>
      <trkpt lat="41.155537" lon="-5.695145">
        <ele>836.127</ele>
        <time>2021-10-13T14:50:20Z</time>
      </trkpt>
      <trkpt lat="41.155759" lon="-5.695142">
        <ele>836.345</ele>
        <time>2021-10-13T14:50:21Z</time>
      </trkpt>
      <trkpt lat="41.156241" lon="-5.695126">
        <ele>837.182</ele>
        <time>2021-10-13T14:50:23Z</time>
      </trkpt>
      <trkpt lat="41.156756" lon="-5.695112">
        <ele>837.812</ele>
        <time>2021-10-13T14:50:25Z</time>
      </trkpt>
      <trkpt lat="41.157033" lon="-5.695110">
        <ele>838.585</ele>
        <time>2021-10-13T14:50:26Z</time>
      </trkpt>
      <trkpt lat="41.157570" lon="-5.695103">
        <ele>839.631</ele>
        <time>2021-10-13T14:50:28Z</time>
      </trkpt>
      <trkpt lat="41.158094" lon="-5.695092">
        <ele>840.120</ele>
        <time>2021-10-13T14:50:30Z</time>
      </trkpt>
      <trkpt lat="41.158332" lon="-5.695087">
        <ele>840.525</ele>
        <time>2021-10-13T14:50:31Z</time>
      </trkpt>
      <trkpt lat="41.158564" lon="-5.695078">
        <ele>841.165</ele>
        <time>2021-10-13T14:50:32Z</time>
      </trkpt>
      <trkpt lat="41.158990" lon="-5.695069">
        <ele>842.068</ele>
        <time>2021-10-13T14:50:34Z</time>
      </trkpt>
      <trkpt lat="41.159204" lon="-5.695065">
        <ele>842.914</ele>
        <time>2021-10-13T14:50:35Z</time>
      </trkpt>
      <trkpt lat="41.159417" lon="-5.695058">
        <ele>842.808</ele>
        <time>2021-10-13T14:50:36Z</time>
      </trkpt>
      <trkpt lat="41.159631" lon="-5.695050">
        <ele>843.184</ele>
        <time>2021-10-13T14:50:37Z</time>
      </trkpt>
      <trkpt lat="41.160067" lon="-5.695037">
        <ele>843.712</ele>
        <time>2021-10-13T14:50:39Z</time>
      </trkpt>
      <trkpt lat="41.160511" lon="-5.695028">
        <ele>843.589</ele>
        <time>2021-10-13T14:50:41Z</time>
      </trkpt>
      <trkpt lat="41.160957" lon="-5.695014">
        <ele>844.039</ele>
        <time>2021-10-13T14:50:43Z</time>
      </trkpt>
      <trkpt lat="41.161405" lon="-5.694993">
        <ele>844.242</ele>
        <time>2021-10-13T14:50:45Z</time>
      </trkpt>
      <trkpt lat="41.161858" lon="-5.694982">
        <ele>844.078</ele>
        <time>2021-10-13T14:50:47Z</time>
      </trkpt>
      <trkpt lat="41.162088" lon="-5.694976">
        <ele>844.127</ele>
        <time>2021-10-13T14:50:48Z</time>
      </trkpt>
      <trkpt lat="41.162556" lon="-5.694961">
        <ele>844.522</ele>
        <time>2021-10-13T14:50:50Z</time>
      </trkpt>
      <trkpt lat="41.163035" lon="-5.694942">
        <ele>844.889</ele>
        <time>2021-10-13T14:50:52Z</time>
      </trkpt>
      <trkpt lat="41.163516" lon="-5.694934">
        <ele>843.906</ele>
        <time>2021-10-13T14:50:54Z</time>
      </trkpt>
      <trkpt lat="41.163761" lon="-5.694924">
        <ele>844.026</ele>
        <time>2021-10-13T14:50:55Z</time>
      </trkpt>
      <trkpt lat="41.164018" lon="-5.694914">
        <ele>843.908</ele>
        <time>2021-10-13T14:50:56Z</time>
      </trkpt>
      <trkpt lat="41.164522" lon="-5.694890">
        <ele>843.756</ele>
        <time>2021-10-13T14:50:58Z</time>
      </trkpt>
      <trkpt lat="41.165009" lon="-5.694870">
        <ele>843.984</ele>
        <time>2021-10-13T14:51:00Z</time>
      </trkpt>
      <trkpt lat="41.165231" lon="-5.694863">
        <ele>843.211</ele>
        <time>2021-10-13T14:51:01Z</time>
      </trkpt>
      <trkpt lat="41.165447" lon="-5.694851">
        <ele>842.661</ele>
        <time>2021-10-13T14:51:02Z</time>
      </trkpt>
      <trkpt lat="41.165835" lon="-5.694829">
        <ele>843.224</ele>
        <time>2021-10-13T14:51:04Z</time>
      </trkpt>
      <trkpt lat="41.166042" lon="-5.694823">
        <ele>843.350</ele>
        <time>2021-10-13T14:51:05Z</time>
      </trkpt>
      <trkpt lat="41.166259" lon="-5.694821">
        <ele>842.959</ele>
        <time>2021-10-13T14:51:06Z</time>
      </trkpt>
      <trkpt lat="41.166481" lon="-5.694819">
        <ele>842.634</ele>
        <time>2021-10-13T14:51:07Z</time>
      </trkpt>
      <trkpt lat="41.166707" lon="-5.694815">
        <ele>842.793</ele>
        <time>2021-10-13T14:51:08Z</time>
      </trkpt>
      <trkpt lat="41.167179" lon="-5.694795">
        <ele>842.865</ele>
        <time>2021-10-13T14:51:10Z</time>
      </trkpt>
      <trkpt lat="41.167666" lon="-5.694778">
        <ele>843.421</ele>
        <time>2021-10-13T14:51:12Z</time>
      </trkpt>
      <trkpt lat="41.167915" lon="-5.694771">
        <ele>843.308</ele>
        <time>2021-10-13T14:51:13Z</time>
      </trkpt>
      <trkpt lat="41.168418" lon="-5.694750">
        <ele>842.537</ele>
        <time>2021-10-13T14:51:15Z</time>
      </trkpt>
      <trkpt lat="41.168929" lon="-5.694713">
        <ele>842.435</ele>
        <time>2021-10-13T14:51:17Z</time>
      </trkpt>
      <trkpt lat="41.169451" lon="-5.694694">
        <ele>841.722</ele>
        <time>2021-10-13T14:51:19Z</time>
      </trkpt>
      <trkpt lat="41.169989" lon="-5.694678">
        <ele>842.462</ele>
        <time>2021-10-13T14:51:21Z</time>
      </trkpt>
      <trkpt lat="41.170265" lon="-5.694668">
        <ele>842.745</ele>
        <time>2021-10-13T14:51:22Z</time>
      </trkpt>
      <trkpt lat="41.170820" lon="-5.694646">
        <ele>842.691</ele>
        <time>2021-10-13T14:51:24Z</time>
      </trkpt>
      <trkpt lat="41.171359" lon="-5.694625">
        <ele>842.480</ele>
        <time>2021-10-13T14:51:26Z</time>
      </trkpt>
      <trkpt lat="41.171852" lon="-5.694606">
        <ele>842.735</ele>
        <time>2021-10-13T14:51:28Z</time>
      </trkpt>
      <trkpt lat="41.172103" lon="-5.694599">
        <ele>843.316</ele>
        <time>2021-10-13T14:51:29Z</time>
      </trkpt>
      <trkpt lat="41.172610" lon="-5.694588">
        <ele>843.976</ele>
        <time>2021-10-13T14:51:31Z</time>
      </trkpt>
      <trkpt lat="41.172873" lon="-5.694577">
        <ele>844.013</ele>
        <time>2021-10-13T14:51:32Z</time>
      </trkpt>
      <trkpt lat="41.173386" lon="-5.694552">
        <ele>843.908</ele>
        <time>2021-10-13T14:51:34Z</time>
      </trkpt>
      <trkpt lat="41.173910" lon="-5.694535">
        <ele>845.019</ele>
        <time>2021-10-13T14:51:36Z</time>
      </trkpt>
      <trkpt lat="41.174447" lon="-5.694506">
        <ele>846.057</ele>
        <time>2021-10-13T14:51:38Z</time>
      </trkpt>
      <trkpt lat="41.174990" lon="-5.694481">
        <ele>847.194</ele>
        <time>2021-10-13T14:51:40Z</time>
      </trkpt>
      <trkpt lat="41.175266" lon="-5.694470">
        <ele>847.754</ele>
        <time>2021-10-13T14:51:41Z</time>
      </trkpt>
      <trkpt lat="41.175815" lon="-5.694448">
        <ele>848.697</ele>
        <time>2021-10-13T14:51:43Z</time>
      </trkpt>
      <trkpt lat="41.176088" lon="-5.694432">
        <ele>849.463</ele>
        <time>2021-10-13T14:51:44Z</time>
      </trkpt>
      <trkpt lat="41.176618" lon="-5.694404">
        <ele>851.522</ele>
        <time>2021-10-13T14:51:46Z</time>
      </trkpt>
      <trkpt lat="41.177091" lon="-5.694380">
        <ele>853.427</ele>
        <time>2021-10-13T14:51:48Z</time>
      </trkpt>
      <trkpt lat="41.177327" lon="-5.694369">
        <ele>853.896</ele>
        <time>2021-10-13T14:51:49Z</time>
      </trkpt>
      <trkpt lat="41.177801" lon="-5.694352">
        <ele>854.631</ele>
        <time>2021-10-13T14:51:51Z</time>
      </trkpt>
      <trkpt lat="41.178277" lon="-5.694337">
        <ele>855.724</ele>
        <time>2021-10-13T14:51:53Z</time>
      </trkpt>
      <trkpt lat="41.178763" lon="-5.694318">
        <ele>856.908</ele>
        <time>2021-10-13T14:51:55Z</time>
      </trkpt>
      <trkpt lat="41.179015" lon="-5.694303">
        <ele>857.577</ele>
        <time>2021-10-13T14:51:56Z</time>
      </trkpt>
      <trkpt lat="41.179504" lon="-5.694278">
        <ele>857.515</ele>
        <time>2021-10-13T14:51:58Z</time>
      </trkpt>
      <trkpt lat="41.179996" lon="-5.694257">
        <ele>858.762</ele>
        <time>2021-10-13T14:52:00Z</time>
      </trkpt>
      <trkpt lat="41.180481" lon="-5.694251">
        <ele>859.332</ele>
        <time>2021-10-13T14:52:02Z</time>
      </trkpt>
      <trkpt lat="41.180938" lon="-5.694277">
        <ele>860.265</ele>
        <time>2021-10-13T14:52:04Z</time>
      </trkpt>
      <trkpt lat="41.181403" lon="-5.694337">
        <ele>859.521</ele>
        <time>2021-10-13T14:52:06Z</time>
      </trkpt>
      <trkpt lat="41.181874" lon="-5.694427">
        <ele>859.720</ele>
        <time>2021-10-13T14:52:08Z</time>
      </trkpt>
      <trkpt lat="41.182351" lon="-5.694540">
        <ele>859.015</ele>
        <time>2021-10-13T14:52:10Z</time>
      </trkpt>
      <trkpt lat="41.182840" lon="-5.694658">
        <ele>859.794</ele>
        <time>2021-10-13T14:52:12Z</time>
      </trkpt>
      <trkpt lat="41.183093" lon="-5.694721">
        <ele>859.557</ele>
        <time>2021-10-13T14:52:13Z</time>
      </trkpt>
      <trkpt lat="41.183609" lon="-5.694858">
        <ele>859.622</ele>
        <time>2021-10-13T14:52:15Z</time>
      </trkpt>
      <trkpt lat="41.183875" lon="-5.694924">
        <ele>859.608</ele>
        <time>2021-10-13T14:52:16Z</time>
      </trkpt>
      <trkpt lat="41.184399" lon="-5.695064">
        <ele>858.227</ele>
        <time>2021-10-13T14:52:18Z</time>
      </trkpt>
      <trkpt lat="41.184667" lon="-5.695134">
        <ele>858.785</ele>
        <time>2021-10-13T14:52:19Z</time>
      </trkpt>
      <trkpt lat="41.185189" lon="-5.695268">
        <ele>858.142</ele>
        <time>2021-10-13T14:52:21Z</time>
      </trkpt>
      <trkpt lat="41.185709" lon="-5.695391">
        <ele>857.492</ele>
        <time>2021-10-13T14:52:23Z</time>
      </trkpt>
      <trkpt lat="41.185969" lon="-5.695448">
        <ele>857.195</ele>
        <time>2021-10-13T14:52:24Z</time>
      </trkpt>
      <trkpt lat="41.186476" lon="-5.695573">
        <ele>856.261</ele>
        <time>2021-10-13T14:52:26Z</time>
      </trkpt>
      <trkpt lat="41.186927" lon="-5.695693">
        <ele>856.470</ele>
        <time>2021-10-13T14:52:28Z</time>
      </trkpt>
      <trkpt lat="41.187146" lon="-5.695747">
        <ele>856.095</ele>
        <time>2021-10-13T14:52:29Z</time>
      </trkpt>
      <trkpt lat="41.187582" lon="-5.695858">
        <ele>855.748</ele>
        <time>2021-10-13T14:52:31Z</time>
      </trkpt>
      <trkpt lat="41.187807" lon="-5.695914">
        <ele>855.661</ele>
        <time>2021-10-13T14:52:32Z</time>
      </trkpt>
      <trkpt lat="41.188247" lon="-5.696025">
        <ele>855.017</ele>
        <time>2021-10-13T14:52:34Z</time>
      </trkpt>
      <trkpt lat="41.188729" lon="-5.696147">
        <ele>854.308</ele>
        <time>2021-10-13T14:52:36Z</time>
      </trkpt>
      <trkpt lat="41.188980" lon="-5.696211">
        <ele>853.922</ele>
        <time>2021-10-13T14:52:37Z</time>
      </trkpt>
      <trkpt lat="41.189498" lon="-5.696344">
        <ele>854.060</ele>
        <time>2021-10-13T14:52:39Z</time>
      </trkpt>
      <trkpt lat="41.190021" lon="-5.696484">
        <ele>853.537</ele>
        <time>2021-10-13T14:52:41Z</time>
      </trkpt>
      <trkpt lat="41.190540" lon="-5.696618">
        <ele>852.667</ele>
        <time>2021-10-13T14:52:43Z</time>
      </trkpt>
      <trkpt lat="41.191051" lon="-5.696741">
        <ele>852.590</ele>
        <time>2021-10-13T14:52:45Z</time>
      </trkpt>
      <trkpt lat="41.191549" lon="-5.696863">
        <ele>851.926</ele>
        <time>2021-10-13T14:52:47Z</time>
      </trkpt>
      <trkpt lat="41.192031" lon="-5.696987">
        <ele>852.015</ele>
        <time>2021-10-13T14:52:49Z</time>
      </trkpt>
      <trkpt lat="41.192502" lon="-5.697108">
        <ele>852.350</ele>
        <time>2021-10-13T14:52:51Z</time>
      </trkpt>
      <trkpt lat="41.192976" lon="-5.697233">
        <ele>853.267</ele>
        <time>2021-10-13T14:52:53Z</time>
      </trkpt>
      <trkpt lat="41.193450" lon="-5.697348">
        <ele>853.981</ele>
        <time>2021-10-13T14:52:55Z</time>
      </trkpt>
      <trkpt lat="41.193696" lon="-5.697407">
        <ele>854.019</ele>
        <time>2021-10-13T14:52:56Z</time>
      </trkpt>
      <trkpt lat="41.194170" lon="-5.697522">
        <ele>855.108</ele>
        <time>2021-10-13T14:52:58Z</time>
      </trkpt>
      <trkpt lat="41.194416" lon="-5.697585">
        <ele>855.114</ele>
        <time>2021-10-13T14:52:59Z</time>
      </trkpt>
      <trkpt lat="41.194907" lon="-5.697719">
        <ele>855.632</ele>
        <time>2021-10-13T14:53:01Z</time>
      </trkpt>
      <trkpt lat="41.195164" lon="-5.697787">
        <ele>856.429</ele>
        <time>2021-10-13T14:53:02Z</time>
      </trkpt>
      <trkpt lat="41.195651" lon="-5.697909">
        <ele>855.829</ele>
        <time>2021-10-13T14:53:04Z</time>
      </trkpt>
      <trkpt lat="41.195897" lon="-5.697970">
        <ele>855.782</ele>
        <time>2021-10-13T14:53:05Z</time>
      </trkpt>
      <trkpt lat="41.196139" lon="-5.698029">
        <ele>855.978</ele>
        <time>2021-10-13T14:53:06Z</time>
      </trkpt>
      <trkpt lat="41.196600" lon="-5.698144">
        <ele>855.017</ele>
        <time>2021-10-13T14:53:08Z</time>
      </trkpt>
      <trkpt lat="41.196826" lon="-5.698204">
        <ele>855.212</ele>
        <time>2021-10-13T14:53:09Z</time>
      </trkpt>
      <trkpt lat="41.197055" lon="-5.698261">
        <ele>854.992</ele>
        <time>2021-10-13T14:53:10Z</time>
      </trkpt>
      <trkpt lat="41.197517" lon="-5.698377">
        <ele>854.473</ele>
        <time>2021-10-13T14:53:12Z</time>
      </trkpt>
      <trkpt lat="41.197754" lon="-5.698437">
        <ele>853.920</ele>
        <time>2021-10-13T14:53:13Z</time>
      </trkpt>
      <trkpt lat="41.198235" lon="-5.698563">
        <ele>853.708</ele>
        <time>2021-10-13T14:53:15Z</time>
      </trkpt>
      <trkpt lat="41.198479" lon="-5.698623">
        <ele>853.617</ele>
        <time>2021-10-13T14:53:16Z</time>
      </trkpt>
      <trkpt lat="41.198971" lon="-5.698745">
        <ele>852.485</ele>
        <time>2021-10-13T14:53:18Z</time>
      </trkpt>
      <trkpt lat="41.199449" lon="-5.698865">
        <ele>851.852</ele>
        <time>2021-10-13T14:53:20Z</time>
      </trkpt>
      <trkpt lat="41.199688" lon="-5.698928">
        <ele>851.682</ele>
        <time>2021-10-13T14:53:21Z</time>
      </trkpt>
      <trkpt lat="41.199929" lon="-5.698988">
        <ele>851.325</ele>
        <time>2021-10-13T14:53:22Z</time>
      </trkpt>
      <trkpt lat="41.200405" lon="-5.699114">
        <ele>850.881</ele>
        <time>2021-10-13T14:53:24Z</time>
      </trkpt>
      <trkpt lat="41.200642" lon="-5.699172">
        <ele>850.910</ele>
        <time>2021-10-13T14:53:25Z</time>
      </trkpt>
      <trkpt lat="41.200882" lon="-5.699231">
        <ele>850.545</ele>
        <time>2021-10-13T14:53:26Z</time>
      </trkpt>
      <trkpt lat="41.201353" lon="-5.699346">
        <ele>850.399</ele>
        <time>2021-10-13T14:53:28Z</time>
      </trkpt>
      <trkpt lat="41.201597" lon="-5.699407">
        <ele>849.407</ele>
        <time>2021-10-13T14:53:29Z</time>
      </trkpt>
      <trkpt lat="41.202086" lon="-5.699538">
        <ele>848.627</ele>
        <time>2021-10-13T14:53:31Z</time>
      </trkpt>
      <trkpt lat="41.202338" lon="-5.699603">
        <ele>847.808</ele>
        <time>2021-10-13T14:53:32Z</time>
      </trkpt>
      <trkpt lat="41.202813" lon="-5.699710">
        <ele>847.467</ele>
        <time>2021-10-13T14:53:34Z</time>
      </trkpt>
      <trkpt lat="41.203055" lon="-5.699764">
        <ele>847.265</ele>
        <time>2021-10-13T14:53:35Z</time>
      </trkpt>
      <trkpt lat="41.203292" lon="-5.699822">
        <ele>846.842</ele>
        <time>2021-10-13T14:53:36Z</time>
      </trkpt>
      <trkpt lat="41.203754" lon="-5.699937">
        <ele>845.332</ele>
        <time>2021-10-13T14:53:38Z</time>
      </trkpt>
      <trkpt lat="41.203983" lon="-5.699995">
        <ele>845.285</ele>
        <time>2021-10-13T14:53:39Z</time>
      </trkpt>
      <trkpt lat="41.204439" lon="-5.700112">
        <ele>845.031</ele>
        <time>2021-10-13T14:53:41Z</time>
      </trkpt>
      <trkpt lat="41.204894" lon="-5.700226">
        <ele>844.940</ele>
        <time>2021-10-13T14:53:43Z</time>
      </trkpt>
      <trkpt lat="41.205366" lon="-5.700342">
        <ele>843.725</ele>
        <time>2021-10-13T14:53:45Z</time>
      </trkpt>
      <trkpt lat="41.205609" lon="-5.700402">
        <ele>843.366</ele>
        <time>2021-10-13T14:53:46Z</time>
      </trkpt>
      <trkpt lat="41.206110" lon="-5.700526">
        <ele>842.429</ele>
        <time>2021-10-13T14:53:48Z</time>
      </trkpt>
      <trkpt lat="41.206368" lon="-5.700591">
        <ele>841.921</ele>
        <time>2021-10-13T14:53:49Z</time>
      </trkpt>
      <trkpt lat="41.206630" lon="-5.700658">
        <ele>841.908</ele>
        <time>2021-10-13T14:53:50Z</time>
      </trkpt>
      <trkpt lat="41.207137" lon="-5.700786">
        <ele>841.464</ele>
        <time>2021-10-13T14:53:52Z</time>
      </trkpt>
      <trkpt lat="41.207396" lon="-5.700851">
        <ele>841.922</ele>
        <time>2021-10-13T14:53:53Z</time>
      </trkpt>
      <trkpt lat="41.207903" lon="-5.700977">
        <ele>841.779</ele>
        <time>2021-10-13T14:53:55Z</time>
      </trkpt>
      <trkpt lat="41.208161" lon="-5.701042">
        <ele>841.849</ele>
        <time>2021-10-13T14:53:56Z</time>
      </trkpt>
      <trkpt lat="41.208643" lon="-5.701169">
        <ele>841.532</ele>
        <time>2021-10-13T14:53:58Z</time>
      </trkpt>
      <trkpt lat="41.209132" lon="-5.701290">
        <ele>840.918</ele>
        <time>2021-10-13T14:54:00Z</time>
      </trkpt>
      <trkpt lat="41.209636" lon="-5.701415">
        <ele>841.387</ele>
        <time>2021-10-13T14:54:02Z</time>
      </trkpt>
      <trkpt lat="41.210138" lon="-5.701539">
        <ele>841.112</ele>
        <time>2021-10-13T14:54:04Z</time>
      </trkpt>
      <trkpt lat="41.210405" lon="-5.701602">
        <ele>841.174</ele>
        <time>2021-10-13T14:54:05Z</time>
      </trkpt>
      <trkpt lat="41.210665" lon="-5.701670">
        <ele>840.756</ele>
        <time>2021-10-13T14:54:06Z</time>
      </trkpt>
      <trkpt lat="41.211196" lon="-5.701815">
        <ele>840.721</ele>
        <time>2021-10-13T14:54:08Z</time>
      </trkpt>
      <trkpt lat="41.211723" lon="-5.701949">
        <ele>840.208</ele>
        <time>2021-10-13T14:54:10Z</time>
      </trkpt>
      <trkpt lat="41.211987" lon="-5.702016">
        <ele>839.915</ele>
        <time>2021-10-13T14:54:11Z</time>
      </trkpt>
      <trkpt lat="41.212490" lon="-5.702149">
        <ele>838.823</ele>
        <time>2021-10-13T14:54:13Z</time>
      </trkpt>
      <trkpt lat="41.212748" lon="-5.702213">
        <ele>839.290</ele>
        <time>2021-10-13T14:54:14Z</time>
      </trkpt>
      <trkpt lat="41.213257" lon="-5.702342">
        <ele>839.070</ele>
        <time>2021-10-13T14:54:16Z</time>
      </trkpt>
      <trkpt lat="41.213800" lon="-5.702469">
        <ele>838.653</ele>
        <time>2021-10-13T14:54:18Z</time>
      </trkpt>
      <trkpt lat="41.214076" lon="-5.702539">
        <ele>838.199</ele>
        <time>2021-10-13T14:54:19Z</time>
      </trkpt>
      <trkpt lat="41.214356" lon="-5.702615">
        <ele>838.238</ele>
        <time>2021-10-13T14:54:20Z</time>
      </trkpt>
      <trkpt lat="41.214905" lon="-5.702761">
        <ele>838.943</ele>
        <time>2021-10-13T14:54:22Z</time>
      </trkpt>
      <trkpt lat="41.215464" lon="-5.702899">
        <ele>837.398</ele>
        <time>2021-10-13T14:54:24Z</time>
      </trkpt>
      <trkpt lat="41.215752" lon="-5.702967">
        <ele>837.315</ele>
        <time>2021-10-13T14:54:25Z</time>
      </trkpt>
      <trkpt lat="41.216044" lon="-5.703037">
        <ele>837.126</ele>
        <time>2021-10-13T14:54:26Z</time>
      </trkpt>
      <trkpt lat="41.216602" lon="-5.703180">
        <ele>837.608</ele>
        <time>2021-10-13T14:54:28Z</time>
      </trkpt>
      <trkpt lat="41.217166" lon="-5.703323">
        <ele>838.137</ele>
        <time>2021-10-13T14:54:30Z</time>
      </trkpt>
      <trkpt lat="41.217446" lon="-5.703391">
        <ele>838.265</ele>
        <time>2021-10-13T14:54:31Z</time>
      </trkpt>
      <trkpt lat="41.217731" lon="-5.703460">
        <ele>837.252</ele>
        <time>2021-10-13T14:54:32Z</time>
      </trkpt>
      <trkpt lat="41.218280" lon="-5.703595">
        <ele>836.672</ele>
        <time>2021-10-13T14:54:34Z</time>
      </trkpt>
      <trkpt lat="41.218863" lon="-5.703740">
        <ele>836.775</ele>
        <time>2021-10-13T14:54:36Z</time>
      </trkpt>
      <trkpt lat="41.219156" lon="-5.703812">
        <ele>837.321</ele>
        <time>2021-10-13T14:54:37Z</time>
      </trkpt>
      <trkpt lat="41.219453" lon="-5.703878">
        <ele>837.470</ele>
        <time>2021-10-13T14:54:38Z</time>
      </trkpt>
      <trkpt lat="41.220018" lon="-5.703991">
        <ele>838.785</ele>
        <time>2021-10-13T14:54:40Z</time>
      </trkpt>
      <trkpt lat="41.220597" lon="-5.704068">
        <ele>840.876</ele>
        <time>2021-10-13T14:54:42Z</time>
      </trkpt>
      <trkpt lat="41.221205" lon="-5.704116">
        <ele>841.790</ele>
        <time>2021-10-13T14:54:44Z</time>
      </trkpt>
      <trkpt lat="41.221791" lon="-5.704128">
        <ele>845.519</ele>
        <time>2021-10-13T14:54:46Z</time>
      </trkpt>
      <trkpt lat="41.222081" lon="-5.704119">
        <ele>846.508</ele>
        <time>2021-10-13T14:54:47Z</time>
      </trkpt>
      <trkpt lat="41.222651" lon="-5.704080">
        <ele>848.485</ele>
        <time>2021-10-13T14:54:49Z</time>
      </trkpt>
      <trkpt lat="41.222951" lon="-5.704051">
        <ele>848.763</ele>
        <time>2021-10-13T14:54:50Z</time>
      </trkpt>
      <trkpt lat="41.223541" lon="-5.703959">
        <ele>849.510</ele>
        <time>2021-10-13T14:54:52Z</time>
      </trkpt>
      <trkpt lat="41.224142" lon="-5.703840">
        <ele>850.330</ele>
        <time>2021-10-13T14:54:54Z</time>
      </trkpt>
      <trkpt lat="41.224756" lon="-5.703717">
        <ele>851.813</ele>
        <time>2021-10-13T14:54:56Z</time>
      </trkpt>
      <trkpt lat="41.225344" lon="-5.703610">
        <ele>853.349</ele>
        <time>2021-10-13T14:54:58Z</time>
      </trkpt>
      <trkpt lat="41.225644" lon="-5.703562">
        <ele>853.738</ele>
        <time>2021-10-13T14:54:59Z</time>
      </trkpt>
      <trkpt lat="41.226236" lon="-5.703512">
        <ele>855.593</ele>
        <time>2021-10-13T14:55:01Z</time>
      </trkpt>
      <trkpt lat="41.226543" lon="-5.703510">
        <ele>855.764</ele>
        <time>2021-10-13T14:55:02Z</time>
      </trkpt>
      <trkpt lat="41.227120" lon="-5.703551">
        <ele>855.806</ele>
        <time>2021-10-13T14:55:04Z</time>
      </trkpt>
      <trkpt lat="41.227416" lon="-5.703590">
        <ele>855.816</ele>
        <time>2021-10-13T14:55:05Z</time>
      </trkpt>
      <trkpt lat="41.228000" lon="-5.703698">
        <ele>855.808</ele>
        <time>2021-10-13T14:55:07Z</time>
      </trkpt>
      <trkpt lat="41.228301" lon="-5.703762">
        <ele>856.194</ele>
        <time>2021-10-13T14:55:08Z</time>
      </trkpt>
      <trkpt lat="41.228878" lon="-5.703893">
        <ele>855.362</ele>
        <time>2021-10-13T14:55:10Z</time>
      </trkpt>
      <trkpt lat="41.229460" lon="-5.704026">
        <ele>855.239</ele>
        <time>2021-10-13T14:55:12Z</time>
      </trkpt>
      <trkpt lat="41.229754" lon="-5.704093">
        <ele>855.059</ele>
        <time>2021-10-13T14:55:13Z</time>
      </trkpt>
      <trkpt lat="41.230054" lon="-5.704161">
        <ele>853.912</ele>
        <time>2021-10-13T14:55:14Z</time>
      </trkpt>
      <trkpt lat="41.230631" lon="-5.704290">
        <ele>852.898</ele>
        <time>2021-10-13T14:55:16Z</time>
      </trkpt>
      <trkpt lat="41.230926" lon="-5.704356">
        <ele>852.467</ele>
        <time>2021-10-13T14:55:17Z</time>
      </trkpt>
      <trkpt lat="41.231215" lon="-5.704420">
        <ele>852.522</ele>
        <time>2021-10-13T14:55:18Z</time>
      </trkpt>
      <trkpt lat="41.231789" lon="-5.704552">
        <ele>850.929</ele>
        <time>2021-10-13T14:55:20Z</time>
      </trkpt>
      <trkpt lat="41.232330" lon="-5.704684">
        <ele>849.600</ele>
        <time>2021-10-13T14:55:22Z</time>
      </trkpt>
      <trkpt lat="41.232606" lon="-5.704744">
        <ele>849.620</ele>
        <time>2021-10-13T14:55:23Z</time>
      </trkpt>
      <trkpt lat="41.232886" lon="-5.704805">
        <ele>850.008</ele>
        <time>2021-10-13T14:55:24Z</time>
      </trkpt>
      <trkpt lat="41.233468" lon="-5.704908">
        <ele>850.750</ele>
        <time>2021-10-13T14:55:26Z</time>
      </trkpt>
      <trkpt lat="41.234040" lon="-5.704917">
        <ele>851.458</ele>
        <time>2021-10-13T14:55:28Z</time>
      </trkpt>
      <trkpt lat="41.234337" lon="-5.704879">
        <ele>852.665</ele>
        <time>2021-10-13T14:55:29Z</time>
      </trkpt>
      <trkpt lat="41.234633" lon="-5.704810">
        <ele>853.855</ele>
        <time>2021-10-13T14:55:30Z</time>
      </trkpt>
      <trkpt lat="41.234922" lon="-5.704709">
        <ele>854.418</ele>
        <time>2021-10-13T14:55:31Z</time>
      </trkpt>
      <trkpt lat="41.235206" lon="-5.704591">
        <ele>854.934</ele>
        <time>2021-10-13T14:55:32Z</time>
      </trkpt>
      <trkpt lat="41.235725" lon="-5.704370">
        <ele>856.923</ele>
        <time>2021-10-13T14:55:34Z</time>
      </trkpt>
      <trkpt lat="41.235978" lon="-5.704283">
        <ele>857.828</ele>
        <time>2021-10-13T14:55:35Z</time>
      </trkpt>
      <trkpt lat="41.236486" lon="-5.704165">
        <ele>859.218</ele>
        <time>2021-10-13T14:55:37Z</time>
      </trkpt>
      <trkpt lat="41.236754" lon="-5.704142">
        <ele>859.798</ele>
        <time>2021-10-13T14:55:38Z</time>
      </trkpt>
      <trkpt lat="41.237283" lon="-5.704171">
        <ele>860.517</ele>
        <time>2021-10-13T14:55:40Z</time>
      </trkpt>
      <trkpt lat="41.237828" lon="-5.704283">
        <ele>861.408</ele>
        <time>2021-10-13T14:55:42Z</time>
      </trkpt>
      <trkpt lat="41.238369" lon="-5.704505">
        <ele>861.269</ele>
        <time>2021-10-13T14:55:44Z</time>
      </trkpt>
      <trkpt lat="41.238879" lon="-5.704820">
        <ele>860.287</ele>
        <time>2021-10-13T14:55:46Z</time>
      </trkpt>
      <trkpt lat="41.239128" lon="-5.705016">
        <ele>859.894</ele>
        <time>2021-10-13T14:55:47Z</time>
      </trkpt>
      <trkpt lat="41.239368" lon="-5.705232">
        <ele>859.394</ele>
        <time>2021-10-13T14:55:48Z</time>
      </trkpt>
      <trkpt lat="41.239846" lon="-5.705693">
        <ele>856.297</ele>
        <time>2021-10-13T14:55:50Z</time>
      </trkpt>
      <trkpt lat="41.240324" lon="-5.706107">
        <ele>854.443</ele>
        <time>2021-10-13T14:55:52Z</time>
      </trkpt>
      <trkpt lat="41.240849" lon="-5.706448">
        <ele>851.912</ele>
        <time>2021-10-13T14:55:54Z</time>
      </trkpt>
      <trkpt lat="41.241126" lon="-5.706580">
        <ele>850.077</ele>
        <time>2021-10-13T14:55:55Z</time>
      </trkpt>
      <trkpt lat="41.241409" lon="-5.706686">
        <ele>849.429</ele>
        <time>2021-10-13T14:55:56Z</time>
      </trkpt>
      <trkpt lat="41.241985" lon="-5.706830">
        <ele>848.400</ele>
        <time>2021-10-13T14:55:58Z</time>
      </trkpt>
      <trkpt lat="41.242277" lon="-5.706889">
        <ele>848.520</ele>
        <time>2021-10-13T14:55:59Z</time>
      </trkpt>
      <trkpt lat="41.242569" lon="-5.706950">
        <ele>848.808</ele>
        <time>2021-10-13T14:56:00Z</time>
      </trkpt>
      <trkpt lat="41.243152" lon="-5.707068">
        <ele>848.920</ele>
        <time>2021-10-13T14:56:02Z</time>
      </trkpt>
      <trkpt lat="41.243681" lon="-5.707181">
        <ele>849.848</ele>
        <time>2021-10-13T14:56:04Z</time>
      </trkpt>
      <trkpt lat="41.243931" lon="-5.707228">
        <ele>849.955</ele>
        <time>2021-10-13T14:56:05Z</time>
      </trkpt>
      <trkpt lat="41.244183" lon="-5.707266">
        <ele>849.755</ele>
        <time>2021-10-13T14:56:06Z</time>
      </trkpt>
      <trkpt lat="41.244702" lon="-5.707296">
        <ele>850.258</ele>
        <time>2021-10-13T14:56:08Z</time>
      </trkpt>
      <trkpt lat="41.245214" lon="-5.707263">
        <ele>849.934</ele>
        <time>2021-10-13T14:56:10Z</time>
      </trkpt>
      <trkpt lat="41.245751" lon="-5.707168">
        <ele>848.413</ele>
        <time>2021-10-13T14:56:12Z</time>
      </trkpt>
      <trkpt lat="41.246027" lon="-5.707101">
        <ele>848.048</ele>
        <time>2021-10-13T14:56:13Z</time>
      </trkpt>
      <trkpt lat="41.246312" lon="-5.707024">
        <ele>847.758</ele>
        <time>2021-10-13T14:56:14Z</time>
      </trkpt>
      <trkpt lat="41.246872" lon="-5.706838">
        <ele>847.252</ele>
        <time>2021-10-13T14:56:16Z</time>
      </trkpt>
      <trkpt lat="41.247421" lon="-5.706601">
        <ele>846.417</ele>
        <time>2021-10-13T14:56:18Z</time>
      </trkpt>
      <trkpt lat="41.247953" lon="-5.706316">
        <ele>845.208</ele>
        <time>2021-10-13T14:56:20Z</time>
      </trkpt>
      <trkpt lat="41.248441" lon="-5.705963">
        <ele>843.533</ele>
        <time>2021-10-13T14:56:22Z</time>
      </trkpt>
      <trkpt lat="41.248689" lon="-5.705769">
        <ele>843.161</ele>
        <time>2021-10-13T14:56:23Z</time>
      </trkpt>
      <trkpt lat="41.248937" lon="-5.705570">
        <ele>842.618</ele>
        <time>2021-10-13T14:56:24Z</time>
      </trkpt>
      <trkpt lat="41.249187" lon="-5.705372">
        <ele>841.618</ele>
        <time>2021-10-13T14:56:25Z</time>
      </trkpt>
      <trkpt lat="41.249446" lon="-5.705168">
        <ele>840.721</ele>
        <time>2021-10-13T14:56:26Z</time>
      </trkpt>
      <trkpt lat="41.249939" lon="-5.704793">
        <ele>839.877</ele>
        <time>2021-10-13T14:56:28Z</time>
      </trkpt>
      <trkpt lat="41.250452" lon="-5.704437">
        <ele>839.496</ele>
        <time>2021-10-13T14:56:30Z</time>
      </trkpt>
      <trkpt lat="41.250709" lon="-5.704271">
        <ele>840.261</ele>
        <time>2021-10-13T14:56:31Z</time>
      </trkpt>
      <trkpt lat="41.250970" lon="-5.704111">
        <ele>840.573</ele>
        <time>2021-10-13T14:56:32Z</time>
      </trkpt>
      <trkpt lat="41.251476" lon="-5.703834">
        <ele>841.585</ele>
        <time>2021-10-13T14:56:34Z</time>
      </trkpt>
      <trkpt lat="41.251739" lon="-5.703703">
        <ele>842.213</ele>
        <time>2021-10-13T14:56:35Z</time>
      </trkpt>
      <trkpt lat="41.252001" lon="-5.703586">
        <ele>842.508</ele>
        <time>2021-10-13T14:56:36Z</time>
      </trkpt>
      <trkpt lat="41.252522" lon="-5.703373">
        <ele>843.985</ele>
        <time>2021-10-13T14:56:38Z</time>
      </trkpt>
      <trkpt lat="41.253031" lon="-5.703181">
        <ele>845.323</ele>
        <time>2021-10-13T14:56:40Z</time>
      </trkpt>
      <trkpt lat="41.253551" lon="-5.703019">
        <ele>847.140</ele>
        <time>2021-10-13T14:56:42Z</time>
      </trkpt>
      <trkpt lat="41.253822" lon="-5.702951">
        <ele>847.730</ele>
        <time>2021-10-13T14:56:43Z</time>
      </trkpt>
      <trkpt lat="41.254104" lon="-5.702890">
        <ele>848.163</ele>
        <time>2021-10-13T14:56:44Z</time>
      </trkpt>
      <trkpt lat="41.254669" lon="-5.702842">
        <ele>849.199</ele>
        <time>2021-10-13T14:56:46Z</time>
      </trkpt>
      <trkpt lat="41.255265" lon="-5.702891">
        <ele>850.478</ele>
        <time>2021-10-13T14:56:48Z</time>
      </trkpt>
      <trkpt lat="41.255871" lon="-5.703055">
        <ele>851.983</ele>
        <time>2021-10-13T14:56:50Z</time>
      </trkpt>
      <trkpt lat="41.256451" lon="-5.703316">
        <ele>854.189</ele>
        <time>2021-10-13T14:56:52Z</time>
      </trkpt>
      <trkpt lat="41.256732" lon="-5.703488">
        <ele>854.206</ele>
        <time>2021-10-13T14:56:53Z</time>
      </trkpt>
      <trkpt lat="41.257254" lon="-5.703906">
        <ele>853.926</ele>
        <time>2021-10-13T14:56:55Z</time>
      </trkpt>
      <trkpt lat="41.257509" lon="-5.704159">
        <ele>854.408</ele>
        <time>2021-10-13T14:56:56Z</time>
      </trkpt>
      <trkpt lat="41.257947" lon="-5.704694">
        <ele>855.316</ele>
        <time>2021-10-13T14:56:58Z</time>
      </trkpt>
      <trkpt lat="41.258149" lon="-5.704998">
        <ele>855.824</ele>
        <time>2021-10-13T14:56:59Z</time>
      </trkpt>
      <trkpt lat="41.258507" lon="-5.705645">
        <ele>855.271</ele>
        <time>2021-10-13T14:57:01Z</time>
      </trkpt>
      <trkpt lat="41.258667" lon="-5.705996">
        <ele>854.981</ele>
        <time>2021-10-13T14:57:02Z</time>
      </trkpt>
      <trkpt lat="41.258916" lon="-5.706714">
        <ele>854.344</ele>
        <time>2021-10-13T14:57:04Z</time>
      </trkpt>
      <trkpt lat="41.259014" lon="-5.707096">
        <ele>853.810</ele>
        <time>2021-10-13T14:57:05Z</time>
      </trkpt>
      <trkpt lat="41.259153" lon="-5.707875">
        <ele>852.699</ele>
        <time>2021-10-13T14:57:07Z</time>
      </trkpt>
      <trkpt lat="41.259207" lon="-5.708277">
        <ele>851.984</ele>
        <time>2021-10-13T14:57:08Z</time>
      </trkpt>
      <trkpt lat="41.259314" lon="-5.709044">
        <ele>850.911</ele>
        <time>2021-10-13T14:57:10Z</time>
      </trkpt>
      <trkpt lat="41.259471" lon="-5.709802">
        <ele>850.421</ele>
        <time>2021-10-13T14:57:12Z</time>
      </trkpt>
      <trkpt lat="41.259581" lon="-5.710176">
        <ele>850.003</ele>
        <time>2021-10-13T14:57:13Z</time>
      </trkpt>
      <trkpt lat="41.259708" lon="-5.710538">
        <ele>849.808</ele>
        <time>2021-10-13T14:57:14Z</time>
      </trkpt>
      <trkpt lat="41.259994" lon="-5.711133">
        <ele>850.319</ele>
        <time>2021-10-13T14:57:16Z</time>
      </trkpt>
      <trkpt lat="41.260254" lon="-5.711548">
        <ele>849.417</ele>
        <time>2021-10-13T14:57:18Z</time>
      </trkpt>
      <trkpt lat="41.260378" lon="-5.711711">
        <ele>849.824</ele>
        <time>2021-10-13T14:57:19Z</time>
      </trkpt>
      <trkpt lat="41.260512" lon="-5.711873">
        <ele>850.174</ele>
        <time>2021-10-13T14:57:20Z</time>
      </trkpt>
      <trkpt lat="41.260804" lon="-5.712179">
        <ele>852.137</ele>
        <time>2021-10-13T14:57:22Z</time>
      </trkpt>
      <trkpt lat="41.260973" lon="-5.712334">
        <ele>852.473</ele>
        <time>2021-10-13T14:57:23Z</time>
      </trkpt>
      <trkpt lat="41.261362" lon="-5.712638">
        <ele>852.052</ele>
        <time>2021-10-13T14:57:25Z</time>
      </trkpt>
      <trkpt lat="41.261580" lon="-5.712786">
        <ele>853.347</ele>
        <time>2021-10-13T14:57:26Z</time>
      </trkpt>
      <trkpt lat="41.262018" lon="-5.713015">
        <ele>854.529</ele>
        <time>2021-10-13T14:57:28Z</time>
      </trkpt>
      <trkpt lat="41.262252" lon="-5.713103">
        <ele>853.600</ele>
        <time>2021-10-13T14:57:29Z</time>
      </trkpt>
      <trkpt lat="41.262491" lon="-5.713178">
        <ele>853.420</ele>
        <time>2021-10-13T14:57:30Z</time>
      </trkpt>
      <trkpt lat="41.262734" lon="-5.713245">
        <ele>853.108</ele>
        <time>2021-10-13T14:57:31Z</time>
      </trkpt>
      <trkpt lat="41.262991" lon="-5.713314">
        <ele>852.570</ele>
        <time>2021-10-13T14:57:32Z</time>
      </trkpt>
      <trkpt lat="41.263502" lon="-5.713464">
        <ele>853.738</ele>
        <time>2021-10-13T14:57:34Z</time>
      </trkpt>
      <trkpt lat="41.263771" lon="-5.713543">
        <ele>853.845</ele>
        <time>2021-10-13T14:57:35Z</time>
      </trkpt>
      <trkpt lat="41.264041" lon="-5.713623">
        <ele>852.425</ele>
        <time>2021-10-13T14:57:36Z</time>
      </trkpt>
      <trkpt lat="41.264592" lon="-5.713790">
        <ele>851.338</ele>
        <time>2021-10-13T14:57:38Z</time>
      </trkpt>
      <trkpt lat="41.265133" lon="-5.713938">
        <ele>848.064</ele>
        <time>2021-10-13T14:57:40Z</time>
      </trkpt>
      <trkpt lat="41.265410" lon="-5.714020">
        <ele>849.333</ele>
        <time>2021-10-13T14:57:41Z</time>
      </trkpt>
      <trkpt lat="41.265948" lon="-5.714178">
        <ele>849.718</ele>
        <time>2021-10-13T14:57:43Z</time>
      </trkpt>
      <trkpt lat="41.266219" lon="-5.714257">
        <ele>848.865</ele>
        <time>2021-10-13T14:57:44Z</time>
      </trkpt>
      <trkpt lat="41.266735" lon="-5.714400">
        <ele>850.768</ele>
        <time>2021-10-13T14:57:46Z</time>
      </trkpt>
      <trkpt lat="41.267257" lon="-5.714553">
        <ele>850.214</ele>
        <time>2021-10-13T14:57:48Z</time>
      </trkpt>
      <trkpt lat="41.267515" lon="-5.714629">
        <ele>849.708</ele>
        <time>2021-10-13T14:57:49Z</time>
      </trkpt>
      <trkpt lat="41.267780" lon="-5.714705">
        <ele>849.374</ele>
        <time>2021-10-13T14:57:50Z</time>
      </trkpt>
      <trkpt lat="41.268285" lon="-5.714848">
        <ele>849.912</ele>
        <time>2021-10-13T14:57:52Z</time>
      </trkpt>
      <trkpt lat="41.268538" lon="-5.714919">
        <ele>849.599</ele>
        <time>2021-10-13T14:57:53Z</time>
      </trkpt>
      <trkpt lat="41.268784" lon="-5.714989">
        <ele>849.859</ele>
        <time>2021-10-13T14:57:54Z</time>
      </trkpt>
      <trkpt lat="41.269021" lon="-5.715058">
        <ele>850.452</ele>
        <time>2021-10-13T14:57:55Z</time>
      </trkpt>
      <trkpt lat="41.269260" lon="-5.715129">
        <ele>850.458</ele>
        <time>2021-10-13T14:57:56Z</time>
      </trkpt>
      <trkpt lat="41.269705" lon="-5.715256">
        <ele>852.237</ele>
        <time>2021-10-13T14:57:58Z</time>
      </trkpt>
      <trkpt lat="41.269931" lon="-5.715322">
        <ele>852.932</ele>
        <time>2021-10-13T14:57:59Z</time>
      </trkpt>
      <trkpt lat="41.270372" lon="-5.715451">
        <ele>854.633</ele>
        <time>2021-10-13T14:58:01Z</time>
      </trkpt>
      <trkpt lat="41.270609" lon="-5.715521">
        <ele>855.123</ele>
        <time>2021-10-13T14:58:02Z</time>
      </trkpt>
      <trkpt lat="41.271074" lon="-5.715659">
        <ele>854.515</ele>
        <time>2021-10-13T14:58:04Z</time>
      </trkpt>
      <trkpt lat="41.271552" lon="-5.715799">
        <ele>855.908</ele>
        <time>2021-10-13T14:58:06Z</time>
      </trkpt>
      <trkpt lat="41.272037" lon="-5.715940">
        <ele>857.671</ele>
        <time>2021-10-13T14:58:08Z</time>
      </trkpt>
      <trkpt lat="41.272500" lon="-5.716074">
        <ele>860.049</ele>
        <time>2021-10-13T14:58:10Z</time>
      </trkpt>
      <trkpt lat="41.272739" lon="-5.716144">
        <ele>860.446</ele>
        <time>2021-10-13T14:58:11Z</time>
      </trkpt>
      <trkpt lat="41.272980" lon="-5.716214">
        <ele>860.926</ele>
        <time>2021-10-13T14:58:12Z</time>
      </trkpt>
      <trkpt lat="41.273225" lon="-5.716281">
        <ele>861.819</ele>
        <time>2021-10-13T14:58:13Z</time>
      </trkpt>
      <trkpt lat="41.273476" lon="-5.716349">
        <ele>862.425</ele>
        <time>2021-10-13T14:58:14Z</time>
      </trkpt>
      <trkpt lat="41.273971" lon="-5.716486">
        <ele>864.014</ele>
        <time>2021-10-13T14:58:16Z</time>
      </trkpt>
      <trkpt lat="41.274230" lon="-5.716562">
        <ele>863.989</ele>
        <time>2021-10-13T14:58:17Z</time>
      </trkpt>
      <trkpt lat="41.274491" lon="-5.716640">
        <ele>863.833</ele>
        <time>2021-10-13T14:58:18Z</time>
      </trkpt>
      <trkpt lat="41.274753" lon="-5.716718">
        <ele>864.523</ele>
        <time>2021-10-13T14:58:19Z</time>
      </trkpt>
      <trkpt lat="41.275022" lon="-5.716803">
        <ele>865.615</ele>
        <time>2021-10-13T14:58:20Z</time>
      </trkpt>
      <trkpt lat="41.275547" lon="-5.716955">
        <ele>865.908</ele>
        <time>2021-10-13T14:58:22Z</time>
      </trkpt>
      <trkpt lat="41.275827" lon="-5.717030">
        <ele>866.961</ele>
        <time>2021-10-13T14:58:23Z</time>
      </trkpt>
      <trkpt lat="41.276107" lon="-5.717105">
        <ele>867.979</ele>
        <time>2021-10-13T14:58:24Z</time>
      </trkpt>
      <trkpt lat="41.276391" lon="-5.717181">
        <ele>868.576</ele>
        <time>2021-10-13T14:58:25Z</time>
      </trkpt>
      <trkpt lat="41.276676" lon="-5.717259">
        <ele>868.686</ele>
        <time>2021-10-13T14:58:26Z</time>
      </trkpt>
      <trkpt lat="41.277213" lon="-5.717416">
        <ele>870.369</ele>
        <time>2021-10-13T14:58:28Z</time>
      </trkpt>
      <trkpt lat="41.277755" lon="-5.717573">
        <ele>872.785</ele>
        <time>2021-10-13T14:58:30Z</time>
      </trkpt>
      <trkpt lat="41.278022" lon="-5.717651">
        <ele>873.774</ele>
        <time>2021-10-13T14:58:31Z</time>
      </trkpt>
      <trkpt lat="41.278293" lon="-5.717731">
        <ele>875.249</ele>
        <time>2021-10-13T14:58:32Z</time>
      </trkpt>
      <trkpt lat="41.278809" lon="-5.717883">
        <ele>875.921</ele>
        <time>2021-10-13T14:58:34Z</time>
      </trkpt>
      <trkpt lat="41.279076" lon="-5.717961">
        <ele>876.441</ele>
        <time>2021-10-13T14:58:35Z</time>
      </trkpt>
      <trkpt lat="41.279613" lon="-5.718120">
        <ele>876.005</ele>
        <time>2021-10-13T14:58:37Z</time>
      </trkpt>
      <trkpt lat="41.279886" lon="-5.718201">
        <ele>876.008</ele>
        <time>2021-10-13T14:58:38Z</time>
      </trkpt>
      <trkpt lat="41.280422" lon="-5.718358">
        <ele>876.030</ele>
        <time>2021-10-13T14:58:40Z</time>
      </trkpt>
      <trkpt lat="41.280698" lon="-5.718437">
        <ele>876.178</ele>
        <time>2021-10-13T14:58:41Z</time>
      </trkpt>
      <trkpt lat="41.281248" lon="-5.718596">
        <ele>876.355</ele>
        <time>2021-10-13T14:58:43Z</time>
      </trkpt>
      <trkpt lat="41.281529" lon="-5.718679">
        <ele>877.195</ele>
        <time>2021-10-13T14:58:44Z</time>
      </trkpt>
      <trkpt lat="41.282066" lon="-5.718840">
        <ele>878.558</ele>
        <time>2021-10-13T14:58:46Z</time>
      </trkpt>
      <trkpt lat="41.282605" lon="-5.719028">
        <ele>880.374</ele>
        <time>2021-10-13T14:58:48Z</time>
      </trkpt>
      <trkpt lat="41.282871" lon="-5.719141">
        <ele>880.613</ele>
        <time>2021-10-13T14:58:49Z</time>
      </trkpt>
      <trkpt lat="41.283137" lon="-5.719275">
        <ele>881.018</ele>
        <time>2021-10-13T14:58:50Z</time>
      </trkpt>
      <trkpt lat="41.283634" lon="-5.719582">
        <ele>881.097</ele>
        <time>2021-10-13T14:58:52Z</time>
      </trkpt>
      <trkpt lat="41.283880" lon="-5.719760">
        <ele>881.123</ele>
        <time>2021-10-13T14:58:53Z</time>
      </trkpt>
      <trkpt lat="41.284371" lon="-5.720122">
        <ele>880.525</ele>
        <time>2021-10-13T14:58:55Z</time>
      </trkpt>
      <trkpt lat="41.284627" lon="-5.720309">
        <ele>880.408</ele>
        <time>2021-10-13T14:58:56Z</time>
      </trkpt>
      <trkpt lat="41.285114" lon="-5.720664">
        <ele>880.287</ele>
        <time>2021-10-13T14:58:58Z</time>
      </trkpt>
      <trkpt lat="41.285365" lon="-5.720847">
        <ele>881.015</ele>
        <time>2021-10-13T14:58:59Z</time>
      </trkpt>
      <trkpt lat="41.285858" lon="-5.721214">
        <ele>881.072</ele>
        <time>2021-10-13T14:59:01Z</time>
      </trkpt>
      <trkpt lat="41.286110" lon="-5.721404">
        <ele>880.782</ele>
        <time>2021-10-13T14:59:02Z</time>
      </trkpt>
      <trkpt lat="41.286588" lon="-5.721762">
        <ele>881.325</ele>
        <time>2021-10-13T14:59:04Z</time>
      </trkpt>
      <trkpt lat="41.286831" lon="-5.721944">
        <ele>881.131</ele>
        <time>2021-10-13T14:59:05Z</time>
      </trkpt>
      <trkpt lat="41.287312" lon="-5.722305">
        <ele>879.990</ele>
        <time>2021-10-13T14:59:07Z</time>
      </trkpt>
      <trkpt lat="41.287563" lon="-5.722485">
        <ele>878.625</ele>
        <time>2021-10-13T14:59:08Z</time>
      </trkpt>
      <trkpt lat="41.288057" lon="-5.722819">
        <ele>875.898</ele>
        <time>2021-10-13T14:59:10Z</time>
      </trkpt>
      <trkpt lat="41.288604" lon="-5.723101">
        <ele>871.715</ele>
        <time>2021-10-13T14:59:12Z</time>
      </trkpt>
      <trkpt lat="41.288898" lon="-5.723212">
        <ele>870.526</ele>
        <time>2021-10-13T14:59:13Z</time>
      </trkpt>
      <trkpt lat="41.289206" lon="-5.723307">
        <ele>869.708</ele>
        <time>2021-10-13T14:59:14Z</time>
      </trkpt>
      <trkpt lat="41.289818" lon="-5.723426">
        <ele>871.637</ele>
        <time>2021-10-13T14:59:16Z</time>
      </trkpt>
      <trkpt lat="41.290437" lon="-5.723530">
        <ele>872.615</ele>
        <time>2021-10-13T14:59:18Z</time>
      </trkpt>
      <trkpt lat="41.291052" lon="-5.723639">
        <ele>875.052</ele>
        <time>2021-10-13T14:59:20Z</time>
      </trkpt>
      <trkpt lat="41.291631" lon="-5.723741">
        <ele>877.842</ele>
        <time>2021-10-13T14:59:22Z</time>
      </trkpt>
      <trkpt lat="41.292202" lon="-5.723851">
        <ele>880.715</ele>
        <time>2021-10-13T14:59:24Z</time>
      </trkpt>
      <trkpt lat="41.292486" lon="-5.723908">
        <ele>881.531</ele>
        <time>2021-10-13T14:59:25Z</time>
      </trkpt>
      <trkpt lat="41.292777" lon="-5.723967">
        <ele>883.130</ele>
        <time>2021-10-13T14:59:26Z</time>
      </trkpt>
      <trkpt lat="41.293332" lon="-5.724077">
        <ele>882.955</ele>
        <time>2021-10-13T14:59:28Z</time>
      </trkpt>
      <trkpt lat="41.293903" lon="-5.724189">
        <ele>882.537</ele>
        <time>2021-10-13T14:59:30Z</time>
      </trkpt>
      <trkpt lat="41.294497" lon="-5.724304">
        <ele>883.049</ele>
        <time>2021-10-13T14:59:32Z</time>
      </trkpt>
      <trkpt lat="41.295069" lon="-5.724415">
        <ele>881.513</ele>
        <time>2021-10-13T14:59:34Z</time>
      </trkpt>
      <trkpt lat="41.295663" lon="-5.724527">
        <ele>882.108</ele>
        <time>2021-10-13T14:59:36Z</time>
      </trkpt>
      <trkpt lat="41.296260" lon="-5.724626">
        <ele>883.241</ele>
        <time>2021-10-13T14:59:38Z</time>
      </trkpt>
      <trkpt lat="41.296839" lon="-5.724700">
        <ele>882.929</ele>
        <time>2021-10-13T14:59:40Z</time>
      </trkpt>
      <trkpt lat="41.297428" lon="-5.724737">
        <ele>881.896</ele>
        <time>2021-10-13T14:59:42Z</time>
      </trkpt>
      <trkpt lat="41.298005" lon="-5.724743">
        <ele>880.736</ele>
        <time>2021-10-13T14:59:44Z</time>
      </trkpt>
      <trkpt lat="41.298529" lon="-5.724748">
        <ele>878.649</ele>
        <time>2021-10-13T14:59:46Z</time>
      </trkpt>
      <trkpt lat="41.298790" lon="-5.724753">
        <ele>877.295</ele>
        <time>2021-10-13T14:59:47Z</time>
      </trkpt>
      <trkpt lat="41.299049" lon="-5.724767">
        <ele>875.414</ele>
        <time>2021-10-13T14:59:48Z</time>
      </trkpt>
      <trkpt lat="41.299584" lon="-5.724845">
        <ele>871.869</ele>
        <time>2021-10-13T14:59:50Z</time>
      </trkpt>
      <trkpt lat="41.300139" lon="-5.725040">
        <ele>867.872</ele>
        <time>2021-10-13T14:59:52Z</time>
      </trkpt>
      <trkpt lat="41.300708" lon="-5.725353">
        <ele>865.513</ele>
        <time>2021-10-13T14:59:54Z</time>
      </trkpt>
      <trkpt lat="41.301266" lon="-5.725739">
        <ele>862.314</ele>
        <time>2021-10-13T14:59:56Z</time>
      </trkpt>
      <trkpt lat="41.301775" lon="-5.726129">
        <ele>859.208</ele>
        <time>2021-10-13T14:59:58Z</time>
      </trkpt>
      <trkpt lat="41.302262" lon="-5.726501">
        <ele>857.185</ele>
        <time>2021-10-13T15:00:00Z</time>
      </trkpt>
      <trkpt lat="41.302497" lon="-5.726676">
        <ele>856.543</ele>
        <time>2021-10-13T15:00:01Z</time>
      </trkpt>
      <trkpt lat="41.302742" lon="-5.726853">
        <ele>855.090</ele>
        <time>2021-10-13T15:00:02Z</time>
      </trkpt>
      <trkpt lat="41.303236" lon="-5.727185">
        <ele>850.530</ele>
        <time>2021-10-13T15:00:04Z</time>
      </trkpt>
      <trkpt lat="41.303764" lon="-5.727434">
        <ele>847.593</ele>
        <time>2021-10-13T15:00:06Z</time>
      </trkpt>
      <trkpt lat="41.304318" lon="-5.727561">
        <ele>844.689</ele>
        <time>2021-10-13T15:00:08Z</time>
      </trkpt>
      <trkpt lat="41.304870" lon="-5.727580">
        <ele>839.488</ele>
        <time>2021-10-13T15:00:10Z</time>
      </trkpt>
      <trkpt lat="41.305445" lon="-5.727516">
        <ele>837.163</ele>
        <time>2021-10-13T15:00:12Z</time>
      </trkpt>
      <trkpt lat="41.305741" lon="-5.727458">
        <ele>834.753</ele>
        <time>2021-10-13T15:00:13Z</time>
      </trkpt>
      <trkpt lat="41.306043" lon="-5.727396">
        <ele>832.004</ele>
        <time>2021-10-13T15:00:14Z</time>
      </trkpt>
      <trkpt lat="41.306623" lon="-5.727327">
        <ele>829.614</ele>
        <time>2021-10-13T15:00:16Z</time>
      </trkpt>
      <trkpt lat="41.307215" lon="-5.727365">
        <ele>827.508</ele>
        <time>2021-10-13T15:00:18Z</time>
      </trkpt>
      <trkpt lat="41.307508" lon="-5.727430">
        <ele>826.833</ele>
        <time>2021-10-13T15:00:19Z</time>
      </trkpt>
      <trkpt lat="41.307803" lon="-5.727523">
        <ele>825.211</ele>
        <time>2021-10-13T15:00:20Z</time>
      </trkpt>
      <trkpt lat="41.308354" lon="-5.727772">
        <ele>823.198</ele>
        <time>2021-10-13T15:00:22Z</time>
      </trkpt>
      <trkpt lat="41.308899" lon="-5.728105">
        <ele>819.938</ele>
        <time>2021-10-13T15:00:24Z</time>
      </trkpt>
      <trkpt lat="41.309441" lon="-5.728440">
        <ele>818.971</ele>
        <time>2021-10-13T15:00:26Z</time>
      </trkpt>
      <trkpt lat="41.309920" lon="-5.728729">
        <ele>816.397</ele>
        <time>2021-10-13T15:00:28Z</time>
      </trkpt>
      <trkpt lat="41.310150" lon="-5.728867">
        <ele>815.756</ele>
        <time>2021-10-13T15:00:29Z</time>
      </trkpt>
      <trkpt lat="41.310587" lon="-5.729144">
        <ele>815.121</ele>
        <time>2021-10-13T15:00:31Z</time>
      </trkpt>
      <trkpt lat="41.310808" lon="-5.729299">
        <ele>814.521</ele>
        <time>2021-10-13T15:00:32Z</time>
      </trkpt>
      <trkpt lat="41.311225" lon="-5.729679">
        <ele>815.041</ele>
        <time>2021-10-13T15:00:34Z</time>
      </trkpt>
      <trkpt lat="41.311429" lon="-5.729920">
        <ele>814.905</ele>
        <time>2021-10-13T15:00:35Z</time>
      </trkpt>
      <trkpt lat="41.311832" lon="-5.730443">
        <ele>812.108</ele>
        <time>2021-10-13T15:00:37Z</time>
      </trkpt>
      <trkpt lat="41.312032" lon="-5.730709">
        <ele>811.220</ele>
        <time>2021-10-13T15:00:38Z</time>
      </trkpt>
      <trkpt lat="41.312432" lon="-5.731207">
        <ele>809.428</ele>
        <time>2021-10-13T15:00:40Z</time>
      </trkpt>
      <trkpt lat="41.312896" lon="-5.731685">
        <ele>807.845</ele>
        <time>2021-10-13T15:00:42Z</time>
      </trkpt>
      <trkpt lat="41.313425" lon="-5.732074">
        <ele>804.475</ele>
        <time>2021-10-13T15:00:44Z</time>
      </trkpt>
      <trkpt lat="41.313949" lon="-5.732308">
        <ele>803.958</ele>
        <time>2021-10-13T15:00:46Z</time>
      </trkpt>
      <trkpt lat="41.314227" lon="-5.732375">
        <ele>803.514</ele>
        <time>2021-10-13T15:00:47Z</time>
      </trkpt>
      <trkpt lat="41.314798" lon="-5.732457">
        <ele>801.123</ele>
        <time>2021-10-13T15:00:49Z</time>
      </trkpt>
      <trkpt lat="41.315089" lon="-5.732493">
        <ele>800.398</ele>
        <time>2021-10-13T15:00:50Z</time>
      </trkpt>
      <trkpt lat="41.315629" lon="-5.732591">
        <ele>797.492</ele>
        <time>2021-10-13T15:00:52Z</time>
      </trkpt>
      <trkpt lat="41.316161" lon="-5.732757">
        <ele>796.173</ele>
        <time>2021-10-13T15:00:54Z</time>
      </trkpt>
      <trkpt lat="41.316692" lon="-5.733026">
        <ele>794.520</ele>
        <time>2021-10-13T15:00:56Z</time>
      </trkpt>
      <trkpt lat="41.317199" lon="-5.733362">
        <ele>792.608</ele>
        <time>2021-10-13T15:00:58Z</time>
      </trkpt>
      <trkpt lat="41.317459" lon="-5.733547">
        <ele>791.167</ele>
        <time>2021-10-13T15:00:59Z</time>
      </trkpt>
      <trkpt lat="41.317720" lon="-5.733735">
        <ele>790.225</ele>
        <time>2021-10-13T15:01:00Z</time>
      </trkpt>
      <trkpt lat="41.318251" lon="-5.734105">
        <ele>788.622</ele>
        <time>2021-10-13T15:01:02Z</time>
      </trkpt>
      <trkpt lat="41.318755" lon="-5.734432">
        <ele>787.032</ele>
        <time>2021-10-13T15:01:04Z</time>
      </trkpt>
      <trkpt lat="41.319278" lon="-5.734647">
        <ele>786.725</ele>
        <time>2021-10-13T15:01:06Z</time>
      </trkpt>
      <trkpt lat="41.319535" lon="-5.734707">
        <ele>786.261</ele>
        <time>2021-10-13T15:01:07Z</time>
      </trkpt>
      <trkpt lat="41.319786" lon="-5.734744">
        <ele>785.990</ele>
        <time>2021-10-13T15:01:08Z</time>
      </trkpt>
      <trkpt lat="41.320224" lon="-5.734791">
        <ele>786.265</ele>
        <time>2021-10-13T15:01:10Z</time>
      </trkpt>
      <trkpt lat="41.320420" lon="-5.734803">
        <ele>786.057</ele>
        <time>2021-10-13T15:01:11Z</time>
      </trkpt>
      <trkpt lat="41.320780" lon="-5.734774">
        <ele>785.000</ele>
        <time>2021-10-13T15:01:13Z</time>
      </trkpt>
      <trkpt lat="41.320971" lon="-5.734742">
        <ele>784.320</ele>
        <time>2021-10-13T15:01:14Z</time>
      </trkpt>
      <trkpt lat="41.321349" lon="-5.734663">
        <ele>781.808</ele>
        <time>2021-10-13T15:01:16Z</time>
      </trkpt>
      <trkpt lat="41.321750" lon="-5.734589">
        <ele>780.463</ele>
        <time>2021-10-13T15:01:18Z</time>
      </trkpt>
      <trkpt lat="41.321953" lon="-5.734552">
        <ele>779.621</ele>
        <time>2021-10-13T15:01:19Z</time>
      </trkpt>
      <trkpt lat="41.322154" lon="-5.734515">
        <ele>779.118</ele>
        <time>2021-10-13T15:01:20Z</time>
      </trkpt>
      <trkpt lat="41.322504" lon="-5.734450">
        <ele>778.098</ele>
        <time>2021-10-13T15:01:22Z</time>
      </trkpt>
      <trkpt lat="41.322661" lon="-5.734421">
        <ele>777.381</ele>
        <time>2021-10-13T15:01:23Z</time>
      </trkpt>
      <trkpt lat="41.322950" lon="-5.734361">
        <ele>776.937</ele>
        <time>2021-10-13T15:01:25Z</time>
      </trkpt>
      <trkpt lat="41.323090" lon="-5.734334">
        <ele>776.026</ele>
        <time>2021-10-13T15:01:26Z</time>
      </trkpt>
      <trkpt lat="41.323366" lon="-5.734280">
        <ele>775.651</ele>
        <time>2021-10-13T15:01:28Z</time>
      </trkpt>
      <trkpt lat="41.323527" lon="-5.734249">
        <ele>775.523</ele>
        <time>2021-10-13T15:01:29Z</time>
      </trkpt>
      <trkpt lat="41.323703" lon="-5.734219">
        <ele>774.783</ele>
        <time>2021-10-13T15:01:30Z</time>
      </trkpt>
      <trkpt lat="41.324102" lon="-5.734151">
        <ele>774.111</ele>
        <time>2021-10-13T15:01:32Z</time>
      </trkpt>
      <trkpt lat="41.324554" lon="-5.734064">
        <ele>774.608</ele>
        <time>2021-10-13T15:01:34Z</time>
      </trkpt>
      <trkpt lat="41.325046" lon="-5.733965">
        <ele>773.440</ele>
        <time>2021-10-13T15:01:36Z</time>
      </trkpt>
      <trkpt lat="41.325278" lon="-5.733919">
        <ele>773.258</ele>
        <time>2021-10-13T15:01:37Z</time>
      </trkpt>
      <trkpt lat="41.325503" lon="-5.733875">
        <ele>772.695</ele>
        <time>2021-10-13T15:01:38Z</time>
      </trkpt>
      <trkpt lat="41.325902" lon="-5.733802">
        <ele>771.855</ele>
        <time>2021-10-13T15:01:40Z</time>
      </trkpt>
      <trkpt lat="41.326097" lon="-5.733765">
        <ele>771.918</ele>
        <time>2021-10-13T15:01:41Z</time>
      </trkpt>
      <trkpt lat="41.326485" lon="-5.733690">
        <ele>771.274</ele>
        <time>2021-10-13T15:01:43Z</time>
      </trkpt>
      <trkpt lat="41.326684" lon="-5.733654">
        <ele>770.783</ele>
        <time>2021-10-13T15:01:44Z</time>
      </trkpt>
      <trkpt lat="41.327064" lon="-5.733577">
        <ele>770.548</ele>
        <time>2021-10-13T15:01:46Z</time>
      </trkpt>
      <trkpt lat="41.327256" lon="-5.733540">
        <ele>769.998</ele>
        <time>2021-10-13T15:01:47Z</time>
      </trkpt>
      <trkpt lat="41.327448" lon="-5.733503">
        <ele>770.115</ele>
        <time>2021-10-13T15:01:48Z</time>
      </trkpt>
      <trkpt lat="41.327831" lon="-5.733435">
        <ele>769.926</ele>
        <time>2021-10-13T15:01:50Z</time>
      </trkpt>
      <trkpt lat="41.328190" lon="-5.733362">
        <ele>769.908</ele>
        <time>2021-10-13T15:01:52Z</time>
      </trkpt>
      <trkpt lat="41.328374" lon="-5.733327">
        <ele>769.677</ele>
        <time>2021-10-13T15:01:53Z</time>
      </trkpt>
      <trkpt lat="41.328748" lon="-5.733250">
        <ele>769.835</ele>
        <time>2021-10-13T15:01:55Z</time>
      </trkpt>
      <trkpt lat="41.328938" lon="-5.733211">
        <ele>769.382</ele>
        <time>2021-10-13T15:01:56Z</time>
      </trkpt>
      <trkpt lat="41.329309" lon="-5.733146">
        <ele>769.272</ele>
        <time>2021-10-13T15:01:58Z</time>
      </trkpt>
      <trkpt lat="41.329502" lon="-5.733113">
        <ele>769.155</ele>
        <time>2021-10-13T15:01:59Z</time>
      </trkpt>
      <trkpt lat="41.329885" lon="-5.733043">
        <ele>769.461</ele>
        <time>2021-10-13T15:02:01Z</time>
      </trkpt>
      <trkpt lat="41.330078" lon="-5.733003">
        <ele>769.270</ele>
        <time>2021-10-13T15:02:02Z</time>
      </trkpt>
      <trkpt lat="41.330438" lon="-5.732935">
        <ele>768.685</ele>
        <time>2021-10-13T15:02:04Z</time>
      </trkpt>
      <trkpt lat="41.330626" lon="-5.732901">
        <ele>767.755</ele>
        <time>2021-10-13T15:02:05Z</time>
      </trkpt>
      <trkpt lat="41.331006" lon="-5.732824">
        <ele>767.807</ele>
        <time>2021-10-13T15:02:07Z</time>
      </trkpt>
      <trkpt lat="41.331206" lon="-5.732785">
        <ele>767.917</ele>
        <time>2021-10-13T15:02:08Z</time>
      </trkpt>
      <trkpt lat="41.331622" lon="-5.732716">
        <ele>768.208</ele>
        <time>2021-10-13T15:02:10Z</time>
      </trkpt>
      <trkpt lat="41.331851" lon="-5.732675">
        <ele>767.173</ele>
        <time>2021-10-13T15:02:11Z</time>
      </trkpt>
      <trkpt lat="41.332092" lon="-5.732630">
        <ele>767.451</ele>
        <time>2021-10-13T15:02:12Z</time>
      </trkpt>
      <trkpt lat="41.332603" lon="-5.732529">
        <ele>767.168</ele>
        <time>2021-10-13T15:02:14Z</time>
      </trkpt>
      <trkpt lat="41.333134" lon="-5.732431">
        <ele>768.228</ele>
        <time>2021-10-13T15:02:16Z</time>
      </trkpt>
      <trkpt lat="41.333414" lon="-5.732380">
        <ele>768.491</ele>
        <time>2021-10-13T15:02:17Z</time>
      </trkpt>
      <trkpt lat="41.333977" lon="-5.732268">
        <ele>768.997</ele>
        <time>2021-10-13T15:02:19Z</time>
      </trkpt>
      <trkpt lat="41.334270" lon="-5.732211">
        <ele>769.486</ele>
        <time>2021-10-13T15:02:20Z</time>
      </trkpt>
      <trkpt lat="41.334844" lon="-5.732101">
        <ele>769.171</ele>
        <time>2021-10-13T15:02:22Z</time>
      </trkpt>
      <trkpt lat="41.335145" lon="-5.732048">
        <ele>769.496</ele>
        <time>2021-10-13T15:02:23Z</time>
      </trkpt>
      <trkpt lat="41.335753" lon="-5.731938">
        <ele>770.531</ele>
        <time>2021-10-13T15:02:25Z</time>
      </trkpt>
      <trkpt lat="41.336069" lon="-5.731880">
        <ele>772.624</ele>
        <time>2021-10-13T15:02:26Z</time>
      </trkpt>
      <trkpt lat="41.336636" lon="-5.731773">
        <ele>774.808</ele>
        <time>2021-10-13T15:02:28Z</time>
      </trkpt>
      <trkpt lat="41.337159" lon="-5.731671">
        <ele>777.397</ele>
        <time>2021-10-13T15:02:30Z</time>
      </trkpt>
      <trkpt lat="41.337408" lon="-5.731625">
        <ele>778.675</ele>
        <time>2021-10-13T15:02:31Z</time>
      </trkpt>
      <trkpt lat="41.337662" lon="-5.731574">
        <ele>779.622</ele>
        <time>2021-10-13T15:02:32Z</time>
      </trkpt>
      <trkpt lat="41.338140" lon="-5.731484">
        <ele>780.262</ele>
        <time>2021-10-13T15:02:34Z</time>
      </trkpt>
      <trkpt lat="41.338381" lon="-5.731440">
        <ele>779.765</ele>
        <time>2021-10-13T15:02:35Z</time>
      </trkpt>
      <trkpt lat="41.338859" lon="-5.731344">
        <ele>779.851</ele>
        <time>2021-10-13T15:02:37Z</time>
      </trkpt>
      <trkpt lat="41.339106" lon="-5.731294">
        <ele>779.210</ele>
        <time>2021-10-13T15:02:38Z</time>
      </trkpt>
      <trkpt lat="41.339584" lon="-5.731200">
        <ele>777.035</ele>
        <time>2021-10-13T15:02:40Z</time>
      </trkpt>
      <trkpt lat="41.340088" lon="-5.731102">
        <ele>774.847</ele>
        <time>2021-10-13T15:02:42Z</time>
      </trkpt>
      <trkpt lat="41.340610" lon="-5.731005">
        <ele>771.929</ele>
        <time>2021-10-13T15:02:44Z</time>
      </trkpt>
      <trkpt lat="41.341124" lon="-5.730907">
        <ele>771.021</ele>
        <time>2021-10-13T15:02:46Z</time>
      </trkpt>
      <trkpt lat="41.341655" lon="-5.730811">
        <ele>769.408</ele>
        <time>2021-10-13T15:02:48Z</time>
      </trkpt>
      <trkpt lat="41.341929" lon="-5.730764">
        <ele>769.542</ele>
        <time>2021-10-13T15:02:49Z</time>
      </trkpt>
      <trkpt lat="41.342211" lon="-5.730715">
        <ele>770.380</ele>
        <time>2021-10-13T15:02:50Z</time>
      </trkpt>
      <trkpt lat="41.342756" lon="-5.730618">
        <ele>770.737</ele>
        <time>2021-10-13T15:02:52Z</time>
      </trkpt>
      <trkpt lat="41.343324" lon="-5.730506">
        <ele>770.877</ele>
        <time>2021-10-13T15:02:54Z</time>
      </trkpt>
      <trkpt lat="41.343612" lon="-5.730450">
        <ele>770.240</ele>
        <time>2021-10-13T15:02:55Z</time>
      </trkpt>
      <trkpt lat="41.343908" lon="-5.730393">
        <ele>770.436</ele>
        <time>2021-10-13T15:02:56Z</time>
      </trkpt>
      <trkpt lat="41.344470" lon="-5.730284">
        <ele>770.775</ele>
        <time>2021-10-13T15:02:58Z</time>
      </trkpt>
      <trkpt lat="41.344754" lon="-5.730228">
        <ele>770.020</ele>
        <time>2021-10-13T15:02:59Z</time>
      </trkpt>
      <trkpt lat="41.345319" lon="-5.730118">
        <ele>770.395</ele>
        <time>2021-10-13T15:03:01Z</time>
      </trkpt>
      <trkpt lat="41.345612" lon="-5.730061">
        <ele>769.849</ele>
        <time>2021-10-13T15:03:02Z</time>
      </trkpt>
      <trkpt lat="41.346174" lon="-5.729954">
        <ele>767.823</ele>
        <time>2021-10-13T15:03:04Z</time>
      </trkpt>
      <trkpt lat="41.346750" lon="-5.729842">
        <ele>767.308</ele>
        <time>2021-10-13T15:03:06Z</time>
      </trkpt>
      <trkpt lat="41.347339" lon="-5.729735">
        <ele>767.227</ele>
        <time>2021-10-13T15:03:08Z</time>
      </trkpt>
      <trkpt lat="41.347867" lon="-5.729631">
        <ele>768.445</ele>
        <time>2021-10-13T15:03:10Z</time>
      </trkpt>
      <trkpt lat="41.348126" lon="-5.729580">
        <ele>768.962</ele>
        <time>2021-10-13T15:03:11Z</time>
      </trkpt>
      <trkpt lat="41.348605" lon="-5.729486">
        <ele>767.952</ele>
        <time>2021-10-13T15:03:13Z</time>
      </trkpt>
      <trkpt lat="41.348844" lon="-5.729445">
        <ele>768.075</ele>
        <time>2021-10-13T15:03:14Z</time>
      </trkpt>
      <trkpt lat="41.349301" lon="-5.729366">
        <ele>768.091</ele>
        <time>2021-10-13T15:03:16Z</time>
      </trkpt>
      <trkpt lat="41.349539" lon="-5.729318">
        <ele>768.350</ele>
        <time>2021-10-13T15:03:17Z</time>
      </trkpt>
      <trkpt lat="41.349994" lon="-5.729222">
        <ele>769.115</ele>
        <time>2021-10-13T15:03:19Z</time>
      </trkpt>
      <trkpt lat="41.350202" lon="-5.729181">
        <ele>769.056</ele>
        <time>2021-10-13T15:03:20Z</time>
      </trkpt>
      <trkpt lat="41.350533" lon="-5.729119">
        <ele>768.259</ele>
        <time>2021-10-13T15:03:22Z</time>
      </trkpt>
      <trkpt lat="41.350787" lon="-5.729073">
        <ele>767.814</ele>
        <time>2021-10-13T15:03:24Z</time>
      </trkpt>
      <trkpt lat="41.350887" lon="-5.729055">
        <ele>767.908</ele>
        <time>2021-10-13T15:03:25Z</time>
      </trkpt>
      <trkpt lat="41.350977" lon="-5.729038">
        <ele>767.513</ele>
        <time>2021-10-13T15:03:26Z</time>
      </trkpt>
      <trkpt lat="41.351126" lon="-5.728979">
        <ele>766.781</ele>
        <time>2021-10-13T15:03:28Z</time>
      </trkpt>
      <trkpt lat="41.351232" lon="-5.728840">
        <ele>765.928</ele>
        <time>2021-10-13T15:03:30Z</time>
      </trkpt>
      <trkpt lat="41.351273" lon="-5.728745">
        <ele>765.528</ele>
        <time>2021-10-13T15:03:31Z</time>
      </trkpt>
      <trkpt lat="41.351324" lon="-5.728659">
        <ele>765.951</ele>
        <time>2021-10-13T15:03:32Z</time>
      </trkpt>
      <trkpt lat="41.351464" lon="-5.728575">
        <ele>765.847</ele>
        <time>2021-10-13T15:03:34Z</time>
      </trkpt>
      <trkpt lat="41.351547" lon="-5.728592">
        <ele>765.816</ele>
        <time>2021-10-13T15:03:35Z</time>
      </trkpt>
      <trkpt lat="41.351699" lon="-5.728750">
        <ele>764.411</ele>
        <time>2021-10-13T15:03:37Z</time>
      </trkpt>
      <trkpt lat="41.351784" lon="-5.728835">
        <ele>764.735</ele>
        <time>2021-10-13T15:03:38Z</time>
      </trkpt>
      <trkpt lat="41.351997" lon="-5.728905">
        <ele>764.686</ele>
        <time>2021-10-13T15:03:40Z</time>
      </trkpt>
      <trkpt lat="41.352316" lon="-5.728838">
        <ele>765.014</ele>
        <time>2021-10-13T15:03:42Z</time>
      </trkpt>
      <trkpt lat="41.352503" lon="-5.728787">
        <ele>764.908</ele>
        <time>2021-10-13T15:03:43Z</time>
      </trkpt>
      <trkpt lat="41.352703" lon="-5.728739">
        <ele>765.521</ele>
        <time>2021-10-13T15:03:44Z</time>
      </trkpt>
      <trkpt lat="41.353105" lon="-5.728648">
        <ele>765.959</ele>
        <time>2021-10-13T15:03:46Z</time>
      </trkpt>
      <trkpt lat="41.353490" lon="-5.728570">
        <ele>766.956</ele>
        <time>2021-10-13T15:03:48Z</time>
      </trkpt>
      <trkpt lat="41.353660" lon="-5.728536">
        <ele>767.326</ele>
        <time>2021-10-13T15:03:49Z</time>
      </trkpt>
      <trkpt lat="41.353819" lon="-5.728504">
        <ele>767.259</ele>
        <time>2021-10-13T15:03:50Z</time>
      </trkpt>
      <trkpt lat="41.354101" lon="-5.728450">
        <ele>767.635</ele>
        <time>2021-10-13T15:03:52Z</time>
      </trkpt>
      <trkpt lat="41.354250" lon="-5.728424">
        <ele>767.394</ele>
        <time>2021-10-13T15:03:53Z</time>
      </trkpt>
      <trkpt lat="41.354402" lon="-5.728394">
        <ele>767.659</ele>
        <time>2021-10-13T15:03:54Z</time>
      </trkpt>
      <trkpt lat="41.354557" lon="-5.728363">
        <ele>767.929</ele>
        <time>2021-10-13T15:03:55Z</time>
      </trkpt>
      <trkpt lat="41.354712" lon="-5.728332">
        <ele>768.400</ele>
        <time>2021-10-13T15:03:56Z</time>
      </trkpt>
      <trkpt lat="41.354984" lon="-5.728277">
        <ele>767.920</ele>
        <time>2021-10-13T15:03:58Z</time>
      </trkpt>
      <trkpt lat="41.355114" lon="-5.728253">
        <ele>767.608</ele>
        <time>2021-10-13T15:03:59Z</time>
      </trkpt>
      <trkpt lat="41.355358" lon="-5.728212">
        <ele>767.370</ele>
        <time>2021-10-13T15:04:01Z</time>
      </trkpt>
      <trkpt lat="41.355478" lon="-5.728188">
        <ele>767.358</ele>
        <time>2021-10-13T15:04:02Z</time>
      </trkpt>
      <trkpt lat="41.355716" lon="-5.728143">
        <ele>766.815</ele>
        <time>2021-10-13T15:04:04Z</time>
      </trkpt>
      <trkpt lat="41.355968" lon="-5.728104">
        <ele>766.415</ele>
        <time>2021-10-13T15:04:06Z</time>
      </trkpt>
      <trkpt lat="41.356097" lon="-5.728079">
        <ele>766.438</ele>
        <time>2021-10-13T15:04:07Z</time>
      </trkpt>
      <trkpt lat="41.356232" lon="-5.728053">
        <ele>766.464</ele>
        <time>2021-10-13T15:04:08Z</time>
      </trkpt>
      <trkpt lat="41.356487" lon="-5.728004">
        <ele>766.913</ele>
        <time>2021-10-13T15:04:10Z</time>
      </trkpt>
      <trkpt lat="41.356750" lon="-5.727951">
        <ele>767.978</ele>
        <time>2021-10-13T15:04:12Z</time>
      </trkpt>
      <trkpt lat="41.357020" lon="-5.727872">
        <ele>769.181</ele>
        <time>2021-10-13T15:04:14Z</time>
      </trkpt>
      <trkpt lat="41.357289" lon="-5.727774">
        <ele>770.761</ele>
        <time>2021-10-13T15:04:16Z</time>
      </trkpt>
      <trkpt lat="41.357430" lon="-5.727719">
        <ele>771.017</ele>
        <time>2021-10-13T15:04:17Z</time>
      </trkpt>
      <trkpt lat="41.357570" lon="-5.727663">
        <ele>770.808</ele>
        <time>2021-10-13T15:04:18Z</time>
      </trkpt>
      <trkpt lat="41.357848" lon="-5.727556">
        <ele>772.666</ele>
        <time>2021-10-13T15:04:20Z</time>
      </trkpt>
      <trkpt lat="41.358085" lon="-5.727464">
        <ele>773.514</ele>
        <time>2021-10-13T15:04:22Z</time>
      </trkpt>
      <trkpt lat="41.358203" lon="-5.727424">
        <ele>774.191</ele>
        <time>2021-10-13T15:04:23Z</time>
      </trkpt>
      <trkpt lat="41.358426" lon="-5.727352">
        <ele>775.081</ele>
        <time>2021-10-13T15:04:25Z</time>
      </trkpt>
      <trkpt lat="41.358527" lon="-5.727321">
        <ele>775.364</ele>
        <time>2021-10-13T15:04:26Z</time>
      </trkpt>
      <trkpt lat="41.358696" lon="-5.727270">
        <ele>775.120</ele>
        <time>2021-10-13T15:04:28Z</time>
      </trkpt>
      <trkpt lat="41.358778" lon="-5.727245">
        <ele>775.149</ele>
        <time>2021-10-13T15:04:29Z</time>
      </trkpt>
      <trkpt lat="41.358951" lon="-5.727189">
        <ele>774.284</ele>
        <time>2021-10-13T15:04:31Z</time>
      </trkpt>
      <trkpt lat="41.359048" lon="-5.727159">
        <ele>773.883</ele>
        <time>2021-10-13T15:04:32Z</time>
      </trkpt>
      <trkpt lat="41.359255" lon="-5.727093">
        <ele>773.725</ele>
        <time>2021-10-13T15:04:34Z</time>
      </trkpt>
      <trkpt lat="41.359369" lon="-5.727057">
        <ele>773.717</ele>
        <time>2021-10-13T15:04:35Z</time>
      </trkpt>
      <trkpt lat="41.359486" lon="-5.727018">
        <ele>773.008</ele>
        <time>2021-10-13T15:04:36Z</time>
      </trkpt>
      <trkpt lat="41.359741" lon="-5.726938">
        <ele>772.346</ele>
        <time>2021-10-13T15:04:38Z</time>
      </trkpt>
      <trkpt lat="41.359999" lon="-5.726863">
        <ele>771.374</ele>
        <time>2021-10-13T15:04:40Z</time>
      </trkpt>
      <trkpt lat="41.360133" lon="-5.726823">
        <ele>769.831</ele>
        <time>2021-10-13T15:04:41Z</time>
      </trkpt>
      <trkpt lat="41.360268" lon="-5.726783">
        <ele>769.651</ele>
        <time>2021-10-13T15:04:42Z</time>
      </trkpt>
      <trkpt lat="41.360402" lon="-5.726741">
        <ele>769.724</ele>
        <time>2021-10-13T15:04:43Z</time>
      </trkpt>
      <trkpt lat="41.360535" lon="-5.726694">
        <ele>769.080</ele>
        <time>2021-10-13T15:04:44Z</time>
      </trkpt>
      <trkpt lat="41.360799" lon="-5.726605">
        <ele>767.319</ele>
        <time>2021-10-13T15:04:46Z</time>
      </trkpt>
      <trkpt lat="41.361090" lon="-5.726512">
        <ele>766.224</ele>
        <time>2021-10-13T15:04:48Z</time>
      </trkpt>
      <trkpt lat="41.361253" lon="-5.726459">
        <ele>765.826</ele>
        <time>2021-10-13T15:04:49Z</time>
      </trkpt>
      <trkpt lat="41.361439" lon="-5.726399">
        <ele>765.847</ele>
        <time>2021-10-13T15:04:50Z</time>
      </trkpt>
      <trkpt lat="41.361832" lon="-5.726269">
        <ele>764.011</ele>
        <time>2021-10-13T15:04:52Z</time>
      </trkpt>
      <trkpt lat="41.362219" lon="-5.726147">
        <ele>762.908</ele>
        <time>2021-10-13T15:04:54Z</time>
      </trkpt>
      <trkpt lat="41.362634" lon="-5.726009">
        <ele>762.860</ele>
        <time>2021-10-13T15:04:56Z</time>
      </trkpt>
      <trkpt lat="41.363045" lon="-5.725868">
        <ele>762.788</ele>
        <time>2021-10-13T15:04:58Z</time>
      </trkpt>
      <trkpt lat="41.363256" lon="-5.725795">
        <ele>763.825</ele>
        <time>2021-10-13T15:04:59Z</time>
      </trkpt>
      <trkpt lat="41.363690" lon="-5.725647">
        <ele>765.325</ele>
        <time>2021-10-13T15:05:01Z</time>
      </trkpt>
      <trkpt lat="41.363913" lon="-5.725571">
        <ele>766.298</ele>
        <time>2021-10-13T15:05:02Z</time>
      </trkpt>
      <trkpt lat="41.364308" lon="-5.725435">
        <ele>767.534</ele>
        <time>2021-10-13T15:05:04Z</time>
      </trkpt>
      <trkpt lat="41.364513" lon="-5.725366">
        <ele>767.683</ele>
        <time>2021-10-13T15:05:05Z</time>
      </trkpt>
      <trkpt lat="41.364729" lon="-5.725293">
        <ele>767.798</ele>
        <time>2021-10-13T15:05:06Z</time>
      </trkpt>
      <trkpt lat="41.365207" lon="-5.725134">
        <ele>765.854</ele>
        <time>2021-10-13T15:05:08Z</time>
      </trkpt>
      <trkpt lat="41.365688" lon="-5.724970">
        <ele>765.256</ele>
        <time>2021-10-13T15:05:10Z</time>
      </trkpt>
      <trkpt lat="41.366193" lon="-5.724801">
        <ele>764.111</ele>
        <time>2021-10-13T15:05:12Z</time>
      </trkpt>
      <trkpt lat="41.366451" lon="-5.724711">
        <ele>762.808</ele>
        <time>2021-10-13T15:05:13Z</time>
      </trkpt>
      <trkpt lat="41.366719" lon="-5.724614">
        <ele>761.663</ele>
        <time>2021-10-13T15:05:14Z</time>
      </trkpt>
      <trkpt lat="41.367243" lon="-5.724434">
        <ele>759.441</ele>
        <time>2021-10-13T15:05:16Z</time>
      </trkpt>
      <trkpt lat="41.367516" lon="-5.724341">
        <ele>759.638</ele>
        <time>2021-10-13T15:05:17Z</time>
      </trkpt>
      <trkpt lat="41.367784" lon="-5.724248">
        <ele>759.758</ele>
        <time>2021-10-13T15:05:18Z</time>
      </trkpt>
      <trkpt lat="41.368316" lon="-5.724061">
        <ele>759.321</ele>
        <time>2021-10-13T15:05:20Z</time>
      </trkpt>
      <trkpt lat="41.368817" lon="-5.723892">
        <ele>761.247</ele>
        <time>2021-10-13T15:05:22Z</time>
      </trkpt>
      <trkpt lat="41.369061" lon="-5.723809">
        <ele>762.646</ele>
        <time>2021-10-13T15:05:23Z</time>
      </trkpt>
      <trkpt lat="41.369521" lon="-5.723652">
        <ele>763.521</ele>
        <time>2021-10-13T15:05:25Z</time>
      </trkpt>
      <trkpt lat="41.369751" lon="-5.723573">
        <ele>764.534</ele>
        <time>2021-10-13T15:05:26Z</time>
      </trkpt>
      <trkpt lat="41.370189" lon="-5.723421">
        <ele>765.655</ele>
        <time>2021-10-13T15:05:28Z</time>
      </trkpt>
      <trkpt lat="41.370426" lon="-5.723340">
        <ele>766.310</ele>
        <time>2021-10-13T15:05:29Z</time>
      </trkpt>
      <trkpt lat="41.370903" lon="-5.723176">
        <ele>767.808</ele>
        <time>2021-10-13T15:05:31Z</time>
      </trkpt>
      <trkpt lat="41.371158" lon="-5.723088">
        <ele>768.271</ele>
        <time>2021-10-13T15:05:32Z</time>
      </trkpt>
      <trkpt lat="41.371656" lon="-5.722915">
        <ele>769.779</ele>
        <time>2021-10-13T15:05:34Z</time>
      </trkpt>
      <trkpt lat="41.371913" lon="-5.722827">
        <ele>770.696</ele>
        <time>2021-10-13T15:05:35Z</time>
      </trkpt>
      <trkpt lat="41.372165" lon="-5.722745">
        <ele>771.456</ele>
        <time>2021-10-13T15:05:36Z</time>
      </trkpt>
      <trkpt lat="41.372655" lon="-5.722578">
        <ele>773.119</ele>
        <time>2021-10-13T15:05:38Z</time>
      </trkpt>
      <trkpt lat="41.373085" lon="-5.722429">
        <ele>772.175</ele>
        <time>2021-10-13T15:05:40Z</time>
      </trkpt>
      <trkpt lat="41.373297" lon="-5.722354">
        <ele>773.084</ele>
        <time>2021-10-13T15:05:41Z</time>
      </trkpt>
      <trkpt lat="41.373511" lon="-5.722275">
        <ele>773.549</ele>
        <time>2021-10-13T15:05:42Z</time>
      </trkpt>
      <trkpt lat="41.373957" lon="-5.722126">
        <ele>774.342</ele>
        <time>2021-10-13T15:05:44Z</time>
      </trkpt>
      <trkpt lat="41.374404" lon="-5.721974">
        <ele>774.622</ele>
        <time>2021-10-13T15:05:46Z</time>
      </trkpt>
      <trkpt lat="41.374639" lon="-5.721893">
        <ele>774.614</ele>
        <time>2021-10-13T15:05:47Z</time>
      </trkpt>
      <trkpt lat="41.375116" lon="-5.721727">
        <ele>775.108</ele>
        <time>2021-10-13T15:05:49Z</time>
      </trkpt>
      <trkpt lat="41.375371" lon="-5.721638">
        <ele>775.872</ele>
        <time>2021-10-13T15:05:50Z</time>
      </trkpt>
      <trkpt lat="41.375862" lon="-5.721467">
        <ele>778.550</ele>
        <time>2021-10-13T15:05:52Z</time>
      </trkpt>
      <trkpt lat="41.376110" lon="-5.721381">
        <ele>779.917</ele>
        <time>2021-10-13T15:05:53Z</time>
      </trkpt>
      <trkpt lat="41.376587" lon="-5.721216">
        <ele>782.147</ele>
        <time>2021-10-13T15:05:55Z</time>
      </trkpt>
      <trkpt lat="41.376829" lon="-5.721135">
        <ele>782.090</ele>
        <time>2021-10-13T15:05:56Z</time>
      </trkpt>
      <trkpt lat="41.377293" lon="-5.720989">
        <ele>782.146</ele>
        <time>2021-10-13T15:05:58Z</time>
      </trkpt>
      <trkpt lat="41.377768" lon="-5.720831">
        <ele>781.535</ele>
        <time>2021-10-13T15:06:00Z</time>
      </trkpt>
      <trkpt lat="41.378251" lon="-5.720664">
        <ele>781.970</ele>
        <time>2021-10-13T15:06:02Z</time>
      </trkpt>
      <trkpt lat="41.378733" lon="-5.720506">
        <ele>781.027</ele>
        <time>2021-10-13T15:06:04Z</time>
      </trkpt>
      <trkpt lat="41.378985" lon="-5.720425">
        <ele>780.068</ele>
        <time>2021-10-13T15:06:05Z</time>
      </trkpt>
      <trkpt lat="41.379495" lon="-5.720247">
        <ele>778.014</ele>
        <time>2021-10-13T15:06:07Z</time>
      </trkpt>
      <trkpt lat="41.379762" lon="-5.720149">
        <ele>777.508</ele>
        <time>2021-10-13T15:06:08Z</time>
      </trkpt>
      <trkpt lat="41.380287" lon="-5.719966">
        <ele>774.960</ele>
        <time>2021-10-13T15:06:10Z</time>
      </trkpt>
      <trkpt lat="41.380560" lon="-5.719872">
        <ele>773.558</ele>
        <time>2021-10-13T15:06:11Z</time>
      </trkpt>
      <trkpt lat="41.381103" lon="-5.719690">
        <ele>773.455</ele>
        <time>2021-10-13T15:06:13Z</time>
      </trkpt>
      <trkpt lat="41.381381" lon="-5.719603">
        <ele>773.445</ele>
        <time>2021-10-13T15:06:14Z</time>
      </trkpt>
      <trkpt lat="41.381893" lon="-5.719439">
        <ele>774.398</ele>
        <time>2021-10-13T15:06:16Z</time>
      </trkpt>
      <trkpt lat="41.382153" lon="-5.719353">
        <ele>774.834</ele>
        <time>2021-10-13T15:06:17Z</time>
      </trkpt>
      <trkpt lat="41.382411" lon="-5.719264">
        <ele>775.343</ele>
        <time>2021-10-13T15:06:18Z</time>
      </trkpt>
      <trkpt lat="41.382926" lon="-5.719087">
        <ele>775.548</ele>
        <time>2021-10-13T15:06:20Z</time>
      </trkpt>
      <trkpt lat="41.383425" lon="-5.718916">
        <ele>778.395</ele>
        <time>2021-10-13T15:06:22Z</time>
      </trkpt>
      <trkpt lat="41.383688" lon="-5.718827">
        <ele>779.749</ele>
        <time>2021-10-13T15:06:23Z</time>
      </trkpt>
      <trkpt lat="41.384213" lon="-5.718651">
        <ele>779.723</ele>
        <time>2021-10-13T15:06:25Z</time>
      </trkpt>
      <trkpt lat="41.384487" lon="-5.718560">
        <ele>781.208</ele>
        <time>2021-10-13T15:06:26Z</time>
      </trkpt>
      <trkpt lat="41.385006" lon="-5.718387">
        <ele>782.487</ele>
        <time>2021-10-13T15:06:28Z</time>
      </trkpt>
      <trkpt lat="41.385527" lon="-5.718212">
        <ele>782.385</ele>
        <time>2021-10-13T15:06:30Z</time>
      </trkpt>
      <trkpt lat="41.385784" lon="-5.718125">
        <ele>782.232</ele>
        <time>2021-10-13T15:06:31Z</time>
      </trkpt>
      <trkpt lat="41.386042" lon="-5.718037">
        <ele>783.012</ele>
        <time>2021-10-13T15:06:32Z</time>
      </trkpt>
      <trkpt lat="41.386530" lon="-5.717869">
        <ele>782.585</ele>
        <time>2021-10-13T15:06:34Z</time>
      </trkpt>
      <trkpt lat="41.386781" lon="-5.717781">
        <ele>782.971</ele>
        <time>2021-10-13T15:06:35Z</time>
      </trkpt>
      <trkpt lat="41.387278" lon="-5.717605">
        <ele>782.960</ele>
        <time>2021-10-13T15:06:37Z</time>
      </trkpt>
      <trkpt lat="41.387530" lon="-5.717518">
        <ele>782.475</ele>
        <time>2021-10-13T15:06:38Z</time>
      </trkpt>
      <trkpt lat="41.387977" lon="-5.717375">
        <ele>781.734</ele>
        <time>2021-10-13T15:06:40Z</time>
      </trkpt>
      <trkpt lat="41.388209" lon="-5.717326">
        <ele>780.555</ele>
        <time>2021-10-13T15:06:41Z</time>
      </trkpt>
      <trkpt lat="41.388690" lon="-5.717288">
        <ele>778.710</ele>
        <time>2021-10-13T15:06:43Z</time>
      </trkpt>
      <trkpt lat="41.388945" lon="-5.717300">
        <ele>778.608</ele>
        <time>2021-10-13T15:06:44Z</time>
      </trkpt>
      <trkpt lat="41.389443" lon="-5.717379">
        <ele>776.951</ele>
        <time>2021-10-13T15:06:46Z</time>
      </trkpt>
      <trkpt lat="41.389698" lon="-5.717447">
        <ele>775.919</ele>
        <time>2021-10-13T15:06:47Z</time>
      </trkpt>
      <trkpt lat="41.390201" lon="-5.717657">
        <ele>773.846</ele>
        <time>2021-10-13T15:06:49Z</time>
      </trkpt>
      <trkpt lat="41.390457" lon="-5.717805">
        <ele>772.736</ele>
        <time>2021-10-13T15:06:50Z</time>
      </trkpt>
      <trkpt lat="41.390915" lon="-5.718132">
        <ele>769.629</ele>
        <time>2021-10-13T15:06:52Z</time>
      </trkpt>
      <trkpt lat="41.391142" lon="-5.718315">
        <ele>768.495</ele>
        <time>2021-10-13T15:06:53Z</time>
      </trkpt>
      <trkpt lat="41.391368" lon="-5.718488">
        <ele>767.474</ele>
        <time>2021-10-13T15:06:54Z</time>
      </trkpt>
      <trkpt lat="41.391837" lon="-5.718815">
        <ele>764.979</ele>
        <time>2021-10-13T15:06:56Z</time>
      </trkpt>
      <trkpt lat="41.392328" lon="-5.719020">
        <ele>762.938</ele>
        <time>2021-10-13T15:06:58Z</time>
      </trkpt>
      <trkpt lat="41.392847" lon="-5.719084">
        <ele>760.870</ele>
        <time>2021-10-13T15:07:00Z</time>
      </trkpt>
      <trkpt lat="41.393110" lon="-5.719082">
        <ele>760.317</ele>
        <time>2021-10-13T15:07:01Z</time>
      </trkpt>
      <trkpt lat="41.393377" lon="-5.719076">
        <ele>760.708</ele>
        <time>2021-10-13T15:07:02Z</time>
      </trkpt>
      <trkpt lat="41.393892" lon="-5.719033">
        <ele>758.931</ele>
        <time>2021-10-13T15:07:04Z</time>
      </trkpt>
      <trkpt lat="41.394158" lon="-5.719008">
        <ele>758.739</ele>
        <time>2021-10-13T15:07:05Z</time>
      </trkpt>
      <trkpt lat="41.394697" lon="-5.718960">
        <ele>757.696</ele>
        <time>2021-10-13T15:07:07Z</time>
      </trkpt>
      <trkpt lat="41.394984" lon="-5.718935">
        <ele>756.036</ele>
        <time>2021-10-13T15:07:08Z</time>
      </trkpt>
      <trkpt lat="41.395546" lon="-5.718888">
        <ele>756.779</ele>
        <time>2021-10-13T15:07:10Z</time>
      </trkpt>
      <trkpt lat="41.396131" lon="-5.718843">
        <ele>757.065</ele>
        <time>2021-10-13T15:07:12Z</time>
      </trkpt>
      <trkpt lat="41.396423" lon="-5.718819">
        <ele>757.644</ele>
        <time>2021-10-13T15:07:13Z</time>
      </trkpt>
      <trkpt lat="41.396710" lon="-5.718795">
        <ele>758.149</ele>
        <time>2021-10-13T15:07:14Z</time>
      </trkpt>
      <trkpt lat="41.397213" lon="-5.718754">
        <ele>758.577</ele>
        <time>2021-10-13T15:07:16Z</time>
      </trkpt>
      <trkpt lat="41.397673" lon="-5.718718">
        <ele>759.461</ele>
        <time>2021-10-13T15:07:18Z</time>
      </trkpt>
      <trkpt lat="41.397896" lon="-5.718701">
        <ele>760.827</ele>
        <time>2021-10-13T15:07:19Z</time>
      </trkpt>
      <trkpt lat="41.398124" lon="-5.718684">
        <ele>761.508</ele>
        <time>2021-10-13T15:07:20Z</time>
      </trkpt>
      <trkpt lat="41.398559" lon="-5.718653">
        <ele>760.195</ele>
        <time>2021-10-13T15:07:22Z</time>
      </trkpt>
      <trkpt lat="41.398775" lon="-5.718637">
        <ele>759.993</ele>
        <time>2021-10-13T15:07:23Z</time>
      </trkpt>
      <trkpt lat="41.399182" lon="-5.718609">
        <ele>758.580</ele>
        <time>2021-10-13T15:07:25Z</time>
      </trkpt>
      <trkpt lat="41.399380" lon="-5.718598">
        <ele>758.210</ele>
        <time>2021-10-13T15:07:26Z</time>
      </trkpt>
      <trkpt lat="41.399734" lon="-5.718579">
        <ele>757.883</ele>
        <time>2021-10-13T15:07:28Z</time>
      </trkpt>
      <trkpt lat="41.399897" lon="-5.718574">
        <ele>758.079</ele>
        <time>2021-10-13T15:07:29Z</time>
      </trkpt>
      <trkpt lat="41.400163" lon="-5.718593">
        <ele>758.228</ele>
        <time>2021-10-13T15:07:31Z</time>
      </trkpt>
      <trkpt lat="41.400277" lon="-5.718622">
        <ele>757.973</ele>
        <time>2021-10-13T15:07:32Z</time>
      </trkpt>
      <trkpt lat="41.400492" lon="-5.718675">
        <ele>756.794</ele>
        <time>2021-10-13T15:07:34Z</time>
      </trkpt>
      <trkpt lat="41.400591" lon="-5.718672">
        <ele>755.957</ele>
        <time>2021-10-13T15:07:35Z</time>
      </trkpt>
      <trkpt lat="41.400753" lon="-5.718570">
        <ele>754.522</ele>
        <time>2021-10-13T15:07:37Z</time>
      </trkpt>
      <trkpt lat="41.400809" lon="-5.718464">
        <ele>754.508</ele>
        <time>2021-10-13T15:07:38Z</time>
      </trkpt>
      <trkpt lat="41.400836" lon="-5.718182">
        <ele>753.277</ele>
        <time>2021-10-13T15:07:40Z</time>
      </trkpt>
      <trkpt lat="41.400806" lon="-5.717837">
        <ele>751.865</ele>
        <time>2021-10-13T15:07:42Z</time>
      </trkpt>
      <trkpt lat="41.400784" lon="-5.717664">
        <ele>751.372</ele>
        <time>2021-10-13T15:07:43Z</time>
      </trkpt>
      <trkpt lat="41.400755" lon="-5.717493">
        <ele>751.052</ele>
        <time>2021-10-13T15:07:44Z</time>
      </trkpt>
      <trkpt lat="41.400685" lon="-5.717214">
        <ele>751.045</ele>
        <time>2021-10-13T15:07:46Z</time>
      </trkpt>
      <trkpt lat="41.400661" lon="-5.717116">
        <ele>750.911</ele>
        <time>2021-10-13T15:07:47Z</time>
      </trkpt>
      <trkpt lat="41.400660" lon="-5.717038">
        <ele>750.270</ele>
        <time>2021-10-13T15:07:48Z</time>
      </trkpt>
      <trkpt lat="41.400725" lon="-5.716926">
        <ele>750.135</ele>
        <time>2021-10-13T15:07:50Z</time>
      </trkpt>
      <trkpt lat="41.400865" lon="-5.716935">
        <ele>750.099</ele>
        <time>2021-10-13T15:07:52Z</time>
      </trkpt>
      <trkpt lat="41.400969" lon="-5.716968">
        <ele>750.007</ele>
        <time>2021-10-13T15:07:53Z</time>
      </trkpt>
      <trkpt lat="41.401255" lon="-5.717047">
        <ele>750.927</ele>
        <time>2021-10-13T15:07:55Z</time>
      </trkpt>
      <trkpt lat="41.401438" lon="-5.717095">
        <ele>750.508</ele>
        <time>2021-10-13T15:07:56Z</time>
      </trkpt>
      <trkpt lat="41.401840" lon="-5.717200">
        <ele>750.187</ele>
        <time>2021-10-13T15:07:58Z</time>
      </trkpt>
      <trkpt lat="41.402060" lon="-5.717239">
        <ele>751.435</ele>
        <time>2021-10-13T15:07:59Z</time>
      </trkpt>
      <trkpt lat="41.402540" lon="-5.717252">
        <ele>751.542</ele>
        <time>2021-10-13T15:08:01Z</time>
      </trkpt>
      <trkpt lat="41.402791" lon="-5.717238">
        <ele>752.092</ele>
        <time>2021-10-13T15:08:02Z</time>
      </trkpt>
      <trkpt lat="41.403239" lon="-5.717213">
        <ele>754.345</ele>
        <time>2021-10-13T15:08:04Z</time>
      </trkpt>
      <trkpt lat="41.403459" lon="-5.717211">
        <ele>755.511</ele>
        <time>2021-10-13T15:08:05Z</time>
      </trkpt>
      <trkpt lat="41.403684" lon="-5.717216">
        <ele>757.450</ele>
        <time>2021-10-13T15:08:06Z</time>
      </trkpt>
      <trkpt lat="41.403914" lon="-5.717230">
        <ele>758.065</ele>
        <time>2021-10-13T15:08:07Z</time>
      </trkpt>
      <trkpt lat="41.404157" lon="-5.717246">
        <ele>757.711</ele>
        <time>2021-10-13T15:08:08Z</time>
      </trkpt>
      <trkpt lat="41.404639" lon="-5.717297">
        <ele>759.521</ele>
        <time>2021-10-13T15:08:10Z</time>
      </trkpt>
      <trkpt lat="41.404889" lon="-5.717334">
        <ele>759.103</ele>
        <time>2021-10-13T15:08:11Z</time>
      </trkpt>
      <trkpt lat="41.405138" lon="-5.717382">
        <ele>758.708</ele>
        <time>2021-10-13T15:08:12Z</time>
      </trkpt>
      <trkpt lat="41.405384" lon="-5.717441">
        <ele>758.839</ele>
        <time>2021-10-13T15:08:13Z</time>
      </trkpt>
      <trkpt lat="41.405630" lon="-5.717512">
        <ele>758.537</ele>
        <time>2021-10-13T15:08:14Z</time>
      </trkpt>
      <trkpt lat="41.406099" lon="-5.717658">
        <ele>758.294</ele>
        <time>2021-10-13T15:08:16Z</time>
      </trkpt>
      <trkpt lat="41.406338" lon="-5.717740">
        <ele>756.834</ele>
        <time>2021-10-13T15:08:17Z</time>
      </trkpt>
      <trkpt lat="41.406578" lon="-5.717827">
        <ele>756.147</ele>
        <time>2021-10-13T15:08:18Z</time>
      </trkpt>
      <trkpt lat="41.407058" lon="-5.718006">
        <ele>754.993</ele>
        <time>2021-10-13T15:08:20Z</time>
      </trkpt>
      <trkpt lat="41.407510" lon="-5.718172">
        <ele>754.892</ele>
        <time>2021-10-13T15:08:22Z</time>
      </trkpt>
      <trkpt lat="41.407732" lon="-5.718249">
        <ele>754.437</ele>
        <time>2021-10-13T15:08:23Z</time>
      </trkpt>
      <trkpt lat="41.408159" lon="-5.718395">
        <ele>755.488</ele>
        <time>2021-10-13T15:08:25Z</time>
      </trkpt>
      <trkpt lat="41.408373" lon="-5.718469">
        <ele>755.824</ele>
        <time>2021-10-13T15:08:26Z</time>
      </trkpt>
      <trkpt lat="41.408587" lon="-5.718543">
        <ele>755.926</ele>
        <time>2021-10-13T15:08:27Z</time>
      </trkpt>
      <trkpt lat="41.408805" lon="-5.718618">
        <ele>755.408</ele>
        <time>2021-10-13T15:08:28Z</time>
      </trkpt>
      <trkpt lat="41.409227" lon="-5.718765">
        <ele>754.766</ele>
        <time>2021-10-13T15:08:30Z</time>
      </trkpt>
      <trkpt lat="41.409647" lon="-5.718912">
        <ele>754.294</ele>
        <time>2021-10-13T15:08:32Z</time>
      </trkpt>
      <trkpt lat="41.410060" lon="-5.719057">
        <ele>752.221</ele>
        <time>2021-10-13T15:08:34Z</time>
      </trkpt>
      <trkpt lat="41.410278" lon="-5.719133">
        <ele>751.061</ele>
        <time>2021-10-13T15:08:35Z</time>
      </trkpt>
      <trkpt lat="41.410496" lon="-5.719209">
        <ele>749.934</ele>
        <time>2021-10-13T15:08:36Z</time>
      </trkpt>
      <trkpt lat="41.410929" lon="-5.719357">
        <ele>748.240</ele>
        <time>2021-10-13T15:08:38Z</time>
      </trkpt>
      <trkpt lat="41.411336" lon="-5.719498">
        <ele>747.319</ele>
        <time>2021-10-13T15:08:40Z</time>
      </trkpt>
      <trkpt lat="41.411542" lon="-5.719569">
        <ele>746.844</ele>
        <time>2021-10-13T15:08:41Z</time>
      </trkpt>
      <trkpt lat="41.411747" lon="-5.719644">
        <ele>746.821</ele>
        <time>2021-10-13T15:08:42Z</time>
      </trkpt>
      <trkpt lat="41.412158" lon="-5.719792">
        <ele>746.841</ele>
        <time>2021-10-13T15:08:44Z</time>
      </trkpt>
      <trkpt lat="41.412563" lon="-5.719939">
        <ele>746.305</ele>
        <time>2021-10-13T15:08:46Z</time>
      </trkpt>
      <trkpt lat="41.412776" lon="-5.720011">
        <ele>746.408</ele>
        <time>2021-10-13T15:08:47Z</time>
      </trkpt>
      <trkpt lat="41.413202" lon="-5.720162">
        <ele>746.470</ele>
        <time>2021-10-13T15:08:49Z</time>
      </trkpt>
      <trkpt lat="41.413421" lon="-5.720237">
        <ele>745.348</ele>
        <time>2021-10-13T15:08:50Z</time>
      </trkpt>
      <trkpt lat="41.413840" lon="-5.720379">
        <ele>746.775</ele>
        <time>2021-10-13T15:08:52Z</time>
      </trkpt>
      <trkpt lat="41.414224" lon="-5.720512">
        <ele>745.455</ele>
        <time>2021-10-13T15:08:54Z</time>
      </trkpt>
      <trkpt lat="41.414562" lon="-5.720635">
        <ele>743.998</ele>
        <time>2021-10-13T15:08:56Z</time>
      </trkpt>
      <trkpt lat="41.414852" lon="-5.720725">
        <ele>743.474</ele>
        <time>2021-10-13T15:08:58Z</time>
      </trkpt>
      <trkpt lat="41.414995" lon="-5.720748">
        <ele>742.623</ele>
        <time>2021-10-13T15:08:59Z</time>
      </trkpt>
      <trkpt lat="41.415137" lon="-5.720748">
        <ele>741.428</ele>
        <time>2021-10-13T15:09:00Z</time>
      </trkpt>
      <trkpt lat="41.415425" lon="-5.720694">
        <ele>740.296</ele>
        <time>2021-10-13T15:09:02Z</time>
      </trkpt>
      <trkpt lat="41.415681" lon="-5.720547">
        <ele>738.831</ele>
        <time>2021-10-13T15:09:04Z</time>
      </trkpt>
      <trkpt lat="41.415811" lon="-5.720451">
        <ele>738.424</ele>
        <time>2021-10-13T15:09:05Z</time>
      </trkpt>
      <trkpt lat="41.416049" lon="-5.720275">
        <ele>737.208</ele>
        <time>2021-10-13T15:09:07Z</time>
      </trkpt>
      <trkpt lat="41.416160" lon="-5.720195">
        <ele>737.287</ele>
        <time>2021-10-13T15:09:08Z</time>
      </trkpt>
      <trkpt lat="41.416329" lon="-5.720019">
        <ele>736.115</ele>
        <time>2021-10-13T15:09:10Z</time>
      </trkpt>
      <trkpt lat="41.416401" lon="-5.719930">
        <ele>736.142</ele>
        <time>2021-10-13T15:09:11Z</time>
      </trkpt>
      <trkpt lat="41.416556" lon="-5.719842">
        <ele>735.072</ele>
        <time>2021-10-13T15:09:13Z</time>
      </trkpt>
      <trkpt lat="41.416638" lon="-5.719852">
        <ele>735.155</ele>
        <time>2021-10-13T15:09:14Z</time>
      </trkpt>
      <trkpt lat="41.416764" lon="-5.720000">
        <ele>734.291</ele>
        <time>2021-10-13T15:09:16Z</time>
      </trkpt>
      <trkpt lat="41.416786" lon="-5.720283">
        <ele>734.730</ele>
        <time>2021-10-13T15:09:18Z</time>
      </trkpt>
      <trkpt lat="41.416690" lon="-5.720633">
        <ele>735.925</ele>
        <time>2021-10-13T15:09:20Z</time>
      </trkpt>
      <trkpt lat="41.416651" lon="-5.721051">
        <ele>737.371</ele>
        <time>2021-10-13T15:09:22Z</time>
      </trkpt>
      <trkpt lat="41.416664" lon="-5.721292">
        <ele>737.641</ele>
        <time>2021-10-13T15:09:23Z</time>
      </trkpt>
      <trkpt lat="41.416684" lon="-5.721545">
        <ele>737.515</ele>
        <time>2021-10-13T15:09:24Z</time>
      </trkpt>
      <trkpt lat="41.416706" lon="-5.721803">
        <ele>737.408</ele>
        <time>2021-10-13T15:09:25Z</time>
      </trkpt>
      <trkpt lat="41.416725" lon="-5.722063">
        <ele>738.195</ele>
        <time>2021-10-13T15:09:26Z</time>
      </trkpt>
      <trkpt lat="41.416759" lon="-5.722536">
        <ele>737.623</ele>
        <time>2021-10-13T15:09:28Z</time>
      </trkpt>
      <trkpt lat="41.416774" lon="-5.722759">
        <ele>738.190</ele>
        <time>2021-10-13T15:09:29Z</time>
      </trkpt>
      <trkpt lat="41.416820" lon="-5.723146">
        <ele>739.410</ele>
        <time>2021-10-13T15:09:31Z</time>
      </trkpt>
      <trkpt lat="41.416865" lon="-5.723296">
        <ele>739.123</ele>
        <time>2021-10-13T15:09:32Z</time>
      </trkpt>
      <trkpt lat="41.417021" lon="-5.723494">
        <ele>738.759</ele>
        <time>2021-10-13T15:09:34Z</time>
      </trkpt>
      <trkpt lat="41.417132" lon="-5.723556">
        <ele>738.718</ele>
        <time>2021-10-13T15:09:35Z</time>
      </trkpt>
      <trkpt lat="41.417257" lon="-5.723576">
        <ele>738.573</ele>
        <time>2021-10-13T15:09:36Z</time>
      </trkpt>
      <trkpt lat="41.417543" lon="-5.723485">
        <ele>737.217</ele>
        <time>2021-10-13T15:09:38Z</time>
      </trkpt>
      <trkpt lat="41.417866" lon="-5.723302">
        <ele>735.787</ele>
        <time>2021-10-13T15:09:40Z</time>
      </trkpt>
      <trkpt lat="41.418046" lon="-5.723212">
        <ele>736.215</ele>
        <time>2021-10-13T15:09:41Z</time>
      </trkpt>
      <trkpt lat="41.418446" lon="-5.723036">
        <ele>736.108</ele>
        <time>2021-10-13T15:09:43Z</time>
      </trkpt>
      <trkpt lat="41.418658" lon="-5.722961">
        <ele>736.089</ele>
        <time>2021-10-13T15:09:44Z</time>
      </trkpt>
      <trkpt lat="41.419094" lon="-5.722873">
        <ele>735.687</ele>
        <time>2021-10-13T15:09:46Z</time>
      </trkpt>
      <trkpt lat="41.419323" lon="-5.722868">
        <ele>736.114</ele>
        <time>2021-10-13T15:09:47Z</time>
      </trkpt>
      <trkpt lat="41.419796" lon="-5.722956">
        <ele>735.194</ele>
        <time>2021-10-13T15:09:49Z</time>
      </trkpt>
      <trkpt lat="41.420048" lon="-5.723048">
        <ele>734.127</ele>
        <time>2021-10-13T15:09:50Z</time>
      </trkpt>
      <trkpt lat="41.420550" lon="-5.723254">
        <ele>732.063</ele>
        <time>2021-10-13T15:09:52Z</time>
      </trkpt>
      <trkpt lat="41.420818" lon="-5.723353">
        <ele>730.752</ele>
        <time>2021-10-13T15:09:53Z</time>
      </trkpt>
      <trkpt lat="41.421363" lon="-5.723550">
        <ele>729.027</ele>
        <time>2021-10-13T15:09:55Z</time>
      </trkpt>
      <trkpt lat="41.421647" lon="-5.723652">
        <ele>728.176</ele>
        <time>2021-10-13T15:09:56Z</time>
      </trkpt>
      <trkpt lat="41.422156" lon="-5.723834">
        <ele>727.190</ele>
        <time>2021-10-13T15:09:58Z</time>
      </trkpt>
      <trkpt lat="41.422399" lon="-5.723921">
        <ele>726.319</ele>
        <time>2021-10-13T15:09:59Z</time>
      </trkpt>
      <trkpt lat="41.422844" lon="-5.724079">
        <ele>724.108</ele>
        <time>2021-10-13T15:10:01Z</time>
      </trkpt>
      <trkpt lat="41.423055" lon="-5.724157">
        <ele>725.235</ele>
        <time>2021-10-13T15:10:02Z</time>
      </trkpt>
      <trkpt lat="41.423456" lon="-5.724296">
        <ele>724.743</ele>
        <time>2021-10-13T15:10:04Z</time>
      </trkpt>
      <trkpt lat="41.423880" lon="-5.724445">
        <ele>724.640</ele>
        <time>2021-10-13T15:10:06Z</time>
      </trkpt>
      <trkpt lat="41.424322" lon="-5.724602">
        <ele>724.980</ele>
        <time>2021-10-13T15:10:08Z</time>
      </trkpt>
      <trkpt lat="41.424741" lon="-5.724753">
        <ele>723.473</ele>
        <time>2021-10-13T15:10:10Z</time>
      </trkpt>
      <trkpt lat="41.424944" lon="-5.724823">
        <ele>722.779</ele>
        <time>2021-10-13T15:10:11Z</time>
      </trkpt>
      <trkpt lat="41.425335" lon="-5.724957">
        <ele>723.618</ele>
        <time>2021-10-13T15:10:13Z</time>
      </trkpt>
      <trkpt lat="41.425542" lon="-5.725029">
        <ele>723.273</ele>
        <time>2021-10-13T15:10:14Z</time>
      </trkpt>
      <trkpt lat="41.425945" lon="-5.725173">
        <ele>723.014</ele>
        <time>2021-10-13T15:10:16Z</time>
      </trkpt>
      <trkpt lat="41.426393" lon="-5.725330">
        <ele>722.654</ele>
        <time>2021-10-13T15:10:18Z</time>
      </trkpt>
      <trkpt lat="41.426639" lon="-5.725416">
        <ele>721.909</ele>
        <time>2021-10-13T15:10:19Z</time>
      </trkpt>
      <trkpt lat="41.426903" lon="-5.725513">
        <ele>722.408</ele>
        <time>2021-10-13T15:10:20Z</time>
      </trkpt>
      <trkpt lat="41.427442" lon="-5.725713">
        <ele>722.579</ele>
        <time>2021-10-13T15:10:22Z</time>
      </trkpt>
      <trkpt lat="41.427739" lon="-5.725825">
        <ele>722.257</ele>
        <time>2021-10-13T15:10:23Z</time>
      </trkpt>
      <trkpt lat="41.428039" lon="-5.725943">
        <ele>721.944</ele>
        <time>2021-10-13T15:10:24Z</time>
      </trkpt>
      <trkpt lat="41.428637" lon="-5.726152">
        <ele>721.414</ele>
        <time>2021-10-13T15:10:26Z</time>
      </trkpt>
      <trkpt lat="41.429167" lon="-5.726308">
        <ele>720.687</ele>
        <time>2021-10-13T15:10:28Z</time>
      </trkpt>
      <trkpt lat="41.429417" lon="-5.726390">
        <ele>721.213</ele>
        <time>2021-10-13T15:10:29Z</time>
      </trkpt>
      <trkpt lat="41.429884" lon="-5.726560">
        <ele>721.662</ele>
        <time>2021-10-13T15:10:31Z</time>
      </trkpt>
      <trkpt lat="41.430117" lon="-5.726646">
        <ele>721.537</ele>
        <time>2021-10-13T15:10:32Z</time>
      </trkpt>
      <trkpt lat="41.430570" lon="-5.726800">
        <ele>722.522</ele>
        <time>2021-10-13T15:10:34Z</time>
      </trkpt>
      <trkpt lat="41.431028" lon="-5.726964">
        <ele>721.862</ele>
        <time>2021-10-13T15:10:36Z</time>
      </trkpt>
      <trkpt lat="41.431255" lon="-5.727043">
        <ele>721.908</ele>
        <time>2021-10-13T15:10:37Z</time>
      </trkpt>
      <trkpt lat="41.431483" lon="-5.727123">
        <ele>722.608</ele>
        <time>2021-10-13T15:10:38Z</time>
      </trkpt>
      <trkpt lat="41.431912" lon="-5.727273">
        <ele>721.750</ele>
        <time>2021-10-13T15:10:40Z</time>
      </trkpt>
      <trkpt lat="41.432132" lon="-5.727350">
        <ele>721.388</ele>
        <time>2021-10-13T15:10:41Z</time>
      </trkpt>
      <trkpt lat="41.432356" lon="-5.727428">
        <ele>720.495</ele>
        <time>2021-10-13T15:10:42Z</time>
      </trkpt>
      <trkpt lat="41.432814" lon="-5.727590">
        <ele>720.065</ele>
        <time>2021-10-13T15:10:44Z</time>
      </trkpt>
      <trkpt lat="41.433268" lon="-5.727757">
        <ele>719.678</ele>
        <time>2021-10-13T15:10:46Z</time>
      </trkpt>
      <trkpt lat="41.433510" lon="-5.727845">
        <ele>719.214</ele>
        <time>2021-10-13T15:10:47Z</time>
      </trkpt>
      <trkpt lat="41.433996" lon="-5.728014">
        <ele>717.643</ele>
        <time>2021-10-13T15:10:49Z</time>
      </trkpt>
      <trkpt lat="41.434251" lon="-5.728101">
        <ele>716.828</ele>
        <time>2021-10-13T15:10:50Z</time>
      </trkpt>
      <trkpt lat="41.434747" lon="-5.728270">
        <ele>716.415</ele>
        <time>2021-10-13T15:10:52Z</time>
      </trkpt>
      <trkpt lat="41.435001" lon="-5.728357">
        <ele>716.565</ele>
        <time>2021-10-13T15:10:53Z</time>
      </trkpt>
      <trkpt lat="41.435251" lon="-5.728443">
        <ele>716.411</ele>
        <time>2021-10-13T15:10:54Z</time>
      </trkpt>
      <trkpt lat="41.435487" lon="-5.728524">
        <ele>716.408</ele>
        <time>2021-10-13T15:10:55Z</time>
      </trkpt>
      <trkpt lat="41.435720" lon="-5.728604">
        <ele>715.929</ele>
        <time>2021-10-13T15:10:56Z</time>
      </trkpt>
      <trkpt lat="41.436147" lon="-5.728751">
        <ele>715.387</ele>
        <time>2021-10-13T15:10:58Z</time>
      </trkpt>
      <trkpt lat="41.436367" lon="-5.728827">
        <ele>715.274</ele>
        <time>2021-10-13T15:10:59Z</time>
      </trkpt>
      <trkpt lat="41.436816" lon="-5.728984">
        <ele>714.854</ele>
        <time>2021-10-13T15:11:01Z</time>
      </trkpt>
      <trkpt lat="41.437051" lon="-5.729066">
        <ele>714.797</ele>
        <time>2021-10-13T15:11:02Z</time>
      </trkpt>
      <trkpt lat="41.437508" lon="-5.729225">
        <ele>715.343</ele>
        <time>2021-10-13T15:11:04Z</time>
      </trkpt>
      <trkpt lat="41.437747" lon="-5.729307">
        <ele>715.482</ele>
        <time>2021-10-13T15:11:05Z</time>
      </trkpt>
      <trkpt lat="41.437988" lon="-5.729390">
        <ele>715.737</ele>
        <time>2021-10-13T15:11:06Z</time>
      </trkpt>
      <trkpt lat="41.438480" lon="-5.729562">
        <ele>715.123</ele>
        <time>2021-10-13T15:11:08Z</time>
      </trkpt>
      <trkpt lat="41.438927" lon="-5.729717">
        <ele>714.883</ele>
        <time>2021-10-13T15:11:10Z</time>
      </trkpt>
      <trkpt lat="41.439337" lon="-5.729857">
        <ele>714.611</ele>
        <time>2021-10-13T15:11:12Z</time>
      </trkpt>
      <trkpt lat="41.439721" lon="-5.729988">
        <ele>714.008</ele>
        <time>2021-10-13T15:11:14Z</time>
      </trkpt>
      <trkpt lat="41.440082" lon="-5.730114">
        <ele>712.910</ele>
        <time>2021-10-13T15:11:16Z</time>
      </trkpt>
      <trkpt lat="41.440264" lon="-5.730176">
        <ele>711.928</ele>
        <time>2021-10-13T15:11:17Z</time>
      </trkpt>
      <trkpt lat="41.440605" lon="-5.730291">
        <ele>710.525</ele>
        <time>2021-10-13T15:11:19Z</time>
      </trkpt>
      <trkpt lat="41.440773" lon="-5.730350">
        <ele>710.325</ele>
        <time>2021-10-13T15:11:20Z</time>
      </trkpt>
      <trkpt lat="41.441077" lon="-5.730456">
        <ele>708.668</ele>
        <time>2021-10-13T15:11:22Z</time>
      </trkpt>
      <trkpt lat="41.441373" lon="-5.730557">
        <ele>707.644</ele>
        <time>2021-10-13T15:11:24Z</time>
      </trkpt>
      <trkpt lat="41.441521" lon="-5.730608">
        <ele>706.433</ele>
        <time>2021-10-13T15:11:25Z</time>
      </trkpt>
      <trkpt lat="41.441674" lon="-5.730666">
        <ele>705.818</ele>
        <time>2021-10-13T15:11:26Z</time>
      </trkpt>
      <trkpt lat="41.441954" lon="-5.730796">
        <ele>705.775</ele>
        <time>2021-10-13T15:11:28Z</time>
      </trkpt>
      <trkpt lat="41.442090" lon="-5.730874">
        <ele>704.928</ele>
        <time>2021-10-13T15:11:29Z</time>
      </trkpt>
      <trkpt lat="41.442350" lon="-5.731049">
        <ele>704.220</ele>
        <time>2021-10-13T15:11:31Z</time>
      </trkpt>
      <trkpt lat="41.442480" lon="-5.731143">
        <ele>703.408</ele>
        <time>2021-10-13T15:11:32Z</time>
      </trkpt>
      <trkpt lat="41.442722" lon="-5.731339">
        <ele>702.015</ele>
        <time>2021-10-13T15:11:34Z</time>
      </trkpt>
      <trkpt lat="41.442842" lon="-5.731446">
        <ele>701.773</ele>
        <time>2021-10-13T15:11:35Z</time>
      </trkpt>
      <trkpt lat="41.442958" lon="-5.731557">
        <ele>702.130</ele>
        <time>2021-10-13T15:11:36Z</time>
      </trkpt>
      <trkpt lat="41.443194" lon="-5.731792">
        <ele>701.610</ele>
        <time>2021-10-13T15:11:38Z</time>
      </trkpt>
      <trkpt lat="41.443405" lon="-5.732044">
        <ele>702.243</ele>
        <time>2021-10-13T15:11:40Z</time>
      </trkpt>
      <trkpt lat="41.443509" lon="-5.732183">
        <ele>701.919</ele>
        <time>2021-10-13T15:11:41Z</time>
      </trkpt>
      <trkpt lat="41.443610" lon="-5.732321">
        <ele>702.498</ele>
        <time>2021-10-13T15:11:42Z</time>
      </trkpt>
      <trkpt lat="41.443813" lon="-5.732608">
        <ele>703.873</ele>
        <time>2021-10-13T15:11:44Z</time>
      </trkpt>
      <trkpt lat="41.444023" lon="-5.732885">
        <ele>705.774</ele>
        <time>2021-10-13T15:11:46Z</time>
      </trkpt>
      <trkpt lat="41.444238" lon="-5.733168">
        <ele>705.856</ele>
        <time>2021-10-13T15:11:48Z</time>
      </trkpt>
      <trkpt lat="41.444345" lon="-5.733313">
        <ele>706.021</ele>
        <time>2021-10-13T15:11:49Z</time>
      </trkpt>
      <trkpt lat="41.444455" lon="-5.733463">
        <ele>706.308</ele>
        <time>2021-10-13T15:11:50Z</time>
      </trkpt>
      <trkpt lat="41.444679" lon="-5.733765">
        <ele>707.215</ele>
        <time>2021-10-13T15:11:52Z</time>
      </trkpt>
      <trkpt lat="41.444807" lon="-5.733938">
        <ele>707.253</ele>
        <time>2021-10-13T15:11:53Z</time>
      </trkpt>
      <trkpt lat="41.445029" lon="-5.734245">
        <ele>708.050</ele>
        <time>2021-10-13T15:11:55Z</time>
      </trkpt>
      <trkpt lat="41.445140" lon="-5.734394">
        <ele>707.750</ele>
        <time>2021-10-13T15:11:56Z</time>
      </trkpt>
      <trkpt lat="41.445366" lon="-5.734689">
        <ele>708.053</ele>
        <time>2021-10-13T15:11:58Z</time>
      </trkpt>
      <trkpt lat="41.445491" lon="-5.734842">
        <ele>708.379</ele>
        <time>2021-10-13T15:11:59Z</time>
      </trkpt>
      <trkpt lat="41.445765" lon="-5.735084">
        <ele>708.048</ele>
        <time>2021-10-13T15:12:01Z</time>
      </trkpt>
      <trkpt lat="41.445926" lon="-5.735170">
        <ele>707.723</ele>
        <time>2021-10-13T15:12:02Z</time>
      </trkpt>
      <trkpt lat="41.446272" lon="-5.735255">
        <ele>708.075</ele>
        <time>2021-10-13T15:12:04Z</time>
      </trkpt>
      <trkpt lat="41.446675" lon="-5.735175">
        <ele>706.428</ele>
        <time>2021-10-13T15:12:06Z</time>
      </trkpt>
      <trkpt lat="41.446885" lon="-5.735073">
        <ele>705.620</ele>
        <time>2021-10-13T15:12:07Z</time>
      </trkpt>
      <trkpt lat="41.447092" lon="-5.734952">
        <ele>705.708</ele>
        <time>2021-10-13T15:12:08Z</time>
      </trkpt>
      <trkpt lat="41.447470" lon="-5.734727">
        <ele>705.475</ele>
        <time>2021-10-13T15:12:10Z</time>
      </trkpt>
      <trkpt lat="41.447645" lon="-5.734622">
        <ele>704.913</ele>
        <time>2021-10-13T15:12:11Z</time>
      </trkpt>
      <trkpt lat="41.447965" lon="-5.734440">
        <ele>705.090</ele>
        <time>2021-10-13T15:12:13Z</time>
      </trkpt>
      <trkpt lat="41.448115" lon="-5.734356">
        <ele>705.070</ele>
        <time>2021-10-13T15:12:14Z</time>
      </trkpt>
      <trkpt lat="41.448394" lon="-5.734174">
        <ele>704.343</ele>
        <time>2021-10-13T15:12:16Z</time>
      </trkpt>
      <trkpt lat="41.448683" lon="-5.733946">
        <ele>704.439</ele>
        <time>2021-10-13T15:12:18Z</time>
      </trkpt>
      <trkpt lat="41.448966" lon="-5.733681">
        <ele>702.958</ele>
        <time>2021-10-13T15:12:20Z</time>
      </trkpt>
      <trkpt lat="41.449232" lon="-5.733391">
        <ele>702.273</ele>
        <time>2021-10-13T15:12:22Z</time>
      </trkpt>
      <trkpt lat="41.449364" lon="-5.733225">
        <ele>701.399</ele>
        <time>2021-10-13T15:12:23Z</time>
      </trkpt>
      <trkpt lat="41.449491" lon="-5.733051">
        <ele>700.707</ele>
        <time>2021-10-13T15:12:24Z</time>
      </trkpt>
      <trkpt lat="41.449748" lon="-5.732689">
        <ele>700.427</ele>
        <time>2021-10-13T15:12:26Z</time>
      </trkpt>
      <trkpt lat="41.449993" lon="-5.732345">
        <ele>697.908</ele>
        <time>2021-10-13T15:12:28Z</time>
      </trkpt>
      <trkpt lat="41.450114" lon="-5.732176">
        <ele>696.737</ele>
        <time>2021-10-13T15:12:29Z</time>
      </trkpt>
      <trkpt lat="41.450233" lon="-5.732013">
        <ele>696.545</ele>
        <time>2021-10-13T15:12:30Z</time>
      </trkpt>
      <trkpt lat="41.450478" lon="-5.731705">
        <ele>694.092</ele>
        <time>2021-10-13T15:12:32Z</time>
      </trkpt>
      <trkpt lat="41.450727" lon="-5.731427">
        <ele>692.182</ele>
        <time>2021-10-13T15:12:34Z</time>
      </trkpt>
      <trkpt lat="41.450865" lon="-5.731301">
        <ele>691.545</ele>
        <time>2021-10-13T15:12:35Z</time>
      </trkpt>
      <trkpt lat="41.451166" lon="-5.731086">
        <ele>690.061</ele>
        <time>2021-10-13T15:12:37Z</time>
      </trkpt>
      <trkpt lat="41.451327" lon="-5.730986">
        <ele>689.420</ele>
        <time>2021-10-13T15:12:38Z</time>
      </trkpt>
      <trkpt lat="41.451652" lon="-5.730826">
        <ele>688.015</ele>
        <time>2021-10-13T15:12:40Z</time>
      </trkpt>
      <trkpt lat="41.451829" lon="-5.730762">
        <ele>687.476</ele>
        <time>2021-10-13T15:12:41Z</time>
      </trkpt>
      <trkpt lat="41.452006" lon="-5.730707">
        <ele>687.690</ele>
        <time>2021-10-13T15:12:42Z</time>
      </trkpt>
      <trkpt lat="41.452388" lon="-5.730629">
        <ele>686.219</ele>
        <time>2021-10-13T15:12:44Z</time>
      </trkpt>
      <trkpt lat="41.452772" lon="-5.730601">
        <ele>686.208</ele>
        <time>2021-10-13T15:12:46Z</time>
      </trkpt>
      <trkpt lat="41.453154" lon="-5.730619">
        <ele>685.625</ele>
        <time>2021-10-13T15:12:48Z</time>
      </trkpt>
      <trkpt lat="41.453537" lon="-5.730698">
        <ele>684.013</ele>
        <time>2021-10-13T15:12:50Z</time>
      </trkpt>
      <trkpt lat="41.453907" lon="-5.730798">
        <ele>683.030</ele>
        <time>2021-10-13T15:12:52Z</time>
      </trkpt>
      <trkpt lat="41.454097" lon="-5.730851">
        <ele>682.340</ele>
        <time>2021-10-13T15:12:53Z</time>
      </trkpt>
      <trkpt lat="41.454487" lon="-5.730951">
        <ele>681.393</ele>
        <time>2021-10-13T15:12:55Z</time>
      </trkpt>
      <trkpt lat="41.454707" lon="-5.731002">
        <ele>680.749</ele>
        <time>2021-10-13T15:12:56Z</time>
      </trkpt>
      <trkpt lat="41.455124" lon="-5.731096">
        <ele>680.468</ele>
        <time>2021-10-13T15:12:58Z</time>
      </trkpt>
      <trkpt lat="41.455516" lon="-5.731182">
        <ele>679.163</ele>
        <time>2021-10-13T15:13:00Z</time>
      </trkpt>
      <trkpt lat="41.455915" lon="-5.731266">
        <ele>678.088</ele>
        <time>2021-10-13T15:13:02Z</time>
      </trkpt>
      <trkpt lat="41.456294" lon="-5.731351">
        <ele>677.624</ele>
        <time>2021-10-13T15:13:04Z</time>
      </trkpt>
      <trkpt lat="41.456487" lon="-5.731394">
        <ele>677.026</ele>
        <time>2021-10-13T15:13:05Z</time>
      </trkpt>
      <trkpt lat="41.456675" lon="-5.731437">
        <ele>677.008</ele>
        <time>2021-10-13T15:13:06Z</time>
      </trkpt>
      <trkpt lat="41.456860" lon="-5.731479">
        <ele>676.236</ele>
        <time>2021-10-13T15:13:07Z</time>
      </trkpt>
      <trkpt lat="41.457038" lon="-5.731519">
        <ele>675.134</ele>
        <time>2021-10-13T15:13:08Z</time>
      </trkpt>
      <trkpt lat="41.457344" lon="-5.731589">
        <ele>675.911</ele>
        <time>2021-10-13T15:13:10Z</time>
      </trkpt>
      <trkpt lat="41.457595" lon="-5.731648">
        <ele>675.651</ele>
        <time>2021-10-13T15:13:12Z</time>
      </trkpt>
      <trkpt lat="41.457709" lon="-5.731673">
        <ele>675.894</ele>
        <time>2021-10-13T15:13:13Z</time>
      </trkpt>
      <trkpt lat="41.457819" lon="-5.731695">
        <ele>675.450</ele>
        <time>2021-10-13T15:13:14Z</time>
      </trkpt>
      <trkpt lat="41.458017" lon="-5.731689">
        <ele>675.469</ele>
        <time>2021-10-13T15:13:16Z</time>
      </trkpt>
      <trkpt lat="41.458099" lon="-5.731650">
        <ele>675.724</ele>
        <time>2021-10-13T15:13:17Z</time>
      </trkpt>
      <trkpt lat="41.458185" lon="-5.731487">
        <ele>675.755</ele>
        <time>2021-10-13T15:13:19Z</time>
      </trkpt>
      <trkpt lat="41.458198" lon="-5.731368">
        <ele>675.607</ele>
        <time>2021-10-13T15:13:20Z</time>
      </trkpt>
      <trkpt lat="41.458259" lon="-5.731112">
        <ele>675.417</ele>
        <time>2021-10-13T15:13:22Z</time>
      </trkpt>
      <trkpt lat="41.458414" lon="-5.730920">
        <ele>676.208</ele>
        <time>2021-10-13T15:13:24Z</time>
      </trkpt>
      <trkpt lat="41.458622" lon="-5.730871">
        <ele>675.393</ele>
        <time>2021-10-13T15:13:26Z</time>
      </trkpt>
      <trkpt lat="41.458820" lon="-5.731029">
        <ele>673.381</ele>
        <time>2021-10-13T15:13:28Z</time>
      </trkpt>
      <trkpt lat="41.458886" lon="-5.731180">
        <ele>672.998</ele>
        <time>2021-10-13T15:13:29Z</time>
      </trkpt>
      <trkpt lat="41.458962" lon="-5.731540">
        <ele>673.848</ele>
        <time>2021-10-13T15:13:31Z</time>
      </trkpt>
      <trkpt lat="41.459025" lon="-5.731712">
        <ele>673.731</ele>
        <time>2021-10-13T15:13:32Z</time>
      </trkpt>
      <trkpt lat="41.459252" lon="-5.731988">
        <ele>672.347</ele>
        <time>2021-10-13T15:13:34Z</time>
      </trkpt>
      <trkpt lat="41.459410" lon="-5.732108">
        <ele>671.946</ele>
        <time>2021-10-13T15:13:35Z</time>
      </trkpt>
      <trkpt lat="41.459584" lon="-5.732226">
        <ele>672.221</ele>
        <time>2021-10-13T15:13:36Z</time>
      </trkpt>
      <trkpt lat="41.459990" lon="-5.732458">
        <ele>671.864</ele>
        <time>2021-10-13T15:13:38Z</time>
      </trkpt>
      <trkpt lat="41.460424" lon="-5.732648">
        <ele>671.506</ele>
        <time>2021-10-13T15:13:40Z</time>
      </trkpt>
      <trkpt lat="41.460634" lon="-5.732727">
        <ele>671.516</ele>
        <time>2021-10-13T15:13:41Z</time>
      </trkpt>
      <trkpt lat="41.460838" lon="-5.732804">
        <ele>671.108</ele>
        <time>2021-10-13T15:13:42Z</time>
      </trkpt>
      <trkpt lat="41.461257" lon="-5.732956">
        <ele>670.674</ele>
        <time>2021-10-13T15:13:44Z</time>
      </trkpt>
      <trkpt lat="41.461661" lon="-5.733102">
        <ele>670.682</ele>
        <time>2021-10-13T15:13:46Z</time>
      </trkpt>
      <trkpt lat="41.462070" lon="-5.733253">
        <ele>669.969</ele>
        <time>2021-10-13T15:13:48Z</time>
      </trkpt>
      <trkpt lat="41.462279" lon="-5.733329">
        <ele>669.449</ele>
        <time>2021-10-13T15:13:49Z</time>
      </trkpt>
      <trkpt lat="41.462494" lon="-5.733403">
        <ele>669.382</ele>
        <time>2021-10-13T15:13:50Z</time>
      </trkpt>
      <trkpt lat="41.462906" lon="-5.733549">
        <ele>669.618</ele>
        <time>2021-10-13T15:13:52Z</time>
      </trkpt>
      <trkpt lat="41.463331" lon="-5.733704">
        <ele>669.027</ele>
        <time>2021-10-13T15:13:54Z</time>
      </trkpt>
      <trkpt lat="41.463775" lon="-5.733878">
        <ele>667.132</ele>
        <time>2021-10-13T15:13:56Z</time>
      </trkpt>
      <trkpt lat="41.464218" lon="-5.734044">
        <ele>666.533</ele>
        <time>2021-10-13T15:13:58Z</time>
      </trkpt>
      <trkpt lat="41.464448" lon="-5.734123">
        <ele>666.623</ele>
        <time>2021-10-13T15:13:59Z</time>
      </trkpt>
      <trkpt lat="41.464677" lon="-5.734206">
        <ele>666.915</ele>
        <time>2021-10-13T15:14:00Z</time>
      </trkpt>
      <trkpt lat="41.465140" lon="-5.734402">
        <ele>665.308</ele>
        <time>2021-10-13T15:14:02Z</time>
      </trkpt>
      <trkpt lat="41.465563" lon="-5.734658">
        <ele>665.621</ele>
        <time>2021-10-13T15:14:04Z</time>
      </trkpt>
      <trkpt lat="41.465768" lon="-5.734803">
        <ele>664.749</ele>
        <time>2021-10-13T15:14:05Z</time>
      </trkpt>
      <trkpt lat="41.466165" lon="-5.735109">
        <ele>662.856</ele>
        <time>2021-10-13T15:14:07Z</time>
      </trkpt>
      <trkpt lat="41.466368" lon="-5.735273">
        <ele>662.896</ele>
        <time>2021-10-13T15:14:08Z</time>
      </trkpt>
      <trkpt lat="41.466756" lon="-5.735593">
        <ele>662.729</ele>
        <time>2021-10-13T15:14:10Z</time>
      </trkpt>
      <trkpt lat="41.466961" lon="-5.735755">
        <ele>662.715</ele>
        <time>2021-10-13T15:14:11Z</time>
      </trkpt>
      <trkpt lat="41.467168" lon="-5.735917">
        <ele>662.344</ele>
        <time>2021-10-13T15:14:12Z</time>
      </trkpt>
      <trkpt lat="41.467609" lon="-5.736262">
        <ele>662.949</ele>
        <time>2021-10-13T15:14:14Z</time>
      </trkpt>
      <trkpt lat="41.468055" lon="-5.736623">
        <ele>662.316</ele>
        <time>2021-10-13T15:14:16Z</time>
      </trkpt>
      <trkpt lat="41.468473" lon="-5.736959">
        <ele>661.576</ele>
        <time>2021-10-13T15:14:18Z</time>
      </trkpt>
      <trkpt lat="41.468854" lon="-5.737246">
        <ele>662.913</ele>
        <time>2021-10-13T15:14:20Z</time>
      </trkpt>
      <trkpt lat="41.469202" lon="-5.737472">
        <ele>662.108</ele>
        <time>2021-10-13T15:14:22Z</time>
      </trkpt>
      <trkpt lat="41.469382" lon="-5.737571">
        <ele>662.949</ele>
        <time>2021-10-13T15:14:23Z</time>
      </trkpt>
      <trkpt lat="41.469570" lon="-5.737660">
        <ele>662.647</ele>
        <time>2021-10-13T15:14:24Z</time>
      </trkpt>
      <trkpt lat="41.469762" lon="-5.737742">
        <ele>661.724</ele>
        <time>2021-10-13T15:14:25Z</time>
      </trkpt>
      <trkpt lat="41.469952" lon="-5.737819">
        <ele>660.964</ele>
        <time>2021-10-13T15:14:26Z</time>
      </trkpt>
      <trkpt lat="41.470295" lon="-5.737948">
        <ele>659.027</ele>
        <time>2021-10-13T15:14:28Z</time>
      </trkpt>
      <trkpt lat="41.470458" lon="-5.738007">
        <ele>658.653</ele>
        <time>2021-10-13T15:14:29Z</time>
      </trkpt>
      <trkpt lat="41.470612" lon="-5.738060">
        <ele>659.212</ele>
        <time>2021-10-13T15:14:30Z</time>
      </trkpt>
      <trkpt lat="41.470759" lon="-5.738110">
        <ele>659.217</ele>
        <time>2021-10-13T15:14:31Z</time>
      </trkpt>
      <trkpt lat="41.470906" lon="-5.738161">
        <ele>658.381</ele>
        <time>2021-10-13T15:14:32Z</time>
      </trkpt>
      <trkpt lat="41.471165" lon="-5.738251">
        <ele>658.161</ele>
        <time>2021-10-13T15:14:34Z</time>
      </trkpt>
      <trkpt lat="41.471400" lon="-5.738330">
        <ele>657.917</ele>
        <time>2021-10-13T15:14:36Z</time>
      </trkpt>
      <trkpt lat="41.471494" lon="-5.738357">
        <ele>657.908</ele>
        <time>2021-10-13T15:14:37Z</time>
      </trkpt>
      <trkpt lat="41.471569" lon="-5.738373">
        <ele>657.396</ele>
        <time>2021-10-13T15:14:38Z</time>
      </trkpt>
      <trkpt lat="41.471669" lon="-5.738367">
        <ele>656.574</ele>
        <time>2021-10-13T15:14:40Z</time>
      </trkpt>
      <trkpt lat="41.471722" lon="-5.738332">
        <ele>656.661</ele>
        <time>2021-10-13T15:14:42Z</time>
      </trkpt>
      <trkpt lat="41.471827" lon="-5.738263">
        <ele>655.471</ele>
        <time>2021-10-13T15:14:44Z</time>
      </trkpt>
      <trkpt lat="41.471978" lon="-5.738161">
        <ele>655.314</ele>
        <time>2021-10-13T15:14:46Z</time>
      </trkpt>
      <trkpt lat="41.472163" lon="-5.738148">
        <ele>654.880</ele>
        <time>2021-10-13T15:14:48Z</time>
      </trkpt>
      <trkpt lat="41.472348" lon="-5.738274">
        <ele>654.219</ele>
        <time>2021-10-13T15:14:50Z</time>
      </trkpt>
      <trkpt lat="41.472489" lon="-5.738523">
        <ele>653.334</ele>
        <time>2021-10-13T15:14:52Z</time>
      </trkpt>
      <trkpt lat="41.472565" lon="-5.738651">
        <ele>653.166</ele>
        <time>2021-10-13T15:14:53Z</time>
      </trkpt>
      <trkpt lat="41.472791" lon="-5.738826">
        <ele>653.129</ele>
        <time>2021-10-13T15:14:55Z</time>
      </trkpt>
      <trkpt lat="41.472948" lon="-5.738883">
        <ele>652.521</ele>
        <time>2021-10-13T15:14:56Z</time>
      </trkpt>
      <trkpt lat="41.473303" lon="-5.738991">
        <ele>651.608</ele>
        <time>2021-10-13T15:14:58Z</time>
      </trkpt>
      <trkpt lat="41.473500" lon="-5.739057">
        <ele>652.124</ele>
        <time>2021-10-13T15:14:59Z</time>
      </trkpt>
      <trkpt lat="41.473945" lon="-5.739213">
        <ele>649.162</ele>
        <time>2021-10-13T15:15:01Z</time>
      </trkpt>
      <trkpt lat="41.474193" lon="-5.739298">
        <ele>649.719</ele>
        <time>2021-10-13T15:15:02Z</time>
      </trkpt>
      <trkpt lat="41.474643" lon="-5.739452">
        <ele>648.759</ele>
        <time>2021-10-13T15:15:04Z</time>
      </trkpt>
      <trkpt lat="41.475110" lon="-5.739613">
        <ele>648.922</ele>
        <time>2021-10-13T15:15:06Z</time>
      </trkpt>
      <trkpt lat="41.475349" lon="-5.739694">
        <ele>647.788</ele>
        <time>2021-10-13T15:15:07Z</time>
      </trkpt>
      <trkpt lat="41.475590" lon="-5.739772">
        <ele>646.667</ele>
        <time>2021-10-13T15:15:08Z</time>
      </trkpt>
      <trkpt lat="41.476070" lon="-5.739927">
        <ele>647.172</ele>
        <time>2021-10-13T15:15:10Z</time>
      </trkpt>
      <trkpt lat="41.476316" lon="-5.740002">
        <ele>646.758</ele>
        <time>2021-10-13T15:15:11Z</time>
      </trkpt>
      <trkpt lat="41.476783" lon="-5.740153">
        <ele>646.052</ele>
        <time>2021-10-13T15:15:13Z</time>
      </trkpt>
      <trkpt lat="41.477019" lon="-5.740228">
        <ele>644.517</ele>
        <time>2021-10-13T15:15:14Z</time>
      </trkpt>
      <trkpt lat="41.477460" lon="-5.740371">
        <ele>644.208</ele>
        <time>2021-10-13T15:15:16Z</time>
      </trkpt>
      <trkpt lat="41.477908" lon="-5.740518">
        <ele>643.563</ele>
        <time>2021-10-13T15:15:18Z</time>
      </trkpt>
      <trkpt lat="41.478391" lon="-5.740675">
        <ele>644.921</ele>
        <time>2021-10-13T15:15:20Z</time>
      </trkpt>
      <trkpt lat="41.478892" lon="-5.740838">
        <ele>643.798</ele>
        <time>2021-10-13T15:15:22Z</time>
      </trkpt>
      <trkpt lat="41.479397" lon="-5.741000">
        <ele>644.428</ele>
        <time>2021-10-13T15:15:24Z</time>
      </trkpt>
      <trkpt lat="41.479882" lon="-5.741145">
        <ele>645.061</ele>
        <time>2021-10-13T15:15:26Z</time>
      </trkpt>
      <trkpt lat="41.480338" lon="-5.741240">
        <ele>644.527</ele>
        <time>2021-10-13T15:15:28Z</time>
      </trkpt>
      <trkpt lat="41.480816" lon="-5.741275">
        <ele>643.816</ele>
        <time>2021-10-13T15:15:30Z</time>
      </trkpt>
      <trkpt lat="41.481319" lon="-5.741249">
        <ele>643.321</ele>
        <time>2021-10-13T15:15:32Z</time>
      </trkpt>
      <trkpt lat="41.481797" lon="-5.741164">
        <ele>642.945</ele>
        <time>2021-10-13T15:15:34Z</time>
      </trkpt>
      <trkpt lat="41.482034" lon="-5.741098">
        <ele>642.947</ele>
        <time>2021-10-13T15:15:35Z</time>
      </trkpt>
      <trkpt lat="41.482499" lon="-5.740924">
        <ele>642.811</ele>
        <time>2021-10-13T15:15:37Z</time>
      </trkpt>
      <trkpt lat="41.482738" lon="-5.740813">
        <ele>642.308</ele>
        <time>2021-10-13T15:15:38Z</time>
      </trkpt>
      <trkpt lat="41.483189" lon="-5.740555">
        <ele>641.842</ele>
        <time>2021-10-13T15:15:40Z</time>
      </trkpt>
      <trkpt lat="41.483648" lon="-5.740238">
        <ele>642.470</ele>
        <time>2021-10-13T15:15:42Z</time>
      </trkpt>
      <trkpt lat="41.484113" lon="-5.739881">
        <ele>641.387</ele>
        <time>2021-10-13T15:15:44Z</time>
      </trkpt>
      <trkpt lat="41.484563" lon="-5.739527">
        <ele>640.817</ele>
        <time>2021-10-13T15:15:46Z</time>
      </trkpt>
      <trkpt lat="41.484776" lon="-5.739359">
        <ele>641.350</ele>
        <time>2021-10-13T15:15:47Z</time>
      </trkpt>
      <trkpt lat="41.485180" lon="-5.739052">
        <ele>641.866</ele>
        <time>2021-10-13T15:15:49Z</time>
      </trkpt>
      <trkpt lat="41.485379" lon="-5.738896">
        <ele>641.285</ele>
        <time>2021-10-13T15:15:50Z</time>
      </trkpt>
      <trkpt lat="41.485757" lon="-5.738605">
        <ele>641.080</ele>
        <time>2021-10-13T15:15:52Z</time>
      </trkpt>
      <trkpt lat="41.486159" lon="-5.738300">
        <ele>641.675</ele>
        <time>2021-10-13T15:15:54Z</time>
      </trkpt>
      <trkpt lat="41.486372" lon="-5.738138">
        <ele>641.528</ele>
        <time>2021-10-13T15:15:55Z</time>
      </trkpt>
      <trkpt lat="41.486593" lon="-5.737970">
        <ele>641.320</ele>
        <time>2021-10-13T15:15:56Z</time>
      </trkpt>
      <trkpt lat="41.487031" lon="-5.737635">
        <ele>640.608</ele>
        <time>2021-10-13T15:15:58Z</time>
      </trkpt>
      <trkpt lat="41.487487" lon="-5.737280">
        <ele>640.125</ele>
        <time>2021-10-13T15:16:00Z</time>
      </trkpt>
      <trkpt lat="41.487955" lon="-5.736922">
        <ele>638.753</ele>
        <time>2021-10-13T15:16:02Z</time>
      </trkpt>
      <trkpt lat="41.488389" lon="-5.736587">
        <ele>639.640</ele>
        <time>2021-10-13T15:16:04Z</time>
      </trkpt>
      <trkpt lat="41.488608" lon="-5.736424">
        <ele>639.830</ele>
        <time>2021-10-13T15:16:05Z</time>
      </trkpt>
      <trkpt lat="41.489028" lon="-5.736108">
        <ele>638.463</ele>
        <time>2021-10-13T15:16:07Z</time>
      </trkpt>
      <trkpt lat="41.489238" lon="-5.735944">
        <ele>638.759</ele>
        <time>2021-10-13T15:16:08Z</time>
      </trkpt>
      <trkpt lat="41.489622" lon="-5.735645">
        <ele>637.048</ele>
        <time>2021-10-13T15:16:10Z</time>
      </trkpt>
      <trkpt lat="41.489819" lon="-5.735497">
        <ele>638.433</ele>
        <time>2021-10-13T15:16:11Z</time>
      </trkpt>
      <trkpt lat="41.490020" lon="-5.735345">
        <ele>638.776</ele>
        <time>2021-10-13T15:16:12Z</time>
      </trkpt>
      <trkpt lat="41.490439" lon="-5.735025">
        <ele>637.590</ele>
        <time>2021-10-13T15:16:14Z</time>
      </trkpt>
      <trkpt lat="41.490863" lon="-5.734704">
        <ele>636.719</ele>
        <time>2021-10-13T15:16:16Z</time>
      </trkpt>
      <trkpt lat="41.491086" lon="-5.734531">
        <ele>636.808</ele>
        <time>2021-10-13T15:16:17Z</time>
      </trkpt>
      <trkpt lat="41.491306" lon="-5.734362">
        <ele>636.755</ele>
        <time>2021-10-13T15:16:18Z</time>
      </trkpt>
      <trkpt lat="41.491527" lon="-5.734196">
        <ele>636.683</ele>
        <time>2021-10-13T15:16:19Z</time>
      </trkpt>
      <trkpt lat="41.491749" lon="-5.734028">
        <ele>636.380</ele>
        <time>2021-10-13T15:16:20Z</time>
      </trkpt>
      <trkpt lat="41.492167" lon="-5.733712">
        <ele>635.970</ele>
        <time>2021-10-13T15:16:22Z</time>
      </trkpt>
      <trkpt lat="41.492588" lon="-5.733399">
        <ele>635.213</ele>
        <time>2021-10-13T15:16:24Z</time>
      </trkpt>
      <trkpt lat="41.492799" lon="-5.733248">
        <ele>635.259</ele>
        <time>2021-10-13T15:16:25Z</time>
      </trkpt>
      <trkpt lat="41.493012" lon="-5.733094">
        <ele>635.598</ele>
        <time>2021-10-13T15:16:26Z</time>
      </trkpt>
      <trkpt lat="41.493432" lon="-5.732786">
        <ele>635.783</ele>
        <time>2021-10-13T15:16:28Z</time>
      </trkpt>
      <trkpt lat="41.493649" lon="-5.732620">
        <ele>634.929</ele>
        <time>2021-10-13T15:16:29Z</time>
      </trkpt>
      <trkpt lat="41.494090" lon="-5.732281">
        <ele>634.900</ele>
        <time>2021-10-13T15:16:31Z</time>
      </trkpt>
      <trkpt lat="41.494322" lon="-5.732105">
        <ele>635.020</ele>
        <time>2021-10-13T15:16:32Z</time>
      </trkpt>
      <trkpt lat="41.494781" lon="-5.731757">
        <ele>634.508</ele>
        <time>2021-10-13T15:16:34Z</time>
      </trkpt>
      <trkpt lat="41.495038" lon="-5.731561">
        <ele>633.840</ele>
        <time>2021-10-13T15:16:35Z</time>
      </trkpt>
      <trkpt lat="41.495300" lon="-5.731356">
        <ele>633.598</ele>
        <time>2021-10-13T15:16:36Z</time>
      </trkpt>
      <trkpt lat="41.495816" lon="-5.730964">
        <ele>633.375</ele>
        <time>2021-10-13T15:16:38Z</time>
      </trkpt>
      <trkpt lat="41.496296" lon="-5.730597">
        <ele>634.335</ele>
        <time>2021-10-13T15:16:40Z</time>
      </trkpt>
      <trkpt lat="41.496540" lon="-5.730410">
        <ele>633.528</ele>
        <time>2021-10-13T15:16:41Z</time>
      </trkpt>
      <trkpt lat="41.497027" lon="-5.730051">
        <ele>632.844</ele>
        <time>2021-10-13T15:16:43Z</time>
      </trkpt>
      <trkpt lat="41.497275" lon="-5.729882">
        <ele>632.453</ele>
        <time>2021-10-13T15:16:44Z</time>
      </trkpt>
      <trkpt lat="41.497758" lon="-5.729611">
        <ele>632.288</ele>
        <time>2021-10-13T15:16:46Z</time>
      </trkpt>
      <trkpt lat="41.498254" lon="-5.729423">
        <ele>633.154</ele>
        <time>2021-10-13T15:16:48Z</time>
      </trkpt>
      <trkpt lat="41.498509" lon="-5.729361">
        <ele>632.456</ele>
        <time>2021-10-13T15:16:49Z</time>
      </trkpt>
      <trkpt lat="41.498772" lon="-5.729322">
        <ele>632.011</ele>
        <time>2021-10-13T15:16:50Z</time>
      </trkpt>
      <trkpt lat="41.499288" lon="-5.729310">
        <ele>632.308</ele>
        <time>2021-10-13T15:16:52Z</time>
      </trkpt>
      <trkpt lat="41.499562" lon="-5.729331">
        <ele>632.883</ele>
        <time>2021-10-13T15:16:53Z</time>
      </trkpt>
      <trkpt lat="41.499834" lon="-5.729372">
        <ele>632.231</ele>
        <time>2021-10-13T15:16:54Z</time>
      </trkpt>
      <trkpt lat="41.500382" lon="-5.729527">
        <ele>632.288</ele>
        <time>2021-10-13T15:16:56Z</time>
      </trkpt>
      <trkpt lat="41.500891" lon="-5.729754">
        <ele>632.888</ele>
        <time>2021-10-13T15:16:58Z</time>
      </trkpt>
      <trkpt lat="41.501127" lon="-5.729877">
        <ele>633.321</ele>
        <time>2021-10-13T15:16:59Z</time>
      </trkpt>
      <trkpt lat="41.501347" lon="-5.729991">
        <ele>633.867</ele>
        <time>2021-10-13T15:17:00Z</time>
      </trkpt>
      <trkpt lat="41.501743" lon="-5.730202">
        <ele>634.046</ele>
        <time>2021-10-13T15:17:02Z</time>
      </trkpt>
      <trkpt lat="41.502079" lon="-5.730380">
        <ele>634.321</ele>
        <time>2021-10-13T15:17:04Z</time>
      </trkpt>
      <trkpt lat="41.502236" lon="-5.730464">
        <ele>634.278</ele>
        <time>2021-10-13T15:17:05Z</time>
      </trkpt>
      <trkpt lat="41.502534" lon="-5.730623">
        <ele>634.933</ele>
        <time>2021-10-13T15:17:07Z</time>
      </trkpt>
      <trkpt lat="41.502689" lon="-5.730701">
        <ele>634.226</ele>
        <time>2021-10-13T15:17:08Z</time>
      </trkpt>
      <trkpt lat="41.502976" lon="-5.730853">
        <ele>633.508</ele>
        <time>2021-10-13T15:17:10Z</time>
      </trkpt>
      <trkpt lat="41.503116" lon="-5.730929">
        <ele>632.875</ele>
        <time>2021-10-13T15:17:11Z</time>
      </trkpt>
      <trkpt lat="41.503249" lon="-5.730999">
        <ele>632.613</ele>
        <time>2021-10-13T15:17:12Z</time>
      </trkpt>
      <trkpt lat="41.503507" lon="-5.731132">
        <ele>632.210</ele>
        <time>2021-10-13T15:17:14Z</time>
      </trkpt>
      <trkpt lat="41.503739" lon="-5.731253">
        <ele>632.380</ele>
        <time>2021-10-13T15:17:16Z</time>
      </trkpt>
      <trkpt lat="41.503849" lon="-5.731309">
        <ele>632.023</ele>
        <time>2021-10-13T15:17:17Z</time>
      </trkpt>
      <trkpt lat="41.504026" lon="-5.731400">
        <ele>632.359</ele>
        <time>2021-10-13T15:17:19Z</time>
      </trkpt>
      <trkpt lat="41.504104" lon="-5.731439">
        <ele>632.318</ele>
        <time>2021-10-13T15:17:20Z</time>
      </trkpt>
      <trkpt lat="41.504243" lon="-5.731511">
        <ele>632.183</ele>
        <time>2021-10-13T15:17:22Z</time>
      </trkpt>
      <trkpt lat="41.504311" lon="-5.731546">
        <ele>632.631</ele>
        <time>2021-10-13T15:17:23Z</time>
      </trkpt>
      <trkpt lat="41.504374" lon="-5.731579">
        <ele>633.461</ele>
        <time>2021-10-13T15:17:24Z</time>
      </trkpt>
      <trkpt lat="41.504484" lon="-5.731646">
        <ele>633.507</ele>
        <time>2021-10-13T15:17:26Z</time>
      </trkpt>
      <trkpt lat="41.504569" lon="-5.731710">
        <ele>633.808</ele>
        <time>2021-10-13T15:17:28Z</time>
      </trkpt>
      <trkpt lat="41.504617" lon="-5.731734">
        <ele>633.951</ele>
        <time>2021-10-13T15:17:30Z</time>
      </trkpt>
      <trkpt lat="41.504665" lon="-5.731760">
        <ele>634.659</ele>
        <time>2021-10-13T15:17:34Z</time>
      </trkpt>
      <trkpt lat="41.504712" lon="-5.731785">
        <ele>651.666</ele>
        <time>2021-10-13T15:17:41Z</time>
      </trkpt>
      <trkpt lat="41.504764" lon="-5.731804">
        <ele>669.746</ele>
        <time>2021-10-13T15:17:42Z</time>
      </trkpt>
      <trkpt lat="41.504826" lon="-5.731831">
        <ele>685.859</ele>
        <time>2021-10-13T15:17:43Z</time>
      </trkpt>
      <trkpt lat="41.504875" lon="-5.731854">
        <ele>685.975</ele>
        <time>2021-10-13T15:17:45Z</time>
      </trkpt>
      <trkpt lat="41.504928" lon="-5.731874">
        <ele>686.074</ele>
        <time>2021-10-13T15:17:46Z</time>
      </trkpt>
      <trkpt lat="41.505000" lon="-5.731891">
        <ele>686.039</ele>
        <time>2021-10-13T15:17:48Z</time>
      </trkpt>
      <trkpt lat="41.505148" lon="-5.731874">
        <ele>686.061</ele>
        <time>2021-10-13T15:17:50Z</time>
      </trkpt>
      <trkpt lat="41.505235" lon="-5.731873">
        <ele>686.021</ele>
        <time>2021-10-13T15:17:52Z</time>
      </trkpt>
      <trkpt lat="41.505285" lon="-5.731890">
        <ele>686.013</ele>
        <time>2021-10-13T15:17:54Z</time>
      </trkpt>
      <trkpt lat="41.505320" lon="-5.731933">
        <ele>685.708</ele>
        <time>2021-10-13T15:18:33Z</time>
      </trkpt>
      <trkpt lat="41.505355" lon="-5.732035">
        <ele>685.734</ele>
        <time>2021-10-13T15:18:35Z</time>
      </trkpt>
      <trkpt lat="41.505344" lon="-5.732145">
        <ele>685.752</ele>
        <time>2021-10-13T15:18:37Z</time>
      </trkpt>
      <trkpt lat="41.505315" lon="-5.732232">
        <ele>685.769</ele>
        <time>2021-10-13T15:18:39Z</time>
      </trkpt>
      <trkpt lat="41.505286" lon="-5.732299">
        <ele>686.039</ele>
        <time>2021-10-13T15:18:41Z</time>
      </trkpt>
      <trkpt lat="41.505260" lon="-5.732372">
        <ele>686.052</ele>
        <time>2021-10-13T15:18:43Z</time>
      </trkpt>
      <trkpt lat="41.505237" lon="-5.732452">
        <ele>686.018</ele>
        <time>2021-10-13T15:18:45Z</time>
      </trkpt>
      <trkpt lat="41.505212" lon="-5.732582">
        <ele>686.027</ele>
        <time>2021-10-13T15:18:47Z</time>
      </trkpt>
      <trkpt lat="41.505197" lon="-5.732667">
        <ele>686.062</ele>
        <time>2021-10-13T15:18:48Z</time>
      </trkpt>
      <trkpt lat="41.505182" lon="-5.732752">
        <ele>686.083</ele>
        <time>2021-10-13T15:18:49Z</time>
      </trkpt>
      <trkpt lat="41.505168" lon="-5.732841">
        <ele>686.025</ele>
        <time>2021-10-13T15:18:50Z</time>
      </trkpt>
      <trkpt lat="41.505145" lon="-5.732993">
        <ele>686.017</ele>
        <time>2021-10-13T15:18:52Z</time>
      </trkpt>
      <trkpt lat="41.505120" lon="-5.733131">
        <ele>686.008</ele>
        <time>2021-10-13T15:18:54Z</time>
      </trkpt>
      <trkpt lat="41.505108" lon="-5.733197">
        <ele>686.016</ele>
        <time>2021-10-13T15:18:55Z</time>
      </trkpt>
      <trkpt lat="41.505096" lon="-5.733259">
        <ele>686.044</ele>
        <time>2021-10-13T15:18:56Z</time>
      </trkpt>
      <trkpt lat="41.505074" lon="-5.733392">
        <ele>686.091</ele>
        <time>2021-10-13T15:18:58Z</time>
      </trkpt>
      <trkpt lat="41.505037" lon="-5.733609">
        <ele>686.071</ele>
        <time>2021-10-13T15:19:00Z</time>
      </trkpt>
      <trkpt lat="41.504982" lon="-5.733827">
        <ele>686.074</ele>
        <time>2021-10-13T15:19:02Z</time>
      </trkpt>
      <trkpt lat="41.504938" lon="-5.734049">
        <ele>686.170</ele>
        <time>2021-10-13T15:19:04Z</time>
      </trkpt>
      <trkpt lat="41.504921" lon="-5.734168">
        <ele>686.129</ele>
        <time>2021-10-13T15:19:05Z</time>
      </trkpt>
      <trkpt lat="41.504907" lon="-5.734290">
        <ele>686.114</ele>
        <time>2021-10-13T15:19:06Z</time>
      </trkpt>
      <trkpt lat="41.504886" lon="-5.734546">
        <ele>686.176</ele>
        <time>2021-10-13T15:19:08Z</time>
      </trkpt>
      <trkpt lat="41.504866" lon="-5.734763">
        <ele>686.290</ele>
        <time>2021-10-13T15:19:10Z</time>
      </trkpt>
      <trkpt lat="41.504846" lon="-5.734960">
        <ele>686.219</ele>
        <time>2021-10-13T15:19:12Z</time>
      </trkpt>
      <trkpt lat="41.504835" lon="-5.735054">
        <ele>686.208</ele>
        <time>2021-10-13T15:19:13Z</time>
      </trkpt>
      <trkpt lat="41.504820" lon="-5.735151">
        <ele>686.215</ele>
        <time>2021-10-13T15:19:14Z</time>
      </trkpt>
      <trkpt lat="41.504779" lon="-5.735349">
        <ele>686.253</ele>
        <time>2021-10-13T15:19:16Z</time>
      </trkpt>
      <trkpt lat="41.504740" lon="-5.735548">
        <ele>686.240</ele>
        <time>2021-10-13T15:19:18Z</time>
      </trkpt>
      <trkpt lat="41.504719" lon="-5.735649">
        <ele>686.290</ele>
        <time>2021-10-13T15:19:19Z</time>
      </trkpt>
      <trkpt lat="41.504702" lon="-5.735754">
        <ele>686.283</ele>
        <time>2021-10-13T15:19:20Z</time>
      </trkpt>
      <trkpt lat="41.504677" lon="-5.735963">
        <ele>686.219</ele>
        <time>2021-10-13T15:19:22Z</time>
      </trkpt>
      <trkpt lat="41.504660" lon="-5.736074">
        <ele>686.278</ele>
        <time>2021-10-13T15:19:23Z</time>
      </trkpt>
      <trkpt lat="41.504634" lon="-5.736302">
        <ele>686.273</ele>
        <time>2021-10-13T15:19:25Z</time>
      </trkpt>
      <trkpt lat="41.504620" lon="-5.736423">
        <ele>686.243</ele>
        <time>2021-10-13T15:19:26Z</time>
      </trkpt>
      <trkpt lat="41.504584" lon="-5.736644">
        <ele>686.164</ele>
        <time>2021-10-13T15:19:28Z</time>
      </trkpt>
      <trkpt lat="41.504556" lon="-5.736750">
        <ele>686.010</ele>
        <time>2021-10-13T15:19:29Z</time>
      </trkpt>
      <trkpt lat="41.504525" lon="-5.736850">
        <ele>686.008</ele>
        <time>2021-10-13T15:19:30Z</time>
      </trkpt>
      <trkpt lat="41.504466" lon="-5.737021">
        <ele>647.782</ele>
        <time>2021-10-13T15:19:32Z</time>
      </trkpt>
      <trkpt lat="41.504445" lon="-5.737118">
        <ele>647.330</ele>
        <time>2021-10-13T15:19:34Z</time>
      </trkpt>
      <trkpt lat="41.504444" lon="-5.737181">
        <ele>646.967</ele>
        <time>2021-10-13T15:19:36Z</time>
      </trkpt>
      <trkpt lat="41.504463" lon="-5.737240">
        <ele>648.447</ele>
        <time>2021-10-13T15:20:43Z</time>
      </trkpt>
      <trkpt lat="41.504456" lon="-5.737304">
        <ele>648.460</ele>
        <time>2021-10-13T15:20:44Z</time>
      </trkpt>
      <trkpt lat="41.504408" lon="-5.737413">
        <ele>648.426</ele>
        <time>2021-10-13T15:20:46Z</time>
      </trkpt>
      <trkpt lat="41.504310" lon="-5.737549">
        <ele>648.415</ele>
        <time>2021-10-13T15:20:48Z</time>
      </trkpt>
      <trkpt lat="41.504258" lon="-5.737624">
        <ele>648.310</ele>
        <time>2021-10-13T15:20:49Z</time>
      </trkpt>
      <trkpt lat="41.504199" lon="-5.737704">
        <ele>648.381</ele>
        <time>2021-10-13T15:20:50Z</time>
      </trkpt>
      <trkpt lat="41.504074" lon="-5.737876">
        <ele>648.361</ele>
        <time>2021-10-13T15:20:52Z</time>
      </trkpt>
      <trkpt lat="41.504011" lon="-5.737968">
        <ele>648.317</ele>
        <time>2021-10-13T15:20:53Z</time>
      </trkpt>
      <trkpt lat="41.503896" lon="-5.738136">
        <ele>648.308</ele>
        <time>2021-10-13T15:20:55Z</time>
      </trkpt>
      <trkpt lat="41.503800" lon="-5.738297">
        <ele>648.336</ele>
        <time>2021-10-13T15:20:57Z</time>
      </trkpt>
      <trkpt lat="41.503715" lon="-5.738442">
        <ele>648.354</ele>
        <time>2021-10-13T15:20:59Z</time>
      </trkpt>
      <trkpt lat="41.503631" lon="-5.738568">
        <ele>648.341</ele>
        <time>2021-10-13T15:21:01Z</time>
      </trkpt>
      <trkpt lat="41.503586" lon="-5.738633">
        <ele>648.361</ele>
        <time>2021-10-13T15:21:02Z</time>
      </trkpt>
      <trkpt lat="41.503496" lon="-5.738777">
        <ele>648.394</ele>
        <time>2021-10-13T15:21:04Z</time>
      </trkpt>
      <trkpt lat="41.503411" lon="-5.738933">
        <ele>648.340</ele>
        <time>2021-10-13T15:21:06Z</time>
      </trkpt>
      <trkpt lat="41.503372" lon="-5.739004">
        <ele>648.369</ele>
        <time>2021-10-13T15:21:07Z</time>
      </trkpt>
      <trkpt lat="41.503326" lon="-5.739061">
        <ele>648.394</ele>
        <time>2021-10-13T15:21:08Z</time>
      </trkpt>
      <trkpt lat="41.503219" lon="-5.739130">
        <ele>648.328</ele>
        <time>2021-10-13T15:21:10Z</time>
      </trkpt>
      <trkpt lat="41.503120" lon="-5.739223">
        <ele>648.389</ele>
        <time>2021-10-13T15:21:12Z</time>
      </trkpt>
      <trkpt lat="41.503088" lon="-5.739297">
        <ele>648.317</ele>
        <time>2021-10-13T15:21:13Z</time>
      </trkpt>
      <trkpt lat="41.503068" lon="-5.739388">
        <ele>648.308</ele>
        <time>2021-10-13T15:21:14Z</time>
      </trkpt>
      <trkpt lat="41.503041" lon="-5.739572">
        <ele>648.340</ele>
        <time>2021-10-13T15:21:16Z</time>
      </trkpt>
      <trkpt lat="41.503007" lon="-5.739745">
        <ele>648.318</ele>
        <time>2021-10-13T15:21:18Z</time>
      </trkpt>
      <trkpt lat="41.502999" lon="-5.739828">
        <ele>648.335</ele>
        <time>2021-10-13T15:21:19Z</time>
      </trkpt>
      <trkpt lat="41.502994" lon="-5.739916">
        <ele>648.315</ele>
        <time>2021-10-13T15:21:20Z</time>
      </trkpt>
      <trkpt lat="41.502994" lon="-5.740104">
        <ele>648.398</ele>
        <time>2021-10-13T15:21:22Z</time>
      </trkpt>
      <trkpt lat="41.502981" lon="-5.740326">
        <ele>648.344</ele>
        <time>2021-10-13T15:21:24Z</time>
      </trkpt>
      <trkpt lat="41.502970" lon="-5.740428">
        <ele>648.313</ele>
        <time>2021-10-13T15:21:25Z</time>
      </trkpt>
      <trkpt lat="41.502951" lon="-5.740518">
        <ele>648.348</ele>
        <time>2021-10-13T15:21:26Z</time>
      </trkpt>
      <trkpt lat="41.502925" lon="-5.740663">
        <ele>648.345</ele>
        <time>2021-10-13T15:21:28Z</time>
      </trkpt>
      <trkpt lat="41.502919" lon="-5.740729">
        <ele>648.347</ele>
        <time>2021-10-13T15:21:29Z</time>
      </trkpt>
      <trkpt lat="41.502902" lon="-5.740815">
        <ele>648.311</ele>
        <time>2021-10-13T15:21:31Z</time>
      </trkpt>
      <trkpt lat="41.502880" lon="-5.740913">
        <ele>648.308</ele>
        <time>2021-10-13T15:21:33Z</time>
      </trkpt>
      <trkpt lat="41.502852" lon="-5.741039">
        <ele>648.362</ele>
        <time>2021-10-13T15:21:35Z</time>
      </trkpt>
      <trkpt lat="41.502817" lon="-5.741197">
        <ele>648.250</ele>
        <time>2021-10-13T15:21:37Z</time>
      </trkpt>
      <trkpt lat="41.502796" lon="-5.741285">
        <ele>648.227</ele>
        <time>2021-10-13T15:21:38Z</time>
      </trkpt>
      <trkpt lat="41.502766" lon="-5.741434">
        <ele>648.227</ele>
        <time>2021-10-13T15:21:40Z</time>
      </trkpt>
      <trkpt lat="41.502735" lon="-5.741566">
        <ele>648.270</ele>
        <time>2021-10-13T15:21:42Z</time>
      </trkpt>
      <trkpt lat="41.502692" lon="-5.741651">
        <ele>648.296</ele>
        <time>2021-10-13T15:21:44Z</time>
      </trkpt>
      <trkpt lat="41.502605" lon="-5.741703">
        <ele>620.745</ele>
        <time>2021-10-13T15:21:46Z</time>
      </trkpt>
      <trkpt lat="41.502454" lon="-5.741708">
        <ele>620.460</ele>
        <time>2021-10-13T15:21:48Z</time>
      </trkpt>
      <trkpt lat="41.502363" lon="-5.741711">
        <ele>621.277</ele>
        <time>2021-10-13T15:21:49Z</time>
      </trkpt>
      <trkpt lat="41.502272" lon="-5.741718">
        <ele>623.961</ele>
        <time>2021-10-13T15:21:50Z</time>
      </trkpt>
      <trkpt lat="41.502122" lon="-5.741737">
        <ele>625.927</ele>
        <time>2021-10-13T15:21:52Z</time>
      </trkpt>
      <trkpt lat="41.502049" lon="-5.741742">
        <ele>626.508</ele>
        <time>2021-10-13T15:21:53Z</time>
      </trkpt>
      <trkpt lat="41.501885" lon="-5.741751">
        <ele>627.265</ele>
        <time>2021-10-13T15:21:55Z</time>
      </trkpt>
      <trkpt lat="41.501791" lon="-5.741763">
        <ele>627.593</ele>
        <time>2021-10-13T15:21:56Z</time>
      </trkpt>
      <trkpt lat="41.501610" lon="-5.741775">
        <ele>629.220</ele>
        <time>2021-10-13T15:21:58Z</time>
      </trkpt>
      <trkpt lat="41.501447" lon="-5.741788">
        <ele>629.150</ele>
        <time>2021-10-13T15:22:00Z</time>
      </trkpt>
      <trkpt lat="41.501377" lon="-5.741798">
        <ele>628.663</ele>
        <time>2021-10-13T15:22:01Z</time>
      </trkpt>
      <trkpt lat="41.501314" lon="-5.741814">
        <ele>628.299</ele>
        <time>2021-10-13T15:22:02Z</time>
      </trkpt>
      <trkpt lat="41.501214" lon="-5.741863">
        <ele>628.248</ele>
        <time>2021-10-13T15:22:04Z</time>
      </trkpt>
      <trkpt lat="41.501110" lon="-5.741917">
        <ele>627.393</ele>
        <time>2021-10-13T15:22:06Z</time>
      </trkpt>
      <trkpt lat="41.501003" lon="-5.742013">
        <ele>626.717</ele>
        <time>2021-10-13T15:22:08Z</time>
      </trkpt>
      <trkpt lat="41.500894" lon="-5.742175">
        <ele>626.187</ele>
        <time>2021-10-13T15:22:10Z</time>
      </trkpt>
      <trkpt lat="41.500834" lon="-5.742272">
        <ele>624.915</ele>
        <time>2021-10-13T15:22:11Z</time>
      </trkpt>
      <trkpt lat="41.500775" lon="-5.742373">
        <ele>624.908</ele>
        <time>2021-10-13T15:22:12Z</time>
      </trkpt>
      <trkpt lat="41.500673" lon="-5.742584">
        <ele>624.699</ele>
        <time>2021-10-13T15:22:14Z</time>
      </trkpt>
      <trkpt lat="41.500601" lon="-5.742815">
        <ele>623.957</ele>
        <time>2021-10-13T15:22:16Z</time>
      </trkpt>
      <trkpt lat="41.500583" lon="-5.742946">
        <ele>623.934</ele>
        <time>2021-10-13T15:22:17Z</time>
      </trkpt>
      <trkpt lat="41.500566" lon="-5.743232">
        <ele>625.214</ele>
        <time>2021-10-13T15:22:19Z</time>
      </trkpt>
      <trkpt lat="41.500569" lon="-5.743386">
        <ele>624.957</ele>
        <time>2021-10-13T15:22:20Z</time>
      </trkpt>
      <trkpt lat="41.500585" lon="-5.743667">
        <ele>625.963</ele>
        <time>2021-10-13T15:22:22Z</time>
      </trkpt>
      <trkpt lat="41.500591" lon="-5.743795">
        <ele>625.972</ele>
        <time>2021-10-13T15:22:23Z</time>
      </trkpt>
      <trkpt lat="41.500595" lon="-5.743913">
        <ele>625.467</ele>
        <time>2021-10-13T15:22:24Z</time>
      </trkpt>
      <trkpt lat="41.500595" lon="-5.744108">
        <ele>625.392</ele>
        <time>2021-10-13T15:22:26Z</time>
      </trkpt>
      <trkpt lat="41.500591" lon="-5.744215">
        <ele>626.573</ele>
        <time>2021-10-13T15:22:28Z</time>
      </trkpt>
      <trkpt lat="41.500636" lon="-5.744276">
        <ele>626.220</ele>
        <time>2021-10-13T15:22:31Z</time>
      </trkpt>
      <trkpt lat="41.500703" lon="-5.744288">
        <ele>626.508</ele>
        <time>2021-10-13T15:22:33Z</time>
      </trkpt>
      <trkpt lat="41.500749" lon="-5.744289">
        <ele>626.697</ele>
        <time>2021-10-13T15:22:34Z</time>
      </trkpt>
      <trkpt lat="41.500852" lon="-5.744284">
        <ele>626.735</ele>
        <time>2021-10-13T15:22:36Z</time>
      </trkpt>
      <trkpt lat="41.500914" lon="-5.744267">
        <ele>626.772</ele>
        <time>2021-10-13T15:22:37Z</time>
      </trkpt>
      <trkpt lat="41.500978" lon="-5.744260">
        <ele>626.722</ele>
        <time>2021-10-13T15:22:38Z</time>
      </trkpt>
      <trkpt lat="41.501081" lon="-5.744262">
        <ele>626.735</ele>
        <time>2021-10-13T15:22:40Z</time>
      </trkpt>
      <trkpt lat="41.501106" lon="-5.744314">
        <ele>626.771</ele>
        <time>2021-10-13T15:22:41Z</time>
      </trkpt>
      <trkpt lat="41.501152" lon="-5.744316">
        <ele>626.750</ele>
        <time>2021-10-13T15:22:43Z</time>
      </trkpt>
      <trkpt lat="41.501208" lon="-5.744323">
        <ele>626.785</ele>
        <time>2021-10-13T15:22:46Z</time>
      </trkpt>
      <trkpt lat="41.501249" lon="-5.744265">
        <ele>626.784</ele>
        <time>2021-10-13T15:22:50Z</time>
      </trkpt>
      <trkpt lat="41.501245" lon="-5.744193">
        <ele>626.707</ele>
        <time>2021-10-13T15:22:52Z</time>
      </trkpt>
      <trkpt lat="41.501288" lon="-5.744170">
        <ele>626.717</ele>
        <time>2021-10-13T15:23:07Z</time>
      </trkpt>
      <trkpt lat="41.501322" lon="-5.744246">
        <ele>627.308</ele>
        <time>2021-10-13T15:36:09Z</time>
      </trkpt>
      <trkpt lat="41.501312" lon="-5.744340">
        <ele>627.366</ele>
        <time>2021-10-13T15:36:11Z</time>
      </trkpt>
      <trkpt lat="41.501297" lon="-5.744451">
        <ele>627.374</ele>
        <time>2021-10-13T15:36:13Z</time>
      </trkpt>
      <trkpt lat="41.501277" lon="-5.744535">
        <ele>627.351</ele>
        <time>2021-10-13T15:36:15Z</time>
      </trkpt>
      <trkpt lat="41.501254" lon="-5.744615">
        <ele>627.441</ele>
        <time>2021-10-13T15:36:17Z</time>
      </trkpt>
      <trkpt lat="41.501232" lon="-5.744674">
        <ele>627.464</ele>
        <time>2021-10-13T15:36:21Z</time>
      </trkpt>
      <trkpt lat="41.501207" lon="-5.744742">
        <ele>627.420</ele>
        <time>2021-10-13T15:36:24Z</time>
      </trkpt>
      <trkpt lat="41.501172" lon="-5.744872">
        <ele>627.449</ele>
        <time>2021-10-13T15:36:26Z</time>
      </trkpt>
      <trkpt lat="41.501151" lon="-5.745070">
        <ele>627.524</ele>
        <time>2021-10-13T15:36:28Z</time>
      </trkpt>
      <trkpt lat="41.501133" lon="-5.745256">
        <ele>627.615</ele>
        <time>2021-10-13T15:36:30Z</time>
      </trkpt>
      <trkpt lat="41.501118" lon="-5.745412">
        <ele>627.665</ele>
        <time>2021-10-13T15:36:32Z</time>
      </trkpt>
      <trkpt lat="41.501106" lon="-5.745500">
        <ele>627.611</ele>
        <time>2021-10-13T15:36:34Z</time>
      </trkpt>
      <trkpt lat="41.501092" lon="-5.745598">
        <ele>627.608</ele>
        <time>2021-10-13T15:36:36Z</time>
      </trkpt>
      <trkpt lat="41.501070" lon="-5.745683">
        <ele>627.699</ele>
        <time>2021-10-13T15:36:38Z</time>
      </trkpt>
      <trkpt lat="41.501095" lon="-5.745761">
        <ele>627.687</ele>
        <time>2021-10-13T15:36:41Z</time>
      </trkpt>
      <trkpt lat="41.501141" lon="-5.745768">
        <ele>627.624</ele>
        <time>2021-10-13T15:36:43Z</time>
      </trkpt>
      <trkpt lat="41.501215" lon="-5.745777">
        <ele>627.694</ele>
        <time>2021-10-13T15:36:45Z</time>
      </trkpt>
      <trkpt lat="41.501282" lon="-5.745778">
        <ele>627.667</ele>
        <time>2021-10-13T15:36:47Z</time>
      </trkpt>
      <trkpt lat="41.501364" lon="-5.745764">
        <ele>627.693</ele>
        <time>2021-10-13T15:36:49Z</time>
      </trkpt>
      <trkpt lat="41.501416" lon="-5.745753">
        <ele>627.642</ele>
        <time>2021-10-13T15:36:50Z</time>
      </trkpt>
      <trkpt lat="41.501511" lon="-5.745722">
        <ele>627.627</ele>
        <time>2021-10-13T15:36:52Z</time>
      </trkpt>
      <trkpt lat="41.501573" lon="-5.745716">
        <ele>627.689</ele>
        <time>2021-10-13T15:36:54Z</time>
      </trkpt>
      <trkpt lat="41.501621" lon="-5.745722">
        <ele>627.606</ele>
        <time>2021-10-13T15:36:56Z</time>
      </trkpt>
      <trkpt lat="41.501680" lon="-5.745719">
        <ele>627.626</ele>
        <time>2021-10-13T15:36:59Z</time>
      </trkpt>
      <trkpt lat="41.501731" lon="-5.745715">
        <ele>627.608</ele>
        <time>2021-10-13T15:37:01Z</time>
      </trkpt>
      <trkpt lat="41.501794" lon="-5.745712">
        <ele>627.666</ele>
        <time>2021-10-13T15:37:03Z</time>
      </trkpt>
      <trkpt lat="41.501853" lon="-5.745714">
        <ele>627.614</ele>
        <time>2021-10-13T15:37:05Z</time>
      </trkpt>
      <trkpt lat="41.501908" lon="-5.745731">
        <ele>627.671</ele>
        <time>2021-10-13T15:37:08Z</time>
      </trkpt>
      <trkpt lat="41.501843" lon="-5.745755">
        <ele>632.381</ele>
        <time>2021-10-13T15:37:47Z</time>
      </trkpt>
      <trkpt lat="41.501761" lon="-5.745749">
        <ele>632.374</ele>
        <time>2021-10-13T15:37:49Z</time>
      </trkpt>
      <trkpt lat="41.501694" lon="-5.745745">
        <ele>632.350</ele>
        <time>2021-10-13T15:37:51Z</time>
      </trkpt>
      <trkpt lat="41.501623" lon="-5.745735">
        <ele>632.359</ele>
        <time>2021-10-13T15:37:53Z</time>
      </trkpt>
      <trkpt lat="41.501530" lon="-5.745751">
        <ele>632.314</ele>
        <time>2021-10-13T15:37:55Z</time>
      </trkpt>
      <trkpt lat="41.501484" lon="-5.745759">
        <ele>632.362</ele>
        <time>2021-10-13T15:37:56Z</time>
      </trkpt>
      <trkpt lat="41.501413" lon="-5.745775">
        <ele>632.283</ele>
        <time>2021-10-13T15:37:58Z</time>
      </trkpt>
      <trkpt lat="41.501354" lon="-5.745804">
        <ele>632.211</ele>
        <time>2021-10-13T15:38:00Z</time>
      </trkpt>
      <trkpt lat="41.501312" lon="-5.745780">
        <ele>632.208</ele>
        <time>2021-10-13T15:38:19Z</time>
      </trkpt>
      <trkpt lat="41.501241" lon="-5.745778">
        <ele>632.254</ele>
        <time>2021-10-13T15:38:22Z</time>
      </trkpt>
      <trkpt lat="41.501173" lon="-5.745789">
        <ele>632.262</ele>
        <time>2021-10-13T15:38:24Z</time>
      </trkpt>
      <trkpt lat="41.501075" lon="-5.745785">
        <ele>632.219</ele>
        <time>2021-10-13T15:38:26Z</time>
      </trkpt>
      <trkpt lat="41.500954" lon="-5.745749">
        <ele>632.389</ele>
        <time>2021-10-13T15:38:28Z</time>
      </trkpt>
      <trkpt lat="41.500884" lon="-5.745744">
        <ele>632.292</ele>
        <time>2021-10-13T15:38:29Z</time>
      </trkpt>
      <trkpt lat="41.500753" lon="-5.745741">
        <ele>632.248</ele>
        <time>2021-10-13T15:38:31Z</time>
      </trkpt>
      <trkpt lat="41.500699" lon="-5.745736">
        <ele>632.297</ele>
        <time>2021-10-13T15:38:32Z</time>
      </trkpt>
      <trkpt lat="41.500598" lon="-5.745742">
        <ele>632.282</ele>
        <time>2021-10-13T15:38:34Z</time>
      </trkpt>
      <trkpt lat="41.500543" lon="-5.745754">
        <ele>632.267</ele>
        <time>2021-10-13T15:38:35Z</time>
      </trkpt>
      <trkpt lat="41.500476" lon="-5.745767">
        <ele>632.281</ele>
        <time>2021-10-13T15:38:37Z</time>
      </trkpt>
      <trkpt lat="41.500433" lon="-5.745807">
        <ele>632.219</ele>
        <time>2021-10-13T15:38:39Z</time>
      </trkpt>
      <trkpt lat="41.500408" lon="-5.745944">
        <ele>632.208</ele>
        <time>2021-10-13T15:38:41Z</time>
      </trkpt>
      <trkpt lat="41.500391" lon="-5.746181">
        <ele>632.274</ele>
        <time>2021-10-13T15:38:43Z</time>
      </trkpt>
      <trkpt lat="41.500382" lon="-5.746303">
        <ele>632.272</ele>
        <time>2021-10-13T15:38:44Z</time>
      </trkpt>
      <trkpt lat="41.500372" lon="-5.746510">
        <ele>632.219</ele>
        <time>2021-10-13T15:38:46Z</time>
      </trkpt>
      <trkpt lat="41.500369" lon="-5.746729">
        <ele>632.239</ele>
        <time>2021-10-13T15:38:48Z</time>
      </trkpt>
      <trkpt lat="41.500370" lon="-5.746964">
        <ele>632.282</ele>
        <time>2021-10-13T15:38:50Z</time>
      </trkpt>
      <trkpt lat="41.500374" lon="-5.747192">
        <ele>632.238</ele>
        <time>2021-10-13T15:38:52Z</time>
      </trkpt>
      <trkpt lat="41.500384" lon="-5.747417">
        <ele>632.227</ele>
        <time>2021-10-13T15:38:54Z</time>
      </trkpt>
      <trkpt lat="41.500392" lon="-5.747523">
        <ele>632.252</ele>
        <time>2021-10-13T15:38:55Z</time>
      </trkpt>
      <trkpt lat="41.500400" lon="-5.747628">
        <ele>632.282</ele>
        <time>2021-10-13T15:38:56Z</time>
      </trkpt>
      <trkpt lat="41.500416" lon="-5.747818">
        <ele>632.243</ele>
        <time>2021-10-13T15:38:58Z</time>
      </trkpt>
      <trkpt lat="41.500425" lon="-5.747957">
        <ele>632.217</ele>
        <time>2021-10-13T15:39:00Z</time>
      </trkpt>
      <trkpt lat="41.500438" lon="-5.748031">
        <ele>632.208</ele>
        <time>2021-10-13T15:39:13Z</time>
      </trkpt>
      <trkpt lat="41.500453" lon="-5.748151">
        <ele>632.216</ele>
        <time>2021-10-13T15:39:15Z</time>
      </trkpt>
      <trkpt lat="41.500452" lon="-5.748249">
        <ele>632.234</ele>
        <time>2021-10-13T15:39:16Z</time>
      </trkpt>
      <trkpt lat="41.500423" lon="-5.748460">
        <ele>632.251</ele>
        <time>2021-10-13T15:39:18Z</time>
      </trkpt>
      <trkpt lat="41.500396" lon="-5.748580">
        <ele>632.291</ele>
        <time>2021-10-13T15:39:19Z</time>
      </trkpt>
      <trkpt lat="41.500360" lon="-5.748696">
        <ele>632.244</ele>
        <time>2021-10-13T15:39:20Z</time>
      </trkpt>
      <trkpt lat="41.500299" lon="-5.748853">
        <ele>632.230</ele>
        <time>2021-10-13T15:39:22Z</time>
      </trkpt>
      <trkpt lat="41.500247" lon="-5.748993">
        <ele>632.229</ele>
        <time>2021-10-13T15:39:24Z</time>
      </trkpt>
      <trkpt lat="41.500185" lon="-5.749175">
        <ele>632.274</ele>
        <time>2021-10-13T15:39:26Z</time>
      </trkpt>
      <trkpt lat="41.500108" lon="-5.749404">
        <ele>632.249</ele>
        <time>2021-10-13T15:39:28Z</time>
      </trkpt>
      <trkpt lat="41.500011" lon="-5.749694">
        <ele>632.202</ele>
        <time>2021-10-13T15:39:30Z</time>
      </trkpt>
      <trkpt lat="41.499959" lon="-5.749842">
        <ele>632.222</ele>
        <time>2021-10-13T15:39:31Z</time>
      </trkpt>
      <trkpt lat="41.499907" lon="-5.749994">
        <ele>632.208</ele>
        <time>2021-10-13T15:39:32Z</time>
      </trkpt>
      <trkpt lat="41.499787" lon="-5.750289">
        <ele>632.122</ele>
        <time>2021-10-13T15:39:34Z</time>
      </trkpt>
      <trkpt lat="41.499720" lon="-5.750446">
        <ele>632.170</ele>
        <time>2021-10-13T15:39:35Z</time>
      </trkpt>
      <trkpt lat="41.499651" lon="-5.750603">
        <ele>632.167</ele>
        <time>2021-10-13T15:39:36Z</time>
      </trkpt>
      <trkpt lat="41.499577" lon="-5.750760">
        <ele>632.247</ele>
        <time>2021-10-13T15:39:37Z</time>
      </trkpt>
      <trkpt lat="41.499492" lon="-5.750921">
        <ele>632.240</ele>
        <time>2021-10-13T15:39:38Z</time>
      </trkpt>
      <trkpt lat="41.499313" lon="-5.751226">
        <ele>632.246</ele>
        <time>2021-10-13T15:39:40Z</time>
      </trkpt>
      <trkpt lat="41.499217" lon="-5.751382">
        <ele>632.215</ele>
        <time>2021-10-13T15:39:41Z</time>
      </trkpt>
      <trkpt lat="41.499040" lon="-5.751685">
        <ele>632.250</ele>
        <time>2021-10-13T15:39:43Z</time>
      </trkpt>
      <trkpt lat="41.498961" lon="-5.751820">
        <ele>632.214</ele>
        <time>2021-10-13T15:39:44Z</time>
      </trkpt>
      <trkpt lat="41.498808" lon="-5.752087">
        <ele>632.154</ele>
        <time>2021-10-13T15:39:46Z</time>
      </trkpt>
      <trkpt lat="41.498729" lon="-5.752221">
        <ele>632.109</ele>
        <time>2021-10-13T15:39:47Z</time>
      </trkpt>
      <trkpt lat="41.498587" lon="-5.752474">
        <ele>632.108</ele>
        <time>2021-10-13T15:39:49Z</time>
      </trkpt>
      <trkpt lat="41.498517" lon="-5.752605">
        <ele>632.149</ele>
        <time>2021-10-13T15:39:50Z</time>
      </trkpt>
      <trkpt lat="41.498393" lon="-5.752873">
        <ele>632.117</ele>
        <time>2021-10-13T15:39:52Z</time>
      </trkpt>
      <trkpt lat="41.498339" lon="-5.753017">
        <ele>632.134</ele>
        <time>2021-10-13T15:39:53Z</time>
      </trkpt>
      <trkpt lat="41.498272" lon="-5.753292">
        <ele>632.074</ele>
        <time>2021-10-13T15:39:55Z</time>
      </trkpt>
      <trkpt lat="41.498259" lon="-5.753430">
        <ele>632.067</ele>
        <time>2021-10-13T15:39:56Z</time>
      </trkpt>
      <trkpt lat="41.498262" lon="-5.753711">
        <ele>632.063</ele>
        <time>2021-10-13T15:39:58Z</time>
      </trkpt>
      <trkpt lat="41.498275" lon="-5.754020">
        <ele>632.012</ele>
        <time>2021-10-13T15:40:00Z</time>
      </trkpt>
      <trkpt lat="41.498282" lon="-5.754180">
        <ele>632.077</ele>
        <time>2021-10-13T15:40:01Z</time>
      </trkpt>
      <trkpt lat="41.498288" lon="-5.754341">
        <ele>632.061</ele>
        <time>2021-10-13T15:40:02Z</time>
      </trkpt>
      <trkpt lat="41.498304" lon="-5.754666">
        <ele>632.021</ele>
        <time>2021-10-13T15:40:04Z</time>
      </trkpt>
      <trkpt lat="41.498316" lon="-5.754989">
        <ele>632.013</ele>
        <time>2021-10-13T15:40:06Z</time>
      </trkpt>
      <trkpt lat="41.498332" lon="-5.755301">
        <ele>632.008</ele>
        <time>2021-10-13T15:40:08Z</time>
      </trkpt>
      <trkpt lat="41.498378" lon="-5.755579">
        <ele>632.044</ele>
        <time>2021-10-13T15:40:10Z</time>
      </trkpt>
      <trkpt lat="41.498416" lon="-5.755714">
        <ele>632.042</ele>
        <time>2021-10-13T15:40:11Z</time>
      </trkpt>
      <trkpt lat="41.498459" lon="-5.755841">
        <ele>632.089</ele>
        <time>2021-10-13T15:40:12Z</time>
      </trkpt>
      <trkpt lat="41.498542" lon="-5.756081">
        <ele>634.059</ele>
        <time>2021-10-13T15:40:14Z</time>
      </trkpt>
      <trkpt lat="41.498607" lon="-5.756275">
        <ele>634.272</ele>
        <time>2021-10-13T15:40:16Z</time>
      </trkpt>
      <trkpt lat="41.498638" lon="-5.756360">
        <ele>634.158</ele>
        <time>2021-10-13T15:40:17Z</time>
      </trkpt>
      <trkpt lat="41.498715" lon="-5.756518">
        <ele>633.897</ele>
        <time>2021-10-13T15:40:19Z</time>
      </trkpt>
      <trkpt lat="41.498772" lon="-5.756593">
        <ele>634.042</ele>
        <time>2021-10-13T15:40:20Z</time>
      </trkpt>
      <trkpt lat="41.498908" lon="-5.756724">
        <ele>633.827</ele>
        <time>2021-10-13T15:40:22Z</time>
      </trkpt>
      <trkpt lat="41.499072" lon="-5.756819">
        <ele>634.368</ele>
        <time>2021-10-13T15:40:24Z</time>
      </trkpt>
      <trkpt lat="41.499159" lon="-5.756857">
        <ele>633.914</ele>
        <time>2021-10-13T15:40:25Z</time>
      </trkpt>
      <trkpt lat="41.499250" lon="-5.756890">
        <ele>634.208</ele>
        <time>2021-10-13T15:40:26Z</time>
      </trkpt>
      <trkpt lat="41.499432" lon="-5.756924">
        <ele>632.430</ele>
        <time>2021-10-13T15:40:28Z</time>
      </trkpt>
      <trkpt lat="41.499526" lon="-5.756929">
        <ele>631.938</ele>
        <time>2021-10-13T15:40:29Z</time>
      </trkpt>
      <trkpt lat="41.499718" lon="-5.756923">
        <ele>631.925</ele>
        <time>2021-10-13T15:40:31Z</time>
      </trkpt>
      <trkpt lat="41.499813" lon="-5.756911">
        <ele>632.865</ele>
        <time>2021-10-13T15:40:32Z</time>
      </trkpt>
      <trkpt lat="41.499981" lon="-5.756862">
        <ele>632.888</ele>
        <time>2021-10-13T15:40:34Z</time>
      </trkpt>
      <trkpt lat="41.500060" lon="-5.756831">
        <ele>632.994</ele>
        <time>2021-10-13T15:40:35Z</time>
      </trkpt>
      <trkpt lat="41.500133" lon="-5.756802">
        <ele>633.283</ele>
        <time>2021-10-13T15:40:36Z</time>
      </trkpt>
      <trkpt lat="41.500267" lon="-5.756725">
        <ele>634.828</ele>
        <time>2021-10-13T15:40:38Z</time>
      </trkpt>
      <trkpt lat="41.500366" lon="-5.756570">
        <ele>635.124</ele>
        <time>2021-10-13T15:40:40Z</time>
      </trkpt>
      <trkpt lat="41.500414" lon="-5.756459">
        <ele>634.904</ele>
        <time>2021-10-13T15:40:41Z</time>
      </trkpt>
      <trkpt lat="41.500466" lon="-5.756337">
        <ele>634.414</ele>
        <time>2021-10-13T15:40:42Z</time>
      </trkpt>
      <trkpt lat="41.500565" lon="-5.756050">
        <ele>632.908</ele>
        <time>2021-10-13T15:40:44Z</time>
      </trkpt>
      <trkpt lat="41.500636" lon="-5.755740">
        <ele>631.640</ele>
        <time>2021-10-13T15:40:46Z</time>
      </trkpt>
      <trkpt lat="41.500670" lon="-5.755574">
        <ele>631.358</ele>
        <time>2021-10-13T15:40:47Z</time>
      </trkpt>
      <trkpt lat="41.500753" lon="-5.755257">
        <ele>631.015</ele>
        <time>2021-10-13T15:40:49Z</time>
      </trkpt>
      <trkpt lat="41.500803" lon="-5.755102">
        <ele>630.075</ele>
        <time>2021-10-13T15:40:50Z</time>
      </trkpt>
      <trkpt lat="41.500904" lon="-5.754811">
        <ele>630.368</ele>
        <time>2021-10-13T15:40:52Z</time>
      </trkpt>
      <trkpt lat="41.500984" lon="-5.754569">
        <ele>632.274</ele>
        <time>2021-10-13T15:40:54Z</time>
      </trkpt>
      <trkpt lat="41.501041" lon="-5.754411">
        <ele>631.993</ele>
        <time>2021-10-13T15:40:56Z</time>
      </trkpt>
      <trkpt lat="41.501062" lon="-5.754349">
        <ele>631.998</ele>
        <time>2021-10-13T15:40:58Z</time>
      </trkpt>
      <trkpt lat="41.501099" lon="-5.754236">
        <ele>632.348</ele>
        <time>2021-10-13T15:41:35Z</time>
      </trkpt>
      <trkpt lat="41.501124" lon="-5.754136">
        <ele>632.361</ele>
        <time>2021-10-13T15:41:36Z</time>
      </trkpt>
      <trkpt lat="41.501161" lon="-5.754014">
        <ele>632.317</ele>
        <time>2021-10-13T15:41:37Z</time>
      </trkpt>
      <trkpt lat="41.501203" lon="-5.753880">
        <ele>632.308</ele>
        <time>2021-10-13T15:41:38Z</time>
      </trkpt>
      <trkpt lat="41.501279" lon="-5.753662">
        <ele>632.352</ele>
        <time>2021-10-13T15:41:40Z</time>
      </trkpt>
      <trkpt lat="41.501364" lon="-5.753454">
        <ele>632.330</ele>
        <time>2021-10-13T15:41:42Z</time>
      </trkpt>
      <trkpt lat="41.501457" lon="-5.753276">
        <ele>632.227</ele>
        <time>2021-10-13T15:41:44Z</time>
      </trkpt>
      <trkpt lat="41.501557" lon="-5.753109">
        <ele>632.277</ele>
        <time>2021-10-13T15:41:46Z</time>
      </trkpt>
      <trkpt lat="41.501665" lon="-5.752949">
        <ele>632.280</ele>
        <time>2021-10-13T15:41:48Z</time>
      </trkpt>
      <trkpt lat="41.501728" lon="-5.752869">
        <ele>632.276</ele>
        <time>2021-10-13T15:41:49Z</time>
      </trkpt>
      <trkpt lat="41.501795" lon="-5.752791">
        <ele>632.275</ele>
        <time>2021-10-13T15:41:50Z</time>
      </trkpt>
      <trkpt lat="41.501922" lon="-5.752665">
        <ele>632.260</ele>
        <time>2021-10-13T15:41:52Z</time>
      </trkpt>
      <trkpt lat="41.501992" lon="-5.752610">
        <ele>632.253</ele>
        <time>2021-10-13T15:41:53Z</time>
      </trkpt>
      <trkpt lat="41.502106" lon="-5.752508">
        <ele>632.204</ele>
        <time>2021-10-13T15:41:55Z</time>
      </trkpt>
      <trkpt lat="41.502154" lon="-5.752457">
        <ele>632.214</ele>
        <time>2021-10-13T15:41:56Z</time>
      </trkpt>
      <trkpt lat="41.502234" lon="-5.752371">
        <ele>632.208</ele>
        <time>2021-10-13T15:41:58Z</time>
      </trkpt>
      <trkpt lat="41.502284" lon="-5.752323">
        <ele>632.253</ele>
        <time>2021-10-13T15:42:00Z</time>
      </trkpt>
      <trkpt lat="41.502331" lon="-5.752286">
        <ele>632.261</ele>
        <time>2021-10-13T15:42:03Z</time>
      </trkpt>
      <trkpt lat="41.502387" lon="-5.752258">
        <ele>632.278</ele>
        <time>2021-10-13T15:42:11Z</time>
      </trkpt>
      <trkpt lat="41.502432" lon="-5.752250">
        <ele>632.228</ele>
        <time>2021-10-13T15:42:12Z</time>
      </trkpt>
      <trkpt lat="41.502480" lon="-5.752270">
        <ele>632.241</ele>
        <time>2021-10-13T15:42:13Z</time>
      </trkpt>
      <trkpt lat="41.502538" lon="-5.752316">
        <ele>632.257</ele>
        <time>2021-10-13T15:42:14Z</time>
      </trkpt>
      <trkpt lat="41.502624" lon="-5.752444">
        <ele>632.236</ele>
        <time>2021-10-13T15:42:16Z</time>
      </trkpt>
      <trkpt lat="41.502695" lon="-5.752560">
        <ele>632.211</ele>
        <time>2021-10-13T15:42:18Z</time>
      </trkpt>
      <trkpt lat="41.502736" lon="-5.752634">
        <ele>632.232</ele>
        <time>2021-10-13T15:42:20Z</time>
      </trkpt>
      <trkpt lat="41.502786" lon="-5.752711">
        <ele>632.292</ele>
        <time>2021-10-13T15:42:22Z</time>
      </trkpt>
      <trkpt lat="41.502840" lon="-5.752797">
        <ele>632.211</ele>
        <time>2021-10-13T15:42:24Z</time>
      </trkpt>
      <trkpt lat="41.502874" lon="-5.752870">
        <ele>632.208</ele>
        <time>2021-10-13T15:42:26Z</time>
      </trkpt>
      <trkpt lat="41.502909" lon="-5.752936">
        <ele>632.231</ele>
        <time>2021-10-13T15:42:28Z</time>
      </trkpt>
      <trkpt lat="41.502946" lon="-5.752998">
        <ele>632.229</ele>
        <time>2021-10-13T15:42:30Z</time>
      </trkpt>
      <trkpt lat="41.502971" lon="-5.753051">
        <ele>632.246</ele>
        <time>2021-10-13T15:42:32Z</time>
      </trkpt>
      <trkpt lat="41.502965" lon="-5.752982">
        <ele>632.016</ele>
        <time>2021-10-13T15:44:05Z</time>
      </trkpt>
      <trkpt lat="41.502962" lon="-5.752921">
        <ele>632.049</ele>
        <time>2021-10-13T15:44:07Z</time>
      </trkpt>
      <trkpt lat="41.502911" lon="-5.752916">
        <ele>631.975</ele>
        <time>2021-10-13T15:44:11Z</time>
      </trkpt>
      <trkpt lat="41.502867" lon="-5.752842">
        <ele>632.374</ele>
        <time>2021-10-13T15:50:19Z</time>
      </trkpt>
      <trkpt lat="41.502822" lon="-5.752777">
        <ele>632.569</ele>
        <time>2021-10-13T15:50:20Z</time>
      </trkpt>
      <trkpt lat="41.502736" lon="-5.752627">
        <ele>632.543</ele>
        <time>2021-10-13T15:50:22Z</time>
      </trkpt>
      <trkpt lat="41.502689" lon="-5.752543">
        <ele>632.564</ele>
        <time>2021-10-13T15:50:23Z</time>
      </trkpt>
      <trkpt lat="41.502599" lon="-5.752428">
        <ele>632.510</ele>
        <time>2021-10-13T15:50:25Z</time>
      </trkpt>
      <trkpt lat="41.502566" lon="-5.752381">
        <ele>632.508</ele>
        <time>2021-10-13T15:50:26Z</time>
      </trkpt>
      <trkpt lat="41.502537" lon="-5.752334">
        <ele>632.552</ele>
        <time>2021-10-13T15:50:28Z</time>
      </trkpt>
      <trkpt lat="41.502495" lon="-5.752274">
        <ele>632.430</ele>
        <time>2021-10-13T15:51:33Z</time>
      </trkpt>
      <trkpt lat="41.502467" lon="-5.752177">
        <ele>632.467</ele>
        <time>2021-10-13T15:51:35Z</time>
      </trkpt>
      <trkpt lat="41.502473" lon="-5.752093">
        <ele>632.487</ele>
        <time>2021-10-13T15:51:37Z</time>
      </trkpt>
      <trkpt lat="41.502521" lon="-5.752023">
        <ele>632.480</ele>
        <time>2021-10-13T15:51:44Z</time>
      </trkpt>
      <trkpt lat="41.502600" lon="-5.751864">
        <ele>632.346</ele>
        <time>2021-10-13T15:51:46Z</time>
      </trkpt>
      <trkpt lat="41.502650" lon="-5.751781">
        <ele>632.375</ele>
        <time>2021-10-13T15:51:47Z</time>
      </trkpt>
      <trkpt lat="41.502712" lon="-5.751669">
        <ele>632.320</ele>
        <time>2021-10-13T15:51:49Z</time>
      </trkpt>
      <trkpt lat="41.502735" lon="-5.751592">
        <ele>632.363</ele>
        <time>2021-10-13T15:51:51Z</time>
      </trkpt>
      <trkpt lat="41.502683" lon="-5.751576">
        <ele>632.344</ele>
        <time>2021-10-13T15:51:53Z</time>
      </trkpt>
      <trkpt lat="41.502632" lon="-5.751582">
        <ele>632.318</ele>
        <time>2021-10-13T15:51:54Z</time>
      </trkpt>
      <trkpt lat="41.502571" lon="-5.751587">
        <ele>632.308</ele>
        <time>2021-10-13T15:51:55Z</time>
      </trkpt>
      <trkpt lat="41.502495" lon="-5.751591">
        <ele>632.314</ele>
        <time>2021-10-13T15:51:56Z</time>
      </trkpt>
      <trkpt lat="41.502336" lon="-5.751588">
        <ele>632.262</ele>
        <time>2021-10-13T15:51:58Z</time>
      </trkpt>
      <trkpt lat="41.502274" lon="-5.751586">
        <ele>632.219</ele>
        <time>2021-10-13T15:51:59Z</time>
      </trkpt>
      <trkpt lat="41.502213" lon="-5.751590">
        <ele>632.289</ele>
        <time>2021-10-13T15:52:01Z</time>
      </trkpt>
      <trkpt lat="41.502170" lon="-5.751610">
        <ele>632.382</ele>
        <time>2021-10-13T15:52:03Z</time>
      </trkpt>
      <trkpt lat="41.502125" lon="-5.751625">
        <ele>632.378</ele>
        <time>2021-10-13T15:52:07Z</time>
      </trkpt>
      <trkpt lat="41.502087" lon="-5.751659">
        <ele>647.547</ele>
        <time>2021-10-13T16:33:52Z</time>
      </trkpt>
      <trkpt lat="41.502059" lon="-5.751608">
        <ele>663.212</ele>
        <time>2021-10-13T16:36:20Z</time>
      </trkpt>
      <trkpt lat="41.502022" lon="-5.751501">
        <ele>687.953</ele>
        <time>2021-10-13T16:36:22Z</time>
      </trkpt>
      <trkpt lat="41.501985" lon="-5.751392">
        <ele>687.904</ele>
        <time>2021-10-13T16:36:24Z</time>
      </trkpt>
      <trkpt lat="41.501938" lon="-5.751344">
        <ele>688.014</ele>
        <time>2021-10-13T16:36:26Z</time>
      </trkpt>
      <trkpt lat="41.501890" lon="-5.751363">
        <ele>687.708</ele>
        <time>2021-10-13T16:36:27Z</time>
      </trkpt>
      <trkpt lat="41.501840" lon="-5.751382">
        <ele>687.653</ele>
        <time>2021-10-13T16:36:31Z</time>
      </trkpt>
      <trkpt lat="41.501784" lon="-5.751407">
        <ele>687.631</ele>
        <time>2021-10-13T16:36:39Z</time>
      </trkpt>
      <trkpt lat="41.501696" lon="-5.751438">
        <ele>687.618</ele>
        <time>2021-10-13T16:36:41Z</time>
      </trkpt>
      <trkpt lat="41.501590" lon="-5.751485">
        <ele>687.538</ele>
        <time>2021-10-13T16:36:43Z</time>
      </trkpt>
      <trkpt lat="41.501537" lon="-5.751513">
        <ele>687.491</ele>
        <time>2021-10-13T16:36:44Z</time>
      </trkpt>
      <trkpt lat="41.501469" lon="-5.751558">
        <ele>687.437</ele>
        <time>2021-10-13T16:36:46Z</time>
      </trkpt>
      <trkpt lat="41.501413" lon="-5.751616">
        <ele>687.466</ele>
        <time>2021-10-13T16:36:48Z</time>
      </trkpt>
      <trkpt lat="41.501371" lon="-5.751667">
        <ele>687.461</ele>
        <time>2021-10-13T16:36:50Z</time>
      </trkpt>
      <trkpt lat="41.501324" lon="-5.751729">
        <ele>687.427</ele>
        <time>2021-10-13T16:36:52Z</time>
      </trkpt>
      <trkpt lat="41.501273" lon="-5.751811">
        <ele>687.368</ele>
        <time>2021-10-13T16:36:54Z</time>
      </trkpt>
      <trkpt lat="41.501224" lon="-5.751886">
        <ele>687.314</ele>
        <time>2021-10-13T16:36:56Z</time>
      </trkpt>
      <trkpt lat="41.501187" lon="-5.751950">
        <ele>687.308</ele>
        <time>2021-10-13T16:36:58Z</time>
      </trkpt>
      <trkpt lat="41.501164" lon="-5.752006">
        <ele>687.310</ele>
        <time>2021-10-13T16:36:59Z</time>
      </trkpt>
      <trkpt lat="41.501104" lon="-5.752106">
        <ele>687.348</ele>
        <time>2021-10-13T16:37:01Z</time>
      </trkpt>
      <trkpt lat="41.501067" lon="-5.752153">
        <ele>687.315</ele>
        <time>2021-10-13T16:37:02Z</time>
      </trkpt>
      <trkpt lat="41.500984" lon="-5.752241">
        <ele>687.395</ele>
        <time>2021-10-13T16:37:04Z</time>
      </trkpt>
      <trkpt lat="41.500892" lon="-5.752321">
        <ele>687.318</ele>
        <time>2021-10-13T16:37:06Z</time>
      </trkpt>
      <trkpt lat="41.500806" lon="-5.752398">
        <ele>687.394</ele>
        <time>2021-10-13T16:37:08Z</time>
      </trkpt>
      <trkpt lat="41.500747" lon="-5.752390">
        <ele>687.363</ele>
        <time>2021-10-13T16:37:10Z</time>
      </trkpt>
      <trkpt lat="41.500691" lon="-5.752408">
        <ele>687.388</ele>
        <time>2021-10-13T16:37:11Z</time>
      </trkpt>
      <trkpt lat="41.500640" lon="-5.752399">
        <ele>687.354</ele>
        <time>2021-10-13T16:37:13Z</time>
      </trkpt>
      <trkpt lat="41.500601" lon="-5.752356">
        <ele>687.356</ele>
        <time>2021-10-13T16:37:14Z</time>
      </trkpt>
      <trkpt lat="41.500560" lon="-5.752315">
        <ele>687.311</ele>
        <time>2021-10-13T16:37:15Z</time>
      </trkpt>
      <trkpt lat="41.500507" lon="-5.752280">
        <ele>687.308</ele>
        <time>2021-10-13T16:37:17Z</time>
      </trkpt>
      <trkpt lat="41.500460" lon="-5.752263">
        <ele>687.373</ele>
        <time>2021-10-13T16:37:19Z</time>
      </trkpt>
      <trkpt lat="41.500412" lon="-5.752247">
        <ele>687.351</ele>
        <time>2021-10-13T16:37:23Z</time>
      </trkpt>
      <trkpt lat="41.500400" lon="-5.752306">
        <ele>687.348</ele>
        <time>2021-10-13T16:37:26Z</time>
      </trkpt>
      <trkpt lat="41.500416" lon="-5.752382">
        <ele>687.368</ele>
        <time>2021-10-13T16:37:27Z</time>
      </trkpt>
      <trkpt lat="41.500428" lon="-5.752443">
        <ele>687.311</ele>
        <time>2021-10-13T16:37:29Z</time>
      </trkpt>
      <trkpt lat="41.500434" lon="-5.752568">
        <ele>687.377</ele>
        <time>2021-10-13T16:37:30Z</time>
      </trkpt>
      <trkpt lat="41.500434" lon="-5.752664">
        <ele>687.396</ele>
        <time>2021-10-13T16:37:31Z</time>
      </trkpt>
      <trkpt lat="41.500422" lon="-5.752765">
        <ele>687.341</ele>
        <time>2021-10-13T16:37:32Z</time>
      </trkpt>
      <trkpt lat="41.500377" lon="-5.752953">
        <ele>687.428</ele>
        <time>2021-10-13T16:37:34Z</time>
      </trkpt>
      <trkpt lat="41.500346" lon="-5.753100">
        <ele>687.489</ele>
        <time>2021-10-13T16:37:36Z</time>
      </trkpt>
      <trkpt lat="41.500336" lon="-5.753160">
        <ele>687.417</ele>
        <time>2021-10-13T16:37:37Z</time>
      </trkpt>
      <trkpt lat="41.500291" lon="-5.753224">
        <ele>668.308</ele>
        <time>2021-10-13T16:37:38Z</time>
      </trkpt>
      <trkpt lat="41.500250" lon="-5.753274">
        <ele>649.820</ele>
        <time>2021-10-13T16:37:40Z</time>
      </trkpt>
      <trkpt lat="41.500183" lon="-5.753323">
        <ele>648.828</ele>
        <time>2021-10-13T16:37:41Z</time>
      </trkpt>
      <trkpt lat="41.500107" lon="-5.753353">
        <ele>648.585</ele>
        <time>2021-10-13T16:37:43Z</time>
      </trkpt>
      <trkpt lat="41.500061" lon="-5.753375">
        <ele>648.265</ele>
        <time>2021-10-13T16:37:44Z</time>
      </trkpt>
      <trkpt lat="41.500008" lon="-5.753416">
        <ele>648.818</ele>
        <time>2021-10-13T16:37:46Z</time>
      </trkpt>
      <trkpt lat="41.499902" lon="-5.753506">
        <ele>649.314</ele>
        <time>2021-10-13T16:37:48Z</time>
      </trkpt>
      <trkpt lat="41.499792" lon="-5.753625">
        <ele>649.363</ele>
        <time>2021-10-13T16:37:50Z</time>
      </trkpt>
      <trkpt lat="41.499683" lon="-5.753728">
        <ele>649.138</ele>
        <time>2021-10-13T16:37:52Z</time>
      </trkpt>
      <trkpt lat="41.499587" lon="-5.753817">
        <ele>648.622</ele>
        <time>2021-10-13T16:37:54Z</time>
      </trkpt>
      <trkpt lat="41.499542" lon="-5.753860">
        <ele>648.962</ele>
        <time>2021-10-13T16:37:55Z</time>
      </trkpt>
      <trkpt lat="41.499500" lon="-5.753900">
        <ele>648.608</ele>
        <time>2021-10-13T16:37:56Z</time>
      </trkpt>
      <trkpt lat="41.499458" lon="-5.753963">
        <ele>647.108</ele>
        <time>2021-10-13T16:37:58Z</time>
      </trkpt>
      <trkpt lat="41.499413" lon="-5.753984">
        <ele>646.470</ele>
        <time>2021-10-13T16:38:00Z</time>
      </trkpt>
      <trkpt lat="41.499371" lon="-5.753928">
        <ele>646.498</ele>
        <time>2021-10-13T16:38:02Z</time>
      </trkpt>
      <trkpt lat="41.499348" lon="-5.753868">
        <ele>646.475</ele>
        <time>2021-10-13T16:38:04Z</time>
      </trkpt>
      <trkpt lat="41.499317" lon="-5.753792">
        <ele>646.335</ele>
        <time>2021-10-13T16:38:05Z</time>
      </trkpt>
      <trkpt lat="41.499290" lon="-5.753731">
        <ele>646.348</ele>
        <time>2021-10-13T16:38:06Z</time>
      </trkpt>
      <trkpt lat="41.499268" lon="-5.753672">
        <ele>646.384</ele>
        <time>2021-10-13T16:38:07Z</time>
      </trkpt>
      <trkpt lat="41.499252" lon="-5.753608">
        <ele>646.143</ele>
        <time>2021-10-13T16:38:08Z</time>
      </trkpt>
      <trkpt lat="41.499227" lon="-5.753486">
        <ele>646.228</ele>
        <time>2021-10-13T16:38:10Z</time>
      </trkpt>
      <trkpt lat="41.499216" lon="-5.753334">
        <ele>649.076</ele>
        <time>2021-10-13T16:38:12Z</time>
      </trkpt>
      <trkpt lat="41.499235" lon="-5.753150">
        <ele>649.990</ele>
        <time>2021-10-13T16:38:14Z</time>
      </trkpt>
      <trkpt lat="41.499255" lon="-5.753005">
        <ele>650.019</ele>
        <time>2021-10-13T16:38:16Z</time>
      </trkpt>
      <trkpt lat="41.499261" lon="-5.752906">
        <ele>650.908</ele>
        <time>2021-10-13T16:38:18Z</time>
      </trkpt>
      <trkpt lat="41.499263" lon="-5.752820">
        <ele>651.325</ele>
        <time>2021-10-13T16:38:20Z</time>
      </trkpt>
      <trkpt lat="41.499266" lon="-5.752755">
        <ele>651.533</ele>
        <time>2021-10-13T16:38:22Z</time>
      </trkpt>
      <trkpt lat="41.499279" lon="-5.752693">
        <ele>652.470</ele>
        <time>2021-10-13T16:38:27Z</time>
      </trkpt>
      <trkpt lat="41.499282" lon="-5.752623">
        <ele>653.820</ele>
        <time>2021-10-13T16:38:31Z</time>
      </trkpt>
      <trkpt lat="41.499298" lon="-5.752567">
        <ele>655.093</ele>
        <time>2021-10-13T16:39:07Z</time>
      </trkpt>
      <trkpt lat="41.499341" lon="-5.752543">
        <ele>655.049</ele>
        <time>2021-10-13T16:39:21Z</time>
      </trkpt>
      <trkpt lat="41.499355" lon="-5.752485">
        <ele>655.028</ele>
        <time>2021-10-13T16:39:23Z</time>
      </trkpt>
      <trkpt lat="41.499335" lon="-5.752546">
        <ele>654.713</ele>
        <time>2021-10-13T16:40:22Z</time>
      </trkpt>
      <trkpt lat="41.499280" lon="-5.752556">
        <ele>654.741</ele>
        <time>2021-10-13T16:40:25Z</time>
      </trkpt>
      <trkpt lat="41.499355" lon="-5.752528">
        <ele>654.781</ele>
        <time>2021-10-13T16:43:51Z</time>
      </trkpt>
      <trkpt lat="41.499411" lon="-5.752489">
        <ele>654.709</ele>
        <time>2021-10-13T16:43:52Z</time>
      </trkpt>
      <trkpt lat="41.499456" lon="-5.752452">
        <ele>654.708</ele>
        <time>2021-10-13T16:43:53Z</time>
      </trkpt>
      <trkpt lat="41.499515" lon="-5.752402">
        <ele>654.722</ele>
        <time>2021-10-13T16:43:55Z</time>
      </trkpt>
      <trkpt lat="41.499553" lon="-5.752367">
        <ele>654.950</ele>
        <time>2021-10-13T16:43:56Z</time>
      </trkpt>
      <trkpt lat="41.499634" lon="-5.752298">
        <ele>654.917</ele>
        <time>2021-10-13T16:43:58Z</time>
      </trkpt>
      <trkpt lat="41.499676" lon="-5.752248">
        <ele>654.957</ele>
        <time>2021-10-13T16:44:00Z</time>
      </trkpt>
      <trkpt lat="41.499753" lon="-5.752207">
        <ele>654.970</ele>
        <time>2021-10-13T16:44:02Z</time>
      </trkpt>
      <trkpt lat="41.499803" lon="-5.752187">
        <ele>654.996</ele>
        <time>2021-10-13T16:44:03Z</time>
      </trkpt>
      <trkpt lat="41.499868" lon="-5.752136">
        <ele>654.965</ele>
        <time>2021-10-13T16:44:05Z</time>
      </trkpt>
      <trkpt lat="41.499877" lon="-5.752066">
        <ele>654.930</ele>
        <time>2021-10-13T16:44:06Z</time>
      </trkpt>
      <trkpt lat="41.499878" lon="-5.751997">
        <ele>654.953</ele>
        <time>2021-10-13T16:44:07Z</time>
      </trkpt>
      <trkpt lat="41.499875" lon="-5.751910">
        <ele>654.904</ele>
        <time>2021-10-13T16:44:09Z</time>
      </trkpt>
      <trkpt lat="41.499876" lon="-5.751813">
        <ele>654.914</ele>
        <time>2021-10-13T16:44:10Z</time>
      </trkpt>
      <trkpt lat="41.499889" lon="-5.751731">
        <ele>654.908</ele>
        <time>2021-10-13T16:44:12Z</time>
      </trkpt>
      <trkpt lat="41.499903" lon="-5.751660">
        <ele>654.983</ele>
        <time>2021-10-13T16:44:14Z</time>
      </trkpt>
      <trkpt lat="41.499935" lon="-5.751589">
        <ele>654.921</ele>
        <time>2021-10-13T16:44:15Z</time>
      </trkpt>
      <trkpt lat="41.499982" lon="-5.751536">
        <ele>654.978</ele>
        <time>2021-10-13T16:44:17Z</time>
      </trkpt>
      <trkpt lat="41.500027" lon="-5.751477">
        <ele>654.998</ele>
        <time>2021-10-13T16:44:19Z</time>
      </trkpt>
      <trkpt lat="41.500077" lon="-5.751428">
        <ele>654.981</ele>
        <time>2021-10-13T16:44:21Z</time>
      </trkpt>
      <trkpt lat="41.500131" lon="-5.751366">
        <ele>654.927</ele>
        <time>2021-10-13T16:44:23Z</time>
      </trkpt>
      <trkpt lat="41.500176" lon="-5.751306">
        <ele>654.986</ele>
        <time>2021-10-13T16:44:24Z</time>
      </trkpt>
      <trkpt lat="41.500216" lon="-5.751249">
        <ele>654.911</ele>
        <time>2021-10-13T16:44:26Z</time>
      </trkpt>
      <trkpt lat="41.500249" lon="-5.751192">
        <ele>654.981</ele>
        <time>2021-10-13T16:44:29Z</time>
      </trkpt>
      <trkpt lat="41.500277" lon="-5.751112">
        <ele>654.961</ele>
        <time>2021-10-13T16:44:31Z</time>
      </trkpt>
      <trkpt lat="41.500293" lon="-5.751049">
        <ele>654.917</ele>
        <time>2021-10-13T16:44:32Z</time>
      </trkpt>
      <trkpt lat="41.500305" lon="-5.750987">
        <ele>654.908</ele>
        <time>2021-10-13T16:44:33Z</time>
      </trkpt>
      <trkpt lat="41.500320" lon="-5.750919">
        <ele>654.986</ele>
        <time>2021-10-13T16:44:34Z</time>
      </trkpt>
      <trkpt lat="41.500350" lon="-5.750840">
        <ele>654.974</ele>
        <time>2021-10-13T16:44:36Z</time>
      </trkpt>
      <trkpt lat="41.500369" lon="-5.750782">
        <ele>654.941</ele>
        <time>2021-10-13T16:44:38Z</time>
      </trkpt>
      <trkpt lat="41.500397" lon="-5.750718">
        <ele>654.971</ele>
        <time>2021-10-13T16:44:40Z</time>
      </trkpt>
      <trkpt lat="41.500420" lon="-5.750658">
        <ele>654.994</ele>
        <time>2021-10-13T16:44:42Z</time>
      </trkpt>
      <trkpt lat="41.500389" lon="-5.750600">
        <ele>654.910</ele>
        <time>2021-10-13T16:44:44Z</time>
      </trkpt>
      <trkpt lat="41.500346" lon="-5.750571">
        <ele>654.919</ele>
        <time>2021-10-13T16:44:45Z</time>
      </trkpt>
      <trkpt lat="41.500325" lon="-5.750503">
        <ele>654.934</ele>
        <time>2021-10-13T16:44:48Z</time>
      </trkpt>
      <trkpt lat="41.500365" lon="-5.750377">
        <ele>654.956</ele>
        <time>2021-10-13T16:44:50Z</time>
      </trkpt>
      <trkpt lat="41.500427" lon="-5.750268">
        <ele>638.359</ele>
        <time>2021-10-13T16:44:52Z</time>
      </trkpt>
      <trkpt lat="41.500497" lon="-5.750160">
        <ele>635.714</ele>
        <time>2021-10-13T16:44:54Z</time>
      </trkpt>
      <trkpt lat="41.500543" lon="-5.750075">
        <ele>634.508</ele>
        <time>2021-10-13T16:44:56Z</time>
      </trkpt>
      <trkpt lat="41.500551" lon="-5.749992">
        <ele>634.073</ele>
        <time>2021-10-13T16:44:58Z</time>
      </trkpt>
      <trkpt lat="41.500529" lon="-5.749889">
        <ele>633.571</ele>
        <time>2021-10-13T16:45:00Z</time>
      </trkpt>
      <trkpt lat="41.500502" lon="-5.749763">
        <ele>632.978</ele>
        <time>2021-10-13T16:45:02Z</time>
      </trkpt>
      <trkpt lat="41.500473" lon="-5.749624">
        <ele>631.858</ele>
        <time>2021-10-13T16:45:04Z</time>
      </trkpt>
      <trkpt lat="41.500459" lon="-5.749550">
        <ele>631.021</ele>
        <time>2021-10-13T16:45:05Z</time>
      </trkpt>
      <trkpt lat="41.500445" lon="-5.749477">
        <ele>630.397</ele>
        <time>2021-10-13T16:45:06Z</time>
      </trkpt>
      <trkpt lat="41.500418" lon="-5.749331">
        <ele>629.836</ele>
        <time>2021-10-13T16:45:08Z</time>
      </trkpt>
      <trkpt lat="41.500389" lon="-5.749206">
        <ele>629.861</ele>
        <time>2021-10-13T16:45:10Z</time>
      </trkpt>
      <trkpt lat="41.500372" lon="-5.749148">
        <ele>629.719</ele>
        <time>2021-10-13T16:45:11Z</time>
      </trkpt>
      <trkpt lat="41.500330" lon="-5.749087">
        <ele>628.709</ele>
        <time>2021-10-13T16:45:13Z</time>
      </trkpt>
      <trkpt lat="41.500299" lon="-5.749042">
        <ele>628.619</ele>
        <time>2021-10-13T16:45:15Z</time>
      </trkpt>
      <trkpt lat="41.500267" lon="-5.749097">
        <ele>628.108</ele>
        <time>2021-10-13T16:45:27Z</time>
      </trkpt>
      <trkpt lat="41.500232" lon="-5.749182">
        <ele>627.989</ele>
        <time>2021-10-13T16:45:28Z</time>
      </trkpt>
      <trkpt lat="41.500161" lon="-5.749397">
        <ele>627.937</ele>
        <time>2021-10-13T16:45:30Z</time>
      </trkpt>
      <trkpt lat="41.500067" lon="-5.749637">
        <ele>627.924</ele>
        <time>2021-10-13T16:45:32Z</time>
      </trkpt>
      <trkpt lat="41.499987" lon="-5.749854">
        <ele>627.994</ele>
        <time>2021-10-13T16:45:34Z</time>
      </trkpt>
      <trkpt lat="41.499949" lon="-5.749953">
        <ele>627.987</ele>
        <time>2021-10-13T16:45:35Z</time>
      </trkpt>
      <trkpt lat="41.499871" lon="-5.750158">
        <ele>627.973</ele>
        <time>2021-10-13T16:45:37Z</time>
      </trkpt>
      <trkpt lat="41.499824" lon="-5.750273">
        <ele>627.932</ele>
        <time>2021-10-13T16:45:38Z</time>
      </trkpt>
      <trkpt lat="41.499727" lon="-5.750509">
        <ele>627.967</ele>
        <time>2021-10-13T16:45:40Z</time>
      </trkpt>
      <trkpt lat="41.499674" lon="-5.750633">
        <ele>627.921</ele>
        <time>2021-10-13T16:45:41Z</time>
      </trkpt>
      <trkpt lat="41.499619" lon="-5.750753">
        <ele>627.941</ele>
        <time>2021-10-13T16:45:42Z</time>
      </trkpt>
      <trkpt lat="41.499489" lon="-5.750983">
        <ele>627.905</ele>
        <time>2021-10-13T16:45:44Z</time>
      </trkpt>
      <trkpt lat="41.499360" lon="-5.751195">
        <ele>627.908</ele>
        <time>2021-10-13T16:45:46Z</time>
      </trkpt>
      <trkpt lat="41.499234" lon="-5.751402">
        <ele>627.950</ele>
        <time>2021-10-13T16:45:48Z</time>
      </trkpt>
      <trkpt lat="41.499109" lon="-5.751609">
        <ele>627.958</ele>
        <time>2021-10-13T16:45:50Z</time>
      </trkpt>
      <trkpt lat="41.498987" lon="-5.751812">
        <ele>627.995</ele>
        <time>2021-10-13T16:45:52Z</time>
      </trkpt>
      <trkpt lat="41.498923" lon="-5.751916">
        <ele>627.945</ele>
        <time>2021-10-13T16:45:53Z</time>
      </trkpt>
      <trkpt lat="41.498789" lon="-5.752132">
        <ele>627.918</ele>
        <time>2021-10-13T16:45:55Z</time>
      </trkpt>
      <trkpt lat="41.498721" lon="-5.752249">
        <ele>627.974</ele>
        <time>2021-10-13T16:45:56Z</time>
      </trkpt>
      <trkpt lat="41.498590" lon="-5.752482">
        <ele>627.943</ele>
        <time>2021-10-13T16:45:58Z</time>
      </trkpt>
      <trkpt lat="41.498524" lon="-5.752605">
        <ele>627.988</ele>
        <time>2021-10-13T16:45:59Z</time>
      </trkpt>
      <trkpt lat="41.498402" lon="-5.752870">
        <ele>627.973</ele>
        <time>2021-10-13T16:46:01Z</time>
      </trkpt>
      <trkpt lat="41.498345" lon="-5.753026">
        <ele>627.985</ele>
        <time>2021-10-13T16:46:02Z</time>
      </trkpt>
      <trkpt lat="41.498277" lon="-5.753363">
        <ele>627.913</ele>
        <time>2021-10-13T16:46:04Z</time>
      </trkpt>
      <trkpt lat="41.498280" lon="-5.753725">
        <ele>627.908</ele>
        <time>2021-10-13T16:46:06Z</time>
      </trkpt>
      <trkpt lat="41.498292" lon="-5.754048">
        <ele>627.915</ele>
        <time>2021-10-13T16:46:08Z</time>
      </trkpt>
      <trkpt lat="41.498300" lon="-5.754300">
        <ele>627.923</ele>
        <time>2021-10-13T16:46:10Z</time>
      </trkpt>
      <trkpt lat="41.498303" lon="-5.754414">
        <ele>627.990</ele>
        <time>2021-10-13T16:46:11Z</time>
      </trkpt>
      <trkpt lat="41.498306" lon="-5.754528">
        <ele>627.990</ele>
        <time>2021-10-13T16:46:12Z</time>
      </trkpt>
      <trkpt lat="41.498313" lon="-5.754794">
        <ele>627.943</ele>
        <time>2021-10-13T16:46:14Z</time>
      </trkpt>
      <trkpt lat="41.498321" lon="-5.755084">
        <ele>627.919</ele>
        <time>2021-10-13T16:46:16Z</time>
      </trkpt>
      <trkpt lat="41.498328" lon="-5.755235">
        <ele>627.998</ele>
        <time>2021-10-13T16:46:17Z</time>
      </trkpt>
      <trkpt lat="41.498362" lon="-5.755494">
        <ele>627.923</ele>
        <time>2021-10-13T16:46:19Z</time>
      </trkpt>
      <trkpt lat="41.498391" lon="-5.755611">
        <ele>627.932</ele>
        <time>2021-10-13T16:46:20Z</time>
      </trkpt>
      <trkpt lat="41.498456" lon="-5.755835">
        <ele>627.992</ele>
        <time>2021-10-13T16:46:22Z</time>
      </trkpt>
      <trkpt lat="41.498529" lon="-5.756067">
        <ele>627.911</ele>
        <time>2021-10-13T16:46:24Z</time>
      </trkpt>
      <trkpt lat="41.498616" lon="-5.756302">
        <ele>630.508</ele>
        <time>2021-10-13T16:46:26Z</time>
      </trkpt>
      <trkpt lat="41.498728" lon="-5.756521">
        <ele>630.661</ele>
        <time>2021-10-13T16:46:28Z</time>
      </trkpt>
      <trkpt lat="41.498802" lon="-5.756618">
        <ele>630.839</ele>
        <time>2021-10-13T16:46:29Z</time>
      </trkpt>
      <trkpt lat="41.498977" lon="-5.756768">
        <ele>631.896</ele>
        <time>2021-10-13T16:46:31Z</time>
      </trkpt>
      <trkpt lat="41.499076" lon="-5.756818">
        <ele>631.546</ele>
        <time>2021-10-13T16:46:32Z</time>
      </trkpt>
      <trkpt lat="41.499277" lon="-5.756887">
        <ele>631.479</ele>
        <time>2021-10-13T16:46:34Z</time>
      </trkpt>
      <trkpt lat="41.499502" lon="-5.756935">
        <ele>630.765</ele>
        <time>2021-10-13T16:46:36Z</time>
      </trkpt>
      <trkpt lat="41.499616" lon="-5.756939">
        <ele>629.594</ele>
        <time>2021-10-13T16:46:37Z</time>
      </trkpt>
      <trkpt lat="41.499721" lon="-5.756930">
        <ele>629.029</ele>
        <time>2021-10-13T16:46:38Z</time>
      </trkpt>
      <trkpt lat="41.499903" lon="-5.756889">
        <ele>629.243</ele>
        <time>2021-10-13T16:46:40Z</time>
      </trkpt>
      <trkpt lat="41.500069" lon="-5.756828">
        <ele>629.964</ele>
        <time>2021-10-13T16:46:42Z</time>
      </trkpt>
      <trkpt lat="41.500145" lon="-5.756796">
        <ele>630.010</ele>
        <time>2021-10-13T16:46:43Z</time>
      </trkpt>
      <trkpt lat="41.500216" lon="-5.756757">
        <ele>630.508</ele>
        <time>2021-10-13T16:46:44Z</time>
      </trkpt>
      <trkpt lat="41.500316" lon="-5.756637">
        <ele>629.922</ele>
        <time>2021-10-13T16:46:46Z</time>
      </trkpt>
      <trkpt lat="41.500394" lon="-5.756462">
        <ele>629.360</ele>
        <time>2021-10-13T16:46:48Z</time>
      </trkpt>
      <trkpt lat="41.500435" lon="-5.756384">
        <ele>629.447</ele>
        <time>2021-10-13T16:46:49Z</time>
      </trkpt>
      <trkpt lat="41.500469" lon="-5.756313">
        <ele>629.397</ele>
        <time>2021-10-13T16:46:50Z</time>
      </trkpt>
      <trkpt lat="41.500501" lon="-5.756196">
        <ele>629.510</ele>
        <time>2021-10-13T16:46:52Z</time>
      </trkpt>
      <trkpt lat="41.500515" lon="-5.756118">
        <ele>629.616</ele>
        <time>2021-10-13T16:46:54Z</time>
      </trkpt>
      <trkpt lat="41.500534" lon="-5.756043">
        <ele>629.475</ele>
        <time>2021-10-13T16:46:56Z</time>
      </trkpt>
      <trkpt lat="41.500574" lon="-5.755964">
        <ele>629.130</ele>
        <time>2021-10-13T16:46:59Z</time>
      </trkpt>
      <trkpt lat="41.500614" lon="-5.755931">
        <ele>627.916</ele>
        <time>2021-10-13T16:47:01Z</time>
      </trkpt>
      <trkpt lat="41.500601" lon="-5.755841">
        <ele>627.976</ele>
        <time>2021-10-13T16:47:32Z</time>
      </trkpt>
      <trkpt lat="41.500633" lon="-5.755713">
        <ele>627.913</ele>
        <time>2021-10-13T16:47:34Z</time>
      </trkpt>
      <trkpt lat="41.500709" lon="-5.755458">
        <ele>627.908</ele>
        <time>2021-10-13T16:47:36Z</time>
      </trkpt>
      <trkpt lat="41.500802" lon="-5.755178">
        <ele>627.939</ele>
        <time>2021-10-13T16:47:38Z</time>
      </trkpt>
      <trkpt lat="41.500873" lon="-5.754955">
        <ele>627.927</ele>
        <time>2021-10-13T16:47:40Z</time>
      </trkpt>
      <trkpt lat="41.500902" lon="-5.754857">
        <ele>627.934</ele>
        <time>2021-10-13T16:47:41Z</time>
      </trkpt>
      <trkpt lat="41.500924" lon="-5.754769">
        <ele>627.964</ele>
        <time>2021-10-13T16:47:42Z</time>
      </trkpt>
      <trkpt lat="41.500980" lon="-5.754583">
        <ele>627.967</ele>
        <time>2021-10-13T16:47:44Z</time>
      </trkpt>
      <trkpt lat="41.501043" lon="-5.754377">
        <ele>627.933</ele>
        <time>2021-10-13T16:47:46Z</time>
      </trkpt>
      <trkpt lat="41.501070" lon="-5.754283">
        <ele>627.912</ele>
        <time>2021-10-13T16:47:47Z</time>
      </trkpt>
      <trkpt lat="41.501097" lon="-5.754192">
        <ele>627.987</ele>
        <time>2021-10-13T16:47:48Z</time>
      </trkpt>
      <trkpt lat="41.501162" lon="-5.753991">
        <ele>627.959</ele>
        <time>2021-10-13T16:47:50Z</time>
      </trkpt>
      <trkpt lat="41.501227" lon="-5.753785">
        <ele>627.903</ele>
        <time>2021-10-13T16:47:52Z</time>
      </trkpt>
      <trkpt lat="41.501264" lon="-5.753673">
        <ele>627.923</ele>
        <time>2021-10-13T16:47:53Z</time>
      </trkpt>
      <trkpt lat="41.501351" lon="-5.753455">
        <ele>627.908</ele>
        <time>2021-10-13T16:47:55Z</time>
      </trkpt>
      <trkpt lat="41.501404" lon="-5.753349">
        <ele>627.933</ele>
        <time>2021-10-13T16:47:56Z</time>
      </trkpt>
      <trkpt lat="41.501516" lon="-5.753143">
        <ele>627.981</ele>
        <time>2021-10-13T16:47:58Z</time>
      </trkpt>
      <trkpt lat="41.501580" lon="-5.753041">
        <ele>627.958</ele>
        <time>2021-10-13T16:47:59Z</time>
      </trkpt>
      <trkpt lat="41.501713" lon="-5.752864">
        <ele>627.928</ele>
        <time>2021-10-13T16:48:01Z</time>
      </trkpt>
      <trkpt lat="41.501786" lon="-5.752779">
        <ele>627.951</ele>
        <time>2021-10-13T16:48:02Z</time>
      </trkpt>
      <trkpt lat="41.501924" lon="-5.752639">
        <ele>627.917</ele>
        <time>2021-10-13T16:48:04Z</time>
      </trkpt>
      <trkpt lat="41.501988" lon="-5.752577">
        <ele>627.956</ele>
        <time>2021-10-13T16:48:05Z</time>
      </trkpt>
      <trkpt lat="41.502050" lon="-5.752520">
        <ele>627.951</ele>
        <time>2021-10-13T16:48:06Z</time>
      </trkpt>
      <trkpt lat="41.502112" lon="-5.752458">
        <ele>627.969</ele>
        <time>2021-10-13T16:48:07Z</time>
      </trkpt>
      <trkpt lat="41.502183" lon="-5.752386">
        <ele>627.904</ele>
        <time>2021-10-13T16:48:08Z</time>
      </trkpt>
      <trkpt lat="41.502329" lon="-5.752235">
        <ele>627.924</ele>
        <time>2021-10-13T16:48:10Z</time>
      </trkpt>
      <trkpt lat="41.502408" lon="-5.752150">
        <ele>627.908</ele>
        <time>2021-10-13T16:48:11Z</time>
      </trkpt>
      <trkpt lat="41.502489" lon="-5.752061">
        <ele>627.994</ele>
        <time>2021-10-13T16:48:12Z</time>
      </trkpt>
      <trkpt lat="41.502640" lon="-5.751877">
        <ele>627.942</ele>
        <time>2021-10-13T16:48:14Z</time>
      </trkpt>
      <trkpt lat="41.502767" lon="-5.751706">
        <ele>627.989</ele>
        <time>2021-10-13T16:48:16Z</time>
      </trkpt>
      <trkpt lat="41.502835" lon="-5.751616">
        <ele>627.969</ele>
        <time>2021-10-13T16:48:17Z</time>
      </trkpt>
      <trkpt lat="41.502980" lon="-5.751438">
        <ele>627.942</ele>
        <time>2021-10-13T16:48:19Z</time>
      </trkpt>
      <trkpt lat="41.503066" lon="-5.751347">
        <ele>627.998</ele>
        <time>2021-10-13T16:48:20Z</time>
      </trkpt>
      <trkpt lat="41.503245" lon="-5.751160">
        <ele>627.857</ele>
        <time>2021-10-13T16:48:22Z</time>
      </trkpt>
      <trkpt lat="41.503344" lon="-5.751053">
        <ele>627.812</ele>
        <time>2021-10-13T16:48:23Z</time>
      </trkpt>
      <trkpt lat="41.503558" lon="-5.750817">
        <ele>627.863</ele>
        <time>2021-10-13T16:48:25Z</time>
      </trkpt>
      <trkpt lat="41.503686" lon="-5.750688">
        <ele>627.844</ele>
        <time>2021-10-13T16:48:26Z</time>
      </trkpt>
      <trkpt lat="41.503917" lon="-5.750461">
        <ele>627.818</ele>
        <time>2021-10-13T16:48:28Z</time>
      </trkpt>
      <trkpt lat="41.504021" lon="-5.750357">
        <ele>633.008</ele>
        <time>2021-10-13T16:48:29Z</time>
      </trkpt>
      <trkpt lat="41.504204" lon="-5.750164">
        <ele>637.334</ele>
        <time>2021-10-13T16:48:31Z</time>
      </trkpt>
      <trkpt lat="41.504290" lon="-5.750070">
        <ele>637.132</ele>
        <time>2021-10-13T16:48:32Z</time>
      </trkpt>
      <trkpt lat="41.504447" lon="-5.749893">
        <ele>636.949</ele>
        <time>2021-10-13T16:48:34Z</time>
      </trkpt>
      <trkpt lat="41.504522" lon="-5.749805">
        <ele>637.259</ele>
        <time>2021-10-13T16:48:35Z</time>
      </trkpt>
      <trkpt lat="41.504590" lon="-5.749720">
        <ele>638.032</ele>
        <time>2021-10-13T16:48:36Z</time>
      </trkpt>
      <trkpt lat="41.504716" lon="-5.749556">
        <ele>637.838</ele>
        <time>2021-10-13T16:48:38Z</time>
      </trkpt>
      <trkpt lat="41.504835" lon="-5.749393">
        <ele>637.447</ele>
        <time>2021-10-13T16:48:40Z</time>
      </trkpt>
      <trkpt lat="41.504892" lon="-5.749319">
        <ele>637.772</ele>
        <time>2021-10-13T16:48:41Z</time>
      </trkpt>
      <trkpt lat="41.505003" lon="-5.749174">
        <ele>637.812</ele>
        <time>2021-10-13T16:48:43Z</time>
      </trkpt>
      <trkpt lat="41.505053" lon="-5.749105">
        <ele>638.032</ele>
        <time>2021-10-13T16:48:44Z</time>
      </trkpt>
      <trkpt lat="41.505121" lon="-5.748979">
        <ele>638.405</ele>
        <time>2021-10-13T16:48:46Z</time>
      </trkpt>
      <trkpt lat="41.505180" lon="-5.748927">
        <ele>637.908</ele>
        <time>2021-10-13T16:48:48Z</time>
      </trkpt>
      <trkpt lat="41.505248" lon="-5.748964">
        <ele>637.519</ele>
        <time>2021-10-13T16:48:50Z</time>
      </trkpt>
      <trkpt lat="41.505335" lon="-5.749078">
        <ele>637.257</ele>
        <time>2021-10-13T16:48:52Z</time>
      </trkpt>
      <trkpt lat="41.505372" lon="-5.749137">
        <ele>636.914</ele>
        <time>2021-10-13T16:48:53Z</time>
      </trkpt>
      <trkpt lat="41.505392" lon="-5.749206">
        <ele>635.834</ele>
        <time>2021-10-13T16:48:55Z</time>
      </trkpt>
      <trkpt lat="41.505426" lon="-5.749280">
        <ele>635.837</ele>
        <time>2021-10-13T16:48:57Z</time>
      </trkpt>
      <trkpt lat="41.505463" lon="-5.749345">
        <ele>635.853</ele>
        <time>2021-10-13T16:48:58Z</time>
      </trkpt>
      <trkpt lat="41.505504" lon="-5.749424">
        <ele>635.882</ele>
        <time>2021-10-13T16:49:00Z</time>
      </trkpt>
      <trkpt lat="41.505535" lon="-5.749495">
        <ele>635.887</ele>
        <time>2021-10-13T16:49:01Z</time>
      </trkpt>
      <trkpt lat="41.505569" lon="-5.749574">
        <ele>635.814</ele>
        <time>2021-10-13T16:49:02Z</time>
      </trkpt>
      <trkpt lat="41.505637" lon="-5.749735">
        <ele>635.854</ele>
        <time>2021-10-13T16:49:04Z</time>
      </trkpt>
      <trkpt lat="41.505674" lon="-5.749819">
        <ele>635.809</ele>
        <time>2021-10-13T16:49:05Z</time>
      </trkpt>
      <trkpt lat="41.505737" lon="-5.749952">
        <ele>635.808</ele>
        <time>2021-10-13T16:49:07Z</time>
      </trkpt>
      <trkpt lat="41.505753" lon="-5.750027">
        <ele>635.899</ele>
        <time>2021-10-13T16:49:09Z</time>
      </trkpt>
      <trkpt lat="41.505785" lon="-5.750090">
        <ele>635.817</ele>
        <time>2021-10-13T16:49:12Z</time>
      </trkpt>
      <trkpt lat="41.505820" lon="-5.750142">
        <ele>635.824</ele>
        <time>2021-10-13T16:49:14Z</time>
      </trkpt>
      <trkpt lat="41.505851" lon="-5.750192">
        <ele>635.844</ele>
        <time>2021-10-13T16:49:17Z</time>
      </trkpt>
      <trkpt lat="41.505812" lon="-5.750124">
        <ele>635.817</ele>
        <time>2021-10-13T16:49:21Z</time>
      </trkpt>
      <trkpt lat="41.505780" lon="-5.750076">
        <ele>635.853</ele>
        <time>2021-10-13T16:49:27Z</time>
      </trkpt>
      <trkpt lat="41.505755" lon="-5.750157">
        <ele>635.642</ele>
        <time>2021-10-13T16:50:15Z</time>
      </trkpt>
      <trkpt lat="41.505792" lon="-5.750247">
        <ele>635.667</ele>
        <time>2021-10-13T16:50:17Z</time>
      </trkpt>
      <trkpt lat="41.505840" lon="-5.750339">
        <ele>635.669</ele>
        <time>2021-10-13T16:50:19Z</time>
      </trkpt>
      <trkpt lat="41.505903" lon="-5.750419">
        <ele>635.604</ele>
        <time>2021-10-13T16:50:21Z</time>
      </trkpt>
      <trkpt lat="41.505952" lon="-5.750468">
        <ele>635.724</ele>
        <time>2021-10-13T16:50:22Z</time>
      </trkpt>
      <trkpt lat="41.506077" lon="-5.750552">
        <ele>635.708</ele>
        <time>2021-10-13T16:50:24Z</time>
      </trkpt>
      <trkpt lat="41.506231" lon="-5.750619">
        <ele>635.794</ele>
        <time>2021-10-13T16:50:26Z</time>
      </trkpt>
      <trkpt lat="41.506401" lon="-5.750656">
        <ele>635.772</ele>
        <time>2021-10-13T16:50:28Z</time>
      </trkpt>
      <trkpt lat="41.506571" lon="-5.750681">
        <ele>635.759</ele>
        <time>2021-10-13T16:50:30Z</time>
      </trkpt>
      <trkpt lat="41.506655" lon="-5.750686">
        <ele>635.739</ele>
        <time>2021-10-13T16:50:31Z</time>
      </trkpt>
      <trkpt lat="41.506739" lon="-5.750693">
        <ele>635.752</ele>
        <time>2021-10-13T16:50:32Z</time>
      </trkpt>
      <trkpt lat="41.506908" lon="-5.750705">
        <ele>635.718</ele>
        <time>2021-10-13T16:50:34Z</time>
      </trkpt>
      <trkpt lat="41.507061" lon="-5.750711">
        <ele>635.787</ele>
        <time>2021-10-13T16:50:36Z</time>
      </trkpt>
      <trkpt lat="41.507238" lon="-5.750720">
        <ele>635.752</ele>
        <time>2021-10-13T16:50:38Z</time>
      </trkpt>
      <trkpt lat="41.507424" lon="-5.750727">
        <ele>635.755</ele>
        <time>2021-10-13T16:50:40Z</time>
      </trkpt>
      <trkpt lat="41.507656" lon="-5.750762">
        <ele>635.807</ele>
        <time>2021-10-13T16:50:42Z</time>
      </trkpt>
      <trkpt lat="41.507799" lon="-5.750788">
        <ele>635.817</ele>
        <time>2021-10-13T16:50:43Z</time>
      </trkpt>
      <trkpt lat="41.507960" lon="-5.750821">
        <ele>635.808</ele>
        <time>2021-10-13T16:50:44Z</time>
      </trkpt>
      <trkpt lat="41.508283" lon="-5.750885">
        <ele>635.833</ele>
        <time>2021-10-13T16:50:46Z</time>
      </trkpt>
      <trkpt lat="41.508442" lon="-5.750921">
        <ele>635.861</ele>
        <time>2021-10-13T16:50:47Z</time>
      </trkpt>
      <trkpt lat="41.508739" lon="-5.751000">
        <ele>635.838</ele>
        <time>2021-10-13T16:50:49Z</time>
      </trkpt>
      <trkpt lat="41.508869" lon="-5.751041">
        <ele>635.868</ele>
        <time>2021-10-13T16:50:50Z</time>
      </trkpt>
      <trkpt lat="41.509101" lon="-5.751121">
        <ele>635.881</ele>
        <time>2021-10-13T16:50:52Z</time>
      </trkpt>
      <trkpt lat="41.509227" lon="-5.751171">
        <ele>635.877</ele>
        <time>2021-10-13T16:50:53Z</time>
      </trkpt>
      <trkpt lat="41.509473" lon="-5.751260">
        <ele>635.876</ele>
        <time>2021-10-13T16:50:55Z</time>
      </trkpt>
      <trkpt lat="41.509603" lon="-5.751305">
        <ele>635.831</ele>
        <time>2021-10-13T16:50:56Z</time>
      </trkpt>
      <trkpt lat="41.509850" lon="-5.751380">
        <ele>635.812</ele>
        <time>2021-10-13T16:50:58Z</time>
      </trkpt>
      <trkpt lat="41.509972" lon="-5.751410">
        <ele>635.832</ele>
        <time>2021-10-13T16:50:59Z</time>
      </trkpt>
      <trkpt lat="41.510079" lon="-5.751444">
        <ele>635.805</ele>
        <time>2021-10-13T16:51:00Z</time>
      </trkpt>
      <trkpt lat="41.510172" lon="-5.751478">
        <ele>635.808</ele>
        <time>2021-10-13T16:51:01Z</time>
      </trkpt>
      <trkpt lat="41.510252" lon="-5.751503">
        <ele>635.859</ele>
        <time>2021-10-13T16:51:02Z</time>
      </trkpt>
      <trkpt lat="41.510366" lon="-5.751530">
        <ele>635.887</ele>
        <time>2021-10-13T16:51:04Z</time>
      </trkpt>
      <trkpt lat="41.510414" lon="-5.751543">
        <ele>635.834</ele>
        <time>2021-10-13T16:51:05Z</time>
      </trkpt>
      <trkpt lat="41.510502" lon="-5.751570">
        <ele>635.814</ele>
        <time>2021-10-13T16:51:07Z</time>
      </trkpt>
      <trkpt lat="41.510551" lon="-5.751589">
        <ele>635.897</ele>
        <time>2021-10-13T16:51:08Z</time>
      </trkpt>
      <trkpt lat="41.510643" lon="-5.751610">
        <ele>635.863</ele>
        <time>2021-10-13T16:51:10Z</time>
      </trkpt>
      <trkpt lat="41.510707" lon="-5.751639">
        <ele>635.852</ele>
        <time>2021-10-13T16:51:12Z</time>
      </trkpt>
      <trkpt lat="41.510768" lon="-5.751661">
        <ele>635.817</ele>
        <time>2021-10-13T16:51:14Z</time>
      </trkpt>
      <trkpt lat="41.510842" lon="-5.751693">
        <ele>635.876</ele>
        <time>2021-10-13T16:51:16Z</time>
      </trkpt>
      <trkpt lat="41.510916" lon="-5.751726">
        <ele>661.790</ele>
        <time>2021-10-13T16:51:18Z</time>
      </trkpt>
      <trkpt lat="41.510972" lon="-5.751752">
        <ele>681.219</ele>
        <time>2021-10-13T16:51:20Z</time>
      </trkpt>
      <trkpt lat="41.511031" lon="-5.751776">
        <ele>681.208</ele>
        <time>2021-10-13T16:51:23Z</time>
      </trkpt>
      <trkpt lat="41.511079" lon="-5.751801">
        <ele>681.295</ele>
        <time>2021-10-13T16:51:25Z</time>
      </trkpt>
      <trkpt lat="41.511150" lon="-5.751827">
        <ele>681.213</ele>
        <time>2021-10-13T16:51:27Z</time>
      </trkpt>
      <trkpt lat="41.511228" lon="-5.751867">
        <ele>681.270</ele>
        <time>2021-10-13T16:51:29Z</time>
      </trkpt>
      <trkpt lat="41.511309" lon="-5.751906">
        <ele>681.290</ele>
        <time>2021-10-13T16:51:31Z</time>
      </trkpt>
      <trkpt lat="41.511398" lon="-5.751944">
        <ele>681.263</ele>
        <time>2021-10-13T16:51:33Z</time>
      </trkpt>
      <trkpt lat="41.511455" lon="-5.751965">
        <ele>681.399</ele>
        <time>2021-10-13T16:51:34Z</time>
      </trkpt>
      <trkpt lat="41.511571" lon="-5.752010">
        <ele>681.378</ele>
        <time>2021-10-13T16:51:36Z</time>
      </trkpt>
      <trkpt lat="41.511630" lon="-5.752027">
        <ele>681.353</ele>
        <time>2021-10-13T16:51:37Z</time>
      </trkpt>
      <trkpt lat="41.511691" lon="-5.752043">
        <ele>681.356</ele>
        <time>2021-10-13T16:51:38Z</time>
      </trkpt>
      <trkpt lat="41.511815" lon="-5.752067">
        <ele>681.359</ele>
        <time>2021-10-13T16:51:40Z</time>
      </trkpt>
      <trkpt lat="41.511883" lon="-5.752078">
        <ele>681.314</ele>
        <time>2021-10-13T16:51:41Z</time>
      </trkpt>
      <trkpt lat="41.512020" lon="-5.752106">
        <ele>681.308</ele>
        <time>2021-10-13T16:51:43Z</time>
      </trkpt>
      <trkpt lat="41.512091" lon="-5.752125">
        <ele>681.393</ele>
        <time>2021-10-13T16:51:44Z</time>
      </trkpt>
      <trkpt lat="41.512232" lon="-5.752170">
        <ele>681.441</ele>
        <time>2021-10-13T16:51:46Z</time>
      </trkpt>
      <trkpt lat="41.512382" lon="-5.752228">
        <ele>681.498</ele>
        <time>2021-10-13T16:51:48Z</time>
      </trkpt>
      <trkpt lat="41.512460" lon="-5.752258">
        <ele>681.428</ele>
        <time>2021-10-13T16:51:49Z</time>
      </trkpt>
      <trkpt lat="41.512539" lon="-5.752292">
        <ele>681.421</ele>
        <time>2021-10-13T16:51:50Z</time>
      </trkpt>
      <trkpt lat="41.512693" lon="-5.752359">
        <ele>681.477</ele>
        <time>2021-10-13T16:51:52Z</time>
      </trkpt>
      <trkpt lat="41.512846" lon="-5.752423">
        <ele>681.496</ele>
        <time>2021-10-13T16:51:54Z</time>
      </trkpt>
      <trkpt lat="41.512999" lon="-5.752482">
        <ele>681.391</ele>
        <time>2021-10-13T16:51:56Z</time>
      </trkpt>
      <trkpt lat="41.513141" lon="-5.752542">
        <ele>681.389</ele>
        <time>2021-10-13T16:51:58Z</time>
      </trkpt>
      <trkpt lat="41.513216" lon="-5.752571">
        <ele>681.306</ele>
        <time>2021-10-13T16:51:59Z</time>
      </trkpt>
      <trkpt lat="41.513294" lon="-5.752601">
        <ele>681.326</ele>
        <time>2021-10-13T16:52:00Z</time>
      </trkpt>
      <trkpt lat="41.513456" lon="-5.752662">
        <ele>681.308</ele>
        <time>2021-10-13T16:52:02Z</time>
      </trkpt>
      <trkpt lat="41.513605" lon="-5.752723">
        <ele>681.376</ele>
        <time>2021-10-13T16:52:04Z</time>
      </trkpt>
      <trkpt lat="41.513678" lon="-5.752756">
        <ele>681.364</ele>
        <time>2021-10-13T16:52:05Z</time>
      </trkpt>
      <trkpt lat="41.513749" lon="-5.752789">
        <ele>681.371</ele>
        <time>2021-10-13T16:52:06Z</time>
      </trkpt>
      <trkpt lat="41.513819" lon="-5.752822">
        <ele>681.391</ele>
        <time>2021-10-13T16:52:07Z</time>
      </trkpt>
      <trkpt lat="41.513889" lon="-5.752853">
        <ele>681.374</ele>
        <time>2021-10-13T16:52:08Z</time>
      </trkpt>
      <trkpt lat="41.514020" lon="-5.752906">
        <ele>681.360</ele>
        <time>2021-10-13T16:52:10Z</time>
      </trkpt>
      <trkpt lat="41.514088" lon="-5.752927">
        <ele>681.319</ele>
        <time>2021-10-13T16:52:11Z</time>
      </trkpt>
      <trkpt lat="41.514213" lon="-5.752962">
        <ele>681.394</ele>
        <time>2021-10-13T16:52:13Z</time>
      </trkpt>
      <trkpt lat="41.514267" lon="-5.752980">
        <ele>681.388</ele>
        <time>2021-10-13T16:52:14Z</time>
      </trkpt>
      <trkpt lat="41.514344" lon="-5.753010">
        <ele>681.324</ele>
        <time>2021-10-13T16:52:16Z</time>
      </trkpt>
      <trkpt lat="41.514416" lon="-5.753039">
        <ele>681.326</ele>
        <time>2021-10-13T16:52:18Z</time>
      </trkpt>
      <trkpt lat="41.514466" lon="-5.753062">
        <ele>681.708</ele>
        <time>2021-10-13T16:52:19Z</time>
      </trkpt>
      <trkpt lat="41.514525" lon="-5.753093">
        <ele>682.136</ele>
        <time>2021-10-13T16:52:20Z</time>
      </trkpt>
      <trkpt lat="41.514653" lon="-5.753156">
        <ele>682.314</ele>
        <time>2021-10-13T16:52:22Z</time>
      </trkpt>
      <trkpt lat="41.514729" lon="-5.753189">
        <ele>682.311</ele>
        <time>2021-10-13T16:52:23Z</time>
      </trkpt>
      <trkpt lat="41.514888" lon="-5.753248">
        <ele>682.421</ele>
        <time>2021-10-13T16:52:25Z</time>
      </trkpt>
      <trkpt lat="41.514970" lon="-5.753275">
        <ele>682.474</ele>
        <time>2021-10-13T16:52:26Z</time>
      </trkpt>
      <trkpt lat="41.515125" lon="-5.753335">
        <ele>680.880</ele>
        <time>2021-10-13T16:52:28Z</time>
      </trkpt>
      <trkpt lat="41.515280" lon="-5.753391">
        <ele>678.589</ele>
        <time>2021-10-13T16:52:30Z</time>
      </trkpt>
      <trkpt lat="41.515354" lon="-5.753423">
        <ele>678.324</ele>
        <time>2021-10-13T16:52:31Z</time>
      </trkpt>
      <trkpt lat="41.515431" lon="-5.753455">
        <ele>678.544</ele>
        <time>2021-10-13T16:52:32Z</time>
      </trkpt>
      <trkpt lat="41.515576" lon="-5.753514">
        <ele>678.505</ele>
        <time>2021-10-13T16:52:34Z</time>
      </trkpt>
      <trkpt lat="41.515649" lon="-5.753545">
        <ele>678.515</ele>
        <time>2021-10-13T16:52:35Z</time>
      </trkpt>
      <trkpt lat="41.515814" lon="-5.753620">
        <ele>677.208</ele>
        <time>2021-10-13T16:52:37Z</time>
      </trkpt>
      <trkpt lat="41.515907" lon="-5.753659">
        <ele>677.342</ele>
        <time>2021-10-13T16:52:38Z</time>
      </trkpt>
      <trkpt lat="41.516093" lon="-5.753744">
        <ele>675.950</ele>
        <time>2021-10-13T16:52:40Z</time>
      </trkpt>
      <trkpt lat="41.516185" lon="-5.753783">
        <ele>674.337</ele>
        <time>2021-10-13T16:52:41Z</time>
      </trkpt>
      <trkpt lat="41.516357" lon="-5.753853">
        <ele>672.877</ele>
        <time>2021-10-13T16:52:43Z</time>
      </trkpt>
      <trkpt lat="41.516443" lon="-5.753885">
        <ele>672.260</ele>
        <time>2021-10-13T16:52:44Z</time>
      </trkpt>
      <trkpt lat="41.516604" lon="-5.753947">
        <ele>671.976</ele>
        <time>2021-10-13T16:52:46Z</time>
      </trkpt>
      <trkpt lat="41.516764" lon="-5.754001">
        <ele>671.325</ele>
        <time>2021-10-13T16:52:48Z</time>
      </trkpt>
      <trkpt lat="41.516928" lon="-5.754063">
        <ele>670.730</ele>
        <time>2021-10-13T16:52:50Z</time>
      </trkpt>
      <trkpt lat="41.517097" lon="-5.754126">
        <ele>670.939</ele>
        <time>2021-10-13T16:52:52Z</time>
      </trkpt>
      <trkpt lat="41.517275" lon="-5.754195">
        <ele>671.001</ele>
        <time>2021-10-13T16:52:54Z</time>
      </trkpt>
      <trkpt lat="41.517457" lon="-5.754264">
        <ele>670.821</ele>
        <time>2021-10-13T16:52:56Z</time>
      </trkpt>
      <trkpt lat="41.517635" lon="-5.754342">
        <ele>671.408</ele>
        <time>2021-10-13T16:52:58Z</time>
      </trkpt>
      <trkpt lat="41.517729" lon="-5.754382">
        <ele>671.791</ele>
        <time>2021-10-13T16:52:59Z</time>
      </trkpt>
      <trkpt lat="41.517923" lon="-5.754463">
        <ele>671.419</ele>
        <time>2021-10-13T16:53:01Z</time>
      </trkpt>
      <trkpt lat="41.518029" lon="-5.754505">
        <ele>671.476</ele>
        <time>2021-10-13T16:53:02Z</time>
      </trkpt>
      <trkpt lat="41.518237" lon="-5.754588">
        <ele>672.416</ele>
        <time>2021-10-13T16:53:04Z</time>
      </trkpt>
      <trkpt lat="41.518338" lon="-5.754630">
        <ele>671.979</ele>
        <time>2021-10-13T16:53:05Z</time>
      </trkpt>
      <trkpt lat="41.518513" lon="-5.754701">
        <ele>672.415</ele>
        <time>2021-10-13T16:53:07Z</time>
      </trkpt>
      <trkpt lat="41.518599" lon="-5.754736">
        <ele>672.694</ele>
        <time>2021-10-13T16:53:08Z</time>
      </trkpt>
      <trkpt lat="41.518766" lon="-5.754799">
        <ele>673.359</ele>
        <time>2021-10-13T16:53:10Z</time>
      </trkpt>
      <trkpt lat="41.518845" lon="-5.754826">
        <ele>673.637</ele>
        <time>2021-10-13T16:53:11Z</time>
      </trkpt>
      <trkpt lat="41.519007" lon="-5.754852">
        <ele>674.349</ele>
        <time>2021-10-13T16:53:13Z</time>
      </trkpt>
      <trkpt lat="41.519096" lon="-5.754841">
        <ele>674.713</ele>
        <time>2021-10-13T16:53:14Z</time>
      </trkpt>
      <trkpt lat="41.519266" lon="-5.754772">
        <ele>676.008</ele>
        <time>2021-10-13T16:53:16Z</time>
      </trkpt>
      <trkpt lat="41.519347" lon="-5.754733">
        <ele>676.811</ele>
        <time>2021-10-13T16:53:17Z</time>
      </trkpt>
      <trkpt lat="41.519504" lon="-5.754727">
        <ele>677.519</ele>
        <time>2021-10-13T16:53:19Z</time>
      </trkpt>
      <trkpt lat="41.519590" lon="-5.754771">
        <ele>677.756</ele>
        <time>2021-10-13T16:53:20Z</time>
      </trkpt>
      <trkpt lat="41.519746" lon="-5.754951">
        <ele>680.316</ele>
        <time>2021-10-13T16:53:22Z</time>
      </trkpt>
      <trkpt lat="41.519911" lon="-5.755171">
        <ele>680.569</ele>
        <time>2021-10-13T16:53:24Z</time>
      </trkpt>
      <trkpt lat="41.520021" lon="-5.755250">
        <ele>681.525</ele>
        <time>2021-10-13T16:53:25Z</time>
      </trkpt>
      <trkpt lat="41.520147" lon="-5.755311">
        <ele>681.554</ele>
        <time>2021-10-13T16:53:26Z</time>
      </trkpt>
      <trkpt lat="41.520426" lon="-5.755410">
        <ele>681.779</ele>
        <time>2021-10-13T16:53:28Z</time>
      </trkpt>
      <trkpt lat="41.520579" lon="-5.755471">
        <ele>681.458</ele>
        <time>2021-10-13T16:53:29Z</time>
      </trkpt>
      <trkpt lat="41.520739" lon="-5.755538">
        <ele>681.852</ele>
        <time>2021-10-13T16:53:30Z</time>
      </trkpt>
      <trkpt lat="41.521067" lon="-5.755669">
        <ele>682.217</ele>
        <time>2021-10-13T16:53:32Z</time>
      </trkpt>
      <trkpt lat="41.521407" lon="-5.755813">
        <ele>683.208</ele>
        <time>2021-10-13T16:53:34Z</time>
      </trkpt>
      <trkpt lat="41.521594" lon="-5.755890">
        <ele>682.943</ele>
        <time>2021-10-13T16:53:35Z</time>
      </trkpt>
      <trkpt lat="41.521786" lon="-5.755970">
        <ele>683.271</ele>
        <time>2021-10-13T16:53:36Z</time>
      </trkpt>
      <trkpt lat="41.522201" lon="-5.756136">
        <ele>683.678</ele>
        <time>2021-10-13T16:53:38Z</time>
      </trkpt>
      <trkpt lat="41.522623" lon="-5.756312">
        <ele>685.168</ele>
        <time>2021-10-13T16:53:40Z</time>
      </trkpt>
      <trkpt lat="41.523062" lon="-5.756494">
        <ele>685.481</ele>
        <time>2021-10-13T16:53:42Z</time>
      </trkpt>
      <trkpt lat="41.523293" lon="-5.756588">
        <ele>685.547</ele>
        <time>2021-10-13T16:53:43Z</time>
      </trkpt>
      <trkpt lat="41.523534" lon="-5.756682">
        <ele>684.766</ele>
        <time>2021-10-13T16:53:44Z</time>
      </trkpt>
      <trkpt lat="41.524010" lon="-5.756869">
        <ele>684.411</ele>
        <time>2021-10-13T16:53:46Z</time>
      </trkpt>
      <trkpt lat="41.524506" lon="-5.757068">
        <ele>683.558</ele>
        <time>2021-10-13T16:53:48Z</time>
      </trkpt>
      <trkpt lat="41.524756" lon="-5.757173">
        <ele>684.052</ele>
        <time>2021-10-13T16:53:49Z</time>
      </trkpt>
      <trkpt lat="41.525010" lon="-5.757274">
        <ele>684.117</ele>
        <time>2021-10-13T16:53:50Z</time>
      </trkpt>
      <trkpt lat="41.525475" lon="-5.757460">
        <ele>683.808</ele>
        <time>2021-10-13T16:53:52Z</time>
      </trkpt>
      <trkpt lat="41.525714" lon="-5.757556">
        <ele>683.313</ele>
        <time>2021-10-13T16:53:53Z</time>
      </trkpt>
      <trkpt lat="41.525949" lon="-5.757654">
        <ele>684.571</ele>
        <time>2021-10-13T16:53:54Z</time>
      </trkpt>
      <trkpt lat="41.526181" lon="-5.757746">
        <ele>685.488</ele>
        <time>2021-10-13T16:53:55Z</time>
      </trkpt>
      <trkpt lat="41.526415" lon="-5.757840">
        <ele>685.238</ele>
        <time>2021-10-13T16:53:56Z</time>
      </trkpt>
      <trkpt lat="41.526847" lon="-5.758019">
        <ele>685.131</ele>
        <time>2021-10-13T16:53:58Z</time>
      </trkpt>
      <trkpt lat="41.527064" lon="-5.758104">
        <ele>685.117</ele>
        <time>2021-10-13T16:53:59Z</time>
      </trkpt>
      <trkpt lat="41.527277" lon="-5.758188">
        <ele>685.056</ele>
        <time>2021-10-13T16:54:00Z</time>
      </trkpt>
      <trkpt lat="41.527696" lon="-5.758354">
        <ele>686.061</ele>
        <time>2021-10-13T16:54:02Z</time>
      </trkpt>
      <trkpt lat="41.528094" lon="-5.758520">
        <ele>688.028</ele>
        <time>2021-10-13T16:54:04Z</time>
      </trkpt>
      <trkpt lat="41.528301" lon="-5.758601">
        <ele>688.689</ele>
        <time>2021-10-13T16:54:05Z</time>
      </trkpt>
      <trkpt lat="41.528503" lon="-5.758679">
        <ele>688.617</ele>
        <time>2021-10-13T16:54:06Z</time>
      </trkpt>
      <trkpt lat="41.528692" lon="-5.758753">
        <ele>689.508</ele>
        <time>2021-10-13T16:54:07Z</time>
      </trkpt>
      <trkpt lat="41.528871" lon="-5.758824">
        <ele>690.520</ele>
        <time>2021-10-13T16:54:08Z</time>
      </trkpt>
      <trkpt lat="41.529182" lon="-5.758949">
        <ele>692.668</ele>
        <time>2021-10-13T16:54:10Z</time>
      </trkpt>
      <trkpt lat="41.529328" lon="-5.759006">
        <ele>692.545</ele>
        <time>2021-10-13T16:54:11Z</time>
      </trkpt>
      <trkpt lat="41.529576" lon="-5.759099">
        <ele>694.465</ele>
        <time>2021-10-13T16:54:13Z</time>
      </trkpt>
      <trkpt lat="41.529677" lon="-5.759131">
        <ele>694.668</ele>
        <time>2021-10-13T16:54:14Z</time>
      </trkpt>
      <trkpt lat="41.529840" lon="-5.759152">
        <ele>695.864</ele>
        <time>2021-10-13T16:54:16Z</time>
      </trkpt>
      <trkpt lat="41.529923" lon="-5.759144">
        <ele>696.023</ele>
        <time>2021-10-13T16:54:17Z</time>
      </trkpt>
      <trkpt lat="41.530008" lon="-5.759123">
        <ele>696.348</ele>
        <time>2021-10-13T16:54:18Z</time>
      </trkpt>
      <trkpt lat="41.530097" lon="-5.759093">
        <ele>696.613</ele>
        <time>2021-10-13T16:54:19Z</time>
      </trkpt>
      <trkpt lat="41.530186" lon="-5.759066">
        <ele>696.943</ele>
        <time>2021-10-13T16:54:20Z</time>
      </trkpt>
      <trkpt lat="41.530339" lon="-5.759070">
        <ele>696.707</ele>
        <time>2021-10-13T16:54:22Z</time>
      </trkpt>
      <trkpt lat="41.530413" lon="-5.759106">
        <ele>696.108</ele>
        <time>2021-10-13T16:54:23Z</time>
      </trkpt>
      <trkpt lat="41.530544" lon="-5.759250">
        <ele>696.219</ele>
        <time>2021-10-13T16:54:25Z</time>
      </trkpt>
      <trkpt lat="41.530610" lon="-5.759339">
        <ele>696.257</ele>
        <time>2021-10-13T16:54:26Z</time>
      </trkpt>
      <trkpt lat="41.530761" lon="-5.759526">
        <ele>696.214</ele>
        <time>2021-10-13T16:54:28Z</time>
      </trkpt>
      <trkpt lat="41.530984" lon="-5.759672">
        <ele>696.414</ele>
        <time>2021-10-13T16:54:30Z</time>
      </trkpt>
      <trkpt lat="41.531281" lon="-5.759795">
        <ele>698.077</ele>
        <time>2021-10-13T16:54:32Z</time>
      </trkpt>
      <trkpt lat="41.531607" lon="-5.759936">
        <ele>699.373</ele>
        <time>2021-10-13T16:54:34Z</time>
      </trkpt>
      <trkpt lat="41.531803" lon="-5.760023">
        <ele>700.032</ele>
        <time>2021-10-13T16:54:35Z</time>
      </trkpt>
      <trkpt lat="41.532239" lon="-5.760199">
        <ele>702.047</ele>
        <time>2021-10-13T16:54:37Z</time>
      </trkpt>
      <trkpt lat="41.532472" lon="-5.760300">
        <ele>702.318</ele>
        <time>2021-10-13T16:54:38Z</time>
      </trkpt>
      <trkpt lat="41.532918" lon="-5.760520">
        <ele>702.298</ele>
        <time>2021-10-13T16:54:40Z</time>
      </trkpt>
      <trkpt lat="41.533143" lon="-5.760646">
        <ele>703.817</ele>
        <time>2021-10-13T16:54:41Z</time>
      </trkpt>
      <trkpt lat="41.533366" lon="-5.760778">
        <ele>705.008</ele>
        <time>2021-10-13T16:54:42Z</time>
      </trkpt>
      <trkpt lat="41.533788" lon="-5.761064">
        <ele>704.199</ele>
        <time>2021-10-13T16:54:44Z</time>
      </trkpt>
      <trkpt lat="41.534148" lon="-5.761340">
        <ele>703.927</ele>
        <time>2021-10-13T16:54:46Z</time>
      </trkpt>
      <trkpt lat="41.534527" lon="-5.761627">
        <ele>703.324</ele>
        <time>2021-10-13T16:54:48Z</time>
      </trkpt>
      <trkpt lat="41.534723" lon="-5.761774">
        <ele>703.174</ele>
        <time>2021-10-13T16:54:49Z</time>
      </trkpt>
      <trkpt lat="41.534925" lon="-5.761927">
        <ele>703.957</ele>
        <time>2021-10-13T16:54:50Z</time>
      </trkpt>
      <trkpt lat="41.535313" lon="-5.762219">
        <ele>701.833</ele>
        <time>2021-10-13T16:54:52Z</time>
      </trkpt>
      <trkpt lat="41.535511" lon="-5.762367">
        <ele>701.392</ele>
        <time>2021-10-13T16:54:53Z</time>
      </trkpt>
      <trkpt lat="41.535707" lon="-5.762515">
        <ele>701.757</ele>
        <time>2021-10-13T16:54:54Z</time>
      </trkpt>
      <trkpt lat="41.536098" lon="-5.762810">
        <ele>700.376</ele>
        <time>2021-10-13T16:54:56Z</time>
      </trkpt>
      <trkpt lat="41.536484" lon="-5.763091">
        <ele>700.990</ele>
        <time>2021-10-13T16:54:58Z</time>
      </trkpt>
      <trkpt lat="41.536877" lon="-5.763385">
        <ele>701.219</ele>
        <time>2021-10-13T16:55:00Z</time>
      </trkpt>
      <trkpt lat="41.537286" lon="-5.763674">
        <ele>700.808</ele>
        <time>2021-10-13T16:55:02Z</time>
      </trkpt>
      <trkpt lat="41.537698" lon="-5.763907">
        <ele>700.355</ele>
        <time>2021-10-13T16:55:04Z</time>
      </trkpt>
      <trkpt lat="41.538133" lon="-5.764095">
        <ele>699.843</ele>
        <time>2021-10-13T16:55:06Z</time>
      </trkpt>
      <trkpt lat="41.538356" lon="-5.764165">
        <ele>700.520</ele>
        <time>2021-10-13T16:55:07Z</time>
      </trkpt>
      <trkpt lat="41.538586" lon="-5.764228">
        <ele>700.510</ele>
        <time>2021-10-13T16:55:08Z</time>
      </trkpt>
      <trkpt lat="41.539021" lon="-5.764327">
        <ele>700.333</ele>
        <time>2021-10-13T16:55:10Z</time>
      </trkpt>
      <trkpt lat="41.539236" lon="-5.764377">
        <ele>700.539</ele>
        <time>2021-10-13T16:55:11Z</time>
      </trkpt>
      <trkpt lat="41.539646" lon="-5.764479">
        <ele>700.798</ele>
        <time>2021-10-13T16:55:13Z</time>
      </trkpt>
      <trkpt lat="41.539847" lon="-5.764533">
        <ele>701.243</ele>
        <time>2021-10-13T16:55:14Z</time>
      </trkpt>
      <trkpt lat="41.540192" lon="-5.764629">
        <ele>702.248</ele>
        <time>2021-10-13T16:55:16Z</time>
      </trkpt>
      <trkpt lat="41.540341" lon="-5.764674">
        <ele>702.761</ele>
        <time>2021-10-13T16:55:17Z</time>
      </trkpt>
      <trkpt lat="41.540562" lon="-5.764745">
        <ele>704.817</ele>
        <time>2021-10-13T16:55:19Z</time>
      </trkpt>
      <trkpt lat="41.540656" lon="-5.764765">
        <ele>705.208</ele>
        <time>2021-10-13T16:55:20Z</time>
      </trkpt>
      <trkpt lat="41.540816" lon="-5.764744">
        <ele>705.792</ele>
        <time>2021-10-13T16:55:22Z</time>
      </trkpt>
      <trkpt lat="41.540886" lon="-5.764687">
        <ele>705.760</ele>
        <time>2021-10-13T16:55:23Z</time>
      </trkpt>
      <trkpt lat="41.541045" lon="-5.764563">
        <ele>705.247</ele>
        <time>2021-10-13T16:55:25Z</time>
      </trkpt>
      <trkpt lat="41.541141" lon="-5.764524">
        <ele>705.027</ele>
        <time>2021-10-13T16:55:26Z</time>
      </trkpt>
      <trkpt lat="41.541335" lon="-5.764520">
        <ele>704.710</ele>
        <time>2021-10-13T16:55:28Z</time>
      </trkpt>
      <trkpt lat="41.541434" lon="-5.764558">
        <ele>704.296</ele>
        <time>2021-10-13T16:55:29Z</time>
      </trkpt>
      <trkpt lat="41.541523" lon="-5.764625">
        <ele>702.645</ele>
        <time>2021-10-13T16:55:30Z</time>
      </trkpt>
      <trkpt lat="41.541628" lon="-5.764894">
        <ele>702.650</ele>
        <time>2021-10-13T16:55:32Z</time>
      </trkpt>
      <trkpt lat="41.541663" lon="-5.765229">
        <ele>702.685</ele>
        <time>2021-10-13T16:55:34Z</time>
      </trkpt>
      <trkpt lat="41.541706" lon="-5.765371">
        <ele>701.989</ele>
        <time>2021-10-13T16:55:35Z</time>
      </trkpt>
      <trkpt lat="41.541780" lon="-5.765489">
        <ele>701.017</ele>
        <time>2021-10-13T16:55:36Z</time>
      </trkpt>
      <trkpt lat="41.542003" lon="-5.765663">
        <ele>699.608</ele>
        <time>2021-10-13T16:55:38Z</time>
      </trkpt>
      <trkpt lat="41.542257" lon="-5.765804">
        <ele>698.956</ele>
        <time>2021-10-13T16:55:40Z</time>
      </trkpt>
      <trkpt lat="41.542391" lon="-5.765885">
        <ele>698.484</ele>
        <time>2021-10-13T16:55:41Z</time>
      </trkpt>
      <trkpt lat="41.542528" lon="-5.765969">
        <ele>697.161</ele>
        <time>2021-10-13T16:55:42Z</time>
      </trkpt>
      <trkpt lat="41.542669" lon="-5.766057">
        <ele>696.881</ele>
        <time>2021-10-13T16:55:43Z</time>
      </trkpt>
      <trkpt lat="41.542817" lon="-5.766151">
        <ele>696.414</ele>
        <time>2021-10-13T16:55:44Z</time>
      </trkpt>
      <trkpt lat="41.543109" lon="-5.766340">
        <ele>695.470</ele>
        <time>2021-10-13T16:55:46Z</time>
      </trkpt>
      <trkpt lat="41.543413" lon="-5.766536">
        <ele>694.559</ele>
        <time>2021-10-13T16:55:48Z</time>
      </trkpt>
      <trkpt lat="41.543557" lon="-5.766628">
        <ele>694.224</ele>
        <time>2021-10-13T16:55:49Z</time>
      </trkpt>
      <trkpt lat="41.543703" lon="-5.766721">
        <ele>694.332</ele>
        <time>2021-10-13T16:55:50Z</time>
      </trkpt>
      <trkpt lat="41.543965" lon="-5.766874">
        <ele>693.892</ele>
        <time>2021-10-13T16:55:52Z</time>
      </trkpt>
      <trkpt lat="41.544245" lon="-5.766982">
        <ele>693.811</ele>
        <time>2021-10-13T16:55:54Z</time>
      </trkpt>
      <trkpt lat="41.544380" lon="-5.767047">
        <ele>693.508</ele>
        <time>2021-10-13T16:55:55Z</time>
      </trkpt>
      <trkpt lat="41.544501" lon="-5.767140">
        <ele>693.711</ele>
        <time>2021-10-13T16:55:56Z</time>
      </trkpt>
      <trkpt lat="41.544747" lon="-5.767370">
        <ele>694.059</ele>
        <time>2021-10-13T16:55:58Z</time>
      </trkpt>
      <trkpt lat="41.545073" lon="-5.767587">
        <ele>693.946</ele>
        <time>2021-10-13T16:56:00Z</time>
      </trkpt>
      <trkpt lat="41.545263" lon="-5.767707">
        <ele>694.586</ele>
        <time>2021-10-13T16:56:01Z</time>
      </trkpt>
      <trkpt lat="41.545469" lon="-5.767838">
        <ele>694.529</ele>
        <time>2021-10-13T16:56:02Z</time>
      </trkpt>
      <trkpt lat="41.545889" lon="-5.768107">
        <ele>694.245</ele>
        <time>2021-10-13T16:56:04Z</time>
      </trkpt>
      <trkpt lat="41.546116" lon="-5.768253">
        <ele>695.664</ele>
        <time>2021-10-13T16:56:05Z</time>
      </trkpt>
      <trkpt lat="41.546345" lon="-5.768399">
        <ele>696.189</ele>
        <time>2021-10-13T16:56:06Z</time>
      </trkpt>
      <trkpt lat="41.546815" lon="-5.768702">
        <ele>697.686</ele>
        <time>2021-10-13T16:56:08Z</time>
      </trkpt>
      <trkpt lat="41.547272" lon="-5.768995">
        <ele>698.260</ele>
        <time>2021-10-13T16:56:10Z</time>
      </trkpt>
      <trkpt lat="41.547739" lon="-5.769283">
        <ele>698.426</ele>
        <time>2021-10-13T16:56:12Z</time>
      </trkpt>
      <trkpt lat="41.548196" lon="-5.769567">
        <ele>698.508</ele>
        <time>2021-10-13T16:56:14Z</time>
      </trkpt>
      <trkpt lat="41.548566" lon="-5.769808">
        <ele>698.026</ele>
        <time>2021-10-13T16:56:16Z</time>
      </trkpt>
      <trkpt lat="41.548907" lon="-5.770024">
        <ele>699.714</ele>
        <time>2021-10-13T16:56:18Z</time>
      </trkpt>
      <trkpt lat="41.549213" lon="-5.770217">
        <ele>699.651</ele>
        <time>2021-10-13T16:56:20Z</time>
      </trkpt>
      <trkpt lat="41.549526" lon="-5.770392">
        <ele>700.651</ele>
        <time>2021-10-13T16:56:22Z</time>
      </trkpt>
      <trkpt lat="41.549710" lon="-5.770479">
        <ele>701.184</ele>
        <time>2021-10-13T16:56:23Z</time>
      </trkpt>
      <trkpt lat="41.550132" lon="-5.770638">
        <ele>701.760</ele>
        <time>2021-10-13T16:56:25Z</time>
      </trkpt>
      <trkpt lat="41.550377" lon="-5.770704">
        <ele>701.629</ele>
        <time>2021-10-13T16:56:26Z</time>
      </trkpt>
      <trkpt lat="41.550871" lon="-5.770800">
        <ele>701.924</ele>
        <time>2021-10-13T16:56:28Z</time>
      </trkpt>
      <trkpt lat="41.551352" lon="-5.770877">
        <ele>701.455</ele>
        <time>2021-10-13T16:56:30Z</time>
      </trkpt>
      <trkpt lat="41.551577" lon="-5.770913">
        <ele>700.907</ele>
        <time>2021-10-13T16:56:31Z</time>
      </trkpt>
      <trkpt lat="41.551814" lon="-5.770951">
        <ele>700.717</ele>
        <time>2021-10-13T16:56:32Z</time>
      </trkpt>
      <trkpt lat="41.552269" lon="-5.771014">
        <ele>700.808</ele>
        <time>2021-10-13T16:56:34Z</time>
      </trkpt>
      <trkpt lat="41.552502" lon="-5.771048">
        <ele>700.293</ele>
        <time>2021-10-13T16:56:35Z</time>
      </trkpt>
      <trkpt lat="41.552992" lon="-5.771121">
        <ele>699.031</ele>
        <time>2021-10-13T16:56:37Z</time>
      </trkpt>
      <trkpt lat="41.553275" lon="-5.771165">
        <ele>699.138</ele>
        <time>2021-10-13T16:56:38Z</time>
      </trkpt>
      <trkpt lat="41.553834" lon="-5.771252">
        <ele>698.818</ele>
        <time>2021-10-13T16:56:40Z</time>
      </trkpt>
      <trkpt lat="41.554122" lon="-5.771303">
        <ele>699.211</ele>
        <time>2021-10-13T16:56:41Z</time>
      </trkpt>
      <trkpt lat="41.554709" lon="-5.771402">
        <ele>699.027</ele>
        <time>2021-10-13T16:56:43Z</time>
      </trkpt>
      <trkpt lat="41.555015" lon="-5.771448">
        <ele>698.366</ele>
        <time>2021-10-13T16:56:44Z</time>
      </trkpt>
      <trkpt lat="41.555604" lon="-5.771538">
        <ele>699.441</ele>
        <time>2021-10-13T16:56:46Z</time>
      </trkpt>
      <trkpt lat="41.555904" lon="-5.771585">
        <ele>699.611</ele>
        <time>2021-10-13T16:56:47Z</time>
      </trkpt>
      <trkpt lat="41.556465" lon="-5.771672">
        <ele>701.121</ele>
        <time>2021-10-13T16:56:49Z</time>
      </trkpt>
      <trkpt lat="41.556744" lon="-5.771715">
        <ele>701.303</ele>
        <time>2021-10-13T16:56:50Z</time>
      </trkpt>
      <trkpt lat="41.557256" lon="-5.771792">
        <ele>702.908</ele>
        <time>2021-10-13T16:56:52Z</time>
      </trkpt>
      <trkpt lat="41.557766" lon="-5.771873">
        <ele>705.399</ele>
        <time>2021-10-13T16:56:54Z</time>
      </trkpt>
      <trkpt lat="41.558296" lon="-5.771970">
        <ele>706.137</ele>
        <time>2021-10-13T16:56:56Z</time>
      </trkpt>
      <trkpt lat="41.558833" lon="-5.772111">
        <ele>707.224</ele>
        <time>2021-10-13T16:56:58Z</time>
      </trkpt>
      <trkpt lat="41.559117" lon="-5.772205">
        <ele>707.964</ele>
        <time>2021-10-13T16:56:59Z</time>
      </trkpt>
      <trkpt lat="41.559688" lon="-5.772407">
        <ele>708.687</ele>
        <time>2021-10-13T16:57:01Z</time>
      </trkpt>
      <trkpt lat="41.559986" lon="-5.772512">
        <ele>708.293</ele>
        <time>2021-10-13T16:57:02Z</time>
      </trkpt>
      <trkpt lat="41.560563" lon="-5.772712">
        <ele>708.512</ele>
        <time>2021-10-13T16:57:04Z</time>
      </trkpt>
      <trkpt lat="41.561123" lon="-5.772905">
        <ele>709.647</ele>
        <time>2021-10-13T16:57:06Z</time>
      </trkpt>
      <trkpt lat="41.561382" lon="-5.772993">
        <ele>709.825</ele>
        <time>2021-10-13T16:57:07Z</time>
      </trkpt>
      <trkpt lat="41.561635" lon="-5.773080">
        <ele>709.926</ele>
        <time>2021-10-13T16:57:08Z</time>
      </trkpt>
      <trkpt lat="41.562112" lon="-5.773243">
        <ele>710.908</ele>
        <time>2021-10-13T16:57:10Z</time>
      </trkpt>
      <trkpt lat="41.562357" lon="-5.773327">
        <ele>710.608</ele>
        <time>2021-10-13T16:57:11Z</time>
      </trkpt>
      <trkpt lat="41.562853" lon="-5.773496">
        <ele>712.640</ele>
        <time>2021-10-13T16:57:13Z</time>
      </trkpt>
      <trkpt lat="41.563110" lon="-5.773584">
        <ele>713.018</ele>
        <time>2021-10-13T16:57:14Z</time>
      </trkpt>
      <trkpt lat="41.563591" lon="-5.773748">
        <ele>714.015</ele>
        <time>2021-10-13T16:57:16Z</time>
      </trkpt>
      <trkpt lat="41.563835" lon="-5.773833">
        <ele>714.975</ele>
        <time>2021-10-13T16:57:17Z</time>
      </trkpt>
      <trkpt lat="41.564074" lon="-5.773915">
        <ele>715.878</ele>
        <time>2021-10-13T16:57:18Z</time>
      </trkpt>
      <trkpt lat="41.564550" lon="-5.774077">
        <ele>717.324</ele>
        <time>2021-10-13T16:57:20Z</time>
      </trkpt>
      <trkpt lat="41.565001" lon="-5.774231">
        <ele>718.693</ele>
        <time>2021-10-13T16:57:22Z</time>
      </trkpt>
      <trkpt lat="41.565480" lon="-5.774389">
        <ele>719.258</ele>
        <time>2021-10-13T16:57:24Z</time>
      </trkpt>
      <trkpt lat="41.565727" lon="-5.774469">
        <ele>719.842</ele>
        <time>2021-10-13T16:57:25Z</time>
      </trkpt>
      <trkpt lat="41.565986" lon="-5.774559">
        <ele>720.622</ele>
        <time>2021-10-13T16:57:26Z</time>
      </trkpt>
      <trkpt lat="41.566488" lon="-5.774734">
        <ele>720.314</ele>
        <time>2021-10-13T16:57:28Z</time>
      </trkpt>
      <trkpt lat="41.566752" lon="-5.774828">
        <ele>720.108</ele>
        <time>2021-10-13T16:57:29Z</time>
      </trkpt>
      <trkpt lat="41.567019" lon="-5.774928">
        <ele>719.722</ele>
        <time>2021-10-13T16:57:30Z</time>
      </trkpt>
      <trkpt lat="41.567291" lon="-5.775028">
        <ele>719.150</ele>
        <time>2021-10-13T16:57:31Z</time>
      </trkpt>
      <trkpt lat="41.567571" lon="-5.775125">
        <ele>718.097</ele>
        <time>2021-10-13T16:57:32Z</time>
      </trkpt>
      <trkpt lat="41.568101" lon="-5.775306">
        <ele>716.517</ele>
        <time>2021-10-13T16:57:34Z</time>
      </trkpt>
      <trkpt lat="41.568373" lon="-5.775399">
        <ele>715.760</ele>
        <time>2021-10-13T16:57:35Z</time>
      </trkpt>
      <trkpt lat="41.568917" lon="-5.775586">
        <ele>714.436</ele>
        <time>2021-10-13T16:57:37Z</time>
      </trkpt>
      <trkpt lat="41.569199" lon="-5.775682">
        <ele>713.775</ele>
        <time>2021-10-13T16:57:38Z</time>
      </trkpt>
      <trkpt lat="41.569737" lon="-5.775866">
        <ele>713.360</ele>
        <time>2021-10-13T16:57:40Z</time>
      </trkpt>
      <trkpt lat="41.570011" lon="-5.775960">
        <ele>714.596</ele>
        <time>2021-10-13T16:57:41Z</time>
      </trkpt>
      <trkpt lat="41.570281" lon="-5.776052">
        <ele>715.031</ele>
        <time>2021-10-13T16:57:42Z</time>
      </trkpt>
      <trkpt lat="41.570794" lon="-5.776224">
        <ele>716.124</ele>
        <time>2021-10-13T16:57:44Z</time>
      </trkpt>
      <trkpt lat="41.571279" lon="-5.776386">
        <ele>717.408</ele>
        <time>2021-10-13T16:57:46Z</time>
      </trkpt>
      <trkpt lat="41.571529" lon="-5.776472">
        <ele>717.777</ele>
        <time>2021-10-13T16:57:47Z</time>
      </trkpt>
      <trkpt lat="41.572044" lon="-5.776653">
        <ele>717.395</ele>
        <time>2021-10-13T16:57:49Z</time>
      </trkpt>
      <trkpt lat="41.572312" lon="-5.776748">
        <ele>717.112</ele>
        <time>2021-10-13T16:57:50Z</time>
      </trkpt>
      <trkpt lat="41.572827" lon="-5.776927">
        <ele>716.722</ele>
        <time>2021-10-13T16:57:52Z</time>
      </trkpt>
      <trkpt lat="41.573360" lon="-5.777113">
        <ele>717.165</ele>
        <time>2021-10-13T16:57:54Z</time>
      </trkpt>
      <trkpt lat="41.573633" lon="-5.777208">
        <ele>717.491</ele>
        <time>2021-10-13T16:57:55Z</time>
      </trkpt>
      <trkpt lat="41.573916" lon="-5.777306">
        <ele>718.540</ele>
        <time>2021-10-13T16:57:56Z</time>
      </trkpt>
      <trkpt lat="41.574455" lon="-5.777489">
        <ele>720.465</ele>
        <time>2021-10-13T16:57:58Z</time>
      </trkpt>
      <trkpt lat="41.574993" lon="-5.777679">
        <ele>720.218</ele>
        <time>2021-10-13T16:58:00Z</time>
      </trkpt>
      <trkpt lat="41.575537" lon="-5.777863">
        <ele>720.098</ele>
        <time>2021-10-13T16:58:02Z</time>
      </trkpt>
      <trkpt lat="41.576077" lon="-5.778043">
        <ele>721.017</ele>
        <time>2021-10-13T16:58:04Z</time>
      </trkpt>
      <trkpt lat="41.576357" lon="-5.778132">
        <ele>721.508</ele>
        <time>2021-10-13T16:58:05Z</time>
      </trkpt>
      <trkpt lat="41.576637" lon="-5.778223">
        <ele>721.079</ele>
        <time>2021-10-13T16:58:06Z</time>
      </trkpt>
      <trkpt lat="41.576917" lon="-5.778319">
        <ele>720.717</ele>
        <time>2021-10-13T16:58:07Z</time>
      </trkpt>
      <trkpt lat="41.577207" lon="-5.778419">
        <ele>720.784</ele>
        <time>2021-10-13T16:58:08Z</time>
      </trkpt>
      <trkpt lat="41.577760" lon="-5.778611">
        <ele>722.034</ele>
        <time>2021-10-13T16:58:10Z</time>
      </trkpt>
      <trkpt lat="41.578042" lon="-5.778708">
        <ele>722.387</ele>
        <time>2021-10-13T16:58:11Z</time>
      </trkpt>
      <trkpt lat="41.578322" lon="-5.778804">
        <ele>721.963</ele>
        <time>2021-10-13T16:58:12Z</time>
      </trkpt>
      <trkpt lat="41.578602" lon="-5.778900">
        <ele>721.772</ele>
        <time>2021-10-13T16:58:13Z</time>
      </trkpt>
      <trkpt lat="41.578882" lon="-5.778997">
        <ele>721.177</ele>
        <time>2021-10-13T16:58:14Z</time>
      </trkpt>
      <trkpt lat="41.579416" lon="-5.779183">
        <ele>720.437</ele>
        <time>2021-10-13T16:58:16Z</time>
      </trkpt>
      <trkpt lat="41.579695" lon="-5.779280">
        <ele>720.649</ele>
        <time>2021-10-13T16:58:17Z</time>
      </trkpt>
      <trkpt lat="41.579974" lon="-5.779376">
        <ele>720.413</ele>
        <time>2021-10-13T16:58:18Z</time>
      </trkpt>
      <trkpt lat="41.580542" lon="-5.779572">
        <ele>720.908</ele>
        <time>2021-10-13T16:58:20Z</time>
      </trkpt>
      <trkpt lat="41.581096" lon="-5.779762">
        <ele>721.981</ele>
        <time>2021-10-13T16:58:22Z</time>
      </trkpt>
      <trkpt lat="41.581379" lon="-5.779860">
        <ele>722.699</ele>
        <time>2021-10-13T16:58:23Z</time>
      </trkpt>
      <trkpt lat="41.581950" lon="-5.780058">
        <ele>723.756</ele>
        <time>2021-10-13T16:58:25Z</time>
      </trkpt>
      <trkpt lat="41.582247" lon="-5.780161">
        <ele>723.836</ele>
        <time>2021-10-13T16:58:26Z</time>
      </trkpt>
      <trkpt lat="41.582830" lon="-5.780363">
        <ele>722.649</ele>
        <time>2021-10-13T16:58:28Z</time>
      </trkpt>
      <trkpt lat="41.583134" lon="-5.780469">
        <ele>721.985</ele>
        <time>2021-10-13T16:58:29Z</time>
      </trkpt>
      <trkpt lat="41.583436" lon="-5.780575">
        <ele>721.194</ele>
        <time>2021-10-13T16:58:30Z</time>
      </trkpt>
      <trkpt lat="41.583733" lon="-5.780678">
        <ele>720.329</ele>
        <time>2021-10-13T16:58:31Z</time>
      </trkpt>
      <trkpt lat="41.584032" lon="-5.780782">
        <ele>719.943</ele>
        <time>2021-10-13T16:58:32Z</time>
      </trkpt>
      <trkpt lat="41.584591" lon="-5.780973">
        <ele>719.364</ele>
        <time>2021-10-13T16:58:34Z</time>
      </trkpt>
      <trkpt lat="41.584875" lon="-5.781069">
        <ele>718.810</ele>
        <time>2021-10-13T16:58:35Z</time>
      </trkpt>
      <trkpt lat="41.585436" lon="-5.781261">
        <ele>718.508</ele>
        <time>2021-10-13T16:58:37Z</time>
      </trkpt>
      <trkpt lat="41.585724" lon="-5.781360">
        <ele>718.572</ele>
        <time>2021-10-13T16:58:38Z</time>
      </trkpt>
      <trkpt lat="41.586282" lon="-5.781550">
        <ele>720.430</ele>
        <time>2021-10-13T16:58:40Z</time>
      </trkpt>
      <trkpt lat="41.586572" lon="-5.781647">
        <ele>720.297</ele>
        <time>2021-10-13T16:58:41Z</time>
      </trkpt>
      <trkpt lat="41.586860" lon="-5.781744">
        <ele>720.337</ele>
        <time>2021-10-13T16:58:42Z</time>
      </trkpt>
      <trkpt lat="41.587437" lon="-5.781943">
        <ele>720.390</ele>
        <time>2021-10-13T16:58:44Z</time>
      </trkpt>
      <trkpt lat="41.587988" lon="-5.782132">
        <ele>720.816</ele>
        <time>2021-10-13T16:58:46Z</time>
      </trkpt>
      <trkpt lat="41.588268" lon="-5.782227">
        <ele>721.085</ele>
        <time>2021-10-13T16:58:47Z</time>
      </trkpt>
      <trkpt lat="41.588814" lon="-5.782414">
        <ele>721.430</ele>
        <time>2021-10-13T16:58:49Z</time>
      </trkpt>
      <trkpt lat="41.589087" lon="-5.782508">
        <ele>721.349</ele>
        <time>2021-10-13T16:58:50Z</time>
      </trkpt>
      <trkpt lat="41.589582" lon="-5.782678">
        <ele>721.502</ele>
        <time>2021-10-13T16:58:52Z</time>
      </trkpt>
      <trkpt lat="41.589826" lon="-5.782762">
        <ele>721.722</ele>
        <time>2021-10-13T16:58:53Z</time>
      </trkpt>
      <trkpt lat="41.590069" lon="-5.782845">
        <ele>722.308</ele>
        <time>2021-10-13T16:58:54Z</time>
      </trkpt>
      <trkpt lat="41.590314" lon="-5.782928">
        <ele>722.432</ele>
        <time>2021-10-13T16:58:55Z</time>
      </trkpt>
      <trkpt lat="41.590569" lon="-5.783015">
        <ele>722.370</ele>
        <time>2021-10-13T16:58:56Z</time>
      </trkpt>
      <trkpt lat="41.591062" lon="-5.783184">
        <ele>721.747</ele>
        <time>2021-10-13T16:58:58Z</time>
      </trkpt>
      <trkpt lat="41.591578" lon="-5.783370">
        <ele>722.047</ele>
        <time>2021-10-13T16:59:00Z</time>
      </trkpt>
      <trkpt lat="41.591844" lon="-5.783467">
        <ele>722.080</ele>
        <time>2021-10-13T16:59:01Z</time>
      </trkpt>
      <trkpt lat="41.592123" lon="-5.783563">
        <ele>721.836</ele>
        <time>2021-10-13T16:59:02Z</time>
      </trkpt>
      <trkpt lat="41.592671" lon="-5.783752">
        <ele>720.725</ele>
        <time>2021-10-13T16:59:04Z</time>
      </trkpt>
      <trkpt lat="41.592959" lon="-5.783852">
        <ele>719.980</ele>
        <time>2021-10-13T16:59:05Z</time>
      </trkpt>
      <trkpt lat="41.593537" lon="-5.784053">
        <ele>717.984</ele>
        <time>2021-10-13T16:59:07Z</time>
      </trkpt>
      <trkpt lat="41.593837" lon="-5.784157">
        <ele>717.507</ele>
        <time>2021-10-13T16:59:08Z</time>
      </trkpt>
      <trkpt lat="41.594412" lon="-5.784357">
        <ele>718.617</ele>
        <time>2021-10-13T16:59:10Z</time>
      </trkpt>
      <trkpt lat="41.595003" lon="-5.784562">
        <ele>718.408</ele>
        <time>2021-10-13T16:59:12Z</time>
      </trkpt>
      <trkpt lat="41.595300" lon="-5.784663">
        <ele>717.826</ele>
        <time>2021-10-13T16:59:13Z</time>
      </trkpt>
      <trkpt lat="41.595602" lon="-5.784765">
        <ele>717.544</ele>
        <time>2021-10-13T16:59:14Z</time>
      </trkpt>
      <trkpt lat="41.596191" lon="-5.784965">
        <ele>717.831</ele>
        <time>2021-10-13T16:59:16Z</time>
      </trkpt>
      <trkpt lat="41.596489" lon="-5.785067">
        <ele>717.651</ele>
        <time>2021-10-13T16:59:17Z</time>
      </trkpt>
      <trkpt lat="41.596787" lon="-5.785170">
        <ele>718.174</ele>
        <time>2021-10-13T16:59:18Z</time>
      </trkpt>
      <trkpt lat="41.597086" lon="-5.785273">
        <ele>717.990</ele>
        <time>2021-10-13T16:59:19Z</time>
      </trkpt>
      <trkpt lat="41.597391" lon="-5.785379">
        <ele>717.929</ele>
        <time>2021-10-13T16:59:20Z</time>
      </trkpt>
      <trkpt lat="41.597971" lon="-5.785582">
        <ele>718.884</ele>
        <time>2021-10-13T16:59:22Z</time>
      </trkpt>
      <trkpt lat="41.598268" lon="-5.785687">
        <ele>719.086</ele>
        <time>2021-10-13T16:59:23Z</time>
      </trkpt>
      <trkpt lat="41.598859" lon="-5.785894">
        <ele>719.560</ele>
        <time>2021-10-13T16:59:25Z</time>
      </trkpt>
      <trkpt lat="41.599161" lon="-5.786001">
        <ele>719.526</ele>
        <time>2021-10-13T16:59:26Z</time>
      </trkpt>
      <trkpt lat="41.599720" lon="-5.786197">
        <ele>721.808</ele>
        <time>2021-10-13T16:59:28Z</time>
      </trkpt>
      <trkpt lat="41.600002" lon="-5.786296">
        <ele>722.276</ele>
        <time>2021-10-13T16:59:29Z</time>
      </trkpt>
      <trkpt lat="41.600556" lon="-5.786489">
        <ele>723.214</ele>
        <time>2021-10-13T16:59:31Z</time>
      </trkpt>
      <trkpt lat="41.600841" lon="-5.786587">
        <ele>723.691</ele>
        <time>2021-10-13T16:59:32Z</time>
      </trkpt>
      <trkpt lat="41.601390" lon="-5.786777">
        <ele>723.371</ele>
        <time>2021-10-13T16:59:34Z</time>
      </trkpt>
      <trkpt lat="41.601671" lon="-5.786876">
        <ele>723.264</ele>
        <time>2021-10-13T16:59:35Z</time>
      </trkpt>
      <trkpt lat="41.602240" lon="-5.787077">
        <ele>722.460</ele>
        <time>2021-10-13T16:59:37Z</time>
      </trkpt>
      <trkpt lat="41.602541" lon="-5.787183">
        <ele>722.239</ele>
        <time>2021-10-13T16:59:38Z</time>
      </trkpt>
      <trkpt lat="41.603108" lon="-5.787383">
        <ele>722.924</ele>
        <time>2021-10-13T16:59:40Z</time>
      </trkpt>
      <trkpt lat="41.603685" lon="-5.787584">
        <ele>722.454</ele>
        <time>2021-10-13T16:59:42Z</time>
      </trkpt>
      <trkpt lat="41.604269" lon="-5.787788">
        <ele>721.956</ele>
        <time>2021-10-13T16:59:44Z</time>
      </trkpt>
      <trkpt lat="41.604843" lon="-5.787987">
        <ele>721.811</ele>
        <time>2021-10-13T16:59:46Z</time>
      </trkpt>
      <trkpt lat="41.605439" lon="-5.788192">
        <ele>721.908</ele>
        <time>2021-10-13T16:59:48Z</time>
      </trkpt>
      <trkpt lat="41.606044" lon="-5.788393">
        <ele>722.163</ele>
        <time>2021-10-13T16:59:50Z</time>
      </trkpt>
      <trkpt lat="41.606627" lon="-5.788591">
        <ele>722.291</ele>
        <time>2021-10-13T16:59:52Z</time>
      </trkpt>
      <trkpt lat="41.607233" lon="-5.788806">
        <ele>722.568</ele>
        <time>2021-10-13T16:59:54Z</time>
      </trkpt>
      <trkpt lat="41.607856" lon="-5.789025">
        <ele>723.228</ele>
        <time>2021-10-13T16:59:56Z</time>
      </trkpt>
      <trkpt lat="41.608449" lon="-5.789228">
        <ele>724.421</ele>
        <time>2021-10-13T16:59:58Z</time>
      </trkpt>
      <trkpt lat="41.609040" lon="-5.789435">
        <ele>725.277</ele>
        <time>2021-10-13T17:00:00Z</time>
      </trkpt>
      <trkpt lat="41.609336" lon="-5.789538">
        <ele>725.086</ele>
        <time>2021-10-13T17:00:01Z</time>
      </trkpt>
      <trkpt lat="41.609639" lon="-5.789645">
        <ele>724.831</ele>
        <time>2021-10-13T17:00:02Z</time>
      </trkpt>
      <trkpt lat="41.610223" lon="-5.789852">
        <ele>724.655</ele>
        <time>2021-10-13T17:00:04Z</time>
      </trkpt>
      <trkpt lat="41.610526" lon="-5.789958">
        <ele>724.307</ele>
        <time>2021-10-13T17:00:05Z</time>
      </trkpt>
      <trkpt lat="41.611133" lon="-5.790168">
        <ele>724.617</ele>
        <time>2021-10-13T17:00:07Z</time>
      </trkpt>
      <trkpt lat="41.611446" lon="-5.790276">
        <ele>724.608</ele>
        <time>2021-10-13T17:00:08Z</time>
      </trkpt>
      <trkpt lat="41.612035" lon="-5.790480">
        <ele>724.573</ele>
        <time>2021-10-13T17:00:10Z</time>
      </trkpt>
      <trkpt lat="41.612636" lon="-5.790687">
        <ele>724.031</ele>
        <time>2021-10-13T17:00:12Z</time>
      </trkpt>
      <trkpt lat="41.612936" lon="-5.790789">
        <ele>723.938</ele>
        <time>2021-10-13T17:00:13Z</time>
      </trkpt>
      <trkpt lat="41.613247" lon="-5.790894">
        <ele>724.168</ele>
        <time>2021-10-13T17:00:14Z</time>
      </trkpt>
      <trkpt lat="41.613824" lon="-5.791090">
        <ele>722.791</ele>
        <time>2021-10-13T17:00:16Z</time>
      </trkpt>
      <trkpt lat="41.614410" lon="-5.791291">
        <ele>722.587</ele>
        <time>2021-10-13T17:00:18Z</time>
      </trkpt>
      <trkpt lat="41.614982" lon="-5.791489">
        <ele>722.116</ele>
        <time>2021-10-13T17:00:20Z</time>
      </trkpt>
      <trkpt lat="41.615529" lon="-5.791680">
        <ele>721.721</ele>
        <time>2021-10-13T17:00:22Z</time>
      </trkpt>
      <trkpt lat="41.616088" lon="-5.791875">
        <ele>720.852</ele>
        <time>2021-10-13T17:00:24Z</time>
      </trkpt>
      <trkpt lat="41.616656" lon="-5.792073">
        <ele>719.353</ele>
        <time>2021-10-13T17:00:26Z</time>
      </trkpt>
      <trkpt lat="41.617193" lon="-5.792262">
        <ele>719.708</ele>
        <time>2021-10-13T17:00:28Z</time>
      </trkpt>
      <trkpt lat="41.617470" lon="-5.792359">
        <ele>719.808</ele>
        <time>2021-10-13T17:00:29Z</time>
      </trkpt>
      <trkpt lat="41.618021" lon="-5.792541">
        <ele>720.583</ele>
        <time>2021-10-13T17:00:31Z</time>
      </trkpt>
      <trkpt lat="41.618303" lon="-5.792639">
        <ele>720.841</ele>
        <time>2021-10-13T17:00:32Z</time>
      </trkpt>
      <trkpt lat="41.618824" lon="-5.792819">
        <ele>720.558</ele>
        <time>2021-10-13T17:00:34Z</time>
      </trkpt>
      <trkpt lat="41.619357" lon="-5.793007">
        <ele>720.748</ele>
        <time>2021-10-13T17:00:36Z</time>
      </trkpt>
      <trkpt lat="41.619901" lon="-5.793196">
        <ele>719.631</ele>
        <time>2021-10-13T17:00:38Z</time>
      </trkpt>
      <trkpt lat="41.620430" lon="-5.793381">
        <ele>719.367</ele>
        <time>2021-10-13T17:00:40Z</time>
      </trkpt>
      <trkpt lat="41.620700" lon="-5.793473">
        <ele>719.166</ele>
        <time>2021-10-13T17:00:41Z</time>
      </trkpt>
      <trkpt lat="41.620972" lon="-5.793566">
        <ele>718.161</ele>
        <time>2021-10-13T17:00:42Z</time>
      </trkpt>
      <trkpt lat="41.621512" lon="-5.793751">
        <ele>716.614</ele>
        <time>2021-10-13T17:00:44Z</time>
      </trkpt>
      <trkpt lat="41.622031" lon="-5.793932">
        <ele>715.554</ele>
        <time>2021-10-13T17:00:46Z</time>
      </trkpt>
      <trkpt lat="41.622562" lon="-5.794115">
        <ele>714.409</ele>
        <time>2021-10-13T17:00:48Z</time>
      </trkpt>
      <trkpt lat="41.622827" lon="-5.794207">
        <ele>714.708</ele>
        <time>2021-10-13T17:00:49Z</time>
      </trkpt>
      <trkpt lat="41.623095" lon="-5.794300">
        <ele>714.469</ele>
        <time>2021-10-13T17:00:50Z</time>
      </trkpt>
      <trkpt lat="41.623600" lon="-5.794474">
        <ele>714.097</ele>
        <time>2021-10-13T17:00:52Z</time>
      </trkpt>
      <trkpt lat="41.623856" lon="-5.794562">
        <ele>713.994</ele>
        <time>2021-10-13T17:00:53Z</time>
      </trkpt>
      <trkpt lat="41.624365" lon="-5.794738">
        <ele>714.064</ele>
        <time>2021-10-13T17:00:55Z</time>
      </trkpt>
      <trkpt lat="41.624624" lon="-5.794829">
        <ele>714.117</ele>
        <time>2021-10-13T17:00:56Z</time>
      </trkpt>
      <trkpt lat="41.625143" lon="-5.795002">
        <ele>713.443</ele>
        <time>2021-10-13T17:00:58Z</time>
      </trkpt>
      <trkpt lat="41.625687" lon="-5.795189">
        <ele>712.822</ele>
        <time>2021-10-13T17:01:00Z</time>
      </trkpt>
      <trkpt lat="41.626232" lon="-5.795384">
        <ele>710.927</ele>
        <time>2021-10-13T17:01:02Z</time>
      </trkpt>
      <trkpt lat="41.626746" lon="-5.795569">
        <ele>710.463</ele>
        <time>2021-10-13T17:01:04Z</time>
      </trkpt>
      <trkpt lat="41.627006" lon="-5.795657">
        <ele>710.244</ele>
        <time>2021-10-13T17:01:05Z</time>
      </trkpt>
      <trkpt lat="41.627264" lon="-5.795745">
        <ele>710.118</ele>
        <time>2021-10-13T17:01:06Z</time>
      </trkpt>
      <trkpt lat="41.627787" lon="-5.795923">
        <ele>709.608</ele>
        <time>2021-10-13T17:01:08Z</time>
      </trkpt>
      <trkpt lat="41.628293" lon="-5.796092">
        <ele>708.684</ele>
        <time>2021-10-13T17:01:10Z</time>
      </trkpt>
      <trkpt lat="41.628780" lon="-5.796260">
        <ele>708.392</ele>
        <time>2021-10-13T17:01:12Z</time>
      </trkpt>
      <trkpt lat="41.629004" lon="-5.796343">
        <ele>708.649</ele>
        <time>2021-10-13T17:01:13Z</time>
      </trkpt>
      <trkpt lat="41.629220" lon="-5.796420">
        <ele>708.639</ele>
        <time>2021-10-13T17:01:14Z</time>
      </trkpt>
      <trkpt lat="41.629610" lon="-5.796551">
        <ele>708.612</ele>
        <time>2021-10-13T17:01:16Z</time>
      </trkpt>
      <trkpt lat="41.630004" lon="-5.796686">
        <ele>708.178</ele>
        <time>2021-10-13T17:01:18Z</time>
      </trkpt>
      <trkpt lat="41.630192" lon="-5.796751">
        <ele>707.987</ele>
        <time>2021-10-13T17:01:19Z</time>
      </trkpt>
      <trkpt lat="41.630376" lon="-5.796813">
        <ele>707.172</ele>
        <time>2021-10-13T17:01:20Z</time>
      </trkpt>
      <trkpt lat="41.630704" lon="-5.796926">
        <ele>706.913</ele>
        <time>2021-10-13T17:01:22Z</time>
      </trkpt>
      <trkpt lat="41.630859" lon="-5.796982">
        <ele>706.743</ele>
        <time>2021-10-13T17:01:23Z</time>
      </trkpt>
      <trkpt lat="41.631142" lon="-5.797055">
        <ele>707.207</ele>
        <time>2021-10-13T17:01:25Z</time>
      </trkpt>
      <trkpt lat="41.631274" lon="-5.797056">
        <ele>707.208</ele>
        <time>2021-10-13T17:01:26Z</time>
      </trkpt>
      <trkpt lat="41.631478" lon="-5.796959">
        <ele>707.359</ele>
        <time>2021-10-13T17:01:28Z</time>
      </trkpt>
      <trkpt lat="41.631660" lon="-5.796901">
        <ele>707.167</ele>
        <time>2021-10-13T17:01:30Z</time>
      </trkpt>
      <trkpt lat="41.631747" lon="-5.796928">
        <ele>707.184</ele>
        <time>2021-10-13T17:01:31Z</time>
      </trkpt>
      <trkpt lat="41.631827" lon="-5.797008">
        <ele>707.254</ele>
        <time>2021-10-13T17:01:32Z</time>
      </trkpt>
      <trkpt lat="41.631987" lon="-5.797265">
        <ele>707.297</ele>
        <time>2021-10-13T17:01:34Z</time>
      </trkpt>
      <trkpt lat="41.632262" lon="-5.797453">
        <ele>707.223</ele>
        <time>2021-10-13T17:01:36Z</time>
      </trkpt>
      <trkpt lat="41.632434" lon="-5.797516">
        <ele>706.952</ele>
        <time>2021-10-13T17:01:37Z</time>
      </trkpt>
      <trkpt lat="41.632619" lon="-5.797579">
        <ele>707.037</ele>
        <time>2021-10-13T17:01:38Z</time>
      </trkpt>
      <trkpt lat="41.632971" lon="-5.797707">
        <ele>707.065</ele>
        <time>2021-10-13T17:01:40Z</time>
      </trkpt>
      <trkpt lat="41.633326" lon="-5.797834">
        <ele>706.068</ele>
        <time>2021-10-13T17:01:42Z</time>
      </trkpt>
      <trkpt lat="41.633498" lon="-5.797890">
        <ele>705.614</ele>
        <time>2021-10-13T17:01:43Z</time>
      </trkpt>
      <trkpt lat="41.633675" lon="-5.797948">
        <ele>705.308</ele>
        <time>2021-10-13T17:01:44Z</time>
      </trkpt>
      <trkpt lat="41.634012" lon="-5.798059">
        <ele>705.024</ele>
        <time>2021-10-13T17:01:46Z</time>
      </trkpt>
      <trkpt lat="41.634185" lon="-5.798117">
        <ele>705.032</ele>
        <time>2021-10-13T17:01:47Z</time>
      </trkpt>
      <trkpt lat="41.634532" lon="-5.798235">
        <ele>705.389</ele>
        <time>2021-10-13T17:01:49Z</time>
      </trkpt>
      <trkpt lat="41.634714" lon="-5.798297">
        <ele>705.499</ele>
        <time>2021-10-13T17:01:50Z</time>
      </trkpt>
      <trkpt lat="41.635075" lon="-5.798419">
        <ele>706.352</ele>
        <time>2021-10-13T17:01:52Z</time>
      </trkpt>
      <trkpt lat="41.635460" lon="-5.798552">
        <ele>705.678</ele>
        <time>2021-10-13T17:01:54Z</time>
      </trkpt>
      <trkpt lat="41.635659" lon="-5.798621">
        <ele>705.597</ele>
        <time>2021-10-13T17:01:55Z</time>
      </trkpt>
      <trkpt lat="41.635867" lon="-5.798693">
        <ele>705.732</ele>
        <time>2021-10-13T17:01:56Z</time>
      </trkpt>
      <trkpt lat="41.636270" lon="-5.798833">
        <ele>704.965</ele>
        <time>2021-10-13T17:01:58Z</time>
      </trkpt>
      <trkpt lat="41.636482" lon="-5.798906">
        <ele>704.468</ele>
        <time>2021-10-13T17:01:59Z</time>
      </trkpt>
      <trkpt lat="41.636929" lon="-5.799061">
        <ele>703.214</ele>
        <time>2021-10-13T17:02:01Z</time>
      </trkpt>
      <trkpt lat="41.637173" lon="-5.799145">
        <ele>703.408</ele>
        <time>2021-10-13T17:02:02Z</time>
      </trkpt>
      <trkpt lat="41.637654" lon="-5.799309">
        <ele>702.944</ele>
        <time>2021-10-13T17:02:04Z</time>
      </trkpt>
      <trkpt lat="41.638165" lon="-5.799485">
        <ele>703.072</ele>
        <time>2021-10-13T17:02:06Z</time>
      </trkpt>
      <trkpt lat="41.638666" lon="-5.799656">
        <ele>702.289</ele>
        <time>2021-10-13T17:02:08Z</time>
      </trkpt>
      <trkpt lat="41.639159" lon="-5.799821">
        <ele>701.059</ele>
        <time>2021-10-13T17:02:10Z</time>
      </trkpt>
      <trkpt lat="41.639417" lon="-5.799907">
        <ele>701.082</ele>
        <time>2021-10-13T17:02:11Z</time>
      </trkpt>
      <trkpt lat="41.639676" lon="-5.799993">
        <ele>700.678</ele>
        <time>2021-10-13T17:02:12Z</time>
      </trkpt>
      <trkpt lat="41.640220" lon="-5.800178">
        <ele>699.497</ele>
        <time>2021-10-13T17:02:14Z</time>
      </trkpt>
      <trkpt lat="41.640763" lon="-5.800365">
        <ele>698.462</ele>
        <time>2021-10-13T17:02:16Z</time>
      </trkpt>
      <trkpt lat="41.641049" lon="-5.800462">
        <ele>697.949</ele>
        <time>2021-10-13T17:02:17Z</time>
      </trkpt>
      <trkpt lat="41.641603" lon="-5.800650">
        <ele>696.702</ele>
        <time>2021-10-13T17:02:19Z</time>
      </trkpt>
      <trkpt lat="41.641896" lon="-5.800749">
        <ele>695.822</ele>
        <time>2021-10-13T17:02:20Z</time>
      </trkpt>
      <trkpt lat="41.642473" lon="-5.800943">
        <ele>696.008</ele>
        <time>2021-10-13T17:02:22Z</time>
      </trkpt>
      <trkpt lat="41.642769" lon="-5.801043">
        <ele>696.542</ele>
        <time>2021-10-13T17:02:23Z</time>
      </trkpt>
      <trkpt lat="41.643299" lon="-5.801223">
        <ele>694.950</ele>
        <time>2021-10-13T17:02:25Z</time>
      </trkpt>
      <trkpt lat="41.643552" lon="-5.801309">
        <ele>695.157</ele>
        <time>2021-10-13T17:02:26Z</time>
      </trkpt>
      <trkpt lat="41.644026" lon="-5.801469">
        <ele>694.847</ele>
        <time>2021-10-13T17:02:28Z</time>
      </trkpt>
      <trkpt lat="41.644270" lon="-5.801552">
        <ele>694.210</ele>
        <time>2021-10-13T17:02:29Z</time>
      </trkpt>
      <trkpt lat="41.644730" lon="-5.801711">
        <ele>693.446</ele>
        <time>2021-10-13T17:02:31Z</time>
      </trkpt>
      <trkpt lat="41.644937" lon="-5.801777">
        <ele>693.785</ele>
        <time>2021-10-13T17:02:32Z</time>
      </trkpt>
      <trkpt lat="41.645266" lon="-5.801875">
        <ele>693.620</ele>
        <time>2021-10-13T17:02:34Z</time>
      </trkpt>
      <trkpt lat="41.645419" lon="-5.801922">
        <ele>693.111</ele>
        <time>2021-10-13T17:02:35Z</time>
      </trkpt>
      <trkpt lat="41.645751" lon="-5.802046">
        <ele>692.821</ele>
        <time>2021-10-13T17:02:37Z</time>
      </trkpt>
      <trkpt lat="41.645950" lon="-5.802121">
        <ele>692.403</ele>
        <time>2021-10-13T17:02:38Z</time>
      </trkpt>
      <trkpt lat="41.646367" lon="-5.802262">
        <ele>691.608</ele>
        <time>2021-10-13T17:02:40Z</time>
      </trkpt>
      <trkpt lat="41.646597" lon="-5.802342">
        <ele>691.929</ele>
        <time>2021-10-13T17:02:41Z</time>
      </trkpt>
      <trkpt lat="41.647070" lon="-5.802505">
        <ele>691.077</ele>
        <time>2021-10-13T17:02:43Z</time>
      </trkpt>
      <trkpt lat="41.647300" lon="-5.802588">
        <ele>690.524</ele>
        <time>2021-10-13T17:02:44Z</time>
      </trkpt>
      <trkpt lat="41.647704" lon="-5.802724">
        <ele>691.054</ele>
        <time>2021-10-13T17:02:46Z</time>
      </trkpt>
      <trkpt lat="41.648082" lon="-5.802851">
        <ele>690.247</ele>
        <time>2021-10-13T17:02:48Z</time>
      </trkpt>
      <trkpt lat="41.648261" lon="-5.802911">
        <ele>689.913</ele>
        <time>2021-10-13T17:02:49Z</time>
      </trkpt>
      <trkpt lat="41.648441" lon="-5.802969">
        <ele>690.092</ele>
        <time>2021-10-13T17:02:50Z</time>
      </trkpt>
      <trkpt lat="41.648783" lon="-5.803088">
        <ele>690.857</ele>
        <time>2021-10-13T17:02:52Z</time>
      </trkpt>
      <trkpt lat="41.648967" lon="-5.803152">
        <ele>690.274</ele>
        <time>2021-10-13T17:02:53Z</time>
      </trkpt>
      <trkpt lat="41.649335" lon="-5.803272">
        <ele>690.056</ele>
        <time>2021-10-13T17:02:55Z</time>
      </trkpt>
      <trkpt lat="41.649524" lon="-5.803341">
        <ele>689.021</ele>
        <time>2021-10-13T17:02:56Z</time>
      </trkpt>
      <trkpt lat="41.649861" lon="-5.803449">
        <ele>688.408</ele>
        <time>2021-10-13T17:02:58Z</time>
      </trkpt>
      <trkpt lat="41.650028" lon="-5.803502">
        <ele>687.935</ele>
        <time>2021-10-13T17:02:59Z</time>
      </trkpt>
      <trkpt lat="41.650201" lon="-5.803558">
        <ele>688.373</ele>
        <time>2021-10-13T17:03:00Z</time>
      </trkpt>
      <trkpt lat="41.650385" lon="-5.803620">
        <ele>687.860</ele>
        <time>2021-10-13T17:03:01Z</time>
      </trkpt>
      <trkpt lat="41.650582" lon="-5.803687">
        <ele>688.380</ele>
        <time>2021-10-13T17:03:02Z</time>
      </trkpt>
      <trkpt lat="41.650988" lon="-5.803826">
        <ele>689.073</ele>
        <time>2021-10-13T17:03:04Z</time>
      </trkpt>
      <trkpt lat="41.651435" lon="-5.803979">
        <ele>689.159</ele>
        <time>2021-10-13T17:03:06Z</time>
      </trkpt>
      <trkpt lat="41.651681" lon="-5.804058">
        <ele>687.888</ele>
        <time>2021-10-13T17:03:07Z</time>
      </trkpt>
      <trkpt lat="41.651938" lon="-5.804147">
        <ele>687.833</ele>
        <time>2021-10-13T17:03:08Z</time>
      </trkpt>
      <trkpt lat="41.652441" lon="-5.804321">
        <ele>688.448</ele>
        <time>2021-10-13T17:03:10Z</time>
      </trkpt>
      <trkpt lat="41.652974" lon="-5.804504">
        <ele>688.161</ele>
        <time>2021-10-13T17:03:12Z</time>
      </trkpt>
      <trkpt lat="41.653246" lon="-5.804602">
        <ele>688.317</ele>
        <time>2021-10-13T17:03:13Z</time>
      </trkpt>
      <trkpt lat="41.653522" lon="-5.804726">
        <ele>688.808</ele>
        <time>2021-10-13T17:03:14Z</time>
      </trkpt>
      <trkpt lat="41.654027" lon="-5.805044">
        <ele>689.342</ele>
        <time>2021-10-13T17:03:16Z</time>
      </trkpt>
      <trkpt lat="41.654520" lon="-5.805454">
        <ele>692.690</ele>
        <time>2021-10-13T17:03:18Z</time>
      </trkpt>
      <trkpt lat="41.654774" lon="-5.805654">
        <ele>694.487</ele>
        <time>2021-10-13T17:03:19Z</time>
      </trkpt>
      <trkpt lat="41.655044" lon="-5.805843">
        <ele>695.217</ele>
        <time>2021-10-13T17:03:20Z</time>
      </trkpt>
      <trkpt lat="41.655601" lon="-5.806125">
        <ele>699.140</ele>
        <time>2021-10-13T17:03:22Z</time>
      </trkpt>
      <trkpt lat="41.655906" lon="-5.806222">
        <ele>701.276</ele>
        <time>2021-10-13T17:03:23Z</time>
      </trkpt>
      <trkpt lat="41.656527" lon="-5.806317">
        <ele>703.265</ele>
        <time>2021-10-13T17:03:25Z</time>
      </trkpt>
      <trkpt lat="41.656838" lon="-5.806330">
        <ele>704.750</ele>
        <time>2021-10-13T17:03:26Z</time>
      </trkpt>
      <trkpt lat="41.657450" lon="-5.806314">
        <ele>706.797</ele>
        <time>2021-10-13T17:03:28Z</time>
      </trkpt>
      <trkpt lat="41.658078" lon="-5.806288">
        <ele>707.923</ele>
        <time>2021-10-13T17:03:30Z</time>
      </trkpt>
      <trkpt lat="41.658393" lon="-5.806284">
        <ele>708.325</ele>
        <time>2021-10-13T17:03:31Z</time>
      </trkpt>
      <trkpt lat="41.658712" lon="-5.806280">
        <ele>708.708</ele>
        <time>2021-10-13T17:03:32Z</time>
      </trkpt>
      <trkpt lat="41.659308" lon="-5.806271">
        <ele>708.117</ele>
        <time>2021-10-13T17:03:34Z</time>
      </trkpt>
      <trkpt lat="41.659613" lon="-5.806265">
        <ele>707.865</ele>
        <time>2021-10-13T17:03:35Z</time>
      </trkpt>
      <trkpt lat="41.660219" lon="-5.806254">
        <ele>706.392</ele>
        <time>2021-10-13T17:03:37Z</time>
      </trkpt>
      <trkpt lat="41.660531" lon="-5.806249">
        <ele>705.982</ele>
        <time>2021-10-13T17:03:38Z</time>
      </trkpt>
      <trkpt lat="41.661124" lon="-5.806236">
        <ele>705.265</ele>
        <time>2021-10-13T17:03:40Z</time>
      </trkpt>
      <trkpt lat="41.661425" lon="-5.806230">
        <ele>704.981</ele>
        <time>2021-10-13T17:03:41Z</time>
      </trkpt>
      <trkpt lat="41.662028" lon="-5.806219">
        <ele>703.120</ele>
        <time>2021-10-13T17:03:43Z</time>
      </trkpt>
      <trkpt lat="41.662336" lon="-5.806215">
        <ele>703.115</ele>
        <time>2021-10-13T17:03:44Z</time>
      </trkpt>
      <trkpt lat="41.662910" lon="-5.806207">
        <ele>701.857</ele>
        <time>2021-10-13T17:03:46Z</time>
      </trkpt>
      <trkpt lat="41.663198" lon="-5.806204">
        <ele>701.400</ele>
        <time>2021-10-13T17:03:47Z</time>
      </trkpt>
      <trkpt lat="41.663759" lon="-5.806198">
        <ele>700.120</ele>
        <time>2021-10-13T17:03:49Z</time>
      </trkpt>
      <trkpt lat="41.664040" lon="-5.806194">
        <ele>700.308</ele>
        <time>2021-10-13T17:03:50Z</time>
      </trkpt>
      <trkpt lat="41.664588" lon="-5.806186">
        <ele>700.593</ele>
        <time>2021-10-13T17:03:52Z</time>
      </trkpt>
      <trkpt lat="41.664869" lon="-5.806182">
        <ele>700.861</ele>
        <time>2021-10-13T17:03:53Z</time>
      </trkpt>
      <trkpt lat="41.665153" lon="-5.806180">
        <ele>700.168</ele>
        <time>2021-10-13T17:03:54Z</time>
      </trkpt>
      <trkpt lat="41.665741" lon="-5.806176">
        <ele>700.918</ele>
        <time>2021-10-13T17:03:56Z</time>
      </trkpt>
      <trkpt lat="41.666320" lon="-5.806170">
        <ele>700.211</ele>
        <time>2021-10-13T17:03:58Z</time>
      </trkpt>
      <trkpt lat="41.666917" lon="-5.806161">
        <ele>699.887</ele>
        <time>2021-10-13T17:04:00Z</time>
      </trkpt>
      <trkpt lat="41.667213" lon="-5.806157">
        <ele>699.386</ele>
        <time>2021-10-13T17:04:01Z</time>
      </trkpt>
      <trkpt lat="41.667516" lon="-5.806153">
        <ele>698.381</ele>
        <time>2021-10-13T17:04:02Z</time>
      </trkpt>
      <trkpt lat="41.668092" lon="-5.806147">
        <ele>699.774</ele>
        <time>2021-10-13T17:04:04Z</time>
      </trkpt>
      <trkpt lat="41.668385" lon="-5.806145">
        <ele>699.156</ele>
        <time>2021-10-13T17:04:05Z</time>
      </trkpt>
      <trkpt lat="41.668964" lon="-5.806145">
        <ele>699.821</ele>
        <time>2021-10-13T17:04:07Z</time>
      </trkpt>
      <trkpt lat="41.669259" lon="-5.806141">
        <ele>698.808</ele>
        <time>2021-10-13T17:04:08Z</time>
      </trkpt>
      <trkpt lat="41.669826" lon="-5.806132">
        <ele>699.615</ele>
        <time>2021-10-13T17:04:10Z</time>
      </trkpt>
      <trkpt lat="41.670400" lon="-5.806123">
        <ele>699.483</ele>
        <time>2021-10-13T17:04:12Z</time>
      </trkpt>
      <trkpt lat="41.670683" lon="-5.806119">
        <ele>699.760</ele>
        <time>2021-10-13T17:04:13Z</time>
      </trkpt>
      <trkpt lat="41.670972" lon="-5.806116">
        <ele>700.220</ele>
        <time>2021-10-13T17:04:14Z</time>
      </trkpt>
      <trkpt lat="41.671515" lon="-5.806110">
        <ele>700.353</ele>
        <time>2021-10-13T17:04:16Z</time>
      </trkpt>
      <trkpt lat="41.672068" lon="-5.806104">
        <ele>700.559</ele>
        <time>2021-10-13T17:04:18Z</time>
      </trkpt>
      <trkpt lat="41.672632" lon="-5.806100">
        <ele>701.128</ele>
        <time>2021-10-13T17:04:20Z</time>
      </trkpt>
      <trkpt lat="41.673181" lon="-5.806095">
        <ele>702.393</ele>
        <time>2021-10-13T17:04:22Z</time>
      </trkpt>
      <trkpt lat="41.673471" lon="-5.806093">
        <ele>701.848</ele>
        <time>2021-10-13T17:04:23Z</time>
      </trkpt>
      <trkpt lat="41.673759" lon="-5.806090">
        <ele>701.361</ele>
        <time>2021-10-13T17:04:24Z</time>
      </trkpt>
      <trkpt lat="41.674349" lon="-5.806083">
        <ele>701.517</ele>
        <time>2021-10-13T17:04:26Z</time>
      </trkpt>
      <trkpt lat="41.674923" lon="-5.806073">
        <ele>701.408</ele>
        <time>2021-10-13T17:04:28Z</time>
      </trkpt>
      <trkpt lat="41.675217" lon="-5.806068">
        <ele>701.592</ele>
        <time>2021-10-13T17:04:29Z</time>
      </trkpt>
      <trkpt lat="41.675508" lon="-5.806063">
        <ele>701.830</ele>
        <time>2021-10-13T17:04:30Z</time>
      </trkpt>
      <trkpt lat="41.676089" lon="-5.806058">
        <ele>702.547</ele>
        <time>2021-10-13T17:04:32Z</time>
      </trkpt>
      <trkpt lat="41.676660" lon="-5.806056">
        <ele>702.457</ele>
        <time>2021-10-13T17:04:34Z</time>
      </trkpt>
      <trkpt lat="41.676949" lon="-5.806054">
        <ele>702.490</ele>
        <time>2021-10-13T17:04:35Z</time>
      </trkpt>
      <trkpt lat="41.677239" lon="-5.806051">
        <ele>703.146</ele>
        <time>2021-10-13T17:04:36Z</time>
      </trkpt>
      <trkpt lat="41.677529" lon="-5.806049">
        <ele>703.685</ele>
        <time>2021-10-13T17:04:37Z</time>
      </trkpt>
      <trkpt lat="41.677829" lon="-5.806047">
        <ele>703.090</ele>
        <time>2021-10-13T17:04:38Z</time>
      </trkpt>
      <trkpt lat="41.678408" lon="-5.806041">
        <ele>704.341</ele>
        <time>2021-10-13T17:04:40Z</time>
      </trkpt>
      <trkpt lat="41.678707" lon="-5.806038">
        <ele>704.581</ele>
        <time>2021-10-13T17:04:41Z</time>
      </trkpt>
      <trkpt lat="41.679309" lon="-5.806033">
        <ele>704.709</ele>
        <time>2021-10-13T17:04:43Z</time>
      </trkpt>
      <trkpt lat="41.679618" lon="-5.806031">
        <ele>705.408</ele>
        <time>2021-10-13T17:04:44Z</time>
      </trkpt>
      <trkpt lat="41.680207" lon="-5.806027">
        <ele>706.612</ele>
        <time>2021-10-13T17:04:46Z</time>
      </trkpt>
      <trkpt lat="41.680505" lon="-5.806026">
        <ele>707.820</ele>
        <time>2021-10-13T17:04:47Z</time>
      </trkpt>
      <trkpt lat="41.681074" lon="-5.806029">
        <ele>709.667</ele>
        <time>2021-10-13T17:04:49Z</time>
      </trkpt>
      <trkpt lat="41.681365" lon="-5.806032">
        <ele>710.027</ele>
        <time>2021-10-13T17:04:50Z</time>
      </trkpt>
      <trkpt lat="41.681911" lon="-5.806029">
        <ele>710.690</ele>
        <time>2021-10-13T17:04:52Z</time>
      </trkpt>
      <trkpt lat="41.682191" lon="-5.806022">
        <ele>710.356</ele>
        <time>2021-10-13T17:04:53Z</time>
      </trkpt>
      <trkpt lat="41.682738" lon="-5.806002">
        <ele>709.455</ele>
        <time>2021-10-13T17:04:55Z</time>
      </trkpt>
      <trkpt lat="41.683023" lon="-5.805999">
        <ele>709.580</ele>
        <time>2021-10-13T17:04:56Z</time>
      </trkpt>
      <trkpt lat="41.683552" lon="-5.806000">
        <ele>709.873</ele>
        <time>2021-10-13T17:04:58Z</time>
      </trkpt>
      <trkpt lat="41.683821" lon="-5.806002">
        <ele>709.385</ele>
        <time>2021-10-13T17:04:59Z</time>
      </trkpt>
      <trkpt lat="41.684084" lon="-5.806003">
        <ele>708.413</ele>
        <time>2021-10-13T17:05:00Z</time>
      </trkpt>
      <trkpt lat="41.684582" lon="-5.806003">
        <ele>708.008</ele>
        <time>2021-10-13T17:05:02Z</time>
      </trkpt>
      <trkpt lat="41.685070" lon="-5.806042">
        <ele>707.475</ele>
        <time>2021-10-13T17:05:04Z</time>
      </trkpt>
      <trkpt lat="41.685584" lon="-5.806164">
        <ele>706.813</ele>
        <time>2021-10-13T17:05:06Z</time>
      </trkpt>
      <trkpt lat="41.685838" lon="-5.806256">
        <ele>706.690</ele>
        <time>2021-10-13T17:05:07Z</time>
      </trkpt>
      <trkpt lat="41.686101" lon="-5.806370">
        <ele>707.040</ele>
        <time>2021-10-13T17:05:08Z</time>
      </trkpt>
      <trkpt lat="41.686604" lon="-5.806631">
        <ele>705.993</ele>
        <time>2021-10-13T17:05:10Z</time>
      </trkpt>
      <trkpt lat="41.687067" lon="-5.806895">
        <ele>706.759</ele>
        <time>2021-10-13T17:05:12Z</time>
      </trkpt>
      <trkpt lat="41.687266" lon="-5.807013">
        <ele>706.148</ele>
        <time>2021-10-13T17:05:13Z</time>
      </trkpt>
      <trkpt lat="41.687441" lon="-5.807115">
        <ele>705.143</ele>
        <time>2021-10-13T17:05:14Z</time>
      </trkpt>
      <trkpt lat="41.687736" lon="-5.807282">
        <ele>704.742</ele>
        <time>2021-10-13T17:05:16Z</time>
      </trkpt>
      <trkpt lat="41.687870" lon="-5.807361">
        <ele>704.322</ele>
        <time>2021-10-13T17:05:17Z</time>
      </trkpt>
      <trkpt lat="41.688118" lon="-5.807496">
        <ele>703.214</ele>
        <time>2021-10-13T17:05:19Z</time>
      </trkpt>
      <trkpt lat="41.688238" lon="-5.807557">
        <ele>702.908</ele>
        <time>2021-10-13T17:05:20Z</time>
      </trkpt>
      <trkpt lat="41.688435" lon="-5.807635">
        <ele>702.932</ele>
        <time>2021-10-13T17:05:22Z</time>
      </trkpt>
      <trkpt lat="41.688604" lon="-5.807663">
        <ele>702.970</ele>
        <time>2021-10-13T17:05:24Z</time>
      </trkpt>
      <trkpt lat="41.688765" lon="-5.807635">
        <ele>702.217</ele>
        <time>2021-10-13T17:05:26Z</time>
      </trkpt>
      <trkpt lat="41.688894" lon="-5.807499">
        <ele>701.417</ele>
        <time>2021-10-13T17:05:28Z</time>
      </trkpt>
      <trkpt lat="41.688942" lon="-5.807383">
        <ele>701.410</ele>
        <time>2021-10-13T17:05:29Z</time>
      </trkpt>
      <trkpt lat="41.689006" lon="-5.807082">
        <ele>701.086</ele>
        <time>2021-10-13T17:05:31Z</time>
      </trkpt>
      <trkpt lat="41.689012" lon="-5.806905">
        <ele>700.965</ele>
        <time>2021-10-13T17:05:32Z</time>
      </trkpt>
      <trkpt lat="41.688937" lon="-5.806532">
        <ele>701.040</ele>
        <time>2021-10-13T17:05:34Z</time>
      </trkpt>
      <trkpt lat="41.688812" lon="-5.806134">
        <ele>702.031</ele>
        <time>2021-10-13T17:05:36Z</time>
      </trkpt>
      <trkpt lat="41.688741" lon="-5.805921">
        <ele>703.161</ele>
        <time>2021-10-13T17:05:37Z</time>
      </trkpt>
      <trkpt lat="41.688666" lon="-5.805691">
        <ele>704.907</ele>
        <time>2021-10-13T17:05:38Z</time>
      </trkpt>
      <trkpt lat="41.688514" lon="-5.805228">
        <ele>707.408</ele>
        <time>2021-10-13T17:05:40Z</time>
      </trkpt>
      <trkpt lat="41.688432" lon="-5.804981">
        <ele>707.771</ele>
        <time>2021-10-13T17:05:41Z</time>
      </trkpt>
      <trkpt lat="41.688271" lon="-5.804507">
        <ele>709.969</ele>
        <time>2021-10-13T17:05:43Z</time>
      </trkpt>
      <trkpt lat="41.688199" lon="-5.804291">
        <ele>710.466</ele>
        <time>2021-10-13T17:05:44Z</time>
      </trkpt>
      <trkpt lat="41.688075" lon="-5.803929">
        <ele>710.296</ele>
        <time>2021-10-13T17:05:46Z</time>
      </trkpt>
      <trkpt lat="41.687974" lon="-5.803621">
        <ele>710.829</ele>
        <time>2021-10-13T17:05:48Z</time>
      </trkpt>
      <trkpt lat="41.687926" lon="-5.803483">
        <ele>710.055</ele>
        <time>2021-10-13T17:05:49Z</time>
      </trkpt>
      <trkpt lat="41.687875" lon="-5.803350">
        <ele>709.854</ele>
        <time>2021-10-13T17:05:50Z</time>
      </trkpt>
      <trkpt lat="41.687729" lon="-5.803143">
        <ele>708.389</ele>
        <time>2021-10-13T17:05:52Z</time>
      </trkpt>
      <trkpt lat="41.687630" lon="-5.803071">
        <ele>708.027</ele>
        <time>2021-10-13T17:05:53Z</time>
      </trkpt>
      <trkpt lat="41.687531" lon="-5.803011">
        <ele>708.068</ele>
        <time>2021-10-13T17:05:54Z</time>
      </trkpt>
      <trkpt lat="41.687393" lon="-5.802833">
        <ele>706.914</ele>
        <time>2021-10-13T17:05:56Z</time>
      </trkpt>
      <trkpt lat="41.687361" lon="-5.802625">
        <ele>706.008</ele>
        <time>2021-10-13T17:05:58Z</time>
      </trkpt>
      <trkpt lat="41.687427" lon="-5.802429">
        <ele>705.220</ele>
        <time>2021-10-13T17:06:00Z</time>
      </trkpt>
      <trkpt lat="41.687600" lon="-5.802257">
        <ele>704.988</ele>
        <time>2021-10-13T17:06:02Z</time>
      </trkpt>
      <trkpt lat="41.687807" lon="-5.802097">
        <ele>704.425</ele>
        <time>2021-10-13T17:06:04Z</time>
      </trkpt>
      <trkpt lat="41.688006" lon="-5.801932">
        <ele>704.795</ele>
        <time>2021-10-13T17:06:06Z</time>
      </trkpt>
      <trkpt lat="41.688119" lon="-5.801878">
        <ele>704.788</ele>
        <time>2021-10-13T17:06:07Z</time>
      </trkpt>
      <trkpt lat="41.688244" lon="-5.801852">
        <ele>704.054</ele>
        <time>2021-10-13T17:06:08Z</time>
      </trkpt>
      <trkpt lat="41.688527" lon="-5.801930">
        <ele>704.083</ele>
        <time>2021-10-13T17:06:10Z</time>
      </trkpt>
      <trkpt lat="41.688865" lon="-5.802131">
        <ele>702.548</ele>
        <time>2021-10-13T17:06:12Z</time>
      </trkpt>
      <trkpt lat="41.689053" lon="-5.802220">
        <ele>702.051</ele>
        <time>2021-10-13T17:06:13Z</time>
      </trkpt>
      <trkpt lat="41.689259" lon="-5.802271">
        <ele>701.401</ele>
        <time>2021-10-13T17:06:14Z</time>
      </trkpt>
      <trkpt lat="41.689673" lon="-5.802228">
        <ele>699.511</ele>
        <time>2021-10-13T17:06:16Z</time>
      </trkpt>
      <trkpt lat="41.689882" lon="-5.802151">
        <ele>698.608</ele>
        <time>2021-10-13T17:06:17Z</time>
      </trkpt>
      <trkpt lat="41.690086" lon="-5.802051">
        <ele>698.383</ele>
        <time>2021-10-13T17:06:18Z</time>
      </trkpt>
      <trkpt lat="41.690489" lon="-5.801791">
        <ele>698.181</ele>
        <time>2021-10-13T17:06:20Z</time>
      </trkpt>
      <trkpt lat="41.690868" lon="-5.801464">
        <ele>697.788</ele>
        <time>2021-10-13T17:06:22Z</time>
      </trkpt>
      <trkpt lat="41.691240" lon="-5.801094">
        <ele>697.398</ele>
        <time>2021-10-13T17:06:24Z</time>
      </trkpt>
      <trkpt lat="41.691608" lon="-5.800717">
        <ele>696.871</ele>
        <time>2021-10-13T17:06:26Z</time>
      </trkpt>
      <trkpt lat="41.691952" lon="-5.800341">
        <ele>695.657</ele>
        <time>2021-10-13T17:06:28Z</time>
      </trkpt>
      <trkpt lat="41.692132" lon="-5.800141">
        <ele>696.066</ele>
        <time>2021-10-13T17:06:29Z</time>
      </trkpt>
      <trkpt lat="41.692313" lon="-5.799931">
        <ele>696.381</ele>
        <time>2021-10-13T17:06:30Z</time>
      </trkpt>
      <trkpt lat="41.692679" lon="-5.799485">
        <ele>696.334</ele>
        <time>2021-10-13T17:06:32Z</time>
      </trkpt>
      <trkpt lat="41.693011" lon="-5.799062">
        <ele>696.755</ele>
        <time>2021-10-13T17:06:34Z</time>
      </trkpt>
      <trkpt lat="41.693344" lon="-5.798627">
        <ele>695.610</ele>
        <time>2021-10-13T17:06:36Z</time>
      </trkpt>
      <trkpt lat="41.693521" lon="-5.798400">
        <ele>696.108</ele>
        <time>2021-10-13T17:06:37Z</time>
      </trkpt>
      <trkpt lat="41.693706" lon="-5.798163">
        <ele>696.171</ele>
        <time>2021-10-13T17:06:38Z</time>
      </trkpt>
      <trkpt lat="41.694066" lon="-5.797707">
        <ele>695.059</ele>
        <time>2021-10-13T17:06:40Z</time>
      </trkpt>
      <trkpt lat="41.694436" lon="-5.797244">
        <ele>694.216</ele>
        <time>2021-10-13T17:06:42Z</time>
      </trkpt>
      <trkpt lat="41.694816" lon="-5.796794">
        <ele>695.236</ele>
        <time>2021-10-13T17:06:44Z</time>
      </trkpt>
      <trkpt lat="41.695183" lon="-5.796373">
        <ele>694.719</ele>
        <time>2021-10-13T17:06:46Z</time>
      </trkpt>
      <trkpt lat="41.695372" lon="-5.796167">
        <ele>694.295</ele>
        <time>2021-10-13T17:06:47Z</time>
      </trkpt>
      <trkpt lat="41.695565" lon="-5.795965">
        <ele>693.894</ele>
        <time>2021-10-13T17:06:48Z</time>
      </trkpt>
      <trkpt lat="41.695955" lon="-5.795570">
        <ele>694.049</ele>
        <time>2021-10-13T17:06:50Z</time>
      </trkpt>
      <trkpt lat="41.696318" lon="-5.795225">
        <ele>693.812</ele>
        <time>2021-10-13T17:06:52Z</time>
      </trkpt>
      <trkpt lat="41.696499" lon="-5.795056">
        <ele>693.432</ele>
        <time>2021-10-13T17:06:53Z</time>
      </trkpt>
      <trkpt lat="41.696685" lon="-5.794890">
        <ele>693.005</ele>
        <time>2021-10-13T17:06:54Z</time>
      </trkpt>
      <trkpt lat="41.697069" lon="-5.794566">
        <ele>693.008</ele>
        <time>2021-10-13T17:06:56Z</time>
      </trkpt>
      <trkpt lat="41.697446" lon="-5.794270">
        <ele>692.239</ele>
        <time>2021-10-13T17:06:58Z</time>
      </trkpt>
      <trkpt lat="41.697838" lon="-5.793980">
        <ele>691.767</ele>
        <time>2021-10-13T17:07:00Z</time>
      </trkpt>
      <trkpt lat="41.698040" lon="-5.793842">
        <ele>691.864</ele>
        <time>2021-10-13T17:07:01Z</time>
      </trkpt>
      <trkpt lat="41.698247" lon="-5.793706">
        <ele>692.374</ele>
        <time>2021-10-13T17:07:02Z</time>
      </trkpt>
      <trkpt lat="41.698622" lon="-5.793467">
        <ele>691.337</ele>
        <time>2021-10-13T17:07:04Z</time>
      </trkpt>
      <trkpt lat="41.698975" lon="-5.793258">
        <ele>689.893</ele>
        <time>2021-10-13T17:07:06Z</time>
      </trkpt>
      <trkpt lat="41.699150" lon="-5.793158">
        <ele>689.542</ele>
        <time>2021-10-13T17:07:07Z</time>
      </trkpt>
      <trkpt lat="41.699336" lon="-5.793056">
        <ele>689.687</ele>
        <time>2021-10-13T17:07:08Z</time>
      </trkpt>
      <trkpt lat="41.699705" lon="-5.792864">
        <ele>689.038</ele>
        <time>2021-10-13T17:07:10Z</time>
      </trkpt>
      <trkpt lat="41.700102" lon="-5.792674">
        <ele>688.770</ele>
        <time>2021-10-13T17:07:12Z</time>
      </trkpt>
      <trkpt lat="41.700515" lon="-5.792491">
        <ele>688.517</ele>
        <time>2021-10-13T17:07:14Z</time>
      </trkpt>
      <trkpt lat="41.700933" lon="-5.792333">
        <ele>688.108</ele>
        <time>2021-10-13T17:07:16Z</time>
      </trkpt>
      <trkpt lat="41.701160" lon="-5.792258">
        <ele>688.281</ele>
        <time>2021-10-13T17:07:17Z</time>
      </trkpt>
      <trkpt lat="41.701400" lon="-5.792185">
        <ele>687.789</ele>
        <time>2021-10-13T17:07:18Z</time>
      </trkpt>
      <trkpt lat="41.701649" lon="-5.792113">
        <ele>687.446</ele>
        <time>2021-10-13T17:07:19Z</time>
      </trkpt>
      <trkpt lat="41.701911" lon="-5.792031">
        <ele>686.926</ele>
        <time>2021-10-13T17:07:20Z</time>
      </trkpt>
      <trkpt lat="41.702443" lon="-5.791882">
        <ele>686.389</ele>
        <time>2021-10-13T17:07:22Z</time>
      </trkpt>
      <trkpt lat="41.702728" lon="-5.791804">
        <ele>686.435</ele>
        <time>2021-10-13T17:07:23Z</time>
      </trkpt>
      <trkpt lat="41.703308" lon="-5.791633">
        <ele>686.544</ele>
        <time>2021-10-13T17:07:25Z</time>
      </trkpt>
      <trkpt lat="41.703618" lon="-5.791553">
        <ele>686.999</ele>
        <time>2021-10-13T17:07:26Z</time>
      </trkpt>
      <trkpt lat="41.704218" lon="-5.791451">
        <ele>686.464</ele>
        <time>2021-10-13T17:07:28Z</time>
      </trkpt>
      <trkpt lat="41.704533" lon="-5.791413">
        <ele>687.106</ele>
        <time>2021-10-13T17:07:29Z</time>
      </trkpt>
      <trkpt lat="41.704850" lon="-5.791374">
        <ele>687.816</ele>
        <time>2021-10-13T17:07:30Z</time>
      </trkpt>
      <trkpt lat="41.705497" lon="-5.791293">
        <ele>688.808</ele>
        <time>2021-10-13T17:07:32Z</time>
      </trkpt>
      <trkpt lat="41.706122" lon="-5.791212">
        <ele>688.484</ele>
        <time>2021-10-13T17:07:34Z</time>
      </trkpt>
      <trkpt lat="41.706745" lon="-5.791132">
        <ele>688.932</ele>
        <time>2021-10-13T17:07:36Z</time>
      </trkpt>
      <trkpt lat="41.707355" lon="-5.791054">
        <ele>689.559</ele>
        <time>2021-10-13T17:07:38Z</time>
      </trkpt>
      <trkpt lat="41.707929" lon="-5.790970">
        <ele>690.389</ele>
        <time>2021-10-13T17:07:40Z</time>
      </trkpt>
      <trkpt lat="41.708222" lon="-5.790918">
        <ele>690.252</ele>
        <time>2021-10-13T17:07:41Z</time>
      </trkpt>
      <trkpt lat="41.708518" lon="-5.790857">
        <ele>691.488</ele>
        <time>2021-10-13T17:07:42Z</time>
      </trkpt>
      <trkpt lat="41.708819" lon="-5.790786">
        <ele>692.487</ele>
        <time>2021-10-13T17:07:43Z</time>
      </trkpt>
      <trkpt lat="41.709130" lon="-5.790700">
        <ele>692.442</ele>
        <time>2021-10-13T17:07:44Z</time>
      </trkpt>
      <trkpt lat="41.709726" lon="-5.790512">
        <ele>694.093</ele>
        <time>2021-10-13T17:07:46Z</time>
      </trkpt>
      <trkpt lat="41.710033" lon="-5.790402">
        <ele>694.365</ele>
        <time>2021-10-13T17:07:47Z</time>
      </trkpt>
      <trkpt lat="41.710338" lon="-5.790283">
        <ele>695.021</ele>
        <time>2021-10-13T17:07:48Z</time>
      </trkpt>
      <trkpt lat="41.710945" lon="-5.790009">
        <ele>695.608</ele>
        <time>2021-10-13T17:07:50Z</time>
      </trkpt>
      <trkpt lat="41.711516" lon="-5.789710">
        <ele>695.277</ele>
        <time>2021-10-13T17:07:52Z</time>
      </trkpt>
      <trkpt lat="41.711808" lon="-5.789547">
        <ele>696.075</ele>
        <time>2021-10-13T17:07:53Z</time>
      </trkpt>
      <trkpt lat="41.712368" lon="-5.789209">
        <ele>696.562</ele>
        <time>2021-10-13T17:07:55Z</time>
      </trkpt>
      <trkpt lat="41.712652" lon="-5.789024">
        <ele>696.972</ele>
        <time>2021-10-13T17:07:56Z</time>
      </trkpt>
      <trkpt lat="41.713181" lon="-5.788657">
        <ele>697.745</ele>
        <time>2021-10-13T17:07:58Z</time>
      </trkpt>
      <trkpt lat="41.713704" lon="-5.788260">
        <ele>696.971</ele>
        <time>2021-10-13T17:08:00Z</time>
      </trkpt>
      <trkpt lat="41.713958" lon="-5.788044">
        <ele>697.540</ele>
        <time>2021-10-13T17:08:01Z</time>
      </trkpt>
      <trkpt lat="41.714213" lon="-5.787817">
        <ele>697.235</ele>
        <time>2021-10-13T17:08:02Z</time>
      </trkpt>
      <trkpt lat="41.714686" lon="-5.787365">
        <ele>697.449</ele>
        <time>2021-10-13T17:08:04Z</time>
      </trkpt>
      <trkpt lat="41.715152" lon="-5.786896">
        <ele>697.102</ele>
        <time>2021-10-13T17:08:06Z</time>
      </trkpt>
      <trkpt lat="41.715593" lon="-5.786403">
        <ele>697.822</ele>
        <time>2021-10-13T17:08:08Z</time>
      </trkpt>
      <trkpt lat="41.716003" lon="-5.785914">
        <ele>698.708</ele>
        <time>2021-10-13T17:08:10Z</time>
      </trkpt>
      <trkpt lat="41.716420" lon="-5.785394">
        <ele>698.982</ele>
        <time>2021-10-13T17:08:12Z</time>
      </trkpt>
      <trkpt lat="41.716832" lon="-5.784844">
        <ele>699.540</ele>
        <time>2021-10-13T17:08:14Z</time>
      </trkpt>
      <trkpt lat="41.717227" lon="-5.784300">
        <ele>700.697</ele>
        <time>2021-10-13T17:08:16Z</time>
      </trkpt>
      <trkpt lat="41.717634" lon="-5.783750">
        <ele>700.477</ele>
        <time>2021-10-13T17:08:18Z</time>
      </trkpt>
      <trkpt lat="41.718055" lon="-5.783216">
        <ele>701.170</ele>
        <time>2021-10-13T17:08:20Z</time>
      </trkpt>
      <trkpt lat="41.718467" lon="-5.782724">
        <ele>701.426</ele>
        <time>2021-10-13T17:08:22Z</time>
      </trkpt>
      <trkpt lat="41.718674" lon="-5.782479">
        <ele>702.025</ele>
        <time>2021-10-13T17:08:23Z</time>
      </trkpt>
      <trkpt lat="41.719082" lon="-5.782009">
        <ele>702.340</ele>
        <time>2021-10-13T17:08:25Z</time>
      </trkpt>
      <trkpt lat="41.719287" lon="-5.781776">
        <ele>702.025</ele>
        <time>2021-10-13T17:08:26Z</time>
      </trkpt>
      <trkpt lat="41.719671" lon="-5.781341">
        <ele>703.226</ele>
        <time>2021-10-13T17:08:28Z</time>
      </trkpt>
      <trkpt lat="41.719863" lon="-5.781119">
        <ele>702.908</ele>
        <time>2021-10-13T17:08:29Z</time>
      </trkpt>
      <trkpt lat="41.720214" lon="-5.780651">
        <ele>702.908</ele>
        <time>2021-10-13T17:08:31Z</time>
      </trkpt>
      <trkpt lat="41.720367" lon="-5.780398">
        <ele>702.540</ele>
        <time>2021-10-13T17:08:32Z</time>
      </trkpt>
      <trkpt lat="41.720611" lon="-5.779900">
        <ele>703.878</ele>
        <time>2021-10-13T17:08:34Z</time>
      </trkpt>
      <trkpt lat="41.720709" lon="-5.779632">
        <ele>704.225</ele>
        <time>2021-10-13T17:08:35Z</time>
      </trkpt>
      <trkpt lat="41.720864" lon="-5.779087">
        <ele>704.745</ele>
        <time>2021-10-13T17:08:37Z</time>
      </trkpt>
      <trkpt lat="41.720917" lon="-5.778812">
        <ele>705.458</ele>
        <time>2021-10-13T17:08:38Z</time>
      </trkpt>
      <trkpt lat="41.720997" lon="-5.778325">
        <ele>707.084</ele>
        <time>2021-10-13T17:08:40Z</time>
      </trkpt>
      <trkpt lat="41.721037" lon="-5.778104">
        <ele>707.023</ele>
        <time>2021-10-13T17:08:41Z</time>
      </trkpt>
      <trkpt lat="41.721104" lon="-5.777724">
        <ele>708.638</ele>
        <time>2021-10-13T17:08:43Z</time>
      </trkpt>
      <trkpt lat="41.721155" lon="-5.777564">
        <ele>708.722</ele>
        <time>2021-10-13T17:08:44Z</time>
      </trkpt>
      <trkpt lat="41.721313" lon="-5.777356">
        <ele>709.362</ele>
        <time>2021-10-13T17:08:46Z</time>
      </trkpt>
      <trkpt lat="41.721420" lon="-5.777305">
        <ele>710.008</ele>
        <time>2021-10-13T17:08:47Z</time>
      </trkpt>
      <trkpt lat="41.721667" lon="-5.777321">
        <ele>710.308</ele>
        <time>2021-10-13T17:08:49Z</time>
      </trkpt>
      <trkpt lat="41.721804" lon="-5.777387">
        <ele>710.980</ele>
        <time>2021-10-13T17:08:50Z</time>
      </trkpt>
      <trkpt lat="41.722037" lon="-5.777557">
        <ele>711.818</ele>
        <time>2021-10-13T17:08:52Z</time>
      </trkpt>
      <trkpt lat="41.722141" lon="-5.777624">
        <ele>711.335</ele>
        <time>2021-10-13T17:08:53Z</time>
      </trkpt>
      <trkpt lat="41.722226" lon="-5.777700">
        <ele>711.245</ele>
        <time>2021-10-13T17:08:54Z</time>
      </trkpt>
      <trkpt lat="41.722309" lon="-5.777909">
        <ele>712.068</ele>
        <time>2021-10-13T17:08:56Z</time>
      </trkpt>
      <trkpt lat="41.722315" lon="-5.778196">
        <ele>712.144</ele>
        <time>2021-10-13T17:08:58Z</time>
      </trkpt>
      <trkpt lat="41.722340" lon="-5.778367">
        <ele>712.193</ele>
        <time>2021-10-13T17:08:59Z</time>
      </trkpt>
      <trkpt lat="41.722393" lon="-5.778537">
        <ele>712.178</ele>
        <time>2021-10-13T17:09:00Z</time>
      </trkpt>
      <trkpt lat="41.722470" lon="-5.778707">
        <ele>712.195</ele>
        <time>2021-10-13T17:09:01Z</time>
      </trkpt>
      <trkpt lat="41.722564" lon="-5.778882">
        <ele>712.049</ele>
        <time>2021-10-13T17:09:02Z</time>
      </trkpt>
      <trkpt lat="41.722738" lon="-5.779188">
        <ele>713.223</ele>
        <time>2021-10-13T17:09:04Z</time>
      </trkpt>
      <trkpt lat="41.722824" lon="-5.779317">
        <ele>712.708</ele>
        <time>2021-10-13T17:09:05Z</time>
      </trkpt>
      <trkpt lat="41.723001" lon="-5.779483">
        <ele>711.827</ele>
        <time>2021-10-13T17:09:07Z</time>
      </trkpt>
      <trkpt lat="41.723092" lon="-5.779534">
        <ele>711.235</ele>
        <time>2021-10-13T17:09:08Z</time>
      </trkpt>
      <trkpt lat="41.723220" lon="-5.779678">
        <ele>711.172</ele>
        <time>2021-10-13T17:09:10Z</time>
      </trkpt>
      <trkpt lat="41.723244" lon="-5.779913">
        <ele>711.562</ele>
        <time>2021-10-13T17:09:12Z</time>
      </trkpt>
      <trkpt lat="41.723156" lon="-5.780215">
        <ele>712.145</ele>
        <time>2021-10-13T17:09:14Z</time>
      </trkpt>
      <trkpt lat="41.723122" lon="-5.780592">
        <ele>710.891</ele>
        <time>2021-10-13T17:09:16Z</time>
      </trkpt>
      <trkpt lat="41.723142" lon="-5.780810">
        <ele>710.580</ele>
        <time>2021-10-13T17:09:17Z</time>
      </trkpt>
      <trkpt lat="41.723175" lon="-5.781045">
        <ele>709.945</ele>
        <time>2021-10-13T17:09:18Z</time>
      </trkpt>
      <trkpt lat="41.723230" lon="-5.781592">
        <ele>708.946</ele>
        <time>2021-10-13T17:09:20Z</time>
      </trkpt>
      <trkpt lat="41.723293" lon="-5.782180">
        <ele>709.488</ele>
        <time>2021-10-13T17:09:22Z</time>
      </trkpt>
      <trkpt lat="41.723386" lon="-5.782718">
        <ele>709.516</ele>
        <time>2021-10-13T17:09:24Z</time>
      </trkpt>
      <trkpt lat="41.723445" lon="-5.782951">
        <ele>709.808</ele>
        <time>2021-10-13T17:09:25Z</time>
      </trkpt>
      <trkpt lat="41.723510" lon="-5.783171">
        <ele>710.292</ele>
        <time>2021-10-13T17:09:26Z</time>
      </trkpt>
      <trkpt lat="41.723639" lon="-5.783530">
        <ele>712.080</ele>
        <time>2021-10-13T17:09:28Z</time>
      </trkpt>
      <trkpt lat="41.723705" lon="-5.783689">
        <ele>711.627</ele>
        <time>2021-10-13T17:09:29Z</time>
      </trkpt>
      <trkpt lat="41.723848" lon="-5.783950">
        <ele>712.447</ele>
        <time>2021-10-13T17:09:31Z</time>
      </trkpt>
      <trkpt lat="41.723946" lon="-5.784052">
        <ele>713.640</ele>
        <time>2021-10-13T17:09:32Z</time>
      </trkpt>
      <trkpt lat="41.724190" lon="-5.784178">
        <ele>713.486</ele>
        <time>2021-10-13T17:09:34Z</time>
      </trkpt>
      <trkpt lat="41.724337" lon="-5.784205">
        <ele>713.435</ele>
        <time>2021-10-13T17:09:35Z</time>
      </trkpt>
      <trkpt lat="41.724665" lon="-5.784136">
        <ele>714.270</ele>
        <time>2021-10-13T17:09:37Z</time>
      </trkpt>
      <trkpt lat="41.724856" lon="-5.784042">
        <ele>714.835</ele>
        <time>2021-10-13T17:09:38Z</time>
      </trkpt>
      <trkpt lat="41.725270" lon="-5.783826">
        <ele>715.286</ele>
        <time>2021-10-13T17:09:40Z</time>
      </trkpt>
      <trkpt lat="41.725506" lon="-5.783718">
        <ele>716.114</ele>
        <time>2021-10-13T17:09:41Z</time>
      </trkpt>
      <trkpt lat="41.725996" lon="-5.783506">
        <ele>717.108</ele>
        <time>2021-10-13T17:09:43Z</time>
      </trkpt>
      <trkpt lat="41.726261" lon="-5.783392">
        <ele>717.171</ele>
        <time>2021-10-13T17:09:44Z</time>
      </trkpt>
      <trkpt lat="41.726785" lon="-5.783161">
        <ele>717.049</ele>
        <time>2021-10-13T17:09:46Z</time>
      </trkpt>
      <trkpt lat="41.727055" lon="-5.783042">
        <ele>717.256</ele>
        <time>2021-10-13T17:09:47Z</time>
      </trkpt>
      <trkpt lat="41.727326" lon="-5.782927">
        <ele>717.136</ele>
        <time>2021-10-13T17:09:48Z</time>
      </trkpt>
      <trkpt lat="41.727601" lon="-5.782804">
        <ele>717.069</ele>
        <time>2021-10-13T17:09:49Z</time>
      </trkpt>
      <trkpt lat="41.727880" lon="-5.782672">
        <ele>717.045</ele>
        <time>2021-10-13T17:09:50Z</time>
      </trkpt>
      <trkpt lat="41.728404" lon="-5.782396">
        <ele>715.724</ele>
        <time>2021-10-13T17:09:52Z</time>
      </trkpt>
      <trkpt lat="41.728877" lon="-5.782116">
        <ele>715.779</ele>
        <time>2021-10-13T17:09:54Z</time>
      </trkpt>
      <trkpt lat="41.729090" lon="-5.781983">
        <ele>715.649</ele>
        <time>2021-10-13T17:09:55Z</time>
      </trkpt>
      <trkpt lat="41.729298" lon="-5.781850">
        <ele>716.002</ele>
        <time>2021-10-13T17:09:56Z</time>
      </trkpt>
      <trkpt lat="41.729690" lon="-5.781602">
        <ele>715.922</ele>
        <time>2021-10-13T17:09:58Z</time>
      </trkpt>
      <trkpt lat="41.730090" lon="-5.781347">
        <ele>715.408</ele>
        <time>2021-10-13T17:10:00Z</time>
      </trkpt>
      <trkpt lat="41.730288" lon="-5.781220">
        <ele>715.832</ele>
        <time>2021-10-13T17:10:01Z</time>
      </trkpt>
      <trkpt lat="41.730489" lon="-5.781089">
        <ele>715.510</ele>
        <time>2021-10-13T17:10:02Z</time>
      </trkpt>
      <trkpt lat="41.730873" lon="-5.780843">
        <ele>715.977</ele>
        <time>2021-10-13T17:10:04Z</time>
      </trkpt>
      <trkpt lat="41.731074" lon="-5.780717">
        <ele>716.367</ele>
        <time>2021-10-13T17:10:05Z</time>
      </trkpt>
      <trkpt lat="41.731475" lon="-5.780467">
        <ele>716.860</ele>
        <time>2021-10-13T17:10:07Z</time>
      </trkpt>
      <trkpt lat="41.731680" lon="-5.780336">
        <ele>716.656</ele>
        <time>2021-10-13T17:10:08Z</time>
      </trkpt>
      <trkpt lat="41.732069" lon="-5.780086">
        <ele>716.915</ele>
        <time>2021-10-13T17:10:10Z</time>
      </trkpt>
      <trkpt lat="41.732273" lon="-5.779955">
        <ele>716.160</ele>
        <time>2021-10-13T17:10:11Z</time>
      </trkpt>
      <trkpt lat="41.732467" lon="-5.779825">
        <ele>716.133</ele>
        <time>2021-10-13T17:10:12Z</time>
      </trkpt>
      <trkpt lat="41.732835" lon="-5.779587">
        <ele>715.923</ele>
        <time>2021-10-13T17:10:14Z</time>
      </trkpt>
      <trkpt lat="41.733166" lon="-5.779378">
        <ele>713.915</ele>
        <time>2021-10-13T17:10:16Z</time>
      </trkpt>
      <trkpt lat="41.733329" lon="-5.779270">
        <ele>712.908</ele>
        <time>2021-10-13T17:10:17Z</time>
      </trkpt>
      <trkpt lat="41.733642" lon="-5.779066">
        <ele>711.321</ele>
        <time>2021-10-13T17:10:19Z</time>
      </trkpt>
      <trkpt lat="41.733800" lon="-5.778968">
        <ele>710.739</ele>
        <time>2021-10-13T17:10:20Z</time>
      </trkpt>
      <trkpt lat="41.734088" lon="-5.778783">
        <ele>709.366</ele>
        <time>2021-10-13T17:10:22Z</time>
      </trkpt>
      <trkpt lat="41.734240" lon="-5.778686">
        <ele>707.736</ele>
        <time>2021-10-13T17:10:23Z</time>
      </trkpt>
      <trkpt lat="41.734575" lon="-5.778480">
        <ele>706.459</ele>
        <time>2021-10-13T17:10:25Z</time>
      </trkpt>
      <trkpt lat="41.734766" lon="-5.778371">
        <ele>705.855</ele>
        <time>2021-10-13T17:10:26Z</time>
      </trkpt>
      <trkpt lat="41.735164" lon="-5.778169">
        <ele>703.874</ele>
        <time>2021-10-13T17:10:28Z</time>
      </trkpt>
      <trkpt lat="41.735384" lon="-5.778072">
        <ele>702.629</ele>
        <time>2021-10-13T17:10:29Z</time>
      </trkpt>
      <trkpt lat="41.735842" lon="-5.777870">
        <ele>701.476</ele>
        <time>2021-10-13T17:10:31Z</time>
      </trkpt>
      <trkpt lat="41.736090" lon="-5.777760">
        <ele>701.290</ele>
        <time>2021-10-13T17:10:32Z</time>
      </trkpt>
      <trkpt lat="41.736594" lon="-5.777535">
        <ele>700.219</ele>
        <time>2021-10-13T17:10:34Z</time>
      </trkpt>
      <trkpt lat="41.736863" lon="-5.777414">
        <ele>699.408</ele>
        <time>2021-10-13T17:10:35Z</time>
      </trkpt>
      <trkpt lat="41.737399" lon="-5.777173">
        <ele>699.065</ele>
        <time>2021-10-13T17:10:37Z</time>
      </trkpt>
      <trkpt lat="41.737665" lon="-5.777054">
        <ele>699.753</ele>
        <time>2021-10-13T17:10:38Z</time>
      </trkpt>
      <trkpt lat="41.738158" lon="-5.776835">
        <ele>700.080</ele>
        <time>2021-10-13T17:10:40Z</time>
      </trkpt>
      <trkpt lat="41.738408" lon="-5.776724">
        <ele>700.730</ele>
        <time>2021-10-13T17:10:41Z</time>
      </trkpt>
      <trkpt lat="41.738656" lon="-5.776614">
        <ele>701.073</ele>
        <time>2021-10-13T17:10:42Z</time>
      </trkpt>
      <trkpt lat="41.739150" lon="-5.776394">
        <ele>700.049</ele>
        <time>2021-10-13T17:10:44Z</time>
      </trkpt>
      <trkpt lat="41.739616" lon="-5.776185">
        <ele>700.218</ele>
        <time>2021-10-13T17:10:46Z</time>
      </trkpt>
      <trkpt lat="41.740086" lon="-5.775973">
        <ele>701.043</ele>
        <time>2021-10-13T17:10:48Z</time>
      </trkpt>
      <trkpt lat="41.740565" lon="-5.775758">
        <ele>701.173</ele>
        <time>2021-10-13T17:10:50Z</time>
      </trkpt>
      <trkpt lat="41.741033" lon="-5.775545">
        <ele>701.385</ele>
        <time>2021-10-13T17:10:52Z</time>
      </trkpt>
      <trkpt lat="41.741278" lon="-5.775434">
        <ele>700.713</ele>
        <time>2021-10-13T17:10:53Z</time>
      </trkpt>
      <trkpt lat="41.741526" lon="-5.775322">
        <ele>700.808</ele>
        <time>2021-10-13T17:10:54Z</time>
      </trkpt>
      <trkpt lat="41.742042" lon="-5.775090">
        <ele>700.125</ele>
        <time>2021-10-13T17:10:56Z</time>
      </trkpt>
      <trkpt lat="41.742556" lon="-5.774867">
        <ele>701.113</ele>
        <time>2021-10-13T17:10:58Z</time>
      </trkpt>
      <trkpt lat="41.743079" lon="-5.774631">
        <ele>700.790</ele>
        <time>2021-10-13T17:11:00Z</time>
      </trkpt>
      <trkpt lat="41.743346" lon="-5.774505">
        <ele>700.620</ele>
        <time>2021-10-13T17:11:01Z</time>
      </trkpt>
      <trkpt lat="41.743622" lon="-5.774380">
        <ele>700.173</ele>
        <time>2021-10-13T17:11:02Z</time>
      </trkpt>
      <trkpt lat="41.744159" lon="-5.774134">
        <ele>699.379</ele>
        <time>2021-10-13T17:11:04Z</time>
      </trkpt>
      <trkpt lat="41.744722" lon="-5.773881">
        <ele>700.678</ele>
        <time>2021-10-13T17:11:06Z</time>
      </trkpt>
      <trkpt lat="41.745294" lon="-5.773621">
        <ele>700.543</ele>
        <time>2021-10-13T17:11:08Z</time>
      </trkpt>
      <trkpt lat="41.745849" lon="-5.773368">
        <ele>699.838</ele>
        <time>2021-10-13T17:11:10Z</time>
      </trkpt>
      <trkpt lat="41.746136" lon="-5.773238">
        <ele>700.170</ele>
        <time>2021-10-13T17:11:11Z</time>
      </trkpt>
      <trkpt lat="41.746702" lon="-5.772985">
        <ele>700.117</ele>
        <time>2021-10-13T17:11:13Z</time>
      </trkpt>
      <trkpt lat="41.746992" lon="-5.772856">
        <ele>700.208</ele>
        <time>2021-10-13T17:11:14Z</time>
      </trkpt>
      <trkpt lat="41.747529" lon="-5.772615">
        <ele>700.111</ele>
        <time>2021-10-13T17:11:16Z</time>
      </trkpt>
      <trkpt lat="41.748061" lon="-5.772378">
        <ele>699.599</ele>
        <time>2021-10-13T17:11:18Z</time>
      </trkpt>
      <trkpt lat="41.748587" lon="-5.772142">
        <ele>698.556</ele>
        <time>2021-10-13T17:11:20Z</time>
      </trkpt>
      <trkpt lat="41.749090" lon="-5.771915">
        <ele>698.386</ele>
        <time>2021-10-13T17:11:22Z</time>
      </trkpt>
      <trkpt lat="41.749348" lon="-5.771798">
        <ele>698.229</ele>
        <time>2021-10-13T17:11:23Z</time>
      </trkpt>
      <trkpt lat="41.749859" lon="-5.771566">
        <ele>698.035</ele>
        <time>2021-10-13T17:11:25Z</time>
      </trkpt>
      <trkpt lat="41.750126" lon="-5.771447">
        <ele>698.214</ele>
        <time>2021-10-13T17:11:26Z</time>
      </trkpt>
      <trkpt lat="41.750620" lon="-5.771225">
        <ele>698.049</ele>
        <time>2021-10-13T17:11:28Z</time>
      </trkpt>
      <trkpt lat="41.751129" lon="-5.770993">
        <ele>697.728</ele>
        <time>2021-10-13T17:11:30Z</time>
      </trkpt>
      <trkpt lat="41.751388" lon="-5.770875">
        <ele>697.389</ele>
        <time>2021-10-13T17:11:31Z</time>
      </trkpt>
      <trkpt lat="41.751662" lon="-5.770752">
        <ele>696.717</ele>
        <time>2021-10-13T17:11:32Z</time>
      </trkpt>
      <trkpt lat="41.752184" lon="-5.770518">
        <ele>694.508</ele>
        <time>2021-10-13T17:11:34Z</time>
      </trkpt>
      <trkpt lat="41.752460" lon="-5.770395">
        <ele>693.990</ele>
        <time>2021-10-13T17:11:35Z</time>
      </trkpt>
      <trkpt lat="41.753013" lon="-5.770149">
        <ele>691.968</ele>
        <time>2021-10-13T17:11:37Z</time>
      </trkpt>
      <trkpt lat="41.753298" lon="-5.770022">
        <ele>691.035</ele>
        <time>2021-10-13T17:11:38Z</time>
      </trkpt>
      <trkpt lat="41.753827" lon="-5.769786">
        <ele>690.745</ele>
        <time>2021-10-13T17:11:40Z</time>
      </trkpt>
      <trkpt lat="41.754363" lon="-5.769542">
        <ele>690.328</ele>
        <time>2021-10-13T17:11:42Z</time>
      </trkpt>
      <trkpt lat="41.754624" lon="-5.769421">
        <ele>690.954</ele>
        <time>2021-10-13T17:11:43Z</time>
      </trkpt>
      <trkpt lat="41.754885" lon="-5.769292">
        <ele>692.063</ele>
        <time>2021-10-13T17:11:44Z</time>
      </trkpt>
      <trkpt lat="41.755359" lon="-5.769007">
        <ele>693.858</ele>
        <time>2021-10-13T17:11:46Z</time>
      </trkpt>
      <trkpt lat="41.755588" lon="-5.768849">
        <ele>694.916</ele>
        <time>2021-10-13T17:11:47Z</time>
      </trkpt>
      <trkpt lat="41.755813" lon="-5.768696">
        <ele>696.176</ele>
        <time>2021-10-13T17:11:48Z</time>
      </trkpt>
      <trkpt lat="41.756266" lon="-5.768407">
        <ele>697.213</ele>
        <time>2021-10-13T17:11:50Z</time>
      </trkpt>
      <trkpt lat="41.756710" lon="-5.768147">
        <ele>699.308</ele>
        <time>2021-10-13T17:11:52Z</time>
      </trkpt>
      <trkpt lat="41.757167" lon="-5.767918">
        <ele>699.039</ele>
        <time>2021-10-13T17:11:54Z</time>
      </trkpt>
      <trkpt lat="41.757404" lon="-5.767820">
        <ele>699.677</ele>
        <time>2021-10-13T17:11:55Z</time>
      </trkpt>
      <trkpt lat="41.757652" lon="-5.767737">
        <ele>699.864</ele>
        <time>2021-10-13T17:11:56Z</time>
      </trkpt>
      <trkpt lat="41.758129" lon="-5.767635">
        <ele>700.744</ele>
        <time>2021-10-13T17:11:58Z</time>
      </trkpt>
      <trkpt lat="41.758378" lon="-5.767604">
        <ele>700.567</ele>
        <time>2021-10-13T17:11:59Z</time>
      </trkpt>
      <trkpt lat="41.758862" lon="-5.767575">
        <ele>701.013</ele>
        <time>2021-10-13T17:12:01Z</time>
      </trkpt>
      <trkpt lat="41.759099" lon="-5.767569">
        <ele>700.322</ele>
        <time>2021-10-13T17:12:02Z</time>
      </trkpt>
      <trkpt lat="41.759552" lon="-5.767556">
        <ele>701.027</ele>
        <time>2021-10-13T17:12:04Z</time>
      </trkpt>
      <trkpt lat="41.759781" lon="-5.767548">
        <ele>700.328</ele>
        <time>2021-10-13T17:12:05Z</time>
      </trkpt>
      <trkpt lat="41.760200" lon="-5.767530">
        <ele>701.089</ele>
        <time>2021-10-13T17:12:07Z</time>
      </trkpt>
      <trkpt lat="41.760400" lon="-5.767520">
        <ele>701.017</ele>
        <time>2021-10-13T17:12:08Z</time>
      </trkpt>
      <trkpt lat="41.760749" lon="-5.767498">
        <ele>700.308</ele>
        <time>2021-10-13T17:12:10Z</time>
      </trkpt>
      <trkpt lat="41.760919" lon="-5.767476">
        <ele>699.770</ele>
        <time>2021-10-13T17:12:11Z</time>
      </trkpt>
      <trkpt lat="41.761244" lon="-5.767406">
        <ele>700.358</ele>
        <time>2021-10-13T17:12:13Z</time>
      </trkpt>
      <trkpt lat="41.761415" lon="-5.767354">
        <ele>700.785</ele>
        <time>2021-10-13T17:12:14Z</time>
      </trkpt>
      <trkpt lat="41.761742" lon="-5.767223">
        <ele>700.255</ele>
        <time>2021-10-13T17:12:16Z</time>
      </trkpt>
      <trkpt lat="41.761919" lon="-5.767151">
        <ele>700.438</ele>
        <time>2021-10-13T17:12:17Z</time>
      </trkpt>
      <trkpt lat="41.762100" lon="-5.767079">
        <ele>700.214</ele>
        <time>2021-10-13T17:12:18Z</time>
      </trkpt>
      <trkpt lat="41.762469" lon="-5.766936">
        <ele>700.583</ele>
        <time>2021-10-13T17:12:20Z</time>
      </trkpt>
      <trkpt lat="41.762797" lon="-5.766813">
        <ele>700.518</ele>
        <time>2021-10-13T17:12:22Z</time>
      </trkpt>
      <trkpt lat="41.762951" lon="-5.766752">
        <ele>700.926</ele>
        <time>2021-10-13T17:12:23Z</time>
      </trkpt>
      <trkpt lat="41.763220" lon="-5.766644">
        <ele>701.647</ele>
        <time>2021-10-13T17:12:25Z</time>
      </trkpt>
      <trkpt lat="41.763340" lon="-5.766590">
        <ele>702.211</ele>
        <time>2021-10-13T17:12:26Z</time>
      </trkpt>
      <trkpt lat="41.763519" lon="-5.766449">
        <ele>701.908</ele>
        <time>2021-10-13T17:12:28Z</time>
      </trkpt>
      <trkpt lat="41.763579" lon="-5.766345">
        <ele>701.920</ele>
        <time>2021-10-13T17:12:29Z</time>
      </trkpt>
      <trkpt lat="41.763620" lon="-5.766226">
        <ele>702.218</ele>
        <time>2021-10-13T17:12:30Z</time>
      </trkpt>
      <trkpt lat="41.763714" lon="-5.766031">
        <ele>703.215</ele>
        <time>2021-10-13T17:12:32Z</time>
      </trkpt>
      <trkpt lat="41.763873" lon="-5.765964">
        <ele>703.415</ele>
        <time>2021-10-13T17:12:34Z</time>
      </trkpt>
      <trkpt lat="41.763972" lon="-5.765985">
        <ele>703.418</ele>
        <time>2021-10-13T17:12:35Z</time>
      </trkpt>
      <trkpt lat="41.764083" lon="-5.766041">
        <ele>704.084</ele>
        <time>2021-10-13T17:12:36Z</time>
      </trkpt>
      <trkpt lat="41.764206" lon="-5.766117">
        <ele>704.593</ele>
        <time>2021-10-13T17:12:37Z</time>
      </trkpt>
      <trkpt lat="41.764340" lon="-5.766166">
        <ele>704.838</ele>
        <time>2021-10-13T17:12:38Z</time>
      </trkpt>
      <trkpt lat="41.764612" lon="-5.766121">
        <ele>706.427</ele>
        <time>2021-10-13T17:12:40Z</time>
      </trkpt>
      <trkpt lat="41.764922" lon="-5.765992">
        <ele>706.268</ele>
        <time>2021-10-13T17:12:42Z</time>
      </trkpt>
      <trkpt lat="41.765294" lon="-5.765839">
        <ele>706.514</ele>
        <time>2021-10-13T17:12:44Z</time>
      </trkpt>
      <trkpt lat="41.765684" lon="-5.765670">
        <ele>706.508</ele>
        <time>2021-10-13T17:12:46Z</time>
      </trkpt>
      <trkpt lat="41.766102" lon="-5.765464">
        <ele>706.050</ele>
        <time>2021-10-13T17:12:48Z</time>
      </trkpt>
      <trkpt lat="41.766328" lon="-5.765343">
        <ele>705.178</ele>
        <time>2021-10-13T17:12:49Z</time>
      </trkpt>
      <trkpt lat="41.766557" lon="-5.765221">
        <ele>705.365</ele>
        <time>2021-10-13T17:12:50Z</time>
      </trkpt>
      <trkpt lat="41.766983" lon="-5.764983">
        <ele>705.595</ele>
        <time>2021-10-13T17:12:52Z</time>
      </trkpt>
      <trkpt lat="41.767206" lon="-5.764860">
        <ele>705.038</ele>
        <time>2021-10-13T17:12:53Z</time>
      </trkpt>
      <trkpt lat="41.767642" lon="-5.764627">
        <ele>706.414</ele>
        <time>2021-10-13T17:12:55Z</time>
      </trkpt>
      <trkpt lat="41.767874" lon="-5.764503">
        <ele>705.763</ele>
        <time>2021-10-13T17:12:56Z</time>
      </trkpt>
      <trkpt lat="41.768334" lon="-5.764248">
        <ele>703.598</ele>
        <time>2021-10-13T17:12:58Z</time>
      </trkpt>
      <trkpt lat="41.768581" lon="-5.764113">
        <ele>703.639</ele>
        <time>2021-10-13T17:12:59Z</time>
      </trkpt>
      <trkpt lat="41.769077" lon="-5.763843">
        <ele>703.501</ele>
        <time>2021-10-13T17:13:01Z</time>
      </trkpt>
      <trkpt lat="41.769336" lon="-5.763703">
        <ele>704.921</ele>
        <time>2021-10-13T17:13:02Z</time>
      </trkpt>
      <trkpt lat="41.769838" lon="-5.763426">
        <ele>705.208</ele>
        <time>2021-10-13T17:13:04Z</time>
      </trkpt>
      <trkpt lat="41.770097" lon="-5.763282">
        <ele>706.871</ele>
        <time>2021-10-13T17:13:05Z</time>
      </trkpt>
      <trkpt lat="41.770608" lon="-5.762999">
        <ele>707.959</ele>
        <time>2021-10-13T17:13:07Z</time>
      </trkpt>
      <trkpt lat="41.770878" lon="-5.762856">
        <ele>709.896</ele>
        <time>2021-10-13T17:13:08Z</time>
      </trkpt>
      <trkpt lat="41.771384" lon="-5.762578">
        <ele>712.636</ele>
        <time>2021-10-13T17:13:10Z</time>
      </trkpt>
      <trkpt lat="41.771650" lon="-5.762434">
        <ele>713.529</ele>
        <time>2021-10-13T17:13:11Z</time>
      </trkpt>
      <trkpt lat="41.772175" lon="-5.762151">
        <ele>714.285</ele>
        <time>2021-10-13T17:13:13Z</time>
      </trkpt>
      <trkpt lat="41.772452" lon="-5.761999">
        <ele>714.514</ele>
        <time>2021-10-13T17:13:14Z</time>
      </trkpt>
      <trkpt lat="41.772970" lon="-5.761717">
        <ele>713.579</ele>
        <time>2021-10-13T17:13:16Z</time>
      </trkpt>
      <trkpt lat="41.773235" lon="-5.761570">
        <ele>712.992</ele>
        <time>2021-10-13T17:13:17Z</time>
      </trkpt>
      <trkpt lat="41.773501" lon="-5.761424">
        <ele>711.673</ele>
        <time>2021-10-13T17:13:18Z</time>
      </trkpt>
      <trkpt lat="41.774041" lon="-5.761129">
        <ele>709.720</ele>
        <time>2021-10-13T17:13:20Z</time>
      </trkpt>
      <trkpt lat="41.774563" lon="-5.760843">
        <ele>707.608</ele>
        <time>2021-10-13T17:13:22Z</time>
      </trkpt>
      <trkpt lat="41.774831" lon="-5.760696">
        <ele>706.657</ele>
        <time>2021-10-13T17:13:23Z</time>
      </trkpt>
      <trkpt lat="41.775095" lon="-5.760553">
        <ele>706.685</ele>
        <time>2021-10-13T17:13:24Z</time>
      </trkpt>
      <trkpt lat="41.775359" lon="-5.760413">
        <ele>707.252</ele>
        <time>2021-10-13T17:13:25Z</time>
      </trkpt>
      <trkpt lat="41.775624" lon="-5.760267">
        <ele>707.632</ele>
        <time>2021-10-13T17:13:26Z</time>
      </trkpt>
      <trkpt lat="41.776119" lon="-5.759993">
        <ele>707.415</ele>
        <time>2021-10-13T17:13:28Z</time>
      </trkpt>
      <trkpt lat="41.776624" lon="-5.759712">
        <ele>708.541</ele>
        <time>2021-10-13T17:13:30Z</time>
      </trkpt>
      <trkpt lat="41.776876" lon="-5.759573">
        <ele>709.060</ele>
        <time>2021-10-13T17:13:31Z</time>
      </trkpt>
      <trkpt lat="41.777134" lon="-5.759431">
        <ele>708.595</ele>
        <time>2021-10-13T17:13:32Z</time>
      </trkpt>
      <trkpt lat="41.777632" lon="-5.759156">
        <ele>709.047</ele>
        <time>2021-10-13T17:13:34Z</time>
      </trkpt>
      <trkpt lat="41.777893" lon="-5.759014">
        <ele>710.229</ele>
        <time>2021-10-13T17:13:35Z</time>
      </trkpt>
      <trkpt lat="41.778156" lon="-5.758870">
        <ele>710.521</ele>
        <time>2021-10-13T17:13:36Z</time>
      </trkpt>
      <trkpt lat="41.778700" lon="-5.758574">
        <ele>710.108</ele>
        <time>2021-10-13T17:13:38Z</time>
      </trkpt>
      <trkpt lat="41.779232" lon="-5.758286">
        <ele>711.152</ele>
        <time>2021-10-13T17:13:40Z</time>
      </trkpt>
      <trkpt lat="41.779501" lon="-5.758139">
        <ele>711.540</ele>
        <time>2021-10-13T17:13:41Z</time>
      </trkpt>
      <trkpt lat="41.780035" lon="-5.757835">
        <ele>711.287</ele>
        <time>2021-10-13T17:13:43Z</time>
      </trkpt>
      <trkpt lat="41.780307" lon="-5.757679">
        <ele>710.927</ele>
        <time>2021-10-13T17:13:44Z</time>
      </trkpt>
      <trkpt lat="41.780836" lon="-5.757397">
        <ele>711.610</ele>
        <time>2021-10-13T17:13:46Z</time>
      </trkpt>
      <trkpt lat="41.781106" lon="-5.757254">
        <ele>712.136</ele>
        <time>2021-10-13T17:13:47Z</time>
      </trkpt>
      <trkpt lat="41.781376" lon="-5.757105">
        <ele>711.815</ele>
        <time>2021-10-13T17:13:48Z</time>
      </trkpt>
      <trkpt lat="41.781924" lon="-5.756802">
        <ele>712.170</ele>
        <time>2021-10-13T17:13:50Z</time>
      </trkpt>
      <trkpt lat="41.782460" lon="-5.756506">
        <ele>713.359</ele>
        <time>2021-10-13T17:13:52Z</time>
      </trkpt>
      <trkpt lat="41.783014" lon="-5.756197">
        <ele>712.903</ele>
        <time>2021-10-13T17:13:54Z</time>
      </trkpt>
      <trkpt lat="41.783569" lon="-5.755849">
        <ele>713.923</ele>
        <time>2021-10-13T17:13:56Z</time>
      </trkpt>
      <trkpt lat="41.784094" lon="-5.755459">
        <ele>714.108</ele>
        <time>2021-10-13T17:13:58Z</time>
      </trkpt>
      <trkpt lat="41.784630" lon="-5.755039">
        <ele>716.153</ele>
        <time>2021-10-13T17:14:00Z</time>
      </trkpt>
      <trkpt lat="41.784901" lon="-5.754829">
        <ele>716.291</ele>
        <time>2021-10-13T17:14:01Z</time>
      </trkpt>
      <trkpt lat="41.785176" lon="-5.754615">
        <ele>716.248</ele>
        <time>2021-10-13T17:14:02Z</time>
      </trkpt>
      <trkpt lat="41.785699" lon="-5.754206">
        <ele>717.318</ele>
        <time>2021-10-13T17:14:04Z</time>
      </trkpt>
      <trkpt lat="41.786221" lon="-5.753798">
        <ele>717.971</ele>
        <time>2021-10-13T17:14:06Z</time>
      </trkpt>
      <trkpt lat="41.786724" lon="-5.753416">
        <ele>719.687</ele>
        <time>2021-10-13T17:14:08Z</time>
      </trkpt>
      <trkpt lat="41.787210" lon="-5.753100">
        <ele>720.696</ele>
        <time>2021-10-13T17:14:10Z</time>
      </trkpt>
      <trkpt lat="41.787727" lon="-5.752843">
        <ele>720.791</ele>
        <time>2021-10-13T17:14:12Z</time>
      </trkpt>
      <trkpt lat="41.788254" lon="-5.752630">
        <ele>719.695</ele>
        <time>2021-10-13T17:14:14Z</time>
      </trkpt>
      <trkpt lat="41.788762" lon="-5.752426">
        <ele>720.149</ele>
        <time>2021-10-13T17:14:16Z</time>
      </trkpt>
      <trkpt lat="41.789024" lon="-5.752324">
        <ele>720.323</ele>
        <time>2021-10-13T17:14:17Z</time>
      </trkpt>
      <trkpt lat="41.789289" lon="-5.752221">
        <ele>719.808</ele>
        <time>2021-10-13T17:14:18Z</time>
      </trkpt>
      <trkpt lat="41.789556" lon="-5.752118">
        <ele>719.797</ele>
        <time>2021-10-13T17:14:19Z</time>
      </trkpt>
      <trkpt lat="41.789831" lon="-5.752012">
        <ele>719.365</ele>
        <time>2021-10-13T17:14:20Z</time>
      </trkpt>
      <trkpt lat="41.790353" lon="-5.751811">
        <ele>719.812</ele>
        <time>2021-10-13T17:14:22Z</time>
      </trkpt>
      <trkpt lat="41.790625" lon="-5.751705">
        <ele>719.652</ele>
        <time>2021-10-13T17:14:23Z</time>
      </trkpt>
      <trkpt lat="41.791159" lon="-5.751490">
        <ele>718.965</ele>
        <time>2021-10-13T17:14:25Z</time>
      </trkpt>
      <trkpt lat="41.791440" lon="-5.751379">
        <ele>718.721</ele>
        <time>2021-10-13T17:14:26Z</time>
      </trkpt>
      <trkpt lat="41.791969" lon="-5.751169">
        <ele>719.370</ele>
        <time>2021-10-13T17:14:28Z</time>
      </trkpt>
      <trkpt lat="41.792512" lon="-5.750953">
        <ele>719.385</ele>
        <time>2021-10-13T17:14:30Z</time>
      </trkpt>
      <trkpt lat="41.793059" lon="-5.750743">
        <ele>718.738</ele>
        <time>2021-10-13T17:14:32Z</time>
      </trkpt>
      <trkpt lat="41.793597" lon="-5.750543">
        <ele>718.570</ele>
        <time>2021-10-13T17:14:34Z</time>
      </trkpt>
      <trkpt lat="41.794162" lon="-5.750388">
        <ele>717.917</ele>
        <time>2021-10-13T17:14:36Z</time>
      </trkpt>
      <trkpt lat="41.794454" lon="-5.750338">
        <ele>717.608</ele>
        <time>2021-10-13T17:14:37Z</time>
      </trkpt>
      <trkpt lat="41.794757" lon="-5.750300">
        <ele>717.211</ele>
        <time>2021-10-13T17:14:38Z</time>
      </trkpt>
      <trkpt lat="41.795354" lon="-5.750255">
        <ele>716.419</ele>
        <time>2021-10-13T17:14:40Z</time>
      </trkpt>
      <trkpt lat="41.795665" lon="-5.750237">
        <ele>716.226</ele>
        <time>2021-10-13T17:14:41Z</time>
      </trkpt>
      <trkpt lat="41.795976" lon="-5.750212">
        <ele>715.356</ele>
        <time>2021-10-13T17:14:42Z</time>
      </trkpt>
      <trkpt lat="41.796291" lon="-5.750184">
        <ele>714.519</ele>
        <time>2021-10-13T17:14:43Z</time>
      </trkpt>
      <trkpt lat="41.796619" lon="-5.750147">
        <ele>713.995</ele>
        <time>2021-10-13T17:14:44Z</time>
      </trkpt>
      <trkpt lat="41.797250" lon="-5.750060">
        <ele>712.714</ele>
        <time>2021-10-13T17:14:46Z</time>
      </trkpt>
      <trkpt lat="41.797575" lon="-5.749995">
        <ele>713.469</ele>
        <time>2021-10-13T17:14:47Z</time>
      </trkpt>
      <trkpt lat="41.798197" lon="-5.749826">
        <ele>712.537</ele>
        <time>2021-10-13T17:14:49Z</time>
      </trkpt>
      <trkpt lat="41.798510" lon="-5.749708">
        <ele>712.149</ele>
        <time>2021-10-13T17:14:50Z</time>
      </trkpt>
      <trkpt lat="41.799083" lon="-5.749427">
        <ele>712.713</ele>
        <time>2021-10-13T17:14:52Z</time>
      </trkpt>
      <trkpt lat="41.799643" lon="-5.749078">
        <ele>712.408</ele>
        <time>2021-10-13T17:14:54Z</time>
      </trkpt>
      <trkpt lat="41.800187" lon="-5.748650">
        <ele>711.571</ele>
        <time>2021-10-13T17:14:56Z</time>
      </trkpt>
      <trkpt lat="41.800683" lon="-5.748190">
        <ele>711.359</ele>
        <time>2021-10-13T17:14:58Z</time>
      </trkpt>
      <trkpt lat="41.800931" lon="-5.747944">
        <ele>711.286</ele>
        <time>2021-10-13T17:14:59Z</time>
      </trkpt>
      <trkpt lat="41.801172" lon="-5.747697">
        <ele>710.526</ele>
        <time>2021-10-13T17:15:00Z</time>
      </trkpt>
      <trkpt lat="41.801658" lon="-5.747192">
        <ele>710.339</ele>
        <time>2021-10-13T17:15:02Z</time>
      </trkpt>
      <trkpt lat="41.802127" lon="-5.746710">
        <ele>709.555</ele>
        <time>2021-10-13T17:15:04Z</time>
      </trkpt>
      <trkpt lat="41.802370" lon="-5.746462">
        <ele>709.264</ele>
        <time>2021-10-13T17:15:05Z</time>
      </trkpt>
      <trkpt lat="41.802615" lon="-5.746218">
        <ele>708.589</ele>
        <time>2021-10-13T17:15:06Z</time>
      </trkpt>
      <trkpt lat="41.803115" lon="-5.745719">
        <ele>707.855</ele>
        <time>2021-10-13T17:15:08Z</time>
      </trkpt>
      <trkpt lat="41.803597" lon="-5.745236">
        <ele>706.007</ele>
        <time>2021-10-13T17:15:10Z</time>
      </trkpt>
      <trkpt lat="41.803843" lon="-5.744991">
        <ele>705.517</ele>
        <time>2021-10-13T17:15:11Z</time>
      </trkpt>
      <trkpt lat="41.804320" lon="-5.744515">
        <ele>704.008</ele>
        <time>2021-10-13T17:15:13Z</time>
      </trkpt>
      <trkpt lat="41.804565" lon="-5.744270">
        <ele>703.663</ele>
        <time>2021-10-13T17:15:14Z</time>
      </trkpt>
      <trkpt lat="41.805010" lon="-5.743821">
        <ele>703.081</ele>
        <time>2021-10-13T17:15:16Z</time>
      </trkpt>
      <trkpt lat="41.805452" lon="-5.743379">
        <ele>703.368</ele>
        <time>2021-10-13T17:15:18Z</time>
      </trkpt>
      <trkpt lat="41.805665" lon="-5.743167">
        <ele>702.828</ele>
        <time>2021-10-13T17:15:19Z</time>
      </trkpt>
      <trkpt lat="41.805874" lon="-5.742960">
        <ele>702.571</ele>
        <time>2021-10-13T17:15:20Z</time>
      </trkpt>
      <trkpt lat="41.806249" lon="-5.742592">
        <ele>702.317</ele>
        <time>2021-10-13T17:15:22Z</time>
      </trkpt>
      <trkpt lat="41.806636" lon="-5.742207">
        <ele>702.276</ele>
        <time>2021-10-13T17:15:24Z</time>
      </trkpt>
      <trkpt lat="41.806834" lon="-5.742002">
        <ele>703.081</ele>
        <time>2021-10-13T17:15:25Z</time>
      </trkpt>
      <trkpt lat="41.807045" lon="-5.741777">
        <ele>703.546</ele>
        <time>2021-10-13T17:15:26Z</time>
      </trkpt>
      <trkpt lat="41.807440" lon="-5.741327">
        <ele>702.288</ele>
        <time>2021-10-13T17:15:28Z</time>
      </trkpt>
      <trkpt lat="41.807796" lon="-5.740890">
        <ele>702.416</ele>
        <time>2021-10-13T17:15:30Z</time>
      </trkpt>
      <trkpt lat="41.808117" lon="-5.740495">
        <ele>701.808</ele>
        <time>2021-10-13T17:15:32Z</time>
      </trkpt>
      <trkpt lat="41.808397" lon="-5.740154">
        <ele>703.012</ele>
        <time>2021-10-13T17:15:34Z</time>
      </trkpt>
      <trkpt lat="41.808532" lon="-5.739990">
        <ele>702.910</ele>
        <time>2021-10-13T17:15:35Z</time>
      </trkpt>
      <trkpt lat="41.808655" lon="-5.739839">
        <ele>703.717</ele>
        <time>2021-10-13T17:15:36Z</time>
      </trkpt>
      <trkpt lat="41.808770" lon="-5.739698">
        <ele>703.057</ele>
        <time>2021-10-13T17:15:37Z</time>
      </trkpt>
      <trkpt lat="41.808883" lon="-5.739560">
        <ele>702.080</ele>
        <time>2021-10-13T17:15:38Z</time>
      </trkpt>
      <trkpt lat="41.809099" lon="-5.739293">
        <ele>702.316</ele>
        <time>2021-10-13T17:15:40Z</time>
      </trkpt>
      <trkpt lat="41.809333" lon="-5.739002">
        <ele>702.135</ele>
        <time>2021-10-13T17:15:42Z</time>
      </trkpt>
      <trkpt lat="41.809449" lon="-5.738847">
        <ele>701.360</ele>
        <time>2021-10-13T17:15:43Z</time>
      </trkpt>
      <trkpt lat="41.809568" lon="-5.738683">
        <ele>701.117</ele>
        <time>2021-10-13T17:15:44Z</time>
      </trkpt>
      <trkpt lat="41.809782" lon="-5.738362">
        <ele>700.787</ele>
        <time>2021-10-13T17:15:46Z</time>
      </trkpt>
      <trkpt lat="41.809890" lon="-5.738194">
        <ele>701.615</ele>
        <time>2021-10-13T17:15:47Z</time>
      </trkpt>
      <trkpt lat="41.809998" lon="-5.738031">
        <ele>702.608</ele>
        <time>2021-10-13T17:15:48Z</time>
      </trkpt>
      <trkpt lat="41.810238" lon="-5.737743">
        <ele>703.679</ele>
        <time>2021-10-13T17:15:50Z</time>
      </trkpt>
      <trkpt lat="41.810516" lon="-5.737538">
        <ele>704.367</ele>
        <time>2021-10-13T17:15:52Z</time>
      </trkpt>
      <trkpt lat="41.810668" lon="-5.737446">
        <ele>704.454</ele>
        <time>2021-10-13T17:15:53Z</time>
      </trkpt>
      <trkpt lat="41.810821" lon="-5.737357">
        <ele>704.744</ele>
        <time>2021-10-13T17:15:54Z</time>
      </trkpt>
      <trkpt lat="41.811148" lon="-5.737161">
        <ele>705.147</ele>
        <time>2021-10-13T17:15:56Z</time>
      </trkpt>
      <trkpt lat="41.811465" lon="-5.736950">
        <ele>705.953</ele>
        <time>2021-10-13T17:15:58Z</time>
      </trkpt>
      <trkpt lat="41.811628" lon="-5.736826">
        <ele>706.552</ele>
        <time>2021-10-13T17:15:59Z</time>
      </trkpt>
      <trkpt lat="41.811782" lon="-5.736690">
        <ele>707.017</ele>
        <time>2021-10-13T17:16:00Z</time>
      </trkpt>
      <trkpt lat="41.812064" lon="-5.736426">
        <ele>709.344</ele>
        <time>2021-10-13T17:16:02Z</time>
      </trkpt>
      <trkpt lat="41.812323" lon="-5.736208">
        <ele>711.605</ele>
        <time>2021-10-13T17:16:04Z</time>
      </trkpt>
      <trkpt lat="41.812633" lon="-5.736051">
        <ele>712.615</ele>
        <time>2021-10-13T17:16:06Z</time>
      </trkpt>
      <trkpt lat="41.812814" lon="-5.736007">
        <ele>712.508</ele>
        <time>2021-10-13T17:16:07Z</time>
      </trkpt>
      <trkpt lat="41.813010" lon="-5.735979">
        <ele>712.232</ele>
        <time>2021-10-13T17:16:08Z</time>
      </trkpt>
      <trkpt lat="41.813416" lon="-5.735924">
        <ele>712.630</ele>
        <time>2021-10-13T17:16:10Z</time>
      </trkpt>
      <trkpt lat="41.813866" lon="-5.735818">
        <ele>714.237</ele>
        <time>2021-10-13T17:16:12Z</time>
      </trkpt>
      <trkpt lat="41.814342" lon="-5.735672">
        <ele>714.517</ele>
        <time>2021-10-13T17:16:14Z</time>
      </trkpt>
      <trkpt lat="41.814796" lon="-5.735484">
        <ele>715.530</ele>
        <time>2021-10-13T17:16:16Z</time>
      </trkpt>
      <trkpt lat="41.815263" lon="-5.735260">
        <ele>717.776</ele>
        <time>2021-10-13T17:16:18Z</time>
      </trkpt>
      <trkpt lat="41.815500" lon="-5.735152">
        <ele>718.255</ele>
        <time>2021-10-13T17:16:19Z</time>
      </trkpt>
      <trkpt lat="41.815746" lon="-5.735052">
        <ele>719.640</ele>
        <time>2021-10-13T17:16:20Z</time>
      </trkpt>
      <trkpt lat="41.816235" lon="-5.734891">
        <ele>720.714</ele>
        <time>2021-10-13T17:16:22Z</time>
      </trkpt>
      <trkpt lat="41.816750" lon="-5.734744">
        <ele>722.354</ele>
        <time>2021-10-13T17:16:24Z</time>
      </trkpt>
      <trkpt lat="41.817292" lon="-5.734595">
        <ele>722.209</ele>
        <time>2021-10-13T17:16:26Z</time>
      </trkpt>
      <trkpt lat="41.817841" lon="-5.734428">
        <ele>721.508</ele>
        <time>2021-10-13T17:16:28Z</time>
      </trkpt>
      <trkpt lat="41.818416" lon="-5.734221">
        <ele>721.359</ele>
        <time>2021-10-13T17:16:30Z</time>
      </trkpt>
      <trkpt lat="41.819001" lon="-5.733974">
        <ele>722.947</ele>
        <time>2021-10-13T17:16:32Z</time>
      </trkpt>
      <trkpt lat="41.819561" lon="-5.733713">
        <ele>725.084</ele>
        <time>2021-10-13T17:16:34Z</time>
      </trkpt>
      <trkpt lat="41.820133" lon="-5.733461">
        <ele>727.254</ele>
        <time>2021-10-13T17:16:36Z</time>
      </trkpt>
      <trkpt lat="41.820706" lon="-5.733245">
        <ele>728.147</ele>
        <time>2021-10-13T17:16:38Z</time>
      </trkpt>
      <trkpt lat="41.821245" lon="-5.733057">
        <ele>729.673</ele>
        <time>2021-10-13T17:16:40Z</time>
      </trkpt>
      <trkpt lat="41.821520" lon="-5.732959">
        <ele>729.922</ele>
        <time>2021-10-13T17:16:41Z</time>
      </trkpt>
      <trkpt lat="41.821793" lon="-5.732856">
        <ele>730.067</ele>
        <time>2021-10-13T17:16:42Z</time>
      </trkpt>
      <trkpt lat="41.822338" lon="-5.732648">
        <ele>731.446</ele>
        <time>2021-10-13T17:16:44Z</time>
      </trkpt>
      <trkpt lat="41.822865" lon="-5.732438">
        <ele>731.888</ele>
        <time>2021-10-13T17:16:46Z</time>
      </trkpt>
      <trkpt lat="41.823132" lon="-5.732339">
        <ele>732.716</ele>
        <time>2021-10-13T17:16:47Z</time>
      </trkpt>
      <trkpt lat="41.823667" lon="-5.732144">
        <ele>733.508</ele>
        <time>2021-10-13T17:16:49Z</time>
      </trkpt>
      <trkpt lat="41.823939" lon="-5.732044">
        <ele>733.892</ele>
        <time>2021-10-13T17:16:50Z</time>
      </trkpt>
      <trkpt lat="41.824464" lon="-5.731853">
        <ele>734.490</ele>
        <time>2021-10-13T17:16:52Z</time>
      </trkpt>
      <trkpt lat="41.824732" lon="-5.731756">
        <ele>734.047</ele>
        <time>2021-10-13T17:16:53Z</time>
      </trkpt>
      <trkpt lat="41.824997" lon="-5.731659">
        <ele>734.387</ele>
        <time>2021-10-13T17:16:54Z</time>
      </trkpt>
      <trkpt lat="41.825539" lon="-5.731456">
        <ele>735.750</ele>
        <time>2021-10-13T17:16:56Z</time>
      </trkpt>
      <trkpt lat="41.826061" lon="-5.731260">
        <ele>736.186</ele>
        <time>2021-10-13T17:16:58Z</time>
      </trkpt>
      <trkpt lat="41.826333" lon="-5.731160">
        <ele>737.275</ele>
        <time>2021-10-13T17:16:59Z</time>
      </trkpt>
      <trkpt lat="41.826609" lon="-5.731069">
        <ele>737.510</ele>
        <time>2021-10-13T17:17:00Z</time>
      </trkpt>
      <trkpt lat="41.827182" lon="-5.730937">
        <ele>737.932</ele>
        <time>2021-10-13T17:17:02Z</time>
      </trkpt>
      <trkpt lat="41.827719" lon="-5.730902">
        <ele>737.892</ele>
        <time>2021-10-13T17:17:04Z</time>
      </trkpt>
      <trkpt lat="41.828212" lon="-5.730910">
        <ele>738.211</ele>
        <time>2021-10-13T17:17:06Z</time>
      </trkpt>
      <trkpt lat="41.828439" lon="-5.730909">
        <ele>737.808</ele>
        <time>2021-10-13T17:17:07Z</time>
      </trkpt>
      <trkpt lat="41.828658" lon="-5.730902">
        <ele>737.051</ele>
        <time>2021-10-13T17:17:08Z</time>
      </trkpt>
      <trkpt lat="41.829033" lon="-5.730860">
        <ele>736.679</ele>
        <time>2021-10-13T17:17:10Z</time>
      </trkpt>
      <trkpt lat="41.829213" lon="-5.730821">
        <ele>736.146</ele>
        <time>2021-10-13T17:17:11Z</time>
      </trkpt>
      <trkpt lat="41.829543" lon="-5.730711">
        <ele>735.526</ele>
        <time>2021-10-13T17:17:13Z</time>
      </trkpt>
      <trkpt lat="41.829699" lon="-5.730652">
        <ele>736.079</ele>
        <time>2021-10-13T17:17:14Z</time>
      </trkpt>
      <trkpt lat="41.829969" lon="-5.730549">
        <ele>735.375</ele>
        <time>2021-10-13T17:17:16Z</time>
      </trkpt>
      <trkpt lat="41.830096" lon="-5.730498">
        <ele>735.154</ele>
        <time>2021-10-13T17:17:17Z</time>
      </trkpt>
      <trkpt lat="41.830293" lon="-5.730337">
        <ele>735.279</ele>
        <time>2021-10-13T17:17:19Z</time>
      </trkpt>
      <trkpt lat="41.830360" lon="-5.730220">
        <ele>735.844</ele>
        <time>2021-10-13T17:17:20Z</time>
      </trkpt>
      <trkpt lat="41.830465" lon="-5.730026">
        <ele>735.405</ele>
        <time>2021-10-13T17:17:22Z</time>
      </trkpt>
      <trkpt lat="41.830538" lon="-5.729967">
        <ele>735.415</ele>
        <time>2021-10-13T17:17:23Z</time>
      </trkpt>
      <trkpt lat="41.830629" lon="-5.729944">
        <ele>735.708</ele>
        <time>2021-10-13T17:17:24Z</time>
      </trkpt>
      <trkpt lat="41.830884" lon="-5.730018">
        <ele>735.122</ele>
        <time>2021-10-13T17:17:26Z</time>
      </trkpt>
      <trkpt lat="41.831202" lon="-5.730092">
        <ele>735.660</ele>
        <time>2021-10-13T17:17:28Z</time>
      </trkpt>
      <trkpt lat="41.831603" lon="-5.729988">
        <ele>736.477</ele>
        <time>2021-10-13T17:17:30Z</time>
      </trkpt>
      <trkpt lat="41.831827" lon="-5.729901">
        <ele>737.327</ele>
        <time>2021-10-13T17:17:31Z</time>
      </trkpt>
      <trkpt lat="41.832074" lon="-5.729813">
        <ele>737.970</ele>
        <time>2021-10-13T17:17:32Z</time>
      </trkpt>
      <trkpt lat="41.832586" lon="-5.729639">
        <ele>738.666</ele>
        <time>2021-10-13T17:17:34Z</time>
      </trkpt>
      <trkpt lat="41.833172" lon="-5.729451">
        <ele>738.295</ele>
        <time>2021-10-13T17:17:36Z</time>
      </trkpt>
      <trkpt lat="41.833786" lon="-5.729248">
        <ele>738.770</ele>
        <time>2021-10-13T17:17:38Z</time>
      </trkpt>
      <trkpt lat="41.834331" lon="-5.729070">
        <ele>739.613</ele>
        <time>2021-10-13T17:17:40Z</time>
      </trkpt>
      <trkpt lat="41.834823" lon="-5.728900">
        <ele>741.143</ele>
        <time>2021-10-13T17:17:42Z</time>
      </trkpt>
      <trkpt lat="41.835065" lon="-5.728814">
        <ele>741.407</ele>
        <time>2021-10-13T17:17:43Z</time>
      </trkpt>
      <trkpt lat="41.835320" lon="-5.728724">
        <ele>741.608</ele>
        <time>2021-10-13T17:17:44Z</time>
      </trkpt>
      <trkpt lat="41.835813" lon="-5.728553">
        <ele>742.969</ele>
        <time>2021-10-13T17:17:46Z</time>
      </trkpt>
      <trkpt lat="41.836070" lon="-5.728469">
        <ele>742.987</ele>
        <time>2021-10-13T17:17:47Z</time>
      </trkpt>
      <trkpt lat="41.836332" lon="-5.728384">
        <ele>742.914</ele>
        <time>2021-10-13T17:17:48Z</time>
      </trkpt>
      <trkpt lat="41.836600" lon="-5.728291">
        <ele>742.964</ele>
        <time>2021-10-13T17:17:49Z</time>
      </trkpt>
      <trkpt lat="41.836884" lon="-5.728192">
        <ele>742.677</ele>
        <time>2021-10-13T17:17:50Z</time>
      </trkpt>
      <trkpt lat="41.837451" lon="-5.727997">
        <ele>742.973</ele>
        <time>2021-10-13T17:17:52Z</time>
      </trkpt>
      <trkpt lat="41.838039" lon="-5.727796">
        <ele>743.232</ele>
        <time>2021-10-13T17:17:54Z</time>
      </trkpt>
      <trkpt lat="41.838337" lon="-5.727696">
        <ele>743.497</ele>
        <time>2021-10-13T17:17:55Z</time>
      </trkpt>
      <trkpt lat="41.838642" lon="-5.727593">
        <ele>743.391</ele>
        <time>2021-10-13T17:17:56Z</time>
      </trkpt>
      <trkpt lat="41.839226" lon="-5.727394">
        <ele>743.781</ele>
        <time>2021-10-13T17:17:58Z</time>
      </trkpt>
      <trkpt lat="41.839526" lon="-5.727293">
        <ele>743.619</ele>
        <time>2021-10-13T17:17:59Z</time>
      </trkpt>
      <trkpt lat="41.839824" lon="-5.727197">
        <ele>743.608</ele>
        <time>2021-10-13T17:18:00Z</time>
      </trkpt>
      <trkpt lat="41.840426" lon="-5.726992">
        <ele>743.977</ele>
        <time>2021-10-13T17:18:02Z</time>
      </trkpt>
      <trkpt lat="41.841006" lon="-5.726796">
        <ele>744.345</ele>
        <time>2021-10-13T17:18:04Z</time>
      </trkpt>
      <trkpt lat="41.841588" lon="-5.726597">
        <ele>743.132</ele>
        <time>2021-10-13T17:18:06Z</time>
      </trkpt>
      <trkpt lat="41.842161" lon="-5.726401">
        <ele>743.122</ele>
        <time>2021-10-13T17:18:08Z</time>
      </trkpt>
      <trkpt lat="41.842704" lon="-5.726221">
        <ele>743.245</ele>
        <time>2021-10-13T17:18:10Z</time>
      </trkpt>
      <trkpt lat="41.843237" lon="-5.726036">
        <ele>743.551</ele>
        <time>2021-10-13T17:18:12Z</time>
      </trkpt>
      <trkpt lat="41.843506" lon="-5.725943">
        <ele>743.670</ele>
        <time>2021-10-13T17:18:13Z</time>
      </trkpt>
      <trkpt lat="41.843780" lon="-5.725848">
        <ele>742.995</ele>
        <time>2021-10-13T17:18:14Z</time>
      </trkpt>
      <trkpt lat="41.844309" lon="-5.725664">
        <ele>742.353</ele>
        <time>2021-10-13T17:18:16Z</time>
      </trkpt>
      <trkpt lat="41.844582" lon="-5.725570">
        <ele>741.604</ele>
        <time>2021-10-13T17:18:17Z</time>
      </trkpt>
      <trkpt lat="41.844856" lon="-5.725477">
        <ele>741.114</ele>
        <time>2021-10-13T17:18:18Z</time>
      </trkpt>
      <trkpt lat="41.845412" lon="-5.725293">
        <ele>740.608</ele>
        <time>2021-10-13T17:18:20Z</time>
      </trkpt>
      <trkpt lat="41.845952" lon="-5.725109">
        <ele>740.033</ele>
        <time>2021-10-13T17:18:22Z</time>
      </trkpt>
      <trkpt lat="41.846229" lon="-5.725014">
        <ele>739.711</ele>
        <time>2021-10-13T17:18:23Z</time>
      </trkpt>
      <trkpt lat="41.846795" lon="-5.724818">
        <ele>738.318</ele>
        <time>2021-10-13T17:18:25Z</time>
      </trkpt>
      <trkpt lat="41.847089" lon="-5.724715">
        <ele>737.918</ele>
        <time>2021-10-13T17:18:26Z</time>
      </trkpt>
      <trkpt lat="41.847639" lon="-5.724521">
        <ele>737.831</ele>
        <time>2021-10-13T17:18:28Z</time>
      </trkpt>
      <trkpt lat="41.847921" lon="-5.724414">
        <ele>736.667</ele>
        <time>2021-10-13T17:18:29Z</time>
      </trkpt>
      <trkpt lat="41.848481" lon="-5.724165">
        <ele>735.276</ele>
        <time>2021-10-13T17:18:31Z</time>
      </trkpt>
      <trkpt lat="41.848773" lon="-5.724024">
        <ele>734.791</ele>
        <time>2021-10-13T17:18:32Z</time>
      </trkpt>
      <trkpt lat="41.849324" lon="-5.723760">
        <ele>734.573</ele>
        <time>2021-10-13T17:18:34Z</time>
      </trkpt>
      <trkpt lat="41.849604" lon="-5.723629">
        <ele>734.185</ele>
        <time>2021-10-13T17:18:35Z</time>
      </trkpt>
      <trkpt lat="41.850154" lon="-5.723371">
        <ele>734.013</ele>
        <time>2021-10-13T17:18:37Z</time>
      </trkpt>
      <trkpt lat="41.850429" lon="-5.723244">
        <ele>734.008</ele>
        <time>2021-10-13T17:18:38Z</time>
      </trkpt>
      <trkpt lat="41.850944" lon="-5.723012">
        <ele>734.035</ele>
        <time>2021-10-13T17:18:40Z</time>
      </trkpt>
      <trkpt lat="41.851203" lon="-5.722895">
        <ele>733.673</ele>
        <time>2021-10-13T17:18:41Z</time>
      </trkpt>
      <trkpt lat="41.851457" lon="-5.722775">
        <ele>733.350</ele>
        <time>2021-10-13T17:18:42Z</time>
      </trkpt>
      <trkpt lat="41.851698" lon="-5.722658">
        <ele>733.330</ele>
        <time>2021-10-13T17:18:43Z</time>
      </trkpt>
      <trkpt lat="41.851933" lon="-5.722541">
        <ele>732.683</ele>
        <time>2021-10-13T17:18:44Z</time>
      </trkpt>
      <trkpt lat="41.852412" lon="-5.722302">
        <ele>730.169</ele>
        <time>2021-10-13T17:18:46Z</time>
      </trkpt>
      <trkpt lat="41.852952" lon="-5.722053">
        <ele>729.268</ele>
        <time>2021-10-13T17:18:48Z</time>
      </trkpt>
      <trkpt lat="41.853229" lon="-5.721930">
        <ele>728.993</ele>
        <time>2021-10-13T17:18:49Z</time>
      </trkpt>
      <trkpt lat="41.853516" lon="-5.721806">
        <ele>728.869</ele>
        <time>2021-10-13T17:18:50Z</time>
      </trkpt>
      <trkpt lat="41.854047" lon="-5.721568">
        <ele>728.104</ele>
        <time>2021-10-13T17:18:52Z</time>
      </trkpt>
      <trkpt lat="41.854318" lon="-5.721443">
        <ele>727.624</ele>
        <time>2021-10-13T17:18:53Z</time>
      </trkpt>
      <trkpt lat="41.854587" lon="-5.721319">
        <ele>727.708</ele>
        <time>2021-10-13T17:18:54Z</time>
      </trkpt>
      <trkpt lat="41.855122" lon="-5.721072">
        <ele>727.664</ele>
        <time>2021-10-13T17:18:56Z</time>
      </trkpt>
      <trkpt lat="41.855639" lon="-5.720839">
        <ele>728.142</ele>
        <time>2021-10-13T17:18:58Z</time>
      </trkpt>
      <trkpt lat="41.856160" lon="-5.720605">
        <ele>727.119</ele>
        <time>2021-10-13T17:19:00Z</time>
      </trkpt>
      <trkpt lat="41.856681" lon="-5.720364">
        <ele>726.429</ele>
        <time>2021-10-13T17:19:02Z</time>
      </trkpt>
      <trkpt lat="41.857182" lon="-5.720126">
        <ele>725.022</ele>
        <time>2021-10-13T17:19:04Z</time>
      </trkpt>
      <trkpt lat="41.857441" lon="-5.720005">
        <ele>723.988</ele>
        <time>2021-10-13T17:19:05Z</time>
      </trkpt>
      <trkpt lat="41.857958" lon="-5.719775">
        <ele>723.247</ele>
        <time>2021-10-13T17:19:07Z</time>
      </trkpt>
      <trkpt lat="41.858228" lon="-5.719655">
        <ele>722.872</ele>
        <time>2021-10-13T17:19:08Z</time>
      </trkpt>
      <trkpt lat="41.858743" lon="-5.719422">
        <ele>720.791</ele>
        <time>2021-10-13T17:19:10Z</time>
      </trkpt>
      <trkpt lat="41.859263" lon="-5.719175">
        <ele>719.481</ele>
        <time>2021-10-13T17:19:12Z</time>
      </trkpt>
      <trkpt lat="41.859785" lon="-5.718929">
        <ele>718.219</ele>
        <time>2021-10-13T17:19:14Z</time>
      </trkpt>
      <trkpt lat="41.860296" lon="-5.718695">
        <ele>718.008</ele>
        <time>2021-10-13T17:19:16Z</time>
      </trkpt>
      <trkpt lat="41.860813" lon="-5.718455">
        <ele>717.967</ele>
        <time>2021-10-13T17:19:18Z</time>
      </trkpt>
      <trkpt lat="41.861328" lon="-5.718222">
        <ele>717.815</ele>
        <time>2021-10-13T17:19:20Z</time>
      </trkpt>
      <trkpt lat="41.861820" lon="-5.717990">
        <ele>718.132</ele>
        <time>2021-10-13T17:19:22Z</time>
      </trkpt>
      <trkpt lat="41.862320" lon="-5.717756">
        <ele>717.632</ele>
        <time>2021-10-13T17:19:24Z</time>
      </trkpt>
      <trkpt lat="41.862570" lon="-5.717640">
        <ele>718.565</ele>
        <time>2021-10-13T17:19:25Z</time>
      </trkpt>
      <trkpt lat="41.862824" lon="-5.717521">
        <ele>719.241</ele>
        <time>2021-10-13T17:19:26Z</time>
      </trkpt>
      <trkpt lat="41.863309" lon="-5.717296">
        <ele>720.770</ele>
        <time>2021-10-13T17:19:28Z</time>
      </trkpt>
      <trkpt lat="41.863796" lon="-5.717058">
        <ele>723.165</ele>
        <time>2021-10-13T17:19:30Z</time>
      </trkpt>
      <trkpt lat="41.864039" lon="-5.716930">
        <ele>723.827</ele>
        <time>2021-10-13T17:19:31Z</time>
      </trkpt>
      <trkpt lat="41.864289" lon="-5.716799">
        <ele>724.368</ele>
        <time>2021-10-13T17:19:32Z</time>
      </trkpt>
      <trkpt lat="41.864770" lon="-5.716544">
        <ele>723.814</ele>
        <time>2021-10-13T17:19:34Z</time>
      </trkpt>
      <trkpt lat="41.865018" lon="-5.716407">
        <ele>723.608</ele>
        <time>2021-10-13T17:19:35Z</time>
      </trkpt>
      <trkpt lat="41.865518" lon="-5.716132">
        <ele>721.190</ele>
        <time>2021-10-13T17:19:37Z</time>
      </trkpt>
      <trkpt lat="41.865782" lon="-5.715987">
        <ele>720.118</ele>
        <time>2021-10-13T17:19:38Z</time>
      </trkpt>
      <trkpt lat="41.866295" lon="-5.715706">
        <ele>717.755</ele>
        <time>2021-10-13T17:19:40Z</time>
      </trkpt>
      <trkpt lat="41.866832" lon="-5.715412">
        <ele>714.395</ele>
        <time>2021-10-13T17:19:42Z</time>
      </trkpt>
      <trkpt lat="41.867374" lon="-5.715111">
        <ele>712.018</ele>
        <time>2021-10-13T17:19:44Z</time>
      </trkpt>
      <trkpt lat="41.867887" lon="-5.714827">
        <ele>711.924</ele>
        <time>2021-10-13T17:19:46Z</time>
      </trkpt>
      <trkpt lat="41.868149" lon="-5.714683">
        <ele>711.753</ele>
        <time>2021-10-13T17:19:47Z</time>
      </trkpt>
      <trkpt lat="41.868407" lon="-5.714540">
        <ele>710.798</ele>
        <time>2021-10-13T17:19:48Z</time>
      </trkpt>
      <trkpt lat="41.868664" lon="-5.714397">
        <ele>710.084</ele>
        <time>2021-10-13T17:19:49Z</time>
      </trkpt>
      <trkpt lat="41.868921" lon="-5.714255">
        <ele>709.507</ele>
        <time>2021-10-13T17:19:50Z</time>
      </trkpt>
      <trkpt lat="41.869379" lon="-5.714002">
        <ele>707.617</ele>
        <time>2021-10-13T17:19:52Z</time>
      </trkpt>
      <trkpt lat="41.869801" lon="-5.713768">
        <ele>707.308</ele>
        <time>2021-10-13T17:19:54Z</time>
      </trkpt>
      <trkpt lat="41.869997" lon="-5.713660">
        <ele>707.986</ele>
        <time>2021-10-13T17:19:55Z</time>
      </trkpt>
      <trkpt lat="41.870185" lon="-5.713556">
        <ele>708.854</ele>
        <time>2021-10-13T17:19:56Z</time>
      </trkpt>
      <trkpt lat="41.870515" lon="-5.713374">
        <ele>709.731</ele>
        <time>2021-10-13T17:19:58Z</time>
      </trkpt>
      <trkpt lat="41.870860" lon="-5.713184">
        <ele>710.381</ele>
        <time>2021-10-13T17:20:00Z</time>
      </trkpt>
      <trkpt lat="41.871029" lon="-5.713090">
        <ele>710.844</ele>
        <time>2021-10-13T17:20:01Z</time>
      </trkpt>
      <trkpt lat="41.871192" lon="-5.713000">
        <ele>710.090</ele>
        <time>2021-10-13T17:20:02Z</time>
      </trkpt>
      <trkpt lat="41.871483" lon="-5.712840">
        <ele>709.979</ele>
        <time>2021-10-13T17:20:04Z</time>
      </trkpt>
      <trkpt lat="41.871748" lon="-5.712689">
        <ele>709.814</ele>
        <time>2021-10-13T17:20:06Z</time>
      </trkpt>
      <trkpt lat="41.871952" lon="-5.712534">
        <ele>709.322</ele>
        <time>2021-10-13T17:20:08Z</time>
      </trkpt>
      <trkpt lat="41.872056" lon="-5.712342">
        <ele>709.362</ele>
        <time>2021-10-13T17:20:10Z</time>
      </trkpt>
      <trkpt lat="41.872113" lon="-5.712106">
        <ele>710.008</ele>
        <time>2021-10-13T17:20:12Z</time>
      </trkpt>
      <trkpt lat="41.872173" lon="-5.711995">
        <ele>710.008</ele>
        <time>2021-10-13T17:20:13Z</time>
      </trkpt>
      <trkpt lat="41.872258" lon="-5.711907">
        <ele>710.020</ele>
        <time>2021-10-13T17:20:14Z</time>
      </trkpt>
      <trkpt lat="41.872454" lon="-5.711850">
        <ele>710.738</ele>
        <time>2021-10-13T17:20:16Z</time>
      </trkpt>
      <trkpt lat="41.872552" lon="-5.711887">
        <ele>711.025</ele>
        <time>2021-10-13T17:20:17Z</time>
      </trkpt>
      <trkpt lat="41.872671" lon="-5.712059">
        <ele>711.245</ele>
        <time>2021-10-13T17:20:19Z</time>
      </trkpt>
      <trkpt lat="41.872691" lon="-5.712164">
        <ele>711.248</ele>
        <time>2021-10-13T17:20:20Z</time>
      </trkpt>
      <trkpt lat="41.872664" lon="-5.712353">
        <ele>711.494</ele>
        <time>2021-10-13T17:20:22Z</time>
      </trkpt>
      <trkpt lat="41.872602" lon="-5.712506">
        <ele>711.583</ele>
        <time>2021-10-13T17:20:24Z</time>
      </trkpt>
      <trkpt lat="41.872511" lon="-5.712611">
        <ele>712.078</ele>
        <time>2021-10-13T17:20:26Z</time>
      </trkpt>
      <trkpt lat="41.872412" lon="-5.712668">
        <ele>712.719</ele>
        <time>2021-10-13T17:20:28Z</time>
      </trkpt>
      <trkpt lat="41.872287" lon="-5.712659">
        <ele>713.209</ele>
        <time>2021-10-13T17:20:30Z</time>
      </trkpt>
      <trkpt lat="41.872155" lon="-5.712567">
        <ele>712.619</ele>
        <time>2021-10-13T17:20:32Z</time>
      </trkpt>
      <trkpt lat="41.872070" lon="-5.712382">
        <ele>712.608</ele>
        <time>2021-10-13T17:20:34Z</time>
      </trkpt>
      <trkpt lat="41.872082" lon="-5.712157">
        <ele>712.659</ele>
        <time>2021-10-13T17:20:36Z</time>
      </trkpt>
      <trkpt lat="41.872121" lon="-5.712056">
        <ele>712.637</ele>
        <time>2021-10-13T17:20:37Z</time>
      </trkpt>
      <trkpt lat="41.872181" lon="-5.711971">
        <ele>712.874</ele>
        <time>2021-10-13T17:20:38Z</time>
      </trkpt>
      <trkpt lat="41.872326" lon="-5.711886">
        <ele>712.814</ele>
        <time>2021-10-13T17:20:40Z</time>
      </trkpt>
      <trkpt lat="41.872402" lon="-5.711886">
        <ele>712.947</ele>
        <time>2021-10-13T17:20:41Z</time>
      </trkpt>
      <trkpt lat="41.872549" lon="-5.711972">
        <ele>713.213</ele>
        <time>2021-10-13T17:20:43Z</time>
      </trkpt>
      <trkpt lat="41.872630" lon="-5.712026">
        <ele>712.992</ele>
        <time>2021-10-13T17:20:44Z</time>
      </trkpt>
      <trkpt lat="41.872811" lon="-5.712075">
        <ele>712.997</ele>
        <time>2021-10-13T17:20:46Z</time>
      </trkpt>
      <trkpt lat="41.872911" lon="-5.712062">
        <ele>713.215</ele>
        <time>2021-10-13T17:20:47Z</time>
      </trkpt>
      <trkpt lat="41.873018" lon="-5.712025">
        <ele>713.365</ele>
        <time>2021-10-13T17:20:48Z</time>
      </trkpt>
      <trkpt lat="41.873250" lon="-5.711886">
        <ele>713.311</ele>
        <time>2021-10-13T17:20:50Z</time>
      </trkpt>
      <trkpt lat="41.873499" lon="-5.711738">
        <ele>713.508</ele>
        <time>2021-10-13T17:20:52Z</time>
      </trkpt>
      <trkpt lat="41.873636" lon="-5.711662">
        <ele>713.299</ele>
        <time>2021-10-13T17:20:53Z</time>
      </trkpt>
      <trkpt lat="41.873777" lon="-5.711583">
        <ele>712.957</ele>
        <time>2021-10-13T17:20:54Z</time>
      </trkpt>
      <trkpt lat="41.874068" lon="-5.711419">
        <ele>713.914</ele>
        <time>2021-10-13T17:20:56Z</time>
      </trkpt>
      <trkpt lat="41.874316" lon="-5.711281">
        <ele>713.074</ele>
        <time>2021-10-13T17:20:58Z</time>
      </trkpt>
      <trkpt lat="41.874534" lon="-5.711166">
        <ele>713.167</ele>
        <time>2021-10-13T17:21:00Z</time>
      </trkpt>
      <trkpt lat="41.874723" lon="-5.711056">
        <ele>712.623</ele>
        <time>2021-10-13T17:21:02Z</time>
      </trkpt>
      <trkpt lat="41.874890" lon="-5.710959">
        <ele>712.452</ele>
        <time>2021-10-13T17:21:04Z</time>
      </trkpt>
      <trkpt lat="41.875076" lon="-5.710854">
        <ele>710.727</ele>
        <time>2021-10-13T17:21:06Z</time>
      </trkpt>
      <trkpt lat="41.875275" lon="-5.710748">
        <ele>710.511</ele>
        <time>2021-10-13T17:21:08Z</time>
      </trkpt>
      <trkpt lat="41.875472" lon="-5.710645">
        <ele>710.221</ele>
        <time>2021-10-13T17:21:10Z</time>
      </trkpt>
      <trkpt lat="41.875572" lon="-5.710590">
        <ele>709.703</ele>
        <time>2021-10-13T17:21:11Z</time>
      </trkpt>
      <trkpt lat="41.875767" lon="-5.710479">
        <ele>710.008</ele>
        <time>2021-10-13T17:21:13Z</time>
      </trkpt>
      <trkpt lat="41.875867" lon="-5.710424">
        <ele>710.059</ele>
        <time>2021-10-13T17:21:14Z</time>
      </trkpt>
      <trkpt lat="41.876059" lon="-5.710319">
        <ele>709.747</ele>
        <time>2021-10-13T17:21:16Z</time>
      </trkpt>
      <trkpt lat="41.876151" lon="-5.710264">
        <ele>710.334</ele>
        <time>2021-10-13T17:21:17Z</time>
      </trkpt>
      <trkpt lat="41.876233" lon="-5.710216">
        <ele>710.584</ele>
        <time>2021-10-13T17:21:18Z</time>
      </trkpt>
      <trkpt lat="41.876372" lon="-5.710139">
        <ele>710.027</ele>
        <time>2021-10-13T17:21:20Z</time>
      </trkpt>
      <trkpt lat="41.876470" lon="-5.710084">
        <ele>710.273</ele>
        <time>2021-10-13T17:21:22Z</time>
      </trkpt>
      <trkpt lat="41.876533" lon="-5.710049">
        <ele>710.992</ele>
        <time>2021-10-13T17:21:24Z</time>
      </trkpt>
      <trkpt lat="41.876593" lon="-5.710014">
        <ele>711.197</ele>
        <time>2021-10-13T17:21:26Z</time>
      </trkpt>
      <trkpt lat="41.876638" lon="-5.709988">
        <ele>711.396</ele>
        <time>2021-10-13T17:21:28Z</time>
      </trkpt>
      <trkpt lat="41.876676" lon="-5.709943">
        <ele>712.531</ele>
        <time>2021-10-13T17:21:31Z</time>
      </trkpt>
      <trkpt lat="41.876755" lon="-5.709903">
        <ele>740.524</ele>
        <time>2021-10-13T17:22:17Z</time>
      </trkpt>
      <trkpt lat="41.876912" lon="-5.709844">
        <ele>772.808</ele>
        <time>2021-10-13T17:22:19Z</time>
      </trkpt>
      <trkpt lat="41.877002" lon="-5.709801">
        <ele>772.887</ele>
        <time>2021-10-13T17:22:20Z</time>
      </trkpt>
      <trkpt lat="41.877166" lon="-5.709714">
        <ele>772.965</ele>
        <time>2021-10-13T17:22:22Z</time>
      </trkpt>
      <trkpt lat="41.877255" lon="-5.709663">
        <ele>772.972</ele>
        <time>2021-10-13T17:22:23Z</time>
      </trkpt>
      <trkpt lat="41.877449" lon="-5.709551">
        <ele>772.912</ele>
        <time>2021-10-13T17:22:25Z</time>
      </trkpt>
      <trkpt lat="41.877556" lon="-5.709493">
        <ele>772.835</ele>
        <time>2021-10-13T17:22:26Z</time>
      </trkpt>
      <trkpt lat="41.877750" lon="-5.709397">
        <ele>772.721</ele>
        <time>2021-10-13T17:22:28Z</time>
      </trkpt>
      <trkpt lat="41.877840" lon="-5.709354">
        <ele>772.770</ele>
        <time>2021-10-13T17:22:29Z</time>
      </trkpt>
      <trkpt lat="41.878006" lon="-5.709286">
        <ele>772.745</ele>
        <time>2021-10-13T17:22:31Z</time>
      </trkpt>
      <trkpt lat="41.878090" lon="-5.709257">
        <ele>772.736</ele>
        <time>2021-10-13T17:22:32Z</time>
      </trkpt>
      <trkpt lat="41.878266" lon="-5.709202">
        <ele>772.717</ele>
        <time>2021-10-13T17:22:34Z</time>
      </trkpt>
      <trkpt lat="41.878475" lon="-5.709140">
        <ele>772.718</ele>
        <time>2021-10-13T17:22:36Z</time>
      </trkpt>
      <trkpt lat="41.878686" lon="-5.709074">
        <ele>772.708</ele>
        <time>2021-10-13T17:22:38Z</time>
      </trkpt>
      <trkpt lat="41.878880" lon="-5.709023">
        <ele>772.771</ele>
        <time>2021-10-13T17:22:40Z</time>
      </trkpt>
      <trkpt lat="41.879079" lon="-5.708995">
        <ele>772.759</ele>
        <time>2021-10-13T17:22:42Z</time>
      </trkpt>
      <trkpt lat="41.879304" lon="-5.708993">
        <ele>772.716</ele>
        <time>2021-10-13T17:22:44Z</time>
      </trkpt>
      <trkpt lat="41.879535" lon="-5.709033">
        <ele>772.736</ele>
        <time>2021-10-13T17:22:46Z</time>
      </trkpt>
      <trkpt lat="41.879654" lon="-5.709070">
        <ele>772.779</ele>
        <time>2021-10-13T17:22:47Z</time>
      </trkpt>
      <trkpt lat="41.879774" lon="-5.709114">
        <ele>772.745</ele>
        <time>2021-10-13T17:22:48Z</time>
      </trkpt>
      <trkpt lat="41.880020" lon="-5.709205">
        <ele>772.734</ele>
        <time>2021-10-13T17:22:50Z</time>
      </trkpt>
      <trkpt lat="41.880251" lon="-5.709303">
        <ele>772.739</ele>
        <time>2021-10-13T17:22:52Z</time>
      </trkpt>
      <trkpt lat="41.880486" lon="-5.709469">
        <ele>772.782</ele>
        <time>2021-10-13T17:22:54Z</time>
      </trkpt>
      <trkpt lat="41.880614" lon="-5.709583">
        <ele>772.743</ele>
        <time>2021-10-13T17:22:55Z</time>
      </trkpt>
      <trkpt lat="41.880758" lon="-5.709703">
        <ele>772.717</ele>
        <time>2021-10-13T17:22:56Z</time>
      </trkpt>
      <trkpt lat="41.881089" lon="-5.709907">
        <ele>772.708</ele>
        <time>2021-10-13T17:22:58Z</time>
      </trkpt>
      <trkpt lat="41.881482" lon="-5.710033">
        <ele>772.796</ele>
        <time>2021-10-13T17:23:00Z</time>
      </trkpt>
      <trkpt lat="41.881900" lon="-5.710096">
        <ele>772.724</ele>
        <time>2021-10-13T17:23:02Z</time>
      </trkpt>
      <trkpt lat="41.882322" lon="-5.710149">
        <ele>772.711</ele>
        <time>2021-10-13T17:23:04Z</time>
      </trkpt>
      <trkpt lat="41.882753" lon="-5.710211">
        <ele>772.791</ele>
        <time>2021-10-13T17:23:06Z</time>
      </trkpt>
      <trkpt lat="41.883212" lon="-5.710273">
        <ele>772.754</ele>
        <time>2021-10-13T17:23:08Z</time>
      </trkpt>
      <trkpt lat="41.883664" lon="-5.710315">
        <ele>772.720</ele>
        <time>2021-10-13T17:23:10Z</time>
      </trkpt>
      <trkpt lat="41.883903" lon="-5.710328">
        <ele>772.749</ele>
        <time>2021-10-13T17:23:11Z</time>
      </trkpt>
      <trkpt lat="41.884408" lon="-5.710309">
        <ele>772.824</ele>
        <time>2021-10-13T17:23:13Z</time>
      </trkpt>
      <trkpt lat="41.884677" lon="-5.710268">
        <ele>772.866</ele>
        <time>2021-10-13T17:23:14Z</time>
      </trkpt>
      <trkpt lat="41.885209" lon="-5.710135">
        <ele>707.129</ele>
        <time>2021-10-13T17:23:16Z</time>
      </trkpt>
      <trkpt lat="41.885771" lon="-5.709874">
        <ele>709.421</ele>
        <time>2021-10-13T17:23:18Z</time>
      </trkpt>
      <trkpt lat="41.886060" lon="-5.709699">
        <ele>710.308</ele>
        <time>2021-10-13T17:23:19Z</time>
      </trkpt>
      <trkpt lat="41.886354" lon="-5.709505">
        <ele>711.654</ele>
        <time>2021-10-13T17:23:20Z</time>
      </trkpt>
      <trkpt lat="41.886899" lon="-5.709142">
        <ele>712.972</ele>
        <time>2021-10-13T17:23:22Z</time>
      </trkpt>
      <trkpt lat="41.887456" lon="-5.708775">
        <ele>713.129</ele>
        <time>2021-10-13T17:23:24Z</time>
      </trkpt>
      <trkpt lat="41.888053" lon="-5.708387">
        <ele>713.299</ele>
        <time>2021-10-13T17:23:26Z</time>
      </trkpt>
      <trkpt lat="41.888637" lon="-5.708010">
        <ele>712.152</ele>
        <time>2021-10-13T17:23:28Z</time>
      </trkpt>
      <trkpt lat="41.889223" lon="-5.707631">
        <ele>711.968</ele>
        <time>2021-10-13T17:23:30Z</time>
      </trkpt>
      <trkpt lat="41.889515" lon="-5.707443">
        <ele>711.937</ele>
        <time>2021-10-13T17:23:31Z</time>
      </trkpt>
      <trkpt lat="41.889806" lon="-5.707256">
        <ele>712.332</ele>
        <time>2021-10-13T17:23:32Z</time>
      </trkpt>
      <trkpt lat="41.890358" lon="-5.706901">
        <ele>711.917</ele>
        <time>2021-10-13T17:23:34Z</time>
      </trkpt>
      <trkpt lat="41.890636" lon="-5.706721">
        <ele>712.687</ele>
        <time>2021-10-13T17:23:35Z</time>
      </trkpt>
      <trkpt lat="41.891197" lon="-5.706360">
        <ele>711.815</ele>
        <time>2021-10-13T17:23:37Z</time>
      </trkpt>
      <trkpt lat="41.891483" lon="-5.706177">
        <ele>711.708</ele>
        <time>2021-10-13T17:23:38Z</time>
      </trkpt>
      <trkpt lat="41.892036" lon="-5.705822">
        <ele>711.739</ele>
        <time>2021-10-13T17:23:40Z</time>
      </trkpt>
      <trkpt lat="41.892320" lon="-5.705640">
        <ele>711.427</ele>
        <time>2021-10-13T17:23:41Z</time>
      </trkpt>
      <trkpt lat="41.892602" lon="-5.705459">
        <ele>710.554</ele>
        <time>2021-10-13T17:23:42Z</time>
      </trkpt>
      <trkpt lat="41.892884" lon="-5.705279">
        <ele>709.674</ele>
        <time>2021-10-13T17:23:43Z</time>
      </trkpt>
      <trkpt lat="41.893172" lon="-5.705096">
        <ele>708.917</ele>
        <time>2021-10-13T17:23:44Z</time>
      </trkpt>
      <trkpt lat="41.893720" lon="-5.704748">
        <ele>706.123</ele>
        <time>2021-10-13T17:23:46Z</time>
      </trkpt>
      <trkpt lat="41.894000" lon="-5.704570">
        <ele>704.382</ele>
        <time>2021-10-13T17:23:47Z</time>
      </trkpt>
      <trkpt lat="41.894565" lon="-5.704211">
        <ele>699.817</ele>
        <time>2021-10-13T17:23:49Z</time>
      </trkpt>
      <trkpt lat="41.894859" lon="-5.704024">
        <ele>697.896</ele>
        <time>2021-10-13T17:23:50Z</time>
      </trkpt>
      <trkpt lat="41.895424" lon="-5.703661">
        <ele>695.131</ele>
        <time>2021-10-13T17:23:52Z</time>
      </trkpt>
      <trkpt lat="41.895713" lon="-5.703468">
        <ele>694.424</ele>
        <time>2021-10-13T17:23:53Z</time>
      </trkpt>
      <trkpt lat="41.896269" lon="-5.703077">
        <ele>694.208</ele>
        <time>2021-10-13T17:23:55Z</time>
      </trkpt>
      <trkpt lat="41.896540" lon="-5.702842">
        <ele>694.497</ele>
        <time>2021-10-13T17:23:56Z</time>
      </trkpt>
      <trkpt lat="41.897016" lon="-5.702336">
        <ele>694.915</ele>
        <time>2021-10-13T17:23:58Z</time>
      </trkpt>
      <trkpt lat="41.897449" lon="-5.701743">
        <ele>694.592</ele>
        <time>2021-10-13T17:24:00Z</time>
      </trkpt>
      <trkpt lat="41.897655" lon="-5.701429">
        <ele>694.612</ele>
        <time>2021-10-13T17:24:01Z</time>
      </trkpt>
      <trkpt lat="41.897866" lon="-5.701102">
        <ele>694.845</ele>
        <time>2021-10-13T17:24:02Z</time>
      </trkpt>
      <trkpt lat="41.898266" lon="-5.700484">
        <ele>693.871</ele>
        <time>2021-10-13T17:24:04Z</time>
      </trkpt>
      <trkpt lat="41.898474" lon="-5.700166">
        <ele>693.710</ele>
        <time>2021-10-13T17:24:05Z</time>
      </trkpt>
      <trkpt lat="41.898684" lon="-5.699846">
        <ele>694.545</ele>
        <time>2021-10-13T17:24:06Z</time>
      </trkpt>
      <trkpt lat="41.898895" lon="-5.699525">
        <ele>694.287</ele>
        <time>2021-10-13T17:24:07Z</time>
      </trkpt>
      <trkpt lat="41.899114" lon="-5.699194">
        <ele>693.742</ele>
        <time>2021-10-13T17:24:08Z</time>
      </trkpt>
      <trkpt lat="41.899536" lon="-5.698558">
        <ele>693.326</ele>
        <time>2021-10-13T17:24:10Z</time>
      </trkpt>
      <trkpt lat="41.899966" lon="-5.697912">
        <ele>692.508</ele>
        <time>2021-10-13T17:24:12Z</time>
      </trkpt>
      <trkpt lat="41.900393" lon="-5.697258">
        <ele>693.286</ele>
        <time>2021-10-13T17:24:14Z</time>
      </trkpt>
      <trkpt lat="41.900807" lon="-5.696637">
        <ele>692.884</ele>
        <time>2021-10-13T17:24:16Z</time>
      </trkpt>
      <trkpt lat="41.901242" lon="-5.696025">
        <ele>692.481</ele>
        <time>2021-10-13T17:24:18Z</time>
      </trkpt>
      <trkpt lat="41.901478" lon="-5.695732">
        <ele>691.921</ele>
        <time>2021-10-13T17:24:19Z</time>
      </trkpt>
      <trkpt lat="41.901730" lon="-5.695448">
        <ele>692.424</ele>
        <time>2021-10-13T17:24:20Z</time>
      </trkpt>
      <trkpt lat="41.902260" lon="-5.694959">
        <ele>693.480</ele>
        <time>2021-10-13T17:24:22Z</time>
      </trkpt>
      <trkpt lat="41.902819" lon="-5.694509">
        <ele>693.129</ele>
        <time>2021-10-13T17:24:24Z</time>
      </trkpt>
      <trkpt lat="41.903098" lon="-5.694287">
        <ele>692.444</ele>
        <time>2021-10-13T17:24:25Z</time>
      </trkpt>
      <trkpt lat="41.903382" lon="-5.694056">
        <ele>692.349</ele>
        <time>2021-10-13T17:24:26Z</time>
      </trkpt>
      <trkpt lat="41.903915" lon="-5.693612">
        <ele>691.702</ele>
        <time>2021-10-13T17:24:28Z</time>
      </trkpt>
      <trkpt lat="41.904455" lon="-5.693167">
        <ele>692.322</ele>
        <time>2021-10-13T17:24:30Z</time>
      </trkpt>
      <trkpt lat="41.904983" lon="-5.692736">
        <ele>691.808</ele>
        <time>2021-10-13T17:24:32Z</time>
      </trkpt>
      <trkpt lat="41.905434" lon="-5.692358">
        <ele>692.232</ele>
        <time>2021-10-13T17:24:34Z</time>
      </trkpt>
      <trkpt lat="41.905643" lon="-5.692183">
        <ele>692.160</ele>
        <time>2021-10-13T17:24:35Z</time>
      </trkpt>
      <trkpt lat="41.906012" lon="-5.691866">
        <ele>693.117</ele>
        <time>2021-10-13T17:24:37Z</time>
      </trkpt>
      <trkpt lat="41.906184" lon="-5.691717">
        <ele>693.237</ele>
        <time>2021-10-13T17:24:38Z</time>
      </trkpt>
      <trkpt lat="41.906485" lon="-5.691469">
        <ele>694.530</ele>
        <time>2021-10-13T17:24:40Z</time>
      </trkpt>
      <trkpt lat="41.906752" lon="-5.691249">
        <ele>695.166</ele>
        <time>2021-10-13T17:24:42Z</time>
      </trkpt>
      <trkpt lat="41.907002" lon="-5.691038">
        <ele>696.165</ele>
        <time>2021-10-13T17:24:44Z</time>
      </trkpt>
      <trkpt lat="41.907182" lon="-5.690835">
        <ele>696.030</ele>
        <time>2021-10-13T17:24:46Z</time>
      </trkpt>
      <trkpt lat="41.907238" lon="-5.690716">
        <ele>696.037</ele>
        <time>2021-10-13T17:24:47Z</time>
      </trkpt>
      <trkpt lat="41.907274" lon="-5.690579">
        <ele>696.249</ele>
        <time>2021-10-13T17:24:48Z</time>
      </trkpt>
      <trkpt lat="41.907355" lon="-5.690318">
        <ele>696.813</ele>
        <time>2021-10-13T17:24:50Z</time>
      </trkpt>
      <trkpt lat="41.907511" lon="-5.690162">
        <ele>697.408</ele>
        <time>2021-10-13T17:24:52Z</time>
      </trkpt>
      <trkpt lat="41.907768" lon="-5.690134">
        <ele>697.481</ele>
        <time>2021-10-13T17:24:54Z</time>
      </trkpt>
      <trkpt lat="41.907927" lon="-5.690148">
        <ele>697.139</ele>
        <time>2021-10-13T17:24:55Z</time>
      </trkpt>
      <trkpt lat="41.908090" lon="-5.690113">
        <ele>695.776</ele>
        <time>2021-10-13T17:24:56Z</time>
      </trkpt>
      <trkpt lat="41.908404" lon="-5.689906">
        <ele>696.696</ele>
        <time>2021-10-13T17:24:58Z</time>
      </trkpt>
      <trkpt lat="41.908756" lon="-5.689588">
        <ele>696.629</ele>
        <time>2021-10-13T17:25:00Z</time>
      </trkpt>
      <trkpt lat="41.909157" lon="-5.689255">
        <ele>697.435</ele>
        <time>2021-10-13T17:25:02Z</time>
      </trkpt>
      <trkpt lat="41.909576" lon="-5.688913">
        <ele>697.364</ele>
        <time>2021-10-13T17:25:04Z</time>
      </trkpt>
      <trkpt lat="41.910033" lon="-5.688537">
        <ele>697.469</ele>
        <time>2021-10-13T17:25:06Z</time>
      </trkpt>
      <trkpt lat="41.910260" lon="-5.688350">
        <ele>697.887</ele>
        <time>2021-10-13T17:25:07Z</time>
      </trkpt>
      <trkpt lat="41.910502" lon="-5.688144">
        <ele>698.242</ele>
        <time>2021-10-13T17:25:08Z</time>
      </trkpt>
      <trkpt lat="41.910988" lon="-5.687740">
        <ele>698.926</ele>
        <time>2021-10-13T17:25:10Z</time>
      </trkpt>
      <trkpt lat="41.911478" lon="-5.687335">
        <ele>700.008</ele>
        <time>2021-10-13T17:25:12Z</time>
      </trkpt>
      <trkpt lat="41.911968" lon="-5.686928">
        <ele>700.476</ele>
        <time>2021-10-13T17:25:14Z</time>
      </trkpt>
      <trkpt lat="41.912453" lon="-5.686524">
        <ele>699.944</ele>
        <time>2021-10-13T17:25:16Z</time>
      </trkpt>
      <trkpt lat="41.912963" lon="-5.686097">
        <ele>699.761</ele>
        <time>2021-10-13T17:25:18Z</time>
      </trkpt>
      <trkpt lat="41.913220" lon="-5.685883">
        <ele>699.451</ele>
        <time>2021-10-13T17:25:19Z</time>
      </trkpt>
      <trkpt lat="41.913485" lon="-5.685657">
        <ele>698.884</ele>
        <time>2021-10-13T17:25:20Z</time>
      </trkpt>
      <trkpt lat="41.913995" lon="-5.685223">
        <ele>697.680</ele>
        <time>2021-10-13T17:25:22Z</time>
      </trkpt>
      <trkpt lat="41.914256" lon="-5.685003">
        <ele>697.859</ele>
        <time>2021-10-13T17:25:23Z</time>
      </trkpt>
      <trkpt lat="41.914776" lon="-5.684573">
        <ele>697.314</ele>
        <time>2021-10-13T17:25:25Z</time>
      </trkpt>
      <trkpt lat="41.915042" lon="-5.684353">
        <ele>697.375</ele>
        <time>2021-10-13T17:25:26Z</time>
      </trkpt>
      <trkpt lat="41.915541" lon="-5.683939">
        <ele>697.428</ele>
        <time>2021-10-13T17:25:28Z</time>
      </trkpt>
      <trkpt lat="41.915788" lon="-5.683729">
        <ele>696.320</ele>
        <time>2021-10-13T17:25:29Z</time>
      </trkpt>
      <trkpt lat="41.916269" lon="-5.683331">
        <ele>696.508</ele>
        <time>2021-10-13T17:25:31Z</time>
      </trkpt>
      <trkpt lat="41.916509" lon="-5.683136">
        <ele>696.875</ele>
        <time>2021-10-13T17:25:32Z</time>
      </trkpt>
      <trkpt lat="41.916952" lon="-5.682775">
        <ele>696.413</ele>
        <time>2021-10-13T17:25:34Z</time>
      </trkpt>
      <trkpt lat="41.917388" lon="-5.682416">
        <ele>696.340</ele>
        <time>2021-10-13T17:25:36Z</time>
      </trkpt>
      <trkpt lat="41.917589" lon="-5.682250">
        <ele>696.660</ele>
        <time>2021-10-13T17:25:37Z</time>
      </trkpt>
      <trkpt lat="41.917786" lon="-5.682089">
        <ele>697.153</ele>
        <time>2021-10-13T17:25:38Z</time>
      </trkpt>
      <trkpt lat="41.918169" lon="-5.681783">
        <ele>696.479</ele>
        <time>2021-10-13T17:25:40Z</time>
      </trkpt>
      <trkpt lat="41.918549" lon="-5.681446">
        <ele>696.158</ele>
        <time>2021-10-13T17:25:42Z</time>
      </trkpt>
      <trkpt lat="41.918887" lon="-5.681033">
        <ele>696.243</ele>
        <time>2021-10-13T17:25:44Z</time>
      </trkpt>
      <trkpt lat="41.919160" lon="-5.680557">
        <ele>696.121</ele>
        <time>2021-10-13T17:25:46Z</time>
      </trkpt>
      <trkpt lat="41.919298" lon="-5.680311">
        <ele>696.141</ele>
        <time>2021-10-13T17:25:47Z</time>
      </trkpt>
      <trkpt lat="41.919445" lon="-5.680079">
        <ele>696.005</ele>
        <time>2021-10-13T17:25:48Z</time>
      </trkpt>
      <trkpt lat="41.919775" lon="-5.679672">
        <ele>697.208</ele>
        <time>2021-10-13T17:25:50Z</time>
      </trkpt>
      <trkpt lat="41.920095" lon="-5.679317">
        <ele>697.410</ele>
        <time>2021-10-13T17:25:52Z</time>
      </trkpt>
      <trkpt lat="41.920424" lon="-5.678951">
        <ele>697.398</ele>
        <time>2021-10-13T17:25:54Z</time>
      </trkpt>
      <trkpt lat="41.920599" lon="-5.678774">
        <ele>696.945</ele>
        <time>2021-10-13T17:25:55Z</time>
      </trkpt>
      <trkpt lat="41.920788" lon="-5.678603">
        <ele>696.935</ele>
        <time>2021-10-13T17:25:56Z</time>
      </trkpt>
      <trkpt lat="41.921179" lon="-5.678291">
        <ele>697.748</ele>
        <time>2021-10-13T17:25:58Z</time>
      </trkpt>
      <trkpt lat="41.921597" lon="-5.677967">
        <ele>697.784</ele>
        <time>2021-10-13T17:26:00Z</time>
      </trkpt>
      <trkpt lat="41.922019" lon="-5.677640">
        <ele>698.633</ele>
        <time>2021-10-13T17:26:02Z</time>
      </trkpt>
      <trkpt lat="41.922425" lon="-5.677329">
        <ele>698.388</ele>
        <time>2021-10-13T17:26:04Z</time>
      </trkpt>
      <trkpt lat="41.922633" lon="-5.677173">
        <ele>698.021</ele>
        <time>2021-10-13T17:26:05Z</time>
      </trkpt>
      <trkpt lat="41.923056" lon="-5.676849">
        <ele>697.941</ele>
        <time>2021-10-13T17:26:07Z</time>
      </trkpt>
      <trkpt lat="41.923286" lon="-5.676669">
        <ele>697.505</ele>
        <time>2021-10-13T17:26:08Z</time>
      </trkpt>
      <trkpt lat="41.923731" lon="-5.676320">
        <ele>697.108</ele>
        <time>2021-10-13T17:26:10Z</time>
      </trkpt>
      <trkpt lat="41.924209" lon="-5.675947">
        <ele>696.710</ele>
        <time>2021-10-13T17:26:12Z</time>
      </trkpt>
      <trkpt lat="41.924458" lon="-5.675755">
        <ele>697.048</ele>
        <time>2021-10-13T17:26:13Z</time>
      </trkpt>
      <trkpt lat="41.924716" lon="-5.675554">
        <ele>697.655</ele>
        <time>2021-10-13T17:26:14Z</time>
      </trkpt>
      <trkpt lat="41.925191" lon="-5.675183">
        <ele>696.965</ele>
        <time>2021-10-13T17:26:16Z</time>
      </trkpt>
      <trkpt lat="41.925641" lon="-5.674789">
        <ele>696.398</ele>
        <time>2021-10-13T17:26:18Z</time>
      </trkpt>
      <trkpt lat="41.925849" lon="-5.674568">
        <ele>696.654</ele>
        <time>2021-10-13T17:26:19Z</time>
      </trkpt>
      <trkpt lat="41.926048" lon="-5.674318">
        <ele>697.073</ele>
        <time>2021-10-13T17:26:20Z</time>
      </trkpt>
      <trkpt lat="41.926389" lon="-5.673798">
        <ele>697.868</ele>
        <time>2021-10-13T17:26:22Z</time>
      </trkpt>
      <trkpt lat="41.926547" lon="-5.673509">
        <ele>697.832</ele>
        <time>2021-10-13T17:26:23Z</time>
      </trkpt>
      <trkpt lat="41.926839" lon="-5.672903">
        <ele>698.092</ele>
        <time>2021-10-13T17:26:25Z</time>
      </trkpt>
      <trkpt lat="41.926980" lon="-5.672583">
        <ele>698.311</ele>
        <time>2021-10-13T17:26:26Z</time>
      </trkpt>
      <trkpt lat="41.927240" lon="-5.671960">
        <ele>698.508</ele>
        <time>2021-10-13T17:26:28Z</time>
      </trkpt>
      <trkpt lat="41.927374" lon="-5.671640">
        <ele>698.661</ele>
        <time>2021-10-13T17:26:29Z</time>
      </trkpt>
      <trkpt lat="41.927648" lon="-5.671002">
        <ele>699.359</ele>
        <time>2021-10-13T17:26:31Z</time>
      </trkpt>
      <trkpt lat="41.927788" lon="-5.670673">
        <ele>699.286</ele>
        <time>2021-10-13T17:26:32Z</time>
      </trkpt>
      <trkpt lat="41.928055" lon="-5.670045">
        <ele>698.826</ele>
        <time>2021-10-13T17:26:34Z</time>
      </trkpt>
      <trkpt lat="41.928323" lon="-5.669410">
        <ele>699.039</ele>
        <time>2021-10-13T17:26:36Z</time>
      </trkpt>
      <trkpt lat="41.928461" lon="-5.669088">
        <ele>699.425</ele>
        <time>2021-10-13T17:26:37Z</time>
      </trkpt>
      <trkpt lat="41.928606" lon="-5.668765">
        <ele>699.944</ele>
        <time>2021-10-13T17:26:38Z</time>
      </trkpt>
      <trkpt lat="41.928897" lon="-5.668167">
        <ele>700.099</ele>
        <time>2021-10-13T17:26:40Z</time>
      </trkpt>
      <trkpt lat="41.929063" lon="-5.667868">
        <ele>699.975</ele>
        <time>2021-10-13T17:26:41Z</time>
      </trkpt>
      <trkpt lat="41.929439" lon="-5.667300">
        <ele>700.928</ele>
        <time>2021-10-13T17:26:43Z</time>
      </trkpt>
      <trkpt lat="41.929651" lon="-5.667026">
        <ele>701.620</ele>
        <time>2021-10-13T17:26:44Z</time>
      </trkpt>
      <trkpt lat="41.930100" lon="-5.666555">
        <ele>703.408</ele>
        <time>2021-10-13T17:26:46Z</time>
      </trkpt>
      <trkpt lat="41.930349" lon="-5.666344">
        <ele>704.875</ele>
        <time>2021-10-13T17:26:47Z</time>
      </trkpt>
      <trkpt lat="41.930843" lon="-5.666009">
        <ele>707.373</ele>
        <time>2021-10-13T17:26:49Z</time>
      </trkpt>
      <trkpt lat="41.931083" lon="-5.665886">
        <ele>708.510</ele>
        <time>2021-10-13T17:26:50Z</time>
      </trkpt>
      <trkpt lat="41.931502" lon="-5.665703">
        <ele>710.280</ele>
        <time>2021-10-13T17:26:52Z</time>
      </trkpt>
      <trkpt lat="41.931873" lon="-5.665528">
        <ele>712.613</ele>
        <time>2021-10-13T17:26:54Z</time>
      </trkpt>
      <trkpt lat="41.932214" lon="-5.665346">
        <ele>713.169</ele>
        <time>2021-10-13T17:26:56Z</time>
      </trkpt>
      <trkpt lat="41.932532" lon="-5.665196">
        <ele>713.758</ele>
        <time>2021-10-13T17:26:58Z</time>
      </trkpt>
      <trkpt lat="41.932689" lon="-5.665140">
        <ele>714.143</ele>
        <time>2021-10-13T17:26:59Z</time>
      </trkpt>
      <trkpt lat="41.932841" lon="-5.665095">
        <ele>713.362</ele>
        <time>2021-10-13T17:27:00Z</time>
      </trkpt>
      <trkpt lat="41.933133" lon="-5.665010">
        <ele>712.783</ele>
        <time>2021-10-13T17:27:02Z</time>
      </trkpt>
      <trkpt lat="41.933405" lon="-5.664934">
        <ele>713.411</ele>
        <time>2021-10-13T17:27:04Z</time>
      </trkpt>
      <trkpt lat="41.933542" lon="-5.664891">
        <ele>713.308</ele>
        <time>2021-10-13T17:27:05Z</time>
      </trkpt>
      <trkpt lat="41.933813" lon="-5.664777">
        <ele>713.444</ele>
        <time>2021-10-13T17:27:07Z</time>
      </trkpt>
      <trkpt lat="41.933932" lon="-5.664686">
        <ele>713.462</ele>
        <time>2021-10-13T17:27:08Z</time>
      </trkpt>
      <trkpt lat="41.934086" lon="-5.664409">
        <ele>713.799</ele>
        <time>2021-10-13T17:27:10Z</time>
      </trkpt>
      <trkpt lat="41.934159" lon="-5.664242">
        <ele>713.529</ele>
        <time>2021-10-13T17:27:11Z</time>
      </trkpt>
      <trkpt lat="41.934329" lon="-5.663904">
        <ele>712.732</ele>
        <time>2021-10-13T17:27:13Z</time>
      </trkpt>
      <trkpt lat="41.934435" lon="-5.663732">
        <ele>712.628</ele>
        <time>2021-10-13T17:27:14Z</time>
      </trkpt>
      <trkpt lat="41.934682" lon="-5.663410">
        <ele>713.267</ele>
        <time>2021-10-13T17:27:16Z</time>
      </trkpt>
      <trkpt lat="41.934827" lon="-5.663250">
        <ele>712.942</ele>
        <time>2021-10-13T17:27:17Z</time>
      </trkpt>
      <trkpt lat="41.935145" lon="-5.662917">
        <ele>713.548</ele>
        <time>2021-10-13T17:27:19Z</time>
      </trkpt>
      <trkpt lat="41.935319" lon="-5.662735">
        <ele>713.861</ele>
        <time>2021-10-13T17:27:20Z</time>
      </trkpt>
      <trkpt lat="41.935677" lon="-5.662361">
        <ele>713.317</ele>
        <time>2021-10-13T17:27:22Z</time>
      </trkpt>
      <trkpt lat="41.935874" lon="-5.662160">
        <ele>712.908</ele>
        <time>2021-10-13T17:27:23Z</time>
      </trkpt>
      <trkpt lat="41.936285" lon="-5.661739">
        <ele>712.242</ele>
        <time>2021-10-13T17:27:25Z</time>
      </trkpt>
      <trkpt lat="41.936508" lon="-5.661509">
        <ele>711.770</ele>
        <time>2021-10-13T17:27:26Z</time>
      </trkpt>
      <trkpt lat="41.936944" lon="-5.661060">
        <ele>711.527</ele>
        <time>2021-10-13T17:27:28Z</time>
      </trkpt>
      <trkpt lat="41.937404" lon="-5.660586">
        <ele>712.047</ele>
        <time>2021-10-13T17:27:30Z</time>
      </trkpt>
      <trkpt lat="41.937640" lon="-5.660341">
        <ele>712.090</ele>
        <time>2021-10-13T17:27:31Z</time>
      </trkpt>
      <trkpt lat="41.937880" lon="-5.660092">
        <ele>712.926</ele>
        <time>2021-10-13T17:27:32Z</time>
      </trkpt>
      <trkpt lat="41.938341" lon="-5.659604">
        <ele>713.325</ele>
        <time>2021-10-13T17:27:34Z</time>
      </trkpt>
      <trkpt lat="41.938581" lon="-5.659356">
        <ele>714.050</ele>
        <time>2021-10-13T17:27:35Z</time>
      </trkpt>
      <trkpt lat="41.938815" lon="-5.659114">
        <ele>714.846</ele>
        <time>2021-10-13T17:27:36Z</time>
      </trkpt>
      <trkpt lat="41.939275" lon="-5.658631">
        <ele>716.588</ele>
        <time>2021-10-13T17:27:38Z</time>
      </trkpt>
      <trkpt lat="41.939703" lon="-5.658178">
        <ele>717.716</ele>
        <time>2021-10-13T17:27:40Z</time>
      </trkpt>
      <trkpt lat="41.940139" lon="-5.657721">
        <ele>719.108</ele>
        <time>2021-10-13T17:27:42Z</time>
      </trkpt>
      <trkpt lat="41.940356" lon="-5.657502">
        <ele>719.872</ele>
        <time>2021-10-13T17:27:43Z</time>
      </trkpt>
      <trkpt lat="41.940575" lon="-5.657281">
        <ele>721.250</ele>
        <time>2021-10-13T17:27:44Z</time>
      </trkpt>
      <trkpt lat="41.940994" lon="-5.656852">
        <ele>722.137</ele>
        <time>2021-10-13T17:27:46Z</time>
      </trkpt>
      <trkpt lat="41.941211" lon="-5.656622">
        <ele>721.637</ele>
        <time>2021-10-13T17:27:47Z</time>
      </trkpt>
      <trkpt lat="41.941432" lon="-5.656391">
        <ele>720.960</ele>
        <time>2021-10-13T17:27:48Z</time>
      </trkpt>
      <trkpt lat="41.941890" lon="-5.655920">
        <ele>719.116</ele>
        <time>2021-10-13T17:27:50Z</time>
      </trkpt>
      <trkpt lat="41.942346" lon="-5.655453">
        <ele>716.865</ele>
        <time>2021-10-13T17:27:52Z</time>
      </trkpt>
      <trkpt lat="41.942580" lon="-5.655206">
        <ele>716.020</ele>
        <time>2021-10-13T17:27:53Z</time>
      </trkpt>
      <trkpt lat="41.943055" lon="-5.654712">
        <ele>714.744</ele>
        <time>2021-10-13T17:27:55Z</time>
      </trkpt>
      <trkpt lat="41.943306" lon="-5.654452">
        <ele>714.405</ele>
        <time>2021-10-13T17:27:56Z</time>
      </trkpt>
      <trkpt lat="41.943782" lon="-5.653958">
        <ele>714.715</ele>
        <time>2021-10-13T17:27:58Z</time>
      </trkpt>
      <trkpt lat="41.944265" lon="-5.653458">
        <ele>715.908</ele>
        <time>2021-10-13T17:28:00Z</time>
      </trkpt>
      <trkpt lat="41.944506" lon="-5.653209">
        <ele>716.512</ele>
        <time>2021-10-13T17:28:01Z</time>
      </trkpt>
      <trkpt lat="41.944747" lon="-5.652958">
        <ele>716.870</ele>
        <time>2021-10-13T17:28:02Z</time>
      </trkpt>
      <trkpt lat="41.945208" lon="-5.652478">
        <ele>717.127</ele>
        <time>2021-10-13T17:28:04Z</time>
      </trkpt>
      <trkpt lat="41.945678" lon="-5.651983">
        <ele>717.037</ele>
        <time>2021-10-13T17:28:06Z</time>
      </trkpt>
      <trkpt lat="41.946149" lon="-5.651490">
        <ele>717.830</ele>
        <time>2021-10-13T17:28:08Z</time>
      </trkpt>
      <trkpt lat="41.946599" lon="-5.651017">
        <ele>717.586</ele>
        <time>2021-10-13T17:28:10Z</time>
      </trkpt>
      <trkpt lat="41.947061" lon="-5.650541">
        <ele>718.285</ele>
        <time>2021-10-13T17:28:12Z</time>
      </trkpt>
      <trkpt lat="41.947510" lon="-5.650069">
        <ele>719.090</ele>
        <time>2021-10-13T17:28:14Z</time>
      </trkpt>
      <trkpt lat="41.947935" lon="-5.649629">
        <ele>719.512</ele>
        <time>2021-10-13T17:28:16Z</time>
      </trkpt>
      <trkpt lat="41.948153" lon="-5.649406">
        <ele>720.232</ele>
        <time>2021-10-13T17:28:17Z</time>
      </trkpt>
      <trkpt lat="41.948587" lon="-5.648959">
        <ele>720.205</ele>
        <time>2021-10-13T17:28:19Z</time>
      </trkpt>
      <trkpt lat="41.948804" lon="-5.648728">
        <ele>720.708</ele>
        <time>2021-10-13T17:28:20Z</time>
      </trkpt>
      <trkpt lat="41.949232" lon="-5.648283">
        <ele>721.639</ele>
        <time>2021-10-13T17:28:22Z</time>
      </trkpt>
      <trkpt lat="41.949680" lon="-5.647822">
        <ele>722.597</ele>
        <time>2021-10-13T17:28:24Z</time>
      </trkpt>
      <trkpt lat="41.950142" lon="-5.647345">
        <ele>723.614</ele>
        <time>2021-10-13T17:28:26Z</time>
      </trkpt>
      <trkpt lat="41.950593" lon="-5.646870">
        <ele>724.414</ele>
        <time>2021-10-13T17:28:28Z</time>
      </trkpt>
      <trkpt lat="41.951062" lon="-5.646382">
        <ele>724.217</ele>
        <time>2021-10-13T17:28:30Z</time>
      </trkpt>
      <trkpt lat="41.951537" lon="-5.645892">
        <ele>723.693</ele>
        <time>2021-10-13T17:28:32Z</time>
      </trkpt>
      <trkpt lat="41.951989" lon="-5.645426">
        <ele>721.862</ele>
        <time>2021-10-13T17:28:34Z</time>
      </trkpt>
      <trkpt lat="41.952222" lon="-5.645186">
        <ele>721.397</ele>
        <time>2021-10-13T17:28:35Z</time>
      </trkpt>
      <trkpt lat="41.952669" lon="-5.644723">
        <ele>721.722</ele>
        <time>2021-10-13T17:28:37Z</time>
      </trkpt>
      <trkpt lat="41.952897" lon="-5.644478">
        <ele>721.162</ele>
        <time>2021-10-13T17:28:38Z</time>
      </trkpt>
      <trkpt lat="41.953326" lon="-5.644027">
        <ele>721.308</ele>
        <time>2021-10-13T17:28:40Z</time>
      </trkpt>
      <trkpt lat="41.953544" lon="-5.643803">
        <ele>721.508</ele>
        <time>2021-10-13T17:28:41Z</time>
      </trkpt>
      <trkpt lat="41.953761" lon="-5.643579">
        <ele>722.220</ele>
        <time>2021-10-13T17:28:42Z</time>
      </trkpt>
      <trkpt lat="41.954185" lon="-5.643138">
        <ele>723.968</ele>
        <time>2021-10-13T17:28:44Z</time>
      </trkpt>
      <trkpt lat="41.954603" lon="-5.642699">
        <ele>724.555</ele>
        <time>2021-10-13T17:28:46Z</time>
      </trkpt>
      <trkpt lat="41.954827" lon="-5.642468">
        <ele>724.795</ele>
        <time>2021-10-13T17:28:47Z</time>
      </trkpt>
      <trkpt lat="41.955275" lon="-5.642003">
        <ele>725.328</ele>
        <time>2021-10-13T17:28:49Z</time>
      </trkpt>
      <trkpt lat="41.955506" lon="-5.641756">
        <ele>725.444</ele>
        <time>2021-10-13T17:28:50Z</time>
      </trkpt>
      <trkpt lat="41.955954" lon="-5.641289">
        <ele>725.853</ele>
        <time>2021-10-13T17:28:52Z</time>
      </trkpt>
      <trkpt lat="41.956186" lon="-5.641049">
        <ele>726.168</ele>
        <time>2021-10-13T17:28:53Z</time>
      </trkpt>
      <trkpt lat="41.956418" lon="-5.640809">
        <ele>726.097</ele>
        <time>2021-10-13T17:28:54Z</time>
      </trkpt>
      <trkpt lat="41.956890" lon="-5.640324">
        <ele>726.323</ele>
        <time>2021-10-13T17:28:56Z</time>
      </trkpt>
      <trkpt lat="41.957345" lon="-5.639856">
        <ele>725.825</ele>
        <time>2021-10-13T17:28:58Z</time>
      </trkpt>
      <trkpt lat="41.957576" lon="-5.639618">
        <ele>726.008</ele>
        <time>2021-10-13T17:28:59Z</time>
      </trkpt>
      <trkpt lat="41.958025" lon="-5.639153">
        <ele>726.587</ele>
        <time>2021-10-13T17:29:01Z</time>
      </trkpt>
      <trkpt lat="41.958254" lon="-5.638916">
        <ele>725.625</ele>
        <time>2021-10-13T17:29:02Z</time>
      </trkpt>
      <trkpt lat="41.958687" lon="-5.638461">
        <ele>726.582</ele>
        <time>2021-10-13T17:29:04Z</time>
      </trkpt>
      <trkpt lat="41.958906" lon="-5.638229">
        <ele>726.462</ele>
        <time>2021-10-13T17:29:05Z</time>
      </trkpt>
      <trkpt lat="41.959346" lon="-5.637771">
        <ele>726.035</ele>
        <time>2021-10-13T17:29:07Z</time>
      </trkpt>
      <trkpt lat="41.959574" lon="-5.637536">
        <ele>726.051</ele>
        <time>2021-10-13T17:29:08Z</time>
      </trkpt>
      <trkpt lat="41.960003" lon="-5.637093">
        <ele>725.910</ele>
        <time>2021-10-13T17:29:10Z</time>
      </trkpt>
      <trkpt lat="41.960438" lon="-5.636635">
        <ele>726.725</ele>
        <time>2021-10-13T17:29:12Z</time>
      </trkpt>
      <trkpt lat="41.960656" lon="-5.636404">
        <ele>726.186</ele>
        <time>2021-10-13T17:29:13Z</time>
      </trkpt>
      <trkpt lat="41.960881" lon="-5.636171">
        <ele>726.460</ele>
        <time>2021-10-13T17:29:14Z</time>
      </trkpt>
      <trkpt lat="41.961328" lon="-5.635706">
        <ele>726.326</ele>
        <time>2021-10-13T17:29:16Z</time>
      </trkpt>
      <trkpt lat="41.961565" lon="-5.635461">
        <ele>726.608</ele>
        <time>2021-10-13T17:29:17Z</time>
      </trkpt>
      <trkpt lat="41.961802" lon="-5.635217">
        <ele>727.026</ele>
        <time>2021-10-13T17:29:18Z</time>
      </trkpt>
      <trkpt lat="41.962043" lon="-5.634970">
        <ele>726.744</ele>
        <time>2021-10-13T17:29:19Z</time>
      </trkpt>
      <trkpt lat="41.962293" lon="-5.634714">
        <ele>726.191</ele>
        <time>2021-10-13T17:29:20Z</time>
      </trkpt>
      <trkpt lat="41.962766" lon="-5.634226">
        <ele>725.971</ele>
        <time>2021-10-13T17:29:22Z</time>
      </trkpt>
      <trkpt lat="41.963005" lon="-5.633978">
        <ele>726.334</ele>
        <time>2021-10-13T17:29:23Z</time>
      </trkpt>
      <trkpt lat="41.963241" lon="-5.633731">
        <ele>726.380</ele>
        <time>2021-10-13T17:29:24Z</time>
      </trkpt>
      <trkpt lat="41.963709" lon="-5.633247">
        <ele>726.219</ele>
        <time>2021-10-13T17:29:26Z</time>
      </trkpt>
      <trkpt lat="41.964163" lon="-5.632774">
        <ele>726.794</ele>
        <time>2021-10-13T17:29:28Z</time>
      </trkpt>
      <trkpt lat="41.964620" lon="-5.632288">
        <ele>726.794</ele>
        <time>2021-10-13T17:29:30Z</time>
      </trkpt>
      <trkpt lat="41.965085" lon="-5.631800">
        <ele>727.057</ele>
        <time>2021-10-13T17:29:32Z</time>
      </trkpt>
      <trkpt lat="41.965539" lon="-5.631334">
        <ele>728.022</ele>
        <time>2021-10-13T17:29:34Z</time>
      </trkpt>
      <trkpt lat="41.965773" lon="-5.631094">
        <ele>727.408</ele>
        <time>2021-10-13T17:29:35Z</time>
      </trkpt>
      <trkpt lat="41.966006" lon="-5.630854">
        <ele>727.877</ele>
        <time>2021-10-13T17:29:36Z</time>
      </trkpt>
      <trkpt lat="41.966239" lon="-5.630612">
        <ele>727.835</ele>
        <time>2021-10-13T17:29:37Z</time>
      </trkpt>
      <trkpt lat="41.966474" lon="-5.630361">
        <ele>727.932</ele>
        <time>2021-10-13T17:29:38Z</time>
      </trkpt>
      <trkpt lat="41.966931" lon="-5.629884">
        <ele>728.242</ele>
        <time>2021-10-13T17:29:40Z</time>
      </trkpt>
      <trkpt lat="41.967400" lon="-5.629400">
        <ele>728.175</ele>
        <time>2021-10-13T17:29:42Z</time>
      </trkpt>
      <trkpt lat="41.967879" lon="-5.628898">
        <ele>727.411</ele>
        <time>2021-10-13T17:29:44Z</time>
      </trkpt>
      <trkpt lat="41.968346" lon="-5.628405">
        <ele>727.350</ele>
        <time>2021-10-13T17:29:46Z</time>
      </trkpt>
      <trkpt lat="41.968830" lon="-5.627906">
        <ele>727.715</ele>
        <time>2021-10-13T17:29:48Z</time>
      </trkpt>
      <trkpt lat="41.969072" lon="-5.627656">
        <ele>728.635</ele>
        <time>2021-10-13T17:29:49Z</time>
      </trkpt>
      <trkpt lat="41.969324" lon="-5.627397">
        <ele>728.186</ele>
        <time>2021-10-13T17:29:50Z</time>
      </trkpt>
      <trkpt lat="41.969798" lon="-5.626906">
        <ele>726.314</ele>
        <time>2021-10-13T17:29:52Z</time>
      </trkpt>
      <trkpt lat="41.970280" lon="-5.626410">
        <ele>726.408</ele>
        <time>2021-10-13T17:29:54Z</time>
      </trkpt>
      <trkpt lat="41.970519" lon="-5.626162">
        <ele>726.311</ele>
        <time>2021-10-13T17:29:55Z</time>
      </trkpt>
      <trkpt lat="41.970765" lon="-5.625908">
        <ele>726.519</ele>
        <time>2021-10-13T17:29:56Z</time>
      </trkpt>
      <trkpt lat="41.971233" lon="-5.625414">
        <ele>726.676</ele>
        <time>2021-10-13T17:29:58Z</time>
      </trkpt>
      <trkpt lat="41.971699" lon="-5.624918">
        <ele>726.546</ele>
        <time>2021-10-13T17:30:00Z</time>
      </trkpt>
      <trkpt lat="41.971936" lon="-5.624669">
        <ele>727.439</ele>
        <time>2021-10-13T17:30:01Z</time>
      </trkpt>
      <trkpt lat="41.972176" lon="-5.624422">
        <ele>727.855</ele>
        <time>2021-10-13T17:30:02Z</time>
      </trkpt>
      <trkpt lat="41.972636" lon="-5.623944">
        <ele>729.484</ele>
        <time>2021-10-13T17:30:04Z</time>
      </trkpt>
      <trkpt lat="41.972867" lon="-5.623699">
        <ele>730.349</ele>
        <time>2021-10-13T17:30:05Z</time>
      </trkpt>
      <trkpt lat="41.973323" lon="-5.623226">
        <ele>731.953</ele>
        <time>2021-10-13T17:30:07Z</time>
      </trkpt>
      <trkpt lat="41.973554" lon="-5.622990">
        <ele>733.204</ele>
        <time>2021-10-13T17:30:08Z</time>
      </trkpt>
      <trkpt lat="41.973953" lon="-5.622579">
        <ele>733.814</ele>
        <time>2021-10-13T17:30:10Z</time>
      </trkpt>
      <trkpt lat="41.974140" lon="-5.622385">
        <ele>734.008</ele>
        <time>2021-10-13T17:30:11Z</time>
      </trkpt>
      <trkpt lat="41.974322" lon="-5.622191">
        <ele>733.673</ele>
        <time>2021-10-13T17:30:12Z</time>
      </trkpt>
      <trkpt lat="41.974508" lon="-5.621998">
        <ele>733.821</ele>
        <time>2021-10-13T17:30:13Z</time>
      </trkpt>
      <trkpt lat="41.974699" lon="-5.621795">
        <ele>734.728</ele>
        <time>2021-10-13T17:30:14Z</time>
      </trkpt>
      <trkpt lat="41.975053" lon="-5.621427">
        <ele>734.668</ele>
        <time>2021-10-13T17:30:16Z</time>
      </trkpt>
      <trkpt lat="41.975219" lon="-5.621252">
        <ele>734.881</ele>
        <time>2021-10-13T17:30:17Z</time>
      </trkpt>
      <trkpt lat="41.975522" lon="-5.620939">
        <ele>735.247</ele>
        <time>2021-10-13T17:30:19Z</time>
      </trkpt>
      <trkpt lat="41.975660" lon="-5.620791">
        <ele>735.346</ele>
        <time>2021-10-13T17:30:20Z</time>
      </trkpt>
      <trkpt lat="41.975897" lon="-5.620544">
        <ele>735.331</ele>
        <time>2021-10-13T17:30:22Z</time>
      </trkpt>
      <trkpt lat="41.976108" lon="-5.620321">
        <ele>735.494</ele>
        <time>2021-10-13T17:30:24Z</time>
      </trkpt>
      <trkpt lat="41.976293" lon="-5.620112">
        <ele>735.057</ele>
        <time>2021-10-13T17:30:26Z</time>
      </trkpt>
      <trkpt lat="41.976423" lon="-5.619891">
        <ele>734.922</ele>
        <time>2021-10-13T17:30:28Z</time>
      </trkpt>
      <trkpt lat="41.976464" lon="-5.619763">
        <ele>733.608</ele>
        <time>2021-10-13T17:30:29Z</time>
      </trkpt>
      <trkpt lat="41.976506" lon="-5.619505">
        <ele>734.027</ele>
        <time>2021-10-13T17:30:31Z</time>
      </trkpt>
      <trkpt lat="41.976546" lon="-5.619391">
        <ele>734.055</ele>
        <time>2021-10-13T17:30:32Z</time>
      </trkpt>
      <trkpt lat="41.976698" lon="-5.619228">
        <ele>734.132</ele>
        <time>2021-10-13T17:30:34Z</time>
      </trkpt>
      <trkpt lat="41.976797" lon="-5.619172">
        <ele>735.332</ele>
        <time>2021-10-13T17:30:35Z</time>
      </trkpt>
      <trkpt lat="41.976980" lon="-5.619070">
        <ele>735.325</ele>
        <time>2021-10-13T17:30:37Z</time>
      </trkpt>
      <trkpt lat="41.977058" lon="-5.618992">
        <ele>734.471</ele>
        <time>2021-10-13T17:30:38Z</time>
      </trkpt>
      <trkpt lat="41.977187" lon="-5.618756">
        <ele>734.470</ele>
        <time>2021-10-13T17:30:40Z</time>
      </trkpt>
      <trkpt lat="41.977246" lon="-5.618599">
        <ele>734.175</ele>
        <time>2021-10-13T17:30:41Z</time>
      </trkpt>
      <trkpt lat="41.977358" lon="-5.618227">
        <ele>732.785</ele>
        <time>2021-10-13T17:30:43Z</time>
      </trkpt>
      <trkpt lat="41.977415" lon="-5.618012">
        <ele>732.789</ele>
        <time>2021-10-13T17:30:44Z</time>
      </trkpt>
      <trkpt lat="41.977528" lon="-5.617567">
        <ele>731.517</ele>
        <time>2021-10-13T17:30:46Z</time>
      </trkpt>
      <trkpt lat="41.977586" lon="-5.617336">
        <ele>730.508</ele>
        <time>2021-10-13T17:30:47Z</time>
      </trkpt>
      <trkpt lat="41.977689" lon="-5.616921">
        <ele>728.436</ele>
        <time>2021-10-13T17:30:49Z</time>
      </trkpt>
      <trkpt lat="41.977736" lon="-5.616724">
        <ele>727.794</ele>
        <time>2021-10-13T17:30:50Z</time>
      </trkpt>
      <trkpt lat="41.977818" lon="-5.616381">
        <ele>726.391</ele>
        <time>2021-10-13T17:30:52Z</time>
      </trkpt>
      <trkpt lat="41.977898" lon="-5.616062">
        <ele>725.531</ele>
        <time>2021-10-13T17:30:54Z</time>
      </trkpt>
      <trkpt lat="41.977932" lon="-5.615915">
        <ele>725.334</ele>
        <time>2021-10-13T17:30:55Z</time>
      </trkpt>
      <trkpt lat="41.977964" lon="-5.615774">
        <ele>725.390</ele>
        <time>2021-10-13T17:30:56Z</time>
      </trkpt>
      <trkpt lat="41.978022" lon="-5.615529">
        <ele>725.969</ele>
        <time>2021-10-13T17:30:58Z</time>
      </trkpt>
      <trkpt lat="41.978053" lon="-5.615411">
        <ele>725.984</ele>
        <time>2021-10-13T17:30:59Z</time>
      </trkpt>
      <trkpt lat="41.978120" lon="-5.615171">
        <ele>726.121</ele>
        <time>2021-10-13T17:31:01Z</time>
      </trkpt>
      <trkpt lat="41.978156" lon="-5.615046">
        <ele>726.741</ele>
        <time>2021-10-13T17:31:02Z</time>
      </trkpt>
      <trkpt lat="41.978206" lon="-5.614827">
        <ele>728.505</ele>
        <time>2021-10-13T17:31:04Z</time>
      </trkpt>
      <trkpt lat="41.978198" lon="-5.614632">
        <ele>728.908</ele>
        <time>2021-10-13T17:31:06Z</time>
      </trkpt>
      <trkpt lat="41.978122" lon="-5.614432">
        <ele>729.660</ele>
        <time>2021-10-13T17:31:08Z</time>
      </trkpt>
      <trkpt lat="41.978090" lon="-5.614243">
        <ele>730.498</ele>
        <time>2021-10-13T17:31:10Z</time>
      </trkpt>
      <trkpt lat="41.978106" lon="-5.614146">
        <ele>730.415</ele>
        <time>2021-10-13T17:31:11Z</time>
      </trkpt>
      <trkpt lat="41.978143" lon="-5.614058">
        <ele>730.185</ele>
        <time>2021-10-13T17:31:12Z</time>
      </trkpt>
      <trkpt lat="41.978196" lon="-5.613984">
        <ele>729.818</ele>
        <time>2021-10-13T17:31:13Z</time>
      </trkpt>
      <trkpt lat="41.978266" lon="-5.613933">
        <ele>729.884</ele>
        <time>2021-10-13T17:31:14Z</time>
      </trkpt>
      <trkpt lat="41.978433" lon="-5.613935">
        <ele>730.453</ele>
        <time>2021-10-13T17:31:16Z</time>
      </trkpt>
      <trkpt lat="41.978522" lon="-5.613965">
        <ele>731.038</ele>
        <time>2021-10-13T17:31:17Z</time>
      </trkpt>
      <trkpt lat="41.978719" lon="-5.613974">
        <ele>731.255</ele>
        <time>2021-10-13T17:31:19Z</time>
      </trkpt>
      <trkpt lat="41.978827" lon="-5.613933">
        <ele>731.807</ele>
        <time>2021-10-13T17:31:20Z</time>
      </trkpt>
      <trkpt lat="41.979019" lon="-5.613770">
        <ele>732.817</ele>
        <time>2021-10-13T17:31:22Z</time>
      </trkpt>
      <trkpt lat="41.979108" lon="-5.613662">
        <ele>733.508</ele>
        <time>2021-10-13T17:31:23Z</time>
      </trkpt>
      <trkpt lat="41.979277" lon="-5.613462">
        <ele>734.523</ele>
        <time>2021-10-13T17:31:25Z</time>
      </trkpt>
      <trkpt lat="41.979361" lon="-5.613369">
        <ele>735.141</ele>
        <time>2021-10-13T17:31:26Z</time>
      </trkpt>
      <trkpt lat="41.979516" lon="-5.613192">
        <ele>735.388</ele>
        <time>2021-10-13T17:31:28Z</time>
      </trkpt>
      <trkpt lat="41.979679" lon="-5.613011">
        <ele>735.778</ele>
        <time>2021-10-13T17:31:30Z</time>
      </trkpt>
      <trkpt lat="41.979755" lon="-5.612926">
        <ele>735.741</ele>
        <time>2021-10-13T17:31:31Z</time>
      </trkpt>
      <trkpt lat="41.979828" lon="-5.612841">
        <ele>734.847</ele>
        <time>2021-10-13T17:31:32Z</time>
      </trkpt>
      <trkpt lat="41.979941" lon="-5.612699">
        <ele>734.116</ele>
        <time>2021-10-13T17:31:34Z</time>
      </trkpt>
      <trkpt lat="41.979976" lon="-5.612647">
        <ele>733.921</ele>
        <time>2021-10-13T17:31:35Z</time>
      </trkpt>
      <trkpt lat="41.980003" lon="-5.612573">
        <ele>733.038</ele>
        <time>2021-10-13T17:31:37Z</time>
      </trkpt>
      <trkpt lat="41.980027" lon="-5.612479">
        <ele>732.270</ele>
        <time>2021-10-13T17:31:39Z</time>
      </trkpt>
      <trkpt lat="41.980031" lon="-5.612410">
        <ele>732.117</ele>
        <time>2021-10-13T17:31:40Z</time>
      </trkpt>
      <trkpt lat="41.979996" lon="-5.612244">
        <ele>731.808</ele>
        <time>2021-10-13T17:31:42Z</time>
      </trkpt>
      <trkpt lat="41.979970" lon="-5.612157">
        <ele>731.511</ele>
        <time>2021-10-13T17:31:43Z</time>
      </trkpt>
      <trkpt lat="41.979960" lon="-5.612064">
        <ele>731.019</ele>
        <time>2021-10-13T17:31:44Z</time>
      </trkpt>
      <trkpt lat="41.979991" lon="-5.611885">
        <ele>730.446</ele>
        <time>2021-10-13T17:31:46Z</time>
      </trkpt>
      <trkpt lat="41.980039" lon="-5.611807">
        <ele>730.216</ele>
        <time>2021-10-13T17:31:47Z</time>
      </trkpt>
      <trkpt lat="41.980183" lon="-5.611712">
        <ele>730.119</ele>
        <time>2021-10-13T17:31:49Z</time>
      </trkpt>
      <trkpt lat="41.980271" lon="-5.611705">
        <ele>730.035</ele>
        <time>2021-10-13T17:31:50Z</time>
      </trkpt>
      <trkpt lat="41.980438" lon="-5.611796">
        <ele>729.884</ele>
        <time>2021-10-13T17:31:52Z</time>
      </trkpt>
      <trkpt lat="41.980512" lon="-5.611887">
        <ele>729.559</ele>
        <time>2021-10-13T17:31:53Z</time>
      </trkpt>
      <trkpt lat="41.980654" lon="-5.612065">
        <ele>729.534</ele>
        <time>2021-10-13T17:31:55Z</time>
      </trkpt>
      <trkpt lat="41.980752" lon="-5.612117">
        <ele>729.655</ele>
        <time>2021-10-13T17:31:56Z</time>
      </trkpt>
      <trkpt lat="41.980972" lon="-5.612122">
        <ele>728.810</ele>
        <time>2021-10-13T17:31:58Z</time>
      </trkpt>
      <trkpt lat="41.981091" lon="-5.612092">
        <ele>728.008</ele>
        <time>2021-10-13T17:31:59Z</time>
      </trkpt>
      <trkpt lat="41.981337" lon="-5.612021">
        <ele>726.881</ele>
        <time>2021-10-13T17:32:01Z</time>
      </trkpt>
      <trkpt lat="41.981471" lon="-5.611973">
        <ele>726.819</ele>
        <time>2021-10-13T17:32:02Z</time>
      </trkpt>
      <trkpt lat="41.981735" lon="-5.611847">
        <ele>726.816</ele>
        <time>2021-10-13T17:32:04Z</time>
      </trkpt>
      <trkpt lat="41.981869" lon="-5.611762">
        <ele>726.716</ele>
        <time>2021-10-13T17:32:05Z</time>
      </trkpt>
      <trkpt lat="41.981991" lon="-5.611666">
        <ele>726.729</ele>
        <time>2021-10-13T17:32:06Z</time>
      </trkpt>
      <trkpt lat="41.982100" lon="-5.611569">
        <ele>726.965</ele>
        <time>2021-10-13T17:32:07Z</time>
      </trkpt>
      <trkpt lat="41.982205" lon="-5.611472">
        <ele>727.184</ele>
        <time>2021-10-13T17:32:08Z</time>
      </trkpt>
      <trkpt lat="41.982382" lon="-5.611282">
        <ele>727.679</ele>
        <time>2021-10-13T17:32:10Z</time>
      </trkpt>
      <trkpt lat="41.982488" lon="-5.611061">
        <ele>728.382</ele>
        <time>2021-10-13T17:32:12Z</time>
      </trkpt>
      <trkpt lat="41.982511" lon="-5.610939">
        <ele>727.943</ele>
        <time>2021-10-13T17:32:13Z</time>
      </trkpt>
      <trkpt lat="41.982532" lon="-5.610821">
        <ele>727.917</ele>
        <time>2021-10-13T17:32:14Z</time>
      </trkpt>
      <trkpt lat="41.982625" lon="-5.610648">
        <ele>728.308</ele>
        <time>2021-10-13T17:32:16Z</time>
      </trkpt>
      <trkpt lat="41.982758" lon="-5.610589">
        <ele>728.686</ele>
        <time>2021-10-13T17:32:18Z</time>
      </trkpt>
      <trkpt lat="41.982832" lon="-5.610612">
        <ele>728.544</ele>
        <time>2021-10-13T17:32:19Z</time>
      </trkpt>
      <trkpt lat="41.982904" lon="-5.610665">
        <ele>728.381</ele>
        <time>2021-10-13T17:32:20Z</time>
      </trkpt>
      <trkpt lat="41.982987" lon="-5.610859">
        <ele>728.091</ele>
        <time>2021-10-13T17:32:22Z</time>
      </trkpt>
      <trkpt lat="41.982990" lon="-5.610990">
        <ele>728.134</ele>
        <time>2021-10-13T17:32:23Z</time>
      </trkpt>
      <trkpt lat="41.982964" lon="-5.611118">
        <ele>728.680</ele>
        <time>2021-10-13T17:32:24Z</time>
      </trkpt>
      <trkpt lat="41.982910" lon="-5.611234">
        <ele>728.579</ele>
        <time>2021-10-13T17:32:25Z</time>
      </trkpt>
      <trkpt lat="41.982834" lon="-5.611341">
        <ele>728.684</ele>
        <time>2021-10-13T17:32:26Z</time>
      </trkpt>
      <trkpt lat="41.982705" lon="-5.611581">
        <ele>727.414</ele>
        <time>2021-10-13T17:32:28Z</time>
      </trkpt>
      <trkpt lat="41.982591" lon="-5.611851">
        <ele>727.654</ele>
        <time>2021-10-13T17:32:30Z</time>
      </trkpt>
      <trkpt lat="41.982523" lon="-5.611964">
        <ele>727.609</ele>
        <time>2021-10-13T17:32:31Z</time>
      </trkpt>
      <trkpt lat="41.982445" lon="-5.612062">
        <ele>726.608</ele>
        <time>2021-10-13T17:32:32Z</time>
      </trkpt>
      <trkpt lat="41.982296" lon="-5.612196">
        <ele>726.979</ele>
        <time>2021-10-13T17:32:34Z</time>
      </trkpt>
      <trkpt lat="41.982167" lon="-5.612288">
        <ele>727.517</ele>
        <time>2021-10-13T17:32:36Z</time>
      </trkpt>
      <trkpt lat="41.982110" lon="-5.612330">
        <ele>727.644</ele>
        <time>2021-10-13T17:32:37Z</time>
      </trkpt>
      <trkpt lat="41.982057" lon="-5.612379">
        <ele>727.634</ele>
        <time>2021-10-13T17:32:38Z</time>
      </trkpt>
      <trkpt lat="41.981966" lon="-5.612476">
        <ele>727.597</ele>
        <time>2021-10-13T17:32:40Z</time>
      </trkpt>
      <trkpt lat="41.981924" lon="-5.612517">
        <ele>727.293</ele>
        <time>2021-10-13T17:32:41Z</time>
      </trkpt>
      <trkpt lat="41.981858" lon="-5.612573">
        <ele>726.942</ele>
        <time>2021-10-13T17:32:43Z</time>
      </trkpt>
      <trkpt lat="41.981809" lon="-5.612612">
        <ele>726.887</ele>
        <time>2021-10-13T17:32:45Z</time>
      </trkpt>
      <trkpt lat="41.981770" lon="-5.612652">
        <ele>726.879</ele>
        <time>2021-10-13T17:32:48Z</time>
      </trkpt>
      <trkpt lat="41.981726" lon="-5.612694">
        <ele>726.905</ele>
        <time>2021-10-13T17:32:52Z</time>
      </trkpt>
      <trkpt lat="41.981720" lon="-5.612759">
        <ele>743.125</ele>
        <time>2021-10-13T17:33:14Z</time>
      </trkpt>
      <trkpt lat="41.981671" lon="-5.612788">
        <ele>761.108</ele>
        <time>2021-10-13T17:40:47Z</time>
      </trkpt>
      <trkpt lat="41.981623" lon="-5.612798">
        <ele>777.365</ele>
        <time>2021-10-13T17:50:18Z</time>
      </trkpt>
      <trkpt lat="41.981582" lon="-5.612833">
        <ele>784.833</ele>
        <time>2021-10-13T17:50:22Z</time>
      </trkpt>
      <trkpt lat="41.981582" lon="-5.612756">
        <ele>784.890</ele>
        <time>2021-10-13T17:50:47Z</time>
      </trkpt>
      <trkpt lat="41.981617" lon="-5.612672">
        <ele>784.870</ele>
        <time>2021-10-13T17:50:49Z</time>
      </trkpt>
      <trkpt lat="41.981656" lon="-5.612628">
        <ele>784.863</ele>
        <time>2021-10-13T17:50:51Z</time>
      </trkpt>
      <trkpt lat="41.981704" lon="-5.612605">
        <ele>784.979</ele>
        <time>2021-10-13T17:51:32Z</time>
      </trkpt>
      <trkpt lat="41.981828" lon="-5.612543">
        <ele>785.078</ele>
        <time>2021-10-13T17:51:34Z</time>
      </trkpt>
      <trkpt lat="41.981902" lon="-5.612495">
        <ele>785.073</ele>
        <time>2021-10-13T17:51:35Z</time>
      </trkpt>
      <trkpt lat="41.982028" lon="-5.612387">
        <ele>785.178</ele>
        <time>2021-10-13T17:51:37Z</time>
      </trkpt>
      <trkpt lat="41.982085" lon="-5.612318">
        <ele>785.133</ele>
        <time>2021-10-13T17:51:38Z</time>
      </trkpt>
      <trkpt lat="41.982217" lon="-5.612149">
        <ele>785.126</ele>
        <time>2021-10-13T17:51:40Z</time>
      </trkpt>
      <trkpt lat="41.982321" lon="-5.612052">
        <ele>785.108</ele>
        <time>2021-10-13T17:51:41Z</time>
      </trkpt>
      <trkpt lat="41.982438" lon="-5.611935">
        <ele>785.165</ele>
        <time>2021-10-13T17:51:42Z</time>
      </trkpt>
      <trkpt lat="41.982611" lon="-5.611663">
        <ele>785.193</ele>
        <time>2021-10-13T17:51:44Z</time>
      </trkpt>
      <trkpt lat="41.982686" lon="-5.611427">
        <ele>785.110</ele>
        <time>2021-10-13T17:51:46Z</time>
      </trkpt>
      <trkpt lat="41.982663" lon="-5.611263">
        <ele>785.110</ele>
        <time>2021-10-13T17:51:48Z</time>
      </trkpt>
      <trkpt lat="41.982619" lon="-5.611195">
        <ele>785.113</ele>
        <time>2021-10-13T17:51:49Z</time>
      </trkpt>
      <trkpt lat="41.982560" lon="-5.611123">
        <ele>785.179</ele>
        <time>2021-10-13T17:51:50Z</time>
      </trkpt>
      <trkpt lat="41.982473" lon="-5.610949">
        <ele>785.138</ele>
        <time>2021-10-13T17:51:52Z</time>
      </trkpt>
      <trkpt lat="41.982463" lon="-5.610855">
        <ele>785.183</ele>
        <time>2021-10-13T17:51:53Z</time>
      </trkpt>
      <trkpt lat="41.982481" lon="-5.610765">
        <ele>785.169</ele>
        <time>2021-10-13T17:51:54Z</time>
      </trkpt>
      <trkpt lat="41.982632" lon="-5.610591">
        <ele>785.104</ele>
        <time>2021-10-13T17:51:56Z</time>
      </trkpt>
      <trkpt lat="41.982859" lon="-5.610447">
        <ele>785.024</ele>
        <time>2021-10-13T17:51:58Z</time>
      </trkpt>
      <trkpt lat="41.982963" lon="-5.610336">
        <ele>785.008</ele>
        <time>2021-10-13T17:51:59Z</time>
      </trkpt>
      <trkpt lat="41.983129" lon="-5.610013">
        <ele>785.044</ele>
        <time>2021-10-13T17:52:01Z</time>
      </trkpt>
      <trkpt lat="41.983217" lon="-5.609812">
        <ele>785.042</ele>
        <time>2021-10-13T17:52:02Z</time>
      </trkpt>
      <trkpt lat="41.983426" lon="-5.609354">
        <ele>785.089</ele>
        <time>2021-10-13T17:52:04Z</time>
      </trkpt>
      <trkpt lat="41.983546" lon="-5.609102">
        <ele>785.039</ele>
        <time>2021-10-13T17:52:05Z</time>
      </trkpt>
      <trkpt lat="41.983675" lon="-5.608831">
        <ele>785.022</ele>
        <time>2021-10-13T17:52:06Z</time>
      </trkpt>
      <trkpt lat="41.983958" lon="-5.608238">
        <ele>785.088</ele>
        <time>2021-10-13T17:52:08Z</time>
      </trkpt>
      <trkpt lat="41.984250" lon="-5.607625">
        <ele>785.027</ele>
        <time>2021-10-13T17:52:10Z</time>
      </trkpt>
      <trkpt lat="41.984401" lon="-5.607307">
        <ele>785.092</ele>
        <time>2021-10-13T17:52:11Z</time>
      </trkpt>
      <trkpt lat="41.984702" lon="-5.606659">
        <ele>785.052</ele>
        <time>2021-10-13T17:52:13Z</time>
      </trkpt>
      <trkpt lat="41.984855" lon="-5.606339">
        <ele>785.053</ele>
        <time>2021-10-13T17:52:14Z</time>
      </trkpt>
      <trkpt lat="41.985133" lon="-5.605749">
        <ele>785.108</ele>
        <time>2021-10-13T17:52:16Z</time>
      </trkpt>
      <trkpt lat="41.985414" lon="-5.605155">
        <ele>785.108</ele>
        <time>2021-10-13T17:52:18Z</time>
      </trkpt>
      <trkpt lat="41.985690" lon="-5.604575">
        <ele>785.193</ele>
        <time>2021-10-13T17:52:20Z</time>
      </trkpt>
      <trkpt lat="41.985952" lon="-5.604016">
        <ele>785.181</ele>
        <time>2021-10-13T17:52:22Z</time>
      </trkpt>
      <trkpt lat="41.986084" lon="-5.603726">
        <ele>785.158</ele>
        <time>2021-10-13T17:52:23Z</time>
      </trkpt>
      <trkpt lat="41.986357" lon="-5.603142">
        <ele>785.048</ele>
        <time>2021-10-13T17:52:25Z</time>
      </trkpt>
      <trkpt lat="41.986500" lon="-5.602839">
        <ele>785.081</ele>
        <time>2021-10-13T17:52:26Z</time>
      </trkpt>
      <trkpt lat="41.986765" lon="-5.602263">
        <ele>750.757</ele>
        <time>2021-10-13T17:52:28Z</time>
      </trkpt>
      <trkpt lat="41.987032" lon="-5.601672">
        <ele>716.036</ele>
        <time>2021-10-13T17:52:30Z</time>
      </trkpt>
      <trkpt lat="41.987315" lon="-5.601063">
        <ele>713.861</ele>
        <time>2021-10-13T17:52:32Z</time>
      </trkpt>
      <trkpt lat="41.987597" lon="-5.600478">
        <ele>712.863</ele>
        <time>2021-10-13T17:52:34Z</time>
      </trkpt>
      <trkpt lat="41.987854" lon="-5.599922">
        <ele>713.044</ele>
        <time>2021-10-13T17:52:36Z</time>
      </trkpt>
      <trkpt lat="41.987983" lon="-5.599651">
        <ele>713.518</ele>
        <time>2021-10-13T17:52:37Z</time>
      </trkpt>
      <trkpt lat="41.988114" lon="-5.599363">
        <ele>714.308</ele>
        <time>2021-10-13T17:52:38Z</time>
      </trkpt>
      <trkpt lat="41.988348" lon="-5.598791">
        <ele>716.094</ele>
        <time>2021-10-13T17:52:40Z</time>
      </trkpt>
      <trkpt lat="41.988450" lon="-5.598480">
        <ele>716.712</ele>
        <time>2021-10-13T17:52:41Z</time>
      </trkpt>
      <trkpt lat="41.988529" lon="-5.598147">
        <ele>717.499</ele>
        <time>2021-10-13T17:52:42Z</time>
      </trkpt>
      <trkpt lat="41.988602" lon="-5.597748">
        <ele>717.539</ele>
        <time>2021-10-13T17:52:43Z</time>
      </trkpt>
      <trkpt lat="41.988682" lon="-5.597334">
        <ele>718.042</ele>
        <time>2021-10-13T17:52:44Z</time>
      </trkpt>
      <trkpt lat="41.988830" lon="-5.596544">
        <ele>719.158</ele>
        <time>2021-10-13T17:52:46Z</time>
      </trkpt>
      <trkpt lat="41.988899" lon="-5.596151">
        <ele>719.487</ele>
        <time>2021-10-13T17:52:47Z</time>
      </trkpt>
      <trkpt lat="41.988970" lon="-5.595752">
        <ele>719.442</ele>
        <time>2021-10-13T17:52:48Z</time>
      </trkpt>
      <trkpt lat="41.989103" lon="-5.594999">
        <ele>717.748</ele>
        <time>2021-10-13T17:52:50Z</time>
      </trkpt>
      <trkpt lat="41.989226" lon="-5.594288">
        <ele>717.461</ele>
        <time>2021-10-13T17:52:52Z</time>
      </trkpt>
      <trkpt lat="41.989292" lon="-5.593919">
        <ele>717.117</ele>
        <time>2021-10-13T17:52:53Z</time>
      </trkpt>
      <trkpt lat="41.989427" lon="-5.593183">
        <ele>718.008</ele>
        <time>2021-10-13T17:52:55Z</time>
      </trkpt>
      <trkpt lat="41.989501" lon="-5.592794">
        <ele>718.362</ele>
        <time>2021-10-13T17:52:56Z</time>
      </trkpt>
      <trkpt lat="41.989638" lon="-5.592046">
        <ele>719.480</ele>
        <time>2021-10-13T17:52:58Z</time>
      </trkpt>
      <trkpt lat="41.989711" lon="-5.591636">
        <ele>719.547</ele>
        <time>2021-10-13T17:52:59Z</time>
      </trkpt>
      <trkpt lat="41.989880" lon="-5.590801">
        <ele>720.177</ele>
        <time>2021-10-13T17:53:01Z</time>
      </trkpt>
      <trkpt lat="41.989971" lon="-5.590372">
        <ele>719.920</ele>
        <time>2021-10-13T17:53:02Z</time>
      </trkpt>
      <trkpt lat="41.990155" lon="-5.589586">
        <ele>719.696</ele>
        <time>2021-10-13T17:53:04Z</time>
      </trkpt>
      <trkpt lat="41.990374" lon="-5.588800">
        <ele>719.435</ele>
        <time>2021-10-13T17:53:06Z</time>
      </trkpt>
      <trkpt lat="41.990618" lon="-5.588012">
        <ele>719.530</ele>
        <time>2021-10-13T17:53:08Z</time>
      </trkpt>
      <trkpt lat="41.990835" lon="-5.587241">
        <ele>719.258</ele>
        <time>2021-10-13T17:53:10Z</time>
      </trkpt>
      <trkpt lat="41.991041" lon="-5.586446">
        <ele>719.352</ele>
        <time>2021-10-13T17:53:12Z</time>
      </trkpt>
      <trkpt lat="41.991295" lon="-5.585658">
        <ele>718.817</ele>
        <time>2021-10-13T17:53:14Z</time>
      </trkpt>
      <trkpt lat="41.991555" lon="-5.584905">
        <ele>718.608</ele>
        <time>2021-10-13T17:53:16Z</time>
      </trkpt>
      <trkpt lat="41.991685" lon="-5.584516">
        <ele>718.783</ele>
        <time>2021-10-13T17:53:17Z</time>
      </trkpt>
      <trkpt lat="41.991921" lon="-5.583735">
        <ele>718.321</ele>
        <time>2021-10-13T17:53:19Z</time>
      </trkpt>
      <trkpt lat="41.992041" lon="-5.583321">
        <ele>718.298</ele>
        <time>2021-10-13T17:53:20Z</time>
      </trkpt>
      <trkpt lat="41.992262" lon="-5.582523">
        <ele>718.718</ele>
        <time>2021-10-13T17:53:22Z</time>
      </trkpt>
      <trkpt lat="41.992371" lon="-5.582103">
        <ele>719.091</ele>
        <time>2021-10-13T17:53:23Z</time>
      </trkpt>
      <trkpt lat="41.992616" lon="-5.581264">
        <ele>718.137</ele>
        <time>2021-10-13T17:53:25Z</time>
      </trkpt>
      <trkpt lat="41.992743" lon="-5.580833">
        <ele>717.996</ele>
        <time>2021-10-13T17:53:26Z</time>
      </trkpt>
      <trkpt lat="41.992982" lon="-5.580039">
        <ele>717.541</ele>
        <time>2021-10-13T17:53:28Z</time>
      </trkpt>
      <trkpt lat="41.993242" lon="-5.579232">
        <ele>718.115</ele>
        <time>2021-10-13T17:53:30Z</time>
      </trkpt>
      <trkpt lat="41.993367" lon="-5.578826">
        <ele>718.565</ele>
        <time>2021-10-13T17:53:31Z</time>
      </trkpt>
      <trkpt lat="41.993495" lon="-5.578409">
        <ele>718.111</ele>
        <time>2021-10-13T17:53:32Z</time>
      </trkpt>
      <trkpt lat="41.993737" lon="-5.577613">
        <ele>718.508</ele>
        <time>2021-10-13T17:53:34Z</time>
      </trkpt>
      <trkpt lat="41.993981" lon="-5.576804">
        <ele>718.639</ele>
        <time>2021-10-13T17:53:36Z</time>
      </trkpt>
      <trkpt lat="41.994224" lon="-5.575994">
        <ele>717.947</ele>
        <time>2021-10-13T17:53:38Z</time>
      </trkpt>
      <trkpt lat="41.994467" lon="-5.575205">
        <ele>718.044</ele>
        <time>2021-10-13T17:53:40Z</time>
      </trkpt>
      <trkpt lat="41.994592" lon="-5.574802">
        <ele>717.314</ele>
        <time>2021-10-13T17:53:41Z</time>
      </trkpt>
      <trkpt lat="41.994844" lon="-5.573980">
        <ele>716.967</ele>
        <time>2021-10-13T17:53:43Z</time>
      </trkpt>
      <trkpt lat="41.994971" lon="-5.573546">
        <ele>717.443</ele>
        <time>2021-10-13T17:53:44Z</time>
      </trkpt>
      <trkpt lat="41.995219" lon="-5.572702">
        <ele>717.392</ele>
        <time>2021-10-13T17:53:46Z</time>
      </trkpt>
      <trkpt lat="41.995346" lon="-5.572271">
        <ele>717.357</ele>
        <time>2021-10-13T17:53:47Z</time>
      </trkpt>
      <trkpt lat="41.995473" lon="-5.571844">
        <ele>717.778</ele>
        <time>2021-10-13T17:53:48Z</time>
      </trkpt>
      <trkpt lat="41.995728" lon="-5.570996">
        <ele>717.433</ele>
        <time>2021-10-13T17:53:50Z</time>
      </trkpt>
      <trkpt lat="41.995981" lon="-5.570172">
        <ele>718.026</ele>
        <time>2021-10-13T17:53:52Z</time>
      </trkpt>
      <trkpt lat="41.996234" lon="-5.569334">
        <ele>717.908</ele>
        <time>2021-10-13T17:53:54Z</time>
      </trkpt>
      <trkpt lat="41.996355" lon="-5.568926">
        <ele>717.345</ele>
        <time>2021-10-13T17:53:55Z</time>
      </trkpt>
      <trkpt lat="41.996477" lon="-5.568508">
        <ele>717.313</ele>
        <time>2021-10-13T17:53:56Z</time>
      </trkpt>
      <trkpt lat="41.996705" lon="-5.567754">
        <ele>718.240</ele>
        <time>2021-10-13T17:53:58Z</time>
      </trkpt>
      <trkpt lat="41.996822" lon="-5.567368">
        <ele>718.150</ele>
        <time>2021-10-13T17:53:59Z</time>
      </trkpt>
      <trkpt lat="41.997054" lon="-5.566591">
        <ele>719.463</ele>
        <time>2021-10-13T17:54:01Z</time>
      </trkpt>
      <trkpt lat="41.997173" lon="-5.566186">
        <ele>719.929</ele>
        <time>2021-10-13T17:54:02Z</time>
      </trkpt>
      <trkpt lat="41.997413" lon="-5.565401">
        <ele>720.058</ele>
        <time>2021-10-13T17:54:04Z</time>
      </trkpt>
      <trkpt lat="41.997537" lon="-5.564997">
        <ele>720.173</ele>
        <time>2021-10-13T17:54:05Z</time>
      </trkpt>
      <trkpt lat="41.997780" lon="-5.564185">
        <ele>719.697</ele>
        <time>2021-10-13T17:54:07Z</time>
      </trkpt>
      <trkpt lat="41.997904" lon="-5.563766">
        <ele>719.723</ele>
        <time>2021-10-13T17:54:08Z</time>
      </trkpt>
      <trkpt lat="41.998144" lon="-5.562988">
        <ele>719.725</ele>
        <time>2021-10-13T17:54:10Z</time>
      </trkpt>
      <trkpt lat="41.998265" lon="-5.562593">
        <ele>719.808</ele>
        <time>2021-10-13T17:54:11Z</time>
      </trkpt>
      <trkpt lat="41.998499" lon="-5.561805">
        <ele>719.487</ele>
        <time>2021-10-13T17:54:13Z</time>
      </trkpt>
      <trkpt lat="41.998619" lon="-5.561400">
        <ele>719.195</ele>
        <time>2021-10-13T17:54:14Z</time>
      </trkpt>
      <trkpt lat="41.998846" lon="-5.560631">
        <ele>719.752</ele>
        <time>2021-10-13T17:54:16Z</time>
      </trkpt>
      <trkpt lat="41.998962" lon="-5.560243">
        <ele>719.572</ele>
        <time>2021-10-13T17:54:17Z</time>
      </trkpt>
      <trkpt lat="41.999193" lon="-5.559483">
        <ele>719.185</ele>
        <time>2021-10-13T17:54:19Z</time>
      </trkpt>
      <trkpt lat="41.999313" lon="-5.559093">
        <ele>719.561</ele>
        <time>2021-10-13T17:54:20Z</time>
      </trkpt>
      <trkpt lat="41.999542" lon="-5.558346">
        <ele>719.170</ele>
        <time>2021-10-13T17:54:22Z</time>
      </trkpt>
      <trkpt lat="41.999768" lon="-5.557591">
        <ele>718.765</ele>
        <time>2021-10-13T17:54:24Z</time>
      </trkpt>
      <trkpt lat="41.999997" lon="-5.556832">
        <ele>717.663</ele>
        <time>2021-10-13T17:54:26Z</time>
      </trkpt>
      <trkpt lat="42.000221" lon="-5.556095">
        <ele>717.244</ele>
        <time>2021-10-13T17:54:28Z</time>
      </trkpt>
      <trkpt lat="42.000331" lon="-5.555731">
        <ele>717.118</ele>
        <time>2021-10-13T17:54:29Z</time>
      </trkpt>
      <trkpt lat="42.000531" lon="-5.555056">
        <ele>717.808</ele>
        <time>2021-10-13T17:54:31Z</time>
      </trkpt>
      <trkpt lat="42.000630" lon="-5.554717">
        <ele>717.484</ele>
        <time>2021-10-13T17:54:32Z</time>
      </trkpt>
      <trkpt lat="42.000821" lon="-5.554071">
        <ele>717.842</ele>
        <time>2021-10-13T17:54:34Z</time>
      </trkpt>
      <trkpt lat="42.000917" lon="-5.553749">
        <ele>717.999</ele>
        <time>2021-10-13T17:54:35Z</time>
      </trkpt>
      <trkpt lat="42.001092" lon="-5.553160">
        <ele>718.729</ele>
        <time>2021-10-13T17:54:37Z</time>
      </trkpt>
      <trkpt lat="42.001182" lon="-5.552860">
        <ele>718.642</ele>
        <time>2021-10-13T17:54:38Z</time>
      </trkpt>
      <trkpt lat="42.001355" lon="-5.552287">
        <ele>717.868</ele>
        <time>2021-10-13T17:54:40Z</time>
      </trkpt>
      <trkpt lat="42.001445" lon="-5.551989">
        <ele>717.637</ele>
        <time>2021-10-13T17:54:41Z</time>
      </trkpt>
      <trkpt lat="42.001621" lon="-5.551416">
        <ele>716.662</ele>
        <time>2021-10-13T17:54:43Z</time>
      </trkpt>
      <trkpt lat="42.001707" lon="-5.551139">
        <ele>717.013</ele>
        <time>2021-10-13T17:54:44Z</time>
      </trkpt>
      <trkpt lat="42.001858" lon="-5.550643">
        <ele>717.243</ele>
        <time>2021-10-13T17:54:46Z</time>
      </trkpt>
      <trkpt lat="42.001983" lon="-5.550208">
        <ele>718.007</ele>
        <time>2021-10-13T17:54:48Z</time>
      </trkpt>
      <trkpt lat="42.002068" lon="-5.549877">
        <ele>718.508</ele>
        <time>2021-10-13T17:54:50Z</time>
      </trkpt>
      <trkpt lat="42.002094" lon="-5.549601">
        <ele>717.849</ele>
        <time>2021-10-13T17:54:52Z</time>
      </trkpt>
      <trkpt lat="42.002086" lon="-5.549459">
        <ele>717.717</ele>
        <time>2021-10-13T17:54:53Z</time>
      </trkpt>
      <trkpt lat="42.002065" lon="-5.549198">
        <ele>717.614</ele>
        <time>2021-10-13T17:54:55Z</time>
      </trkpt>
      <trkpt lat="42.002061" lon="-5.549075">
        <ele>717.864</ele>
        <time>2021-10-13T17:54:56Z</time>
      </trkpt>
      <trkpt lat="42.002058" lon="-5.548888">
        <ele>718.137</ele>
        <time>2021-10-13T17:54:58Z</time>
      </trkpt>
      <trkpt lat="42.002053" lon="-5.548717">
        <ele>718.183</ele>
        <time>2021-10-13T17:55:00Z</time>
      </trkpt>
      <trkpt lat="42.002054" lon="-5.548647">
        <ele>718.112</ele>
        <time>2021-10-13T17:55:01Z</time>
      </trkpt>
      <trkpt lat="42.002073" lon="-5.548558">
        <ele>718.327</ele>
        <time>2021-10-13T17:55:03Z</time>
      </trkpt>
      <trkpt lat="42.002113" lon="-5.548455">
        <ele>718.091</ele>
        <time>2021-10-13T17:55:06Z</time>
      </trkpt>
      <trkpt lat="42.002223" lon="-5.548303">
        <ele>717.681</ele>
        <time>2021-10-13T17:55:08Z</time>
      </trkpt>
      <trkpt lat="42.002428" lon="-5.548138">
        <ele>716.819</ele>
        <time>2021-10-13T17:55:10Z</time>
      </trkpt>
      <trkpt lat="42.002679" lon="-5.547984">
        <ele>716.208</ele>
        <time>2021-10-13T17:55:12Z</time>
      </trkpt>
      <trkpt lat="42.002797" lon="-5.547924">
        <ele>716.247</ele>
        <time>2021-10-13T17:55:13Z</time>
      </trkpt>
      <trkpt lat="42.002904" lon="-5.547848">
        <ele>716.335</ele>
        <time>2021-10-13T17:55:14Z</time>
      </trkpt>
      <trkpt lat="42.003060" lon="-5.547635">
        <ele>715.892</ele>
        <time>2021-10-13T17:55:16Z</time>
      </trkpt>
      <trkpt lat="42.003170" lon="-5.547318">
        <ele>716.062</ele>
        <time>2021-10-13T17:55:18Z</time>
      </trkpt>
      <trkpt lat="42.003241" lon="-5.546959">
        <ele>716.295</ele>
        <time>2021-10-13T17:55:20Z</time>
      </trkpt>
      <trkpt lat="42.003322" lon="-5.546666">
        <ele>716.581</ele>
        <time>2021-10-13T17:55:22Z</time>
      </trkpt>
      <trkpt lat="42.003390" lon="-5.546533">
        <ele>716.930</ele>
        <time>2021-10-13T17:55:23Z</time>
      </trkpt>
      <trkpt lat="42.003476" lon="-5.546397">
        <ele>717.815</ele>
        <time>2021-10-13T17:55:24Z</time>
      </trkpt>
      <trkpt lat="42.003705" lon="-5.546091">
        <ele>720.118</ele>
        <time>2021-10-13T17:55:26Z</time>
      </trkpt>
      <trkpt lat="42.003929" lon="-5.545780">
        <ele>721.298</ele>
        <time>2021-10-13T17:55:28Z</time>
      </trkpt>
      <trkpt lat="42.004039" lon="-5.545630">
        <ele>721.517</ele>
        <time>2021-10-13T17:55:29Z</time>
      </trkpt>
      <trkpt lat="42.004241" lon="-5.545351">
        <ele>721.708</ele>
        <time>2021-10-13T17:55:31Z</time>
      </trkpt>
      <trkpt lat="42.004346" lon="-5.545203">
        <ele>722.839</ele>
        <time>2021-10-13T17:55:32Z</time>
      </trkpt>
      <trkpt lat="42.004523" lon="-5.544920">
        <ele>721.757</ele>
        <time>2021-10-13T17:55:34Z</time>
      </trkpt>
      <trkpt lat="42.004636" lon="-5.544566">
        <ele>722.134</ele>
        <time>2021-10-13T17:55:36Z</time>
      </trkpt>
      <trkpt lat="42.004657" lon="-5.544371">
        <ele>722.884</ele>
        <time>2021-10-13T17:55:37Z</time>
      </trkpt>
      <trkpt lat="42.004669" lon="-5.544173">
        <ele>723.347</ele>
        <time>2021-10-13T17:55:38Z</time>
      </trkpt>
      <trkpt lat="42.004685" lon="-5.543867">
        <ele>723.413</ele>
        <time>2021-10-13T17:55:40Z</time>
      </trkpt>
      <trkpt lat="42.004706" lon="-5.543653">
        <ele>723.262</ele>
        <time>2021-10-13T17:55:42Z</time>
      </trkpt>
      <trkpt lat="42.004729" lon="-5.543534">
        <ele>722.957</ele>
        <time>2021-10-13T17:55:44Z</time>
      </trkpt>
      <trkpt lat="42.004755" lon="-5.543481">
        <ele>722.639</ele>
        <time>2021-10-13T17:55:47Z</time>
      </trkpt>
      <trkpt lat="42.004798" lon="-5.543452">
        <ele>722.501</ele>
        <time>2021-10-13T17:55:50Z</time>
      </trkpt>
      <trkpt lat="42.004881" lon="-5.543491">
        <ele>723.021</ele>
        <time>2021-10-13T17:56:03Z</time>
      </trkpt>
      <trkpt lat="42.005039" lon="-5.543571">
        <ele>723.008</ele>
        <time>2021-10-13T17:56:05Z</time>
      </trkpt>
      <trkpt lat="42.005219" lon="-5.543650">
        <ele>723.111</ele>
        <time>2021-10-13T17:56:07Z</time>
      </trkpt>
      <trkpt lat="42.005331" lon="-5.543696">
        <ele>723.159</ele>
        <time>2021-10-13T17:56:08Z</time>
      </trkpt>
      <trkpt lat="42.005590" lon="-5.543810">
        <ele>723.156</ele>
        <time>2021-10-13T17:56:10Z</time>
      </trkpt>
      <trkpt lat="42.005907" lon="-5.543952">
        <ele>723.196</ele>
        <time>2021-10-13T17:56:12Z</time>
      </trkpt>
      <trkpt lat="42.006271" lon="-5.544113">
        <ele>723.169</ele>
        <time>2021-10-13T17:56:14Z</time>
      </trkpt>
      <trkpt lat="42.006657" lon="-5.544273">
        <ele>723.075</ele>
        <time>2021-10-13T17:56:16Z</time>
      </trkpt>
      <trkpt lat="42.006834" lon="-5.544350">
        <ele>723.034</ele>
        <time>2021-10-13T17:56:17Z</time>
      </trkpt>
      <trkpt lat="42.007009" lon="-5.544430">
        <ele>723.099</ele>
        <time>2021-10-13T17:56:18Z</time>
      </trkpt>
      <trkpt lat="42.007193" lon="-5.544514">
        <ele>723.021</ele>
        <time>2021-10-13T17:56:19Z</time>
      </trkpt>
      <trkpt lat="42.007392" lon="-5.544601">
        <ele>723.041</ele>
        <time>2021-10-13T17:56:20Z</time>
      </trkpt>
      <trkpt lat="42.007792" lon="-5.544772">
        <ele>723.005</ele>
        <time>2021-10-13T17:56:22Z</time>
      </trkpt>
      <trkpt lat="42.008009" lon="-5.544866">
        <ele>723.008</ele>
        <time>2021-10-13T17:56:23Z</time>
      </trkpt>
      <trkpt lat="42.008230" lon="-5.544962">
        <ele>723.060</ele>
        <time>2021-10-13T17:56:24Z</time>
      </trkpt>
      <trkpt lat="42.008721" lon="-5.545183">
        <ele>723.068</ele>
        <time>2021-10-13T17:56:26Z</time>
      </trkpt>
      <trkpt lat="42.009248" lon="-5.545424">
        <ele>723.065</ele>
        <time>2021-10-13T17:56:28Z</time>
      </trkpt>
      <trkpt lat="42.009531" lon="-5.545552">
        <ele>723.055</ele>
        <time>2021-10-13T17:56:29Z</time>
      </trkpt>
      <trkpt lat="42.010058" lon="-5.545787">
        <ele>723.028</ele>
        <time>2021-10-13T17:56:31Z</time>
      </trkpt>
      <trkpt lat="42.010328" lon="-5.545907">
        <ele>723.084</ele>
        <time>2021-10-13T17:56:32Z</time>
      </trkpt>
      <trkpt lat="42.010872" lon="-5.546145">
        <ele>723.073</ele>
        <time>2021-10-13T17:56:34Z</time>
      </trkpt>
      <trkpt lat="42.011437" lon="-5.546389">
        <ele>723.088</ele>
        <time>2021-10-13T17:56:36Z</time>
      </trkpt>
      <trkpt lat="42.011712" lon="-5.546506">
        <ele>723.028</ele>
        <time>2021-10-13T17:56:37Z</time>
      </trkpt>
      <trkpt lat="42.011975" lon="-5.546618">
        <ele>723.089</ele>
        <time>2021-10-13T17:56:38Z</time>
      </trkpt>
      <trkpt lat="42.012440" lon="-5.546823">
        <ele>723.017</ele>
        <time>2021-10-13T17:56:40Z</time>
      </trkpt>
      <trkpt lat="42.012911" lon="-5.547020">
        <ele>723.008</ele>
        <time>2021-10-13T17:56:42Z</time>
      </trkpt>
      <trkpt lat="42.013397" lon="-5.547226">
        <ele>723.080</ele>
        <time>2021-10-13T17:56:44Z</time>
      </trkpt>
      <trkpt lat="42.013837" lon="-5.547421">
        <ele>723.078</ele>
        <time>2021-10-13T17:56:46Z</time>
      </trkpt>
      <trkpt lat="42.014037" lon="-5.547509">
        <ele>723.095</ele>
        <time>2021-10-13T17:56:47Z</time>
      </trkpt>
      <trkpt lat="42.014221" lon="-5.547595">
        <ele>723.045</ele>
        <time>2021-10-13T17:56:48Z</time>
      </trkpt>
      <trkpt lat="42.014571" lon="-5.547790">
        <ele>723.098</ele>
        <time>2021-10-13T17:56:50Z</time>
      </trkpt>
      <trkpt lat="42.014912" lon="-5.548088">
        <ele>738.774</ele>
        <time>2021-10-13T17:56:52Z</time>
      </trkpt>
      <trkpt lat="42.015091" lon="-5.548280">
        <ele>739.093</ele>
        <time>2021-10-13T17:56:53Z</time>
      </trkpt>
      <trkpt lat="42.015450" lon="-5.548672">
        <ele>739.468</ele>
        <time>2021-10-13T17:56:55Z</time>
      </trkpt>
      <trkpt lat="42.015634" lon="-5.548871">
        <ele>739.913</ele>
        <time>2021-10-13T17:56:56Z</time>
      </trkpt>
      <trkpt lat="42.016009" lon="-5.549270">
        <ele>739.443</ele>
        <time>2021-10-13T17:56:58Z</time>
      </trkpt>
      <trkpt lat="42.016211" lon="-5.549480">
        <ele>739.607</ele>
        <time>2021-10-13T17:56:59Z</time>
      </trkpt>
      <trkpt lat="42.016627" lon="-5.549914">
        <ele>738.708</ele>
        <time>2021-10-13T17:57:01Z</time>
      </trkpt>
      <trkpt lat="42.016847" lon="-5.550143">
        <ele>737.289</ele>
        <time>2021-10-13T17:57:02Z</time>
      </trkpt>
      <trkpt lat="42.017282" lon="-5.550607">
        <ele>736.067</ele>
        <time>2021-10-13T17:57:04Z</time>
      </trkpt>
      <trkpt lat="42.017513" lon="-5.550853">
        <ele>734.974</ele>
        <time>2021-10-13T17:57:05Z</time>
      </trkpt>
      <trkpt lat="42.017990" lon="-5.551357">
        <ele>732.444</ele>
        <time>2021-10-13T17:57:07Z</time>
      </trkpt>
      <trkpt lat="42.018229" lon="-5.551610">
        <ele>730.827</ele>
        <time>2021-10-13T17:57:08Z</time>
      </trkpt>
      <trkpt lat="42.018669" lon="-5.552078">
        <ele>727.773</ele>
        <time>2021-10-13T17:57:10Z</time>
      </trkpt>
      <trkpt lat="42.018878" lon="-5.552296">
        <ele>726.392</ele>
        <time>2021-10-13T17:57:11Z</time>
      </trkpt>
      <trkpt lat="42.019254" lon="-5.552690">
        <ele>724.267</ele>
        <time>2021-10-13T17:57:13Z</time>
      </trkpt>
      <trkpt lat="42.019428" lon="-5.552878">
        <ele>723.177</ele>
        <time>2021-10-13T17:57:14Z</time>
      </trkpt>
      <trkpt lat="42.019758" lon="-5.553215">
        <ele>721.461</ele>
        <time>2021-10-13T17:57:16Z</time>
      </trkpt>
      <trkpt lat="42.020116" lon="-5.553460">
        <ele>720.027</ele>
        <time>2021-10-13T17:57:18Z</time>
      </trkpt>
      <trkpt lat="42.020315" lon="-5.553539">
        <ele>718.608</ele>
        <time>2021-10-13T17:57:19Z</time>
      </trkpt>
      <trkpt lat="42.020533" lon="-5.553599">
        <ele>718.285</ele>
        <time>2021-10-13T17:57:20Z</time>
      </trkpt>
      <trkpt lat="42.020990" lon="-5.553727">
        <ele>716.753</ele>
        <time>2021-10-13T17:57:22Z</time>
      </trkpt>
      <trkpt lat="42.021234" lon="-5.553803">
        <ele>715.460</ele>
        <time>2021-10-13T17:57:23Z</time>
      </trkpt>
      <trkpt lat="42.021491" lon="-5.553884">
        <ele>714.110</ele>
        <time>2021-10-13T17:57:24Z</time>
      </trkpt>
      <trkpt lat="42.021758" lon="-5.553966">
        <ele>713.763</ele>
        <time>2021-10-13T17:57:25Z</time>
      </trkpt>
      <trkpt lat="42.022046" lon="-5.554046">
        <ele>713.439</ele>
        <time>2021-10-13T17:57:26Z</time>
      </trkpt>
      <trkpt lat="42.022618" lon="-5.554197">
        <ele>711.548</ele>
        <time>2021-10-13T17:57:28Z</time>
      </trkpt>
      <trkpt lat="42.022921" lon="-5.554285">
        <ele>711.113</ele>
        <time>2021-10-13T17:57:29Z</time>
      </trkpt>
      <trkpt lat="42.023536" lon="-5.554465">
        <ele>710.631</ele>
        <time>2021-10-13T17:57:31Z</time>
      </trkpt>
      <trkpt lat="42.023845" lon="-5.554557">
        <ele>710.361</ele>
        <time>2021-10-13T17:57:32Z</time>
      </trkpt>
      <trkpt lat="42.024428" lon="-5.554731">
        <ele>710.507</ele>
        <time>2021-10-13T17:57:34Z</time>
      </trkpt>
      <trkpt lat="42.025011" lon="-5.554903">
        <ele>710.108</ele>
        <time>2021-10-13T17:57:36Z</time>
      </trkpt>
      <trkpt lat="42.025587" lon="-5.555075">
        <ele>710.161</ele>
        <time>2021-10-13T17:57:38Z</time>
      </trkpt>
      <trkpt lat="42.026071" lon="-5.555217">
        <ele>710.479</ele>
        <time>2021-10-13T17:57:40Z</time>
      </trkpt>
      <trkpt lat="42.026296" lon="-5.555279">
        <ele>710.286</ele>
        <time>2021-10-13T17:57:41Z</time>
      </trkpt>
      <trkpt lat="42.026722" lon="-5.555407">
        <ele>709.596</ele>
        <time>2021-10-13T17:57:43Z</time>
      </trkpt>
      <trkpt lat="42.026935" lon="-5.555477">
        <ele>709.979</ele>
        <time>2021-10-13T17:57:44Z</time>
      </trkpt>
      <trkpt lat="42.027319" lon="-5.555601">
        <ele>710.235</ele>
        <time>2021-10-13T17:57:46Z</time>
      </trkpt>
      <trkpt lat="42.027666" lon="-5.555706">
        <ele>709.684</ele>
        <time>2021-10-13T17:57:48Z</time>
      </trkpt>
      <trkpt lat="42.027833" lon="-5.555755">
        <ele>709.489</ele>
        <time>2021-10-13T17:57:49Z</time>
      </trkpt>
      <trkpt lat="42.028000" lon="-5.555804">
        <ele>709.674</ele>
        <time>2021-10-13T17:57:50Z</time>
      </trkpt>
      <trkpt lat="42.028313" lon="-5.555960">
        <ele>711.156</ele>
        <time>2021-10-13T17:57:52Z</time>
      </trkpt>
      <trkpt lat="42.028610" lon="-5.556238">
        <ele>711.821</ele>
        <time>2021-10-13T17:57:54Z</time>
      </trkpt>
      <trkpt lat="42.028751" lon="-5.556420">
        <ele>711.708</ele>
        <time>2021-10-13T17:57:55Z</time>
      </trkpt>
      <trkpt lat="42.028894" lon="-5.556618">
        <ele>711.645</ele>
        <time>2021-10-13T17:57:56Z</time>
      </trkpt>
      <trkpt lat="42.029169" lon="-5.557009">
        <ele>711.813</ele>
        <time>2021-10-13T17:57:58Z</time>
      </trkpt>
      <trkpt lat="42.029313" lon="-5.557214">
        <ele>712.360</ele>
        <time>2021-10-13T17:57:59Z</time>
      </trkpt>
      <trkpt lat="42.029576" lon="-5.557585">
        <ele>712.950</ele>
        <time>2021-10-13T17:58:01Z</time>
      </trkpt>
      <trkpt lat="42.029701" lon="-5.557762">
        <ele>712.883</ele>
        <time>2021-10-13T17:58:02Z</time>
      </trkpt>
      <trkpt lat="42.029943" lon="-5.558105">
        <ele>712.359</ele>
        <time>2021-10-13T17:58:04Z</time>
      </trkpt>
      <trkpt lat="42.030074" lon="-5.558292">
        <ele>712.398</ele>
        <time>2021-10-13T17:58:05Z</time>
      </trkpt>
      <trkpt lat="42.030213" lon="-5.558490">
        <ele>712.333</ele>
        <time>2021-10-13T17:58:06Z</time>
      </trkpt>
      <trkpt lat="42.030518" lon="-5.558912">
        <ele>711.262</ele>
        <time>2021-10-13T17:58:08Z</time>
      </trkpt>
      <trkpt lat="42.030834" lon="-5.559347">
        <ele>712.083</ele>
        <time>2021-10-13T17:58:10Z</time>
      </trkpt>
      <trkpt lat="42.031003" lon="-5.559587">
        <ele>711.211</ele>
        <time>2021-10-13T17:58:11Z</time>
      </trkpt>
      <trkpt lat="42.031349" lon="-5.560074">
        <ele>711.608</ele>
        <time>2021-10-13T17:58:13Z</time>
      </trkpt>
      <trkpt lat="42.031531" lon="-5.560331">
        <ele>711.144</ele>
        <time>2021-10-13T17:58:14Z</time>
      </trkpt>
      <trkpt lat="42.031862" lon="-5.560799">
        <ele>711.942</ele>
        <time>2021-10-13T17:58:16Z</time>
      </trkpt>
      <trkpt lat="42.032019" lon="-5.561016">
        <ele>711.999</ele>
        <time>2021-10-13T17:58:17Z</time>
      </trkpt>
      <trkpt lat="42.032377" lon="-5.561387">
        <ele>711.849</ele>
        <time>2021-10-13T17:58:19Z</time>
      </trkpt>
      <trkpt lat="42.032592" lon="-5.561539">
        <ele>712.262</ele>
        <time>2021-10-13T17:58:20Z</time>
      </trkpt>
      <trkpt lat="42.033039" lon="-5.561775">
        <ele>713.688</ele>
        <time>2021-10-13T17:58:22Z</time>
      </trkpt>
      <trkpt lat="42.033522" lon="-5.562056">
        <ele>714.787</ele>
        <time>2021-10-13T17:58:24Z</time>
      </trkpt>
      <trkpt lat="42.033771" lon="-5.562198">
        <ele>715.152</ele>
        <time>2021-10-13T17:58:25Z</time>
      </trkpt>
      <trkpt lat="42.034023" lon="-5.562346">
        <ele>716.095</ele>
        <time>2021-10-13T17:58:26Z</time>
      </trkpt>
      <trkpt lat="42.034508" lon="-5.562616">
        <ele>716.849</ele>
        <time>2021-10-13T17:58:28Z</time>
      </trkpt>
      <trkpt lat="42.034767" lon="-5.562735">
        <ele>717.323</ele>
        <time>2021-10-13T17:58:29Z</time>
      </trkpt>
      <trkpt lat="42.035288" lon="-5.562946">
        <ele>718.208</ele>
        <time>2021-10-13T17:58:31Z</time>
      </trkpt>
      <trkpt lat="42.035552" lon="-5.563056">
        <ele>718.927</ele>
        <time>2021-10-13T17:58:32Z</time>
      </trkpt>
      <trkpt lat="42.036046" lon="-5.563255">
        <ele>719.945</ele>
        <time>2021-10-13T17:58:34Z</time>
      </trkpt>
      <trkpt lat="42.036537" lon="-5.563448">
        <ele>720.792</ele>
        <time>2021-10-13T17:58:36Z</time>
      </trkpt>
      <trkpt lat="42.036769" lon="-5.563539">
        <ele>721.152</ele>
        <time>2021-10-13T17:58:37Z</time>
      </trkpt>
      <trkpt lat="42.036999" lon="-5.563631">
        <ele>722.225</ele>
        <time>2021-10-13T17:58:38Z</time>
      </trkpt>
      <trkpt lat="42.037408" lon="-5.563800">
        <ele>723.341</ele>
        <time>2021-10-13T17:58:40Z</time>
      </trkpt>
      <trkpt lat="42.037600" lon="-5.563879">
        <ele>723.420</ele>
        <time>2021-10-13T17:58:41Z</time>
      </trkpt>
      <trkpt lat="42.037950" lon="-5.564019">
        <ele>724.335</ele>
        <time>2021-10-13T17:58:43Z</time>
      </trkpt>
      <trkpt lat="42.038113" lon="-5.564084">
        <ele>724.068</ele>
        <time>2021-10-13T17:58:44Z</time>
      </trkpt>
      <trkpt lat="42.038373" lon="-5.564183">
        <ele>724.942</ele>
        <time>2021-10-13T17:58:46Z</time>
      </trkpt>
      <trkpt lat="42.038485" lon="-5.564226">
        <ele>725.326</ele>
        <time>2021-10-13T17:58:47Z</time>
      </trkpt>
      <trkpt lat="42.038587" lon="-5.564268">
        <ele>725.308</ele>
        <time>2021-10-13T17:58:48Z</time>
      </trkpt>
      <trkpt lat="42.038679" lon="-5.564303">
        <ele>725.524</ele>
        <time>2021-10-13T17:58:49Z</time>
      </trkpt>
      <trkpt lat="42.038761" lon="-5.564332">
        <ele>725.572</ele>
        <time>2021-10-13T17:58:50Z</time>
      </trkpt>
      <trkpt lat="42.038888" lon="-5.564369">
        <ele>725.419</ele>
        <time>2021-10-13T17:58:52Z</time>
      </trkpt>
      <trkpt lat="42.038997" lon="-5.564396">
        <ele>725.779</ele>
        <time>2021-10-13T17:58:54Z</time>
      </trkpt>
      <trkpt lat="42.039132" lon="-5.564426">
        <ele>726.062</ele>
        <time>2021-10-13T17:58:56Z</time>
      </trkpt>
      <trkpt lat="42.039271" lon="-5.564454">
        <ele>727.768</ele>
        <time>2021-10-13T17:58:58Z</time>
      </trkpt>
      <trkpt lat="42.039378" lon="-5.564475">
        <ele>729.167</ele>
        <time>2021-10-13T17:59:00Z</time>
      </trkpt>
      <trkpt lat="42.039428" lon="-5.564481">
        <ele>729.352</ele>
        <time>2021-10-13T17:59:01Z</time>
      </trkpt>
      <trkpt lat="42.039487" lon="-5.564481">
        <ele>729.681</ele>
        <time>2021-10-13T17:59:02Z</time>
      </trkpt>
      <trkpt lat="42.039621" lon="-5.564477">
        <ele>729.961</ele>
        <time>2021-10-13T17:59:04Z</time>
      </trkpt>
      <trkpt lat="42.039774" lon="-5.564471">
        <ele>729.817</ele>
        <time>2021-10-13T17:59:06Z</time>
      </trkpt>
      <trkpt lat="42.039921" lon="-5.564448">
        <ele>729.308</ele>
        <time>2021-10-13T17:59:08Z</time>
      </trkpt>
      <trkpt lat="42.040064" lon="-5.564384">
        <ele>729.756</ele>
        <time>2021-10-13T17:59:10Z</time>
      </trkpt>
      <trkpt lat="42.040238" lon="-5.564256">
        <ele>730.094</ele>
        <time>2021-10-13T17:59:12Z</time>
      </trkpt>
      <trkpt lat="42.040338" lon="-5.564166">
        <ele>729.851</ele>
        <time>2021-10-13T17:59:13Z</time>
      </trkpt>
      <trkpt lat="42.040454" lon="-5.564058">
        <ele>729.891</ele>
        <time>2021-10-13T17:59:14Z</time>
      </trkpt>
      <trkpt lat="42.040715" lon="-5.563829">
        <ele>730.024</ele>
        <time>2021-10-13T17:59:16Z</time>
      </trkpt>
      <trkpt lat="42.040849" lon="-5.563700">
        <ele>729.590</ele>
        <time>2021-10-13T17:59:17Z</time>
      </trkpt>
      <trkpt lat="42.041120" lon="-5.563411">
        <ele>730.879</ele>
        <time>2021-10-13T17:59:19Z</time>
      </trkpt>
      <trkpt lat="42.041266" lon="-5.563259">
        <ele>730.874</ele>
        <time>2021-10-13T17:59:20Z</time>
      </trkpt>
      <trkpt lat="42.041568" lon="-5.562974">
        <ele>731.712</ele>
        <time>2021-10-13T17:59:22Z</time>
      </trkpt>
      <trkpt lat="42.041732" lon="-5.562815">
        <ele>731.732</ele>
        <time>2021-10-13T17:59:23Z</time>
      </trkpt>
      <trkpt lat="42.042088" lon="-5.562464">
        <ele>732.905</ele>
        <time>2021-10-13T17:59:25Z</time>
      </trkpt>
      <trkpt lat="42.042287" lon="-5.562273">
        <ele>734.108</ele>
        <time>2021-10-13T17:59:26Z</time>
      </trkpt>
      <trkpt lat="42.042685" lon="-5.561925">
        <ele>735.119</ele>
        <time>2021-10-13T17:59:28Z</time>
      </trkpt>
      <trkpt lat="42.042880" lon="-5.561754">
        <ele>736.057</ele>
        <time>2021-10-13T17:59:29Z</time>
      </trkpt>
      <trkpt lat="42.043241" lon="-5.561437">
        <ele>737.454</ele>
        <time>2021-10-13T17:59:31Z</time>
      </trkpt>
      <trkpt lat="42.043424" lon="-5.561287">
        <ele>737.734</ele>
        <time>2021-10-13T17:59:32Z</time>
      </trkpt>
      <trkpt lat="42.043806" lon="-5.561065">
        <ele>738.637</ele>
        <time>2021-10-13T17:59:34Z</time>
      </trkpt>
      <trkpt lat="42.044210" lon="-5.560904">
        <ele>739.953</ele>
        <time>2021-10-13T17:59:36Z</time>
      </trkpt>
      <trkpt lat="42.044571" lon="-5.560725">
        <ele>740.842</ele>
        <time>2021-10-13T17:59:38Z</time>
      </trkpt>
      <trkpt lat="42.044935" lon="-5.560472">
        <ele>740.377</ele>
        <time>2021-10-13T17:59:40Z</time>
      </trkpt>
      <trkpt lat="42.045312" lon="-5.560160">
        <ele>740.853</ele>
        <time>2021-10-13T17:59:42Z</time>
      </trkpt>
      <trkpt lat="42.045708" lon="-5.559862">
        <ele>740.504</ele>
        <time>2021-10-13T17:59:44Z</time>
      </trkpt>
      <trkpt lat="42.045914" lon="-5.559727">
        <ele>739.614</ele>
        <time>2021-10-13T17:59:45Z</time>
      </trkpt>
      <trkpt lat="42.046345" lon="-5.559483">
        <ele>737.408</ele>
        <time>2021-10-13T17:59:47Z</time>
      </trkpt>
      <trkpt lat="42.046571" lon="-5.559361">
        <ele>736.723</ele>
        <time>2021-10-13T17:59:48Z</time>
      </trkpt>
      <trkpt lat="42.047035" lon="-5.559123">
        <ele>737.431</ele>
        <time>2021-10-13T17:59:50Z</time>
      </trkpt>
      <trkpt lat="42.047242" lon="-5.559012">
        <ele>737.918</ele>
        <time>2021-10-13T17:59:51Z</time>
      </trkpt>
      <trkpt lat="42.047588" lon="-5.558827">
        <ele>738.078</ele>
        <time>2021-10-13T17:59:53Z</time>
      </trkpt>
      <trkpt lat="42.047883" lon="-5.558717">
        <ele>739.281</ele>
        <time>2021-10-13T17:59:55Z</time>
      </trkpt>
      <trkpt lat="42.048041" lon="-5.558700">
        <ele>740.577</ele>
        <time>2021-10-13T17:59:56Z</time>
      </trkpt>
      <trkpt lat="42.048367" lon="-5.558718">
        <ele>740.446</ele>
        <time>2021-10-13T17:59:58Z</time>
      </trkpt>
      <trkpt lat="42.048550" lon="-5.558733">
        <ele>741.071</ele>
        <time>2021-10-13T17:59:59Z</time>
      </trkpt>
      <trkpt lat="42.048936" lon="-5.558747">
        <ele>742.988</ele>
        <time>2021-10-13T18:00:01Z</time>
      </trkpt>
      <trkpt lat="42.049126" lon="-5.558750">
        <ele>743.524</ele>
        <time>2021-10-13T18:00:02Z</time>
      </trkpt>
      <trkpt lat="42.049474" lon="-5.558782">
        <ele>744.326</ele>
        <time>2021-10-13T18:00:04Z</time>
      </trkpt>
      <trkpt lat="42.049842" lon="-5.558915">
        <ele>744.708</ele>
        <time>2021-10-13T18:00:06Z</time>
      </trkpt>
      <trkpt lat="42.050033" lon="-5.559008">
        <ele>746.046</ele>
        <time>2021-10-13T18:00:07Z</time>
      </trkpt>
      <trkpt lat="42.050231" lon="-5.559104">
        <ele>747.544</ele>
        <time>2021-10-13T18:00:08Z</time>
      </trkpt>
      <trkpt lat="42.050663" lon="-5.559270">
        <ele>748.421</ele>
        <time>2021-10-13T18:00:10Z</time>
      </trkpt>
      <trkpt lat="42.051119" lon="-5.559366">
        <ele>748.361</ele>
        <time>2021-10-13T18:00:12Z</time>
      </trkpt>
      <trkpt lat="42.051333" lon="-5.559393">
        <ele>748.424</ele>
        <time>2021-10-13T18:00:13Z</time>
      </trkpt>
      <trkpt lat="42.051745" lon="-5.559404">
        <ele>750.350</ele>
        <time>2021-10-13T18:00:15Z</time>
      </trkpt>
      <trkpt lat="42.051950" lon="-5.559380">
        <ele>750.479</ele>
        <time>2021-10-13T18:00:16Z</time>
      </trkpt>
      <trkpt lat="42.052369" lon="-5.559259">
        <ele>749.314</ele>
        <time>2021-10-13T18:00:18Z</time>
      </trkpt>
      <trkpt lat="42.052580" lon="-5.559174">
        <ele>748.944</ele>
        <time>2021-10-13T18:00:19Z</time>
      </trkpt>
      <trkpt lat="42.053012" lon="-5.558983">
        <ele>748.405</ele>
        <time>2021-10-13T18:00:21Z</time>
      </trkpt>
      <trkpt lat="42.053224" lon="-5.558888">
        <ele>748.115</ele>
        <time>2021-10-13T18:00:22Z</time>
      </trkpt>
      <trkpt lat="42.053609" lon="-5.558724">
        <ele>747.008</ele>
        <time>2021-10-13T18:00:24Z</time>
      </trkpt>
      <trkpt lat="42.053958" lon="-5.558617">
        <ele>747.132</ele>
        <time>2021-10-13T18:00:26Z</time>
      </trkpt>
      <trkpt lat="42.054303" lon="-5.558632">
        <ele>747.110</ele>
        <time>2021-10-13T18:00:28Z</time>
      </trkpt>
      <trkpt lat="42.054673" lon="-5.558730">
        <ele>747.537</ele>
        <time>2021-10-13T18:00:30Z</time>
      </trkpt>
      <trkpt lat="42.055071" lon="-5.558846">
        <ele>747.647</ele>
        <time>2021-10-13T18:00:32Z</time>
      </trkpt>
      <trkpt lat="42.055484" lon="-5.558907">
        <ele>748.710</ele>
        <time>2021-10-13T18:00:34Z</time>
      </trkpt>
      <trkpt lat="42.055895" lon="-5.558869">
        <ele>749.076</ele>
        <time>2021-10-13T18:00:36Z</time>
      </trkpt>
      <trkpt lat="42.056075" lon="-5.558815">
        <ele>750.615</ele>
        <time>2021-10-13T18:00:37Z</time>
      </trkpt>
      <trkpt lat="42.056242" lon="-5.558726">
        <ele>752.490</ele>
        <time>2021-10-13T18:00:38Z</time>
      </trkpt>
      <trkpt lat="42.056576" lon="-5.558475">
        <ele>752.848</ele>
        <time>2021-10-13T18:00:40Z</time>
      </trkpt>
      <trkpt lat="42.056940" lon="-5.558191">
        <ele>753.761</ele>
        <time>2021-10-13T18:00:42Z</time>
      </trkpt>
      <trkpt lat="42.057348" lon="-5.557899">
        <ele>753.817</ele>
        <time>2021-10-13T18:00:44Z</time>
      </trkpt>
      <trkpt lat="42.057567" lon="-5.557757">
        <ele>753.908</ele>
        <time>2021-10-13T18:00:45Z</time>
      </trkpt>
      <trkpt lat="42.057792" lon="-5.557628">
        <ele>754.062</ele>
        <time>2021-10-13T18:00:46Z</time>
      </trkpt>
      <trkpt lat="42.058244" lon="-5.557368">
        <ele>755.090</ele>
        <time>2021-10-13T18:00:48Z</time>
      </trkpt>
      <trkpt lat="42.058689" lon="-5.557070">
        <ele>755.237</ele>
        <time>2021-10-13T18:00:50Z</time>
      </trkpt>
      <trkpt lat="42.059130" lon="-5.556750">
        <ele>756.447</ele>
        <time>2021-10-13T18:00:52Z</time>
      </trkpt>
      <trkpt lat="42.059354" lon="-5.556580">
        <ele>755.770</ele>
        <time>2021-10-13T18:00:53Z</time>
      </trkpt>
      <trkpt lat="42.059812" lon="-5.556245">
        <ele>757.966</ele>
        <time>2021-10-13T18:00:55Z</time>
      </trkpt>
      <trkpt lat="42.060042" lon="-5.556077">
        <ele>759.075</ele>
        <time>2021-10-13T18:00:56Z</time>
      </trkpt>
      <trkpt lat="42.060451" lon="-5.555783">
        <ele>759.660</ele>
        <time>2021-10-13T18:00:58Z</time>
      </trkpt>
      <trkpt lat="42.060817" lon="-5.555511">
        <ele>760.742</ele>
        <time>2021-10-13T18:01:00Z</time>
      </trkpt>
      <trkpt lat="42.060986" lon="-5.555385">
        <ele>761.222</ele>
        <time>2021-10-13T18:01:01Z</time>
      </trkpt>
      <trkpt lat="42.061155" lon="-5.555264">
        <ele>761.614</ele>
        <time>2021-10-13T18:01:02Z</time>
      </trkpt>
      <trkpt lat="42.061507" lon="-5.555079">
        <ele>762.908</ele>
        <time>2021-10-13T18:01:04Z</time>
      </trkpt>
      <trkpt lat="42.061706" lon="-5.555032">
        <ele>762.652</ele>
        <time>2021-10-13T18:01:05Z</time>
      </trkpt>
      <trkpt lat="42.062082" lon="-5.554994">
        <ele>762.890</ele>
        <time>2021-10-13T18:01:07Z</time>
      </trkpt>
      <trkpt lat="42.062265" lon="-5.554995">
        <ele>762.937</ele>
        <time>2021-10-13T18:01:08Z</time>
      </trkpt>
      <trkpt lat="42.062647" lon="-5.555072">
        <ele>762.827</ele>
        <time>2021-10-13T18:01:10Z</time>
      </trkpt>
      <trkpt lat="42.062856" lon="-5.555180">
        <ele>763.180</ele>
        <time>2021-10-13T18:01:11Z</time>
      </trkpt>
      <trkpt lat="42.063068" lon="-5.555314">
        <ele>763.466</ele>
        <time>2021-10-13T18:01:12Z</time>
      </trkpt>
      <trkpt lat="42.063280" lon="-5.555449">
        <ele>763.585</ele>
        <time>2021-10-13T18:01:13Z</time>
      </trkpt>
      <trkpt lat="42.063677" lon="-5.555700">
        <ele>762.210</ele>
        <time>2021-10-13T18:01:15Z</time>
      </trkpt>
      <trkpt lat="42.064028" lon="-5.555905">
        <ele>762.468</ele>
        <time>2021-10-13T18:01:17Z</time>
      </trkpt>
      <trkpt lat="42.064346" lon="-5.556073">
        <ele>763.542</ele>
        <time>2021-10-13T18:01:19Z</time>
      </trkpt>
      <trkpt lat="42.064686" lon="-5.556154">
        <ele>764.826</ele>
        <time>2021-10-13T18:01:21Z</time>
      </trkpt>
      <trkpt lat="42.064848" lon="-5.556148">
        <ele>765.708</ele>
        <time>2021-10-13T18:01:22Z</time>
      </trkpt>
      <trkpt lat="42.065147" lon="-5.556076">
        <ele>766.614</ele>
        <time>2021-10-13T18:01:24Z</time>
      </trkpt>
      <trkpt lat="42.065418" lon="-5.556099">
        <ele>767.242</ele>
        <time>2021-10-13T18:01:26Z</time>
      </trkpt>
      <trkpt lat="42.065642" lon="-5.556281">
        <ele>767.679</ele>
        <time>2021-10-13T18:01:28Z</time>
      </trkpt>
      <trkpt lat="42.065741" lon="-5.556440">
        <ele>767.699</ele>
        <time>2021-10-13T18:01:29Z</time>
      </trkpt>
      <trkpt lat="42.065909" lon="-5.556843">
        <ele>769.522</ele>
        <time>2021-10-13T18:01:31Z</time>
      </trkpt>
      <trkpt lat="42.065989" lon="-5.557044">
        <ele>771.278</ele>
        <time>2021-10-13T18:01:32Z</time>
      </trkpt>
      <trkpt lat="42.066133" lon="-5.557366">
        <ele>772.357</ele>
        <time>2021-10-13T18:01:34Z</time>
      </trkpt>
      <trkpt lat="42.066322" lon="-5.557609">
        <ele>772.772</ele>
        <time>2021-10-13T18:01:36Z</time>
      </trkpt>
      <trkpt lat="42.066448" lon="-5.557696">
        <ele>773.388</ele>
        <time>2021-10-13T18:01:37Z</time>
      </trkpt>
      <trkpt lat="42.066593" lon="-5.557770">
        <ele>773.424</ele>
        <time>2021-10-13T18:01:38Z</time>
      </trkpt>
      <trkpt lat="42.066919" lon="-5.557920">
        <ele>775.026</ele>
        <time>2021-10-13T18:01:40Z</time>
      </trkpt>
      <trkpt lat="42.067281" lon="-5.558100">
        <ele>774.308</ele>
        <time>2021-10-13T18:01:42Z</time>
      </trkpt>
      <trkpt lat="42.067479" lon="-5.558195">
        <ele>773.926</ele>
        <time>2021-10-13T18:01:43Z</time>
      </trkpt>
      <trkpt lat="42.067912" lon="-5.558403">
        <ele>774.644</ele>
        <time>2021-10-13T18:01:45Z</time>
      </trkpt>
      <trkpt lat="42.068149" lon="-5.558516">
        <ele>775.091</ele>
        <time>2021-10-13T18:01:46Z</time>
      </trkpt>
      <trkpt lat="42.068653" lon="-5.558761">
        <ele>774.541</ele>
        <time>2021-10-13T18:01:48Z</time>
      </trkpt>
      <trkpt lat="42.068918" lon="-5.558891">
        <ele>774.984</ele>
        <time>2021-10-13T18:01:49Z</time>
      </trkpt>
      <trkpt lat="42.069461" lon="-5.559163">
        <ele>773.110</ele>
        <time>2021-10-13T18:01:51Z</time>
      </trkpt>
      <trkpt lat="42.069965" lon="-5.559408">
        <ele>774.659</ele>
        <time>2021-10-13T18:01:53Z</time>
      </trkpt>
      <trkpt lat="42.070447" lon="-5.559642">
        <ele>775.654</ele>
        <time>2021-10-13T18:01:55Z</time>
      </trkpt>
      <trkpt lat="42.070697" lon="-5.559767">
        <ele>775.942</ele>
        <time>2021-10-13T18:01:56Z</time>
      </trkpt>
      <trkpt lat="42.071182" lon="-5.560006">
        <ele>776.722</ele>
        <time>2021-10-13T18:01:58Z</time>
      </trkpt>
      <trkpt lat="42.071678" lon="-5.560248">
        <ele>777.114</ele>
        <time>2021-10-13T18:02:00Z</time>
      </trkpt>
      <trkpt lat="42.072180" lon="-5.560504">
        <ele>776.708</ele>
        <time>2021-10-13T18:02:02Z</time>
      </trkpt>
      <trkpt lat="42.072685" lon="-5.560754">
        <ele>777.012</ele>
        <time>2021-10-13T18:02:04Z</time>
      </trkpt>
      <trkpt lat="42.072949" lon="-5.560888">
        <ele>777.650</ele>
        <time>2021-10-13T18:02:05Z</time>
      </trkpt>
      <trkpt lat="42.073214" lon="-5.561021">
        <ele>777.337</ele>
        <time>2021-10-13T18:02:06Z</time>
      </trkpt>
      <trkpt lat="42.073748" lon="-5.561287">
        <ele>777.357</ele>
        <time>2021-10-13T18:02:08Z</time>
      </trkpt>
      <trkpt lat="42.074279" lon="-5.561554">
        <ele>777.260</ele>
        <time>2021-10-13T18:02:10Z</time>
      </trkpt>
      <trkpt lat="42.074822" lon="-5.561826">
        <ele>778.326</ele>
        <time>2021-10-13T18:02:12Z</time>
      </trkpt>
      <trkpt lat="42.075100" lon="-5.561965">
        <ele>778.945</ele>
        <time>2021-10-13T18:02:13Z</time>
      </trkpt>
      <trkpt lat="42.075379" lon="-5.562104">
        <ele>778.740</ele>
        <time>2021-10-13T18:02:14Z</time>
      </trkpt>
      <trkpt lat="42.075928" lon="-5.562376">
        <ele>779.163</ele>
        <time>2021-10-13T18:02:16Z</time>
      </trkpt>
      <trkpt lat="42.076459" lon="-5.562644">
        <ele>779.344</ele>
        <time>2021-10-13T18:02:18Z</time>
      </trkpt>
      <trkpt lat="42.076968" lon="-5.562907">
        <ele>778.618</ele>
        <time>2021-10-13T18:02:20Z</time>
      </trkpt>
      <trkpt lat="42.077224" lon="-5.563035">
        <ele>779.308</ele>
        <time>2021-10-13T18:02:21Z</time>
      </trkpt>
      <trkpt lat="42.077741" lon="-5.563286">
        <ele>779.654</ele>
        <time>2021-10-13T18:02:23Z</time>
      </trkpt>
      <trkpt lat="42.078241" lon="-5.563531">
        <ele>779.922</ele>
        <time>2021-10-13T18:02:25Z</time>
      </trkpt>
      <trkpt lat="42.078477" lon="-5.563650">
        <ele>779.969</ele>
        <time>2021-10-13T18:02:26Z</time>
      </trkpt>
      <trkpt lat="42.078868" lon="-5.563858">
        <ele>778.169</ele>
        <time>2021-10-13T18:02:28Z</time>
      </trkpt>
      <trkpt lat="42.079045" lon="-5.563961">
        <ele>777.892</ele>
        <time>2021-10-13T18:02:29Z</time>
      </trkpt>
      <trkpt lat="42.079201" lon="-5.564066">
        <ele>777.218</ele>
        <time>2021-10-13T18:02:30Z</time>
      </trkpt>
      <trkpt lat="42.079465" lon="-5.564286">
        <ele>775.787</ele>
        <time>2021-10-13T18:02:32Z</time>
      </trkpt>
      <trkpt lat="42.079681" lon="-5.564565">
        <ele>775.032</ele>
        <time>2021-10-13T18:02:34Z</time>
      </trkpt>
      <trkpt lat="42.079815" lon="-5.564937">
        <ele>772.692</ele>
        <time>2021-10-13T18:02:36Z</time>
      </trkpt>
      <trkpt lat="42.079856" lon="-5.565128">
        <ele>770.373</ele>
        <time>2021-10-13T18:02:37Z</time>
      </trkpt>
      <trkpt lat="42.080001" lon="-5.565444">
        <ele>769.320</ele>
        <time>2021-10-13T18:02:39Z</time>
      </trkpt>
      <trkpt lat="42.080124" lon="-5.565566">
        <ele>768.308</ele>
        <time>2021-10-13T18:02:40Z</time>
      </trkpt>
      <trkpt lat="42.080453" lon="-5.565796">
        <ele>766.297</ele>
        <time>2021-10-13T18:02:42Z</time>
      </trkpt>
      <trkpt lat="42.080868" lon="-5.566088">
        <ele>765.165</ele>
        <time>2021-10-13T18:02:44Z</time>
      </trkpt>
      <trkpt lat="42.081337" lon="-5.566427">
        <ele>762.992</ele>
        <time>2021-10-13T18:02:46Z</time>
      </trkpt>
      <trkpt lat="42.081567" lon="-5.566597">
        <ele>761.312</ele>
        <time>2021-10-13T18:02:47Z</time>
      </trkpt>
      <trkpt lat="42.081995" lon="-5.566925">
        <ele>759.545</ele>
        <time>2021-10-13T18:02:49Z</time>
      </trkpt>
      <trkpt lat="42.082401" lon="-5.567230">
        <ele>757.941</ele>
        <time>2021-10-13T18:02:51Z</time>
      </trkpt>
      <trkpt lat="42.082842" lon="-5.567482">
        <ele>755.230</ele>
        <time>2021-10-13T18:02:53Z</time>
      </trkpt>
      <trkpt lat="42.083341" lon="-5.567647">
        <ele>753.585</ele>
        <time>2021-10-13T18:02:55Z</time>
      </trkpt>
      <trkpt lat="42.083621" lon="-5.567711">
        <ele>752.667</ele>
        <time>2021-10-13T18:02:56Z</time>
      </trkpt>
      <trkpt lat="42.084169" lon="-5.567838">
        <ele>751.981</ele>
        <time>2021-10-13T18:02:58Z</time>
      </trkpt>
      <trkpt lat="42.084450" lon="-5.567905">
        <ele>750.719</ele>
        <time>2021-10-13T18:02:59Z</time>
      </trkpt>
      <trkpt lat="42.084971" lon="-5.568032">
        <ele>748.908</ele>
        <time>2021-10-13T18:03:01Z</time>
      </trkpt>
      <trkpt lat="42.085222" lon="-5.568093">
        <ele>747.434</ele>
        <time>2021-10-13T18:03:02Z</time>
      </trkpt>
      <trkpt lat="42.085670" lon="-5.568201">
        <ele>745.022</ele>
        <time>2021-10-13T18:03:04Z</time>
      </trkpt>
      <trkpt lat="42.086131" lon="-5.568314">
        <ele>743.119</ele>
        <time>2021-10-13T18:03:06Z</time>
      </trkpt>
      <trkpt lat="42.086365" lon="-5.568373">
        <ele>742.129</ele>
        <time>2021-10-13T18:03:07Z</time>
      </trkpt>
      <trkpt lat="42.086849" lon="-5.568495">
        <ele>740.222</ele>
        <time>2021-10-13T18:03:09Z</time>
      </trkpt>
      <trkpt lat="42.087356" lon="-5.568622">
        <ele>738.928</ele>
        <time>2021-10-13T18:03:11Z</time>
      </trkpt>
      <trkpt lat="42.087623" lon="-5.568689">
        <ele>737.457</ele>
        <time>2021-10-13T18:03:12Z</time>
      </trkpt>
      <trkpt lat="42.088186" lon="-5.568831">
        <ele>736.492</ele>
        <time>2021-10-13T18:03:14Z</time>
      </trkpt>
      <trkpt lat="42.088749" lon="-5.568974">
        <ele>734.779</ele>
        <time>2021-10-13T18:03:16Z</time>
      </trkpt>
      <trkpt lat="42.089014" lon="-5.569045">
        <ele>733.905</ele>
        <time>2021-10-13T18:03:17Z</time>
      </trkpt>
      <trkpt lat="42.089514" lon="-5.569168">
        <ele>731.425</ele>
        <time>2021-10-13T18:03:19Z</time>
      </trkpt>
      <trkpt lat="42.089963" lon="-5.569279">
        <ele>730.208</ele>
        <time>2021-10-13T18:03:21Z</time>
      </trkpt>
      <trkpt lat="42.090380" lon="-5.569379">
        <ele>729.265</ele>
        <time>2021-10-13T18:03:23Z</time>
      </trkpt>
      <trkpt lat="42.090594" lon="-5.569428">
        <ele>728.893</ele>
        <time>2021-10-13T18:03:24Z</time>
      </trkpt>
      <trkpt lat="42.091038" lon="-5.569576">
        <ele>727.890</ele>
        <time>2021-10-13T18:03:26Z</time>
      </trkpt>
      <trkpt lat="42.091501" lon="-5.569845">
        <ele>728.020</ele>
        <time>2021-10-13T18:03:28Z</time>
      </trkpt>
      <trkpt lat="42.091744" lon="-5.570028">
        <ele>727.953</ele>
        <time>2021-10-13T18:03:29Z</time>
      </trkpt>
      <trkpt lat="42.092227" lon="-5.570413">
        <ele>729.129</ele>
        <time>2021-10-13T18:03:31Z</time>
      </trkpt>
      <trkpt lat="42.092461" lon="-5.570596">
        <ele>730.118</ele>
        <time>2021-10-13T18:03:32Z</time>
      </trkpt>
      <trkpt lat="42.092859" lon="-5.570906">
        <ele>732.013</ele>
        <time>2021-10-13T18:03:34Z</time>
      </trkpt>
      <trkpt lat="42.093053" lon="-5.571032">
        <ele>733.088</ele>
        <time>2021-10-13T18:03:35Z</time>
      </trkpt>
      <trkpt lat="42.093457" lon="-5.571188">
        <ele>733.824</ele>
        <time>2021-10-13T18:03:37Z</time>
      </trkpt>
      <trkpt lat="42.093675" lon="-5.571188">
        <ele>733.926</ele>
        <time>2021-10-13T18:03:38Z</time>
      </trkpt>
      <trkpt lat="42.093900" lon="-5.571135">
        <ele>734.208</ele>
        <time>2021-10-13T18:03:39Z</time>
      </trkpt>
      <trkpt lat="42.094146" lon="-5.571065">
        <ele>734.886</ele>
        <time>2021-10-13T18:03:40Z</time>
      </trkpt>
      <trkpt lat="42.094664" lon="-5.570947">
        <ele>734.624</ele>
        <time>2021-10-13T18:03:42Z</time>
      </trkpt>
      <trkpt lat="42.095234" lon="-5.570822">
        <ele>733.481</ele>
        <time>2021-10-13T18:03:44Z</time>
      </trkpt>
      <trkpt lat="42.095533" lon="-5.570765">
        <ele>732.721</ele>
        <time>2021-10-13T18:03:45Z</time>
      </trkpt>
      <trkpt lat="42.095845" lon="-5.570705">
        <ele>732.294</ele>
        <time>2021-10-13T18:03:46Z</time>
      </trkpt>
      <trkpt lat="42.096482" lon="-5.570574">
        <ele>730.850</ele>
        <time>2021-10-13T18:03:48Z</time>
      </trkpt>
      <trkpt lat="42.096802" lon="-5.570511">
        <ele>729.869</ele>
        <time>2021-10-13T18:03:49Z</time>
      </trkpt>
      <trkpt lat="42.097438" lon="-5.570395">
        <ele>728.884</ele>
        <time>2021-10-13T18:03:51Z</time>
      </trkpt>
      <trkpt lat="42.098039" lon="-5.570276">
        <ele>728.676</ele>
        <time>2021-10-13T18:03:53Z</time>
      </trkpt>
      <trkpt lat="42.098325" lon="-5.570221">
        <ele>728.690</ele>
        <time>2021-10-13T18:03:54Z</time>
      </trkpt>
      <trkpt lat="42.098879" lon="-5.570116">
        <ele>728.519</ele>
        <time>2021-10-13T18:03:56Z</time>
      </trkpt>
      <trkpt lat="42.099419" lon="-5.570015">
        <ele>728.108</ele>
        <time>2021-10-13T18:03:58Z</time>
      </trkpt>
      <trkpt lat="42.099708" lon="-5.569966">
        <ele>727.615</ele>
        <time>2021-10-13T18:03:59Z</time>
      </trkpt>
      <trkpt lat="42.100005" lon="-5.569913">
        <ele>727.543</ele>
        <time>2021-10-13T18:04:00Z</time>
      </trkpt>
      <trkpt lat="42.100617" lon="-5.569794">
        <ele>727.250</ele>
        <time>2021-10-13T18:04:02Z</time>
      </trkpt>
      <trkpt lat="42.101216" lon="-5.569680">
        <ele>726.440</ele>
        <time>2021-10-13T18:04:04Z</time>
      </trkpt>
      <trkpt lat="42.101520" lon="-5.569621">
        <ele>727.153</ele>
        <time>2021-10-13T18:04:05Z</time>
      </trkpt>
      <trkpt lat="42.102121" lon="-5.569505">
        <ele>727.199</ele>
        <time>2021-10-13T18:04:07Z</time>
      </trkpt>
      <trkpt lat="42.102721" lon="-5.569388">
        <ele>726.638</ele>
        <time>2021-10-13T18:04:09Z</time>
      </trkpt>
      <trkpt lat="42.103020" lon="-5.569330">
        <ele>727.143</ele>
        <time>2021-10-13T18:04:10Z</time>
      </trkpt>
      <trkpt lat="42.103608" lon="-5.569220">
        <ele>727.575</ele>
        <time>2021-10-13T18:04:12Z</time>
      </trkpt>
      <trkpt lat="42.103904" lon="-5.569162">
        <ele>727.528</ele>
        <time>2021-10-13T18:04:13Z</time>
      </trkpt>
      <trkpt lat="42.104200" lon="-5.569106">
        <ele>727.320</ele>
        <time>2021-10-13T18:04:14Z</time>
      </trkpt>
      <trkpt lat="42.104787" lon="-5.569005">
        <ele>726.808</ele>
        <time>2021-10-13T18:04:16Z</time>
      </trkpt>
      <trkpt lat="42.105082" lon="-5.568952">
        <ele>727.375</ele>
        <time>2021-10-13T18:04:17Z</time>
      </trkpt>
      <trkpt lat="42.105662" lon="-5.568839">
        <ele>726.883</ele>
        <time>2021-10-13T18:04:19Z</time>
      </trkpt>
      <trkpt lat="42.106240" lon="-5.568725">
        <ele>727.740</ele>
        <time>2021-10-13T18:04:21Z</time>
      </trkpt>
      <trkpt lat="42.106533" lon="-5.568666">
        <ele>727.720</ele>
        <time>2021-10-13T18:04:22Z</time>
      </trkpt>
      <trkpt lat="42.107126" lon="-5.568549">
        <ele>727.883</ele>
        <time>2021-10-13T18:04:24Z</time>
      </trkpt>
      <trkpt lat="42.107434" lon="-5.568494">
        <ele>728.439</ele>
        <time>2021-10-13T18:04:25Z</time>
      </trkpt>
      <trkpt lat="42.107754" lon="-5.568436">
        <ele>728.328</ele>
        <time>2021-10-13T18:04:26Z</time>
      </trkpt>
      <trkpt lat="42.108356" lon="-5.568322">
        <ele>728.523</ele>
        <time>2021-10-13T18:04:28Z</time>
      </trkpt>
      <trkpt lat="42.108657" lon="-5.568260">
        <ele>728.431</ele>
        <time>2021-10-13T18:04:29Z</time>
      </trkpt>
      <trkpt lat="42.109246" lon="-5.568141">
        <ele>728.461</ele>
        <time>2021-10-13T18:04:31Z</time>
      </trkpt>
      <trkpt lat="42.109551" lon="-5.568081">
        <ele>728.207</ele>
        <time>2021-10-13T18:04:32Z</time>
      </trkpt>
      <trkpt lat="42.110126" lon="-5.567968">
        <ele>728.608</ele>
        <time>2021-10-13T18:04:34Z</time>
      </trkpt>
      <trkpt lat="42.110705" lon="-5.567855">
        <ele>728.561</ele>
        <time>2021-10-13T18:04:36Z</time>
      </trkpt>
      <trkpt lat="42.110993" lon="-5.567805">
        <ele>729.099</ele>
        <time>2021-10-13T18:04:37Z</time>
      </trkpt>
      <trkpt lat="42.111529" lon="-5.567708">
        <ele>729.316</ele>
        <time>2021-10-13T18:04:39Z</time>
      </trkpt>
      <trkpt lat="42.111772" lon="-5.567662">
        <ele>729.556</ele>
        <time>2021-10-13T18:04:40Z</time>
      </trkpt>
      <trkpt lat="42.112226" lon="-5.567569">
        <ele>729.729</ele>
        <time>2021-10-13T18:04:42Z</time>
      </trkpt>
      <trkpt lat="42.112453" lon="-5.567530">
        <ele>729.735</ele>
        <time>2021-10-13T18:04:43Z</time>
      </trkpt>
      <trkpt lat="42.112927" lon="-5.567445">
        <ele>729.474</ele>
        <time>2021-10-13T18:04:45Z</time>
      </trkpt>
      <trkpt lat="42.113173" lon="-5.567395">
        <ele>729.979</ele>
        <time>2021-10-13T18:04:46Z</time>
      </trkpt>
      <trkpt lat="42.113674" lon="-5.567293">
        <ele>730.664</ele>
        <time>2021-10-13T18:04:48Z</time>
      </trkpt>
      <trkpt lat="42.113929" lon="-5.567243">
        <ele>730.506</ele>
        <time>2021-10-13T18:04:49Z</time>
      </trkpt>
      <trkpt lat="42.114443" lon="-5.567153">
        <ele>730.716</ele>
        <time>2021-10-13T18:04:51Z</time>
      </trkpt>
      <trkpt lat="42.114710" lon="-5.567106">
        <ele>730.108</ele>
        <time>2021-10-13T18:04:52Z</time>
      </trkpt>
      <trkpt lat="42.115258" lon="-5.567005">
        <ele>730.834</ele>
        <time>2021-10-13T18:04:54Z</time>
      </trkpt>
      <trkpt lat="42.115547" lon="-5.566951">
        <ele>731.062</ele>
        <time>2021-10-13T18:04:55Z</time>
      </trkpt>
      <trkpt lat="42.115846" lon="-5.566895">
        <ele>731.129</ele>
        <time>2021-10-13T18:04:56Z</time>
      </trkpt>
      <trkpt lat="42.116438" lon="-5.566778">
        <ele>730.559</ele>
        <time>2021-10-13T18:04:58Z</time>
      </trkpt>
      <trkpt lat="42.116739" lon="-5.566719">
        <ele>730.242</ele>
        <time>2021-10-13T18:04:59Z</time>
      </trkpt>
      <trkpt lat="42.117298" lon="-5.566618">
        <ele>730.968</ele>
        <time>2021-10-13T18:05:01Z</time>
      </trkpt>
      <trkpt lat="42.117558" lon="-5.566572">
        <ele>730.697</ele>
        <time>2021-10-13T18:05:02Z</time>
      </trkpt>
      <trkpt lat="42.118023" lon="-5.566489">
        <ele>730.472</ele>
        <time>2021-10-13T18:05:04Z</time>
      </trkpt>
      <trkpt lat="42.118484" lon="-5.566405">
        <ele>730.725</ele>
        <time>2021-10-13T18:05:06Z</time>
      </trkpt>
      <trkpt lat="42.118715" lon="-5.566358">
        <ele>730.326</ele>
        <time>2021-10-13T18:05:07Z</time>
      </trkpt>
      <trkpt lat="42.119178" lon="-5.566264">
        <ele>729.108</ele>
        <time>2021-10-13T18:05:09Z</time>
      </trkpt>
      <trkpt lat="42.119410" lon="-5.566220">
        <ele>728.908</ele>
        <time>2021-10-13T18:05:10Z</time>
      </trkpt>
      <trkpt lat="42.119634" lon="-5.566182">
        <ele>729.090</ele>
        <time>2021-10-13T18:05:11Z</time>
      </trkpt>
      <trkpt lat="42.119844" lon="-5.566145">
        <ele>728.848</ele>
        <time>2021-10-13T18:05:12Z</time>
      </trkpt>
      <trkpt lat="42.120044" lon="-5.566105">
        <ele>727.945</ele>
        <time>2021-10-13T18:05:13Z</time>
      </trkpt>
      <trkpt lat="42.120416" lon="-5.566034">
        <ele>729.135</ele>
        <time>2021-10-13T18:05:15Z</time>
      </trkpt>
      <trkpt lat="42.120768" lon="-5.565966">
        <ele>729.488</ele>
        <time>2021-10-13T18:05:17Z</time>
      </trkpt>
      <trkpt lat="42.120928" lon="-5.565934">
        <ele>729.064</ele>
        <time>2021-10-13T18:05:18Z</time>
      </trkpt>
      <trkpt lat="42.121073" lon="-5.565906">
        <ele>729.313</ele>
        <time>2021-10-13T18:05:19Z</time>
      </trkpt>
      <trkpt lat="42.121197" lon="-5.565885">
        <ele>730.378</ele>
        <time>2021-10-13T18:05:20Z</time>
      </trkpt>
      <trkpt lat="42.121341" lon="-5.565860">
        <ele>730.139</ele>
        <time>2021-10-13T18:05:22Z</time>
      </trkpt>
      <trkpt lat="42.121395" lon="-5.565854">
        <ele>729.901</ele>
        <time>2021-10-13T18:05:25Z</time>
      </trkpt>
      <trkpt lat="42.121441" lon="-5.565837">
        <ele>745.621</ele>
        <time>2021-10-13T18:05:35Z</time>
      </trkpt>
      <trkpt lat="42.121489" lon="-5.565842">
        <ele>761.708</ele>
        <time>2021-10-13T18:05:37Z</time>
      </trkpt>
      <trkpt lat="42.121546" lon="-5.565903">
        <ele>786.121</ele>
        <time>2021-10-13T18:05:39Z</time>
      </trkpt>
      <trkpt lat="42.121655" lon="-5.566150">
        <ele>787.169</ele>
        <time>2021-10-13T18:05:41Z</time>
      </trkpt>
      <trkpt lat="42.121714" lon="-5.566369">
        <ele>787.116</ele>
        <time>2021-10-13T18:05:42Z</time>
      </trkpt>
      <trkpt lat="42.121773" lon="-5.566614">
        <ele>787.156</ele>
        <time>2021-10-13T18:05:43Z</time>
      </trkpt>
      <trkpt lat="42.121845" lon="-5.567163">
        <ele>787.139</ele>
        <time>2021-10-13T18:05:45Z</time>
      </trkpt>
      <trkpt lat="42.121856" lon="-5.567468">
        <ele>787.195</ele>
        <time>2021-10-13T18:05:46Z</time>
      </trkpt>
      <trkpt lat="42.121826" lon="-5.568052">
        <ele>787.124</ele>
        <time>2021-10-13T18:05:48Z</time>
      </trkpt>
      <trkpt lat="42.121804" lon="-5.568314">
        <ele>787.169</ele>
        <time>2021-10-13T18:05:49Z</time>
      </trkpt>
      <trkpt lat="42.121762" lon="-5.568842">
        <ele>787.182</ele>
        <time>2021-10-13T18:05:51Z</time>
      </trkpt>
      <trkpt lat="42.121742" lon="-5.569101">
        <ele>787.143</ele>
        <time>2021-10-13T18:05:52Z</time>
      </trkpt>
      <trkpt lat="42.121707" lon="-5.569568">
        <ele>787.117</ele>
        <time>2021-10-13T18:05:54Z</time>
      </trkpt>
      <trkpt lat="42.121694" lon="-5.569783">
        <ele>787.108</ele>
        <time>2021-10-13T18:05:55Z</time>
      </trkpt>
      <trkpt lat="42.121681" lon="-5.569994">
        <ele>787.166</ele>
        <time>2021-10-13T18:05:56Z</time>
      </trkpt>
      <trkpt lat="42.121654" lon="-5.570373">
        <ele>787.124</ele>
        <time>2021-10-13T18:05:58Z</time>
      </trkpt>
      <trkpt lat="42.121640" lon="-5.570559">
        <ele>787.181</ele>
        <time>2021-10-13T18:05:59Z</time>
      </trkpt>
      <trkpt lat="42.121628" lon="-5.570733">
        <ele>787.161</ele>
        <time>2021-10-13T18:06:00Z</time>
      </trkpt>
      <trkpt lat="42.121606" lon="-5.571074">
        <ele>787.194</ele>
        <time>2021-10-13T18:06:02Z</time>
      </trkpt>
      <trkpt lat="42.121606" lon="-5.571460">
        <ele>787.150</ele>
        <time>2021-10-13T18:06:04Z</time>
      </trkpt>
      <trkpt lat="42.121640" lon="-5.571676">
        <ele>787.189</ele>
        <time>2021-10-13T18:06:05Z</time>
      </trkpt>
      <trkpt lat="42.121695" lon="-5.571908">
        <ele>787.154</ele>
        <time>2021-10-13T18:06:06Z</time>
      </trkpt>
      <trkpt lat="42.121816" lon="-5.572389">
        <ele>787.277</ele>
        <time>2021-10-13T18:06:08Z</time>
      </trkpt>
      <trkpt lat="42.121874" lon="-5.572614">
        <ele>787.261</ele>
        <time>2021-10-13T18:06:09Z</time>
      </trkpt>
      <trkpt lat="42.121935" lon="-5.572841">
        <ele>787.227</ele>
        <time>2021-10-13T18:06:10Z</time>
      </trkpt>
      <trkpt lat="42.121993" lon="-5.573073">
        <ele>787.208</ele>
        <time>2021-10-13T18:06:11Z</time>
      </trkpt>
      <trkpt lat="42.122101" lon="-5.573520">
        <ele>787.265</ele>
        <time>2021-10-13T18:06:13Z</time>
      </trkpt>
      <trkpt lat="42.122148" lon="-5.573722">
        <ele>787.223</ele>
        <time>2021-10-13T18:06:14Z</time>
      </trkpt>
      <trkpt lat="42.122191" lon="-5.573916">
        <ele>787.250</ele>
        <time>2021-10-13T18:06:15Z</time>
      </trkpt>
      <trkpt lat="42.122232" lon="-5.574094">
        <ele>787.250</ele>
        <time>2021-10-13T18:06:16Z</time>
      </trkpt>
      <trkpt lat="42.122296" lon="-5.574359">
        <ele>787.243</ele>
        <time>2021-10-13T18:06:18Z</time>
      </trkpt>
      <trkpt lat="42.122338" lon="-5.574543">
        <ele>787.219</ele>
        <time>2021-10-13T18:06:20Z</time>
      </trkpt>
      <trkpt lat="42.122359" lon="-5.574626">
        <ele>787.238</ele>
        <time>2021-10-13T18:06:21Z</time>
      </trkpt>
      <trkpt lat="42.122384" lon="-5.574711">
        <ele>787.293</ele>
        <time>2021-10-13T18:06:22Z</time>
      </trkpt>
      <trkpt lat="42.122438" lon="-5.574918">
        <ele>787.235</ele>
        <time>2021-10-13T18:06:24Z</time>
      </trkpt>
      <trkpt lat="42.122503" lon="-5.575174">
        <ele>787.286</ele>
        <time>2021-10-13T18:06:26Z</time>
      </trkpt>
      <trkpt lat="42.122562" lon="-5.575384">
        <ele>787.214</ele>
        <time>2021-10-13T18:06:28Z</time>
      </trkpt>
      <trkpt lat="42.122586" lon="-5.575481">
        <ele>787.208</ele>
        <time>2021-10-13T18:06:29Z</time>
      </trkpt>
      <trkpt lat="42.122613" lon="-5.575593">
        <ele>787.261</ele>
        <time>2021-10-13T18:06:30Z</time>
      </trkpt>
      <trkpt lat="42.122646" lon="-5.575730">
        <ele>756.049</ele>
        <time>2021-10-13T18:06:31Z</time>
      </trkpt>
      <trkpt lat="42.122688" lon="-5.575895">
        <ele>724.516</ele>
        <time>2021-10-13T18:06:32Z</time>
      </trkpt>
      <trkpt lat="42.122780" lon="-5.576274">
        <ele>724.566</ele>
        <time>2021-10-13T18:06:34Z</time>
      </trkpt>
      <trkpt lat="42.122832" lon="-5.576494">
        <ele>724.079</ele>
        <time>2021-10-13T18:06:35Z</time>
      </trkpt>
      <trkpt lat="42.122895" lon="-5.576744">
        <ele>723.685</ele>
        <time>2021-10-13T18:06:36Z</time>
      </trkpt>
      <trkpt lat="42.122961" lon="-5.577008">
        <ele>723.444</ele>
        <time>2021-10-13T18:06:37Z</time>
      </trkpt>
      <trkpt lat="42.123020" lon="-5.577254">
        <ele>722.639</ele>
        <time>2021-10-13T18:06:38Z</time>
      </trkpt>
      <trkpt lat="42.123128" lon="-5.577687">
        <ele>723.414</ele>
        <time>2021-10-13T18:06:40Z</time>
      </trkpt>
      <trkpt lat="42.123225" lon="-5.578080">
        <ele>722.454</ele>
        <time>2021-10-13T18:06:42Z</time>
      </trkpt>
      <trkpt lat="42.123278" lon="-5.578292">
        <ele>722.909</ele>
        <time>2021-10-13T18:06:43Z</time>
      </trkpt>
      <trkpt lat="42.123334" lon="-5.578509">
        <ele>722.508</ele>
        <time>2021-10-13T18:06:44Z</time>
      </trkpt>
      <trkpt lat="42.123402" lon="-5.578732">
        <ele>721.989</ele>
        <time>2021-10-13T18:06:45Z</time>
      </trkpt>
      <trkpt lat="42.123609" lon="-5.579169">
        <ele>720.717</ele>
        <time>2021-10-13T18:06:47Z</time>
      </trkpt>
      <trkpt lat="42.123756" lon="-5.579374">
        <ele>720.074</ele>
        <time>2021-10-13T18:06:48Z</time>
      </trkpt>
      <trkpt lat="42.124103" lon="-5.579788">
        <ele>719.424</ele>
        <time>2021-10-13T18:06:50Z</time>
      </trkpt>
      <trkpt lat="42.124292" lon="-5.580008">
        <ele>719.077</ele>
        <time>2021-10-13T18:06:51Z</time>
      </trkpt>
      <trkpt lat="42.124659" lon="-5.580441">
        <ele>720.053</ele>
        <time>2021-10-13T18:06:53Z</time>
      </trkpt>
      <trkpt lat="42.124999" lon="-5.580854">
        <ele>718.742</ele>
        <time>2021-10-13T18:06:55Z</time>
      </trkpt>
      <trkpt lat="42.125177" lon="-5.581062">
        <ele>718.937</ele>
        <time>2021-10-13T18:06:56Z</time>
      </trkpt>
      <trkpt lat="42.125524" lon="-5.581468">
        <ele>720.056</ele>
        <time>2021-10-13T18:06:58Z</time>
      </trkpt>
      <trkpt lat="42.125892" lon="-5.581911">
        <ele>719.159</ele>
        <time>2021-10-13T18:07:00Z</time>
      </trkpt>
      <trkpt lat="42.126283" lon="-5.582380">
        <ele>718.614</ele>
        <time>2021-10-13T18:07:02Z</time>
      </trkpt>
      <trkpt lat="42.126668" lon="-5.582836">
        <ele>718.608</ele>
        <time>2021-10-13T18:07:04Z</time>
      </trkpt>
      <trkpt lat="42.126867" lon="-5.583073">
        <ele>718.623</ele>
        <time>2021-10-13T18:07:05Z</time>
      </trkpt>
      <trkpt lat="42.127067" lon="-5.583311">
        <ele>719.361</ele>
        <time>2021-10-13T18:07:06Z</time>
      </trkpt>
      <trkpt lat="42.127268" lon="-5.583552">
        <ele>719.368</ele>
        <time>2021-10-13T18:07:07Z</time>
      </trkpt>
      <trkpt lat="42.127470" lon="-5.583799">
        <ele>719.098</ele>
        <time>2021-10-13T18:07:08Z</time>
      </trkpt>
      <trkpt lat="42.127880" lon="-5.584287">
        <ele>718.631</ele>
        <time>2021-10-13T18:07:10Z</time>
      </trkpt>
      <trkpt lat="42.128296" lon="-5.584779">
        <ele>718.587</ele>
        <time>2021-10-13T18:07:12Z</time>
      </trkpt>
      <trkpt lat="42.128506" lon="-5.585028">
        <ele>718.646</ele>
        <time>2021-10-13T18:07:13Z</time>
      </trkpt>
      <trkpt lat="42.128917" lon="-5.585519">
        <ele>718.731</ele>
        <time>2021-10-13T18:07:15Z</time>
      </trkpt>
      <trkpt lat="42.129307" lon="-5.586000">
        <ele>718.253</ele>
        <time>2021-10-13T18:07:17Z</time>
      </trkpt>
      <trkpt lat="42.129691" lon="-5.586464">
        <ele>718.904</ele>
        <time>2021-10-13T18:07:19Z</time>
      </trkpt>
      <trkpt lat="42.130069" lon="-5.586918">
        <ele>718.714</ele>
        <time>2021-10-13T18:07:21Z</time>
      </trkpt>
      <trkpt lat="42.130259" lon="-5.587146">
        <ele>718.708</ele>
        <time>2021-10-13T18:07:22Z</time>
      </trkpt>
      <trkpt lat="42.130639" lon="-5.587601">
        <ele>719.043</ele>
        <time>2021-10-13T18:07:24Z</time>
      </trkpt>
      <trkpt lat="42.131028" lon="-5.588067">
        <ele>718.941</ele>
        <time>2021-10-13T18:07:26Z</time>
      </trkpt>
      <trkpt lat="42.131426" lon="-5.588540">
        <ele>719.398</ele>
        <time>2021-10-13T18:07:28Z</time>
      </trkpt>
      <trkpt lat="42.131848" lon="-5.589042">
        <ele>719.728</ele>
        <time>2021-10-13T18:07:30Z</time>
      </trkpt>
      <trkpt lat="42.132068" lon="-5.589306">
        <ele>719.581</ele>
        <time>2021-10-13T18:07:31Z</time>
      </trkpt>
      <trkpt lat="42.132294" lon="-5.589577">
        <ele>719.117</ele>
        <time>2021-10-13T18:07:32Z</time>
      </trkpt>
      <trkpt lat="42.132725" lon="-5.590094">
        <ele>719.226</ele>
        <time>2021-10-13T18:07:34Z</time>
      </trkpt>
      <trkpt lat="42.132942" lon="-5.590355">
        <ele>718.361</ele>
        <time>2021-10-13T18:07:35Z</time>
      </trkpt>
      <trkpt lat="42.133360" lon="-5.590856">
        <ele>719.279</ele>
        <time>2021-10-13T18:07:37Z</time>
      </trkpt>
      <trkpt lat="42.133783" lon="-5.591357">
        <ele>718.505</ele>
        <time>2021-10-13T18:07:39Z</time>
      </trkpt>
      <trkpt lat="42.134219" lon="-5.591877">
        <ele>718.725</ele>
        <time>2021-10-13T18:07:41Z</time>
      </trkpt>
      <trkpt lat="42.134656" lon="-5.592395">
        <ele>718.408</ele>
        <time>2021-10-13T18:07:43Z</time>
      </trkpt>
      <trkpt lat="42.134874" lon="-5.592654">
        <ele>719.095</ele>
        <time>2021-10-13T18:07:44Z</time>
      </trkpt>
      <trkpt lat="42.135089" lon="-5.592910">
        <ele>719.073</ele>
        <time>2021-10-13T18:07:45Z</time>
      </trkpt>
      <trkpt lat="42.135506" lon="-5.593410">
        <ele>718.950</ele>
        <time>2021-10-13T18:07:47Z</time>
      </trkpt>
      <trkpt lat="42.135923" lon="-5.593910">
        <ele>718.820</ele>
        <time>2021-10-13T18:07:49Z</time>
      </trkpt>
      <trkpt lat="42.136341" lon="-5.594409">
        <ele>719.133</ele>
        <time>2021-10-13T18:07:51Z</time>
      </trkpt>
      <trkpt lat="42.136750" lon="-5.594898">
        <ele>720.449</ele>
        <time>2021-10-13T18:07:53Z</time>
      </trkpt>
      <trkpt lat="42.137149" lon="-5.595387">
        <ele>720.428</ele>
        <time>2021-10-13T18:07:55Z</time>
      </trkpt>
      <trkpt lat="42.137353" lon="-5.595636">
        <ele>720.723</ele>
        <time>2021-10-13T18:07:56Z</time>
      </trkpt>
      <trkpt lat="42.137743" lon="-5.596110">
        <ele>720.856</ele>
        <time>2021-10-13T18:07:58Z</time>
      </trkpt>
      <trkpt lat="42.137945" lon="-5.596349">
        <ele>721.259</ele>
        <time>2021-10-13T18:07:59Z</time>
      </trkpt>
      <trkpt lat="42.138350" lon="-5.596833">
        <ele>722.014</ele>
        <time>2021-10-13T18:08:01Z</time>
      </trkpt>
      <trkpt lat="42.138563" lon="-5.597088">
        <ele>722.008</ele>
        <time>2021-10-13T18:08:02Z</time>
      </trkpt>
      <trkpt lat="42.138961" lon="-5.597563">
        <ele>722.343</ele>
        <time>2021-10-13T18:08:04Z</time>
      </trkpt>
      <trkpt lat="42.139152" lon="-5.597789">
        <ele>721.611</ele>
        <time>2021-10-13T18:08:05Z</time>
      </trkpt>
      <trkpt lat="42.139504" lon="-5.598208">
        <ele>721.878</ele>
        <time>2021-10-13T18:08:07Z</time>
      </trkpt>
      <trkpt lat="42.139681" lon="-5.598418">
        <ele>721.978</ele>
        <time>2021-10-13T18:08:08Z</time>
      </trkpt>
      <trkpt lat="42.140032" lon="-5.598838">
        <ele>722.671</ele>
        <time>2021-10-13T18:08:10Z</time>
      </trkpt>
      <trkpt lat="42.140195" lon="-5.599039">
        <ele>722.587</ele>
        <time>2021-10-13T18:08:11Z</time>
      </trkpt>
      <trkpt lat="42.140478" lon="-5.599378">
        <ele>723.176</ele>
        <time>2021-10-13T18:08:13Z</time>
      </trkpt>
      <trkpt lat="42.140599" lon="-5.599518">
        <ele>723.581</ele>
        <time>2021-10-13T18:08:14Z</time>
      </trkpt>
      <trkpt lat="42.140708" lon="-5.599641">
        <ele>723.526</ele>
        <time>2021-10-13T18:08:15Z</time>
      </trkpt>
      <trkpt lat="42.140889" lon="-5.599847">
        <ele>723.747</ele>
        <time>2021-10-13T18:08:17Z</time>
      </trkpt>
      <trkpt lat="42.140968" lon="-5.599940">
        <ele>724.411</ele>
        <time>2021-10-13T18:08:18Z</time>
      </trkpt>
      <trkpt lat="42.141107" lon="-5.600112">
        <ele>724.408</ele>
        <time>2021-10-13T18:08:20Z</time>
      </trkpt>
      <trkpt lat="42.141236" lon="-5.600260">
        <ele>724.490</ele>
        <time>2021-10-13T18:08:22Z</time>
      </trkpt>
      <trkpt lat="42.141306" lon="-5.600329">
        <ele>724.348</ele>
        <time>2021-10-13T18:08:23Z</time>
      </trkpt>
      <trkpt lat="42.141471" lon="-5.600450">
        <ele>724.195</ele>
        <time>2021-10-13T18:08:25Z</time>
      </trkpt>
      <trkpt lat="42.141574" lon="-5.600490">
        <ele>724.275</ele>
        <time>2021-10-13T18:08:26Z</time>
      </trkpt>
      <trkpt lat="42.141805" lon="-5.600517">
        <ele>724.398</ele>
        <time>2021-10-13T18:08:28Z</time>
      </trkpt>
      <trkpt lat="42.141942" lon="-5.600502">
        <ele>724.424</ele>
        <time>2021-10-13T18:08:29Z</time>
      </trkpt>
      <trkpt lat="42.142096" lon="-5.600473">
        <ele>725.083</ele>
        <time>2021-10-13T18:08:30Z</time>
      </trkpt>
      <trkpt lat="42.142473" lon="-5.600395">
        <ele>725.098</ele>
        <time>2021-10-13T18:08:32Z</time>
      </trkpt>
      <trkpt lat="42.142879" lon="-5.600317">
        <ele>725.665</ele>
        <time>2021-10-13T18:08:34Z</time>
      </trkpt>
      <trkpt lat="42.143079" lon="-5.600283">
        <ele>725.468</ele>
        <time>2021-10-13T18:08:35Z</time>
      </trkpt>
      <trkpt lat="42.143273" lon="-5.600254">
        <ele>724.314</ele>
        <time>2021-10-13T18:08:36Z</time>
      </trkpt>
      <trkpt lat="42.143638" lon="-5.600192">
        <ele>724.508</ele>
        <time>2021-10-13T18:08:38Z</time>
      </trkpt>
      <trkpt lat="42.143818" lon="-5.600160">
        <ele>724.084</ele>
        <time>2021-10-13T18:08:39Z</time>
      </trkpt>
      <trkpt lat="42.144172" lon="-5.600097">
        <ele>724.032</ele>
        <time>2021-10-13T18:08:41Z</time>
      </trkpt>
      <trkpt lat="42.144529" lon="-5.600025">
        <ele>724.669</ele>
        <time>2021-10-13T18:08:43Z</time>
      </trkpt>
      <trkpt lat="42.144709" lon="-5.599988">
        <ele>725.819</ele>
        <time>2021-10-13T18:08:44Z</time>
      </trkpt>
      <trkpt lat="42.145030" lon="-5.599918">
        <ele>726.362</ele>
        <time>2021-10-13T18:08:46Z</time>
      </trkpt>
      <trkpt lat="42.145180" lon="-5.599886">
        <ele>726.968</ele>
        <time>2021-10-13T18:08:47Z</time>
      </trkpt>
      <trkpt lat="42.145452" lon="-5.599830">
        <ele>726.217</ele>
        <time>2021-10-13T18:08:49Z</time>
      </trkpt>
      <trkpt lat="42.145707" lon="-5.599775">
        <ele>726.692</ele>
        <time>2021-10-13T18:08:51Z</time>
      </trkpt>
      <trkpt lat="42.145831" lon="-5.599738">
        <ele>726.655</ele>
        <time>2021-10-13T18:08:52Z</time>
      </trkpt>
      <trkpt lat="42.146074" lon="-5.599648">
        <ele>726.807</ele>
        <time>2021-10-13T18:08:54Z</time>
      </trkpt>
      <trkpt lat="42.146307" lon="-5.599533">
        <ele>727.417</ele>
        <time>2021-10-13T18:08:56Z</time>
      </trkpt>
      <trkpt lat="42.146541" lon="-5.599382">
        <ele>728.708</ele>
        <time>2021-10-13T18:08:58Z</time>
      </trkpt>
      <trkpt lat="42.146784" lon="-5.599197">
        <ele>727.113</ele>
        <time>2021-10-13T18:09:00Z</time>
      </trkpt>
      <trkpt lat="42.146896" lon="-5.599100">
        <ele>727.441</ele>
        <time>2021-10-13T18:09:01Z</time>
      </trkpt>
      <trkpt lat="42.147001" lon="-5.599002">
        <ele>727.588</ele>
        <time>2021-10-13T18:09:02Z</time>
      </trkpt>
      <trkpt lat="42.147183" lon="-5.598802">
        <ele>727.188</ele>
        <time>2021-10-13T18:09:04Z</time>
      </trkpt>
      <trkpt lat="42.147279" lon="-5.598693">
        <ele>728.321</ele>
        <time>2021-10-13T18:09:05Z</time>
      </trkpt>
      <trkpt lat="42.147472" lon="-5.598472">
        <ele>728.397</ele>
        <time>2021-10-13T18:09:07Z</time>
      </trkpt>
      <trkpt lat="42.147646" lon="-5.598271">
        <ele>728.856</ele>
        <time>2021-10-13T18:09:09Z</time>
      </trkpt>
      <trkpt lat="42.147726" lon="-5.598176">
        <ele>729.181</ele>
        <time>2021-10-13T18:09:10Z</time>
      </trkpt>
      <trkpt lat="42.147802" lon="-5.598086">
        <ele>729.132</ele>
        <time>2021-10-13T18:09:11Z</time>
      </trkpt>
      <trkpt lat="42.147944" lon="-5.597929">
        <ele>728.692</ele>
        <time>2021-10-13T18:09:13Z</time>
      </trkpt>
      <trkpt lat="42.148017" lon="-5.597848">
        <ele>728.611</ele>
        <time>2021-10-13T18:09:14Z</time>
      </trkpt>
      <trkpt lat="42.148189" lon="-5.597658">
        <ele>728.508</ele>
        <time>2021-10-13T18:09:16Z</time>
      </trkpt>
      <trkpt lat="42.148289" lon="-5.597553">
        <ele>728.211</ele>
        <time>2021-10-13T18:09:17Z</time>
      </trkpt>
      <trkpt lat="42.148527" lon="-5.597340">
        <ele>728.099</ele>
        <time>2021-10-13T18:09:19Z</time>
      </trkpt>
      <trkpt lat="42.148837" lon="-5.597121">
        <ele>727.976</ele>
        <time>2021-10-13T18:09:21Z</time>
      </trkpt>
      <trkpt lat="42.149030" lon="-5.597008">
        <ele>726.956</ele>
        <time>2021-10-13T18:09:22Z</time>
      </trkpt>
      <trkpt lat="42.149503" lon="-5.596796">
        <ele>726.699</ele>
        <time>2021-10-13T18:09:24Z</time>
      </trkpt>
      <trkpt lat="42.149772" lon="-5.596700">
        <ele>726.195</ele>
        <time>2021-10-13T18:09:25Z</time>
      </trkpt>
      <trkpt lat="42.150071" lon="-5.596610">
        <ele>726.484</ele>
        <time>2021-10-13T18:09:26Z</time>
      </trkpt>
      <trkpt lat="42.150674" lon="-5.596445">
        <ele>726.629</ele>
        <time>2021-10-13T18:09:28Z</time>
      </trkpt>
      <trkpt lat="42.150995" lon="-5.596358">
        <ele>726.217</ele>
        <time>2021-10-13T18:09:29Z</time>
      </trkpt>
      <trkpt lat="42.151675" lon="-5.596170">
        <ele>726.987</ele>
        <time>2021-10-13T18:09:31Z</time>
      </trkpt>
      <trkpt lat="42.152737" lon="-5.595855">
        <ele>727.315</ele>
        <time>2021-10-13T18:09:34Z</time>
      </trkpt>
      <trkpt lat="42.153113" lon="-5.595748">
        <ele>728.008</ele>
        <time>2021-10-13T18:09:35Z</time>
      </trkpt>
      <trkpt lat="42.154625" lon="-5.595292">
        <ele>728.689</ele>
        <time>2021-10-13T18:09:39Z</time>
      </trkpt>
      <trkpt lat="42.155350" lon="-5.595090">
        <ele>728.847</ele>
        <time>2021-10-13T18:09:41Z</time>
      </trkpt>
      <trkpt lat="42.156415" lon="-5.594778">
        <ele>728.234</ele>
        <time>2021-10-13T18:09:44Z</time>
      </trkpt>
      <trkpt lat="42.157114" lon="-5.594570">
        <ele>728.064</ele>
        <time>2021-10-13T18:09:46Z</time>
      </trkpt>
      <trkpt lat="42.157801" lon="-5.594371">
        <ele>728.227</ele>
        <time>2021-10-13T18:09:48Z</time>
      </trkpt>
      <trkpt lat="42.158470" lon="-5.594177">
        <ele>728.073</ele>
        <time>2021-10-13T18:09:50Z</time>
      </trkpt>
      <trkpt lat="42.158799" lon="-5.594081">
        <ele>727.622</ele>
        <time>2021-10-13T18:09:51Z</time>
      </trkpt>
      <trkpt lat="42.159478" lon="-5.593885">
        <ele>727.257</ele>
        <time>2021-10-13T18:09:53Z</time>
      </trkpt>
      <trkpt lat="42.159824" lon="-5.593790">
        <ele>727.084</ele>
        <time>2021-10-13T18:09:54Z</time>
      </trkpt>
      <trkpt lat="42.161227" lon="-5.593384">
        <ele>726.207</ele>
        <time>2021-10-13T18:09:58Z</time>
      </trkpt>
      <trkpt lat="42.162644" lon="-5.592972">
        <ele>726.717</ele>
        <time>2021-10-13T18:10:02Z</time>
      </trkpt>
      <trkpt lat="42.164027" lon="-5.592580">
        <ele>727.408</ele>
        <time>2021-10-13T18:10:06Z</time>
      </trkpt>
      <trkpt lat="42.164718" lon="-5.592372">
        <ele>727.416</ele>
        <time>2021-10-13T18:10:08Z</time>
      </trkpt>
      <trkpt lat="42.165064" lon="-5.592270">
        <ele>727.114</ele>
        <time>2021-10-13T18:10:09Z</time>
      </trkpt>
      <trkpt lat="42.165757" lon="-5.592067">
        <ele>728.151</ele>
        <time>2021-10-13T18:10:11Z</time>
      </trkpt>
      <trkpt lat="42.166108" lon="-5.591961">
        <ele>728.361</ele>
        <time>2021-10-13T18:10:12Z</time>
      </trkpt>
      <trkpt lat="42.166800" lon="-5.591756">
        <ele>728.814</ele>
        <time>2021-10-13T18:10:14Z</time>
      </trkpt>
      <trkpt lat="42.167147" lon="-5.591654">
        <ele>728.390</ele>
        <time>2021-10-13T18:10:15Z</time>
      </trkpt>
      <trkpt lat="42.167495" lon="-5.591552">
        <ele>728.589</ele>
        <time>2021-10-13T18:10:16Z</time>
      </trkpt>
      <trkpt lat="42.168195" lon="-5.591348">
        <ele>729.414</ele>
        <time>2021-10-13T18:10:18Z</time>
      </trkpt>
      <trkpt lat="42.169268" lon="-5.591048">
        <ele>729.368</ele>
        <time>2021-10-13T18:10:21Z</time>
      </trkpt>
      <trkpt lat="42.170714" lon="-5.590622">
        <ele>729.842</ele>
        <time>2021-10-13T18:10:25Z</time>
      </trkpt>
      <trkpt lat="42.171086" lon="-5.590513">
        <ele>729.626</ele>
        <time>2021-10-13T18:10:26Z</time>
      </trkpt>
      <trkpt lat="42.172502" lon="-5.590114">
        <ele>730.008</ele>
        <time>2021-10-13T18:10:30Z</time>
      </trkpt>
      <trkpt lat="42.173870" lon="-5.589708">
        <ele>730.054</ele>
        <time>2021-10-13T18:10:34Z</time>
      </trkpt>
      <trkpt lat="42.174212" lon="-5.589608">
        <ele>729.962</ele>
        <time>2021-10-13T18:10:35Z</time>
      </trkpt>
      <trkpt lat="42.174881" lon="-5.589418">
        <ele>730.019</ele>
        <time>2021-10-13T18:10:37Z</time>
      </trkpt>
      <trkpt lat="42.175538" lon="-5.589226">
        <ele>730.629</ele>
        <time>2021-10-13T18:10:39Z</time>
      </trkpt>
      <trkpt lat="42.175865" lon="-5.589131">
        <ele>730.662</ele>
        <time>2021-10-13T18:10:40Z</time>
      </trkpt>
      <trkpt lat="42.176526" lon="-5.588949">
        <ele>730.888</ele>
        <time>2021-10-13T18:10:42Z</time>
      </trkpt>
      <trkpt lat="42.176864" lon="-5.588855">
        <ele>731.577</ele>
        <time>2021-10-13T18:10:43Z</time>
      </trkpt>
      <trkpt lat="42.177552" lon="-5.588661">
        <ele>732.142</ele>
        <time>2021-10-13T18:10:45Z</time>
      </trkpt>
      <trkpt lat="42.178971" lon="-5.588241">
        <ele>732.462</ele>
        <time>2021-10-13T18:10:49Z</time>
      </trkpt>
      <trkpt lat="42.180413" lon="-5.587841">
        <ele>732.783</ele>
        <time>2021-10-13T18:10:53Z</time>
      </trkpt>
      <trkpt lat="42.181841" lon="-5.587429">
        <ele>732.711</ele>
        <time>2021-10-13T18:10:57Z</time>
      </trkpt>
      <trkpt lat="42.182206" lon="-5.587330">
        <ele>733.108</ele>
        <time>2021-10-13T18:10:58Z</time>
      </trkpt>
      <trkpt lat="42.183292" lon="-5.587024">
        <ele>732.964</ele>
        <time>2021-10-13T18:11:01Z</time>
      </trkpt>
      <trkpt lat="42.183662" lon="-5.586920">
        <ele>732.642</ele>
        <time>2021-10-13T18:11:02Z</time>
      </trkpt>
      <trkpt lat="42.185081" lon="-5.586508">
        <ele>732.569</ele>
        <time>2021-10-13T18:11:06Z</time>
      </trkpt>
      <trkpt lat="42.185439" lon="-5.586402">
        <ele>732.989</ele>
        <time>2021-10-13T18:11:07Z</time>
      </trkpt>
      <trkpt lat="42.186512" lon="-5.586102">
        <ele>732.842</ele>
        <time>2021-10-13T18:11:10Z</time>
      </trkpt>
      <trkpt lat="42.187942" lon="-5.585699">
        <ele>732.768</ele>
        <time>2021-10-13T18:11:14Z</time>
      </trkpt>
      <trkpt lat="42.189415" lon="-5.585262">
        <ele>732.377</ele>
        <time>2021-10-13T18:11:18Z</time>
      </trkpt>
      <trkpt lat="42.189802" lon="-5.585148">
        <ele>732.562</ele>
        <time>2021-10-13T18:11:19Z</time>
      </trkpt>
      <trkpt lat="42.191312" lon="-5.584726">
        <ele>732.376</ele>
        <time>2021-10-13T18:11:23Z</time>
      </trkpt>
      <trkpt lat="42.192024" lon="-5.584527">
        <ele>732.290</ele>
        <time>2021-10-13T18:11:25Z</time>
      </trkpt>
      <trkpt lat="42.193076" lon="-5.584218">
        <ele>733.019</ele>
        <time>2021-10-13T18:11:28Z</time>
      </trkpt>
      <trkpt lat="42.193427" lon="-5.584117">
        <ele>732.808</ele>
        <time>2021-10-13T18:11:29Z</time>
      </trkpt>
      <trkpt lat="42.193776" lon="-5.584017">
        <ele>732.865</ele>
        <time>2021-10-13T18:11:30Z</time>
      </trkpt>
      <trkpt lat="42.195181" lon="-5.583622">
        <ele>732.773</ele>
        <time>2021-10-13T18:11:34Z</time>
      </trkpt>
      <trkpt lat="42.196614" lon="-5.583197">
        <ele>732.790</ele>
        <time>2021-10-13T18:11:38Z</time>
      </trkpt>
      <trkpt lat="42.197318" lon="-5.582992">
        <ele>732.630</ele>
        <time>2021-10-13T18:11:40Z</time>
      </trkpt>
      <trkpt lat="42.197662" lon="-5.582900">
        <ele>732.813</ele>
        <time>2021-10-13T18:11:41Z</time>
      </trkpt>
      <trkpt lat="42.198338" lon="-5.582709">
        <ele>733.459</ele>
        <time>2021-10-13T18:11:43Z</time>
      </trkpt>
      <trkpt lat="42.198677" lon="-5.582617">
        <ele>733.168</ele>
        <time>2021-10-13T18:11:44Z</time>
      </trkpt>
      <trkpt lat="42.199344" lon="-5.582433">
        <ele>733.293</ele>
        <time>2021-10-13T18:11:46Z</time>
      </trkpt>
      <trkpt lat="42.200001" lon="-5.582244">
        <ele>733.431</ele>
        <time>2021-10-13T18:11:48Z</time>
      </trkpt>
      <trkpt lat="42.200333" lon="-5.582150">
        <ele>733.261</ele>
        <time>2021-10-13T18:11:49Z</time>
      </trkpt>
      <trkpt lat="42.200999" lon="-5.581955">
        <ele>734.507</ele>
        <time>2021-10-13T18:11:51Z</time>
      </trkpt>
      <trkpt lat="42.201665" lon="-5.581757">
        <ele>735.208</ele>
        <time>2021-10-13T18:11:53Z</time>
      </trkpt>
      <trkpt lat="42.202330" lon="-5.581560">
        <ele>734.941</ele>
        <time>2021-10-13T18:11:55Z</time>
      </trkpt>
      <trkpt lat="42.202670" lon="-5.581461">
        <ele>734.859</ele>
        <time>2021-10-13T18:11:56Z</time>
      </trkpt>
      <trkpt lat="42.203313" lon="-5.581283">
        <ele>734.966</ele>
        <time>2021-10-13T18:11:58Z</time>
      </trkpt>
      <trkpt lat="42.203644" lon="-5.581191">
        <ele>735.346</ele>
        <time>2021-10-13T18:11:59Z</time>
      </trkpt>
      <trkpt lat="42.203967" lon="-5.581100">
        <ele>735.239</ele>
        <time>2021-10-13T18:12:00Z</time>
      </trkpt>
      <trkpt lat="42.204288" lon="-5.581011">
        <ele>735.195</ele>
        <time>2021-10-13T18:12:01Z</time>
      </trkpt>
      <trkpt lat="42.204619" lon="-5.580918">
        <ele>735.684</ele>
        <time>2021-10-13T18:12:02Z</time>
      </trkpt>
      <trkpt lat="42.205278" lon="-5.580731">
        <ele>735.129</ele>
        <time>2021-10-13T18:12:04Z</time>
      </trkpt>
      <trkpt lat="42.206360" lon="-5.580409">
        <ele>734.626</ele>
        <time>2021-10-13T18:12:07Z</time>
      </trkpt>
      <trkpt lat="42.207792" lon="-5.580002">
        <ele>735.947</ele>
        <time>2021-10-13T18:12:11Z</time>
      </trkpt>
      <trkpt lat="42.208465" lon="-5.579809">
        <ele>735.111</ele>
        <time>2021-10-13T18:12:13Z</time>
      </trkpt>
      <trkpt lat="42.208801" lon="-5.579716">
        <ele>735.008</ele>
        <time>2021-10-13T18:12:14Z</time>
      </trkpt>
      <trkpt lat="42.209471" lon="-5.579521">
        <ele>735.260</ele>
        <time>2021-10-13T18:12:16Z</time>
      </trkpt>
      <trkpt lat="42.209810" lon="-5.579421">
        <ele>735.288</ele>
        <time>2021-10-13T18:12:17Z</time>
      </trkpt>
      <trkpt lat="42.210494" lon="-5.579226">
        <ele>736.065</ele>
        <time>2021-10-13T18:12:19Z</time>
      </trkpt>
      <trkpt lat="42.211187" lon="-5.579022">
        <ele>735.855</ele>
        <time>2021-10-13T18:12:21Z</time>
      </trkpt>
      <trkpt lat="42.211875" lon="-5.578818">
        <ele>735.848</ele>
        <time>2021-10-13T18:12:23Z</time>
      </trkpt>
      <trkpt lat="42.212221" lon="-5.578707">
        <ele>735.844</ele>
        <time>2021-10-13T18:12:24Z</time>
      </trkpt>
      <trkpt lat="42.212568" lon="-5.578594">
        <ele>735.313</ele>
        <time>2021-10-13T18:12:25Z</time>
      </trkpt>
      <trkpt lat="42.213600" lon="-5.578262">
        <ele>735.838</ele>
        <time>2021-10-13T18:12:28Z</time>
      </trkpt>
      <trkpt lat="42.214284" lon="-5.578056">
        <ele>736.649</ele>
        <time>2021-10-13T18:12:30Z</time>
      </trkpt>
      <trkpt lat="42.214973" lon="-5.577849">
        <ele>737.302</ele>
        <time>2021-10-13T18:12:32Z</time>
      </trkpt>
      <trkpt lat="42.215637" lon="-5.577660">
        <ele>737.222</ele>
        <time>2021-10-13T18:12:34Z</time>
      </trkpt>
      <trkpt lat="42.215970" lon="-5.577566">
        <ele>737.108</ele>
        <time>2021-10-13T18:12:35Z</time>
      </trkpt>
      <trkpt lat="42.216612" lon="-5.577374">
        <ele>736.822</ele>
        <time>2021-10-13T18:12:37Z</time>
      </trkpt>
      <trkpt lat="42.216936" lon="-5.577277">
        <ele>736.960</ele>
        <time>2021-10-13T18:12:38Z</time>
      </trkpt>
      <trkpt lat="42.217598" lon="-5.577081">
        <ele>736.687</ele>
        <time>2021-10-13T18:12:40Z</time>
      </trkpt>
      <trkpt lat="42.218266" lon="-5.576888">
        <ele>736.797</ele>
        <time>2021-10-13T18:12:42Z</time>
      </trkpt>
      <trkpt lat="42.218605" lon="-5.576796">
        <ele>736.310</ele>
        <time>2021-10-13T18:12:43Z</time>
      </trkpt>
      <trkpt lat="42.218942" lon="-5.576703">
        <ele>736.056</ele>
        <time>2021-10-13T18:12:44Z</time>
      </trkpt>
      <trkpt lat="42.219615" lon="-5.576504">
        <ele>736.365</ele>
        <time>2021-10-13T18:12:46Z</time>
      </trkpt>
      <trkpt lat="42.220289" lon="-5.576310">
        <ele>736.270</ele>
        <time>2021-10-13T18:12:48Z</time>
      </trkpt>
      <trkpt lat="42.220958" lon="-5.576122">
        <ele>737.435</ele>
        <time>2021-10-13T18:12:50Z</time>
      </trkpt>
      <trkpt lat="42.221631" lon="-5.575925">
        <ele>737.686</ele>
        <time>2021-10-13T18:12:52Z</time>
      </trkpt>
      <trkpt lat="42.222300" lon="-5.575728">
        <ele>737.514</ele>
        <time>2021-10-13T18:12:54Z</time>
      </trkpt>
      <trkpt lat="42.222984" lon="-5.575526">
        <ele>737.908</ele>
        <time>2021-10-13T18:12:56Z</time>
      </trkpt>
      <trkpt lat="42.223650" lon="-5.575339">
        <ele>737.451</ele>
        <time>2021-10-13T18:12:58Z</time>
      </trkpt>
      <trkpt lat="42.223993" lon="-5.575239">
        <ele>737.699</ele>
        <time>2021-10-13T18:12:59Z</time>
      </trkpt>
      <trkpt lat="42.224677" lon="-5.575042">
        <ele>737.086</ele>
        <time>2021-10-13T18:13:01Z</time>
      </trkpt>
      <trkpt lat="42.225712" lon="-5.574758">
        <ele>736.256</ele>
        <time>2021-10-13T18:13:04Z</time>
      </trkpt>
      <trkpt lat="42.226393" lon="-5.574574">
        <ele>736.559</ele>
        <time>2021-10-13T18:13:06Z</time>
      </trkpt>
      <trkpt lat="42.227008" lon="-5.574401">
        <ele>738.155</ele>
        <time>2021-10-13T18:13:08Z</time>
      </trkpt>
      <trkpt lat="42.227585" lon="-5.574234">
        <ele>738.894</ele>
        <time>2021-10-13T18:13:10Z</time>
      </trkpt>
      <trkpt lat="42.228154" lon="-5.574065">
        <ele>739.879</ele>
        <time>2021-10-13T18:13:12Z</time>
      </trkpt>
      <trkpt lat="42.228455" lon="-5.573973">
        <ele>739.957</ele>
        <time>2021-10-13T18:13:13Z</time>
      </trkpt>
      <trkpt lat="42.228757" lon="-5.573876">
        <ele>740.000</ele>
        <time>2021-10-13T18:13:14Z</time>
      </trkpt>
      <trkpt lat="42.229385" lon="-5.573693">
        <ele>740.220</ele>
        <time>2021-10-13T18:13:16Z</time>
      </trkpt>
      <trkpt lat="42.229710" lon="-5.573604">
        <ele>740.308</ele>
        <time>2021-10-13T18:13:17Z</time>
      </trkpt>
      <trkpt lat="42.230368" lon="-5.573414">
        <ele>740.533</ele>
        <time>2021-10-13T18:13:19Z</time>
      </trkpt>
      <trkpt lat="42.231031" lon="-5.573215">
        <ele>741.591</ele>
        <time>2021-10-13T18:13:21Z</time>
      </trkpt>
      <trkpt lat="42.231700" lon="-5.573014">
        <ele>742.528</ele>
        <time>2021-10-13T18:13:23Z</time>
      </trkpt>
      <trkpt lat="42.232032" lon="-5.572916">
        <ele>742.228</ele>
        <time>2021-10-13T18:13:24Z</time>
      </trkpt>
      <trkpt lat="42.232363" lon="-5.572819">
        <ele>742.011</ele>
        <time>2021-10-13T18:13:25Z</time>
      </trkpt>
      <trkpt lat="42.232694" lon="-5.572722">
        <ele>742.587</ele>
        <time>2021-10-13T18:13:26Z</time>
      </trkpt>
      <trkpt lat="42.233294" lon="-5.572550">
        <ele>742.866</ele>
        <time>2021-10-13T18:13:28Z</time>
      </trkpt>
      <trkpt lat="42.233586" lon="-5.572464">
        <ele>742.851</ele>
        <time>2021-10-13T18:13:29Z</time>
      </trkpt>
      <trkpt lat="42.234097" lon="-5.572313">
        <ele>742.176</ele>
        <time>2021-10-13T18:13:31Z</time>
      </trkpt>
      <trkpt lat="42.234322" lon="-5.572247">
        <ele>742.590</ele>
        <time>2021-10-13T18:13:32Z</time>
      </trkpt>
      <trkpt lat="42.234708" lon="-5.572133">
        <ele>743.619</ele>
        <time>2021-10-13T18:13:34Z</time>
      </trkpt>
      <trkpt lat="42.235026" lon="-5.572037">
        <ele>743.108</ele>
        <time>2021-10-13T18:13:36Z</time>
      </trkpt>
      <trkpt lat="42.235152" lon="-5.571994">
        <ele>743.475</ele>
        <time>2021-10-13T18:13:37Z</time>
      </trkpt>
      <trkpt lat="42.235258" lon="-5.571945">
        <ele>743.883</ele>
        <time>2021-10-13T18:13:38Z</time>
      </trkpt>
      <trkpt lat="42.235410" lon="-5.571781">
        <ele>744.210</ele>
        <time>2021-10-13T18:13:40Z</time>
      </trkpt>
      <trkpt lat="42.235483" lon="-5.571701">
        <ele>744.230</ele>
        <time>2021-10-13T18:13:41Z</time>
      </trkpt>
      <trkpt lat="42.235569" lon="-5.571657">
        <ele>744.663</ele>
        <time>2021-10-13T18:13:42Z</time>
      </trkpt>
      <trkpt lat="42.235661" lon="-5.571653">
        <ele>744.669</ele>
        <time>2021-10-13T18:13:43Z</time>
      </trkpt>
      <trkpt lat="42.235881" lon="-5.571738">
        <ele>744.368</ele>
        <time>2021-10-13T18:13:45Z</time>
      </trkpt>
      <trkpt lat="42.236177" lon="-5.571722">
        <ele>744.083</ele>
        <time>2021-10-13T18:13:47Z</time>
      </trkpt>
      <trkpt lat="42.236537" lon="-5.571604">
        <ele>744.661</ele>
        <time>2021-10-13T18:13:49Z</time>
      </trkpt>
      <trkpt lat="42.236955" lon="-5.571494">
        <ele>743.721</ele>
        <time>2021-10-13T18:13:51Z</time>
      </trkpt>
      <trkpt lat="42.237180" lon="-5.571433">
        <ele>743.113</ele>
        <time>2021-10-13T18:13:52Z</time>
      </trkpt>
      <trkpt lat="42.237410" lon="-5.571366">
        <ele>742.108</ele>
        <time>2021-10-13T18:13:53Z</time>
      </trkpt>
      <trkpt lat="42.237642" lon="-5.571304">
        <ele>741.684</ele>
        <time>2021-10-13T18:13:54Z</time>
      </trkpt>
      <trkpt lat="42.238147" lon="-5.571170">
        <ele>740.932</ele>
        <time>2021-10-13T18:13:56Z</time>
      </trkpt>
      <trkpt lat="42.238666" lon="-5.571017">
        <ele>740.159</ele>
        <time>2021-10-13T18:13:58Z</time>
      </trkpt>
      <trkpt lat="42.238943" lon="-5.570939">
        <ele>739.939</ele>
        <time>2021-10-13T18:13:59Z</time>
      </trkpt>
      <trkpt lat="42.239223" lon="-5.570854">
        <ele>740.412</ele>
        <time>2021-10-13T18:14:00Z</time>
      </trkpt>
      <trkpt lat="42.239505" lon="-5.570768">
        <ele>740.888</ele>
        <time>2021-10-13T18:14:01Z</time>
      </trkpt>
      <trkpt lat="42.239793" lon="-5.570681">
        <ele>740.667</ele>
        <time>2021-10-13T18:14:02Z</time>
      </trkpt>
      <trkpt lat="42.240352" lon="-5.570516">
        <ele>742.332</ele>
        <time>2021-10-13T18:14:04Z</time>
      </trkpt>
      <trkpt lat="42.240627" lon="-5.570445">
        <ele>742.772</ele>
        <time>2021-10-13T18:14:05Z</time>
      </trkpt>
      <trkpt lat="42.241170" lon="-5.570338">
        <ele>743.313</ele>
        <time>2021-10-13T18:14:07Z</time>
      </trkpt>
      <trkpt lat="42.241448" lon="-5.570301">
        <ele>743.814</ele>
        <time>2021-10-13T18:14:08Z</time>
      </trkpt>
      <trkpt lat="42.241732" lon="-5.570286">
        <ele>744.708</ele>
        <time>2021-10-13T18:14:09Z</time>
      </trkpt>
      <trkpt lat="42.242290" lon="-5.570307">
        <ele>744.635</ele>
        <time>2021-10-13T18:14:11Z</time>
      </trkpt>
      <trkpt lat="42.242833" lon="-5.570368">
        <ele>745.813</ele>
        <time>2021-10-13T18:14:13Z</time>
      </trkpt>
      <trkpt lat="42.243320" lon="-5.570430">
        <ele>745.340</ele>
        <time>2021-10-13T18:14:15Z</time>
      </trkpt>
      <trkpt lat="42.243753" lon="-5.570490">
        <ele>745.640</ele>
        <time>2021-10-13T18:14:17Z</time>
      </trkpt>
      <trkpt lat="42.243956" lon="-5.570516">
        <ele>745.813</ele>
        <time>2021-10-13T18:14:18Z</time>
      </trkpt>
      <trkpt lat="42.244146" lon="-5.570540">
        <ele>745.139</ele>
        <time>2021-10-13T18:14:19Z</time>
      </trkpt>
      <trkpt lat="42.244498" lon="-5.570592">
        <ele>745.148</ele>
        <time>2021-10-13T18:14:21Z</time>
      </trkpt>
      <trkpt lat="42.244833" lon="-5.570642">
        <ele>744.343</ele>
        <time>2021-10-13T18:14:23Z</time>
      </trkpt>
      <trkpt lat="42.245174" lon="-5.570647">
        <ele>744.279</ele>
        <time>2021-10-13T18:14:25Z</time>
      </trkpt>
      <trkpt lat="42.245343" lon="-5.570642">
        <ele>744.205</ele>
        <time>2021-10-13T18:14:26Z</time>
      </trkpt>
      <trkpt lat="42.245676" lon="-5.570736">
        <ele>743.625</ele>
        <time>2021-10-13T18:14:28Z</time>
      </trkpt>
      <trkpt lat="42.245864" lon="-5.570790">
        <ele>743.808</ele>
        <time>2021-10-13T18:14:29Z</time>
      </trkpt>
      <trkpt lat="42.246293" lon="-5.570839">
        <ele>744.885</ele>
        <time>2021-10-13T18:14:31Z</time>
      </trkpt>
      <trkpt lat="42.246553" lon="-5.570870">
        <ele>744.853</ele>
        <time>2021-10-13T18:14:32Z</time>
      </trkpt>
      <trkpt lat="42.247103" lon="-5.570945">
        <ele>745.210</ele>
        <time>2021-10-13T18:14:34Z</time>
      </trkpt>
      <trkpt lat="42.247719" lon="-5.571027">
        <ele>745.410</ele>
        <time>2021-10-13T18:14:36Z</time>
      </trkpt>
      <trkpt lat="42.248372" lon="-5.571111">
        <ele>745.253</ele>
        <time>2021-10-13T18:14:38Z</time>
      </trkpt>
      <trkpt lat="42.248712" lon="-5.571155">
        <ele>745.679</ele>
        <time>2021-10-13T18:14:39Z</time>
      </trkpt>
      <trkpt lat="42.249409" lon="-5.571248">
        <ele>745.428</ele>
        <time>2021-10-13T18:14:41Z</time>
      </trkpt>
      <trkpt lat="42.249761" lon="-5.571294">
        <ele>745.853</ele>
        <time>2021-10-13T18:14:42Z</time>
      </trkpt>
      <trkpt lat="42.251236" lon="-5.571488">
        <ele>745.582</ele>
        <time>2021-10-13T18:14:46Z</time>
      </trkpt>
      <trkpt lat="42.251610" lon="-5.571538">
        <ele>745.743</ele>
        <time>2021-10-13T18:14:47Z</time>
      </trkpt>
      <trkpt lat="42.252728" lon="-5.571688">
        <ele>745.517</ele>
        <time>2021-10-13T18:14:50Z</time>
      </trkpt>
      <trkpt lat="42.253099" lon="-5.571739">
        <ele>745.108</ele>
        <time>2021-10-13T18:14:51Z</time>
      </trkpt>
      <trkpt lat="42.254196" lon="-5.571890">
        <ele>744.826</ele>
        <time>2021-10-13T18:14:54Z</time>
      </trkpt>
      <trkpt lat="42.254562" lon="-5.571939">
        <ele>744.834</ele>
        <time>2021-10-13T18:14:55Z</time>
      </trkpt>
      <trkpt lat="42.255643" lon="-5.572085">
        <ele>744.591</ele>
        <time>2021-10-13T18:14:58Z</time>
      </trkpt>
      <trkpt lat="42.257092" lon="-5.572278">
        <ele>744.651</ele>
        <time>2021-10-13T18:15:02Z</time>
      </trkpt>
      <trkpt lat="42.257780" lon="-5.572370">
        <ele>744.864</ele>
        <time>2021-10-13T18:15:04Z</time>
      </trkpt>
      <trkpt lat="42.258455" lon="-5.572462">
        <ele>744.230</ele>
        <time>2021-10-13T18:15:06Z</time>
      </trkpt>
      <trkpt lat="42.258790" lon="-5.572507">
        <ele>744.779</ele>
        <time>2021-10-13T18:15:07Z</time>
      </trkpt>
      <trkpt lat="42.259122" lon="-5.572552">
        <ele>744.914</ele>
        <time>2021-10-13T18:15:08Z</time>
      </trkpt>
      <trkpt lat="42.259785" lon="-5.572639">
        <ele>744.436</ele>
        <time>2021-10-13T18:15:10Z</time>
      </trkpt>
      <trkpt lat="42.260121" lon="-5.572683">
        <ele>744.617</ele>
        <time>2021-10-13T18:15:11Z</time>
      </trkpt>
      <trkpt lat="42.260790" lon="-5.572773">
        <ele>744.518</ele>
        <time>2021-10-13T18:15:13Z</time>
      </trkpt>
      <trkpt lat="42.261465" lon="-5.572865">
        <ele>744.008</ele>
        <time>2021-10-13T18:15:15Z</time>
      </trkpt>
      <trkpt lat="42.262148" lon="-5.572956">
        <ele>744.231</ele>
        <time>2021-10-13T18:15:17Z</time>
      </trkpt>
      <trkpt lat="42.262491" lon="-5.573002">
        <ele>743.919</ele>
        <time>2021-10-13T18:15:18Z</time>
      </trkpt>
      <trkpt lat="42.263164" lon="-5.573090">
        <ele>744.576</ele>
        <time>2021-10-13T18:15:20Z</time>
      </trkpt>
      <trkpt lat="42.263824" lon="-5.573176">
        <ele>745.166</ele>
        <time>2021-10-13T18:15:22Z</time>
      </trkpt>
      <trkpt lat="42.264158" lon="-5.573219">
        <ele>744.999</ele>
        <time>2021-10-13T18:15:23Z</time>
      </trkpt>
      <trkpt lat="42.264838" lon="-5.573308">
        <ele>744.985</ele>
        <time>2021-10-13T18:15:25Z</time>
      </trkpt>
      <trkpt lat="42.265887" lon="-5.573446">
        <ele>745.194</ele>
        <time>2021-10-13T18:15:28Z</time>
      </trkpt>
      <trkpt lat="42.267340" lon="-5.573644">
        <ele>747.099</ele>
        <time>2021-10-13T18:15:32Z</time>
      </trkpt>
      <trkpt lat="42.268771" lon="-5.573838">
        <ele>747.439</ele>
        <time>2021-10-13T18:15:36Z</time>
      </trkpt>
      <trkpt lat="42.269477" lon="-5.573937">
        <ele>748.901</ele>
        <time>2021-10-13T18:15:38Z</time>
      </trkpt>
      <trkpt lat="42.269835" lon="-5.573984">
        <ele>749.221</ele>
        <time>2021-10-13T18:15:39Z</time>
      </trkpt>
      <trkpt lat="42.270189" lon="-5.574030">
        <ele>749.808</ele>
        <time>2021-10-13T18:15:40Z</time>
      </trkpt>
      <trkpt lat="42.270873" lon="-5.574120">
        <ele>749.461</ele>
        <time>2021-10-13T18:15:42Z</time>
      </trkpt>
      <trkpt lat="42.271213" lon="-5.574164">
        <ele>749.359</ele>
        <time>2021-10-13T18:15:43Z</time>
      </trkpt>
      <trkpt lat="42.271883" lon="-5.574250">
        <ele>749.176</ele>
        <time>2021-10-13T18:15:45Z</time>
      </trkpt>
      <trkpt lat="42.272570" lon="-5.574341">
        <ele>748.826</ele>
        <time>2021-10-13T18:15:47Z</time>
      </trkpt>
      <trkpt lat="42.273260" lon="-5.574437">
        <ele>748.089</ele>
        <time>2021-10-13T18:15:49Z</time>
      </trkpt>
      <trkpt lat="42.273958" lon="-5.574531">
        <ele>748.835</ele>
        <time>2021-10-13T18:15:51Z</time>
      </trkpt>
      <trkpt lat="42.275366" lon="-5.574718">
        <ele>749.174</ele>
        <time>2021-10-13T18:15:55Z</time>
      </trkpt>
      <trkpt lat="42.275730" lon="-5.574764">
        <ele>749.369</ele>
        <time>2021-10-13T18:15:56Z</time>
      </trkpt>
      <trkpt lat="42.277152" lon="-5.574944">
        <ele>750.028</ele>
        <time>2021-10-13T18:16:00Z</time>
      </trkpt>
      <trkpt lat="42.278579" lon="-5.575135">
        <ele>750.089</ele>
        <time>2021-10-13T18:16:04Z</time>
      </trkpt>
      <trkpt lat="42.278944" lon="-5.575184">
        <ele>749.617</ele>
        <time>2021-10-13T18:16:05Z</time>
      </trkpt>
      <trkpt lat="42.280032" lon="-5.575328">
        <ele>749.008</ele>
        <time>2021-10-13T18:16:08Z</time>
      </trkpt>
      <trkpt lat="42.280398" lon="-5.575376">
        <ele>749.360</ele>
        <time>2021-10-13T18:16:09Z</time>
      </trkpt>
      <trkpt lat="42.281490" lon="-5.575521">
        <ele>750.148</ele>
        <time>2021-10-13T18:16:12Z</time>
      </trkpt>
      <trkpt lat="42.281855" lon="-5.575571">
        <ele>750.235</ele>
        <time>2021-10-13T18:16:13Z</time>
      </trkpt>
      <trkpt lat="42.282941" lon="-5.575717">
        <ele>748.855</ele>
        <time>2021-10-13T18:16:16Z</time>
      </trkpt>
      <trkpt lat="42.283306" lon="-5.575766">
        <ele>747.978</ele>
        <time>2021-10-13T18:16:17Z</time>
      </trkpt>
      <trkpt lat="42.284387" lon="-5.575910">
        <ele>748.354</ele>
        <time>2021-10-13T18:16:20Z</time>
      </trkpt>
      <trkpt lat="42.285077" lon="-5.576002">
        <ele>749.893</ele>
        <time>2021-10-13T18:16:22Z</time>
      </trkpt>
      <trkpt lat="42.285745" lon="-5.576094">
        <ele>749.478</ele>
        <time>2021-10-13T18:16:24Z</time>
      </trkpt>
      <trkpt lat="42.286408" lon="-5.576184">
        <ele>749.613</ele>
        <time>2021-10-13T18:16:26Z</time>
      </trkpt>
      <trkpt lat="42.287036" lon="-5.576268">
        <ele>749.743</ele>
        <time>2021-10-13T18:16:28Z</time>
      </trkpt>
      <trkpt lat="42.287357" lon="-5.576312">
        <ele>750.107</ele>
        <time>2021-10-13T18:16:29Z</time>
      </trkpt>
      <trkpt lat="42.287981" lon="-5.576396">
        <ele>750.308</ele>
        <time>2021-10-13T18:16:31Z</time>
      </trkpt>
      <trkpt lat="42.288299" lon="-5.576439">
        <ele>749.879</ele>
        <time>2021-10-13T18:16:32Z</time>
      </trkpt>
      <trkpt lat="42.288899" lon="-5.576518">
        <ele>750.397</ele>
        <time>2021-10-13T18:16:34Z</time>
      </trkpt>
      <trkpt lat="42.289216" lon="-5.576561">
        <ele>751.384</ele>
        <time>2021-10-13T18:16:35Z</time>
      </trkpt>
      <trkpt lat="42.289880" lon="-5.576647">
        <ele>752.424</ele>
        <time>2021-10-13T18:16:37Z</time>
      </trkpt>
      <trkpt lat="42.290579" lon="-5.576736">
        <ele>751.967</ele>
        <time>2021-10-13T18:16:39Z</time>
      </trkpt>
      <trkpt lat="42.291682" lon="-5.576883">
        <ele>751.983</ele>
        <time>2021-10-13T18:16:42Z</time>
      </trkpt>
      <trkpt lat="42.292052" lon="-5.576933">
        <ele>751.872</ele>
        <time>2021-10-13T18:16:43Z</time>
      </trkpt>
      <trkpt lat="42.293142" lon="-5.577083">
        <ele>752.247</ele>
        <time>2021-10-13T18:16:46Z</time>
      </trkpt>
      <trkpt lat="42.294576" lon="-5.577270">
        <ele>753.153</ele>
        <time>2021-10-13T18:16:50Z</time>
      </trkpt>
      <trkpt lat="42.294933" lon="-5.577317">
        <ele>753.204</ele>
        <time>2021-10-13T18:16:51Z</time>
      </trkpt>
      <trkpt lat="42.296362" lon="-5.577502">
        <ele>752.814</ele>
        <time>2021-10-13T18:16:55Z</time>
      </trkpt>
      <trkpt lat="42.296733" lon="-5.577551">
        <ele>753.308</ele>
        <time>2021-10-13T18:16:56Z</time>
      </trkpt>
      <trkpt lat="42.298151" lon="-5.577737">
        <ele>753.643</ele>
        <time>2021-10-13T18:17:00Z</time>
      </trkpt>
      <trkpt lat="42.298506" lon="-5.577785">
        <ele>753.731</ele>
        <time>2021-10-13T18:17:01Z</time>
      </trkpt>
      <trkpt lat="42.299553" lon="-5.577920">
        <ele>753.858</ele>
        <time>2021-10-13T18:17:04Z</time>
      </trkpt>
      <trkpt lat="42.300225" lon="-5.578005">
        <ele>753.488</ele>
        <time>2021-10-13T18:17:06Z</time>
      </trkpt>
      <trkpt lat="42.300889" lon="-5.578091">
        <ele>754.381</ele>
        <time>2021-10-13T18:17:08Z</time>
      </trkpt>
      <trkpt lat="42.301226" lon="-5.578136">
        <ele>754.527</ele>
        <time>2021-10-13T18:17:09Z</time>
      </trkpt>
      <trkpt lat="42.301892" lon="-5.578225">
        <ele>753.846</ele>
        <time>2021-10-13T18:17:11Z</time>
      </trkpt>
      <trkpt lat="42.302230" lon="-5.578271">
        <ele>754.441</ele>
        <time>2021-10-13T18:17:12Z</time>
      </trkpt>
      <trkpt lat="42.302564" lon="-5.578322">
        <ele>754.512</ele>
        <time>2021-10-13T18:17:13Z</time>
      </trkpt>
      <trkpt lat="42.303230" lon="-5.578424">
        <ele>754.032</ele>
        <time>2021-10-13T18:17:15Z</time>
      </trkpt>
      <trkpt lat="42.303897" lon="-5.578524">
        <ele>754.905</ele>
        <time>2021-10-13T18:17:17Z</time>
      </trkpt>
      <trkpt lat="42.304234" lon="-5.578564">
        <ele>754.608</ele>
        <time>2021-10-13T18:17:18Z</time>
      </trkpt>
      <trkpt lat="42.304914" lon="-5.578644">
        <ele>754.899</ele>
        <time>2021-10-13T18:17:20Z</time>
      </trkpt>
      <trkpt lat="42.305593" lon="-5.578732">
        <ele>755.277</ele>
        <time>2021-10-13T18:17:22Z</time>
      </trkpt>
      <trkpt lat="42.305932" lon="-5.578778">
        <ele>755.034</ele>
        <time>2021-10-13T18:17:23Z</time>
      </trkpt>
      <trkpt lat="42.306608" lon="-5.578867">
        <ele>755.934</ele>
        <time>2021-10-13T18:17:25Z</time>
      </trkpt>
      <trkpt lat="42.306954" lon="-5.578912">
        <ele>755.617</ele>
        <time>2021-10-13T18:17:26Z</time>
      </trkpt>
      <trkpt lat="42.307620" lon="-5.578999">
        <ele>755.763</ele>
        <time>2021-10-13T18:17:28Z</time>
      </trkpt>
      <trkpt lat="42.308297" lon="-5.579093">
        <ele>755.782</ele>
        <time>2021-10-13T18:17:30Z</time>
      </trkpt>
      <trkpt lat="42.308953" lon="-5.579187">
        <ele>755.767</ele>
        <time>2021-10-13T18:17:32Z</time>
      </trkpt>
      <trkpt lat="42.309570" lon="-5.579267">
        <ele>756.113</ele>
        <time>2021-10-13T18:17:34Z</time>
      </trkpt>
      <trkpt lat="42.310188" lon="-5.579344">
        <ele>755.543</ele>
        <time>2021-10-13T18:17:36Z</time>
      </trkpt>
      <trkpt lat="42.310508" lon="-5.579383">
        <ele>755.107</ele>
        <time>2021-10-13T18:17:37Z</time>
      </trkpt>
      <trkpt lat="42.311144" lon="-5.579444">
        <ele>755.408</ele>
        <time>2021-10-13T18:17:39Z</time>
      </trkpt>
      <trkpt lat="42.311464" lon="-5.579466">
        <ele>755.259</ele>
        <time>2021-10-13T18:17:40Z</time>
      </trkpt>
      <trkpt lat="42.312080" lon="-5.579485">
        <ele>755.397</ele>
        <time>2021-10-13T18:17:42Z</time>
      </trkpt>
      <trkpt lat="42.312381" lon="-5.579483">
        <ele>756.184</ele>
        <time>2021-10-13T18:17:43Z</time>
      </trkpt>
      <trkpt lat="42.312680" lon="-5.579472">
        <ele>756.384</ele>
        <time>2021-10-13T18:17:44Z</time>
      </trkpt>
      <trkpt lat="42.313277" lon="-5.579418">
        <ele>755.367</ele>
        <time>2021-10-13T18:17:46Z</time>
      </trkpt>
      <trkpt lat="42.313876" lon="-5.579327">
        <ele>755.913</ele>
        <time>2021-10-13T18:17:48Z</time>
      </trkpt>
      <trkpt lat="42.314476" lon="-5.579202">
        <ele>757.052</ele>
        <time>2021-10-13T18:17:50Z</time>
      </trkpt>
      <trkpt lat="42.314778" lon="-5.579128">
        <ele>756.567</ele>
        <time>2021-10-13T18:17:51Z</time>
      </trkpt>
      <trkpt lat="42.315386" lon="-5.578973">
        <ele>757.475</ele>
        <time>2021-10-13T18:17:53Z</time>
      </trkpt>
      <trkpt lat="42.316004" lon="-5.578793">
        <ele>757.728</ele>
        <time>2021-10-13T18:17:55Z</time>
      </trkpt>
      <trkpt lat="42.316327" lon="-5.578689">
        <ele>757.820</ele>
        <time>2021-10-13T18:17:56Z</time>
      </trkpt>
      <trkpt lat="42.316959" lon="-5.578499">
        <ele>758.308</ele>
        <time>2021-10-13T18:17:58Z</time>
      </trkpt>
      <trkpt lat="42.317285" lon="-5.578407">
        <ele>758.425</ele>
        <time>2021-10-13T18:17:59Z</time>
      </trkpt>
      <trkpt lat="42.317944" lon="-5.578218">
        <ele>759.543</ele>
        <time>2021-10-13T18:18:01Z</time>
      </trkpt>
      <trkpt lat="42.318285" lon="-5.578125">
        <ele>759.630</ele>
        <time>2021-10-13T18:18:02Z</time>
      </trkpt>
      <trkpt lat="42.318946" lon="-5.577950">
        <ele>760.190</ele>
        <time>2021-10-13T18:18:04Z</time>
      </trkpt>
      <trkpt lat="42.319623" lon="-5.577769">
        <ele>760.353</ele>
        <time>2021-10-13T18:18:06Z</time>
      </trkpt>
      <trkpt lat="42.319964" lon="-5.577679">
        <ele>760.379</ele>
        <time>2021-10-13T18:18:07Z</time>
      </trkpt>
      <trkpt lat="42.320631" lon="-5.577500">
        <ele>760.098</ele>
        <time>2021-10-13T18:18:09Z</time>
      </trkpt>
      <trkpt lat="42.321294" lon="-5.577317">
        <ele>760.433</ele>
        <time>2021-10-13T18:18:11Z</time>
      </trkpt>
      <trkpt lat="42.321626" lon="-5.577224">
        <ele>760.983</ele>
        <time>2021-10-13T18:18:12Z</time>
      </trkpt>
      <trkpt lat="42.322284" lon="-5.577039">
        <ele>760.925</ele>
        <time>2021-10-13T18:18:14Z</time>
      </trkpt>
      <trkpt lat="42.322940" lon="-5.576858">
        <ele>761.817</ele>
        <time>2021-10-13T18:18:16Z</time>
      </trkpt>
      <trkpt lat="42.323594" lon="-5.576672">
        <ele>761.008</ele>
        <time>2021-10-13T18:18:18Z</time>
      </trkpt>
      <trkpt lat="42.323923" lon="-5.576571">
        <ele>761.746</ele>
        <time>2021-10-13T18:18:19Z</time>
      </trkpt>
      <trkpt lat="42.324254" lon="-5.576477">
        <ele>762.674</ele>
        <time>2021-10-13T18:18:20Z</time>
      </trkpt>
      <trkpt lat="42.324906" lon="-5.576290">
        <ele>762.071</ele>
        <time>2021-10-13T18:18:22Z</time>
      </trkpt>
      <trkpt lat="42.325236" lon="-5.576197">
        <ele>762.561</ele>
        <time>2021-10-13T18:18:23Z</time>
      </trkpt>
      <trkpt lat="42.325891" lon="-5.576011">
        <ele>763.374</ele>
        <time>2021-10-13T18:18:25Z</time>
      </trkpt>
      <trkpt lat="42.326227" lon="-5.575916">
        <ele>763.110</ele>
        <time>2021-10-13T18:18:26Z</time>
      </trkpt>
      <trkpt lat="42.326871" lon="-5.575735">
        <ele>763.449</ele>
        <time>2021-10-13T18:18:28Z</time>
      </trkpt>
      <trkpt lat="42.327530" lon="-5.575547">
        <ele>763.264</ele>
        <time>2021-10-13T18:18:30Z</time>
      </trkpt>
      <trkpt lat="42.327867" lon="-5.575452">
        <ele>763.549</ele>
        <time>2021-10-13T18:18:31Z</time>
      </trkpt>
      <trkpt lat="42.328214" lon="-5.575355">
        <ele>763.802</ele>
        <time>2021-10-13T18:18:32Z</time>
      </trkpt>
      <trkpt lat="42.328899" lon="-5.575164">
        <ele>763.722</ele>
        <time>2021-10-13T18:18:34Z</time>
      </trkpt>
      <trkpt lat="42.330305" lon="-5.574773">
        <ele>763.508</ele>
        <time>2021-10-13T18:18:38Z</time>
      </trkpt>
      <trkpt lat="42.330657" lon="-5.574675">
        <ele>763.392</ele>
        <time>2021-10-13T18:18:39Z</time>
      </trkpt>
      <trkpt lat="42.331007" lon="-5.574578">
        <ele>763.210</ele>
        <time>2021-10-13T18:18:40Z</time>
      </trkpt>
      <trkpt lat="42.331353" lon="-5.574481">
        <ele>763.197</ele>
        <time>2021-10-13T18:18:41Z</time>
      </trkpt>
      <trkpt lat="42.332039" lon="-5.574278">
        <ele>762.677</ele>
        <time>2021-10-13T18:18:43Z</time>
      </trkpt>
      <trkpt lat="42.332724" lon="-5.574090">
        <ele>762.060</ele>
        <time>2021-10-13T18:18:45Z</time>
      </trkpt>
      <trkpt lat="42.333404" lon="-5.573902">
        <ele>763.196</ele>
        <time>2021-10-13T18:18:47Z</time>
      </trkpt>
      <trkpt lat="42.333747" lon="-5.573806">
        <ele>763.065</ele>
        <time>2021-10-13T18:18:48Z</time>
      </trkpt>
      <trkpt lat="42.334424" lon="-5.573615">
        <ele>763.450</ele>
        <time>2021-10-13T18:18:50Z</time>
      </trkpt>
      <trkpt lat="42.335101" lon="-5.573422">
        <ele>762.724</ele>
        <time>2021-10-13T18:18:52Z</time>
      </trkpt>
      <trkpt lat="42.335438" lon="-5.573326">
        <ele>763.404</ele>
        <time>2021-10-13T18:18:53Z</time>
      </trkpt>
      <trkpt lat="42.335774" lon="-5.573226">
        <ele>763.914</ele>
        <time>2021-10-13T18:18:54Z</time>
      </trkpt>
      <trkpt lat="42.336455" lon="-5.573036">
        <ele>763.608</ele>
        <time>2021-10-13T18:18:56Z</time>
      </trkpt>
      <trkpt lat="42.337112" lon="-5.572847">
        <ele>763.490</ele>
        <time>2021-10-13T18:18:58Z</time>
      </trkpt>
      <trkpt lat="42.337779" lon="-5.572645">
        <ele>763.528</ele>
        <time>2021-10-13T18:19:00Z</time>
      </trkpt>
      <trkpt lat="42.338116" lon="-5.572546">
        <ele>763.035</ele>
        <time>2021-10-13T18:19:01Z</time>
      </trkpt>
      <trkpt lat="42.338466" lon="-5.572449">
        <ele>763.555</ele>
        <time>2021-10-13T18:19:02Z</time>
      </trkpt>
      <trkpt lat="42.339129" lon="-5.572263">
        <ele>764.358</ele>
        <time>2021-10-13T18:19:04Z</time>
      </trkpt>
      <trkpt lat="42.339469" lon="-5.572161">
        <ele>764.444</ele>
        <time>2021-10-13T18:19:05Z</time>
      </trkpt>
      <trkpt lat="42.340146" lon="-5.571962">
        <ele>763.813</ele>
        <time>2021-10-13T18:19:07Z</time>
      </trkpt>
      <trkpt lat="42.340824" lon="-5.571763">
        <ele>764.248</ele>
        <time>2021-10-13T18:19:09Z</time>
      </trkpt>
      <trkpt lat="42.341163" lon="-5.571664">
        <ele>764.581</ele>
        <time>2021-10-13T18:19:10Z</time>
      </trkpt>
      <trkpt lat="42.341841" lon="-5.571466">
        <ele>764.761</ele>
        <time>2021-10-13T18:19:12Z</time>
      </trkpt>
      <trkpt lat="42.342514" lon="-5.571267">
        <ele>764.717</ele>
        <time>2021-10-13T18:19:14Z</time>
      </trkpt>
      <trkpt lat="42.343175" lon="-5.571078">
        <ele>764.608</ele>
        <time>2021-10-13T18:19:16Z</time>
      </trkpt>
      <trkpt lat="42.343832" lon="-5.570883">
        <ele>764.356</ele>
        <time>2021-10-13T18:19:18Z</time>
      </trkpt>
      <trkpt lat="42.344161" lon="-5.570785">
        <ele>764.774</ele>
        <time>2021-10-13T18:19:19Z</time>
      </trkpt>
      <trkpt lat="42.344812" lon="-5.570596">
        <ele>764.541</ele>
        <time>2021-10-13T18:19:21Z</time>
      </trkpt>
      <trkpt lat="42.345466" lon="-5.570419">
        <ele>764.131</ele>
        <time>2021-10-13T18:19:23Z</time>
      </trkpt>
      <trkpt lat="42.346117" lon="-5.570236">
        <ele>765.044</ele>
        <time>2021-10-13T18:19:25Z</time>
      </trkpt>
      <trkpt lat="42.346452" lon="-5.570133">
        <ele>765.110</ele>
        <time>2021-10-13T18:19:26Z</time>
      </trkpt>
      <trkpt lat="42.347095" lon="-5.569943">
        <ele>765.099</ele>
        <time>2021-10-13T18:19:28Z</time>
      </trkpt>
      <trkpt lat="42.347746" lon="-5.569757">
        <ele>764.774</ele>
        <time>2021-10-13T18:19:30Z</time>
      </trkpt>
      <trkpt lat="42.348073" lon="-5.569661">
        <ele>764.792</ele>
        <time>2021-10-13T18:19:31Z</time>
      </trkpt>
      <trkpt lat="42.348407" lon="-5.569563">
        <ele>765.273</ele>
        <time>2021-10-13T18:19:32Z</time>
      </trkpt>
      <trkpt lat="42.349050" lon="-5.569372">
        <ele>765.620</ele>
        <time>2021-10-13T18:19:34Z</time>
      </trkpt>
      <trkpt lat="42.349379" lon="-5.569277">
        <ele>766.108</ele>
        <time>2021-10-13T18:19:35Z</time>
      </trkpt>
      <trkpt lat="42.350023" lon="-5.569100">
        <ele>766.147</ele>
        <time>2021-10-13T18:19:37Z</time>
      </trkpt>
      <trkpt lat="42.350340" lon="-5.569007">
        <ele>766.355</ele>
        <time>2021-10-13T18:19:38Z</time>
      </trkpt>
      <trkpt lat="42.350652" lon="-5.568915">
        <ele>766.352</ele>
        <time>2021-10-13T18:19:39Z</time>
      </trkpt>
      <trkpt lat="42.351271" lon="-5.568740">
        <ele>765.062</ele>
        <time>2021-10-13T18:19:41Z</time>
      </trkpt>
      <trkpt lat="42.351888" lon="-5.568557">
        <ele>765.565</ele>
        <time>2021-10-13T18:19:43Z</time>
      </trkpt>
      <trkpt lat="42.352510" lon="-5.568376">
        <ele>765.821</ele>
        <time>2021-10-13T18:19:45Z</time>
      </trkpt>
      <trkpt lat="42.352823" lon="-5.568285">
        <ele>765.920</ele>
        <time>2021-10-13T18:19:46Z</time>
      </trkpt>
      <trkpt lat="42.353137" lon="-5.568193">
        <ele>766.415</ele>
        <time>2021-10-13T18:19:47Z</time>
      </trkpt>
      <trkpt lat="42.353763" lon="-5.568009">
        <ele>765.764</ele>
        <time>2021-10-13T18:19:49Z</time>
      </trkpt>
      <trkpt lat="42.354390" lon="-5.567827">
        <ele>766.006</ele>
        <time>2021-10-13T18:19:51Z</time>
      </trkpt>
      <trkpt lat="42.354701" lon="-5.567743">
        <ele>766.616</ele>
        <time>2021-10-13T18:19:52Z</time>
      </trkpt>
      <trkpt lat="42.355009" lon="-5.567657">
        <ele>767.108</ele>
        <time>2021-10-13T18:19:53Z</time>
      </trkpt>
      <trkpt lat="42.355624" lon="-5.567487">
        <ele>766.864</ele>
        <time>2021-10-13T18:19:55Z</time>
      </trkpt>
      <trkpt lat="42.355943" lon="-5.567404">
        <ele>767.182</ele>
        <time>2021-10-13T18:19:56Z</time>
      </trkpt>
      <trkpt lat="42.356565" lon="-5.567281">
        <ele>766.669</ele>
        <time>2021-10-13T18:19:58Z</time>
      </trkpt>
      <trkpt lat="42.357215" lon="-5.567204">
        <ele>766.429</ele>
        <time>2021-10-13T18:20:00Z</time>
      </trkpt>
      <trkpt lat="42.357884" lon="-5.567161">
        <ele>765.862</ele>
        <time>2021-10-13T18:20:02Z</time>
      </trkpt>
      <trkpt lat="42.358535" lon="-5.567150">
        <ele>765.388</ele>
        <time>2021-10-13T18:20:04Z</time>
      </trkpt>
      <trkpt lat="42.359186" lon="-5.567147">
        <ele>765.027</ele>
        <time>2021-10-13T18:20:06Z</time>
      </trkpt>
      <trkpt lat="42.359828" lon="-5.567143">
        <ele>765.142</ele>
        <time>2021-10-13T18:20:08Z</time>
      </trkpt>
      <trkpt lat="42.360141" lon="-5.567137">
        <ele>764.735</ele>
        <time>2021-10-13T18:20:09Z</time>
      </trkpt>
      <trkpt lat="42.360715" lon="-5.567124">
        <ele>765.186</ele>
        <time>2021-10-13T18:20:11Z</time>
      </trkpt>
      <trkpt lat="42.361214" lon="-5.567113">
        <ele>766.114</ele>
        <time>2021-10-13T18:20:13Z</time>
      </trkpt>
      <trkpt lat="42.361442" lon="-5.567109">
        <ele>766.608</ele>
        <time>2021-10-13T18:20:14Z</time>
      </trkpt>
      <trkpt lat="42.361880" lon="-5.567103">
        <ele>767.691</ele>
        <time>2021-10-13T18:20:16Z</time>
      </trkpt>
      <trkpt lat="42.362109" lon="-5.567099">
        <ele>767.499</ele>
        <time>2021-10-13T18:20:17Z</time>
      </trkpt>
      <trkpt lat="42.362345" lon="-5.567094">
        <ele>767.056</ele>
        <time>2021-10-13T18:20:18Z</time>
      </trkpt>
      <trkpt lat="42.362835" lon="-5.567085">
        <ele>767.016</ele>
        <time>2021-10-13T18:20:20Z</time>
      </trkpt>
      <trkpt lat="42.363340" lon="-5.567080">
        <ele>768.159</ele>
        <time>2021-10-13T18:20:22Z</time>
      </trkpt>
      <trkpt lat="42.363600" lon="-5.567082">
        <ele>767.995</ele>
        <time>2021-10-13T18:20:23Z</time>
      </trkpt>
      <trkpt lat="42.363855" lon="-5.567077">
        <ele>767.594</ele>
        <time>2021-10-13T18:20:24Z</time>
      </trkpt>
      <trkpt lat="42.364343" lon="-5.567065">
        <ele>767.919</ele>
        <time>2021-10-13T18:20:26Z</time>
      </trkpt>
      <trkpt lat="42.364829" lon="-5.567067">
        <ele>767.861</ele>
        <time>2021-10-13T18:20:28Z</time>
      </trkpt>
      <trkpt lat="42.365085" lon="-5.567064">
        <ele>767.721</ele>
        <time>2021-10-13T18:20:29Z</time>
      </trkpt>
      <trkpt lat="42.365598" lon="-5.567045">
        <ele>768.613</ele>
        <time>2021-10-13T18:20:31Z</time>
      </trkpt>
      <trkpt lat="42.365861" lon="-5.567029">
        <ele>769.708</ele>
        <time>2021-10-13T18:20:32Z</time>
      </trkpt>
      <trkpt lat="42.366367" lon="-5.566976">
        <ele>769.944</ele>
        <time>2021-10-13T18:20:34Z</time>
      </trkpt>
      <trkpt lat="42.366628" lon="-5.566946">
        <ele>770.632</ele>
        <time>2021-10-13T18:20:35Z</time>
      </trkpt>
      <trkpt lat="42.367153" lon="-5.566868">
        <ele>772.229</ele>
        <time>2021-10-13T18:20:37Z</time>
      </trkpt>
      <trkpt lat="42.367688" lon="-5.566799">
        <ele>772.689</ele>
        <time>2021-10-13T18:20:39Z</time>
      </trkpt>
      <trkpt lat="42.367961" lon="-5.566764">
        <ele>773.072</ele>
        <time>2021-10-13T18:20:40Z</time>
      </trkpt>
      <trkpt lat="42.368237" lon="-5.566730">
        <ele>773.638</ele>
        <time>2021-10-13T18:20:41Z</time>
      </trkpt>
      <trkpt lat="42.368802" lon="-5.566659">
        <ele>774.327</ele>
        <time>2021-10-13T18:20:43Z</time>
      </trkpt>
      <trkpt lat="42.369094" lon="-5.566621">
        <ele>774.182</ele>
        <time>2021-10-13T18:20:44Z</time>
      </trkpt>
      <trkpt lat="42.369700" lon="-5.566541">
        <ele>773.121</ele>
        <time>2021-10-13T18:20:46Z</time>
      </trkpt>
      <trkpt lat="42.370018" lon="-5.566506">
        <ele>773.641</ele>
        <time>2021-10-13T18:20:47Z</time>
      </trkpt>
      <trkpt lat="42.370342" lon="-5.566465">
        <ele>773.705</ele>
        <time>2021-10-13T18:20:48Z</time>
      </trkpt>
      <trkpt lat="42.371001" lon="-5.566380">
        <ele>774.408</ele>
        <time>2021-10-13T18:20:50Z</time>
      </trkpt>
      <trkpt lat="42.371673" lon="-5.566292">
        <ele>774.080</ele>
        <time>2021-10-13T18:20:52Z</time>
      </trkpt>
      <trkpt lat="42.372011" lon="-5.566250">
        <ele>773.738</ele>
        <time>2021-10-13T18:20:53Z</time>
      </trkpt>
      <trkpt lat="42.372691" lon="-5.566165">
        <ele>773.895</ele>
        <time>2021-10-13T18:20:55Z</time>
      </trkpt>
      <trkpt lat="42.373040" lon="-5.566120">
        <ele>773.375</ele>
        <time>2021-10-13T18:20:56Z</time>
      </trkpt>
      <trkpt lat="42.373708" lon="-5.566034">
        <ele>773.118</ele>
        <time>2021-10-13T18:20:58Z</time>
      </trkpt>
      <trkpt lat="42.374389" lon="-5.565948">
        <ele>772.294</ele>
        <time>2021-10-13T18:21:00Z</time>
      </trkpt>
      <trkpt lat="42.375073" lon="-5.565859">
        <ele>771.883</ele>
        <time>2021-10-13T18:21:02Z</time>
      </trkpt>
      <trkpt lat="42.375737" lon="-5.565773">
        <ele>771.138</ele>
        <time>2021-10-13T18:21:04Z</time>
      </trkpt>
      <trkpt lat="42.376406" lon="-5.565686">
        <ele>771.538</ele>
        <time>2021-10-13T18:21:06Z</time>
      </trkpt>
      <trkpt lat="42.377035" lon="-5.565602">
        <ele>772.270</ele>
        <time>2021-10-13T18:21:08Z</time>
      </trkpt>
      <trkpt lat="42.377657" lon="-5.565518">
        <ele>773.017</ele>
        <time>2021-10-13T18:21:10Z</time>
      </trkpt>
      <trkpt lat="42.378279" lon="-5.565425">
        <ele>773.308</ele>
        <time>2021-10-13T18:21:12Z</time>
      </trkpt>
      <trkpt lat="42.378595" lon="-5.565380">
        <ele>773.661</ele>
        <time>2021-10-13T18:21:13Z</time>
      </trkpt>
      <trkpt lat="42.378913" lon="-5.565335">
        <ele>774.229</ele>
        <time>2021-10-13T18:21:14Z</time>
      </trkpt>
      <trkpt lat="42.379555" lon="-5.565244">
        <ele>775.256</ele>
        <time>2021-10-13T18:21:16Z</time>
      </trkpt>
      <trkpt lat="42.380208" lon="-5.565155">
        <ele>774.366</ele>
        <time>2021-10-13T18:21:18Z</time>
      </trkpt>
      <trkpt lat="42.380540" lon="-5.565106">
        <ele>774.949</ele>
        <time>2021-10-13T18:21:19Z</time>
      </trkpt>
      <trkpt lat="42.380873" lon="-5.565057">
        <ele>775.715</ele>
        <time>2021-10-13T18:21:20Z</time>
      </trkpt>
      <trkpt lat="42.381203" lon="-5.565008">
        <ele>775.524</ele>
        <time>2021-10-13T18:21:21Z</time>
      </trkpt>
      <trkpt lat="42.381862" lon="-5.564910">
        <ele>775.329</ele>
        <time>2021-10-13T18:21:23Z</time>
      </trkpt>
      <trkpt lat="42.382197" lon="-5.564861">
        <ele>774.663</ele>
        <time>2021-10-13T18:21:24Z</time>
      </trkpt>
      <trkpt lat="42.382533" lon="-5.564811">
        <ele>774.544</ele>
        <time>2021-10-13T18:21:25Z</time>
      </trkpt>
      <trkpt lat="42.382880" lon="-5.564760">
        <ele>775.218</ele>
        <time>2021-10-13T18:21:26Z</time>
      </trkpt>
      <trkpt lat="42.383543" lon="-5.564662">
        <ele>775.008</ele>
        <time>2021-10-13T18:21:28Z</time>
      </trkpt>
      <trkpt lat="42.384211" lon="-5.564561">
        <ele>776.314</ele>
        <time>2021-10-13T18:21:30Z</time>
      </trkpt>
      <trkpt lat="42.384544" lon="-5.564511">
        <ele>776.642</ele>
        <time>2021-10-13T18:21:31Z</time>
      </trkpt>
      <trkpt lat="42.384883" lon="-5.564461">
        <ele>776.589</ele>
        <time>2021-10-13T18:21:32Z</time>
      </trkpt>
      <trkpt lat="42.385524" lon="-5.564375">
        <ele>775.439</ele>
        <time>2021-10-13T18:21:34Z</time>
      </trkpt>
      <trkpt lat="42.385851" lon="-5.564335">
        <ele>776.242</ele>
        <time>2021-10-13T18:21:35Z</time>
      </trkpt>
      <trkpt lat="42.386181" lon="-5.564304">
        <ele>776.568</ele>
        <time>2021-10-13T18:21:36Z</time>
      </trkpt>
      <trkpt lat="42.386816" lon="-5.564280">
        <ele>777.257</ele>
        <time>2021-10-13T18:21:38Z</time>
      </trkpt>
      <trkpt lat="42.387136" lon="-5.564291">
        <ele>777.712</ele>
        <time>2021-10-13T18:21:39Z</time>
      </trkpt>
      <trkpt lat="42.387769" lon="-5.564371">
        <ele>780.532</ele>
        <time>2021-10-13T18:21:41Z</time>
      </trkpt>
      <trkpt lat="42.388385" lon="-5.564539">
        <ele>782.292</ele>
        <time>2021-10-13T18:21:43Z</time>
      </trkpt>
      <trkpt lat="42.388943" lon="-5.564754">
        <ele>782.911</ele>
        <time>2021-10-13T18:21:45Z</time>
      </trkpt>
      <trkpt lat="42.389207" lon="-5.564873">
        <ele>783.308</ele>
        <time>2021-10-13T18:21:46Z</time>
      </trkpt>
      <trkpt lat="42.389730" lon="-5.565126">
        <ele>784.661</ele>
        <time>2021-10-13T18:21:48Z</time>
      </trkpt>
      <trkpt lat="42.390263" lon="-5.565408">
        <ele>784.739</ele>
        <time>2021-10-13T18:21:50Z</time>
      </trkpt>
      <trkpt lat="42.390541" lon="-5.565560">
        <ele>785.426</ele>
        <time>2021-10-13T18:21:51Z</time>
      </trkpt>
      <trkpt lat="42.391090" lon="-5.565858">
        <ele>784.596</ele>
        <time>2021-10-13T18:21:53Z</time>
      </trkpt>
      <trkpt lat="42.391365" lon="-5.566005">
        <ele>784.669</ele>
        <time>2021-10-13T18:21:54Z</time>
      </trkpt>
      <trkpt lat="42.391633" lon="-5.566147">
        <ele>784.415</ele>
        <time>2021-10-13T18:21:55Z</time>
      </trkpt>
      <trkpt lat="42.391899" lon="-5.566287">
        <ele>784.094</ele>
        <time>2021-10-13T18:21:56Z</time>
      </trkpt>
      <trkpt lat="42.392372" lon="-5.566537">
        <ele>783.259</ele>
        <time>2021-10-13T18:21:58Z</time>
      </trkpt>
      <trkpt lat="42.392603" lon="-5.566664">
        <ele>783.567</ele>
        <time>2021-10-13T18:21:59Z</time>
      </trkpt>
      <trkpt lat="42.392839" lon="-5.566789">
        <ele>783.181</ele>
        <time>2021-10-13T18:22:00Z</time>
      </trkpt>
      <trkpt lat="42.393340" lon="-5.567049">
        <ele>782.919</ele>
        <time>2021-10-13T18:22:02Z</time>
      </trkpt>
      <trkpt lat="42.393864" lon="-5.567325">
        <ele>781.908</ele>
        <time>2021-10-13T18:22:04Z</time>
      </trkpt>
      <trkpt lat="42.394134" lon="-5.567462">
        <ele>781.664</ele>
        <time>2021-10-13T18:22:05Z</time>
      </trkpt>
      <trkpt lat="42.394399" lon="-5.567604">
        <ele>781.922</ele>
        <time>2021-10-13T18:22:06Z</time>
      </trkpt>
      <trkpt lat="42.394659" lon="-5.567743">
        <ele>782.039</ele>
        <time>2021-10-13T18:22:07Z</time>
      </trkpt>
      <trkpt lat="42.395124" lon="-5.567990">
        <ele>780.799</ele>
        <time>2021-10-13T18:22:09Z</time>
      </trkpt>
      <trkpt lat="42.395583" lon="-5.568233">
        <ele>778.982</ele>
        <time>2021-10-13T18:22:11Z</time>
      </trkpt>
      <trkpt lat="42.395805" lon="-5.568352">
        <ele>778.348</ele>
        <time>2021-10-13T18:22:12Z</time>
      </trkpt>
      <trkpt lat="42.396023" lon="-5.568472">
        <ele>778.367</ele>
        <time>2021-10-13T18:22:13Z</time>
      </trkpt>
      <trkpt lat="42.396484" lon="-5.568718">
        <ele>777.712</ele>
        <time>2021-10-13T18:22:15Z</time>
      </trkpt>
      <trkpt lat="42.396737" lon="-5.568853">
        <ele>776.926</ele>
        <time>2021-10-13T18:22:16Z</time>
      </trkpt>
      <trkpt lat="42.396997" lon="-5.568992">
        <ele>776.247</ele>
        <time>2021-10-13T18:22:17Z</time>
      </trkpt>
      <trkpt lat="42.397546" lon="-5.569285">
        <ele>775.311</ele>
        <time>2021-10-13T18:22:19Z</time>
      </trkpt>
      <trkpt lat="42.397849" lon="-5.569445">
        <ele>774.408</ele>
        <time>2021-10-13T18:22:20Z</time>
      </trkpt>
      <trkpt lat="42.398167" lon="-5.569615">
        <ele>773.820</ele>
        <time>2021-10-13T18:22:21Z</time>
      </trkpt>
      <trkpt lat="42.398499" lon="-5.569792">
        <ele>772.768</ele>
        <time>2021-10-13T18:22:22Z</time>
      </trkpt>
      <trkpt lat="42.399538" lon="-5.570287">
        <ele>771.995</ele>
        <time>2021-10-13T18:22:25Z</time>
      </trkpt>
      <trkpt lat="42.399900" lon="-5.570426">
        <ele>772.245</ele>
        <time>2021-10-13T18:22:26Z</time>
      </trkpt>
      <trkpt lat="42.400552" lon="-5.570679">
        <ele>774.588</ele>
        <time>2021-10-13T18:22:28Z</time>
      </trkpt>
      <trkpt lat="42.401167" lon="-5.570897">
        <ele>777.884</ele>
        <time>2021-10-13T18:22:30Z</time>
      </trkpt>
      <trkpt lat="42.401467" lon="-5.570990">
        <ele>778.243</ele>
        <time>2021-10-13T18:22:31Z</time>
      </trkpt>
      <trkpt lat="42.401773" lon="-5.571078">
        <ele>778.298</ele>
        <time>2021-10-13T18:22:32Z</time>
      </trkpt>
      <trkpt lat="42.402369" lon="-5.571237">
        <ele>781.083</ele>
        <time>2021-10-13T18:22:34Z</time>
      </trkpt>
      <trkpt lat="42.402991" lon="-5.571372">
        <ele>782.525</ele>
        <time>2021-10-13T18:22:36Z</time>
      </trkpt>
      <trkpt lat="42.403307" lon="-5.571433">
        <ele>783.717</ele>
        <time>2021-10-13T18:22:37Z</time>
      </trkpt>
      <trkpt lat="42.403624" lon="-5.571493">
        <ele>784.608</ele>
        <time>2021-10-13T18:22:38Z</time>
      </trkpt>
      <trkpt lat="42.403942" lon="-5.571546">
        <ele>785.666</ele>
        <time>2021-10-13T18:22:39Z</time>
      </trkpt>
      <trkpt lat="42.404260" lon="-5.571594">
        <ele>786.074</ele>
        <time>2021-10-13T18:22:40Z</time>
      </trkpt>
      <trkpt lat="42.404888" lon="-5.571690">
        <ele>785.951</ele>
        <time>2021-10-13T18:22:42Z</time>
      </trkpt>
      <trkpt lat="42.405209" lon="-5.571739">
        <ele>785.921</ele>
        <time>2021-10-13T18:22:43Z</time>
      </trkpt>
      <trkpt lat="42.405849" lon="-5.571832">
        <ele>785.824</ele>
        <time>2021-10-13T18:22:45Z</time>
      </trkpt>
      <trkpt lat="42.406505" lon="-5.571916">
        <ele>785.920</ele>
        <time>2021-10-13T18:22:47Z</time>
      </trkpt>
      <trkpt lat="42.406842" lon="-5.571961">
        <ele>785.829</ele>
        <time>2021-10-13T18:22:48Z</time>
      </trkpt>
      <trkpt lat="42.407510" lon="-5.572054">
        <ele>786.374</ele>
        <time>2021-10-13T18:22:50Z</time>
      </trkpt>
      <trkpt lat="42.407848" lon="-5.572101">
        <ele>786.285</ele>
        <time>2021-10-13T18:22:51Z</time>
      </trkpt>
      <trkpt lat="42.408188" lon="-5.572148">
        <ele>786.189</ele>
        <time>2021-10-13T18:22:52Z</time>
      </trkpt>
      <trkpt lat="42.408526" lon="-5.572195">
        <ele>786.117</ele>
        <time>2021-10-13T18:22:53Z</time>
      </trkpt>
      <trkpt lat="42.409204" lon="-5.572287">
        <ele>786.408</ele>
        <time>2021-10-13T18:22:55Z</time>
      </trkpt>
      <trkpt lat="42.409553" lon="-5.572334">
        <ele>786.316</ele>
        <time>2021-10-13T18:22:56Z</time>
      </trkpt>
      <trkpt lat="42.410223" lon="-5.572434">
        <ele>786.734</ele>
        <time>2021-10-13T18:22:58Z</time>
      </trkpt>
      <trkpt lat="42.410905" lon="-5.572523">
        <ele>786.341</ele>
        <time>2021-10-13T18:23:00Z</time>
      </trkpt>
      <trkpt lat="42.411246" lon="-5.572574">
        <ele>786.531</ele>
        <time>2021-10-13T18:23:01Z</time>
      </trkpt>
      <trkpt lat="42.411593" lon="-5.572619">
        <ele>786.814</ele>
        <time>2021-10-13T18:23:02Z</time>
      </trkpt>
      <trkpt lat="42.412254" lon="-5.572704">
        <ele>786.920</ele>
        <time>2021-10-13T18:23:04Z</time>
      </trkpt>
      <trkpt lat="42.412590" lon="-5.572749">
        <ele>787.059</ele>
        <time>2021-10-13T18:23:05Z</time>
      </trkpt>
      <trkpt lat="42.413260" lon="-5.572839">
        <ele>787.554</ele>
        <time>2021-10-13T18:23:07Z</time>
      </trkpt>
      <trkpt lat="42.413595" lon="-5.572885">
        <ele>787.523</ele>
        <time>2021-10-13T18:23:08Z</time>
      </trkpt>
      <trkpt lat="42.413929" lon="-5.572931">
        <ele>787.983</ele>
        <time>2021-10-13T18:23:09Z</time>
      </trkpt>
      <trkpt lat="42.414602" lon="-5.573023">
        <ele>788.611</ele>
        <time>2021-10-13T18:23:11Z</time>
      </trkpt>
      <trkpt lat="42.414944" lon="-5.573069">
        <ele>788.508</ele>
        <time>2021-10-13T18:23:12Z</time>
      </trkpt>
      <trkpt lat="42.415285" lon="-5.573115">
        <ele>789.020</ele>
        <time>2021-10-13T18:23:13Z</time>
      </trkpt>
      <trkpt lat="42.415966" lon="-5.573206">
        <ele>788.518</ele>
        <time>2021-10-13T18:23:15Z</time>
      </trkpt>
      <trkpt lat="42.416314" lon="-5.573253">
        <ele>789.145</ele>
        <time>2021-10-13T18:23:16Z</time>
      </trkpt>
      <trkpt lat="42.416663" lon="-5.573300">
        <ele>789.685</ele>
        <time>2021-10-13T18:23:17Z</time>
      </trkpt>
      <trkpt lat="42.417008" lon="-5.573347">
        <ele>790.388</ele>
        <time>2021-10-13T18:23:18Z</time>
      </trkpt>
      <trkpt lat="42.417695" lon="-5.573440">
        <ele>790.334</ele>
        <time>2021-10-13T18:23:20Z</time>
      </trkpt>
      <trkpt lat="42.418378" lon="-5.573530">
        <ele>791.623</ele>
        <time>2021-10-13T18:23:22Z</time>
      </trkpt>
      <trkpt lat="42.418719" lon="-5.573575">
        <ele>791.518</ele>
        <time>2021-10-13T18:23:23Z</time>
      </trkpt>
      <trkpt lat="42.419394" lon="-5.573664">
        <ele>791.934</ele>
        <time>2021-10-13T18:23:25Z</time>
      </trkpt>
      <trkpt lat="42.419739" lon="-5.573709">
        <ele>792.055</ele>
        <time>2021-10-13T18:23:26Z</time>
      </trkpt>
      <trkpt lat="42.420396" lon="-5.573796">
        <ele>792.210</ele>
        <time>2021-10-13T18:23:28Z</time>
      </trkpt>
      <trkpt lat="42.420737" lon="-5.573842">
        <ele>792.308</ele>
        <time>2021-10-13T18:23:29Z</time>
      </trkpt>
      <trkpt lat="42.421404" lon="-5.573931">
        <ele>793.241</ele>
        <time>2021-10-13T18:23:31Z</time>
      </trkpt>
      <trkpt lat="42.421751" lon="-5.573976">
        <ele>792.939</ele>
        <time>2021-10-13T18:23:32Z</time>
      </trkpt>
      <trkpt lat="42.422412" lon="-5.574062">
        <ele>792.446</ele>
        <time>2021-10-13T18:23:34Z</time>
      </trkpt>
      <trkpt lat="42.423082" lon="-5.574149">
        <ele>793.276</ele>
        <time>2021-10-13T18:23:36Z</time>
      </trkpt>
      <trkpt lat="42.423417" lon="-5.574194">
        <ele>793.119</ele>
        <time>2021-10-13T18:23:37Z</time>
      </trkpt>
      <trkpt lat="42.424083" lon="-5.574283">
        <ele>793.335</ele>
        <time>2021-10-13T18:23:39Z</time>
      </trkpt>
      <trkpt lat="42.424419" lon="-5.574327">
        <ele>793.334</ele>
        <time>2021-10-13T18:23:40Z</time>
      </trkpt>
      <trkpt lat="42.425088" lon="-5.574436">
        <ele>794.499</ele>
        <time>2021-10-13T18:23:42Z</time>
      </trkpt>
      <trkpt lat="42.425431" lon="-5.574488">
        <ele>793.824</ele>
        <time>2021-10-13T18:23:43Z</time>
      </trkpt>
      <trkpt lat="42.426136" lon="-5.574581">
        <ele>793.604</ele>
        <time>2021-10-13T18:23:45Z</time>
      </trkpt>
      <trkpt lat="42.426818" lon="-5.574648">
        <ele>794.214</ele>
        <time>2021-10-13T18:23:47Z</time>
      </trkpt>
      <trkpt lat="42.427447" lon="-5.574726">
        <ele>793.808</ele>
        <time>2021-10-13T18:23:49Z</time>
      </trkpt>
      <trkpt lat="42.428012" lon="-5.574813">
        <ele>793.610</ele>
        <time>2021-10-13T18:23:51Z</time>
      </trkpt>
      <trkpt lat="42.428282" lon="-5.574849">
        <ele>793.778</ele>
        <time>2021-10-13T18:23:52Z</time>
      </trkpt>
      <trkpt lat="42.428551" lon="-5.574886">
        <ele>793.355</ele>
        <time>2021-10-13T18:23:53Z</time>
      </trkpt>
      <trkpt lat="42.429079" lon="-5.574959">
        <ele>793.745</ele>
        <time>2021-10-13T18:23:55Z</time>
      </trkpt>
      <trkpt lat="42.429342" lon="-5.574995">
        <ele>794.148</ele>
        <time>2021-10-13T18:23:56Z</time>
      </trkpt>
      <trkpt lat="42.429804" lon="-5.575059">
        <ele>794.074</ele>
        <time>2021-10-13T18:23:58Z</time>
      </trkpt>
      <trkpt lat="42.430233" lon="-5.575126">
        <ele>794.423</ele>
        <time>2021-10-13T18:24:00Z</time>
      </trkpt>
      <trkpt lat="42.430447" lon="-5.575159">
        <ele>794.428</ele>
        <time>2021-10-13T18:24:01Z</time>
      </trkpt>
      <trkpt lat="42.430661" lon="-5.575188">
        <ele>794.037</ele>
        <time>2021-10-13T18:24:02Z</time>
      </trkpt>
      <trkpt lat="42.431065" lon="-5.575244">
        <ele>794.149</ele>
        <time>2021-10-13T18:24:04Z</time>
      </trkpt>
      <trkpt lat="42.431474" lon="-5.575306">
        <ele>793.813</ele>
        <time>2021-10-13T18:24:06Z</time>
      </trkpt>
      <trkpt lat="42.431883" lon="-5.575358">
        <ele>794.708</ele>
        <time>2021-10-13T18:24:08Z</time>
      </trkpt>
      <trkpt lat="42.432097" lon="-5.575386">
        <ele>794.261</ele>
        <time>2021-10-13T18:24:09Z</time>
      </trkpt>
      <trkpt lat="42.432534" lon="-5.575442">
        <ele>795.079</ele>
        <time>2021-10-13T18:24:11Z</time>
      </trkpt>
      <trkpt lat="42.432981" lon="-5.575501">
        <ele>795.276</ele>
        <time>2021-10-13T18:24:13Z</time>
      </trkpt>
      <trkpt lat="42.433211" lon="-5.575533">
        <ele>795.356</ele>
        <time>2021-10-13T18:24:14Z</time>
      </trkpt>
      <trkpt lat="42.433642" lon="-5.575599">
        <ele>794.559</ele>
        <time>2021-10-13T18:24:16Z</time>
      </trkpt>
      <trkpt lat="42.434092" lon="-5.575667">
        <ele>795.325</ele>
        <time>2021-10-13T18:24:18Z</time>
      </trkpt>
      <trkpt lat="42.434338" lon="-5.575703">
        <ele>794.884</ele>
        <time>2021-10-13T18:24:19Z</time>
      </trkpt>
      <trkpt lat="42.434600" lon="-5.575742">
        <ele>795.459</ele>
        <time>2021-10-13T18:24:20Z</time>
      </trkpt>
      <trkpt lat="42.435159" lon="-5.575830">
        <ele>795.495</ele>
        <time>2021-10-13T18:24:22Z</time>
      </trkpt>
      <trkpt lat="42.435435" lon="-5.575861">
        <ele>795.549</ele>
        <time>2021-10-13T18:24:23Z</time>
      </trkpt>
      <trkpt lat="42.435914" lon="-5.575907">
        <ele>795.823</ele>
        <time>2021-10-13T18:24:25Z</time>
      </trkpt>
      <trkpt lat="42.436137" lon="-5.575935">
        <ele>796.108</ele>
        <time>2021-10-13T18:24:26Z</time>
      </trkpt>
      <trkpt lat="42.436535" lon="-5.575994">
        <ele>794.997</ele>
        <time>2021-10-13T18:24:28Z</time>
      </trkpt>
      <trkpt lat="42.436988" lon="-5.576064">
        <ele>795.285</ele>
        <time>2021-10-13T18:24:30Z</time>
      </trkpt>
      <trkpt lat="42.437482" lon="-5.576129">
        <ele>794.392</ele>
        <time>2021-10-13T18:24:32Z</time>
      </trkpt>
      <trkpt lat="42.437919" lon="-5.576174">
        <ele>794.612</ele>
        <time>2021-10-13T18:24:34Z</time>
      </trkpt>
      <trkpt lat="42.438137" lon="-5.576204">
        <ele>793.445</ele>
        <time>2021-10-13T18:24:35Z</time>
      </trkpt>
      <trkpt lat="42.438352" lon="-5.576234">
        <ele>793.041</ele>
        <time>2021-10-13T18:24:36Z</time>
      </trkpt>
      <trkpt lat="42.438772" lon="-5.576290">
        <ele>792.940</ele>
        <time>2021-10-13T18:24:38Z</time>
      </trkpt>
      <trkpt lat="42.439182" lon="-5.576344">
        <ele>792.255</ele>
        <time>2021-10-13T18:24:40Z</time>
      </trkpt>
      <trkpt lat="42.439570" lon="-5.576396">
        <ele>791.179</ele>
        <time>2021-10-13T18:24:42Z</time>
      </trkpt>
      <trkpt lat="42.439755" lon="-5.576420">
        <ele>791.905</ele>
        <time>2021-10-13T18:24:43Z</time>
      </trkpt>
      <trkpt lat="42.440099" lon="-5.576464">
        <ele>791.525</ele>
        <time>2021-10-13T18:24:45Z</time>
      </trkpt>
      <trkpt lat="42.440448" lon="-5.576510">
        <ele>792.408</ele>
        <time>2021-10-13T18:24:47Z</time>
      </trkpt>
      <trkpt lat="42.440869" lon="-5.576576">
        <ele>792.565</ele>
        <time>2021-10-13T18:24:49Z</time>
      </trkpt>
      <trkpt lat="42.441317" lon="-5.576636">
        <ele>793.073</ele>
        <time>2021-10-13T18:24:51Z</time>
      </trkpt>
      <trkpt lat="42.441775" lon="-5.576692">
        <ele>793.720</ele>
        <time>2021-10-13T18:24:53Z</time>
      </trkpt>
      <trkpt lat="42.442230" lon="-5.576747">
        <ele>793.690</ele>
        <time>2021-10-13T18:24:55Z</time>
      </trkpt>
      <trkpt lat="42.442464" lon="-5.576776">
        <ele>794.153</ele>
        <time>2021-10-13T18:24:56Z</time>
      </trkpt>
      <trkpt lat="42.442888" lon="-5.576831">
        <ele>793.639</ele>
        <time>2021-10-13T18:24:58Z</time>
      </trkpt>
      <trkpt lat="42.443312" lon="-5.576885">
        <ele>793.748</ele>
        <time>2021-10-13T18:25:00Z</time>
      </trkpt>
      <trkpt lat="42.443739" lon="-5.576931">
        <ele>794.763</ele>
        <time>2021-10-13T18:25:02Z</time>
      </trkpt>
      <trkpt lat="42.444156" lon="-5.576986">
        <ele>794.591</ele>
        <time>2021-10-13T18:25:04Z</time>
      </trkpt>
      <trkpt lat="42.444591" lon="-5.577056">
        <ele>793.181</ele>
        <time>2021-10-13T18:25:06Z</time>
      </trkpt>
      <trkpt lat="42.444833" lon="-5.577093">
        <ele>792.819</ele>
        <time>2021-10-13T18:25:07Z</time>
      </trkpt>
      <trkpt lat="42.445355" lon="-5.577168">
        <ele>792.008</ele>
        <time>2021-10-13T18:25:09Z</time>
      </trkpt>
      <trkpt lat="42.445953" lon="-5.577240">
        <ele>791.487</ele>
        <time>2021-10-13T18:25:11Z</time>
      </trkpt>
      <trkpt lat="42.446618" lon="-5.577296">
        <ele>790.525</ele>
        <time>2021-10-13T18:25:13Z</time>
      </trkpt>
      <trkpt lat="42.447728" lon="-5.577380">
        <ele>788.182</ele>
        <time>2021-10-13T18:25:16Z</time>
      </trkpt>
      <trkpt lat="42.448119" lon="-5.577426">
        <ele>787.082</ele>
        <time>2021-10-13T18:25:17Z</time>
      </trkpt>
      <trkpt lat="42.449266" lon="-5.577558">
        <ele>787.795</ele>
        <time>2021-10-13T18:25:20Z</time>
      </trkpt>
      <trkpt lat="42.450750" lon="-5.577794">
        <ele>790.421</ele>
        <time>2021-10-13T18:25:24Z</time>
      </trkpt>
      <trkpt lat="42.452251" lon="-5.578102">
        <ele>795.910</ele>
        <time>2021-10-13T18:25:28Z</time>
      </trkpt>
      <trkpt lat="42.454191" lon="-5.578494">
        <ele>798.335</ele>
        <time>2021-10-13T18:25:33Z</time>
      </trkpt>
      <trkpt lat="42.454963" lon="-5.578659">
        <ele>799.434</ele>
        <time>2021-10-13T18:25:35Z</time>
      </trkpt>
      <trkpt lat="42.456500" lon="-5.578981">
        <ele>799.655</ele>
        <time>2021-10-13T18:25:39Z</time>
      </trkpt>
      <trkpt lat="42.457265" lon="-5.579139">
        <ele>800.110</ele>
        <time>2021-10-13T18:25:41Z</time>
      </trkpt>
      <trkpt lat="42.458365" lon="-5.579379">
        <ele>800.008</ele>
        <time>2021-10-13T18:25:44Z</time>
      </trkpt>
      <trkpt lat="42.459050" lon="-5.579525">
        <ele>799.921</ele>
        <time>2021-10-13T18:25:46Z</time>
      </trkpt>
      <trkpt lat="42.459389" lon="-5.579594">
        <ele>800.359</ele>
        <time>2021-10-13T18:25:47Z</time>
      </trkpt>
      <trkpt lat="42.459728" lon="-5.579664">
        <ele>800.536</ele>
        <time>2021-10-13T18:25:48Z</time>
      </trkpt>
      <trkpt lat="42.460065" lon="-5.579734">
        <ele>801.156</ele>
        <time>2021-10-13T18:25:49Z</time>
      </trkpt>
      <trkpt lat="42.460749" lon="-5.579884">
        <ele>801.419</ele>
        <time>2021-10-13T18:25:51Z</time>
      </trkpt>
      <trkpt lat="42.462172" lon="-5.580190">
        <ele>801.465</ele>
        <time>2021-10-13T18:25:55Z</time>
      </trkpt>
      <trkpt lat="42.462544" lon="-5.580267">
        <ele>801.234</ele>
        <time>2021-10-13T18:25:56Z</time>
      </trkpt>
      <trkpt lat="42.463951" lon="-5.580556">
        <ele>802.119</ele>
        <time>2021-10-13T18:26:00Z</time>
      </trkpt>
      <trkpt lat="42.464647" lon="-5.580699">
        <ele>802.043</ele>
        <time>2021-10-13T18:26:02Z</time>
      </trkpt>
      <trkpt lat="42.465323" lon="-5.580837">
        <ele>802.964</ele>
        <time>2021-10-13T18:26:04Z</time>
      </trkpt>
      <trkpt lat="42.466757" lon="-5.581139">
        <ele>803.510</ele>
        <time>2021-10-13T18:26:08Z</time>
      </trkpt>
      <trkpt lat="42.467122" lon="-5.581215">
        <ele>803.908</ele>
        <time>2021-10-13T18:26:09Z</time>
      </trkpt>
      <trkpt lat="42.468222" lon="-5.581447">
        <ele>803.832</ele>
        <time>2021-10-13T18:26:12Z</time>
      </trkpt>
      <trkpt lat="42.469701" lon="-5.581787">
        <ele>804.310</ele>
        <time>2021-10-13T18:26:16Z</time>
      </trkpt>
      <trkpt lat="42.471217" lon="-5.582061">
        <ele>804.067</ele>
        <time>2021-10-13T18:26:20Z</time>
      </trkpt>
      <trkpt lat="42.471577" lon="-5.582135">
        <ele>804.277</ele>
        <time>2021-10-13T18:26:21Z</time>
      </trkpt>
      <trkpt lat="42.472285" lon="-5.582283">
        <ele>804.960</ele>
        <time>2021-10-13T18:26:23Z</time>
      </trkpt>
      <trkpt lat="42.472991" lon="-5.582430">
        <ele>805.646</ele>
        <time>2021-10-13T18:26:25Z</time>
      </trkpt>
      <trkpt lat="42.474047" lon="-5.582651">
        <ele>805.755</ele>
        <time>2021-10-13T18:26:28Z</time>
      </trkpt>
      <trkpt lat="42.474751" lon="-5.582807">
        <ele>806.460</ele>
        <time>2021-10-13T18:26:30Z</time>
      </trkpt>
      <trkpt lat="42.475446" lon="-5.582961">
        <ele>806.154</ele>
        <time>2021-10-13T18:26:32Z</time>
      </trkpt>
      <trkpt lat="42.476111" lon="-5.583095">
        <ele>806.156</ele>
        <time>2021-10-13T18:26:34Z</time>
      </trkpt>
      <trkpt lat="42.476458" lon="-5.583166">
        <ele>806.311</ele>
        <time>2021-10-13T18:26:35Z</time>
      </trkpt>
      <trkpt lat="42.477137" lon="-5.583307">
        <ele>806.408</ele>
        <time>2021-10-13T18:26:37Z</time>
      </trkpt>
      <trkpt lat="42.477475" lon="-5.583377">
        <ele>806.563</ele>
        <time>2021-10-13T18:26:38Z</time>
      </trkpt>
      <trkpt lat="42.477809" lon="-5.583447">
        <ele>806.171</ele>
        <time>2021-10-13T18:26:39Z</time>
      </trkpt>
      <trkpt lat="42.478467" lon="-5.583585">
        <ele>805.828</ele>
        <time>2021-10-13T18:26:41Z</time>
      </trkpt>
      <trkpt lat="42.478783" lon="-5.583652">
        <ele>805.968</ele>
        <time>2021-10-13T18:26:42Z</time>
      </trkpt>
      <trkpt lat="42.479080" lon="-5.583714">
        <ele>805.811</ele>
        <time>2021-10-13T18:26:43Z</time>
      </trkpt>
      <trkpt lat="42.479632" lon="-5.583834">
        <ele>806.757</ele>
        <time>2021-10-13T18:26:45Z</time>
      </trkpt>
      <trkpt lat="42.480148" lon="-5.583951">
        <ele>807.096</ele>
        <time>2021-10-13T18:26:47Z</time>
      </trkpt>
      <trkpt lat="42.480656" lon="-5.584064">
        <ele>806.481</ele>
        <time>2021-10-13T18:26:49Z</time>
      </trkpt>
      <trkpt lat="42.481167" lon="-5.584187">
        <ele>806.477</ele>
        <time>2021-10-13T18:26:51Z</time>
      </trkpt>
      <trkpt lat="42.481425" lon="-5.584252">
        <ele>806.561</ele>
        <time>2021-10-13T18:26:52Z</time>
      </trkpt>
      <trkpt lat="42.481679" lon="-5.584322">
        <ele>806.727</ele>
        <time>2021-10-13T18:26:53Z</time>
      </trkpt>
      <trkpt lat="42.481928" lon="-5.584389">
        <ele>806.808</ele>
        <time>2021-10-13T18:26:54Z</time>
      </trkpt>
      <trkpt lat="42.482172" lon="-5.584455">
        <ele>806.665</ele>
        <time>2021-10-13T18:26:55Z</time>
      </trkpt>
      <trkpt lat="42.482393" lon="-5.584513">
        <ele>806.943</ele>
        <time>2021-10-13T18:26:56Z</time>
      </trkpt>
      <trkpt lat="42.482733" lon="-5.584589">
        <ele>808.150</ele>
        <time>2021-10-13T18:26:58Z</time>
      </trkpt>
      <trkpt lat="42.482875" lon="-5.584624">
        <ele>808.460</ele>
        <time>2021-10-13T18:26:59Z</time>
      </trkpt>
      <trkpt lat="42.483002" lon="-5.584659">
        <ele>808.463</ele>
        <time>2021-10-13T18:27:00Z</time>
      </trkpt>
      <trkpt lat="42.483252" lon="-5.584723">
        <ele>807.389</ele>
        <time>2021-10-13T18:27:02Z</time>
      </trkpt>
      <trkpt lat="42.483480" lon="-5.584773">
        <ele>808.128</ele>
        <time>2021-10-13T18:27:04Z</time>
      </trkpt>
      <trkpt lat="42.483592" lon="-5.584796">
        <ele>808.993</ele>
        <time>2021-10-13T18:27:05Z</time>
      </trkpt>
      <trkpt lat="42.483819" lon="-5.584832">
        <ele>808.457</ele>
        <time>2021-10-13T18:27:07Z</time>
      </trkpt>
      <trkpt lat="42.483933" lon="-5.584841">
        <ele>808.200</ele>
        <time>2021-10-13T18:27:08Z</time>
      </trkpt>
      <trkpt lat="42.484160" lon="-5.584837">
        <ele>808.520</ele>
        <time>2021-10-13T18:27:10Z</time>
      </trkpt>
      <trkpt lat="42.484280" lon="-5.584827">
        <ele>808.508</ele>
        <time>2021-10-13T18:27:11Z</time>
      </trkpt>
      <trkpt lat="42.484404" lon="-5.584807">
        <ele>808.413</ele>
        <time>2021-10-13T18:27:12Z</time>
      </trkpt>
      <trkpt lat="42.484665" lon="-5.584732">
        <ele>808.351</ele>
        <time>2021-10-13T18:27:14Z</time>
      </trkpt>
      <trkpt lat="42.484802" lon="-5.584685">
        <ele>807.988</ele>
        <time>2021-10-13T18:27:15Z</time>
      </trkpt>
      <trkpt lat="42.484935" lon="-5.584629">
        <ele>807.938</ele>
        <time>2021-10-13T18:27:16Z</time>
      </trkpt>
      <trkpt lat="42.485057" lon="-5.584567">
        <ele>807.971</ele>
        <time>2021-10-13T18:27:17Z</time>
      </trkpt>
      <trkpt lat="42.485281" lon="-5.584461">
        <ele>808.327</ele>
        <time>2021-10-13T18:27:19Z</time>
      </trkpt>
      <trkpt lat="42.485470" lon="-5.584374">
        <ele>808.316</ele>
        <time>2021-10-13T18:27:21Z</time>
      </trkpt>
      <trkpt lat="42.485557" lon="-5.584332">
        <ele>808.371</ele>
        <time>2021-10-13T18:27:22Z</time>
      </trkpt>
      <trkpt lat="42.485644" lon="-5.584292">
        <ele>808.336</ele>
        <time>2021-10-13T18:27:23Z</time>
      </trkpt>
      <trkpt lat="42.485820" lon="-5.584206">
        <ele>809.017</ele>
        <time>2021-10-13T18:27:25Z</time>
      </trkpt>
      <trkpt lat="42.485907" lon="-5.584163">
        <ele>809.018</ele>
        <time>2021-10-13T18:27:26Z</time>
      </trkpt>
      <trkpt lat="42.486082" lon="-5.584076">
        <ele>809.308</ele>
        <time>2021-10-13T18:27:28Z</time>
      </trkpt>
      <trkpt lat="42.486178" lon="-5.584027">
        <ele>809.811</ele>
        <time>2021-10-13T18:27:29Z</time>
      </trkpt>
      <trkpt lat="42.486374" lon="-5.583915">
        <ele>809.799</ele>
        <time>2021-10-13T18:27:31Z</time>
      </trkpt>
      <trkpt lat="42.486468" lon="-5.583859">
        <ele>809.796</ele>
        <time>2021-10-13T18:27:32Z</time>
      </trkpt>
      <trkpt lat="42.486632" lon="-5.583759">
        <ele>811.326</ele>
        <time>2021-10-13T18:27:34Z</time>
      </trkpt>
      <trkpt lat="42.486714" lon="-5.583706">
        <ele>812.299</ele>
        <time>2021-10-13T18:27:35Z</time>
      </trkpt>
      <trkpt lat="42.486802" lon="-5.583651">
        <ele>812.325</ele>
        <time>2021-10-13T18:27:36Z</time>
      </trkpt>
      <trkpt lat="42.486992" lon="-5.583539">
        <ele>812.334</ele>
        <time>2021-10-13T18:27:38Z</time>
      </trkpt>
      <trkpt lat="42.487090" lon="-5.583482">
        <ele>812.259</ele>
        <time>2021-10-13T18:27:39Z</time>
      </trkpt>
      <trkpt lat="42.487183" lon="-5.583428">
        <ele>812.386</ele>
        <time>2021-10-13T18:27:40Z</time>
      </trkpt>
      <trkpt lat="42.487363" lon="-5.583337">
        <ele>812.360</ele>
        <time>2021-10-13T18:27:42Z</time>
      </trkpt>
      <trkpt lat="42.487465" lon="-5.583299">
        <ele>812.326</ele>
        <time>2021-10-13T18:27:43Z</time>
      </trkpt>
      <trkpt lat="42.487699" lon="-5.583252">
        <ele>811.708</ele>
        <time>2021-10-13T18:27:45Z</time>
      </trkpt>
      <trkpt lat="42.487838" lon="-5.583242">
        <ele>811.526</ele>
        <time>2021-10-13T18:27:46Z</time>
      </trkpt>
      <trkpt lat="42.488158" lon="-5.583236">
        <ele>809.864</ele>
        <time>2021-10-13T18:27:48Z</time>
      </trkpt>
      <trkpt lat="42.488339" lon="-5.583239">
        <ele>808.771</ele>
        <time>2021-10-13T18:27:49Z</time>
      </trkpt>
      <trkpt lat="42.488727" lon="-5.583250">
        <ele>808.021</ele>
        <time>2021-10-13T18:27:51Z</time>
      </trkpt>
      <trkpt lat="42.488933" lon="-5.583256">
        <ele>807.494</ele>
        <time>2021-10-13T18:27:52Z</time>
      </trkpt>
      <trkpt lat="42.489365" lon="-5.583271">
        <ele>807.190</ele>
        <time>2021-10-13T18:27:54Z</time>
      </trkpt>
      <trkpt lat="42.489831" lon="-5.583294">
        <ele>807.179</ele>
        <time>2021-10-13T18:27:56Z</time>
      </trkpt>
      <trkpt lat="42.490290" lon="-5.583315">
        <ele>806.684</ele>
        <time>2021-10-13T18:27:58Z</time>
      </trkpt>
      <trkpt lat="42.490549" lon="-5.583329">
        <ele>807.311</ele>
        <time>2021-10-13T18:27:59Z</time>
      </trkpt>
      <trkpt lat="42.490825" lon="-5.583342">
        <ele>807.421</ele>
        <time>2021-10-13T18:28:00Z</time>
      </trkpt>
      <trkpt lat="42.491418" lon="-5.583350">
        <ele>807.103</ele>
        <time>2021-10-13T18:28:02Z</time>
      </trkpt>
      <trkpt lat="42.492017" lon="-5.583342">
        <ele>807.608</ele>
        <time>2021-10-13T18:28:04Z</time>
      </trkpt>
      <trkpt lat="42.492316" lon="-5.583339">
        <ele>807.139</ele>
        <time>2021-10-13T18:28:05Z</time>
      </trkpt>
      <trkpt lat="42.492613" lon="-5.583348">
        <ele>806.877</ele>
        <time>2021-10-13T18:28:06Z</time>
      </trkpt>
      <trkpt lat="42.493189" lon="-5.583364">
        <ele>807.014</ele>
        <time>2021-10-13T18:28:08Z</time>
      </trkpt>
      <trkpt lat="42.493456" lon="-5.583371">
        <ele>806.644</ele>
        <time>2021-10-13T18:28:09Z</time>
      </trkpt>
      <trkpt lat="42.493949" lon="-5.583389">
        <ele>806.937</ele>
        <time>2021-10-13T18:28:11Z</time>
      </trkpt>
      <trkpt lat="42.494394" lon="-5.583400">
        <ele>805.563</ele>
        <time>2021-10-13T18:28:13Z</time>
      </trkpt>
      <trkpt lat="42.494599" lon="-5.583404">
        <ele>805.482</ele>
        <time>2021-10-13T18:28:14Z</time>
      </trkpt>
      <trkpt lat="42.494958" lon="-5.583415">
        <ele>806.017</ele>
        <time>2021-10-13T18:28:16Z</time>
      </trkpt>
      <trkpt lat="42.495116" lon="-5.583422">
        <ele>805.851</ele>
        <time>2021-10-13T18:28:17Z</time>
      </trkpt>
      <trkpt lat="42.495261" lon="-5.583425">
        <ele>805.501</ele>
        <time>2021-10-13T18:28:18Z</time>
      </trkpt>
      <trkpt lat="42.495525" lon="-5.583410">
        <ele>804.111</ele>
        <time>2021-10-13T18:28:20Z</time>
      </trkpt>
      <trkpt lat="42.495645" lon="-5.583378">
        <ele>803.408</ele>
        <time>2021-10-13T18:28:21Z</time>
      </trkpt>
      <trkpt lat="42.495753" lon="-5.583325">
        <ele>803.113</ele>
        <time>2021-10-13T18:28:22Z</time>
      </trkpt>
      <trkpt lat="42.495849" lon="-5.583262">
        <ele>802.941</ele>
        <time>2021-10-13T18:28:23Z</time>
      </trkpt>
      <trkpt lat="42.496029" lon="-5.583215">
        <ele>802.988</ele>
        <time>2021-10-13T18:28:25Z</time>
      </trkpt>
      <trkpt lat="42.496120" lon="-5.583262">
        <ele>802.748</ele>
        <time>2021-10-13T18:28:26Z</time>
      </trkpt>
      <trkpt lat="42.496320" lon="-5.583425">
        <ele>803.081</ele>
        <time>2021-10-13T18:28:28Z</time>
      </trkpt>
      <trkpt lat="42.496454" lon="-5.583471">
        <ele>803.087</ele>
        <time>2021-10-13T18:28:29Z</time>
      </trkpt>
      <trkpt lat="42.496624" lon="-5.583487">
        <ele>803.226</ele>
        <time>2021-10-13T18:28:30Z</time>
      </trkpt>
      <trkpt lat="42.497074" lon="-5.583479">
        <ele>804.031</ele>
        <time>2021-10-13T18:28:32Z</time>
      </trkpt>
      <trkpt lat="42.497588" lon="-5.583494">
        <ele>803.015</ele>
        <time>2021-10-13T18:28:34Z</time>
      </trkpt>
      <trkpt lat="42.497863" lon="-5.583502">
        <ele>802.365</ele>
        <time>2021-10-13T18:28:35Z</time>
      </trkpt>
      <trkpt lat="42.498148" lon="-5.583511">
        <ele>803.011</ele>
        <time>2021-10-13T18:28:36Z</time>
      </trkpt>
      <trkpt lat="42.498718" lon="-5.583524">
        <ele>801.008</ele>
        <time>2021-10-13T18:28:38Z</time>
      </trkpt>
      <trkpt lat="42.499013" lon="-5.583530">
        <ele>800.569</ele>
        <time>2021-10-13T18:28:39Z</time>
      </trkpt>
      <trkpt lat="42.499612" lon="-5.583553">
        <ele>801.337</ele>
        <time>2021-10-13T18:28:41Z</time>
      </trkpt>
      <trkpt lat="42.500222" lon="-5.583575">
        <ele>801.074</ele>
        <time>2021-10-13T18:28:43Z</time>
      </trkpt>
      <trkpt lat="42.500522" lon="-5.583585">
        <ele>801.584</ele>
        <time>2021-10-13T18:28:44Z</time>
      </trkpt>
      <trkpt lat="42.500817" lon="-5.583594">
        <ele>801.537</ele>
        <time>2021-10-13T18:28:45Z</time>
      </trkpt>
      <trkpt lat="42.501372" lon="-5.583604">
        <ele>801.793</ele>
        <time>2021-10-13T18:28:47Z</time>
      </trkpt>
      <trkpt lat="42.501636" lon="-5.583608">
        <ele>801.812</ele>
        <time>2021-10-13T18:28:48Z</time>
      </trkpt>
      <trkpt lat="42.502145" lon="-5.583629">
        <ele>802.577</ele>
        <time>2021-10-13T18:28:50Z</time>
      </trkpt>
      <trkpt lat="42.502402" lon="-5.583639">
        <ele>803.017</ele>
        <time>2021-10-13T18:28:51Z</time>
      </trkpt>
      <trkpt lat="42.502921" lon="-5.583653">
        <ele>802.187</ele>
        <time>2021-10-13T18:28:53Z</time>
      </trkpt>
      <trkpt lat="42.503456" lon="-5.583672">
        <ele>803.215</ele>
        <time>2021-10-13T18:28:55Z</time>
      </trkpt>
      <trkpt lat="42.503747" lon="-5.583682">
        <ele>802.708</ele>
        <time>2021-10-13T18:28:56Z</time>
      </trkpt>
      <trkpt lat="42.504313" lon="-5.583698">
        <ele>802.749</ele>
        <time>2021-10-13T18:28:58Z</time>
      </trkpt>
      <trkpt lat="42.504906" lon="-5.583710">
        <ele>803.067</ele>
        <time>2021-10-13T18:29:00Z</time>
      </trkpt>
      <trkpt lat="42.505205" lon="-5.583722">
        <ele>803.274</ele>
        <time>2021-10-13T18:29:01Z</time>
      </trkpt>
      <trkpt lat="42.505504" lon="-5.583733">
        <ele>802.974</ele>
        <time>2021-10-13T18:29:02Z</time>
      </trkpt>
      <trkpt lat="42.506076" lon="-5.583749">
        <ele>802.427</ele>
        <time>2021-10-13T18:29:04Z</time>
      </trkpt>
      <trkpt lat="42.506363" lon="-5.583756">
        <ele>802.353</ele>
        <time>2021-10-13T18:29:05Z</time>
      </trkpt>
      <trkpt lat="42.506915" lon="-5.583771">
        <ele>803.392</ele>
        <time>2021-10-13T18:29:07Z</time>
      </trkpt>
      <trkpt lat="42.507430" lon="-5.583779">
        <ele>803.147</ele>
        <time>2021-10-13T18:29:09Z</time>
      </trkpt>
      <trkpt lat="42.507684" lon="-5.583786">
        <ele>803.312</ele>
        <time>2021-10-13T18:29:10Z</time>
      </trkpt>
      <trkpt lat="42.508178" lon="-5.583795">
        <ele>803.332</ele>
        <time>2021-10-13T18:29:12Z</time>
      </trkpt>
      <trkpt lat="42.508415" lon="-5.583802">
        <ele>804.205</ele>
        <time>2021-10-13T18:29:13Z</time>
      </trkpt>
      <trkpt lat="42.508648" lon="-5.583810">
        <ele>804.308</ele>
        <time>2021-10-13T18:29:14Z</time>
      </trkpt>
      <trkpt lat="42.509103" lon="-5.583825">
        <ele>803.929</ele>
        <time>2021-10-13T18:29:16Z</time>
      </trkpt>
      <trkpt lat="42.509585" lon="-5.583839">
        <ele>804.157</ele>
        <time>2021-10-13T18:29:18Z</time>
      </trkpt>
      <trkpt lat="42.509847" lon="-5.583846">
        <ele>804.924</ele>
        <time>2021-10-13T18:29:19Z</time>
      </trkpt>
      <trkpt lat="42.510119" lon="-5.583850">
        <ele>805.944</ele>
        <time>2021-10-13T18:29:20Z</time>
      </trkpt>
      <trkpt lat="42.510397" lon="-5.583860">
        <ele>806.127</ele>
        <time>2021-10-13T18:29:21Z</time>
      </trkpt>
      <trkpt lat="42.510681" lon="-5.583870">
        <ele>805.943</ele>
        <time>2021-10-13T18:29:22Z</time>
      </trkpt>
      <trkpt lat="42.511257" lon="-5.583892">
        <ele>805.642</ele>
        <time>2021-10-13T18:29:24Z</time>
      </trkpt>
      <trkpt lat="42.511547" lon="-5.583901">
        <ele>805.937</ele>
        <time>2021-10-13T18:29:25Z</time>
      </trkpt>
      <trkpt lat="42.511846" lon="-5.583906">
        <ele>806.224</ele>
        <time>2021-10-13T18:29:26Z</time>
      </trkpt>
      <trkpt lat="42.512417" lon="-5.583925">
        <ele>805.404</ele>
        <time>2021-10-13T18:29:28Z</time>
      </trkpt>
      <trkpt lat="42.512994" lon="-5.583945">
        <ele>806.114</ele>
        <time>2021-10-13T18:29:30Z</time>
      </trkpt>
      <trkpt lat="42.513580" lon="-5.583957">
        <ele>805.608</ele>
        <time>2021-10-13T18:29:32Z</time>
      </trkpt>
      <trkpt lat="42.514145" lon="-5.583980">
        <ele>805.840</ele>
        <time>2021-10-13T18:29:34Z</time>
      </trkpt>
      <trkpt lat="42.514684" lon="-5.584000">
        <ele>806.568</ele>
        <time>2021-10-13T18:29:36Z</time>
      </trkpt>
      <trkpt lat="42.515208" lon="-5.584012">
        <ele>805.635</ele>
        <time>2021-10-13T18:29:38Z</time>
      </trkpt>
      <trkpt lat="42.515475" lon="-5.584016">
        <ele>806.545</ele>
        <time>2021-10-13T18:29:39Z</time>
      </trkpt>
      <trkpt lat="42.516015" lon="-5.584026">
        <ele>805.978</ele>
        <time>2021-10-13T18:29:41Z</time>
      </trkpt>
      <trkpt lat="42.516291" lon="-5.584036">
        <ele>806.254</ele>
        <time>2021-10-13T18:29:42Z</time>
      </trkpt>
      <trkpt lat="42.516567" lon="-5.584045">
        <ele>806.533</ele>
        <time>2021-10-13T18:29:43Z</time>
      </trkpt>
      <trkpt lat="42.516846" lon="-5.584054">
        <ele>806.588</ele>
        <time>2021-10-13T18:29:44Z</time>
      </trkpt>
      <trkpt lat="42.517129" lon="-5.584063">
        <ele>806.856</ele>
        <time>2021-10-13T18:29:45Z</time>
      </trkpt>
      <trkpt lat="42.517685" lon="-5.584079">
        <ele>807.759</ele>
        <time>2021-10-13T18:29:47Z</time>
      </trkpt>
      <trkpt lat="42.517961" lon="-5.584086">
        <ele>807.514</ele>
        <time>2021-10-13T18:29:48Z</time>
      </trkpt>
      <trkpt lat="42.518487" lon="-5.584101">
        <ele>807.308</ele>
        <time>2021-10-13T18:29:50Z</time>
      </trkpt>
      <trkpt lat="42.518746" lon="-5.584103">
        <ele>807.633</ele>
        <time>2021-10-13T18:29:51Z</time>
      </trkpt>
      <trkpt lat="42.519261" lon="-5.584117">
        <ele>807.561</ele>
        <time>2021-10-13T18:29:53Z</time>
      </trkpt>
      <trkpt lat="42.519813" lon="-5.584128">
        <ele>807.438</ele>
        <time>2021-10-13T18:29:55Z</time>
      </trkpt>
      <trkpt lat="42.520111" lon="-5.584139">
        <ele>807.568</ele>
        <time>2021-10-13T18:29:56Z</time>
      </trkpt>
      <trkpt lat="42.520697" lon="-5.584155">
        <ele>807.671</ele>
        <time>2021-10-13T18:29:58Z</time>
      </trkpt>
      <trkpt lat="42.521310" lon="-5.584174">
        <ele>807.747</ele>
        <time>2021-10-13T18:30:00Z</time>
      </trkpt>
      <trkpt lat="42.521616" lon="-5.584184">
        <ele>807.926</ele>
        <time>2021-10-13T18:30:01Z</time>
      </trkpt>
      <trkpt lat="42.521925" lon="-5.584193">
        <ele>808.181</ele>
        <time>2021-10-13T18:30:02Z</time>
      </trkpt>
      <trkpt lat="42.522471" lon="-5.584208">
        <ele>807.454</ele>
        <time>2021-10-13T18:30:04Z</time>
      </trkpt>
      <trkpt lat="42.523000" lon="-5.584221">
        <ele>808.156</ele>
        <time>2021-10-13T18:30:06Z</time>
      </trkpt>
      <trkpt lat="42.523543" lon="-5.584227">
        <ele>808.711</ele>
        <time>2021-10-13T18:30:08Z</time>
      </trkpt>
      <trkpt lat="42.523822" lon="-5.584232">
        <ele>808.808</ele>
        <time>2021-10-13T18:30:09Z</time>
      </trkpt>
      <trkpt lat="42.524084" lon="-5.584237">
        <ele>809.373</ele>
        <time>2021-10-13T18:30:10Z</time>
      </trkpt>
      <trkpt lat="42.524570" lon="-5.584246">
        <ele>809.411</ele>
        <time>2021-10-13T18:30:12Z</time>
      </trkpt>
      <trkpt lat="42.524803" lon="-5.584246">
        <ele>809.338</ele>
        <time>2021-10-13T18:30:13Z</time>
      </trkpt>
      <trkpt lat="42.525276" lon="-5.584226">
        <ele>808.888</ele>
        <time>2021-10-13T18:30:15Z</time>
      </trkpt>
      <trkpt lat="42.525762" lon="-5.584199">
        <ele>808.381</ele>
        <time>2021-10-13T18:30:17Z</time>
      </trkpt>
      <trkpt lat="42.526251" lon="-5.584175">
        <ele>808.277</ele>
        <time>2021-10-13T18:30:19Z</time>
      </trkpt>
      <trkpt lat="42.526740" lon="-5.584151">
        <ele>807.846</ele>
        <time>2021-10-13T18:30:21Z</time>
      </trkpt>
      <trkpt lat="42.527230" lon="-5.584123">
        <ele>808.291</ele>
        <time>2021-10-13T18:30:23Z</time>
      </trkpt>
      <trkpt lat="42.527709" lon="-5.584097">
        <ele>808.781</ele>
        <time>2021-10-13T18:30:25Z</time>
      </trkpt>
      <trkpt lat="42.527948" lon="-5.584085">
        <ele>808.461</ele>
        <time>2021-10-13T18:30:26Z</time>
      </trkpt>
      <trkpt lat="42.528400" lon="-5.584069">
        <ele>808.417</ele>
        <time>2021-10-13T18:30:28Z</time>
      </trkpt>
      <trkpt lat="42.528857" lon="-5.584041">
        <ele>809.208</ele>
        <time>2021-10-13T18:30:30Z</time>
      </trkpt>
      <trkpt lat="42.529088" lon="-5.584028">
        <ele>809.476</ele>
        <time>2021-10-13T18:30:31Z</time>
      </trkpt>
      <trkpt lat="42.529325" lon="-5.584020">
        <ele>809.594</ele>
        <time>2021-10-13T18:30:32Z</time>
      </trkpt>
      <trkpt lat="42.529786" lon="-5.584002">
        <ele>809.691</ele>
        <time>2021-10-13T18:30:34Z</time>
      </trkpt>
      <trkpt lat="42.530022" lon="-5.583991">
        <ele>810.211</ele>
        <time>2021-10-13T18:30:35Z</time>
      </trkpt>
      <trkpt lat="42.530255" lon="-5.583975">
        <ele>810.324</ele>
        <time>2021-10-13T18:30:36Z</time>
      </trkpt>
      <trkpt lat="42.530704" lon="-5.583945">
        <ele>810.790</ele>
        <time>2021-10-13T18:30:38Z</time>
      </trkpt>
      <trkpt lat="42.530926" lon="-5.583933">
        <ele>810.839</ele>
        <time>2021-10-13T18:30:39Z</time>
      </trkpt>
      <trkpt lat="42.531374" lon="-5.583911">
        <ele>810.624</ele>
        <time>2021-10-13T18:30:41Z</time>
      </trkpt>
      <trkpt lat="42.531600" lon="-5.583899">
        <ele>811.389</ele>
        <time>2021-10-13T18:30:42Z</time>
      </trkpt>
      <trkpt lat="42.531828" lon="-5.583891">
        <ele>811.606</ele>
        <time>2021-10-13T18:30:43Z</time>
      </trkpt>
      <trkpt lat="42.532298" lon="-5.583863">
        <ele>811.926</ele>
        <time>2021-10-13T18:30:45Z</time>
      </trkpt>
      <trkpt lat="42.532546" lon="-5.583848">
        <ele>812.408</ele>
        <time>2021-10-13T18:30:46Z</time>
      </trkpt>
      <trkpt lat="42.533044" lon="-5.583826">
        <ele>812.546</ele>
        <time>2021-10-13T18:30:48Z</time>
      </trkpt>
      <trkpt lat="42.533492" lon="-5.583802">
        <ele>813.534</ele>
        <time>2021-10-13T18:30:50Z</time>
      </trkpt>
      <trkpt lat="42.533911" lon="-5.583779">
        <ele>813.731</ele>
        <time>2021-10-13T18:30:52Z</time>
      </trkpt>
      <trkpt lat="42.534130" lon="-5.583767">
        <ele>813.241</ele>
        <time>2021-10-13T18:30:53Z</time>
      </trkpt>
      <trkpt lat="42.534579" lon="-5.583742">
        <ele>813.644</ele>
        <time>2021-10-13T18:30:55Z</time>
      </trkpt>
      <trkpt lat="42.534818" lon="-5.583734">
        <ele>813.230</ele>
        <time>2021-10-13T18:30:56Z</time>
      </trkpt>
      <trkpt lat="42.535279" lon="-5.583704">
        <ele>813.539</ele>
        <time>2021-10-13T18:30:58Z</time>
      </trkpt>
      <trkpt lat="42.535749" lon="-5.583670">
        <ele>813.574</ele>
        <time>2021-10-13T18:31:00Z</time>
      </trkpt>
      <trkpt lat="42.535981" lon="-5.583656">
        <ele>813.678</ele>
        <time>2021-10-13T18:31:01Z</time>
      </trkpt>
      <trkpt lat="42.536208" lon="-5.583645">
        <ele>813.933</ele>
        <time>2021-10-13T18:31:02Z</time>
      </trkpt>
      <trkpt lat="42.536593" lon="-5.583636">
        <ele>813.326</ele>
        <time>2021-10-13T18:31:04Z</time>
      </trkpt>
      <trkpt lat="42.536920" lon="-5.583620">
        <ele>813.308</ele>
        <time>2021-10-13T18:31:06Z</time>
      </trkpt>
      <trkpt lat="42.537198" lon="-5.583611">
        <ele>814.175</ele>
        <time>2021-10-13T18:31:08Z</time>
      </trkpt>
      <trkpt lat="42.537327" lon="-5.583607">
        <ele>814.013</ele>
        <time>2021-10-13T18:31:09Z</time>
      </trkpt>
      <trkpt lat="42.537448" lon="-5.583605">
        <ele>813.430</ele>
        <time>2021-10-13T18:31:10Z</time>
      </trkpt>
      <trkpt lat="42.537563" lon="-5.583599">
        <ele>813.330</ele>
        <time>2021-10-13T18:31:11Z</time>
      </trkpt>
      <trkpt lat="42.537781" lon="-5.583581">
        <ele>813.093</ele>
        <time>2021-10-13T18:31:13Z</time>
      </trkpt>
      <trkpt lat="42.537997" lon="-5.583568">
        <ele>812.859</ele>
        <time>2021-10-13T18:31:15Z</time>
      </trkpt>
      <trkpt lat="42.538198" lon="-5.583554">
        <ele>812.868</ele>
        <time>2021-10-13T18:31:17Z</time>
      </trkpt>
      <trkpt lat="42.538293" lon="-5.583550">
        <ele>812.853</ele>
        <time>2021-10-13T18:31:18Z</time>
      </trkpt>
      <trkpt lat="42.538382" lon="-5.583545">
        <ele>812.811</ele>
        <time>2021-10-13T18:31:19Z</time>
      </trkpt>
      <trkpt lat="42.538543" lon="-5.583527">
        <ele>812.021</ele>
        <time>2021-10-13T18:31:21Z</time>
      </trkpt>
      <trkpt lat="42.538617" lon="-5.583509">
        <ele>812.003</ele>
        <time>2021-10-13T18:31:22Z</time>
      </trkpt>
      <trkpt lat="42.538753" lon="-5.583442">
        <ele>812.108</ele>
        <time>2021-10-13T18:31:24Z</time>
      </trkpt>
      <trkpt lat="42.538829" lon="-5.583381">
        <ele>812.169</ele>
        <time>2021-10-13T18:31:25Z</time>
      </trkpt>
      <trkpt lat="42.538913" lon="-5.583315">
        <ele>812.117</ele>
        <time>2021-10-13T18:31:26Z</time>
      </trkpt>
      <trkpt lat="42.539072" lon="-5.583248">
        <ele>812.194</ele>
        <time>2021-10-13T18:31:28Z</time>
      </trkpt>
      <trkpt lat="42.539231" lon="-5.583293">
        <ele>812.414</ele>
        <time>2021-10-13T18:31:30Z</time>
      </trkpt>
      <trkpt lat="42.539310" lon="-5.583352">
        <ele>812.617</ele>
        <time>2021-10-13T18:31:31Z</time>
      </trkpt>
      <trkpt lat="42.539397" lon="-5.583422">
        <ele>812.653</ele>
        <time>2021-10-13T18:31:32Z</time>
      </trkpt>
      <trkpt lat="42.539585" lon="-5.583490">
        <ele>812.372</ele>
        <time>2021-10-13T18:31:34Z</time>
      </trkpt>
      <trkpt lat="42.539815" lon="-5.583477">
        <ele>812.777</ele>
        <time>2021-10-13T18:31:36Z</time>
      </trkpt>
      <trkpt lat="42.540085" lon="-5.583461">
        <ele>813.157</ele>
        <time>2021-10-13T18:31:38Z</time>
      </trkpt>
      <trkpt lat="42.540406" lon="-5.583466">
        <ele>814.200</ele>
        <time>2021-10-13T18:31:40Z</time>
      </trkpt>
      <trkpt lat="42.540803" lon="-5.583453">
        <ele>814.020</ele>
        <time>2021-10-13T18:31:42Z</time>
      </trkpt>
      <trkpt lat="42.541270" lon="-5.583397">
        <ele>814.008</ele>
        <time>2021-10-13T18:31:44Z</time>
      </trkpt>
      <trkpt lat="42.541790" lon="-5.583378">
        <ele>814.333</ele>
        <time>2021-10-13T18:31:46Z</time>
      </trkpt>
      <trkpt lat="42.542071" lon="-5.583369">
        <ele>814.381</ele>
        <time>2021-10-13T18:31:47Z</time>
      </trkpt>
      <trkpt lat="42.542362" lon="-5.583358">
        <ele>814.398</ele>
        <time>2021-10-13T18:31:48Z</time>
      </trkpt>
      <trkpt lat="42.542958" lon="-5.583327">
        <ele>813.918</ele>
        <time>2021-10-13T18:31:50Z</time>
      </trkpt>
      <trkpt lat="42.543539" lon="-5.583299">
        <ele>814.491</ele>
        <time>2021-10-13T18:31:52Z</time>
      </trkpt>
      <trkpt lat="42.544079" lon="-5.583272">
        <ele>814.317</ele>
        <time>2021-10-13T18:31:54Z</time>
      </trkpt>
      <trkpt lat="42.544623" lon="-5.583248">
        <ele>814.226</ele>
        <time>2021-10-13T18:31:56Z</time>
      </trkpt>
      <trkpt lat="42.545108" lon="-5.583226">
        <ele>815.021</ele>
        <time>2021-10-13T18:31:58Z</time>
      </trkpt>
      <trkpt lat="42.545341" lon="-5.583212">
        <ele>815.088</ele>
        <time>2021-10-13T18:31:59Z</time>
      </trkpt>
      <trkpt lat="42.545566" lon="-5.583199">
        <ele>815.324</ele>
        <time>2021-10-13T18:32:00Z</time>
      </trkpt>
      <trkpt lat="42.546024" lon="-5.583171">
        <ele>815.126</ele>
        <time>2021-10-13T18:32:02Z</time>
      </trkpt>
      <trkpt lat="42.546459" lon="-5.583149">
        <ele>815.008</ele>
        <time>2021-10-13T18:32:04Z</time>
      </trkpt>
      <trkpt lat="42.546862" lon="-5.583131">
        <ele>815.346</ele>
        <time>2021-10-13T18:32:06Z</time>
      </trkpt>
      <trkpt lat="42.547049" lon="-5.583123">
        <ele>814.884</ele>
        <time>2021-10-13T18:32:07Z</time>
      </trkpt>
      <trkpt lat="42.547395" lon="-5.583103">
        <ele>815.411</ele>
        <time>2021-10-13T18:32:09Z</time>
      </trkpt>
      <trkpt lat="42.547544" lon="-5.583089">
        <ele>816.421</ele>
        <time>2021-10-13T18:32:10Z</time>
      </trkpt>
      <trkpt lat="42.547781" lon="-5.583017">
        <ele>815.764</ele>
        <time>2021-10-13T18:32:12Z</time>
      </trkpt>
      <trkpt lat="42.547968" lon="-5.582888">
        <ele>814.870</ele>
        <time>2021-10-13T18:32:14Z</time>
      </trkpt>
      <trkpt lat="42.548060" lon="-5.582837">
        <ele>815.199</ele>
        <time>2021-10-13T18:32:15Z</time>
      </trkpt>
      <trkpt lat="42.548248" lon="-5.582834">
        <ele>815.154</ele>
        <time>2021-10-13T18:32:17Z</time>
      </trkpt>
      <trkpt lat="42.548486" lon="-5.582955">
        <ele>815.573</ele>
        <time>2021-10-13T18:32:19Z</time>
      </trkpt>
      <trkpt lat="42.548826" lon="-5.583022">
        <ele>815.885</ele>
        <time>2021-10-13T18:32:21Z</time>
      </trkpt>
      <trkpt lat="42.549246" lon="-5.583011">
        <ele>816.513</ele>
        <time>2021-10-13T18:32:23Z</time>
      </trkpt>
      <trkpt lat="42.549659" lon="-5.582983">
        <ele>817.208</ele>
        <time>2021-10-13T18:32:25Z</time>
      </trkpt>
      <trkpt lat="42.549878" lon="-5.582971">
        <ele>817.415</ele>
        <time>2021-10-13T18:32:26Z</time>
      </trkpt>
      <trkpt lat="42.550321" lon="-5.582955">
        <ele>816.733</ele>
        <time>2021-10-13T18:32:28Z</time>
      </trkpt>
      <trkpt lat="42.550546" lon="-5.582948">
        <ele>816.710</ele>
        <time>2021-10-13T18:32:29Z</time>
      </trkpt>
      <trkpt lat="42.550970" lon="-5.582934">
        <ele>817.430</ele>
        <time>2021-10-13T18:32:31Z</time>
      </trkpt>
      <trkpt lat="42.551182" lon="-5.582920">
        <ele>817.463</ele>
        <time>2021-10-13T18:32:32Z</time>
      </trkpt>
      <trkpt lat="42.551622" lon="-5.582896">
        <ele>817.499</ele>
        <time>2021-10-13T18:32:34Z</time>
      </trkpt>
      <trkpt lat="42.552120" lon="-5.582879">
        <ele>817.768</ele>
        <time>2021-10-13T18:32:36Z</time>
      </trkpt>
      <trkpt lat="42.552383" lon="-5.582871">
        <ele>818.163</ele>
        <time>2021-10-13T18:32:37Z</time>
      </trkpt>
      <trkpt lat="42.552903" lon="-5.582851">
        <ele>819.083</ele>
        <time>2021-10-13T18:32:39Z</time>
      </trkpt>
      <trkpt lat="42.553368" lon="-5.582803">
        <ele>818.525</ele>
        <time>2021-10-13T18:32:41Z</time>
      </trkpt>
      <trkpt lat="42.553585" lon="-5.582785">
        <ele>818.517</ele>
        <time>2021-10-13T18:32:42Z</time>
      </trkpt>
      <trkpt lat="42.553984" lon="-5.582768">
        <ele>818.608</ele>
        <time>2021-10-13T18:32:44Z</time>
      </trkpt>
      <trkpt lat="42.554326" lon="-5.582757">
        <ele>818.966</ele>
        <time>2021-10-13T18:32:46Z</time>
      </trkpt>
      <trkpt lat="42.554478" lon="-5.582749">
        <ele>818.944</ele>
        <time>2021-10-13T18:32:47Z</time>
      </trkpt>
      <trkpt lat="42.554622" lon="-5.582744">
        <ele>818.571</ele>
        <time>2021-10-13T18:32:48Z</time>
      </trkpt>
      <trkpt lat="42.554895" lon="-5.582732">
        <ele>818.241</ele>
        <time>2021-10-13T18:32:50Z</time>
      </trkpt>
      <trkpt lat="42.555191" lon="-5.582713">
        <ele>818.564</ele>
        <time>2021-10-13T18:32:52Z</time>
      </trkpt>
      <trkpt lat="42.555523" lon="-5.582692">
        <ele>818.140</ele>
        <time>2021-10-13T18:32:54Z</time>
      </trkpt>
      <trkpt lat="42.555848" lon="-5.582669">
        <ele>816.979</ele>
        <time>2021-10-13T18:32:56Z</time>
      </trkpt>
      <trkpt lat="42.556145" lon="-5.582629">
        <ele>815.284</ele>
        <time>2021-10-13T18:32:58Z</time>
      </trkpt>
      <trkpt lat="42.556430" lon="-5.582559">
        <ele>814.471</ele>
        <time>2021-10-13T18:33:00Z</time>
      </trkpt>
      <trkpt lat="42.556571" lon="-5.582515">
        <ele>813.541</ele>
        <time>2021-10-13T18:33:01Z</time>
      </trkpt>
      <trkpt lat="42.556710" lon="-5.582469">
        <ele>812.315</ele>
        <time>2021-10-13T18:33:02Z</time>
      </trkpt>
      <trkpt lat="42.556991" lon="-5.582375">
        <ele>811.108</ele>
        <time>2021-10-13T18:33:04Z</time>
      </trkpt>
      <trkpt lat="42.557139" lon="-5.582325">
        <ele>810.975</ele>
        <time>2021-10-13T18:33:05Z</time>
      </trkpt>
      <trkpt lat="42.557414" lon="-5.582225">
        <ele>812.083</ele>
        <time>2021-10-13T18:33:07Z</time>
      </trkpt>
      <trkpt lat="42.557669" lon="-5.582129">
        <ele>811.680</ele>
        <time>2021-10-13T18:33:09Z</time>
      </trkpt>
      <trkpt lat="42.557789" lon="-5.582084">
        <ele>811.320</ele>
        <time>2021-10-13T18:33:10Z</time>
      </trkpt>
      <trkpt lat="42.558036" lon="-5.581992">
        <ele>810.583</ele>
        <time>2021-10-13T18:33:12Z</time>
      </trkpt>
      <trkpt lat="42.558169" lon="-5.581948">
        <ele>811.399</ele>
        <time>2021-10-13T18:33:13Z</time>
      </trkpt>
      <trkpt lat="42.558452" lon="-5.581850">
        <ele>810.518</ele>
        <time>2021-10-13T18:33:15Z</time>
      </trkpt>
      <trkpt lat="42.558590" lon="-5.581803">
        <ele>809.823</ele>
        <time>2021-10-13T18:33:16Z</time>
      </trkpt>
      <trkpt lat="42.558722" lon="-5.581760">
        <ele>810.056</ele>
        <time>2021-10-13T18:33:17Z</time>
      </trkpt>
      <trkpt lat="42.558969" lon="-5.581690">
        <ele>809.859</ele>
        <time>2021-10-13T18:33:19Z</time>
      </trkpt>
      <trkpt lat="42.559208" lon="-5.581648">
        <ele>809.814</ele>
        <time>2021-10-13T18:33:21Z</time>
      </trkpt>
      <trkpt lat="42.559478" lon="-5.581644">
        <ele>809.608</ele>
        <time>2021-10-13T18:33:23Z</time>
      </trkpt>
      <trkpt lat="42.559762" lon="-5.581678">
        <ele>809.213</ele>
        <time>2021-10-13T18:33:25Z</time>
      </trkpt>
      <trkpt lat="42.559906" lon="-5.581693">
        <ele>809.271</ele>
        <time>2021-10-13T18:33:26Z</time>
      </trkpt>
      <trkpt lat="42.560172" lon="-5.581716">
        <ele>809.448</ele>
        <time>2021-10-13T18:33:28Z</time>
      </trkpt>
      <trkpt lat="42.560415" lon="-5.581742">
        <ele>809.398</ele>
        <time>2021-10-13T18:33:30Z</time>
      </trkpt>
      <trkpt lat="42.560524" lon="-5.581750">
        <ele>809.481</ele>
        <time>2021-10-13T18:33:31Z</time>
      </trkpt>
      <trkpt lat="42.560631" lon="-5.581759">
        <ele>809.857</ele>
        <time>2021-10-13T18:33:32Z</time>
      </trkpt>
      <trkpt lat="42.560808" lon="-5.581771">
        <ele>810.556</ele>
        <time>2021-10-13T18:33:34Z</time>
      </trkpt>
      <trkpt lat="42.560878" lon="-5.581777">
        <ele>810.561</ele>
        <time>2021-10-13T18:33:35Z</time>
      </trkpt>
      <trkpt lat="42.561011" lon="-5.581789">
        <ele>810.211</ele>
        <time>2021-10-13T18:33:37Z</time>
      </trkpt>
      <trkpt lat="42.561072" lon="-5.581791">
        <ele>810.121</ele>
        <time>2021-10-13T18:33:38Z</time>
      </trkpt>
      <trkpt lat="42.561181" lon="-5.581799">
        <ele>810.003</ele>
        <time>2021-10-13T18:33:40Z</time>
      </trkpt>
      <trkpt lat="42.561234" lon="-5.581808">
        <ele>810.008</ele>
        <time>2021-10-13T18:33:41Z</time>
      </trkpt>
      <trkpt lat="42.561351" lon="-5.581821">
        <ele>810.359</ele>
        <time>2021-10-13T18:33:43Z</time>
      </trkpt>
      <trkpt lat="42.561418" lon="-5.581826">
        <ele>810.377</ele>
        <time>2021-10-13T18:33:44Z</time>
      </trkpt>
      <trkpt lat="42.561537" lon="-5.581837">
        <ele>810.434</ele>
        <time>2021-10-13T18:33:46Z</time>
      </trkpt>
      <trkpt lat="42.561641" lon="-5.581851">
        <ele>809.744</ele>
        <time>2021-10-13T18:33:48Z</time>
      </trkpt>
      <trkpt lat="42.561703" lon="-5.581858">
        <ele>809.797</ele>
        <time>2021-10-13T18:33:49Z</time>
      </trkpt>
      <trkpt lat="42.561845" lon="-5.581875">
        <ele>809.293</ele>
        <time>2021-10-13T18:33:51Z</time>
      </trkpt>
      <trkpt lat="42.562006" lon="-5.581893">
        <ele>809.282</ele>
        <time>2021-10-13T18:33:53Z</time>
      </trkpt>
      <trkpt lat="42.562096" lon="-5.581903">
        <ele>809.057</ele>
        <time>2021-10-13T18:33:54Z</time>
      </trkpt>
      <trkpt lat="42.562190" lon="-5.581914">
        <ele>808.849</ele>
        <time>2021-10-13T18:33:55Z</time>
      </trkpt>
      <trkpt lat="42.562287" lon="-5.581924">
        <ele>809.102</ele>
        <time>2021-10-13T18:33:56Z</time>
      </trkpt>
      <trkpt lat="42.562456" lon="-5.581942">
        <ele>810.722</ele>
        <time>2021-10-13T18:33:58Z</time>
      </trkpt>
      <trkpt lat="42.562619" lon="-5.581954">
        <ele>811.508</ele>
        <time>2021-10-13T18:34:00Z</time>
      </trkpt>
      <trkpt lat="42.562784" lon="-5.581971">
        <ele>811.392</ele>
        <time>2021-10-13T18:34:02Z</time>
      </trkpt>
      <trkpt lat="42.562958" lon="-5.581991">
        <ele>811.760</ele>
        <time>2021-10-13T18:34:04Z</time>
      </trkpt>
      <trkpt lat="42.563141" lon="-5.582012">
        <ele>812.427</ele>
        <time>2021-10-13T18:34:06Z</time>
      </trkpt>
      <trkpt lat="42.563334" lon="-5.582028">
        <ele>811.717</ele>
        <time>2021-10-13T18:34:08Z</time>
      </trkpt>
      <trkpt lat="42.563432" lon="-5.582036">
        <ele>811.630</ele>
        <time>2021-10-13T18:34:09Z</time>
      </trkpt>
      <trkpt lat="42.563619" lon="-5.582056">
        <ele>812.286</ele>
        <time>2021-10-13T18:34:11Z</time>
      </trkpt>
      <trkpt lat="42.563788" lon="-5.582079">
        <ele>813.855</ele>
        <time>2021-10-13T18:34:13Z</time>
      </trkpt>
      <trkpt lat="42.563925" lon="-5.582092">
        <ele>813.730</ele>
        <time>2021-10-13T18:34:15Z</time>
      </trkpt>
      <trkpt lat="42.564031" lon="-5.582103">
        <ele>813.565</ele>
        <time>2021-10-13T18:34:17Z</time>
      </trkpt>
      <trkpt lat="42.564103" lon="-5.582105">
        <ele>813.568</ele>
        <time>2021-10-13T18:34:19Z</time>
      </trkpt>
      <trkpt lat="42.564166" lon="-5.582092">
        <ele>813.414</ele>
        <time>2021-10-13T18:34:21Z</time>
      </trkpt>
      <trkpt lat="42.564219" lon="-5.582096">
        <ele>813.508</ele>
        <time>2021-10-13T18:34:23Z</time>
      </trkpt>
      <trkpt lat="42.564286" lon="-5.582098">
        <ele>815.014</ele>
        <time>2021-10-13T18:34:40Z</time>
      </trkpt>
      <trkpt lat="42.564354" lon="-5.582104">
        <ele>837.952</ele>
        <time>2021-10-13T18:34:41Z</time>
      </trkpt>
      <trkpt lat="42.564428" lon="-5.582115">
        <ele>862.799</ele>
        <time>2021-10-13T18:34:42Z</time>
      </trkpt>
      <trkpt lat="42.564576" lon="-5.582133">
        <ele>866.839</ele>
        <time>2021-10-13T18:34:44Z</time>
      </trkpt>
      <trkpt lat="42.564719" lon="-5.582153">
        <ele>866.892</ele>
        <time>2021-10-13T18:34:46Z</time>
      </trkpt>
      <trkpt lat="42.564885" lon="-5.582172">
        <ele>866.838</ele>
        <time>2021-10-13T18:34:48Z</time>
      </trkpt>
      <trkpt lat="42.565047" lon="-5.582187">
        <ele>866.857</ele>
        <time>2021-10-13T18:34:50Z</time>
      </trkpt>
      <trkpt lat="42.565133" lon="-5.582198">
        <ele>866.882</ele>
        <time>2021-10-13T18:34:51Z</time>
      </trkpt>
      <trkpt lat="42.565314" lon="-5.582217">
        <ele>866.882</ele>
        <time>2021-10-13T18:34:53Z</time>
      </trkpt>
      <trkpt lat="42.565508" lon="-5.582234">
        <ele>866.843</ele>
        <time>2021-10-13T18:34:55Z</time>
      </trkpt>
      <trkpt lat="42.565609" lon="-5.582246">
        <ele>866.817</ele>
        <time>2021-10-13T18:34:56Z</time>
      </trkpt>
      <trkpt lat="42.565797" lon="-5.582266">
        <ele>866.808</ele>
        <time>2021-10-13T18:34:58Z</time>
      </trkpt>
      <trkpt lat="42.565996" lon="-5.582284">
        <ele>866.846</ele>
        <time>2021-10-13T18:35:00Z</time>
      </trkpt>
      <trkpt lat="42.566209" lon="-5.582301">
        <ele>866.874</ele>
        <time>2021-10-13T18:35:02Z</time>
      </trkpt>
      <trkpt lat="42.566417" lon="-5.582322">
        <ele>866.841</ele>
        <time>2021-10-13T18:35:04Z</time>
      </trkpt>
      <trkpt lat="42.566646" lon="-5.582343">
        <ele>866.871</ele>
        <time>2021-10-13T18:35:06Z</time>
      </trkpt>
      <trkpt lat="42.566767" lon="-5.582356">
        <ele>866.894</ele>
        <time>2021-10-13T18:35:07Z</time>
      </trkpt>
      <trkpt lat="42.566887" lon="-5.582370">
        <ele>866.840</ele>
        <time>2021-10-13T18:35:08Z</time>
      </trkpt>
      <trkpt lat="42.567102" lon="-5.582396">
        <ele>866.859</ele>
        <time>2021-10-13T18:35:10Z</time>
      </trkpt>
      <trkpt lat="42.567318" lon="-5.582419">
        <ele>866.874</ele>
        <time>2021-10-13T18:35:12Z</time>
      </trkpt>
      <trkpt lat="42.567527" lon="-5.582444">
        <ele>866.875</ele>
        <time>2021-10-13T18:35:14Z</time>
      </trkpt>
      <trkpt lat="42.567638" lon="-5.582455">
        <ele>866.828</ele>
        <time>2021-10-13T18:35:15Z</time>
      </trkpt>
      <trkpt lat="42.567755" lon="-5.582464">
        <ele>866.820</ele>
        <time>2021-10-13T18:35:16Z</time>
      </trkpt>
      <trkpt lat="42.568006" lon="-5.582482">
        <ele>866.808</ele>
        <time>2021-10-13T18:35:18Z</time>
      </trkpt>
      <trkpt lat="42.568278" lon="-5.582509">
        <ele>866.845</ele>
        <time>2021-10-13T18:35:20Z</time>
      </trkpt>
      <trkpt lat="42.568574" lon="-5.582543">
        <ele>866.863</ele>
        <time>2021-10-13T18:35:22Z</time>
      </trkpt>
      <trkpt lat="42.568875" lon="-5.582577">
        <ele>866.810</ele>
        <time>2021-10-13T18:35:24Z</time>
      </trkpt>
      <trkpt lat="42.569164" lon="-5.582602">
        <ele>866.830</ele>
        <time>2021-10-13T18:35:26Z</time>
      </trkpt>
      <trkpt lat="42.569442" lon="-5.582629">
        <ele>866.893</ele>
        <time>2021-10-13T18:35:28Z</time>
      </trkpt>
      <trkpt lat="42.569585" lon="-5.582646">
        <ele>866.849</ele>
        <time>2021-10-13T18:35:29Z</time>
      </trkpt>
      <trkpt lat="42.569857" lon="-5.582680">
        <ele>866.818</ele>
        <time>2021-10-13T18:35:31Z</time>
      </trkpt>
      <trkpt lat="42.569996" lon="-5.582696">
        <ele>866.853</ele>
        <time>2021-10-13T18:35:32Z</time>
      </trkpt>
      <trkpt lat="42.570271" lon="-5.582716">
        <ele>866.882</ele>
        <time>2021-10-13T18:35:34Z</time>
      </trkpt>
      <trkpt lat="42.570558" lon="-5.582747">
        <ele>815.243</ele>
        <time>2021-10-13T18:35:36Z</time>
      </trkpt>
      <trkpt lat="42.570705" lon="-5.582763">
        <ele>815.317</ele>
        <time>2021-10-13T18:35:37Z</time>
      </trkpt>
      <trkpt lat="42.570854" lon="-5.582778">
        <ele>815.708</ele>
        <time>2021-10-13T18:35:38Z</time>
      </trkpt>
      <trkpt lat="42.571159" lon="-5.582815">
        <ele>815.486</ele>
        <time>2021-10-13T18:35:40Z</time>
      </trkpt>
      <trkpt lat="42.571478" lon="-5.582847">
        <ele>814.414</ele>
        <time>2021-10-13T18:35:42Z</time>
      </trkpt>
      <trkpt lat="42.571811" lon="-5.582879">
        <ele>815.331</ele>
        <time>2021-10-13T18:35:44Z</time>
      </trkpt>
      <trkpt lat="42.572150" lon="-5.582918">
        <ele>814.661</ele>
        <time>2021-10-13T18:35:46Z</time>
      </trkpt>
      <trkpt lat="42.572479" lon="-5.582956">
        <ele>814.684</ele>
        <time>2021-10-13T18:35:48Z</time>
      </trkpt>
      <trkpt lat="42.572648" lon="-5.582974">
        <ele>815.050</ele>
        <time>2021-10-13T18:35:49Z</time>
      </trkpt>
      <trkpt lat="42.572818" lon="-5.582991">
        <ele>815.499</ele>
        <time>2021-10-13T18:35:50Z</time>
      </trkpt>
      <trkpt lat="42.573165" lon="-5.583025">
        <ele>815.614</ele>
        <time>2021-10-13T18:35:52Z</time>
      </trkpt>
      <trkpt lat="42.573334" lon="-5.583041">
        <ele>815.471</ele>
        <time>2021-10-13T18:35:53Z</time>
      </trkpt>
      <trkpt lat="42.573644" lon="-5.583068">
        <ele>815.541</ele>
        <time>2021-10-13T18:35:55Z</time>
      </trkpt>
      <trkpt lat="42.573797" lon="-5.583085">
        <ele>816.315</ele>
        <time>2021-10-13T18:35:56Z</time>
      </trkpt>
      <trkpt lat="42.574087" lon="-5.583116">
        <ele>816.108</ele>
        <time>2021-10-13T18:35:58Z</time>
      </trkpt>
      <trkpt lat="42.574368" lon="-5.583143">
        <ele>816.465</ele>
        <time>2021-10-13T18:36:00Z</time>
      </trkpt>
      <trkpt lat="42.574625" lon="-5.583170">
        <ele>816.663</ele>
        <time>2021-10-13T18:36:02Z</time>
      </trkpt>
      <trkpt lat="42.574852" lon="-5.583185">
        <ele>816.260</ele>
        <time>2021-10-13T18:36:04Z</time>
      </trkpt>
      <trkpt lat="42.574960" lon="-5.583191">
        <ele>816.230</ele>
        <time>2021-10-13T18:36:05Z</time>
      </trkpt>
      <trkpt lat="42.575062" lon="-5.583199">
        <ele>816.893</ele>
        <time>2021-10-13T18:36:06Z</time>
      </trkpt>
      <trkpt lat="42.575255" lon="-5.583212">
        <ele>815.639</ele>
        <time>2021-10-13T18:36:08Z</time>
      </trkpt>
      <trkpt lat="42.575346" lon="-5.583221">
        <ele>815.668</ele>
        <time>2021-10-13T18:36:09Z</time>
      </trkpt>
      <trkpt lat="42.575515" lon="-5.583239">
        <ele>816.533</ele>
        <time>2021-10-13T18:36:11Z</time>
      </trkpt>
      <trkpt lat="42.575683" lon="-5.583254">
        <ele>817.495</ele>
        <time>2021-10-13T18:36:13Z</time>
      </trkpt>
      <trkpt lat="42.575772" lon="-5.583260">
        <ele>818.349</ele>
        <time>2021-10-13T18:36:14Z</time>
      </trkpt>
      <trkpt lat="42.575869" lon="-5.583269">
        <ele>818.823</ele>
        <time>2021-10-13T18:36:15Z</time>
      </trkpt>
      <trkpt lat="42.575979" lon="-5.583280">
        <ele>820.008</ele>
        <time>2021-10-13T18:36:16Z</time>
      </trkpt>
      <trkpt lat="42.576225" lon="-5.583304">
        <ele>820.047</ele>
        <time>2021-10-13T18:36:18Z</time>
      </trkpt>
      <trkpt lat="42.576351" lon="-5.583315">
        <ele>820.095</ele>
        <time>2021-10-13T18:36:19Z</time>
      </trkpt>
      <trkpt lat="42.576474" lon="-5.583328">
        <ele>820.062</ele>
        <time>2021-10-13T18:36:20Z</time>
      </trkpt>
      <trkpt lat="42.576718" lon="-5.583352">
        <ele>819.642</ele>
        <time>2021-10-13T18:36:22Z</time>
      </trkpt>
      <trkpt lat="42.576966" lon="-5.583375">
        <ele>819.025</ele>
        <time>2021-10-13T18:36:24Z</time>
      </trkpt>
      <trkpt lat="42.577095" lon="-5.583385">
        <ele>819.031</ele>
        <time>2021-10-13T18:36:25Z</time>
      </trkpt>
      <trkpt lat="42.577221" lon="-5.583399">
        <ele>819.620</ele>
        <time>2021-10-13T18:36:26Z</time>
      </trkpt>
      <trkpt lat="42.577439" lon="-5.583418">
        <ele>819.495</ele>
        <time>2021-10-13T18:36:28Z</time>
      </trkpt>
      <trkpt lat="42.577638" lon="-5.583428">
        <ele>819.775</ele>
        <time>2021-10-13T18:36:30Z</time>
      </trkpt>
      <trkpt lat="42.577734" lon="-5.583434">
        <ele>820.028</ele>
        <time>2021-10-13T18:36:31Z</time>
      </trkpt>
      <trkpt lat="42.577833" lon="-5.583448">
        <ele>820.220</ele>
        <time>2021-10-13T18:36:32Z</time>
      </trkpt>
      <trkpt lat="42.578035" lon="-5.583482">
        <ele>820.308</ele>
        <time>2021-10-13T18:36:34Z</time>
      </trkpt>
      <trkpt lat="42.578149" lon="-5.583499">
        <ele>820.655</ele>
        <time>2021-10-13T18:36:35Z</time>
      </trkpt>
      <trkpt lat="42.578391" lon="-5.583529">
        <ele>820.793</ele>
        <time>2021-10-13T18:36:37Z</time>
      </trkpt>
      <trkpt lat="42.578518" lon="-5.583545">
        <ele>819.940</ele>
        <time>2021-10-13T18:36:38Z</time>
      </trkpt>
      <trkpt lat="42.578775" lon="-5.583576">
        <ele>819.260</ele>
        <time>2021-10-13T18:36:40Z</time>
      </trkpt>
      <trkpt lat="42.579031" lon="-5.583590">
        <ele>819.253</ele>
        <time>2021-10-13T18:36:42Z</time>
      </trkpt>
      <trkpt lat="42.579280" lon="-5.583611">
        <ele>819.599</ele>
        <time>2021-10-13T18:36:44Z</time>
      </trkpt>
      <trkpt lat="42.579514" lon="-5.583632">
        <ele>821.158</ele>
        <time>2021-10-13T18:36:46Z</time>
      </trkpt>
      <trkpt lat="42.579623" lon="-5.583644">
        <ele>822.483</ele>
        <time>2021-10-13T18:36:47Z</time>
      </trkpt>
      <trkpt lat="42.579730" lon="-5.583656">
        <ele>822.482</ele>
        <time>2021-10-13T18:36:48Z</time>
      </trkpt>
      <trkpt lat="42.579946" lon="-5.583679">
        <ele>821.943</ele>
        <time>2021-10-13T18:36:50Z</time>
      </trkpt>
      <trkpt lat="42.580165" lon="-5.583704">
        <ele>822.417</ele>
        <time>2021-10-13T18:36:52Z</time>
      </trkpt>
      <trkpt lat="42.580274" lon="-5.583715">
        <ele>822.408</ele>
        <time>2021-10-13T18:36:53Z</time>
      </trkpt>
      <trkpt lat="42.580381" lon="-5.583724">
        <ele>822.476</ele>
        <time>2021-10-13T18:36:54Z</time>
      </trkpt>
      <trkpt lat="42.580587" lon="-5.583745">
        <ele>822.374</ele>
        <time>2021-10-13T18:36:56Z</time>
      </trkpt>
      <trkpt lat="42.580799" lon="-5.583762">
        <ele>822.351</ele>
        <time>2021-10-13T18:36:58Z</time>
      </trkpt>
      <trkpt lat="42.581031" lon="-5.583784">
        <ele>821.421</ele>
        <time>2021-10-13T18:37:00Z</time>
      </trkpt>
      <trkpt lat="42.581158" lon="-5.583798">
        <ele>821.854</ele>
        <time>2021-10-13T18:37:01Z</time>
      </trkpt>
      <trkpt lat="42.581287" lon="-5.583817">
        <ele>821.220</ele>
        <time>2021-10-13T18:37:02Z</time>
      </trkpt>
      <trkpt lat="42.581523" lon="-5.583846">
        <ele>821.129</ele>
        <time>2021-10-13T18:37:04Z</time>
      </trkpt>
      <trkpt lat="42.581634" lon="-5.583861">
        <ele>820.494</ele>
        <time>2021-10-13T18:37:05Z</time>
      </trkpt>
      <trkpt lat="42.581841" lon="-5.583879">
        <ele>820.459</ele>
        <time>2021-10-13T18:37:07Z</time>
      </trkpt>
      <trkpt lat="42.581936" lon="-5.583886">
        <ele>820.203</ele>
        <time>2021-10-13T18:37:08Z</time>
      </trkpt>
      <trkpt lat="42.582025" lon="-5.583894">
        <ele>820.223</ele>
        <time>2021-10-13T18:37:09Z</time>
      </trkpt>
      <trkpt lat="42.582191" lon="-5.583915">
        <ele>821.408</ele>
        <time>2021-10-13T18:37:11Z</time>
      </trkpt>
      <trkpt lat="42.582340" lon="-5.583940">
        <ele>821.533</ele>
        <time>2021-10-13T18:37:13Z</time>
      </trkpt>
      <trkpt lat="42.582412" lon="-5.583950">
        <ele>821.941</ele>
        <time>2021-10-13T18:37:14Z</time>
      </trkpt>
      <trkpt lat="42.582565" lon="-5.583958">
        <ele>822.728</ele>
        <time>2021-10-13T18:37:16Z</time>
      </trkpt>
      <trkpt lat="42.582747" lon="-5.583968">
        <ele>823.438</ele>
        <time>2021-10-13T18:37:18Z</time>
      </trkpt>
      <trkpt lat="42.582852" lon="-5.583975">
        <ele>823.721</ele>
        <time>2021-10-13T18:37:19Z</time>
      </trkpt>
      <trkpt lat="42.583095" lon="-5.583995">
        <ele>824.567</ele>
        <time>2021-10-13T18:37:21Z</time>
      </trkpt>
      <trkpt lat="42.583365" lon="-5.584018">
        <ele>825.596</ele>
        <time>2021-10-13T18:37:23Z</time>
      </trkpt>
      <trkpt lat="42.583624" lon="-5.584042">
        <ele>825.751</ele>
        <time>2021-10-13T18:37:25Z</time>
      </trkpt>
      <trkpt lat="42.583737" lon="-5.584047">
        <ele>826.716</ele>
        <time>2021-10-13T18:37:26Z</time>
      </trkpt>
      <trkpt lat="42.583932" lon="-5.584059">
        <ele>826.776</ele>
        <time>2021-10-13T18:37:28Z</time>
      </trkpt>
      <trkpt lat="42.584020" lon="-5.584065">
        <ele>826.613</ele>
        <time>2021-10-13T18:37:29Z</time>
      </trkpt>
      <trkpt lat="42.584179" lon="-5.584074">
        <ele>826.508</ele>
        <time>2021-10-13T18:37:31Z</time>
      </trkpt>
      <trkpt lat="42.584250" lon="-5.584079">
        <ele>827.039</ele>
        <time>2021-10-13T18:37:32Z</time>
      </trkpt>
      <trkpt lat="42.584380" lon="-5.584096">
        <ele>827.547</ele>
        <time>2021-10-13T18:37:34Z</time>
      </trkpt>
      <trkpt lat="42.584487" lon="-5.584112">
        <ele>828.284</ele>
        <time>2021-10-13T18:37:36Z</time>
      </trkpt>
      <trkpt lat="42.584557" lon="-5.584112">
        <ele>828.534</ele>
        <time>2021-10-13T18:37:38Z</time>
      </trkpt>
      <trkpt lat="42.584620" lon="-5.584120">
        <ele>828.847</ele>
        <time>2021-10-13T18:37:40Z</time>
      </trkpt>
      <trkpt lat="42.584668" lon="-5.584127">
        <ele>830.193</ele>
        <time>2021-10-13T18:37:42Z</time>
      </trkpt>
      <trkpt lat="42.584713" lon="-5.584132">
        <ele>830.342</ele>
        <time>2021-10-13T18:37:47Z</time>
      </trkpt>
      <trkpt lat="42.584781" lon="-5.584131">
        <ele>830.387</ele>
        <time>2021-10-13T18:37:50Z</time>
      </trkpt>
      <trkpt lat="42.584842" lon="-5.584146">
        <ele>830.311</ele>
        <time>2021-10-13T18:37:58Z</time>
      </trkpt>
      <trkpt lat="42.584895" lon="-5.584130">
        <ele>830.321</ele>
        <time>2021-10-13T18:38:00Z</time>
      </trkpt>
      <trkpt lat="42.584940" lon="-5.584098">
        <ele>830.303</ele>
        <time>2021-10-13T18:38:04Z</time>
      </trkpt>
      <trkpt lat="42.584988" lon="-5.584063">
        <ele>830.308</ele>
        <time>2021-10-13T18:38:06Z</time>
      </trkpt>
      <trkpt lat="42.585072" lon="-5.583972">
        <ele>830.419</ele>
        <time>2021-10-13T18:38:08Z</time>
      </trkpt>
      <trkpt lat="42.585106" lon="-5.583894">
        <ele>830.447</ele>
        <time>2021-10-13T18:38:15Z</time>
      </trkpt>
      <trkpt lat="42.585158" lon="-5.583697">
        <ele>830.484</ele>
        <time>2021-10-13T18:38:17Z</time>
      </trkpt>
      <trkpt lat="42.585177" lon="-5.583570">
        <ele>830.464</ele>
        <time>2021-10-13T18:38:18Z</time>
      </trkpt>
      <trkpt lat="42.585203" lon="-5.583319">
        <ele>830.427</ele>
        <time>2021-10-13T18:38:20Z</time>
      </trkpt>
      <trkpt lat="42.585228" lon="-5.583039">
        <ele>830.483</ele>
        <time>2021-10-13T18:38:22Z</time>
      </trkpt>
      <trkpt lat="42.585243" lon="-5.582897">
        <ele>830.422</ele>
        <time>2021-10-13T18:38:23Z</time>
      </trkpt>
      <trkpt lat="42.585268" lon="-5.582627">
        <ele>830.497</ele>
        <time>2021-10-13T18:38:25Z</time>
      </trkpt>
      <trkpt lat="42.585285" lon="-5.582472">
        <ele>830.429</ele>
        <time>2021-10-13T18:38:26Z</time>
      </trkpt>
      <trkpt lat="42.585328" lon="-5.582137">
        <ele>830.400</ele>
        <time>2021-10-13T18:38:28Z</time>
      </trkpt>
      <trkpt lat="42.585349" lon="-5.581964">
        <ele>830.420</ele>
        <time>2021-10-13T18:38:29Z</time>
      </trkpt>
      <trkpt lat="42.585398" lon="-5.581581">
        <ele>830.408</ele>
        <time>2021-10-13T18:38:31Z</time>
      </trkpt>
      <trkpt lat="42.585422" lon="-5.581367">
        <ele>830.590</ele>
        <time>2021-10-13T18:38:32Z</time>
      </trkpt>
      <trkpt lat="42.585474" lon="-5.580915">
        <ele>830.528</ele>
        <time>2021-10-13T18:38:34Z</time>
      </trkpt>
      <trkpt lat="42.585522" lon="-5.580486">
        <ele>830.575</ele>
        <time>2021-10-13T18:38:36Z</time>
      </trkpt>
      <trkpt lat="42.585545" lon="-5.580285">
        <ele>830.555</ele>
        <time>2021-10-13T18:38:37Z</time>
      </trkpt>
      <trkpt lat="42.585573" lon="-5.580059">
        <ele>830.568</ele>
        <time>2021-10-13T18:38:38Z</time>
      </trkpt>
      <trkpt lat="42.585628" lon="-5.579512">
        <ele>830.514</ele>
        <time>2021-10-13T18:38:40Z</time>
      </trkpt>
      <trkpt lat="42.585652" lon="-5.579229">
        <ele>830.533</ele>
        <time>2021-10-13T18:38:41Z</time>
      </trkpt>
      <trkpt lat="42.585694" lon="-5.578723">
        <ele>830.598</ele>
        <time>2021-10-13T18:38:43Z</time>
      </trkpt>
      <trkpt lat="42.585730" lon="-5.578261">
        <ele>830.524</ele>
        <time>2021-10-13T18:38:45Z</time>
      </trkpt>
      <trkpt lat="42.585752" lon="-5.578027">
        <ele>830.504</ele>
        <time>2021-10-13T18:38:46Z</time>
      </trkpt>
      <trkpt lat="42.585775" lon="-5.577785">
        <ele>830.514</ele>
        <time>2021-10-13T18:38:47Z</time>
      </trkpt>
      <trkpt lat="42.585823" lon="-5.577291">
        <ele>830.508</ele>
        <time>2021-10-13T18:38:49Z</time>
      </trkpt>
      <trkpt lat="42.585876" lon="-5.576816">
        <ele>830.550</ele>
        <time>2021-10-13T18:38:51Z</time>
      </trkpt>
      <trkpt lat="42.585904" lon="-5.576594">
        <ele>830.578</ele>
        <time>2021-10-13T18:38:52Z</time>
      </trkpt>
      <trkpt lat="42.585954" lon="-5.576149">
        <ele>830.695</ele>
        <time>2021-10-13T18:38:54Z</time>
      </trkpt>
      <trkpt lat="42.585994" lon="-5.575732">
        <ele>830.675</ele>
        <time>2021-10-13T18:38:56Z</time>
      </trkpt>
      <trkpt lat="42.586022" lon="-5.575415">
        <ele>830.638</ele>
        <time>2021-10-13T18:38:58Z</time>
      </trkpt>
      <trkpt lat="42.586038" lon="-5.575247">
        <ele>830.694</ele>
        <time>2021-10-13T18:38:59Z</time>
      </trkpt>
      <trkpt lat="42.586057" lon="-5.575069">
        <ele>830.663</ele>
        <time>2021-10-13T18:39:00Z</time>
      </trkpt>
      <trkpt lat="42.586075" lon="-5.574881">
        <ele>830.618</ele>
        <time>2021-10-13T18:39:01Z</time>
      </trkpt>
      <trkpt lat="42.586093" lon="-5.574683">
        <ele>830.635</ele>
        <time>2021-10-13T18:39:02Z</time>
      </trkpt>
      <trkpt lat="42.586126" lon="-5.574332">
        <ele>827.086</ele>
        <time>2021-10-13T18:39:04Z</time>
      </trkpt>
      <trkpt lat="42.586143" lon="-5.574158">
        <ele>823.514</ele>
        <time>2021-10-13T18:39:05Z</time>
      </trkpt>
      <trkpt lat="42.586176" lon="-5.573817">
        <ele>822.808</ele>
        <time>2021-10-13T18:39:07Z</time>
      </trkpt>
      <trkpt lat="42.586206" lon="-5.573495">
        <ele>822.881</ele>
        <time>2021-10-13T18:39:09Z</time>
      </trkpt>
      <trkpt lat="42.586238" lon="-5.573176">
        <ele>822.529</ele>
        <time>2021-10-13T18:39:11Z</time>
      </trkpt>
      <trkpt lat="42.586269" lon="-5.572911">
        <ele>822.036</ele>
        <time>2021-10-13T18:39:13Z</time>
      </trkpt>
      <trkpt lat="42.586281" lon="-5.572807">
        <ele>821.786</ele>
        <time>2021-10-13T18:39:14Z</time>
      </trkpt>
      <trkpt lat="42.586294" lon="-5.572653">
        <ele>821.839</ele>
        <time>2021-10-13T18:39:16Z</time>
      </trkpt>
      <trkpt lat="42.586295" lon="-5.572568">
        <ele>821.965</ele>
        <time>2021-10-13T18:39:18Z</time>
      </trkpt>
      <trkpt lat="42.586297" lon="-5.572500">
        <ele>823.644</ele>
        <time>2021-10-13T18:39:22Z</time>
      </trkpt>
      <trkpt lat="42.586296" lon="-5.572437">
        <ele>825.599</ele>
        <time>2021-10-13T18:39:45Z</time>
      </trkpt>
      <trkpt lat="42.586302" lon="-5.572353">
        <ele>825.551</ele>
        <time>2021-10-13T18:39:47Z</time>
      </trkpt>
      <trkpt lat="42.586327" lon="-5.572194">
        <ele>825.501</ele>
        <time>2021-10-13T18:39:49Z</time>
      </trkpt>
      <trkpt lat="42.586338" lon="-5.572108">
        <ele>825.511</ele>
        <time>2021-10-13T18:39:50Z</time>
      </trkpt>
      <trkpt lat="42.586356" lon="-5.571939">
        <ele>825.508</ele>
        <time>2021-10-13T18:39:52Z</time>
      </trkpt>
      <trkpt lat="42.586364" lon="-5.571861">
        <ele>825.593</ele>
        <time>2021-10-13T18:39:53Z</time>
      </trkpt>
      <trkpt lat="42.586370" lon="-5.571777">
        <ele>825.581</ele>
        <time>2021-10-13T18:39:54Z</time>
      </trkpt>
      <trkpt lat="42.586374" lon="-5.571572">
        <ele>825.518</ele>
        <time>2021-10-13T18:39:56Z</time>
      </trkpt>
      <trkpt lat="42.586390" lon="-5.571354">
        <ele>825.528</ele>
        <time>2021-10-13T18:39:58Z</time>
      </trkpt>
      <trkpt lat="42.586402" lon="-5.571224">
        <ele>825.521</ele>
        <time>2021-10-13T18:39:59Z</time>
      </trkpt>
      <trkpt lat="42.586423" lon="-5.571068">
        <ele>825.587</ele>
        <time>2021-10-13T18:40:00Z</time>
      </trkpt>
      <trkpt lat="42.586444" lon="-5.570896">
        <ele>825.516</ele>
        <time>2021-10-13T18:40:01Z</time>
      </trkpt>
      <trkpt lat="42.586464" lon="-5.570715">
        <ele>825.581</ele>
        <time>2021-10-13T18:40:02Z</time>
      </trkpt>
      <trkpt lat="42.586493" lon="-5.570351">
        <ele>825.586</ele>
        <time>2021-10-13T18:40:04Z</time>
      </trkpt>
      <trkpt lat="42.586509" lon="-5.570160">
        <ele>825.560</ele>
        <time>2021-10-13T18:40:05Z</time>
      </trkpt>
      <trkpt lat="42.586522" lon="-5.569977">
        <ele>825.526</ele>
        <time>2021-10-13T18:40:06Z</time>
      </trkpt>
      <trkpt lat="42.586551" lon="-5.569627">
        <ele>825.508</ele>
        <time>2021-10-13T18:40:08Z</time>
      </trkpt>
      <trkpt lat="42.586583" lon="-5.569281">
        <ele>825.586</ele>
        <time>2021-10-13T18:40:10Z</time>
      </trkpt>
      <trkpt lat="42.586625" lon="-5.568934">
        <ele>825.584</ele>
        <time>2021-10-13T18:40:12Z</time>
      </trkpt>
      <trkpt lat="42.586645" lon="-5.568765">
        <ele>825.581</ele>
        <time>2021-10-13T18:40:13Z</time>
      </trkpt>
      <trkpt lat="42.586660" lon="-5.568601">
        <ele>825.541</ele>
        <time>2021-10-13T18:40:14Z</time>
      </trkpt>
      <trkpt lat="42.586683" lon="-5.568282">
        <ele>825.544</ele>
        <time>2021-10-13T18:40:16Z</time>
      </trkpt>
      <trkpt lat="42.586698" lon="-5.568120">
        <ele>825.590</ele>
        <time>2021-10-13T18:40:17Z</time>
      </trkpt>
      <trkpt lat="42.586732" lon="-5.567816">
        <ele>825.579</ele>
        <time>2021-10-13T18:40:19Z</time>
      </trkpt>
      <trkpt lat="42.586746" lon="-5.567675">
        <ele>825.584</ele>
        <time>2021-10-13T18:40:20Z</time>
      </trkpt>
      <trkpt lat="42.586767" lon="-5.567417">
        <ele>825.581</ele>
        <time>2021-10-13T18:40:22Z</time>
      </trkpt>
      <trkpt lat="42.586781" lon="-5.567173">
        <ele>825.561</ele>
        <time>2021-10-13T18:40:24Z</time>
      </trkpt>
      <trkpt lat="42.586800" lon="-5.566921">
        <ele>825.517</ele>
        <time>2021-10-13T18:40:26Z</time>
      </trkpt>
      <trkpt lat="42.586825" lon="-5.566695">
        <ele>825.508</ele>
        <time>2021-10-13T18:40:28Z</time>
      </trkpt>
      <trkpt lat="42.586834" lon="-5.566596">
        <ele>825.586</ele>
        <time>2021-10-13T18:40:29Z</time>
      </trkpt>
      <trkpt lat="42.586841" lon="-5.566508">
        <ele>825.564</ele>
        <time>2021-10-13T18:40:30Z</time>
      </trkpt>
      <trkpt lat="42.586851" lon="-5.566347">
        <ele>825.531</ele>
        <time>2021-10-13T18:40:32Z</time>
      </trkpt>
      <trkpt lat="42.586870" lon="-5.566200">
        <ele>825.561</ele>
        <time>2021-10-13T18:40:34Z</time>
      </trkpt>
      <trkpt lat="42.586887" lon="-5.566121">
        <ele>825.534</ele>
        <time>2021-10-13T18:40:35Z</time>
      </trkpt>
      <trkpt lat="42.586921" lon="-5.565942">
        <ele>825.550</ele>
        <time>2021-10-13T18:40:37Z</time>
      </trkpt>
      <trkpt lat="42.586934" lon="-5.565853">
        <ele>825.559</ele>
        <time>2021-10-13T18:40:38Z</time>
      </trkpt>
      <trkpt lat="42.586953" lon="-5.565694">
        <ele>825.584</ele>
        <time>2021-10-13T18:40:40Z</time>
      </trkpt>
      <trkpt lat="42.586958" lon="-5.565628">
        <ele>825.593</ele>
        <time>2021-10-13T18:40:41Z</time>
      </trkpt>
      <trkpt lat="42.586955" lon="-5.565508">
        <ele>825.565</ele>
        <time>2021-10-13T18:40:43Z</time>
      </trkpt>
      <trkpt lat="42.586938" lon="-5.565435">
        <ele>825.521</ele>
        <time>2021-10-13T18:40:44Z</time>
      </trkpt>
      <trkpt lat="42.586903" lon="-5.565257">
        <ele>825.508</ele>
        <time>2021-10-13T18:40:46Z</time>
      </trkpt>
      <trkpt lat="42.586906" lon="-5.565163">
        <ele>825.647</ele>
        <time>2021-10-13T18:40:47Z</time>
      </trkpt>
      <trkpt lat="42.586945" lon="-5.564974">
        <ele>830.115</ele>
        <time>2021-10-13T18:40:49Z</time>
      </trkpt>
      <trkpt lat="42.586962" lon="-5.564870">
        <ele>830.182</ele>
        <time>2021-10-13T18:40:50Z</time>
      </trkpt>
      <trkpt lat="42.586986" lon="-5.564611">
        <ele>830.122</ele>
        <time>2021-10-13T18:40:52Z</time>
      </trkpt>
      <trkpt lat="42.587009" lon="-5.564350">
        <ele>830.195</ele>
        <time>2021-10-13T18:40:54Z</time>
      </trkpt>
      <trkpt lat="42.587025" lon="-5.564239">
        <ele>829.711</ele>
        <time>2021-10-13T18:40:55Z</time>
      </trkpt>
      <trkpt lat="42.587044" lon="-5.564136">
        <ele>829.760</ele>
        <time>2021-10-13T18:40:56Z</time>
      </trkpt>
      <trkpt lat="42.587081" lon="-5.563960">
        <ele>829.655</ele>
        <time>2021-10-13T18:40:58Z</time>
      </trkpt>
      <trkpt lat="42.587103" lon="-5.563870">
        <ele>830.157</ele>
        <time>2021-10-13T18:40:59Z</time>
      </trkpt>
      <trkpt lat="42.587127" lon="-5.563776">
        <ele>830.100</ele>
        <time>2021-10-13T18:41:00Z</time>
      </trkpt>
      <trkpt lat="42.587149" lon="-5.563682">
        <ele>831.020</ele>
        <time>2021-10-13T18:41:01Z</time>
      </trkpt>
      <trkpt lat="42.587170" lon="-5.563585">
        <ele>831.608</ele>
        <time>2021-10-13T18:41:02Z</time>
      </trkpt>
      <trkpt lat="42.587181" lon="-5.563400">
        <ele>831.233</ele>
        <time>2021-10-13T18:41:04Z</time>
      </trkpt>
      <trkpt lat="42.587191" lon="-5.563209">
        <ele>829.241</ele>
        <time>2021-10-13T18:41:06Z</time>
      </trkpt>
      <trkpt lat="42.587197" lon="-5.563108">
        <ele>829.098</ele>
        <time>2021-10-13T18:41:07Z</time>
      </trkpt>
      <trkpt lat="42.587202" lon="-5.563004">
        <ele>829.058</ele>
        <time>2021-10-13T18:41:08Z</time>
      </trkpt>
      <trkpt lat="42.587216" lon="-5.562787">
        <ele>829.081</ele>
        <time>2021-10-13T18:41:10Z</time>
      </trkpt>
      <trkpt lat="42.587230" lon="-5.562674">
        <ele>829.057</ele>
        <time>2021-10-13T18:41:11Z</time>
      </trkpt>
      <trkpt lat="42.587246" lon="-5.562556">
        <ele>829.236</ele>
        <time>2021-10-13T18:41:12Z</time>
      </trkpt>
      <trkpt lat="42.587262" lon="-5.562435">
        <ele>829.661</ele>
        <time>2021-10-13T18:41:13Z</time>
      </trkpt>
      <trkpt lat="42.587279" lon="-5.562318">
        <ele>829.882</ele>
        <time>2021-10-13T18:41:14Z</time>
      </trkpt>
      <trkpt lat="42.587303" lon="-5.562109">
        <ele>830.643</ele>
        <time>2021-10-13T18:41:16Z</time>
      </trkpt>
      <trkpt lat="42.587323" lon="-5.561908">
        <ele>830.617</ele>
        <time>2021-10-13T18:41:18Z</time>
      </trkpt>
      <trkpt lat="42.587331" lon="-5.561822">
        <ele>830.608</ele>
        <time>2021-10-13T18:41:19Z</time>
      </trkpt>
      <trkpt lat="42.587341" lon="-5.561740">
        <ele>830.696</ele>
        <time>2021-10-13T18:41:20Z</time>
      </trkpt>
      <trkpt lat="42.587344" lon="-5.561587">
        <ele>830.074</ele>
        <time>2021-10-13T18:41:22Z</time>
      </trkpt>
      <trkpt lat="42.587351" lon="-5.561513">
        <ele>830.631</ele>
        <time>2021-10-13T18:41:23Z</time>
      </trkpt>
      <trkpt lat="42.587368" lon="-5.561360">
        <ele>830.021</ele>
        <time>2021-10-13T18:41:25Z</time>
      </trkpt>
      <trkpt lat="42.587372" lon="-5.561267">
        <ele>830.094</ele>
        <time>2021-10-13T18:41:26Z</time>
      </trkpt>
      <trkpt lat="42.587358" lon="-5.561072">
        <ele>829.510</ele>
        <time>2021-10-13T18:41:28Z</time>
      </trkpt>
      <trkpt lat="42.587336" lon="-5.560959">
        <ele>829.549</ele>
        <time>2021-10-13T18:41:29Z</time>
      </trkpt>
      <trkpt lat="42.587310" lon="-5.560835">
        <ele>829.574</ele>
        <time>2021-10-13T18:41:30Z</time>
      </trkpt>
      <trkpt lat="42.587285" lon="-5.560700">
        <ele>829.528</ele>
        <time>2021-10-13T18:41:31Z</time>
      </trkpt>
      <trkpt lat="42.587268" lon="-5.560565">
        <ele>829.189</ele>
        <time>2021-10-13T18:41:32Z</time>
      </trkpt>
      <trkpt lat="42.587286" lon="-5.560330">
        <ele>830.117</ele>
        <time>2021-10-13T18:41:34Z</time>
      </trkpt>
      <trkpt lat="42.587366" lon="-5.560144">
        <ele>830.308</ele>
        <time>2021-10-13T18:41:36Z</time>
      </trkpt>
      <trkpt lat="42.587486" lon="-5.560118">
        <ele>830.730</ele>
        <time>2021-10-13T18:41:38Z</time>
      </trkpt>
      <trkpt lat="42.587596" lon="-5.560257">
        <ele>830.178</ele>
        <time>2021-10-13T18:41:40Z</time>
      </trkpt>
      <trkpt lat="42.587643" lon="-5.560375">
        <ele>829.155</ele>
        <time>2021-10-13T18:41:41Z</time>
      </trkpt>
      <trkpt lat="42.587732" lon="-5.560655">
        <ele>828.275</ele>
        <time>2021-10-13T18:41:43Z</time>
      </trkpt>
      <trkpt lat="42.587782" lon="-5.560795">
        <ele>828.188</ele>
        <time>2021-10-13T18:41:44Z</time>
      </trkpt>
      <trkpt lat="42.587912" lon="-5.561037">
        <ele>826.714</ele>
        <time>2021-10-13T18:41:46Z</time>
      </trkpt>
      <trkpt lat="42.587991" lon="-5.561140">
        <ele>825.923</ele>
        <time>2021-10-13T18:41:47Z</time>
      </trkpt>
      <trkpt lat="42.588164" lon="-5.561302">
        <ele>825.018</ele>
        <time>2021-10-13T18:41:49Z</time>
      </trkpt>
      <trkpt lat="42.588254" lon="-5.561372">
        <ele>824.348</ele>
        <time>2021-10-13T18:41:50Z</time>
      </trkpt>
      <trkpt lat="42.588445" lon="-5.561512">
        <ele>823.561</ele>
        <time>2021-10-13T18:41:52Z</time>
      </trkpt>
      <trkpt lat="42.588649" lon="-5.561656">
        <ele>824.117</ele>
        <time>2021-10-13T18:41:54Z</time>
      </trkpt>
      <trkpt lat="42.588753" lon="-5.561726">
        <ele>823.908</ele>
        <time>2021-10-13T18:41:55Z</time>
      </trkpt>
      <trkpt lat="42.588858" lon="-5.561797">
        <ele>823.482</ele>
        <time>2021-10-13T18:41:56Z</time>
      </trkpt>
      <trkpt lat="42.589064" lon="-5.561947">
        <ele>822.390</ele>
        <time>2021-10-13T18:41:58Z</time>
      </trkpt>
      <trkpt lat="42.589249" lon="-5.562094">
        <ele>821.147</ele>
        <time>2021-10-13T18:42:00Z</time>
      </trkpt>
      <trkpt lat="42.589327" lon="-5.562152">
        <ele>820.977</ele>
        <time>2021-10-13T18:42:01Z</time>
      </trkpt>
      <trkpt lat="42.589397" lon="-5.562201">
        <ele>820.480</ele>
        <time>2021-10-13T18:42:02Z</time>
      </trkpt>
      <trkpt lat="42.589529" lon="-5.562294">
        <ele>820.576</ele>
        <time>2021-10-13T18:42:04Z</time>
      </trkpt>
      <trkpt lat="42.589679" lon="-5.562403">
        <ele>820.255</ele>
        <time>2021-10-13T18:42:06Z</time>
      </trkpt>
      <trkpt lat="42.589838" lon="-5.562525">
        <ele>819.760</ele>
        <time>2021-10-13T18:42:08Z</time>
      </trkpt>
      <trkpt lat="42.589972" lon="-5.562630">
        <ele>820.111</ele>
        <time>2021-10-13T18:42:10Z</time>
      </trkpt>
      <trkpt lat="42.590031" lon="-5.562682">
        <ele>820.621</ele>
        <time>2021-10-13T18:42:11Z</time>
      </trkpt>
      <trkpt lat="42.590083" lon="-5.562732">
        <ele>821.203</ele>
        <time>2021-10-13T18:42:12Z</time>
      </trkpt>
      <trkpt lat="42.590131" lon="-5.562781">
        <ele>821.608</ele>
        <time>2021-10-13T18:42:13Z</time>
      </trkpt>
      <trkpt lat="42.590174" lon="-5.562830">
        <ele>821.979</ele>
        <time>2021-10-13T18:42:14Z</time>
      </trkpt>
      <trkpt lat="42.590250" lon="-5.562918">
        <ele>822.157</ele>
        <time>2021-10-13T18:42:16Z</time>
      </trkpt>
      <trkpt lat="42.590295" lon="-5.562972">
        <ele>822.634</ele>
        <time>2021-10-13T18:42:18Z</time>
      </trkpt>
      <trkpt lat="42.590333" lon="-5.563030">
        <ele>822.954</ele>
        <time>2021-10-13T18:42:20Z</time>
      </trkpt>
      <trkpt lat="42.590383" lon="-5.563095">
        <ele>823.967</ele>
        <time>2021-10-13T18:42:22Z</time>
      </trkpt>
      <trkpt lat="42.590431" lon="-5.563081">
        <ele>824.993</ele>
        <time>2021-10-13T18:42:23Z</time>
      </trkpt>
      <trkpt lat="42.590495" lon="-5.563127">
        <ele>826.432</ele>
        <time>2021-10-13T18:42:25Z</time>
      </trkpt>
      <trkpt lat="42.590547" lon="-5.563185">
        <ele>826.627</ele>
        <time>2021-10-13T18:42:27Z</time>
      </trkpt>
      <trkpt lat="42.590615" lon="-5.563253">
        <ele>826.692</ele>
        <time>2021-10-13T18:42:28Z</time>
      </trkpt>
      <trkpt lat="42.590705" lon="-5.563267">
        <ele>826.673</ele>
        <time>2021-10-13T18:42:30Z</time>
      </trkpt>
      <trkpt lat="42.590756" lon="-5.563213">
        <ele>826.620</ele>
        <time>2021-10-13T18:42:32Z</time>
      </trkpt>
      <trkpt lat="42.590788" lon="-5.563158">
        <ele>826.608</ele>
        <time>2021-10-13T18:42:35Z</time>
      </trkpt>
      <trkpt lat="42.590815" lon="-5.563098">
        <ele>826.677</ele>
        <time>2021-10-13T18:42:49Z</time>
      </trkpt>
      <trkpt lat="42.590809" lon="-5.563032">
        <ele>826.695</ele>
        <time>2021-10-13T18:42:53Z</time>
      </trkpt>
      <trkpt lat="42.590788" lon="-5.562932">
        <ele>826.692</ele>
        <time>2021-10-13T18:42:55Z</time>
      </trkpt>
      <trkpt lat="42.590761" lon="-5.562858">
        <ele>826.622</ele>
        <time>2021-10-13T18:42:56Z</time>
      </trkpt>
      <trkpt lat="42.590706" lon="-5.562763">
        <ele>826.665</ele>
        <time>2021-10-13T18:42:58Z</time>
      </trkpt>
      <trkpt lat="42.590661" lon="-5.562693">
        <ele>826.761</ele>
        <time>2021-10-13T18:43:00Z</time>
      </trkpt>
      <trkpt lat="42.590627" lon="-5.562634">
        <ele>826.730</ele>
        <time>2021-10-13T18:43:02Z</time>
      </trkpt>
      <trkpt lat="42.590599" lon="-5.562576">
        <ele>826.755</ele>
        <time>2021-10-13T18:43:04Z</time>
      </trkpt>
      <trkpt lat="42.590579" lon="-5.562519">
        <ele>826.737</ele>
        <time>2021-10-13T18:43:05Z</time>
      </trkpt>
      <trkpt lat="42.590549" lon="-5.562453">
        <ele>826.749</ele>
        <time>2021-10-13T18:43:06Z</time>
      </trkpt>
      <trkpt lat="42.590483" lon="-5.562339">
        <ele>826.713</ele>
        <time>2021-10-13T18:43:08Z</time>
      </trkpt>
      <trkpt lat="42.590454" lon="-5.562292">
        <ele>826.708</ele>
        <time>2021-10-13T18:43:10Z</time>
      </trkpt>
      <trkpt lat="42.590444" lon="-5.562204">
        <ele>826.791</ele>
        <time>2021-10-13T18:44:03Z</time>
      </trkpt>
      <trkpt lat="42.590417" lon="-5.562152">
        <ele>826.749</ele>
        <time>2021-10-13T18:44:06Z</time>
      </trkpt>
      <trkpt lat="42.590383" lon="-5.562090">
        <ele>826.766</ele>
        <time>2021-10-13T18:44:17Z</time>
      </trkpt>
      <trkpt lat="42.590359" lon="-5.562038">
        <ele>826.766</ele>
        <time>2021-10-13T18:44:22Z</time>
      </trkpt>
      <trkpt lat="42.590378" lon="-5.561924">
        <ele>855.399</ele>
        <time>2021-10-13T19:11:02Z</time>
      </trkpt>
      <trkpt lat="42.590425" lon="-5.561942">
        <ele>871.665</ele>
        <time>2021-10-13T19:11:12Z</time>
      </trkpt>
      <trkpt lat="42.590416" lon="-5.562009">
        <ele>876.434</ele>
        <time>2021-10-13T19:11:20Z</time>
      </trkpt>
      <trkpt lat="42.590459" lon="-5.562032">
        <ele>876.599</ele>
        <time>2021-10-13T19:14:02Z</time>
      </trkpt>
      <trkpt lat="42.590421" lon="-5.561916">
        <ele>876.587</ele>
        <time>2021-10-13T19:20:05Z</time>
      </trkpt>
      <trkpt lat="42.590307" lon="-5.561639">
        <ele>876.442</ele>
        <time>2021-10-13T19:20:07Z</time>
      </trkpt>
      <trkpt lat="42.590245" lon="-5.561488">
        <ele>876.626</ele>
        <time>2021-10-13T19:20:08Z</time>
      </trkpt>
      <trkpt lat="42.590142" lon="-5.561245">
        <ele>876.608</ele>
        <time>2021-10-13T19:20:10Z</time>
      </trkpt>
      <trkpt lat="42.590099" lon="-5.561144">
        <ele>876.646</ele>
        <time>2021-10-13T19:20:11Z</time>
      </trkpt>
      <trkpt lat="42.590055" lon="-5.561057">
        <ele>876.694</ele>
        <time>2021-10-13T19:20:12Z</time>
      </trkpt>
      <trkpt lat="42.589970" lon="-5.560880">
        <ele>876.681</ele>
        <time>2021-10-13T19:20:14Z</time>
      </trkpt>
      <trkpt lat="42.589879" lon="-5.560652">
        <ele>876.691</ele>
        <time>2021-10-13T19:20:16Z</time>
      </trkpt>
      <trkpt lat="42.589825" lon="-5.560522">
        <ele>876.674</ele>
        <time>2021-10-13T19:20:17Z</time>
      </trkpt>
      <trkpt lat="42.589707" lon="-5.560261">
        <ele>876.660</ele>
        <time>2021-10-13T19:20:19Z</time>
      </trkpt>
      <trkpt lat="42.589646" lon="-5.560127">
        <ele>876.649</ele>
        <time>2021-10-13T19:20:20Z</time>
      </trkpt>
      <trkpt lat="42.589532" lon="-5.559868">
        <ele>876.614</ele>
        <time>2021-10-13T19:20:22Z</time>
      </trkpt>
      <trkpt lat="42.589473" lon="-5.559738">
        <ele>876.694</ele>
        <time>2021-10-13T19:20:23Z</time>
      </trkpt>
      <trkpt lat="42.589360" lon="-5.559489">
        <ele>876.657</ele>
        <time>2021-10-13T19:20:25Z</time>
      </trkpt>
      <trkpt lat="42.589303" lon="-5.559367">
        <ele>876.622</ele>
        <time>2021-10-13T19:20:26Z</time>
      </trkpt>
      <trkpt lat="42.589199" lon="-5.559142">
        <ele>876.608</ele>
        <time>2021-10-13T19:20:28Z</time>
      </trkpt>
      <trkpt lat="42.589085" lon="-5.558883">
        <ele>876.667</ele>
        <time>2021-10-13T19:20:30Z</time>
      </trkpt>
      <trkpt lat="42.588946" lon="-5.558565">
        <ele>876.615</ele>
        <time>2021-10-13T19:20:32Z</time>
      </trkpt>
      <trkpt lat="42.588801" lon="-5.558233">
        <ele>876.652</ele>
        <time>2021-10-13T19:20:34Z</time>
      </trkpt>
      <trkpt lat="42.588676" lon="-5.557939">
        <ele>876.652</ele>
        <time>2021-10-13T19:20:36Z</time>
      </trkpt>
      <trkpt lat="42.588631" lon="-5.557830">
        <ele>876.665</ele>
        <time>2021-10-13T19:20:37Z</time>
      </trkpt>
      <trkpt lat="42.588597" lon="-5.557748">
        <ele>876.681</ele>
        <time>2021-10-13T19:20:38Z</time>
      </trkpt>
      <trkpt lat="42.588560" lon="-5.557670">
        <ele>876.640</ele>
        <time>2021-10-13T19:20:40Z</time>
      </trkpt>
      <trkpt lat="42.588521" lon="-5.557592">
        <ele>876.625</ele>
        <time>2021-10-13T19:20:43Z</time>
      </trkpt>
      <trkpt lat="42.588490" lon="-5.557523">
        <ele>876.638</ele>
        <time>2021-10-13T19:20:44Z</time>
      </trkpt>
      <trkpt lat="42.588416" lon="-5.557301">
        <ele>876.670</ele>
        <time>2021-10-13T19:20:46Z</time>
      </trkpt>
      <trkpt lat="42.588381" lon="-5.557132">
        <ele>876.617</ele>
        <time>2021-10-13T19:20:48Z</time>
      </trkpt>
      <trkpt lat="42.588368" lon="-5.557070">
        <ele>876.608</ele>
        <time>2021-10-13T19:20:51Z</time>
      </trkpt>
      <trkpt lat="42.588332" lon="-5.556972">
        <ele>876.651</ele>
        <time>2021-10-13T19:21:06Z</time>
      </trkpt>
      <trkpt lat="42.588308" lon="-5.556903">
        <ele>876.669</ele>
        <time>2021-10-13T19:21:07Z</time>
      </trkpt>
      <trkpt lat="42.588278" lon="-5.556835">
        <ele>857.256</ele>
        <time>2021-10-13T19:21:08Z</time>
      </trkpt>
      <trkpt lat="42.588180" lon="-5.556742">
        <ele>826.426</ele>
        <time>2021-10-13T19:21:10Z</time>
      </trkpt>
      <trkpt lat="42.588113" lon="-5.556711">
        <ele>826.379</ele>
        <time>2021-10-13T19:21:11Z</time>
      </trkpt>
      <trkpt lat="42.587978" lon="-5.556628">
        <ele>826.255</ele>
        <time>2021-10-13T19:21:13Z</time>
      </trkpt>
      <trkpt lat="42.587916" lon="-5.556559">
        <ele>826.054</ele>
        <time>2021-10-13T19:21:14Z</time>
      </trkpt>
      <trkpt lat="42.587837" lon="-5.556365">
        <ele>825.159</ele>
        <time>2021-10-13T19:21:16Z</time>
      </trkpt>
      <trkpt lat="42.587830" lon="-5.556249">
        <ele>825.115</ele>
        <time>2021-10-13T19:21:17Z</time>
      </trkpt>
      <trkpt lat="42.587847" lon="-5.556133">
        <ele>825.565</ele>
        <time>2021-10-13T19:21:18Z</time>
      </trkpt>
      <trkpt lat="42.587937" lon="-5.555947">
        <ele>826.011</ele>
        <time>2021-10-13T19:21:20Z</time>
      </trkpt>
      <trkpt lat="42.588078" lon="-5.555841">
        <ele>825.608</ele>
        <time>2021-10-13T19:21:22Z</time>
      </trkpt>
      <trkpt lat="42.588239" lon="-5.555821">
        <ele>825.019</ele>
        <time>2021-10-13T19:21:24Z</time>
      </trkpt>
      <trkpt lat="42.588310" lon="-5.555848">
        <ele>824.997</ele>
        <time>2021-10-13T19:21:25Z</time>
      </trkpt>
      <trkpt lat="42.588381" lon="-5.555903">
        <ele>824.874</ele>
        <time>2021-10-13T19:21:26Z</time>
      </trkpt>
      <trkpt lat="42.588480" lon="-5.556075">
        <ele>824.164</ele>
        <time>2021-10-13T19:21:28Z</time>
      </trkpt>
      <trkpt lat="42.588502" lon="-5.556184">
        <ele>823.757</ele>
        <time>2021-10-13T19:21:29Z</time>
      </trkpt>
      <trkpt lat="42.588512" lon="-5.556296">
        <ele>823.523</ele>
        <time>2021-10-13T19:21:30Z</time>
      </trkpt>
      <trkpt lat="42.588488" lon="-5.556540">
        <ele>823.222</ele>
        <time>2021-10-13T19:21:32Z</time>
      </trkpt>
      <trkpt lat="42.588448" lon="-5.556819">
        <ele>822.667</ele>
        <time>2021-10-13T19:21:34Z</time>
      </trkpt>
      <trkpt lat="42.588451" lon="-5.557135">
        <ele>821.921</ele>
        <time>2021-10-13T19:21:36Z</time>
      </trkpt>
      <trkpt lat="42.588475" lon="-5.557284">
        <ele>821.941</ele>
        <time>2021-10-13T19:21:37Z</time>
      </trkpt>
      <trkpt lat="42.588510" lon="-5.557429">
        <ele>821.905</ele>
        <time>2021-10-13T19:21:38Z</time>
      </trkpt>
      <trkpt lat="42.588613" lon="-5.557661">
        <ele>823.208</ele>
        <time>2021-10-13T19:21:40Z</time>
      </trkpt>
      <trkpt lat="42.588726" lon="-5.557894">
        <ele>823.240</ele>
        <time>2021-10-13T19:21:42Z</time>
      </trkpt>
      <trkpt lat="42.588863" lon="-5.558170">
        <ele>825.168</ele>
        <time>2021-10-13T19:21:44Z</time>
      </trkpt>
      <trkpt lat="42.589004" lon="-5.558484">
        <ele>825.515</ele>
        <time>2021-10-13T19:21:46Z</time>
      </trkpt>
      <trkpt lat="42.589142" lon="-5.558809">
        <ele>827.345</ele>
        <time>2021-10-13T19:21:48Z</time>
      </trkpt>
      <trkpt lat="42.589215" lon="-5.558981">
        <ele>827.478</ele>
        <time>2021-10-13T19:21:49Z</time>
      </trkpt>
      <trkpt lat="42.589294" lon="-5.559160">
        <ele>828.254</ele>
        <time>2021-10-13T19:21:50Z</time>
      </trkpt>
      <trkpt lat="42.589465" lon="-5.559549">
        <ele>828.123</ele>
        <time>2021-10-13T19:21:52Z</time>
      </trkpt>
      <trkpt lat="42.589652" lon="-5.559965">
        <ele>827.958</ele>
        <time>2021-10-13T19:21:54Z</time>
      </trkpt>
      <trkpt lat="42.589744" lon="-5.560178">
        <ele>827.496</ele>
        <time>2021-10-13T19:21:55Z</time>
      </trkpt>
      <trkpt lat="42.589838" lon="-5.560402">
        <ele>826.831</ele>
        <time>2021-10-13T19:21:56Z</time>
      </trkpt>
      <trkpt lat="42.590028" lon="-5.560835">
        <ele>827.324</ele>
        <time>2021-10-13T19:21:58Z</time>
      </trkpt>
      <trkpt lat="42.590125" lon="-5.561055">
        <ele>826.808</ele>
        <time>2021-10-13T19:21:59Z</time>
      </trkpt>
      <trkpt lat="42.590217" lon="-5.561263">
        <ele>826.457</ele>
        <time>2021-10-13T19:22:00Z</time>
      </trkpt>
      <trkpt lat="42.590382" lon="-5.561640">
        <ele>826.575</ele>
        <time>2021-10-13T19:22:02Z</time>
      </trkpt>
      <trkpt lat="42.590516" lon="-5.561939">
        <ele>827.392</ele>
        <time>2021-10-13T19:22:04Z</time>
      </trkpt>
      <trkpt lat="42.590576" lon="-5.562074">
        <ele>827.562</ele>
        <time>2021-10-13T19:22:05Z</time>
      </trkpt>
      <trkpt lat="42.590671" lon="-5.562287">
        <ele>830.235</ele>
        <time>2021-10-13T19:22:07Z</time>
      </trkpt>
      <trkpt lat="42.590714" lon="-5.562375">
        <ele>830.691</ele>
        <time>2021-10-13T19:22:08Z</time>
      </trkpt>
      <trkpt lat="42.590776" lon="-5.562511">
        <ele>831.620</ele>
        <time>2021-10-13T19:22:10Z</time>
      </trkpt>
      <trkpt lat="42.590801" lon="-5.562567">
        <ele>832.385</ele>
        <time>2021-10-13T19:22:11Z</time>
      </trkpt>
      <trkpt lat="42.590836" lon="-5.562637">
        <ele>833.478</ele>
        <time>2021-10-13T19:22:13Z</time>
      </trkpt>
      <trkpt lat="42.590869" lon="-5.562679">
        <ele>834.433</ele>
        <time>2021-10-13T19:22:36Z</time>
      </trkpt>
      <trkpt lat="42.590902" lon="-5.562756">
        <ele>834.326</ele>
        <time>2021-10-13T19:22:57Z</time>
      </trkpt>
      <trkpt lat="42.590967" lon="-5.562893">
        <ele>834.308</ele>
        <time>2021-10-13T19:22:59Z</time>
      </trkpt>
      <trkpt lat="42.591046" lon="-5.563060">
        <ele>834.165</ele>
        <time>2021-10-13T19:23:01Z</time>
      </trkpt>
      <trkpt lat="42.591098" lon="-5.563161">
        <ele>834.143</ele>
        <time>2021-10-13T19:23:02Z</time>
      </trkpt>
      <trkpt lat="42.591184" lon="-5.563337">
        <ele>834.130</ele>
        <time>2021-10-13T19:23:04Z</time>
      </trkpt>
      <trkpt lat="42.591225" lon="-5.563418">
        <ele>834.140</ele>
        <time>2021-10-13T19:23:05Z</time>
      </trkpt>
      <trkpt lat="42.591299" lon="-5.563567">
        <ele>834.173</ele>
        <time>2021-10-13T19:23:07Z</time>
      </trkpt>
      <trkpt lat="42.591335" lon="-5.563629">
        <ele>834.199</ele>
        <time>2021-10-13T19:23:08Z</time>
      </trkpt>
      <trkpt lat="42.591381" lon="-5.563721">
        <ele>834.178</ele>
        <time>2021-10-13T19:23:10Z</time>
      </trkpt>
      <trkpt lat="42.591410" lon="-5.563774">
        <ele>834.133</ele>
        <time>2021-10-13T19:23:12Z</time>
      </trkpt>
      <trkpt lat="42.591443" lon="-5.563854">
        <ele>834.128</ele>
        <time>2021-10-13T19:23:15Z</time>
      </trkpt>
      <trkpt lat="42.591494" lon="-5.563957">
        <ele>834.189</ele>
        <time>2021-10-13T19:23:17Z</time>
      </trkpt>
      <trkpt lat="42.591544" lon="-5.564070">
        <ele>834.117</ele>
        <time>2021-10-13T19:23:19Z</time>
      </trkpt>
      <trkpt lat="42.591579" lon="-5.564144">
        <ele>834.108</ele>
        <time>2021-10-13T19:23:20Z</time>
      </trkpt>
      <trkpt lat="42.591649" lon="-5.564299">
        <ele>834.170</ele>
        <time>2021-10-13T19:23:22Z</time>
      </trkpt>
      <trkpt lat="42.591679" lon="-5.564381">
        <ele>834.128</ele>
        <time>2021-10-13T19:23:23Z</time>
      </trkpt>
      <trkpt lat="42.591732" lon="-5.564544">
        <ele>834.195</ele>
        <time>2021-10-13T19:23:25Z</time>
      </trkpt>
      <trkpt lat="42.591760" lon="-5.564628">
        <ele>834.125</ele>
        <time>2021-10-13T19:23:26Z</time>
      </trkpt>
      <trkpt lat="42.591833" lon="-5.564750">
        <ele>834.138</ele>
        <time>2021-10-13T19:23:28Z</time>
      </trkpt>
      <trkpt lat="42.591882" lon="-5.564815">
        <ele>834.124</ele>
        <time>2021-10-13T19:23:30Z</time>
      </trkpt>
      <trkpt lat="42.591912" lon="-5.564889">
        <ele>834.133</ele>
        <time>2021-10-13T19:23:32Z</time>
      </trkpt>
      <trkpt lat="42.591938" lon="-5.565000">
        <ele>834.168</ele>
        <time>2021-10-13T19:23:34Z</time>
      </trkpt>
      <trkpt lat="42.591974" lon="-5.565146">
        <ele>834.178</ele>
        <time>2021-10-13T19:23:36Z</time>
      </trkpt>
      <trkpt lat="42.592029" lon="-5.565347">
        <ele>834.133</ele>
        <time>2021-10-13T19:23:38Z</time>
      </trkpt>
      <trkpt lat="42.592087" lon="-5.565540">
        <ele>834.126</ele>
        <time>2021-10-13T19:23:40Z</time>
      </trkpt>
      <trkpt lat="42.592121" lon="-5.565690">
        <ele>834.108</ele>
        <time>2021-10-13T19:23:42Z</time>
      </trkpt>
      <trkpt lat="42.592154" lon="-5.565804">
        <ele>834.195</ele>
        <time>2021-10-13T19:23:44Z</time>
      </trkpt>
      <trkpt lat="42.592178" lon="-5.565898">
        <ele>834.173</ele>
        <time>2021-10-13T19:23:46Z</time>
      </trkpt>
      <trkpt lat="42.592213" lon="-5.565983">
        <ele>834.130</ele>
        <time>2021-10-13T19:23:48Z</time>
      </trkpt>
      <trkpt lat="42.592259" lon="-5.566024">
        <ele>834.130</ele>
        <time>2021-10-13T19:23:50Z</time>
      </trkpt>
      <trkpt lat="42.592322" lon="-5.566018">
        <ele>834.193</ele>
        <time>2021-10-13T19:23:52Z</time>
      </trkpt>
      <trkpt lat="42.592374" lon="-5.565925">
        <ele>834.149</ele>
        <time>2021-10-13T19:23:54Z</time>
      </trkpt>
      <trkpt lat="42.592393" lon="-5.565792">
        <ele>836.798</ele>
        <time>2021-10-13T19:23:56Z</time>
      </trkpt>
      <trkpt lat="42.592409" lon="-5.565689">
        <ele>838.013</ele>
        <time>2021-10-13T19:23:58Z</time>
      </trkpt>
      <trkpt lat="42.592445" lon="-5.565579">
        <ele>839.441</ele>
        <time>2021-10-13T19:24:00Z</time>
      </trkpt>
      <trkpt lat="42.592465" lon="-5.565485">
        <ele>839.481</ele>
        <time>2021-10-13T19:24:02Z</time>
      </trkpt>
      <trkpt lat="42.592497" lon="-5.565399">
        <ele>838.209</ele>
        <time>2021-10-13T19:24:04Z</time>
      </trkpt>
      <trkpt lat="42.592545" lon="-5.565327">
        <ele>837.308</ele>
        <time>2021-10-13T19:24:06Z</time>
      </trkpt>
      <trkpt lat="42.592621" lon="-5.565289">
        <ele>837.232</ele>
        <time>2021-10-13T19:24:08Z</time>
      </trkpt>
      <trkpt lat="42.592673" lon="-5.565295">
        <ele>837.370</ele>
        <time>2021-10-13T19:24:10Z</time>
      </trkpt>
      <trkpt lat="42.592720" lon="-5.565288">
        <ele>838.187</ele>
        <time>2021-10-13T19:24:15Z</time>
      </trkpt>
      <trkpt lat="42.592792" lon="-5.565302">
        <ele>838.897</ele>
        <time>2021-10-13T19:24:17Z</time>
      </trkpt>
      <trkpt lat="42.592840" lon="-5.565324">
        <ele>839.150</ele>
        <time>2021-10-13T19:24:18Z</time>
      </trkpt>
      <trkpt lat="42.592910" lon="-5.565352">
        <ele>839.616</ele>
        <time>2021-10-13T19:24:19Z</time>
      </trkpt>
      <trkpt lat="42.592999" lon="-5.565387">
        <ele>840.785</ele>
        <time>2021-10-13T19:24:20Z</time>
      </trkpt>
      <trkpt lat="42.593187" lon="-5.565481">
        <ele>841.380</ele>
        <time>2021-10-13T19:24:22Z</time>
      </trkpt>
      <trkpt lat="42.593276" lon="-5.565535">
        <ele>841.282</ele>
        <time>2021-10-13T19:24:23Z</time>
      </trkpt>
      <trkpt lat="42.593356" lon="-5.565581">
        <ele>840.343</ele>
        <time>2021-10-13T19:24:24Z</time>
      </trkpt>
      <trkpt lat="42.593510" lon="-5.565644">
        <ele>838.817</ele>
        <time>2021-10-13T19:24:26Z</time>
      </trkpt>
      <trkpt lat="42.593676" lon="-5.565674">
        <ele>838.408</ele>
        <time>2021-10-13T19:24:28Z</time>
      </trkpt>
      <trkpt lat="42.593857" lon="-5.565706">
        <ele>837.376</ele>
        <time>2021-10-13T19:24:30Z</time>
      </trkpt>
      <trkpt lat="42.594033" lon="-5.565746">
        <ele>837.364</ele>
        <time>2021-10-13T19:24:32Z</time>
      </trkpt>
      <trkpt lat="42.594220" lon="-5.565759">
        <ele>836.161</ele>
        <time>2021-10-13T19:24:34Z</time>
      </trkpt>
      <trkpt lat="42.594293" lon="-5.565772">
        <ele>835.831</ele>
        <time>2021-10-13T19:24:35Z</time>
      </trkpt>
      <trkpt lat="42.594355" lon="-5.565812">
        <ele>835.744</ele>
        <time>2021-10-13T19:24:36Z</time>
      </trkpt>
      <trkpt lat="42.594413" lon="-5.565871">
        <ele>835.060</ele>
        <time>2021-10-13T19:24:37Z</time>
      </trkpt>
      <trkpt lat="42.594475" lon="-5.565923">
        <ele>834.329</ele>
        <time>2021-10-13T19:24:38Z</time>
      </trkpt>
      <trkpt lat="42.594617" lon="-5.566002">
        <ele>833.164</ele>
        <time>2021-10-13T19:24:40Z</time>
      </trkpt>
      <trkpt lat="42.594764" lon="-5.566086">
        <ele>831.895</ele>
        <time>2021-10-13T19:24:42Z</time>
      </trkpt>
      <trkpt lat="42.594909" lon="-5.566172">
        <ele>831.349</ele>
        <time>2021-10-13T19:24:44Z</time>
      </trkpt>
      <trkpt lat="42.595041" lon="-5.566239">
        <ele>831.223</ele>
        <time>2021-10-13T19:24:46Z</time>
      </trkpt>
      <trkpt lat="42.595160" lon="-5.566309">
        <ele>830.908</ele>
        <time>2021-10-13T19:24:48Z</time>
      </trkpt>
      <trkpt lat="42.595203" lon="-5.566347">
        <ele>830.817</ele>
        <time>2021-10-13T19:24:49Z</time>
      </trkpt>
      <trkpt lat="42.595238" lon="-5.566385">
        <ele>830.975</ele>
        <time>2021-10-13T19:24:50Z</time>
      </trkpt>
      <trkpt lat="42.595308" lon="-5.566461">
        <ele>830.992</ele>
        <time>2021-10-13T19:24:52Z</time>
      </trkpt>
      <trkpt lat="42.595348" lon="-5.566500">
        <ele>831.162</ele>
        <time>2021-10-13T19:24:53Z</time>
      </trkpt>
      <trkpt lat="42.595453" lon="-5.566576">
        <ele>831.485</ele>
        <time>2021-10-13T19:24:55Z</time>
      </trkpt>
      <trkpt lat="42.595510" lon="-5.566617">
        <ele>831.681</ele>
        <time>2021-10-13T19:24:56Z</time>
      </trkpt>
      <trkpt lat="42.595626" lon="-5.566644">
        <ele>832.140</ele>
        <time>2021-10-13T19:24:58Z</time>
      </trkpt>
      <trkpt lat="42.595728" lon="-5.566596">
        <ele>832.185</ele>
        <time>2021-10-13T19:25:00Z</time>
      </trkpt>
      <trkpt lat="42.595777" lon="-5.566528">
        <ele>831.873</ele>
        <time>2021-10-13T19:25:02Z</time>
      </trkpt>
      <trkpt lat="42.595853" lon="-5.566411">
        <ele>831.185</ele>
        <time>2021-10-13T19:25:04Z</time>
      </trkpt>
      <trkpt lat="42.595957" lon="-5.566282">
        <ele>830.613</ele>
        <time>2021-10-13T19:25:06Z</time>
      </trkpt>
      <trkpt lat="42.596082" lon="-5.566169">
        <ele>831.408</ele>
        <time>2021-10-13T19:25:08Z</time>
      </trkpt>
      <trkpt lat="42.596178" lon="-5.566095">
        <ele>831.465</ele>
        <time>2021-10-13T19:25:10Z</time>
      </trkpt>
      <trkpt lat="42.596219" lon="-5.566057">
        <ele>831.463</ele>
        <time>2021-10-13T19:25:11Z</time>
      </trkpt>
      <trkpt lat="42.596262" lon="-5.566016">
        <ele>831.410</ele>
        <time>2021-10-13T19:25:12Z</time>
      </trkpt>
      <trkpt lat="42.596361" lon="-5.565925">
        <ele>831.460</ele>
        <time>2021-10-13T19:25:14Z</time>
      </trkpt>
      <trkpt lat="42.596468" lon="-5.565835">
        <ele>831.723</ele>
        <time>2021-10-13T19:25:16Z</time>
      </trkpt>
      <trkpt lat="42.596563" lon="-5.565765">
        <ele>832.479</ele>
        <time>2021-10-13T19:25:18Z</time>
      </trkpt>
      <trkpt lat="42.596644" lon="-5.565704">
        <ele>832.688</ele>
        <time>2021-10-13T19:25:20Z</time>
      </trkpt>
      <trkpt lat="42.596691" lon="-5.565676">
        <ele>832.583</ele>
        <time>2021-10-13T19:25:21Z</time>
      </trkpt>
      <trkpt lat="42.596735" lon="-5.565657">
        <ele>832.093</ele>
        <time>2021-10-13T19:25:23Z</time>
      </trkpt>
      <trkpt lat="42.596779" lon="-5.565636">
        <ele>832.065</ele>
        <time>2021-10-13T19:25:26Z</time>
      </trkpt>
      <trkpt lat="42.596824" lon="-5.565657">
        <ele>832.021</ele>
        <time>2021-10-13T19:25:28Z</time>
      </trkpt>
      <trkpt lat="42.596874" lon="-5.565660">
        <ele>832.008</ele>
        <time>2021-10-13T19:25:30Z</time>
      </trkpt>
      <trkpt lat="42.596965" lon="-5.565673">
        <ele>832.017</ele>
        <time>2021-10-13T19:25:32Z</time>
      </trkpt>
      <trkpt lat="42.597078" lon="-5.565690">
        <ele>832.045</ele>
        <time>2021-10-13T19:25:34Z</time>
      </trkpt>
      <trkpt lat="42.597144" lon="-5.565702">
        <ele>832.062</ele>
        <time>2021-10-13T19:25:36Z</time>
      </trkpt>
      <trkpt lat="42.597192" lon="-5.565731">
        <ele>832.052</ele>
        <time>2021-10-13T19:25:39Z</time>
      </trkpt>
      <trkpt lat="42.597275" lon="-5.565732">
        <ele>832.085</ele>
        <time>2021-10-13T19:25:41Z</time>
      </trkpt>
      <trkpt lat="42.597346" lon="-5.565736">
        <ele>832.081</ele>
        <time>2021-10-13T19:25:42Z</time>
      </trkpt>
      <trkpt lat="42.597427" lon="-5.565742">
        <ele>832.010</ele>
        <time>2021-10-13T19:25:43Z</time>
      </trkpt>
      <trkpt lat="42.597506" lon="-5.565747">
        <ele>832.065</ele>
        <time>2021-10-13T19:25:44Z</time>
      </trkpt>
      <trkpt lat="42.597643" lon="-5.565752">
        <ele>832.099</ele>
        <time>2021-10-13T19:25:46Z</time>
      </trkpt>
      <trkpt lat="42.597709" lon="-5.565741">
        <ele>832.007</ele>
        <time>2021-10-13T19:25:47Z</time>
      </trkpt>
      <trkpt lat="42.597769" lon="-5.565733">
        <ele>832.027</ele>
        <time>2021-10-13T19:25:48Z</time>
      </trkpt>
      <trkpt lat="42.597863" lon="-5.565754">
        <ele>832.008</ele>
        <time>2021-10-13T19:25:50Z</time>
      </trkpt>
      <trkpt lat="42.597905" lon="-5.565787">
        <ele>831.957</ele>
        <time>2021-10-13T19:25:53Z</time>
      </trkpt>
      <trkpt lat="42.597951" lon="-5.565826">
        <ele>831.985</ele>
        <time>2021-10-13T19:25:57Z</time>
      </trkpt>
      <trkpt lat="42.598008" lon="-5.565817">
        <ele>831.962</ele>
        <time>2021-10-13T19:26:03Z</time>
      </trkpt>
      <trkpt lat="42.597995" lon="-5.565734">
        <ele>832.092</ele>
        <time>2021-10-13T19:26:34Z</time>
      </trkpt>
      <trkpt lat="42.597959" lon="-5.565694">
        <ele>832.085</ele>
        <time>2021-10-13T19:26:37Z</time>
      </trkpt>
      <trkpt lat="42.598007" lon="-5.565698">
        <ele>841.091</ele>
        <time>2021-10-13T19:26:54Z</time>
      </trkpt>
      <trkpt lat="42.598046" lon="-5.565767">
        <ele>841.050</ele>
        <time>2021-10-13T19:28:59Z</time>
      </trkpt>
      <trkpt lat="42.598042" lon="-5.565834">
        <ele>841.085</ele>
        <time>2021-10-13T19:29:02Z</time>
      </trkpt>
      <trkpt lat="42.598068" lon="-5.565753">
        <ele>841.016</ele>
        <time>2021-10-13T19:31:39Z</time>
      </trkpt>
      <trkpt lat="42.598029" lon="-5.565785">
        <ele>841.076</ele>
        <time>2021-10-13T19:32:07Z</time>
      </trkpt>
      <trkpt lat="42.598042" lon="-5.565844">
        <ele>840.713</ele>
        <time>2021-10-13T19:34:26Z</time>
      </trkpt>
      <trkpt lat="42.598087" lon="-5.565855">
        <ele>840.708</ele>
        <time>2021-10-13T19:34:28Z</time>
      </trkpt>
      <trkpt lat="42.598142" lon="-5.565866">
        <ele>840.799</ele>
        <time>2021-10-13T19:34:31Z</time>
      </trkpt>
      <trkpt lat="42.598187" lon="-5.565874">
        <ele>840.797</ele>
        <time>2021-10-13T19:34:33Z</time>
      </trkpt>
      <trkpt lat="42.598245" lon="-5.565894">
        <ele>840.664</ele>
        <time>2021-10-13T19:34:35Z</time>
      </trkpt>
      <trkpt lat="42.598293" lon="-5.565897">
        <ele>840.614</ele>
        <time>2021-10-13T19:34:37Z</time>
      </trkpt>
      <trkpt lat="42.598338" lon="-5.565900">
        <ele>840.627</ele>
        <time>2021-10-13T19:34:40Z</time>
      </trkpt>
      <trkpt lat="42.598385" lon="-5.565923">
        <ele>840.673</ele>
        <time>2021-10-13T19:34:43Z</time>
      </trkpt>
      <trkpt lat="42.598430" lon="-5.565956">
        <ele>840.612</ele>
        <time>2021-10-13T19:34:46Z</time>
      </trkpt>
      <trkpt lat="42.598477" lon="-5.565965">
        <ele>840.617</ele>
        <time>2021-10-13T19:34:50Z</time>
      </trkpt>
      <trkpt lat="42.598525" lon="-5.565993">
        <ele>840.627</ele>
        <time>2021-10-13T19:34:56Z</time>
      </trkpt>
      <trkpt lat="42.598574" lon="-5.566008">
        <ele>840.668</ele>
        <time>2021-10-13T19:35:00Z</time>
      </trkpt>
      <trkpt lat="42.598626" lon="-5.566019">
        <ele>840.614</ele>
        <time>2021-10-13T19:35:04Z</time>
      </trkpt>
      <trkpt lat="42.598676" lon="-5.566025">
        <ele>840.608</ele>
        <time>2021-10-13T19:35:09Z</time>
      </trkpt>
      <trkpt lat="42.598723" lon="-5.566018">
        <ele>840.680</ele>
        <time>2021-10-13T19:35:11Z</time>
      </trkpt>
      <trkpt lat="42.598765" lon="-5.565991">
        <ele>840.628</ele>
        <time>2021-10-13T19:35:15Z</time>
      </trkpt>
      <trkpt lat="42.598810" lon="-5.565977">
        <ele>840.685</ele>
        <time>2021-10-13T19:35:21Z</time>
      </trkpt>
      <trkpt lat="42.598864" lon="-5.565959">
        <ele>840.665</ele>
        <time>2021-10-13T19:35:24Z</time>
      </trkpt>
      <trkpt lat="42.598912" lon="-5.565945">
        <ele>840.698</ele>
        <time>2021-10-13T19:35:26Z</time>
      </trkpt>
      <trkpt lat="42.598964" lon="-5.565959">
        <ele>840.644</ele>
        <time>2021-10-13T19:35:28Z</time>
      </trkpt>
      <trkpt lat="42.599006" lon="-5.565984">
        <ele>840.663</ele>
        <time>2021-10-13T19:35:31Z</time>
      </trkpt>
      <trkpt lat="42.599047" lon="-5.566042">
        <ele>840.638</ele>
        <time>2021-10-13T19:35:34Z</time>
      </trkpt>
      <trkpt lat="42.599179" lon="-5.566049">
        <ele>840.636</ele>
        <time>2021-10-13T19:35:43Z</time>
      </trkpt>
      <trkpt lat="42.599337" lon="-5.566090">
        <ele>840.717</ele>
        <time>2021-10-13T19:35:44Z</time>
      </trkpt>
      <trkpt lat="42.599610" lon="-5.566137">
        <ele>840.718</ele>
        <time>2021-10-13T19:35:46Z</time>
      </trkpt>
      <trkpt lat="42.599452" lon="-5.566064">
        <ele>840.708</ele>
        <time>2021-10-13T19:35:49Z</time>
      </trkpt>
      <trkpt lat="42.599314" lon="-5.566023">
        <ele>840.721</ele>
        <time>2021-10-13T19:35:50Z</time>
      </trkpt>
      <trkpt lat="42.599092" lon="-5.565942">
        <ele>840.769</ele>
        <time>2021-10-13T19:35:52Z</time>
      </trkpt>
      <trkpt lat="42.599028" lon="-5.565916">
        <ele>840.776</ele>
        <time>2021-10-13T19:35:54Z</time>
      </trkpt>
      <trkpt lat="42.598975" lon="-5.565904">
        <ele>840.786</ele>
        <time>2021-10-13T19:35:56Z</time>
      </trkpt>
      <trkpt lat="42.599042" lon="-5.565921">
        <ele>840.729</ele>
        <time>2021-10-13T19:35:58Z</time>
      </trkpt>
      <trkpt lat="42.599077" lon="-5.565962">
        <ele>840.755</ele>
        <time>2021-10-13T19:36:04Z</time>
      </trkpt>
      <trkpt lat="42.599085" lon="-5.566022">
        <ele>840.844</ele>
        <time>2021-10-13T19:36:23Z</time>
      </trkpt>
      <trkpt lat="42.599105" lon="-5.566077">
        <ele>840.899</ele>
        <time>2021-10-13T19:36:47Z</time>
      </trkpt>
      <trkpt lat="42.599115" lon="-5.566157">
        <ele>840.821</ele>
        <time>2021-10-13T19:36:54Z</time>
      </trkpt>
      <trkpt lat="42.599115" lon="-5.566223">
        <ele>840.841</ele>
        <time>2021-10-13T19:36:55Z</time>
      </trkpt>
      <trkpt lat="42.599105" lon="-5.566291">
        <ele>840.805</ele>
        <time>2021-10-13T19:36:57Z</time>
      </trkpt>
      <trkpt lat="42.599131" lon="-5.566344">
        <ele>840.708</ele>
        <time>2021-10-13T19:37:01Z</time>
      </trkpt>
      <trkpt lat="42.599089" lon="-5.566378">
        <ele>840.750</ele>
        <time>2021-10-13T19:37:05Z</time>
      </trkpt>
      <trkpt lat="42.599044" lon="-5.566403">
        <ele>840.768</ele>
        <time>2021-10-13T19:37:08Z</time>
      </trkpt>
      <trkpt lat="42.599048" lon="-5.566473">
        <ele>840.785</ele>
        <time>2021-10-13T19:37:11Z</time>
      </trkpt>
      <trkpt lat="42.599051" lon="-5.566538">
        <ele>840.765</ele>
        <time>2021-10-13T19:37:15Z</time>
      </trkpt>
      <trkpt lat="42.598983" lon="-5.566557">
        <ele>840.748</ele>
        <time>2021-10-13T19:37:27Z</time>
      </trkpt>
      <trkpt lat="42.598928" lon="-5.566564">
        <ele>840.794</ele>
        <time>2021-10-13T19:37:28Z</time>
      </trkpt>
      <trkpt lat="42.598895" lon="-5.566613">
        <ele>840.733</ele>
        <time>2021-10-13T19:37:32Z</time>
      </trkpt>
      <trkpt lat="42.598936" lon="-5.566642">
        <ele>840.738</ele>
        <time>2021-10-13T19:37:35Z</time>
      </trkpt>
      <trkpt lat="42.598967" lon="-5.566694">
        <ele>840.627</ele>
        <time>2021-10-13T19:37:41Z</time>
      </trkpt>
      <trkpt lat="42.598966" lon="-5.566768">
        <ele>840.668</ele>
        <time>2021-10-13T19:37:43Z</time>
      </trkpt>
      <trkpt lat="42.598971" lon="-5.566830">
        <ele>840.614</ele>
        <time>2021-10-13T19:37:46Z</time>
      </trkpt>
      <trkpt lat="42.598993" lon="-5.566887">
        <ele>840.608</ele>
        <time>2021-10-13T19:37:49Z</time>
      </trkpt>
      <trkpt lat="42.598965" lon="-5.566938">
        <ele>840.630</ele>
        <time>2021-10-13T19:37:51Z</time>
      </trkpt>
      <trkpt lat="42.598987" lon="-5.566993">
        <ele>840.658</ele>
        <time>2021-10-13T19:37:54Z</time>
      </trkpt>
      <trkpt lat="42.598979" lon="-5.567057">
        <ele>840.685</ele>
        <time>2021-10-13T19:37:58Z</time>
      </trkpt>
      <trkpt lat="42.598945" lon="-5.567103">
        <ele>840.645</ele>
        <time>2021-10-13T19:38:01Z</time>
      </trkpt>
      <trkpt lat="42.598923" lon="-5.567158">
        <ele>840.638</ele>
        <time>2021-10-13T19:38:03Z</time>
      </trkpt>
      <trkpt lat="42.598911" lon="-5.567229">
        <ele>840.694</ele>
        <time>2021-10-13T19:38:06Z</time>
      </trkpt>
      <trkpt lat="42.598924" lon="-5.567288">
        <ele>840.613</ele>
        <time>2021-10-13T19:38:16Z</time>
      </trkpt>
      <trkpt lat="42.598980" lon="-5.567279">
        <ele>840.648</ele>
        <time>2021-10-13T19:38:18Z</time>
      </trkpt>
      <trkpt lat="42.599023" lon="-5.567256">
        <ele>840.663</ele>
        <time>2021-10-13T19:38:21Z</time>
      </trkpt>
      <trkpt lat="42.599038" lon="-5.567314">
        <ele>840.644</ele>
        <time>2021-10-13T19:38:41Z</time>
      </trkpt>
      <trkpt lat="42.599057" lon="-5.567374">
        <ele>840.618</ele>
        <time>2021-10-13T19:38:54Z</time>
      </trkpt>
      <trkpt lat="42.599050" lon="-5.567437">
        <ele>840.508</ele>
        <time>2021-10-13T19:39:01Z</time>
      </trkpt>
      <trkpt lat="42.599025" lon="-5.567491">
        <ele>840.534</ele>
        <time>2021-10-13T19:39:09Z</time>
      </trkpt>
      <trkpt lat="42.599007" lon="-5.567423">
        <ele>840.482</ele>
        <time>2021-10-13T19:39:16Z</time>
      </trkpt>
      <trkpt lat="42.599012" lon="-5.567327">
        <ele>840.339</ele>
        <time>2021-10-13T19:39:18Z</time>
      </trkpt>
      <trkpt lat="42.599012" lon="-5.567263">
        <ele>840.329</ele>
        <time>2021-10-13T19:39:20Z</time>
      </trkpt>
      <trkpt lat="42.598997" lon="-5.567202">
        <ele>840.392</ele>
        <time>2021-10-13T19:39:23Z</time>
      </trkpt>
      <trkpt lat="42.598963" lon="-5.567152">
        <ele>840.278</ele>
        <time>2021-10-13T19:39:40Z</time>
      </trkpt>
      <trkpt lat="42.598948" lon="-5.567077">
        <ele>840.227</ele>
        <time>2021-10-13T19:39:43Z</time>
      </trkpt>
      <trkpt lat="42.598971" lon="-5.567017">
        <ele>840.232</ele>
        <time>2021-10-13T19:39:45Z</time>
      </trkpt>
      <trkpt lat="42.599021" lon="-5.566950">
        <ele>840.283</ele>
        <time>2021-10-13T19:39:47Z</time>
      </trkpt>
      <trkpt lat="42.599035" lon="-5.566889">
        <ele>840.225</ele>
        <time>2021-10-13T19:39:50Z</time>
      </trkpt>
      <trkpt lat="42.599050" lon="-5.566828">
        <ele>840.217</ele>
        <time>2021-10-13T19:39:54Z</time>
      </trkpt>
      <trkpt lat="42.599050" lon="-5.566763">
        <ele>840.208</ele>
        <time>2021-10-13T19:39:57Z</time>
      </trkpt>
      <trkpt lat="42.599053" lon="-5.566699">
        <ele>840.216</ele>
        <time>2021-10-13T19:40:00Z</time>
      </trkpt>
      <trkpt lat="42.599056" lon="-5.566622">
        <ele>840.284</ele>
        <time>2021-10-13T19:40:03Z</time>
      </trkpt>
      <trkpt lat="42.599048" lon="-5.566549">
        <ele>840.231</ele>
        <time>2021-10-13T19:40:05Z</time>
      </trkpt>
      <trkpt lat="42.599049" lon="-5.566481">
        <ele>840.261</ele>
        <time>2021-10-13T19:40:11Z</time>
      </trkpt>
      <trkpt lat="42.599075" lon="-5.566420">
        <ele>840.274</ele>
        <time>2021-10-13T19:40:14Z</time>
      </trkpt>
      <trkpt lat="42.599104" lon="-5.566370">
        <ele>840.260</ele>
        <time>2021-10-13T19:40:18Z</time>
      </trkpt>
      <trkpt lat="42.599117" lon="-5.566310">
        <ele>840.299</ele>
        <time>2021-10-13T19:40:21Z</time>
      </trkpt>
      <trkpt lat="42.599112" lon="-5.566249">
        <ele>840.294</ele>
        <time>2021-10-13T19:40:24Z</time>
      </trkpt>
      <trkpt lat="42.599139" lon="-5.566200">
        <ele>840.248</ele>
        <time>2021-10-13T19:40:30Z</time>
      </trkpt>
      <trkpt lat="42.599181" lon="-5.566170">
        <ele>840.261</ele>
        <time>2021-10-13T19:40:33Z</time>
      </trkpt>
      <trkpt lat="42.599217" lon="-5.566117">
        <ele>840.117</ele>
        <time>2021-10-13T19:40:37Z</time>
      </trkpt>
      <trkpt lat="42.599191" lon="-5.566051">
        <ele>840.108</ele>
        <time>2021-10-13T19:40:39Z</time>
      </trkpt>
      <trkpt lat="42.599165" lon="-5.565986">
        <ele>840.122</ele>
        <time>2021-10-13T19:40:41Z</time>
      </trkpt>
      <trkpt lat="42.599134" lon="-5.565929">
        <ele>840.110</ele>
        <time>2021-10-13T19:40:43Z</time>
      </trkpt>
      <trkpt lat="42.599101" lon="-5.565884">
        <ele>840.197</ele>
        <time>2021-10-13T19:40:47Z</time>
      </trkpt>
      <trkpt lat="42.599053" lon="-5.565880">
        <ele>840.227</ele>
        <time>2021-10-13T19:40:55Z</time>
      </trkpt>
      <trkpt lat="42.599005" lon="-5.565896">
        <ele>840.320</ele>
        <time>2021-10-13T19:40:57Z</time>
      </trkpt>
      <trkpt lat="42.598951" lon="-5.565911">
        <ele>840.326</ele>
        <time>2021-10-13T19:40:59Z</time>
      </trkpt>
      <trkpt lat="42.598899" lon="-5.565933">
        <ele>840.355</ele>
        <time>2021-10-13T19:41:01Z</time>
      </trkpt>
      <trkpt lat="42.598853" lon="-5.565953">
        <ele>840.370</ele>
        <time>2021-10-13T19:41:04Z</time>
      </trkpt>
      <trkpt lat="42.598793" lon="-5.565945">
        <ele>840.394</ele>
        <time>2021-10-13T19:41:11Z</time>
      </trkpt>
      <trkpt lat="42.598739" lon="-5.565943">
        <ele>840.357</ele>
        <time>2021-10-13T19:41:14Z</time>
      </trkpt>
      <trkpt lat="42.598692" lon="-5.565942">
        <ele>840.322</ele>
        <time>2021-10-13T19:41:16Z</time>
      </trkpt>
      <trkpt lat="42.598635" lon="-5.565949">
        <ele>840.308</ele>
        <time>2021-10-13T19:41:21Z</time>
      </trkpt>
      <trkpt lat="42.598588" lon="-5.565943">
        <ele>840.377</ele>
        <time>2021-10-13T19:41:23Z</time>
      </trkpt>
      <trkpt lat="42.598540" lon="-5.565930">
        <ele>840.285</ele>
        <time>2021-10-13T19:41:27Z</time>
      </trkpt>
      <trkpt lat="42.598491" lon="-5.565942">
        <ele>840.192</ele>
        <time>2021-10-13T19:41:35Z</time>
      </trkpt>
      <trkpt lat="42.598443" lon="-5.565944">
        <ele>840.152</ele>
        <time>2021-10-13T19:41:38Z</time>
      </trkpt>
      <trkpt lat="42.598392" lon="-5.565955">
        <ele>840.135</ele>
        <time>2021-10-13T19:41:40Z</time>
      </trkpt>
      <trkpt lat="42.598347" lon="-5.565941">
        <ele>840.141</ele>
        <time>2021-10-13T19:41:48Z</time>
      </trkpt>
      <trkpt lat="42.598282" lon="-5.565937">
        <ele>840.210</ele>
        <time>2021-10-13T19:41:51Z</time>
      </trkpt>
      <trkpt lat="42.598235" lon="-5.565916">
        <ele>840.395</ele>
        <time>2021-10-13T19:41:53Z</time>
      </trkpt>
      <trkpt lat="42.598189" lon="-5.565895">
        <ele>840.388</ele>
        <time>2021-10-13T19:41:55Z</time>
      </trkpt>
      <trkpt lat="42.598141" lon="-5.565863">
        <ele>840.324</ele>
        <time>2021-10-13T19:41:57Z</time>
      </trkpt>
      <trkpt lat="42.598106" lon="-5.565820">
        <ele>840.326</ele>
        <time>2021-10-13T19:42:01Z</time>
      </trkpt>
      <trkpt lat="42.598069" lon="-5.565783">
        <ele>840.308</ele>
        <time>2021-10-13T19:42:10Z</time>
      </trkpt>
      <trkpt lat="42.598047" lon="-5.565729">
        <ele>840.396</ele>
        <time>2021-10-13T19:42:19Z</time>
      </trkpt>
      <trkpt lat="42.598072" lon="-5.565784">
        <ele>840.374</ele>
        <time>2021-10-13T19:42:30Z</time>
      </trkpt>
      <trkpt lat="42.598022" lon="-5.565769">
        <ele>840.231</ele>
        <time>2021-10-13T19:44:24Z</time>
      </trkpt>
      <trkpt lat="42.597989" lon="-5.565725">
        <ele>840.251</ele>
        <time>2021-10-13T19:44:27Z</time>
      </trkpt>
      <trkpt lat="42.598052" lon="-5.565723">
        <ele>840.394</ele>
        <time>2021-10-13T19:46:07Z</time>
      </trkpt>
      <trkpt lat="42.598110" lon="-5.565708">
        <ele>840.330</ele>
        <time>2021-10-13T19:46:09Z</time>
      </trkpt>
      <trkpt lat="42.598171" lon="-5.565700">
        <ele>840.399</ele>
        <time>2021-10-13T19:46:11Z</time>
      </trkpt>
      <trkpt lat="42.598213" lon="-5.565655">
        <ele>840.714</ele>
        <time>2021-10-13T19:46:13Z</time>
      </trkpt>
      <trkpt lat="42.598245" lon="-5.565608">
        <ele>840.779</ele>
        <time>2021-10-13T19:46:14Z</time>
      </trkpt>
      <trkpt lat="42.598280" lon="-5.565499">
        <ele>840.805</ele>
        <time>2021-10-13T19:46:16Z</time>
      </trkpt>
      <trkpt lat="42.598302" lon="-5.565427">
        <ele>840.825</ele>
        <time>2021-10-13T19:46:17Z</time>
      </trkpt>
      <trkpt lat="42.598392" lon="-5.565326">
        <ele>840.808</ele>
        <time>2021-10-13T19:46:19Z</time>
      </trkpt>
      <trkpt lat="42.598438" lon="-5.565288">
        <ele>840.815</ele>
        <time>2021-10-13T19:46:20Z</time>
      </trkpt>
      <trkpt lat="42.598497" lon="-5.565231">
        <ele>840.873</ele>
        <time>2021-10-13T19:46:22Z</time>
      </trkpt>
      <trkpt lat="42.598546" lon="-5.565176">
        <ele>840.820</ele>
        <time>2021-10-13T19:46:24Z</time>
      </trkpt>
      <trkpt lat="42.598564" lon="-5.565044">
        <ele>840.860</ele>
        <time>2021-10-13T19:46:26Z</time>
      </trkpt>
      <trkpt lat="42.598563" lon="-5.564862">
        <ele>840.873</ele>
        <time>2021-10-13T19:46:28Z</time>
      </trkpt>
      <trkpt lat="42.598563" lon="-5.564776">
        <ele>840.829</ele>
        <time>2021-10-13T19:46:29Z</time>
      </trkpt>
      <trkpt lat="42.598560" lon="-5.564706">
        <ele>840.858</ele>
        <time>2021-10-13T19:46:30Z</time>
      </trkpt>
      <trkpt lat="42.598561" lon="-5.564610">
        <ele>840.913</ele>
        <time>2021-10-13T19:46:32Z</time>
      </trkpt>
      <trkpt lat="42.598559" lon="-5.564491">
        <ele>840.934</ele>
        <time>2021-10-13T19:46:34Z</time>
      </trkpt>
      <trkpt lat="42.598534" lon="-5.564278">
        <ele>840.955</ele>
        <time>2021-10-13T19:46:36Z</time>
      </trkpt>
      <trkpt lat="42.598498" lon="-5.564058">
        <ele>840.910</ele>
        <time>2021-10-13T19:46:38Z</time>
      </trkpt>
      <trkpt lat="42.598460" lon="-5.563835">
        <ele>840.908</ele>
        <time>2021-10-13T19:46:40Z</time>
      </trkpt>
      <trkpt lat="42.598442" lon="-5.563724">
        <ele>840.921</ele>
        <time>2021-10-13T19:46:41Z</time>
      </trkpt>
      <trkpt lat="42.598417" lon="-5.563555">
        <ele>840.999</ele>
        <time>2021-10-13T19:46:43Z</time>
      </trkpt>
      <trkpt lat="42.598406" lon="-5.563462">
        <ele>840.946</ele>
        <time>2021-10-13T19:46:45Z</time>
      </trkpt>
      <trkpt lat="42.598405" lon="-5.563396">
        <ele>840.966</ele>
        <time>2021-10-13T19:46:49Z</time>
      </trkpt>
      <trkpt lat="42.598408" lon="-5.563309">
        <ele>840.919</ele>
        <time>2021-10-13T19:46:54Z</time>
      </trkpt>
      <trkpt lat="42.598476" lon="-5.563237">
        <ele>840.955</ele>
        <time>2021-10-13T19:46:56Z</time>
      </trkpt>
      <trkpt lat="42.598599" lon="-5.563176">
        <ele>840.984</ele>
        <time>2021-10-13T19:46:58Z</time>
      </trkpt>
      <trkpt lat="42.598659" lon="-5.563153">
        <ele>840.959</ele>
        <time>2021-10-13T19:46:59Z</time>
      </trkpt>
      <trkpt lat="42.598713" lon="-5.563129">
        <ele>840.989</ele>
        <time>2021-10-13T19:47:01Z</time>
      </trkpt>
      <trkpt lat="42.598762" lon="-5.563103">
        <ele>840.906</ele>
        <time>2021-10-13T19:47:05Z</time>
      </trkpt>
      <trkpt lat="42.598811" lon="-5.563079">
        <ele>850.226</ele>
        <time>2021-10-13T19:48:05Z</time>
      </trkpt>
      <trkpt lat="42.598919" lon="-5.563042">
        <ele>850.208</ele>
        <time>2021-10-13T19:48:07Z</time>
      </trkpt>
      <trkpt lat="42.598997" lon="-5.563021">
        <ele>850.256</ele>
        <time>2021-10-13T19:48:08Z</time>
      </trkpt>
      <trkpt lat="42.599141" lon="-5.562985">
        <ele>850.164</ele>
        <time>2021-10-13T19:48:10Z</time>
      </trkpt>
      <trkpt lat="42.599202" lon="-5.562968">
        <ele>850.141</ele>
        <time>2021-10-13T19:48:11Z</time>
      </trkpt>
      <trkpt lat="42.599257" lon="-5.562950">
        <ele>850.121</ele>
        <time>2021-10-13T19:48:12Z</time>
      </trkpt>
      <trkpt lat="42.599377" lon="-5.562904">
        <ele>850.124</ele>
        <time>2021-10-13T19:48:14Z</time>
      </trkpt>
      <trkpt lat="42.599540" lon="-5.562851">
        <ele>850.150</ele>
        <time>2021-10-13T19:48:16Z</time>
      </trkpt>
      <trkpt lat="42.599726" lon="-5.562789">
        <ele>850.019</ele>
        <time>2021-10-13T19:48:18Z</time>
      </trkpt>
      <trkpt lat="42.599806" lon="-5.562765">
        <ele>850.094</ele>
        <time>2021-10-13T19:48:19Z</time>
      </trkpt>
      <trkpt lat="42.599878" lon="-5.562745">
        <ele>850.092</ele>
        <time>2021-10-13T19:48:20Z</time>
      </trkpt>
      <trkpt lat="42.599985" lon="-5.562711">
        <ele>850.073</ele>
        <time>2021-10-13T19:48:22Z</time>
      </trkpt>
      <trkpt lat="42.600031" lon="-5.562696">
        <ele>850.020</ele>
        <time>2021-10-13T19:48:25Z</time>
      </trkpt>
      <trkpt lat="42.600087" lon="-5.562708">
        <ele>850.008</ele>
        <time>2021-10-13T19:48:28Z</time>
      </trkpt>
      <trkpt lat="42.600134" lon="-5.562722">
        <ele>850.047</ele>
        <time>2021-10-13T19:48:30Z</time>
      </trkpt>
      <trkpt lat="42.600181" lon="-5.562749">
        <ele>850.095</ele>
        <time>2021-10-13T19:48:39Z</time>
      </trkpt>
      <trkpt lat="42.600225" lon="-5.562767">
        <ele>850.012</ele>
        <time>2021-10-13T19:48:40Z</time>
      </trkpt>
      <trkpt lat="42.600311" lon="-5.562837">
        <ele>850.092</ele>
        <time>2021-10-13T19:48:42Z</time>
      </trkpt>
      <trkpt lat="42.600368" lon="-5.562880">
        <ele>850.075</ele>
        <time>2021-10-13T19:48:43Z</time>
      </trkpt>
      <trkpt lat="42.600435" lon="-5.562920">
        <ele>850.011</ele>
        <time>2021-10-13T19:48:44Z</time>
      </trkpt>
      <trkpt lat="42.600574" lon="-5.562992">
        <ele>850.070</ele>
        <time>2021-10-13T19:48:46Z</time>
      </trkpt>
      <trkpt lat="42.600654" lon="-5.563037">
        <ele>850.065</ele>
        <time>2021-10-13T19:48:47Z</time>
      </trkpt>
      <trkpt lat="42.600839" lon="-5.563152">
        <ele>849.934</ele>
        <time>2021-10-13T19:48:49Z</time>
      </trkpt>
      <trkpt lat="42.600956" lon="-5.563220">
        <ele>849.955</ele>
        <time>2021-10-13T19:48:50Z</time>
      </trkpt>
      <trkpt lat="42.601173" lon="-5.563321">
        <ele>849.810</ele>
        <time>2021-10-13T19:48:52Z</time>
      </trkpt>
      <trkpt lat="42.601271" lon="-5.563335">
        <ele>849.808</ele>
        <time>2021-10-13T19:48:53Z</time>
      </trkpt>
      <trkpt lat="42.601427" lon="-5.563281">
        <ele>849.821</ele>
        <time>2021-10-13T19:48:55Z</time>
      </trkpt>
      <trkpt lat="42.601489" lon="-5.563239">
        <ele>849.859</ele>
        <time>2021-10-13T19:48:56Z</time>
      </trkpt>
      <trkpt lat="42.601583" lon="-5.563179">
        <ele>849.856</ele>
        <time>2021-10-13T19:48:58Z</time>
      </trkpt>
      <trkpt lat="42.601635" lon="-5.563144">
        <ele>849.886</ele>
        <time>2021-10-13T19:49:00Z</time>
      </trkpt>
      <trkpt lat="42.601691" lon="-5.563117">
        <ele>849.869</ele>
        <time>2021-10-13T19:49:02Z</time>
      </trkpt>
      <trkpt lat="42.601739" lon="-5.563090">
        <ele>849.815</ele>
        <time>2021-10-13T19:49:04Z</time>
      </trkpt>
      <trkpt lat="42.601826" lon="-5.563047">
        <ele>849.844</ele>
        <time>2021-10-13T19:49:06Z</time>
      </trkpt>
      <trkpt lat="42.601990" lon="-5.562978">
        <ele>849.829</ele>
        <time>2021-10-13T19:49:08Z</time>
      </trkpt>
      <trkpt lat="42.602182" lon="-5.562930">
        <ele>849.835</ele>
        <time>2021-10-13T19:49:10Z</time>
      </trkpt>
      <trkpt lat="42.602270" lon="-5.562910">
        <ele>849.886</ele>
        <time>2021-10-13T19:49:11Z</time>
      </trkpt>
      <trkpt lat="42.602427" lon="-5.562889">
        <ele>849.814</ele>
        <time>2021-10-13T19:49:13Z</time>
      </trkpt>
      <trkpt lat="42.602491" lon="-5.562887">
        <ele>849.808</ele>
        <time>2021-10-13T19:49:14Z</time>
      </trkpt>
      <trkpt lat="42.602562" lon="-5.562872">
        <ele>849.851</ele>
        <time>2021-10-13T19:49:15Z</time>
      </trkpt>
      <trkpt lat="42.602626" lon="-5.562863">
        <ele>849.819</ele>
        <time>2021-10-13T19:49:17Z</time>
      </trkpt>
      <trkpt lat="42.602680" lon="-5.562882">
        <ele>849.846</ele>
        <time>2021-10-13T19:49:19Z</time>
      </trkpt>
      <trkpt lat="42.602732" lon="-5.562898">
        <ele>849.876</ele>
        <time>2021-10-13T19:49:21Z</time>
      </trkpt>
      <trkpt lat="42.602788" lon="-5.562905">
        <ele>849.889</ele>
        <time>2021-10-13T19:49:23Z</time>
      </trkpt>
      <trkpt lat="42.602840" lon="-5.562909">
        <ele>849.875</ele>
        <time>2021-10-13T19:49:24Z</time>
      </trkpt>
      <trkpt lat="42.602906" lon="-5.562914">
        <ele>849.834</ele>
        <time>2021-10-13T19:49:25Z</time>
      </trkpt>
      <trkpt lat="42.602979" lon="-5.562921">
        <ele>849.839</ele>
        <time>2021-10-13T19:49:26Z</time>
      </trkpt>
      <trkpt lat="42.603113" lon="-5.562926">
        <ele>849.821</ele>
        <time>2021-10-13T19:49:28Z</time>
      </trkpt>
      <trkpt lat="42.603195" lon="-5.562896">
        <ele>849.841</ele>
        <time>2021-10-13T19:49:30Z</time>
      </trkpt>
      <trkpt lat="42.603242" lon="-5.562874">
        <ele>849.805</ele>
        <time>2021-10-13T19:49:31Z</time>
      </trkpt>
      <trkpt lat="42.603284" lon="-5.562849">
        <ele>849.808</ele>
        <time>2021-10-13T19:49:32Z</time>
      </trkpt>
      <trkpt lat="42.603345" lon="-5.562790">
        <ele>849.820</ele>
        <time>2021-10-13T19:49:34Z</time>
      </trkpt>
      <trkpt lat="42.603431" lon="-5.562700">
        <ele>849.878</ele>
        <time>2021-10-13T19:49:36Z</time>
      </trkpt>
      <trkpt lat="42.603484" lon="-5.562638">
        <ele>849.895</ele>
        <time>2021-10-13T19:49:37Z</time>
      </trkpt>
      <trkpt lat="42.603541" lon="-5.562579">
        <ele>849.885</ele>
        <time>2021-10-13T19:49:38Z</time>
      </trkpt>
      <trkpt lat="42.603651" lon="-5.562499">
        <ele>849.858</ele>
        <time>2021-10-13T19:49:40Z</time>
      </trkpt>
      <trkpt lat="42.603711" lon="-5.562479">
        <ele>849.844</ele>
        <time>2021-10-13T19:49:41Z</time>
      </trkpt>
      <trkpt lat="42.603762" lon="-5.562469">
        <ele>849.873</ele>
        <time>2021-10-13T19:49:42Z</time>
      </trkpt>
      <trkpt lat="42.603821" lon="-5.562480">
        <ele>849.838</ele>
        <time>2021-10-13T19:49:43Z</time>
      </trkpt>
      <trkpt lat="42.603871" lon="-5.562516">
        <ele>849.826</ele>
        <time>2021-10-13T19:49:46Z</time>
      </trkpt>
      <trkpt lat="42.603898" lon="-5.562569">
        <ele>849.847</ele>
        <time>2021-10-13T19:49:50Z</time>
      </trkpt>
      <trkpt lat="42.603930" lon="-5.562616">
        <ele>849.811</ele>
        <time>2021-10-13T19:49:53Z</time>
      </trkpt>
      <trkpt lat="42.603969" lon="-5.562668">
        <ele>849.808</ele>
        <time>2021-10-13T19:49:56Z</time>
      </trkpt>
      <trkpt lat="42.604032" lon="-5.562723">
        <ele>849.870</ele>
        <time>2021-10-13T19:49:57Z</time>
      </trkpt>
      <trkpt lat="42.604088" lon="-5.562773">
        <ele>849.818</ele>
        <time>2021-10-13T19:49:58Z</time>
      </trkpt>
      <trkpt lat="42.604149" lon="-5.562816">
        <ele>849.885</ele>
        <time>2021-10-13T19:49:59Z</time>
      </trkpt>
      <trkpt lat="42.604278" lon="-5.562868">
        <ele>849.845</ele>
        <time>2021-10-13T19:50:01Z</time>
      </trkpt>
      <trkpt lat="42.604354" lon="-5.562885">
        <ele>849.818</ele>
        <time>2021-10-13T19:50:02Z</time>
      </trkpt>
      <trkpt lat="42.604538" lon="-5.562915">
        <ele>849.844</ele>
        <time>2021-10-13T19:50:04Z</time>
      </trkpt>
      <trkpt lat="42.604769" lon="-5.562924">
        <ele>841.413</ele>
        <time>2021-10-13T19:50:06Z</time>
      </trkpt>
      <trkpt lat="42.605010" lon="-5.562923">
        <ele>841.048</ele>
        <time>2021-10-13T19:50:08Z</time>
      </trkpt>
      <trkpt lat="42.605205" lon="-5.562934">
        <ele>841.371</ele>
        <time>2021-10-13T19:50:10Z</time>
      </trkpt>
      <trkpt lat="42.605361" lon="-5.562938">
        <ele>841.041</ele>
        <time>2021-10-13T19:50:12Z</time>
      </trkpt>
      <trkpt lat="42.605502" lon="-5.562944">
        <ele>841.115</ele>
        <time>2021-10-13T19:50:14Z</time>
      </trkpt>
      <trkpt lat="42.605621" lon="-5.562947">
        <ele>842.308</ele>
        <time>2021-10-13T19:50:16Z</time>
      </trkpt>
      <trkpt lat="42.605687" lon="-5.562940">
        <ele>843.535</ele>
        <time>2021-10-13T19:50:18Z</time>
      </trkpt>
      <trkpt lat="42.605739" lon="-5.562940">
        <ele>844.163</ele>
        <time>2021-10-13T19:50:21Z</time>
      </trkpt>
      <trkpt lat="42.605797" lon="-5.562952">
        <ele>845.270</ele>
        <time>2021-10-13T19:50:30Z</time>
      </trkpt>
      <trkpt lat="42.605891" lon="-5.562952">
        <ele>845.490</ele>
        <time>2021-10-13T19:50:32Z</time>
      </trkpt>
      <trkpt lat="42.606104" lon="-5.562954">
        <ele>845.483</ele>
        <time>2021-10-13T19:50:34Z</time>
      </trkpt>
      <trkpt lat="42.606415" lon="-5.562965">
        <ele>845.529</ele>
        <time>2021-10-13T19:50:36Z</time>
      </trkpt>
      <trkpt lat="42.606584" lon="-5.562972">
        <ele>845.588</ele>
        <time>2021-10-13T19:50:37Z</time>
      </trkpt>
      <trkpt lat="42.606741" lon="-5.562980">
        <ele>845.523</ele>
        <time>2021-10-13T19:50:38Z</time>
      </trkpt>
      <trkpt lat="42.607002" lon="-5.562995">
        <ele>845.598</ele>
        <time>2021-10-13T19:50:40Z</time>
      </trkpt>
      <trkpt lat="42.607122" lon="-5.563003">
        <ele>845.515</ele>
        <time>2021-10-13T19:50:41Z</time>
      </trkpt>
      <trkpt lat="42.607233" lon="-5.563009">
        <ele>845.526</ele>
        <time>2021-10-13T19:50:42Z</time>
      </trkpt>
      <trkpt lat="42.607336" lon="-5.563015">
        <ele>845.508</ele>
        <time>2021-10-13T19:50:43Z</time>
      </trkpt>
      <trkpt lat="42.607435" lon="-5.563020">
        <ele>845.557</ele>
        <time>2021-10-13T19:50:44Z</time>
      </trkpt>
      <trkpt lat="42.607642" lon="-5.563027">
        <ele>845.595</ele>
        <time>2021-10-13T19:50:46Z</time>
      </trkpt>
      <trkpt lat="42.607858" lon="-5.563048">
        <ele>845.522</ele>
        <time>2021-10-13T19:50:48Z</time>
      </trkpt>
      <trkpt lat="42.608075" lon="-5.563082">
        <ele>845.512</ele>
        <time>2021-10-13T19:50:50Z</time>
      </trkpt>
      <trkpt lat="42.608289" lon="-5.563125">
        <ele>845.685</ele>
        <time>2021-10-13T19:50:52Z</time>
      </trkpt>
      <trkpt lat="42.608398" lon="-5.563150">
        <ele>845.631</ele>
        <time>2021-10-13T19:50:53Z</time>
      </trkpt>
      <trkpt lat="42.608606" lon="-5.563204">
        <ele>845.640</ele>
        <time>2021-10-13T19:50:55Z</time>
      </trkpt>
      <trkpt lat="42.608694" lon="-5.563233">
        <ele>845.645</ele>
        <time>2021-10-13T19:50:56Z</time>
      </trkpt>
      <trkpt lat="42.608810" lon="-5.563272">
        <ele>845.675</ele>
        <time>2021-10-13T19:50:58Z</time>
      </trkpt>
      <trkpt lat="42.608877" lon="-5.563292">
        <ele>845.628</ele>
        <time>2021-10-13T19:51:00Z</time>
      </trkpt>
      <trkpt lat="42.608942" lon="-5.563316">
        <ele>845.620</ele>
        <time>2021-10-13T19:51:02Z</time>
      </trkpt>
      <trkpt lat="42.609013" lon="-5.563341">
        <ele>845.608</ele>
        <time>2021-10-13T19:51:04Z</time>
      </trkpt>
      <trkpt lat="42.609072" lon="-5.563360">
        <ele>845.685</ele>
        <time>2021-10-13T19:51:06Z</time>
      </trkpt>
      <trkpt lat="42.609115" lon="-5.563382">
        <ele>845.643</ele>
        <time>2021-10-13T19:51:08Z</time>
      </trkpt>
      <trkpt lat="42.609166" lon="-5.563404">
        <ele>845.630</ele>
        <time>2021-10-13T19:51:09Z</time>
      </trkpt>
      <trkpt lat="42.609258" lon="-5.563434">
        <ele>845.650</ele>
        <time>2021-10-13T19:51:11Z</time>
      </trkpt>
      <trkpt lat="42.609338" lon="-5.563464">
        <ele>845.663</ele>
        <time>2021-10-13T19:51:13Z</time>
      </trkpt>
      <trkpt lat="42.609410" lon="-5.563481">
        <ele>845.769</ele>
        <time>2021-10-13T19:51:16Z</time>
      </trkpt>
      <trkpt lat="42.609517" lon="-5.563457">
        <ele>845.718</ele>
        <time>2021-10-13T19:51:18Z</time>
      </trkpt>
      <trkpt lat="42.609591" lon="-5.563439">
        <ele>845.723</ele>
        <time>2021-10-13T19:51:19Z</time>
      </trkpt>
      <trkpt lat="42.609664" lon="-5.563442">
        <ele>845.751</ele>
        <time>2021-10-13T19:51:20Z</time>
      </trkpt>
      <trkpt lat="42.609792" lon="-5.563529">
        <ele>845.701</ele>
        <time>2021-10-13T19:51:22Z</time>
      </trkpt>
      <trkpt lat="42.609840" lon="-5.563609">
        <ele>845.711</ele>
        <time>2021-10-13T19:51:23Z</time>
      </trkpt>
      <trkpt lat="42.609880" lon="-5.563690">
        <ele>845.708</ele>
        <time>2021-10-13T19:51:24Z</time>
      </trkpt>
      <trkpt lat="42.609956" lon="-5.563784">
        <ele>845.723</ele>
        <time>2021-10-13T19:51:26Z</time>
      </trkpt>
      <trkpt lat="42.610021" lon="-5.563844">
        <ele>845.721</ele>
        <time>2021-10-13T19:51:28Z</time>
      </trkpt>
      <trkpt lat="42.610068" lon="-5.563888">
        <ele>845.798</ele>
        <time>2021-10-13T19:51:29Z</time>
      </trkpt>
      <trkpt lat="42.610123" lon="-5.563940">
        <ele>845.788</ele>
        <time>2021-10-13T19:51:30Z</time>
      </trkpt>
      <trkpt lat="42.610271" lon="-5.564075">
        <ele>845.791</ele>
        <time>2021-10-13T19:51:32Z</time>
      </trkpt>
      <trkpt lat="42.610453" lon="-5.564244">
        <ele>845.727</ele>
        <time>2021-10-13T19:51:34Z</time>
      </trkpt>
      <trkpt lat="42.610551" lon="-5.564337">
        <ele>845.716</ele>
        <time>2021-10-13T19:51:35Z</time>
      </trkpt>
      <trkpt lat="42.610746" lon="-5.564515">
        <ele>845.841</ele>
        <time>2021-10-13T19:51:37Z</time>
      </trkpt>
      <trkpt lat="42.610841" lon="-5.564602">
        <ele>845.849</ele>
        <time>2021-10-13T19:51:38Z</time>
      </trkpt>
      <trkpt lat="42.611015" lon="-5.564759">
        <ele>845.802</ele>
        <time>2021-10-13T19:51:40Z</time>
      </trkpt>
      <trkpt lat="42.611165" lon="-5.564890">
        <ele>845.822</ele>
        <time>2021-10-13T19:51:42Z</time>
      </trkpt>
      <trkpt lat="42.611306" lon="-5.565028">
        <ele>845.808</ele>
        <time>2021-10-13T19:51:44Z</time>
      </trkpt>
      <trkpt lat="42.611469" lon="-5.565184">
        <ele>845.882</ele>
        <time>2021-10-13T19:51:46Z</time>
      </trkpt>
      <trkpt lat="42.611671" lon="-5.565361">
        <ele>845.820</ele>
        <time>2021-10-13T19:51:48Z</time>
      </trkpt>
      <trkpt lat="42.611871" lon="-5.565545">
        <ele>845.857</ele>
        <time>2021-10-13T19:51:50Z</time>
      </trkpt>
      <trkpt lat="42.612036" lon="-5.565700">
        <ele>845.857</ele>
        <time>2021-10-13T19:51:52Z</time>
      </trkpt>
      <trkpt lat="42.612110" lon="-5.565772">
        <ele>845.840</ele>
        <time>2021-10-13T19:51:53Z</time>
      </trkpt>
      <trkpt lat="42.612179" lon="-5.565837">
        <ele>845.876</ele>
        <time>2021-10-13T19:51:54Z</time>
      </trkpt>
      <trkpt lat="42.612301" lon="-5.565951">
        <ele>845.815</ele>
        <time>2021-10-13T19:51:56Z</time>
      </trkpt>
      <trkpt lat="42.612397" lon="-5.566044">
        <ele>845.870</ele>
        <time>2021-10-13T19:51:58Z</time>
      </trkpt>
      <trkpt lat="42.612451" lon="-5.566088">
        <ele>845.865</ele>
        <time>2021-10-13T19:52:00Z</time>
      </trkpt>
      <trkpt lat="42.612507" lon="-5.566141">
        <ele>845.868</ele>
        <time>2021-10-13T19:52:03Z</time>
      </trkpt>
      <trkpt lat="42.612560" lon="-5.566193">
        <ele>845.814</ele>
        <time>2021-10-13T19:52:05Z</time>
      </trkpt>
      <trkpt lat="42.612600" lon="-5.566229">
        <ele>845.808</ele>
        <time>2021-10-13T19:52:07Z</time>
      </trkpt>
      <trkpt lat="42.612679" lon="-5.566272">
        <ele>849.884</ele>
        <time>2021-10-13T19:52:14Z</time>
      </trkpt>
      <trkpt lat="42.612823" lon="-5.566318">
        <ele>849.842</ele>
        <time>2021-10-13T19:52:16Z</time>
      </trkpt>
      <trkpt lat="42.612937" lon="-5.566403">
        <ele>849.869</ele>
        <time>2021-10-13T19:52:18Z</time>
      </trkpt>
      <trkpt lat="42.612974" lon="-5.566471">
        <ele>849.859</ele>
        <time>2021-10-13T19:52:19Z</time>
      </trkpt>
      <trkpt lat="42.612999" lon="-5.566559">
        <ele>849.832</ele>
        <time>2021-10-13T19:52:20Z</time>
      </trkpt>
      <trkpt lat="42.613054" lon="-5.566775">
        <ele>849.878</ele>
        <time>2021-10-13T19:52:22Z</time>
      </trkpt>
      <trkpt lat="42.613192" lon="-5.566987">
        <ele>849.857</ele>
        <time>2021-10-13T19:52:24Z</time>
      </trkpt>
      <trkpt lat="42.613312" lon="-5.567102">
        <ele>849.862</ele>
        <time>2021-10-13T19:52:25Z</time>
      </trkpt>
      <trkpt lat="42.613471" lon="-5.567240">
        <ele>849.855</ele>
        <time>2021-10-13T19:52:26Z</time>
      </trkpt>
      <trkpt lat="42.613830" lon="-5.567564">
        <ele>849.807</ele>
        <time>2021-10-13T19:52:28Z</time>
      </trkpt>
      <trkpt lat="42.613999" lon="-5.567717">
        <ele>849.817</ele>
        <time>2021-10-13T19:52:29Z</time>
      </trkpt>
      <trkpt lat="42.614259" lon="-5.567995">
        <ele>849.808</ele>
        <time>2021-10-13T19:52:31Z</time>
      </trkpt>
      <trkpt lat="42.614352" lon="-5.568136">
        <ele>849.833</ele>
        <time>2021-10-13T19:52:32Z</time>
      </trkpt>
      <trkpt lat="42.614483" lon="-5.568396">
        <ele>849.811</ele>
        <time>2021-10-13T19:52:34Z</time>
      </trkpt>
      <trkpt lat="42.614538" lon="-5.568509">
        <ele>849.838</ele>
        <time>2021-10-13T19:52:35Z</time>
      </trkpt>
      <trkpt lat="42.614648" lon="-5.568701">
        <ele>849.888</ele>
        <time>2021-10-13T19:52:37Z</time>
      </trkpt>
      <trkpt lat="42.614707" lon="-5.568784">
        <ele>849.871</ele>
        <time>2021-10-13T19:52:38Z</time>
      </trkpt>
      <trkpt lat="42.614772" lon="-5.568952">
        <ele>849.877</ele>
        <time>2021-10-13T19:52:40Z</time>
      </trkpt>
      <trkpt lat="42.614814" lon="-5.569151">
        <ele>849.896</ele>
        <time>2021-10-13T19:52:42Z</time>
      </trkpt>
      <trkpt lat="42.614896" lon="-5.569427">
        <ele>849.821</ele>
        <time>2021-10-13T19:52:44Z</time>
      </trkpt>
      <trkpt lat="42.614960" lon="-5.569683">
        <ele>849.831</ele>
        <time>2021-10-13T19:52:46Z</time>
      </trkpt>
      <trkpt lat="42.614981" lon="-5.569780">
        <ele>849.861</ele>
        <time>2021-10-13T19:52:47Z</time>
      </trkpt>
      <trkpt lat="42.615020" lon="-5.569942">
        <ele>849.807</ele>
        <time>2021-10-13T19:52:49Z</time>
      </trkpt>
      <trkpt lat="42.615050" lon="-5.570034">
        <ele>849.808</ele>
        <time>2021-10-13T19:52:50Z</time>
      </trkpt>
      <trkpt lat="42.615105" lon="-5.570196">
        <ele>849.831</ele>
        <time>2021-10-13T19:52:52Z</time>
      </trkpt>
      <trkpt lat="42.615147" lon="-5.570344">
        <ele>849.849</ele>
        <time>2021-10-13T19:52:54Z</time>
      </trkpt>
      <trkpt lat="42.615167" lon="-5.570414">
        <ele>849.856</ele>
        <time>2021-10-13T19:52:55Z</time>
      </trkpt>
      <trkpt lat="42.615193" lon="-5.570495">
        <ele>849.876</ele>
        <time>2021-10-13T19:52:57Z</time>
      </trkpt>
      <trkpt lat="42.615222" lon="-5.570547">
        <ele>849.869</ele>
        <time>2021-10-13T19:52:59Z</time>
      </trkpt>
      <trkpt lat="42.615301" lon="-5.570669">
        <ele>849.985</ele>
        <time>2021-10-13T19:53:01Z</time>
      </trkpt>
      <trkpt lat="42.615328" lon="-5.570742">
        <ele>849.994</ele>
        <time>2021-10-13T19:53:02Z</time>
      </trkpt>
      <trkpt lat="42.615306" lon="-5.570919">
        <ele>849.979</ele>
        <time>2021-10-13T19:53:04Z</time>
      </trkpt>
      <trkpt lat="42.615273" lon="-5.571039">
        <ele>849.981</ele>
        <time>2021-10-13T19:53:05Z</time>
      </trkpt>
      <trkpt lat="42.615243" lon="-5.571182">
        <ele>849.961</ele>
        <time>2021-10-13T19:53:06Z</time>
      </trkpt>
      <trkpt lat="42.615162" lon="-5.571508">
        <ele>849.917</ele>
        <time>2021-10-13T19:53:08Z</time>
      </trkpt>
      <trkpt lat="42.614993" lon="-5.571822">
        <ele>849.908</ele>
        <time>2021-10-13T19:53:10Z</time>
      </trkpt>
      <trkpt lat="42.614906" lon="-5.571960">
        <ele>856.246</ele>
        <time>2021-10-13T19:53:11Z</time>
      </trkpt>
      <trkpt lat="42.614827" lon="-5.572086">
        <ele>862.564</ele>
        <time>2021-10-13T19:53:12Z</time>
      </trkpt>
      <trkpt lat="42.614702" lon="-5.572297">
        <ele>862.081</ele>
        <time>2021-10-13T19:53:14Z</time>
      </trkpt>
      <trkpt lat="42.614619" lon="-5.572448">
        <ele>861.461</ele>
        <time>2021-10-13T19:53:16Z</time>
      </trkpt>
      <trkpt lat="42.614587" lon="-5.572606">
        <ele>861.734</ele>
        <time>2021-10-13T19:53:18Z</time>
      </trkpt>
      <trkpt lat="42.614587" lon="-5.572699">
        <ele>862.020</ele>
        <time>2021-10-13T19:53:19Z</time>
      </trkpt>
      <trkpt lat="42.614568" lon="-5.572793">
        <ele>862.019</ele>
        <time>2021-10-13T19:53:20Z</time>
      </trkpt>
      <trkpt lat="42.614461" lon="-5.572933">
        <ele>862.084</ele>
        <time>2021-10-13T19:53:22Z</time>
      </trkpt>
      <trkpt lat="42.614311" lon="-5.572993">
        <ele>862.028</ele>
        <time>2021-10-13T19:53:24Z</time>
      </trkpt>
      <trkpt lat="42.614250" lon="-5.573037">
        <ele>862.089</ele>
        <time>2021-10-13T19:53:25Z</time>
      </trkpt>
      <trkpt lat="42.614188" lon="-5.573110">
        <ele>862.017</ele>
        <time>2021-10-13T19:53:26Z</time>
      </trkpt>
      <trkpt lat="42.614045" lon="-5.573331">
        <ele>862.308</ele>
        <time>2021-10-13T19:53:28Z</time>
      </trkpt>
      <trkpt lat="42.613958" lon="-5.573468">
        <ele>863.770</ele>
        <time>2021-10-13T19:53:29Z</time>
      </trkpt>
      <trkpt lat="42.613752" lon="-5.573756">
        <ele>865.648</ele>
        <time>2021-10-13T19:53:31Z</time>
      </trkpt>
      <trkpt lat="42.613623" lon="-5.573899">
        <ele>867.355</ele>
        <time>2021-10-13T19:53:32Z</time>
      </trkpt>
      <trkpt lat="42.613361" lon="-5.574138">
        <ele>869.735</ele>
        <time>2021-10-13T19:53:34Z</time>
      </trkpt>
      <trkpt lat="42.613127" lon="-5.574354">
        <ele>871.238</ele>
        <time>2021-10-13T19:53:36Z</time>
      </trkpt>
      <trkpt lat="42.613026" lon="-5.574471">
        <ele>872.124</ele>
        <time>2021-10-13T19:53:37Z</time>
      </trkpt>
      <trkpt lat="42.612937" lon="-5.574590">
        <ele>872.723</ele>
        <time>2021-10-13T19:53:38Z</time>
      </trkpt>
      <trkpt lat="42.612794" lon="-5.574832">
        <ele>874.078</ele>
        <time>2021-10-13T19:53:40Z</time>
      </trkpt>
      <trkpt lat="42.612666" lon="-5.575146">
        <ele>874.699</ele>
        <time>2021-10-13T19:53:42Z</time>
      </trkpt>
      <trkpt lat="42.612559" lon="-5.575553">
        <ele>875.507</ele>
        <time>2021-10-13T19:53:44Z</time>
      </trkpt>
      <trkpt lat="42.612498" lon="-5.575966">
        <ele>875.127</ele>
        <time>2021-10-13T19:53:46Z</time>
      </trkpt>
      <trkpt lat="42.612465" lon="-5.576308">
        <ele>875.708</ele>
        <time>2021-10-13T19:53:48Z</time>
      </trkpt>
      <trkpt lat="42.612441" lon="-5.576573">
        <ele>877.367</ele>
        <time>2021-10-13T19:53:50Z</time>
      </trkpt>
      <trkpt lat="42.612422" lon="-5.576751">
        <ele>877.715</ele>
        <time>2021-10-13T19:53:52Z</time>
      </trkpt>
      <trkpt lat="42.612413" lon="-5.576819">
        <ele>878.342</ele>
        <time>2021-10-13T19:53:53Z</time>
      </trkpt>
      <trkpt lat="42.612397" lon="-5.576943">
        <ele>878.332</ele>
        <time>2021-10-13T19:53:55Z</time>
      </trkpt>
      <trkpt lat="42.612389" lon="-5.577012">
        <ele>878.625</ele>
        <time>2021-10-13T19:53:56Z</time>
      </trkpt>
      <trkpt lat="42.612379" lon="-5.577135">
        <ele>878.241</ele>
        <time>2021-10-13T19:53:58Z</time>
      </trkpt>
      <trkpt lat="42.612387" lon="-5.577206">
        <ele>878.250</ele>
        <time>2021-10-13T19:53:59Z</time>
      </trkpt>
      <trkpt lat="42.612460" lon="-5.577361">
        <ele>878.415</ele>
        <time>2021-10-13T19:54:01Z</time>
      </trkpt>
      <trkpt lat="42.612527" lon="-5.577423">
        <ele>878.562</ele>
        <time>2021-10-13T19:54:02Z</time>
      </trkpt>
      <trkpt lat="42.612695" lon="-5.577494">
        <ele>879.183</ele>
        <time>2021-10-13T19:54:04Z</time>
      </trkpt>
      <trkpt lat="42.612850" lon="-5.577547">
        <ele>880.911</ele>
        <time>2021-10-13T19:54:06Z</time>
      </trkpt>
      <trkpt lat="42.612927" lon="-5.577577">
        <ele>880.908</ele>
        <time>2021-10-13T19:54:07Z</time>
      </trkpt>
      <trkpt lat="42.613016" lon="-5.577608">
        <ele>880.974</ele>
        <time>2021-10-13T19:54:08Z</time>
      </trkpt>
      <trkpt lat="42.613204" lon="-5.577666">
        <ele>881.132</ele>
        <time>2021-10-13T19:54:10Z</time>
      </trkpt>
      <trkpt lat="42.613313" lon="-5.577704">
        <ele>881.699</ele>
        <time>2021-10-13T19:54:11Z</time>
      </trkpt>
      <trkpt lat="42.613556" lon="-5.577781">
        <ele>881.719</ele>
        <time>2021-10-13T19:54:13Z</time>
      </trkpt>
      <trkpt lat="42.613691" lon="-5.577826">
        <ele>882.522</ele>
        <time>2021-10-13T19:54:14Z</time>
      </trkpt>
      <trkpt lat="42.613946" lon="-5.577916">
        <ele>882.918</ele>
        <time>2021-10-13T19:54:16Z</time>
      </trkpt>
      <trkpt lat="42.614211" lon="-5.578010">
        <ele>884.767</ele>
        <time>2021-10-13T19:54:18Z</time>
      </trkpt>
      <trkpt lat="42.614502" lon="-5.578109">
        <ele>885.852</ele>
        <time>2021-10-13T19:54:20Z</time>
      </trkpt>
      <trkpt lat="42.614797" lon="-5.578215">
        <ele>886.956</ele>
        <time>2021-10-13T19:54:22Z</time>
      </trkpt>
      <trkpt lat="42.615079" lon="-5.578353">
        <ele>887.159</ele>
        <time>2021-10-13T19:54:24Z</time>
      </trkpt>
      <trkpt lat="42.615332" lon="-5.578525">
        <ele>887.614</ele>
        <time>2021-10-13T19:54:26Z</time>
      </trkpt>
      <trkpt lat="42.615569" lon="-5.578731">
        <ele>887.408</ele>
        <time>2021-10-13T19:54:28Z</time>
      </trkpt>
      <trkpt lat="42.615687" lon="-5.578844">
        <ele>886.973</ele>
        <time>2021-10-13T19:54:29Z</time>
      </trkpt>
      <trkpt lat="42.615800" lon="-5.578956">
        <ele>886.041</ele>
        <time>2021-10-13T19:54:30Z</time>
      </trkpt>
      <trkpt lat="42.615999" lon="-5.579166">
        <ele>886.498</ele>
        <time>2021-10-13T19:54:32Z</time>
      </trkpt>
      <trkpt lat="42.616193" lon="-5.579368">
        <ele>886.478</ele>
        <time>2021-10-13T19:54:34Z</time>
      </trkpt>
      <trkpt lat="42.616303" lon="-5.579485">
        <ele>886.281</ele>
        <time>2021-10-13T19:54:35Z</time>
      </trkpt>
      <trkpt lat="42.616554" lon="-5.579740">
        <ele>884.917</ele>
        <time>2021-10-13T19:54:37Z</time>
      </trkpt>
      <trkpt lat="42.616693" lon="-5.579884">
        <ele>884.256</ele>
        <time>2021-10-13T19:54:38Z</time>
      </trkpt>
      <trkpt lat="42.616975" lon="-5.580166">
        <ele>883.531</ele>
        <time>2021-10-13T19:54:40Z</time>
      </trkpt>
      <trkpt lat="42.617271" lon="-5.580464">
        <ele>882.742</ele>
        <time>2021-10-13T19:54:42Z</time>
      </trkpt>
      <trkpt lat="42.617423" lon="-5.580618">
        <ele>882.122</ele>
        <time>2021-10-13T19:54:43Z</time>
      </trkpt>
      <trkpt lat="42.617572" lon="-5.580768">
        <ele>881.314</ele>
        <time>2021-10-13T19:54:44Z</time>
      </trkpt>
      <trkpt lat="42.617842" lon="-5.581036">
        <ele>880.708</ele>
        <time>2021-10-13T19:54:46Z</time>
      </trkpt>
      <trkpt lat="42.618117" lon="-5.581310">
        <ele>880.712</ele>
        <time>2021-10-13T19:54:48Z</time>
      </trkpt>
      <trkpt lat="42.618431" lon="-5.581625">
        <ele>881.290</ele>
        <time>2021-10-13T19:54:50Z</time>
      </trkpt>
      <trkpt lat="42.618781" lon="-5.581985">
        <ele>882.937</ele>
        <time>2021-10-13T19:54:52Z</time>
      </trkpt>
      <trkpt lat="42.619192" lon="-5.582399">
        <ele>884.727</ele>
        <time>2021-10-13T19:54:54Z</time>
      </trkpt>
      <trkpt lat="42.619639" lon="-5.582850">
        <ele>886.910</ele>
        <time>2021-10-13T19:54:56Z</time>
      </trkpt>
      <trkpt lat="42.620081" lon="-5.583307">
        <ele>889.536</ele>
        <time>2021-10-13T19:54:58Z</time>
      </trkpt>
      <trkpt lat="42.620537" lon="-5.583765">
        <ele>891.025</ele>
        <time>2021-10-13T19:55:00Z</time>
      </trkpt>
      <trkpt lat="42.621019" lon="-5.584252">
        <ele>891.480</ele>
        <time>2021-10-13T19:55:02Z</time>
      </trkpt>
      <trkpt lat="42.621520" lon="-5.584760">
        <ele>890.983</ele>
        <time>2021-10-13T19:55:04Z</time>
      </trkpt>
      <trkpt lat="42.621768" lon="-5.585011">
        <ele>891.925</ele>
        <time>2021-10-13T19:55:05Z</time>
      </trkpt>
      <trkpt lat="42.622255" lon="-5.585486">
        <ele>892.817</ele>
        <time>2021-10-13T19:55:07Z</time>
      </trkpt>
      <trkpt lat="42.622508" lon="-5.585707">
        <ele>893.708</ele>
        <time>2021-10-13T19:55:08Z</time>
      </trkpt>
      <trkpt lat="42.623023" lon="-5.586045">
        <ele>896.366</ele>
        <time>2021-10-13T19:55:10Z</time>
      </trkpt>
      <trkpt lat="42.623609" lon="-5.586241">
        <ele>898.724</ele>
        <time>2021-10-13T19:55:12Z</time>
      </trkpt>
      <trkpt lat="42.623925" lon="-5.586305">
        <ele>900.821</ele>
        <time>2021-10-13T19:55:13Z</time>
      </trkpt>
      <trkpt lat="42.624244" lon="-5.586373">
        <ele>902.741</ele>
        <time>2021-10-13T19:55:14Z</time>
      </trkpt>
      <trkpt lat="42.624845" lon="-5.586505">
        <ele>907.894</ele>
        <time>2021-10-13T19:55:16Z</time>
      </trkpt>
      <trkpt lat="42.625158" lon="-5.586577">
        <ele>909.520</ele>
        <time>2021-10-13T19:55:17Z</time>
      </trkpt>
      <trkpt lat="42.625785" lon="-5.586721">
        <ele>914.059</ele>
        <time>2021-10-13T19:55:19Z</time>
      </trkpt>
      <trkpt lat="42.626110" lon="-5.586795">
        <ele>915.964</ele>
        <time>2021-10-13T19:55:20Z</time>
      </trkpt>
      <trkpt lat="42.626723" lon="-5.586941">
        <ele>920.669</ele>
        <time>2021-10-13T19:55:22Z</time>
      </trkpt>
      <trkpt lat="42.627029" lon="-5.587018">
        <ele>922.904</ele>
        <time>2021-10-13T19:55:23Z</time>
      </trkpt>
      <trkpt lat="42.627323" lon="-5.587093">
        <ele>924.924</ele>
        <time>2021-10-13T19:55:24Z</time>
      </trkpt>
      <trkpt lat="42.627611" lon="-5.587166">
        <ele>927.408</ele>
        <time>2021-10-13T19:55:25Z</time>
      </trkpt>
      <trkpt lat="42.627904" lon="-5.587238">
        <ele>929.544</ele>
        <time>2021-10-13T19:55:26Z</time>
      </trkpt>
      <trkpt lat="42.628461" lon="-5.587364">
        <ele>934.562</ele>
        <time>2021-10-13T19:55:28Z</time>
      </trkpt>
      <trkpt lat="42.628748" lon="-5.587436">
        <ele>936.339</ele>
        <time>2021-10-13T19:55:29Z</time>
      </trkpt>
      <trkpt lat="42.629036" lon="-5.587507">
        <ele>937.859</ele>
        <time>2021-10-13T19:55:30Z</time>
      </trkpt>
      <trkpt lat="42.629325" lon="-5.587573">
        <ele>939.532</ele>
        <time>2021-10-13T19:55:31Z</time>
      </trkpt>
      <trkpt lat="42.629624" lon="-5.587642">
        <ele>940.388</ele>
        <time>2021-10-13T19:55:32Z</time>
      </trkpt>
      <trkpt lat="42.630210" lon="-5.587784">
        <ele>941.987</ele>
        <time>2021-10-13T19:55:34Z</time>
      </trkpt>
      <trkpt lat="42.630511" lon="-5.587860">
        <ele>942.482</ele>
        <time>2021-10-13T19:55:35Z</time>
      </trkpt>
      <trkpt lat="42.631119" lon="-5.588011">
        <ele>941.873</ele>
        <time>2021-10-13T19:55:37Z</time>
      </trkpt>
      <trkpt lat="42.631427" lon="-5.588088">
        <ele>941.885</ele>
        <time>2021-10-13T19:55:38Z</time>
      </trkpt>
      <trkpt lat="42.631965" lon="-5.588221">
        <ele>942.913</ele>
        <time>2021-10-13T19:55:40Z</time>
      </trkpt>
      <trkpt lat="42.632483" lon="-5.588350">
        <ele>943.208</ele>
        <time>2021-10-13T19:55:42Z</time>
      </trkpt>
      <trkpt lat="42.632733" lon="-5.588412">
        <ele>943.945</ele>
        <time>2021-10-13T19:55:43Z</time>
      </trkpt>
      <trkpt lat="42.632978" lon="-5.588472">
        <ele>944.553</ele>
        <time>2021-10-13T19:55:44Z</time>
      </trkpt>
      <trkpt lat="42.633444" lon="-5.588581">
        <ele>945.870</ele>
        <time>2021-10-13T19:55:46Z</time>
      </trkpt>
      <trkpt lat="42.633692" lon="-5.588637">
        <ele>946.680</ele>
        <time>2021-10-13T19:55:47Z</time>
      </trkpt>
      <trkpt lat="42.633946" lon="-5.588695">
        <ele>947.063</ele>
        <time>2021-10-13T19:55:48Z</time>
      </trkpt>
      <trkpt lat="42.634193" lon="-5.588752">
        <ele>947.029</ele>
        <time>2021-10-13T19:55:49Z</time>
      </trkpt>
      <trkpt lat="42.634432" lon="-5.588812">
        <ele>947.258</ele>
        <time>2021-10-13T19:55:50Z</time>
      </trkpt>
      <trkpt lat="42.634864" lon="-5.588916">
        <ele>948.143</ele>
        <time>2021-10-13T19:55:52Z</time>
      </trkpt>
      <trkpt lat="42.635081" lon="-5.588972">
        <ele>949.072</ele>
        <time>2021-10-13T19:55:53Z</time>
      </trkpt>
      <trkpt lat="42.635482" lon="-5.589099">
        <ele>949.313</ele>
        <time>2021-10-13T19:55:55Z</time>
      </trkpt>
      <trkpt lat="42.635669" lon="-5.589180">
        <ele>949.514</ele>
        <time>2021-10-13T19:55:56Z</time>
      </trkpt>
      <trkpt lat="42.635992" lon="-5.589360">
        <ele>949.608</ele>
        <time>2021-10-13T19:55:58Z</time>
      </trkpt>
      <trkpt lat="42.636147" lon="-5.589462">
        <ele>949.975</ele>
        <time>2021-10-13T19:55:59Z</time>
      </trkpt>
      <trkpt lat="42.636438" lon="-5.589693">
        <ele>950.183</ele>
        <time>2021-10-13T19:56:01Z</time>
      </trkpt>
      <trkpt lat="42.636584" lon="-5.589819">
        <ele>950.670</ele>
        <time>2021-10-13T19:56:02Z</time>
      </trkpt>
      <trkpt lat="42.636872" lon="-5.590081">
        <ele>950.090</ele>
        <time>2021-10-13T19:56:04Z</time>
      </trkpt>
      <trkpt lat="42.637170" lon="-5.590343">
        <ele>951.173</ele>
        <time>2021-10-13T19:56:06Z</time>
      </trkpt>
      <trkpt lat="42.637321" lon="-5.590475">
        <ele>951.049</ele>
        <time>2021-10-13T19:56:07Z</time>
      </trkpt>
      <trkpt lat="42.637481" lon="-5.590616">
        <ele>950.998</ele>
        <time>2021-10-13T19:56:08Z</time>
      </trkpt>
      <trkpt lat="42.637807" lon="-5.590903">
        <ele>950.523</ele>
        <time>2021-10-13T19:56:10Z</time>
      </trkpt>
      <trkpt lat="42.638148" lon="-5.591202">
        <ele>949.511</ele>
        <time>2021-10-13T19:56:12Z</time>
      </trkpt>
      <trkpt lat="42.638512" lon="-5.591495">
        <ele>948.321</ele>
        <time>2021-10-13T19:56:14Z</time>
      </trkpt>
      <trkpt lat="42.638872" lon="-5.591729">
        <ele>946.403</ele>
        <time>2021-10-13T19:56:16Z</time>
      </trkpt>
      <trkpt lat="42.639227" lon="-5.591913">
        <ele>944.808</ele>
        <time>2021-10-13T19:56:18Z</time>
      </trkpt>
      <trkpt lat="42.639589" lon="-5.592049">
        <ele>943.259</ele>
        <time>2021-10-13T19:56:20Z</time>
      </trkpt>
      <trkpt lat="42.639946" lon="-5.592144">
        <ele>941.727</ele>
        <time>2021-10-13T19:56:22Z</time>
      </trkpt>
      <trkpt lat="42.640132" lon="-5.592187">
        <ele>940.784</ele>
        <time>2021-10-13T19:56:23Z</time>
      </trkpt>
      <trkpt lat="42.640512" lon="-5.592248">
        <ele>938.584</ele>
        <time>2021-10-13T19:56:25Z</time>
      </trkpt>
      <trkpt lat="42.640716" lon="-5.592279">
        <ele>937.167</ele>
        <time>2021-10-13T19:56:26Z</time>
      </trkpt>
      <trkpt lat="42.641118" lon="-5.592348">
        <ele>935.193</ele>
        <time>2021-10-13T19:56:28Z</time>
      </trkpt>
      <trkpt lat="42.641322" lon="-5.592387">
        <ele>933.992</ele>
        <time>2021-10-13T19:56:29Z</time>
      </trkpt>
      <trkpt lat="42.641710" lon="-5.592455">
        <ele>931.937</ele>
        <time>2021-10-13T19:56:31Z</time>
      </trkpt>
      <trkpt lat="42.641911" lon="-5.592492">
        <ele>930.861</ele>
        <time>2021-10-13T19:56:32Z</time>
      </trkpt>
      <trkpt lat="42.642311" lon="-5.592570">
        <ele>929.221</ele>
        <time>2021-10-13T19:56:34Z</time>
      </trkpt>
      <trkpt lat="42.642722" lon="-5.592652">
        <ele>926.513</ele>
        <time>2021-10-13T19:56:36Z</time>
      </trkpt>
      <trkpt lat="42.643132" lon="-5.592735">
        <ele>925.508</ele>
        <time>2021-10-13T19:56:38Z</time>
      </trkpt>
      <trkpt lat="42.643518" lon="-5.592825">
        <ele>923.754</ele>
        <time>2021-10-13T19:56:40Z</time>
      </trkpt>
      <trkpt lat="42.643711" lon="-5.592875">
        <ele>922.432</ele>
        <time>2021-10-13T19:56:41Z</time>
      </trkpt>
      <trkpt lat="42.644091" lon="-5.592985">
        <ele>920.949</ele>
        <time>2021-10-13T19:56:43Z</time>
      </trkpt>
      <trkpt lat="42.644285" lon="-5.593048">
        <ele>920.769</ele>
        <time>2021-10-13T19:56:44Z</time>
      </trkpt>
      <trkpt lat="42.644654" lon="-5.593174">
        <ele>919.732</ele>
        <time>2021-10-13T19:56:46Z</time>
      </trkpt>
      <trkpt lat="42.644842" lon="-5.593239">
        <ele>919.688</ele>
        <time>2021-10-13T19:56:47Z</time>
      </trkpt>
      <trkpt lat="42.645021" lon="-5.593296">
        <ele>918.787</ele>
        <time>2021-10-13T19:56:48Z</time>
      </trkpt>
      <trkpt lat="42.645375" lon="-5.593412">
        <ele>917.082</ele>
        <time>2021-10-13T19:56:50Z</time>
      </trkpt>
      <trkpt lat="42.645738" lon="-5.593532">
        <ele>916.811</ele>
        <time>2021-10-13T19:56:52Z</time>
      </trkpt>
      <trkpt lat="42.645933" lon="-5.593597">
        <ele>916.521</ele>
        <time>2021-10-13T19:56:53Z</time>
      </trkpt>
      <trkpt lat="42.646129" lon="-5.593662">
        <ele>916.603</ele>
        <time>2021-10-13T19:56:54Z</time>
      </trkpt>
      <trkpt lat="42.646525" lon="-5.593799">
        <ele>916.008</ele>
        <time>2021-10-13T19:56:56Z</time>
      </trkpt>
      <trkpt lat="42.646913" lon="-5.593934">
        <ele>915.499</ele>
        <time>2021-10-13T19:56:58Z</time>
      </trkpt>
      <trkpt lat="42.647312" lon="-5.594068">
        <ele>915.127</ele>
        <time>2021-10-13T19:57:00Z</time>
      </trkpt>
      <trkpt lat="42.647516" lon="-5.594136">
        <ele>915.044</ele>
        <time>2021-10-13T19:57:01Z</time>
      </trkpt>
      <trkpt lat="42.647727" lon="-5.594211">
        <ele>915.464</ele>
        <time>2021-10-13T19:57:02Z</time>
      </trkpt>
      <trkpt lat="42.648115" lon="-5.594337">
        <ele>915.487</ele>
        <time>2021-10-13T19:57:04Z</time>
      </trkpt>
      <trkpt lat="42.648471" lon="-5.594459">
        <ele>915.553</ele>
        <time>2021-10-13T19:57:06Z</time>
      </trkpt>
      <trkpt lat="42.648803" lon="-5.594567">
        <ele>916.642</ele>
        <time>2021-10-13T19:57:08Z</time>
      </trkpt>
      <trkpt lat="42.649142" lon="-5.594682">
        <ele>917.687</ele>
        <time>2021-10-13T19:57:10Z</time>
      </trkpt>
      <trkpt lat="42.649516" lon="-5.594811">
        <ele>917.971</ele>
        <time>2021-10-13T19:57:12Z</time>
      </trkpt>
      <trkpt lat="42.649921" lon="-5.594942">
        <ele>918.341</ele>
        <time>2021-10-13T19:57:14Z</time>
      </trkpt>
      <trkpt lat="42.650333" lon="-5.595084">
        <ele>918.415</ele>
        <time>2021-10-13T19:57:16Z</time>
      </trkpt>
      <trkpt lat="42.650734" lon="-5.595220">
        <ele>919.008</ele>
        <time>2021-10-13T19:57:18Z</time>
      </trkpt>
      <trkpt lat="42.651116" lon="-5.595347">
        <ele>920.835</ele>
        <time>2021-10-13T19:57:20Z</time>
      </trkpt>
      <trkpt lat="42.651495" lon="-5.595472">
        <ele>920.893</ele>
        <time>2021-10-13T19:57:22Z</time>
      </trkpt>
      <trkpt lat="42.651686" lon="-5.595536">
        <ele>920.950</ele>
        <time>2021-10-13T19:57:23Z</time>
      </trkpt>
      <trkpt lat="42.651875" lon="-5.595602">
        <ele>921.540</ele>
        <time>2021-10-13T19:57:24Z</time>
      </trkpt>
      <trkpt lat="42.652269" lon="-5.595740">
        <ele>922.313</ele>
        <time>2021-10-13T19:57:26Z</time>
      </trkpt>
      <trkpt lat="42.652694" lon="-5.595887">
        <ele>924.829</ele>
        <time>2021-10-13T19:57:28Z</time>
      </trkpt>
      <trkpt lat="42.653143" lon="-5.596033">
        <ele>926.478</ele>
        <time>2021-10-13T19:57:30Z</time>
      </trkpt>
      <trkpt lat="42.653364" lon="-5.596104">
        <ele>927.233</ele>
        <time>2021-10-13T19:57:31Z</time>
      </trkpt>
      <trkpt lat="42.653591" lon="-5.596178">
        <ele>928.187</ele>
        <time>2021-10-13T19:57:32Z</time>
      </trkpt>
      <trkpt lat="42.654037" lon="-5.596325">
        <ele>929.842</ele>
        <time>2021-10-13T19:57:34Z</time>
      </trkpt>
      <trkpt lat="42.654288" lon="-5.596414">
        <ele>931.326</ele>
        <time>2021-10-13T19:57:35Z</time>
      </trkpt>
      <trkpt lat="42.654828" lon="-5.596601">
        <ele>933.908</ele>
        <time>2021-10-13T19:57:37Z</time>
      </trkpt>
      <trkpt lat="42.655120" lon="-5.596697">
        <ele>935.676</ele>
        <time>2021-10-13T19:57:38Z</time>
      </trkpt>
      <trkpt lat="42.655683" lon="-5.596890">
        <ele>939.654</ele>
        <time>2021-10-13T19:57:40Z</time>
      </trkpt>
      <trkpt lat="42.655958" lon="-5.596981">
        <ele>941.661</ele>
        <time>2021-10-13T19:57:41Z</time>
      </trkpt>
      <trkpt lat="42.656473" lon="-5.597140">
        <ele>944.711</ele>
        <time>2021-10-13T19:57:43Z</time>
      </trkpt>
      <trkpt lat="42.656727" lon="-5.597185">
        <ele>947.024</ele>
        <time>2021-10-13T19:57:44Z</time>
      </trkpt>
      <trkpt lat="42.657212" lon="-5.597143">
        <ele>949.750</ele>
        <time>2021-10-13T19:57:46Z</time>
      </trkpt>
      <trkpt lat="42.657673" lon="-5.596928">
        <ele>954.119</ele>
        <time>2021-10-13T19:57:48Z</time>
      </trkpt>
      <trkpt lat="42.657875" lon="-5.596773">
        <ele>957.084</ele>
        <time>2021-10-13T19:57:49Z</time>
      </trkpt>
      <trkpt lat="42.658064" lon="-5.596600">
        <ele>958.563</ele>
        <time>2021-10-13T19:57:50Z</time>
      </trkpt>
      <trkpt lat="42.658416" lon="-5.596225">
        <ele>961.144</ele>
        <time>2021-10-13T19:57:52Z</time>
      </trkpt>
      <trkpt lat="42.658601" lon="-5.596019">
        <ele>962.018</ele>
        <time>2021-10-13T19:57:53Z</time>
      </trkpt>
      <trkpt lat="42.658958" lon="-5.595623">
        <ele>963.808</ele>
        <time>2021-10-13T19:57:55Z</time>
      </trkpt>
      <trkpt lat="42.659137" lon="-5.595426">
        <ele>964.734</ele>
        <time>2021-10-13T19:57:56Z</time>
      </trkpt>
      <trkpt lat="42.659471" lon="-5.595060">
        <ele>966.192</ele>
        <time>2021-10-13T19:57:58Z</time>
      </trkpt>
      <trkpt lat="42.659813" lon="-5.594697">
        <ele>968.049</ele>
        <time>2021-10-13T19:58:00Z</time>
      </trkpt>
      <trkpt lat="42.659986" lon="-5.594522">
        <ele>968.939</ele>
        <time>2021-10-13T19:58:01Z</time>
      </trkpt>
      <trkpt lat="42.660169" lon="-5.594355">
        <ele>969.722</ele>
        <time>2021-10-13T19:58:02Z</time>
      </trkpt>
      <trkpt lat="42.660534" lon="-5.594070">
        <ele>970.278</ele>
        <time>2021-10-13T19:58:04Z</time>
      </trkpt>
      <trkpt lat="42.660732" lon="-5.593957">
        <ele>971.497</ele>
        <time>2021-10-13T19:58:05Z</time>
      </trkpt>
      <trkpt lat="42.660930" lon="-5.593870">
        <ele>972.692</ele>
        <time>2021-10-13T19:58:06Z</time>
      </trkpt>
      <trkpt lat="42.661324" lon="-5.593760">
        <ele>974.171</ele>
        <time>2021-10-13T19:58:08Z</time>
      </trkpt>
      <trkpt lat="42.661654" lon="-5.593719">
        <ele>975.141</ele>
        <time>2021-10-13T19:58:10Z</time>
      </trkpt>
      <trkpt lat="42.661818" lon="-5.593711">
        <ele>975.115</ele>
        <time>2021-10-13T19:58:11Z</time>
      </trkpt>
      <trkpt lat="42.662126" lon="-5.593733">
        <ele>975.408</ele>
        <time>2021-10-13T19:58:13Z</time>
      </trkpt>
      <trkpt lat="42.662282" lon="-5.593753">
        <ele>975.865</ele>
        <time>2021-10-13T19:58:14Z</time>
      </trkpt>
      <trkpt lat="42.662586" lon="-5.593824">
        <ele>976.823</ele>
        <time>2021-10-13T19:58:16Z</time>
      </trkpt>
      <trkpt lat="42.662895" lon="-5.593934">
        <ele>977.570</ele>
        <time>2021-10-13T19:58:18Z</time>
      </trkpt>
      <trkpt lat="42.663214" lon="-5.594108">
        <ele>978.570</ele>
        <time>2021-10-13T19:58:20Z</time>
      </trkpt>
      <trkpt lat="42.663534" lon="-5.594322">
        <ele>980.583</ele>
        <time>2021-10-13T19:58:22Z</time>
      </trkpt>
      <trkpt lat="42.663866" lon="-5.594575">
        <ele>982.159</ele>
        <time>2021-10-13T19:58:24Z</time>
      </trkpt>
      <trkpt lat="42.664205" lon="-5.594841">
        <ele>984.048</ele>
        <time>2021-10-13T19:58:26Z</time>
      </trkpt>
      <trkpt lat="42.664532" lon="-5.595095">
        <ele>984.993</ele>
        <time>2021-10-13T19:58:28Z</time>
      </trkpt>
      <trkpt lat="42.664862" lon="-5.595353">
        <ele>985.914</ele>
        <time>2021-10-13T19:58:30Z</time>
      </trkpt>
      <trkpt lat="42.665200" lon="-5.595617">
        <ele>986.254</ele>
        <time>2021-10-13T19:58:32Z</time>
      </trkpt>
      <trkpt lat="42.665538" lon="-5.595879">
        <ele>986.809</ele>
        <time>2021-10-13T19:58:34Z</time>
      </trkpt>
      <trkpt lat="42.665887" lon="-5.596139">
        <ele>986.908</ele>
        <time>2021-10-13T19:58:36Z</time>
      </trkpt>
      <trkpt lat="42.666231" lon="-5.596394">
        <ele>988.269</ele>
        <time>2021-10-13T19:58:38Z</time>
      </trkpt>
      <trkpt lat="42.666558" lon="-5.596647">
        <ele>989.717</ele>
        <time>2021-10-13T19:58:40Z</time>
      </trkpt>
      <trkpt lat="42.666888" lon="-5.596900">
        <ele>992.534</ele>
        <time>2021-10-13T19:58:42Z</time>
      </trkpt>
      <trkpt lat="42.667220" lon="-5.597156">
        <ele>995.524</ele>
        <time>2021-10-13T19:58:44Z</time>
      </trkpt>
      <trkpt lat="42.667537" lon="-5.597405">
        <ele>997.237</ele>
        <time>2021-10-13T19:58:46Z</time>
      </trkpt>
      <trkpt lat="42.667700" lon="-5.597535">
        <ele>999.053</ele>
        <time>2021-10-13T19:58:47Z</time>
      </trkpt>
      <trkpt lat="42.667863" lon="-5.597666">
        <ele>1000.872</ele>
        <time>2021-10-13T19:58:48Z</time>
      </trkpt>
      <trkpt lat="42.668197" lon="-5.597926">
        <ele>1002.787</ele>
        <time>2021-10-13T19:58:50Z</time>
      </trkpt>
      <trkpt lat="42.668522" lon="-5.598177">
        <ele>1004.826</ele>
        <time>2021-10-13T19:58:52Z</time>
      </trkpt>
      <trkpt lat="42.668855" lon="-5.598437">
        <ele>1006.247</ele>
        <time>2021-10-13T19:58:54Z</time>
      </trkpt>
      <trkpt lat="42.669196" lon="-5.598693">
        <ele>1007.011</ele>
        <time>2021-10-13T19:58:56Z</time>
      </trkpt>
      <trkpt lat="42.669530" lon="-5.598924">
        <ele>1006.408</ele>
        <time>2021-10-13T19:58:58Z</time>
      </trkpt>
      <trkpt lat="42.669708" lon="-5.599018">
        <ele>1006.820</ele>
        <time>2021-10-13T19:58:59Z</time>
      </trkpt>
      <trkpt lat="42.670075" lon="-5.599152">
        <ele>1007.888</ele>
        <time>2021-10-13T19:59:01Z</time>
      </trkpt>
      <trkpt lat="42.670269" lon="-5.599200">
        <ele>1008.015</ele>
        <time>2021-10-13T19:59:02Z</time>
      </trkpt>
      <trkpt lat="42.670658" lon="-5.599251">
        <ele>1008.545</ele>
        <time>2021-10-13T19:59:04Z</time>
      </trkpt>
      <trkpt lat="42.670864" lon="-5.599261">
        <ele>1008.478</ele>
        <time>2021-10-13T19:59:05Z</time>
      </trkpt>
      <trkpt lat="42.671069" lon="-5.599268">
        <ele>1008.534</ele>
        <time>2021-10-13T19:59:06Z</time>
      </trkpt>
      <trkpt lat="42.671464" lon="-5.599275">
        <ele>1008.993</ele>
        <time>2021-10-13T19:59:08Z</time>
      </trkpt>
      <trkpt lat="42.671842" lon="-5.599284">
        <ele>1009.688</ele>
        <time>2021-10-13T19:59:10Z</time>
      </trkpt>
      <trkpt lat="42.672038" lon="-5.599288">
        <ele>1009.796</ele>
        <time>2021-10-13T19:59:11Z</time>
      </trkpt>
      <trkpt lat="42.672431" lon="-5.599297">
        <ele>1010.031</ele>
        <time>2021-10-13T19:59:13Z</time>
      </trkpt>
      <trkpt lat="42.672634" lon="-5.599310">
        <ele>1010.224</ele>
        <time>2021-10-13T19:59:14Z</time>
      </trkpt>
      <trkpt lat="42.673025" lon="-5.599346">
        <ele>1009.508</ele>
        <time>2021-10-13T19:59:16Z</time>
      </trkpt>
      <trkpt lat="42.673226" lon="-5.599374">
        <ele>1010.017</ele>
        <time>2021-10-13T19:59:17Z</time>
      </trkpt>
      <trkpt lat="42.673617" lon="-5.599452">
        <ele>1010.445</ele>
        <time>2021-10-13T19:59:19Z</time>
      </trkpt>
      <trkpt lat="42.673816" lon="-5.599506">
        <ele>1010.632</ele>
        <time>2021-10-13T19:59:20Z</time>
      </trkpt>
      <trkpt lat="42.674197" lon="-5.599634">
        <ele>1010.562</ele>
        <time>2021-10-13T19:59:22Z</time>
      </trkpt>
      <trkpt lat="42.674587" lon="-5.599789">
        <ele>1010.775</ele>
        <time>2021-10-13T19:59:24Z</time>
      </trkpt>
      <trkpt lat="42.674782" lon="-5.599869">
        <ele>1011.071</ele>
        <time>2021-10-13T19:59:25Z</time>
      </trkpt>
      <trkpt lat="42.674981" lon="-5.599950">
        <ele>1011.550</ele>
        <time>2021-10-13T19:59:26Z</time>
      </trkpt>
      <trkpt lat="42.675351" lon="-5.600106">
        <ele>1012.555</ele>
        <time>2021-10-13T19:59:28Z</time>
      </trkpt>
      <trkpt lat="42.675534" lon="-5.600180">
        <ele>1011.917</ele>
        <time>2021-10-13T19:59:29Z</time>
      </trkpt>
      <trkpt lat="42.675718" lon="-5.600254">
        <ele>1011.887</ele>
        <time>2021-10-13T19:59:30Z</time>
      </trkpt>
      <trkpt lat="42.676091" lon="-5.600401">
        <ele>1013.215</ele>
        <time>2021-10-13T19:59:32Z</time>
      </trkpt>
      <trkpt lat="42.676453" lon="-5.600548">
        <ele>1013.808</ele>
        <time>2021-10-13T19:59:34Z</time>
      </trkpt>
      <trkpt lat="42.676639" lon="-5.600626">
        <ele>1014.489</ele>
        <time>2021-10-13T19:59:35Z</time>
      </trkpt>
      <trkpt lat="42.676825" lon="-5.600702">
        <ele>1014.137</ele>
        <time>2021-10-13T19:59:36Z</time>
      </trkpt>
      <trkpt lat="42.677010" lon="-5.600773">
        <ele>1014.084</ele>
        <time>2021-10-13T19:59:37Z</time>
      </trkpt>
      <trkpt lat="42.677377" lon="-5.600917">
        <ele>1015.654</ele>
        <time>2021-10-13T19:59:39Z</time>
      </trkpt>
      <trkpt lat="42.677562" lon="-5.600990">
        <ele>1016.377</ele>
        <time>2021-10-13T19:59:40Z</time>
      </trkpt>
      <trkpt lat="42.677748" lon="-5.601065">
        <ele>1017.153</ele>
        <time>2021-10-13T19:59:41Z</time>
      </trkpt>
      <trkpt lat="42.677933" lon="-5.601141">
        <ele>1017.252</ele>
        <time>2021-10-13T19:59:42Z</time>
      </trkpt>
      <trkpt lat="42.678303" lon="-5.601293">
        <ele>1018.147</ele>
        <time>2021-10-13T19:59:44Z</time>
      </trkpt>
      <trkpt lat="42.678677" lon="-5.601443">
        <ele>1019.233</ele>
        <time>2021-10-13T19:59:46Z</time>
      </trkpt>
      <trkpt lat="42.679051" lon="-5.601598">
        <ele>1019.923</ele>
        <time>2021-10-13T19:59:48Z</time>
      </trkpt>
      <trkpt lat="42.679239" lon="-5.601674">
        <ele>1019.315</ele>
        <time>2021-10-13T19:59:49Z</time>
      </trkpt>
      <trkpt lat="42.679612" lon="-5.601824">
        <ele>1021.108</ele>
        <time>2021-10-13T19:59:51Z</time>
      </trkpt>
      <trkpt lat="42.679799" lon="-5.601899">
        <ele>1020.921</ele>
        <time>2021-10-13T19:59:52Z</time>
      </trkpt>
      <trkpt lat="42.680166" lon="-5.602047">
        <ele>1021.059</ele>
        <time>2021-10-13T19:59:54Z</time>
      </trkpt>
      <trkpt lat="42.680351" lon="-5.602121">
        <ele>1021.356</ele>
        <time>2021-10-13T19:59:55Z</time>
      </trkpt>
      <trkpt lat="42.680542" lon="-5.602197">
        <ele>1021.186</ele>
        <time>2021-10-13T19:59:56Z</time>
      </trkpt>
      <trkpt lat="42.680904" lon="-5.602338">
        <ele>1021.689</ele>
        <time>2021-10-13T19:59:58Z</time>
      </trkpt>
      <trkpt lat="42.681093" lon="-5.602414">
        <ele>1022.075</ele>
        <time>2021-10-13T19:59:59Z</time>
      </trkpt>
      <trkpt lat="42.681470" lon="-5.602565">
        <ele>1021.344</ele>
        <time>2021-10-13T20:00:01Z</time>
      </trkpt>
      <trkpt lat="42.681669" lon="-5.602646">
        <ele>1021.769</ele>
        <time>2021-10-13T20:00:02Z</time>
      </trkpt>
      <trkpt lat="42.682050" lon="-5.602808">
        <ele>1022.828</ele>
        <time>2021-10-13T20:00:04Z</time>
      </trkpt>
      <trkpt lat="42.682253" lon="-5.602893">
        <ele>1023.189</ele>
        <time>2021-10-13T20:00:05Z</time>
      </trkpt>
      <trkpt lat="42.682462" lon="-5.602977">
        <ele>1023.517</ele>
        <time>2021-10-13T20:00:06Z</time>
      </trkpt>
      <trkpt lat="42.682877" lon="-5.603144">
        <ele>1025.108</ele>
        <time>2021-10-13T20:00:08Z</time>
      </trkpt>
      <trkpt lat="42.683080" lon="-5.603225">
        <ele>1025.120</ele>
        <time>2021-10-13T20:00:09Z</time>
      </trkpt>
      <trkpt lat="42.683277" lon="-5.603304">
        <ele>1025.148</ele>
        <time>2021-10-13T20:00:10Z</time>
      </trkpt>
      <trkpt lat="42.683658" lon="-5.603458">
        <ele>1025.245</ele>
        <time>2021-10-13T20:00:12Z</time>
      </trkpt>
      <trkpt lat="42.683845" lon="-5.603540">
        <ele>1025.775</ele>
        <time>2021-10-13T20:00:13Z</time>
      </trkpt>
      <trkpt lat="42.684216" lon="-5.603727">
        <ele>1025.318</ele>
        <time>2021-10-13T20:00:15Z</time>
      </trkpt>
      <trkpt lat="42.684579" lon="-5.603951">
        <ele>1025.884</ele>
        <time>2021-10-13T20:00:17Z</time>
      </trkpt>
      <trkpt lat="42.684756" lon="-5.604083">
        <ele>1026.313</ele>
        <time>2021-10-13T20:00:18Z</time>
      </trkpt>
      <trkpt lat="42.685097" lon="-5.604362">
        <ele>1027.018</ele>
        <time>2021-10-13T20:00:20Z</time>
      </trkpt>
      <trkpt lat="42.685441" lon="-5.604653">
        <ele>1027.716</ele>
        <time>2021-10-13T20:00:22Z</time>
      </trkpt>
      <trkpt lat="42.685615" lon="-5.604798">
        <ele>1028.176</ele>
        <time>2021-10-13T20:00:23Z</time>
      </trkpt>
      <trkpt lat="42.685791" lon="-5.604944">
        <ele>1028.513</ele>
        <time>2021-10-13T20:00:24Z</time>
      </trkpt>
      <trkpt lat="42.686153" lon="-5.605242">
        <ele>1028.208</ele>
        <time>2021-10-13T20:00:26Z</time>
      </trkpt>
      <trkpt lat="42.686510" lon="-5.605507">
        <ele>1028.199</ele>
        <time>2021-10-13T20:00:28Z</time>
      </trkpt>
      <trkpt lat="42.686871" lon="-5.605742">
        <ele>1028.897</ele>
        <time>2021-10-13T20:00:30Z</time>
      </trkpt>
      <trkpt lat="42.687054" lon="-5.605845">
        <ele>1029.844</ele>
        <time>2021-10-13T20:00:31Z</time>
      </trkpt>
      <trkpt lat="42.687244" lon="-5.605948">
        <ele>1030.574</ele>
        <time>2021-10-13T20:00:32Z</time>
      </trkpt>
      <trkpt lat="42.687603" lon="-5.606138">
        <ele>1033.187</ele>
        <time>2021-10-13T20:00:34Z</time>
      </trkpt>
      <trkpt lat="42.687788" lon="-5.606237">
        <ele>1033.623</ele>
        <time>2021-10-13T20:00:35Z</time>
      </trkpt>
      <trkpt lat="42.688149" lon="-5.606437">
        <ele>1035.532</ele>
        <time>2021-10-13T20:00:37Z</time>
      </trkpt>
      <trkpt lat="42.688330" lon="-5.606539">
        <ele>1035.737</ele>
        <time>2021-10-13T20:00:38Z</time>
      </trkpt>
      <trkpt lat="42.688687" lon="-5.606734">
        <ele>1036.468</ele>
        <time>2021-10-13T20:00:40Z</time>
      </trkpt>
      <trkpt lat="42.688872" lon="-5.606834">
        <ele>1035.942</ele>
        <time>2021-10-13T20:00:41Z</time>
      </trkpt>
      <trkpt lat="42.689058" lon="-5.606933">
        <ele>1035.826</ele>
        <time>2021-10-13T20:00:42Z</time>
      </trkpt>
      <trkpt lat="42.689441" lon="-5.607122">
        <ele>1035.508</ele>
        <time>2021-10-13T20:00:44Z</time>
      </trkpt>
      <trkpt lat="42.689821" lon="-5.607288">
        <ele>1035.444</ele>
        <time>2021-10-13T20:00:46Z</time>
      </trkpt>
      <trkpt lat="42.690017" lon="-5.607365">
        <ele>1036.142</ele>
        <time>2021-10-13T20:00:47Z</time>
      </trkpt>
      <trkpt lat="42.690408" lon="-5.607503">
        <ele>1036.999</ele>
        <time>2021-10-13T20:00:49Z</time>
      </trkpt>
      <trkpt lat="42.690607" lon="-5.607567">
        <ele>1037.139</ele>
        <time>2021-10-13T20:00:50Z</time>
      </trkpt>
      <trkpt lat="42.690981" lon="-5.607689">
        <ele>1038.942</ele>
        <time>2021-10-13T20:00:52Z</time>
      </trkpt>
      <trkpt lat="42.691171" lon="-5.607751">
        <ele>1039.538</ele>
        <time>2021-10-13T20:00:53Z</time>
      </trkpt>
      <trkpt lat="42.691358" lon="-5.607812">
        <ele>1040.477</ele>
        <time>2021-10-13T20:00:54Z</time>
      </trkpt>
      <trkpt lat="42.691737" lon="-5.607937">
        <ele>1041.412</ele>
        <time>2021-10-13T20:00:56Z</time>
      </trkpt>
      <trkpt lat="42.692107" lon="-5.608059">
        <ele>1043.471</ele>
        <time>2021-10-13T20:00:58Z</time>
      </trkpt>
      <trkpt lat="42.692302" lon="-5.608123">
        <ele>1043.841</ele>
        <time>2021-10-13T20:00:59Z</time>
      </trkpt>
      <trkpt lat="42.692694" lon="-5.608251">
        <ele>1044.515</ele>
        <time>2021-10-13T20:01:01Z</time>
      </trkpt>
      <trkpt lat="42.692893" lon="-5.608316">
        <ele>1044.908</ele>
        <time>2021-10-13T20:01:02Z</time>
      </trkpt>
      <trkpt lat="42.693271" lon="-5.608445">
        <ele>1045.655</ele>
        <time>2021-10-13T20:01:04Z</time>
      </trkpt>
      <trkpt lat="42.693465" lon="-5.608512">
        <ele>1046.183</ele>
        <time>2021-10-13T20:01:05Z</time>
      </trkpt>
      <trkpt lat="42.693854" lon="-5.608632">
        <ele>1046.040</ele>
        <time>2021-10-13T20:01:07Z</time>
      </trkpt>
      <trkpt lat="42.694053" lon="-5.608696">
        <ele>1046.460</ele>
        <time>2021-10-13T20:01:08Z</time>
      </trkpt>
      <trkpt lat="42.694433" lon="-5.608821">
        <ele>1047.653</ele>
        <time>2021-10-13T20:01:10Z</time>
      </trkpt>
      <trkpt lat="42.694626" lon="-5.608885">
        <ele>1047.289</ele>
        <time>2021-10-13T20:01:11Z</time>
      </trkpt>
      <trkpt lat="42.695010" lon="-5.609012">
        <ele>1048.078</ele>
        <time>2021-10-13T20:01:13Z</time>
      </trkpt>
      <trkpt lat="42.695206" lon="-5.609077">
        <ele>1048.063</ele>
        <time>2021-10-13T20:01:14Z</time>
      </trkpt>
      <trkpt lat="42.695579" lon="-5.609201">
        <ele>1049.541</ele>
        <time>2021-10-13T20:01:16Z</time>
      </trkpt>
      <trkpt lat="42.695768" lon="-5.609267">
        <ele>1049.781</ele>
        <time>2021-10-13T20:01:17Z</time>
      </trkpt>
      <trkpt lat="42.695956" lon="-5.609331">
        <ele>1050.009</ele>
        <time>2021-10-13T20:01:18Z</time>
      </trkpt>
      <trkpt lat="42.696145" lon="-5.609392">
        <ele>1050.708</ele>
        <time>2021-10-13T20:01:19Z</time>
      </trkpt>
      <trkpt lat="42.696339" lon="-5.609454">
        <ele>1051.322</ele>
        <time>2021-10-13T20:01:20Z</time>
      </trkpt>
      <trkpt lat="42.696723" lon="-5.609576">
        <ele>1052.070</ele>
        <time>2021-10-13T20:01:22Z</time>
      </trkpt>
      <trkpt lat="42.697139" lon="-5.609707">
        <ele>1052.727</ele>
        <time>2021-10-13T20:01:24Z</time>
      </trkpt>
      <trkpt lat="42.697568" lon="-5.609838">
        <ele>1052.957</ele>
        <time>2021-10-13T20:01:26Z</time>
      </trkpt>
      <trkpt lat="42.697983" lon="-5.609939">
        <ele>1052.950</ele>
        <time>2021-10-13T20:01:28Z</time>
      </trkpt>
      <trkpt lat="42.698201" lon="-5.609974">
        <ele>1053.926</ele>
        <time>2021-10-13T20:01:29Z</time>
      </trkpt>
      <trkpt lat="42.698415" lon="-5.609999">
        <ele>1054.485</ele>
        <time>2021-10-13T20:01:30Z</time>
      </trkpt>
      <trkpt lat="42.698842" lon="-5.610036">
        <ele>1055.210</ele>
        <time>2021-10-13T20:01:32Z</time>
      </trkpt>
      <trkpt lat="42.699244" lon="-5.610069">
        <ele>1056.411</ele>
        <time>2021-10-13T20:01:34Z</time>
      </trkpt>
      <trkpt lat="42.699449" lon="-5.610087">
        <ele>1057.021</ele>
        <time>2021-10-13T20:01:35Z</time>
      </trkpt>
      <trkpt lat="42.699656" lon="-5.610106">
        <ele>1057.503</ele>
        <time>2021-10-13T20:01:36Z</time>
      </trkpt>
      <trkpt lat="42.700073" lon="-5.610143">
        <ele>1058.208</ele>
        <time>2021-10-13T20:01:38Z</time>
      </trkpt>
      <trkpt lat="42.700480" lon="-5.610178">
        <ele>1059.289</ele>
        <time>2021-10-13T20:01:40Z</time>
      </trkpt>
      <trkpt lat="42.700689" lon="-5.610196">
        <ele>1059.337</ele>
        <time>2021-10-13T20:01:41Z</time>
      </trkpt>
      <trkpt lat="42.700895" lon="-5.610214">
        <ele>1059.644</ele>
        <time>2021-10-13T20:01:42Z</time>
      </trkpt>
      <trkpt lat="42.701309" lon="-5.610256">
        <ele>1060.454</ele>
        <time>2021-10-13T20:01:44Z</time>
      </trkpt>
      <trkpt lat="42.701708" lon="-5.610290">
        <ele>1061.767</ele>
        <time>2021-10-13T20:01:46Z</time>
      </trkpt>
      <trkpt lat="42.701910" lon="-5.610308">
        <ele>1062.823</ele>
        <time>2021-10-13T20:01:47Z</time>
      </trkpt>
      <trkpt lat="42.702114" lon="-5.610327">
        <ele>1064.062</ele>
        <time>2021-10-13T20:01:48Z</time>
      </trkpt>
      <trkpt lat="42.702515" lon="-5.610365">
        <ele>1065.237</ele>
        <time>2021-10-13T20:01:50Z</time>
      </trkpt>
      <trkpt lat="42.702900" lon="-5.610399">
        <ele>1067.324</ele>
        <time>2021-10-13T20:01:52Z</time>
      </trkpt>
      <trkpt lat="42.703096" lon="-5.610415">
        <ele>1067.804</ele>
        <time>2021-10-13T20:01:53Z</time>
      </trkpt>
      <trkpt lat="42.703290" lon="-5.610430">
        <ele>1068.714</ele>
        <time>2021-10-13T20:01:54Z</time>
      </trkpt>
      <trkpt lat="42.703679" lon="-5.610462">
        <ele>1069.908</ele>
        <time>2021-10-13T20:01:56Z</time>
      </trkpt>
      <trkpt lat="42.704052" lon="-5.610494">
        <ele>1071.760</ele>
        <time>2021-10-13T20:01:58Z</time>
      </trkpt>
      <trkpt lat="42.704247" lon="-5.610510">
        <ele>1072.028</ele>
        <time>2021-10-13T20:01:59Z</time>
      </trkpt>
      <trkpt lat="42.704652" lon="-5.610544">
        <ele>1073.325</ele>
        <time>2021-10-13T20:02:01Z</time>
      </trkpt>
      <trkpt lat="42.704863" lon="-5.610562">
        <ele>1073.755</ele>
        <time>2021-10-13T20:02:02Z</time>
      </trkpt>
      <trkpt lat="42.705243" lon="-5.610592">
        <ele>1074.398</ele>
        <time>2021-10-13T20:02:04Z</time>
      </trkpt>
      <trkpt lat="42.705432" lon="-5.610607">
        <ele>1074.264</ele>
        <time>2021-10-13T20:02:05Z</time>
      </trkpt>
      <trkpt lat="42.705622" lon="-5.610622">
        <ele>1074.633</ele>
        <time>2021-10-13T20:02:06Z</time>
      </trkpt>
      <trkpt lat="42.706010" lon="-5.610649">
        <ele>1075.538</ele>
        <time>2021-10-13T20:02:08Z</time>
      </trkpt>
      <trkpt lat="42.706397" lon="-5.610676">
        <ele>1076.699</ele>
        <time>2021-10-13T20:02:10Z</time>
      </trkpt>
      <trkpt lat="42.706798" lon="-5.610700">
        <ele>1076.807</ele>
        <time>2021-10-13T20:02:12Z</time>
      </trkpt>
      <trkpt lat="42.707202" lon="-5.610732">
        <ele>1077.227</ele>
        <time>2021-10-13T20:02:14Z</time>
      </trkpt>
      <trkpt lat="42.707594" lon="-5.610757">
        <ele>1078.008</ele>
        <time>2021-10-13T20:02:16Z</time>
      </trkpt>
      <trkpt lat="42.707795" lon="-5.610774">
        <ele>1077.887</ele>
        <time>2021-10-13T20:02:17Z</time>
      </trkpt>
      <trkpt lat="42.708165" lon="-5.610801">
        <ele>1078.865</ele>
        <time>2021-10-13T20:02:19Z</time>
      </trkpt>
      <trkpt lat="42.708348" lon="-5.610816">
        <ele>1079.412</ele>
        <time>2021-10-13T20:02:20Z</time>
      </trkpt>
      <trkpt lat="42.708697" lon="-5.610845">
        <ele>1080.252</ele>
        <time>2021-10-13T20:02:22Z</time>
      </trkpt>
      <trkpt lat="42.708873" lon="-5.610858">
        <ele>1081.085</ele>
        <time>2021-10-13T20:02:23Z</time>
      </trkpt>
      <trkpt lat="42.709226" lon="-5.610887">
        <ele>1081.961</ele>
        <time>2021-10-13T20:02:25Z</time>
      </trkpt>
      <trkpt lat="42.709413" lon="-5.610903">
        <ele>1082.870</ele>
        <time>2021-10-13T20:02:26Z</time>
      </trkpt>
      <trkpt lat="42.709779" lon="-5.610935">
        <ele>1083.155</ele>
        <time>2021-10-13T20:02:28Z</time>
      </trkpt>
      <trkpt lat="42.709980" lon="-5.610953">
        <ele>1084.188</ele>
        <time>2021-10-13T20:02:29Z</time>
      </trkpt>
      <trkpt lat="42.710411" lon="-5.611010">
        <ele>1084.824</ele>
        <time>2021-10-13T20:02:31Z</time>
      </trkpt>
      <trkpt lat="42.710651" lon="-5.611049">
        <ele>1085.226</ele>
        <time>2021-10-13T20:02:32Z</time>
      </trkpt>
      <trkpt lat="42.711141" lon="-5.611137">
        <ele>1086.708</ele>
        <time>2021-10-13T20:02:34Z</time>
      </trkpt>
      <trkpt lat="42.711406" lon="-5.611186">
        <ele>1087.036</ele>
        <time>2021-10-13T20:02:35Z</time>
      </trkpt>
      <trkpt lat="42.711937" lon="-5.611294">
        <ele>1087.964</ele>
        <time>2021-10-13T20:02:37Z</time>
      </trkpt>
      <trkpt lat="42.712205" lon="-5.611347">
        <ele>1087.981</ele>
        <time>2021-10-13T20:02:38Z</time>
      </trkpt>
      <trkpt lat="42.712688" lon="-5.611432">
        <ele>1087.991</ele>
        <time>2021-10-13T20:02:40Z</time>
      </trkpt>
      <trkpt lat="42.713162" lon="-5.611521">
        <ele>1087.644</ele>
        <time>2021-10-13T20:02:42Z</time>
      </trkpt>
      <trkpt lat="42.713400" lon="-5.611564">
        <ele>1088.280</ele>
        <time>2021-10-13T20:02:43Z</time>
      </trkpt>
      <trkpt lat="42.713641" lon="-5.611608">
        <ele>1088.389</ele>
        <time>2021-10-13T20:02:44Z</time>
      </trkpt>
      <trkpt lat="42.714095" lon="-5.611696">
        <ele>1088.754</ele>
        <time>2021-10-13T20:02:46Z</time>
      </trkpt>
      <trkpt lat="42.714547" lon="-5.611785">
        <ele>1088.435</ele>
        <time>2021-10-13T20:02:48Z</time>
      </trkpt>
      <trkpt lat="42.715007" lon="-5.611872">
        <ele>1088.386</ele>
        <time>2021-10-13T20:02:50Z</time>
      </trkpt>
      <trkpt lat="42.715468" lon="-5.611952">
        <ele>1087.614</ele>
        <time>2021-10-13T20:02:52Z</time>
      </trkpt>
      <trkpt lat="42.715706" lon="-5.611995">
        <ele>1088.008</ele>
        <time>2021-10-13T20:02:53Z</time>
      </trkpt>
      <trkpt lat="42.716164" lon="-5.612077">
        <ele>1089.141</ele>
        <time>2021-10-13T20:02:55Z</time>
      </trkpt>
      <trkpt lat="42.716386" lon="-5.612118">
        <ele>1089.789</ele>
        <time>2021-10-13T20:02:56Z</time>
      </trkpt>
      <trkpt lat="42.716792" lon="-5.612198">
        <ele>1091.246</ele>
        <time>2021-10-13T20:02:58Z</time>
      </trkpt>
      <trkpt lat="42.717004" lon="-5.612237">
        <ele>1091.896</ele>
        <time>2021-10-13T20:02:59Z</time>
      </trkpt>
      <trkpt lat="42.717223" lon="-5.612283">
        <ele>1091.929</ele>
        <time>2021-10-13T20:03:00Z</time>
      </trkpt>
      <trkpt lat="42.717448" lon="-5.612328">
        <ele>1092.435</ele>
        <time>2021-10-13T20:03:01Z</time>
      </trkpt>
      <trkpt lat="42.717687" lon="-5.612372">
        <ele>1093.034</ele>
        <time>2021-10-13T20:03:02Z</time>
      </trkpt>
      <trkpt lat="42.718170" lon="-5.612460">
        <ele>1093.879</ele>
        <time>2021-10-13T20:03:04Z</time>
      </trkpt>
      <trkpt lat="42.718430" lon="-5.612507">
        <ele>1094.684</ele>
        <time>2021-10-13T20:03:05Z</time>
      </trkpt>
      <trkpt lat="42.718974" lon="-5.612614">
        <ele>1095.907</ele>
        <time>2021-10-13T20:03:07Z</time>
      </trkpt>
      <trkpt lat="42.719262" lon="-5.612673">
        <ele>1096.017</ele>
        <time>2021-10-13T20:03:08Z</time>
      </trkpt>
      <trkpt lat="42.719833" lon="-5.612786">
        <ele>1096.708</ele>
        <time>2021-10-13T20:03:10Z</time>
      </trkpt>
      <trkpt lat="42.720427" lon="-5.612902">
        <ele>1096.576</ele>
        <time>2021-10-13T20:03:12Z</time>
      </trkpt>
      <trkpt lat="42.721027" lon="-5.613010">
        <ele>1097.324</ele>
        <time>2021-10-13T20:03:14Z</time>
      </trkpt>
      <trkpt lat="42.721609" lon="-5.613123">
        <ele>1098.531</ele>
        <time>2021-10-13T20:03:16Z</time>
      </trkpt>
      <trkpt lat="42.721904" lon="-5.613184">
        <ele>1098.891</ele>
        <time>2021-10-13T20:03:17Z</time>
      </trkpt>
      <trkpt lat="42.722198" lon="-5.613244">
        <ele>1099.064</ele>
        <time>2021-10-13T20:03:18Z</time>
      </trkpt>
      <trkpt lat="42.722486" lon="-5.613302">
        <ele>1100.270</ele>
        <time>2021-10-13T20:03:19Z</time>
      </trkpt>
      <trkpt lat="42.722779" lon="-5.613360">
        <ele>1101.019</ele>
        <time>2021-10-13T20:03:20Z</time>
      </trkpt>
      <trkpt lat="42.723335" lon="-5.613462">
        <ele>1101.964</ele>
        <time>2021-10-13T20:03:22Z</time>
      </trkpt>
      <trkpt lat="42.723616" lon="-5.613516">
        <ele>1102.763</ele>
        <time>2021-10-13T20:03:23Z</time>
      </trkpt>
      <trkpt lat="42.724169" lon="-5.613612">
        <ele>1104.144</ele>
        <time>2021-10-13T20:03:25Z</time>
      </trkpt>
      <trkpt lat="42.724457" lon="-5.613663">
        <ele>1104.518</ele>
        <time>2021-10-13T20:03:26Z</time>
      </trkpt>
      <trkpt lat="42.724996" lon="-5.613762">
        <ele>1104.408</ele>
        <time>2021-10-13T20:03:28Z</time>
      </trkpt>
      <trkpt lat="42.725275" lon="-5.613814">
        <ele>1104.424</ele>
        <time>2021-10-13T20:03:29Z</time>
      </trkpt>
      <trkpt lat="42.725833" lon="-5.613925">
        <ele>1104.432</ele>
        <time>2021-10-13T20:03:31Z</time>
      </trkpt>
      <trkpt lat="42.726123" lon="-5.613984">
        <ele>1103.739</ele>
        <time>2021-10-13T20:03:32Z</time>
      </trkpt>
      <trkpt lat="42.726665" lon="-5.614083">
        <ele>1102.989</ele>
        <time>2021-10-13T20:03:34Z</time>
      </trkpt>
      <trkpt lat="42.727211" lon="-5.614173">
        <ele>1102.342</ele>
        <time>2021-10-13T20:03:36Z</time>
      </trkpt>
      <trkpt lat="42.727759" lon="-5.614209">
        <ele>1102.068</ele>
        <time>2021-10-13T20:03:38Z</time>
      </trkpt>
      <trkpt lat="42.728289" lon="-5.614164">
        <ele>1102.117</ele>
        <time>2021-10-13T20:03:40Z</time>
      </trkpt>
      <trkpt lat="42.728555" lon="-5.614107">
        <ele>1102.762</ele>
        <time>2021-10-13T20:03:41Z</time>
      </trkpt>
      <trkpt lat="42.729070" lon="-5.613961">
        <ele>1103.938</ele>
        <time>2021-10-13T20:03:43Z</time>
      </trkpt>
      <trkpt lat="42.729338" lon="-5.613885">
        <ele>1104.670</ele>
        <time>2021-10-13T20:03:44Z</time>
      </trkpt>
      <trkpt lat="42.729854" lon="-5.613739">
        <ele>1104.917</ele>
        <time>2021-10-13T20:03:46Z</time>
      </trkpt>
      <trkpt lat="42.730119" lon="-5.613664">
        <ele>1103.808</ele>
        <time>2021-10-13T20:03:47Z</time>
      </trkpt>
      <trkpt lat="42.730385" lon="-5.613584">
        <ele>1103.041</ele>
        <time>2021-10-13T20:03:48Z</time>
      </trkpt>
      <trkpt lat="42.730925" lon="-5.613429">
        <ele>1102.589</ele>
        <time>2021-10-13T20:03:50Z</time>
      </trkpt>
      <trkpt lat="42.731449" lon="-5.613282">
        <ele>1103.136</ele>
        <time>2021-10-13T20:03:52Z</time>
      </trkpt>
      <trkpt lat="42.731706" lon="-5.613211">
        <ele>1103.456</ele>
        <time>2021-10-13T20:03:53Z</time>
      </trkpt>
      <trkpt lat="42.731954" lon="-5.613143">
        <ele>1103.619</ele>
        <time>2021-10-13T20:03:54Z</time>
      </trkpt>
      <trkpt lat="42.732441" lon="-5.613017">
        <ele>1104.145</ele>
        <time>2021-10-13T20:03:56Z</time>
      </trkpt>
      <trkpt lat="42.732908" lon="-5.612914">
        <ele>1105.244</ele>
        <time>2021-10-13T20:03:58Z</time>
      </trkpt>
      <trkpt lat="42.733151" lon="-5.612880">
        <ele>1105.219</ele>
        <time>2021-10-13T20:03:59Z</time>
      </trkpt>
      <trkpt lat="42.733636" lon="-5.612848">
        <ele>1106.957</ele>
        <time>2021-10-13T20:04:01Z</time>
      </trkpt>
      <trkpt lat="42.733888" lon="-5.612849">
        <ele>1107.200</ele>
        <time>2021-10-13T20:04:02Z</time>
      </trkpt>
      <trkpt lat="42.734363" lon="-5.612863">
        <ele>1109.520</ele>
        <time>2021-10-13T20:04:04Z</time>
      </trkpt>
      <trkpt lat="42.734611" lon="-5.612872">
        <ele>1110.008</ele>
        <time>2021-10-13T20:04:05Z</time>
      </trkpt>
      <trkpt lat="42.734864" lon="-5.612881">
        <ele>1110.053</ele>
        <time>2021-10-13T20:04:06Z</time>
      </trkpt>
      <trkpt lat="42.735132" lon="-5.612890">
        <ele>1110.091</ele>
        <time>2021-10-13T20:04:07Z</time>
      </trkpt>
      <trkpt lat="42.735409" lon="-5.612900">
        <ele>1110.328</ele>
        <time>2021-10-13T20:04:08Z</time>
      </trkpt>
      <trkpt lat="42.735946" lon="-5.612920">
        <ele>1112.278</ele>
        <time>2021-10-13T20:04:10Z</time>
      </trkpt>
      <trkpt lat="42.736225" lon="-5.612931">
        <ele>1112.741</ele>
        <time>2021-10-13T20:04:11Z</time>
      </trkpt>
      <trkpt lat="42.736779" lon="-5.612951">
        <ele>1114.067</ele>
        <time>2021-10-13T20:04:13Z</time>
      </trkpt>
      <trkpt lat="42.737061" lon="-5.612960">
        <ele>1114.996</ele>
        <time>2021-10-13T20:04:14Z</time>
      </trkpt>
      <trkpt lat="42.737611" lon="-5.612976">
        <ele>1116.931</ele>
        <time>2021-10-13T20:04:16Z</time>
      </trkpt>
      <trkpt lat="42.738171" lon="-5.612993">
        <ele>1119.027</ele>
        <time>2021-10-13T20:04:18Z</time>
      </trkpt>
      <trkpt lat="42.738733" lon="-5.613014">
        <ele>1120.468</ele>
        <time>2021-10-13T20:04:20Z</time>
      </trkpt>
      <trkpt lat="42.739262" lon="-5.613034">
        <ele>1121.514</ele>
        <time>2021-10-13T20:04:22Z</time>
      </trkpt>
      <trkpt lat="42.739523" lon="-5.613044">
        <ele>1122.308</ele>
        <time>2021-10-13T20:04:23Z</time>
      </trkpt>
      <trkpt lat="42.739771" lon="-5.613053">
        <ele>1122.990</ele>
        <time>2021-10-13T20:04:24Z</time>
      </trkpt>
      <trkpt lat="42.740282" lon="-5.613072">
        <ele>1123.348</ele>
        <time>2021-10-13T20:04:26Z</time>
      </trkpt>
      <trkpt lat="42.740785" lon="-5.613088">
        <ele>1123.875</ele>
        <time>2021-10-13T20:04:28Z</time>
      </trkpt>
      <trkpt lat="42.741048" lon="-5.613093">
        <ele>1123.865</ele>
        <time>2021-10-13T20:04:29Z</time>
      </trkpt>
      <trkpt lat="42.741576" lon="-5.613112">
        <ele>1124.958</ele>
        <time>2021-10-13T20:04:31Z</time>
      </trkpt>
      <trkpt lat="42.741850" lon="-5.613122">
        <ele>1125.764</ele>
        <time>2021-10-13T20:04:32Z</time>
      </trkpt>
      <trkpt lat="42.742378" lon="-5.613139">
        <ele>1125.823</ele>
        <time>2021-10-13T20:04:34Z</time>
      </trkpt>
      <trkpt lat="42.742918" lon="-5.613155">
        <ele>1126.858</ele>
        <time>2021-10-13T20:04:36Z</time>
      </trkpt>
      <trkpt lat="42.743185" lon="-5.613163">
        <ele>1127.043</ele>
        <time>2021-10-13T20:04:37Z</time>
      </trkpt>
      <trkpt lat="42.743457" lon="-5.613171">
        <ele>1127.164</ele>
        <time>2021-10-13T20:04:38Z</time>
      </trkpt>
      <trkpt lat="42.743975" lon="-5.613186">
        <ele>1127.910</ele>
        <time>2021-10-13T20:04:40Z</time>
      </trkpt>
      <trkpt lat="42.744238" lon="-5.613195">
        <ele>1128.208</ele>
        <time>2021-10-13T20:04:41Z</time>
      </trkpt>
      <trkpt lat="42.744754" lon="-5.613211">
        <ele>1128.472</ele>
        <time>2021-10-13T20:04:43Z</time>
      </trkpt>
      <trkpt lat="42.745020" lon="-5.613219">
        <ele>1128.960</ele>
        <time>2021-10-13T20:04:44Z</time>
      </trkpt>
      <trkpt lat="42.745524" lon="-5.613234">
        <ele>1129.617</ele>
        <time>2021-10-13T20:04:46Z</time>
      </trkpt>
      <trkpt lat="42.745779" lon="-5.613237">
        <ele>1130.217</ele>
        <time>2021-10-13T20:04:47Z</time>
      </trkpt>
      <trkpt lat="42.746033" lon="-5.613240">
        <ele>1130.690</ele>
        <time>2021-10-13T20:04:48Z</time>
      </trkpt>
      <trkpt lat="42.746547" lon="-5.613256">
        <ele>1131.126</ele>
        <time>2021-10-13T20:04:50Z</time>
      </trkpt>
      <trkpt lat="42.747046" lon="-5.613282">
        <ele>1132.485</ele>
        <time>2021-10-13T20:04:52Z</time>
      </trkpt>
      <trkpt lat="42.747298" lon="-5.613295">
        <ele>1132.670</ele>
        <time>2021-10-13T20:04:53Z</time>
      </trkpt>
      <trkpt lat="42.747548" lon="-5.613304">
        <ele>1133.176</ele>
        <time>2021-10-13T20:04:54Z</time>
      </trkpt>
      <trkpt lat="42.748033" lon="-5.613323">
        <ele>1133.390</ele>
        <time>2021-10-13T20:04:56Z</time>
      </trkpt>
      <trkpt lat="42.748457" lon="-5.613336">
        <ele>1134.919</ele>
        <time>2021-10-13T20:04:58Z</time>
      </trkpt>
      <trkpt lat="42.748891" lon="-5.613342">
        <ele>1135.208</ele>
        <time>2021-10-13T20:05:00Z</time>
      </trkpt>
      <trkpt lat="42.749121" lon="-5.613348">
        <ele>1135.645</ele>
        <time>2021-10-13T20:05:01Z</time>
      </trkpt>
      <trkpt lat="42.749362" lon="-5.613358">
        <ele>1136.113</ele>
        <time>2021-10-13T20:05:02Z</time>
      </trkpt>
      <trkpt lat="42.749819" lon="-5.613374">
        <ele>1135.410</ele>
        <time>2021-10-13T20:05:04Z</time>
      </trkpt>
      <trkpt lat="42.750054" lon="-5.613380">
        <ele>1135.710</ele>
        <time>2021-10-13T20:05:05Z</time>
      </trkpt>
      <trkpt lat="42.750284" lon="-5.613396">
        <ele>1135.573</ele>
        <time>2021-10-13T20:05:06Z</time>
      </trkpt>
      <trkpt lat="42.750510" lon="-5.613415">
        <ele>1134.659</ele>
        <time>2021-10-13T20:05:07Z</time>
      </trkpt>
      <trkpt lat="42.750741" lon="-5.613429">
        <ele>1134.628</ele>
        <time>2021-10-13T20:05:08Z</time>
      </trkpt>
      <trkpt lat="42.751199" lon="-5.613440">
        <ele>1136.443</ele>
        <time>2021-10-13T20:05:10Z</time>
      </trkpt>
      <trkpt lat="42.751671" lon="-5.613452">
        <ele>1138.971</ele>
        <time>2021-10-13T20:05:12Z</time>
      </trkpt>
      <trkpt lat="42.751910" lon="-5.613459">
        <ele>1139.241</ele>
        <time>2021-10-13T20:05:13Z</time>
      </trkpt>
      <trkpt lat="42.752157" lon="-5.613467">
        <ele>1139.615</ele>
        <time>2021-10-13T20:05:14Z</time>
      </trkpt>
      <trkpt lat="42.752648" lon="-5.613482">
        <ele>1140.608</ele>
        <time>2021-10-13T20:05:16Z</time>
      </trkpt>
      <trkpt lat="42.753151" lon="-5.613493">
        <ele>1143.055</ele>
        <time>2021-10-13T20:05:18Z</time>
      </trkpt>
      <trkpt lat="42.753663" lon="-5.613506">
        <ele>1143.843</ele>
        <time>2021-10-13T20:05:20Z</time>
      </trkpt>
      <trkpt lat="42.754130" lon="-5.613519">
        <ele>1146.580</ele>
        <time>2021-10-13T20:05:22Z</time>
      </trkpt>
      <trkpt lat="42.754585" lon="-5.613536">
        <ele>1148.780</ele>
        <time>2021-10-13T20:05:24Z</time>
      </trkpt>
      <trkpt lat="42.754814" lon="-5.613545">
        <ele>1148.863</ele>
        <time>2021-10-13T20:05:25Z</time>
      </trkpt>
      <trkpt lat="42.755048" lon="-5.613553">
        <ele>1149.119</ele>
        <time>2021-10-13T20:05:26Z</time>
      </trkpt>
      <trkpt lat="42.755490" lon="-5.613569">
        <ele>1150.288</ele>
        <time>2021-10-13T20:05:28Z</time>
      </trkpt>
      <trkpt lat="42.755939" lon="-5.613584">
        <ele>1150.923</ele>
        <time>2021-10-13T20:05:30Z</time>
      </trkpt>
      <trkpt lat="42.756389" lon="-5.613604">
        <ele>1151.122</ele>
        <time>2021-10-13T20:05:32Z</time>
      </trkpt>
      <trkpt lat="42.756828" lon="-5.613617">
        <ele>1152.362</ele>
        <time>2021-10-13T20:05:34Z</time>
      </trkpt>
      <trkpt lat="42.757286" lon="-5.613631">
        <ele>1152.608</ele>
        <time>2021-10-13T20:05:36Z</time>
      </trkpt>
      <trkpt lat="42.757769" lon="-5.613650">
        <ele>1154.908</ele>
        <time>2021-10-13T20:05:38Z</time>
      </trkpt>
      <trkpt lat="42.758244" lon="-5.613671">
        <ele>1155.130</ele>
        <time>2021-10-13T20:05:40Z</time>
      </trkpt>
      <trkpt lat="42.758743" lon="-5.613691">
        <ele>1155.858</ele>
        <time>2021-10-13T20:05:42Z</time>
      </trkpt>
      <trkpt lat="42.759261" lon="-5.613706">
        <ele>1156.395</ele>
        <time>2021-10-13T20:05:44Z</time>
      </trkpt>
      <trkpt lat="42.759776" lon="-5.613712">
        <ele>1156.415</ele>
        <time>2021-10-13T20:05:46Z</time>
      </trkpt>
      <trkpt lat="42.760040" lon="-5.613715">
        <ele>1156.318</ele>
        <time>2021-10-13T20:05:47Z</time>
      </trkpt>
      <trkpt lat="42.760567" lon="-5.613720">
        <ele>1156.154</ele>
        <time>2021-10-13T20:05:49Z</time>
      </trkpt>
      <trkpt lat="42.760839" lon="-5.613722">
        <ele>1156.213</ele>
        <time>2021-10-13T20:05:50Z</time>
      </trkpt>
      <trkpt lat="42.761356" lon="-5.613725">
        <ele>1157.148</ele>
        <time>2021-10-13T20:05:52Z</time>
      </trkpt>
      <trkpt lat="42.761875" lon="-5.613730">
        <ele>1157.864</ele>
        <time>2021-10-13T20:05:54Z</time>
      </trkpt>
      <trkpt lat="42.762391" lon="-5.613732">
        <ele>1158.106</ele>
        <time>2021-10-13T20:05:56Z</time>
      </trkpt>
      <trkpt lat="42.762888" lon="-5.613730">
        <ele>1158.716</ele>
        <time>2021-10-13T20:05:58Z</time>
      </trkpt>
      <trkpt lat="42.763387" lon="-5.613737">
        <ele>1159.408</ele>
        <time>2021-10-13T20:06:00Z</time>
      </trkpt>
      <trkpt lat="42.763633" lon="-5.613740">
        <ele>1159.484</ele>
        <time>2021-10-13T20:06:01Z</time>
      </trkpt>
      <trkpt lat="42.763883" lon="-5.613742">
        <ele>1159.932</ele>
        <time>2021-10-13T20:06:02Z</time>
      </trkpt>
      <trkpt lat="42.764340" lon="-5.613744">
        <ele>1160.399</ele>
        <time>2021-10-13T20:06:04Z</time>
      </trkpt>
      <trkpt lat="42.764567" lon="-5.613745">
        <ele>1160.639</ele>
        <time>2021-10-13T20:06:05Z</time>
      </trkpt>
      <trkpt lat="42.764794" lon="-5.613746">
        <ele>1161.092</ele>
        <time>2021-10-13T20:06:06Z</time>
      </trkpt>
      <trkpt lat="42.765250" lon="-5.613732">
        <ele>1161.418</ele>
        <time>2021-10-13T20:06:08Z</time>
      </trkpt>
      <trkpt lat="42.765704" lon="-5.613686">
        <ele>1161.597</ele>
        <time>2021-10-13T20:06:10Z</time>
      </trkpt>
      <trkpt lat="42.765942" lon="-5.613638">
        <ele>1162.142</ele>
        <time>2021-10-13T20:06:11Z</time>
      </trkpt>
      <trkpt lat="42.766179" lon="-5.613577">
        <ele>1162.557</ele>
        <time>2021-10-13T20:06:12Z</time>
      </trkpt>
      <trkpt lat="42.766663" lon="-5.613440">
        <ele>1162.700</ele>
        <time>2021-10-13T20:06:14Z</time>
      </trkpt>
      <trkpt lat="42.767143" lon="-5.613307">
        <ele>1165.420</ele>
        <time>2021-10-13T20:06:16Z</time>
      </trkpt>
      <trkpt lat="42.767390" lon="-5.613238">
        <ele>1165.608</ele>
        <time>2021-10-13T20:06:17Z</time>
      </trkpt>
      <trkpt lat="42.767880" lon="-5.613089">
        <ele>1166.533</ele>
        <time>2021-10-13T20:06:19Z</time>
      </trkpt>
      <trkpt lat="42.768133" lon="-5.613004">
        <ele>1167.311</ele>
        <time>2021-10-13T20:06:20Z</time>
      </trkpt>
      <trkpt lat="42.768611" lon="-5.612823">
        <ele>1167.148</ele>
        <time>2021-10-13T20:06:22Z</time>
      </trkpt>
      <trkpt lat="42.768854" lon="-5.612721">
        <ele>1166.518</ele>
        <time>2021-10-13T20:06:23Z</time>
      </trkpt>
      <trkpt lat="42.769334" lon="-5.612501">
        <ele>1166.431</ele>
        <time>2021-10-13T20:06:25Z</time>
      </trkpt>
      <trkpt lat="42.769586" lon="-5.612379">
        <ele>1165.347</ele>
        <time>2021-10-13T20:06:26Z</time>
      </trkpt>
      <trkpt lat="42.770060" lon="-5.612131">
        <ele>1163.856</ele>
        <time>2021-10-13T20:06:28Z</time>
      </trkpt>
      <trkpt lat="42.770308" lon="-5.612003">
        <ele>1163.011</ele>
        <time>2021-10-13T20:06:29Z</time>
      </trkpt>
      <trkpt lat="42.770559" lon="-5.611874">
        <ele>1161.839</ele>
        <time>2021-10-13T20:06:30Z</time>
      </trkpt>
      <trkpt lat="42.771068" lon="-5.611601">
        <ele>1161.101</ele>
        <time>2021-10-13T20:06:32Z</time>
      </trkpt>
      <trkpt lat="42.771554" lon="-5.611294">
        <ele>1159.821</ele>
        <time>2021-10-13T20:06:34Z</time>
      </trkpt>
      <trkpt lat="42.772040" lon="-5.610925">
        <ele>1158.308</ele>
        <time>2021-10-13T20:06:36Z</time>
      </trkpt>
      <trkpt lat="42.772274" lon="-5.610713">
        <ele>1158.061</ele>
        <time>2021-10-13T20:06:37Z</time>
      </trkpt>
      <trkpt lat="42.772506" lon="-5.610471">
        <ele>1157.859</ele>
        <time>2021-10-13T20:06:38Z</time>
      </trkpt>
      <trkpt lat="42.772924" lon="-5.609956">
        <ele>1156.766</ele>
        <time>2021-10-13T20:06:40Z</time>
      </trkpt>
      <trkpt lat="42.773312" lon="-5.609371">
        <ele>1155.036</ele>
        <time>2021-10-13T20:06:42Z</time>
      </trkpt>
      <trkpt lat="42.773666" lon="-5.608747">
        <ele>1154.399</ele>
        <time>2021-10-13T20:06:44Z</time>
      </trkpt>
      <trkpt lat="42.773987" lon="-5.608119">
        <ele>1152.765</ele>
        <time>2021-10-13T20:06:46Z</time>
      </trkpt>
      <trkpt lat="42.774151" lon="-5.607795">
        <ele>1152.114</ele>
        <time>2021-10-13T20:06:47Z</time>
      </trkpt>
      <trkpt lat="42.774313" lon="-5.607474">
        <ele>1151.149</ele>
        <time>2021-10-13T20:06:48Z</time>
      </trkpt>
      <trkpt lat="42.774473" lon="-5.607155">
        <ele>1150.146</ele>
        <time>2021-10-13T20:06:49Z</time>
      </trkpt>
      <trkpt lat="42.774638" lon="-5.606828">
        <ele>1149.688</ele>
        <time>2021-10-13T20:06:50Z</time>
      </trkpt>
      <trkpt lat="42.774954" lon="-5.606200">
        <ele>1148.216</ele>
        <time>2021-10-13T20:06:52Z</time>
      </trkpt>
      <trkpt lat="42.775110" lon="-5.605878">
        <ele>1146.908</ele>
        <time>2021-10-13T20:06:53Z</time>
      </trkpt>
      <trkpt lat="42.775403" lon="-5.605282">
        <ele>1145.762</ele>
        <time>2021-10-13T20:06:55Z</time>
      </trkpt>
      <trkpt lat="42.775552" lon="-5.604990">
        <ele>1145.410</ele>
        <time>2021-10-13T20:06:56Z</time>
      </trkpt>
      <trkpt lat="42.775851" lon="-5.604433">
        <ele>1144.517</ele>
        <time>2021-10-13T20:06:58Z</time>
      </trkpt>
      <trkpt lat="42.776204" lon="-5.603871">
        <ele>1143.277</ele>
        <time>2021-10-13T20:07:00Z</time>
      </trkpt>
      <trkpt lat="42.776397" lon="-5.603613">
        <ele>1142.890</ele>
        <time>2021-10-13T20:07:01Z</time>
      </trkpt>
      <trkpt lat="42.776609" lon="-5.603379">
        <ele>1142.116</ele>
        <time>2021-10-13T20:07:02Z</time>
      </trkpt>
      <trkpt lat="42.777038" lon="-5.603053">
        <ele>1140.435</ele>
        <time>2021-10-13T20:07:04Z</time>
      </trkpt>
      <trkpt lat="42.777265" lon="-5.602950">
        <ele>1139.380</ele>
        <time>2021-10-13T20:07:05Z</time>
      </trkpt>
      <trkpt lat="42.777497" lon="-5.602900">
        <ele>1138.055</ele>
        <time>2021-10-13T20:07:06Z</time>
      </trkpt>
      <trkpt lat="42.777968" lon="-5.602922">
        <ele>1136.307</ele>
        <time>2021-10-13T20:07:08Z</time>
      </trkpt>
      <trkpt lat="42.778414" lon="-5.603079">
        <ele>1133.917</ele>
        <time>2021-10-13T20:07:10Z</time>
      </trkpt>
      <trkpt lat="42.778850" lon="-5.603382">
        <ele>1131.108</ele>
        <time>2021-10-13T20:07:12Z</time>
      </trkpt>
      <trkpt lat="42.779235" lon="-5.603832">
        <ele>1128.043</ele>
        <time>2021-10-13T20:07:14Z</time>
      </trkpt>
      <trkpt lat="42.779525" lon="-5.604383">
        <ele>1123.741</ele>
        <time>2021-10-13T20:07:16Z</time>
      </trkpt>
      <trkpt lat="42.779633" lon="-5.604704">
        <ele>1123.068</ele>
        <time>2021-10-13T20:07:17Z</time>
      </trkpt>
      <trkpt lat="42.779719" lon="-5.605043">
        <ele>1121.568</ele>
        <time>2021-10-13T20:07:18Z</time>
      </trkpt>
      <trkpt lat="42.779842" lon="-5.605757">
        <ele>1118.161</ele>
        <time>2021-10-13T20:07:20Z</time>
      </trkpt>
      <trkpt lat="42.779910" lon="-5.606477">
        <ele>1114.517</ele>
        <time>2021-10-13T20:07:22Z</time>
      </trkpt>
      <trkpt lat="42.779933" lon="-5.606848">
        <ele>1112.896</ele>
        <time>2021-10-13T20:07:23Z</time>
      </trkpt>
      <trkpt lat="42.779953" lon="-5.607210">
        <ele>1111.531</ele>
        <time>2021-10-13T20:07:24Z</time>
      </trkpt>
      <trkpt lat="42.780004" lon="-5.607928">
        <ele>1107.866</ele>
        <time>2021-10-13T20:07:26Z</time>
      </trkpt>
      <trkpt lat="42.780100" lon="-5.608617">
        <ele>1104.329</ele>
        <time>2021-10-13T20:07:28Z</time>
      </trkpt>
      <trkpt lat="42.780173" lon="-5.608966">
        <ele>1102.321</ele>
        <time>2021-10-13T20:07:29Z</time>
      </trkpt>
      <trkpt lat="42.780382" lon="-5.609616">
        <ele>1098.908</ele>
        <time>2021-10-13T20:07:31Z</time>
      </trkpt>
      <trkpt lat="42.780513" lon="-5.609931">
        <ele>1097.814</ele>
        <time>2021-10-13T20:07:32Z</time>
      </trkpt>
      <trkpt lat="42.780800" lon="-5.610497">
        <ele>1094.512</ele>
        <time>2021-10-13T20:07:34Z</time>
      </trkpt>
      <trkpt lat="42.780964" lon="-5.610784">
        <ele>1092.989</ele>
        <time>2021-10-13T20:07:35Z</time>
      </trkpt>
      <trkpt lat="42.781301" lon="-5.611366">
        <ele>1090.579</ele>
        <time>2021-10-13T20:07:37Z</time>
      </trkpt>
      <trkpt lat="42.781470" lon="-5.611668">
        <ele>1089.222</ele>
        <time>2021-10-13T20:07:38Z</time>
      </trkpt>
      <trkpt lat="42.781782" lon="-5.612291">
        <ele>1086.518</ele>
        <time>2021-10-13T20:07:40Z</time>
      </trkpt>
      <trkpt lat="42.782044" lon="-5.612972">
        <ele>1082.837</ele>
        <time>2021-10-13T20:07:42Z</time>
      </trkpt>
      <trkpt lat="42.782139" lon="-5.613338">
        <ele>1081.332</ele>
        <time>2021-10-13T20:07:43Z</time>
      </trkpt>
      <trkpt lat="42.782227" lon="-5.613717">
        <ele>1079.059</ele>
        <time>2021-10-13T20:07:44Z</time>
      </trkpt>
      <trkpt lat="42.782394" lon="-5.614445">
        <ele>1073.903</ele>
        <time>2021-10-13T20:07:46Z</time>
      </trkpt>
      <trkpt lat="42.782478" lon="-5.614802">
        <ele>1071.923</ele>
        <time>2021-10-13T20:07:47Z</time>
      </trkpt>
      <trkpt lat="42.782644" lon="-5.615479">
        <ele>1069.208</ele>
        <time>2021-10-13T20:07:49Z</time>
      </trkpt>
      <trkpt lat="42.782738" lon="-5.615817">
        <ele>1067.233</ele>
        <time>2021-10-13T20:07:50Z</time>
      </trkpt>
      <trkpt lat="42.782939" lon="-5.616459">
        <ele>1063.071</ele>
        <time>2021-10-13T20:07:52Z</time>
      </trkpt>
      <trkpt lat="42.783048" lon="-5.616777">
        <ele>1061.278</ele>
        <time>2021-10-13T20:07:53Z</time>
      </trkpt>
      <trkpt lat="42.783256" lon="-5.617390">
        <ele>1057.318</ele>
        <time>2021-10-13T20:07:55Z</time>
      </trkpt>
      <trkpt lat="42.783363" lon="-5.617696">
        <ele>1055.881</ele>
        <time>2021-10-13T20:07:56Z</time>
      </trkpt>
      <trkpt lat="42.783570" lon="-5.618248">
        <ele>1052.737</ele>
        <time>2021-10-13T20:07:58Z</time>
      </trkpt>
      <trkpt lat="42.783696" lon="-5.618521">
        <ele>1051.236</ele>
        <time>2021-10-13T20:07:59Z</time>
      </trkpt>
      <trkpt lat="42.784001" lon="-5.619027">
        <ele>1047.261</ele>
        <time>2021-10-13T20:08:01Z</time>
      </trkpt>
      <trkpt lat="42.784196" lon="-5.619296">
        <ele>1045.444</ele>
        <time>2021-10-13T20:08:02Z</time>
      </trkpt>
      <trkpt lat="42.784587" lon="-5.619797">
        <ele>1042.605</ele>
        <time>2021-10-13T20:08:04Z</time>
      </trkpt>
      <trkpt lat="42.784800" lon="-5.620063">
        <ele>1041.115</ele>
        <time>2021-10-13T20:08:05Z</time>
      </trkpt>
      <trkpt lat="42.785249" lon="-5.620614">
        <ele>1037.908</ele>
        <time>2021-10-13T20:08:07Z</time>
      </trkpt>
      <trkpt lat="42.785488" lon="-5.620902">
        <ele>1036.262</ele>
        <time>2021-10-13T20:08:08Z</time>
      </trkpt>
      <trkpt lat="42.785937" lon="-5.621435">
        <ele>1031.460</ele>
        <time>2021-10-13T20:08:10Z</time>
      </trkpt>
      <trkpt lat="42.786155" lon="-5.621705">
        <ele>1029.667</ele>
        <time>2021-10-13T20:08:11Z</time>
      </trkpt>
      <trkpt lat="42.786557" lon="-5.622194">
        <ele>1026.137</ele>
        <time>2021-10-13T20:08:13Z</time>
      </trkpt>
      <trkpt lat="42.786757" lon="-5.622431">
        <ele>1024.720</ele>
        <time>2021-10-13T20:08:14Z</time>
      </trkpt>
      <trkpt lat="42.787117" lon="-5.622867">
        <ele>1020.546</ele>
        <time>2021-10-13T20:08:16Z</time>
      </trkpt>
      <trkpt lat="42.787297" lon="-5.623086">
        <ele>1018.975</ele>
        <time>2021-10-13T20:08:17Z</time>
      </trkpt>
      <trkpt lat="42.787477" lon="-5.623303">
        <ele>1017.210</ele>
        <time>2021-10-13T20:08:18Z</time>
      </trkpt>
      <trkpt lat="42.787844" lon="-5.623748">
        <ele>1012.443</ele>
        <time>2021-10-13T20:08:20Z</time>
      </trkpt>
      <trkpt lat="42.788215" lon="-5.624203">
        <ele>1009.764</ele>
        <time>2021-10-13T20:08:22Z</time>
      </trkpt>
      <trkpt lat="42.788589" lon="-5.624651">
        <ele>1005.310</ele>
        <time>2021-10-13T20:08:24Z</time>
      </trkpt>
      <trkpt lat="42.788976" lon="-5.625123">
        <ele>1001.808</ele>
        <time>2021-10-13T20:08:26Z</time>
      </trkpt>
      <trkpt lat="42.789380" lon="-5.625619">
        <ele>998.012</ele>
        <time>2021-10-13T20:08:28Z</time>
      </trkpt>
      <trkpt lat="42.789801" lon="-5.626142">
        <ele>995.550</ele>
        <time>2021-10-13T20:08:30Z</time>
      </trkpt>
      <trkpt lat="42.790005" lon="-5.626399">
        <ele>993.817</ele>
        <time>2021-10-13T20:08:31Z</time>
      </trkpt>
      <trkpt lat="42.790208" lon="-5.626652">
        <ele>992.317</ele>
        <time>2021-10-13T20:08:32Z</time>
      </trkpt>
      <trkpt lat="42.790571" lon="-5.627100">
        <ele>989.670</ele>
        <time>2021-10-13T20:08:34Z</time>
      </trkpt>
      <trkpt lat="42.790767" lon="-5.627315">
        <ele>987.986</ele>
        <time>2021-10-13T20:08:35Z</time>
      </trkpt>
      <trkpt lat="42.791212" lon="-5.627677">
        <ele>984.335</ele>
        <time>2021-10-13T20:08:37Z</time>
      </trkpt>
      <trkpt lat="42.791462" lon="-5.627826">
        <ele>982.770</ele>
        <time>2021-10-13T20:08:38Z</time>
      </trkpt>
      <trkpt lat="42.791950" lon="-5.628072">
        <ele>980.866</ele>
        <time>2021-10-13T20:08:40Z</time>
      </trkpt>
      <trkpt lat="42.792399" lon="-5.628312">
        <ele>979.029</ele>
        <time>2021-10-13T20:08:42Z</time>
      </trkpt>
      <trkpt lat="42.792616" lon="-5.628445">
        <ele>978.121</ele>
        <time>2021-10-13T20:08:43Z</time>
      </trkpt>
      <trkpt lat="42.792834" lon="-5.628590">
        <ele>976.508</ele>
        <time>2021-10-13T20:08:44Z</time>
      </trkpt>
      <trkpt lat="42.793244" lon="-5.628902">
        <ele>975.134</ele>
        <time>2021-10-13T20:08:46Z</time>
      </trkpt>
      <trkpt lat="42.793453" lon="-5.629077">
        <ele>974.492</ele>
        <time>2021-10-13T20:08:47Z</time>
      </trkpt>
      <trkpt lat="42.793856" lon="-5.629465">
        <ele>972.149</ele>
        <time>2021-10-13T20:08:49Z</time>
      </trkpt>
      <trkpt lat="42.794053" lon="-5.629689">
        <ele>971.189</ele>
        <time>2021-10-13T20:08:50Z</time>
      </trkpt>
      <trkpt lat="42.794407" lon="-5.630148">
        <ele>968.752</ele>
        <time>2021-10-13T20:08:52Z</time>
      </trkpt>
      <trkpt lat="42.794583" lon="-5.630403">
        <ele>967.748</ele>
        <time>2021-10-13T20:08:53Z</time>
      </trkpt>
      <trkpt lat="42.794907" lon="-5.630921">
        <ele>966.017</ele>
        <time>2021-10-13T20:08:55Z</time>
      </trkpt>
      <trkpt lat="42.795071" lon="-5.631202">
        <ele>965.292</ele>
        <time>2021-10-13T20:08:56Z</time>
      </trkpt>
      <trkpt lat="42.795373" lon="-5.631722">
        <ele>963.652</ele>
        <time>2021-10-13T20:08:58Z</time>
      </trkpt>
      <trkpt lat="42.795532" lon="-5.631960">
        <ele>962.253</ele>
        <time>2021-10-13T20:08:59Z</time>
      </trkpt>
      <trkpt lat="42.795863" lon="-5.632364">
        <ele>961.108</ele>
        <time>2021-10-13T20:09:01Z</time>
      </trkpt>
      <trkpt lat="42.796052" lon="-5.632548">
        <ele>959.608</ele>
        <time>2021-10-13T20:09:02Z</time>
      </trkpt>
      <trkpt lat="42.796420" lon="-5.632834">
        <ele>959.243</ele>
        <time>2021-10-13T20:09:04Z</time>
      </trkpt>
      <trkpt lat="42.796616" lon="-5.632947">
        <ele>958.981</ele>
        <time>2021-10-13T20:09:05Z</time>
      </trkpt>
      <trkpt lat="42.796817" lon="-5.633042">
        <ele>958.928</ele>
        <time>2021-10-13T20:09:06Z</time>
      </trkpt>
      <trkpt lat="42.797231" lon="-5.633180">
        <ele>958.468</ele>
        <time>2021-10-13T20:09:08Z</time>
      </trkpt>
      <trkpt lat="42.797654" lon="-5.633236">
        <ele>957.911</ele>
        <time>2021-10-13T20:09:10Z</time>
      </trkpt>
      <trkpt lat="42.797881" lon="-5.633235">
        <ele>957.677</ele>
        <time>2021-10-13T20:09:11Z</time>
      </trkpt>
      <trkpt lat="42.798313" lon="-5.633166">
        <ele>956.416</ele>
        <time>2021-10-13T20:09:13Z</time>
      </trkpt>
      <trkpt lat="42.798541" lon="-5.633107">
        <ele>957.011</ele>
        <time>2021-10-13T20:09:14Z</time>
      </trkpt>
      <trkpt lat="42.798950" lon="-5.632974">
        <ele>957.126</ele>
        <time>2021-10-13T20:09:16Z</time>
      </trkpt>
      <trkpt lat="42.799156" lon="-5.632891">
        <ele>957.147</ele>
        <time>2021-10-13T20:09:17Z</time>
      </trkpt>
      <trkpt lat="42.799574" lon="-5.632727">
        <ele>956.711</ele>
        <time>2021-10-13T20:09:19Z</time>
      </trkpt>
      <trkpt lat="42.799794" lon="-5.632652">
        <ele>957.208</ele>
        <time>2021-10-13T20:09:20Z</time>
      </trkpt>
      <trkpt lat="42.800231" lon="-5.632524">
        <ele>956.460</ele>
        <time>2021-10-13T20:09:22Z</time>
      </trkpt>
      <trkpt lat="42.800449" lon="-5.632471">
        <ele>956.468</ele>
        <time>2021-10-13T20:09:23Z</time>
      </trkpt>
      <trkpt lat="42.800851" lon="-5.632399">
        <ele>956.255</ele>
        <time>2021-10-13T20:09:25Z</time>
      </trkpt>
      <trkpt lat="42.801050" lon="-5.632377">
        <ele>955.935</ele>
        <time>2021-10-13T20:09:26Z</time>
      </trkpt>
      <trkpt lat="42.801423" lon="-5.632350">
        <ele>955.748</ele>
        <time>2021-10-13T20:09:28Z</time>
      </trkpt>
      <trkpt lat="42.801607" lon="-5.632347">
        <ele>955.464</ele>
        <time>2021-10-13T20:09:29Z</time>
      </trkpt>
      <trkpt lat="42.801783" lon="-5.632348">
        <ele>955.573</ele>
        <time>2021-10-13T20:09:30Z</time>
      </trkpt>
      <trkpt lat="42.801951" lon="-5.632353">
        <ele>956.088</ele>
        <time>2021-10-13T20:09:31Z</time>
      </trkpt>
      <trkpt lat="42.802120" lon="-5.632366">
        <ele>955.624</ele>
        <time>2021-10-13T20:09:32Z</time>
      </trkpt>
      <trkpt lat="42.802421" lon="-5.632393">
        <ele>955.204</ele>
        <time>2021-10-13T20:09:34Z</time>
      </trkpt>
      <trkpt lat="42.802576" lon="-5.632406">
        <ele>955.814</ele>
        <time>2021-10-13T20:09:35Z</time>
      </trkpt>
      <trkpt lat="42.802735" lon="-5.632420">
        <ele>956.208</ele>
        <time>2021-10-13T20:09:36Z</time>
      </trkpt>
      <trkpt lat="42.802904" lon="-5.632442">
        <ele>955.690</ele>
        <time>2021-10-13T20:09:37Z</time>
      </trkpt>
      <trkpt lat="42.803081" lon="-5.632462">
        <ele>955.348</ele>
        <time>2021-10-13T20:09:38Z</time>
      </trkpt>
      <trkpt lat="42.803416" lon="-5.632498">
        <ele>954.565</ele>
        <time>2021-10-13T20:09:40Z</time>
      </trkpt>
      <trkpt lat="42.803582" lon="-5.632506">
        <ele>954.795</ele>
        <time>2021-10-13T20:09:41Z</time>
      </trkpt>
      <trkpt lat="42.803925" lon="-5.632508">
        <ele>954.518</ele>
        <time>2021-10-13T20:09:43Z</time>
      </trkpt>
      <trkpt lat="42.804121" lon="-5.632493">
        <ele>955.264</ele>
        <time>2021-10-13T20:09:44Z</time>
      </trkpt>
      <trkpt lat="42.804505" lon="-5.632439">
        <ele>955.073</ele>
        <time>2021-10-13T20:09:46Z</time>
      </trkpt>
      <trkpt lat="42.804682" lon="-5.632403">
        <ele>955.468</ele>
        <time>2021-10-13T20:09:47Z</time>
      </trkpt>
      <trkpt lat="42.804966" lon="-5.632322">
        <ele>955.616</ele>
        <time>2021-10-13T20:09:49Z</time>
      </trkpt>
      <trkpt lat="42.805075" lon="-5.632279">
        <ele>955.776</ele>
        <time>2021-10-13T20:09:50Z</time>
      </trkpt>
      <trkpt lat="42.805251" lon="-5.632201">
        <ele>955.313</ele>
        <time>2021-10-13T20:09:52Z</time>
      </trkpt>
      <trkpt lat="42.805325" lon="-5.632165">
        <ele>955.708</ele>
        <time>2021-10-13T20:09:53Z</time>
      </trkpt>
      <trkpt lat="42.805382" lon="-5.632135">
        <ele>955.959</ele>
        <time>2021-10-13T20:09:54Z</time>
      </trkpt>
      <trkpt lat="42.805429" lon="-5.632109">
        <ele>956.267</ele>
        <time>2021-10-13T20:09:55Z</time>
      </trkpt>
      <trkpt lat="42.805477" lon="-5.632083">
        <ele>956.814</ele>
        <time>2021-10-13T20:09:56Z</time>
      </trkpt>
      <trkpt lat="42.805592" lon="-5.631986">
        <ele>957.144</ele>
        <time>2021-10-13T20:09:58Z</time>
      </trkpt>
      <trkpt lat="42.805658" lon="-5.631924">
        <ele>957.357</ele>
        <time>2021-10-13T20:09:59Z</time>
      </trkpt>
      <trkpt lat="42.805817" lon="-5.631843">
        <ele>958.423</ele>
        <time>2021-10-13T20:10:01Z</time>
      </trkpt>
      <trkpt lat="42.805913" lon="-5.631813">
        <ele>958.562</ele>
        <time>2021-10-13T20:10:02Z</time>
      </trkpt>
      <trkpt lat="42.806122" lon="-5.631721">
        <ele>958.587</ele>
        <time>2021-10-13T20:10:04Z</time>
      </trkpt>
      <trkpt lat="42.806236" lon="-5.631644">
        <ele>958.516</ele>
        <time>2021-10-13T20:10:05Z</time>
      </trkpt>
      <trkpt lat="42.806488" lon="-5.631451">
        <ele>958.076</ele>
        <time>2021-10-13T20:10:07Z</time>
      </trkpt>
      <trkpt lat="42.806631" lon="-5.631330">
        <ele>957.713</ele>
        <time>2021-10-13T20:10:08Z</time>
      </trkpt>
      <trkpt lat="42.806929" lon="-5.631057">
        <ele>959.108</ele>
        <time>2021-10-13T20:10:10Z</time>
      </trkpt>
      <trkpt lat="42.807085" lon="-5.630897">
        <ele>958.999</ele>
        <time>2021-10-13T20:10:11Z</time>
      </trkpt>
      <trkpt lat="42.807388" lon="-5.630557">
        <ele>960.487</ele>
        <time>2021-10-13T20:10:13Z</time>
      </trkpt>
      <trkpt lat="42.807536" lon="-5.630378">
        <ele>960.984</ele>
        <time>2021-10-13T20:10:14Z</time>
      </trkpt>
      <trkpt lat="42.807806" lon="-5.630055">
        <ele>960.774</ele>
        <time>2021-10-13T20:10:16Z</time>
      </trkpt>
      <trkpt lat="42.807934" lon="-5.629904">
        <ele>960.937</ele>
        <time>2021-10-13T20:10:17Z</time>
      </trkpt>
      <trkpt lat="42.808196" lon="-5.629606">
        <ele>961.633</ele>
        <time>2021-10-13T20:10:19Z</time>
      </trkpt>
      <trkpt lat="42.808334" lon="-5.629456">
        <ele>962.162</ele>
        <time>2021-10-13T20:10:20Z</time>
      </trkpt>
      <trkpt lat="42.808602" lon="-5.629183">
        <ele>962.327</ele>
        <time>2021-10-13T20:10:22Z</time>
      </trkpt>
      <trkpt lat="42.808743" lon="-5.629045">
        <ele>962.834</ele>
        <time>2021-10-13T20:10:23Z</time>
      </trkpt>
      <trkpt lat="42.809032" lon="-5.628787">
        <ele>963.555</ele>
        <time>2021-10-13T20:10:25Z</time>
      </trkpt>
      <trkpt lat="42.809188" lon="-5.628661">
        <ele>964.110</ele>
        <time>2021-10-13T20:10:26Z</time>
      </trkpt>
      <trkpt lat="42.809497" lon="-5.628429">
        <ele>964.708</ele>
        <time>2021-10-13T20:10:28Z</time>
      </trkpt>
      <trkpt lat="42.809835" lon="-5.628200">
        <ele>965.821</ele>
        <time>2021-10-13T20:10:30Z</time>
      </trkpt>
      <trkpt lat="42.810017" lon="-5.628092">
        <ele>965.769</ele>
        <time>2021-10-13T20:10:31Z</time>
      </trkpt>
      <trkpt lat="42.810210" lon="-5.627984">
        <ele>965.596</ele>
        <time>2021-10-13T20:10:32Z</time>
      </trkpt>
      <trkpt lat="42.810582" lon="-5.627803">
        <ele>965.316</ele>
        <time>2021-10-13T20:10:34Z</time>
      </trkpt>
      <trkpt lat="42.810767" lon="-5.627721">
        <ele>965.059</ele>
        <time>2021-10-13T20:10:35Z</time>
      </trkpt>
      <trkpt lat="42.810952" lon="-5.627646">
        <ele>965.145</ele>
        <time>2021-10-13T20:10:36Z</time>
      </trkpt>
      <trkpt lat="42.811351" lon="-5.627515">
        <ele>965.154</ele>
        <time>2021-10-13T20:10:38Z</time>
      </trkpt>
      <trkpt lat="42.811761" lon="-5.627416">
        <ele>964.839</ele>
        <time>2021-10-13T20:10:40Z</time>
      </trkpt>
      <trkpt lat="42.811972" lon="-5.627372">
        <ele>964.498</ele>
        <time>2021-10-13T20:10:41Z</time>
      </trkpt>
      <trkpt lat="42.812385" lon="-5.627308">
        <ele>964.115</ele>
        <time>2021-10-13T20:10:43Z</time>
      </trkpt>
      <trkpt lat="42.812594" lon="-5.627291">
        <ele>964.226</ele>
        <time>2021-10-13T20:10:44Z</time>
      </trkpt>
      <trkpt lat="42.812994" lon="-5.627278">
        <ele>964.008</ele>
        <time>2021-10-13T20:10:46Z</time>
      </trkpt>
      <trkpt lat="42.813201" lon="-5.627277">
        <ele>964.267</ele>
        <time>2021-10-13T20:10:47Z</time>
      </trkpt>
      <trkpt lat="42.813637" lon="-5.627281">
        <ele>963.625</ele>
        <time>2021-10-13T20:10:49Z</time>
      </trkpt>
      <trkpt lat="42.813890" lon="-5.627276">
        <ele>964.592</ele>
        <time>2021-10-13T20:10:50Z</time>
      </trkpt>
      <trkpt lat="42.814357" lon="-5.627238">
        <ele>964.422</ele>
        <time>2021-10-13T20:10:52Z</time>
      </trkpt>
      <trkpt lat="42.814581" lon="-5.627200">
        <ele>965.015</ele>
        <time>2021-10-13T20:10:53Z</time>
      </trkpt>
      <trkpt lat="42.815014" lon="-5.627091">
        <ele>966.571</ele>
        <time>2021-10-13T20:10:55Z</time>
      </trkpt>
      <trkpt lat="42.815235" lon="-5.627017">
        <ele>966.950</ele>
        <time>2021-10-13T20:10:56Z</time>
      </trkpt>
      <trkpt lat="42.815643" lon="-5.626859">
        <ele>968.145</ele>
        <time>2021-10-13T20:10:58Z</time>
      </trkpt>
      <trkpt lat="42.815837" lon="-5.626783">
        <ele>968.442</ele>
        <time>2021-10-13T20:10:59Z</time>
      </trkpt>
      <trkpt lat="42.816027" lon="-5.626710">
        <ele>969.322</ele>
        <time>2021-10-13T20:11:00Z</time>
      </trkpt>
      <trkpt lat="42.816221" lon="-5.626641">
        <ele>969.214</ele>
        <time>2021-10-13T20:11:01Z</time>
      </trkpt>
      <trkpt lat="42.816423" lon="-5.626577">
        <ele>969.808</ele>
        <time>2021-10-13T20:11:02Z</time>
      </trkpt>
      <trkpt lat="42.816818" lon="-5.626487">
        <ele>970.182</ele>
        <time>2021-10-13T20:11:04Z</time>
      </trkpt>
      <trkpt lat="42.817026" lon="-5.626469">
        <ele>970.560</ele>
        <time>2021-10-13T20:11:05Z</time>
      </trkpt>
      <trkpt lat="42.817435" lon="-5.626500">
        <ele>970.667</ele>
        <time>2021-10-13T20:11:07Z</time>
      </trkpt>
      <trkpt lat="42.817635" lon="-5.626549">
        <ele>970.767</ele>
        <time>2021-10-13T20:11:08Z</time>
      </trkpt>
      <trkpt lat="42.817988" lon="-5.626682">
        <ele>972.020</ele>
        <time>2021-10-13T20:11:10Z</time>
      </trkpt>
      <trkpt lat="42.818345" lon="-5.626898">
        <ele>971.796</ele>
        <time>2021-10-13T20:11:12Z</time>
      </trkpt>
      <trkpt lat="42.818517" lon="-5.627034">
        <ele>971.755</ele>
        <time>2021-10-13T20:11:13Z</time>
      </trkpt>
      <trkpt lat="42.818684" lon="-5.627181">
        <ele>971.250</ele>
        <time>2021-10-13T20:11:14Z</time>
      </trkpt>
      <trkpt lat="42.818939" lon="-5.627467">
        <ele>970.988</ele>
        <time>2021-10-13T20:11:16Z</time>
      </trkpt>
      <trkpt lat="42.819049" lon="-5.627616">
        <ele>971.624</ele>
        <time>2021-10-13T20:11:17Z</time>
      </trkpt>
      <trkpt lat="42.819245" lon="-5.627898">
        <ele>970.826</ele>
        <time>2021-10-13T20:11:19Z</time>
      </trkpt>
      <trkpt lat="42.819330" lon="-5.628041">
        <ele>969.008</ele>
        <time>2021-10-13T20:11:20Z</time>
      </trkpt>
      <trkpt lat="42.819465" lon="-5.628372">
        <ele>968.226</ele>
        <time>2021-10-13T20:11:22Z</time>
      </trkpt>
      <trkpt lat="42.819529" lon="-5.628565">
        <ele>968.764</ele>
        <time>2021-10-13T20:11:23Z</time>
      </trkpt>
      <trkpt lat="42.819647" lon="-5.628993">
        <ele>968.881</ele>
        <time>2021-10-13T20:11:25Z</time>
      </trkpt>
      <trkpt lat="42.819702" lon="-5.629222">
        <ele>968.641</ele>
        <time>2021-10-13T20:11:26Z</time>
      </trkpt>
      <trkpt lat="42.819781" lon="-5.629678">
        <ele>969.554</ele>
        <time>2021-10-13T20:11:28Z</time>
      </trkpt>
      <trkpt lat="42.819834" lon="-5.630134">
        <ele>971.050</ele>
        <time>2021-10-13T20:11:30Z</time>
      </trkpt>
      <trkpt lat="42.819849" lon="-5.630368">
        <ele>970.569</ele>
        <time>2021-10-13T20:11:31Z</time>
      </trkpt>
      <trkpt lat="42.819860" lon="-5.630611">
        <ele>970.284</ele>
        <time>2021-10-13T20:11:32Z</time>
      </trkpt>
      <trkpt lat="42.819870" lon="-5.631094">
        <ele>970.646</ele>
        <time>2021-10-13T20:11:34Z</time>
      </trkpt>
      <trkpt lat="42.819869" lon="-5.631584">
        <ele>971.288</ele>
        <time>2021-10-13T20:11:36Z</time>
      </trkpt>
      <trkpt lat="42.819863" lon="-5.631840">
        <ele>971.216</ele>
        <time>2021-10-13T20:11:37Z</time>
      </trkpt>
      <trkpt lat="42.819849" lon="-5.632132">
        <ele>972.308</ele>
        <time>2021-10-13T20:11:38Z</time>
      </trkpt>
      <trkpt lat="42.819803" lon="-5.632793">
        <ele>973.392</ele>
        <time>2021-10-13T20:11:40Z</time>
      </trkpt>
      <trkpt lat="42.819777" lon="-5.633571">
        <ele>974.780</ele>
        <time>2021-10-13T20:11:42Z</time>
      </trkpt>
      <trkpt lat="42.819771" lon="-5.633976">
        <ele>975.197</ele>
        <time>2021-10-13T20:11:43Z</time>
      </trkpt>
      <trkpt lat="42.819763" lon="-5.634364">
        <ele>976.247</ele>
        <time>2021-10-13T20:11:44Z</time>
      </trkpt>
      <trkpt lat="42.819767" lon="-5.635019">
        <ele>978.350</ele>
        <time>2021-10-13T20:11:46Z</time>
      </trkpt>
      <trkpt lat="42.819840" lon="-5.635610">
        <ele>979.926</ele>
        <time>2021-10-13T20:11:48Z</time>
      </trkpt>
      <trkpt lat="42.820019" lon="-5.636193">
        <ele>980.765</ele>
        <time>2021-10-13T20:11:50Z</time>
      </trkpt>
      <trkpt lat="42.820308" lon="-5.636729">
        <ele>980.540</ele>
        <time>2021-10-13T20:11:52Z</time>
      </trkpt>
      <trkpt lat="42.820509" lon="-5.636968">
        <ele>981.327</ele>
        <time>2021-10-13T20:11:53Z</time>
      </trkpt>
      <trkpt lat="42.820748" lon="-5.637193">
        <ele>981.068</ele>
        <time>2021-10-13T20:11:54Z</time>
      </trkpt>
      <trkpt lat="42.821281" lon="-5.637668">
        <ele>980.414</ele>
        <time>2021-10-13T20:11:56Z</time>
      </trkpt>
      <trkpt lat="42.821817" lon="-5.638169">
        <ele>981.008</ele>
        <time>2021-10-13T20:11:58Z</time>
      </trkpt>
      <trkpt lat="42.822094" lon="-5.638434">
        <ele>981.070</ele>
        <time>2021-10-13T20:11:59Z</time>
      </trkpt>
      <trkpt lat="42.822374" lon="-5.638702">
        <ele>981.328</ele>
        <time>2021-10-13T20:12:00Z</time>
      </trkpt>
      <trkpt lat="42.822651" lon="-5.638969">
        <ele>981.315</ele>
        <time>2021-10-13T20:12:01Z</time>
      </trkpt>
      <trkpt lat="42.822919" lon="-5.639230">
        <ele>981.195</ele>
        <time>2021-10-13T20:12:02Z</time>
      </trkpt>
      <trkpt lat="42.823383" lon="-5.639696">
        <ele>982.368</ele>
        <time>2021-10-13T20:12:04Z</time>
      </trkpt>
      <trkpt lat="42.823726" lon="-5.640081">
        <ele>983.624</ele>
        <time>2021-10-13T20:12:06Z</time>
      </trkpt>
      <trkpt lat="42.823993" lon="-5.640475">
        <ele>984.223</ele>
        <time>2021-10-13T20:12:08Z</time>
      </trkpt>
      <trkpt lat="42.824226" lon="-5.640916">
        <ele>984.078</ele>
        <time>2021-10-13T20:12:10Z</time>
      </trkpt>
      <trkpt lat="42.824412" lon="-5.641411">
        <ele>984.829</ele>
        <time>2021-10-13T20:12:12Z</time>
      </trkpt>
      <trkpt lat="42.824489" lon="-5.641664">
        <ele>984.600</ele>
        <time>2021-10-13T20:12:13Z</time>
      </trkpt>
      <trkpt lat="42.824563" lon="-5.641928">
        <ele>985.220</ele>
        <time>2021-10-13T20:12:14Z</time>
      </trkpt>
      <trkpt lat="42.824705" lon="-5.642440">
        <ele>986.208</ele>
        <time>2021-10-13T20:12:16Z</time>
      </trkpt>
      <trkpt lat="42.824781" lon="-5.642711">
        <ele>986.020</ele>
        <time>2021-10-13T20:12:17Z</time>
      </trkpt>
      <trkpt lat="42.824854" lon="-5.642983">
        <ele>985.698</ele>
        <time>2021-10-13T20:12:18Z</time>
      </trkpt>
      <trkpt lat="42.825009" lon="-5.643537">
        <ele>986.665</ele>
        <time>2021-10-13T20:12:20Z</time>
      </trkpt>
      <trkpt lat="42.825181" lon="-5.644084">
        <ele>986.795</ele>
        <time>2021-10-13T20:12:22Z</time>
      </trkpt>
      <trkpt lat="42.825293" lon="-5.644354">
        <ele>986.688</ele>
        <time>2021-10-13T20:12:23Z</time>
      </trkpt>
      <trkpt lat="42.825590" lon="-5.644835">
        <ele>988.014</ele>
        <time>2021-10-13T20:12:25Z</time>
      </trkpt>
      <trkpt lat="42.825777" lon="-5.645046">
        <ele>988.363</ele>
        <time>2021-10-13T20:12:26Z</time>
      </trkpt>
      <trkpt lat="42.826170" lon="-5.645338">
        <ele>989.858</ele>
        <time>2021-10-13T20:12:28Z</time>
      </trkpt>
      <trkpt lat="42.826380" lon="-5.645436">
        <ele>991.621</ele>
        <time>2021-10-13T20:12:29Z</time>
      </trkpt>
      <trkpt lat="42.826585" lon="-5.645510">
        <ele>992.441</ele>
        <time>2021-10-13T20:12:30Z</time>
      </trkpt>
      <trkpt lat="42.826985" lon="-5.645652">
        <ele>993.805</ele>
        <time>2021-10-13T20:12:32Z</time>
      </trkpt>
      <trkpt lat="42.827356" lon="-5.645801">
        <ele>994.208</ele>
        <time>2021-10-13T20:12:34Z</time>
      </trkpt>
      <trkpt lat="42.827716" lon="-5.645994">
        <ele>994.870</ele>
        <time>2021-10-13T20:12:36Z</time>
      </trkpt>
      <trkpt lat="42.828075" lon="-5.646273">
        <ele>994.898</ele>
        <time>2021-10-13T20:12:38Z</time>
      </trkpt>
      <trkpt lat="42.828416" lon="-5.646640">
        <ele>994.475</ele>
        <time>2021-10-13T20:12:40Z</time>
      </trkpt>
      <trkpt lat="42.828716" lon="-5.647094">
        <ele>995.085</ele>
        <time>2021-10-13T20:12:42Z</time>
      </trkpt>
      <trkpt lat="42.828958" lon="-5.647615">
        <ele>992.058</ele>
        <time>2021-10-13T20:12:44Z</time>
      </trkpt>
      <trkpt lat="42.829136" lon="-5.648193">
        <ele>991.814</ele>
        <time>2021-10-13T20:12:46Z</time>
      </trkpt>
      <trkpt lat="42.829286" lon="-5.648832">
        <ele>990.183</ele>
        <time>2021-10-13T20:12:48Z</time>
      </trkpt>
      <trkpt lat="42.829424" lon="-5.649502">
        <ele>989.818</ele>
        <time>2021-10-13T20:12:50Z</time>
      </trkpt>
      <trkpt lat="42.829560" lon="-5.650142">
        <ele>989.283</ele>
        <time>2021-10-13T20:12:52Z</time>
      </trkpt>
      <trkpt lat="42.829700" lon="-5.650806">
        <ele>989.325</ele>
        <time>2021-10-13T20:12:54Z</time>
      </trkpt>
      <trkpt lat="42.829770" lon="-5.651150">
        <ele>989.217</ele>
        <time>2021-10-13T20:12:55Z</time>
      </trkpt>
      <trkpt lat="42.829845" lon="-5.651491">
        <ele>989.708</ele>
        <time>2021-10-13T20:12:56Z</time>
      </trkpt>
      <trkpt lat="42.829997" lon="-5.652069">
        <ele>989.156</ele>
        <time>2021-10-13T20:12:58Z</time>
      </trkpt>
      <trkpt lat="42.830191" lon="-5.652614">
        <ele>989.474</ele>
        <time>2021-10-13T20:13:00Z</time>
      </trkpt>
      <trkpt lat="42.830433" lon="-5.653117">
        <ele>989.961</ele>
        <time>2021-10-13T20:13:02Z</time>
      </trkpt>
      <trkpt lat="42.830695" lon="-5.653506">
        <ele>989.631</ele>
        <time>2021-10-13T20:13:04Z</time>
      </trkpt>
      <trkpt lat="42.830997" lon="-5.653861">
        <ele>989.874</ele>
        <time>2021-10-13T20:13:06Z</time>
      </trkpt>
      <trkpt lat="42.831168" lon="-5.654017">
        <ele>989.910</ele>
        <time>2021-10-13T20:13:07Z</time>
      </trkpt>
      <trkpt lat="42.831349" lon="-5.654161">
        <ele>990.249</ele>
        <time>2021-10-13T20:13:08Z</time>
      </trkpt>
      <trkpt lat="42.831710" lon="-5.654391">
        <ele>990.554</ele>
        <time>2021-10-13T20:13:10Z</time>
      </trkpt>
      <trkpt lat="42.832128" lon="-5.654578">
        <ele>990.768</ele>
        <time>2021-10-13T20:13:12Z</time>
      </trkpt>
      <trkpt lat="42.832642" lon="-5.654748">
        <ele>991.642</ele>
        <time>2021-10-13T20:13:14Z</time>
      </trkpt>
      <trkpt lat="42.833195" lon="-5.654854">
        <ele>991.626</ele>
        <time>2021-10-13T20:13:16Z</time>
      </trkpt>
      <trkpt lat="42.833771" lon="-5.654970">
        <ele>991.408</ele>
        <time>2021-10-13T20:13:18Z</time>
      </trkpt>
      <trkpt lat="42.834351" lon="-5.655110">
        <ele>991.624</ele>
        <time>2021-10-13T20:13:20Z</time>
      </trkpt>
      <trkpt lat="42.834912" lon="-5.655252">
        <ele>992.562</ele>
        <time>2021-10-13T20:13:22Z</time>
      </trkpt>
      <trkpt lat="42.835191" lon="-5.655324">
        <ele>993.099</ele>
        <time>2021-10-13T20:13:23Z</time>
      </trkpt>
      <trkpt lat="42.835454" lon="-5.655390">
        <ele>993.449</ele>
        <time>2021-10-13T20:13:24Z</time>
      </trkpt>
      <trkpt lat="42.835962" lon="-5.655519">
        <ele>994.342</ele>
        <time>2021-10-13T20:13:26Z</time>
      </trkpt>
      <trkpt lat="42.836458" lon="-5.655645">
        <ele>995.228</ele>
        <time>2021-10-13T20:13:28Z</time>
      </trkpt>
      <trkpt lat="42.836977" lon="-5.655739">
        <ele>995.897</ele>
        <time>2021-10-13T20:13:30Z</time>
      </trkpt>
      <trkpt lat="42.837239" lon="-5.655756">
        <ele>996.832</ele>
        <time>2021-10-13T20:13:31Z</time>
      </trkpt>
      <trkpt lat="42.837509" lon="-5.655760">
        <ele>997.191</ele>
        <time>2021-10-13T20:13:32Z</time>
      </trkpt>
      <trkpt lat="42.838004" lon="-5.655751">
        <ele>997.381</ele>
        <time>2021-10-13T20:13:34Z</time>
      </trkpt>
      <trkpt lat="42.838469" lon="-5.655693">
        <ele>996.719</ele>
        <time>2021-10-13T20:13:36Z</time>
      </trkpt>
      <trkpt lat="42.838704" lon="-5.655631">
        <ele>997.608</ele>
        <time>2021-10-13T20:13:37Z</time>
      </trkpt>
      <trkpt lat="42.838953" lon="-5.655551">
        <ele>997.837</ele>
        <time>2021-10-13T20:13:38Z</time>
      </trkpt>
      <trkpt lat="42.839446" lon="-5.655385">
        <ele>997.795</ele>
        <time>2021-10-13T20:13:40Z</time>
      </trkpt>
      <trkpt lat="42.839703" lon="-5.655297">
        <ele>997.522</ele>
        <time>2021-10-13T20:13:41Z</time>
      </trkpt>
      <trkpt lat="42.840192" lon="-5.655128">
        <ele>998.312</ele>
        <time>2021-10-13T20:13:43Z</time>
      </trkpt>
      <trkpt lat="42.840431" lon="-5.655049">
        <ele>998.065</ele>
        <time>2021-10-13T20:13:44Z</time>
      </trkpt>
      <trkpt lat="42.840882" lon="-5.654901">
        <ele>999.351</ele>
        <time>2021-10-13T20:13:46Z</time>
      </trkpt>
      <trkpt lat="42.841334" lon="-5.654744">
        <ele>1000.120</ele>
        <time>2021-10-13T20:13:48Z</time>
      </trkpt>
      <trkpt lat="42.841548" lon="-5.654669">
        <ele>1000.525</ele>
        <time>2021-10-13T20:13:49Z</time>
      </trkpt>
      <trkpt lat="42.841758" lon="-5.654598">
        <ele>1001.018</ele>
        <time>2021-10-13T20:13:50Z</time>
      </trkpt>
      <trkpt lat="42.842155" lon="-5.654519">
        <ele>1002.698</ele>
        <time>2021-10-13T20:13:52Z</time>
      </trkpt>
      <trkpt lat="42.842359" lon="-5.654515">
        <ele>1003.817</ele>
        <time>2021-10-13T20:13:53Z</time>
      </trkpt>
      <trkpt lat="42.842743" lon="-5.654626">
        <ele>1004.508</ele>
        <time>2021-10-13T20:13:55Z</time>
      </trkpt>
      <trkpt lat="42.842934" lon="-5.654745">
        <ele>1004.829</ele>
        <time>2021-10-13T20:13:56Z</time>
      </trkpt>
      <trkpt lat="42.843276" lon="-5.655064">
        <ele>1006.167</ele>
        <time>2021-10-13T20:13:58Z</time>
      </trkpt>
      <trkpt lat="42.843556" lon="-5.655508">
        <ele>1006.314</ele>
        <time>2021-10-13T20:14:00Z</time>
      </trkpt>
      <trkpt lat="42.843737" lon="-5.656074">
        <ele>1007.174</ele>
        <time>2021-10-13T20:14:02Z</time>
      </trkpt>
      <trkpt lat="42.843845" lon="-5.656685">
        <ele>1006.887</ele>
        <time>2021-10-13T20:14:04Z</time>
      </trkpt>
      <trkpt lat="42.843892" lon="-5.657010">
        <ele>1006.563</ele>
        <time>2021-10-13T20:14:05Z</time>
      </trkpt>
      <trkpt lat="42.843931" lon="-5.657335">
        <ele>1006.052</ele>
        <time>2021-10-13T20:14:06Z</time>
      </trkpt>
      <trkpt lat="42.843982" lon="-5.657996">
        <ele>1005.587</ele>
        <time>2021-10-13T20:14:08Z</time>
      </trkpt>
      <trkpt lat="42.844002" lon="-5.658609">
        <ele>1005.437</ele>
        <time>2021-10-13T20:14:10Z</time>
      </trkpt>
      <trkpt lat="42.844006" lon="-5.658929">
        <ele>1004.949</ele>
        <time>2021-10-13T20:14:11Z</time>
      </trkpt>
      <trkpt lat="42.844007" lon="-5.659252">
        <ele>1004.813</ele>
        <time>2021-10-13T20:14:12Z</time>
      </trkpt>
      <trkpt lat="42.844011" lon="-5.659903">
        <ele>1003.908</ele>
        <time>2021-10-13T20:14:14Z</time>
      </trkpt>
      <trkpt lat="42.844016" lon="-5.660498">
        <ele>1003.671</ele>
        <time>2021-10-13T20:14:16Z</time>
      </trkpt>
      <trkpt lat="42.844018" lon="-5.660805">
        <ele>1002.799</ele>
        <time>2021-10-13T20:14:17Z</time>
      </trkpt>
      <trkpt lat="42.844020" lon="-5.661115">
        <ele>1002.156</ele>
        <time>2021-10-13T20:14:18Z</time>
      </trkpt>
      <trkpt lat="42.844023" lon="-5.661423">
        <ele>1001.876</ele>
        <time>2021-10-13T20:14:19Z</time>
      </trkpt>
      <trkpt lat="42.844025" lon="-5.661741">
        <ele>1001.649</ele>
        <time>2021-10-13T20:14:20Z</time>
      </trkpt>
      <trkpt lat="42.844035" lon="-5.662349">
        <ele>1001.785</ele>
        <time>2021-10-13T20:14:22Z</time>
      </trkpt>
      <trkpt lat="42.844042" lon="-5.662666">
        <ele>1001.014</ele>
        <time>2021-10-13T20:14:23Z</time>
      </trkpt>
      <trkpt lat="42.844078" lon="-5.663282">
        <ele>1000.039</ele>
        <time>2021-10-13T20:14:25Z</time>
      </trkpt>
      <trkpt lat="42.844108" lon="-5.663601">
        <ele>1000.273</ele>
        <time>2021-10-13T20:14:26Z</time>
      </trkpt>
      <trkpt lat="42.844185" lon="-5.664167">
        <ele>1000.985</ele>
        <time>2021-10-13T20:14:28Z</time>
      </trkpt>
      <trkpt lat="42.844290" lon="-5.664703">
        <ele>1001.713</ele>
        <time>2021-10-13T20:14:30Z</time>
      </trkpt>
      <trkpt lat="42.844499" lon="-5.665205">
        <ele>1002.408</ele>
        <time>2021-10-13T20:14:32Z</time>
      </trkpt>
      <trkpt lat="42.844806" lon="-5.665557">
        <ele>1003.495</ele>
        <time>2021-10-13T20:14:34Z</time>
      </trkpt>
      <trkpt lat="42.845177" lon="-5.665754">
        <ele>1003.653</ele>
        <time>2021-10-13T20:14:36Z</time>
      </trkpt>
      <trkpt lat="42.845382" lon="-5.665791">
        <ele>1004.080</ele>
        <time>2021-10-13T20:14:37Z</time>
      </trkpt>
      <trkpt lat="42.845597" lon="-5.665791">
        <ele>1004.490</ele>
        <time>2021-10-13T20:14:38Z</time>
      </trkpt>
      <trkpt lat="42.845998" lon="-5.665669">
        <ele>1004.213</ele>
        <time>2021-10-13T20:14:40Z</time>
      </trkpt>
      <trkpt lat="42.846173" lon="-5.665546">
        <ele>1004.619</ele>
        <time>2021-10-13T20:14:41Z</time>
      </trkpt>
      <trkpt lat="42.846322" lon="-5.665397">
        <ele>1004.788</ele>
        <time>2021-10-13T20:14:42Z</time>
      </trkpt>
      <trkpt lat="42.846445" lon="-5.665249">
        <ele>1004.413</ele>
        <time>2021-10-13T20:14:43Z</time>
      </trkpt>
      <trkpt lat="42.846542" lon="-5.665115">
        <ele>1004.355</ele>
        <time>2021-10-13T20:14:44Z</time>
      </trkpt>
      <trkpt lat="42.846673" lon="-5.664918">
        <ele>1004.407</ele>
        <time>2021-10-13T20:14:46Z</time>
      </trkpt>
      <trkpt lat="42.846728" lon="-5.664828">
        <ele>1004.817</ele>
        <time>2021-10-13T20:14:47Z</time>
      </trkpt>
      <trkpt lat="42.846836" lon="-5.664663">
        <ele>1005.208</ele>
        <time>2021-10-13T20:14:49Z</time>
      </trkpt>
      <trkpt lat="42.846891" lon="-5.664590">
        <ele>1005.353</ele>
        <time>2021-10-13T20:14:50Z</time>
      </trkpt>
      <trkpt lat="42.846992" lon="-5.664478">
        <ele>1005.231</ele>
        <time>2021-10-13T20:14:52Z</time>
      </trkpt>
      <trkpt lat="42.847041" lon="-5.664434">
        <ele>1005.238</ele>
        <time>2021-10-13T20:14:53Z</time>
      </trkpt>
      <trkpt lat="42.847090" lon="-5.664392">
        <ele>1005.358</ele>
        <time>2021-10-13T20:14:54Z</time>
      </trkpt>
      <trkpt lat="42.847175" lon="-5.664330">
        <ele>1005.621</ele>
        <time>2021-10-13T20:14:56Z</time>
      </trkpt>
      <trkpt lat="42.847254" lon="-5.664292">
        <ele>1005.977</ele>
        <time>2021-10-13T20:14:58Z</time>
      </trkpt>
      <trkpt lat="42.847362" lon="-5.664276">
        <ele>1006.426</ele>
        <time>2021-10-13T20:15:00Z</time>
      </trkpt>
      <trkpt lat="42.847421" lon="-5.664283">
        <ele>1006.951</ele>
        <time>2021-10-13T20:15:01Z</time>
      </trkpt>
      <trkpt lat="42.847486" lon="-5.664313">
        <ele>1007.224</ele>
        <time>2021-10-13T20:15:02Z</time>
      </trkpt>
      <trkpt lat="42.847627" lon="-5.664424">
        <ele>1007.804</ele>
        <time>2021-10-13T20:15:04Z</time>
      </trkpt>
      <trkpt lat="42.847704" lon="-5.664480">
        <ele>1008.014</ele>
        <time>2021-10-13T20:15:05Z</time>
      </trkpt>
      <trkpt lat="42.847881" lon="-5.664544">
        <ele>1008.108</ele>
        <time>2021-10-13T20:15:07Z</time>
      </trkpt>
      <trkpt lat="42.847976" lon="-5.664556">
        <ele>1007.820</ele>
        <time>2021-10-13T20:15:08Z</time>
      </trkpt>
      <trkpt lat="42.848158" lon="-5.664567">
        <ele>1007.438</ele>
        <time>2021-10-13T20:15:10Z</time>
      </trkpt>
      <trkpt lat="42.848348" lon="-5.664581">
        <ele>1007.715</ele>
        <time>2021-10-13T20:15:12Z</time>
      </trkpt>
      <trkpt lat="42.848432" lon="-5.664591">
        <ele>1008.185</ele>
        <time>2021-10-13T20:15:13Z</time>
      </trkpt>
      <trkpt lat="42.848510" lon="-5.664598">
        <ele>1008.188</ele>
        <time>2021-10-13T20:15:14Z</time>
      </trkpt>
      <trkpt lat="42.848657" lon="-5.664613">
        <ele>1008.164</ele>
        <time>2021-10-13T20:15:16Z</time>
      </trkpt>
      <trkpt lat="42.848840" lon="-5.664633">
        <ele>1008.973</ele>
        <time>2021-10-13T20:15:18Z</time>
      </trkpt>
      <trkpt lat="42.849054" lon="-5.664655">
        <ele>1009.648</ele>
        <time>2021-10-13T20:15:20Z</time>
      </trkpt>
      <trkpt lat="42.849276" lon="-5.664678">
        <ele>1009.685</ele>
        <time>2021-10-13T20:15:22Z</time>
      </trkpt>
      <trkpt lat="42.849509" lon="-5.664698">
        <ele>1009.989</ele>
        <time>2021-10-13T20:15:24Z</time>
      </trkpt>
      <trkpt lat="42.849618" lon="-5.664707">
        <ele>1010.417</ele>
        <time>2021-10-13T20:15:25Z</time>
      </trkpt>
      <trkpt lat="42.849724" lon="-5.664718">
        <ele>1010.408</ele>
        <time>2021-10-13T20:15:26Z</time>
      </trkpt>
      <trkpt lat="42.849896" lon="-5.664737">
        <ele>1010.796</ele>
        <time>2021-10-13T20:15:28Z</time>
      </trkpt>
      <trkpt lat="42.850037" lon="-5.664751">
        <ele>1011.464</ele>
        <time>2021-10-13T20:15:30Z</time>
      </trkpt>
      <trkpt lat="42.850167" lon="-5.664766">
        <ele>1011.721</ele>
        <time>2021-10-13T20:15:32Z</time>
      </trkpt>
      <trkpt lat="42.850304" lon="-5.664783">
        <ele>1013.171</ele>
        <time>2021-10-13T20:15:34Z</time>
      </trkpt>
      <trkpt lat="42.850378" lon="-5.664792">
        <ele>1013.724</ele>
        <time>2021-10-13T20:15:35Z</time>
      </trkpt>
      <trkpt lat="42.850448" lon="-5.664805">
        <ele>1013.990</ele>
        <time>2021-10-13T20:15:36Z</time>
      </trkpt>
      <trkpt lat="42.850573" lon="-5.664830">
        <ele>1014.599</ele>
        <time>2021-10-13T20:15:38Z</time>
      </trkpt>
      <trkpt lat="42.850666" lon="-5.664847">
        <ele>1014.864</ele>
        <time>2021-10-13T20:15:40Z</time>
      </trkpt>
      <trkpt lat="42.850734" lon="-5.664850">
        <ele>1014.976</ele>
        <time>2021-10-13T20:15:42Z</time>
      </trkpt>
      <trkpt lat="42.850791" lon="-5.664845">
        <ele>1014.790</ele>
        <time>2021-10-13T20:15:44Z</time>
      </trkpt>
      <trkpt lat="42.850857" lon="-5.664850">
        <ele>1013.819</ele>
        <time>2021-10-13T20:16:08Z</time>
      </trkpt>
      <trkpt lat="42.851000" lon="-5.664880">
        <ele>1013.808</ele>
        <time>2021-10-13T20:16:10Z</time>
      </trkpt>
      <trkpt lat="42.851190" lon="-5.664921">
        <ele>1013.785</ele>
        <time>2021-10-13T20:16:12Z</time>
      </trkpt>
      <trkpt lat="42.851303" lon="-5.664941">
        <ele>1013.823</ele>
        <time>2021-10-13T20:16:13Z</time>
      </trkpt>
      <trkpt lat="42.851427" lon="-5.664969">
        <ele>1014.710</ele>
        <time>2021-10-13T20:16:14Z</time>
      </trkpt>
      <trkpt lat="42.851642" lon="-5.665051">
        <ele>1013.630</ele>
        <time>2021-10-13T20:16:16Z</time>
      </trkpt>
      <trkpt lat="42.851811" lon="-5.665131">
        <ele>1013.493</ele>
        <time>2021-10-13T20:16:18Z</time>
      </trkpt>
      <trkpt lat="42.851887" lon="-5.665169">
        <ele>1013.439</ele>
        <time>2021-10-13T20:16:19Z</time>
      </trkpt>
      <trkpt lat="42.851969" lon="-5.665211">
        <ele>1013.418</ele>
        <time>2021-10-13T20:16:20Z</time>
      </trkpt>
      <trkpt lat="42.852135" lon="-5.665292">
        <ele>1012.793</ele>
        <time>2021-10-13T20:16:22Z</time>
      </trkpt>
      <trkpt lat="42.852289" lon="-5.665380">
        <ele>1011.888</ele>
        <time>2021-10-13T20:16:24Z</time>
      </trkpt>
      <trkpt lat="42.852439" lon="-5.665505">
        <ele>1011.824</ele>
        <time>2021-10-13T20:16:26Z</time>
      </trkpt>
      <trkpt lat="42.852569" lon="-5.665641">
        <ele>1012.026</ele>
        <time>2021-10-13T20:16:28Z</time>
      </trkpt>
      <trkpt lat="42.852673" lon="-5.665762">
        <ele>1012.508</ele>
        <time>2021-10-13T20:16:30Z</time>
      </trkpt>
      <trkpt lat="42.852788" lon="-5.665908">
        <ele>1012.896</ele>
        <time>2021-10-13T20:16:32Z</time>
      </trkpt>
      <trkpt lat="42.852925" lon="-5.666123">
        <ele>1012.924</ele>
        <time>2021-10-13T20:16:34Z</time>
      </trkpt>
      <trkpt lat="42.853064" lon="-5.666398">
        <ele>1014.041</ele>
        <time>2021-10-13T20:16:36Z</time>
      </trkpt>
      <trkpt lat="42.853180" lon="-5.666638">
        <ele>1013.951</ele>
        <time>2021-10-13T20:16:38Z</time>
      </trkpt>
      <trkpt lat="42.853276" lon="-5.666832">
        <ele>1014.124</ele>
        <time>2021-10-13T20:16:40Z</time>
      </trkpt>
      <trkpt lat="42.853326" lon="-5.666927">
        <ele>1014.360</ele>
        <time>2021-10-13T20:16:41Z</time>
      </trkpt>
      <trkpt lat="42.853379" lon="-5.667030">
        <ele>1014.359</ele>
        <time>2021-10-13T20:16:42Z</time>
      </trkpt>
      <trkpt lat="42.853495" lon="-5.667266">
        <ele>1014.564</ele>
        <time>2021-10-13T20:16:44Z</time>
      </trkpt>
      <trkpt lat="42.853593" lon="-5.667480">
        <ele>1014.681</ele>
        <time>2021-10-13T20:16:46Z</time>
      </trkpt>
      <trkpt lat="42.853695" lon="-5.667721">
        <ele>1015.561</ele>
        <time>2021-10-13T20:16:48Z</time>
      </trkpt>
      <trkpt lat="42.853812" lon="-5.667991">
        <ele>1014.817</ele>
        <time>2021-10-13T20:16:50Z</time>
      </trkpt>
      <trkpt lat="42.853935" lon="-5.668254">
        <ele>1014.308</ele>
        <time>2021-10-13T20:16:52Z</time>
      </trkpt>
      <trkpt lat="42.854045" lon="-5.668490">
        <ele>1014.386</ele>
        <time>2021-10-13T20:16:54Z</time>
      </trkpt>
      <trkpt lat="42.854093" lon="-5.668594">
        <ele>1014.444</ele>
        <time>2021-10-13T20:16:55Z</time>
      </trkpt>
      <trkpt lat="42.854138" lon="-5.668700">
        <ele>1014.451</ele>
        <time>2021-10-13T20:16:56Z</time>
      </trkpt>
      <trkpt lat="42.854233" lon="-5.668936">
        <ele>1013.961</ele>
        <time>2021-10-13T20:16:58Z</time>
      </trkpt>
      <trkpt lat="42.854287" lon="-5.669078">
        <ele>1013.574</ele>
        <time>2021-10-13T20:16:59Z</time>
      </trkpt>
      <trkpt lat="42.854403" lon="-5.669378">
        <ele>1013.390</ele>
        <time>2021-10-13T20:17:01Z</time>
      </trkpt>
      <trkpt lat="42.854454" lon="-5.669531">
        <ele>1013.349</ele>
        <time>2021-10-13T20:17:02Z</time>
      </trkpt>
      <trkpt lat="42.854525" lon="-5.669819">
        <ele>1012.514</ele>
        <time>2021-10-13T20:17:04Z</time>
      </trkpt>
      <trkpt lat="42.854560" lon="-5.669971">
        <ele>1011.986</ele>
        <time>2021-10-13T20:17:05Z</time>
      </trkpt>
      <trkpt lat="42.854635" lon="-5.670265">
        <ele>1011.460</ele>
        <time>2021-10-13T20:17:07Z</time>
      </trkpt>
      <trkpt lat="42.854668" lon="-5.670404">
        <ele>1011.426</ele>
        <time>2021-10-13T20:17:08Z</time>
      </trkpt>
      <trkpt lat="42.854738" lon="-5.670629">
        <ele>1011.308</ele>
        <time>2021-10-13T20:17:10Z</time>
      </trkpt>
      <trkpt lat="42.854806" lon="-5.670835">
        <ele>1011.526</ele>
        <time>2021-10-13T20:17:12Z</time>
      </trkpt>
      <trkpt lat="42.854874" lon="-5.671045">
        <ele>1011.864</ele>
        <time>2021-10-13T20:17:14Z</time>
      </trkpt>
      <trkpt lat="42.854953" lon="-5.671282">
        <ele>1011.761</ele>
        <time>2021-10-13T20:17:16Z</time>
      </trkpt>
      <trkpt lat="42.854990" lon="-5.671388">
        <ele>1011.411</ele>
        <time>2021-10-13T20:17:17Z</time>
      </trkpt>
      <trkpt lat="42.855051" lon="-5.671553">
        <ele>1011.264</ele>
        <time>2021-10-13T20:17:19Z</time>
      </trkpt>
      <trkpt lat="42.855074" lon="-5.671621">
        <ele>1011.660</ele>
        <time>2021-10-13T20:17:20Z</time>
      </trkpt>
      <trkpt lat="42.855109" lon="-5.671695">
        <ele>1012.039</ele>
        <time>2021-10-13T20:17:22Z</time>
      </trkpt>
      <trkpt lat="42.855139" lon="-5.671769">
        <ele>1012.164</ele>
        <time>2021-10-13T20:17:24Z</time>
      </trkpt>
      <trkpt lat="42.855115" lon="-5.671836">
        <ele>1012.676</ele>
        <time>2021-10-13T20:17:28Z</time>
      </trkpt>
      <trkpt lat="42.855041" lon="-5.671857">
        <ele>1012.990</ele>
        <time>2021-10-13T20:17:29Z</time>
      </trkpt>
      <trkpt lat="42.854976" lon="-5.671882">
        <ele>1013.119</ele>
        <time>2021-10-13T20:17:30Z</time>
      </trkpt>
      <trkpt lat="42.854913" lon="-5.671916">
        <ele>1035.808</ele>
        <time>2021-10-13T20:17:31Z</time>
      </trkpt>
      <trkpt lat="42.854859" lon="-5.671949">
        <ele>1055.535</ele>
        <time>2021-10-13T20:17:32Z</time>
      </trkpt>
      <trkpt lat="42.854792" lon="-5.671991">
        <ele>1066.383</ele>
        <time>2021-10-13T20:17:34Z</time>
      </trkpt>
      <trkpt lat="42.854736" lon="-5.671991">
        <ele>1066.360</ele>
        <time>2021-10-13T20:17:36Z</time>
      </trkpt>
      <trkpt lat="42.854693" lon="-5.671961">
        <ele>1066.390</ele>
        <time>2021-10-13T20:17:37Z</time>
      </trkpt>
      <trkpt lat="42.854635" lon="-5.671920">
        <ele>1066.363</ele>
        <time>2021-10-13T20:17:38Z</time>
      </trkpt>
      <trkpt lat="42.854546" lon="-5.671817">
        <ele>1066.329</ele>
        <time>2021-10-13T20:17:40Z</time>
      </trkpt>
      <trkpt lat="42.854502" lon="-5.671768">
        <ele>1066.398</ele>
        <time>2021-10-13T20:17:41Z</time>
      </trkpt>
      <trkpt lat="42.854448" lon="-5.671719">
        <ele>1066.353</ele>
        <time>2021-10-13T20:17:43Z</time>
      </trkpt>
      <trkpt lat="42.854410" lon="-5.671676">
        <ele>1066.336</ele>
        <time>2021-10-13T20:17:45Z</time>
      </trkpt>
      <trkpt lat="42.854366" lon="-5.671624">
        <ele>1066.317</ele>
        <time>2021-10-13T20:17:48Z</time>
      </trkpt>
      <trkpt lat="42.854335" lon="-5.671575">
        <ele>1066.318</ele>
        <time>2021-10-13T20:17:50Z</time>
      </trkpt>
      <trkpt lat="42.854295" lon="-5.671534">
        <ele>1066.308</ele>
        <time>2021-10-13T20:17:52Z</time>
      </trkpt>
      <trkpt lat="42.854260" lon="-5.671486">
        <ele>1066.361</ele>
        <time>2021-10-13T20:17:56Z</time>
      </trkpt>
      <trkpt lat="42.854306" lon="-5.671519">
        <ele>1065.769</ele>
        <time>2021-10-13T20:19:19Z</time>
      </trkpt>
      <trkpt lat="42.854346" lon="-5.671579">
        <ele>1065.726</ele>
        <time>2021-10-13T20:19:20Z</time>
      </trkpt>
      <trkpt lat="42.854457" lon="-5.671726">
        <ele>1065.766</ele>
        <time>2021-10-13T20:19:22Z</time>
      </trkpt>
      <trkpt lat="42.854507" lon="-5.671794">
        <ele>1065.769</ele>
        <time>2021-10-13T20:19:23Z</time>
      </trkpt>
      <trkpt lat="42.854546" lon="-5.671847">
        <ele>1065.745</ele>
        <time>2021-10-13T20:19:24Z</time>
      </trkpt>
      <trkpt lat="42.854588" lon="-5.671901">
        <ele>1065.784</ele>
        <time>2021-10-13T20:19:26Z</time>
      </trkpt>
      <trkpt lat="42.854634" lon="-5.671971">
        <ele>1065.739</ele>
        <time>2021-10-13T20:19:28Z</time>
      </trkpt>
      <trkpt lat="42.854689" lon="-5.672009">
        <ele>1065.731</ele>
        <time>2021-10-13T20:19:30Z</time>
      </trkpt>
      <trkpt lat="42.854760" lon="-5.671981">
        <ele>1065.761</ele>
        <time>2021-10-13T20:19:32Z</time>
      </trkpt>
      <trkpt lat="42.854876" lon="-5.671900">
        <ele>1065.707</ele>
        <time>2021-10-13T20:19:34Z</time>
      </trkpt>
      <trkpt lat="42.854935" lon="-5.671856">
        <ele>1065.708</ele>
        <time>2021-10-13T20:19:35Z</time>
      </trkpt>
      <trkpt lat="42.854980" lon="-5.671831">
        <ele>1065.721</ele>
        <time>2021-10-13T20:19:36Z</time>
      </trkpt>
      <trkpt lat="42.855037" lon="-5.671799">
        <ele>1065.789</ele>
        <time>2021-10-13T20:19:38Z</time>
      </trkpt>
      <trkpt lat="42.855088" lon="-5.671790">
        <ele>1065.716</ele>
        <time>2021-10-13T20:19:41Z</time>
      </trkpt>
      <trkpt lat="42.855129" lon="-5.671822">
        <ele>1065.736</ele>
        <time>2021-10-13T20:19:43Z</time>
      </trkpt>
      <trkpt lat="42.855165" lon="-5.671888">
        <ele>1065.759</ele>
        <time>2021-10-13T20:19:44Z</time>
      </trkpt>
      <trkpt lat="42.855255" lon="-5.672083">
        <ele>1065.735</ele>
        <time>2021-10-13T20:19:46Z</time>
      </trkpt>
      <trkpt lat="42.855300" lon="-5.672189">
        <ele>1065.834</ele>
        <time>2021-10-13T20:19:47Z</time>
      </trkpt>
      <trkpt lat="42.855396" lon="-5.672434">
        <ele>1065.879</ele>
        <time>2021-10-13T20:19:49Z</time>
      </trkpt>
      <trkpt lat="42.855452" lon="-5.672572">
        <ele>1065.819</ele>
        <time>2021-10-13T20:19:50Z</time>
      </trkpt>
      <trkpt lat="42.855563" lon="-5.672827">
        <ele>1065.809</ele>
        <time>2021-10-13T20:19:52Z</time>
      </trkpt>
      <trkpt lat="42.855657" lon="-5.673038">
        <ele>1065.919</ele>
        <time>2021-10-13T20:19:54Z</time>
      </trkpt>
      <trkpt lat="42.855697" lon="-5.673127">
        <ele>1065.908</ele>
        <time>2021-10-13T20:19:55Z</time>
      </trkpt>
      <trkpt lat="42.855737" lon="-5.673207">
        <ele>1065.999</ele>
        <time>2021-10-13T20:19:56Z</time>
      </trkpt>
      <trkpt lat="42.855791" lon="-5.673308">
        <ele>1065.997</ele>
        <time>2021-10-13T20:19:58Z</time>
      </trkpt>
      <trkpt lat="42.855751" lon="-5.673343">
        <ele>1065.994</ele>
        <time>2021-10-13T20:20:01Z</time>
      </trkpt>
      <trkpt lat="42.855708" lon="-5.673361">
        <ele>1065.964</ele>
        <time>2021-10-13T20:20:02Z</time>
      </trkpt>
      <trkpt lat="42.855626" lon="-5.673406">
        <ele>1065.977</ele>
        <time>2021-10-13T20:20:04Z</time>
      </trkpt>
      <trkpt lat="42.855551" lon="-5.673460">
        <ele>1065.953</ele>
        <time>2021-10-13T20:20:06Z</time>
      </trkpt>
      <trkpt lat="42.855495" lon="-5.673492">
        <ele>1066.252</ele>
        <time>2021-10-13T20:20:08Z</time>
      </trkpt>
      <trkpt lat="42.855445" lon="-5.673528">
        <ele>1066.287</ele>
        <time>2021-10-13T20:20:10Z</time>
      </trkpt>
      <trkpt lat="42.855386" lon="-5.673567">
        <ele>1066.234</ele>
        <time>2021-10-13T20:20:13Z</time>
      </trkpt>
      <trkpt lat="42.855348" lon="-5.673604">
        <ele>1066.255</ele>
        <time>2021-10-13T20:20:16Z</time>
      </trkpt>
      <trkpt lat="42.855328" lon="-5.673665">
        <ele>1066.210</ele>
        <time>2021-10-13T20:20:19Z</time>
      </trkpt>
      <trkpt lat="42.855335" lon="-5.673726">
        <ele>1066.208</ele>
        <time>2021-10-13T20:20:23Z</time>
      </trkpt>
      <trkpt lat="42.855315" lon="-5.673782">
        <ele>1066.541</ele>
        <time>2021-10-13T20:20:42Z</time>
      </trkpt>
      <trkpt lat="42.855305" lon="-5.673869">
        <ele>1066.589</ele>
        <time>2021-10-13T20:20:44Z</time>
      </trkpt>
      <trkpt lat="42.855303" lon="-5.673934">
        <ele>1066.586</ele>
        <time>2021-10-13T20:20:46Z</time>
      </trkpt>
      <trkpt lat="42.855305" lon="-5.673996">
        <ele>1066.546</ele>
        <time>2021-10-13T20:20:48Z</time>
      </trkpt>
      <trkpt lat="42.855309" lon="-5.674081">
        <ele>1066.549</ele>
        <time>2021-10-13T20:20:51Z</time>
      </trkpt>
      <trkpt lat="42.855312" lon="-5.674150">
        <ele>1066.795</ele>
        <time>2021-10-13T20:20:54Z</time>
      </trkpt>
      <trkpt lat="42.855359" lon="-5.674141">
        <ele>1066.794</ele>
        <time>2021-10-13T20:21:12Z</time>
      </trkpt>
      <trkpt lat="42.855404" lon="-5.674124">
        <ele>1066.739</ele>
        <time>2021-10-13T20:21:14Z</time>
      </trkpt>
      <trkpt lat="42.855460" lon="-5.674091">
        <ele>1066.852</ele>
        <time>2021-10-13T20:21:17Z</time>
      </trkpt>
      <trkpt lat="42.855493" lon="-5.674043">
        <ele>1066.853</ele>
        <time>2021-10-13T20:21:20Z</time>
      </trkpt>
      <trkpt lat="42.855483" lon="-5.673983">
        <ele>1067.008</ele>
        <time>2021-10-13T20:21:52Z</time>
      </trkpt>
      <trkpt lat="42.855452" lon="-5.673919">
        <ele>1067.908</ele>
        <time>2021-10-13T20:21:54Z</time>
      </trkpt>
      <trkpt lat="42.855457" lon="-5.673822">
        <ele>1068.483</ele>
        <time>2021-10-13T20:22:08Z</time>
      </trkpt>
      <trkpt lat="42.855440" lon="-5.673756">
        <ele>1068.491</ele>
        <time>2021-10-13T20:22:11Z</time>
      </trkpt>
      <trkpt lat="42.855397" lon="-5.673711">
        <ele>1068.498</ele>
        <time>2021-10-13T20:22:14Z</time>
      </trkpt>
      <trkpt lat="42.855342" lon="-5.673676">
        <ele>1068.288</ele>
        <time>2021-10-13T20:22:17Z</time>
      </trkpt>
      <trkpt lat="42.855286" lon="-5.673750">
        <ele>1068.221</ele>
        <time>2021-10-13T20:22:19Z</time>
      </trkpt>
      <trkpt lat="42.855235" lon="-5.673837">
        <ele>1067.957</ele>
        <time>2021-10-13T20:22:21Z</time>
      </trkpt>
      <trkpt lat="42.855202" lon="-5.673916">
        <ele>1067.926</ele>
        <time>2021-10-13T20:22:23Z</time>
      </trkpt>
      <trkpt lat="42.855170" lon="-5.673971">
        <ele>1067.911</ele>
        <time>2021-10-13T20:22:26Z</time>
      </trkpt>
      <trkpt lat="42.855128" lon="-5.674000">
        <ele>1067.962</ele>
        <time>2021-10-13T20:22:30Z</time>
      </trkpt>
      <trkpt lat="42.855083" lon="-5.674005">
        <ele>1067.983</ele>
        <time>2021-10-13T20:22:39Z</time>
      </trkpt>
      <trkpt lat="42.855022" lon="-5.674012">
        <ele>1068.811</ele>
        <time>2021-10-13T20:23:22Z</time>
      </trkpt>
      <trkpt lat="42.854970" lon="-5.674017">
        <ele>1068.808</ele>
        <time>2021-10-13T20:23:26Z</time>
      </trkpt>
      <trkpt lat="42.854923" lon="-5.673994">
        <ele>1069.714</ele>
        <time>2021-10-13T20:23:32Z</time>
      </trkpt>
      <trkpt lat="42.854867" lon="-5.673978">
        <ele>1072.492</ele>
        <time>2021-10-13T20:24:16Z</time>
      </trkpt>
      <trkpt lat="42.854824" lon="-5.673958">
        <ele>1073.119</ele>
        <time>2021-10-13T20:24:21Z</time>
      </trkpt>
      <trkpt lat="42.854870" lon="-5.673939">
        <ele>1073.429</ele>
        <time>2021-10-13T20:24:35Z</time>
      </trkpt>
      <trkpt lat="42.854920" lon="-5.673941">
        <ele>1073.462</ele>
        <time>2021-10-13T20:24:38Z</time>
      </trkpt>
      <trkpt lat="42.854875" lon="-5.673908">
        <ele>1073.878</ele>
        <time>2021-10-13T20:25:22Z</time>
      </trkpt>
      <trkpt lat="42.854826" lon="-5.673900">
        <ele>1073.857</ele>
        <time>2021-10-13T20:25:28Z</time>
      </trkpt>
      <trkpt lat="42.854781" lon="-5.673896">
        <ele>1073.812</ele>
        <time>2021-10-13T20:26:15Z</time>
      </trkpt>
      <trkpt lat="42.854724" lon="-5.673898">
        <ele>1073.886</ele>
        <time>2021-10-13T20:26:21Z</time>
      </trkpt>
      <trkpt lat="42.854679" lon="-5.673922">
        <ele>1073.860</ele>
        <time>2021-10-13T20:26:28Z</time>
      </trkpt>
      <trkpt lat="42.855774" lon="-5.673808">
        <ele>1004.856</ele>
        <time>2021-10-14T07:57:46Z</time>
      </trkpt>
      <trkpt lat="42.855619" lon="-5.673812">
        <ele>1004.859</ele>
        <time>2021-10-14T07:57:51Z</time>
      </trkpt>
      <trkpt lat="42.855442" lon="-5.673813">
        <ele>1004.814</ele>
        <time>2021-10-14T07:57:57Z</time>
      </trkpt>
      <trkpt lat="42.855492" lon="-5.673814">
        <ele>1004.808</ele>
        <time>2021-10-14T07:58:07Z</time>
      </trkpt>
      <trkpt lat="42.851425" lon="-5.670894">
        <ele>1004.893</ele>
        <time>2021-10-14T07:59:18Z</time>
      </trkpt>
      <trkpt lat="42.851571" lon="-5.670933">
        <ele>1004.851</ele>
        <time>2021-10-14T07:59:19Z</time>
      </trkpt>
      <trkpt lat="42.851700" lon="-5.670976">
        <ele>1004.889</ele>
        <time>2021-10-14T07:59:20Z</time>
      </trkpt>
      <trkpt lat="42.852057" lon="-5.671113">
        <ele>1004.886</ele>
        <time>2021-10-14T07:59:21Z</time>
      </trkpt>
      <trkpt lat="42.852829" lon="-5.671426">
        <ele>1004.839</ele>
        <time>2021-10-14T07:59:23Z</time>
      </trkpt>
      <trkpt lat="42.855145" lon="-5.673781">
        <ele>1004.836</ele>
        <time>2021-10-14T07:59:32Z</time>
      </trkpt>
      <trkpt lat="42.855216" lon="-5.673780">
        <ele>1004.828</ele>
        <time>2021-10-14T07:59:33Z</time>
      </trkpt>
      <trkpt lat="42.855275" lon="-5.673759">
        <ele>1004.887</ele>
        <time>2021-10-14T07:59:35Z</time>
      </trkpt>
      <trkpt lat="42.855331" lon="-5.673747">
        <ele>1004.819</ele>
        <time>2021-10-14T07:59:36Z</time>
      </trkpt>
      <trkpt lat="42.855421" lon="-5.673732">
        <ele>1004.809</ele>
        <time>2021-10-14T07:59:38Z</time>
      </trkpt>
      <trkpt lat="42.855523" lon="-5.673712">
        <ele>1004.819</ele>
        <time>2021-10-14T07:59:40Z</time>
      </trkpt>
      <trkpt lat="42.855592" lon="-5.673696">
        <ele>1004.808</ele>
        <time>2021-10-14T07:59:41Z</time>
      </trkpt>
      <trkpt lat="42.855726" lon="-5.673669">
        <ele>1004.869</ele>
        <time>2021-10-14T07:59:44Z</time>
      </trkpt>
      <trkpt lat="42.855833" lon="-5.673642">
        <ele>1004.817</ele>
        <time>2021-10-14T07:59:45Z</time>
      </trkpt>
      <trkpt lat="42.855807" lon="-5.673567">
        <ele>1004.815</ele>
        <time>2021-10-14T07:59:49Z</time>
      </trkpt>
      <trkpt lat="42.855850" lon="-5.673521">
        <ele>1004.842</ele>
        <time>2021-10-14T07:59:52Z</time>
      </trkpt>
      <trkpt lat="42.855567" lon="-5.673449">
        <ele>1004.555</ele>
        <time>2021-10-14T07:59:55Z</time>
      </trkpt>
      <trkpt lat="42.855427" lon="-5.673402">
        <ele>1004.542</ele>
        <time>2021-10-14T07:59:56Z</time>
      </trkpt>
      <trkpt lat="42.855320" lon="-5.673364">
        <ele>1004.554</ele>
        <time>2021-10-14T07:59:58Z</time>
      </trkpt>
      <trkpt lat="42.855457" lon="-5.673240">
        <ele>1004.423</ele>
        <time>2021-10-14T08:00:11Z</time>
      </trkpt>
      <trkpt lat="42.855502" lon="-5.673196">
        <ele>1004.448</ele>
        <time>2021-10-14T08:00:13Z</time>
      </trkpt>
      <trkpt lat="42.855547" lon="-5.673148">
        <ele>1004.461</ele>
        <time>2021-10-14T08:00:16Z</time>
      </trkpt>
      <trkpt lat="42.855500" lon="-5.673145">
        <ele>1004.417</ele>
        <time>2021-10-14T08:00:18Z</time>
      </trkpt>
      <trkpt lat="42.855456" lon="-5.673129">
        <ele>1004.408</ele>
        <time>2021-10-14T08:00:21Z</time>
      </trkpt>
      <trkpt lat="42.855382" lon="-5.673180">
        <ele>1004.472</ele>
        <time>2021-10-14T08:00:42Z</time>
      </trkpt>
      <trkpt lat="42.855391" lon="-5.673090">
        <ele>1004.490</ele>
        <time>2021-10-14T08:00:44Z</time>
      </trkpt>
      <trkpt lat="42.855401" lon="-5.673347">
        <ele>1004.428</ele>
        <time>2021-10-14T08:01:04Z</time>
      </trkpt>
      <trkpt lat="42.855210" lon="-5.673997">
        <ele>1004.515</ele>
        <time>2021-10-14T08:02:01Z</time>
      </trkpt>
      <trkpt lat="42.855219" lon="-5.673929">
        <ele>1004.578</ele>
        <time>2021-10-14T08:02:09Z</time>
      </trkpt>
      <trkpt lat="42.855233" lon="-5.673870">
        <ele>1004.575</ele>
        <time>2021-10-14T08:02:14Z</time>
      </trkpt>
      <trkpt lat="42.855246" lon="-5.673810">
        <ele>1004.547</ele>
        <time>2021-10-14T08:02:20Z</time>
      </trkpt>
      <trkpt lat="42.855288" lon="-5.673766">
        <ele>1004.516</ele>
        <time>2021-10-14T08:02:23Z</time>
      </trkpt>
      <trkpt lat="42.855248" lon="-5.673799">
        <ele>1004.566</ele>
        <time>2021-10-14T08:02:50Z</time>
      </trkpt>
      <trkpt lat="42.855202" lon="-5.673790">
        <ele>1004.529</ele>
        <time>2021-10-14T08:02:55Z</time>
      </trkpt>
      <trkpt lat="42.855156" lon="-5.673769">
        <ele>1004.521</ele>
        <time>2021-10-14T08:03:00Z</time>
      </trkpt>
      <trkpt lat="42.855207" lon="-5.673731">
        <ele>1004.508</ele>
        <time>2021-10-14T08:03:08Z</time>
      </trkpt>
      <trkpt lat="42.855277" lon="-5.673701">
        <ele>1004.554</ele>
        <time>2021-10-14T08:03:11Z</time>
      </trkpt>
      <trkpt lat="42.855330" lon="-5.673694">
        <ele>1004.522</ele>
        <time>2021-10-14T08:03:13Z</time>
      </trkpt>
      <trkpt lat="42.855379" lon="-5.673674">
        <ele>1004.510</ele>
        <time>2021-10-14T08:03:22Z</time>
      </trkpt>
      <trkpt lat="42.855431" lon="-5.673663">
        <ele>1004.477</ele>
        <time>2021-10-14T08:03:24Z</time>
      </trkpt>
      <trkpt lat="42.855484" lon="-5.673655">
        <ele>1004.480</ele>
        <time>2021-10-14T08:03:26Z</time>
      </trkpt>
      <trkpt lat="42.855535" lon="-5.673653">
        <ele>1004.437</ele>
        <time>2021-10-14T08:03:29Z</time>
      </trkpt>
      <trkpt lat="42.855641" lon="-5.673646">
        <ele>1004.499</ele>
        <time>2021-10-14T08:03:34Z</time>
      </trkpt>
      <trkpt lat="42.855690" lon="-5.673646">
        <ele>1004.498</ele>
        <time>2021-10-14T08:03:36Z</time>
      </trkpt>
      <trkpt lat="42.855736" lon="-5.673643">
        <ele>1004.567</ele>
        <time>2021-10-14T08:03:40Z</time>
      </trkpt>
      <trkpt lat="42.855804" lon="-5.673679">
        <ele>1004.581</ele>
        <time>2021-10-14T08:03:49Z</time>
      </trkpt>
      <trkpt lat="42.855852" lon="-5.673689">
        <ele>1004.519</ele>
        <time>2021-10-14T08:03:51Z</time>
      </trkpt>
      <trkpt lat="42.855800" lon="-5.673696">
        <ele>1004.508</ele>
        <time>2021-10-14T08:03:52Z</time>
      </trkpt>
      <trkpt lat="42.855726" lon="-5.673704">
        <ele>1004.534</ele>
        <time>2021-10-14T08:04:02Z</time>
      </trkpt>
      <trkpt lat="42.855774" lon="-5.673700">
        <ele>1004.562</ele>
        <time>2021-10-14T08:04:11Z</time>
      </trkpt>
      <trkpt lat="42.855789" lon="-5.673632">
        <ele>1004.570</ele>
        <time>2021-10-14T08:04:17Z</time>
      </trkpt>
      <trkpt lat="42.856046" lon="-5.673463">
        <ele>1004.547</ele>
        <time>2021-10-14T08:04:32Z</time>
      </trkpt>
      <trkpt lat="42.855529" lon="-5.673621">
        <ele>1004.420</ele>
        <time>2021-10-14T08:04:46Z</time>
      </trkpt>
      <trkpt lat="42.855471" lon="-5.673662">
        <ele>1004.137</ele>
        <time>2021-10-14T08:04:48Z</time>
      </trkpt>
      <trkpt lat="42.855298" lon="-5.673951">
        <ele>1004.019</ele>
        <time>2021-10-14T08:04:59Z</time>
      </trkpt>
      <trkpt lat="42.855293" lon="-5.674020">
        <ele>1003.958</ele>
        <time>2021-10-14T08:05:03Z</time>
      </trkpt>
      <trkpt lat="42.855359" lon="-5.673856">
        <ele>1003.951</ele>
        <time>2021-10-14T08:05:15Z</time>
      </trkpt>
      <trkpt lat="42.855426" lon="-5.673783">
        <ele>1003.901</ele>
        <time>2021-10-14T08:05:20Z</time>
      </trkpt>
      <trkpt lat="42.855439" lon="-5.673855">
        <ele>1004.111</ele>
        <time>2021-10-14T08:05:32Z</time>
      </trkpt>
      <trkpt lat="42.855430" lon="-5.673920">
        <ele>1004.208</ele>
        <time>2021-10-14T08:05:45Z</time>
      </trkpt>
      <trkpt lat="42.855348" lon="-5.674049">
        <ele>1004.273</ele>
        <time>2021-10-14T08:05:50Z</time>
      </trkpt>
      <trkpt lat="42.855389" lon="-5.673968">
        <ele>1004.231</ele>
        <time>2021-10-14T08:05:54Z</time>
      </trkpt>
      <trkpt lat="42.855422" lon="-5.673874">
        <ele>1004.219</ele>
        <time>2021-10-14T08:05:59Z</time>
      </trkpt>
      <trkpt lat="42.855404" lon="-5.673939">
        <ele>1004.216</ele>
        <time>2021-10-14T08:06:10Z</time>
      </trkpt>
      <trkpt lat="42.855515" lon="-5.673794">
        <ele>1004.259</ele>
        <time>2021-10-14T08:06:23Z</time>
      </trkpt>
      <trkpt lat="42.855647" lon="-5.674094">
        <ele>1004.346</ele>
        <time>2021-10-14T08:06:29Z</time>
      </trkpt>
      <trkpt lat="42.855663" lon="-5.674177">
        <ele>1004.478</ele>
        <time>2021-10-14T08:06:30Z</time>
      </trkpt>
      <trkpt lat="42.855603" lon="-5.674152">
        <ele>1004.457</ele>
        <time>2021-10-14T08:06:34Z</time>
      </trkpt>
      <trkpt lat="42.855558" lon="-5.674104">
        <ele>1004.443</ele>
        <time>2021-10-14T08:06:36Z</time>
      </trkpt>
      <trkpt lat="42.855529" lon="-5.674054">
        <ele>1004.464</ele>
        <time>2021-10-14T08:06:38Z</time>
      </trkpt>
      <trkpt lat="42.855497" lon="-5.674007">
        <ele>1004.410</ele>
        <time>2021-10-14T08:06:41Z</time>
      </trkpt>
      <trkpt lat="42.855493" lon="-5.673942">
        <ele>1004.408</ele>
        <time>2021-10-14T08:06:46Z</time>
      </trkpt>
      <trkpt lat="42.855537" lon="-5.673957">
        <ele>1004.432</ele>
        <time>2021-10-14T08:06:53Z</time>
      </trkpt>
      <trkpt lat="42.855583" lon="-5.674005">
        <ele>1004.490</ele>
        <time>2021-10-14T08:06:59Z</time>
      </trkpt>
      <trkpt lat="42.855523" lon="-5.673962">
        <ele>1004.498</ele>
        <time>2021-10-14T08:07:08Z</time>
      </trkpt>
      <trkpt lat="42.855481" lon="-5.673914">
        <ele>1004.475</ele>
        <time>2021-10-14T08:07:12Z</time>
      </trkpt>
      <trkpt lat="42.855436" lon="-5.673886">
        <ele>1004.418</ele>
        <time>2021-10-14T08:07:17Z</time>
      </trkpt>
      <trkpt lat="42.855386" lon="-5.673891">
        <ele>1004.455</ele>
        <time>2021-10-14T08:07:21Z</time>
      </trkpt>
      <trkpt lat="42.855337" lon="-5.673912">
        <ele>1004.447</ele>
        <time>2021-10-14T08:07:23Z</time>
      </trkpt>
      <trkpt lat="42.855371" lon="-5.673980">
        <ele>1004.586</ele>
        <time>2021-10-14T08:07:27Z</time>
      </trkpt>
      <trkpt lat="42.855483" lon="-5.674020">
        <ele>1004.598</ele>
        <time>2021-10-14T08:07:29Z</time>
      </trkpt>
      <trkpt lat="42.855537" lon="-5.674051">
        <ele>1004.515</ele>
        <time>2021-10-14T08:07:32Z</time>
      </trkpt>
      <trkpt lat="42.855582" lon="-5.674082">
        <ele>1004.526</ele>
        <time>2021-10-14T08:07:34Z</time>
      </trkpt>
      <trkpt lat="42.855633" lon="-5.674110">
        <ele>1004.508</ele>
        <time>2021-10-14T08:07:36Z</time>
      </trkpt>
      <trkpt lat="42.855676" lon="-5.674072">
        <ele>1004.547</ele>
        <time>2021-10-14T08:07:41Z</time>
      </trkpt>
      <trkpt lat="42.855621" lon="-5.674059">
        <ele>1004.585</ele>
        <time>2021-10-14T08:07:47Z</time>
      </trkpt>
      <trkpt lat="42.855579" lon="-5.674035">
        <ele>1004.533</ele>
        <time>2021-10-14T08:07:51Z</time>
      </trkpt>
      <trkpt lat="42.855522" lon="-5.674031">
        <ele>1004.540</ele>
        <time>2021-10-14T08:08:03Z</time>
      </trkpt>
      <trkpt lat="42.855481" lon="-5.674006">
        <ele>1004.523</ele>
        <time>2021-10-14T08:08:09Z</time>
      </trkpt>
      <trkpt lat="42.855442" lon="-5.673966">
        <ele>1004.570</ele>
        <time>2021-10-14T08:08:12Z</time>
      </trkpt>
      <trkpt lat="42.855387" lon="-5.673919">
        <ele>1004.592</ele>
        <time>2021-10-14T08:08:15Z</time>
      </trkpt>
      <trkpt lat="42.855339" lon="-5.673867">
        <ele>1004.551</ele>
        <time>2021-10-14T08:08:18Z</time>
      </trkpt>
      <trkpt lat="42.855382" lon="-5.673844">
        <ele>1004.597</ele>
        <time>2021-10-14T08:08:21Z</time>
      </trkpt>
      <trkpt lat="42.855427" lon="-5.673828">
        <ele>1004.523</ele>
        <time>2021-10-14T08:08:24Z</time>
      </trkpt>
      <trkpt lat="42.855472" lon="-5.673818">
        <ele>1004.525</ele>
        <time>2021-10-14T08:08:29Z</time>
      </trkpt>
      <trkpt lat="42.855516" lon="-5.673859">
        <ele>1004.608</ele>
        <time>2021-10-14T08:08:36Z</time>
      </trkpt>
      <trkpt lat="42.855512" lon="-5.673923">
        <ele>1004.657</ele>
        <time>2021-10-14T08:08:40Z</time>
      </trkpt>
      <trkpt lat="42.855478" lon="-5.673965">
        <ele>1004.625</ele>
        <time>2021-10-14T08:08:45Z</time>
      </trkpt>
      <trkpt lat="42.855471" lon="-5.673890">
        <ele>1004.653</ele>
        <time>2021-10-14T08:08:49Z</time>
      </trkpt>
      <trkpt lat="42.855446" lon="-5.673837">
        <ele>1004.680</ele>
        <time>2021-10-14T08:09:00Z</time>
      </trkpt>
      <trkpt lat="42.855405" lon="-5.673795">
        <ele>1004.663</ele>
        <time>2021-10-14T08:09:04Z</time>
      </trkpt>
      <trkpt lat="42.855461" lon="-5.673796">
        <ele>1004.640</ele>
        <time>2021-10-14T08:09:14Z</time>
      </trkpt>
      <trkpt lat="42.855508" lon="-5.673812">
        <ele>1004.682</ele>
        <time>2021-10-14T08:09:15Z</time>
      </trkpt>
      <trkpt lat="42.855555" lon="-5.673838">
        <ele>1004.671</ele>
        <time>2021-10-14T08:09:17Z</time>
      </trkpt>
      <trkpt lat="42.855599" lon="-5.673862">
        <ele>1004.596</ele>
        <time>2021-10-14T08:09:25Z</time>
      </trkpt>
      <trkpt lat="42.855540" lon="-5.673902">
        <ele>1004.431</ele>
        <time>2021-10-14T08:09:40Z</time>
      </trkpt>
      <trkpt lat="42.855488" lon="-5.673937">
        <ele>1004.424</ele>
        <time>2021-10-14T08:09:42Z</time>
      </trkpt>
      <trkpt lat="42.855393" lon="-5.673910">
        <ele>1004.408</ele>
        <time>2021-10-14T08:09:48Z</time>
      </trkpt>
      <trkpt lat="42.855350" lon="-5.673856">
        <ele>1004.487</ele>
        <time>2021-10-14T08:09:50Z</time>
      </trkpt>
      <trkpt lat="42.855289" lon="-5.673778">
        <ele>1004.455</ele>
        <time>2021-10-14T08:09:56Z</time>
      </trkpt>
      <trkpt lat="42.855338" lon="-5.673830">
        <ele>1004.453</ele>
        <time>2021-10-14T08:10:03Z</time>
      </trkpt>
      <trkpt lat="42.855336" lon="-5.673895">
        <ele>1004.450</ele>
        <time>2021-10-14T08:10:07Z</time>
      </trkpt>
      <trkpt lat="42.855380" lon="-5.673917">
        <ele>1004.493</ele>
        <time>2021-10-14T08:10:17Z</time>
      </trkpt>
      <trkpt lat="42.855338" lon="-5.673948">
        <ele>1004.590</ele>
        <time>2021-10-14T08:10:36Z</time>
      </trkpt>
      <trkpt lat="42.855316" lon="-5.673890">
        <ele>1004.542</ele>
        <time>2021-10-14T08:10:44Z</time>
      </trkpt>
      <trkpt lat="42.855359" lon="-5.673913">
        <ele>1004.571</ele>
        <time>2021-10-14T08:10:52Z</time>
      </trkpt>
      <trkpt lat="42.855404" lon="-5.673923">
        <ele>1004.541</ele>
        <time>2021-10-14T08:10:54Z</time>
      </trkpt>
      <trkpt lat="42.855469" lon="-5.673973">
        <ele>1004.581</ele>
        <time>2021-10-14T08:11:03Z</time>
      </trkpt>
      <trkpt lat="42.855531" lon="-5.674032">
        <ele>1004.509</ele>
        <time>2021-10-14T08:11:05Z</time>
      </trkpt>
      <trkpt lat="42.855484" lon="-5.674035">
        <ele>1004.308</ele>
        <time>2021-10-14T08:11:15Z</time>
      </trkpt>
      <trkpt lat="42.855522" lon="-5.673996">
        <ele>1004.312</ele>
        <time>2021-10-14T08:11:21Z</time>
      </trkpt>
      <trkpt lat="42.855570" lon="-5.673999">
        <ele>1004.330</ele>
        <time>2021-10-14T08:11:25Z</time>
      </trkpt>
      <trkpt lat="42.855525" lon="-5.673989">
        <ele>1004.438</ele>
        <time>2021-10-14T08:11:42Z</time>
      </trkpt>
      <trkpt lat="42.855478" lon="-5.673966">
        <ele>1004.545</ele>
        <time>2021-10-14T08:11:59Z</time>
      </trkpt>
      <trkpt lat="42.855377" lon="-5.673881">
        <ele>1004.538</ele>
        <time>2021-10-14T08:12:01Z</time>
      </trkpt>
      <trkpt lat="42.855301" lon="-5.673817">
        <ele>1004.585</ele>
        <time>2021-10-14T08:12:02Z</time>
      </trkpt>
      <trkpt lat="42.855245" lon="-5.673781">
        <ele>1004.597</ele>
        <time>2021-10-14T08:12:04Z</time>
      </trkpt>
      <trkpt lat="42.855200" lon="-5.673802">
        <ele>1004.466</ele>
        <time>2021-10-14T08:12:14Z</time>
      </trkpt>
      <trkpt lat="42.855158" lon="-5.673856">
        <ele>1004.438</ele>
        <time>2021-10-14T08:12:20Z</time>
      </trkpt>
      <trkpt lat="42.855770" lon="-5.673785">
        <ele>1004.370</ele>
        <time>2021-10-14T08:12:46Z</time>
      </trkpt>
      <trkpt lat="42.855731" lon="-5.673868">
        <ele>1004.317</ele>
        <time>2021-10-14T08:12:47Z</time>
      </trkpt>
      <trkpt lat="42.855689" lon="-5.673953">
        <ele>1004.308</ele>
        <time>2021-10-14T08:12:48Z</time>
      </trkpt>
      <trkpt lat="42.855611" lon="-5.674057">
        <ele>1004.321</ele>
        <time>2021-10-14T08:12:50Z</time>
      </trkpt>
      <trkpt lat="42.855552" lon="-5.674104">
        <ele>1004.359</ele>
        <time>2021-10-14T08:12:52Z</time>
      </trkpt>
      <trkpt lat="42.855512" lon="-5.674135">
        <ele>1004.387</ele>
        <time>2021-10-14T08:12:54Z</time>
      </trkpt>
      <trkpt lat="42.855456" lon="-5.674155">
        <ele>1004.354</ele>
        <time>2021-10-14T08:12:57Z</time>
      </trkpt>
      <trkpt lat="42.855394" lon="-5.674181">
        <ele>1004.357</ele>
        <time>2021-10-14T08:12:59Z</time>
      </trkpt>
      <trkpt lat="42.855334" lon="-5.674200">
        <ele>1004.394</ele>
        <time>2021-10-14T08:13:01Z</time>
      </trkpt>
      <trkpt lat="42.855287" lon="-5.674197">
        <ele>1004.346</ele>
        <time>2021-10-14T08:13:06Z</time>
      </trkpt>
      <trkpt lat="42.855283" lon="-5.674114">
        <ele>1003.865</ele>
        <time>2021-10-14T08:14:10Z</time>
      </trkpt>
      <trkpt lat="42.855279" lon="-5.674017">
        <ele>1003.825</ele>
        <time>2021-10-14T08:14:12Z</time>
      </trkpt>
      <trkpt lat="42.855282" lon="-5.673910">
        <ele>1003.826</ele>
        <time>2021-10-14T08:14:14Z</time>
      </trkpt>
      <trkpt lat="42.855291" lon="-5.673815">
        <ele>1003.808</ele>
        <time>2021-10-14T08:14:16Z</time>
      </trkpt>
      <trkpt lat="42.855283" lon="-5.673738">
        <ele>1003.408</ele>
        <time>2021-10-14T08:14:18Z</time>
      </trkpt>
      <trkpt lat="42.855241" lon="-5.673676">
        <ele>1003.440</ele>
        <time>2021-10-14T08:14:20Z</time>
      </trkpt>
      <trkpt lat="42.855172" lon="-5.673682">
        <ele>1003.498</ele>
        <time>2021-10-14T08:14:22Z</time>
      </trkpt>
      <trkpt lat="42.855126" lon="-5.673763">
        <ele>1003.476</ele>
        <time>2021-10-14T08:14:24Z</time>
      </trkpt>
      <trkpt lat="42.855119" lon="-5.673883">
        <ele>1003.463</ele>
        <time>2021-10-14T08:14:26Z</time>
      </trkpt>
      <trkpt lat="42.855118" lon="-5.674035">
        <ele>1003.456</ele>
        <time>2021-10-14T08:14:28Z</time>
      </trkpt>
      <trkpt lat="42.855115" lon="-5.674193">
        <ele>1003.473</ele>
        <time>2021-10-14T08:14:30Z</time>
      </trkpt>
      <trkpt lat="42.855113" lon="-5.674276">
        <ele>1003.495</ele>
        <time>2021-10-14T08:14:31Z</time>
      </trkpt>
      <trkpt lat="42.855110" lon="-5.674363">
        <ele>1003.494</ele>
        <time>2021-10-14T08:14:32Z</time>
      </trkpt>
      <trkpt lat="42.855105" lon="-5.674455">
        <ele>1003.468</ele>
        <time>2021-10-14T08:14:33Z</time>
      </trkpt>
      <trkpt lat="42.855100" lon="-5.674686">
        <ele>1003.542</ele>
        <time>2021-10-14T08:14:35Z</time>
      </trkpt>
      <trkpt lat="42.855099" lon="-5.674901">
        <ele>1003.526</ele>
        <time>2021-10-14T08:14:37Z</time>
      </trkpt>
      <trkpt lat="42.855101" lon="-5.674983">
        <ele>1003.508</ele>
        <time>2021-10-14T08:14:38Z</time>
      </trkpt>
      <trkpt lat="42.855102" lon="-5.675052">
        <ele>1003.594</ele>
        <time>2021-10-14T08:14:39Z</time>
      </trkpt>
      <trkpt lat="42.855106" lon="-5.675188">
        <ele>1003.432</ele>
        <time>2021-10-14T08:14:41Z</time>
      </trkpt>
      <trkpt lat="42.855108" lon="-5.675265">
        <ele>1003.420</ele>
        <time>2021-10-14T08:14:42Z</time>
      </trkpt>
      <trkpt lat="42.855117" lon="-5.675389">
        <ele>1003.457</ele>
        <time>2021-10-14T08:14:44Z</time>
      </trkpt>
      <trkpt lat="42.855157" lon="-5.675466">
        <ele>1003.480</ele>
        <time>2021-10-14T08:14:46Z</time>
      </trkpt>
      <trkpt lat="42.855226" lon="-5.675474">
        <ele>1003.457</ele>
        <time>2021-10-14T08:14:48Z</time>
      </trkpt>
      <trkpt lat="42.855321" lon="-5.675439">
        <ele>1003.499</ele>
        <time>2021-10-14T08:14:50Z</time>
      </trkpt>
      <trkpt lat="42.855451" lon="-5.675398">
        <ele>1003.458</ele>
        <time>2021-10-14T08:14:52Z</time>
      </trkpt>
      <trkpt lat="42.855526" lon="-5.675375">
        <ele>1003.428</ele>
        <time>2021-10-14T08:14:53Z</time>
      </trkpt>
      <trkpt lat="42.855670" lon="-5.675326">
        <ele>1003.489</ele>
        <time>2021-10-14T08:14:55Z</time>
      </trkpt>
      <trkpt lat="42.855727" lon="-5.675308">
        <ele>1003.417</ele>
        <time>2021-10-14T08:14:56Z</time>
      </trkpt>
      <trkpt lat="42.855782" lon="-5.675296">
        <ele>1003.408</ele>
        <time>2021-10-14T08:14:57Z</time>
      </trkpt>
      <trkpt lat="42.855888" lon="-5.675271">
        <ele>1003.440</ele>
        <time>2021-10-14T08:14:59Z</time>
      </trkpt>
      <trkpt lat="42.855941" lon="-5.675258">
        <ele>1003.428</ele>
        <time>2021-10-14T08:15:00Z</time>
      </trkpt>
      <trkpt lat="42.856057" lon="-5.675223">
        <ele>1003.496</ele>
        <time>2021-10-14T08:15:02Z</time>
      </trkpt>
      <trkpt lat="42.856182" lon="-5.675185">
        <ele>1003.413</ele>
        <time>2021-10-14T08:15:04Z</time>
      </trkpt>
      <trkpt lat="42.856237" lon="-5.675166">
        <ele>1003.426</ele>
        <time>2021-10-14T08:15:05Z</time>
      </trkpt>
      <trkpt lat="42.856287" lon="-5.675148">
        <ele>1003.443</ele>
        <time>2021-10-14T08:15:06Z</time>
      </trkpt>
      <trkpt lat="42.856384" lon="-5.675100">
        <ele>1003.495</ele>
        <time>2021-10-14T08:15:08Z</time>
      </trkpt>
      <trkpt lat="42.856472" lon="-5.675007">
        <ele>1003.494</ele>
        <time>2021-10-14T08:15:10Z</time>
      </trkpt>
      <trkpt lat="42.856506" lon="-5.674948">
        <ele>1003.414</ele>
        <time>2021-10-14T08:15:11Z</time>
      </trkpt>
      <trkpt lat="42.856544" lon="-5.674871">
        <ele>1003.454</ele>
        <time>2021-10-14T08:15:13Z</time>
      </trkpt>
      <trkpt lat="42.856598" lon="-5.674819">
        <ele>981.409</ele>
        <time>2021-10-14T08:15:16Z</time>
      </trkpt>
      <trkpt lat="42.856646" lon="-5.674822">
        <ele>965.208</ele>
        <time>2021-10-14T08:15:17Z</time>
      </trkpt>
      <trkpt lat="42.856696" lon="-5.674875">
        <ele>950.649</ele>
        <time>2021-10-14T08:15:19Z</time>
      </trkpt>
      <trkpt lat="42.856734" lon="-5.674943">
        <ele>950.667</ele>
        <time>2021-10-14T08:15:20Z</time>
      </trkpt>
      <trkpt lat="42.856840" lon="-5.675126">
        <ele>950.695</ele>
        <time>2021-10-14T08:15:22Z</time>
      </trkpt>
      <trkpt lat="42.856911" lon="-5.675234">
        <ele>950.612</ele>
        <time>2021-10-14T08:15:23Z</time>
      </trkpt>
      <trkpt lat="42.857055" lon="-5.675452">
        <ele>950.635</ele>
        <time>2021-10-14T08:15:25Z</time>
      </trkpt>
      <trkpt lat="42.857122" lon="-5.675553">
        <ele>950.612</ele>
        <time>2021-10-14T08:15:26Z</time>
      </trkpt>
      <trkpt lat="42.857270" lon="-5.675734">
        <ele>950.624</ele>
        <time>2021-10-14T08:15:28Z</time>
      </trkpt>
      <trkpt lat="42.857465" lon="-5.675831">
        <ele>950.653</ele>
        <time>2021-10-14T08:15:30Z</time>
      </trkpt>
      <trkpt lat="42.857692" lon="-5.675836">
        <ele>950.644</ele>
        <time>2021-10-14T08:15:32Z</time>
      </trkpt>
      <trkpt lat="42.857812" lon="-5.675796">
        <ele>950.605</ele>
        <time>2021-10-14T08:15:33Z</time>
      </trkpt>
      <trkpt lat="42.858061" lon="-5.675667">
        <ele>950.615</ele>
        <time>2021-10-14T08:15:35Z</time>
      </trkpt>
      <trkpt lat="42.858188" lon="-5.675601">
        <ele>950.608</ele>
        <time>2021-10-14T08:15:36Z</time>
      </trkpt>
      <trkpt lat="42.858399" lon="-5.675503">
        <ele>950.672</ele>
        <time>2021-10-14T08:15:38Z</time>
      </trkpt>
      <trkpt lat="42.858552" lon="-5.675448">
        <ele>950.660</ele>
        <time>2021-10-14T08:15:40Z</time>
      </trkpt>
      <trkpt lat="42.858673" lon="-5.675395">
        <ele>950.688</ele>
        <time>2021-10-14T08:15:42Z</time>
      </trkpt>
      <trkpt lat="42.858716" lon="-5.675352">
        <ele>950.655</ele>
        <time>2021-10-14T08:15:43Z</time>
      </trkpt>
      <trkpt lat="42.858751" lon="-5.675264">
        <ele>950.688</ele>
        <time>2021-10-14T08:15:45Z</time>
      </trkpt>
      <trkpt lat="42.858782" lon="-5.675152">
        <ele>950.635</ele>
        <time>2021-10-14T08:15:47Z</time>
      </trkpt>
      <trkpt lat="42.858805" lon="-5.675073">
        <ele>950.677</ele>
        <time>2021-10-14T08:15:48Z</time>
      </trkpt>
      <trkpt lat="42.858904" lon="-5.674876">
        <ele>950.626</ele>
        <time>2021-10-14T08:15:50Z</time>
      </trkpt>
      <trkpt lat="42.858984" lon="-5.674767">
        <ele>950.663</ele>
        <time>2021-10-14T08:15:51Z</time>
      </trkpt>
      <trkpt lat="42.859165" lon="-5.674553">
        <ele>950.644</ele>
        <time>2021-10-14T08:15:53Z</time>
      </trkpt>
      <trkpt lat="42.859348" lon="-5.674327">
        <ele>950.618</ele>
        <time>2021-10-14T08:15:55Z</time>
      </trkpt>
      <trkpt lat="42.859532" lon="-5.674085">
        <ele>950.608</ele>
        <time>2021-10-14T08:15:57Z</time>
      </trkpt>
      <trkpt lat="42.859635" lon="-5.673918">
        <ele>950.624</ele>
        <time>2021-10-14T08:15:58Z</time>
      </trkpt>
      <trkpt lat="42.859739" lon="-5.673772">
        <ele>950.612</ele>
        <time>2021-10-14T08:15:59Z</time>
      </trkpt>
      <trkpt lat="42.859844" lon="-5.673651">
        <ele>950.690</ele>
        <time>2021-10-14T08:16:00Z</time>
      </trkpt>
      <trkpt lat="42.860095" lon="-5.673471">
        <ele>950.677</ele>
        <time>2021-10-14T08:16:02Z</time>
      </trkpt>
      <trkpt lat="42.860400" lon="-5.673401">
        <ele>950.690</ele>
        <time>2021-10-14T08:16:04Z</time>
      </trkpt>
      <trkpt lat="42.860562" lon="-5.673412">
        <ele>950.697</ele>
        <time>2021-10-14T08:16:05Z</time>
      </trkpt>
      <trkpt lat="42.860862" lon="-5.673445">
        <ele>950.669</ele>
        <time>2021-10-14T08:16:07Z</time>
      </trkpt>
      <trkpt lat="42.861004" lon="-5.673454">
        <ele>950.638</ele>
        <time>2021-10-14T08:16:08Z</time>
      </trkpt>
      <trkpt lat="42.861286" lon="-5.673455">
        <ele>950.649</ele>
        <time>2021-10-14T08:16:10Z</time>
      </trkpt>
      <trkpt lat="42.861428" lon="-5.673446">
        <ele>950.602</ele>
        <time>2021-10-14T08:16:11Z</time>
      </trkpt>
      <trkpt lat="42.861574" lon="-5.673421">
        <ele>950.622</ele>
        <time>2021-10-14T08:16:12Z</time>
      </trkpt>
      <trkpt lat="42.861714" lon="-5.673375">
        <ele>950.608</ele>
        <time>2021-10-14T08:16:13Z</time>
      </trkpt>
      <trkpt lat="42.861847" lon="-5.673307">
        <ele>950.632</ele>
        <time>2021-10-14T08:16:14Z</time>
      </trkpt>
      <trkpt lat="42.862074" lon="-5.673091">
        <ele>950.750</ele>
        <time>2021-10-14T08:16:16Z</time>
      </trkpt>
      <trkpt lat="42.862275" lon="-5.672825">
        <ele>954.598</ele>
        <time>2021-10-14T08:16:18Z</time>
      </trkpt>
      <trkpt lat="42.862471" lon="-5.672560">
        <ele>959.925</ele>
        <time>2021-10-14T08:16:20Z</time>
      </trkpt>
      <trkpt lat="42.862680" lon="-5.672295">
        <ele>959.328</ele>
        <time>2021-10-14T08:16:22Z</time>
      </trkpt>
      <trkpt lat="42.862796" lon="-5.672164">
        <ele>959.625</ele>
        <time>2021-10-14T08:16:23Z</time>
      </trkpt>
      <trkpt lat="42.862923" lon="-5.672043">
        <ele>959.997</ele>
        <time>2021-10-14T08:16:24Z</time>
      </trkpt>
      <trkpt lat="42.863212" lon="-5.671845">
        <ele>959.056</ele>
        <time>2021-10-14T08:16:26Z</time>
      </trkpt>
      <trkpt lat="42.863372" lon="-5.671774">
        <ele>959.452</ele>
        <time>2021-10-14T08:16:27Z</time>
      </trkpt>
      <trkpt lat="42.863540" lon="-5.671714">
        <ele>959.753</ele>
        <time>2021-10-14T08:16:28Z</time>
      </trkpt>
      <trkpt lat="42.863884" lon="-5.671607">
        <ele>960.708</ele>
        <time>2021-10-14T08:16:30Z</time>
      </trkpt>
      <trkpt lat="42.864220" lon="-5.671491">
        <ele>961.308</ele>
        <time>2021-10-14T08:16:32Z</time>
      </trkpt>
      <trkpt lat="42.864549" lon="-5.671376">
        <ele>959.763</ele>
        <time>2021-10-14T08:16:34Z</time>
      </trkpt>
      <trkpt lat="42.864871" lon="-5.671261">
        <ele>962.421</ele>
        <time>2021-10-14T08:16:36Z</time>
      </trkpt>
      <trkpt lat="42.865036" lon="-5.671206">
        <ele>964.599</ele>
        <time>2021-10-14T08:16:37Z</time>
      </trkpt>
      <trkpt lat="42.865366" lon="-5.671103">
        <ele>962.896</ele>
        <time>2021-10-14T08:16:39Z</time>
      </trkpt>
      <trkpt lat="42.865699" lon="-5.671014">
        <ele>964.539</ele>
        <time>2021-10-14T08:16:41Z</time>
      </trkpt>
      <trkpt lat="42.866648" lon="-5.670441">
        <ele>967.466</ele>
        <time>2021-10-14T08:16:48Z</time>
      </trkpt>
      <trkpt lat="42.866800" lon="-5.670421">
        <ele>971.778</ele>
        <time>2021-10-14T08:16:49Z</time>
      </trkpt>
      <trkpt lat="42.867116" lon="-5.670372">
        <ele>970.657</ele>
        <time>2021-10-14T08:16:51Z</time>
      </trkpt>
      <trkpt lat="42.867279" lon="-5.670319">
        <ele>971.357</ele>
        <time>2021-10-14T08:16:52Z</time>
      </trkpt>
      <trkpt lat="42.867414" lon="-5.670227">
        <ele>969.800</ele>
        <time>2021-10-14T08:16:53Z</time>
      </trkpt>
      <trkpt lat="42.867681" lon="-5.669958">
        <ele>967.520</ele>
        <time>2021-10-14T08:16:55Z</time>
      </trkpt>
      <trkpt lat="42.867802" lon="-5.669802">
        <ele>967.108</ele>
        <time>2021-10-14T08:16:56Z</time>
      </trkpt>
      <trkpt lat="42.867906" lon="-5.669645">
        <ele>970.043</ele>
        <time>2021-10-14T08:16:57Z</time>
      </trkpt>
      <trkpt lat="42.868006" lon="-5.669495">
        <ele>971.171</ele>
        <time>2021-10-14T08:16:58Z</time>
      </trkpt>
      <trkpt lat="42.868206" lon="-5.669202">
        <ele>971.739</ele>
        <time>2021-10-14T08:17:00Z</time>
      </trkpt>
      <trkpt lat="42.868411" lon="-5.668893">
        <ele>969.446</ele>
        <time>2021-10-14T08:17:02Z</time>
      </trkpt>
      <trkpt lat="42.868509" lon="-5.668725">
        <ele>968.639</ele>
        <time>2021-10-14T08:17:03Z</time>
      </trkpt>
      <trkpt lat="42.868602" lon="-5.668543">
        <ele>968.486</ele>
        <time>2021-10-14T08:17:04Z</time>
      </trkpt>
      <trkpt lat="42.868685" lon="-5.668343">
        <ele>967.168</ele>
        <time>2021-10-14T08:17:05Z</time>
      </trkpt>
      <trkpt lat="42.868813" lon="-5.667895">
        <ele>966.727</ele>
        <time>2021-10-14T08:17:07Z</time>
      </trkpt>
      <trkpt lat="42.868875" lon="-5.667401">
        <ele>968.541</ele>
        <time>2021-10-14T08:17:09Z</time>
      </trkpt>
      <trkpt lat="42.868884" lon="-5.667143">
        <ele>968.181</ele>
        <time>2021-10-14T08:17:10Z</time>
      </trkpt>
      <trkpt lat="42.868883" lon="-5.666881">
        <ele>967.109</ele>
        <time>2021-10-14T08:17:11Z</time>
      </trkpt>
      <trkpt lat="42.868878" lon="-5.666351">
        <ele>966.108</ele>
        <time>2021-10-14T08:17:13Z</time>
      </trkpt>
      <trkpt lat="42.868877" lon="-5.666085">
        <ele>965.452</ele>
        <time>2021-10-14T08:17:14Z</time>
      </trkpt>
      <trkpt lat="42.868885" lon="-5.665562">
        <ele>968.190</ele>
        <time>2021-10-14T08:17:16Z</time>
      </trkpt>
      <trkpt lat="42.868891" lon="-5.665306">
        <ele>968.348</ele>
        <time>2021-10-14T08:17:17Z</time>
      </trkpt>
      <trkpt lat="42.868902" lon="-5.664830">
        <ele>966.635</ele>
        <time>2021-10-14T08:17:19Z</time>
      </trkpt>
      <trkpt lat="42.868912" lon="-5.664595">
        <ele>968.158</ele>
        <time>2021-10-14T08:17:20Z</time>
      </trkpt>
      <trkpt lat="42.868939" lon="-5.664117">
        <ele>968.685</ele>
        <time>2021-10-14T08:17:22Z</time>
      </trkpt>
      <trkpt lat="42.868955" lon="-5.663876">
        <ele>969.057</ele>
        <time>2021-10-14T08:17:23Z</time>
      </trkpt>
      <trkpt lat="42.869000" lon="-5.663392">
        <ele>970.226</ele>
        <time>2021-10-14T08:17:25Z</time>
      </trkpt>
      <trkpt lat="42.869024" lon="-5.663147">
        <ele>969.119</ele>
        <time>2021-10-14T08:17:26Z</time>
      </trkpt>
      <trkpt lat="42.869068" lon="-5.662656">
        <ele>970.309</ele>
        <time>2021-10-14T08:17:28Z</time>
      </trkpt>
      <trkpt lat="42.869091" lon="-5.662408">
        <ele>971.419</ele>
        <time>2021-10-14T08:17:29Z</time>
      </trkpt>
      <trkpt lat="42.869111" lon="-5.662160">
        <ele>971.608</ele>
        <time>2021-10-14T08:17:30Z</time>
      </trkpt>
      <trkpt lat="42.869132" lon="-5.661907">
        <ele>970.759</ele>
        <time>2021-10-14T08:17:31Z</time>
      </trkpt>
      <trkpt lat="42.869174" lon="-5.661401">
        <ele>972.487</ele>
        <time>2021-10-14T08:17:33Z</time>
      </trkpt>
      <trkpt lat="42.869209" lon="-5.660883">
        <ele>971.325</ele>
        <time>2021-10-14T08:17:35Z</time>
      </trkpt>
      <trkpt lat="42.869233" lon="-5.660353">
        <ele>971.912</ele>
        <time>2021-10-14T08:17:37Z</time>
      </trkpt>
      <trkpt lat="42.869244" lon="-5.660084">
        <ele>971.845</ele>
        <time>2021-10-14T08:17:38Z</time>
      </trkpt>
      <trkpt lat="42.869272" lon="-5.659541">
        <ele>973.512</ele>
        <time>2021-10-14T08:17:40Z</time>
      </trkpt>
      <trkpt lat="42.869302" lon="-5.658989">
        <ele>971.154</ele>
        <time>2021-10-14T08:17:42Z</time>
      </trkpt>
      <trkpt lat="42.869313" lon="-5.658707">
        <ele>971.553</ele>
        <time>2021-10-14T08:17:43Z</time>
      </trkpt>
      <trkpt lat="42.869324" lon="-5.658422">
        <ele>971.223</ele>
        <time>2021-10-14T08:17:44Z</time>
      </trkpt>
      <trkpt lat="42.869338" lon="-5.657844">
        <ele>972.583</ele>
        <time>2021-10-14T08:17:46Z</time>
      </trkpt>
      <trkpt lat="42.869357" lon="-5.657254">
        <ele>970.711</ele>
        <time>2021-10-14T08:17:48Z</time>
      </trkpt>
      <trkpt lat="42.869368" lon="-5.656654">
        <ele>971.808</ele>
        <time>2021-10-14T08:17:50Z</time>
      </trkpt>
      <trkpt lat="42.869367" lon="-5.656050">
        <ele>973.120</ele>
        <time>2021-10-14T08:17:52Z</time>
      </trkpt>
      <trkpt lat="42.869361" lon="-5.655437">
        <ele>972.518</ele>
        <time>2021-10-14T08:17:54Z</time>
      </trkpt>
      <trkpt lat="42.869354" lon="-5.655125">
        <ele>973.896</ele>
        <time>2021-10-14T08:17:55Z</time>
      </trkpt>
      <trkpt lat="42.869337" lon="-5.654524">
        <ele>974.053</ele>
        <time>2021-10-14T08:17:57Z</time>
      </trkpt>
      <trkpt lat="42.869322" lon="-5.653985">
        <ele>974.096</ele>
        <time>2021-10-14T08:17:59Z</time>
      </trkpt>
      <trkpt lat="42.869312" lon="-5.653721">
        <ele>975.353</ele>
        <time>2021-10-14T08:18:00Z</time>
      </trkpt>
      <trkpt lat="42.869293" lon="-5.653179">
        <ele>974.645</ele>
        <time>2021-10-14T08:18:02Z</time>
      </trkpt>
      <trkpt lat="42.869273" lon="-5.652627">
        <ele>974.424</ele>
        <time>2021-10-14T08:18:04Z</time>
      </trkpt>
      <trkpt lat="42.869262" lon="-5.652351">
        <ele>975.556</ele>
        <time>2021-10-14T08:18:05Z</time>
      </trkpt>
      <trkpt lat="42.869251" lon="-5.652074">
        <ele>975.459</ele>
        <time>2021-10-14T08:18:06Z</time>
      </trkpt>
      <trkpt lat="42.869233" lon="-5.651538">
        <ele>977.814</ele>
        <time>2021-10-14T08:18:08Z</time>
      </trkpt>
      <trkpt lat="42.869218" lon="-5.651053">
        <ele>978.108</ele>
        <time>2021-10-14T08:18:10Z</time>
      </trkpt>
      <trkpt lat="42.869211" lon="-5.650811">
        <ele>979.283</ele>
        <time>2021-10-14T08:18:11Z</time>
      </trkpt>
      <trkpt lat="42.869212" lon="-5.650318">
        <ele>979.521</ele>
        <time>2021-10-14T08:18:13Z</time>
      </trkpt>
      <trkpt lat="42.869225" lon="-5.650060">
        <ele>980.519</ele>
        <time>2021-10-14T08:18:14Z</time>
      </trkpt>
      <trkpt lat="42.869267" lon="-5.649531">
        <ele>982.816</ele>
        <time>2021-10-14T08:18:16Z</time>
      </trkpt>
      <trkpt lat="42.869297" lon="-5.649261">
        <ele>985.039</ele>
        <time>2021-10-14T08:18:17Z</time>
      </trkpt>
      <trkpt lat="42.869382" lon="-5.648708">
        <ele>986.926</ele>
        <time>2021-10-14T08:18:19Z</time>
      </trkpt>
      <trkpt lat="42.869432" lon="-5.648424">
        <ele>988.498</ele>
        <time>2021-10-14T08:18:20Z</time>
      </trkpt>
      <trkpt lat="42.869482" lon="-5.648142">
        <ele>988.577</ele>
        <time>2021-10-14T08:18:21Z</time>
      </trkpt>
      <trkpt lat="42.869579" lon="-5.647590">
        <ele>993.195</ele>
        <time>2021-10-14T08:18:23Z</time>
      </trkpt>
      <trkpt lat="42.869625" lon="-5.647319">
        <ele>994.449</ele>
        <time>2021-10-14T08:18:24Z</time>
      </trkpt>
      <trkpt lat="42.869709" lon="-5.646781">
        <ele>998.023</ele>
        <time>2021-10-14T08:18:26Z</time>
      </trkpt>
      <trkpt lat="42.869768" lon="-5.646267">
        <ele>999.908</ele>
        <time>2021-10-14T08:18:28Z</time>
      </trkpt>
      <trkpt lat="42.869780" lon="-5.646030">
        <ele>1002.387</ele>
        <time>2021-10-14T08:18:29Z</time>
      </trkpt>
      <trkpt lat="42.869805" lon="-5.645569">
        <ele>1004.855</ele>
        <time>2021-10-14T08:18:31Z</time>
      </trkpt>
      <trkpt lat="42.869860" lon="-5.645122">
        <ele>1005.093</ele>
        <time>2021-10-14T08:18:33Z</time>
      </trkpt>
      <trkpt lat="42.869979" lon="-5.644706">
        <ele>1006.630</ele>
        <time>2021-10-14T08:18:35Z</time>
      </trkpt>
      <trkpt lat="42.870066" lon="-5.644517">
        <ele>1007.383</ele>
        <time>2021-10-14T08:18:36Z</time>
      </trkpt>
      <trkpt lat="42.870281" lon="-5.644186">
        <ele>1009.990</ele>
        <time>2021-10-14T08:18:38Z</time>
      </trkpt>
      <trkpt lat="42.870534" lon="-5.643867">
        <ele>1012.352</ele>
        <time>2021-10-14T08:18:40Z</time>
      </trkpt>
      <trkpt lat="42.870673" lon="-5.643700">
        <ele>1011.891</ele>
        <time>2021-10-14T08:18:41Z</time>
      </trkpt>
      <trkpt lat="42.870815" lon="-5.643528">
        <ele>1013.324</ele>
        <time>2021-10-14T08:18:42Z</time>
      </trkpt>
      <trkpt lat="42.871093" lon="-5.643190">
        <ele>1016.504</ele>
        <time>2021-10-14T08:18:44Z</time>
      </trkpt>
      <trkpt lat="42.871229" lon="-5.643022">
        <ele>1015.014</ele>
        <time>2021-10-14T08:18:45Z</time>
      </trkpt>
      <trkpt lat="42.874253" lon="-5.640706">
        <ele>1018.708</ele>
        <time>2021-10-14T08:19:04Z</time>
      </trkpt>
      <trkpt lat="42.874459" lon="-5.640656">
        <ele>1022.020</ele>
        <time>2021-10-14T08:19:05Z</time>
      </trkpt>
      <trkpt lat="42.874883" lon="-5.640564">
        <ele>1021.278</ele>
        <time>2021-10-14T08:19:07Z</time>
      </trkpt>
      <trkpt lat="42.875095" lon="-5.640517">
        <ele>1021.036</ele>
        <time>2021-10-14T08:19:08Z</time>
      </trkpt>
      <trkpt lat="42.875503" lon="-5.640450">
        <ele>1021.883</ele>
        <time>2021-10-14T08:19:10Z</time>
      </trkpt>
      <trkpt lat="42.875699" lon="-5.640447">
        <ele>1019.526</ele>
        <time>2021-10-14T08:19:11Z</time>
      </trkpt>
      <trkpt lat="42.876091" lon="-5.640494">
        <ele>1020.263</ele>
        <time>2021-10-14T08:19:13Z</time>
      </trkpt>
      <trkpt lat="42.876496" lon="-5.640606">
        <ele>1017.815</ele>
        <time>2021-10-14T08:19:15Z</time>
      </trkpt>
      <trkpt lat="42.876705" lon="-5.640672">
        <ele>1016.364</ele>
        <time>2021-10-14T08:19:16Z</time>
      </trkpt>
      <trkpt lat="42.876917" lon="-5.640742">
        <ele>1015.932</ele>
        <time>2021-10-14T08:19:17Z</time>
      </trkpt>
      <trkpt lat="42.877128" lon="-5.640809">
        <ele>1015.792</ele>
        <time>2021-10-14T08:19:18Z</time>
      </trkpt>
      <trkpt lat="42.877530" lon="-5.640933">
        <ele>1014.911</ele>
        <time>2021-10-14T08:19:20Z</time>
      </trkpt>
      <trkpt lat="42.877915" lon="-5.641038">
        <ele>1011.008</ele>
        <time>2021-10-14T08:19:22Z</time>
      </trkpt>
      <trkpt lat="42.878103" lon="-5.641068">
        <ele>1009.441</ele>
        <time>2021-10-14T08:19:23Z</time>
      </trkpt>
      <trkpt lat="42.878474" lon="-5.641045">
        <ele>1008.519</ele>
        <time>2021-10-14T08:19:25Z</time>
      </trkpt>
      <trkpt lat="42.878657" lon="-5.640989">
        <ele>1006.987</ele>
        <time>2021-10-14T08:19:26Z</time>
      </trkpt>
      <trkpt lat="42.878993" lon="-5.640795">
        <ele>1002.924</ele>
        <time>2021-10-14T08:19:28Z</time>
      </trkpt>
      <trkpt lat="42.879140" lon="-5.640655">
        <ele>1002.497</ele>
        <time>2021-10-14T08:19:29Z</time>
      </trkpt>
      <trkpt lat="42.879270" lon="-5.640494">
        <ele>1002.524</ele>
        <time>2021-10-14T08:19:30Z</time>
      </trkpt>
      <trkpt lat="42.879385" lon="-5.640310">
        <ele>1002.416</ele>
        <time>2021-10-14T08:19:31Z</time>
      </trkpt>
      <trkpt lat="42.879485" lon="-5.640104">
        <ele>1001.035</ele>
        <time>2021-10-14T08:19:32Z</time>
      </trkpt>
      <trkpt lat="42.879644" lon="-5.639659">
        <ele>1001.737</ele>
        <time>2021-10-14T08:19:34Z</time>
      </trkpt>
      <trkpt lat="42.879789" lon="-5.639200">
        <ele>1001.249</ele>
        <time>2021-10-14T08:19:36Z</time>
      </trkpt>
      <trkpt lat="42.879865" lon="-5.638972">
        <ele>1000.213</ele>
        <time>2021-10-14T08:19:37Z</time>
      </trkpt>
      <trkpt lat="42.879950" lon="-5.638745">
        <ele>1001.908</ele>
        <time>2021-10-14T08:19:38Z</time>
      </trkpt>
      <trkpt lat="42.880141" lon="-5.638306">
        <ele>1002.241</ele>
        <time>2021-10-14T08:19:40Z</time>
      </trkpt>
      <trkpt lat="42.880250" lon="-5.638096">
        <ele>1001.719</ele>
        <time>2021-10-14T08:19:41Z</time>
      </trkpt>
      <trkpt lat="42.880370" lon="-5.637909">
        <ele>1001.087</ele>
        <time>2021-10-14T08:19:42Z</time>
      </trkpt>
      <trkpt lat="42.880507" lon="-5.637757">
        <ele>1000.114</ele>
        <time>2021-10-14T08:19:43Z</time>
      </trkpt>
      <trkpt lat="42.880669" lon="-5.637649">
        <ele>1000.077</ele>
        <time>2021-10-14T08:19:44Z</time>
      </trkpt>
      <trkpt lat="42.881034" lon="-5.637512">
        <ele>998.924</ele>
        <time>2021-10-14T08:19:46Z</time>
      </trkpt>
      <trkpt lat="42.881231" lon="-5.637463">
        <ele>1000.196</ele>
        <time>2021-10-14T08:19:47Z</time>
      </trkpt>
      <trkpt lat="42.881433" lon="-5.637427">
        <ele>1000.395</ele>
        <time>2021-10-14T08:19:48Z</time>
      </trkpt>
      <trkpt lat="42.881638" lon="-5.637403">
        <ele>1000.089</ele>
        <time>2021-10-14T08:19:49Z</time>
      </trkpt>
      <trkpt lat="42.881846" lon="-5.637398">
        <ele>999.906</ele>
        <time>2021-10-14T08:19:50Z</time>
      </trkpt>
      <trkpt lat="42.882259" lon="-5.637434">
        <ele>1001.126</ele>
        <time>2021-10-14T08:19:52Z</time>
      </trkpt>
      <trkpt lat="42.882458" lon="-5.637475">
        <ele>1002.008</ele>
        <time>2021-10-14T08:19:53Z</time>
      </trkpt>
      <trkpt lat="42.882645" lon="-5.637527">
        <ele>1000.056</ele>
        <time>2021-10-14T08:19:54Z</time>
      </trkpt>
      <trkpt lat="42.883010" lon="-5.637677">
        <ele>999.374</ele>
        <time>2021-10-14T08:19:56Z</time>
      </trkpt>
      <trkpt lat="42.883360" lon="-5.637898">
        <ele>998.972</ele>
        <time>2021-10-14T08:19:58Z</time>
      </trkpt>
      <trkpt lat="42.883700" lon="-5.638164">
        <ele>1001.759</ele>
        <time>2021-10-14T08:20:00Z</time>
      </trkpt>
      <trkpt lat="42.884044" lon="-5.638466">
        <ele>999.792</ele>
        <time>2021-10-14T08:20:02Z</time>
      </trkpt>
      <trkpt lat="42.884214" lon="-5.638628">
        <ele>1000.169</ele>
        <time>2021-10-14T08:20:03Z</time>
      </trkpt>
      <trkpt lat="42.884558" lon="-5.638962">
        <ele>1002.371</ele>
        <time>2021-10-14T08:20:05Z</time>
      </trkpt>
      <trkpt lat="42.884913" lon="-5.639296">
        <ele>1002.410</ele>
        <time>2021-10-14T08:20:07Z</time>
      </trkpt>
      <trkpt lat="42.885096" lon="-5.639463">
        <ele>1001.664</ele>
        <time>2021-10-14T08:20:08Z</time>
      </trkpt>
      <trkpt lat="42.885475" lon="-5.639767">
        <ele>1001.306</ele>
        <time>2021-10-14T08:20:10Z</time>
      </trkpt>
      <trkpt lat="42.885676" lon="-5.639901">
        <ele>1001.216</ele>
        <time>2021-10-14T08:20:11Z</time>
      </trkpt>
      <trkpt lat="42.886099" lon="-5.640094">
        <ele>1003.108</ele>
        <time>2021-10-14T08:20:13Z</time>
      </trkpt>
      <trkpt lat="42.886543" lon="-5.640210">
        <ele>1002.734</ele>
        <time>2021-10-14T08:20:15Z</time>
      </trkpt>
      <trkpt lat="42.886768" lon="-5.640244">
        <ele>1002.632</ele>
        <time>2021-10-14T08:20:16Z</time>
      </trkpt>
      <trkpt lat="42.887222" lon="-5.640263">
        <ele>1001.550</ele>
        <time>2021-10-14T08:20:18Z</time>
      </trkpt>
      <trkpt lat="42.887450" lon="-5.640265">
        <ele>1003.037</ele>
        <time>2021-10-14T08:20:19Z</time>
      </trkpt>
      <trkpt lat="42.887904" lon="-5.640271">
        <ele>1003.110</ele>
        <time>2021-10-14T08:20:21Z</time>
      </trkpt>
      <trkpt lat="42.888130" lon="-5.640276">
        <ele>1003.947</ele>
        <time>2021-10-14T08:20:22Z</time>
      </trkpt>
      <trkpt lat="42.888579" lon="-5.640290">
        <ele>1003.189</ele>
        <time>2021-10-14T08:20:24Z</time>
      </trkpt>
      <trkpt lat="42.889018" lon="-5.640302">
        <ele>1006.228</ele>
        <time>2021-10-14T08:20:26Z</time>
      </trkpt>
      <trkpt lat="42.889237" lon="-5.640308">
        <ele>1006.327</ele>
        <time>2021-10-14T08:20:27Z</time>
      </trkpt>
      <trkpt lat="42.889668" lon="-5.640326">
        <ele>1006.568</ele>
        <time>2021-10-14T08:20:29Z</time>
      </trkpt>
      <trkpt lat="42.889882" lon="-5.640347">
        <ele>1006.414</ele>
        <time>2021-10-14T08:20:30Z</time>
      </trkpt>
      <trkpt lat="42.890300" lon="-5.640441">
        <ele>1007.908</ele>
        <time>2021-10-14T08:20:32Z</time>
      </trkpt>
      <trkpt lat="42.890507" lon="-5.640515">
        <ele>1008.440</ele>
        <time>2021-10-14T08:20:33Z</time>
      </trkpt>
      <trkpt lat="42.890713" lon="-5.640612">
        <ele>1007.358</ele>
        <time>2021-10-14T08:20:34Z</time>
      </trkpt>
      <trkpt lat="42.890915" lon="-5.640734">
        <ele>1007.056</ele>
        <time>2021-10-14T08:20:35Z</time>
      </trkpt>
      <trkpt lat="42.891318" lon="-5.641045">
        <ele>1009.033</ele>
        <time>2021-10-14T08:20:37Z</time>
      </trkpt>
      <trkpt lat="42.891527" lon="-5.641211">
        <ele>1010.796</ele>
        <time>2021-10-14T08:20:38Z</time>
      </trkpt>
      <trkpt lat="42.891940" lon="-5.641540">
        <ele>1009.893</ele>
        <time>2021-10-14T08:20:40Z</time>
      </trkpt>
      <trkpt lat="42.892145" lon="-5.641696">
        <ele>1010.545</ele>
        <time>2021-10-14T08:20:41Z</time>
      </trkpt>
      <trkpt lat="42.892538" lon="-5.641970">
        <ele>1009.614</ele>
        <time>2021-10-14T08:20:43Z</time>
      </trkpt>
      <trkpt lat="42.892743" lon="-5.642086">
        <ele>1010.696</ele>
        <time>2021-10-14T08:20:44Z</time>
      </trkpt>
      <trkpt lat="42.893161" lon="-5.642295">
        <ele>1010.531</ele>
        <time>2021-10-14T08:20:46Z</time>
      </trkpt>
      <trkpt lat="42.893374" lon="-5.642398">
        <ele>1010.224</ele>
        <time>2021-10-14T08:20:47Z</time>
      </trkpt>
      <trkpt lat="42.893588" lon="-5.642506">
        <ele>1010.708</ele>
        <time>2021-10-14T08:20:48Z</time>
      </trkpt>
      <trkpt lat="42.893805" lon="-5.642612">
        <ele>1012.017</ele>
        <time>2021-10-14T08:20:49Z</time>
      </trkpt>
      <trkpt lat="42.894025" lon="-5.642719">
        <ele>1011.555</ele>
        <time>2021-10-14T08:20:50Z</time>
      </trkpt>
      <trkpt lat="42.894470" lon="-5.642940">
        <ele>1013.033</ele>
        <time>2021-10-14T08:20:52Z</time>
      </trkpt>
      <trkpt lat="42.894697" lon="-5.643054">
        <ele>1012.210</ele>
        <time>2021-10-14T08:20:53Z</time>
      </trkpt>
      <trkpt lat="42.895162" lon="-5.643280">
        <ele>1013.063</ele>
        <time>2021-10-14T08:20:55Z</time>
      </trkpt>
      <trkpt lat="42.895632" lon="-5.643506">
        <ele>1010.610</ele>
        <time>2021-10-14T08:20:57Z</time>
      </trkpt>
      <trkpt lat="42.896074" lon="-5.643727">
        <ele>1013.252</ele>
        <time>2021-10-14T08:20:59Z</time>
      </trkpt>
      <trkpt lat="42.896473" lon="-5.643927">
        <ele>1013.421</ele>
        <time>2021-10-14T08:21:01Z</time>
      </trkpt>
      <trkpt lat="42.896670" lon="-5.644018">
        <ele>1011.869</ele>
        <time>2021-10-14T08:21:02Z</time>
      </trkpt>
      <trkpt lat="42.896865" lon="-5.644108">
        <ele>1012.404</ele>
        <time>2021-10-14T08:21:03Z</time>
      </trkpt>
      <trkpt lat="42.897059" lon="-5.644198">
        <ele>1014.024</ele>
        <time>2021-10-14T08:21:04Z</time>
      </trkpt>
      <trkpt lat="42.897252" lon="-5.644290">
        <ele>1014.208</ele>
        <time>2021-10-14T08:21:05Z</time>
      </trkpt>
      <trkpt lat="42.897638" lon="-5.644485">
        <ele>1014.444</ele>
        <time>2021-10-14T08:21:07Z</time>
      </trkpt>
      <trkpt lat="42.897836" lon="-5.644580">
        <ele>1013.682</ele>
        <time>2021-10-14T08:21:08Z</time>
      </trkpt>
      <trkpt lat="42.898236" lon="-5.644779">
        <ele>1014.390</ele>
        <time>2021-10-14T08:21:10Z</time>
      </trkpt>
      <trkpt lat="42.898439" lon="-5.644889">
        <ele>1015.467</ele>
        <time>2021-10-14T08:21:11Z</time>
      </trkpt>
      <trkpt lat="42.898637" lon="-5.645015">
        <ele>1016.940</ele>
        <time>2021-10-14T08:21:12Z</time>
      </trkpt>
      <trkpt lat="42.898832" lon="-5.645157">
        <ele>1016.597</ele>
        <time>2021-10-14T08:21:13Z</time>
      </trkpt>
      <trkpt lat="42.899023" lon="-5.645318">
        <ele>1016.359</ele>
        <time>2021-10-14T08:21:14Z</time>
      </trkpt>
      <trkpt lat="42.899393" lon="-5.645676">
        <ele>1016.198</ele>
        <time>2021-10-14T08:21:16Z</time>
      </trkpt>
      <trkpt lat="42.899756" lon="-5.646057">
        <ele>1016.718</ele>
        <time>2021-10-14T08:21:18Z</time>
      </trkpt>
      <trkpt lat="42.899944" lon="-5.646244">
        <ele>1018.098</ele>
        <time>2021-10-14T08:21:19Z</time>
      </trkpt>
      <trkpt lat="42.900339" lon="-5.646566">
        <ele>1018.417</ele>
        <time>2021-10-14T08:21:21Z</time>
      </trkpt>
      <trkpt lat="42.900730" lon="-5.646815">
        <ele>1020.608</ele>
        <time>2021-10-14T08:21:23Z</time>
      </trkpt>
      <trkpt lat="42.901096" lon="-5.647028">
        <ele>1023.049</ele>
        <time>2021-10-14T08:21:25Z</time>
      </trkpt>
      <trkpt lat="42.901275" lon="-5.647133">
        <ele>1022.967</ele>
        <time>2021-10-14T08:21:26Z</time>
      </trkpt>
      <trkpt lat="42.901456" lon="-5.647239">
        <ele>1023.975</ele>
        <time>2021-10-14T08:21:27Z</time>
      </trkpt>
      <trkpt lat="42.901818" lon="-5.647461">
        <ele>1022.012</ele>
        <time>2021-10-14T08:21:29Z</time>
      </trkpt>
      <trkpt lat="42.901998" lon="-5.647573">
        <ele>1024.395</ele>
        <time>2021-10-14T08:21:30Z</time>
      </trkpt>
      <trkpt lat="42.903595" lon="-5.648618">
        <ele>1027.522</ele>
        <time>2021-10-14T08:21:39Z</time>
      </trkpt>
      <trkpt lat="42.903783" lon="-5.648710">
        <ele>1029.524</ele>
        <time>2021-10-14T08:21:40Z</time>
      </trkpt>
      <trkpt lat="42.904176" lon="-5.648916">
        <ele>1029.293</ele>
        <time>2021-10-14T08:21:42Z</time>
      </trkpt>
      <trkpt lat="42.904600" lon="-5.649137">
        <ele>1032.111</ele>
        <time>2021-10-14T08:21:44Z</time>
      </trkpt>
      <trkpt lat="42.905030" lon="-5.649373">
        <ele>1034.621</ele>
        <time>2021-10-14T08:21:46Z</time>
      </trkpt>
      <trkpt lat="42.905241" lon="-5.649497">
        <ele>1034.503</ele>
        <time>2021-10-14T08:21:47Z</time>
      </trkpt>
      <trkpt lat="42.905645" lon="-5.649747">
        <ele>1034.708</ele>
        <time>2021-10-14T08:21:49Z</time>
      </trkpt>
      <trkpt lat="42.905845" lon="-5.649874">
        <ele>1033.969</ele>
        <time>2021-10-14T08:21:50Z</time>
      </trkpt>
      <trkpt lat="42.906240" lon="-5.650140">
        <ele>1032.777</ele>
        <time>2021-10-14T08:21:52Z</time>
      </trkpt>
      <trkpt lat="42.906650" lon="-5.650398">
        <ele>1031.845</ele>
        <time>2021-10-14T08:21:54Z</time>
      </trkpt>
      <trkpt lat="42.907076" lon="-5.650650">
        <ele>1032.112</ele>
        <time>2021-10-14T08:21:56Z</time>
      </trkpt>
      <trkpt lat="42.907513" lon="-5.650877">
        <ele>1032.815</ele>
        <time>2021-10-14T08:21:58Z</time>
      </trkpt>
      <trkpt lat="42.907954" lon="-5.651088">
        <ele>1032.732</ele>
        <time>2021-10-14T08:22:00Z</time>
      </trkpt>
      <trkpt lat="42.908390" lon="-5.651300">
        <ele>1032.594</ele>
        <time>2021-10-14T08:22:02Z</time>
      </trkpt>
      <trkpt lat="42.908603" lon="-5.651416">
        <ele>1034.353</ele>
        <time>2021-10-14T08:22:03Z</time>
      </trkpt>
      <trkpt lat="42.909025" lon="-5.651678">
        <ele>1036.484</ele>
        <time>2021-10-14T08:22:05Z</time>
      </trkpt>
      <trkpt lat="42.909230" lon="-5.651830">
        <ele>1036.707</ele>
        <time>2021-10-14T08:22:06Z</time>
      </trkpt>
      <trkpt lat="42.909647" lon="-5.652145">
        <ele>1037.817</ele>
        <time>2021-10-14T08:22:08Z</time>
      </trkpt>
      <trkpt lat="42.910062" lon="-5.652456">
        <ele>1039.008</ele>
        <time>2021-10-14T08:22:10Z</time>
      </trkpt>
      <trkpt lat="42.910263" lon="-5.652606">
        <ele>1038.976</ele>
        <time>2021-10-14T08:22:11Z</time>
      </trkpt>
      <trkpt lat="42.910656" lon="-5.652907">
        <ele>1041.084</ele>
        <time>2021-10-14T08:22:13Z</time>
      </trkpt>
      <trkpt lat="42.911037" lon="-5.653207">
        <ele>1040.532</ele>
        <time>2021-10-14T08:22:15Z</time>
      </trkpt>
      <trkpt lat="42.911220" lon="-5.653369">
        <ele>1041.689</ele>
        <time>2021-10-14T08:22:16Z</time>
      </trkpt>
      <trkpt lat="42.911563" lon="-5.653721">
        <ele>1042.362</ele>
        <time>2021-10-14T08:22:18Z</time>
      </trkpt>
      <trkpt lat="42.911860" lon="-5.654067">
        <ele>1044.799</ele>
        <time>2021-10-14T08:22:20Z</time>
      </trkpt>
      <trkpt lat="42.912000" lon="-5.654229">
        <ele>1046.331</ele>
        <time>2021-10-14T08:22:21Z</time>
      </trkpt>
      <trkpt lat="42.912140" lon="-5.654391">
        <ele>1047.740</ele>
        <time>2021-10-14T08:22:22Z</time>
      </trkpt>
      <trkpt lat="42.912419" lon="-5.654720">
        <ele>1047.556</ele>
        <time>2021-10-14T08:22:24Z</time>
      </trkpt>
      <trkpt lat="42.912558" lon="-5.654879">
        <ele>1048.459</ele>
        <time>2021-10-14T08:22:25Z</time>
      </trkpt>
      <trkpt lat="42.912696" lon="-5.655025">
        <ele>1046.614</ele>
        <time>2021-10-14T08:22:26Z</time>
      </trkpt>
      <trkpt lat="42.912973" lon="-5.655280">
        <ele>1046.208</ele>
        <time>2021-10-14T08:22:28Z</time>
      </trkpt>
      <trkpt lat="42.913116" lon="-5.655385">
        <ele>1046.083</ele>
        <time>2021-10-14T08:22:29Z</time>
      </trkpt>
      <trkpt lat="42.913399" lon="-5.655540">
        <ele>1046.471</ele>
        <time>2021-10-14T08:22:31Z</time>
      </trkpt>
      <trkpt lat="42.913692" lon="-5.655636">
        <ele>1046.799</ele>
        <time>2021-10-14T08:22:33Z</time>
      </trkpt>
      <trkpt lat="42.914012" lon="-5.655682">
        <ele>1047.566</ele>
        <time>2021-10-14T08:22:35Z</time>
      </trkpt>
      <trkpt lat="42.914347" lon="-5.655661">
        <ele>1047.799</ele>
        <time>2021-10-14T08:22:37Z</time>
      </trkpt>
      <trkpt lat="42.914518" lon="-5.655624">
        <ele>1047.436</ele>
        <time>2021-10-14T08:22:38Z</time>
      </trkpt>
      <trkpt lat="42.914858" lon="-5.655489">
        <ele>1048.828</ele>
        <time>2021-10-14T08:22:40Z</time>
      </trkpt>
      <trkpt lat="42.915029" lon="-5.655392">
        <ele>1049.457</ele>
        <time>2021-10-14T08:22:41Z</time>
      </trkpt>
      <trkpt lat="42.915192" lon="-5.655276">
        <ele>1051.021</ele>
        <time>2021-10-14T08:22:42Z</time>
      </trkpt>
      <trkpt lat="42.915354" lon="-5.655142">
        <ele>1051.241</ele>
        <time>2021-10-14T08:22:43Z</time>
      </trkpt>
      <trkpt lat="42.915512" lon="-5.654994">
        <ele>1049.805</ele>
        <time>2021-10-14T08:22:44Z</time>
      </trkpt>
      <trkpt lat="42.915833" lon="-5.654650">
        <ele>1048.908</ele>
        <time>2021-10-14T08:22:46Z</time>
      </trkpt>
      <trkpt lat="42.916165" lon="-5.654292">
        <ele>1049.460</ele>
        <time>2021-10-14T08:22:48Z</time>
      </trkpt>
      <trkpt lat="42.916480" lon="-5.653957">
        <ele>1050.128</ele>
        <time>2021-10-14T08:22:50Z</time>
      </trkpt>
      <trkpt lat="42.916802" lon="-5.653626">
        <ele>1049.646</ele>
        <time>2021-10-14T08:22:52Z</time>
      </trkpt>
      <trkpt lat="42.916969" lon="-5.653457">
        <ele>1050.533</ele>
        <time>2021-10-14T08:22:53Z</time>
      </trkpt>
      <trkpt lat="42.917300" lon="-5.653114">
        <ele>1049.496</ele>
        <time>2021-10-14T08:22:55Z</time>
      </trkpt>
      <trkpt lat="42.917470" lon="-5.652953">
        <ele>1048.953</ele>
        <time>2021-10-14T08:22:56Z</time>
      </trkpt>
      <trkpt lat="42.917815" lon="-5.652674">
        <ele>1049.945</ele>
        <time>2021-10-14T08:22:58Z</time>
      </trkpt>
      <trkpt lat="42.918178" lon="-5.652472">
        <ele>1049.514</ele>
        <time>2021-10-14T08:23:00Z</time>
      </trkpt>
      <trkpt lat="42.918370" lon="-5.652391">
        <ele>1048.885</ele>
        <time>2021-10-14T08:23:01Z</time>
      </trkpt>
      <trkpt lat="42.918569" lon="-5.652311">
        <ele>1049.989</ele>
        <time>2021-10-14T08:23:02Z</time>
      </trkpt>
      <trkpt lat="42.918769" lon="-5.652236">
        <ele>1049.717</ele>
        <time>2021-10-14T08:23:03Z</time>
      </trkpt>
      <trkpt lat="42.919163" lon="-5.652094">
        <ele>1050.108</ele>
        <time>2021-10-14T08:23:05Z</time>
      </trkpt>
      <trkpt lat="42.923270" lon="-5.650724">
        <ele>1056.686</ele>
        <time>2021-10-14T08:23:26Z</time>
      </trkpt>
      <trkpt lat="42.923691" lon="-5.650594">
        <ele>1062.454</ele>
        <time>2021-10-14T08:23:28Z</time>
      </trkpt>
      <trkpt lat="42.923899" lon="-5.650551">
        <ele>1062.382</ele>
        <time>2021-10-14T08:23:29Z</time>
      </trkpt>
      <trkpt lat="42.924313" lon="-5.650534">
        <ele>1063.789</ele>
        <time>2021-10-14T08:23:31Z</time>
      </trkpt>
      <trkpt lat="42.924520" lon="-5.650577">
        <ele>1065.512</ele>
        <time>2021-10-14T08:23:32Z</time>
      </trkpt>
      <trkpt lat="42.924712" lon="-5.650667">
        <ele>1066.059</ele>
        <time>2021-10-14T08:23:33Z</time>
      </trkpt>
      <trkpt lat="42.925027" lon="-5.650973">
        <ele>1067.191</ele>
        <time>2021-10-14T08:23:35Z</time>
      </trkpt>
      <trkpt lat="42.925156" lon="-5.651167">
        <ele>1067.450</ele>
        <time>2021-10-14T08:23:36Z</time>
      </trkpt>
      <trkpt lat="42.925267" lon="-5.651388">
        <ele>1067.768</ele>
        <time>2021-10-14T08:23:37Z</time>
      </trkpt>
      <trkpt lat="42.925361" lon="-5.651636">
        <ele>1069.342</ele>
        <time>2021-10-14T08:23:38Z</time>
      </trkpt>
      <trkpt lat="42.925528" lon="-5.652171">
        <ele>1068.726</ele>
        <time>2021-10-14T08:23:40Z</time>
      </trkpt>
      <trkpt lat="42.925615" lon="-5.652449">
        <ele>1069.008</ele>
        <time>2021-10-14T08:23:41Z</time>
      </trkpt>
      <trkpt lat="42.925804" lon="-5.653018">
        <ele>1067.764</ele>
        <time>2021-10-14T08:23:43Z</time>
      </trkpt>
      <trkpt lat="42.925904" lon="-5.653305">
        <ele>1067.222</ele>
        <time>2021-10-14T08:23:44Z</time>
      </trkpt>
      <trkpt lat="42.926141" lon="-5.653840">
        <ele>1066.480</ele>
        <time>2021-10-14T08:23:46Z</time>
      </trkpt>
      <trkpt lat="42.926285" lon="-5.654079">
        <ele>1066.897</ele>
        <time>2021-10-14T08:23:47Z</time>
      </trkpt>
      <trkpt lat="42.926626" lon="-5.654487">
        <ele>1065.410</ele>
        <time>2021-10-14T08:23:49Z</time>
      </trkpt>
      <trkpt lat="42.926816" lon="-5.654656">
        <ele>1065.457</ele>
        <time>2021-10-14T08:23:50Z</time>
      </trkpt>
      <trkpt lat="42.927213" lon="-5.654916">
        <ele>1065.539</ele>
        <time>2021-10-14T08:23:52Z</time>
      </trkpt>
      <trkpt lat="42.927413" lon="-5.655018">
        <ele>1065.118</ele>
        <time>2021-10-14T08:23:53Z</time>
      </trkpt>
      <trkpt lat="42.927799" lon="-5.655212">
        <ele>1065.732</ele>
        <time>2021-10-14T08:23:55Z</time>
      </trkpt>
      <trkpt lat="42.928186" lon="-5.655413">
        <ele>1067.092</ele>
        <time>2021-10-14T08:23:57Z</time>
      </trkpt>
      <trkpt lat="42.928380" lon="-5.655518">
        <ele>1067.911</ele>
        <time>2021-10-14T08:23:58Z</time>
      </trkpt>
      <trkpt lat="42.928574" lon="-5.655623">
        <ele>1067.308</ele>
        <time>2021-10-14T08:23:59Z</time>
      </trkpt>
      <trkpt lat="42.928772" lon="-5.655729">
        <ele>1068.951</ele>
        <time>2021-10-14T08:24:00Z</time>
      </trkpt>
      <trkpt lat="42.929175" lon="-5.655938">
        <ele>1066.479</ele>
        <time>2021-10-14T08:24:02Z</time>
      </trkpt>
      <trkpt lat="42.929380" lon="-5.656045">
        <ele>1067.227</ele>
        <time>2021-10-14T08:24:03Z</time>
      </trkpt>
      <trkpt lat="42.929585" lon="-5.656153">
        <ele>1067.924</ele>
        <time>2021-10-14T08:24:04Z</time>
      </trkpt>
      <trkpt lat="42.929993" lon="-5.656363">
        <ele>1067.717</ele>
        <time>2021-10-14T08:24:06Z</time>
      </trkpt>
      <trkpt lat="42.930193" lon="-5.656456">
        <ele>1068.394</ele>
        <time>2021-10-14T08:24:07Z</time>
      </trkpt>
      <trkpt lat="42.930389" lon="-5.656525">
        <ele>1068.786</ele>
        <time>2021-10-14T08:24:08Z</time>
      </trkpt>
      <trkpt lat="42.930785" lon="-5.656586">
        <ele>1069.055</ele>
        <time>2021-10-14T08:24:10Z</time>
      </trkpt>
      <trkpt lat="42.931192" lon="-5.656563">
        <ele>1070.625</ele>
        <time>2021-10-14T08:24:12Z</time>
      </trkpt>
      <trkpt lat="42.931601" lon="-5.656493">
        <ele>1069.426</ele>
        <time>2021-10-14T08:24:14Z</time>
      </trkpt>
      <trkpt lat="42.932015" lon="-5.656426">
        <ele>1067.708</ele>
        <time>2021-10-14T08:24:16Z</time>
      </trkpt>
      <trkpt lat="42.932227" lon="-5.656414">
        <ele>1068.508</ele>
        <time>2021-10-14T08:24:17Z</time>
      </trkpt>
      <trkpt lat="42.932643" lon="-5.656445">
        <ele>1068.850</ele>
        <time>2021-10-14T08:24:19Z</time>
      </trkpt>
      <trkpt lat="42.932846" lon="-5.656489">
        <ele>1068.388</ele>
        <time>2021-10-14T08:24:20Z</time>
      </trkpt>
      <trkpt lat="42.933246" lon="-5.656628">
        <ele>1068.466</ele>
        <time>2021-10-14T08:24:22Z</time>
      </trkpt>
      <trkpt lat="42.933638" lon="-5.656816">
        <ele>1071.023</ele>
        <time>2021-10-14T08:24:24Z</time>
      </trkpt>
      <trkpt lat="42.934036" lon="-5.657013">
        <ele>1071.336</ele>
        <time>2021-10-14T08:24:26Z</time>
      </trkpt>
      <trkpt lat="42.934235" lon="-5.657115">
        <ele>1071.373</ele>
        <time>2021-10-14T08:24:27Z</time>
      </trkpt>
      <trkpt lat="42.934632" lon="-5.657312">
        <ele>1071.775</ele>
        <time>2021-10-14T08:24:29Z</time>
      </trkpt>
      <trkpt lat="42.935011" lon="-5.657501">
        <ele>1070.694</ele>
        <time>2021-10-14T08:24:31Z</time>
      </trkpt>
      <trkpt lat="42.935201" lon="-5.657597">
        <ele>1072.534</ele>
        <time>2021-10-14T08:24:32Z</time>
      </trkpt>
      <trkpt lat="42.935581" lon="-5.657784">
        <ele>1070.355</ele>
        <time>2021-10-14T08:24:34Z</time>
      </trkpt>
      <trkpt lat="42.935918" lon="-5.657948">
        <ele>1072.010</ele>
        <time>2021-10-14T08:24:36Z</time>
      </trkpt>
      <trkpt lat="42.936061" lon="-5.658020">
        <ele>1070.608</ele>
        <time>2021-10-14T08:24:37Z</time>
      </trkpt>
      <trkpt lat="42.936328" lon="-5.658147">
        <ele>1071.251</ele>
        <time>2021-10-14T08:24:39Z</time>
      </trkpt>
      <trkpt lat="42.936588" lon="-5.658275">
        <ele>1071.919</ele>
        <time>2021-10-14T08:24:41Z</time>
      </trkpt>
      <trkpt lat="42.936723" lon="-5.658343">
        <ele>1072.477</ele>
        <time>2021-10-14T08:24:42Z</time>
      </trkpt>
      <trkpt lat="42.936858" lon="-5.658408">
        <ele>1072.144</ele>
        <time>2021-10-14T08:24:43Z</time>
      </trkpt>
      <trkpt lat="42.936989" lon="-5.658474">
        <ele>1072.387</ele>
        <time>2021-10-14T08:24:44Z</time>
      </trkpt>
      <trkpt lat="42.937228" lon="-5.658591">
        <ele>1072.034</ele>
        <time>2021-10-14T08:24:46Z</time>
      </trkpt>
      <trkpt lat="42.937463" lon="-5.658704">
        <ele>1072.096</ele>
        <time>2021-10-14T08:24:48Z</time>
      </trkpt>
      <trkpt lat="42.937695" lon="-5.658820">
        <ele>1072.285</ele>
        <time>2021-10-14T08:24:50Z</time>
      </trkpt>
      <trkpt lat="42.937905" lon="-5.658924">
        <ele>1072.491</ele>
        <time>2021-10-14T08:24:52Z</time>
      </trkpt>
      <trkpt lat="42.937995" lon="-5.658964">
        <ele>1072.181</ele>
        <time>2021-10-14T08:24:53Z</time>
      </trkpt>
      <trkpt lat="42.938079" lon="-5.659000">
        <ele>1072.119</ele>
        <time>2021-10-14T08:24:54Z</time>
      </trkpt>
      <trkpt lat="42.938206" lon="-5.659049">
        <ele>1072.708</ele>
        <time>2021-10-14T08:24:56Z</time>
      </trkpt>
      <trkpt lat="42.938286" lon="-5.659087">
        <ele>1073.337</ele>
        <time>2021-10-14T08:24:58Z</time>
      </trkpt>
      <trkpt lat="42.938332" lon="-5.659113">
        <ele>1073.375</ele>
        <time>2021-10-14T08:25:00Z</time>
      </trkpt>
      <trkpt lat="42.938375" lon="-5.659171">
        <ele>1072.463</ele>
        <time>2021-10-14T08:25:02Z</time>
      </trkpt>
      <trkpt lat="42.938387" lon="-5.659246">
        <ele>1072.280</ele>
        <time>2021-10-14T08:25:04Z</time>
      </trkpt>
      <trkpt lat="42.938364" lon="-5.659316">
        <ele>1072.613</ele>
        <time>2021-10-14T08:25:06Z</time>
      </trkpt>
      <trkpt lat="42.938319" lon="-5.659330">
        <ele>1073.080</ele>
        <time>2021-10-14T08:25:08Z</time>
      </trkpt>
      <trkpt lat="42.938278" lon="-5.659301">
        <ele>1088.462</ele>
        <time>2021-10-14T08:25:11Z</time>
      </trkpt>
      <trkpt lat="42.938255" lon="-5.659238">
        <ele>1105.561</ele>
        <time>2021-10-14T08:25:16Z</time>
      </trkpt>
      <trkpt lat="42.939097" lon="-5.659728">
        <ele>1105.573</ele>
        <time>2021-10-14T09:52:35Z</time>
      </trkpt>
      <trkpt lat="42.939071" lon="-5.659670">
        <ele>1105.585</ele>
        <time>2021-10-14T10:07:29Z</time>
      </trkpt>
      <trkpt lat="42.939023" lon="-5.659617">
        <ele>1105.713</ele>
        <time>2021-10-14T10:07:31Z</time>
      </trkpt>
      <trkpt lat="42.938935" lon="-5.659575">
        <ele>1105.708</ele>
        <time>2021-10-14T10:07:33Z</time>
      </trkpt>
      <trkpt lat="42.938881" lon="-5.659552">
        <ele>1105.785</ele>
        <time>2021-10-14T10:07:34Z</time>
      </trkpt>
      <trkpt lat="42.938763" lon="-5.659504">
        <ele>1105.793</ele>
        <time>2021-10-14T10:07:36Z</time>
      </trkpt>
      <trkpt lat="42.938716" lon="-5.659490">
        <ele>1105.731</ele>
        <time>2021-10-14T10:07:37Z</time>
      </trkpt>
      <trkpt lat="42.938616" lon="-5.659468">
        <ele>1105.778</ele>
        <time>2021-10-14T10:07:39Z</time>
      </trkpt>
      <trkpt lat="42.938519" lon="-5.659426">
        <ele>1105.871</ele>
        <time>2021-10-14T10:07:41Z</time>
      </trkpt>
      <trkpt lat="42.938476" lon="-5.659392">
        <ele>1105.868</ele>
        <time>2021-10-14T10:07:42Z</time>
      </trkpt>
      <trkpt lat="42.938425" lon="-5.659312">
        <ele>1105.850</ele>
        <time>2021-10-14T10:07:44Z</time>
      </trkpt>
      <trkpt lat="42.938419" lon="-5.659250">
        <ele>1105.839</ele>
        <time>2021-10-14T10:07:52Z</time>
      </trkpt>
      <trkpt lat="42.938440" lon="-5.659183">
        <ele>1105.848</ele>
        <time>2021-10-14T10:07:57Z</time>
      </trkpt>
      <trkpt lat="42.938495" lon="-5.659174">
        <ele>1105.861</ele>
        <time>2021-10-14T10:07:58Z</time>
      </trkpt>
      <trkpt lat="42.938648" lon="-5.659225">
        <ele>1105.817</ele>
        <time>2021-10-14T10:08:00Z</time>
      </trkpt>
      <trkpt lat="42.938830" lon="-5.659312">
        <ele>1105.808</ele>
        <time>2021-10-14T10:08:02Z</time>
      </trkpt>
      <trkpt lat="42.938927" lon="-5.659355">
        <ele>1105.812</ele>
        <time>2021-10-14T10:08:03Z</time>
      </trkpt>
      <trkpt lat="42.939035" lon="-5.659399">
        <ele>1105.820</ele>
        <time>2021-10-14T10:08:04Z</time>
      </trkpt>
      <trkpt lat="42.939281" lon="-5.659485">
        <ele>1105.868</ele>
        <time>2021-10-14T10:08:06Z</time>
      </trkpt>
      <trkpt lat="42.939556" lon="-5.659568">
        <ele>1105.845</ele>
        <time>2021-10-14T10:08:08Z</time>
      </trkpt>
      <trkpt lat="42.939845" lon="-5.659641">
        <ele>1105.828</ele>
        <time>2021-10-14T10:08:10Z</time>
      </trkpt>
      <trkpt lat="42.940140" lon="-5.659698">
        <ele>1105.925</ele>
        <time>2021-10-14T10:08:12Z</time>
      </trkpt>
      <trkpt lat="42.940440" lon="-5.659742">
        <ele>1105.977</ele>
        <time>2021-10-14T10:08:14Z</time>
      </trkpt>
      <trkpt lat="42.940596" lon="-5.659760">
        <ele>1105.976</ele>
        <time>2021-10-14T10:08:15Z</time>
      </trkpt>
      <trkpt lat="42.940903" lon="-5.659780">
        <ele>1105.968</ele>
        <time>2021-10-14T10:08:17Z</time>
      </trkpt>
      <trkpt lat="42.941159" lon="-5.659780">
        <ele>1105.842</ele>
        <time>2021-10-14T10:08:19Z</time>
      </trkpt>
      <trkpt lat="42.941378" lon="-5.659770">
        <ele>1105.826</ele>
        <time>2021-10-14T10:08:21Z</time>
      </trkpt>
      <trkpt lat="42.941480" lon="-5.659767">
        <ele>1105.808</ele>
        <time>2021-10-14T10:08:22Z</time>
      </trkpt>
      <trkpt lat="42.941669" lon="-5.659753">
        <ele>1105.864</ele>
        <time>2021-10-14T10:08:24Z</time>
      </trkpt>
      <trkpt lat="42.941877" lon="-5.659724">
        <ele>1105.822</ele>
        <time>2021-10-14T10:08:26Z</time>
      </trkpt>
      <trkpt lat="42.942108" lon="-5.659691">
        <ele>1105.880</ele>
        <time>2021-10-14T10:08:28Z</time>
      </trkpt>
      <trkpt lat="42.942358" lon="-5.659654">
        <ele>1105.817</ele>
        <time>2021-10-14T10:08:30Z</time>
      </trkpt>
      <trkpt lat="42.942475" lon="-5.659637">
        <ele>1105.820</ele>
        <time>2021-10-14T10:08:31Z</time>
      </trkpt>
      <trkpt lat="42.942583" lon="-5.659618">
        <ele>1105.887</ele>
        <time>2021-10-14T10:08:32Z</time>
      </trkpt>
      <trkpt lat="42.942796" lon="-5.659576">
        <ele>1105.839</ele>
        <time>2021-10-14T10:08:34Z</time>
      </trkpt>
      <trkpt lat="42.942907" lon="-5.659553">
        <ele>1105.898</ele>
        <time>2021-10-14T10:08:35Z</time>
      </trkpt>
      <trkpt lat="42.943146" lon="-5.659514">
        <ele>1105.894</ele>
        <time>2021-10-14T10:08:37Z</time>
      </trkpt>
      <trkpt lat="42.943422" lon="-5.659481">
        <ele>1105.857</ele>
        <time>2021-10-14T10:08:39Z</time>
      </trkpt>
      <trkpt lat="42.943731" lon="-5.659416">
        <ele>1105.822</ele>
        <time>2021-10-14T10:08:41Z</time>
      </trkpt>
      <trkpt lat="42.943897" lon="-5.659395">
        <ele>1105.808</ele>
        <time>2021-10-14T10:08:42Z</time>
      </trkpt>
      <trkpt lat="42.944068" lon="-5.659375">
        <ele>1105.877</ele>
        <time>2021-10-14T10:08:43Z</time>
      </trkpt>
      <trkpt lat="42.944240" lon="-5.659335">
        <ele>1105.865</ele>
        <time>2021-10-14T10:08:44Z</time>
      </trkpt>
      <trkpt lat="42.944569" lon="-5.659277">
        <ele>1105.883</ele>
        <time>2021-10-14T10:08:46Z</time>
      </trkpt>
      <trkpt lat="42.944861" lon="-5.659224">
        <ele>1105.820</ele>
        <time>2021-10-14T10:08:48Z</time>
      </trkpt>
      <trkpt lat="42.944999" lon="-5.659205">
        <ele>1105.843</ele>
        <time>2021-10-14T10:08:49Z</time>
      </trkpt>
      <trkpt lat="42.945138" lon="-5.659187">
        <ele>1105.890</ele>
        <time>2021-10-14T10:08:50Z</time>
      </trkpt>
      <trkpt lat="42.945277" lon="-5.659156">
        <ele>1105.892</ele>
        <time>2021-10-14T10:08:51Z</time>
      </trkpt>
      <trkpt lat="42.945560" lon="-5.659126">
        <ele>1105.721</ele>
        <time>2021-10-14T10:08:53Z</time>
      </trkpt>
      <trkpt lat="42.945848" lon="-5.659102">
        <ele>1105.795</ele>
        <time>2021-10-14T10:08:55Z</time>
      </trkpt>
      <trkpt lat="42.946004" lon="-5.659107">
        <ele>1084.249</ele>
        <time>2021-10-14T10:08:56Z</time>
      </trkpt>
      <trkpt lat="42.946330" lon="-5.659145">
        <ele>1063.123</ele>
        <time>2021-10-14T10:08:58Z</time>
      </trkpt>
      <trkpt lat="42.946504" lon="-5.659182">
        <ele>1063.708</ele>
        <time>2021-10-14T10:08:59Z</time>
      </trkpt>
      <trkpt lat="42.946833" lon="-5.659283">
        <ele>1064.247</ele>
        <time>2021-10-14T10:09:01Z</time>
      </trkpt>
      <trkpt lat="42.947161" lon="-5.659418">
        <ele>1064.075</ele>
        <time>2021-10-14T10:09:03Z</time>
      </trkpt>
      <trkpt lat="42.947489" lon="-5.659585">
        <ele>1064.283</ele>
        <time>2021-10-14T10:09:05Z</time>
      </trkpt>
      <trkpt lat="42.947658" lon="-5.659674">
        <ele>1064.270</ele>
        <time>2021-10-14T10:09:06Z</time>
      </trkpt>
      <trkpt lat="42.947831" lon="-5.659765">
        <ele>1064.863</ele>
        <time>2021-10-14T10:09:07Z</time>
      </trkpt>
      <trkpt lat="42.948192" lon="-5.659955">
        <ele>1063.570</ele>
        <time>2021-10-14T10:09:09Z</time>
      </trkpt>
      <trkpt lat="42.948368" lon="-5.660051">
        <ele>1063.222</ele>
        <time>2021-10-14T10:09:10Z</time>
      </trkpt>
      <trkpt lat="42.948540" lon="-5.660139">
        <ele>1063.771</ele>
        <time>2021-10-14T10:09:11Z</time>
      </trkpt>
      <trkpt lat="42.948711" lon="-5.660227">
        <ele>1064.059</ele>
        <time>2021-10-14T10:09:12Z</time>
      </trkpt>
      <trkpt lat="42.948883" lon="-5.660315">
        <ele>1063.503</ele>
        <time>2021-10-14T10:09:13Z</time>
      </trkpt>
      <trkpt lat="42.949058" lon="-5.660404">
        <ele>1063.223</ele>
        <time>2021-10-14T10:09:14Z</time>
      </trkpt>
      <trkpt lat="42.949416" lon="-5.660594">
        <ele>1063.608</ele>
        <time>2021-10-14T10:09:16Z</time>
      </trkpt>
      <trkpt lat="42.949788" lon="-5.660794">
        <ele>1063.753</ele>
        <time>2021-10-14T10:09:18Z</time>
      </trkpt>
      <trkpt lat="42.949978" lon="-5.660893">
        <ele>1063.651</ele>
        <time>2021-10-14T10:09:19Z</time>
      </trkpt>
      <trkpt lat="42.950350" lon="-5.661087">
        <ele>1064.369</ele>
        <time>2021-10-14T10:09:21Z</time>
      </trkpt>
      <trkpt lat="42.950532" lon="-5.661186">
        <ele>1064.296</ele>
        <time>2021-10-14T10:09:22Z</time>
      </trkpt>
      <trkpt lat="42.950712" lon="-5.661284">
        <ele>1064.579</ele>
        <time>2021-10-14T10:09:23Z</time>
      </trkpt>
      <trkpt lat="42.951064" lon="-5.661467">
        <ele>1065.646</ele>
        <time>2021-10-14T10:09:25Z</time>
      </trkpt>
      <trkpt lat="42.951239" lon="-5.661558">
        <ele>1066.098</ele>
        <time>2021-10-14T10:09:26Z</time>
      </trkpt>
      <trkpt lat="42.951567" lon="-5.661730">
        <ele>1065.977</ele>
        <time>2021-10-14T10:09:28Z</time>
      </trkpt>
      <trkpt lat="42.951893" lon="-5.661907">
        <ele>1066.887</ele>
        <time>2021-10-14T10:09:30Z</time>
      </trkpt>
      <trkpt lat="42.952220" lon="-5.662084">
        <ele>1067.142</ele>
        <time>2021-10-14T10:09:32Z</time>
      </trkpt>
      <trkpt lat="42.952538" lon="-5.662253">
        <ele>1067.526</ele>
        <time>2021-10-14T10:09:34Z</time>
      </trkpt>
      <trkpt lat="42.952869" lon="-5.662423">
        <ele>1067.408</ele>
        <time>2021-10-14T10:09:36Z</time>
      </trkpt>
      <trkpt lat="42.953203" lon="-5.662597">
        <ele>1068.486</ele>
        <time>2021-10-14T10:09:38Z</time>
      </trkpt>
      <trkpt lat="42.953541" lon="-5.662779">
        <ele>1069.154</ele>
        <time>2021-10-14T10:09:40Z</time>
      </trkpt>
      <trkpt lat="42.953888" lon="-5.662959">
        <ele>1069.952</ele>
        <time>2021-10-14T10:09:42Z</time>
      </trkpt>
      <trkpt lat="42.954065" lon="-5.663050">
        <ele>1069.329</ele>
        <time>2021-10-14T10:09:43Z</time>
      </trkpt>
      <trkpt lat="42.954419" lon="-5.663235">
        <ele>1070.282</ele>
        <time>2021-10-14T10:09:45Z</time>
      </trkpt>
      <trkpt lat="42.954596" lon="-5.663332">
        <ele>1070.219</ele>
        <time>2021-10-14T10:09:46Z</time>
      </trkpt>
      <trkpt lat="42.954956" lon="-5.663525">
        <ele>1070.671</ele>
        <time>2021-10-14T10:09:48Z</time>
      </trkpt>
      <trkpt lat="42.955140" lon="-5.663620">
        <ele>1070.960</ele>
        <time>2021-10-14T10:09:49Z</time>
      </trkpt>
      <trkpt lat="42.955322" lon="-5.663718">
        <ele>1071.367</ele>
        <time>2021-10-14T10:09:50Z</time>
      </trkpt>
      <trkpt lat="42.955674" lon="-5.663905">
        <ele>1072.081</ele>
        <time>2021-10-14T10:09:52Z</time>
      </trkpt>
      <trkpt lat="42.955841" lon="-5.663990">
        <ele>1072.019</ele>
        <time>2021-10-14T10:09:53Z</time>
      </trkpt>
      <trkpt lat="42.956149" lon="-5.664151">
        <ele>1072.008</ele>
        <time>2021-10-14T10:09:55Z</time>
      </trkpt>
      <trkpt lat="42.956287" lon="-5.664226">
        <ele>1072.464</ele>
        <time>2021-10-14T10:09:56Z</time>
      </trkpt>
      <trkpt lat="42.956536" lon="-5.664359">
        <ele>1072.662</ele>
        <time>2021-10-14T10:09:58Z</time>
      </trkpt>
      <trkpt lat="42.956803" lon="-5.664489">
        <ele>1072.780</ele>
        <time>2021-10-14T10:10:00Z</time>
      </trkpt>
      <trkpt lat="42.957089" lon="-5.664609">
        <ele>1072.857</ele>
        <time>2021-10-14T10:10:02Z</time>
      </trkpt>
      <trkpt lat="42.957385" lon="-5.664699">
        <ele>1073.180</ele>
        <time>2021-10-14T10:10:04Z</time>
      </trkpt>
      <trkpt lat="42.957679" lon="-5.664748">
        <ele>1074.577</ele>
        <time>2021-10-14T10:10:06Z</time>
      </trkpt>
      <trkpt lat="42.957834" lon="-5.664764">
        <ele>1075.269</ele>
        <time>2021-10-14T10:10:07Z</time>
      </trkpt>
      <trkpt lat="42.957995" lon="-5.664783">
        <ele>1075.398</ele>
        <time>2021-10-14T10:10:08Z</time>
      </trkpt>
      <trkpt lat="42.958163" lon="-5.664808">
        <ele>1075.074</ele>
        <time>2021-10-14T10:10:09Z</time>
      </trkpt>
      <trkpt lat="42.958508" lon="-5.664870">
        <ele>1076.456</ele>
        <time>2021-10-14T10:10:11Z</time>
      </trkpt>
      <trkpt lat="42.958686" lon="-5.664922">
        <ele>1076.121</ele>
        <time>2021-10-14T10:10:12Z</time>
      </trkpt>
      <trkpt lat="42.958866" lon="-5.664986">
        <ele>1076.408</ele>
        <time>2021-10-14T10:10:13Z</time>
      </trkpt>
      <trkpt lat="42.959043" lon="-5.665063">
        <ele>1076.925</ele>
        <time>2021-10-14T10:10:14Z</time>
      </trkpt>
      <trkpt lat="42.959222" lon="-5.665147">
        <ele>1077.173</ele>
        <time>2021-10-14T10:10:15Z</time>
      </trkpt>
      <trkpt lat="42.959580" lon="-5.665307">
        <ele>1077.881</ele>
        <time>2021-10-14T10:10:17Z</time>
      </trkpt>
      <trkpt lat="42.959924" lon="-5.665461">
        <ele>1078.688</ele>
        <time>2021-10-14T10:10:19Z</time>
      </trkpt>
      <trkpt lat="42.960082" lon="-5.665533">
        <ele>1079.281</ele>
        <time>2021-10-14T10:10:20Z</time>
      </trkpt>
      <trkpt lat="42.960391" lon="-5.665668">
        <ele>1079.548</ele>
        <time>2021-10-14T10:10:22Z</time>
      </trkpt>
      <trkpt lat="42.960695" lon="-5.665800">
        <ele>1080.030</ele>
        <time>2021-10-14T10:10:24Z</time>
      </trkpt>
      <trkpt lat="42.960855" lon="-5.665870">
        <ele>1080.049</ele>
        <time>2021-10-14T10:10:25Z</time>
      </trkpt>
      <trkpt lat="42.961013" lon="-5.665940">
        <ele>1080.215</ele>
        <time>2021-10-14T10:10:26Z</time>
      </trkpt>
      <trkpt lat="42.961336" lon="-5.666088">
        <ele>1081.365</ele>
        <time>2021-10-14T10:10:28Z</time>
      </trkpt>
      <trkpt lat="42.961662" lon="-5.666239">
        <ele>1081.911</ele>
        <time>2021-10-14T10:10:30Z</time>
      </trkpt>
      <trkpt lat="42.961974" lon="-5.666377">
        <ele>1081.708</ele>
        <time>2021-10-14T10:10:32Z</time>
      </trkpt>
      <trkpt lat="42.962268" lon="-5.666503">
        <ele>1082.659</ele>
        <time>2021-10-14T10:10:34Z</time>
      </trkpt>
      <trkpt lat="42.962558" lon="-5.666631">
        <ele>1083.197</ele>
        <time>2021-10-14T10:10:36Z</time>
      </trkpt>
      <trkpt lat="42.962705" lon="-5.666698">
        <ele>1083.125</ele>
        <time>2021-10-14T10:10:37Z</time>
      </trkpt>
      <trkpt lat="42.962856" lon="-5.666768">
        <ele>1083.512</ele>
        <time>2021-10-14T10:10:38Z</time>
      </trkpt>
      <trkpt lat="42.963007" lon="-5.666840">
        <ele>1083.555</ele>
        <time>2021-10-14T10:10:39Z</time>
      </trkpt>
      <trkpt lat="42.963158" lon="-5.666908">
        <ele>1083.572</ele>
        <time>2021-10-14T10:10:40Z</time>
      </trkpt>
      <trkpt lat="42.963310" lon="-5.666976">
        <ele>1083.754</ele>
        <time>2021-10-14T10:10:41Z</time>
      </trkpt>
      <trkpt lat="42.963596" lon="-5.667098">
        <ele>1084.043</ele>
        <time>2021-10-14T10:10:43Z</time>
      </trkpt>
      <trkpt lat="42.963883" lon="-5.667221">
        <ele>1083.264</ele>
        <time>2021-10-14T10:10:45Z</time>
      </trkpt>
      <trkpt lat="42.964187" lon="-5.667358">
        <ele>1084.206</ele>
        <time>2021-10-14T10:10:47Z</time>
      </trkpt>
      <trkpt lat="42.964501" lon="-5.667504">
        <ele>1085.316</ele>
        <time>2021-10-14T10:10:49Z</time>
      </trkpt>
      <trkpt lat="42.964831" lon="-5.667655">
        <ele>1085.908</ele>
        <time>2021-10-14T10:10:51Z</time>
      </trkpt>
      <trkpt lat="42.964999" lon="-5.667731">
        <ele>1086.314</ele>
        <time>2021-10-14T10:10:52Z</time>
      </trkpt>
      <trkpt lat="42.965340" lon="-5.667878">
        <ele>1087.762</ele>
        <time>2021-10-14T10:10:54Z</time>
      </trkpt>
      <trkpt lat="42.965513" lon="-5.667948">
        <ele>1089.180</ele>
        <time>2021-10-14T10:10:55Z</time>
      </trkpt>
      <trkpt lat="42.965871" lon="-5.668043">
        <ele>1088.697</ele>
        <time>2021-10-14T10:10:57Z</time>
      </trkpt>
      <trkpt lat="42.966048" lon="-5.668057">
        <ele>1089.250</ele>
        <time>2021-10-14T10:10:58Z</time>
      </trkpt>
      <trkpt lat="42.966213" lon="-5.668048">
        <ele>1090.257</ele>
        <time>2021-10-14T10:10:59Z</time>
      </trkpt>
      <trkpt lat="42.966364" lon="-5.668018">
        <ele>1090.149</ele>
        <time>2021-10-14T10:11:00Z</time>
      </trkpt>
      <trkpt lat="42.966604" lon="-5.667935">
        <ele>1090.518</ele>
        <time>2021-10-14T10:11:02Z</time>
      </trkpt>
      <trkpt lat="42.966694" lon="-5.667895">
        <ele>1089.242</ele>
        <time>2021-10-14T10:11:03Z</time>
      </trkpt>
      <trkpt lat="42.966767" lon="-5.667862">
        <ele>1089.222</ele>
        <time>2021-10-14T10:11:04Z</time>
      </trkpt>
      <trkpt lat="42.966826" lon="-5.667831">
        <ele>1089.614</ele>
        <time>2021-10-14T10:11:05Z</time>
      </trkpt>
      <trkpt lat="42.966920" lon="-5.667777">
        <ele>1089.708</ele>
        <time>2021-10-14T10:11:07Z</time>
      </trkpt>
      <trkpt lat="42.966976" lon="-5.667741">
        <ele>1089.612</ele>
        <time>2021-10-14T10:11:09Z</time>
      </trkpt>
      <trkpt lat="42.967017" lon="-5.667707">
        <ele>1089.640</ele>
        <time>2021-10-14T10:11:11Z</time>
      </trkpt>
      <trkpt lat="42.967098" lon="-5.667664">
        <ele>1088.618</ele>
        <time>2021-10-14T10:12:07Z</time>
      </trkpt>
      <trkpt lat="42.967178" lon="-5.667645">
        <ele>1088.685</ele>
        <time>2021-10-14T10:12:08Z</time>
      </trkpt>
      <trkpt lat="42.967313" lon="-5.667637">
        <ele>1088.668</ele>
        <time>2021-10-14T10:12:10Z</time>
      </trkpt>
      <trkpt lat="42.967451" lon="-5.667643">
        <ele>1091.385</ele>
        <time>2021-10-14T10:12:12Z</time>
      </trkpt>
      <trkpt lat="42.967589" lon="-5.667656">
        <ele>1090.837</ele>
        <time>2021-10-14T10:12:14Z</time>
      </trkpt>
      <trkpt lat="42.967718" lon="-5.667680">
        <ele>1090.496</ele>
        <time>2021-10-14T10:12:16Z</time>
      </trkpt>
      <trkpt lat="42.967784" lon="-5.667696">
        <ele>1090.241</ele>
        <time>2021-10-14T10:12:17Z</time>
      </trkpt>
      <trkpt lat="42.967853" lon="-5.667714">
        <ele>1090.181</ele>
        <time>2021-10-14T10:12:18Z</time>
      </trkpt>
      <trkpt lat="42.967995" lon="-5.667759">
        <ele>1089.509</ele>
        <time>2021-10-14T10:12:20Z</time>
      </trkpt>
      <trkpt lat="42.968134" lon="-5.667798">
        <ele>1090.208</ele>
        <time>2021-10-14T10:12:22Z</time>
      </trkpt>
      <trkpt lat="42.968205" lon="-5.667828">
        <ele>1089.872</ele>
        <time>2021-10-14T10:12:23Z</time>
      </trkpt>
      <trkpt lat="42.968360" lon="-5.667928">
        <ele>1089.570</ele>
        <time>2021-10-14T10:12:25Z</time>
      </trkpt>
      <trkpt lat="42.968450" lon="-5.667998">
        <ele>1089.538</ele>
        <time>2021-10-14T10:12:26Z</time>
      </trkpt>
      <trkpt lat="42.968646" lon="-5.668161">
        <ele>1089.615</ele>
        <time>2021-10-14T10:12:28Z</time>
      </trkpt>
      <trkpt lat="42.968893" lon="-5.668375">
        <ele>1090.188</ele>
        <time>2021-10-14T10:12:30Z</time>
      </trkpt>
      <trkpt lat="42.969035" lon="-5.668495">
        <ele>1090.225</ele>
        <time>2021-10-14T10:12:31Z</time>
      </trkpt>
      <trkpt lat="42.969169" lon="-5.668608">
        <ele>1090.497</ele>
        <time>2021-10-14T10:12:32Z</time>
      </trkpt>
      <trkpt lat="42.969412" lon="-5.668814">
        <ele>1091.946</ele>
        <time>2021-10-14T10:12:34Z</time>
      </trkpt>
      <trkpt lat="42.969544" lon="-5.668926">
        <ele>1091.785</ele>
        <time>2021-10-14T10:12:35Z</time>
      </trkpt>
      <trkpt lat="42.969818" lon="-5.669158">
        <ele>1091.989</ele>
        <time>2021-10-14T10:12:37Z</time>
      </trkpt>
      <trkpt lat="42.970083" lon="-5.669381">
        <ele>1093.217</ele>
        <time>2021-10-14T10:12:39Z</time>
      </trkpt>
      <trkpt lat="42.970336" lon="-5.669596">
        <ele>1093.908</ele>
        <time>2021-10-14T10:12:41Z</time>
      </trkpt>
      <trkpt lat="42.970461" lon="-5.669701">
        <ele>1094.326</ele>
        <time>2021-10-14T10:12:42Z</time>
      </trkpt>
      <trkpt lat="42.970586" lon="-5.669808">
        <ele>1094.844</ele>
        <time>2021-10-14T10:12:43Z</time>
      </trkpt>
      <trkpt lat="42.970845" lon="-5.670023">
        <ele>1095.862</ele>
        <time>2021-10-14T10:12:45Z</time>
      </trkpt>
      <trkpt lat="42.971110" lon="-5.670255">
        <ele>1094.839</ele>
        <time>2021-10-14T10:12:47Z</time>
      </trkpt>
      <trkpt lat="42.971248" lon="-5.670374">
        <ele>1095.572</ele>
        <time>2021-10-14T10:12:48Z</time>
      </trkpt>
      <trkpt lat="42.971538" lon="-5.670606">
        <ele>1096.069</ele>
        <time>2021-10-14T10:12:50Z</time>
      </trkpt>
      <trkpt lat="42.971828" lon="-5.670844">
        <ele>1096.591</ele>
        <time>2021-10-14T10:12:52Z</time>
      </trkpt>
      <trkpt lat="42.972083" lon="-5.671059">
        <ele>1096.290</ele>
        <time>2021-10-14T10:12:54Z</time>
      </trkpt>
      <trkpt lat="42.972320" lon="-5.671251">
        <ele>1097.486</ele>
        <time>2021-10-14T10:12:56Z</time>
      </trkpt>
      <trkpt lat="42.972565" lon="-5.671445">
        <ele>1097.460</ele>
        <time>2021-10-14T10:12:58Z</time>
      </trkpt>
      <trkpt lat="42.972821" lon="-5.671669">
        <ele>1098.626</ele>
        <time>2021-10-14T10:13:00Z</time>
      </trkpt>
      <trkpt lat="42.973068" lon="-5.671928">
        <ele>1099.808</ele>
        <time>2021-10-14T10:13:02Z</time>
      </trkpt>
      <trkpt lat="42.973306" lon="-5.672221">
        <ele>1099.316</ele>
        <time>2021-10-14T10:13:04Z</time>
      </trkpt>
      <trkpt lat="42.973556" lon="-5.672527">
        <ele>1099.094</ele>
        <time>2021-10-14T10:13:06Z</time>
      </trkpt>
      <trkpt lat="42.973691" lon="-5.672694">
        <ele>1098.622</ele>
        <time>2021-10-14T10:13:07Z</time>
      </trkpt>
      <trkpt lat="42.973783" lon="-5.672889">
        <ele>1098.469</ele>
        <time>2021-10-14T10:13:08Z</time>
      </trkpt>
      <trkpt lat="42.973838" lon="-5.673106">
        <ele>1097.642</ele>
        <time>2021-10-14T10:13:09Z</time>
      </trkpt>
      <trkpt lat="42.973901" lon="-5.673564">
        <ele>1097.699</ele>
        <time>2021-10-14T10:13:11Z</time>
      </trkpt>
      <trkpt lat="42.973918" lon="-5.674065">
        <ele>1097.941</ele>
        <time>2021-10-14T10:13:13Z</time>
      </trkpt>
      <trkpt lat="42.973919" lon="-5.674329">
        <ele>1097.070</ele>
        <time>2021-10-14T10:13:14Z</time>
      </trkpt>
      <trkpt lat="42.973922" lon="-5.674858">
        <ele>1097.055</ele>
        <time>2021-10-14T10:13:16Z</time>
      </trkpt>
      <trkpt lat="42.973926" lon="-5.675119">
        <ele>1097.007</ele>
        <time>2021-10-14T10:13:17Z</time>
      </trkpt>
      <trkpt lat="42.973955" lon="-5.675622">
        <ele>1097.617</ele>
        <time>2021-10-14T10:13:19Z</time>
      </trkpt>
      <trkpt lat="42.973982" lon="-5.675852">
        <ele>1097.408</ele>
        <time>2021-10-14T10:13:20Z</time>
      </trkpt>
      <trkpt lat="42.974070" lon="-5.676265">
        <ele>1099.053</ele>
        <time>2021-10-14T10:13:22Z</time>
      </trkpt>
      <trkpt lat="42.974211" lon="-5.676642">
        <ele>1100.491</ele>
        <time>2021-10-14T10:13:24Z</time>
      </trkpt>
      <trkpt lat="42.974391" lon="-5.676986">
        <ele>1102.559</ele>
        <time>2021-10-14T10:13:26Z</time>
      </trkpt>
      <trkpt lat="42.974499" lon="-5.677151">
        <ele>1103.376</ele>
        <time>2021-10-14T10:13:27Z</time>
      </trkpt>
      <trkpt lat="42.974615" lon="-5.677320">
        <ele>1104.489</ele>
        <time>2021-10-14T10:13:28Z</time>
      </trkpt>
      <trkpt lat="42.974874" lon="-5.677684">
        <ele>1105.486</ele>
        <time>2021-10-14T10:13:30Z</time>
      </trkpt>
      <trkpt lat="42.975027" lon="-5.677899">
        <ele>1106.668</ele>
        <time>2021-10-14T10:13:31Z</time>
      </trkpt>
      <trkpt lat="42.975187" lon="-5.678121">
        <ele>1108.087</ele>
        <time>2021-10-14T10:13:32Z</time>
      </trkpt>
      <trkpt lat="42.975476" lon="-5.678536">
        <ele>1109.634</ele>
        <time>2021-10-14T10:13:34Z</time>
      </trkpt>
      <trkpt lat="42.975736" lon="-5.678926">
        <ele>1110.655</ele>
        <time>2021-10-14T10:13:36Z</time>
      </trkpt>
      <trkpt lat="42.975965" lon="-5.679334">
        <ele>1110.710</ele>
        <time>2021-10-14T10:13:38Z</time>
      </trkpt>
      <trkpt lat="42.976061" lon="-5.679556">
        <ele>1111.108</ele>
        <time>2021-10-14T10:13:39Z</time>
      </trkpt>
      <trkpt lat="42.976203" lon="-5.680028">
        <ele>1110.491</ele>
        <time>2021-10-14T10:13:41Z</time>
      </trkpt>
      <trkpt lat="42.976294" lon="-5.680520">
        <ele>1110.019</ele>
        <time>2021-10-14T10:13:43Z</time>
      </trkpt>
      <trkpt lat="42.976357" lon="-5.681025">
        <ele>1109.647</ele>
        <time>2021-10-14T10:13:45Z</time>
      </trkpt>
      <trkpt lat="42.976419" lon="-5.681528">
        <ele>1109.984</ele>
        <time>2021-10-14T10:13:47Z</time>
      </trkpt>
      <trkpt lat="42.976449" lon="-5.681782">
        <ele>1109.967</ele>
        <time>2021-10-14T10:13:48Z</time>
      </trkpt>
      <trkpt lat="42.976511" lon="-5.682285">
        <ele>1110.944</ele>
        <time>2021-10-14T10:13:50Z</time>
      </trkpt>
      <trkpt lat="42.976564" lon="-5.682785">
        <ele>1110.476</ele>
        <time>2021-10-14T10:13:52Z</time>
      </trkpt>
      <trkpt lat="42.976593" lon="-5.683032">
        <ele>1110.455</ele>
        <time>2021-10-14T10:13:53Z</time>
      </trkpt>
      <trkpt lat="42.976656" lon="-5.683523">
        <ele>1110.187</ele>
        <time>2021-10-14T10:13:55Z</time>
      </trkpt>
      <trkpt lat="42.976685" lon="-5.683774">
        <ele>1110.242</ele>
        <time>2021-10-14T10:13:56Z</time>
      </trkpt>
      <trkpt lat="42.976718" lon="-5.684025">
        <ele>1110.726</ele>
        <time>2021-10-14T10:13:57Z</time>
      </trkpt>
      <trkpt lat="42.976800" lon="-5.684535">
        <ele>1111.508</ele>
        <time>2021-10-14T10:13:59Z</time>
      </trkpt>
      <trkpt lat="42.976855" lon="-5.684797">
        <ele>1113.386</ele>
        <time>2021-10-14T10:14:00Z</time>
      </trkpt>
      <trkpt lat="42.976922" lon="-5.685058">
        <ele>1114.244</ele>
        <time>2021-10-14T10:14:01Z</time>
      </trkpt>
      <trkpt lat="42.977095" lon="-5.685559">
        <ele>1115.252</ele>
        <time>2021-10-14T10:14:03Z</time>
      </trkpt>
      <trkpt lat="42.977198" lon="-5.685797">
        <ele>1115.819</ele>
        <time>2021-10-14T10:14:04Z</time>
      </trkpt>
      <trkpt lat="42.977309" lon="-5.686024">
        <ele>1116.182</ele>
        <time>2021-10-14T10:14:05Z</time>
      </trkpt>
      <trkpt lat="42.977551" lon="-5.686441">
        <ele>1117.299</ele>
        <time>2021-10-14T10:14:07Z</time>
      </trkpt>
      <trkpt lat="42.977824" lon="-5.686809">
        <ele>1117.511</ele>
        <time>2021-10-14T10:14:09Z</time>
      </trkpt>
      <trkpt lat="42.978120" lon="-5.687131">
        <ele>1118.840</ele>
        <time>2021-10-14T10:14:11Z</time>
      </trkpt>
      <trkpt lat="42.978278" lon="-5.687278">
        <ele>1119.641</ele>
        <time>2021-10-14T10:14:12Z</time>
      </trkpt>
      <trkpt lat="42.978602" lon="-5.687542">
        <ele>1120.881</ele>
        <time>2021-10-14T10:14:14Z</time>
      </trkpt>
      <trkpt lat="42.978937" lon="-5.687776">
        <ele>1121.209</ele>
        <time>2021-10-14T10:14:16Z</time>
      </trkpt>
      <trkpt lat="42.979275" lon="-5.688014">
        <ele>1120.808</ele>
        <time>2021-10-14T10:14:18Z</time>
      </trkpt>
      <trkpt lat="42.979448" lon="-5.688139">
        <ele>1121.022</ele>
        <time>2021-10-14T10:14:19Z</time>
      </trkpt>
      <trkpt lat="42.979792" lon="-5.688381">
        <ele>1122.130</ele>
        <time>2021-10-14T10:14:21Z</time>
      </trkpt>
      <trkpt lat="42.979967" lon="-5.688500">
        <ele>1122.448</ele>
        <time>2021-10-14T10:14:22Z</time>
      </trkpt>
      <trkpt lat="42.980317" lon="-5.688746">
        <ele>1123.055</ele>
        <time>2021-10-14T10:14:24Z</time>
      </trkpt>
      <trkpt lat="42.980492" lon="-5.688868">
        <ele>1123.688</ele>
        <time>2021-10-14T10:14:25Z</time>
      </trkpt>
      <trkpt lat="42.980830" lon="-5.689104">
        <ele>1123.655</ele>
        <time>2021-10-14T10:14:27Z</time>
      </trkpt>
      <trkpt lat="42.981001" lon="-5.689212">
        <ele>1123.257</ele>
        <time>2021-10-14T10:14:28Z</time>
      </trkpt>
      <trkpt lat="42.981167" lon="-5.689307">
        <ele>1123.436</ele>
        <time>2021-10-14T10:14:29Z</time>
      </trkpt>
      <trkpt lat="42.981497" lon="-5.689473">
        <ele>1123.564</ele>
        <time>2021-10-14T10:14:31Z</time>
      </trkpt>
      <trkpt lat="42.981661" lon="-5.689556">
        <ele>1124.306</ele>
        <time>2021-10-14T10:14:32Z</time>
      </trkpt>
      <trkpt lat="42.981821" lon="-5.689648">
        <ele>1125.016</ele>
        <time>2021-10-14T10:14:33Z</time>
      </trkpt>
      <trkpt lat="42.982122" lon="-5.689889">
        <ele>1125.008</ele>
        <time>2021-10-14T10:14:35Z</time>
      </trkpt>
      <trkpt lat="42.982260" lon="-5.690041">
        <ele>1125.414</ele>
        <time>2021-10-14T10:14:36Z</time>
      </trkpt>
      <trkpt lat="42.982388" lon="-5.690209">
        <ele>1124.822</ele>
        <time>2021-10-14T10:14:37Z</time>
      </trkpt>
      <trkpt lat="42.982618" lon="-5.690536">
        <ele>1124.620</ele>
        <time>2021-10-14T10:14:39Z</time>
      </trkpt>
      <trkpt lat="42.982853" lon="-5.690823">
        <ele>1125.657</ele>
        <time>2021-10-14T10:14:41Z</time>
      </trkpt>
      <trkpt lat="42.982989" lon="-5.690964">
        <ele>1125.890</ele>
        <time>2021-10-14T10:14:42Z</time>
      </trkpt>
      <trkpt lat="42.983290" lon="-5.691203">
        <ele>1126.287</ele>
        <time>2021-10-14T10:14:44Z</time>
      </trkpt>
      <trkpt lat="42.983599" lon="-5.691424">
        <ele>1127.229</ele>
        <time>2021-10-14T10:14:46Z</time>
      </trkpt>
      <trkpt lat="42.983749" lon="-5.691540">
        <ele>1127.698</ele>
        <time>2021-10-14T10:14:47Z</time>
      </trkpt>
      <trkpt lat="42.983897" lon="-5.691663">
        <ele>1128.431</ele>
        <time>2021-10-14T10:14:48Z</time>
      </trkpt>
      <trkpt lat="42.984164" lon="-5.691951">
        <ele>1128.861</ele>
        <time>2021-10-14T10:14:50Z</time>
      </trkpt>
      <trkpt lat="42.984284" lon="-5.692129">
        <ele>1128.707</ele>
        <time>2021-10-14T10:14:51Z</time>
      </trkpt>
      <trkpt lat="42.984487" lon="-5.692527">
        <ele>1130.108</ele>
        <time>2021-10-14T10:14:53Z</time>
      </trkpt>
      <trkpt lat="42.984630" lon="-5.692987">
        <ele>1130.881</ele>
        <time>2021-10-14T10:14:55Z</time>
      </trkpt>
      <trkpt lat="42.984673" lon="-5.693244">
        <ele>1132.079</ele>
        <time>2021-10-14T10:14:56Z</time>
      </trkpt>
      <trkpt lat="42.984692" lon="-5.693752">
        <ele>1132.227</ele>
        <time>2021-10-14T10:14:58Z</time>
      </trkpt>
      <trkpt lat="42.984679" lon="-5.694016">
        <ele>1132.474</ele>
        <time>2021-10-14T10:14:59Z</time>
      </trkpt>
      <trkpt lat="42.984655" lon="-5.694283">
        <ele>1133.397</ele>
        <time>2021-10-14T10:15:00Z</time>
      </trkpt>
      <trkpt lat="42.984600" lon="-5.694825">
        <ele>1133.784</ele>
        <time>2021-10-14T10:15:02Z</time>
      </trkpt>
      <trkpt lat="42.984552" lon="-5.695387">
        <ele>1134.166</ele>
        <time>2021-10-14T10:15:04Z</time>
      </trkpt>
      <trkpt lat="42.984528" lon="-5.695680">
        <ele>1134.325</ele>
        <time>2021-10-14T10:15:05Z</time>
      </trkpt>
      <trkpt lat="42.984478" lon="-5.696272">
        <ele>1135.752</ele>
        <time>2021-10-14T10:15:07Z</time>
      </trkpt>
      <trkpt lat="42.984464" lon="-5.696575">
        <ele>1136.453</ele>
        <time>2021-10-14T10:15:08Z</time>
      </trkpt>
      <trkpt lat="42.984464" lon="-5.696873">
        <ele>1137.008</ele>
        <time>2021-10-14T10:15:09Z</time>
      </trkpt>
      <trkpt lat="42.984481" lon="-5.697163">
        <ele>1137.708</ele>
        <time>2021-10-14T10:15:10Z</time>
      </trkpt>
      <trkpt lat="42.984568" lon="-5.697706">
        <ele>1138.513</ele>
        <time>2021-10-14T10:15:12Z</time>
      </trkpt>
      <trkpt lat="42.984628" lon="-5.697955">
        <ele>1139.551</ele>
        <time>2021-10-14T10:15:13Z</time>
      </trkpt>
      <trkpt lat="42.984779" lon="-5.698430">
        <ele>1140.729</ele>
        <time>2021-10-14T10:15:15Z</time>
      </trkpt>
      <trkpt lat="42.984867" lon="-5.698665">
        <ele>1140.766</ele>
        <time>2021-10-14T10:15:16Z</time>
      </trkpt>
      <trkpt lat="42.984958" lon="-5.698902">
        <ele>1140.739</ele>
        <time>2021-10-14T10:15:17Z</time>
      </trkpt>
      <trkpt lat="42.985140" lon="-5.699377">
        <ele>1141.326</ele>
        <time>2021-10-14T10:15:19Z</time>
      </trkpt>
      <trkpt lat="42.985233" lon="-5.699623">
        <ele>1141.878</ele>
        <time>2021-10-14T10:15:20Z</time>
      </trkpt>
      <trkpt lat="42.985325" lon="-5.699869">
        <ele>1142.497</ele>
        <time>2021-10-14T10:15:21Z</time>
      </trkpt>
      <trkpt lat="42.985501" lon="-5.700373">
        <ele>1144.066</ele>
        <time>2021-10-14T10:15:23Z</time>
      </trkpt>
      <trkpt lat="42.985580" lon="-5.700628">
        <ele>1144.529</ele>
        <time>2021-10-14T10:15:24Z</time>
      </trkpt>
      <trkpt lat="42.985642" lon="-5.700875">
        <ele>1145.021</ele>
        <time>2021-10-14T10:15:25Z</time>
      </trkpt>
      <trkpt lat="42.985684" lon="-5.701121">
        <ele>1145.508</ele>
        <time>2021-10-14T10:15:26Z</time>
      </trkpt>
      <trkpt lat="42.985704" lon="-5.701597">
        <ele>1146.574</ele>
        <time>2021-10-14T10:15:28Z</time>
      </trkpt>
      <trkpt lat="42.985638" lon="-5.702085">
        <ele>1148.372</ele>
        <time>2021-10-14T10:15:30Z</time>
      </trkpt>
      <trkpt lat="42.985479" lon="-5.702570">
        <ele>1149.050</ele>
        <time>2021-10-14T10:15:32Z</time>
      </trkpt>
      <trkpt lat="42.985253" lon="-5.703012">
        <ele>1149.737</ele>
        <time>2021-10-14T10:15:34Z</time>
      </trkpt>
      <trkpt lat="42.985126" lon="-5.703229">
        <ele>1150.410</ele>
        <time>2021-10-14T10:15:35Z</time>
      </trkpt>
      <trkpt lat="42.984893" lon="-5.703683">
        <ele>1150.687</ele>
        <time>2021-10-14T10:15:37Z</time>
      </trkpt>
      <trkpt lat="42.984742" lon="-5.704183">
        <ele>1151.119</ele>
        <time>2021-10-14T10:15:39Z</time>
      </trkpt>
      <trkpt lat="42.984661" lon="-5.704691">
        <ele>1151.328</ele>
        <time>2021-10-14T10:15:41Z</time>
      </trkpt>
      <trkpt lat="42.984604" lon="-5.705203">
        <ele>1152.675</ele>
        <time>2021-10-14T10:15:43Z</time>
      </trkpt>
      <trkpt lat="42.984548" lon="-5.705719">
        <ele>1151.928</ele>
        <time>2021-10-14T10:15:45Z</time>
      </trkpt>
      <trkpt lat="42.984501" lon="-5.706250">
        <ele>1151.520</ele>
        <time>2021-10-14T10:15:47Z</time>
      </trkpt>
      <trkpt lat="42.984481" lon="-5.706807">
        <ele>1152.508</ele>
        <time>2021-10-14T10:15:49Z</time>
      </trkpt>
      <trkpt lat="42.984490" lon="-5.707093">
        <ele>1153.575</ele>
        <time>2021-10-14T10:15:50Z</time>
      </trkpt>
      <trkpt lat="42.984513" lon="-5.707668">
        <ele>1155.773</ele>
        <time>2021-10-14T10:15:52Z</time>
      </trkpt>
      <trkpt lat="42.984523" lon="-5.707955">
        <ele>1156.021</ele>
        <time>2021-10-14T10:15:53Z</time>
      </trkpt>
      <trkpt lat="42.984529" lon="-5.708242">
        <ele>1156.428</ele>
        <time>2021-10-14T10:15:54Z</time>
      </trkpt>
      <trkpt lat="42.984543" lon="-5.708803">
        <ele>1158.681</ele>
        <time>2021-10-14T10:15:56Z</time>
      </trkpt>
      <trkpt lat="42.984557" lon="-5.709344">
        <ele>1160.018</ele>
        <time>2021-10-14T10:15:58Z</time>
      </trkpt>
      <trkpt lat="42.984564" lon="-5.709616">
        <ele>1160.340</ele>
        <time>2021-10-14T10:15:59Z</time>
      </trkpt>
      <trkpt lat="42.984583" lon="-5.710156">
        <ele>1160.449</ele>
        <time>2021-10-14T10:16:01Z</time>
      </trkpt>
      <trkpt lat="42.984595" lon="-5.710430">
        <ele>1161.162</ele>
        <time>2021-10-14T10:16:02Z</time>
      </trkpt>
      <trkpt lat="42.984615" lon="-5.710969">
        <ele>1162.083</ele>
        <time>2021-10-14T10:16:04Z</time>
      </trkpt>
      <trkpt lat="42.984623" lon="-5.711239">
        <ele>1162.711</ele>
        <time>2021-10-14T10:16:05Z</time>
      </trkpt>
      <trkpt lat="42.984627" lon="-5.711758">
        <ele>1161.908</ele>
        <time>2021-10-14T10:16:07Z</time>
      </trkpt>
      <trkpt lat="42.984623" lon="-5.711995">
        <ele>1162.364</ele>
        <time>2021-10-14T10:16:08Z</time>
      </trkpt>
      <trkpt lat="42.984608" lon="-5.712417">
        <ele>1162.992</ele>
        <time>2021-10-14T10:16:10Z</time>
      </trkpt>
      <trkpt lat="42.984602" lon="-5.712586">
        <ele>1163.090</ele>
        <time>2021-10-14T10:16:11Z</time>
      </trkpt>
      <trkpt lat="42.984593" lon="-5.712864">
        <ele>1162.987</ele>
        <time>2021-10-14T10:16:13Z</time>
      </trkpt>
      <trkpt lat="42.984587" lon="-5.712995">
        <ele>1162.930</ele>
        <time>2021-10-14T10:16:14Z</time>
      </trkpt>
      <trkpt lat="42.984581" lon="-5.713115">
        <ele>1162.967</ele>
        <time>2021-10-14T10:16:15Z</time>
      </trkpt>
      <trkpt lat="42.984576" lon="-5.713223">
        <ele>1163.129</ele>
        <time>2021-10-14T10:16:16Z</time>
      </trkpt>
      <trkpt lat="42.984571" lon="-5.713398">
        <ele>1163.428</ele>
        <time>2021-10-14T10:16:18Z</time>
      </trkpt>
      <trkpt lat="42.984570" lon="-5.713465">
        <ele>1163.484</ele>
        <time>2021-10-14T10:16:19Z</time>
      </trkpt>
      <trkpt lat="42.984572" lon="-5.713564">
        <ele>1163.607</ele>
        <time>2021-10-14T10:16:21Z</time>
      </trkpt>
      <trkpt lat="42.984568" lon="-5.713665">
        <ele>1163.917</ele>
        <time>2021-10-14T10:16:23Z</time>
      </trkpt>
      <trkpt lat="42.984561" lon="-5.713785">
        <ele>1164.208</ele>
        <time>2021-10-14T10:16:25Z</time>
      </trkpt>
      <trkpt lat="42.984552" lon="-5.713906">
        <ele>1164.676</ele>
        <time>2021-10-14T10:16:27Z</time>
      </trkpt>
      <trkpt lat="42.984548" lon="-5.713969">
        <ele>1164.654</ele>
        <time>2021-10-14T10:16:29Z</time>
      </trkpt>
      <trkpt lat="42.984544" lon="-5.714062">
        <ele>1164.642</ele>
        <time>2021-10-14T10:16:31Z</time>
      </trkpt>
      <trkpt lat="42.984536" lon="-5.714141">
        <ele>1164.749</ele>
        <time>2021-10-14T10:16:32Z</time>
      </trkpt>
      <trkpt lat="42.984515" lon="-5.714378">
        <ele>1164.972</ele>
        <time>2021-10-14T10:16:34Z</time>
      </trkpt>
      <trkpt lat="42.984508" lon="-5.714592">
        <ele>1165.649</ele>
        <time>2021-10-14T10:16:36Z</time>
      </trkpt>
      <trkpt lat="42.984505" lon="-5.714674">
        <ele>1165.791</ele>
        <time>2021-10-14T10:16:37Z</time>
      </trkpt>
      <trkpt lat="42.984488" lon="-5.714848">
        <ele>1165.460</ele>
        <time>2021-10-14T10:16:39Z</time>
      </trkpt>
      <trkpt lat="42.984476" lon="-5.714951">
        <ele>1165.461</ele>
        <time>2021-10-14T10:16:40Z</time>
      </trkpt>
      <trkpt lat="42.984437" lon="-5.715175">
        <ele>1165.621</ele>
        <time>2021-10-14T10:16:42Z</time>
      </trkpt>
      <trkpt lat="42.984411" lon="-5.715296">
        <ele>1165.613</ele>
        <time>2021-10-14T10:16:43Z</time>
      </trkpt>
      <trkpt lat="42.984347" lon="-5.715550">
        <ele>1166.308</ele>
        <time>2021-10-14T10:16:45Z</time>
      </trkpt>
      <trkpt lat="42.984278" lon="-5.715825">
        <ele>1165.814</ele>
        <time>2021-10-14T10:16:47Z</time>
      </trkpt>
      <trkpt lat="42.984205" lon="-5.716099">
        <ele>1166.432</ele>
        <time>2021-10-14T10:16:49Z</time>
      </trkpt>
      <trkpt lat="42.984125" lon="-5.716383">
        <ele>1166.960</ele>
        <time>2021-10-14T10:16:51Z</time>
      </trkpt>
      <trkpt lat="42.984081" lon="-5.716531">
        <ele>1167.677</ele>
        <time>2021-10-14T10:16:52Z</time>
      </trkpt>
      <trkpt lat="42.983985" lon="-5.716827">
        <ele>1168.880</ele>
        <time>2021-10-14T10:16:54Z</time>
      </trkpt>
      <trkpt lat="42.983933" lon="-5.716973">
        <ele>1169.387</ele>
        <time>2021-10-14T10:16:55Z</time>
      </trkpt>
      <trkpt lat="42.983874" lon="-5.717121">
        <ele>1170.249</ele>
        <time>2021-10-14T10:16:56Z</time>
      </trkpt>
      <trkpt lat="42.983755" lon="-5.717400">
        <ele>1170.978</ele>
        <time>2021-10-14T10:16:58Z</time>
      </trkpt>
      <trkpt lat="42.983693" lon="-5.717541">
        <ele>1170.734</ele>
        <time>2021-10-14T10:16:59Z</time>
      </trkpt>
      <trkpt lat="42.983630" lon="-5.717679">
        <ele>1170.755</ele>
        <time>2021-10-14T10:17:00Z</time>
      </trkpt>
      <trkpt lat="42.983506" lon="-5.717947">
        <ele>1171.810</ele>
        <time>2021-10-14T10:17:02Z</time>
      </trkpt>
      <trkpt lat="42.983388" lon="-5.718238">
        <ele>1172.408</ele>
        <time>2021-10-14T10:17:04Z</time>
      </trkpt>
      <trkpt lat="42.983328" lon="-5.718404">
        <ele>1172.461</ele>
        <time>2021-10-14T10:17:05Z</time>
      </trkpt>
      <trkpt lat="42.983187" lon="-5.718748">
        <ele>1173.399</ele>
        <time>2021-10-14T10:17:07Z</time>
      </trkpt>
      <trkpt lat="42.983107" lon="-5.718928">
        <ele>1173.697</ele>
        <time>2021-10-14T10:17:08Z</time>
      </trkpt>
      <trkpt lat="42.982943" lon="-5.719282">
        <ele>1174.184</ele>
        <time>2021-10-14T10:17:10Z</time>
      </trkpt>
      <trkpt lat="42.982858" lon="-5.719462">
        <ele>1174.427</ele>
        <time>2021-10-14T10:17:11Z</time>
      </trkpt>
      <trkpt lat="42.982688" lon="-5.719825">
        <ele>1175.454</ele>
        <time>2021-10-14T10:17:13Z</time>
      </trkpt>
      <trkpt lat="42.982599" lon="-5.720030">
        <ele>1175.696</ele>
        <time>2021-10-14T10:17:14Z</time>
      </trkpt>
      <trkpt lat="42.982428" lon="-5.720464">
        <ele>1175.715</ele>
        <time>2021-10-14T10:17:16Z</time>
      </trkpt>
      <trkpt lat="42.982360" lon="-5.720703">
        <ele>1176.467</ele>
        <time>2021-10-14T10:17:17Z</time>
      </trkpt>
      <trkpt lat="42.982279" lon="-5.721213">
        <ele>1177.581</ele>
        <time>2021-10-14T10:17:19Z</time>
      </trkpt>
      <trkpt lat="42.982288" lon="-5.721753">
        <ele>1179.119</ele>
        <time>2021-10-14T10:17:21Z</time>
      </trkpt>
      <trkpt lat="42.982399" lon="-5.722287">
        <ele>1179.708</ele>
        <time>2021-10-14T10:17:23Z</time>
      </trkpt>
      <trkpt lat="42.982609" lon="-5.722794">
        <ele>1180.334</ele>
        <time>2021-10-14T10:17:25Z</time>
      </trkpt>
      <trkpt lat="42.982740" lon="-5.723036">
        <ele>1180.942</ele>
        <time>2021-10-14T10:17:26Z</time>
      </trkpt>
      <trkpt lat="42.983008" lon="-5.723504">
        <ele>1182.560</ele>
        <time>2021-10-14T10:17:28Z</time>
      </trkpt>
      <trkpt lat="42.983143" lon="-5.723749">
        <ele>1183.067</ele>
        <time>2021-10-14T10:17:29Z</time>
      </trkpt>
      <trkpt lat="42.983394" lon="-5.724212">
        <ele>1184.220</ele>
        <time>2021-10-14T10:17:31Z</time>
      </trkpt>
      <trkpt lat="42.983519" lon="-5.724451">
        <ele>1184.737</ele>
        <time>2021-10-14T10:17:32Z</time>
      </trkpt>
      <trkpt lat="42.983760" lon="-5.724909">
        <ele>1185.269</ele>
        <time>2021-10-14T10:17:34Z</time>
      </trkpt>
      <trkpt lat="42.984012" lon="-5.725389">
        <ele>1186.828</ele>
        <time>2021-10-14T10:17:36Z</time>
      </trkpt>
      <trkpt lat="42.984145" lon="-5.725643">
        <ele>1187.571</ele>
        <time>2021-10-14T10:17:37Z</time>
      </trkpt>
      <trkpt lat="42.984416" lon="-5.726160">
        <ele>1188.741</ele>
        <time>2021-10-14T10:17:39Z</time>
      </trkpt>
      <trkpt lat="42.984557" lon="-5.726430">
        <ele>1190.215</ele>
        <time>2021-10-14T10:17:40Z</time>
      </trkpt>
      <trkpt lat="42.984702" lon="-5.726707">
        <ele>1191.208</ele>
        <time>2021-10-14T10:17:41Z</time>
      </trkpt>
      <trkpt lat="42.984852" lon="-5.726993">
        <ele>1192.165</ele>
        <time>2021-10-14T10:17:42Z</time>
      </trkpt>
      <trkpt lat="42.985150" lon="-5.727563">
        <ele>1193.513</ele>
        <time>2021-10-14T10:17:44Z</time>
      </trkpt>
      <trkpt lat="42.985421" lon="-5.728099">
        <ele>1195.371</ele>
        <time>2021-10-14T10:17:46Z</time>
      </trkpt>
      <trkpt lat="42.985663" lon="-5.728592">
        <ele>1197.868</ele>
        <time>2021-10-14T10:17:48Z</time>
      </trkpt>
      <trkpt lat="42.985887" lon="-5.729065">
        <ele>1199.451</ele>
        <time>2021-10-14T10:17:50Z</time>
      </trkpt>
      <trkpt lat="42.986109" lon="-5.729531">
        <ele>1200.358</ele>
        <time>2021-10-14T10:17:52Z</time>
      </trkpt>
      <trkpt lat="42.986332" lon="-5.729994">
        <ele>1202.350</ele>
        <time>2021-10-14T10:17:54Z</time>
      </trkpt>
      <trkpt lat="42.986555" lon="-5.730463">
        <ele>1203.549</ele>
        <time>2021-10-14T10:17:56Z</time>
      </trkpt>
      <trkpt lat="42.986774" lon="-5.730912">
        <ele>1205.963</ele>
        <time>2021-10-14T10:17:58Z</time>
      </trkpt>
      <trkpt lat="42.986890" lon="-5.731130">
        <ele>1206.744</ele>
        <time>2021-10-14T10:17:59Z</time>
      </trkpt>
      <trkpt lat="42.987131" lon="-5.731522">
        <ele>1209.718</ele>
        <time>2021-10-14T10:18:01Z</time>
      </trkpt>
      <trkpt lat="42.987260" lon="-5.731706">
        <ele>1210.708</ele>
        <time>2021-10-14T10:18:02Z</time>
      </trkpt>
      <trkpt lat="42.987533" lon="-5.732036">
        <ele>1211.954</ele>
        <time>2021-10-14T10:18:04Z</time>
      </trkpt>
      <trkpt lat="42.987677" lon="-5.732192">
        <ele>1212.962</ele>
        <time>2021-10-14T10:18:05Z</time>
      </trkpt>
      <trkpt lat="42.987823" lon="-5.732344">
        <ele>1214.140</ele>
        <time>2021-10-14T10:18:06Z</time>
      </trkpt>
      <trkpt lat="42.988108" lon="-5.732643">
        <ele>1216.067</ele>
        <time>2021-10-14T10:18:08Z</time>
      </trkpt>
      <trkpt lat="42.988244" lon="-5.732791">
        <ele>1216.590</ele>
        <time>2021-10-14T10:18:09Z</time>
      </trkpt>
      <trkpt lat="42.988501" lon="-5.733093">
        <ele>1218.657</ele>
        <time>2021-10-14T10:18:11Z</time>
      </trkpt>
      <trkpt lat="42.988622" lon="-5.733257">
        <ele>1219.159</ele>
        <time>2021-10-14T10:18:12Z</time>
      </trkpt>
      <trkpt lat="42.988838" lon="-5.733618">
        <ele>1220.538</ele>
        <time>2021-10-14T10:18:14Z</time>
      </trkpt>
      <trkpt lat="42.988934" lon="-5.733815">
        <ele>1221.242</ele>
        <time>2021-10-14T10:18:15Z</time>
      </trkpt>
      <trkpt lat="42.989089" lon="-5.734247">
        <ele>1222.222</ele>
        <time>2021-10-14T10:18:17Z</time>
      </trkpt>
      <trkpt lat="42.989155" lon="-5.734482">
        <ele>1223.314</ele>
        <time>2021-10-14T10:18:18Z</time>
      </trkpt>
      <trkpt lat="42.989255" lon="-5.734979">
        <ele>1223.608</ele>
        <time>2021-10-14T10:18:20Z</time>
      </trkpt>
      <trkpt lat="42.989315" lon="-5.735521">
        <ele>1223.772</ele>
        <time>2021-10-14T10:18:22Z</time>
      </trkpt>
      <trkpt lat="42.989348" lon="-5.736088">
        <ele>1224.920</ele>
        <time>2021-10-14T10:18:24Z</time>
      </trkpt>
      <trkpt lat="42.989376" lon="-5.736676">
        <ele>1225.278</ele>
        <time>2021-10-14T10:18:26Z</time>
      </trkpt>
      <trkpt lat="42.989391" lon="-5.736983">
        <ele>1224.225</ele>
        <time>2021-10-14T10:18:27Z</time>
      </trkpt>
      <trkpt lat="42.989423" lon="-5.737617">
        <ele>1224.188</ele>
        <time>2021-10-14T10:18:29Z</time>
      </trkpt>
      <trkpt lat="42.989456" lon="-5.738257">
        <ele>1224.575</ele>
        <time>2021-10-14T10:18:31Z</time>
      </trkpt>
      <trkpt lat="42.989473" lon="-5.738581">
        <ele>1225.317</ele>
        <time>2021-10-14T10:18:32Z</time>
      </trkpt>
      <trkpt lat="42.989507" lon="-5.739200">
        <ele>1225.936</ele>
        <time>2021-10-14T10:18:34Z</time>
      </trkpt>
      <trkpt lat="42.989545" lon="-5.739796">
        <ele>1226.781</ele>
        <time>2021-10-14T10:18:36Z</time>
      </trkpt>
      <trkpt lat="42.989600" lon="-5.740361">
        <ele>1227.761</ele>
        <time>2021-10-14T10:18:38Z</time>
      </trkpt>
      <trkpt lat="42.989727" lon="-5.740862">
        <ele>1227.317</ele>
        <time>2021-10-14T10:18:40Z</time>
      </trkpt>
      <trkpt lat="42.989818" lon="-5.741094">
        <ele>1227.008</ele>
        <time>2021-10-14T10:18:41Z</time>
      </trkpt>
      <trkpt lat="42.990081" lon="-5.741500">
        <ele>1225.726</ele>
        <time>2021-10-14T10:18:43Z</time>
      </trkpt>
      <trkpt lat="42.990240" lon="-5.741669">
        <ele>1226.084</ele>
        <time>2021-10-14T10:18:44Z</time>
      </trkpt>
      <trkpt lat="42.990567" lon="-5.741960">
        <ele>1226.842</ele>
        <time>2021-10-14T10:18:46Z</time>
      </trkpt>
      <trkpt lat="42.990877" lon="-5.742223">
        <ele>1229.089</ele>
        <time>2021-10-14T10:18:48Z</time>
      </trkpt>
      <trkpt lat="42.991178" lon="-5.742497">
        <ele>1232.652</ele>
        <time>2021-10-14T10:18:50Z</time>
      </trkpt>
      <trkpt lat="42.991484" lon="-5.742786">
        <ele>1235.139</ele>
        <time>2021-10-14T10:18:52Z</time>
      </trkpt>
      <trkpt lat="42.991799" lon="-5.743082">
        <ele>1237.721</ele>
        <time>2021-10-14T10:18:54Z</time>
      </trkpt>
      <trkpt lat="42.992118" lon="-5.743384">
        <ele>1239.740</ele>
        <time>2021-10-14T10:18:56Z</time>
      </trkpt>
      <trkpt lat="42.992436" lon="-5.743682">
        <ele>1241.398</ele>
        <time>2021-10-14T10:18:58Z</time>
      </trkpt>
      <trkpt lat="42.992591" lon="-5.743830">
        <ele>1242.715</ele>
        <time>2021-10-14T10:18:59Z</time>
      </trkpt>
      <trkpt lat="42.992867" lon="-5.744128">
        <ele>1244.326</ele>
        <time>2021-10-14T10:19:01Z</time>
      </trkpt>
      <trkpt lat="42.992986" lon="-5.744282">
        <ele>1244.808</ele>
        <time>2021-10-14T10:19:02Z</time>
      </trkpt>
      <trkpt lat="42.993173" lon="-5.744605">
        <ele>1246.597</ele>
        <time>2021-10-14T10:19:04Z</time>
      </trkpt>
      <trkpt lat="42.993320" lon="-5.744964">
        <ele>1246.665</ele>
        <time>2021-10-14T10:19:06Z</time>
      </trkpt>
      <trkpt lat="42.993445" lon="-5.745349">
        <ele>1247.313</ele>
        <time>2021-10-14T10:19:08Z</time>
      </trkpt>
      <trkpt lat="42.993534" lon="-5.745755">
        <ele>1247.830</ele>
        <time>2021-10-14T10:19:10Z</time>
      </trkpt>
      <trkpt lat="42.993584" lon="-5.746165">
        <ele>1249.193</ele>
        <time>2021-10-14T10:19:12Z</time>
      </trkpt>
      <trkpt lat="42.993598" lon="-5.746590">
        <ele>1250.040</ele>
        <time>2021-10-14T10:19:14Z</time>
      </trkpt>
      <trkpt lat="42.993574" lon="-5.747026">
        <ele>1251.312</ele>
        <time>2021-10-14T10:19:16Z</time>
      </trkpt>
      <trkpt lat="42.993547" lon="-5.747247">
        <ele>1251.781</ele>
        <time>2021-10-14T10:19:17Z</time>
      </trkpt>
      <trkpt lat="42.993510" lon="-5.747469">
        <ele>1252.123</ele>
        <time>2021-10-14T10:19:18Z</time>
      </trkpt>
      <trkpt lat="42.993400" lon="-5.747908">
        <ele>1254.083</ele>
        <time>2021-10-14T10:19:20Z</time>
      </trkpt>
      <trkpt lat="42.993235" lon="-5.748336">
        <ele>1255.811</ele>
        <time>2021-10-14T10:19:22Z</time>
      </trkpt>
      <trkpt lat="42.993029" lon="-5.748736">
        <ele>1257.908</ele>
        <time>2021-10-14T10:19:24Z</time>
      </trkpt>
      <trkpt lat="42.992779" lon="-5.749101">
        <ele>1260.710</ele>
        <time>2021-10-14T10:19:26Z</time>
      </trkpt>
      <trkpt lat="42.992636" lon="-5.749266">
        <ele>1261.668</ele>
        <time>2021-10-14T10:19:27Z</time>
      </trkpt>
      <trkpt lat="42.992484" lon="-5.749415">
        <ele>1262.396</ele>
        <time>2021-10-14T10:19:28Z</time>
      </trkpt>
      <trkpt lat="42.992166" lon="-5.749694">
        <ele>1264.533</ele>
        <time>2021-10-14T10:19:30Z</time>
      </trkpt>
      <trkpt lat="42.992005" lon="-5.749834">
        <ele>1265.396</ele>
        <time>2021-10-14T10:19:31Z</time>
      </trkpt>
      <trkpt lat="42.991849" lon="-5.749974">
        <ele>1266.073</ele>
        <time>2021-10-14T10:19:32Z</time>
      </trkpt>
      <trkpt lat="42.991583" lon="-5.750287">
        <ele>1268.255</ele>
        <time>2021-10-14T10:19:34Z</time>
      </trkpt>
      <trkpt lat="42.991475" lon="-5.750468">
        <ele>1269.594</ele>
        <time>2021-10-14T10:19:35Z</time>
      </trkpt>
      <trkpt lat="42.991381" lon="-5.750664">
        <ele>1270.972</ele>
        <time>2021-10-14T10:19:36Z</time>
      </trkpt>
      <trkpt lat="42.991305" lon="-5.750874">
        <ele>1272.113</ele>
        <time>2021-10-14T10:19:37Z</time>
      </trkpt>
      <trkpt lat="42.991200" lon="-5.751309">
        <ele>1272.514</ele>
        <time>2021-10-14T10:19:39Z</time>
      </trkpt>
      <trkpt lat="42.991163" lon="-5.751762">
        <ele>1273.308</ele>
        <time>2021-10-14T10:19:41Z</time>
      </trkpt>
      <trkpt lat="42.991171" lon="-5.751996">
        <ele>1274.285</ele>
        <time>2021-10-14T10:19:42Z</time>
      </trkpt>
      <trkpt lat="42.991199" lon="-5.752232">
        <ele>1274.913</ele>
        <time>2021-10-14T10:19:43Z</time>
      </trkpt>
      <trkpt lat="42.991237" lon="-5.752464">
        <ele>1275.261</ele>
        <time>2021-10-14T10:19:44Z</time>
      </trkpt>
      <trkpt lat="42.991283" lon="-5.752697">
        <ele>1275.998</ele>
        <time>2021-10-14T10:19:45Z</time>
      </trkpt>
      <trkpt lat="42.991384" lon="-5.753165">
        <ele>1277.491</ele>
        <time>2021-10-14T10:19:47Z</time>
      </trkpt>
      <trkpt lat="42.991437" lon="-5.753402">
        <ele>1277.828</ele>
        <time>2021-10-14T10:19:48Z</time>
      </trkpt>
      <trkpt lat="42.991490" lon="-5.753641">
        <ele>1278.430</ele>
        <time>2021-10-14T10:19:49Z</time>
      </trkpt>
      <trkpt lat="42.991585" lon="-5.754104">
        <ele>1280.289</ele>
        <time>2021-10-14T10:19:51Z</time>
      </trkpt>
      <trkpt lat="42.991631" lon="-5.754316">
        <ele>1280.865</ele>
        <time>2021-10-14T10:19:52Z</time>
      </trkpt>
      <trkpt lat="42.991671" lon="-5.754515">
        <ele>1281.368</ele>
        <time>2021-10-14T10:19:53Z</time>
      </trkpt>
      <trkpt lat="42.991753" lon="-5.754911">
        <ele>1282.214</ele>
        <time>2021-10-14T10:19:55Z</time>
      </trkpt>
      <trkpt lat="42.991797" lon="-5.755123">
        <ele>1282.908</ele>
        <time>2021-10-14T10:19:56Z</time>
      </trkpt>
      <trkpt lat="42.991882" lon="-5.755535">
        <ele>1283.974</ele>
        <time>2021-10-14T10:19:58Z</time>
      </trkpt>
      <trkpt lat="42.991972" lon="-5.755970">
        <ele>1285.332</ele>
        <time>2021-10-14T10:20:00Z</time>
      </trkpt>
      <trkpt lat="42.992068" lon="-5.756421">
        <ele>1287.520</ele>
        <time>2021-10-14T10:20:02Z</time>
      </trkpt>
      <trkpt lat="42.992161" lon="-5.756874">
        <ele>1289.427</ele>
        <time>2021-10-14T10:20:04Z</time>
      </trkpt>
      <trkpt lat="42.992251" lon="-5.757315">
        <ele>1291.660</ele>
        <time>2021-10-14T10:20:06Z</time>
      </trkpt>
      <trkpt lat="42.992297" lon="-5.757534">
        <ele>1292.167</ele>
        <time>2021-10-14T10:20:07Z</time>
      </trkpt>
      <trkpt lat="42.992391" lon="-5.757962">
        <ele>1294.399</ele>
        <time>2021-10-14T10:20:09Z</time>
      </trkpt>
      <trkpt lat="42.992433" lon="-5.758164">
        <ele>1294.658</ele>
        <time>2021-10-14T10:20:10Z</time>
      </trkpt>
      <trkpt lat="42.992509" lon="-5.758531">
        <ele>1295.997</ele>
        <time>2021-10-14T10:20:12Z</time>
      </trkpt>
      <trkpt lat="42.992573" lon="-5.758834">
        <ele>1297.023</ele>
        <time>2021-10-14T10:20:14Z</time>
      </trkpt>
      <trkpt lat="42.992617" lon="-5.759028">
        <ele>1297.325</ele>
        <time>2021-10-14T10:20:16Z</time>
      </trkpt>
      <trkpt lat="42.992655" lon="-5.759141">
        <ele>1298.508</ele>
        <time>2021-10-14T10:20:18Z</time>
      </trkpt>
      <trkpt lat="42.992677" lon="-5.759217">
        <ele>1298.517</ele>
        <time>2021-10-14T10:20:20Z</time>
      </trkpt>
      <trkpt lat="42.992692" lon="-5.759286">
        <ele>1298.655</ele>
        <time>2021-10-14T10:20:22Z</time>
      </trkpt>
      <trkpt lat="42.992710" lon="-5.759344">
        <ele>1298.833</ele>
        <time>2021-10-14T10:20:24Z</time>
      </trkpt>
      <trkpt lat="42.992723" lon="-5.759403">
        <ele>1298.730</ele>
        <time>2021-10-14T10:20:26Z</time>
      </trkpt>
      <trkpt lat="42.992753" lon="-5.759500">
        <ele>1324.413</ele>
        <time>2021-10-14T10:22:04Z</time>
      </trkpt>
      <trkpt lat="42.992778" lon="-5.759581">
        <ele>1345.960</ele>
        <time>2021-10-14T10:22:06Z</time>
      </trkpt>
      <trkpt lat="42.992806" lon="-5.759649">
        <ele>1348.462</ele>
        <time>2021-10-14T10:22:09Z</time>
      </trkpt>
      <trkpt lat="42.992827" lon="-5.759729">
        <ele>1348.461</ele>
        <time>2021-10-14T10:22:18Z</time>
      </trkpt>
      <trkpt lat="42.992827" lon="-5.759846">
        <ele>1348.357</ele>
        <time>2021-10-14T10:22:20Z</time>
      </trkpt>
      <trkpt lat="42.992831" lon="-5.759948">
        <ele>1348.300</ele>
        <time>2021-10-14T10:22:22Z</time>
      </trkpt>
      <trkpt lat="42.992855" lon="-5.760011">
        <ele>1348.320</ele>
        <time>2021-10-14T10:22:24Z</time>
      </trkpt>
      <trkpt lat="42.992888" lon="-5.760057">
        <ele>1348.308</ele>
        <time>2021-10-14T10:22:27Z</time>
      </trkpt>
      <trkpt lat="42.992944" lon="-5.760102">
        <ele>1348.383</ele>
        <time>2021-10-14T10:22:30Z</time>
      </trkpt>
      <trkpt lat="42.992910" lon="-5.760171">
        <ele>1348.151</ele>
        <time>2021-10-14T10:23:48Z</time>
      </trkpt>
      <trkpt lat="42.992917" lon="-5.760235">
        <ele>1332.319</ele>
        <time>2021-10-14T10:24:52Z</time>
      </trkpt>
      <trkpt lat="42.992900" lon="-5.760310">
        <ele>1313.216</ele>
        <time>2021-10-14T10:24:55Z</time>
      </trkpt>
      <trkpt lat="42.992890" lon="-5.760371">
        <ele>1297.949</ele>
        <time>2021-10-14T10:24:57Z</time>
      </trkpt>
      <trkpt lat="42.992919" lon="-5.760426">
        <ele>1291.686</ele>
        <time>2021-10-14T10:25:51Z</time>
      </trkpt>
      <trkpt lat="42.992890" lon="-5.760378">
        <ele>1291.668</ele>
        <time>2021-10-14T10:26:08Z</time>
      </trkpt>
      <trkpt lat="42.992872" lon="-5.760314">
        <ele>1291.687</ele>
        <time>2021-10-14T10:26:11Z</time>
      </trkpt>
      <trkpt lat="42.992877" lon="-5.760378">
        <ele>1292.798</ele>
        <time>2021-10-14T10:26:22Z</time>
      </trkpt>
      <trkpt lat="42.992869" lon="-5.760309">
        <ele>1294.915</ele>
        <time>2021-10-14T10:26:41Z</time>
      </trkpt>
      <trkpt lat="42.992863" lon="-5.760241">
        <ele>1294.926</ele>
        <time>2021-10-14T10:26:51Z</time>
      </trkpt>
      <trkpt lat="42.992812" lon="-5.760238">
        <ele>1294.008</ele>
        <time>2021-10-14T10:27:05Z</time>
      </trkpt>
      <trkpt lat="42.992859" lon="-5.760213">
        <ele>1293.727</ele>
        <time>2021-10-14T10:27:09Z</time>
      </trkpt>
      <trkpt lat="42.992887" lon="-5.760162">
        <ele>1287.825</ele>
        <time>2021-10-14T10:27:31Z</time>
      </trkpt>
      <trkpt lat="42.992839" lon="-5.760156">
        <ele>1288.323</ele>
        <time>2021-10-14T10:27:58Z</time>
      </trkpt>
      <trkpt lat="42.992793" lon="-5.760130">
        <ele>1288.310</ele>
        <time>2021-10-14T10:28:00Z</time>
      </trkpt>
      <trkpt lat="42.992840" lon="-5.760116">
        <ele>1288.443</ele>
        <time>2021-10-14T10:28:05Z</time>
      </trkpt>
      <trkpt lat="42.992879" lon="-5.760148">
        <ele>1289.810</ele>
        <time>2021-10-14T10:28:54Z</time>
      </trkpt>
      <trkpt lat="42.992906" lon="-5.760202">
        <ele>1290.512</ele>
        <time>2021-10-14T10:29:21Z</time>
      </trkpt>
      <trkpt lat="42.992870" lon="-5.760145">
        <ele>1293.941</ele>
        <time>2021-10-14T10:29:49Z</time>
      </trkpt>
      <trkpt lat="42.992946" lon="-5.760167">
        <ele>1294.435</ele>
        <time>2021-10-14T10:30:10Z</time>
      </trkpt>
      <trkpt lat="42.992999" lon="-5.760184">
        <ele>1295.286</ele>
        <time>2021-10-14T10:30:11Z</time>
      </trkpt>
      <trkpt lat="42.993133" lon="-5.760270">
        <ele>1298.814</ele>
        <time>2021-10-14T10:30:13Z</time>
      </trkpt>
      <trkpt lat="42.993203" lon="-5.760329">
        <ele>1300.208</ele>
        <time>2021-10-14T10:30:14Z</time>
      </trkpt>
      <trkpt lat="42.993271" lon="-5.760387">
        <ele>1300.071</ele>
        <time>2021-10-14T10:30:15Z</time>
      </trkpt>
      <trkpt lat="42.993340" lon="-5.760438">
        <ele>1299.029</ele>
        <time>2021-10-14T10:30:16Z</time>
      </trkpt>
      <trkpt lat="42.993415" lon="-5.760480">
        <ele>1297.437</ele>
        <time>2021-10-14T10:30:17Z</time>
      </trkpt>
      <trkpt lat="42.993575" lon="-5.760526">
        <ele>1295.884</ele>
        <time>2021-10-14T10:30:19Z</time>
      </trkpt>
      <trkpt lat="42.993736" lon="-5.760546">
        <ele>1293.447</ele>
        <time>2021-10-14T10:30:21Z</time>
      </trkpt>
      <trkpt lat="42.993809" lon="-5.760556">
        <ele>1291.854</ele>
        <time>2021-10-14T10:30:22Z</time>
      </trkpt>
      <trkpt lat="42.993879" lon="-5.760577">
        <ele>1291.056</ele>
        <time>2021-10-14T10:30:23Z</time>
      </trkpt>
      <trkpt lat="42.994000" lon="-5.760666">
        <ele>1289.175</ele>
        <time>2021-10-14T10:30:25Z</time>
      </trkpt>
      <trkpt lat="42.994046" lon="-5.760724">
        <ele>1288.598</ele>
        <time>2021-10-14T10:30:26Z</time>
      </trkpt>
      <trkpt lat="42.994118" lon="-5.760860">
        <ele>1287.715</ele>
        <time>2021-10-14T10:30:28Z</time>
      </trkpt>
      <trkpt lat="42.994178" lon="-5.761019">
        <ele>1286.626</ele>
        <time>2021-10-14T10:30:30Z</time>
      </trkpt>
      <trkpt lat="42.994206" lon="-5.761100">
        <ele>1286.108</ele>
        <time>2021-10-14T10:30:31Z</time>
      </trkpt>
      <trkpt lat="42.994234" lon="-5.761187">
        <ele>1285.767</ele>
        <time>2021-10-14T10:30:32Z</time>
      </trkpt>
      <trkpt lat="42.994306" lon="-5.761382">
        <ele>1283.285</ele>
        <time>2021-10-14T10:30:34Z</time>
      </trkpt>
      <trkpt lat="42.994347" lon="-5.761486">
        <ele>1281.473</ele>
        <time>2021-10-14T10:30:35Z</time>
      </trkpt>
      <trkpt lat="42.994393" lon="-5.761588">
        <ele>1280.250</ele>
        <time>2021-10-14T10:30:36Z</time>
      </trkpt>
      <trkpt lat="42.994507" lon="-5.761779">
        <ele>1278.353</ele>
        <time>2021-10-14T10:30:38Z</time>
      </trkpt>
      <trkpt lat="42.994644" lon="-5.761963">
        <ele>1274.470</ele>
        <time>2021-10-14T10:30:40Z</time>
      </trkpt>
      <trkpt lat="42.994713" lon="-5.762059">
        <ele>1273.082</ele>
        <time>2021-10-14T10:30:41Z</time>
      </trkpt>
      <trkpt lat="42.994782" lon="-5.762156">
        <ele>1270.041</ele>
        <time>2021-10-14T10:30:42Z</time>
      </trkpt>
      <trkpt lat="42.994925" lon="-5.762351">
        <ele>1267.414</ele>
        <time>2021-10-14T10:30:44Z</time>
      </trkpt>
      <trkpt lat="42.995081" lon="-5.762532">
        <ele>1264.354</ele>
        <time>2021-10-14T10:30:46Z</time>
      </trkpt>
      <trkpt lat="42.995169" lon="-5.762615">
        <ele>1263.909</ele>
        <time>2021-10-14T10:30:47Z</time>
      </trkpt>
      <trkpt lat="42.995262" lon="-5.762693">
        <ele>1262.808</ele>
        <time>2021-10-14T10:30:48Z</time>
      </trkpt>
      <trkpt lat="42.995450" lon="-5.762848">
        <ele>1259.339</ele>
        <time>2021-10-14T10:30:50Z</time>
      </trkpt>
      <trkpt lat="42.995637" lon="-5.762953">
        <ele>1256.857</ele>
        <time>2021-10-14T10:30:52Z</time>
      </trkpt>
      <trkpt lat="42.995728" lon="-5.762975">
        <ele>1254.685</ele>
        <time>2021-10-14T10:30:53Z</time>
      </trkpt>
      <trkpt lat="42.995887" lon="-5.763012">
        <ele>1253.752</ele>
        <time>2021-10-14T10:30:55Z</time>
      </trkpt>
      <trkpt lat="42.996014" lon="-5.763116">
        <ele>1253.785</ele>
        <time>2021-10-14T10:30:57Z</time>
      </trkpt>
      <trkpt lat="42.996066" lon="-5.763197">
        <ele>1253.422</ele>
        <time>2021-10-14T10:30:58Z</time>
      </trkpt>
      <trkpt lat="42.996146" lon="-5.763407">
        <ele>1252.334</ele>
        <time>2021-10-14T10:31:00Z</time>
      </trkpt>
      <trkpt lat="42.996177" lon="-5.763534">
        <ele>1251.343</ele>
        <time>2021-10-14T10:31:01Z</time>
      </trkpt>
      <trkpt lat="42.996210" lon="-5.763676">
        <ele>1249.192</ele>
        <time>2021-10-14T10:31:02Z</time>
      </trkpt>
      <trkpt lat="42.996289" lon="-5.763958">
        <ele>1244.873</ele>
        <time>2021-10-14T10:31:04Z</time>
      </trkpt>
      <trkpt lat="42.996330" lon="-5.764090">
        <ele>1242.720</ele>
        <time>2021-10-14T10:31:05Z</time>
      </trkpt>
      <trkpt lat="42.996421" lon="-5.764303">
        <ele>1240.208</ele>
        <time>2021-10-14T10:31:07Z</time>
      </trkpt>
      <trkpt lat="42.996544" lon="-5.764438">
        <ele>1236.957</ele>
        <time>2021-10-14T10:31:09Z</time>
      </trkpt>
      <trkpt lat="42.996623" lon="-5.764470">
        <ele>1234.175</ele>
        <time>2021-10-14T10:31:10Z</time>
      </trkpt>
      <trkpt lat="42.996813" lon="-5.764455">
        <ele>1231.473</ele>
        <time>2021-10-14T10:31:12Z</time>
      </trkpt>
      <trkpt lat="42.996913" lon="-5.764417">
        <ele>1229.650</ele>
        <time>2021-10-14T10:31:13Z</time>
      </trkpt>
      <trkpt lat="42.997114" lon="-5.764330">
        <ele>1226.213</ele>
        <time>2021-10-14T10:31:15Z</time>
      </trkpt>
      <trkpt lat="42.997223" lon="-5.764290">
        <ele>1223.840</ele>
        <time>2021-10-14T10:31:16Z</time>
      </trkpt>
      <trkpt lat="42.997442" lon="-5.764206">
        <ele>1219.792</ele>
        <time>2021-10-14T10:31:18Z</time>
      </trkpt>
      <trkpt lat="42.997550" lon="-5.764152">
        <ele>1218.021</ele>
        <time>2021-10-14T10:31:19Z</time>
      </trkpt>
      <trkpt lat="42.997731" lon="-5.763991">
        <ele>1214.286</ele>
        <time>2021-10-14T10:31:21Z</time>
      </trkpt>
      <trkpt lat="42.997794" lon="-5.763885">
        <ele>1211.760</ele>
        <time>2021-10-14T10:31:22Z</time>
      </trkpt>
      <trkpt lat="42.997848" lon="-5.763628">
        <ele>1209.426</ele>
        <time>2021-10-14T10:31:24Z</time>
      </trkpt>
      <trkpt lat="42.997858" lon="-5.763492">
        <ele>1208.508</ele>
        <time>2021-10-14T10:31:25Z</time>
      </trkpt>
      <trkpt lat="42.997914" lon="-5.763244">
        <ele>1204.136</ele>
        <time>2021-10-14T10:31:27Z</time>
      </trkpt>
      <trkpt lat="42.997970" lon="-5.763153">
        <ele>1204.164</ele>
        <time>2021-10-14T10:31:28Z</time>
      </trkpt>
      <trkpt lat="42.998044" lon="-5.763091">
        <ele>1204.132</ele>
        <time>2021-10-14T10:31:29Z</time>
      </trkpt>
      <trkpt lat="42.998131" lon="-5.763066">
        <ele>1203.689</ele>
        <time>2021-10-14T10:31:30Z</time>
      </trkpt>
      <trkpt lat="42.998330" lon="-5.763098">
        <ele>1200.382</ele>
        <time>2021-10-14T10:31:32Z</time>
      </trkpt>
      <trkpt lat="42.998533" lon="-5.763143">
        <ele>1197.529</ele>
        <time>2021-10-14T10:31:34Z</time>
      </trkpt>
      <trkpt lat="42.998638" lon="-5.763175">
        <ele>1196.361</ele>
        <time>2021-10-14T10:31:35Z</time>
      </trkpt>
      <trkpt lat="42.998844" lon="-5.763292">
        <ele>1193.460</ele>
        <time>2021-10-14T10:31:37Z</time>
      </trkpt>
      <trkpt lat="42.999057" lon="-5.763501">
        <ele>1190.676</ele>
        <time>2021-10-14T10:31:39Z</time>
      </trkpt>
      <trkpt lat="42.999261" lon="-5.763799">
        <ele>1187.790</ele>
        <time>2021-10-14T10:31:41Z</time>
      </trkpt>
      <trkpt lat="42.999370" lon="-5.763961">
        <ele>1186.219</ele>
        <time>2021-10-14T10:31:42Z</time>
      </trkpt>
      <trkpt lat="42.999591" lon="-5.764279">
        <ele>1182.508</ele>
        <time>2021-10-14T10:31:44Z</time>
      </trkpt>
      <trkpt lat="42.999697" lon="-5.764437">
        <ele>1179.485</ele>
        <time>2021-10-14T10:31:45Z</time>
      </trkpt>
      <trkpt lat="42.999802" lon="-5.764595">
        <ele>1177.553</ele>
        <time>2021-10-14T10:31:46Z</time>
      </trkpt>
      <trkpt lat="42.999980" lon="-5.764922">
        <ele>1176.071</ele>
        <time>2021-10-14T10:31:48Z</time>
      </trkpt>
      <trkpt lat="43.000052" lon="-5.765092">
        <ele>1173.718</ele>
        <time>2021-10-14T10:31:49Z</time>
      </trkpt>
      <trkpt lat="43.000116" lon="-5.765257">
        <ele>1171.321</ele>
        <time>2021-10-14T10:31:50Z</time>
      </trkpt>
      <trkpt lat="43.000180" lon="-5.765417">
        <ele>1168.658</ele>
        <time>2021-10-14T10:31:51Z</time>
      </trkpt>
      <trkpt lat="43.000243" lon="-5.765569">
        <ele>1166.870</ele>
        <time>2021-10-14T10:31:52Z</time>
      </trkpt>
      <trkpt lat="43.000357" lon="-5.765845">
        <ele>1162.239</ele>
        <time>2021-10-14T10:31:54Z</time>
      </trkpt>
      <trkpt lat="43.000466" lon="-5.766058">
        <ele>1158.484</ele>
        <time>2021-10-14T10:31:56Z</time>
      </trkpt>
      <trkpt lat="43.000528" lon="-5.766130">
        <ele>1157.807</ele>
        <time>2021-10-14T10:31:57Z</time>
      </trkpt>
      <trkpt lat="43.000596" lon="-5.766172">
        <ele>1156.317</ele>
        <time>2021-10-14T10:31:58Z</time>
      </trkpt>
      <trkpt lat="43.000748" lon="-5.766163">
        <ele>1153.408</ele>
        <time>2021-10-14T10:32:00Z</time>
      </trkpt>
      <trkpt lat="43.000887" lon="-5.766023">
        <ele>1151.126</ele>
        <time>2021-10-14T10:32:02Z</time>
      </trkpt>
      <trkpt lat="43.000957" lon="-5.765785">
        <ele>1149.224</ele>
        <time>2021-10-14T10:32:04Z</time>
      </trkpt>
      <trkpt lat="43.000959" lon="-5.765651">
        <ele>1147.882</ele>
        <time>2021-10-14T10:32:05Z</time>
      </trkpt>
      <trkpt lat="43.000923" lon="-5.765393">
        <ele>1145.919</ele>
        <time>2021-10-14T10:32:07Z</time>
      </trkpt>
      <trkpt lat="43.000907" lon="-5.765268">
        <ele>1145.972</ele>
        <time>2021-10-14T10:32:08Z</time>
      </trkpt>
      <trkpt lat="43.000903" lon="-5.765146">
        <ele>1145.929</ele>
        <time>2021-10-14T10:32:09Z</time>
      </trkpt>
      <trkpt lat="43.000953" lon="-5.764922">
        <ele>1143.911</ele>
        <time>2021-10-14T10:32:11Z</time>
      </trkpt>
      <trkpt lat="43.001011" lon="-5.764824">
        <ele>1143.680</ele>
        <time>2021-10-14T10:32:12Z</time>
      </trkpt>
      <trkpt lat="43.001181" lon="-5.764682">
        <ele>1141.957</ele>
        <time>2021-10-14T10:32:14Z</time>
      </trkpt>
      <trkpt lat="43.001286" lon="-5.764654">
        <ele>1140.100</ele>
        <time>2021-10-14T10:32:15Z</time>
      </trkpt>
      <trkpt lat="43.001404" lon="-5.764653">
        <ele>1139.120</ele>
        <time>2021-10-14T10:32:16Z</time>
      </trkpt>
      <trkpt lat="43.001531" lon="-5.764662">
        <ele>1138.908</ele>
        <time>2021-10-14T10:32:17Z</time>
      </trkpt>
      <trkpt lat="43.001789" lon="-5.764673">
        <ele>1135.763</ele>
        <time>2021-10-14T10:32:19Z</time>
      </trkpt>
      <trkpt lat="43.001921" lon="-5.764673">
        <ele>1135.441</ele>
        <time>2021-10-14T10:32:20Z</time>
      </trkpt>
      <trkpt lat="43.002179" lon="-5.764672">
        <ele>1134.129</ele>
        <time>2021-10-14T10:32:22Z</time>
      </trkpt>
      <trkpt lat="43.002438" lon="-5.764694">
        <ele>1132.346</ele>
        <time>2021-10-14T10:32:24Z</time>
      </trkpt>
      <trkpt lat="43.002559" lon="-5.764732">
        <ele>1131.149</ele>
        <time>2021-10-14T10:32:25Z</time>
      </trkpt>
      <trkpt lat="43.002676" lon="-5.764803">
        <ele>1130.616</ele>
        <time>2021-10-14T10:32:26Z</time>
      </trkpt>
      <trkpt lat="43.002854" lon="-5.765016">
        <ele>1129.598</ele>
        <time>2021-10-14T10:32:28Z</time>
      </trkpt>
      <trkpt lat="43.002928" lon="-5.765138">
        <ele>1124.077</ele>
        <time>2021-10-14T10:32:29Z</time>
      </trkpt>
      <trkpt lat="43.003017" lon="-5.765239">
        <ele>1122.727</ele>
        <time>2021-10-14T10:32:30Z</time>
      </trkpt>
      <trkpt lat="43.003237" lon="-5.765364">
        <ele>1119.668</ele>
        <time>2021-10-14T10:32:32Z</time>
      </trkpt>
      <trkpt lat="43.003351" lon="-5.765422">
        <ele>1119.214</ele>
        <time>2021-10-14T10:32:33Z</time>
      </trkpt>
      <trkpt lat="43.003460" lon="-5.765492">
        <ele>1117.308</ele>
        <time>2021-10-14T10:32:34Z</time>
      </trkpt>
      <trkpt lat="43.003663" lon="-5.765682">
        <ele>1115.320</ele>
        <time>2021-10-14T10:32:36Z</time>
      </trkpt>
      <trkpt lat="43.003864" lon="-5.765881">
        <ele>1113.088</ele>
        <time>2021-10-14T10:32:38Z</time>
      </trkpt>
      <trkpt lat="43.004061" lon="-5.766082">
        <ele>1112.586</ele>
        <time>2021-10-14T10:32:40Z</time>
      </trkpt>
      <trkpt lat="43.004252" lon="-5.766258">
        <ele>1110.133</ele>
        <time>2021-10-14T10:32:42Z</time>
      </trkpt>
      <trkpt lat="43.004450" lon="-5.766365">
        <ele>1109.556</ele>
        <time>2021-10-14T10:32:44Z</time>
      </trkpt>
      <trkpt lat="43.004656" lon="-5.766317">
        <ele>1106.573</ele>
        <time>2021-10-14T10:32:46Z</time>
      </trkpt>
      <trkpt lat="43.004749" lon="-5.766238">
        <ele>1106.345</ele>
        <time>2021-10-14T10:32:47Z</time>
      </trkpt>
      <trkpt lat="43.004834" lon="-5.766138">
        <ele>1106.184</ele>
        <time>2021-10-14T10:32:48Z</time>
      </trkpt>
      <trkpt lat="43.005008" lon="-5.765928">
        <ele>1105.824</ele>
        <time>2021-10-14T10:32:50Z</time>
      </trkpt>
      <trkpt lat="43.005192" lon="-5.765698">
        <ele>1104.704</ele>
        <time>2021-10-14T10:32:52Z</time>
      </trkpt>
      <trkpt lat="43.005281" lon="-5.765562">
        <ele>1103.814</ele>
        <time>2021-10-14T10:32:53Z</time>
      </trkpt>
      <trkpt lat="43.005443" lon="-5.765271">
        <ele>1102.008</ele>
        <time>2021-10-14T10:32:55Z</time>
      </trkpt>
      <trkpt lat="43.005513" lon="-5.765107">
        <ele>1100.480</ele>
        <time>2021-10-14T10:32:56Z</time>
      </trkpt>
      <trkpt lat="43.005569" lon="-5.764785">
        <ele>1098.138</ele>
        <time>2021-10-14T10:32:58Z</time>
      </trkpt>
      <trkpt lat="43.005554" lon="-5.764615">
        <ele>1096.686</ele>
        <time>2021-10-14T10:32:59Z</time>
      </trkpt>
      <trkpt lat="43.005531" lon="-5.764449">
        <ele>1096.243</ele>
        <time>2021-10-14T10:33:00Z</time>
      </trkpt>
      <trkpt lat="43.005530" lon="-5.764289">
        <ele>1095.136</ele>
        <time>2021-10-14T10:33:01Z</time>
      </trkpt>
      <trkpt lat="43.005607" lon="-5.764009">
        <ele>1092.853</ele>
        <time>2021-10-14T10:33:03Z</time>
      </trkpt>
      <trkpt lat="43.005672" lon="-5.763886">
        <ele>1092.035</ele>
        <time>2021-10-14T10:33:04Z</time>
      </trkpt>
      <trkpt lat="43.005822" lon="-5.763632">
        <ele>1089.614</ele>
        <time>2021-10-14T10:33:06Z</time>
      </trkpt>
      <trkpt lat="43.005899" lon="-5.763495">
        <ele>1089.584</ele>
        <time>2021-10-14T10:33:07Z</time>
      </trkpt>
      <trkpt lat="43.006065" lon="-5.763219">
        <ele>1086.807</ele>
        <time>2021-10-14T10:33:09Z</time>
      </trkpt>
      <trkpt lat="43.006262" lon="-5.762999">
        <ele>1085.717</ele>
        <time>2021-10-14T10:33:11Z</time>
      </trkpt>
      <trkpt lat="43.006507" lon="-5.762881">
        <ele>1085.008</ele>
        <time>2021-10-14T10:33:13Z</time>
      </trkpt>
      <trkpt lat="43.006641" lon="-5.762869">
        <ele>1084.246</ele>
        <time>2021-10-14T10:33:14Z</time>
      </trkpt>
      <trkpt lat="43.006773" lon="-5.762878">
        <ele>1084.114</ele>
        <time>2021-10-14T10:33:15Z</time>
      </trkpt>
      <trkpt lat="43.006899" lon="-5.762880">
        <ele>1083.262</ele>
        <time>2021-10-14T10:33:16Z</time>
      </trkpt>
      <trkpt lat="43.007139" lon="-5.762809">
        <ele>1081.279</ele>
        <time>2021-10-14T10:33:18Z</time>
      </trkpt>
      <trkpt lat="43.007330" lon="-5.762610">
        <ele>1079.512</ele>
        <time>2021-10-14T10:33:20Z</time>
      </trkpt>
      <trkpt lat="43.007494" lon="-5.762386">
        <ele>1076.859</ele>
        <time>2021-10-14T10:33:22Z</time>
      </trkpt>
      <trkpt lat="43.007586" lon="-5.762306">
        <ele>1076.741</ele>
        <time>2021-10-14T10:33:23Z</time>
      </trkpt>
      <trkpt lat="43.007784" lon="-5.762232">
        <ele>1074.290</ele>
        <time>2021-10-14T10:33:25Z</time>
      </trkpt>
      <trkpt lat="43.007888" lon="-5.762246">
        <ele>1073.989</ele>
        <time>2021-10-14T10:33:26Z</time>
      </trkpt>
      <trkpt lat="43.008070" lon="-5.762386">
        <ele>1071.606</ele>
        <time>2021-10-14T10:33:28Z</time>
      </trkpt>
      <trkpt lat="43.008148" lon="-5.762497">
        <ele>1069.826</ele>
        <time>2021-10-14T10:33:29Z</time>
      </trkpt>
      <trkpt lat="43.008299" lon="-5.762768">
        <ele>1067.808</ele>
        <time>2021-10-14T10:33:31Z</time>
      </trkpt>
      <trkpt lat="43.008385" lon="-5.762914">
        <ele>1066.256</ele>
        <time>2021-10-14T10:33:32Z</time>
      </trkpt>
      <trkpt lat="43.008476" lon="-5.763058">
        <ele>1065.214</ele>
        <time>2021-10-14T10:33:33Z</time>
      </trkpt>
      <trkpt lat="43.008569" lon="-5.763204">
        <ele>1063.262</ele>
        <time>2021-10-14T10:33:34Z</time>
      </trkpt>
      <trkpt lat="43.008740" lon="-5.763514">
        <ele>1060.439</ele>
        <time>2021-10-14T10:33:36Z</time>
      </trkpt>
      <trkpt lat="43.008808" lon="-5.763689">
        <ele>1059.142</ele>
        <time>2021-10-14T10:33:37Z</time>
      </trkpt>
      <trkpt lat="43.008867" lon="-5.763873">
        <ele>1057.679</ele>
        <time>2021-10-14T10:33:38Z</time>
      </trkpt>
      <trkpt lat="43.008981" lon="-5.764225">
        <ele>1055.181</ele>
        <time>2021-10-14T10:33:40Z</time>
      </trkpt>
      <trkpt lat="43.009055" lon="-5.764378">
        <ele>1053.430</ele>
        <time>2021-10-14T10:33:41Z</time>
      </trkpt>
      <trkpt lat="43.009243" lon="-5.764636">
        <ele>1051.959</ele>
        <time>2021-10-14T10:33:43Z</time>
      </trkpt>
      <trkpt lat="43.009444" lon="-5.764869">
        <ele>1049.403</ele>
        <time>2021-10-14T10:33:45Z</time>
      </trkpt>
      <trkpt lat="43.009552" lon="-5.764988">
        <ele>1048.223</ele>
        <time>2021-10-14T10:33:46Z</time>
      </trkpt>
      <trkpt lat="43.009788" lon="-5.765189">
        <ele>1043.508</ele>
        <time>2021-10-14T10:33:48Z</time>
      </trkpt>
      <trkpt lat="43.009915" lon="-5.765271">
        <ele>1042.323</ele>
        <time>2021-10-14T10:33:49Z</time>
      </trkpt>
      <trkpt lat="43.010041" lon="-5.765359">
        <ele>1041.721</ele>
        <time>2021-10-14T10:33:50Z</time>
      </trkpt>
      <trkpt lat="43.010252" lon="-5.765596">
        <ele>1040.129</ele>
        <time>2021-10-14T10:33:52Z</time>
      </trkpt>
      <trkpt lat="43.010335" lon="-5.765743">
        <ele>1039.326</ele>
        <time>2021-10-14T10:33:53Z</time>
      </trkpt>
      <trkpt lat="43.010447" lon="-5.766077">
        <ele>1038.789</ele>
        <time>2021-10-14T10:33:55Z</time>
      </trkpt>
      <trkpt lat="43.010465" lon="-5.766264">
        <ele>1038.426</ele>
        <time>2021-10-14T10:33:56Z</time>
      </trkpt>
      <trkpt lat="43.010402" lon="-5.766606">
        <ele>1035.338</ele>
        <time>2021-10-14T10:33:58Z</time>
      </trkpt>
      <trkpt lat="43.010353" lon="-5.766776">
        <ele>1034.547</ele>
        <time>2021-10-14T10:33:59Z</time>
      </trkpt>
      <trkpt lat="43.010310" lon="-5.767133">
        <ele>1027.894</ele>
        <time>2021-10-14T10:34:01Z</time>
      </trkpt>
      <trkpt lat="43.010328" lon="-5.767316">
        <ele>1027.157</ele>
        <time>2021-10-14T10:34:02Z</time>
      </trkpt>
      <trkpt lat="43.010364" lon="-5.767496">
        <ele>1024.522</ele>
        <time>2021-10-14T10:34:03Z</time>
      </trkpt>
      <trkpt lat="43.010454" lon="-5.767836">
        <ele>1020.008</ele>
        <time>2021-10-14T10:34:05Z</time>
      </trkpt>
      <trkpt lat="43.010507" lon="-5.768004">
        <ele>1019.657</ele>
        <time>2021-10-14T10:34:06Z</time>
      </trkpt>
      <trkpt lat="43.010568" lon="-5.768168">
        <ele>1017.995</ele>
        <time>2021-10-14T10:34:07Z</time>
      </trkpt>
      <trkpt lat="43.010637" lon="-5.768324">
        <ele>1017.963</ele>
        <time>2021-10-14T10:34:08Z</time>
      </trkpt>
      <trkpt lat="43.010805" lon="-5.768598">
        <ele>1014.770</ele>
        <time>2021-10-14T10:34:10Z</time>
      </trkpt>
      <trkpt lat="43.011020" lon="-5.768832">
        <ele>1012.423</ele>
        <time>2021-10-14T10:34:12Z</time>
      </trkpt>
      <trkpt lat="43.011246" lon="-5.769091">
        <ele>1011.140</ele>
        <time>2021-10-14T10:34:14Z</time>
      </trkpt>
      <trkpt lat="43.011350" lon="-5.769242">
        <ele>1010.172</ele>
        <time>2021-10-14T10:34:15Z</time>
      </trkpt>
      <trkpt lat="43.011534" lon="-5.769556">
        <ele>1008.841</ele>
        <time>2021-10-14T10:34:17Z</time>
      </trkpt>
      <trkpt lat="43.011619" lon="-5.769706">
        <ele>1008.446</ele>
        <time>2021-10-14T10:34:18Z</time>
      </trkpt>
      <trkpt lat="43.011777" lon="-5.770000">
        <ele>1007.888</ele>
        <time>2021-10-14T10:34:20Z</time>
      </trkpt>
      <trkpt lat="43.011846" lon="-5.770155">
        <ele>1007.416</ele>
        <time>2021-10-14T10:34:21Z</time>
      </trkpt>
      <trkpt lat="43.011941" lon="-5.770488">
        <ele>1006.408</ele>
        <time>2021-10-14T10:34:23Z</time>
      </trkpt>
      <trkpt lat="43.011964" lon="-5.770850">
        <ele>1004.332</ele>
        <time>2021-10-14T10:34:25Z</time>
      </trkpt>
      <trkpt lat="43.011942" lon="-5.771040">
        <ele>1003.920</ele>
        <time>2021-10-14T10:34:26Z</time>
      </trkpt>
      <trkpt lat="43.011835" lon="-5.771383">
        <ele>1001.648</ele>
        <time>2021-10-14T10:34:28Z</time>
      </trkpt>
      <trkpt lat="43.011768" lon="-5.771544">
        <ele>1001.565</ele>
        <time>2021-10-14T10:34:29Z</time>
      </trkpt>
      <trkpt lat="43.011659" lon="-5.771867">
        <ele>999.218</ele>
        <time>2021-10-14T10:34:31Z</time>
      </trkpt>
      <trkpt lat="43.011644" lon="-5.772040">
        <ele>998.255</ele>
        <time>2021-10-14T10:34:32Z</time>
      </trkpt>
      <trkpt lat="43.011692" lon="-5.772382">
        <ele>996.467</ele>
        <time>2021-10-14T10:34:34Z</time>
      </trkpt>
      <trkpt lat="43.011751" lon="-5.772736">
        <ele>993.736</ele>
        <time>2021-10-14T10:34:36Z</time>
      </trkpt>
      <trkpt lat="43.011791" lon="-5.773095">
        <ele>991.428</ele>
        <time>2021-10-14T10:34:38Z</time>
      </trkpt>
      <trkpt lat="43.011811" lon="-5.773279">
        <ele>990.789</ele>
        <time>2021-10-14T10:34:39Z</time>
      </trkpt>
      <trkpt lat="43.011846" lon="-5.773641">
        <ele>987.117</ele>
        <time>2021-10-14T10:34:41Z</time>
      </trkpt>
      <trkpt lat="43.011941" lon="-5.773972">
        <ele>983.708</ele>
        <time>2021-10-14T10:34:43Z</time>
      </trkpt>
      <trkpt lat="43.012148" lon="-5.774202">
        <ele>979.730</ele>
        <time>2021-10-14T10:34:45Z</time>
      </trkpt>
      <trkpt lat="43.012390" lon="-5.774300">
        <ele>977.618</ele>
        <time>2021-10-14T10:34:47Z</time>
      </trkpt>
      <trkpt lat="43.012506" lon="-5.774303">
        <ele>976.136</ele>
        <time>2021-10-14T10:34:48Z</time>
      </trkpt>
      <trkpt lat="43.012620" lon="-5.774271">
        <ele>975.793</ele>
        <time>2021-10-14T10:34:49Z</time>
      </trkpt>
      <trkpt lat="43.012820" lon="-5.774100">
        <ele>973.086</ele>
        <time>2021-10-14T10:34:51Z</time>
      </trkpt>
      <trkpt lat="43.012897" lon="-5.773971">
        <ele>971.483</ele>
        <time>2021-10-14T10:34:52Z</time>
      </trkpt>
      <trkpt lat="43.013009" lon="-5.773671">
        <ele>968.885</ele>
        <time>2021-10-14T10:34:54Z</time>
      </trkpt>
      <trkpt lat="43.013111" lon="-5.773354">
        <ele>967.694</ele>
        <time>2021-10-14T10:34:56Z</time>
      </trkpt>
      <trkpt lat="43.013199" lon="-5.773017">
        <ele>965.066</ele>
        <time>2021-10-14T10:34:58Z</time>
      </trkpt>
      <trkpt lat="43.013240" lon="-5.772828">
        <ele>964.229</ele>
        <time>2021-10-14T10:34:59Z</time>
      </trkpt>
      <trkpt lat="43.013311" lon="-5.772429">
        <ele>960.821</ele>
        <time>2021-10-14T10:35:01Z</time>
      </trkpt>
      <trkpt lat="43.013333" lon="-5.772220">
        <ele>959.408</ele>
        <time>2021-10-14T10:35:02Z</time>
      </trkpt>
      <trkpt lat="43.013340" lon="-5.771806">
        <ele>957.384</ele>
        <time>2021-10-14T10:35:04Z</time>
      </trkpt>
      <trkpt lat="43.013343" lon="-5.771415">
        <ele>954.862</ele>
        <time>2021-10-14T10:35:06Z</time>
      </trkpt>
      <trkpt lat="43.013360" lon="-5.771240">
        <ele>954.360</ele>
        <time>2021-10-14T10:35:07Z</time>
      </trkpt>
      <trkpt lat="43.013449" lon="-5.770940">
        <ele>952.287</ele>
        <time>2021-10-14T10:35:09Z</time>
      </trkpt>
      <trkpt lat="43.013618" lon="-5.770728">
        <ele>949.990</ele>
        <time>2021-10-14T10:35:11Z</time>
      </trkpt>
      <trkpt lat="43.013729" lon="-5.770672">
        <ele>949.387</ele>
        <time>2021-10-14T10:35:12Z</time>
      </trkpt>
      <trkpt lat="43.013989" lon="-5.770659">
        <ele>946.529</ele>
        <time>2021-10-14T10:35:14Z</time>
      </trkpt>
      <trkpt lat="43.014122" lon="-5.770674">
        <ele>944.628</ele>
        <time>2021-10-14T10:35:15Z</time>
      </trkpt>
      <trkpt lat="43.014378" lon="-5.770692">
        <ele>941.438</ele>
        <time>2021-10-14T10:35:17Z</time>
      </trkpt>
      <trkpt lat="43.014502" lon="-5.770698">
        <ele>941.270</ele>
        <time>2021-10-14T10:35:18Z</time>
      </trkpt>
      <trkpt lat="43.014753" lon="-5.770707">
        <ele>938.517</ele>
        <time>2021-10-14T10:35:20Z</time>
      </trkpt>
      <trkpt lat="43.015006" lon="-5.770667">
        <ele>935.608</ele>
        <time>2021-10-14T10:35:22Z</time>
      </trkpt>
      <trkpt lat="43.015264" lon="-5.770607">
        <ele>932.341</ele>
        <time>2021-10-14T10:35:24Z</time>
      </trkpt>
      <trkpt lat="43.015506" lon="-5.770625">
        <ele>930.629</ele>
        <time>2021-10-14T10:35:26Z</time>
      </trkpt>
      <trkpt lat="43.015612" lon="-5.770659">
        <ele>927.717</ele>
        <time>2021-10-14T10:35:27Z</time>
      </trkpt>
      <trkpt lat="43.015809" lon="-5.770728">
        <ele>927.654</ele>
        <time>2021-10-14T10:35:29Z</time>
      </trkpt>
      <trkpt lat="43.015908" lon="-5.770747">
        <ele>925.067</ele>
        <time>2021-10-14T10:35:30Z</time>
      </trkpt>
      <trkpt lat="43.016101" lon="-5.770721">
        <ele>922.934</ele>
        <time>2021-10-14T10:35:32Z</time>
      </trkpt>
      <trkpt lat="43.016188" lon="-5.770664">
        <ele>922.496</ele>
        <time>2021-10-14T10:35:33Z</time>
      </trkpt>
      <trkpt lat="43.016268" lon="-5.770576">
        <ele>921.985</ele>
        <time>2021-10-14T10:35:34Z</time>
      </trkpt>
      <trkpt lat="43.016346" lon="-5.770470">
        <ele>920.999</ele>
        <time>2021-10-14T10:35:35Z</time>
      </trkpt>
      <trkpt lat="43.016495" lon="-5.770226">
        <ele>918.407</ele>
        <time>2021-10-14T10:35:37Z</time>
      </trkpt>
      <trkpt lat="43.016638" lon="-5.769986">
        <ele>918.427</ele>
        <time>2021-10-14T10:35:39Z</time>
      </trkpt>
      <trkpt lat="43.016729" lon="-5.769906">
        <ele>918.208</ele>
        <time>2021-10-14T10:35:40Z</time>
      </trkpt>
      <trkpt lat="43.016940" lon="-5.769859">
        <ele>918.067</ele>
        <time>2021-10-14T10:35:42Z</time>
      </trkpt>
      <trkpt lat="43.017140" lon="-5.769963">
        <ele>918.075</ele>
        <time>2021-10-14T10:35:44Z</time>
      </trkpt>
      <trkpt lat="43.017224" lon="-5.770067">
        <ele>917.933</ele>
        <time>2021-10-14T10:35:45Z</time>
      </trkpt>
      <trkpt lat="43.017347" lon="-5.770349">
        <ele>916.530</ele>
        <time>2021-10-14T10:35:47Z</time>
      </trkpt>
      <trkpt lat="43.017452" lon="-5.770667">
        <ele>916.363</ele>
        <time>2021-10-14T10:35:49Z</time>
      </trkpt>
      <trkpt lat="43.017505" lon="-5.770827">
        <ele>916.890</ele>
        <time>2021-10-14T10:35:50Z</time>
      </trkpt>
      <trkpt lat="43.017554" lon="-5.770996">
        <ele>916.392</ele>
        <time>2021-10-14T10:35:51Z</time>
      </trkpt>
      <trkpt lat="43.017624" lon="-5.771342">
        <ele>916.721</ele>
        <time>2021-10-14T10:35:53Z</time>
      </trkpt>
      <trkpt lat="43.017645" lon="-5.771521">
        <ele>916.734</ele>
        <time>2021-10-14T10:35:54Z</time>
      </trkpt>
      <trkpt lat="43.017717" lon="-5.771895">
        <ele>916.055</ele>
        <time>2021-10-14T10:35:56Z</time>
      </trkpt>
      <trkpt lat="43.017848" lon="-5.772246">
        <ele>917.510</ele>
        <time>2021-10-14T10:35:58Z</time>
      </trkpt>
      <trkpt lat="43.017921" lon="-5.772405">
        <ele>918.208</ele>
        <time>2021-10-14T10:35:59Z</time>
      </trkpt>
      <trkpt lat="43.018094" lon="-5.772666">
        <ele>918.711</ele>
        <time>2021-10-14T10:36:01Z</time>
      </trkpt>
      <trkpt lat="43.018198" lon="-5.772767">
        <ele>918.429</ele>
        <time>2021-10-14T10:36:02Z</time>
      </trkpt>
      <trkpt lat="43.018388" lon="-5.772947">
        <ele>917.477</ele>
        <time>2021-10-14T10:36:04Z</time>
      </trkpt>
      <trkpt lat="43.018551" lon="-5.773178">
        <ele>917.134</ele>
        <time>2021-10-14T10:36:06Z</time>
      </trkpt>
      <trkpt lat="43.018674" lon="-5.773497">
        <ele>916.447</ele>
        <time>2021-10-14T10:36:08Z</time>
      </trkpt>
      <trkpt lat="43.018723" lon="-5.773673">
        <ele>915.724</ele>
        <time>2021-10-14T10:36:09Z</time>
      </trkpt>
      <trkpt lat="43.018772" lon="-5.773846">
        <ele>915.086</ele>
        <time>2021-10-14T10:36:10Z</time>
      </trkpt>
      <trkpt lat="43.018874" lon="-5.774190">
        <ele>912.155</ele>
        <time>2021-10-14T10:36:12Z</time>
      </trkpt>
      <trkpt lat="43.018936" lon="-5.774359">
        <ele>910.952</ele>
        <time>2021-10-14T10:36:13Z</time>
      </trkpt>
      <trkpt lat="43.019009" lon="-5.774523">
        <ele>909.753</ele>
        <time>2021-10-14T10:36:14Z</time>
      </trkpt>
      <trkpt lat="43.019090" lon="-5.774683">
        <ele>909.208</ele>
        <time>2021-10-14T10:36:15Z</time>
      </trkpt>
      <trkpt lat="43.019261" lon="-5.774995">
        <ele>907.708</ele>
        <time>2021-10-14T10:36:17Z</time>
      </trkpt>
      <trkpt lat="43.019391" lon="-5.775330">
        <ele>906.643</ele>
        <time>2021-10-14T10:36:19Z</time>
      </trkpt>
      <trkpt lat="43.019436" lon="-5.775511">
        <ele>905.811</ele>
        <time>2021-10-14T10:36:20Z</time>
      </trkpt>
      <trkpt lat="43.019471" lon="-5.775692">
        <ele>904.629</ele>
        <time>2021-10-14T10:36:21Z</time>
      </trkpt>
      <trkpt lat="43.019516" lon="-5.776064">
        <ele>903.996</ele>
        <time>2021-10-14T10:36:23Z</time>
      </trkpt>
      <trkpt lat="43.019512" lon="-5.776444">
        <ele>903.869</ele>
        <time>2021-10-14T10:36:25Z</time>
      </trkpt>
      <trkpt lat="43.019495" lon="-5.776630">
        <ele>902.946</ele>
        <time>2021-10-14T10:36:26Z</time>
      </trkpt>
      <trkpt lat="43.019496" lon="-5.776989">
        <ele>901.168</ele>
        <time>2021-10-14T10:36:28Z</time>
      </trkpt>
      <trkpt lat="43.019571" lon="-5.777379">
        <ele>898.757</ele>
        <time>2021-10-14T10:36:30Z</time>
      </trkpt>
      <trkpt lat="43.019633" lon="-5.777571">
        <ele>897.374</ele>
        <time>2021-10-14T10:36:31Z</time>
      </trkpt>
      <trkpt lat="43.019704" lon="-5.777752">
        <ele>896.356</ele>
        <time>2021-10-14T10:36:32Z</time>
      </trkpt>
      <trkpt lat="43.019870" lon="-5.778062">
        <ele>892.821</ele>
        <time>2021-10-14T10:36:34Z</time>
      </trkpt>
      <trkpt lat="43.020095" lon="-5.778248">
        <ele>890.808</ele>
        <time>2021-10-14T10:36:36Z</time>
      </trkpt>
      <trkpt lat="43.020229" lon="-5.778292">
        <ele>888.785</ele>
        <time>2021-10-14T10:36:37Z</time>
      </trkpt>
      <trkpt lat="43.020370" lon="-5.778322">
        <ele>887.213</ele>
        <time>2021-10-14T10:36:38Z</time>
      </trkpt>
      <trkpt lat="43.020659" lon="-5.778376">
        <ele>885.031</ele>
        <time>2021-10-14T10:36:40Z</time>
      </trkpt>
      <trkpt lat="43.020807" lon="-5.778392">
        <ele>884.128</ele>
        <time>2021-10-14T10:36:41Z</time>
      </trkpt>
      <trkpt lat="43.021101" lon="-5.778345">
        <ele>881.991</ele>
        <time>2021-10-14T10:36:43Z</time>
      </trkpt>
      <trkpt lat="43.021242" lon="-5.778286">
        <ele>881.258</ele>
        <time>2021-10-14T10:36:44Z</time>
      </trkpt>
      <trkpt lat="43.021378" lon="-5.778219">
        <ele>880.740</ele>
        <time>2021-10-14T10:36:45Z</time>
      </trkpt>
      <trkpt lat="43.021633" lon="-5.778093">
        <ele>881.189</ele>
        <time>2021-10-14T10:36:47Z</time>
      </trkpt>
      <trkpt lat="43.021882" lon="-5.777968">
        <ele>880.793</ele>
        <time>2021-10-14T10:36:49Z</time>
      </trkpt>
      <trkpt lat="43.021996" lon="-5.777893">
        <ele>879.965</ele>
        <time>2021-10-14T10:36:50Z</time>
      </trkpt>
      <trkpt lat="43.022160" lon="-5.777665">
        <ele>879.221</ele>
        <time>2021-10-14T10:36:52Z</time>
      </trkpt>
      <trkpt lat="43.022224" lon="-5.777376">
        <ele>880.108</ele>
        <time>2021-10-14T10:36:54Z</time>
      </trkpt>
      <trkpt lat="43.022242" lon="-5.777222">
        <ele>880.367</ele>
        <time>2021-10-14T10:36:55Z</time>
      </trkpt>
      <trkpt lat="43.022265" lon="-5.777065">
        <ele>880.475</ele>
        <time>2021-10-14T10:36:56Z</time>
      </trkpt>
      <trkpt lat="43.022317" lon="-5.776756">
        <ele>881.243</ele>
        <time>2021-10-14T10:36:58Z</time>
      </trkpt>
      <trkpt lat="43.022352" lon="-5.776622">
        <ele>881.670</ele>
        <time>2021-10-14T10:36:59Z</time>
      </trkpt>
      <trkpt lat="43.022456" lon="-5.776430">
        <ele>881.653</ele>
        <time>2021-10-14T10:37:01Z</time>
      </trkpt>
      <trkpt lat="43.022532" lon="-5.776389">
        <ele>881.180</ele>
        <time>2021-10-14T10:37:02Z</time>
      </trkpt>
      <trkpt lat="43.022739" lon="-5.776434">
        <ele>880.512</ele>
        <time>2021-10-14T10:37:04Z</time>
      </trkpt>
      <trkpt lat="43.022979" lon="-5.776610">
        <ele>879.991</ele>
        <time>2021-10-14T10:37:06Z</time>
      </trkpt>
      <trkpt lat="43.023101" lon="-5.776748">
        <ele>879.214</ele>
        <time>2021-10-14T10:37:07Z</time>
      </trkpt>
      <trkpt lat="43.023330" lon="-5.777059">
        <ele>876.454</ele>
        <time>2021-10-14T10:37:09Z</time>
      </trkpt>
      <trkpt lat="43.023444" lon="-5.777202">
        <ele>874.409</ele>
        <time>2021-10-14T10:37:10Z</time>
      </trkpt>
      <trkpt lat="43.023674" lon="-5.777468">
        <ele>872.008</ele>
        <time>2021-10-14T10:37:12Z</time>
      </trkpt>
      <trkpt lat="43.023792" lon="-5.777587">
        <ele>871.149</ele>
        <time>2021-10-14T10:37:13Z</time>
      </trkpt>
      <trkpt lat="43.024053" lon="-5.777788">
        <ele>868.417</ele>
        <time>2021-10-14T10:37:15Z</time>
      </trkpt>
      <trkpt lat="43.024191" lon="-5.777875">
        <ele>867.695</ele>
        <time>2021-10-14T10:37:16Z</time>
      </trkpt>
      <trkpt lat="43.024326" lon="-5.777962">
        <ele>867.222</ele>
        <time>2021-10-14T10:37:17Z</time>
      </trkpt>
      <trkpt lat="43.024594" lon="-5.778153">
        <ele>864.895</ele>
        <time>2021-10-14T10:37:19Z</time>
      </trkpt>
      <trkpt lat="43.024728" lon="-5.778253">
        <ele>864.492</ele>
        <time>2021-10-14T10:37:20Z</time>
      </trkpt>
      <trkpt lat="43.024861" lon="-5.778356">
        <ele>863.774</ele>
        <time>2021-10-14T10:37:21Z</time>
      </trkpt>
      <trkpt lat="43.025126" lon="-5.778517">
        <ele>862.193</ele>
        <time>2021-10-14T10:37:23Z</time>
      </trkpt>
      <trkpt lat="43.025370" lon="-5.778606">
        <ele>861.737</ele>
        <time>2021-10-14T10:37:25Z</time>
      </trkpt>
      <trkpt lat="43.025475" lon="-5.778668">
        <ele>861.549</ele>
        <time>2021-10-14T10:37:26Z</time>
      </trkpt>
      <trkpt lat="43.025637" lon="-5.778879">
        <ele>861.213</ele>
        <time>2021-10-14T10:37:28Z</time>
      </trkpt>
      <trkpt lat="43.025696" lon="-5.779017">
        <ele>860.508</ele>
        <time>2021-10-14T10:37:29Z</time>
      </trkpt>
      <trkpt lat="43.025756" lon="-5.779151">
        <ele>859.681</ele>
        <time>2021-10-14T10:37:30Z</time>
      </trkpt>
      <trkpt lat="43.025836" lon="-5.779267">
        <ele>858.019</ele>
        <time>2021-10-14T10:37:31Z</time>
      </trkpt>
      <trkpt lat="43.025934" lon="-5.779355">
        <ele>857.477</ele>
        <time>2021-10-14T10:37:32Z</time>
      </trkpt>
      <trkpt lat="43.026171" lon="-5.779444">
        <ele>856.524</ele>
        <time>2021-10-14T10:37:34Z</time>
      </trkpt>
      <trkpt lat="43.026305" lon="-5.779480">
        <ele>856.137</ele>
        <time>2021-10-14T10:37:35Z</time>
      </trkpt>
      <trkpt lat="43.026555" lon="-5.779603">
        <ele>854.044</ele>
        <time>2021-10-14T10:37:37Z</time>
      </trkpt>
      <trkpt lat="43.026761" lon="-5.779779">
        <ele>853.836</ele>
        <time>2021-10-14T10:37:39Z</time>
      </trkpt>
      <trkpt lat="43.026916" lon="-5.779976">
        <ele>853.395</ele>
        <time>2021-10-14T10:37:41Z</time>
      </trkpt>
      <trkpt lat="43.026986" lon="-5.780080">
        <ele>852.474</ele>
        <time>2021-10-14T10:37:42Z</time>
      </trkpt>
      <trkpt lat="43.027129" lon="-5.780291">
        <ele>851.356</ele>
        <time>2021-10-14T10:37:44Z</time>
      </trkpt>
      <trkpt lat="43.027214" lon="-5.780399">
        <ele>850.821</ele>
        <time>2021-10-14T10:37:45Z</time>
      </trkpt>
      <trkpt lat="43.027436" lon="-5.780587">
        <ele>849.708</ele>
        <time>2021-10-14T10:37:47Z</time>
      </trkpt>
      <trkpt lat="43.027571" lon="-5.780662">
        <ele>848.665</ele>
        <time>2021-10-14T10:37:48Z</time>
      </trkpt>
      <trkpt lat="43.027868" lon="-5.780749">
        <ele>846.433</ele>
        <time>2021-10-14T10:37:50Z</time>
      </trkpt>
      <trkpt lat="43.028180" lon="-5.780742">
        <ele>846.041</ele>
        <time>2021-10-14T10:37:52Z</time>
      </trkpt>
      <trkpt lat="43.028332" lon="-5.780747">
        <ele>846.228</ele>
        <time>2021-10-14T10:37:53Z</time>
      </trkpt>
      <trkpt lat="43.028607" lon="-5.780846">
        <ele>846.631</ele>
        <time>2021-10-14T10:37:55Z</time>
      </trkpt>
      <trkpt lat="43.028738" lon="-5.780935">
        <ele>846.068</ele>
        <time>2021-10-14T10:37:56Z</time>
      </trkpt>
      <trkpt lat="43.028971" lon="-5.781144">
        <ele>847.490</ele>
        <time>2021-10-14T10:37:58Z</time>
      </trkpt>
      <trkpt lat="43.029210" lon="-5.781348">
        <ele>847.229</ele>
        <time>2021-10-14T10:38:00Z</time>
      </trkpt>
      <trkpt lat="43.029442" lon="-5.781520">
        <ele>845.983</ele>
        <time>2021-10-14T10:38:02Z</time>
      </trkpt>
      <trkpt lat="43.029565" lon="-5.781586">
        <ele>846.225</ele>
        <time>2021-10-14T10:38:03Z</time>
      </trkpt>
      <trkpt lat="43.029809" lon="-5.781663">
        <ele>846.017</ele>
        <time>2021-10-14T10:38:05Z</time>
      </trkpt>
      <trkpt lat="43.030049" lon="-5.781683">
        <ele>845.608</ele>
        <time>2021-10-14T10:38:07Z</time>
      </trkpt>
      <trkpt lat="43.030276" lon="-5.781640">
        <ele>843.436</ele>
        <time>2021-10-14T10:38:09Z</time>
      </trkpt>
      <trkpt lat="43.030386" lon="-5.781606">
        <ele>843.084</ele>
        <time>2021-10-14T10:38:10Z</time>
      </trkpt>
      <trkpt lat="43.030494" lon="-5.781565">
        <ele>842.052</ele>
        <time>2021-10-14T10:38:11Z</time>
      </trkpt>
      <trkpt lat="43.030729" lon="-5.781504">
        <ele>841.139</ele>
        <time>2021-10-14T10:38:13Z</time>
      </trkpt>
      <trkpt lat="43.031003" lon="-5.781520">
        <ele>840.512</ele>
        <time>2021-10-14T10:38:15Z</time>
      </trkpt>
      <trkpt lat="43.031142" lon="-5.781577">
        <ele>840.019</ele>
        <time>2021-10-14T10:38:16Z</time>
      </trkpt>
      <trkpt lat="43.031276" lon="-5.781648">
        <ele>839.961</ele>
        <time>2021-10-14T10:38:17Z</time>
      </trkpt>
      <trkpt lat="43.031407" lon="-5.781722">
        <ele>840.080</ele>
        <time>2021-10-14T10:38:18Z</time>
      </trkpt>
      <trkpt lat="43.031683" lon="-5.781851">
        <ele>839.423</ele>
        <time>2021-10-14T10:38:20Z</time>
      </trkpt>
      <trkpt lat="43.031831" lon="-5.781897">
        <ele>839.383</ele>
        <time>2021-10-14T10:38:21Z</time>
      </trkpt>
      <trkpt lat="43.032144" lon="-5.781938">
        <ele>839.711</ele>
        <time>2021-10-14T10:38:23Z</time>
      </trkpt>
      <trkpt lat="43.032452" lon="-5.781896">
        <ele>838.508</ele>
        <time>2021-10-14T10:38:25Z</time>
      </trkpt>
      <trkpt lat="43.032598" lon="-5.781830">
        <ele>838.020</ele>
        <time>2021-10-14T10:38:26Z</time>
      </trkpt>
      <trkpt lat="43.032738" lon="-5.781733">
        <ele>838.188</ele>
        <time>2021-10-14T10:38:27Z</time>
      </trkpt>
      <trkpt lat="43.033010" lon="-5.781486">
        <ele>837.956</ele>
        <time>2021-10-14T10:38:29Z</time>
      </trkpt>
      <trkpt lat="43.033156" lon="-5.781351">
        <ele>837.053</ele>
        <time>2021-10-14T10:38:30Z</time>
      </trkpt>
      <trkpt lat="43.033309" lon="-5.781209">
        <ele>835.726</ele>
        <time>2021-10-14T10:38:31Z</time>
      </trkpt>
      <trkpt lat="43.033620" lon="-5.780901">
        <ele>834.263</ele>
        <time>2021-10-14T10:38:33Z</time>
      </trkpt>
      <trkpt lat="43.033928" lon="-5.780615">
        <ele>833.125</ele>
        <time>2021-10-14T10:38:35Z</time>
      </trkpt>
      <trkpt lat="43.034242" lon="-5.780389">
        <ele>832.014</ele>
        <time>2021-10-14T10:38:37Z</time>
      </trkpt>
      <trkpt lat="43.034582" lon="-5.780236">
        <ele>832.327</ele>
        <time>2021-10-14T10:38:39Z</time>
      </trkpt>
      <trkpt lat="43.034935" lon="-5.780141">
        <ele>831.568</ele>
        <time>2021-10-14T10:38:41Z</time>
      </trkpt>
      <trkpt lat="43.035113" lon="-5.780095">
        <ele>830.514</ele>
        <time>2021-10-14T10:38:42Z</time>
      </trkpt>
      <trkpt lat="43.035289" lon="-5.780047">
        <ele>830.108</ele>
        <time>2021-10-14T10:38:43Z</time>
      </trkpt>
      <trkpt lat="43.035636" lon="-5.779941">
        <ele>829.450</ele>
        <time>2021-10-14T10:38:45Z</time>
      </trkpt>
      <trkpt lat="43.035962" lon="-5.779775">
        <ele>827.278</ele>
        <time>2021-10-14T10:38:47Z</time>
      </trkpt>
      <trkpt lat="43.036107" lon="-5.779675">
        <ele>827.016</ele>
        <time>2021-10-14T10:38:48Z</time>
      </trkpt>
      <trkpt lat="43.036351" lon="-5.779481">
        <ele>825.073</ele>
        <time>2021-10-14T10:38:50Z</time>
      </trkpt>
      <trkpt lat="43.036446" lon="-5.779386">
        <ele>823.236</ele>
        <time>2021-10-14T10:38:51Z</time>
      </trkpt>
      <trkpt lat="43.036518" lon="-5.779287">
        <ele>822.573</ele>
        <time>2021-10-14T10:38:52Z</time>
      </trkpt>
      <trkpt lat="43.036588" lon="-5.779062">
        <ele>820.365</ele>
        <time>2021-10-14T10:38:54Z</time>
      </trkpt>
      <trkpt lat="43.036584" lon="-5.778933">
        <ele>818.464</ele>
        <time>2021-10-14T10:38:55Z</time>
      </trkpt>
      <trkpt lat="43.036547" lon="-5.778794">
        <ele>818.212</ele>
        <time>2021-10-14T10:38:56Z</time>
      </trkpt>
      <trkpt lat="43.036427" lon="-5.778505">
        <ele>815.232</ele>
        <time>2021-10-14T10:38:58Z</time>
      </trkpt>
      <trkpt lat="43.036310" lon="-5.778192">
        <ele>813.505</ele>
        <time>2021-10-14T10:39:00Z</time>
      </trkpt>
      <trkpt lat="43.036258" lon="-5.777888">
        <ele>811.108</ele>
        <time>2021-10-14T10:39:02Z</time>
      </trkpt>
      <trkpt lat="43.036271" lon="-5.777738">
        <ele>810.839</ele>
        <time>2021-10-14T10:39:03Z</time>
      </trkpt>
      <trkpt lat="43.036402" lon="-5.777502">
        <ele>808.927</ele>
        <time>2021-10-14T10:39:05Z</time>
      </trkpt>
      <trkpt lat="43.036512" lon="-5.777424">
        <ele>807.255</ele>
        <time>2021-10-14T10:39:06Z</time>
      </trkpt>
      <trkpt lat="43.036792" lon="-5.777378">
        <ele>805.172</ele>
        <time>2021-10-14T10:39:08Z</time>
      </trkpt>
      <trkpt lat="43.036942" lon="-5.777394">
        <ele>802.575</ele>
        <time>2021-10-14T10:39:09Z</time>
      </trkpt>
      <trkpt lat="43.037234" lon="-5.777374">
        <ele>799.392</ele>
        <time>2021-10-14T10:39:11Z</time>
      </trkpt>
      <trkpt lat="43.037522" lon="-5.777304">
        <ele>797.054</ele>
        <time>2021-10-14T10:39:13Z</time>
      </trkpt>
      <trkpt lat="43.037667" lon="-5.777266">
        <ele>795.343</ele>
        <time>2021-10-14T10:39:14Z</time>
      </trkpt>
      <trkpt lat="43.037810" lon="-5.777225">
        <ele>794.178</ele>
        <time>2021-10-14T10:39:15Z</time>
      </trkpt>
      <trkpt lat="43.038080" lon="-5.777108">
        <ele>792.033</ele>
        <time>2021-10-14T10:39:17Z</time>
      </trkpt>
      <trkpt lat="43.038196" lon="-5.776999">
        <ele>790.826</ele>
        <time>2021-10-14T10:39:18Z</time>
      </trkpt>
      <trkpt lat="43.038296" lon="-5.776864">
        <ele>790.308</ele>
        <time>2021-10-14T10:39:19Z</time>
      </trkpt>
      <trkpt lat="43.038466" lon="-5.776572">
        <ele>789.845</ele>
        <time>2021-10-14T10:39:21Z</time>
      </trkpt>
      <trkpt lat="43.038542" lon="-5.776442">
        <ele>789.743</ele>
        <time>2021-10-14T10:39:22Z</time>
      </trkpt>
      <trkpt lat="43.038694" lon="-5.776241">
        <ele>787.891</ele>
        <time>2021-10-14T10:39:24Z</time>
      </trkpt>
      <trkpt lat="43.038857" lon="-5.776141">
        <ele>786.858</ele>
        <time>2021-10-14T10:39:26Z</time>
      </trkpt>
      <trkpt lat="43.039035" lon="-5.776199">
        <ele>785.711</ele>
        <time>2021-10-14T10:39:28Z</time>
      </trkpt>
      <trkpt lat="43.039111" lon="-5.776318">
        <ele>785.668</ele>
        <time>2021-10-14T10:39:29Z</time>
      </trkpt>
      <trkpt lat="43.039206" lon="-5.776732">
        <ele>783.480</ele>
        <time>2021-10-14T10:39:31Z</time>
      </trkpt>
      <trkpt lat="43.039294" lon="-5.777153">
        <ele>779.619</ele>
        <time>2021-10-14T10:39:33Z</time>
      </trkpt>
      <trkpt lat="43.039342" lon="-5.777345">
        <ele>778.484</ele>
        <time>2021-10-14T10:39:34Z</time>
      </trkpt>
      <trkpt lat="43.039458" lon="-5.777694">
        <ele>775.307</ele>
        <time>2021-10-14T10:39:36Z</time>
      </trkpt>
      <trkpt lat="43.039590" lon="-5.777994">
        <ele>770.917</ele>
        <time>2021-10-14T10:39:38Z</time>
      </trkpt>
      <trkpt lat="43.039660" lon="-5.778127">
        <ele>770.408</ele>
        <time>2021-10-14T10:39:39Z</time>
      </trkpt>
      <trkpt lat="43.039724" lon="-5.778254">
        <ele>770.466</ele>
        <time>2021-10-14T10:39:40Z</time>
      </trkpt>
      <trkpt lat="43.039827" lon="-5.778505">
        <ele>766.444</ele>
        <time>2021-10-14T10:39:42Z</time>
      </trkpt>
      <trkpt lat="43.039860" lon="-5.778635">
        <ele>765.322</ele>
        <time>2021-10-14T10:39:43Z</time>
      </trkpt>
      <trkpt lat="43.039889" lon="-5.778901">
        <ele>763.429</ele>
        <time>2021-10-14T10:39:45Z</time>
      </trkpt>
      <trkpt lat="43.039899" lon="-5.779033">
        <ele>763.032</ele>
        <time>2021-10-14T10:39:46Z</time>
      </trkpt>
      <trkpt lat="43.039931" lon="-5.779292">
        <ele>761.939</ele>
        <time>2021-10-14T10:39:48Z</time>
      </trkpt>
      <trkpt lat="43.039958" lon="-5.779417">
        <ele>761.591</ele>
        <time>2021-10-14T10:39:49Z</time>
      </trkpt>
      <trkpt lat="43.039997" lon="-5.779539">
        <ele>761.320</ele>
        <time>2021-10-14T10:39:50Z</time>
      </trkpt>
      <trkpt lat="43.040121" lon="-5.779778">
        <ele>759.796</ele>
        <time>2021-10-14T10:39:52Z</time>
      </trkpt>
      <trkpt lat="43.040273" lon="-5.779935">
        <ele>757.031</ele>
        <time>2021-10-14T10:39:54Z</time>
      </trkpt>
      <trkpt lat="43.040357" lon="-5.779957">
        <ele>756.724</ele>
        <time>2021-10-14T10:39:55Z</time>
      </trkpt>
      <trkpt lat="43.040447" lon="-5.779937">
        <ele>756.608</ele>
        <time>2021-10-14T10:39:56Z</time>
      </trkpt>
      <trkpt lat="43.040606" lon="-5.779768">
        <ele>755.857</ele>
        <time>2021-10-14T10:39:58Z</time>
      </trkpt>
      <trkpt lat="43.040671" lon="-5.779633">
        <ele>754.915</ele>
        <time>2021-10-14T10:39:59Z</time>
      </trkpt>
      <trkpt lat="43.040722" lon="-5.779472">
        <ele>754.083</ele>
        <time>2021-10-14T10:40:00Z</time>
      </trkpt>
      <trkpt lat="43.040775" lon="-5.779295">
        <ele>752.940</ele>
        <time>2021-10-14T10:40:01Z</time>
      </trkpt>
      <trkpt lat="43.040837" lon="-5.779118">
        <ele>752.783</ele>
        <time>2021-10-14T10:40:02Z</time>
      </trkpt>
      <trkpt lat="43.040988" lon="-5.778768">
        <ele>747.670</ele>
        <time>2021-10-14T10:40:04Z</time>
      </trkpt>
      <trkpt lat="43.041171" lon="-5.778415">
        <ele>743.522</ele>
        <time>2021-10-14T10:40:06Z</time>
      </trkpt>
      <trkpt lat="43.041316" lon="-5.778031">
        <ele>739.471</ele>
        <time>2021-10-14T10:40:08Z</time>
      </trkpt>
      <trkpt lat="43.041386" lon="-5.777839">
        <ele>737.168</ele>
        <time>2021-10-14T10:40:09Z</time>
      </trkpt>
      <trkpt lat="43.041553" lon="-5.777470">
        <ele>733.642</ele>
        <time>2021-10-14T10:40:11Z</time>
      </trkpt>
      <trkpt lat="43.041753" lon="-5.777150">
        <ele>731.426</ele>
        <time>2021-10-14T10:40:13Z</time>
      </trkpt>
      <trkpt lat="43.041866" lon="-5.776998">
        <ele>729.708</ele>
        <time>2021-10-14T10:40:14Z</time>
      </trkpt>
      <trkpt lat="43.042096" lon="-5.776738">
        <ele>726.054</ele>
        <time>2021-10-14T10:40:16Z</time>
      </trkpt>
      <trkpt lat="43.042321" lon="-5.776552">
        <ele>722.782</ele>
        <time>2021-10-14T10:40:18Z</time>
      </trkpt>
      <trkpt lat="43.042431" lon="-5.776483">
        <ele>722.540</ele>
        <time>2021-10-14T10:40:19Z</time>
      </trkpt>
      <trkpt lat="43.042541" lon="-5.776433">
        <ele>719.947</ele>
        <time>2021-10-14T10:40:20Z</time>
      </trkpt>
      <trkpt lat="43.042758" lon="-5.776411">
        <ele>715.170</ele>
        <time>2021-10-14T10:40:22Z</time>
      </trkpt>
      <trkpt lat="43.042951" lon="-5.776524">
        <ele>713.477</ele>
        <time>2021-10-14T10:40:24Z</time>
      </trkpt>
      <trkpt lat="43.043032" lon="-5.776642">
        <ele>711.939</ele>
        <time>2021-10-14T10:40:25Z</time>
      </trkpt>
      <trkpt lat="43.043104" lon="-5.776793">
        <ele>709.358</ele>
        <time>2021-10-14T10:40:26Z</time>
      </trkpt>
      <trkpt lat="43.043235" lon="-5.777092">
        <ele>707.999</ele>
        <time>2021-10-14T10:40:28Z</time>
      </trkpt>
      <trkpt lat="43.043410" lon="-5.777337">
        <ele>704.007</ele>
        <time>2021-10-14T10:40:30Z</time>
      </trkpt>
      <trkpt lat="43.043524" lon="-5.777404">
        <ele>703.127</ele>
        <time>2021-10-14T10:40:31Z</time>
      </trkpt>
      <trkpt lat="43.043652" lon="-5.777430">
        <ele>701.008</ele>
        <time>2021-10-14T10:40:32Z</time>
      </trkpt>
      <trkpt lat="43.043914" lon="-5.777407">
        <ele>699.467</ele>
        <time>2021-10-14T10:40:34Z</time>
      </trkpt>
      <trkpt lat="43.044047" lon="-5.777387">
        <ele>697.925</ele>
        <time>2021-10-14T10:40:35Z</time>
      </trkpt>
      <trkpt lat="43.044326" lon="-5.777351">
        <ele>694.023</ele>
        <time>2021-10-14T10:40:37Z</time>
      </trkpt>
      <trkpt lat="43.044470" lon="-5.777327">
        <ele>693.610</ele>
        <time>2021-10-14T10:40:38Z</time>
      </trkpt>
      <trkpt lat="43.044752" lon="-5.777229">
        <ele>691.933</ele>
        <time>2021-10-14T10:40:40Z</time>
      </trkpt>
      <trkpt lat="43.045025" lon="-5.777080">
        <ele>691.410</ele>
        <time>2021-10-14T10:40:42Z</time>
      </trkpt>
      <trkpt lat="43.045169" lon="-5.777027">
        <ele>690.592</ele>
        <time>2021-10-14T10:40:43Z</time>
      </trkpt>
      <trkpt lat="43.045316" lon="-5.776996">
        <ele>690.271</ele>
        <time>2021-10-14T10:40:44Z</time>
      </trkpt>
      <trkpt lat="43.045603" lon="-5.776915">
        <ele>688.646</ele>
        <time>2021-10-14T10:40:46Z</time>
      </trkpt>
      <trkpt lat="43.045873" lon="-5.776774">
        <ele>687.588</ele>
        <time>2021-10-14T10:40:48Z</time>
      </trkpt>
      <trkpt lat="43.046141" lon="-5.776613">
        <ele>686.016</ele>
        <time>2021-10-14T10:40:50Z</time>
      </trkpt>
      <trkpt lat="43.046375" lon="-5.776386">
        <ele>683.808</ele>
        <time>2021-10-14T10:40:52Z</time>
      </trkpt>
      <trkpt lat="43.046472" lon="-5.776242">
        <ele>682.552</ele>
        <time>2021-10-14T10:40:53Z</time>
      </trkpt>
      <trkpt lat="43.046671" lon="-5.775994">
        <ele>680.920</ele>
        <time>2021-10-14T10:40:55Z</time>
      </trkpt>
      <trkpt lat="43.046788" lon="-5.775903">
        <ele>679.518</ele>
        <time>2021-10-14T10:40:56Z</time>
      </trkpt>
      <trkpt lat="43.047067" lon="-5.775806">
        <ele>678.045</ele>
        <time>2021-10-14T10:40:58Z</time>
      </trkpt>
      <trkpt lat="43.047375" lon="-5.775758">
        <ele>674.518</ele>
        <time>2021-10-14T10:41:00Z</time>
      </trkpt>
      <trkpt lat="43.047528" lon="-5.775697">
        <ele>673.355</ele>
        <time>2021-10-14T10:41:01Z</time>
      </trkpt>
      <trkpt lat="43.047667" lon="-5.775613">
        <ele>672.187</ele>
        <time>2021-10-14T10:41:02Z</time>
      </trkpt>
      <trkpt lat="43.047893" lon="-5.775448">
        <ele>669.326</ele>
        <time>2021-10-14T10:41:04Z</time>
      </trkpt>
      <trkpt lat="43.047994" lon="-5.775392">
        <ele>668.162</ele>
        <time>2021-10-14T10:41:05Z</time>
      </trkpt>
      <trkpt lat="43.048177" lon="-5.775355">
        <ele>665.383</ele>
        <time>2021-10-14T10:41:07Z</time>
      </trkpt>
      <trkpt lat="43.048260" lon="-5.775370">
        <ele>665.311</ele>
        <time>2021-10-14T10:41:08Z</time>
      </trkpt>
      <trkpt lat="43.048419" lon="-5.775479">
        <ele>662.508</ele>
        <time>2021-10-14T10:41:10Z</time>
      </trkpt>
      <trkpt lat="43.048601" lon="-5.775611">
        <ele>658.154</ele>
        <time>2021-10-14T10:41:12Z</time>
      </trkpt>
      <trkpt lat="43.048712" lon="-5.775658">
        <ele>657.582</ele>
        <time>2021-10-14T10:41:13Z</time>
      </trkpt>
      <trkpt lat="43.048834" lon="-5.775689">
        <ele>654.450</ele>
        <time>2021-10-14T10:41:14Z</time>
      </trkpt>
      <trkpt lat="43.048969" lon="-5.775707">
        <ele>652.217</ele>
        <time>2021-10-14T10:41:15Z</time>
      </trkpt>
      <trkpt lat="43.049259" lon="-5.775744">
        <ele>648.080</ele>
        <time>2021-10-14T10:41:17Z</time>
      </trkpt>
      <trkpt lat="43.049565" lon="-5.775769">
        <ele>644.537</ele>
        <time>2021-10-14T10:41:19Z</time>
      </trkpt>
      <trkpt lat="43.049714" lon="-5.775756">
        <ele>643.379</ele>
        <time>2021-10-14T10:41:20Z</time>
      </trkpt>
      <trkpt lat="43.049985" lon="-5.775642">
        <ele>640.748</ele>
        <time>2021-10-14T10:41:22Z</time>
      </trkpt>
      <trkpt lat="43.050205" lon="-5.775424">
        <ele>638.621</ele>
        <time>2021-10-14T10:41:24Z</time>
      </trkpt>
      <trkpt lat="43.050305" lon="-5.775298">
        <ele>637.641</ele>
        <time>2021-10-14T10:41:25Z</time>
      </trkpt>
      <trkpt lat="43.050406" lon="-5.775168">
        <ele>636.405</ele>
        <time>2021-10-14T10:41:26Z</time>
      </trkpt>
      <trkpt lat="43.050587" lon="-5.774964">
        <ele>634.808</ele>
        <time>2021-10-14T10:41:28Z</time>
      </trkpt>
      <trkpt lat="43.050667" lon="-5.774883">
        <ele>633.640</ele>
        <time>2021-10-14T10:41:29Z</time>
      </trkpt>
      <trkpt lat="43.050811" lon="-5.774740">
        <ele>632.168</ele>
        <time>2021-10-14T10:41:31Z</time>
      </trkpt>
      <trkpt lat="43.050890" lon="-5.774690">
        <ele>631.736</ele>
        <time>2021-10-14T10:41:32Z</time>
      </trkpt>
      <trkpt lat="43.051060" lon="-5.774693">
        <ele>630.333</ele>
        <time>2021-10-14T10:41:34Z</time>
      </trkpt>
      <trkpt lat="43.051143" lon="-5.774753">
        <ele>630.116</ele>
        <time>2021-10-14T10:41:35Z</time>
      </trkpt>
      <trkpt lat="43.051216" lon="-5.774845">
        <ele>629.273</ele>
        <time>2021-10-14T10:41:36Z</time>
      </trkpt>
      <trkpt lat="43.051361" lon="-5.775045">
        <ele>626.885</ele>
        <time>2021-10-14T10:41:38Z</time>
      </trkpt>
      <trkpt lat="43.051448" lon="-5.775149">
        <ele>625.594</ele>
        <time>2021-10-14T10:41:39Z</time>
      </trkpt>
      <trkpt lat="43.051658" lon="-5.775339">
        <ele>623.589</ele>
        <time>2021-10-14T10:41:41Z</time>
      </trkpt>
      <trkpt lat="43.051774" lon="-5.775401">
        <ele>623.306</ele>
        <time>2021-10-14T10:41:42Z</time>
      </trkpt>
      <trkpt lat="43.052022" lon="-5.775431">
        <ele>620.626</ele>
        <time>2021-10-14T10:41:44Z</time>
      </trkpt>
      <trkpt lat="43.052149" lon="-5.775399">
        <ele>620.408</ele>
        <time>2021-10-14T10:41:45Z</time>
      </trkpt>
      <trkpt lat="43.052390" lon="-5.775252">
        <ele>616.356</ele>
        <time>2021-10-14T10:41:47Z</time>
      </trkpt>
      <trkpt lat="43.052494" lon="-5.775141">
        <ele>614.374</ele>
        <time>2021-10-14T10:41:48Z</time>
      </trkpt>
      <trkpt lat="43.052586" lon="-5.775015">
        <ele>612.392</ele>
        <time>2021-10-14T10:41:49Z</time>
      </trkpt>
      <trkpt lat="43.052715" lon="-5.774709">
        <ele>610.019</ele>
        <time>2021-10-14T10:41:51Z</time>
      </trkpt>
      <trkpt lat="43.052744" lon="-5.774532">
        <ele>608.022</ele>
        <time>2021-10-14T10:41:52Z</time>
      </trkpt>
      <trkpt lat="43.052764" lon="-5.774179">
        <ele>604.419</ele>
        <time>2021-10-14T10:41:54Z</time>
      </trkpt>
      <trkpt lat="43.052746" lon="-5.773805">
        <ele>600.991</ele>
        <time>2021-10-14T10:41:56Z</time>
      </trkpt>
      <trkpt lat="43.052691" lon="-5.773463">
        <ele>599.230</ele>
        <time>2021-10-14T10:41:58Z</time>
      </trkpt>
      <trkpt lat="43.052614" lon="-5.773124">
        <ele>595.849</ele>
        <time>2021-10-14T10:42:00Z</time>
      </trkpt>
      <trkpt lat="43.052501" lon="-5.772798">
        <ele>593.902</ele>
        <time>2021-10-14T10:42:02Z</time>
      </trkpt>
      <trkpt lat="43.052350" lon="-5.772495">
        <ele>590.522</ele>
        <time>2021-10-14T10:42:04Z</time>
      </trkpt>
      <trkpt lat="43.052186" lon="-5.772172">
        <ele>588.708</ele>
        <time>2021-10-14T10:42:06Z</time>
      </trkpt>
      <trkpt lat="43.052020" lon="-5.771830">
        <ele>587.342</ele>
        <time>2021-10-14T10:42:08Z</time>
      </trkpt>
      <trkpt lat="43.051851" lon="-5.771516">
        <ele>587.040</ele>
        <time>2021-10-14T10:42:10Z</time>
      </trkpt>
      <trkpt lat="43.051766" lon="-5.771376">
        <ele>586.818</ele>
        <time>2021-10-14T10:42:11Z</time>
      </trkpt>
      <trkpt lat="43.051686" lon="-5.771243">
        <ele>586.285</ele>
        <time>2021-10-14T10:42:12Z</time>
      </trkpt>
      <trkpt lat="43.051542" lon="-5.770996">
        <ele>585.548</ele>
        <time>2021-10-14T10:42:14Z</time>
      </trkpt>
      <trkpt lat="43.051461" lon="-5.770755">
        <ele>585.675</ele>
        <time>2021-10-14T10:42:16Z</time>
      </trkpt>
      <trkpt lat="43.051461" lon="-5.770535">
        <ele>586.287</ele>
        <time>2021-10-14T10:42:18Z</time>
      </trkpt>
      <trkpt lat="43.051487" lon="-5.770446">
        <ele>586.186</ele>
        <time>2021-10-14T10:42:19Z</time>
      </trkpt>
      <trkpt lat="43.051529" lon="-5.770378">
        <ele>585.947</ele>
        <time>2021-10-14T10:42:20Z</time>
      </trkpt>
      <trkpt lat="43.051678" lon="-5.770318">
        <ele>585.729</ele>
        <time>2021-10-14T10:42:22Z</time>
      </trkpt>
      <trkpt lat="43.051927" lon="-5.770374">
        <ele>585.421</ele>
        <time>2021-10-14T10:42:24Z</time>
      </trkpt>
      <trkpt lat="43.052225" lon="-5.770555">
        <ele>584.208</ele>
        <time>2021-10-14T10:42:26Z</time>
      </trkpt>
      <trkpt lat="43.052502" lon="-5.770817">
        <ele>581.562</ele>
        <time>2021-10-14T10:42:28Z</time>
      </trkpt>
      <trkpt lat="43.052643" lon="-5.770967">
        <ele>579.780</ele>
        <time>2021-10-14T10:42:29Z</time>
      </trkpt>
      <trkpt lat="43.052929" lon="-5.771257">
        <ele>575.978</ele>
        <time>2021-10-14T10:42:31Z</time>
      </trkpt>
      <trkpt lat="43.053070" lon="-5.771405">
        <ele>574.365</ele>
        <time>2021-10-14T10:42:32Z</time>
      </trkpt>
      <trkpt lat="43.053320" lon="-5.771706">
        <ele>572.068</ele>
        <time>2021-10-14T10:42:34Z</time>
      </trkpt>
      <trkpt lat="43.053444" lon="-5.771856">
        <ele>570.385</ele>
        <time>2021-10-14T10:42:35Z</time>
      </trkpt>
      <trkpt lat="43.053697" lon="-5.772137">
        <ele>568.127</ele>
        <time>2021-10-14T10:42:37Z</time>
      </trkpt>
      <trkpt lat="43.053830" lon="-5.772276">
        <ele>566.876</ele>
        <time>2021-10-14T10:42:38Z</time>
      </trkpt>
      <trkpt lat="43.054085" lon="-5.772557">
        <ele>564.062</ele>
        <time>2021-10-14T10:42:40Z</time>
      </trkpt>
      <trkpt lat="43.054321" lon="-5.772858">
        <ele>561.783</ele>
        <time>2021-10-14T10:42:42Z</time>
      </trkpt>
      <trkpt lat="43.054528" lon="-5.773187">
        <ele>560.711</ele>
        <time>2021-10-14T10:42:44Z</time>
      </trkpt>
      <trkpt lat="43.054663" lon="-5.773530">
        <ele>559.908</ele>
        <time>2021-10-14T10:42:46Z</time>
      </trkpt>
      <trkpt lat="43.054773" lon="-5.773818">
        <ele>558.964</ele>
        <time>2021-10-14T10:42:48Z</time>
      </trkpt>
      <trkpt lat="43.054884" lon="-5.774072">
        <ele>557.552</ele>
        <time>2021-10-14T10:42:50Z</time>
      </trkpt>
      <trkpt lat="43.055036" lon="-5.774239">
        <ele>555.860</ele>
        <time>2021-10-14T10:42:52Z</time>
      </trkpt>
      <trkpt lat="43.055128" lon="-5.774276">
        <ele>554.697</ele>
        <time>2021-10-14T10:42:53Z</time>
      </trkpt>
      <trkpt lat="43.055223" lon="-5.774281">
        <ele>554.620</ele>
        <time>2021-10-14T10:42:54Z</time>
      </trkpt>
      <trkpt lat="43.055434" lon="-5.774199">
        <ele>553.127</ele>
        <time>2021-10-14T10:42:56Z</time>
      </trkpt>
      <trkpt lat="43.055673" lon="-5.774084">
        <ele>553.099</ele>
        <time>2021-10-14T10:42:58Z</time>
      </trkpt>
      <trkpt lat="43.055812" lon="-5.774036">
        <ele>552.748</ele>
        <time>2021-10-14T10:42:59Z</time>
      </trkpt>
      <trkpt lat="43.056104" lon="-5.773967">
        <ele>552.044</ele>
        <time>2021-10-14T10:43:01Z</time>
      </trkpt>
      <trkpt lat="43.056254" lon="-5.773939">
        <ele>551.805</ele>
        <time>2021-10-14T10:43:02Z</time>
      </trkpt>
      <trkpt lat="43.056557" lon="-5.773852">
        <ele>550.215</ele>
        <time>2021-10-14T10:43:04Z</time>
      </trkpt>
      <trkpt lat="43.056708" lon="-5.773771">
        <ele>550.008</ele>
        <time>2021-10-14T10:43:05Z</time>
      </trkpt>
      <trkpt lat="43.056973" lon="-5.773533">
        <ele>548.042</ele>
        <time>2021-10-14T10:43:07Z</time>
      </trkpt>
      <trkpt lat="43.057090" lon="-5.773390">
        <ele>546.650</ele>
        <time>2021-10-14T10:43:08Z</time>
      </trkpt>
      <trkpt lat="43.057320" lon="-5.773100">
        <ele>545.048</ele>
        <time>2021-10-14T10:43:10Z</time>
      </trkpt>
      <trkpt lat="43.057577" lon="-5.772811">
        <ele>543.295</ele>
        <time>2021-10-14T10:43:12Z</time>
      </trkpt>
      <trkpt lat="43.057721" lon="-5.772689">
        <ele>542.568</ele>
        <time>2021-10-14T10:43:13Z</time>
      </trkpt>
      <trkpt lat="43.057870" lon="-5.772586">
        <ele>542.225</ele>
        <time>2021-10-14T10:43:14Z</time>
      </trkpt>
      <trkpt lat="43.058146" lon="-5.772405">
        <ele>540.117</ele>
        <time>2021-10-14T10:43:16Z</time>
      </trkpt>
      <trkpt lat="43.058393" lon="-5.772233">
        <ele>539.746</ele>
        <time>2021-10-14T10:43:18Z</time>
      </trkpt>
      <trkpt lat="43.058596" lon="-5.772063">
        <ele>538.264</ele>
        <time>2021-10-14T10:43:20Z</time>
      </trkpt>
      <trkpt lat="43.058712" lon="-5.771870">
        <ele>537.006</ele>
        <time>2021-10-14T10:43:22Z</time>
      </trkpt>
      <trkpt lat="43.058724" lon="-5.771627">
        <ele>537.016</ele>
        <time>2021-10-14T10:43:24Z</time>
      </trkpt>
      <trkpt lat="43.058649" lon="-5.771326">
        <ele>535.708</ele>
        <time>2021-10-14T10:43:26Z</time>
      </trkpt>
      <trkpt lat="43.058615" lon="-5.771146">
        <ele>535.614</ele>
        <time>2021-10-14T10:43:27Z</time>
      </trkpt>
      <trkpt lat="43.058579" lon="-5.770786">
        <ele>535.522</ele>
        <time>2021-10-14T10:43:29Z</time>
      </trkpt>
      <trkpt lat="43.058561" lon="-5.770606">
        <ele>535.590</ele>
        <time>2021-10-14T10:43:30Z</time>
      </trkpt>
      <trkpt lat="43.058485" lon="-5.770257">
        <ele>532.457</ele>
        <time>2021-10-14T10:43:32Z</time>
      </trkpt>
      <trkpt lat="43.058329" lon="-5.769967">
        <ele>530.960</ele>
        <time>2021-10-14T10:43:34Z</time>
      </trkpt>
      <trkpt lat="43.058161" lon="-5.769726">
        <ele>529.327</ele>
        <time>2021-10-14T10:43:36Z</time>
      </trkpt>
      <trkpt lat="43.058107" lon="-5.769607">
        <ele>528.119</ele>
        <time>2021-10-14T10:43:37Z</time>
      </trkpt>
      <trkpt lat="43.058075" lon="-5.769488">
        <ele>528.148</ele>
        <time>2021-10-14T10:43:38Z</time>
      </trkpt>
      <trkpt lat="43.058104" lon="-5.769250">
        <ele>526.448</ele>
        <time>2021-10-14T10:43:40Z</time>
      </trkpt>
      <trkpt lat="43.058241" lon="-5.769085">
        <ele>525.761</ele>
        <time>2021-10-14T10:43:42Z</time>
      </trkpt>
      <trkpt lat="43.058448" lon="-5.769060">
        <ele>525.917</ele>
        <time>2021-10-14T10:43:44Z</time>
      </trkpt>
      <trkpt lat="43.058679" lon="-5.769172">
        <ele>522.308</ele>
        <time>2021-10-14T10:43:46Z</time>
      </trkpt>
      <trkpt lat="43.058913" lon="-5.769376">
        <ele>520.152</ele>
        <time>2021-10-14T10:43:48Z</time>
      </trkpt>
      <trkpt lat="43.059031" lon="-5.769486">
        <ele>518.870</ele>
        <time>2021-10-14T10:43:49Z</time>
      </trkpt>
      <trkpt lat="43.059141" lon="-5.769599">
        <ele>518.468</ele>
        <time>2021-10-14T10:43:50Z</time>
      </trkpt>
      <trkpt lat="43.059320" lon="-5.769844">
        <ele>518.345</ele>
        <time>2021-10-14T10:43:52Z</time>
      </trkpt>
      <trkpt lat="43.059385" lon="-5.769993">
        <ele>517.058</ele>
        <time>2021-10-14T10:43:53Z</time>
      </trkpt>
      <trkpt lat="43.059438" lon="-5.770160">
        <ele>516.215</ele>
        <time>2021-10-14T10:43:54Z</time>
      </trkpt>
      <trkpt lat="43.059554" lon="-5.770524">
        <ele>515.197</ele>
        <time>2021-10-14T10:43:56Z</time>
      </trkpt>
      <trkpt lat="43.059680" lon="-5.770858">
        <ele>514.836</ele>
        <time>2021-10-14T10:43:58Z</time>
      </trkpt>
      <trkpt lat="43.059753" lon="-5.771010">
        <ele>514.771</ele>
        <time>2021-10-14T10:43:59Z</time>
      </trkpt>
      <trkpt lat="43.059947" lon="-5.771259">
        <ele>513.941</ele>
        <time>2021-10-14T10:44:01Z</time>
      </trkpt>
      <trkpt lat="43.060063" lon="-5.771370">
        <ele>512.515</ele>
        <time>2021-10-14T10:44:02Z</time>
      </trkpt>
      <trkpt lat="43.060179" lon="-5.771483">
        <ele>511.808</ele>
        <time>2021-10-14T10:44:03Z</time>
      </trkpt>
      <trkpt lat="43.060394" lon="-5.771725">
        <ele>510.155</ele>
        <time>2021-10-14T10:44:05Z</time>
      </trkpt>
      <trkpt lat="43.060492" lon="-5.771844">
        <ele>510.483</ele>
        <time>2021-10-14T10:44:06Z</time>
      </trkpt>
      <trkpt lat="43.060703" lon="-5.771985">
        <ele>509.441</ele>
        <time>2021-10-14T10:44:08Z</time>
      </trkpt>
      <trkpt lat="43.060948" lon="-5.771979">
        <ele>507.338</ele>
        <time>2021-10-14T10:44:10Z</time>
      </trkpt>
      <trkpt lat="43.061083" lon="-5.771938">
        <ele>507.221</ele>
        <time>2021-10-14T10:44:11Z</time>
      </trkpt>
      <trkpt lat="43.061371" lon="-5.771860">
        <ele>503.768</ele>
        <time>2021-10-14T10:44:13Z</time>
      </trkpt>
      <trkpt lat="43.061525" lon="-5.771838">
        <ele>502.410</ele>
        <time>2021-10-14T10:44:14Z</time>
      </trkpt>
      <trkpt lat="43.061838" lon="-5.771846">
        <ele>499.689</ele>
        <time>2021-10-14T10:44:16Z</time>
      </trkpt>
      <trkpt lat="43.062143" lon="-5.771926">
        <ele>498.412</ele>
        <time>2021-10-14T10:44:18Z</time>
      </trkpt>
      <trkpt lat="43.062288" lon="-5.772003">
        <ele>496.832</ele>
        <time>2021-10-14T10:44:19Z</time>
      </trkpt>
      <trkpt lat="43.062427" lon="-5.772094">
        <ele>495.205</ele>
        <time>2021-10-14T10:44:20Z</time>
      </trkpt>
      <trkpt lat="43.062689" lon="-5.772255">
        <ele>492.308</ele>
        <time>2021-10-14T10:44:22Z</time>
      </trkpt>
      <trkpt lat="43.062930" lon="-5.772303">
        <ele>488.029</ele>
        <time>2021-10-14T10:44:24Z</time>
      </trkpt>
      <trkpt lat="43.063140" lon="-5.772164">
        <ele>485.537</ele>
        <time>2021-10-14T10:44:26Z</time>
      </trkpt>
      <trkpt lat="43.063319" lon="-5.771925">
        <ele>483.085</ele>
        <time>2021-10-14T10:44:28Z</time>
      </trkpt>
      <trkpt lat="43.063421" lon="-5.771805">
        <ele>481.062</ele>
        <time>2021-10-14T10:44:29Z</time>
      </trkpt>
      <trkpt lat="43.063659" lon="-5.771633">
        <ele>478.985</ele>
        <time>2021-10-14T10:44:31Z</time>
      </trkpt>
      <trkpt lat="43.063794" lon="-5.771599">
        <ele>477.592</ele>
        <time>2021-10-14T10:44:32Z</time>
      </trkpt>
      <trkpt lat="43.063934" lon="-5.771603">
        <ele>476.664</ele>
        <time>2021-10-14T10:44:33Z</time>
      </trkpt>
      <trkpt lat="43.064076" lon="-5.771629">
        <ele>474.673</ele>
        <time>2021-10-14T10:44:34Z</time>
      </trkpt>
      <trkpt lat="43.064364" lon="-5.771689">
        <ele>471.581</ele>
        <time>2021-10-14T10:44:36Z</time>
      </trkpt>
      <trkpt lat="43.064668" lon="-5.771777">
        <ele>469.761</ele>
        <time>2021-10-14T10:44:38Z</time>
      </trkpt>
      <trkpt lat="43.064960" lon="-5.771914">
        <ele>468.717</ele>
        <time>2021-10-14T10:44:40Z</time>
      </trkpt>
      <trkpt lat="43.065235" lon="-5.772094">
        <ele>467.108</ele>
        <time>2021-10-14T10:44:42Z</time>
      </trkpt>
      <trkpt lat="43.065364" lon="-5.772191">
        <ele>466.436</ele>
        <time>2021-10-14T10:44:43Z</time>
      </trkpt>
      <trkpt lat="43.065485" lon="-5.772285">
        <ele>466.194</ele>
        <time>2021-10-14T10:44:44Z</time>
      </trkpt>
      <trkpt lat="43.065695" lon="-5.772439">
        <ele>463.722</ele>
        <time>2021-10-14T10:44:46Z</time>
      </trkpt>
      <trkpt lat="43.065891" lon="-5.772506">
        <ele>460.779</ele>
        <time>2021-10-14T10:44:48Z</time>
      </trkpt>
      <trkpt lat="43.065994" lon="-5.772485">
        <ele>459.332</ele>
        <time>2021-10-14T10:44:49Z</time>
      </trkpt>
      <trkpt lat="43.066090" lon="-5.772422">
        <ele>458.249</ele>
        <time>2021-10-14T10:44:50Z</time>
      </trkpt>
      <trkpt lat="43.066236" lon="-5.772179">
        <ele>455.621</ele>
        <time>2021-10-14T10:44:52Z</time>
      </trkpt>
      <trkpt lat="43.066297" lon="-5.772016">
        <ele>454.280</ele>
        <time>2021-10-14T10:44:53Z</time>
      </trkpt>
      <trkpt lat="43.066442" lon="-5.771657">
        <ele>453.452</ele>
        <time>2021-10-14T10:44:55Z</time>
      </trkpt>
      <trkpt lat="43.066537" lon="-5.771489">
        <ele>453.753</ele>
        <time>2021-10-14T10:44:56Z</time>
      </trkpt>
      <trkpt lat="43.066755" lon="-5.771232">
        <ele>451.708</ele>
        <time>2021-10-14T10:44:58Z</time>
      </trkpt>
      <trkpt lat="43.067035" lon="-5.771051">
        <ele>450.908</ele>
        <time>2021-10-14T10:45:00Z</time>
      </trkpt>
      <trkpt lat="43.067340" lon="-5.770928">
        <ele>450.433</ele>
        <time>2021-10-14T10:45:02Z</time>
      </trkpt>
      <trkpt lat="43.067490" lon="-5.770900">
        <ele>449.721</ele>
        <time>2021-10-14T10:45:03Z</time>
      </trkpt>
      <trkpt lat="43.067779" lon="-5.770918">
        <ele>448.819</ele>
        <time>2021-10-14T10:45:05Z</time>
      </trkpt>
      <trkpt lat="43.067917" lon="-5.770935">
        <ele>447.426</ele>
        <time>2021-10-14T10:45:06Z</time>
      </trkpt>
      <trkpt lat="43.068194" lon="-5.770976">
        <ele>446.379</ele>
        <time>2021-10-14T10:45:08Z</time>
      </trkpt>
      <trkpt lat="43.068456" lon="-5.771085">
        <ele>442.726</ele>
        <time>2021-10-14T10:45:10Z</time>
      </trkpt>
      <trkpt lat="43.068703" lon="-5.771248">
        <ele>441.568</ele>
        <time>2021-10-14T10:45:12Z</time>
      </trkpt>
      <trkpt lat="43.068960" lon="-5.771360">
        <ele>438.747</ele>
        <time>2021-10-14T10:45:14Z</time>
      </trkpt>
      <trkpt lat="43.069211" lon="-5.771325">
        <ele>436.326</ele>
        <time>2021-10-14T10:45:16Z</time>
      </trkpt>
      <trkpt lat="43.069413" lon="-5.771088">
        <ele>432.747</ele>
        <time>2021-10-14T10:45:18Z</time>
      </trkpt>
      <trkpt lat="43.069492" lon="-5.770911">
        <ele>432.111</ele>
        <time>2021-10-14T10:45:19Z</time>
      </trkpt>
      <trkpt lat="43.069560" lon="-5.770725">
        <ele>430.808</ele>
        <time>2021-10-14T10:45:20Z</time>
      </trkpt>
      <trkpt lat="43.069678" lon="-5.770363">
        <ele>427.970</ele>
        <time>2021-10-14T10:45:22Z</time>
      </trkpt>
      <trkpt lat="43.069734" lon="-5.770183">
        <ele>427.848</ele>
        <time>2021-10-14T10:45:23Z</time>
      </trkpt>
      <trkpt lat="43.069849" lon="-5.769860">
        <ele>427.726</ele>
        <time>2021-10-14T10:45:25Z</time>
      </trkpt>
      <trkpt lat="43.069920" lon="-5.769714">
        <ele>427.653</ele>
        <time>2021-10-14T10:45:26Z</time>
      </trkpt>
      <trkpt lat="43.070088" lon="-5.769478">
        <ele>426.216</ele>
        <time>2021-10-14T10:45:28Z</time>
      </trkpt>
      <trkpt lat="43.070188" lon="-5.769380">
        <ele>426.273</ele>
        <time>2021-10-14T10:45:29Z</time>
      </trkpt>
      <trkpt lat="43.070295" lon="-5.769315">
        <ele>425.265</ele>
        <time>2021-10-14T10:45:30Z</time>
      </trkpt>
      <trkpt lat="43.070519" lon="-5.769269">
        <ele>425.284</ele>
        <time>2021-10-14T10:45:32Z</time>
      </trkpt>
      <trkpt lat="43.070690" lon="-5.769170">
        <ele>425.227</ele>
        <time>2021-10-14T10:45:34Z</time>
      </trkpt>
      <trkpt lat="43.070741" lon="-5.769075">
        <ele>425.268</ele>
        <time>2021-10-14T10:45:35Z</time>
      </trkpt>
      <trkpt lat="43.070767" lon="-5.768960">
        <ele>425.214</ele>
        <time>2021-10-14T10:45:36Z</time>
      </trkpt>
      <trkpt lat="43.070777" lon="-5.768828">
        <ele>425.308</ele>
        <time>2021-10-14T10:45:37Z</time>
      </trkpt>
      <trkpt lat="43.070787" lon="-5.768685">
        <ele>424.230</ele>
        <time>2021-10-14T10:45:38Z</time>
      </trkpt>
      <trkpt lat="43.070827" lon="-5.768387">
        <ele>424.528</ele>
        <time>2021-10-14T10:45:40Z</time>
      </trkpt>
      <trkpt lat="43.070864" lon="-5.768243">
        <ele>426.256</ele>
        <time>2021-10-14T10:45:41Z</time>
      </trkpt>
      <trkpt lat="43.070978" lon="-5.767982">
        <ele>425.183</ele>
        <time>2021-10-14T10:45:43Z</time>
      </trkpt>
      <trkpt lat="43.071049" lon="-5.767862">
        <ele>425.186</ele>
        <time>2021-10-14T10:45:44Z</time>
      </trkpt>
      <trkpt lat="43.071220" lon="-5.767691">
        <ele>426.063</ele>
        <time>2021-10-14T10:45:46Z</time>
      </trkpt>
      <trkpt lat="43.071407" lon="-5.767672">
        <ele>426.075</ele>
        <time>2021-10-14T10:45:48Z</time>
      </trkpt>
      <trkpt lat="43.071500" lon="-5.767731">
        <ele>424.864</ele>
        <time>2021-10-14T10:45:49Z</time>
      </trkpt>
      <trkpt lat="43.071599" lon="-5.767836">
        <ele>423.959</ele>
        <time>2021-10-14T10:45:50Z</time>
      </trkpt>
      <trkpt lat="43.071790" lon="-5.768092">
        <ele>422.003</ele>
        <time>2021-10-14T10:45:52Z</time>
      </trkpt>
      <trkpt lat="43.071969" lon="-5.768306">
        <ele>421.923</ele>
        <time>2021-10-14T10:45:54Z</time>
      </trkpt>
      <trkpt lat="43.072155" lon="-5.768513">
        <ele>419.808</ele>
        <time>2021-10-14T10:45:56Z</time>
      </trkpt>
      <trkpt lat="43.072346" lon="-5.768680">
        <ele>418.883</ele>
        <time>2021-10-14T10:45:58Z</time>
      </trkpt>
      <trkpt lat="43.072566" lon="-5.768760">
        <ele>417.481</ele>
        <time>2021-10-14T10:46:00Z</time>
      </trkpt>
      <trkpt lat="43.072794" lon="-5.768691">
        <ele>417.869</ele>
        <time>2021-10-14T10:46:02Z</time>
      </trkpt>
      <trkpt lat="43.072890" lon="-5.768589">
        <ele>418.766</ele>
        <time>2021-10-14T10:46:03Z</time>
      </trkpt>
      <trkpt lat="43.073035" lon="-5.768281">
        <ele>419.079</ele>
        <time>2021-10-14T10:46:05Z</time>
      </trkpt>
      <trkpt lat="43.073103" lon="-5.768110">
        <ele>418.166</ele>
        <time>2021-10-14T10:46:06Z</time>
      </trkpt>
      <trkpt lat="43.073281" lon="-5.767820">
        <ele>416.718</ele>
        <time>2021-10-14T10:46:08Z</time>
      </trkpt>
      <trkpt lat="43.073525" lon="-5.767646">
        <ele>417.117</ele>
        <time>2021-10-14T10:46:10Z</time>
      </trkpt>
      <trkpt lat="43.073663" lon="-5.767620">
        <ele>416.477</ele>
        <time>2021-10-14T10:46:11Z</time>
      </trkpt>
      <trkpt lat="43.073799" lon="-5.767636">
        <ele>415.761</ele>
        <time>2021-10-14T10:46:12Z</time>
      </trkpt>
      <trkpt lat="43.074065" lon="-5.767686">
        <ele>415.927</ele>
        <time>2021-10-14T10:46:14Z</time>
      </trkpt>
      <trkpt lat="43.074318" lon="-5.767646">
        <ele>417.508</ele>
        <time>2021-10-14T10:46:16Z</time>
      </trkpt>
      <trkpt lat="43.074443" lon="-5.767607">
        <ele>417.715</ele>
        <time>2021-10-14T10:46:17Z</time>
      </trkpt>
      <trkpt lat="43.074691" lon="-5.767538">
        <ele>417.763</ele>
        <time>2021-10-14T10:46:19Z</time>
      </trkpt>
      <trkpt lat="43.074822" lon="-5.767511">
        <ele>417.731</ele>
        <time>2021-10-14T10:46:20Z</time>
      </trkpt>
      <trkpt lat="43.075089" lon="-5.767475">
        <ele>418.258</ele>
        <time>2021-10-14T10:46:22Z</time>
      </trkpt>
      <trkpt lat="43.075229" lon="-5.767470">
        <ele>417.841</ele>
        <time>2021-10-14T10:46:23Z</time>
      </trkpt>
      <trkpt lat="43.075369" lon="-5.767469">
        <ele>416.188</ele>
        <time>2021-10-14T10:46:24Z</time>
      </trkpt>
      <trkpt lat="43.075647" lon="-5.767462">
        <ele>415.710</ele>
        <time>2021-10-14T10:46:26Z</time>
      </trkpt>
      <trkpt lat="43.075900" lon="-5.767417">
        <ele>415.839</ele>
        <time>2021-10-14T10:46:28Z</time>
      </trkpt>
      <trkpt lat="43.076027" lon="-5.767402">
        <ele>415.886</ele>
        <time>2021-10-14T10:46:29Z</time>
      </trkpt>
      <trkpt lat="43.076276" lon="-5.767428">
        <ele>414.060</ele>
        <time>2021-10-14T10:46:31Z</time>
      </trkpt>
      <trkpt lat="43.076497" lon="-5.767591">
        <ele>414.826</ele>
        <time>2021-10-14T10:46:33Z</time>
      </trkpt>
      <trkpt lat="43.076595" lon="-5.767722">
        <ele>414.808</ele>
        <time>2021-10-14T10:46:34Z</time>
      </trkpt>
      <trkpt lat="43.076781" lon="-5.768045">
        <ele>411.476</ele>
        <time>2021-10-14T10:46:36Z</time>
      </trkpt>
      <trkpt lat="43.076881" lon="-5.768225">
        <ele>410.954</ele>
        <time>2021-10-14T10:46:37Z</time>
      </trkpt>
      <trkpt lat="43.076990" lon="-5.768416">
        <ele>409.612</ele>
        <time>2021-10-14T10:46:38Z</time>
      </trkpt>
      <trkpt lat="43.077205" lon="-5.768810">
        <ele>406.979</ele>
        <time>2021-10-14T10:46:40Z</time>
      </trkpt>
      <trkpt lat="43.077309" lon="-5.769020">
        <ele>406.652</ele>
        <time>2021-10-14T10:46:41Z</time>
      </trkpt>
      <trkpt lat="43.077491" lon="-5.769451">
        <ele>403.489</ele>
        <time>2021-10-14T10:46:43Z</time>
      </trkpt>
      <trkpt lat="43.077573" lon="-5.769683">
        <ele>402.661</ele>
        <time>2021-10-14T10:46:44Z</time>
      </trkpt>
      <trkpt lat="43.077728" lon="-5.770141">
        <ele>402.850</ele>
        <time>2021-10-14T10:46:46Z</time>
      </trkpt>
      <trkpt lat="43.077872" lon="-5.770578">
        <ele>402.697</ele>
        <time>2021-10-14T10:46:48Z</time>
      </trkpt>
      <trkpt lat="43.077945" lon="-5.770779">
        <ele>401.423</ele>
        <time>2021-10-14T10:46:49Z</time>
      </trkpt>
      <trkpt lat="43.078029" lon="-5.770972">
        <ele>400.525</ele>
        <time>2021-10-14T10:46:50Z</time>
      </trkpt>
      <trkpt lat="43.078218" lon="-5.771315">
        <ele>399.708</ele>
        <time>2021-10-14T10:46:52Z</time>
      </trkpt>
      <trkpt lat="43.078401" lon="-5.771643">
        <ele>398.637</ele>
        <time>2021-10-14T10:46:54Z</time>
      </trkpt>
      <trkpt lat="43.078516" lon="-5.772004">
        <ele>400.075</ele>
        <time>2021-10-14T10:46:56Z</time>
      </trkpt>
      <trkpt lat="43.078525" lon="-5.772393">
        <ele>400.953</ele>
        <time>2021-10-14T10:46:58Z</time>
      </trkpt>
      <trkpt lat="43.078444" lon="-5.772798">
        <ele>401.630</ele>
        <time>2021-10-14T10:47:00Z</time>
      </trkpt>
      <trkpt lat="43.078381" lon="-5.772993">
        <ele>401.693</ele>
        <time>2021-10-14T10:47:01Z</time>
      </trkpt>
      <trkpt lat="43.078323" lon="-5.773193">
        <ele>400.740</ele>
        <time>2021-10-14T10:47:02Z</time>
      </trkpt>
      <trkpt lat="43.078258" lon="-5.773570">
        <ele>398.832</ele>
        <time>2021-10-14T10:47:04Z</time>
      </trkpt>
      <trkpt lat="43.078255" lon="-5.773771">
        <ele>397.511</ele>
        <time>2021-10-14T10:47:05Z</time>
      </trkpt>
      <trkpt lat="43.078317" lon="-5.774173">
        <ele>395.267</ele>
        <time>2021-10-14T10:47:07Z</time>
      </trkpt>
      <trkpt lat="43.078377" lon="-5.774375">
        <ele>394.881</ele>
        <time>2021-10-14T10:47:08Z</time>
      </trkpt>
      <trkpt lat="43.078550" lon="-5.774750">
        <ele>392.919</ele>
        <time>2021-10-14T10:47:10Z</time>
      </trkpt>
      <trkpt lat="43.078758" lon="-5.775137">
        <ele>392.008</ele>
        <time>2021-10-14T10:47:12Z</time>
      </trkpt>
      <trkpt lat="43.078955" lon="-5.775574">
        <ele>390.884</ele>
        <time>2021-10-14T10:47:14Z</time>
      </trkpt>
      <trkpt lat="43.079143" lon="-5.776043">
        <ele>389.952</ele>
        <time>2021-10-14T10:47:16Z</time>
      </trkpt>
      <trkpt lat="43.079341" lon="-5.776541">
        <ele>389.980</ele>
        <time>2021-10-14T10:47:18Z</time>
      </trkpt>
      <trkpt lat="43.079450" lon="-5.776790">
        <ele>389.547</ele>
        <time>2021-10-14T10:47:19Z</time>
      </trkpt>
      <trkpt lat="43.079564" lon="-5.777040">
        <ele>389.330</ele>
        <time>2021-10-14T10:47:20Z</time>
      </trkpt>
      <trkpt lat="43.079790" lon="-5.777515">
        <ele>388.257</ele>
        <time>2021-10-14T10:47:22Z</time>
      </trkpt>
      <trkpt lat="43.079906" lon="-5.777747">
        <ele>387.679</ele>
        <time>2021-10-14T10:47:23Z</time>
      </trkpt>
      <trkpt lat="43.080112" lon="-5.778172">
        <ele>385.428</ele>
        <time>2021-10-14T10:47:25Z</time>
      </trkpt>
      <trkpt lat="43.080218" lon="-5.778392">
        <ele>384.938</ele>
        <time>2021-10-14T10:47:26Z</time>
      </trkpt>
      <trkpt lat="43.080413" lon="-5.778806">
        <ele>382.970</ele>
        <time>2021-10-14T10:47:28Z</time>
      </trkpt>
      <trkpt lat="43.080602" lon="-5.779244">
        <ele>382.417</ele>
        <time>2021-10-14T10:47:30Z</time>
      </trkpt>
      <trkpt lat="43.080773" lon="-5.779694">
        <ele>382.908</ele>
        <time>2021-10-14T10:47:32Z</time>
      </trkpt>
      <trkpt lat="43.080853" lon="-5.779923">
        <ele>381.771</ele>
        <time>2021-10-14T10:47:33Z</time>
      </trkpt>
      <trkpt lat="43.081000" lon="-5.780378">
        <ele>381.229</ele>
        <time>2021-10-14T10:47:35Z</time>
      </trkpt>
      <trkpt lat="43.081139" lon="-5.780795">
        <ele>382.087</ele>
        <time>2021-10-14T10:47:37Z</time>
      </trkpt>
      <trkpt lat="43.081207" lon="-5.781000">
        <ele>380.314</ele>
        <time>2021-10-14T10:47:38Z</time>
      </trkpt>
      <trkpt lat="43.081347" lon="-5.781403">
        <ele>380.667</ele>
        <time>2021-10-14T10:47:40Z</time>
      </trkpt>
      <trkpt lat="43.081427" lon="-5.781609">
        <ele>380.434</ele>
        <time>2021-10-14T10:47:41Z</time>
      </trkpt>
      <trkpt lat="43.081626" lon="-5.782002">
        <ele>380.256</ele>
        <time>2021-10-14T10:47:43Z</time>
      </trkpt>
      <trkpt lat="43.081751" lon="-5.782182">
        <ele>380.415</ele>
        <time>2021-10-14T10:47:44Z</time>
      </trkpt>
      <trkpt lat="43.082049" lon="-5.782475">
        <ele>379.354</ele>
        <time>2021-10-14T10:47:46Z</time>
      </trkpt>
      <trkpt lat="43.082405" lon="-5.782655">
        <ele>380.056</ele>
        <time>2021-10-14T10:47:48Z</time>
      </trkpt>
      <trkpt lat="43.082594" lon="-5.782707">
        <ele>380.011</ele>
        <time>2021-10-14T10:47:49Z</time>
      </trkpt>
      <trkpt lat="43.082791" lon="-5.782749">
        <ele>379.708</ele>
        <time>2021-10-14T10:47:50Z</time>
      </trkpt>
      <trkpt lat="43.083181" lon="-5.782872">
        <ele>378.723</ele>
        <time>2021-10-14T10:47:52Z</time>
      </trkpt>
      <trkpt lat="43.083561" lon="-5.783080">
        <ele>378.411</ele>
        <time>2021-10-14T10:47:54Z</time>
      </trkpt>
      <trkpt lat="43.083744" lon="-5.783212">
        <ele>377.719</ele>
        <time>2021-10-14T10:47:55Z</time>
      </trkpt>
      <trkpt lat="43.084103" lon="-5.783504">
        <ele>376.436</ele>
        <time>2021-10-14T10:47:57Z</time>
      </trkpt>
      <trkpt lat="43.084281" lon="-5.783658">
        <ele>375.299</ele>
        <time>2021-10-14T10:47:58Z</time>
      </trkpt>
      <trkpt lat="43.084635" lon="-5.783967">
        <ele>373.796</ele>
        <time>2021-10-14T10:48:00Z</time>
      </trkpt>
      <trkpt lat="43.084993" lon="-5.784278">
        <ele>371.878</ele>
        <time>2021-10-14T10:48:02Z</time>
      </trkpt>
      <trkpt lat="43.085174" lon="-5.784427">
        <ele>370.517</ele>
        <time>2021-10-14T10:48:03Z</time>
      </trkpt>
      <trkpt lat="43.085549" lon="-5.784666">
        <ele>367.954</ele>
        <time>2021-10-14T10:48:05Z</time>
      </trkpt>
      <trkpt lat="43.085944" lon="-5.784780">
        <ele>367.456</ele>
        <time>2021-10-14T10:48:07Z</time>
      </trkpt>
      <trkpt lat="43.086150" lon="-5.784807">
        <ele>365.611</ele>
        <time>2021-10-14T10:48:08Z</time>
      </trkpt>
      <trkpt lat="43.086531" lon="-5.784857">
        <ele>364.808</ele>
        <time>2021-10-14T10:48:10Z</time>
      </trkpt>
      <trkpt lat="43.086870" lon="-5.784998">
        <ele>362.673</ele>
        <time>2021-10-14T10:48:12Z</time>
      </trkpt>
      <trkpt lat="43.087022" lon="-5.785109">
        <ele>362.161</ele>
        <time>2021-10-14T10:48:13Z</time>
      </trkpt>
      <trkpt lat="43.087171" lon="-5.785227">
        <ele>361.389</ele>
        <time>2021-10-14T10:48:14Z</time>
      </trkpt>
      <trkpt lat="43.087486" lon="-5.785429">
        <ele>359.796</ele>
        <time>2021-10-14T10:48:16Z</time>
      </trkpt>
      <trkpt lat="43.087656" lon="-5.785505">
        <ele>360.059</ele>
        <time>2021-10-14T10:48:17Z</time>
      </trkpt>
      <trkpt lat="43.088010" lon="-5.785597">
        <ele>359.286</ele>
        <time>2021-10-14T10:48:19Z</time>
      </trkpt>
      <trkpt lat="43.088200" lon="-5.785583">
        <ele>359.058</ele>
        <time>2021-10-14T10:48:20Z</time>
      </trkpt>
      <trkpt lat="43.088577" lon="-5.785545">
        <ele>358.687</ele>
        <time>2021-10-14T10:48:22Z</time>
      </trkpt>
      <trkpt lat="43.088763" lon="-5.785554">
        <ele>357.991</ele>
        <time>2021-10-14T10:48:23Z</time>
      </trkpt>
      <trkpt lat="43.089100" lon="-5.785661">
        <ele>356.981</ele>
        <time>2021-10-14T10:48:25Z</time>
      </trkpt>
      <trkpt lat="43.089263" lon="-5.785759">
        <ele>356.619</ele>
        <time>2021-10-14T10:48:26Z</time>
      </trkpt>
      <trkpt lat="43.089558" lon="-5.786015">
        <ele>354.808</ele>
        <time>2021-10-14T10:48:28Z</time>
      </trkpt>
      <trkpt lat="43.089694" lon="-5.786185">
        <ele>354.257</ele>
        <time>2021-10-14T10:48:29Z</time>
      </trkpt>
      <trkpt lat="43.089824" lon="-5.786377">
        <ele>354.015</ele>
        <time>2021-10-14T10:48:30Z</time>
      </trkpt>
      <trkpt lat="43.089953" lon="-5.786580">
        <ele>353.443</ele>
        <time>2021-10-14T10:48:31Z</time>
      </trkpt>
      <trkpt lat="43.090085" lon="-5.786783">
        <ele>352.620</ele>
        <time>2021-10-14T10:48:32Z</time>
      </trkpt>
      <trkpt lat="43.090220" lon="-5.786983">
        <ele>352.463</ele>
        <time>2021-10-14T10:48:33Z</time>
      </trkpt>
      <trkpt lat="43.090491" lon="-5.787392">
        <ele>351.710</ele>
        <time>2021-10-14T10:48:35Z</time>
      </trkpt>
      <trkpt lat="43.090761" lon="-5.787809">
        <ele>352.122</ele>
        <time>2021-10-14T10:48:37Z</time>
      </trkpt>
      <trkpt lat="43.090885" lon="-5.788035">
        <ele>352.021</ele>
        <time>2021-10-14T10:48:38Z</time>
      </trkpt>
      <trkpt lat="43.091088" lon="-5.788532">
        <ele>352.366</ele>
        <time>2021-10-14T10:48:40Z</time>
      </trkpt>
      <trkpt lat="43.091166" lon="-5.788808">
        <ele>352.329</ele>
        <time>2021-10-14T10:48:41Z</time>
      </trkpt>
      <trkpt lat="43.091242" lon="-5.789085">
        <ele>351.621</ele>
        <time>2021-10-14T10:48:42Z</time>
      </trkpt>
      <trkpt lat="43.091394" lon="-5.789629">
        <ele>351.408</ele>
        <time>2021-10-14T10:48:44Z</time>
      </trkpt>
      <trkpt lat="43.091555" lon="-5.790143">
        <ele>349.934</ele>
        <time>2021-10-14T10:48:46Z</time>
      </trkpt>
      <trkpt lat="43.091649" lon="-5.790389">
        <ele>349.462</ele>
        <time>2021-10-14T10:48:47Z</time>
      </trkpt>
      <trkpt lat="43.091750" lon="-5.790631">
        <ele>349.040</ele>
        <time>2021-10-14T10:48:48Z</time>
      </trkpt>
      <trkpt lat="43.091970" lon="-5.791112">
        <ele>347.027</ele>
        <time>2021-10-14T10:48:50Z</time>
      </trkpt>
      <trkpt lat="43.092223" lon="-5.791560">
        <ele>346.380</ele>
        <time>2021-10-14T10:48:52Z</time>
      </trkpt>
      <trkpt lat="43.092367" lon="-5.791776">
        <ele>345.647</ele>
        <time>2021-10-14T10:48:53Z</time>
      </trkpt>
      <trkpt lat="43.092518" lon="-5.791979">
        <ele>344.829</ele>
        <time>2021-10-14T10:48:54Z</time>
      </trkpt>
      <trkpt lat="43.092671" lon="-5.792171">
        <ele>344.468</ele>
        <time>2021-10-14T10:48:55Z</time>
      </trkpt>
      <trkpt lat="43.092825" lon="-5.792366">
        <ele>344.058</ele>
        <time>2021-10-14T10:48:56Z</time>
      </trkpt>
      <trkpt lat="43.093089" lon="-5.792709">
        <ele>343.152</ele>
        <time>2021-10-14T10:48:58Z</time>
      </trkpt>
      <trkpt lat="43.093218" lon="-5.792894">
        <ele>342.917</ele>
        <time>2021-10-14T10:48:59Z</time>
      </trkpt>
      <trkpt lat="43.093443" lon="-5.793301">
        <ele>342.608</ele>
        <time>2021-10-14T10:49:01Z</time>
      </trkpt>
      <trkpt lat="43.093599" lon="-5.793778">
        <ele>342.763</ele>
        <time>2021-10-14T10:49:03Z</time>
      </trkpt>
      <trkpt lat="43.093650" lon="-5.794038">
        <ele>342.151</ele>
        <time>2021-10-14T10:49:04Z</time>
      </trkpt>
      <trkpt lat="43.093699" lon="-5.794578">
        <ele>340.599</ele>
        <time>2021-10-14T10:49:06Z</time>
      </trkpt>
      <trkpt lat="43.093710" lon="-5.794858">
        <ele>339.776</ele>
        <time>2021-10-14T10:49:07Z</time>
      </trkpt>
      <trkpt lat="43.093721" lon="-5.795144">
        <ele>339.279</ele>
        <time>2021-10-14T10:49:08Z</time>
      </trkpt>
      <trkpt lat="43.093745" lon="-5.795707">
        <ele>336.596</ele>
        <time>2021-10-14T10:49:10Z</time>
      </trkpt>
      <trkpt lat="43.093771" lon="-5.796286">
        <ele>336.248</ele>
        <time>2021-10-14T10:49:12Z</time>
      </trkpt>
      <trkpt lat="43.093829" lon="-5.796850">
        <ele>334.647</ele>
        <time>2021-10-14T10:49:14Z</time>
      </trkpt>
      <trkpt lat="43.093964" lon="-5.797348">
        <ele>333.547</ele>
        <time>2021-10-14T10:49:16Z</time>
      </trkpt>
      <trkpt lat="43.094059" lon="-5.797576">
        <ele>333.129</ele>
        <time>2021-10-14T10:49:17Z</time>
      </trkpt>
      <trkpt lat="43.094294" lon="-5.797980">
        <ele>332.321</ele>
        <time>2021-10-14T10:49:19Z</time>
      </trkpt>
      <trkpt lat="43.094432" lon="-5.798164">
        <ele>331.908</ele>
        <time>2021-10-14T10:49:20Z</time>
      </trkpt>
      <trkpt lat="43.094724" lon="-5.798503">
        <ele>329.772</ele>
        <time>2021-10-14T10:49:22Z</time>
      </trkpt>
      <trkpt lat="43.094875" lon="-5.798676">
        <ele>329.210</ele>
        <time>2021-10-14T10:49:23Z</time>
      </trkpt>
      <trkpt lat="43.095178" lon="-5.799052">
        <ele>327.468</ele>
        <time>2021-10-14T10:49:25Z</time>
      </trkpt>
      <trkpt lat="43.095334" lon="-5.799264">
        <ele>326.335</ele>
        <time>2021-10-14T10:49:26Z</time>
      </trkpt>
      <trkpt lat="43.095487" lon="-5.799488">
        <ele>326.548</ele>
        <time>2021-10-14T10:49:27Z</time>
      </trkpt>
      <trkpt lat="43.095642" lon="-5.799715">
        <ele>326.445</ele>
        <time>2021-10-14T10:49:28Z</time>
      </trkpt>
      <trkpt lat="43.095800" lon="-5.799949">
        <ele>325.447</ele>
        <time>2021-10-14T10:49:29Z</time>
      </trkpt>
      <trkpt lat="43.095957" lon="-5.800190">
        <ele>324.426</ele>
        <time>2021-10-14T10:49:30Z</time>
      </trkpt>
      <trkpt lat="43.096282" lon="-5.800680">
        <ele>323.324</ele>
        <time>2021-10-14T10:49:32Z</time>
      </trkpt>
      <trkpt lat="43.096585" lon="-5.801142">
        <ele>321.504</ele>
        <time>2021-10-14T10:49:34Z</time>
      </trkpt>
      <trkpt lat="43.096725" lon="-5.801359">
        <ele>320.414</ele>
        <time>2021-10-14T10:49:35Z</time>
      </trkpt>
      <trkpt lat="43.096988" lon="-5.801762">
        <ele>320.108</ele>
        <time>2021-10-14T10:49:37Z</time>
      </trkpt>
      <trkpt lat="43.097124" lon="-5.801952">
        <ele>319.240</ele>
        <time>2021-10-14T10:49:38Z</time>
      </trkpt>
      <trkpt lat="43.097403" lon="-5.802308">
        <ele>318.538</ele>
        <time>2021-10-14T10:49:40Z</time>
      </trkpt>
      <trkpt lat="43.097714" lon="-5.802618">
        <ele>316.176</ele>
        <time>2021-10-14T10:49:42Z</time>
      </trkpt>
      <trkpt lat="43.097882" lon="-5.802749">
        <ele>316.453</ele>
        <time>2021-10-14T10:49:43Z</time>
      </trkpt>
      <trkpt lat="43.098062" lon="-5.802857">
        <ele>316.116</ele>
        <time>2021-10-14T10:49:44Z</time>
      </trkpt>
      <trkpt lat="43.098432" lon="-5.802992">
        <ele>315.073</ele>
        <time>2021-10-14T10:49:46Z</time>
      </trkpt>
      <trkpt lat="43.098816" lon="-5.803079">
        <ele>313.915</ele>
        <time>2021-10-14T10:49:48Z</time>
      </trkpt>
      <trkpt lat="43.099198" lon="-5.803200">
        <ele>312.544</ele>
        <time>2021-10-14T10:49:50Z</time>
      </trkpt>
      <trkpt lat="43.099559" lon="-5.803376">
        <ele>312.549</ele>
        <time>2021-10-14T10:49:52Z</time>
      </trkpt>
      <trkpt lat="43.099908" lon="-5.803641">
        <ele>312.602</ele>
        <time>2021-10-14T10:49:54Z</time>
      </trkpt>
      <trkpt lat="43.100233" lon="-5.803991">
        <ele>311.922</ele>
        <time>2021-10-14T10:49:56Z</time>
      </trkpt>
      <trkpt lat="43.100525" lon="-5.804377">
        <ele>312.008</ele>
        <time>2021-10-14T10:49:58Z</time>
      </trkpt>
      <trkpt lat="43.100676" lon="-5.804589">
        <ele>311.512</ele>
        <time>2021-10-14T10:49:59Z</time>
      </trkpt>
      <trkpt lat="43.100825" lon="-5.804804">
        <ele>312.060</ele>
        <time>2021-10-14T10:50:00Z</time>
      </trkpt>
      <trkpt lat="43.100975" lon="-5.805020">
        <ele>312.098</ele>
        <time>2021-10-14T10:50:01Z</time>
      </trkpt>
      <trkpt lat="43.101127" lon="-5.805253">
        <ele>311.665</ele>
        <time>2021-10-14T10:50:02Z</time>
      </trkpt>
      <trkpt lat="43.101370" lon="-5.805760">
        <ele>310.438</ele>
        <time>2021-10-14T10:50:04Z</time>
      </trkpt>
      <trkpt lat="43.101554" lon="-5.806335">
        <ele>310.015</ele>
        <time>2021-10-14T10:50:06Z</time>
      </trkpt>
      <trkpt lat="43.101686" lon="-5.806918">
        <ele>310.127</ele>
        <time>2021-10-14T10:50:08Z</time>
      </trkpt>
      <trkpt lat="43.101718" lon="-5.807495">
        <ele>309.766</ele>
        <time>2021-10-14T10:50:10Z</time>
      </trkpt>
      <trkpt lat="43.101717" lon="-5.807769">
        <ele>309.476</ele>
        <time>2021-10-14T10:50:11Z</time>
      </trkpt>
      <trkpt lat="43.101714" lon="-5.808036">
        <ele>308.890</ele>
        <time>2021-10-14T10:50:12Z</time>
      </trkpt>
      <trkpt lat="43.101724" lon="-5.808575">
        <ele>308.319</ele>
        <time>2021-10-14T10:50:14Z</time>
      </trkpt>
      <trkpt lat="43.101811" lon="-5.809095">
        <ele>307.408</ele>
        <time>2021-10-14T10:50:16Z</time>
      </trkpt>
      <trkpt lat="43.101892" lon="-5.809345">
        <ele>306.665</ele>
        <time>2021-10-14T10:50:17Z</time>
      </trkpt>
      <trkpt lat="43.102120" lon="-5.809798">
        <ele>305.833</ele>
        <time>2021-10-14T10:50:19Z</time>
      </trkpt>
      <trkpt lat="43.102266" lon="-5.809995">
        <ele>305.451</ele>
        <time>2021-10-14T10:50:20Z</time>
      </trkpt>
      <trkpt lat="43.102604" lon="-5.810298">
        <ele>305.128</ele>
        <time>2021-10-14T10:50:22Z</time>
      </trkpt>
      <trkpt lat="43.102794" lon="-5.810420">
        <ele>304.591</ele>
        <time>2021-10-14T10:50:23Z</time>
      </trkpt>
      <trkpt lat="43.103180" lon="-5.810660">
        <ele>302.048</ele>
        <time>2021-10-14T10:50:25Z</time>
      </trkpt>
      <trkpt lat="43.103384" lon="-5.810780">
        <ele>300.540</ele>
        <time>2021-10-14T10:50:26Z</time>
      </trkpt>
      <trkpt lat="43.103782" lon="-5.811022">
        <ele>297.659</ele>
        <time>2021-10-14T10:50:28Z</time>
      </trkpt>
      <trkpt lat="43.104161" lon="-5.811258">
        <ele>294.513</ele>
        <time>2021-10-14T10:50:30Z</time>
      </trkpt>
      <trkpt lat="43.104335" lon="-5.811392">
        <ele>293.443</ele>
        <time>2021-10-14T10:50:31Z</time>
      </trkpt>
      <trkpt lat="43.104618" lon="-5.811702">
        <ele>293.407</ele>
        <time>2021-10-14T10:50:33Z</time>
      </trkpt>
      <trkpt lat="43.104731" lon="-5.811888">
        <ele>293.408</ele>
        <time>2021-10-14T10:50:34Z</time>
      </trkpt>
      <trkpt lat="43.104824" lon="-5.812096">
        <ele>293.339</ele>
        <time>2021-10-14T10:50:35Z</time>
      </trkpt>
      <trkpt lat="43.104961" lon="-5.812558">
        <ele>295.047</ele>
        <time>2021-10-14T10:50:37Z</time>
      </trkpt>
      <trkpt lat="43.105008" lon="-5.812803">
        <ele>295.595</ele>
        <time>2021-10-14T10:50:38Z</time>
      </trkpt>
      <trkpt lat="43.105069" lon="-5.813310">
        <ele>297.412</ele>
        <time>2021-10-14T10:50:40Z</time>
      </trkpt>
      <trkpt lat="43.105088" lon="-5.813860">
        <ele>298.825</ele>
        <time>2021-10-14T10:50:42Z</time>
      </trkpt>
      <trkpt lat="43.105080" lon="-5.814137">
        <ele>299.452</ele>
        <time>2021-10-14T10:50:43Z</time>
      </trkpt>
      <trkpt lat="43.105067" lon="-5.814416">
        <ele>299.444</ele>
        <time>2021-10-14T10:50:44Z</time>
      </trkpt>
      <trkpt lat="43.105058" lon="-5.814951">
        <ele>299.543</ele>
        <time>2021-10-14T10:50:46Z</time>
      </trkpt>
      <trkpt lat="43.105060" lon="-5.815463">
        <ele>299.772</ele>
        <time>2021-10-14T10:50:48Z</time>
      </trkpt>
      <trkpt lat="43.105075" lon="-5.815974">
        <ele>300.113</ele>
        <time>2021-10-14T10:50:50Z</time>
      </trkpt>
      <trkpt lat="43.105145" lon="-5.816460">
        <ele>299.614</ele>
        <time>2021-10-14T10:50:52Z</time>
      </trkpt>
      <trkpt lat="43.105209" lon="-5.816690">
        <ele>299.808</ele>
        <time>2021-10-14T10:50:53Z</time>
      </trkpt>
      <trkpt lat="43.105385" lon="-5.817071">
        <ele>300.575</ele>
        <time>2021-10-14T10:50:55Z</time>
      </trkpt>
      <trkpt lat="43.105485" lon="-5.817216">
        <ele>300.343</ele>
        <time>2021-10-14T10:50:56Z</time>
      </trkpt>
      <trkpt lat="43.105676" lon="-5.817422">
        <ele>300.471</ele>
        <time>2021-10-14T10:50:58Z</time>
      </trkpt>
      <trkpt lat="43.105807" lon="-5.817538">
        <ele>300.478</ele>
        <time>2021-10-14T10:51:00Z</time>
      </trkpt>
      <trkpt lat="43.105854" lon="-5.817579">
        <ele>300.791</ele>
        <time>2021-10-14T10:51:01Z</time>
      </trkpt>
      <trkpt lat="43.105930" lon="-5.817657">
        <ele>300.678</ele>
        <time>2021-10-14T10:51:03Z</time>
      </trkpt>
      <trkpt lat="43.105975" lon="-5.817701">
        <ele>300.990</ele>
        <time>2021-10-14T10:51:05Z</time>
      </trkpt>
      <trkpt lat="43.106014" lon="-5.817740">
        <ele>301.349</ele>
        <time>2021-10-14T10:51:07Z</time>
      </trkpt>
      <trkpt lat="43.106048" lon="-5.817784">
        <ele>302.167</ele>
        <time>2021-10-14T10:51:12Z</time>
      </trkpt>
      <trkpt lat="43.106091" lon="-5.817838">
        <ele>321.581</ele>
        <time>2021-10-14T10:51:32Z</time>
      </trkpt>
      <trkpt lat="43.106128" lon="-5.817935">
        <ele>348.019</ele>
        <time>2021-10-14T10:51:34Z</time>
      </trkpt>
      <trkpt lat="43.106126" lon="-5.818007">
        <ele>352.708</ele>
        <time>2021-10-14T10:51:35Z</time>
      </trkpt>
      <trkpt lat="43.106101" lon="-5.818073">
        <ele>352.764</ele>
        <time>2021-10-14T10:51:36Z</time>
      </trkpt>
      <trkpt lat="43.106059" lon="-5.818137">
        <ele>352.752</ele>
        <time>2021-10-14T10:51:37Z</time>
      </trkpt>
      <trkpt lat="43.106005" lon="-5.818207">
        <ele>352.710</ele>
        <time>2021-10-14T10:51:38Z</time>
      </trkpt>
      <trkpt lat="43.105895" lon="-5.818351">
        <ele>352.717</ele>
        <time>2021-10-14T10:51:40Z</time>
      </trkpt>
      <trkpt lat="43.105837" lon="-5.818423">
        <ele>352.710</ele>
        <time>2021-10-14T10:51:41Z</time>
      </trkpt>
      <trkpt lat="43.105720" lon="-5.818568">
        <ele>352.627</ele>
        <time>2021-10-14T10:51:43Z</time>
      </trkpt>
      <trkpt lat="43.105673" lon="-5.818631">
        <ele>352.669</ele>
        <time>2021-10-14T10:51:44Z</time>
      </trkpt>
      <trkpt lat="43.105608" lon="-5.818731">
        <ele>352.648</ele>
        <time>2021-10-14T10:51:46Z</time>
      </trkpt>
      <trkpt lat="43.105583" lon="-5.818814">
        <ele>352.649</ele>
        <time>2021-10-14T10:51:48Z</time>
      </trkpt>
      <trkpt lat="43.105610" lon="-5.818914">
        <ele>352.602</ele>
        <time>2021-10-14T10:51:50Z</time>
      </trkpt>
      <trkpt lat="43.105693" lon="-5.819065">
        <ele>352.622</ele>
        <time>2021-10-14T10:51:52Z</time>
      </trkpt>
      <trkpt lat="43.105741" lon="-5.819167">
        <ele>352.608</ele>
        <time>2021-10-14T10:51:53Z</time>
      </trkpt>
      <trkpt lat="43.105784" lon="-5.819275">
        <ele>352.682</ele>
        <time>2021-10-14T10:51:54Z</time>
      </trkpt>
      <trkpt lat="43.105825" lon="-5.819383">
        <ele>352.670</ele>
        <time>2021-10-14T10:51:55Z</time>
      </trkpt>
      <trkpt lat="43.105864" lon="-5.819492">
        <ele>352.638</ele>
        <time>2021-10-14T10:51:56Z</time>
      </trkpt>
      <trkpt lat="43.105949" lon="-5.819731">
        <ele>352.695</ele>
        <time>2021-10-14T10:51:58Z</time>
      </trkpt>
      <trkpt lat="43.106041" lon="-5.819964">
        <ele>352.678</ele>
        <time>2021-10-14T10:52:00Z</time>
      </trkpt>
      <trkpt lat="43.106110" lon="-5.820173">
        <ele>352.625</ele>
        <time>2021-10-14T10:52:02Z</time>
      </trkpt>
      <trkpt lat="43.106149" lon="-5.820359">
        <ele>352.767</ele>
        <time>2021-10-14T10:52:04Z</time>
      </trkpt>
      <trkpt lat="43.106189" lon="-5.820504">
        <ele>352.756</ele>
        <time>2021-10-14T10:52:06Z</time>
      </trkpt>
      <trkpt lat="43.106293" lon="-5.820535">
        <ele>352.735</ele>
        <time>2021-10-14T10:52:08Z</time>
      </trkpt>
      <trkpt lat="43.106443" lon="-5.820462">
        <ele>352.786</ele>
        <time>2021-10-14T10:52:10Z</time>
      </trkpt>
      <trkpt lat="43.106530" lon="-5.820404">
        <ele>352.714</ele>
        <time>2021-10-14T10:52:11Z</time>
      </trkpt>
      <trkpt lat="43.106625" lon="-5.820339">
        <ele>352.608</ele>
        <time>2021-10-14T10:52:12Z</time>
      </trkpt>
      <trkpt lat="43.106833" lon="-5.820232">
        <ele>352.631</ele>
        <time>2021-10-14T10:52:14Z</time>
      </trkpt>
      <trkpt lat="43.107061" lon="-5.820156">
        <ele>352.729</ele>
        <time>2021-10-14T10:52:16Z</time>
      </trkpt>
      <trkpt lat="43.107176" lon="-5.820103">
        <ele>352.777</ele>
        <time>2021-10-14T10:52:17Z</time>
      </trkpt>
      <trkpt lat="43.107401" lon="-5.819961">
        <ele>352.794</ele>
        <time>2021-10-14T10:52:19Z</time>
      </trkpt>
      <trkpt lat="43.107506" lon="-5.819875">
        <ele>352.767</ele>
        <time>2021-10-14T10:52:20Z</time>
      </trkpt>
      <trkpt lat="43.107713" lon="-5.819692">
        <ele>352.724</ele>
        <time>2021-10-14T10:52:22Z</time>
      </trkpt>
      <trkpt lat="43.107830" lon="-5.819592">
        <ele>352.766</ele>
        <time>2021-10-14T10:52:23Z</time>
      </trkpt>
      <trkpt lat="43.108069" lon="-5.819376">
        <ele>323.315</ele>
        <time>2021-10-14T10:52:25Z</time>
      </trkpt>
      <trkpt lat="43.108189" lon="-5.819267">
        <ele>293.999</ele>
        <time>2021-10-14T10:52:26Z</time>
      </trkpt>
      <trkpt lat="43.108414" lon="-5.819069">
        <ele>292.007</ele>
        <time>2021-10-14T10:52:28Z</time>
      </trkpt>
      <trkpt lat="43.108529" lon="-5.818974">
        <ele>292.127</ele>
        <time>2021-10-14T10:52:29Z</time>
      </trkpt>
      <trkpt lat="43.108751" lon="-5.818809">
        <ele>292.108</ele>
        <time>2021-10-14T10:52:31Z</time>
      </trkpt>
      <trkpt lat="43.108868" lon="-5.818744">
        <ele>292.117</ele>
        <time>2021-10-14T10:52:32Z</time>
      </trkpt>
      <trkpt lat="43.109127" lon="-5.818653">
        <ele>291.455</ele>
        <time>2021-10-14T10:52:34Z</time>
      </trkpt>
      <trkpt lat="43.109424" lon="-5.818641">
        <ele>290.823</ele>
        <time>2021-10-14T10:52:36Z</time>
      </trkpt>
      <trkpt lat="43.109734" lon="-5.818723">
        <ele>290.210</ele>
        <time>2021-10-14T10:52:38Z</time>
      </trkpt>
      <trkpt lat="43.110045" lon="-5.818880">
        <ele>289.263</ele>
        <time>2021-10-14T10:52:40Z</time>
      </trkpt>
      <trkpt lat="43.110200" lon="-5.818967">
        <ele>289.040</ele>
        <time>2021-10-14T10:52:41Z</time>
      </trkpt>
      <trkpt lat="43.110349" lon="-5.819051">
        <ele>288.722</ele>
        <time>2021-10-14T10:52:42Z</time>
      </trkpt>
      <trkpt lat="43.110623" lon="-5.819222">
        <ele>287.811</ele>
        <time>2021-10-14T10:52:44Z</time>
      </trkpt>
      <trkpt lat="43.110886" lon="-5.819358">
        <ele>286.667</ele>
        <time>2021-10-14T10:52:46Z</time>
      </trkpt>
      <trkpt lat="43.111024" lon="-5.819422">
        <ele>286.281</ele>
        <time>2021-10-14T10:52:47Z</time>
      </trkpt>
      <trkpt lat="43.111300" lon="-5.819534">
        <ele>286.019</ele>
        <time>2021-10-14T10:52:49Z</time>
      </trkpt>
      <trkpt lat="43.111433" lon="-5.819576">
        <ele>285.808</ele>
        <time>2021-10-14T10:52:50Z</time>
      </trkpt>
      <trkpt lat="43.111644" lon="-5.819632">
        <ele>285.644</ele>
        <time>2021-10-14T10:52:52Z</time>
      </trkpt>
      <trkpt lat="43.111832" lon="-5.819659">
        <ele>286.412</ele>
        <time>2021-10-14T10:52:54Z</time>
      </trkpt>
      <trkpt lat="43.111933" lon="-5.819664">
        <ele>287.190</ele>
        <time>2021-10-14T10:52:55Z</time>
      </trkpt>
      <trkpt lat="43.112040" lon="-5.819662">
        <ele>287.437</ele>
        <time>2021-10-14T10:52:56Z</time>
      </trkpt>
      <trkpt lat="43.112255" lon="-5.819630">
        <ele>287.750</ele>
        <time>2021-10-14T10:52:58Z</time>
      </trkpt>
      <trkpt lat="43.112369" lon="-5.819609">
        <ele>289.687</ele>
        <time>2021-10-14T10:52:59Z</time>
      </trkpt>
      <trkpt lat="43.112601" lon="-5.819551">
        <ele>290.519</ele>
        <time>2021-10-14T10:53:01Z</time>
      </trkpt>
      <trkpt lat="43.112721" lon="-5.819519">
        <ele>291.218</ele>
        <time>2021-10-14T10:53:02Z</time>
      </trkpt>
      <trkpt lat="43.112944" lon="-5.819464">
        <ele>290.972</ele>
        <time>2021-10-14T10:53:04Z</time>
      </trkpt>
      <trkpt lat="43.113048" lon="-5.819450">
        <ele>290.413</ele>
        <time>2021-10-14T10:53:05Z</time>
      </trkpt>
      <trkpt lat="43.113286" lon="-5.819424">
        <ele>289.314</ele>
        <time>2021-10-14T10:53:07Z</time>
      </trkpt>
      <trkpt lat="43.113434" lon="-5.819387">
        <ele>289.308</ele>
        <time>2021-10-14T10:53:08Z</time>
      </trkpt>
      <trkpt lat="43.113735" lon="-5.819221">
        <ele>287.465</ele>
        <time>2021-10-14T10:53:10Z</time>
      </trkpt>
      <trkpt lat="43.113885" lon="-5.819114">
        <ele>286.463</ele>
        <time>2021-10-14T10:53:11Z</time>
      </trkpt>
      <trkpt lat="43.114175" lon="-5.818935">
        <ele>285.311</ele>
        <time>2021-10-14T10:53:13Z</time>
      </trkpt>
      <trkpt lat="43.114313" lon="-5.818853">
        <ele>284.128</ele>
        <time>2021-10-14T10:53:14Z</time>
      </trkpt>
      <trkpt lat="43.114568" lon="-5.818715">
        <ele>283.541</ele>
        <time>2021-10-14T10:53:16Z</time>
      </trkpt>
      <trkpt lat="43.114692" lon="-5.818660">
        <ele>283.518</ele>
        <time>2021-10-14T10:53:17Z</time>
      </trkpt>
      <trkpt lat="43.114962" lon="-5.818622">
        <ele>283.550</ele>
        <time>2021-10-14T10:53:19Z</time>
      </trkpt>
      <trkpt lat="43.115114" lon="-5.818625">
        <ele>283.379</ele>
        <time>2021-10-14T10:53:20Z</time>
      </trkpt>
      <trkpt lat="43.115434" lon="-5.818638">
        <ele>283.482</ele>
        <time>2021-10-14T10:53:22Z</time>
      </trkpt>
      <trkpt lat="43.115776" lon="-5.818647">
        <ele>284.043</ele>
        <time>2021-10-14T10:53:24Z</time>
      </trkpt>
      <trkpt lat="43.115949" lon="-5.818645">
        <ele>284.317</ele>
        <time>2021-10-14T10:53:25Z</time>
      </trkpt>
      <trkpt lat="43.116253" lon="-5.818608">
        <ele>283.908</ele>
        <time>2021-10-14T10:53:27Z</time>
      </trkpt>
      <trkpt lat="43.116402" lon="-5.818562">
        <ele>283.296</ele>
        <time>2021-10-14T10:53:28Z</time>
      </trkpt>
      <trkpt lat="43.116550" lon="-5.818492">
        <ele>282.464</ele>
        <time>2021-10-14T10:53:29Z</time>
      </trkpt>
      <trkpt lat="43.116846" lon="-5.818308">
        <ele>280.372</ele>
        <time>2021-10-14T10:53:31Z</time>
      </trkpt>
      <trkpt lat="43.116994" lon="-5.818198">
        <ele>279.899</ele>
        <time>2021-10-14T10:53:32Z</time>
      </trkpt>
      <trkpt lat="43.117272" lon="-5.817942">
        <ele>279.842</ele>
        <time>2021-10-14T10:53:34Z</time>
      </trkpt>
      <trkpt lat="43.117534" lon="-5.817678">
        <ele>280.589</ele>
        <time>2021-10-14T10:53:36Z</time>
      </trkpt>
      <trkpt lat="43.117772" lon="-5.817419">
        <ele>279.761</ele>
        <time>2021-10-14T10:53:38Z</time>
      </trkpt>
      <trkpt lat="43.118008" lon="-5.817181">
        <ele>281.470</ele>
        <time>2021-10-14T10:53:40Z</time>
      </trkpt>
      <trkpt lat="43.118141" lon="-5.817080">
        <ele>282.262</ele>
        <time>2021-10-14T10:53:41Z</time>
      </trkpt>
      <trkpt lat="43.118287" lon="-5.816996">
        <ele>283.383</ele>
        <time>2021-10-14T10:53:42Z</time>
      </trkpt>
      <trkpt lat="43.118446" lon="-5.816917">
        <ele>284.311</ele>
        <time>2021-10-14T10:53:43Z</time>
      </trkpt>
      <trkpt lat="43.118620" lon="-5.816846">
        <ele>284.908</ele>
        <time>2021-10-14T10:53:44Z</time>
      </trkpt>
      <trkpt lat="43.118991" lon="-5.816771">
        <ele>286.894</ele>
        <time>2021-10-14T10:53:46Z</time>
      </trkpt>
      <trkpt lat="43.119188" lon="-5.816780">
        <ele>286.962</ele>
        <time>2021-10-14T10:53:47Z</time>
      </trkpt>
      <trkpt lat="43.119382" lon="-5.816817">
        <ele>287.440</ele>
        <time>2021-10-14T10:53:48Z</time>
      </trkpt>
      <trkpt lat="43.119574" lon="-5.816868">
        <ele>287.467</ele>
        <time>2021-10-14T10:53:49Z</time>
      </trkpt>
      <trkpt lat="43.119764" lon="-5.816919">
        <ele>287.750</ele>
        <time>2021-10-14T10:53:50Z</time>
      </trkpt>
      <trkpt lat="43.120110" lon="-5.817019">
        <ele>287.977</ele>
        <time>2021-10-14T10:53:52Z</time>
      </trkpt>
      <trkpt lat="43.120445" lon="-5.817145">
        <ele>287.349</ele>
        <time>2021-10-14T10:53:54Z</time>
      </trkpt>
      <trkpt lat="43.120608" lon="-5.817197">
        <ele>286.358</ele>
        <time>2021-10-14T10:53:55Z</time>
      </trkpt>
      <trkpt lat="43.120771" lon="-5.817251">
        <ele>285.647</ele>
        <time>2021-10-14T10:53:56Z</time>
      </trkpt>
      <trkpt lat="43.121075" lon="-5.817354">
        <ele>284.429</ele>
        <time>2021-10-14T10:53:58Z</time>
      </trkpt>
      <trkpt lat="43.121228" lon="-5.817402">
        <ele>284.621</ele>
        <time>2021-10-14T10:53:59Z</time>
      </trkpt>
      <trkpt lat="43.121382" lon="-5.817445">
        <ele>284.808</ele>
        <time>2021-10-14T10:54:00Z</time>
      </trkpt>
      <trkpt lat="43.121702" lon="-5.817521">
        <ele>282.872</ele>
        <time>2021-10-14T10:54:02Z</time>
      </trkpt>
      <trkpt lat="43.122038" lon="-5.817553">
        <ele>282.040</ele>
        <time>2021-10-14T10:54:04Z</time>
      </trkpt>
      <trkpt lat="43.122217" lon="-5.817546">
        <ele>281.858</ele>
        <time>2021-10-14T10:54:05Z</time>
      </trkpt>
      <trkpt lat="43.122551" lon="-5.817530">
        <ele>281.675</ele>
        <time>2021-10-14T10:54:07Z</time>
      </trkpt>
      <trkpt lat="43.122705" lon="-5.817523">
        <ele>281.138</ele>
        <time>2021-10-14T10:54:08Z</time>
      </trkpt>
      <trkpt lat="43.122981" lon="-5.817431">
        <ele>280.615</ele>
        <time>2021-10-14T10:54:10Z</time>
      </trkpt>
      <trkpt lat="43.123108" lon="-5.817332">
        <ele>279.777</ele>
        <time>2021-10-14T10:54:11Z</time>
      </trkpt>
      <trkpt lat="43.123230" lon="-5.817216">
        <ele>278.756</ele>
        <time>2021-10-14T10:54:12Z</time>
      </trkpt>
      <trkpt lat="43.123484" lon="-5.817018">
        <ele>277.167</ele>
        <time>2021-10-14T10:54:14Z</time>
      </trkpt>
      <trkpt lat="43.123716" lon="-5.816825">
        <ele>275.281</ele>
        <time>2021-10-14T10:54:16Z</time>
      </trkpt>
      <trkpt lat="43.123924" lon="-5.816624">
        <ele>274.519</ele>
        <time>2021-10-14T10:54:18Z</time>
      </trkpt>
      <trkpt lat="43.124032" lon="-5.816540">
        <ele>274.308</ele>
        <time>2021-10-14T10:54:19Z</time>
      </trkpt>
      <trkpt lat="43.124156" lon="-5.816475">
        <ele>273.054</ele>
        <time>2021-10-14T10:54:20Z</time>
      </trkpt>
      <trkpt lat="43.124455" lon="-5.816437">
        <ele>269.552</ele>
        <time>2021-10-14T10:54:22Z</time>
      </trkpt>
      <trkpt lat="43.124614" lon="-5.816449">
        <ele>268.730</ele>
        <time>2021-10-14T10:54:23Z</time>
      </trkpt>
      <trkpt lat="43.124917" lon="-5.816489">
        <ele>267.447</ele>
        <time>2021-10-14T10:54:25Z</time>
      </trkpt>
      <trkpt lat="43.125066" lon="-5.816511">
        <ele>267.740</ele>
        <time>2021-10-14T10:54:26Z</time>
      </trkpt>
      <trkpt lat="43.125353" lon="-5.816574">
        <ele>266.297</ele>
        <time>2021-10-14T10:54:28Z</time>
      </trkpt>
      <trkpt lat="43.125504" lon="-5.816602">
        <ele>265.259</ele>
        <time>2021-10-14T10:54:29Z</time>
      </trkpt>
      <trkpt lat="43.125654" lon="-5.816632">
        <ele>265.228</ele>
        <time>2021-10-14T10:54:30Z</time>
      </trkpt>
      <trkpt lat="43.125952" lon="-5.816693">
        <ele>265.391</ele>
        <time>2021-10-14T10:54:32Z</time>
      </trkpt>
      <trkpt lat="43.126234" lon="-5.816753">
        <ele>265.681</ele>
        <time>2021-10-14T10:54:34Z</time>
      </trkpt>
      <trkpt lat="43.126514" lon="-5.816814">
        <ele>265.619</ele>
        <time>2021-10-14T10:54:36Z</time>
      </trkpt>
      <trkpt lat="43.126806" lon="-5.816865">
        <ele>266.308</ele>
        <time>2021-10-14T10:54:38Z</time>
      </trkpt>
      <trkpt lat="43.127106" lon="-5.816880">
        <ele>266.437</ele>
        <time>2021-10-14T10:54:40Z</time>
      </trkpt>
      <trkpt lat="43.127263" lon="-5.816877">
        <ele>265.955</ele>
        <time>2021-10-14T10:54:41Z</time>
      </trkpt>
      <trkpt lat="43.127423" lon="-5.816866">
        <ele>265.753</ele>
        <time>2021-10-14T10:54:42Z</time>
      </trkpt>
      <trkpt lat="43.127586" lon="-5.816846">
        <ele>265.680</ele>
        <time>2021-10-14T10:54:43Z</time>
      </trkpt>
      <trkpt lat="43.127752" lon="-5.816828">
        <ele>265.253</ele>
        <time>2021-10-14T10:54:44Z</time>
      </trkpt>
      <trkpt lat="43.128073" lon="-5.816800">
        <ele>264.860</ele>
        <time>2021-10-14T10:54:46Z</time>
      </trkpt>
      <trkpt lat="43.128227" lon="-5.816812">
        <ele>264.892</ele>
        <time>2021-10-14T10:54:47Z</time>
      </trkpt>
      <trkpt lat="43.128376" lon="-5.816843">
        <ele>265.091</ele>
        <time>2021-10-14T10:54:48Z</time>
      </trkpt>
      <trkpt lat="43.128676" lon="-5.816944">
        <ele>264.235</ele>
        <time>2021-10-14T10:54:50Z</time>
      </trkpt>
      <trkpt lat="43.128978" lon="-5.817061">
        <ele>263.586</ele>
        <time>2021-10-14T10:54:52Z</time>
      </trkpt>
      <trkpt lat="43.129130" lon="-5.817144">
        <ele>262.614</ele>
        <time>2021-10-14T10:54:53Z</time>
      </trkpt>
      <trkpt lat="43.129277" lon="-5.817254">
        <ele>262.308</ele>
        <time>2021-10-14T10:54:54Z</time>
      </trkpt>
      <trkpt lat="43.129570" lon="-5.817531">
        <ele>262.341</ele>
        <time>2021-10-14T10:54:56Z</time>
      </trkpt>
      <trkpt lat="43.129845" lon="-5.817838">
        <ele>264.369</ele>
        <time>2021-10-14T10:54:58Z</time>
      </trkpt>
      <trkpt lat="43.130116" lon="-5.818167">
        <ele>265.957</ele>
        <time>2021-10-14T10:55:00Z</time>
      </trkpt>
      <trkpt lat="43.130383" lon="-5.818486">
        <ele>267.234</ele>
        <time>2021-10-14T10:55:02Z</time>
      </trkpt>
      <trkpt lat="43.130617" lon="-5.818755">
        <ele>267.067</ele>
        <time>2021-10-14T10:55:04Z</time>
      </trkpt>
      <trkpt lat="43.130843" lon="-5.819026">
        <ele>267.234</ele>
        <time>2021-10-14T10:55:06Z</time>
      </trkpt>
      <trkpt lat="43.130952" lon="-5.819164">
        <ele>266.956</ele>
        <time>2021-10-14T10:55:07Z</time>
      </trkpt>
      <trkpt lat="43.131059" lon="-5.819302">
        <ele>266.435</ele>
        <time>2021-10-14T10:55:08Z</time>
      </trkpt>
      <trkpt lat="43.131302" lon="-5.819549">
        <ele>265.954</ele>
        <time>2021-10-14T10:55:10Z</time>
      </trkpt>
      <trkpt lat="43.131585" lon="-5.819716">
        <ele>265.056</ele>
        <time>2021-10-14T10:55:12Z</time>
      </trkpt>
      <trkpt lat="43.131723" lon="-5.819801">
        <ele>264.611</ele>
        <time>2021-10-14T10:55:13Z</time>
      </trkpt>
      <trkpt lat="43.131854" lon="-5.819904">
        <ele>264.008</ele>
        <time>2021-10-14T10:55:14Z</time>
      </trkpt>
      <trkpt lat="43.132110" lon="-5.820156">
        <ele>261.823</ele>
        <time>2021-10-14T10:55:16Z</time>
      </trkpt>
      <trkpt lat="43.132245" lon="-5.820307">
        <ele>260.951</ele>
        <time>2021-10-14T10:55:17Z</time>
      </trkpt>
      <trkpt lat="43.132380" lon="-5.820461">
        <ele>260.089</ele>
        <time>2021-10-14T10:55:18Z</time>
      </trkpt>
      <trkpt lat="43.132656" lon="-5.820774">
        <ele>259.676</ele>
        <time>2021-10-14T10:55:20Z</time>
      </trkpt>
      <trkpt lat="43.132936" lon="-5.821072">
        <ele>259.079</ele>
        <time>2021-10-14T10:55:22Z</time>
      </trkpt>
      <trkpt lat="43.133217" lon="-5.821372">
        <ele>258.736</ele>
        <time>2021-10-14T10:55:24Z</time>
      </trkpt>
      <trkpt lat="43.133357" lon="-5.821521">
        <ele>258.238</ele>
        <time>2021-10-14T10:55:25Z</time>
      </trkpt>
      <trkpt lat="43.133500" lon="-5.821674">
        <ele>258.267</ele>
        <time>2021-10-14T10:55:26Z</time>
      </trkpt>
      <trkpt lat="43.133763" lon="-5.821959">
        <ele>258.281</ele>
        <time>2021-10-14T10:55:28Z</time>
      </trkpt>
      <trkpt lat="43.133894" lon="-5.822102">
        <ele>258.261</ele>
        <time>2021-10-14T10:55:29Z</time>
      </trkpt>
      <trkpt lat="43.134126" lon="-5.822350">
        <ele>257.617</ele>
        <time>2021-10-14T10:55:31Z</time>
      </trkpt>
      <trkpt lat="43.134244" lon="-5.822474">
        <ele>257.108</ele>
        <time>2021-10-14T10:55:32Z</time>
      </trkpt>
      <trkpt lat="43.134475" lon="-5.822726">
        <ele>256.316</ele>
        <time>2021-10-14T10:55:34Z</time>
      </trkpt>
      <trkpt lat="43.134592" lon="-5.822811">
        <ele>256.334</ele>
        <time>2021-10-14T10:55:35Z</time>
      </trkpt>
      <trkpt lat="43.134822" lon="-5.822873">
        <ele>256.922</ele>
        <time>2021-10-14T10:55:37Z</time>
      </trkpt>
      <trkpt lat="43.134942" lon="-5.822852">
        <ele>256.939</ele>
        <time>2021-10-14T10:55:38Z</time>
      </trkpt>
      <trkpt lat="43.135191" lon="-5.822768">
        <ele>258.812</ele>
        <time>2021-10-14T10:55:40Z</time>
      </trkpt>
      <trkpt lat="43.135327" lon="-5.822714">
        <ele>259.069</ele>
        <time>2021-10-14T10:55:41Z</time>
      </trkpt>
      <trkpt lat="43.135586" lon="-5.822600">
        <ele>261.021</ele>
        <time>2021-10-14T10:55:43Z</time>
      </trkpt>
      <trkpt lat="43.135709" lon="-5.822568">
        <ele>261.660</ele>
        <time>2021-10-14T10:55:44Z</time>
      </trkpt>
      <trkpt lat="43.135989" lon="-5.822585">
        <ele>262.147</ele>
        <time>2021-10-14T10:55:46Z</time>
      </trkpt>
      <trkpt lat="43.136299" lon="-5.822692">
        <ele>260.429</ele>
        <time>2021-10-14T10:55:48Z</time>
      </trkpt>
      <trkpt lat="43.136471" lon="-5.822748">
        <ele>259.721</ele>
        <time>2021-10-14T10:55:49Z</time>
      </trkpt>
      <trkpt lat="43.136640" lon="-5.822798">
        <ele>258.608</ele>
        <time>2021-10-14T10:55:50Z</time>
      </trkpt>
      <trkpt lat="43.136959" lon="-5.822872">
        <ele>256.122</ele>
        <time>2021-10-14T10:55:52Z</time>
      </trkpt>
      <trkpt lat="43.137264" lon="-5.822952">
        <ele>255.770</ele>
        <time>2021-10-14T10:55:54Z</time>
      </trkpt>
      <trkpt lat="43.137416" lon="-5.823022">
        <ele>255.588</ele>
        <time>2021-10-14T10:55:55Z</time>
      </trkpt>
      <trkpt lat="43.137570" lon="-5.823105">
        <ele>255.135</ele>
        <time>2021-10-14T10:55:56Z</time>
      </trkpt>
      <trkpt lat="43.137875" lon="-5.823288">
        <ele>254.518</ele>
        <time>2021-10-14T10:55:58Z</time>
      </trkpt>
      <trkpt lat="43.138030" lon="-5.823380">
        <ele>253.595</ele>
        <time>2021-10-14T10:55:59Z</time>
      </trkpt>
      <trkpt lat="43.138332" lon="-5.823547">
        <ele>253.877</ele>
        <time>2021-10-14T10:56:01Z</time>
      </trkpt>
      <trkpt lat="43.138485" lon="-5.823625">
        <ele>253.546</ele>
        <time>2021-10-14T10:56:02Z</time>
      </trkpt>
      <trkpt lat="43.138783" lon="-5.823782">
        <ele>252.456</ele>
        <time>2021-10-14T10:56:04Z</time>
      </trkpt>
      <trkpt lat="43.139102" lon="-5.823946">
        <ele>251.359</ele>
        <time>2021-10-14T10:56:06Z</time>
      </trkpt>
      <trkpt lat="43.139263" lon="-5.824032">
        <ele>251.214</ele>
        <time>2021-10-14T10:56:07Z</time>
      </trkpt>
      <trkpt lat="43.139426" lon="-5.824119">
        <ele>250.708</ele>
        <time>2021-10-14T10:56:08Z</time>
      </trkpt>
      <trkpt lat="43.139719" lon="-5.824273">
        <ele>250.413</ele>
        <time>2021-10-14T10:56:10Z</time>
      </trkpt>
      <trkpt lat="43.139857" lon="-5.824341">
        <ele>250.361</ele>
        <time>2021-10-14T10:56:11Z</time>
      </trkpt>
      <trkpt lat="43.139984" lon="-5.824404">
        <ele>250.379</ele>
        <time>2021-10-14T10:56:12Z</time>
      </trkpt>
      <trkpt lat="43.140095" lon="-5.824461">
        <ele>250.236</ele>
        <time>2021-10-14T10:56:13Z</time>
      </trkpt>
      <trkpt lat="43.140194" lon="-5.824519">
        <ele>250.159</ele>
        <time>2021-10-14T10:56:14Z</time>
      </trkpt>
      <trkpt lat="43.140364" lon="-5.824706">
        <ele>250.176</ele>
        <time>2021-10-14T10:56:16Z</time>
      </trkpt>
      <trkpt lat="43.140536" lon="-5.824950">
        <ele>250.728</ele>
        <time>2021-10-14T10:56:18Z</time>
      </trkpt>
      <trkpt lat="43.140688" lon="-5.825199">
        <ele>251.567</ele>
        <time>2021-10-14T10:56:20Z</time>
      </trkpt>
      <trkpt lat="43.140859" lon="-5.825379">
        <ele>252.958</ele>
        <time>2021-10-14T10:56:22Z</time>
      </trkpt>
      <trkpt lat="43.141076" lon="-5.825513">
        <ele>253.952</ele>
        <time>2021-10-14T10:56:24Z</time>
      </trkpt>
      <trkpt lat="43.141197" lon="-5.825555">
        <ele>254.017</ele>
        <time>2021-10-14T10:56:25Z</time>
      </trkpt>
      <trkpt lat="43.141327" lon="-5.825579">
        <ele>254.008</ele>
        <time>2021-10-14T10:56:26Z</time>
      </trkpt>
      <trkpt lat="43.141588" lon="-5.825568">
        <ele>252.083</ele>
        <time>2021-10-14T10:56:28Z</time>
      </trkpt>
      <trkpt lat="43.141854" lon="-5.825544">
        <ele>251.581</ele>
        <time>2021-10-14T10:56:30Z</time>
      </trkpt>
      <trkpt lat="43.142123" lon="-5.825525">
        <ele>250.369</ele>
        <time>2021-10-14T10:56:32Z</time>
      </trkpt>
      <trkpt lat="43.142420" lon="-5.825504">
        <ele>249.516</ele>
        <time>2021-10-14T10:56:34Z</time>
      </trkpt>
      <trkpt lat="43.142730" lon="-5.825476">
        <ele>249.189</ele>
        <time>2021-10-14T10:56:36Z</time>
      </trkpt>
      <trkpt lat="43.143049" lon="-5.825454">
        <ele>247.476</ele>
        <time>2021-10-14T10:56:38Z</time>
      </trkpt>
      <trkpt lat="43.143382" lon="-5.825436">
        <ele>247.288</ele>
        <time>2021-10-14T10:56:40Z</time>
      </trkpt>
      <trkpt lat="43.143702" lon="-5.825409">
        <ele>246.597</ele>
        <time>2021-10-14T10:56:42Z</time>
      </trkpt>
      <trkpt lat="43.143857" lon="-5.825397">
        <ele>246.172</ele>
        <time>2021-10-14T10:56:43Z</time>
      </trkpt>
      <trkpt lat="43.144005" lon="-5.825385">
        <ele>245.613</ele>
        <time>2021-10-14T10:56:44Z</time>
      </trkpt>
      <trkpt lat="43.144284" lon="-5.825368">
        <ele>244.614</ele>
        <time>2021-10-14T10:56:46Z</time>
      </trkpt>
      <trkpt lat="43.144432" lon="-5.825361">
        <ele>244.608</ele>
        <time>2021-10-14T10:56:47Z</time>
      </trkpt>
      <trkpt lat="43.144739" lon="-5.825385">
        <ele>243.675</ele>
        <time>2021-10-14T10:56:49Z</time>
      </trkpt>
      <trkpt lat="43.144897" lon="-5.825434">
        <ele>243.343</ele>
        <time>2021-10-14T10:56:50Z</time>
      </trkpt>
      <trkpt lat="43.145204" lon="-5.825550">
        <ele>243.011</ele>
        <time>2021-10-14T10:56:52Z</time>
      </trkpt>
      <trkpt lat="43.145355" lon="-5.825599">
        <ele>242.858</ele>
        <time>2021-10-14T10:56:53Z</time>
      </trkpt>
      <trkpt lat="43.145641" lon="-5.825667">
        <ele>242.991</ele>
        <time>2021-10-14T10:56:55Z</time>
      </trkpt>
      <trkpt lat="43.145769" lon="-5.825683">
        <ele>243.038</ele>
        <time>2021-10-14T10:56:56Z</time>
      </trkpt>
      <trkpt lat="43.145982" lon="-5.825686">
        <ele>243.270</ele>
        <time>2021-10-14T10:56:58Z</time>
      </trkpt>
      <trkpt lat="43.146155" lon="-5.825670">
        <ele>244.799</ele>
        <time>2021-10-14T10:57:00Z</time>
      </trkpt>
      <trkpt lat="43.146270" lon="-5.825648">
        <ele>245.211</ele>
        <time>2021-10-14T10:57:02Z</time>
      </trkpt>
      <trkpt lat="43.146332" lon="-5.825627">
        <ele>245.921</ele>
        <time>2021-10-14T10:57:04Z</time>
      </trkpt>
      <trkpt lat="43.146386" lon="-5.825592">
        <ele>245.903</ele>
        <time>2021-10-14T10:57:07Z</time>
      </trkpt>
      <trkpt lat="43.146444" lon="-5.825513">
        <ele>245.708</ele>
        <time>2021-10-14T10:57:09Z</time>
      </trkpt>
      <trkpt lat="43.146532" lon="-5.825385">
        <ele>245.399</ele>
        <time>2021-10-14T10:57:11Z</time>
      </trkpt>
      <trkpt lat="43.146595" lon="-5.825350">
        <ele>245.267</ele>
        <time>2021-10-14T10:57:12Z</time>
      </trkpt>
      <trkpt lat="43.146673" lon="-5.825338">
        <ele>244.165</ele>
        <time>2021-10-14T10:57:13Z</time>
      </trkpt>
      <trkpt lat="43.146767" lon="-5.825338">
        <ele>244.052</ele>
        <time>2021-10-14T10:57:14Z</time>
      </trkpt>
      <trkpt lat="43.146965" lon="-5.825318">
        <ele>243.865</ele>
        <time>2021-10-14T10:57:16Z</time>
      </trkpt>
      <trkpt lat="43.147072" lon="-5.825285">
        <ele>243.692</ele>
        <time>2021-10-14T10:57:17Z</time>
      </trkpt>
      <trkpt lat="43.147261" lon="-5.825192">
        <ele>242.684</ele>
        <time>2021-10-14T10:57:19Z</time>
      </trkpt>
      <trkpt lat="43.147336" lon="-5.825142">
        <ele>242.343</ele>
        <time>2021-10-14T10:57:20Z</time>
      </trkpt>
      <trkpt lat="43.147476" lon="-5.825120">
        <ele>242.416</ele>
        <time>2021-10-14T10:57:22Z</time>
      </trkpt>
      <trkpt lat="43.147549" lon="-5.825160">
        <ele>242.476</ele>
        <time>2021-10-14T10:57:23Z</time>
      </trkpt>
      <trkpt lat="43.147618" lon="-5.825227">
        <ele>242.413</ele>
        <time>2021-10-14T10:57:24Z</time>
      </trkpt>
      <trkpt lat="43.147683" lon="-5.825316">
        <ele>242.008</ele>
        <time>2021-10-14T10:57:25Z</time>
      </trkpt>
      <trkpt lat="43.147754" lon="-5.825417">
        <ele>241.619</ele>
        <time>2021-10-14T10:57:26Z</time>
      </trkpt>
      <trkpt lat="43.147901" lon="-5.825594">
        <ele>241.427</ele>
        <time>2021-10-14T10:57:28Z</time>
      </trkpt>
      <trkpt lat="43.148039" lon="-5.825724">
        <ele>241.055</ele>
        <time>2021-10-14T10:57:30Z</time>
      </trkpt>
      <trkpt lat="43.148168" lon="-5.825837">
        <ele>240.642</ele>
        <time>2021-10-14T10:57:32Z</time>
      </trkpt>
      <trkpt lat="43.148320" lon="-5.825959">
        <ele>240.345</ele>
        <time>2021-10-14T10:57:34Z</time>
      </trkpt>
      <trkpt lat="43.148478" lon="-5.826069">
        <ele>239.632</ele>
        <time>2021-10-14T10:57:36Z</time>
      </trkpt>
      <trkpt lat="43.148560" lon="-5.826121">
        <ele>239.854</ele>
        <time>2021-10-14T10:57:37Z</time>
      </trkpt>
      <trkpt lat="43.148647" lon="-5.826175">
        <ele>239.683</ele>
        <time>2021-10-14T10:57:38Z</time>
      </trkpt>
      <trkpt lat="43.148810" lon="-5.826269">
        <ele>239.552</ele>
        <time>2021-10-14T10:57:40Z</time>
      </trkpt>
      <trkpt lat="43.148889" lon="-5.826312">
        <ele>239.253</ele>
        <time>2021-10-14T10:57:41Z</time>
      </trkpt>
      <trkpt lat="43.149045" lon="-5.826381">
        <ele>239.008</ele>
        <time>2021-10-14T10:57:43Z</time>
      </trkpt>
      <trkpt lat="43.149129" lon="-5.826412">
        <ele>239.208</ele>
        <time>2021-10-14T10:57:44Z</time>
      </trkpt>
      <trkpt lat="43.149289" lon="-5.826470">
        <ele>240.173</ele>
        <time>2021-10-14T10:57:46Z</time>
      </trkpt>
      <trkpt lat="43.149351" lon="-5.826493">
        <ele>240.481</ele>
        <time>2021-10-14T10:57:47Z</time>
      </trkpt>
      <trkpt lat="43.149398" lon="-5.826507">
        <ele>240.419</ele>
        <time>2021-10-14T10:57:48Z</time>
      </trkpt>
      <trkpt lat="43.149482" lon="-5.826524">
        <ele>240.736</ele>
        <time>2021-10-14T10:57:50Z</time>
      </trkpt>
      <trkpt lat="43.149540" lon="-5.826533">
        <ele>241.869</ele>
        <time>2021-10-14T10:57:52Z</time>
      </trkpt>
      <trkpt lat="43.149598" lon="-5.826542">
        <ele>242.946</ele>
        <time>2021-10-14T10:57:54Z</time>
      </trkpt>
      <trkpt lat="43.149666" lon="-5.826539">
        <ele>243.398</ele>
        <time>2021-10-14T10:57:56Z</time>
      </trkpt>
      <trkpt lat="43.149750" lon="-5.826515">
        <ele>244.747</ele>
        <time>2021-10-14T10:57:58Z</time>
      </trkpt>
      <trkpt lat="43.149828" lon="-5.826469">
        <ele>273.169</ele>
        <time>2021-10-14T10:58:00Z</time>
      </trkpt>
      <trkpt lat="43.149865" lon="-5.826429">
        <ele>288.704</ele>
        <time>2021-10-14T10:58:01Z</time>
      </trkpt>
      <trkpt lat="43.149902" lon="-5.826373">
        <ele>291.224</ele>
        <time>2021-10-14T10:58:02Z</time>
      </trkpt>
      <trkpt lat="43.150005" lon="-5.826257">
        <ele>291.208</ele>
        <time>2021-10-14T10:58:04Z</time>
      </trkpt>
      <trkpt lat="43.150075" lon="-5.826219">
        <ele>291.254</ele>
        <time>2021-10-14T10:58:05Z</time>
      </trkpt>
      <trkpt lat="43.150220" lon="-5.826147">
        <ele>291.152</ele>
        <time>2021-10-14T10:58:07Z</time>
      </trkpt>
      <trkpt lat="43.150282" lon="-5.826114">
        <ele>291.110</ele>
        <time>2021-10-14T10:58:08Z</time>
      </trkpt>
      <trkpt lat="43.150416" lon="-5.826038">
        <ele>291.157</ele>
        <time>2021-10-14T10:58:10Z</time>
      </trkpt>
      <trkpt lat="43.150492" lon="-5.825994">
        <ele>291.160</ele>
        <time>2021-10-14T10:58:11Z</time>
      </trkpt>
      <trkpt lat="43.150576" lon="-5.825951">
        <ele>291.187</ele>
        <time>2021-10-14T10:58:12Z</time>
      </trkpt>
      <trkpt lat="43.150752" lon="-5.825867">
        <ele>291.119</ele>
        <time>2021-10-14T10:58:14Z</time>
      </trkpt>
      <trkpt lat="43.150913" lon="-5.825781">
        <ele>291.038</ele>
        <time>2021-10-14T10:58:16Z</time>
      </trkpt>
      <trkpt lat="43.151060" lon="-5.825703">
        <ele>291.017</ele>
        <time>2021-10-14T10:58:18Z</time>
      </trkpt>
      <trkpt lat="43.151200" lon="-5.825631">
        <ele>291.087</ele>
        <time>2021-10-14T10:58:20Z</time>
      </trkpt>
      <trkpt lat="43.151340" lon="-5.825574">
        <ele>291.015</ele>
        <time>2021-10-14T10:58:22Z</time>
      </trkpt>
      <trkpt lat="43.151492" lon="-5.825535">
        <ele>291.008</ele>
        <time>2021-10-14T10:58:24Z</time>
      </trkpt>
      <trkpt lat="43.151571" lon="-5.825522">
        <ele>291.079</ele>
        <time>2021-10-14T10:58:25Z</time>
      </trkpt>
      <trkpt lat="43.151653" lon="-5.825512">
        <ele>291.017</ele>
        <time>2021-10-14T10:58:26Z</time>
      </trkpt>
      <trkpt lat="43.151798" lon="-5.825511">
        <ele>291.035</ele>
        <time>2021-10-14T10:58:28Z</time>
      </trkpt>
      <trkpt lat="43.151939" lon="-5.825528">
        <ele>291.042</ele>
        <time>2021-10-14T10:58:30Z</time>
      </trkpt>
      <trkpt lat="43.152013" lon="-5.825540">
        <ele>291.085</ele>
        <time>2021-10-14T10:58:31Z</time>
      </trkpt>
      <trkpt lat="43.152168" lon="-5.825578">
        <ele>291.032</ele>
        <time>2021-10-14T10:58:33Z</time>
      </trkpt>
      <trkpt lat="43.152241" lon="-5.825604">
        <ele>291.074</ele>
        <time>2021-10-14T10:58:34Z</time>
      </trkpt>
      <trkpt lat="43.152372" lon="-5.825652">
        <ele>291.073</ele>
        <time>2021-10-14T10:58:36Z</time>
      </trkpt>
      <trkpt lat="43.152432" lon="-5.825673">
        <ele>291.074</ele>
        <time>2021-10-14T10:58:37Z</time>
      </trkpt>
      <trkpt lat="43.152488" lon="-5.825693">
        <ele>291.056</ele>
        <time>2021-10-14T10:58:38Z</time>
      </trkpt>
      <trkpt lat="43.152584" lon="-5.825723">
        <ele>291.021</ele>
        <time>2021-10-14T10:58:40Z</time>
      </trkpt>
      <trkpt lat="43.152634" lon="-5.825742">
        <ele>291.008</ele>
        <time>2021-10-14T10:58:41Z</time>
      </trkpt>
      <trkpt lat="43.152744" lon="-5.825782">
        <ele>291.045</ele>
        <time>2021-10-14T10:58:43Z</time>
      </trkpt>
      <trkpt lat="43.152808" lon="-5.825806">
        <ele>291.053</ele>
        <time>2021-10-14T10:58:44Z</time>
      </trkpt>
      <trkpt lat="43.152941" lon="-5.825858">
        <ele>291.061</ele>
        <time>2021-10-14T10:58:46Z</time>
      </trkpt>
      <trkpt lat="43.153008" lon="-5.825879">
        <ele>291.068</ele>
        <time>2021-10-14T10:58:47Z</time>
      </trkpt>
      <trkpt lat="43.153127" lon="-5.825920">
        <ele>291.041</ele>
        <time>2021-10-14T10:58:49Z</time>
      </trkpt>
      <trkpt lat="43.153186" lon="-5.825939">
        <ele>291.078</ele>
        <time>2021-10-14T10:58:50Z</time>
      </trkpt>
      <trkpt lat="43.153314" lon="-5.825991">
        <ele>291.090</ele>
        <time>2021-10-14T10:58:52Z</time>
      </trkpt>
      <trkpt lat="43.153382" lon="-5.826015">
        <ele>291.099</ele>
        <time>2021-10-14T10:58:53Z</time>
      </trkpt>
      <trkpt lat="43.153515" lon="-5.826057">
        <ele>291.038</ele>
        <time>2021-10-14T10:58:55Z</time>
      </trkpt>
      <trkpt lat="43.153585" lon="-5.826083">
        <ele>291.070</ele>
        <time>2021-10-14T10:58:56Z</time>
      </trkpt>
      <trkpt lat="43.153726" lon="-5.826135">
        <ele>259.417</ele>
        <time>2021-10-14T10:58:58Z</time>
      </trkpt>
      <trkpt lat="43.153871" lon="-5.826190">
        <ele>227.808</ele>
        <time>2021-10-14T10:59:00Z</time>
      </trkpt>
      <trkpt lat="43.153934" lon="-5.826216">
        <ele>227.741</ele>
        <time>2021-10-14T10:59:01Z</time>
      </trkpt>
      <trkpt lat="43.154063" lon="-5.826268">
        <ele>227.599</ele>
        <time>2021-10-14T10:59:03Z</time>
      </trkpt>
      <trkpt lat="43.154206" lon="-5.826318">
        <ele>227.837</ele>
        <time>2021-10-14T10:59:05Z</time>
      </trkpt>
      <trkpt lat="43.154361" lon="-5.826384">
        <ele>227.274</ele>
        <time>2021-10-14T10:59:07Z</time>
      </trkpt>
      <trkpt lat="43.154438" lon="-5.826426">
        <ele>227.147</ele>
        <time>2021-10-14T10:59:08Z</time>
      </trkpt>
      <trkpt lat="43.154588" lon="-5.826522">
        <ele>227.014</ele>
        <time>2021-10-14T10:59:10Z</time>
      </trkpt>
      <trkpt lat="43.154738" lon="-5.826566">
        <ele>226.546</ele>
        <time>2021-10-14T10:59:12Z</time>
      </trkpt>
      <trkpt lat="43.154805" lon="-5.826583">
        <ele>226.575</ele>
        <time>2021-10-14T10:59:13Z</time>
      </trkpt>
      <trkpt lat="43.154867" lon="-5.826603">
        <ele>225.933</ele>
        <time>2021-10-14T10:59:14Z</time>
      </trkpt>
      <trkpt lat="43.154983" lon="-5.826642">
        <ele>225.523</ele>
        <time>2021-10-14T10:59:16Z</time>
      </trkpt>
      <trkpt lat="43.155047" lon="-5.826664">
        <ele>225.215</ele>
        <time>2021-10-14T10:59:17Z</time>
      </trkpt>
      <trkpt lat="43.155169" lon="-5.826713">
        <ele>225.108</ele>
        <time>2021-10-14T10:59:19Z</time>
      </trkpt>
      <trkpt lat="43.155236" lon="-5.826738">
        <ele>225.261</ele>
        <time>2021-10-14T10:59:20Z</time>
      </trkpt>
      <trkpt lat="43.155378" lon="-5.826793">
        <ele>225.799</ele>
        <time>2021-10-14T10:59:22Z</time>
      </trkpt>
      <trkpt lat="43.155526" lon="-5.826850">
        <ele>226.177</ele>
        <time>2021-10-14T10:59:24Z</time>
      </trkpt>
      <trkpt lat="43.155654" lon="-5.826893">
        <ele>226.674</ele>
        <time>2021-10-14T10:59:26Z</time>
      </trkpt>
      <trkpt lat="43.155759" lon="-5.826931">
        <ele>226.577</ele>
        <time>2021-10-14T10:59:28Z</time>
      </trkpt>
      <trkpt lat="43.155811" lon="-5.826951">
        <ele>226.674</ele>
        <time>2021-10-14T10:59:29Z</time>
      </trkpt>
      <trkpt lat="43.155924" lon="-5.826988">
        <ele>226.356</ele>
        <time>2021-10-14T10:59:31Z</time>
      </trkpt>
      <trkpt lat="43.155990" lon="-5.827001">
        <ele>226.335</ele>
        <time>2021-10-14T10:59:32Z</time>
      </trkpt>
      <trkpt lat="43.156131" lon="-5.827019">
        <ele>225.758</ele>
        <time>2021-10-14T10:59:34Z</time>
      </trkpt>
      <trkpt lat="43.156201" lon="-5.827027">
        <ele>225.752</ele>
        <time>2021-10-14T10:59:35Z</time>
      </trkpt>
      <trkpt lat="43.156351" lon="-5.827042">
        <ele>225.317</ele>
        <time>2021-10-14T10:59:37Z</time>
      </trkpt>
      <trkpt lat="43.156426" lon="-5.827048">
        <ele>225.308</ele>
        <time>2021-10-14T10:59:38Z</time>
      </trkpt>
      <trkpt lat="43.156580" lon="-5.827056">
        <ele>224.823</ele>
        <time>2021-10-14T10:59:40Z</time>
      </trkpt>
      <trkpt lat="43.156765" lon="-5.827069">
        <ele>224.361</ele>
        <time>2021-10-14T10:59:42Z</time>
      </trkpt>
      <trkpt lat="43.156970" lon="-5.827086">
        <ele>224.089</ele>
        <time>2021-10-14T10:59:44Z</time>
      </trkpt>
      <trkpt lat="43.157170" lon="-5.827094">
        <ele>223.696</ele>
        <time>2021-10-14T10:59:46Z</time>
      </trkpt>
      <trkpt lat="43.157342" lon="-5.827107">
        <ele>223.379</ele>
        <time>2021-10-14T10:59:48Z</time>
      </trkpt>
      <trkpt lat="43.157421" lon="-5.827116">
        <ele>223.396</ele>
        <time>2021-10-14T10:59:49Z</time>
      </trkpt>
      <trkpt lat="43.157497" lon="-5.827122">
        <ele>223.268</ele>
        <time>2021-10-14T10:59:50Z</time>
      </trkpt>
      <trkpt lat="43.157641" lon="-5.827124">
        <ele>223.357</ele>
        <time>2021-10-14T10:59:52Z</time>
      </trkpt>
      <trkpt lat="43.157714" lon="-5.827123">
        <ele>223.463</ele>
        <time>2021-10-14T10:59:53Z</time>
      </trkpt>
      <trkpt lat="43.157851" lon="-5.827127">
        <ele>223.344</ele>
        <time>2021-10-14T10:59:55Z</time>
      </trkpt>
      <trkpt lat="43.157914" lon="-5.827135">
        <ele>223.418</ele>
        <time>2021-10-14T10:59:56Z</time>
      </trkpt>
      <trkpt lat="43.158032" lon="-5.827148">
        <ele>223.308</ele>
        <time>2021-10-14T10:59:58Z</time>
      </trkpt>
      <trkpt lat="43.158172" lon="-5.827161">
        <ele>223.364</ele>
        <time>2021-10-14T11:00:00Z</time>
      </trkpt>
      <trkpt lat="43.158248" lon="-5.827167">
        <ele>222.872</ele>
        <time>2021-10-14T11:00:01Z</time>
      </trkpt>
      <trkpt lat="43.158327" lon="-5.827183">
        <ele>222.560</ele>
        <time>2021-10-14T11:00:02Z</time>
      </trkpt>
      <trkpt lat="43.158480" lon="-5.827216">
        <ele>222.437</ele>
        <time>2021-10-14T11:00:04Z</time>
      </trkpt>
      <trkpt lat="43.158555" lon="-5.827217">
        <ele>222.370</ele>
        <time>2021-10-14T11:00:05Z</time>
      </trkpt>
      <trkpt lat="43.158683" lon="-5.827217">
        <ele>221.847</ele>
        <time>2021-10-14T11:00:07Z</time>
      </trkpt>
      <trkpt lat="43.158742" lon="-5.827217">
        <ele>221.919</ele>
        <time>2021-10-14T11:00:08Z</time>
      </trkpt>
      <trkpt lat="43.158871" lon="-5.827211">
        <ele>221.988</ele>
        <time>2021-10-14T11:00:10Z</time>
      </trkpt>
      <trkpt lat="43.159011" lon="-5.827222">
        <ele>222.044</ele>
        <time>2021-10-14T11:00:12Z</time>
      </trkpt>
      <trkpt lat="43.159127" lon="-5.827231">
        <ele>222.505</ele>
        <time>2021-10-14T11:00:14Z</time>
      </trkpt>
      <trkpt lat="43.159228" lon="-5.827230">
        <ele>222.615</ele>
        <time>2021-10-14T11:00:16Z</time>
      </trkpt>
      <trkpt lat="43.159343" lon="-5.827228">
        <ele>223.208</ele>
        <time>2021-10-14T11:00:18Z</time>
      </trkpt>
      <trkpt lat="43.159482" lon="-5.827236">
        <ele>223.292</ele>
        <time>2021-10-14T11:00:20Z</time>
      </trkpt>
      <trkpt lat="43.159613" lon="-5.827245">
        <ele>223.450</ele>
        <time>2021-10-14T11:00:22Z</time>
      </trkpt>
      <trkpt lat="43.159747" lon="-5.827256">
        <ele>223.168</ele>
        <time>2021-10-14T11:00:24Z</time>
      </trkpt>
      <trkpt lat="43.159816" lon="-5.827263">
        <ele>223.445</ele>
        <time>2021-10-14T11:00:25Z</time>
      </trkpt>
      <trkpt lat="43.159945" lon="-5.827270">
        <ele>223.368</ele>
        <time>2021-10-14T11:00:27Z</time>
      </trkpt>
      <trkpt lat="43.160062" lon="-5.827268">
        <ele>223.215</ele>
        <time>2021-10-14T11:00:29Z</time>
      </trkpt>
      <trkpt lat="43.160119" lon="-5.827270">
        <ele>223.197</ele>
        <time>2021-10-14T11:00:30Z</time>
      </trkpt>
      <trkpt lat="43.160177" lon="-5.827271">
        <ele>223.136</ele>
        <time>2021-10-14T11:00:31Z</time>
      </trkpt>
      <trkpt lat="43.160229" lon="-5.827269">
        <ele>223.173</ele>
        <time>2021-10-14T11:00:32Z</time>
      </trkpt>
      <trkpt lat="43.160325" lon="-5.827266">
        <ele>223.185</ele>
        <time>2021-10-14T11:00:34Z</time>
      </trkpt>
      <trkpt lat="43.160380" lon="-5.827271">
        <ele>223.313</ele>
        <time>2021-10-14T11:00:35Z</time>
      </trkpt>
      <trkpt lat="43.160436" lon="-5.827273">
        <ele>223.608</ele>
        <time>2021-10-14T11:00:36Z</time>
      </trkpt>
      <trkpt lat="43.160488" lon="-5.827275">
        <ele>223.945</ele>
        <time>2021-10-14T11:00:37Z</time>
      </trkpt>
      <trkpt lat="43.160539" lon="-5.827288">
        <ele>224.143</ele>
        <time>2021-10-14T11:00:38Z</time>
      </trkpt>
      <trkpt lat="43.160646" lon="-5.827319">
        <ele>224.711</ele>
        <time>2021-10-14T11:00:40Z</time>
      </trkpt>
      <trkpt lat="43.160711" lon="-5.827335">
        <ele>224.838</ele>
        <time>2021-10-14T11:00:41Z</time>
      </trkpt>
      <trkpt lat="43.160846" lon="-5.827376">
        <ele>226.411</ele>
        <time>2021-10-14T11:00:43Z</time>
      </trkpt>
      <trkpt lat="43.160924" lon="-5.827399">
        <ele>226.728</ele>
        <time>2021-10-14T11:00:44Z</time>
      </trkpt>
      <trkpt lat="43.161102" lon="-5.827434">
        <ele>227.050</ele>
        <time>2021-10-14T11:00:46Z</time>
      </trkpt>
      <trkpt lat="43.161199" lon="-5.827457">
        <ele>226.639</ele>
        <time>2021-10-14T11:00:47Z</time>
      </trkpt>
      <trkpt lat="43.161292" lon="-5.827481">
        <ele>225.911</ele>
        <time>2021-10-14T11:00:48Z</time>
      </trkpt>
      <trkpt lat="43.161465" lon="-5.827514">
        <ele>225.821</ele>
        <time>2021-10-14T11:00:50Z</time>
      </trkpt>
      <trkpt lat="43.161619" lon="-5.827545">
        <ele>224.003</ele>
        <time>2021-10-14T11:00:52Z</time>
      </trkpt>
      <trkpt lat="43.161694" lon="-5.827561">
        <ele>222.408</ele>
        <time>2021-10-14T11:00:53Z</time>
      </trkpt>
      <trkpt lat="43.161822" lon="-5.827598">
        <ele>220.389</ele>
        <time>2021-10-14T11:00:55Z</time>
      </trkpt>
      <trkpt lat="43.161877" lon="-5.827620">
        <ele>219.577</ele>
        <time>2021-10-14T11:00:56Z</time>
      </trkpt>
      <trkpt lat="43.161974" lon="-5.827646">
        <ele>218.335</ele>
        <time>2021-10-14T11:00:58Z</time>
      </trkpt>
      <trkpt lat="43.162062" lon="-5.827667">
        <ele>217.872</ele>
        <time>2021-10-14T11:01:00Z</time>
      </trkpt>
      <trkpt lat="43.162137" lon="-5.827690">
        <ele>217.835</ele>
        <time>2021-10-14T11:01:02Z</time>
      </trkpt>
      <trkpt lat="43.162247" lon="-5.827731">
        <ele>218.752</ele>
        <time>2021-10-14T11:01:04Z</time>
      </trkpt>
      <trkpt lat="43.162367" lon="-5.827772">
        <ele>219.234</ele>
        <time>2021-10-14T11:01:06Z</time>
      </trkpt>
      <trkpt lat="43.162422" lon="-5.827792">
        <ele>219.323</ele>
        <time>2021-10-14T11:01:07Z</time>
      </trkpt>
      <trkpt lat="43.162471" lon="-5.827810">
        <ele>219.319</ele>
        <time>2021-10-14T11:01:08Z</time>
      </trkpt>
      <trkpt lat="43.162553" lon="-5.827836">
        <ele>219.309</ele>
        <time>2021-10-14T11:01:10Z</time>
      </trkpt>
      <trkpt lat="43.162624" lon="-5.827852">
        <ele>220.219</ele>
        <time>2021-10-14T11:01:12Z</time>
      </trkpt>
      <trkpt lat="43.162678" lon="-5.827865">
        <ele>220.308</ele>
        <time>2021-10-14T11:01:13Z</time>
      </trkpt>
      <trkpt lat="43.162738" lon="-5.827884">
        <ele>221.019</ele>
        <time>2021-10-14T11:01:14Z</time>
      </trkpt>
      <trkpt lat="43.162860" lon="-5.827914">
        <ele>222.177</ele>
        <time>2021-10-14T11:01:16Z</time>
      </trkpt>
      <trkpt lat="43.162919" lon="-5.827930">
        <ele>222.695</ele>
        <time>2021-10-14T11:01:17Z</time>
      </trkpt>
      <trkpt lat="43.163032" lon="-5.827968">
        <ele>223.142</ele>
        <time>2021-10-14T11:01:19Z</time>
      </trkpt>
      <trkpt lat="43.163094" lon="-5.827989">
        <ele>223.155</ele>
        <time>2021-10-14T11:01:20Z</time>
      </trkpt>
      <trkpt lat="43.163212" lon="-5.828025">
        <ele>223.032</ele>
        <time>2021-10-14T11:01:22Z</time>
      </trkpt>
      <trkpt lat="43.163311" lon="-5.828055">
        <ele>223.244</ele>
        <time>2021-10-14T11:01:24Z</time>
      </trkpt>
      <trkpt lat="43.163363" lon="-5.828067">
        <ele>223.523</ele>
        <time>2021-10-14T11:01:25Z</time>
      </trkpt>
      <trkpt lat="43.163418" lon="-5.828078">
        <ele>223.695</ele>
        <time>2021-10-14T11:01:26Z</time>
      </trkpt>
      <trkpt lat="43.163516" lon="-5.828100">
        <ele>224.449</ele>
        <time>2021-10-14T11:01:28Z</time>
      </trkpt>
      <trkpt lat="43.163564" lon="-5.828113">
        <ele>224.723</ele>
        <time>2021-10-14T11:01:29Z</time>
      </trkpt>
      <trkpt lat="43.163613" lon="-5.828132">
        <ele>225.408</ele>
        <time>2021-10-14T11:01:30Z</time>
      </trkpt>
      <trkpt lat="43.163703" lon="-5.828161">
        <ele>226.917</ele>
        <time>2021-10-14T11:01:32Z</time>
      </trkpt>
      <trkpt lat="43.163762" lon="-5.828170">
        <ele>231.165</ele>
        <time>2021-10-14T11:01:35Z</time>
      </trkpt>
      <trkpt lat="43.163837" lon="-5.828199">
        <ele>233.833</ele>
        <time>2021-10-14T11:01:38Z</time>
      </trkpt>
      <trkpt lat="43.163931" lon="-5.828209">
        <ele>236.190</ele>
        <time>2021-10-14T11:01:40Z</time>
      </trkpt>
      <trkpt lat="43.164065" lon="-5.828176">
        <ele>236.553</ele>
        <time>2021-10-14T11:01:42Z</time>
      </trkpt>
      <trkpt lat="43.164132" lon="-5.828178">
        <ele>237.460</ele>
        <time>2021-10-14T11:01:43Z</time>
      </trkpt>
      <trkpt lat="43.164193" lon="-5.828206">
        <ele>235.292</ele>
        <time>2021-10-14T11:01:44Z</time>
      </trkpt>
      <trkpt lat="43.164307" lon="-5.828304">
        <ele>234.251</ele>
        <time>2021-10-14T11:01:46Z</time>
      </trkpt>
      <trkpt lat="43.164376" lon="-5.828351">
        <ele>232.929</ele>
        <time>2021-10-14T11:01:47Z</time>
      </trkpt>
      <trkpt lat="43.164458" lon="-5.828386">
        <ele>230.900</ele>
        <time>2021-10-14T11:01:48Z</time>
      </trkpt>
      <trkpt lat="43.164553" lon="-5.828413">
        <ele>229.820</ele>
        <time>2021-10-14T11:01:49Z</time>
      </trkpt>
      <trkpt lat="43.164656" lon="-5.828445">
        <ele>228.908</ele>
        <time>2021-10-14T11:01:50Z</time>
      </trkpt>
      <trkpt lat="43.164892" lon="-5.828508">
        <ele>225.180</ele>
        <time>2021-10-14T11:01:52Z</time>
      </trkpt>
      <trkpt lat="43.165125" lon="-5.828562">
        <ele>222.738</ele>
        <time>2021-10-14T11:01:54Z</time>
      </trkpt>
      <trkpt lat="43.165238" lon="-5.828585">
        <ele>221.746</ele>
        <time>2021-10-14T11:01:55Z</time>
      </trkpt>
      <trkpt lat="43.165354" lon="-5.828615">
        <ele>220.693</ele>
        <time>2021-10-14T11:01:56Z</time>
      </trkpt>
      <trkpt lat="43.165609" lon="-5.828681">
        <ele>219.546</ele>
        <time>2021-10-14T11:01:58Z</time>
      </trkpt>
      <trkpt lat="43.165736" lon="-5.828713">
        <ele>219.353</ele>
        <time>2021-10-14T11:01:59Z</time>
      </trkpt>
      <trkpt lat="43.165995" lon="-5.828783">
        <ele>218.225</ele>
        <time>2021-10-14T11:02:01Z</time>
      </trkpt>
      <trkpt lat="43.166139" lon="-5.828824">
        <ele>218.034</ele>
        <time>2021-10-14T11:02:02Z</time>
      </trkpt>
      <trkpt lat="43.166391" lon="-5.828890">
        <ele>217.164</ele>
        <time>2021-10-14T11:02:04Z</time>
      </trkpt>
      <trkpt lat="43.166499" lon="-5.828916">
        <ele>216.906</ele>
        <time>2021-10-14T11:02:05Z</time>
      </trkpt>
      <trkpt lat="43.166673" lon="-5.828953">
        <ele>217.116</ele>
        <time>2021-10-14T11:02:07Z</time>
      </trkpt>
      <trkpt lat="43.166749" lon="-5.828976">
        <ele>217.208</ele>
        <time>2021-10-14T11:02:08Z</time>
      </trkpt>
      <trkpt lat="43.166865" lon="-5.829015">
        <ele>217.174</ele>
        <time>2021-10-14T11:02:10Z</time>
      </trkpt>
      <trkpt lat="43.166913" lon="-5.829041">
        <ele>217.652</ele>
        <time>2021-10-14T11:02:11Z</time>
      </trkpt>
      <trkpt lat="43.166965" lon="-5.829102">
        <ele>218.390</ele>
        <time>2021-10-14T11:02:13Z</time>
      </trkpt>
      <trkpt lat="43.166984" lon="-5.829168">
        <ele>219.297</ele>
        <time>2021-10-14T11:02:15Z</time>
      </trkpt>
      <trkpt lat="43.167050" lon="-5.829208">
        <ele>220.910</ele>
        <time>2021-10-14T11:02:18Z</time>
      </trkpt>
      <trkpt lat="43.167172" lon="-5.829164">
        <ele>221.517</ele>
        <time>2021-10-14T11:02:20Z</time>
      </trkpt>
      <trkpt lat="43.167351" lon="-5.829057">
        <ele>221.829</ele>
        <time>2021-10-14T11:02:22Z</time>
      </trkpt>
      <trkpt lat="43.167464" lon="-5.828986">
        <ele>221.958</ele>
        <time>2021-10-14T11:02:23Z</time>
      </trkpt>
      <trkpt lat="43.167676" lon="-5.828833">
        <ele>220.894</ele>
        <time>2021-10-14T11:02:25Z</time>
      </trkpt>
      <trkpt lat="43.167773" lon="-5.828757">
        <ele>220.457</ele>
        <time>2021-10-14T11:02:26Z</time>
      </trkpt>
      <trkpt lat="43.167939" lon="-5.828649">
        <ele>219.622</ele>
        <time>2021-10-14T11:02:28Z</time>
      </trkpt>
      <trkpt lat="43.168073" lon="-5.828600">
        <ele>218.908</ele>
        <time>2021-10-14T11:02:30Z</time>
      </trkpt>
      <trkpt lat="43.168135" lon="-5.828592">
        <ele>218.867</ele>
        <time>2021-10-14T11:02:31Z</time>
      </trkpt>
      <trkpt lat="43.168201" lon="-5.828595">
        <ele>218.665</ele>
        <time>2021-10-14T11:02:32Z</time>
      </trkpt>
      <trkpt lat="43.168346" lon="-5.828619">
        <ele>218.843</ele>
        <time>2021-10-14T11:02:34Z</time>
      </trkpt>
      <trkpt lat="43.168509" lon="-5.828657">
        <ele>218.920</ele>
        <time>2021-10-14T11:02:36Z</time>
      </trkpt>
      <trkpt lat="43.168602" lon="-5.828691">
        <ele>218.643</ele>
        <time>2021-10-14T11:02:38Z</time>
      </trkpt>
      <trkpt lat="43.168660" lon="-5.828731">
        <ele>218.890</ele>
        <time>2021-10-14T11:02:40Z</time>
      </trkpt>
      <trkpt lat="43.168711" lon="-5.828765">
        <ele>218.872</ele>
        <time>2021-10-14T11:02:41Z</time>
      </trkpt>
      <trkpt lat="43.168827" lon="-5.828846">
        <ele>218.821</ele>
        <time>2021-10-14T11:02:43Z</time>
      </trkpt>
      <trkpt lat="43.168887" lon="-5.828889">
        <ele>218.687</ele>
        <time>2021-10-14T11:02:44Z</time>
      </trkpt>
      <trkpt lat="43.169006" lon="-5.828933">
        <ele>218.442</ele>
        <time>2021-10-14T11:02:46Z</time>
      </trkpt>
      <trkpt lat="43.169117" lon="-5.828924">
        <ele>218.226</ele>
        <time>2021-10-14T11:02:48Z</time>
      </trkpt>
      <trkpt lat="43.169213" lon="-5.828902">
        <ele>217.008</ele>
        <time>2021-10-14T11:02:50Z</time>
      </trkpt>
      <trkpt lat="43.169247" lon="-5.828943">
        <ele>215.786</ele>
        <time>2021-10-14T11:02:52Z</time>
      </trkpt>
      <trkpt lat="43.169320" lon="-5.828972">
        <ele>215.574</ele>
        <time>2021-10-14T11:02:53Z</time>
      </trkpt>
      <trkpt lat="43.169356" lon="-5.829026">
        <ele>215.372</ele>
        <time>2021-10-14T11:02:54Z</time>
      </trkpt>
      <trkpt lat="43.169417" lon="-5.829170">
        <ele>215.239</ele>
        <time>2021-10-14T11:02:56Z</time>
      </trkpt>
      <trkpt lat="43.169515" lon="-5.829291">
        <ele>215.032</ele>
        <time>2021-10-14T11:02:58Z</time>
      </trkpt>
      <trkpt lat="43.169588" lon="-5.829325">
        <ele>215.119</ele>
        <time>2021-10-14T11:02:59Z</time>
      </trkpt>
      <trkpt lat="43.169673" lon="-5.829336">
        <ele>215.131</ele>
        <time>2021-10-14T11:03:00Z</time>
      </trkpt>
      <trkpt lat="43.169853" lon="-5.829346">
        <ele>215.920</ele>
        <time>2021-10-14T11:03:02Z</time>
      </trkpt>
      <trkpt lat="43.169942" lon="-5.829362">
        <ele>217.128</ele>
        <time>2021-10-14T11:03:03Z</time>
      </trkpt>
      <trkpt lat="43.170086" lon="-5.829472">
        <ele>219.389</ele>
        <time>2021-10-14T11:03:05Z</time>
      </trkpt>
      <trkpt lat="43.170138" lon="-5.829563">
        <ele>220.017</ele>
        <time>2021-10-14T11:03:06Z</time>
      </trkpt>
      <trkpt lat="43.170182" lon="-5.829669">
        <ele>220.708</ele>
        <time>2021-10-14T11:03:07Z</time>
      </trkpt>
      <trkpt lat="43.170222" lon="-5.829782">
        <ele>221.280</ele>
        <time>2021-10-14T11:03:08Z</time>
      </trkpt>
      <trkpt lat="43.170279" lon="-5.830022">
        <ele>223.738</ele>
        <time>2021-10-14T11:03:10Z</time>
      </trkpt>
      <trkpt lat="43.170285" lon="-5.830153">
        <ele>224.646</ele>
        <time>2021-10-14T11:03:11Z</time>
      </trkpt>
      <trkpt lat="43.170241" lon="-5.830416">
        <ele>226.513</ele>
        <time>2021-10-14T11:03:13Z</time>
      </trkpt>
      <trkpt lat="43.170203" lon="-5.830550">
        <ele>226.726</ele>
        <time>2021-10-14T11:03:14Z</time>
      </trkpt>
      <trkpt lat="43.170135" lon="-5.830817">
        <ele>230.393</ele>
        <time>2021-10-14T11:03:16Z</time>
      </trkpt>
      <trkpt lat="43.170100" lon="-5.830969">
        <ele>230.615</ele>
        <time>2021-10-14T11:03:17Z</time>
      </trkpt>
      <trkpt lat="43.170022" lon="-5.831318">
        <ele>235.094</ele>
        <time>2021-10-14T11:03:19Z</time>
      </trkpt>
      <trkpt lat="43.169983" lon="-5.831501">
        <ele>237.433</ele>
        <time>2021-10-14T11:03:20Z</time>
      </trkpt>
      <trkpt lat="43.169935" lon="-5.831859">
        <ele>242.023</ele>
        <time>2021-10-14T11:03:22Z</time>
      </trkpt>
      <trkpt lat="43.169969" lon="-5.832221">
        <ele>243.015</ele>
        <time>2021-10-14T11:03:24Z</time>
      </trkpt>
      <trkpt lat="43.169998" lon="-5.832400">
        <ele>245.408</ele>
        <time>2021-10-14T11:03:25Z</time>
      </trkpt>
      <trkpt lat="43.170023" lon="-5.832576">
        <ele>246.851</ele>
        <time>2021-10-14T11:03:26Z</time>
      </trkpt>
      <trkpt lat="43.170045" lon="-5.832747">
        <ele>248.679</ele>
        <time>2021-10-14T11:03:27Z</time>
      </trkpt>
      <trkpt lat="43.170084" lon="-5.833070">
        <ele>251.457</ele>
        <time>2021-10-14T11:03:29Z</time>
      </trkpt>
      <trkpt lat="43.170093" lon="-5.833216">
        <ele>253.964</ele>
        <time>2021-10-14T11:03:30Z</time>
      </trkpt>
      <trkpt lat="43.170122" lon="-5.833448">
        <ele>257.137</ele>
        <time>2021-10-14T11:03:32Z</time>
      </trkpt>
      <trkpt lat="43.170165" lon="-5.833527">
        <ele>257.454</ele>
        <time>2021-10-14T11:03:33Z</time>
      </trkpt>
      <trkpt lat="43.170311" lon="-5.833621">
        <ele>259.186</ele>
        <time>2021-10-14T11:03:35Z</time>
      </trkpt>
      <trkpt lat="43.170408" lon="-5.833672">
        <ele>260.195</ele>
        <time>2021-10-14T11:03:36Z</time>
      </trkpt>
      <trkpt lat="43.170584" lon="-5.833842">
        <ele>263.694</ele>
        <time>2021-10-14T11:03:38Z</time>
      </trkpt>
      <trkpt lat="43.170688" lon="-5.834047">
        <ele>265.857</ele>
        <time>2021-10-14T11:03:40Z</time>
      </trkpt>
      <trkpt lat="43.170730" lon="-5.834147">
        <ele>266.122</ele>
        <time>2021-10-14T11:03:41Z</time>
      </trkpt>
      <trkpt lat="43.170838" lon="-5.834368">
        <ele>266.908</ele>
        <time>2021-10-14T11:03:43Z</time>
      </trkpt>
      <trkpt lat="43.170902" lon="-5.834484">
        <ele>268.147</ele>
        <time>2021-10-14T11:03:44Z</time>
      </trkpt>
      <trkpt lat="43.171049" lon="-5.834664">
        <ele>268.375</ele>
        <time>2021-10-14T11:03:46Z</time>
      </trkpt>
      <trkpt lat="43.171137" lon="-5.834739">
        <ele>269.843</ele>
        <time>2021-10-14T11:03:47Z</time>
      </trkpt>
      <trkpt lat="43.171229" lon="-5.834806">
        <ele>271.140</ele>
        <time>2021-10-14T11:03:48Z</time>
      </trkpt>
      <trkpt lat="43.171324" lon="-5.834874">
        <ele>272.463</ele>
        <time>2021-10-14T11:03:49Z</time>
      </trkpt>
      <trkpt lat="43.171429" lon="-5.834939">
        <ele>273.480</ele>
        <time>2021-10-14T11:03:50Z</time>
      </trkpt>
      <trkpt lat="43.171658" lon="-5.835051">
        <ele>274.862</ele>
        <time>2021-10-14T11:03:52Z</time>
      </trkpt>
      <trkpt lat="43.171784" lon="-5.835105">
        <ele>275.011</ele>
        <time>2021-10-14T11:03:53Z</time>
      </trkpt>
      <trkpt lat="43.172034" lon="-5.835215">
        <ele>277.589</ele>
        <time>2021-10-14T11:03:55Z</time>
      </trkpt>
      <trkpt lat="43.172148" lon="-5.835271">
        <ele>278.306</ele>
        <time>2021-10-14T11:03:56Z</time>
      </trkpt>
      <trkpt lat="43.172319" lon="-5.835424">
        <ele>279.926</ele>
        <time>2021-10-14T11:03:58Z</time>
      </trkpt>
      <trkpt lat="43.172377" lon="-5.835537">
        <ele>280.208</ele>
        <time>2021-10-14T11:03:59Z</time>
      </trkpt>
      <trkpt lat="43.172443" lon="-5.835829">
        <ele>281.916</ele>
        <time>2021-10-14T11:04:01Z</time>
      </trkpt>
      <trkpt lat="43.172487" lon="-5.835994">
        <ele>284.024</ele>
        <time>2021-10-14T11:04:02Z</time>
      </trkpt>
      <trkpt lat="43.172617" lon="-5.836296">
        <ele>286.642</ele>
        <time>2021-10-14T11:04:04Z</time>
      </trkpt>
      <trkpt lat="43.172695" lon="-5.836418">
        <ele>287.549</ele>
        <time>2021-10-14T11:04:05Z</time>
      </trkpt>
      <trkpt lat="43.172760" lon="-5.836536">
        <ele>288.272</ele>
        <time>2021-10-14T11:04:06Z</time>
      </trkpt>
      <trkpt lat="43.172833" lon="-5.836834">
        <ele>290.279</ele>
        <time>2021-10-14T11:04:08Z</time>
      </trkpt>
      <trkpt lat="43.172910" lon="-5.837153">
        <ele>292.281</ele>
        <time>2021-10-14T11:04:10Z</time>
      </trkpt>
      <trkpt lat="43.173043" lon="-5.837503">
        <ele>295.550</ele>
        <time>2021-10-14T11:04:12Z</time>
      </trkpt>
      <trkpt lat="43.173127" lon="-5.837686">
        <ele>296.516</ele>
        <time>2021-10-14T11:04:13Z</time>
      </trkpt>
      <trkpt lat="43.173218" lon="-5.837870">
        <ele>297.976</ele>
        <time>2021-10-14T11:04:14Z</time>
      </trkpt>
      <trkpt lat="43.173395" lon="-5.838180">
        <ele>301.013</ele>
        <time>2021-10-14T11:04:16Z</time>
      </trkpt>
      <trkpt lat="43.173581" lon="-5.838471">
        <ele>304.308</ele>
        <time>2021-10-14T11:04:18Z</time>
      </trkpt>
      <trkpt lat="43.173672" lon="-5.838615">
        <ele>305.679</ele>
        <time>2021-10-14T11:04:19Z</time>
      </trkpt>
      <trkpt lat="43.173758" lon="-5.838755">
        <ele>306.457</ele>
        <time>2021-10-14T11:04:20Z</time>
      </trkpt>
      <trkpt lat="43.173904" lon="-5.838994">
        <ele>308.465</ele>
        <time>2021-10-14T11:04:22Z</time>
      </trkpt>
      <trkpt lat="43.173973" lon="-5.839113">
        <ele>310.142</ele>
        <time>2021-10-14T11:04:23Z</time>
      </trkpt>
      <trkpt lat="43.174042" lon="-5.839232">
        <ele>311.685</ele>
        <time>2021-10-14T11:04:24Z</time>
      </trkpt>
      <trkpt lat="43.174190" lon="-5.839458">
        <ele>313.322</ele>
        <time>2021-10-14T11:04:26Z</time>
      </trkpt>
      <trkpt lat="43.174370" lon="-5.839617">
        <ele>315.734</ele>
        <time>2021-10-14T11:04:28Z</time>
      </trkpt>
      <trkpt lat="43.174474" lon="-5.839681">
        <ele>315.893</ele>
        <time>2021-10-14T11:04:29Z</time>
      </trkpt>
      <trkpt lat="43.174578" lon="-5.839751">
        <ele>315.897</ele>
        <time>2021-10-14T11:04:30Z</time>
      </trkpt>
      <trkpt lat="43.174742" lon="-5.839966">
        <ele>317.023</ele>
        <time>2021-10-14T11:04:32Z</time>
      </trkpt>
      <trkpt lat="43.174803" lon="-5.840098">
        <ele>317.625</ele>
        <time>2021-10-14T11:04:33Z</time>
      </trkpt>
      <trkpt lat="43.174927" lon="-5.840350">
        <ele>318.908</ele>
        <time>2021-10-14T11:04:35Z</time>
      </trkpt>
      <trkpt lat="43.175077" lon="-5.840527">
        <ele>319.397</ele>
        <time>2021-10-14T11:04:37Z</time>
      </trkpt>
      <trkpt lat="43.175147" lon="-5.840578">
        <ele>319.385</ele>
        <time>2021-10-14T11:04:38Z</time>
      </trkpt>
      <trkpt lat="43.175277" lon="-5.840619">
        <ele>320.543</ele>
        <time>2021-10-14T11:04:40Z</time>
      </trkpt>
      <trkpt lat="43.175339" lon="-5.840623">
        <ele>321.120</ele>
        <time>2021-10-14T11:04:41Z</time>
      </trkpt>
      <trkpt lat="43.175403" lon="-5.840622">
        <ele>321.933</ele>
        <time>2021-10-14T11:04:42Z</time>
      </trkpt>
      <trkpt lat="43.175575" lon="-5.840636">
        <ele>323.180</ele>
        <time>2021-10-14T11:04:44Z</time>
      </trkpt>
      <trkpt lat="43.175771" lon="-5.840676">
        <ele>324.412</ele>
        <time>2021-10-14T11:04:46Z</time>
      </trkpt>
      <trkpt lat="43.175859" lon="-5.840713">
        <ele>324.571</ele>
        <time>2021-10-14T11:04:47Z</time>
      </trkpt>
      <trkpt lat="43.175995" lon="-5.840856">
        <ele>326.035</ele>
        <time>2021-10-14T11:04:49Z</time>
      </trkpt>
      <trkpt lat="43.176042" lon="-5.840966">
        <ele>326.086</ele>
        <time>2021-10-14T11:04:50Z</time>
      </trkpt>
      <trkpt lat="43.176095" lon="-5.841212">
        <ele>329.214</ele>
        <time>2021-10-14T11:04:52Z</time>
      </trkpt>
      <trkpt lat="43.176205" lon="-5.841407">
        <ele>331.408</ele>
        <time>2021-10-14T11:04:54Z</time>
      </trkpt>
      <trkpt lat="43.176368" lon="-5.841539">
        <ele>334.181</ele>
        <time>2021-10-14T11:04:56Z</time>
      </trkpt>
      <trkpt lat="43.176525" lon="-5.841673">
        <ele>334.949</ele>
        <time>2021-10-14T11:04:58Z</time>
      </trkpt>
      <trkpt lat="43.176595" lon="-5.841742">
        <ele>336.687</ele>
        <time>2021-10-14T11:04:59Z</time>
      </trkpt>
      <trkpt lat="43.176735" lon="-5.841793">
        <ele>337.534</ele>
        <time>2021-10-14T11:05:01Z</time>
      </trkpt>
      <trkpt lat="43.176804" lon="-5.841780">
        <ele>339.047</ele>
        <time>2021-10-14T11:05:02Z</time>
      </trkpt>
      <trkpt lat="43.176918" lon="-5.841685">
        <ele>340.814</ele>
        <time>2021-10-14T11:05:04Z</time>
      </trkpt>
      <trkpt lat="43.176971" lon="-5.841611">
        <ele>341.856</ele>
        <time>2021-10-14T11:05:05Z</time>
      </trkpt>
      <trkpt lat="43.177041" lon="-5.841535">
        <ele>342.365</ele>
        <time>2021-10-14T11:05:06Z</time>
      </trkpt>
      <trkpt lat="43.177235" lon="-5.841405">
        <ele>344.562</ele>
        <time>2021-10-14T11:05:08Z</time>
      </trkpt>
      <trkpt lat="43.177477" lon="-5.841276">
        <ele>347.283</ele>
        <time>2021-10-14T11:05:10Z</time>
      </trkpt>
      <trkpt lat="43.177602" lon="-5.841213">
        <ele>347.411</ele>
        <time>2021-10-14T11:05:11Z</time>
      </trkpt>
      <trkpt lat="43.177713" lon="-5.841163">
        <ele>349.308</ele>
        <time>2021-10-14T11:05:12Z</time>
      </trkpt>
      <trkpt lat="43.177914" lon="-5.841110">
        <ele>351.284</ele>
        <time>2021-10-14T11:05:14Z</time>
      </trkpt>
      <trkpt lat="43.178098" lon="-5.841101">
        <ele>352.722</ele>
        <time>2021-10-14T11:05:16Z</time>
      </trkpt>
      <trkpt lat="43.178223" lon="-5.841156">
        <ele>353.290</ele>
        <time>2021-10-14T11:05:18Z</time>
      </trkpt>
      <trkpt lat="43.178262" lon="-5.841224">
        <ele>353.287</ele>
        <time>2021-10-14T11:05:19Z</time>
      </trkpt>
      <trkpt lat="43.178276" lon="-5.841311">
        <ele>353.460</ele>
        <time>2021-10-14T11:05:20Z</time>
      </trkpt>
      <trkpt lat="43.178221" lon="-5.841544">
        <ele>355.027</ele>
        <time>2021-10-14T11:05:22Z</time>
      </trkpt>
      <trkpt lat="43.178173" lon="-5.841673">
        <ele>355.699</ele>
        <time>2021-10-14T11:05:23Z</time>
      </trkpt>
      <trkpt lat="43.178043" lon="-5.841890">
        <ele>357.358</ele>
        <time>2021-10-14T11:05:25Z</time>
      </trkpt>
      <trkpt lat="43.177983" lon="-5.841984">
        <ele>357.748</ele>
        <time>2021-10-14T11:05:26Z</time>
      </trkpt>
      <trkpt lat="43.177951" lon="-5.842182">
        <ele>358.461</ele>
        <time>2021-10-14T11:05:28Z</time>
      </trkpt>
      <trkpt lat="43.178050" lon="-5.842405">
        <ele>359.617</ele>
        <time>2021-10-14T11:05:30Z</time>
      </trkpt>
      <trkpt lat="43.178220" lon="-5.842596">
        <ele>360.508</ele>
        <time>2021-10-14T11:05:32Z</time>
      </trkpt>
      <trkpt lat="43.178435" lon="-5.842727">
        <ele>360.392</ele>
        <time>2021-10-14T11:05:34Z</time>
      </trkpt>
      <trkpt lat="43.178562" lon="-5.842766">
        <ele>360.710</ele>
        <time>2021-10-14T11:05:35Z</time>
      </trkpt>
      <trkpt lat="43.178693" lon="-5.842806">
        <ele>360.718</ele>
        <time>2021-10-14T11:05:36Z</time>
      </trkpt>
      <trkpt lat="43.178825" lon="-5.842855">
        <ele>361.525</ele>
        <time>2021-10-14T11:05:37Z</time>
      </trkpt>
      <trkpt lat="43.178949" lon="-5.842918">
        <ele>362.048</ele>
        <time>2021-10-14T11:05:38Z</time>
      </trkpt>
      <trkpt lat="43.179154" lon="-5.843128">
        <ele>363.055</ele>
        <time>2021-10-14T11:05:40Z</time>
      </trkpt>
      <trkpt lat="43.179323" lon="-5.843414">
        <ele>365.057</ele>
        <time>2021-10-14T11:05:42Z</time>
      </trkpt>
      <trkpt lat="43.179551" lon="-5.843627">
        <ele>366.556</ele>
        <time>2021-10-14T11:05:44Z</time>
      </trkpt>
      <trkpt lat="43.179818" lon="-5.843774">
        <ele>368.244</ele>
        <time>2021-10-14T11:05:46Z</time>
      </trkpt>
      <trkpt lat="43.179957" lon="-5.843854">
        <ele>369.405</ele>
        <time>2021-10-14T11:05:47Z</time>
      </trkpt>
      <trkpt lat="43.180097" lon="-5.843934">
        <ele>370.215</ele>
        <time>2021-10-14T11:05:48Z</time>
      </trkpt>
      <trkpt lat="43.180237" lon="-5.844017">
        <ele>371.608</ele>
        <time>2021-10-14T11:05:49Z</time>
      </trkpt>
      <trkpt lat="43.180385" lon="-5.844101">
        <ele>373.612</ele>
        <time>2021-10-14T11:05:50Z</time>
      </trkpt>
      <trkpt lat="43.180662" lon="-5.844257">
        <ele>375.750</ele>
        <time>2021-10-14T11:05:52Z</time>
      </trkpt>
      <trkpt lat="43.180804" lon="-5.844338">
        <ele>377.898</ele>
        <time>2021-10-14T11:05:53Z</time>
      </trkpt>
      <trkpt lat="43.181066" lon="-5.844540">
        <ele>380.985</ele>
        <time>2021-10-14T11:05:55Z</time>
      </trkpt>
      <trkpt lat="43.181284" lon="-5.844785">
        <ele>383.958</ele>
        <time>2021-10-14T11:05:57Z</time>
      </trkpt>
      <trkpt lat="43.181371" lon="-5.844893">
        <ele>385.595</ele>
        <time>2021-10-14T11:05:58Z</time>
      </trkpt>
      <trkpt lat="43.181444" lon="-5.845002">
        <ele>386.397</ele>
        <time>2021-10-14T11:05:59Z</time>
      </trkpt>
      <trkpt lat="43.181559" lon="-5.845272">
        <ele>388.456</ele>
        <time>2021-10-14T11:06:01Z</time>
      </trkpt>
      <trkpt lat="43.181603" lon="-5.845437">
        <ele>388.693</ele>
        <time>2021-10-14T11:06:02Z</time>
      </trkpt>
      <trkpt lat="43.181667" lon="-5.845761">
        <ele>393.165</ele>
        <time>2021-10-14T11:06:04Z</time>
      </trkpt>
      <trkpt lat="43.181678" lon="-5.845897">
        <ele>395.421</ele>
        <time>2021-10-14T11:06:05Z</time>
      </trkpt>
      <trkpt lat="43.181658" lon="-5.846127">
        <ele>398.208</ele>
        <time>2021-10-14T11:06:07Z</time>
      </trkpt>
      <trkpt lat="43.181654" lon="-5.846239">
        <ele>398.577</ele>
        <time>2021-10-14T11:06:08Z</time>
      </trkpt>
      <trkpt lat="43.181716" lon="-5.846409">
        <ele>402.495</ele>
        <time>2021-10-14T11:06:10Z</time>
      </trkpt>
      <trkpt lat="43.181787" lon="-5.846526">
        <ele>404.373</ele>
        <time>2021-10-14T11:06:12Z</time>
      </trkpt>
      <trkpt lat="43.181928" lon="-5.846550">
        <ele>404.970</ele>
        <time>2021-10-14T11:06:14Z</time>
      </trkpt>
      <trkpt lat="43.182066" lon="-5.846551">
        <ele>408.093</ele>
        <time>2021-10-14T11:06:16Z</time>
      </trkpt>
      <trkpt lat="43.182124" lon="-5.846548">
        <ele>408.850</ele>
        <time>2021-10-14T11:06:17Z</time>
      </trkpt>
      <trkpt lat="43.182181" lon="-5.846496">
        <ele>409.392</ele>
        <time>2021-10-14T11:06:19Z</time>
      </trkpt>
      <trkpt lat="43.182191" lon="-5.846412">
        <ele>409.351</ele>
        <time>2021-10-14T11:06:20Z</time>
      </trkpt>
      <trkpt lat="43.182212" lon="-5.846150">
        <ele>409.039</ele>
        <time>2021-10-14T11:06:22Z</time>
      </trkpt>
      <trkpt lat="43.182256" lon="-5.845996">
        <ele>408.701</ele>
        <time>2021-10-14T11:06:23Z</time>
      </trkpt>
      <trkpt lat="43.182425" lon="-5.845716">
        <ele>408.521</ele>
        <time>2021-10-14T11:06:25Z</time>
      </trkpt>
      <trkpt lat="43.182530" lon="-5.845588">
        <ele>408.308</ele>
        <time>2021-10-14T11:06:26Z</time>
      </trkpt>
      <trkpt lat="43.182737" lon="-5.845388">
        <ele>409.191</ele>
        <time>2021-10-14T11:06:28Z</time>
      </trkpt>
      <trkpt lat="43.182856" lon="-5.845316">
        <ele>409.779</ele>
        <time>2021-10-14T11:06:29Z</time>
      </trkpt>
      <trkpt lat="43.183090" lon="-5.845241">
        <ele>411.617</ele>
        <time>2021-10-14T11:06:31Z</time>
      </trkpt>
      <trkpt lat="43.183200" lon="-5.845254">
        <ele>413.154</ele>
        <time>2021-10-14T11:06:32Z</time>
      </trkpt>
      <trkpt lat="43.183389" lon="-5.845277">
        <ele>417.167</ele>
        <time>2021-10-14T11:06:34Z</time>
      </trkpt>
      <trkpt lat="43.183582" lon="-5.845213">
        <ele>419.624</ele>
        <time>2021-10-14T11:06:36Z</time>
      </trkpt>
      <trkpt lat="43.183795" lon="-5.845099">
        <ele>421.646</ele>
        <time>2021-10-14T11:06:38Z</time>
      </trkpt>
      <trkpt lat="43.183995" lon="-5.844943">
        <ele>427.685</ele>
        <time>2021-10-14T11:06:40Z</time>
      </trkpt>
      <trkpt lat="43.184099" lon="-5.844840">
        <ele>432.549</ele>
        <time>2021-10-14T11:06:41Z</time>
      </trkpt>
      <trkpt lat="43.184317" lon="-5.844623">
        <ele>435.802</ele>
        <time>2021-10-14T11:06:43Z</time>
      </trkpt>
      <trkpt lat="43.184429" lon="-5.844521">
        <ele>438.022</ele>
        <time>2021-10-14T11:06:44Z</time>
      </trkpt>
      <trkpt lat="43.184621" lon="-5.844312">
        <ele>442.008</ele>
        <time>2021-10-14T11:06:46Z</time>
      </trkpt>
      <trkpt lat="43.184783" lon="-5.844069">
        <ele>445.842</ele>
        <time>2021-10-14T11:06:48Z</time>
      </trkpt>
      <trkpt lat="43.184852" lon="-5.843948">
        <ele>447.880</ele>
        <time>2021-10-14T11:06:49Z</time>
      </trkpt>
      <trkpt lat="43.184924" lon="-5.843831">
        <ele>448.138</ele>
        <time>2021-10-14T11:06:50Z</time>
      </trkpt>
      <trkpt lat="43.185067" lon="-5.843641">
        <ele>453.795</ele>
        <time>2021-10-14T11:06:52Z</time>
      </trkpt>
      <trkpt lat="43.185217" lon="-5.843515">
        <ele>455.228</ele>
        <time>2021-10-14T11:06:54Z</time>
      </trkpt>
      <trkpt lat="43.185346" lon="-5.843414">
        <ele>456.975</ele>
        <time>2021-10-14T11:06:56Z</time>
      </trkpt>
      <trkpt lat="43.185415" lon="-5.843251">
        <ele>460.167</ele>
        <time>2021-10-14T11:06:58Z</time>
      </trkpt>
      <trkpt lat="43.185450" lon="-5.843143">
        <ele>461.416</ele>
        <time>2021-10-14T11:06:59Z</time>
      </trkpt>
      <trkpt lat="43.185565" lon="-5.842902">
        <ele>464.869</ele>
        <time>2021-10-14T11:07:01Z</time>
      </trkpt>
      <trkpt lat="43.185636" lon="-5.842774">
        <ele>468.104</ele>
        <time>2021-10-14T11:07:02Z</time>
      </trkpt>
      <trkpt lat="43.185787" lon="-5.842555">
        <ele>471.924</ele>
        <time>2021-10-14T11:07:04Z</time>
      </trkpt>
      <trkpt lat="43.185971" lon="-5.842387">
        <ele>474.008</ele>
        <time>2021-10-14T11:07:06Z</time>
      </trkpt>
      <trkpt lat="43.186200" lon="-5.842280">
        <ele>474.094</ele>
        <time>2021-10-14T11:07:08Z</time>
      </trkpt>
      <trkpt lat="43.186461" lon="-5.842277">
        <ele>476.912</ele>
        <time>2021-10-14T11:07:10Z</time>
      </trkpt>
      <trkpt lat="43.186692" lon="-5.842258">
        <ele>479.140</ele>
        <time>2021-10-14T11:07:12Z</time>
      </trkpt>
      <trkpt lat="43.186796" lon="-5.842262">
        <ele>479.777</ele>
        <time>2021-10-14T11:07:13Z</time>
      </trkpt>
      <trkpt lat="43.186889" lon="-5.842278">
        <ele>479.930</ele>
        <time>2021-10-14T11:07:14Z</time>
      </trkpt>
      <trkpt lat="43.187033" lon="-5.842273">
        <ele>482.667</ele>
        <time>2021-10-14T11:07:16Z</time>
      </trkpt>
      <trkpt lat="43.187181" lon="-5.842196">
        <ele>484.369</ele>
        <time>2021-10-14T11:07:18Z</time>
      </trkpt>
      <trkpt lat="43.187267" lon="-5.842158">
        <ele>485.488</ele>
        <time>2021-10-14T11:07:19Z</time>
      </trkpt>
      <trkpt lat="43.187361" lon="-5.842137">
        <ele>486.781</ele>
        <time>2021-10-14T11:07:20Z</time>
      </trkpt>
      <trkpt lat="43.187552" lon="-5.842167">
        <ele>488.961</ele>
        <time>2021-10-14T11:07:22Z</time>
      </trkpt>
      <trkpt lat="43.187710" lon="-5.842257">
        <ele>492.717</ele>
        <time>2021-10-14T11:07:24Z</time>
      </trkpt>
      <trkpt lat="43.187762" lon="-5.842309">
        <ele>492.808</ele>
        <time>2021-10-14T11:07:25Z</time>
      </trkpt>
      <trkpt lat="43.187796" lon="-5.842369">
        <ele>492.896</ele>
        <time>2021-10-14T11:07:26Z</time>
      </trkpt>
      <trkpt lat="43.187850" lon="-5.842524">
        <ele>493.554</ele>
        <time>2021-10-14T11:07:28Z</time>
      </trkpt>
      <trkpt lat="43.187867" lon="-5.842744">
        <ele>493.542</ele>
        <time>2021-10-14T11:07:30Z</time>
      </trkpt>
      <trkpt lat="43.187833" lon="-5.843030">
        <ele>492.719</ele>
        <time>2021-10-14T11:07:32Z</time>
      </trkpt>
      <trkpt lat="43.187782" lon="-5.843278">
        <ele>492.062</ele>
        <time>2021-10-14T11:07:34Z</time>
      </trkpt>
      <trkpt lat="43.187743" lon="-5.843377">
        <ele>489.679</ele>
        <time>2021-10-14T11:07:35Z</time>
      </trkpt>
      <trkpt lat="43.187704" lon="-5.843456">
        <ele>489.671</ele>
        <time>2021-10-14T11:07:36Z</time>
      </trkpt>
      <trkpt lat="43.187671" lon="-5.843605">
        <ele>489.770</ele>
        <time>2021-10-14T11:07:38Z</time>
      </trkpt>
      <trkpt lat="43.187728" lon="-5.843749">
        <ele>490.062</ele>
        <time>2021-10-14T11:07:40Z</time>
      </trkpt>
      <trkpt lat="43.187853" lon="-5.843850">
        <ele>490.383</ele>
        <time>2021-10-14T11:07:42Z</time>
      </trkpt>
      <trkpt lat="43.187996" lon="-5.843978">
        <ele>491.411</ele>
        <time>2021-10-14T11:07:44Z</time>
      </trkpt>
      <trkpt lat="43.188094" lon="-5.844148">
        <ele>492.108</ele>
        <time>2021-10-14T11:07:46Z</time>
      </trkpt>
      <trkpt lat="43.188138" lon="-5.844238">
        <ele>492.684</ele>
        <time>2021-10-14T11:07:47Z</time>
      </trkpt>
      <trkpt lat="43.188217" lon="-5.844375">
        <ele>493.772</ele>
        <time>2021-10-14T11:07:49Z</time>
      </trkpt>
      <trkpt lat="43.188256" lon="-5.844410">
        <ele>494.550</ele>
        <time>2021-10-14T11:07:50Z</time>
      </trkpt>
      <trkpt lat="43.188367" lon="-5.844415">
        <ele>495.387</ele>
        <time>2021-10-14T11:07:52Z</time>
      </trkpt>
      <trkpt lat="43.188446" lon="-5.844391">
        <ele>495.380</ele>
        <time>2021-10-14T11:07:53Z</time>
      </trkpt>
      <trkpt lat="43.188537" lon="-5.844363">
        <ele>495.947</ele>
        <time>2021-10-14T11:07:54Z</time>
      </trkpt>
      <trkpt lat="43.188637" lon="-5.844338">
        <ele>497.469</ele>
        <time>2021-10-14T11:07:55Z</time>
      </trkpt>
      <trkpt lat="43.188742" lon="-5.844323">
        <ele>498.298</ele>
        <time>2021-10-14T11:07:56Z</time>
      </trkpt>
      <trkpt lat="43.188936" lon="-5.844307">
        <ele>499.743</ele>
        <time>2021-10-14T11:07:58Z</time>
      </trkpt>
      <trkpt lat="43.189138" lon="-5.844334">
        <ele>500.964</ele>
        <time>2021-10-14T11:08:00Z</time>
      </trkpt>
      <trkpt lat="43.189328" lon="-5.844442">
        <ele>503.610</ele>
        <time>2021-10-14T11:08:02Z</time>
      </trkpt>
      <trkpt lat="43.189486" lon="-5.844539">
        <ele>503.708</ele>
        <time>2021-10-14T11:08:04Z</time>
      </trkpt>
      <trkpt lat="43.189572" lon="-5.844551">
        <ele>504.132</ele>
        <time>2021-10-14T11:08:05Z</time>
      </trkpt>
      <trkpt lat="43.189763" lon="-5.844506">
        <ele>504.820</ele>
        <time>2021-10-14T11:08:07Z</time>
      </trkpt>
      <trkpt lat="43.189870" lon="-5.844447">
        <ele>506.518</ele>
        <time>2021-10-14T11:08:08Z</time>
      </trkpt>
      <trkpt lat="43.190087" lon="-5.844292">
        <ele>507.165</ele>
        <time>2021-10-14T11:08:10Z</time>
      </trkpt>
      <trkpt lat="43.190192" lon="-5.844202">
        <ele>508.038</ele>
        <time>2021-10-14T11:08:11Z</time>
      </trkpt>
      <trkpt lat="43.190364" lon="-5.843983">
        <ele>507.085</ele>
        <time>2021-10-14T11:08:13Z</time>
      </trkpt>
      <trkpt lat="43.190454" lon="-5.843876">
        <ele>506.857</ele>
        <time>2021-10-14T11:08:14Z</time>
      </trkpt>
      <trkpt lat="43.190681" lon="-5.843772">
        <ele>505.956</ele>
        <time>2021-10-14T11:08:16Z</time>
      </trkpt>
      <trkpt lat="43.190812" lon="-5.843740">
        <ele>504.158</ele>
        <time>2021-10-14T11:08:17Z</time>
      </trkpt>
      <trkpt lat="43.191064" lon="-5.843640">
        <ele>503.252</ele>
        <time>2021-10-14T11:08:19Z</time>
      </trkpt>
      <trkpt lat="43.191174" lon="-5.843573">
        <ele>503.017</ele>
        <time>2021-10-14T11:08:20Z</time>
      </trkpt>
      <trkpt lat="43.191341" lon="-5.843463">
        <ele>502.708</ele>
        <time>2021-10-14T11:08:22Z</time>
      </trkpt>
      <trkpt lat="43.191494" lon="-5.843467">
        <ele>502.863</ele>
        <time>2021-10-14T11:08:24Z</time>
      </trkpt>
      <trkpt lat="43.191567" lon="-5.843523">
        <ele>503.321</ele>
        <time>2021-10-14T11:08:25Z</time>
      </trkpt>
      <trkpt lat="43.191640" lon="-5.843604">
        <ele>503.729</ele>
        <time>2021-10-14T11:08:26Z</time>
      </trkpt>
      <trkpt lat="43.191794" lon="-5.843855">
        <ele>504.646</ele>
        <time>2021-10-14T11:08:28Z</time>
      </trkpt>
      <trkpt lat="43.191871" lon="-5.844044">
        <ele>505.679</ele>
        <time>2021-10-14T11:08:29Z</time>
      </trkpt>
      <trkpt lat="43.192008" lon="-5.844382">
        <ele>508.746</ele>
        <time>2021-10-14T11:08:31Z</time>
      </trkpt>
      <trkpt lat="43.192080" lon="-5.844538">
        <ele>511.048</ele>
        <time>2021-10-14T11:08:32Z</time>
      </trkpt>
      <trkpt lat="43.192218" lon="-5.844880">
        <ele>513.317</ele>
        <time>2021-10-14T11:08:34Z</time>
      </trkpt>
      <trkpt lat="43.192279" lon="-5.845086">
        <ele>515.666</ele>
        <time>2021-10-14T11:08:35Z</time>
      </trkpt>
      <trkpt lat="43.192360" lon="-5.845503">
        <ele>518.129</ele>
        <time>2021-10-14T11:08:37Z</time>
      </trkpt>
      <trkpt lat="43.192380" lon="-5.845701">
        <ele>520.121</ele>
        <time>2021-10-14T11:08:38Z</time>
      </trkpt>
      <trkpt lat="43.192399" lon="-5.845960">
        <ele>523.208</ele>
        <time>2021-10-14T11:08:40Z</time>
      </trkpt>
      <trkpt lat="43.192419" lon="-5.846057">
        <ele>523.794</ele>
        <time>2021-10-14T11:08:41Z</time>
      </trkpt>
      <trkpt lat="43.192505" lon="-5.846175">
        <ele>529.382</ele>
        <time>2021-10-14T11:08:43Z</time>
      </trkpt>
      <trkpt lat="43.192579" lon="-5.846208">
        <ele>533.270</ele>
        <time>2021-10-14T11:08:44Z</time>
      </trkpt>
      <trkpt lat="43.192771" lon="-5.846243">
        <ele>535.297</ele>
        <time>2021-10-14T11:08:46Z</time>
      </trkpt>
      <trkpt lat="43.192879" lon="-5.846257">
        <ele>537.510</ele>
        <time>2021-10-14T11:08:47Z</time>
      </trkpt>
      <trkpt lat="43.192983" lon="-5.846274">
        <ele>538.517</ele>
        <time>2021-10-14T11:08:48Z</time>
      </trkpt>
      <trkpt lat="43.193152" lon="-5.846394">
        <ele>542.329</ele>
        <time>2021-10-14T11:08:50Z</time>
      </trkpt>
      <trkpt lat="43.193259" lon="-5.846555">
        <ele>545.078</ele>
        <time>2021-10-14T11:08:52Z</time>
      </trkpt>
      <trkpt lat="43.193294" lon="-5.846615">
        <ele>545.782</ele>
        <time>2021-10-14T11:08:53Z</time>
      </trkpt>
      <trkpt lat="43.193376" lon="-5.846671">
        <ele>547.043</ele>
        <time>2021-10-14T11:08:55Z</time>
      </trkpt>
      <trkpt lat="43.193444" lon="-5.846646">
        <ele>548.717</ele>
        <time>2021-10-14T11:08:57Z</time>
      </trkpt>
      <trkpt lat="43.193459" lon="-5.846504">
        <ele>549.808</ele>
        <time>2021-10-14T11:08:59Z</time>
      </trkpt>
      <trkpt lat="43.193427" lon="-5.846368">
        <ele>550.336</ele>
        <time>2021-10-14T11:09:00Z</time>
      </trkpt>
      <trkpt lat="43.193364" lon="-5.846222">
        <ele>552.644</ele>
        <time>2021-10-14T11:09:01Z</time>
      </trkpt>
      <trkpt lat="43.193202" lon="-5.846003">
        <ele>555.822</ele>
        <time>2021-10-14T11:09:03Z</time>
      </trkpt>
      <trkpt lat="43.193107" lon="-5.845929">
        <ele>557.449</ele>
        <time>2021-10-14T11:09:04Z</time>
      </trkpt>
      <trkpt lat="43.193013" lon="-5.845866">
        <ele>558.162</ele>
        <time>2021-10-14T11:09:05Z</time>
      </trkpt>
      <trkpt lat="43.192867" lon="-5.845746">
        <ele>558.369</ele>
        <time>2021-10-14T11:09:07Z</time>
      </trkpt>
      <trkpt lat="43.192823" lon="-5.845673">
        <ele>560.261</ele>
        <time>2021-10-14T11:09:08Z</time>
      </trkpt>
      <trkpt lat="43.192801" lon="-5.845454">
        <ele>561.450</ele>
        <time>2021-10-14T11:09:10Z</time>
      </trkpt>
      <trkpt lat="43.192813" lon="-5.845325">
        <ele>561.786</ele>
        <time>2021-10-14T11:09:11Z</time>
      </trkpt>
      <trkpt lat="43.192840" lon="-5.845199">
        <ele>562.360</ele>
        <time>2021-10-14T11:09:12Z</time>
      </trkpt>
      <trkpt lat="43.192911" lon="-5.845012">
        <ele>564.426</ele>
        <time>2021-10-14T11:09:14Z</time>
      </trkpt>
      <trkpt lat="43.192987" lon="-5.844894">
        <ele>566.008</ele>
        <time>2021-10-14T11:09:16Z</time>
      </trkpt>
      <trkpt lat="43.193094" lon="-5.844873">
        <ele>567.576</ele>
        <time>2021-10-14T11:09:18Z</time>
      </trkpt>
      <trkpt lat="43.193155" lon="-5.844989">
        <ele>570.334</ele>
        <time>2021-10-14T11:09:20Z</time>
      </trkpt>
      <trkpt lat="43.193129" lon="-5.845171">
        <ele>573.152</ele>
        <time>2021-10-14T11:09:22Z</time>
      </trkpt>
      <trkpt lat="43.193108" lon="-5.845263">
        <ele>573.769</ele>
        <time>2021-10-14T11:09:23Z</time>
      </trkpt>
      <trkpt lat="43.193108" lon="-5.845339">
        <ele>573.912</ele>
        <time>2021-10-14T11:09:24Z</time>
      </trkpt>
      <trkpt lat="43.193181" lon="-5.845439">
        <ele>576.269</ele>
        <time>2021-10-14T11:09:26Z</time>
      </trkpt>
      <trkpt lat="43.193328" lon="-5.845494">
        <ele>578.981</ele>
        <time>2021-10-14T11:09:28Z</time>
      </trkpt>
      <trkpt lat="43.193555" lon="-5.845579">
        <ele>582.210</ele>
        <time>2021-10-14T11:09:30Z</time>
      </trkpt>
      <trkpt lat="43.193680" lon="-5.845633">
        <ele>584.246</ele>
        <time>2021-10-14T11:09:31Z</time>
      </trkpt>
      <trkpt lat="43.193797" lon="-5.845686">
        <ele>585.088</ele>
        <time>2021-10-14T11:09:32Z</time>
      </trkpt>
      <trkpt lat="43.193988" lon="-5.845784">
        <ele>588.216</ele>
        <time>2021-10-14T11:09:34Z</time>
      </trkpt>
      <trkpt lat="43.194079" lon="-5.845841">
        <ele>589.408</ele>
        <time>2021-10-14T11:09:35Z</time>
      </trkpt>
      <trkpt lat="43.194205" lon="-5.845940">
        <ele>589.842</ele>
        <time>2021-10-14T11:09:37Z</time>
      </trkpt>
      <trkpt lat="43.194268" lon="-5.845921">
        <ele>589.790</ele>
        <time>2021-10-14T11:09:39Z</time>
      </trkpt>
      <trkpt lat="43.194275" lon="-5.845804">
        <ele>589.778</ele>
        <time>2021-10-14T11:09:41Z</time>
      </trkpt>
      <trkpt lat="43.194217" lon="-5.845631">
        <ele>590.135</ele>
        <time>2021-10-14T11:09:43Z</time>
      </trkpt>
      <trkpt lat="43.194144" lon="-5.845543">
        <ele>591.098</ele>
        <time>2021-10-14T11:09:44Z</time>
      </trkpt>
      <trkpt lat="43.193982" lon="-5.845379">
        <ele>594.635</ele>
        <time>2021-10-14T11:09:46Z</time>
      </trkpt>
      <trkpt lat="43.193906" lon="-5.845301">
        <ele>596.077</ele>
        <time>2021-10-14T11:09:47Z</time>
      </trkpt>
      <trkpt lat="43.193790" lon="-5.845147">
        <ele>598.786</ele>
        <time>2021-10-14T11:09:49Z</time>
      </trkpt>
      <trkpt lat="43.193766" lon="-5.845072">
        <ele>598.944</ele>
        <time>2021-10-14T11:09:50Z</time>
      </trkpt>
      <trkpt lat="43.193774" lon="-5.844939">
        <ele>600.905</ele>
        <time>2021-10-14T11:09:52Z</time>
      </trkpt>
      <trkpt lat="43.193877" lon="-5.844874">
        <ele>601.915</ele>
        <time>2021-10-14T11:09:54Z</time>
      </trkpt>
      <trkpt lat="43.194038" lon="-5.844955">
        <ele>603.508</ele>
        <time>2021-10-14T11:09:56Z</time>
      </trkpt>
      <trkpt lat="43.194209" lon="-5.845106">
        <ele>605.272</ele>
        <time>2021-10-14T11:09:58Z</time>
      </trkpt>
      <trkpt lat="43.194306" lon="-5.845183">
        <ele>605.960</ele>
        <time>2021-10-14T11:09:59Z</time>
      </trkpt>
      <trkpt lat="43.194405" lon="-5.845256">
        <ele>606.558</ele>
        <time>2021-10-14T11:10:00Z</time>
      </trkpt>
      <trkpt lat="43.194501" lon="-5.845333">
        <ele>608.255</ele>
        <time>2021-10-14T11:10:01Z</time>
      </trkpt>
      <trkpt lat="43.194587" lon="-5.845411">
        <ele>609.348</ele>
        <time>2021-10-14T11:10:02Z</time>
      </trkpt>
      <trkpt lat="43.194714" lon="-5.845548">
        <ele>613.565</ele>
        <time>2021-10-14T11:10:04Z</time>
      </trkpt>
      <trkpt lat="43.194799" lon="-5.845741">
        <ele>615.677</ele>
        <time>2021-10-14T11:10:06Z</time>
      </trkpt>
      <trkpt lat="43.194891" lon="-5.845983">
        <ele>618.676</ele>
        <time>2021-10-14T11:10:08Z</time>
      </trkpt>
      <trkpt lat="43.195025" lon="-5.846184">
        <ele>620.848</ele>
        <time>2021-10-14T11:10:10Z</time>
      </trkpt>
      <trkpt lat="43.195108" lon="-5.846263">
        <ele>621.961</ele>
        <time>2021-10-14T11:10:11Z</time>
      </trkpt>
      <trkpt lat="43.195190" lon="-5.846321">
        <ele>621.917</ele>
        <time>2021-10-14T11:10:12Z</time>
      </trkpt>
      <trkpt lat="43.195333" lon="-5.846363">
        <ele>624.808</ele>
        <time>2021-10-14T11:10:14Z</time>
      </trkpt>
      <trkpt lat="43.195460" lon="-5.846294">
        <ele>625.792</ele>
        <time>2021-10-14T11:10:16Z</time>
      </trkpt>
      <trkpt lat="43.195572" lon="-5.846187">
        <ele>628.310</ele>
        <time>2021-10-14T11:10:18Z</time>
      </trkpt>
      <trkpt lat="43.195707" lon="-5.846168">
        <ele>630.338</ele>
        <time>2021-10-14T11:10:20Z</time>
      </trkpt>
      <trkpt lat="43.195837" lon="-5.846273">
        <ele>633.665</ele>
        <time>2021-10-14T11:10:22Z</time>
      </trkpt>
      <trkpt lat="43.195973" lon="-5.846496">
        <ele>636.418</ele>
        <time>2021-10-14T11:10:24Z</time>
      </trkpt>
      <trkpt lat="43.196037" lon="-5.846647">
        <ele>638.555</ele>
        <time>2021-10-14T11:10:25Z</time>
      </trkpt>
      <trkpt lat="43.196093" lon="-5.846807">
        <ele>641.997</ele>
        <time>2021-10-14T11:10:26Z</time>
      </trkpt>
      <trkpt lat="43.196165" lon="-5.847135">
        <ele>644.876</ele>
        <time>2021-10-14T11:10:28Z</time>
      </trkpt>
      <trkpt lat="43.196185" lon="-5.847293">
        <ele>645.418</ele>
        <time>2021-10-14T11:10:29Z</time>
      </trkpt>
      <trkpt lat="43.196207" lon="-5.847428">
        <ele>646.898</ele>
        <time>2021-10-14T11:10:30Z</time>
      </trkpt>
      <trkpt lat="43.196225" lon="-5.847535">
        <ele>648.817</ele>
        <time>2021-10-14T11:10:31Z</time>
      </trkpt>
      <trkpt lat="43.196231" lon="-5.847624">
        <ele>649.608</ele>
        <time>2021-10-14T11:10:32Z</time>
      </trkpt>
      <trkpt lat="43.196249" lon="-5.847771">
        <ele>652.049</ele>
        <time>2021-10-14T11:10:34Z</time>
      </trkpt>
      <trkpt lat="43.196354" lon="-5.847849">
        <ele>653.787</ele>
        <time>2021-10-14T11:10:36Z</time>
      </trkpt>
      <trkpt lat="43.196541" lon="-5.847888">
        <ele>656.085</ele>
        <time>2021-10-14T11:10:38Z</time>
      </trkpt>
      <trkpt lat="43.196762" lon="-5.847946">
        <ele>661.612</ele>
        <time>2021-10-14T11:10:40Z</time>
      </trkpt>
      <trkpt lat="43.196859" lon="-5.847977">
        <ele>661.845</ele>
        <time>2021-10-14T11:10:41Z</time>
      </trkpt>
      <trkpt lat="43.197012" lon="-5.848038">
        <ele>664.522</ele>
        <time>2021-10-14T11:10:43Z</time>
      </trkpt>
      <trkpt lat="43.197076" lon="-5.848101">
        <ele>665.264</ele>
        <time>2021-10-14T11:10:44Z</time>
      </trkpt>
      <trkpt lat="43.197146" lon="-5.848304">
        <ele>668.163</ele>
        <time>2021-10-14T11:10:46Z</time>
      </trkpt>
      <trkpt lat="43.197164" lon="-5.848440">
        <ele>669.436</ele>
        <time>2021-10-14T11:10:47Z</time>
      </trkpt>
      <trkpt lat="43.197182" lon="-5.848714">
        <ele>672.717</ele>
        <time>2021-10-14T11:10:49Z</time>
      </trkpt>
      <trkpt lat="43.197186" lon="-5.848825">
        <ele>673.618</ele>
        <time>2021-10-14T11:10:50Z</time>
      </trkpt>
      <trkpt lat="43.197247" lon="-5.848958">
        <ele>673.808</ele>
        <time>2021-10-14T11:10:52Z</time>
      </trkpt>
      <trkpt lat="43.197315" lon="-5.849002">
        <ele>673.981</ele>
        <time>2021-10-14T11:10:53Z</time>
      </trkpt>
      <trkpt lat="43.197501" lon="-5.849074">
        <ele>676.459</ele>
        <time>2021-10-14T11:10:55Z</time>
      </trkpt>
      <trkpt lat="43.197596" lon="-5.849127">
        <ele>677.387</ele>
        <time>2021-10-14T11:10:56Z</time>
      </trkpt>
      <trkpt lat="43.197715" lon="-5.849285">
        <ele>680.044</ele>
        <time>2021-10-14T11:10:58Z</time>
      </trkpt>
      <trkpt lat="43.197737" lon="-5.849393">
        <ele>681.337</ele>
        <time>2021-10-14T11:10:59Z</time>
      </trkpt>
      <trkpt lat="43.197774" lon="-5.849635">
        <ele>681.924</ele>
        <time>2021-10-14T11:11:01Z</time>
      </trkpt>
      <trkpt lat="43.197811" lon="-5.849759">
        <ele>682.926</ele>
        <time>2021-10-14T11:11:02Z</time>
      </trkpt>
      <trkpt lat="43.197848" lon="-5.849895">
        <ele>684.475</ele>
        <time>2021-10-14T11:11:03Z</time>
      </trkpt>
      <trkpt lat="43.197887" lon="-5.850229">
        <ele>688.894</ele>
        <time>2021-10-14T11:11:05Z</time>
      </trkpt>
      <trkpt lat="43.197893" lon="-5.850393">
        <ele>689.757</ele>
        <time>2021-10-14T11:11:06Z</time>
      </trkpt>
      <trkpt lat="43.197889" lon="-5.850643">
        <ele>692.322</ele>
        <time>2021-10-14T11:11:08Z</time>
      </trkpt>
      <trkpt lat="43.197855" lon="-5.850826">
        <ele>695.108</ele>
        <time>2021-10-14T11:11:10Z</time>
      </trkpt>
      <trkpt lat="43.197837" lon="-5.850917">
        <ele>696.517</ele>
        <time>2021-10-14T11:11:11Z</time>
      </trkpt>
      <trkpt lat="43.197842" lon="-5.850996">
        <ele>696.995</ele>
        <time>2021-10-14T11:11:12Z</time>
      </trkpt>
      <trkpt lat="43.197873" lon="-5.851060">
        <ele>697.363</ele>
        <time>2021-10-14T11:11:13Z</time>
      </trkpt>
      <trkpt lat="43.197929" lon="-5.851104">
        <ele>698.460</ele>
        <time>2021-10-14T11:11:14Z</time>
      </trkpt>
      <trkpt lat="43.198110" lon="-5.851116">
        <ele>700.563</ele>
        <time>2021-10-14T11:11:16Z</time>
      </trkpt>
      <trkpt lat="43.198229" lon="-5.851097">
        <ele>702.390</ele>
        <time>2021-10-14T11:11:17Z</time>
      </trkpt>
      <trkpt lat="43.198446" lon="-5.851050">
        <ele>704.712</ele>
        <time>2021-10-14T11:11:19Z</time>
      </trkpt>
      <trkpt lat="43.198534" lon="-5.851044">
        <ele>705.071</ele>
        <time>2021-10-14T11:11:20Z</time>
      </trkpt>
      <trkpt lat="43.198670" lon="-5.851098">
        <ele>705.719</ele>
        <time>2021-10-14T11:11:22Z</time>
      </trkpt>
      <trkpt lat="43.198720" lon="-5.851149">
        <ele>706.409</ele>
        <time>2021-10-14T11:11:23Z</time>
      </trkpt>
      <trkpt lat="43.198754" lon="-5.851197">
        <ele>707.219</ele>
        <time>2021-10-14T11:11:24Z</time>
      </trkpt>
      <trkpt lat="43.198784" lon="-5.851268">
        <ele>708.008</ele>
        <time>2021-10-14T11:11:26Z</time>
      </trkpt>
      <trkpt lat="43.198796" lon="-5.851374">
        <ele>707.789</ele>
        <time>2021-10-14T11:11:35Z</time>
      </trkpt>
      <trkpt lat="43.198803" lon="-5.851468">
        <ele>707.767</ele>
        <time>2021-10-14T11:11:37Z</time>
      </trkpt>
      <trkpt lat="43.198809" lon="-5.851555">
        <ele>707.675</ele>
        <time>2021-10-14T11:11:39Z</time>
      </trkpt>
      <trkpt lat="43.198813" lon="-5.851624">
        <ele>707.242</ele>
        <time>2021-10-14T11:11:41Z</time>
      </trkpt>
      <trkpt lat="43.198821" lon="-5.851703">
        <ele>706.785</ele>
        <time>2021-10-14T11:11:44Z</time>
      </trkpt>
      <trkpt lat="43.198836" lon="-5.851869">
        <ele>704.962</ele>
        <time>2021-10-14T11:12:14Z</time>
      </trkpt>
      <trkpt lat="43.198857" lon="-5.852063">
        <ele>704.874</ele>
        <time>2021-10-14T11:12:16Z</time>
      </trkpt>
      <trkpt lat="43.198875" lon="-5.852328">
        <ele>703.263</ele>
        <time>2021-10-14T11:12:18Z</time>
      </trkpt>
      <trkpt lat="43.198869" lon="-5.852466">
        <ele>702.814</ele>
        <time>2021-10-14T11:12:19Z</time>
      </trkpt>
      <trkpt lat="43.198852" lon="-5.852611">
        <ele>701.854</ele>
        <time>2021-10-14T11:12:20Z</time>
      </trkpt>
      <trkpt lat="43.198817" lon="-5.852910">
        <ele>701.009</ele>
        <time>2021-10-14T11:12:22Z</time>
      </trkpt>
      <trkpt lat="43.198820" lon="-5.853074">
        <ele>699.308</ele>
        <time>2021-10-14T11:12:23Z</time>
      </trkpt>
      <trkpt lat="43.198841" lon="-5.853239">
        <ele>698.689</ele>
        <time>2021-10-14T11:12:24Z</time>
      </trkpt>
      <trkpt lat="43.198922" lon="-5.853564">
        <ele>697.497</ele>
        <time>2021-10-14T11:12:26Z</time>
      </trkpt>
      <trkpt lat="43.199054" lon="-5.853847">
        <ele>697.015</ele>
        <time>2021-10-14T11:12:28Z</time>
      </trkpt>
      <trkpt lat="43.199137" lon="-5.853981">
        <ele>696.362</ele>
        <time>2021-10-14T11:12:29Z</time>
      </trkpt>
      <trkpt lat="43.199220" lon="-5.854113">
        <ele>695.495</ele>
        <time>2021-10-14T11:12:30Z</time>
      </trkpt>
      <trkpt lat="43.199295" lon="-5.854236">
        <ele>695.162</ele>
        <time>2021-10-14T11:12:31Z</time>
      </trkpt>
      <trkpt lat="43.199365" lon="-5.854343">
        <ele>694.234</ele>
        <time>2021-10-14T11:12:32Z</time>
      </trkpt>
      <trkpt lat="43.199463" lon="-5.854557">
        <ele>693.413</ele>
        <time>2021-10-14T11:12:34Z</time>
      </trkpt>
      <trkpt lat="43.199477" lon="-5.854691">
        <ele>692.848</ele>
        <time>2021-10-14T11:12:35Z</time>
      </trkpt>
      <trkpt lat="43.199465" lon="-5.854826">
        <ele>690.761</ele>
        <time>2021-10-14T11:12:36Z</time>
      </trkpt>
      <trkpt lat="43.199382" lon="-5.855087">
        <ele>690.217</ele>
        <time>2021-10-14T11:12:38Z</time>
      </trkpt>
      <trkpt lat="43.199337" lon="-5.855389">
        <ele>688.208</ele>
        <time>2021-10-14T11:12:40Z</time>
      </trkpt>
      <trkpt lat="43.199345" lon="-5.855718">
        <ele>686.452</ele>
        <time>2021-10-14T11:12:42Z</time>
      </trkpt>
      <trkpt lat="43.199379" lon="-5.855970">
        <ele>683.840</ele>
        <time>2021-10-14T11:12:44Z</time>
      </trkpt>
      <trkpt lat="43.199479" lon="-5.856136">
        <ele>682.818</ele>
        <time>2021-10-14T11:12:46Z</time>
      </trkpt>
      <trkpt lat="43.199621" lon="-5.856261">
        <ele>681.535</ele>
        <time>2021-10-14T11:12:48Z</time>
      </trkpt>
      <trkpt lat="43.199689" lon="-5.856347">
        <ele>680.878</ele>
        <time>2021-10-14T11:12:49Z</time>
      </trkpt>
      <trkpt lat="43.199752" lon="-5.856458">
        <ele>680.625</ele>
        <time>2021-10-14T11:12:50Z</time>
      </trkpt>
      <trkpt lat="43.199903" lon="-5.856673">
        <ele>677.537</ele>
        <time>2021-10-14T11:12:52Z</time>
      </trkpt>
      <trkpt lat="43.200110" lon="-5.856808">
        <ele>675.866</ele>
        <time>2021-10-14T11:12:54Z</time>
      </trkpt>
      <trkpt lat="43.200319" lon="-5.856905">
        <ele>675.367</ele>
        <time>2021-10-14T11:12:56Z</time>
      </trkpt>
      <trkpt lat="43.200500" lon="-5.857037">
        <ele>672.681</ele>
        <time>2021-10-14T11:12:58Z</time>
      </trkpt>
      <trkpt lat="43.200566" lon="-5.857110">
        <ele>672.419</ele>
        <time>2021-10-14T11:12:59Z</time>
      </trkpt>
      <trkpt lat="43.200665" lon="-5.857277">
        <ele>671.608</ele>
        <time>2021-10-14T11:13:01Z</time>
      </trkpt>
      <trkpt lat="43.200694" lon="-5.857378">
        <ele>671.194</ele>
        <time>2021-10-14T11:13:02Z</time>
      </trkpt>
      <trkpt lat="43.200702" lon="-5.857493">
        <ele>670.992</ele>
        <time>2021-10-14T11:13:03Z</time>
      </trkpt>
      <trkpt lat="43.200688" lon="-5.857734">
        <ele>669.190</ele>
        <time>2021-10-14T11:13:05Z</time>
      </trkpt>
      <trkpt lat="43.200687" lon="-5.857853">
        <ele>668.437</ele>
        <time>2021-10-14T11:13:06Z</time>
      </trkpt>
      <trkpt lat="43.200687" lon="-5.857970">
        <ele>667.450</ele>
        <time>2021-10-14T11:13:07Z</time>
      </trkpt>
      <trkpt lat="43.200686" lon="-5.858091">
        <ele>666.397</ele>
        <time>2021-10-14T11:13:08Z</time>
      </trkpt>
      <trkpt lat="43.200695" lon="-5.858322">
        <ele>664.649</ele>
        <time>2021-10-14T11:13:10Z</time>
      </trkpt>
      <trkpt lat="43.200739" lon="-5.858537">
        <ele>663.378</ele>
        <time>2021-10-14T11:13:12Z</time>
      </trkpt>
      <trkpt lat="43.200785" lon="-5.858620">
        <ele>663.369</ele>
        <time>2021-10-14T11:13:13Z</time>
      </trkpt>
      <trkpt lat="43.200850" lon="-5.858678">
        <ele>663.204</ele>
        <time>2021-10-14T11:13:14Z</time>
      </trkpt>
      <trkpt lat="43.201012" lon="-5.858733">
        <ele>662.224</ele>
        <time>2021-10-14T11:13:16Z</time>
      </trkpt>
      <trkpt lat="43.201189" lon="-5.858715">
        <ele>660.408</ele>
        <time>2021-10-14T11:13:18Z</time>
      </trkpt>
      <trkpt lat="43.201269" lon="-5.858669">
        <ele>658.834</ele>
        <time>2021-10-14T11:13:19Z</time>
      </trkpt>
      <trkpt lat="43.201342" lon="-5.858603">
        <ele>657.732</ele>
        <time>2021-10-14T11:13:20Z</time>
      </trkpt>
      <trkpt lat="43.201455" lon="-5.858440">
        <ele>657.290</ele>
        <time>2021-10-14T11:13:22Z</time>
      </trkpt>
      <trkpt lat="43.201528" lon="-5.858364">
        <ele>656.077</ele>
        <time>2021-10-14T11:13:23Z</time>
      </trkpt>
      <trkpt lat="43.201723" lon="-5.858272">
        <ele>654.890</ele>
        <time>2021-10-14T11:13:25Z</time>
      </trkpt>
      <trkpt lat="43.201837" lon="-5.858233">
        <ele>653.277</ele>
        <time>2021-10-14T11:13:26Z</time>
      </trkpt>
      <trkpt lat="43.202034" lon="-5.858097">
        <ele>652.999</ele>
        <time>2021-10-14T11:13:28Z</time>
      </trkpt>
      <trkpt lat="43.202116" lon="-5.857999">
        <ele>651.548</ele>
        <time>2021-10-14T11:13:29Z</time>
      </trkpt>
      <trkpt lat="43.202199" lon="-5.857912">
        <ele>651.548</ele>
        <time>2021-10-14T11:13:30Z</time>
      </trkpt>
      <trkpt lat="43.202386" lon="-5.857815">
        <ele>649.961</ele>
        <time>2021-10-14T11:13:32Z</time>
      </trkpt>
      <trkpt lat="43.202486" lon="-5.857790">
        <ele>649.317</ele>
        <time>2021-10-14T11:13:33Z</time>
      </trkpt>
      <trkpt lat="43.202585" lon="-5.857757">
        <ele>648.308</ele>
        <time>2021-10-14T11:13:34Z</time>
      </trkpt>
      <trkpt lat="43.202785" lon="-5.857684">
        <ele>647.412</ele>
        <time>2021-10-14T11:13:36Z</time>
      </trkpt>
      <trkpt lat="43.202966" lon="-5.857681">
        <ele>646.480</ele>
        <time>2021-10-14T11:13:38Z</time>
      </trkpt>
      <trkpt lat="43.203108" lon="-5.857802">
        <ele>646.248</ele>
        <time>2021-10-14T11:13:40Z</time>
      </trkpt>
      <trkpt lat="43.203202" lon="-5.857998">
        <ele>645.395</ele>
        <time>2021-10-14T11:13:42Z</time>
      </trkpt>
      <trkpt lat="43.203219" lon="-5.858254">
        <ele>644.618</ele>
        <time>2021-10-14T11:13:44Z</time>
      </trkpt>
      <trkpt lat="43.203206" lon="-5.858526">
        <ele>643.815</ele>
        <time>2021-10-14T11:13:46Z</time>
      </trkpt>
      <trkpt lat="43.203265" lon="-5.858772">
        <ele>643.177</ele>
        <time>2021-10-14T11:13:48Z</time>
      </trkpt>
      <trkpt lat="43.203317" lon="-5.858878">
        <ele>643.086</ele>
        <time>2021-10-14T11:13:49Z</time>
      </trkpt>
      <trkpt lat="43.203378" lon="-5.858982">
        <ele>641.948</ele>
        <time>2021-10-14T11:13:50Z</time>
      </trkpt>
      <trkpt lat="43.203498" lon="-5.859231">
        <ele>640.161</ele>
        <time>2021-10-14T11:13:52Z</time>
      </trkpt>
      <trkpt lat="43.203627" lon="-5.859494">
        <ele>638.317</ele>
        <time>2021-10-14T11:13:54Z</time>
      </trkpt>
      <trkpt lat="43.203789" lon="-5.859698">
        <ele>635.908</ele>
        <time>2021-10-14T11:13:56Z</time>
      </trkpt>
      <trkpt lat="43.203979" lon="-5.859857">
        <ele>635.542</ele>
        <time>2021-10-14T11:13:58Z</time>
      </trkpt>
      <trkpt lat="43.204082" lon="-5.859921">
        <ele>635.270</ele>
        <time>2021-10-14T11:13:59Z</time>
      </trkpt>
      <trkpt lat="43.204290" lon="-5.860008">
        <ele>634.518</ele>
        <time>2021-10-14T11:14:01Z</time>
      </trkpt>
      <trkpt lat="43.204505" lon="-5.860021">
        <ele>633.965</ele>
        <time>2021-10-14T11:14:03Z</time>
      </trkpt>
      <trkpt lat="43.204737" lon="-5.860072">
        <ele>632.288</ele>
        <time>2021-10-14T11:14:05Z</time>
      </trkpt>
      <trkpt lat="43.204927" lon="-5.860250">
        <ele>630.175</ele>
        <time>2021-10-14T11:14:07Z</time>
      </trkpt>
      <trkpt lat="43.204994" lon="-5.860352">
        <ele>629.997</ele>
        <time>2021-10-14T11:14:08Z</time>
      </trkpt>
      <trkpt lat="43.205058" lon="-5.860561">
        <ele>628.176</ele>
        <time>2021-10-14T11:14:10Z</time>
      </trkpt>
      <trkpt lat="43.205077" lon="-5.860665">
        <ele>627.856</ele>
        <time>2021-10-14T11:14:11Z</time>
      </trkpt>
      <trkpt lat="43.205178" lon="-5.860803">
        <ele>626.059</ele>
        <time>2021-10-14T11:14:13Z</time>
      </trkpt>
      <trkpt lat="43.205253" lon="-5.860831">
        <ele>625.614</ele>
        <time>2021-10-14T11:14:14Z</time>
      </trkpt>
      <trkpt lat="43.205421" lon="-5.860820">
        <ele>625.008</ele>
        <time>2021-10-14T11:14:16Z</time>
      </trkpt>
      <trkpt lat="43.205519" lon="-5.860792">
        <ele>624.653</ele>
        <time>2021-10-14T11:14:17Z</time>
      </trkpt>
      <trkpt lat="43.205722" lon="-5.860799">
        <ele>623.321</ele>
        <time>2021-10-14T11:14:19Z</time>
      </trkpt>
      <trkpt lat="43.205819" lon="-5.860836">
        <ele>623.399</ele>
        <time>2021-10-14T11:14:20Z</time>
      </trkpt>
      <trkpt lat="43.206006" lon="-5.860847">
        <ele>621.196</ele>
        <time>2021-10-14T11:14:22Z</time>
      </trkpt>
      <trkpt lat="43.206192" lon="-5.860759">
        <ele>620.719</ele>
        <time>2021-10-14T11:14:24Z</time>
      </trkpt>
      <trkpt lat="43.206380" lon="-5.860656">
        <ele>619.036</ele>
        <time>2021-10-14T11:14:26Z</time>
      </trkpt>
      <trkpt lat="43.206609" lon="-5.860635">
        <ele>618.278</ele>
        <time>2021-10-14T11:14:28Z</time>
      </trkpt>
      <trkpt lat="43.206720" lon="-5.860662">
        <ele>617.067</ele>
        <time>2021-10-14T11:14:29Z</time>
      </trkpt>
      <trkpt lat="43.206906" lon="-5.860794">
        <ele>614.518</ele>
        <time>2021-10-14T11:14:31Z</time>
      </trkpt>
      <trkpt lat="43.207027" lon="-5.860977">
        <ele>614.498</ele>
        <time>2021-10-14T11:14:33Z</time>
      </trkpt>
      <trkpt lat="43.207090" lon="-5.861245">
        <ele>614.117</ele>
        <time>2021-10-14T11:14:35Z</time>
      </trkpt>
      <trkpt lat="43.207107" lon="-5.861409">
        <ele>613.408</ele>
        <time>2021-10-14T11:14:36Z</time>
      </trkpt>
      <trkpt lat="43.207170" lon="-5.861758">
        <ele>613.329</ele>
        <time>2021-10-14T11:14:38Z</time>
      </trkpt>
      <trkpt lat="43.207260" lon="-5.862069">
        <ele>612.317</ele>
        <time>2021-10-14T11:14:40Z</time>
      </trkpt>
      <trkpt lat="43.207348" lon="-5.862352">
        <ele>613.575</ele>
        <time>2021-10-14T11:14:42Z</time>
      </trkpt>
      <trkpt lat="43.207389" lon="-5.862487">
        <ele>612.922</ele>
        <time>2021-10-14T11:14:43Z</time>
      </trkpt>
      <trkpt lat="43.207432" lon="-5.862626">
        <ele>612.665</ele>
        <time>2021-10-14T11:14:44Z</time>
      </trkpt>
      <trkpt lat="43.207519" lon="-5.862895">
        <ele>612.742</ele>
        <time>2021-10-14T11:14:46Z</time>
      </trkpt>
      <trkpt lat="43.207556" lon="-5.863023">
        <ele>612.844</ele>
        <time>2021-10-14T11:14:47Z</time>
      </trkpt>
      <trkpt lat="43.207576" lon="-5.863141">
        <ele>613.063</ele>
        <time>2021-10-14T11:14:48Z</time>
      </trkpt>
      <trkpt lat="43.207559" lon="-5.863357">
        <ele>613.292</ele>
        <time>2021-10-14T11:14:50Z</time>
      </trkpt>
      <trkpt lat="43.207459" lon="-5.863555">
        <ele>613.873</ele>
        <time>2021-10-14T11:14:52Z</time>
      </trkpt>
      <trkpt lat="43.207332" lon="-5.863709">
        <ele>613.720</ele>
        <time>2021-10-14T11:14:54Z</time>
      </trkpt>
      <trkpt lat="43.207197" lon="-5.863742">
        <ele>612.808</ele>
        <time>2021-10-14T11:14:56Z</time>
      </trkpt>
      <trkpt lat="43.207037" lon="-5.863688">
        <ele>612.047</ele>
        <time>2021-10-14T11:14:58Z</time>
      </trkpt>
      <trkpt lat="43.206838" lon="-5.863601">
        <ele>611.365</ele>
        <time>2021-10-14T11:15:00Z</time>
      </trkpt>
      <trkpt lat="43.206727" lon="-5.863543">
        <ele>611.293</ele>
        <time>2021-10-14T11:15:01Z</time>
      </trkpt>
      <trkpt lat="43.206615" lon="-5.863467">
        <ele>610.220</ele>
        <time>2021-10-14T11:15:02Z</time>
      </trkpt>
      <trkpt lat="43.206408" lon="-5.863302">
        <ele>609.353</ele>
        <time>2021-10-14T11:15:04Z</time>
      </trkpt>
      <trkpt lat="43.206309" lon="-5.863225">
        <ele>609.340</ele>
        <time>2021-10-14T11:15:05Z</time>
      </trkpt>
      <trkpt lat="43.206215" lon="-5.863156">
        <ele>609.222</ele>
        <time>2021-10-14T11:15:06Z</time>
      </trkpt>
      <trkpt lat="43.206029" lon="-5.863062">
        <ele>607.881</ele>
        <time>2021-10-14T11:15:08Z</time>
      </trkpt>
      <trkpt lat="43.205839" lon="-5.863067">
        <ele>607.846</ele>
        <time>2021-10-14T11:15:10Z</time>
      </trkpt>
      <trkpt lat="43.205642" lon="-5.863120">
        <ele>607.588</ele>
        <time>2021-10-14T11:15:12Z</time>
      </trkpt>
      <trkpt lat="43.205449" lon="-5.863164">
        <ele>607.816</ele>
        <time>2021-10-14T11:15:14Z</time>
      </trkpt>
      <trkpt lat="43.205271" lon="-5.863195">
        <ele>606.408</ele>
        <time>2021-10-14T11:15:16Z</time>
      </trkpt>
      <trkpt lat="43.205185" lon="-5.863228">
        <ele>606.432</ele>
        <time>2021-10-14T11:15:17Z</time>
      </trkpt>
      <trkpt lat="43.205110" lon="-5.863272">
        <ele>606.320</ele>
        <time>2021-10-14T11:15:18Z</time>
      </trkpt>
      <trkpt lat="43.205016" lon="-5.863442">
        <ele>606.058</ele>
        <time>2021-10-14T11:15:20Z</time>
      </trkpt>
      <trkpt lat="43.205038" lon="-5.863708">
        <ele>606.445</ele>
        <time>2021-10-14T11:15:22Z</time>
      </trkpt>
      <trkpt lat="43.205086" lon="-5.863849">
        <ele>606.758</ele>
        <time>2021-10-14T11:15:23Z</time>
      </trkpt>
      <trkpt lat="43.205143" lon="-5.864097">
        <ele>606.525</ele>
        <time>2021-10-14T11:15:25Z</time>
      </trkpt>
      <trkpt lat="43.205138" lon="-5.864216">
        <ele>605.497</ele>
        <time>2021-10-14T11:15:26Z</time>
      </trkpt>
      <trkpt lat="43.205097" lon="-5.864457">
        <ele>604.476</ele>
        <time>2021-10-14T11:15:28Z</time>
      </trkpt>
      <trkpt lat="43.205078" lon="-5.864703">
        <ele>603.157</ele>
        <time>2021-10-14T11:15:30Z</time>
      </trkpt>
      <trkpt lat="43.205070" lon="-5.864808">
        <ele>602.300</ele>
        <time>2021-10-14T11:15:31Z</time>
      </trkpt>
      <trkpt lat="43.205046" lon="-5.864903">
        <ele>602.220</ele>
        <time>2021-10-14T11:15:32Z</time>
      </trkpt>
      <trkpt lat="43.204934" lon="-5.865061">
        <ele>601.308</ele>
        <time>2021-10-14T11:15:34Z</time>
      </trkpt>
      <trkpt lat="43.204862" lon="-5.865136">
        <ele>600.863</ele>
        <time>2021-10-14T11:15:35Z</time>
      </trkpt>
      <trkpt lat="43.204790" lon="-5.865211">
        <ele>600.851</ele>
        <time>2021-10-14T11:15:36Z</time>
      </trkpt>
      <trkpt lat="43.204658" lon="-5.865372">
        <ele>599.539</ele>
        <time>2021-10-14T11:15:38Z</time>
      </trkpt>
      <trkpt lat="43.204550" lon="-5.865535">
        <ele>599.366</ele>
        <time>2021-10-14T11:15:40Z</time>
      </trkpt>
      <trkpt lat="43.204490" lon="-5.865701">
        <ele>597.689</ele>
        <time>2021-10-14T11:15:42Z</time>
      </trkpt>
      <trkpt lat="43.204489" lon="-5.865858">
        <ele>597.336</ele>
        <time>2021-10-14T11:15:44Z</time>
      </trkpt>
      <trkpt lat="43.204548" lon="-5.866009">
        <ele>597.028</ele>
        <time>2021-10-14T11:15:46Z</time>
      </trkpt>
      <trkpt lat="43.204601" lon="-5.866081">
        <ele>596.377</ele>
        <time>2021-10-14T11:15:47Z</time>
      </trkpt>
      <trkpt lat="43.204749" lon="-5.866196">
        <ele>596.549</ele>
        <time>2021-10-14T11:15:49Z</time>
      </trkpt>
      <trkpt lat="43.204841" lon="-5.866246">
        <ele>596.002</ele>
        <time>2021-10-14T11:15:50Z</time>
      </trkpt>
      <trkpt lat="43.205024" lon="-5.866332">
        <ele>594.222</ele>
        <time>2021-10-14T11:15:52Z</time>
      </trkpt>
      <trkpt lat="43.205114" lon="-5.866384">
        <ele>593.008</ele>
        <time>2021-10-14T11:15:53Z</time>
      </trkpt>
      <trkpt lat="43.205196" lon="-5.866447">
        <ele>591.552</ele>
        <time>2021-10-14T11:15:54Z</time>
      </trkpt>
      <trkpt lat="43.205329" lon="-5.866619">
        <ele>590.070</ele>
        <time>2021-10-14T11:15:56Z</time>
      </trkpt>
      <trkpt lat="43.205392" lon="-5.866721">
        <ele>588.818</ele>
        <time>2021-10-14T11:15:57Z</time>
      </trkpt>
      <trkpt lat="43.205544" lon="-5.866913">
        <ele>586.895</ele>
        <time>2021-10-14T11:15:59Z</time>
      </trkpt>
      <trkpt lat="43.205633" lon="-5.866994">
        <ele>585.358</ele>
        <time>2021-10-14T11:16:00Z</time>
      </trkpt>
      <trkpt lat="43.205818" lon="-5.867149">
        <ele>582.995</ele>
        <time>2021-10-14T11:16:02Z</time>
      </trkpt>
      <trkpt lat="43.206009" lon="-5.867307">
        <ele>582.367</ele>
        <time>2021-10-14T11:16:04Z</time>
      </trkpt>
      <trkpt lat="43.206104" lon="-5.867390">
        <ele>581.076</ele>
        <time>2021-10-14T11:16:05Z</time>
      </trkpt>
      <trkpt lat="43.206193" lon="-5.867477">
        <ele>580.821</ele>
        <time>2021-10-14T11:16:06Z</time>
      </trkpt>
      <trkpt lat="43.206271" lon="-5.867576">
        <ele>580.241</ele>
        <time>2021-10-14T11:16:07Z</time>
      </trkpt>
      <trkpt lat="43.206333" lon="-5.867692">
        <ele>579.605</ele>
        <time>2021-10-14T11:16:08Z</time>
      </trkpt>
      <trkpt lat="43.206413" lon="-5.867945">
        <ele>577.208</ele>
        <time>2021-10-14T11:16:10Z</time>
      </trkpt>
      <trkpt lat="43.206452" lon="-5.868073">
        <ele>576.290</ele>
        <time>2021-10-14T11:16:11Z</time>
      </trkpt>
      <trkpt lat="43.206581" lon="-5.868257">
        <ele>575.968</ele>
        <time>2021-10-14T11:16:13Z</time>
      </trkpt>
      <trkpt lat="43.206668" lon="-5.868312">
        <ele>575.536</ele>
        <time>2021-10-14T11:16:14Z</time>
      </trkpt>
      <trkpt lat="43.206856" lon="-5.868420">
        <ele>574.713</ele>
        <time>2021-10-14T11:16:16Z</time>
      </trkpt>
      <trkpt lat="43.207034" lon="-5.868580">
        <ele>573.736</ele>
        <time>2021-10-14T11:16:18Z</time>
      </trkpt>
      <trkpt lat="43.207124" lon="-5.868655">
        <ele>572.723</ele>
        <time>2021-10-14T11:16:19Z</time>
      </trkpt>
      <trkpt lat="43.207228" lon="-5.868711">
        <ele>572.465</ele>
        <time>2021-10-14T11:16:20Z</time>
      </trkpt>
      <trkpt lat="43.207453" lon="-5.868756">
        <ele>572.214</ele>
        <time>2021-10-14T11:16:22Z</time>
      </trkpt>
      <trkpt lat="43.207577" lon="-5.868741">
        <ele>572.188</ele>
        <time>2021-10-14T11:16:23Z</time>
      </trkpt>
      <trkpt lat="43.207839" lon="-5.868685">
        <ele>569.424</ele>
        <time>2021-10-14T11:16:25Z</time>
      </trkpt>
      <trkpt lat="43.207968" lon="-5.868652">
        <ele>567.726</ele>
        <time>2021-10-14T11:16:26Z</time>
      </trkpt>
      <trkpt lat="43.208211" lon="-5.868603">
        <ele>564.908</ele>
        <time>2021-10-14T11:16:28Z</time>
      </trkpt>
      <trkpt lat="43.208443" lon="-5.868634">
        <ele>563.476</ele>
        <time>2021-10-14T11:16:30Z</time>
      </trkpt>
      <trkpt lat="43.208557" lon="-5.868699">
        <ele>562.174</ele>
        <time>2021-10-14T11:16:31Z</time>
      </trkpt>
      <trkpt lat="43.208669" lon="-5.868791">
        <ele>561.332</ele>
        <time>2021-10-14T11:16:32Z</time>
      </trkpt>
      <trkpt lat="43.208895" lon="-5.868997">
        <ele>560.139</ele>
        <time>2021-10-14T11:16:34Z</time>
      </trkpt>
      <trkpt lat="43.209013" lon="-5.869086">
        <ele>558.222</ele>
        <time>2021-10-14T11:16:35Z</time>
      </trkpt>
      <trkpt lat="43.209269" lon="-5.869210">
        <ele>557.369</ele>
        <time>2021-10-14T11:16:37Z</time>
      </trkpt>
      <trkpt lat="43.209401" lon="-5.869245">
        <ele>556.241</ele>
        <time>2021-10-14T11:16:38Z</time>
      </trkpt>
      <trkpt lat="43.209649" lon="-5.869234">
        <ele>554.540</ele>
        <time>2021-10-14T11:16:40Z</time>
      </trkpt>
      <trkpt lat="43.209778" lon="-5.869208">
        <ele>554.094</ele>
        <time>2021-10-14T11:16:41Z</time>
      </trkpt>
      <trkpt lat="43.210031" lon="-5.869142">
        <ele>552.957</ele>
        <time>2021-10-14T11:16:43Z</time>
      </trkpt>
      <trkpt lat="43.210160" lon="-5.869104">
        <ele>552.522</ele>
        <time>2021-10-14T11:16:44Z</time>
      </trkpt>
      <trkpt lat="43.210412" lon="-5.869047">
        <ele>549.908</ele>
        <time>2021-10-14T11:16:46Z</time>
      </trkpt>
      <trkpt lat="43.210535" lon="-5.869004">
        <ele>549.617</ele>
        <time>2021-10-14T11:16:47Z</time>
      </trkpt>
      <trkpt lat="43.210651" lon="-5.868950">
        <ele>548.225</ele>
        <time>2021-10-14T11:16:48Z</time>
      </trkpt>
      <trkpt lat="43.210872" lon="-5.868847">
        <ele>547.053</ele>
        <time>2021-10-14T11:16:50Z</time>
      </trkpt>
      <trkpt lat="43.211052" lon="-5.868831">
        <ele>545.430</ele>
        <time>2021-10-14T11:16:52Z</time>
      </trkpt>
      <trkpt lat="43.211133" lon="-5.868882">
        <ele>543.133</ele>
        <time>2021-10-14T11:16:53Z</time>
      </trkpt>
      <trkpt lat="43.211217" lon="-5.868951">
        <ele>542.320</ele>
        <time>2021-10-14T11:16:54Z</time>
      </trkpt>
      <trkpt lat="43.211402" lon="-5.869032">
        <ele>540.612</ele>
        <time>2021-10-14T11:16:56Z</time>
      </trkpt>
      <trkpt lat="43.211584" lon="-5.869006">
        <ele>539.381</ele>
        <time>2021-10-14T11:16:58Z</time>
      </trkpt>
      <trkpt lat="43.211672" lon="-5.868960">
        <ele>538.899</ele>
        <time>2021-10-14T11:16:59Z</time>
      </trkpt>
      <trkpt lat="43.211848" lon="-5.868864">
        <ele>538.007</ele>
        <time>2021-10-14T11:17:01Z</time>
      </trkpt>
      <trkpt lat="43.212013" lon="-5.868827">
        <ele>536.727</ele>
        <time>2021-10-14T11:17:03Z</time>
      </trkpt>
      <trkpt lat="43.212081" lon="-5.868842">
        <ele>536.408</ele>
        <time>2021-10-14T11:17:04Z</time>
      </trkpt>
      <trkpt lat="43.212179" lon="-5.868938">
        <ele>535.167</ele>
        <time>2021-10-14T11:17:06Z</time>
      </trkpt>
      <trkpt lat="43.212211" lon="-5.869014">
        <ele>534.975</ele>
        <time>2021-10-14T11:17:07Z</time>
      </trkpt>
      <trkpt lat="43.212238" lon="-5.869116">
        <ele>533.783</ele>
        <time>2021-10-14T11:17:08Z</time>
      </trkpt>
      <trkpt lat="43.212314" lon="-5.869344">
        <ele>532.740</ele>
        <time>2021-10-14T11:17:10Z</time>
      </trkpt>
      <trkpt lat="43.212435" lon="-5.869541">
        <ele>530.583</ele>
        <time>2021-10-14T11:17:12Z</time>
      </trkpt>
      <trkpt lat="43.212482" lon="-5.869643">
        <ele>530.240</ele>
        <time>2021-10-14T11:17:13Z</time>
      </trkpt>
      <trkpt lat="43.212515" lon="-5.869746">
        <ele>529.632</ele>
        <time>2021-10-14T11:17:14Z</time>
      </trkpt>
      <trkpt lat="43.212593" lon="-5.869908">
        <ele>529.311</ele>
        <time>2021-10-14T11:17:16Z</time>
      </trkpt>
      <trkpt lat="43.212728" lon="-5.869984">
        <ele>528.943</ele>
        <time>2021-10-14T11:17:18Z</time>
      </trkpt>
      <trkpt lat="43.212803" lon="-5.869992">
        <ele>528.964</ele>
        <time>2021-10-14T11:17:19Z</time>
      </trkpt>
      <trkpt lat="43.212888" lon="-5.869996">
        <ele>528.910</ele>
        <time>2021-10-14T11:17:20Z</time>
      </trkpt>
      <trkpt lat="43.213072" lon="-5.870019">
        <ele>528.408</ele>
        <time>2021-10-14T11:17:22Z</time>
      </trkpt>
      <trkpt lat="43.213169" lon="-5.870014">
        <ele>527.812</ele>
        <time>2021-10-14T11:17:23Z</time>
      </trkpt>
      <trkpt lat="43.213357" lon="-5.869943">
        <ele>525.690</ele>
        <time>2021-10-14T11:17:25Z</time>
      </trkpt>
      <trkpt lat="43.213441" lon="-5.869899">
        <ele>525.388</ele>
        <time>2021-10-14T11:17:26Z</time>
      </trkpt>
      <trkpt lat="43.213590" lon="-5.869867">
        <ele>525.085</ele>
        <time>2021-10-14T11:17:28Z</time>
      </trkpt>
      <trkpt lat="43.213669" lon="-5.869882">
        <ele>524.588</ele>
        <time>2021-10-14T11:17:29Z</time>
      </trkpt>
      <trkpt lat="43.213833" lon="-5.869890">
        <ele>523.495</ele>
        <time>2021-10-14T11:17:31Z</time>
      </trkpt>
      <trkpt lat="43.213921" lon="-5.869848">
        <ele>523.047</ele>
        <time>2021-10-14T11:17:32Z</time>
      </trkpt>
      <trkpt lat="43.214088" lon="-5.869715">
        <ele>521.056</ele>
        <time>2021-10-14T11:17:34Z</time>
      </trkpt>
      <trkpt lat="43.214229" lon="-5.869548">
        <ele>520.317</ele>
        <time>2021-10-14T11:17:36Z</time>
      </trkpt>
      <trkpt lat="43.214281" lon="-5.869440">
        <ele>518.687</ele>
        <time>2021-10-14T11:17:37Z</time>
      </trkpt>
      <trkpt lat="43.214322" lon="-5.869328">
        <ele>517.415</ele>
        <time>2021-10-14T11:17:38Z</time>
      </trkpt>
      <trkpt lat="43.214421" lon="-5.869135">
        <ele>516.908</ele>
        <time>2021-10-14T11:17:40Z</time>
      </trkpt>
      <trkpt lat="43.214496" lon="-5.869057">
        <ele>515.659</ele>
        <time>2021-10-14T11:17:41Z</time>
      </trkpt>
      <trkpt lat="43.214588" lon="-5.868996">
        <ele>514.557</ele>
        <time>2021-10-14T11:17:42Z</time>
      </trkpt>
      <trkpt lat="43.214684" lon="-5.868943">
        <ele>512.825</ele>
        <time>2021-10-14T11:17:43Z</time>
      </trkpt>
      <trkpt lat="43.214779" lon="-5.868888">
        <ele>511.892</ele>
        <time>2021-10-14T11:17:44Z</time>
      </trkpt>
      <trkpt lat="43.214958" lon="-5.868769">
        <ele>511.235</ele>
        <time>2021-10-14T11:17:46Z</time>
      </trkpt>
      <trkpt lat="43.215132" lon="-5.868654">
        <ele>508.532</ele>
        <time>2021-10-14T11:17:48Z</time>
      </trkpt>
      <trkpt lat="43.215219" lon="-5.868604">
        <ele>508.334</ele>
        <time>2021-10-14T11:17:49Z</time>
      </trkpt>
      <trkpt lat="43.215308" lon="-5.868568">
        <ele>506.033</ele>
        <time>2021-10-14T11:17:50Z</time>
      </trkpt>
      <trkpt lat="43.215485" lon="-5.868572">
        <ele>502.542</ele>
        <time>2021-10-14T11:17:52Z</time>
      </trkpt>
      <trkpt lat="43.215576" lon="-5.868608">
        <ele>502.422</ele>
        <time>2021-10-14T11:17:53Z</time>
      </trkpt>
      <trkpt lat="43.215745" lon="-5.868735">
        <ele>499.514</ele>
        <time>2021-10-14T11:17:55Z</time>
      </trkpt>
      <trkpt lat="43.215806" lon="-5.868823">
        <ele>499.108</ele>
        <time>2021-10-14T11:17:56Z</time>
      </trkpt>
      <trkpt lat="43.215862" lon="-5.869021">
        <ele>498.142</ele>
        <time>2021-10-14T11:17:58Z</time>
      </trkpt>
      <trkpt lat="43.215874" lon="-5.869137">
        <ele>497.870</ele>
        <time>2021-10-14T11:17:59Z</time>
      </trkpt>
      <trkpt lat="43.215896" lon="-5.869263">
        <ele>497.638</ele>
        <time>2021-10-14T11:18:00Z</time>
      </trkpt>
      <trkpt lat="43.216007" lon="-5.869473">
        <ele>496.645</ele>
        <time>2021-10-14T11:18:02Z</time>
      </trkpt>
      <trkpt lat="43.216177" lon="-5.869559">
        <ele>496.788</ele>
        <time>2021-10-14T11:18:04Z</time>
      </trkpt>
      <trkpt lat="43.216265" lon="-5.869584">
        <ele>496.495</ele>
        <time>2021-10-14T11:18:05Z</time>
      </trkpt>
      <trkpt lat="43.216437" lon="-5.869710">
        <ele>494.737</ele>
        <time>2021-10-14T11:18:07Z</time>
      </trkpt>
      <trkpt lat="43.216528" lon="-5.869803">
        <ele>493.856</ele>
        <time>2021-10-14T11:18:08Z</time>
      </trkpt>
      <trkpt lat="43.216708" lon="-5.869976">
        <ele>491.259</ele>
        <time>2021-10-14T11:18:10Z</time>
      </trkpt>
      <trkpt lat="43.216889" lon="-5.870061">
        <ele>490.303</ele>
        <time>2021-10-14T11:18:12Z</time>
      </trkpt>
      <trkpt lat="43.216976" lon="-5.870043">
        <ele>490.223</ele>
        <time>2021-10-14T11:18:13Z</time>
      </trkpt>
      <trkpt lat="43.217061" lon="-5.869980">
        <ele>489.308</ele>
        <time>2021-10-14T11:18:14Z</time>
      </trkpt>
      <trkpt lat="43.217233" lon="-5.869811">
        <ele>488.053</ele>
        <time>2021-10-14T11:18:16Z</time>
      </trkpt>
      <trkpt lat="43.217407" lon="-5.869689">
        <ele>484.981</ele>
        <time>2021-10-14T11:18:18Z</time>
      </trkpt>
      <trkpt lat="43.217603" lon="-5.869673">
        <ele>483.519</ele>
        <time>2021-10-14T11:18:20Z</time>
      </trkpt>
      <trkpt lat="43.217820" lon="-5.869706">
        <ele>480.856</ele>
        <time>2021-10-14T11:18:22Z</time>
      </trkpt>
      <trkpt lat="43.218073" lon="-5.869746">
        <ele>479.049</ele>
        <time>2021-10-14T11:18:24Z</time>
      </trkpt>
      <trkpt lat="43.218207" lon="-5.869765">
        <ele>478.316</ele>
        <time>2021-10-14T11:18:25Z</time>
      </trkpt>
      <trkpt lat="43.218337" lon="-5.869784">
        <ele>477.648</ele>
        <time>2021-10-14T11:18:26Z</time>
      </trkpt>
      <trkpt lat="43.218579" lon="-5.869809">
        <ele>475.587</ele>
        <time>2021-10-14T11:18:28Z</time>
      </trkpt>
      <trkpt lat="43.218800" lon="-5.869771">
        <ele>474.041</ele>
        <time>2021-10-14T11:18:30Z</time>
      </trkpt>
      <trkpt lat="43.218977" lon="-5.869617">
        <ele>472.481</ele>
        <time>2021-10-14T11:18:32Z</time>
      </trkpt>
      <trkpt lat="43.219084" lon="-5.869379">
        <ele>470.209</ele>
        <time>2021-10-14T11:18:34Z</time>
      </trkpt>
      <trkpt lat="43.219139" lon="-5.869258">
        <ele>470.108</ele>
        <time>2021-10-14T11:18:35Z</time>
      </trkpt>
      <trkpt lat="43.219282" lon="-5.869055">
        <ele>467.972</ele>
        <time>2021-10-14T11:18:37Z</time>
      </trkpt>
      <trkpt lat="43.219359" lon="-5.868960">
        <ele>467.540</ele>
        <time>2021-10-14T11:18:38Z</time>
      </trkpt>
      <trkpt lat="43.219506" lon="-5.868825">
        <ele>464.058</ele>
        <time>2021-10-14T11:18:40Z</time>
      </trkpt>
      <trkpt lat="43.219583" lon="-5.868798">
        <ele>463.865</ele>
        <time>2021-10-14T11:18:41Z</time>
      </trkpt>
      <trkpt lat="43.219666" lon="-5.868803">
        <ele>463.418</ele>
        <time>2021-10-14T11:18:42Z</time>
      </trkpt>
      <trkpt lat="43.219839" lon="-5.868914">
        <ele>461.655</ele>
        <time>2021-10-14T11:18:44Z</time>
      </trkpt>
      <trkpt lat="43.220000" lon="-5.869138">
        <ele>459.367</ele>
        <time>2021-10-14T11:18:46Z</time>
      </trkpt>
      <trkpt lat="43.220183" lon="-5.869322">
        <ele>459.196</ele>
        <time>2021-10-14T11:18:48Z</time>
      </trkpt>
      <trkpt lat="43.220294" lon="-5.869355">
        <ele>457.637</ele>
        <time>2021-10-14T11:18:49Z</time>
      </trkpt>
      <trkpt lat="43.220407" lon="-5.869345">
        <ele>456.949</ele>
        <time>2021-10-14T11:18:50Z</time>
      </trkpt>
      <trkpt lat="43.220613" lon="-5.869271">
        <ele>455.013</ele>
        <time>2021-10-14T11:18:52Z</time>
      </trkpt>
      <trkpt lat="43.220793" lon="-5.869161">
        <ele>453.908</ele>
        <time>2021-10-14T11:18:54Z</time>
      </trkpt>
      <trkpt lat="43.220946" lon="-5.869085">
        <ele>452.531</ele>
        <time>2021-10-14T11:18:56Z</time>
      </trkpt>
      <trkpt lat="43.221087" lon="-5.869130">
        <ele>451.389</ele>
        <time>2021-10-14T11:18:58Z</time>
      </trkpt>
      <trkpt lat="43.221203" lon="-5.869233">
        <ele>450.267</ele>
        <time>2021-10-14T11:19:00Z</time>
      </trkpt>
      <trkpt lat="43.221261" lon="-5.869262">
        <ele>449.984</ele>
        <time>2021-10-14T11:19:01Z</time>
      </trkpt>
      <trkpt lat="43.221323" lon="-5.869255">
        <ele>449.787</ele>
        <time>2021-10-14T11:19:02Z</time>
      </trkpt>
      <trkpt lat="43.221457" lon="-5.869178">
        <ele>449.674</ele>
        <time>2021-10-14T11:19:04Z</time>
      </trkpt>
      <trkpt lat="43.221614" lon="-5.869126">
        <ele>449.386</ele>
        <time>2021-10-14T11:19:06Z</time>
      </trkpt>
      <trkpt lat="43.221777" lon="-5.869177">
        <ele>448.635</ele>
        <time>2021-10-14T11:19:08Z</time>
      </trkpt>
      <trkpt lat="43.221938" lon="-5.869259">
        <ele>448.061</ele>
        <time>2021-10-14T11:19:10Z</time>
      </trkpt>
      <trkpt lat="43.222029" lon="-5.869282">
        <ele>448.021</ele>
        <time>2021-10-14T11:19:11Z</time>
      </trkpt>
      <trkpt lat="43.222201" lon="-5.869264">
        <ele>449.113</ele>
        <time>2021-10-14T11:19:13Z</time>
      </trkpt>
      <trkpt lat="43.222277" lon="-5.869230">
        <ele>448.808</ele>
        <time>2021-10-14T11:19:14Z</time>
      </trkpt>
      <trkpt lat="43.222400" lon="-5.869142">
        <ele>448.384</ele>
        <time>2021-10-14T11:19:16Z</time>
      </trkpt>
      <trkpt lat="43.222474" lon="-5.869117">
        <ele>448.172</ele>
        <time>2021-10-14T11:19:17Z</time>
      </trkpt>
      <trkpt lat="43.222558" lon="-5.869113">
        <ele>447.950</ele>
        <time>2021-10-14T11:19:18Z</time>
      </trkpt>
      <trkpt lat="43.222731" lon="-5.869171">
        <ele>447.177</ele>
        <time>2021-10-14T11:19:20Z</time>
      </trkpt>
      <trkpt lat="43.222871" lon="-5.869318">
        <ele>445.610</ele>
        <time>2021-10-14T11:19:22Z</time>
      </trkpt>
      <trkpt lat="43.222913" lon="-5.869413">
        <ele>444.987</ele>
        <time>2021-10-14T11:19:23Z</time>
      </trkpt>
      <trkpt lat="43.222941" lon="-5.869515">
        <ele>444.469</ele>
        <time>2021-10-14T11:19:24Z</time>
      </trkpt>
      <trkpt lat="43.222997" lon="-5.869708">
        <ele>442.548</ele>
        <time>2021-10-14T11:19:26Z</time>
      </trkpt>
      <trkpt lat="43.223109" lon="-5.869817">
        <ele>441.414</ele>
        <time>2021-10-14T11:19:28Z</time>
      </trkpt>
      <trkpt lat="43.223259" lon="-5.869801">
        <ele>438.554</ele>
        <time>2021-10-14T11:19:30Z</time>
      </trkpt>
      <trkpt lat="43.223345" lon="-5.869757">
        <ele>437.909</ele>
        <time>2021-10-14T11:19:31Z</time>
      </trkpt>
      <trkpt lat="43.223439" lon="-5.869714">
        <ele>436.408</ele>
        <time>2021-10-14T11:19:32Z</time>
      </trkpt>
      <trkpt lat="43.223630" lon="-5.869696">
        <ele>434.799</ele>
        <time>2021-10-14T11:19:34Z</time>
      </trkpt>
      <trkpt lat="43.223725" lon="-5.869717">
        <ele>434.037</ele>
        <time>2021-10-14T11:19:35Z</time>
      </trkpt>
      <trkpt lat="43.223912" lon="-5.869791">
        <ele>431.625</ele>
        <time>2021-10-14T11:19:37Z</time>
      </trkpt>
      <trkpt lat="43.224005" lon="-5.869826">
        <ele>429.632</ele>
        <time>2021-10-14T11:19:38Z</time>
      </trkpt>
      <trkpt lat="43.224192" lon="-5.869844">
        <ele>428.985</ele>
        <time>2021-10-14T11:19:40Z</time>
      </trkpt>
      <trkpt lat="43.224377" lon="-5.869800">
        <ele>426.782</ele>
        <time>2021-10-14T11:19:42Z</time>
      </trkpt>
      <trkpt lat="43.224556" lon="-5.869795">
        <ele>425.284</ele>
        <time>2021-10-14T11:19:44Z</time>
      </trkpt>
      <trkpt lat="43.224711" lon="-5.869888">
        <ele>423.183</ele>
        <time>2021-10-14T11:19:46Z</time>
      </trkpt>
      <trkpt lat="43.224782" lon="-5.869969">
        <ele>421.574</ele>
        <time>2021-10-14T11:19:47Z</time>
      </trkpt>
      <trkpt lat="43.224849" lon="-5.870068">
        <ele>420.756</ele>
        <time>2021-10-14T11:19:48Z</time>
      </trkpt>
      <trkpt lat="43.224997" lon="-5.870270">
        <ele>419.721</ele>
        <time>2021-10-14T11:19:50Z</time>
      </trkpt>
      <trkpt lat="43.225160" lon="-5.870429">
        <ele>418.308</ele>
        <time>2021-10-14T11:19:52Z</time>
      </trkpt>
      <trkpt lat="43.225235" lon="-5.870509">
        <ele>418.075</ele>
        <time>2021-10-14T11:19:53Z</time>
      </trkpt>
      <trkpt lat="43.225298" lon="-5.870593">
        <ele>417.893</ele>
        <time>2021-10-14T11:19:54Z</time>
      </trkpt>
      <trkpt lat="43.225343" lon="-5.870679">
        <ele>417.321</ele>
        <time>2021-10-14T11:19:55Z</time>
      </trkpt>
      <trkpt lat="43.225374" lon="-5.870776">
        <ele>417.228</ele>
        <time>2021-10-14T11:19:56Z</time>
      </trkpt>
      <trkpt lat="43.225381" lon="-5.870991">
        <ele>416.081</ele>
        <time>2021-10-14T11:19:58Z</time>
      </trkpt>
      <trkpt lat="43.225378" lon="-5.871249">
        <ele>414.328</ele>
        <time>2021-10-14T11:20:00Z</time>
      </trkpt>
      <trkpt lat="43.225429" lon="-5.871524">
        <ele>413.470</ele>
        <time>2021-10-14T11:20:02Z</time>
      </trkpt>
      <trkpt lat="43.225536" lon="-5.871802">
        <ele>411.659</ele>
        <time>2021-10-14T11:20:04Z</time>
      </trkpt>
      <trkpt lat="43.225641" lon="-5.872108">
        <ele>410.574</ele>
        <time>2021-10-14T11:20:06Z</time>
      </trkpt>
      <trkpt lat="43.225748" lon="-5.872415">
        <ele>409.156</ele>
        <time>2021-10-14T11:20:08Z</time>
      </trkpt>
      <trkpt lat="43.225875" lon="-5.872663">
        <ele>407.921</ele>
        <time>2021-10-14T11:20:10Z</time>
      </trkpt>
      <trkpt lat="43.225932" lon="-5.872769">
        <ele>406.508</ele>
        <time>2021-10-14T11:20:11Z</time>
      </trkpt>
      <trkpt lat="43.226017" lon="-5.872970">
        <ele>405.495</ele>
        <time>2021-10-14T11:20:13Z</time>
      </trkpt>
      <trkpt lat="43.226063" lon="-5.873068">
        <ele>404.913</ele>
        <time>2021-10-14T11:20:14Z</time>
      </trkpt>
      <trkpt lat="43.226184" lon="-5.873205">
        <ele>403.671</ele>
        <time>2021-10-14T11:20:16Z</time>
      </trkpt>
      <trkpt lat="43.226266" lon="-5.873244">
        <ele>402.888</ele>
        <time>2021-10-14T11:20:17Z</time>
      </trkpt>
      <trkpt lat="43.226467" lon="-5.873291">
        <ele>402.111</ele>
        <time>2021-10-14T11:20:19Z</time>
      </trkpt>
      <trkpt lat="43.226590" lon="-5.873311">
        <ele>401.338</ele>
        <time>2021-10-14T11:20:20Z</time>
      </trkpt>
      <trkpt lat="43.226848" lon="-5.873369">
        <ele>400.020</ele>
        <time>2021-10-14T11:20:22Z</time>
      </trkpt>
      <trkpt lat="43.226974" lon="-5.873410">
        <ele>398.959</ele>
        <time>2021-10-14T11:20:23Z</time>
      </trkpt>
      <trkpt lat="43.227208" lon="-5.873502">
        <ele>396.541</ele>
        <time>2021-10-14T11:20:25Z</time>
      </trkpt>
      <trkpt lat="43.227319" lon="-5.873567">
        <ele>395.181</ele>
        <time>2021-10-14T11:20:26Z</time>
      </trkpt>
      <trkpt lat="43.227505" lon="-5.873725">
        <ele>392.609</ele>
        <time>2021-10-14T11:20:28Z</time>
      </trkpt>
      <trkpt lat="43.227662" lon="-5.873917">
        <ele>391.208</ele>
        <time>2021-10-14T11:20:30Z</time>
      </trkpt>
      <trkpt lat="43.227770" lon="-5.874157">
        <ele>389.552</ele>
        <time>2021-10-14T11:20:32Z</time>
      </trkpt>
      <trkpt lat="43.227828" lon="-5.874427">
        <ele>389.150</ele>
        <time>2021-10-14T11:20:34Z</time>
      </trkpt>
      <trkpt lat="43.227920" lon="-5.874689">
        <ele>387.688</ele>
        <time>2021-10-14T11:20:36Z</time>
      </trkpt>
      <trkpt lat="43.228068" lon="-5.874862">
        <ele>386.695</ele>
        <time>2021-10-14T11:20:38Z</time>
      </trkpt>
      <trkpt lat="43.228263" lon="-5.874915">
        <ele>385.578</ele>
        <time>2021-10-14T11:20:40Z</time>
      </trkpt>
      <trkpt lat="43.228362" lon="-5.874945">
        <ele>385.475</ele>
        <time>2021-10-14T11:20:41Z</time>
      </trkpt>
      <trkpt lat="43.228534" lon="-5.875060">
        <ele>384.347</ele>
        <time>2021-10-14T11:20:43Z</time>
      </trkpt>
      <trkpt lat="43.228614" lon="-5.875163">
        <ele>383.926</ele>
        <time>2021-10-14T11:20:44Z</time>
      </trkpt>
      <trkpt lat="43.228755" lon="-5.875398">
        <ele>383.061</ele>
        <time>2021-10-14T11:20:46Z</time>
      </trkpt>
      <trkpt lat="43.228884" lon="-5.875638">
        <ele>380.821</ele>
        <time>2021-10-14T11:20:48Z</time>
      </trkpt>
      <trkpt lat="43.229053" lon="-5.875818">
        <ele>379.713</ele>
        <time>2021-10-14T11:20:50Z</time>
      </trkpt>
      <trkpt lat="43.229239" lon="-5.875954">
        <ele>376.008</ele>
        <time>2021-10-14T11:20:52Z</time>
      </trkpt>
      <trkpt lat="43.229373" lon="-5.876102">
        <ele>374.964</ele>
        <time>2021-10-14T11:20:54Z</time>
      </trkpt>
      <trkpt lat="43.229418" lon="-5.876284">
        <ele>373.262</ele>
        <time>2021-10-14T11:20:56Z</time>
      </trkpt>
      <trkpt lat="43.229369" lon="-5.876461">
        <ele>371.790</ele>
        <time>2021-10-14T11:20:58Z</time>
      </trkpt>
      <trkpt lat="43.229314" lon="-5.876525">
        <ele>371.287</ele>
        <time>2021-10-14T11:20:59Z</time>
      </trkpt>
      <trkpt lat="43.229159" lon="-5.876564">
        <ele>370.620</ele>
        <time>2021-10-14T11:21:01Z</time>
      </trkpt>
      <trkpt lat="43.229056" lon="-5.876540">
        <ele>370.017</ele>
        <time>2021-10-14T11:21:02Z</time>
      </trkpt>
      <trkpt lat="43.228822" lon="-5.876465">
        <ele>368.359</ele>
        <time>2021-10-14T11:21:04Z</time>
      </trkpt>
      <trkpt lat="43.228574" lon="-5.876454">
        <ele>365.898</ele>
        <time>2021-10-14T11:21:06Z</time>
      </trkpt>
      <trkpt lat="43.228449" lon="-5.876479">
        <ele>365.766</ele>
        <time>2021-10-14T11:21:07Z</time>
      </trkpt>
      <trkpt lat="43.228325" lon="-5.876510">
        <ele>364.629</ele>
        <time>2021-10-14T11:21:08Z</time>
      </trkpt>
      <trkpt lat="43.228092" lon="-5.876539">
        <ele>364.221</ele>
        <time>2021-10-14T11:21:10Z</time>
      </trkpt>
      <trkpt lat="43.227883" lon="-5.876555">
        <ele>361.308</ele>
        <time>2021-10-14T11:21:12Z</time>
      </trkpt>
      <trkpt lat="43.227728" lon="-5.876616">
        <ele>360.784</ele>
        <time>2021-10-14T11:21:14Z</time>
      </trkpt>
      <trkpt lat="43.227678" lon="-5.876782">
        <ele>360.172</ele>
        <time>2021-10-14T11:21:16Z</time>
      </trkpt>
      <trkpt lat="43.227696" lon="-5.876899">
        <ele>359.430</ele>
        <time>2021-10-14T11:21:17Z</time>
      </trkpt>
      <trkpt lat="43.227797" lon="-5.877113">
        <ele>358.127</ele>
        <time>2021-10-14T11:21:19Z</time>
      </trkpt>
      <trkpt lat="43.227866" lon="-5.877197">
        <ele>356.410</ele>
        <time>2021-10-14T11:21:20Z</time>
      </trkpt>
      <trkpt lat="43.228017" lon="-5.877337">
        <ele>356.147</ele>
        <time>2021-10-14T11:21:22Z</time>
      </trkpt>
      <trkpt lat="43.228087" lon="-5.877427">
        <ele>356.079</ele>
        <time>2021-10-14T11:21:23Z</time>
      </trkpt>
      <trkpt lat="43.228151" lon="-5.877535">
        <ele>355.178</ele>
        <time>2021-10-14T11:21:24Z</time>
      </trkpt>
      <trkpt lat="43.228270" lon="-5.877757">
        <ele>355.173</ele>
        <time>2021-10-14T11:21:26Z</time>
      </trkpt>
      <trkpt lat="43.228365" lon="-5.877966">
        <ele>354.385</ele>
        <time>2021-10-14T11:21:28Z</time>
      </trkpt>
      <trkpt lat="43.228383" lon="-5.878072">
        <ele>354.713</ele>
        <time>2021-10-14T11:21:29Z</time>
      </trkpt>
      <trkpt lat="43.228365" lon="-5.878268">
        <ele>355.008</ele>
        <time>2021-10-14T11:21:31Z</time>
      </trkpt>
      <trkpt lat="43.228327" lon="-5.878351">
        <ele>355.285</ele>
        <time>2021-10-14T11:21:32Z</time>
      </trkpt>
      <trkpt lat="43.228188" lon="-5.878511">
        <ele>355.163</ele>
        <time>2021-10-14T11:21:34Z</time>
      </trkpt>
      <trkpt lat="43.228031" lon="-5.878696">
        <ele>355.011</ele>
        <time>2021-10-14T11:21:36Z</time>
      </trkpt>
      <trkpt lat="43.227979" lon="-5.878803">
        <ele>355.698</ele>
        <time>2021-10-14T11:21:37Z</time>
      </trkpt>
      <trkpt lat="43.227948" lon="-5.878917">
        <ele>355.611</ele>
        <time>2021-10-14T11:21:38Z</time>
      </trkpt>
      <trkpt lat="43.227898" lon="-5.879115">
        <ele>355.378</ele>
        <time>2021-10-14T11:21:40Z</time>
      </trkpt>
      <trkpt lat="43.227814" lon="-5.879245">
        <ele>355.060</ele>
        <time>2021-10-14T11:21:42Z</time>
      </trkpt>
      <trkpt lat="43.227679" lon="-5.879288">
        <ele>353.739</ele>
        <time>2021-10-14T11:21:44Z</time>
      </trkpt>
      <trkpt lat="43.227527" lon="-5.879283">
        <ele>350.323</ele>
        <time>2021-10-14T11:21:46Z</time>
      </trkpt>
      <trkpt lat="43.227433" lon="-5.879260">
        <ele>349.683</ele>
        <time>2021-10-14T11:21:47Z</time>
      </trkpt>
      <trkpt lat="43.227329" lon="-5.879216">
        <ele>348.911</ele>
        <time>2021-10-14T11:21:48Z</time>
      </trkpt>
      <trkpt lat="43.227132" lon="-5.879078">
        <ele>347.408</ele>
        <time>2021-10-14T11:21:50Z</time>
      </trkpt>
      <trkpt lat="43.226940" lon="-5.878942">
        <ele>346.020</ele>
        <time>2021-10-14T11:21:52Z</time>
      </trkpt>
      <trkpt lat="43.226837" lon="-5.878884">
        <ele>345.458</ele>
        <time>2021-10-14T11:21:53Z</time>
      </trkpt>
      <trkpt lat="43.226624" lon="-5.878801">
        <ele>343.756</ele>
        <time>2021-10-14T11:21:55Z</time>
      </trkpt>
      <trkpt lat="43.226508" lon="-5.878780">
        <ele>341.753</ele>
        <time>2021-10-14T11:21:56Z</time>
      </trkpt>
      <trkpt lat="43.226288" lon="-5.878777">
        <ele>340.736</ele>
        <time>2021-10-14T11:21:58Z</time>
      </trkpt>
      <trkpt lat="43.226063" lon="-5.878826">
        <ele>338.363</ele>
        <time>2021-10-14T11:22:00Z</time>
      </trkpt>
      <trkpt lat="43.225848" lon="-5.878905">
        <ele>336.115</ele>
        <time>2021-10-14T11:22:02Z</time>
      </trkpt>
      <trkpt lat="43.225745" lon="-5.878947">
        <ele>335.114</ele>
        <time>2021-10-14T11:22:03Z</time>
      </trkpt>
      <trkpt lat="43.225643" lon="-5.878997">
        <ele>334.752</ele>
        <time>2021-10-14T11:22:04Z</time>
      </trkpt>
      <trkpt lat="43.225450" lon="-5.879106">
        <ele>333.653</ele>
        <time>2021-10-14T11:22:06Z</time>
      </trkpt>
      <trkpt lat="43.225266" lon="-5.879213">
        <ele>331.608</ele>
        <time>2021-10-14T11:22:08Z</time>
      </trkpt>
      <trkpt lat="43.225075" lon="-5.879267">
        <ele>329.508</ele>
        <time>2021-10-14T11:22:10Z</time>
      </trkpt>
      <trkpt lat="43.224972" lon="-5.879269">
        <ele>328.993</ele>
        <time>2021-10-14T11:22:11Z</time>
      </trkpt>
      <trkpt lat="43.224867" lon="-5.879259">
        <ele>327.461</ele>
        <time>2021-10-14T11:22:12Z</time>
      </trkpt>
      <trkpt lat="43.224672" lon="-5.879194">
        <ele>326.849</ele>
        <time>2021-10-14T11:22:14Z</time>
      </trkpt>
      <trkpt lat="43.224505" lon="-5.879118">
        <ele>325.836</ele>
        <time>2021-10-14T11:22:16Z</time>
      </trkpt>
      <trkpt lat="43.224424" lon="-5.879095">
        <ele>325.669</ele>
        <time>2021-10-14T11:22:17Z</time>
      </trkpt>
      <trkpt lat="43.224347" lon="-5.879090">
        <ele>325.286</ele>
        <time>2021-10-14T11:22:18Z</time>
      </trkpt>
      <trkpt lat="43.224274" lon="-5.879110">
        <ele>324.258</ele>
        <time>2021-10-14T11:22:19Z</time>
      </trkpt>
      <trkpt lat="43.224200" lon="-5.879156">
        <ele>323.067</ele>
        <time>2021-10-14T11:22:20Z</time>
      </trkpt>
      <trkpt lat="43.224045" lon="-5.879229">
        <ele>322.352</ele>
        <time>2021-10-14T11:22:22Z</time>
      </trkpt>
      <trkpt lat="43.223865" lon="-5.879214">
        <ele>321.053</ele>
        <time>2021-10-14T11:22:24Z</time>
      </trkpt>
      <trkpt lat="43.223761" lon="-5.879179">
        <ele>320.708</ele>
        <time>2021-10-14T11:22:25Z</time>
      </trkpt>
      <trkpt lat="43.223642" lon="-5.879124">
        <ele>319.208</ele>
        <time>2021-10-14T11:22:26Z</time>
      </trkpt>
      <trkpt lat="43.223407" lon="-5.879031">
        <ele>316.283</ele>
        <time>2021-10-14T11:22:28Z</time>
      </trkpt>
      <trkpt lat="43.223292" lon="-5.879006">
        <ele>316.021</ele>
        <time>2021-10-14T11:22:29Z</time>
      </trkpt>
      <trkpt lat="43.223186" lon="-5.878994">
        <ele>315.049</ele>
        <time>2021-10-14T11:22:30Z</time>
      </trkpt>
      <trkpt lat="43.222984" lon="-5.879038">
        <ele>313.036</ele>
        <time>2021-10-14T11:22:32Z</time>
      </trkpt>
      <trkpt lat="43.222818" lon="-5.879177">
        <ele>310.919</ele>
        <time>2021-10-14T11:22:34Z</time>
      </trkpt>
      <trkpt lat="43.222679" lon="-5.879363">
        <ele>309.786</ele>
        <time>2021-10-14T11:22:36Z</time>
      </trkpt>
      <trkpt lat="43.222531" lon="-5.879488">
        <ele>309.678</ele>
        <time>2021-10-14T11:22:38Z</time>
      </trkpt>
      <trkpt lat="43.222368" lon="-5.879538">
        <ele>308.747</ele>
        <time>2021-10-14T11:22:40Z</time>
      </trkpt>
      <trkpt lat="43.222229" lon="-5.879609">
        <ele>308.485</ele>
        <time>2021-10-14T11:22:42Z</time>
      </trkpt>
      <trkpt lat="43.222186" lon="-5.879655">
        <ele>308.089</ele>
        <time>2021-10-14T11:22:43Z</time>
      </trkpt>
      <trkpt lat="43.222183" lon="-5.879792">
        <ele>307.717</ele>
        <time>2021-10-14T11:22:45Z</time>
      </trkpt>
      <trkpt lat="43.222217" lon="-5.879871">
        <ele>307.608</ele>
        <time>2021-10-14T11:22:46Z</time>
      </trkpt>
      <trkpt lat="43.222274" lon="-5.879931">
        <ele>307.246</ele>
        <time>2021-10-14T11:22:47Z</time>
      </trkpt>
      <trkpt lat="43.222349" lon="-5.879964">
        <ele>306.684</ele>
        <time>2021-10-14T11:22:48Z</time>
      </trkpt>
      <trkpt lat="43.222516" lon="-5.879924">
        <ele>305.832</ele>
        <time>2021-10-14T11:22:50Z</time>
      </trkpt>
      <trkpt lat="43.222677" lon="-5.879786">
        <ele>305.229</ele>
        <time>2021-10-14T11:22:52Z</time>
      </trkpt>
      <trkpt lat="43.222773" lon="-5.879715">
        <ele>302.822</ele>
        <time>2021-10-14T11:22:53Z</time>
      </trkpt>
      <trkpt lat="43.223009" lon="-5.879604">
        <ele>302.149</ele>
        <time>2021-10-14T11:22:55Z</time>
      </trkpt>
      <trkpt lat="43.223147" lon="-5.879571">
        <ele>301.061</ele>
        <time>2021-10-14T11:22:56Z</time>
      </trkpt>
      <trkpt lat="43.223390" lon="-5.879532">
        <ele>300.990</ele>
        <time>2021-10-14T11:22:58Z</time>
      </trkpt>
      <trkpt lat="43.223602" lon="-5.879542">
        <ele>299.355</ele>
        <time>2021-10-14T11:23:00Z</time>
      </trkpt>
      <trkpt lat="43.223770" lon="-5.879626">
        <ele>297.007</ele>
        <time>2021-10-14T11:23:02Z</time>
      </trkpt>
      <trkpt lat="43.223913" lon="-5.879742">
        <ele>295.917</ele>
        <time>2021-10-14T11:23:04Z</time>
      </trkpt>
      <trkpt lat="43.224071" lon="-5.879760">
        <ele>294.808</ele>
        <time>2021-10-14T11:23:06Z</time>
      </trkpt>
      <trkpt lat="43.224256" lon="-5.879720">
        <ele>294.423</ele>
        <time>2021-10-14T11:23:08Z</time>
      </trkpt>
      <trkpt lat="43.224460" lon="-5.879706">
        <ele>293.711</ele>
        <time>2021-10-14T11:23:10Z</time>
      </trkpt>
      <trkpt lat="43.224577" lon="-5.879730">
        <ele>293.539</ele>
        <time>2021-10-14T11:23:11Z</time>
      </trkpt>
      <trkpt lat="43.224811" lon="-5.879833">
        <ele>293.516</ele>
        <time>2021-10-14T11:23:13Z</time>
      </trkpt>
      <trkpt lat="43.224924" lon="-5.879912">
        <ele>292.939</ele>
        <time>2021-10-14T11:23:14Z</time>
      </trkpt>
      <trkpt lat="43.225116" lon="-5.880088">
        <ele>292.976</ele>
        <time>2021-10-14T11:23:16Z</time>
      </trkpt>
      <trkpt lat="43.225263" lon="-5.880300">
        <ele>293.738</ele>
        <time>2021-10-14T11:23:18Z</time>
      </trkpt>
      <trkpt lat="43.225338" lon="-5.880393">
        <ele>294.077</ele>
        <time>2021-10-14T11:23:19Z</time>
      </trkpt>
      <trkpt lat="43.225423" lon="-5.880461">
        <ele>294.156</ele>
        <time>2021-10-14T11:23:20Z</time>
      </trkpt>
      <trkpt lat="43.225618" lon="-5.880541">
        <ele>293.459</ele>
        <time>2021-10-14T11:23:22Z</time>
      </trkpt>
      <trkpt lat="43.225726" lon="-5.880587">
        <ele>292.614</ele>
        <time>2021-10-14T11:23:23Z</time>
      </trkpt>
      <trkpt lat="43.225835" lon="-5.880646">
        <ele>292.008</ele>
        <time>2021-10-14T11:23:24Z</time>
      </trkpt>
      <trkpt lat="43.226061" lon="-5.880769">
        <ele>286.173</ele>
        <time>2021-10-14T11:23:26Z</time>
      </trkpt>
      <trkpt lat="43.226282" lon="-5.880840">
        <ele>282.581</ele>
        <time>2021-10-14T11:23:28Z</time>
      </trkpt>
      <trkpt lat="43.226405" lon="-5.880844">
        <ele>281.559</ele>
        <time>2021-10-14T11:23:29Z</time>
      </trkpt>
      <trkpt lat="43.226534" lon="-5.880839">
        <ele>280.366</ele>
        <time>2021-10-14T11:23:30Z</time>
      </trkpt>
      <trkpt lat="43.226803" lon="-5.880857">
        <ele>279.049</ele>
        <time>2021-10-14T11:23:32Z</time>
      </trkpt>
      <trkpt lat="43.226932" lon="-5.880895">
        <ele>275.826</ele>
        <time>2021-10-14T11:23:33Z</time>
      </trkpt>
      <trkpt lat="43.227169" lon="-5.881017">
        <ele>274.958</ele>
        <time>2021-10-14T11:23:35Z</time>
      </trkpt>
      <trkpt lat="43.227289" lon="-5.881062">
        <ele>273.097</ele>
        <time>2021-10-14T11:23:36Z</time>
      </trkpt>
      <trkpt lat="43.227407" lon="-5.881077">
        <ele>272.974</ele>
        <time>2021-10-14T11:23:37Z</time>
      </trkpt>
      <trkpt lat="43.227525" lon="-5.881072">
        <ele>271.656</ele>
        <time>2021-10-14T11:23:38Z</time>
      </trkpt>
      <trkpt lat="43.227752" lon="-5.881093">
        <ele>270.121</ele>
        <time>2021-10-14T11:23:40Z</time>
      </trkpt>
      <trkpt lat="43.227971" lon="-5.881192">
        <ele>269.408</ele>
        <time>2021-10-14T11:23:42Z</time>
      </trkpt>
      <trkpt lat="43.228081" lon="-5.881272">
        <ele>267.935</ele>
        <time>2021-10-14T11:23:43Z</time>
      </trkpt>
      <trkpt lat="43.228187" lon="-5.881362">
        <ele>267.813</ele>
        <time>2021-10-14T11:23:44Z</time>
      </trkpt>
      <trkpt lat="43.228364" lon="-5.881561">
        <ele>266.761</ele>
        <time>2021-10-14T11:23:46Z</time>
      </trkpt>
      <trkpt lat="43.228519" lon="-5.881788">
        <ele>264.678</ele>
        <time>2021-10-14T11:23:48Z</time>
      </trkpt>
      <trkpt lat="43.228665" lon="-5.882010">
        <ele>262.641</ele>
        <time>2021-10-14T11:23:50Z</time>
      </trkpt>
      <trkpt lat="43.228803" lon="-5.882174">
        <ele>261.288</ele>
        <time>2021-10-14T11:23:52Z</time>
      </trkpt>
      <trkpt lat="43.228951" lon="-5.882218">
        <ele>258.920</ele>
        <time>2021-10-14T11:23:54Z</time>
      </trkpt>
      <trkpt lat="43.229028" lon="-5.882190">
        <ele>257.249</ele>
        <time>2021-10-14T11:23:55Z</time>
      </trkpt>
      <trkpt lat="43.229109" lon="-5.882136">
        <ele>255.745</ele>
        <time>2021-10-14T11:23:56Z</time>
      </trkpt>
      <trkpt lat="43.229269" lon="-5.881985">
        <ele>252.847</ele>
        <time>2021-10-14T11:23:58Z</time>
      </trkpt>
      <trkpt lat="43.229355" lon="-5.881920">
        <ele>251.811</ele>
        <time>2021-10-14T11:23:59Z</time>
      </trkpt>
      <trkpt lat="43.229540" lon="-5.881869">
        <ele>248.908</ele>
        <time>2021-10-14T11:24:01Z</time>
      </trkpt>
      <trkpt lat="43.229635" lon="-5.881870">
        <ele>248.282</ele>
        <time>2021-10-14T11:24:02Z</time>
      </trkpt>
      <trkpt lat="43.229819" lon="-5.881923">
        <ele>247.230</ele>
        <time>2021-10-14T11:24:04Z</time>
      </trkpt>
      <trkpt lat="43.229993" lon="-5.882019">
        <ele>245.218</ele>
        <time>2021-10-14T11:24:06Z</time>
      </trkpt>
      <trkpt lat="43.230161" lon="-5.882127">
        <ele>243.515</ele>
        <time>2021-10-14T11:24:08Z</time>
      </trkpt>
      <trkpt lat="43.230320" lon="-5.882243">
        <ele>241.048</ele>
        <time>2021-10-14T11:24:10Z</time>
      </trkpt>
      <trkpt lat="43.230498" lon="-5.882300">
        <ele>238.535</ele>
        <time>2021-10-14T11:24:12Z</time>
      </trkpt>
      <trkpt lat="43.230664" lon="-5.882244">
        <ele>236.527</ele>
        <time>2021-10-14T11:24:14Z</time>
      </trkpt>
      <trkpt lat="43.230718" lon="-5.882162">
        <ele>236.226</ele>
        <time>2021-10-14T11:24:16Z</time>
      </trkpt>
      <trkpt lat="43.230743" lon="-5.882092">
        <ele>235.384</ele>
        <time>2021-10-14T11:24:18Z</time>
      </trkpt>
      <trkpt lat="43.230776" lon="-5.882036">
        <ele>235.207</ele>
        <time>2021-10-14T11:24:20Z</time>
      </trkpt>
      <trkpt lat="43.230804" lon="-5.881988">
        <ele>234.717</ele>
        <time>2021-10-14T11:24:22Z</time>
      </trkpt>
      <trkpt lat="43.230820" lon="-5.881918">
        <ele>234.708</ele>
        <time>2021-10-14T11:24:25Z</time>
      </trkpt>
      <trkpt lat="43.230904" lon="-5.881876">
        <ele>264.676</ele>
        <time>2021-10-14T11:32:08Z</time>
      </trkpt>
      <trkpt lat="43.230966" lon="-5.881799">
        <ele>284.534</ele>
        <time>2021-10-14T11:32:10Z</time>
      </trkpt>
      <trkpt lat="43.231016" lon="-5.881719">
        <ele>284.592</ele>
        <time>2021-10-14T11:32:12Z</time>
      </trkpt>
      <trkpt lat="43.231068" lon="-5.881628">
        <ele>284.559</ele>
        <time>2021-10-14T11:32:14Z</time>
      </trkpt>
      <trkpt lat="43.231122" lon="-5.881539">
        <ele>284.392</ele>
        <time>2021-10-14T11:32:16Z</time>
      </trkpt>
      <trkpt lat="43.231173" lon="-5.881452">
        <ele>284.379</ele>
        <time>2021-10-14T11:32:18Z</time>
      </trkpt>
      <trkpt lat="43.231215" lon="-5.881376">
        <ele>284.381</ele>
        <time>2021-10-14T11:32:20Z</time>
      </trkpt>
      <trkpt lat="43.231284" lon="-5.881270">
        <ele>284.390</ele>
        <time>2021-10-14T11:32:22Z</time>
      </trkpt>
      <trkpt lat="43.231384" lon="-5.881160">
        <ele>284.355</ele>
        <time>2021-10-14T11:32:24Z</time>
      </trkpt>
      <trkpt lat="43.231524" lon="-5.881057">
        <ele>284.407</ele>
        <time>2021-10-14T11:32:26Z</time>
      </trkpt>
      <trkpt lat="43.231679" lon="-5.880939">
        <ele>284.417</ele>
        <time>2021-10-14T11:32:28Z</time>
      </trkpt>
      <trkpt lat="43.231748" lon="-5.880869">
        <ele>284.408</ele>
        <time>2021-10-14T11:32:29Z</time>
      </trkpt>
      <trkpt lat="43.231808" lon="-5.880791">
        <ele>284.443</ele>
        <time>2021-10-14T11:32:30Z</time>
      </trkpt>
      <trkpt lat="43.231863" lon="-5.880707">
        <ele>284.491</ele>
        <time>2021-10-14T11:32:31Z</time>
      </trkpt>
      <trkpt lat="43.231923" lon="-5.880625">
        <ele>284.469</ele>
        <time>2021-10-14T11:32:32Z</time>
      </trkpt>
      <trkpt lat="43.232068" lon="-5.880502">
        <ele>284.416</ele>
        <time>2021-10-14T11:32:34Z</time>
      </trkpt>
      <trkpt lat="43.232162" lon="-5.880462">
        <ele>284.449</ele>
        <time>2021-10-14T11:32:35Z</time>
      </trkpt>
      <trkpt lat="43.232358" lon="-5.880385">
        <ele>284.486</ele>
        <time>2021-10-14T11:32:37Z</time>
      </trkpt>
      <trkpt lat="43.232460" lon="-5.880329">
        <ele>284.468</ele>
        <time>2021-10-14T11:32:38Z</time>
      </trkpt>
      <trkpt lat="43.232647" lon="-5.880176">
        <ele>284.497</ele>
        <time>2021-10-14T11:32:40Z</time>
      </trkpt>
      <trkpt lat="43.232730" lon="-5.880072">
        <ele>284.493</ele>
        <time>2021-10-14T11:32:41Z</time>
      </trkpt>
      <trkpt lat="43.232879" lon="-5.879841">
        <ele>284.365</ele>
        <time>2021-10-14T11:32:43Z</time>
      </trkpt>
      <trkpt lat="43.232944" lon="-5.879725">
        <ele>284.321</ele>
        <time>2021-10-14T11:32:44Z</time>
      </trkpt>
      <trkpt lat="43.233049" lon="-5.879518">
        <ele>284.308</ele>
        <time>2021-10-14T11:32:46Z</time>
      </trkpt>
      <trkpt lat="43.233101" lon="-5.879425">
        <ele>284.357</ele>
        <time>2021-10-14T11:32:47Z</time>
      </trkpt>
      <trkpt lat="43.233157" lon="-5.879342">
        <ele>284.365</ele>
        <time>2021-10-14T11:32:48Z</time>
      </trkpt>
      <trkpt lat="43.233305" lon="-5.879194">
        <ele>284.423</ele>
        <time>2021-10-14T11:32:50Z</time>
      </trkpt>
      <trkpt lat="43.233493" lon="-5.879049">
        <ele>284.450</ele>
        <time>2021-10-14T11:32:52Z</time>
      </trkpt>
      <trkpt lat="43.233587" lon="-5.878987">
        <ele>284.443</ele>
        <time>2021-10-14T11:32:53Z</time>
      </trkpt>
      <trkpt lat="43.233747" lon="-5.878879">
        <ele>284.440</ele>
        <time>2021-10-14T11:32:55Z</time>
      </trkpt>
      <trkpt lat="43.233818" lon="-5.878830">
        <ele>284.422</ele>
        <time>2021-10-14T11:32:56Z</time>
      </trkpt>
      <trkpt lat="43.233936" lon="-5.878756">
        <ele>284.441</ele>
        <time>2021-10-14T11:32:58Z</time>
      </trkpt>
      <trkpt lat="43.233995" lon="-5.878719">
        <ele>284.434</ele>
        <time>2021-10-14T11:32:59Z</time>
      </trkpt>
      <trkpt lat="43.234060" lon="-5.878681">
        <ele>284.455</ele>
        <time>2021-10-14T11:33:00Z</time>
      </trkpt>
      <trkpt lat="43.234210" lon="-5.878586">
        <ele>284.410</ele>
        <time>2021-10-14T11:33:02Z</time>
      </trkpt>
      <trkpt lat="43.234368" lon="-5.878481">
        <ele>284.408</ele>
        <time>2021-10-14T11:33:04Z</time>
      </trkpt>
      <trkpt lat="43.234522" lon="-5.878382">
        <ele>284.471</ele>
        <time>2021-10-14T11:33:06Z</time>
      </trkpt>
      <trkpt lat="43.234659" lon="-5.878292">
        <ele>233.769</ele>
        <time>2021-10-14T11:33:08Z</time>
      </trkpt>
      <trkpt lat="43.234786" lon="-5.878217">
        <ele>219.977</ele>
        <time>2021-10-14T11:33:10Z</time>
      </trkpt>
      <trkpt lat="43.234862" lon="-5.878171">
        <ele>219.954</ele>
        <time>2021-10-14T11:33:11Z</time>
      </trkpt>
      <trkpt lat="43.235022" lon="-5.878072">
        <ele>220.787</ele>
        <time>2021-10-14T11:33:13Z</time>
      </trkpt>
      <trkpt lat="43.235098" lon="-5.878023">
        <ele>220.994</ele>
        <time>2021-10-14T11:33:14Z</time>
      </trkpt>
      <trkpt lat="43.235231" lon="-5.877947">
        <ele>221.186</ele>
        <time>2021-10-14T11:33:16Z</time>
      </trkpt>
      <trkpt lat="43.235361" lon="-5.877873">
        <ele>221.245</ele>
        <time>2021-10-14T11:33:18Z</time>
      </trkpt>
      <trkpt lat="43.235504" lon="-5.877793">
        <ele>221.231</ele>
        <time>2021-10-14T11:33:20Z</time>
      </trkpt>
      <trkpt lat="43.235653" lon="-5.877710">
        <ele>221.461</ele>
        <time>2021-10-14T11:33:22Z</time>
      </trkpt>
      <trkpt lat="43.235727" lon="-5.877675">
        <ele>221.507</ele>
        <time>2021-10-14T11:33:23Z</time>
      </trkpt>
      <trkpt lat="43.235855" lon="-5.877631">
        <ele>221.508</ele>
        <time>2021-10-14T11:33:25Z</time>
      </trkpt>
      <trkpt lat="43.235917" lon="-5.877617">
        <ele>221.731</ele>
        <time>2021-10-14T11:33:26Z</time>
      </trkpt>
      <trkpt lat="43.236047" lon="-5.877610">
        <ele>221.819</ele>
        <time>2021-10-14T11:33:28Z</time>
      </trkpt>
      <trkpt lat="43.236120" lon="-5.877610">
        <ele>222.457</ele>
        <time>2021-10-14T11:33:29Z</time>
      </trkpt>
      <trkpt lat="43.236196" lon="-5.877614">
        <ele>223.214</ele>
        <time>2021-10-14T11:33:30Z</time>
      </trkpt>
      <trkpt lat="43.236360" lon="-5.877642">
        <ele>223.867</ele>
        <time>2021-10-14T11:33:32Z</time>
      </trkpt>
      <trkpt lat="43.236505" lon="-5.877696">
        <ele>223.894</ele>
        <time>2021-10-14T11:33:34Z</time>
      </trkpt>
      <trkpt lat="43.236573" lon="-5.877734">
        <ele>224.176</ele>
        <time>2021-10-14T11:33:35Z</time>
      </trkpt>
      <trkpt lat="43.236714" lon="-5.877794">
        <ele>223.375</ele>
        <time>2021-10-14T11:33:37Z</time>
      </trkpt>
      <trkpt lat="43.236783" lon="-5.877807">
        <ele>223.198</ele>
        <time>2021-10-14T11:33:38Z</time>
      </trkpt>
      <trkpt lat="43.236925" lon="-5.877804">
        <ele>222.815</ele>
        <time>2021-10-14T11:33:40Z</time>
      </trkpt>
      <trkpt lat="43.237008" lon="-5.877800">
        <ele>222.926</ele>
        <time>2021-10-14T11:33:41Z</time>
      </trkpt>
      <trkpt lat="43.237188" lon="-5.877784">
        <ele>222.708</ele>
        <time>2021-10-14T11:33:43Z</time>
      </trkpt>
      <trkpt lat="43.237289" lon="-5.877762">
        <ele>222.527</ele>
        <time>2021-10-14T11:33:44Z</time>
      </trkpt>
      <trkpt lat="43.237496" lon="-5.877700">
        <ele>222.045</ele>
        <time>2021-10-14T11:33:46Z</time>
      </trkpt>
      <trkpt lat="43.237705" lon="-5.877606">
        <ele>222.213</ele>
        <time>2021-10-14T11:33:48Z</time>
      </trkpt>
      <trkpt lat="43.237809" lon="-5.877541">
        <ele>222.510</ele>
        <time>2021-10-14T11:33:49Z</time>
      </trkpt>
      <trkpt lat="43.237916" lon="-5.877465">
        <ele>222.533</ele>
        <time>2021-10-14T11:33:50Z</time>
      </trkpt>
      <trkpt lat="43.238118" lon="-5.877293">
        <ele>224.050</ele>
        <time>2021-10-14T11:33:52Z</time>
      </trkpt>
      <trkpt lat="43.238324" lon="-5.877090">
        <ele>225.852</ele>
        <time>2021-10-14T11:33:54Z</time>
      </trkpt>
      <trkpt lat="43.238548" lon="-5.876848">
        <ele>227.321</ele>
        <time>2021-10-14T11:33:56Z</time>
      </trkpt>
      <trkpt lat="43.238713" lon="-5.876631">
        <ele>229.284</ele>
        <time>2021-10-14T11:33:58Z</time>
      </trkpt>
      <trkpt lat="43.238784" lon="-5.876513">
        <ele>229.407</ele>
        <time>2021-10-14T11:33:59Z</time>
      </trkpt>
      <trkpt lat="43.238855" lon="-5.876396">
        <ele>230.417</ele>
        <time>2021-10-14T11:34:00Z</time>
      </trkpt>
      <trkpt lat="43.239020" lon="-5.876195">
        <ele>232.608</ele>
        <time>2021-10-14T11:34:02Z</time>
      </trkpt>
      <trkpt lat="43.239120" lon="-5.876117">
        <ele>232.966</ele>
        <time>2021-10-14T11:34:03Z</time>
      </trkpt>
      <trkpt lat="43.239227" lon="-5.876056">
        <ele>233.784</ele>
        <time>2021-10-14T11:34:04Z</time>
      </trkpt>
      <trkpt lat="43.239345" lon="-5.876005">
        <ele>233.822</ele>
        <time>2021-10-14T11:34:05Z</time>
      </trkpt>
      <trkpt lat="43.239473" lon="-5.875955">
        <ele>234.489</ele>
        <time>2021-10-14T11:34:06Z</time>
      </trkpt>
      <trkpt lat="43.239743" lon="-5.875830">
        <ele>235.292</ele>
        <time>2021-10-14T11:34:08Z</time>
      </trkpt>
      <trkpt lat="43.240006" lon="-5.875648">
        <ele>235.239</ele>
        <time>2021-10-14T11:34:10Z</time>
      </trkpt>
      <trkpt lat="43.240235" lon="-5.875403">
        <ele>235.641</ele>
        <time>2021-10-14T11:34:12Z</time>
      </trkpt>
      <trkpt lat="43.240453" lon="-5.875180">
        <ele>237.640</ele>
        <time>2021-10-14T11:34:14Z</time>
      </trkpt>
      <trkpt lat="43.240703" lon="-5.875058">
        <ele>238.258</ele>
        <time>2021-10-14T11:34:16Z</time>
      </trkpt>
      <trkpt lat="43.240845" lon="-5.875043">
        <ele>239.452</ele>
        <time>2021-10-14T11:34:17Z</time>
      </trkpt>
      <trkpt lat="43.241145" lon="-5.875055">
        <ele>241.617</ele>
        <time>2021-10-14T11:34:19Z</time>
      </trkpt>
      <trkpt lat="43.241296" lon="-5.875045">
        <ele>241.908</ele>
        <time>2021-10-14T11:34:20Z</time>
      </trkpt>
      <trkpt lat="43.241578" lon="-5.874945">
        <ele>243.833</ele>
        <time>2021-10-14T11:34:22Z</time>
      </trkpt>
      <trkpt lat="43.241715" lon="-5.874864">
        <ele>244.691</ele>
        <time>2021-10-14T11:34:23Z</time>
      </trkpt>
      <trkpt lat="43.241968" lon="-5.874672">
        <ele>246.519</ele>
        <time>2021-10-14T11:34:25Z</time>
      </trkpt>
      <trkpt lat="43.242082" lon="-5.874571">
        <ele>246.896</ele>
        <time>2021-10-14T11:34:26Z</time>
      </trkpt>
      <trkpt lat="43.242265" lon="-5.874337">
        <ele>246.619</ele>
        <time>2021-10-14T11:34:28Z</time>
      </trkpt>
      <trkpt lat="43.242365" lon="-5.874043">
        <ele>245.956</ele>
        <time>2021-10-14T11:34:30Z</time>
      </trkpt>
      <trkpt lat="43.242384" lon="-5.873881">
        <ele>245.078</ele>
        <time>2021-10-14T11:34:31Z</time>
      </trkpt>
      <trkpt lat="43.242436" lon="-5.873558">
        <ele>245.057</ele>
        <time>2021-10-14T11:34:33Z</time>
      </trkpt>
      <trkpt lat="43.242494" lon="-5.873407">
        <ele>244.189</ele>
        <time>2021-10-14T11:34:34Z</time>
      </trkpt>
      <trkpt lat="43.242582" lon="-5.873262">
        <ele>244.106</ele>
        <time>2021-10-14T11:34:35Z</time>
      </trkpt>
      <trkpt lat="43.242830" lon="-5.873025">
        <ele>241.426</ele>
        <time>2021-10-14T11:34:37Z</time>
      </trkpt>
      <trkpt lat="43.242959" lon="-5.872924">
        <ele>240.608</ele>
        <time>2021-10-14T11:34:38Z</time>
      </trkpt>
      <trkpt lat="43.243193" lon="-5.872734">
        <ele>238.456</ele>
        <time>2021-10-14T11:34:40Z</time>
      </trkpt>
      <trkpt lat="43.243421" lon="-5.872553">
        <ele>236.014</ele>
        <time>2021-10-14T11:34:42Z</time>
      </trkpt>
      <trkpt lat="43.243670" lon="-5.872397">
        <ele>232.942</ele>
        <time>2021-10-14T11:34:44Z</time>
      </trkpt>
      <trkpt lat="43.243951" lon="-5.872329">
        <ele>229.859</ele>
        <time>2021-10-14T11:34:46Z</time>
      </trkpt>
      <trkpt lat="43.244098" lon="-5.872342">
        <ele>228.772</ele>
        <time>2021-10-14T11:34:47Z</time>
      </trkpt>
      <trkpt lat="43.244391" lon="-5.872368">
        <ele>225.779</ele>
        <time>2021-10-14T11:34:49Z</time>
      </trkpt>
      <trkpt lat="43.244540" lon="-5.872326">
        <ele>224.231</ele>
        <time>2021-10-14T11:34:50Z</time>
      </trkpt>
      <trkpt lat="43.244789" lon="-5.872133">
        <ele>222.310</ele>
        <time>2021-10-14T11:34:52Z</time>
      </trkpt>
      <trkpt lat="43.244986" lon="-5.871835">
        <ele>219.634</ele>
        <time>2021-10-14T11:34:54Z</time>
      </trkpt>
      <trkpt lat="43.245186" lon="-5.871592">
        <ele>217.155</ele>
        <time>2021-10-14T11:34:56Z</time>
      </trkpt>
      <trkpt lat="43.245426" lon="-5.871489">
        <ele>215.710</ele>
        <time>2021-10-14T11:34:58Z</time>
      </trkpt>
      <trkpt lat="43.245573" lon="-5.871498">
        <ele>214.808</ele>
        <time>2021-10-14T11:34:59Z</time>
      </trkpt>
      <trkpt lat="43.245733" lon="-5.871535">
        <ele>213.361</ele>
        <time>2021-10-14T11:35:00Z</time>
      </trkpt>
      <trkpt lat="43.245900" lon="-5.871574">
        <ele>212.239</ele>
        <time>2021-10-14T11:35:01Z</time>
      </trkpt>
      <trkpt lat="43.246223" lon="-5.871621">
        <ele>209.287</ele>
        <time>2021-10-14T11:35:03Z</time>
      </trkpt>
      <trkpt lat="43.246383" lon="-5.871607">
        <ele>207.734</ele>
        <time>2021-10-14T11:35:04Z</time>
      </trkpt>
      <trkpt lat="43.246689" lon="-5.871512">
        <ele>204.987</ele>
        <time>2021-10-14T11:35:06Z</time>
      </trkpt>
      <trkpt lat="43.246837" lon="-5.871453">
        <ele>203.564</ele>
        <time>2021-10-14T11:35:07Z</time>
      </trkpt>
      <trkpt lat="43.246983" lon="-5.871399">
        <ele>202.026</ele>
        <time>2021-10-14T11:35:08Z</time>
      </trkpt>
      <trkpt lat="43.247245" lon="-5.871332">
        <ele>200.085</ele>
        <time>2021-10-14T11:35:10Z</time>
      </trkpt>
      <trkpt lat="43.247502" lon="-5.871377">
        <ele>197.928</ele>
        <time>2021-10-14T11:35:12Z</time>
      </trkpt>
      <trkpt lat="43.247627" lon="-5.871451">
        <ele>196.789</ele>
        <time>2021-10-14T11:35:13Z</time>
      </trkpt>
      <trkpt lat="43.247753" lon="-5.871546">
        <ele>195.617</ele>
        <time>2021-10-14T11:35:14Z</time>
      </trkpt>
      <trkpt lat="43.247999" lon="-5.871707">
        <ele>192.408</ele>
        <time>2021-10-14T11:35:16Z</time>
      </trkpt>
      <trkpt lat="43.248240" lon="-5.871844">
        <ele>190.630</ele>
        <time>2021-10-14T11:35:18Z</time>
      </trkpt>
      <trkpt lat="43.248466" lon="-5.872065">
        <ele>189.488</ele>
        <time>2021-10-14T11:35:20Z</time>
      </trkpt>
      <trkpt lat="43.248685" lon="-5.872325">
        <ele>186.636</ele>
        <time>2021-10-14T11:35:22Z</time>
      </trkpt>
      <trkpt lat="43.248935" lon="-5.872499">
        <ele>183.813</ele>
        <time>2021-10-14T11:35:24Z</time>
      </trkpt>
      <trkpt lat="43.249219" lon="-5.872560">
        <ele>181.776</ele>
        <time>2021-10-14T11:35:26Z</time>
      </trkpt>
      <trkpt lat="43.249479" lon="-5.872579">
        <ele>179.573</ele>
        <time>2021-10-14T11:35:28Z</time>
      </trkpt>
      <trkpt lat="43.249745" lon="-5.872592">
        <ele>176.775</ele>
        <time>2021-10-14T11:35:30Z</time>
      </trkpt>
      <trkpt lat="43.249873" lon="-5.872605">
        <ele>176.784</ele>
        <time>2021-10-14T11:35:31Z</time>
      </trkpt>
      <trkpt lat="43.250000" lon="-5.872625">
        <ele>176.351</ele>
        <time>2021-10-14T11:35:32Z</time>
      </trkpt>
      <trkpt lat="43.250228" lon="-5.872646">
        <ele>174.901</ele>
        <time>2021-10-14T11:35:34Z</time>
      </trkpt>
      <trkpt lat="43.250460" lon="-5.872598">
        <ele>173.511</ele>
        <time>2021-10-14T11:35:36Z</time>
      </trkpt>
      <trkpt lat="43.250569" lon="-5.872557">
        <ele>172.708</ele>
        <time>2021-10-14T11:35:37Z</time>
      </trkpt>
      <trkpt lat="43.250676" lon="-5.872520">
        <ele>172.713</ele>
        <time>2021-10-14T11:35:38Z</time>
      </trkpt>
      <trkpt lat="43.250870" lon="-5.872460">
        <ele>172.061</ele>
        <time>2021-10-14T11:35:40Z</time>
      </trkpt>
      <trkpt lat="43.250966" lon="-5.872433">
        <ele>172.089</ele>
        <time>2021-10-14T11:35:41Z</time>
      </trkpt>
      <trkpt lat="43.251169" lon="-5.872418">
        <ele>171.046</ele>
        <time>2021-10-14T11:35:43Z</time>
      </trkpt>
      <trkpt lat="43.251273" lon="-5.872426">
        <ele>170.719</ele>
        <time>2021-10-14T11:35:44Z</time>
      </trkpt>
      <trkpt lat="43.251465" lon="-5.872415">
        <ele>170.336</ele>
        <time>2021-10-14T11:35:46Z</time>
      </trkpt>
      <trkpt lat="43.251554" lon="-5.872385">
        <ele>171.128</ele>
        <time>2021-10-14T11:35:47Z</time>
      </trkpt>
      <trkpt lat="43.251735" lon="-5.872307">
        <ele>171.357</ele>
        <time>2021-10-14T11:35:49Z</time>
      </trkpt>
      <trkpt lat="43.251827" lon="-5.872269">
        <ele>171.398</ele>
        <time>2021-10-14T11:35:50Z</time>
      </trkpt>
      <trkpt lat="43.252001" lon="-5.872199">
        <ele>171.315</ele>
        <time>2021-10-14T11:35:52Z</time>
      </trkpt>
      <trkpt lat="43.252101" lon="-5.872164">
        <ele>171.426</ele>
        <time>2021-10-14T11:35:53Z</time>
      </trkpt>
      <trkpt lat="43.252201" lon="-5.872128">
        <ele>171.408</ele>
        <time>2021-10-14T11:35:54Z</time>
      </trkpt>
      <trkpt lat="43.252385" lon="-5.872052">
        <ele>171.487</ele>
        <time>2021-10-14T11:35:56Z</time>
      </trkpt>
      <trkpt lat="43.252556" lon="-5.871971">
        <ele>172.585</ele>
        <time>2021-10-14T11:35:58Z</time>
      </trkpt>
      <trkpt lat="43.252645" lon="-5.871922">
        <ele>172.513</ele>
        <time>2021-10-14T11:35:59Z</time>
      </trkpt>
      <trkpt lat="43.252735" lon="-5.871867">
        <ele>172.520</ele>
        <time>2021-10-14T11:36:00Z</time>
      </trkpt>
      <trkpt lat="43.252912" lon="-5.871741">
        <ele>172.673</ele>
        <time>2021-10-14T11:36:02Z</time>
      </trkpt>
      <trkpt lat="43.253091" lon="-5.871599">
        <ele>172.060</ele>
        <time>2021-10-14T11:36:04Z</time>
      </trkpt>
      <trkpt lat="43.253182" lon="-5.871524">
        <ele>171.962</ele>
        <time>2021-10-14T11:36:05Z</time>
      </trkpt>
      <trkpt lat="43.253272" lon="-5.871449">
        <ele>171.981</ele>
        <time>2021-10-14T11:36:06Z</time>
      </trkpt>
      <trkpt lat="43.253453" lon="-5.871297">
        <ele>170.886</ele>
        <time>2021-10-14T11:36:08Z</time>
      </trkpt>
      <trkpt lat="43.253605" lon="-5.871171">
        <ele>170.460</ele>
        <time>2021-10-14T11:36:10Z</time>
      </trkpt>
      <trkpt lat="43.253735" lon="-5.871064">
        <ele>170.226</ele>
        <time>2021-10-14T11:36:12Z</time>
      </trkpt>
      <trkpt lat="43.253799" lon="-5.871012">
        <ele>170.208</ele>
        <time>2021-10-14T11:36:13Z</time>
      </trkpt>
      <trkpt lat="43.253863" lon="-5.870959">
        <ele>170.456</ele>
        <time>2021-10-14T11:36:14Z</time>
      </trkpt>
      <trkpt lat="43.253998" lon="-5.870841">
        <ele>170.164</ele>
        <time>2021-10-14T11:36:16Z</time>
      </trkpt>
      <trkpt lat="43.254146" lon="-5.870705">
        <ele>169.342</ele>
        <time>2021-10-14T11:36:18Z</time>
      </trkpt>
      <trkpt lat="43.254216" lon="-5.870642">
        <ele>168.679</ele>
        <time>2021-10-14T11:36:19Z</time>
      </trkpt>
      <trkpt lat="43.254288" lon="-5.870579">
        <ele>168.012</ele>
        <time>2021-10-14T11:36:20Z</time>
      </trkpt>
      <trkpt lat="43.254431" lon="-5.870456">
        <ele>168.029</ele>
        <time>2021-10-14T11:36:22Z</time>
      </trkpt>
      <trkpt lat="43.254508" lon="-5.870395">
        <ele>168.251</ele>
        <time>2021-10-14T11:36:23Z</time>
      </trkpt>
      <trkpt lat="43.254588" lon="-5.870335">
        <ele>168.420</ele>
        <time>2021-10-14T11:36:24Z</time>
      </trkpt>
      <trkpt lat="43.254775" lon="-5.870256">
        <ele>167.955</ele>
        <time>2021-10-14T11:36:26Z</time>
      </trkpt>
      <trkpt lat="43.254989" lon="-5.870288">
        <ele>167.107</ele>
        <time>2021-10-14T11:36:28Z</time>
      </trkpt>
      <trkpt lat="43.255104" lon="-5.870335">
        <ele>166.717</ele>
        <time>2021-10-14T11:36:29Z</time>
      </trkpt>
      <trkpt lat="43.255210" lon="-5.870383">
        <ele>166.308</ele>
        <time>2021-10-14T11:36:30Z</time>
      </trkpt>
      <trkpt lat="43.255308" lon="-5.870428">
        <ele>166.313</ele>
        <time>2021-10-14T11:36:31Z</time>
      </trkpt>
      <trkpt lat="43.255410" lon="-5.870472">
        <ele>166.331</ele>
        <time>2021-10-14T11:36:32Z</time>
      </trkpt>
      <trkpt lat="43.255606" lon="-5.870555">
        <ele>166.369</ele>
        <time>2021-10-14T11:36:34Z</time>
      </trkpt>
      <trkpt lat="43.255814" lon="-5.870629">
        <ele>166.196</ele>
        <time>2021-10-14T11:36:36Z</time>
      </trkpt>
      <trkpt lat="43.255925" lon="-5.870658">
        <ele>166.199</ele>
        <time>2021-10-14T11:36:37Z</time>
      </trkpt>
      <trkpt lat="43.256048" lon="-5.870685">
        <ele>165.756</ele>
        <time>2021-10-14T11:36:38Z</time>
      </trkpt>
      <trkpt lat="43.256304" lon="-5.870733">
        <ele>165.768</ele>
        <time>2021-10-14T11:36:40Z</time>
      </trkpt>
      <trkpt lat="43.256445" lon="-5.870741">
        <ele>165.297</ele>
        <time>2021-10-14T11:36:41Z</time>
      </trkpt>
      <trkpt lat="43.256590" lon="-5.870726">
        <ele>166.148</ele>
        <time>2021-10-14T11:36:42Z</time>
      </trkpt>
      <trkpt lat="43.256870" lon="-5.870643">
        <ele>166.461</ele>
        <time>2021-10-14T11:36:44Z</time>
      </trkpt>
      <trkpt lat="43.257111" lon="-5.870515">
        <ele>166.517</ele>
        <time>2021-10-14T11:36:46Z</time>
      </trkpt>
      <trkpt lat="43.257219" lon="-5.870447">
        <ele>166.708</ele>
        <time>2021-10-14T11:36:47Z</time>
      </trkpt>
      <trkpt lat="43.257430" lon="-5.870303">
        <ele>166.782</ele>
        <time>2021-10-14T11:36:49Z</time>
      </trkpt>
      <trkpt lat="43.257537" lon="-5.870225">
        <ele>166.590</ele>
        <time>2021-10-14T11:36:50Z</time>
      </trkpt>
      <trkpt lat="43.257752" lon="-5.870070">
        <ele>165.488</ele>
        <time>2021-10-14T11:36:52Z</time>
      </trkpt>
      <trkpt lat="43.257872" lon="-5.869986">
        <ele>165.365</ele>
        <time>2021-10-14T11:36:53Z</time>
      </trkpt>
      <trkpt lat="43.258107" lon="-5.869836">
        <ele>164.668</ele>
        <time>2021-10-14T11:36:55Z</time>
      </trkpt>
      <trkpt lat="43.258229" lon="-5.869773">
        <ele>164.455</ele>
        <time>2021-10-14T11:36:56Z</time>
      </trkpt>
      <trkpt lat="43.258446" lon="-5.869690">
        <ele>163.797</ele>
        <time>2021-10-14T11:36:58Z</time>
      </trkpt>
      <trkpt lat="43.258549" lon="-5.869638">
        <ele>162.916</ele>
        <time>2021-10-14T11:36:59Z</time>
      </trkpt>
      <trkpt lat="43.258650" lon="-5.869582">
        <ele>163.698</ele>
        <time>2021-10-14T11:37:00Z</time>
      </trkpt>
      <trkpt lat="43.258753" lon="-5.869528">
        <ele>163.615</ele>
        <time>2021-10-14T11:37:01Z</time>
      </trkpt>
      <trkpt lat="43.258860" lon="-5.869474">
        <ele>163.626</ele>
        <time>2021-10-14T11:37:02Z</time>
      </trkpt>
      <trkpt lat="43.259067" lon="-5.869419">
        <ele>164.608</ele>
        <time>2021-10-14T11:37:04Z</time>
      </trkpt>
      <trkpt lat="43.259183" lon="-5.869430">
        <ele>164.687</ele>
        <time>2021-10-14T11:37:05Z</time>
      </trkpt>
      <trkpt lat="43.259303" lon="-5.869474">
        <ele>164.975</ele>
        <time>2021-10-14T11:37:06Z</time>
      </trkpt>
      <trkpt lat="43.259429" lon="-5.869545">
        <ele>164.963</ele>
        <time>2021-10-14T11:37:07Z</time>
      </trkpt>
      <trkpt lat="43.259564" lon="-5.869621">
        <ele>164.930</ele>
        <time>2021-10-14T11:37:08Z</time>
      </trkpt>
      <trkpt lat="43.259830" lon="-5.869725">
        <ele>164.843</ele>
        <time>2021-10-14T11:37:10Z</time>
      </trkpt>
      <trkpt lat="43.259961" lon="-5.869749">
        <ele>164.680</ele>
        <time>2021-10-14T11:37:11Z</time>
      </trkpt>
      <trkpt lat="43.260198" lon="-5.869739">
        <ele>165.022</ele>
        <time>2021-10-14T11:37:13Z</time>
      </trkpt>
      <trkpt lat="43.260310" lon="-5.869697">
        <ele>165.561</ele>
        <time>2021-10-14T11:37:14Z</time>
      </trkpt>
      <trkpt lat="43.260498" lon="-5.869549">
        <ele>164.681</ele>
        <time>2021-10-14T11:37:16Z</time>
      </trkpt>
      <trkpt lat="43.260591" lon="-5.869463">
        <ele>164.661</ele>
        <time>2021-10-14T11:37:17Z</time>
      </trkpt>
      <trkpt lat="43.260802" lon="-5.869326">
        <ele>162.517</ele>
        <time>2021-10-14T11:37:19Z</time>
      </trkpt>
      <trkpt lat="43.260935" lon="-5.869266">
        <ele>162.208</ele>
        <time>2021-10-14T11:37:20Z</time>
      </trkpt>
      <trkpt lat="43.261211" lon="-5.869178">
        <ele>159.976</ele>
        <time>2021-10-14T11:37:22Z</time>
      </trkpt>
      <trkpt lat="43.261349" lon="-5.869144">
        <ele>158.774</ele>
        <time>2021-10-14T11:37:23Z</time>
      </trkpt>
      <trkpt lat="43.261619" lon="-5.869079">
        <ele>157.012</ele>
        <time>2021-10-14T11:37:25Z</time>
      </trkpt>
      <trkpt lat="43.261762" lon="-5.869056">
        <ele>156.059</ele>
        <time>2021-10-14T11:37:26Z</time>
      </trkpt>
      <trkpt lat="43.262046" lon="-5.869091">
        <ele>153.682</ele>
        <time>2021-10-14T11:37:28Z</time>
      </trkpt>
      <trkpt lat="43.262198" lon="-5.869142">
        <ele>152.619</ele>
        <time>2021-10-14T11:37:29Z</time>
      </trkpt>
      <trkpt lat="43.262494" lon="-5.869261">
        <ele>150.071</ele>
        <time>2021-10-14T11:37:31Z</time>
      </trkpt>
      <trkpt lat="43.262651" lon="-5.869303">
        <ele>149.490</ele>
        <time>2021-10-14T11:37:32Z</time>
      </trkpt>
      <trkpt lat="43.262941" lon="-5.869281">
        <ele>146.355</ele>
        <time>2021-10-14T11:37:34Z</time>
      </trkpt>
      <trkpt lat="43.263072" lon="-5.869202">
        <ele>145.307</ele>
        <time>2021-10-14T11:37:35Z</time>
      </trkpt>
      <trkpt lat="43.263184" lon="-5.869085">
        <ele>144.317</ele>
        <time>2021-10-14T11:37:36Z</time>
      </trkpt>
      <trkpt lat="43.263363" lon="-5.868829">
        <ele>142.608</ele>
        <time>2021-10-14T11:37:38Z</time>
      </trkpt>
      <trkpt lat="43.263576" lon="-5.868690">
        <ele>141.353</ele>
        <time>2021-10-14T11:37:40Z</time>
      </trkpt>
      <trkpt lat="43.263699" lon="-5.868682">
        <ele>140.591</ele>
        <time>2021-10-14T11:37:41Z</time>
      </trkpt>
      <trkpt lat="43.263955" lon="-5.868757">
        <ele>138.939</ele>
        <time>2021-10-14T11:37:43Z</time>
      </trkpt>
      <trkpt lat="43.264083" lon="-5.868808">
        <ele>138.676</ele>
        <time>2021-10-14T11:37:44Z</time>
      </trkpt>
      <trkpt lat="43.264303" lon="-5.868904">
        <ele>137.919</ele>
        <time>2021-10-14T11:37:46Z</time>
      </trkpt>
      <trkpt lat="43.264508" lon="-5.868974">
        <ele>138.036</ele>
        <time>2021-10-14T11:37:48Z</time>
      </trkpt>
      <trkpt lat="43.264601" lon="-5.869005">
        <ele>137.418</ele>
        <time>2021-10-14T11:37:49Z</time>
      </trkpt>
      <trkpt lat="43.264694" lon="-5.869033">
        <ele>137.557</ele>
        <time>2021-10-14T11:37:50Z</time>
      </trkpt>
      <trkpt lat="43.264881" lon="-5.869087">
        <ele>137.577</ele>
        <time>2021-10-14T11:37:52Z</time>
      </trkpt>
      <trkpt lat="43.264989" lon="-5.869112">
        <ele>137.761</ele>
        <time>2021-10-14T11:37:53Z</time>
      </trkpt>
      <trkpt lat="43.265111" lon="-5.869134">
        <ele>137.827</ele>
        <time>2021-10-14T11:37:54Z</time>
      </trkpt>
      <trkpt lat="43.265400" lon="-5.869152">
        <ele>138.408</ele>
        <time>2021-10-14T11:37:56Z</time>
      </trkpt>
      <trkpt lat="43.265689" lon="-5.869142">
        <ele>139.845</ele>
        <time>2021-10-14T11:37:58Z</time>
      </trkpt>
      <trkpt lat="43.265965" lon="-5.869114">
        <ele>139.653</ele>
        <time>2021-10-14T11:38:00Z</time>
      </trkpt>
      <trkpt lat="43.266098" lon="-5.869106">
        <ele>138.941</ele>
        <time>2021-10-14T11:38:01Z</time>
      </trkpt>
      <trkpt lat="43.266232" lon="-5.869102">
        <ele>138.188</ele>
        <time>2021-10-14T11:38:02Z</time>
      </trkpt>
      <trkpt lat="43.266476" lon="-5.869067">
        <ele>136.841</ele>
        <time>2021-10-14T11:38:04Z</time>
      </trkpt>
      <trkpt lat="43.266591" lon="-5.869004">
        <ele>135.398</ele>
        <time>2021-10-14T11:38:05Z</time>
      </trkpt>
      <trkpt lat="43.266697" lon="-5.868905">
        <ele>135.260</ele>
        <time>2021-10-14T11:38:06Z</time>
      </trkpt>
      <trkpt lat="43.266789" lon="-5.868775">
        <ele>135.029</ele>
        <time>2021-10-14T11:38:07Z</time>
      </trkpt>
      <trkpt lat="43.266873" lon="-5.868619">
        <ele>133.863</ele>
        <time>2021-10-14T11:38:08Z</time>
      </trkpt>
      <trkpt lat="43.267043" lon="-5.868321">
        <ele>131.944</ele>
        <time>2021-10-14T11:38:10Z</time>
      </trkpt>
      <trkpt lat="43.267267" lon="-5.868076">
        <ele>129.218</ele>
        <time>2021-10-14T11:38:12Z</time>
      </trkpt>
      <trkpt lat="43.267394" lon="-5.867958">
        <ele>127.908</ele>
        <time>2021-10-14T11:38:13Z</time>
      </trkpt>
      <trkpt lat="43.267516" lon="-5.867842">
        <ele>127.594</ele>
        <time>2021-10-14T11:38:14Z</time>
      </trkpt>
      <trkpt lat="43.267730" lon="-5.867613">
        <ele>125.692</ele>
        <time>2021-10-14T11:38:16Z</time>
      </trkpt>
      <trkpt lat="43.267820" lon="-5.867487">
        <ele>124.710</ele>
        <time>2021-10-14T11:38:17Z</time>
      </trkpt>
      <trkpt lat="43.267961" lon="-5.867221">
        <ele>123.817</ele>
        <time>2021-10-14T11:38:19Z</time>
      </trkpt>
      <trkpt lat="43.268020" lon="-5.867078">
        <ele>123.640</ele>
        <time>2021-10-14T11:38:20Z</time>
      </trkpt>
      <trkpt lat="43.268131" lon="-5.866784">
        <ele>121.537</ele>
        <time>2021-10-14T11:38:22Z</time>
      </trkpt>
      <trkpt lat="43.268258" lon="-5.866454">
        <ele>121.359</ele>
        <time>2021-10-14T11:38:24Z</time>
      </trkpt>
      <trkpt lat="43.268412" lon="-5.866148">
        <ele>118.688</ele>
        <time>2021-10-14T11:38:26Z</time>
      </trkpt>
      <trkpt lat="43.268614" lon="-5.865950">
        <ele>117.872</ele>
        <time>2021-10-14T11:38:28Z</time>
      </trkpt>
      <trkpt lat="43.268886" lon="-5.865886">
        <ele>117.513</ele>
        <time>2021-10-14T11:38:30Z</time>
      </trkpt>
      <trkpt lat="43.269034" lon="-5.865899">
        <ele>116.914</ele>
        <time>2021-10-14T11:38:31Z</time>
      </trkpt>
      <trkpt lat="43.269353" lon="-5.865980">
        <ele>115.208</ele>
        <time>2021-10-14T11:38:33Z</time>
      </trkpt>
      <trkpt lat="43.269695" lon="-5.866022">
        <ele>113.685</ele>
        <time>2021-10-14T11:38:35Z</time>
      </trkpt>
      <trkpt lat="43.269872" lon="-5.866005">
        <ele>112.593</ele>
        <time>2021-10-14T11:38:36Z</time>
      </trkpt>
      <trkpt lat="43.270050" lon="-5.865969">
        <ele>112.111</ele>
        <time>2021-10-14T11:38:37Z</time>
      </trkpt>
      <trkpt lat="43.270229" lon="-5.865925">
        <ele>112.588</ele>
        <time>2021-10-14T11:38:38Z</time>
      </trkpt>
      <trkpt lat="43.270543" lon="-5.865842">
        <ele>112.081</ele>
        <time>2021-10-14T11:38:40Z</time>
      </trkpt>
      <trkpt lat="43.270693" lon="-5.865810">
        <ele>111.898</ele>
        <time>2021-10-14T11:38:41Z</time>
      </trkpt>
      <trkpt lat="43.270839" lon="-5.865800">
        <ele>111.870</ele>
        <time>2021-10-14T11:38:42Z</time>
      </trkpt>
      <trkpt lat="43.271115" lon="-5.865850">
        <ele>111.159</ele>
        <time>2021-10-14T11:38:44Z</time>
      </trkpt>
      <trkpt lat="43.271342" lon="-5.865937">
        <ele>110.115</ele>
        <time>2021-10-14T11:38:46Z</time>
      </trkpt>
      <trkpt lat="43.271541" lon="-5.866033">
        <ele>109.065</ele>
        <time>2021-10-14T11:38:48Z</time>
      </trkpt>
      <trkpt lat="43.271647" lon="-5.866079">
        <ele>109.011</ele>
        <time>2021-10-14T11:38:49Z</time>
      </trkpt>
      <trkpt lat="43.271763" lon="-5.866125">
        <ele>109.808</ele>
        <time>2021-10-14T11:38:50Z</time>
      </trkpt>
      <trkpt lat="43.271998" lon="-5.866222">
        <ele>110.589</ele>
        <time>2021-10-14T11:38:52Z</time>
      </trkpt>
      <trkpt lat="43.272243" lon="-5.866287">
        <ele>110.537</ele>
        <time>2021-10-14T11:38:54Z</time>
      </trkpt>
      <trkpt lat="43.272479" lon="-5.866261">
        <ele>111.325</ele>
        <time>2021-10-14T11:38:56Z</time>
      </trkpt>
      <trkpt lat="43.272706" lon="-5.866147">
        <ele>112.652</ele>
        <time>2021-10-14T11:38:58Z</time>
      </trkpt>
      <trkpt lat="43.272827" lon="-5.866069">
        <ele>112.615</ele>
        <time>2021-10-14T11:38:59Z</time>
      </trkpt>
      <trkpt lat="43.273056" lon="-5.865898">
        <ele>111.522</ele>
        <time>2021-10-14T11:39:01Z</time>
      </trkpt>
      <trkpt lat="43.273157" lon="-5.865791">
        <ele>111.594</ele>
        <time>2021-10-14T11:39:02Z</time>
      </trkpt>
      <trkpt lat="43.273321" lon="-5.865512">
        <ele>111.133</ele>
        <time>2021-10-14T11:39:04Z</time>
      </trkpt>
      <trkpt lat="43.273378" lon="-5.865335">
        <ele>110.758</ele>
        <time>2021-10-14T11:39:05Z</time>
      </trkpt>
      <trkpt lat="43.273420" lon="-5.865149">
        <ele>109.752</ele>
        <time>2021-10-14T11:39:06Z</time>
      </trkpt>
      <trkpt lat="43.273455" lon="-5.864969">
        <ele>109.117</ele>
        <time>2021-10-14T11:39:07Z</time>
      </trkpt>
      <trkpt lat="43.273500" lon="-5.864798">
        <ele>108.408</ele>
        <time>2021-10-14T11:39:08Z</time>
      </trkpt>
      <trkpt lat="43.273658" lon="-5.864525">
        <ele>107.553</ele>
        <time>2021-10-14T11:39:10Z</time>
      </trkpt>
      <trkpt lat="43.273774" lon="-5.864413">
        <ele>107.591</ele>
        <time>2021-10-14T11:39:11Z</time>
      </trkpt>
      <trkpt lat="43.273910" lon="-5.864308">
        <ele>106.729</ele>
        <time>2021-10-14T11:39:12Z</time>
      </trkpt>
      <trkpt lat="43.274058" lon="-5.864199">
        <ele>106.836</ele>
        <time>2021-10-14T11:39:13Z</time>
      </trkpt>
      <trkpt lat="43.274214" lon="-5.864078">
        <ele>105.939</ele>
        <time>2021-10-14T11:39:14Z</time>
      </trkpt>
      <trkpt lat="43.274530" lon="-5.863820">
        <ele>104.916</ele>
        <time>2021-10-14T11:39:16Z</time>
      </trkpt>
      <trkpt lat="43.274704" lon="-5.863684">
        <ele>105.158</ele>
        <time>2021-10-14T11:39:17Z</time>
      </trkpt>
      <trkpt lat="43.275053" lon="-5.863476">
        <ele>102.867</ele>
        <time>2021-10-14T11:39:19Z</time>
      </trkpt>
      <trkpt lat="43.275225" lon="-5.863391">
        <ele>102.435</ele>
        <time>2021-10-14T11:39:20Z</time>
      </trkpt>
      <trkpt lat="43.275532" lon="-5.863222">
        <ele>100.686</ele>
        <time>2021-10-14T11:39:22Z</time>
      </trkpt>
      <trkpt lat="43.275792" lon="-5.863029">
        <ele>98.714</ele>
        <time>2021-10-14T11:39:24Z</time>
      </trkpt>
      <trkpt lat="43.276013" lon="-5.862859">
        <ele>97.208</ele>
        <time>2021-10-14T11:39:26Z</time>
      </trkpt>
      <trkpt lat="43.276116" lon="-5.862791">
        <ele>97.081</ele>
        <time>2021-10-14T11:39:27Z</time>
      </trkpt>
      <trkpt lat="43.276307" lon="-5.862675">
        <ele>95.219</ele>
        <time>2021-10-14T11:39:29Z</time>
      </trkpt>
      <trkpt lat="43.276443" lon="-5.862595">
        <ele>94.337</ele>
        <time>2021-10-14T11:39:31Z</time>
      </trkpt>
      <trkpt lat="43.276499" lon="-5.862560">
        <ele>93.744</ele>
        <time>2021-10-14T11:39:32Z</time>
      </trkpt>
      <trkpt lat="43.276583" lon="-5.862481">
        <ele>92.877</ele>
        <time>2021-10-14T11:39:34Z</time>
      </trkpt>
      <trkpt lat="43.276633" lon="-5.862417">
        <ele>92.224</ele>
        <time>2021-10-14T11:39:36Z</time>
      </trkpt>
      <trkpt lat="43.276668" lon="-5.862377">
        <ele>90.046</ele>
        <time>2021-10-14T11:39:42Z</time>
      </trkpt>
      <trkpt lat="43.276708" lon="-5.862341">
        <ele>90.215</ele>
        <time>2021-10-14T11:39:45Z</time>
      </trkpt>
      <trkpt lat="43.276764" lon="-5.862310">
        <ele>89.661</ele>
        <time>2021-10-14T11:39:47Z</time>
      </trkpt>
      <trkpt lat="43.276865" lon="-5.862227">
        <ele>89.621</ele>
        <time>2021-10-14T11:39:49Z</time>
      </trkpt>
      <trkpt lat="43.276910" lon="-5.862190">
        <ele>89.513</ele>
        <time>2021-10-14T11:39:50Z</time>
      </trkpt>
      <trkpt lat="43.276965" lon="-5.862132">
        <ele>89.508</ele>
        <time>2021-10-14T11:39:52Z</time>
      </trkpt>
      <trkpt lat="43.277006" lon="-5.862071">
        <ele>89.114</ele>
        <time>2021-10-14T11:39:56Z</time>
      </trkpt>
      <trkpt lat="43.276975" lon="-5.862117">
        <ele>88.812</ele>
        <time>2021-10-14T11:40:07Z</time>
      </trkpt>
      <trkpt lat="43.276948" lon="-5.862166">
        <ele>89.510</ele>
        <time>2021-10-14T11:48:59Z</time>
      </trkpt>
      <trkpt lat="43.276984" lon="-5.862111">
        <ele>89.867</ele>
        <time>2021-10-14T11:49:48Z</time>
      </trkpt>
      <trkpt lat="43.277029" lon="-5.862085">
        <ele>91.990</ele>
        <time>2021-10-14T11:51:11Z</time>
      </trkpt>
      <trkpt lat="43.277176" lon="-5.861982">
        <ele>92.637</ele>
        <time>2021-10-14T11:51:13Z</time>
      </trkpt>
      <trkpt lat="43.277270" lon="-5.861926">
        <ele>92.689</ele>
        <time>2021-10-14T11:51:14Z</time>
      </trkpt>
      <trkpt lat="43.277481" lon="-5.861819">
        <ele>90.478</ele>
        <time>2021-10-14T11:51:16Z</time>
      </trkpt>
      <trkpt lat="43.277586" lon="-5.861771">
        <ele>90.488</ele>
        <time>2021-10-14T11:51:17Z</time>
      </trkpt>
      <trkpt lat="43.277774" lon="-5.861690">
        <ele>89.724</ele>
        <time>2021-10-14T11:51:19Z</time>
      </trkpt>
      <trkpt lat="43.277864" lon="-5.861658">
        <ele>89.326</ele>
        <time>2021-10-14T11:51:20Z</time>
      </trkpt>
      <trkpt lat="43.278047" lon="-5.861581">
        <ele>87.408</ele>
        <time>2021-10-14T11:51:22Z</time>
      </trkpt>
      <trkpt lat="43.278284" lon="-5.861458">
        <ele>85.436</ele>
        <time>2021-10-14T11:51:24Z</time>
      </trkpt>
      <trkpt lat="43.278547" lon="-5.861275">
        <ele>84.224</ele>
        <time>2021-10-14T11:51:26Z</time>
      </trkpt>
      <trkpt lat="43.278825" lon="-5.861050">
        <ele>84.052</ele>
        <time>2021-10-14T11:51:28Z</time>
      </trkpt>
      <trkpt lat="43.278964" lon="-5.860924">
        <ele>84.499</ele>
        <time>2021-10-14T11:51:29Z</time>
      </trkpt>
      <trkpt lat="43.279232" lon="-5.860668">
        <ele>83.842</ele>
        <time>2021-10-14T11:51:31Z</time>
      </trkpt>
      <trkpt lat="43.279354" lon="-5.860551">
        <ele>83.069</ele>
        <time>2021-10-14T11:51:32Z</time>
      </trkpt>
      <trkpt lat="43.279470" lon="-5.860441">
        <ele>82.871</ele>
        <time>2021-10-14T11:51:33Z</time>
      </trkpt>
      <trkpt lat="43.279673" lon="-5.860254">
        <ele>82.560</ele>
        <time>2021-10-14T11:51:35Z</time>
      </trkpt>
      <trkpt lat="43.279763" lon="-5.860166">
        <ele>83.046</ele>
        <time>2021-10-14T11:51:36Z</time>
      </trkpt>
      <trkpt lat="43.279929" lon="-5.859988">
        <ele>84.588</ele>
        <time>2021-10-14T11:51:38Z</time>
      </trkpt>
      <trkpt lat="43.280081" lon="-5.859803">
        <ele>83.816</ele>
        <time>2021-10-14T11:51:40Z</time>
      </trkpt>
      <trkpt lat="43.280155" lon="-5.859694">
        <ele>83.308</ele>
        <time>2021-10-14T11:51:41Z</time>
      </trkpt>
      <trkpt lat="43.280228" lon="-5.859571">
        <ele>83.122</ele>
        <time>2021-10-14T11:51:42Z</time>
      </trkpt>
      <trkpt lat="43.280302" lon="-5.859435">
        <ele>82.460</ele>
        <time>2021-10-14T11:51:43Z</time>
      </trkpt>
      <trkpt lat="43.280381" lon="-5.859286">
        <ele>82.628</ele>
        <time>2021-10-14T11:51:44Z</time>
      </trkpt>
      <trkpt lat="43.280519" lon="-5.859030">
        <ele>82.635</ele>
        <time>2021-10-14T11:51:46Z</time>
      </trkpt>
      <trkpt lat="43.280645" lon="-5.858806">
        <ele>80.088</ele>
        <time>2021-10-14T11:51:48Z</time>
      </trkpt>
      <trkpt lat="43.280758" lon="-5.858659">
        <ele>79.845</ele>
        <time>2021-10-14T11:51:50Z</time>
      </trkpt>
      <trkpt lat="43.280873" lon="-5.858638">
        <ele>80.587</ele>
        <time>2021-10-14T11:51:52Z</time>
      </trkpt>
      <trkpt lat="43.280935" lon="-5.858677">
        <ele>81.456</ele>
        <time>2021-10-14T11:51:53Z</time>
      </trkpt>
      <trkpt lat="43.280985" lon="-5.858747">
        <ele>81.766</ele>
        <time>2021-10-14T11:51:54Z</time>
      </trkpt>
      <trkpt lat="43.281041" lon="-5.858965">
        <ele>83.829</ele>
        <time>2021-10-14T11:51:56Z</time>
      </trkpt>
      <trkpt lat="43.281100" lon="-5.859212">
        <ele>86.821</ele>
        <time>2021-10-14T11:51:58Z</time>
      </trkpt>
      <trkpt lat="43.281157" lon="-5.859340">
        <ele>88.308</ele>
        <time>2021-10-14T11:51:59Z</time>
      </trkpt>
      <trkpt lat="43.281232" lon="-5.859463">
        <ele>88.674</ele>
        <time>2021-10-14T11:52:00Z</time>
      </trkpt>
      <trkpt lat="43.281318" lon="-5.859593">
        <ele>89.032</ele>
        <time>2021-10-14T11:52:01Z</time>
      </trkpt>
      <trkpt lat="43.281414" lon="-5.859747">
        <ele>88.950</ele>
        <time>2021-10-14T11:52:02Z</time>
      </trkpt>
      <trkpt lat="43.281585" lon="-5.860131">
        <ele>88.747</ele>
        <time>2021-10-14T11:52:04Z</time>
      </trkpt>
      <trkpt lat="43.281712" lon="-5.860647">
        <ele>88.820</ele>
        <time>2021-10-14T11:52:06Z</time>
      </trkpt>
      <trkpt lat="43.281795" lon="-5.861186">
        <ele>86.857</ele>
        <time>2021-10-14T11:52:08Z</time>
      </trkpt>
      <trkpt lat="43.281870" lon="-5.861675">
        <ele>86.769</ele>
        <time>2021-10-14T11:52:10Z</time>
      </trkpt>
      <trkpt lat="43.281917" lon="-5.861921">
        <ele>86.158</ele>
        <time>2021-10-14T11:52:11Z</time>
      </trkpt>
      <trkpt lat="43.282045" lon="-5.862379">
        <ele>86.261</ele>
        <time>2021-10-14T11:52:13Z</time>
      </trkpt>
      <trkpt lat="43.282688" lon="-5.863578">
        <ele>84.121</ele>
        <time>2021-10-14T11:52:21Z</time>
      </trkpt>
      <trkpt lat="43.282964" lon="-5.863920">
        <ele>83.713</ele>
        <time>2021-10-14T11:52:23Z</time>
      </trkpt>
      <trkpt lat="43.283274" lon="-5.864232">
        <ele>82.708</ele>
        <time>2021-10-14T11:52:25Z</time>
      </trkpt>
      <trkpt lat="43.283420" lon="-5.864403">
        <ele>82.244</ele>
        <time>2021-10-14T11:52:26Z</time>
      </trkpt>
      <trkpt lat="43.283633" lon="-5.864789">
        <ele>85.112</ele>
        <time>2021-10-14T11:52:28Z</time>
      </trkpt>
      <trkpt lat="43.283758" lon="-5.865284">
        <ele>84.650</ele>
        <time>2021-10-14T11:52:30Z</time>
      </trkpt>
      <trkpt lat="43.283835" lon="-5.865858">
        <ele>85.237</ele>
        <time>2021-10-14T11:52:32Z</time>
      </trkpt>
      <trkpt lat="43.283908" lon="-5.866451">
        <ele>84.820</ele>
        <time>2021-10-14T11:52:34Z</time>
      </trkpt>
      <trkpt lat="43.283947" lon="-5.866752">
        <ele>85.757</ele>
        <time>2021-10-14T11:52:35Z</time>
      </trkpt>
      <trkpt lat="43.284019" lon="-5.867313">
        <ele>85.969</ele>
        <time>2021-10-14T11:52:37Z</time>
      </trkpt>
      <trkpt lat="43.284047" lon="-5.867578">
        <ele>85.998</ele>
        <time>2021-10-14T11:52:38Z</time>
      </trkpt>
      <trkpt lat="43.284048" lon="-5.868077">
        <ele>87.031</ele>
        <time>2021-10-14T11:52:40Z</time>
      </trkpt>
      <trkpt lat="43.284019" lon="-5.868336">
        <ele>86.961</ele>
        <time>2021-10-14T11:52:41Z</time>
      </trkpt>
      <trkpt lat="43.283970" lon="-5.868591">
        <ele>87.007</ele>
        <time>2021-10-14T11:52:42Z</time>
      </trkpt>
      <trkpt lat="43.283799" lon="-5.869075">
        <ele>88.208</ele>
        <time>2021-10-14T11:52:44Z</time>
      </trkpt>
      <trkpt lat="43.283535" lon="-5.869539">
        <ele>87.911</ele>
        <time>2021-10-14T11:52:46Z</time>
      </trkpt>
      <trkpt lat="43.283377" lon="-5.869792">
        <ele>87.699</ele>
        <time>2021-10-14T11:52:47Z</time>
      </trkpt>
      <trkpt lat="43.283049" lon="-5.870332">
        <ele>86.157</ele>
        <time>2021-10-14T11:52:49Z</time>
      </trkpt>
      <trkpt lat="43.282875" lon="-5.870611">
        <ele>85.894</ele>
        <time>2021-10-14T11:52:50Z</time>
      </trkpt>
      <trkpt lat="43.282539" lon="-5.871140">
        <ele>83.957</ele>
        <time>2021-10-14T11:52:52Z</time>
      </trkpt>
      <trkpt lat="43.282216" lon="-5.871663">
        <ele>84.284</ele>
        <time>2021-10-14T11:52:54Z</time>
      </trkpt>
      <trkpt lat="43.282078" lon="-5.871911">
        <ele>83.386</ele>
        <time>2021-10-14T11:52:55Z</time>
      </trkpt>
      <trkpt lat="43.281963" lon="-5.872163">
        <ele>84.065</ele>
        <time>2021-10-14T11:52:56Z</time>
      </trkpt>
      <trkpt lat="43.281826" lon="-5.872649">
        <ele>84.452</ele>
        <time>2021-10-14T11:52:58Z</time>
      </trkpt>
      <trkpt lat="43.281794" lon="-5.872902">
        <ele>84.453</ele>
        <time>2021-10-14T11:52:59Z</time>
      </trkpt>
      <trkpt lat="43.281782" lon="-5.873161">
        <ele>84.208</ele>
        <time>2021-10-14T11:53:00Z</time>
      </trkpt>
      <trkpt lat="43.281824" lon="-5.873715">
        <ele>82.808</ele>
        <time>2021-10-14T11:53:02Z</time>
      </trkpt>
      <trkpt lat="43.281967" lon="-5.874282">
        <ele>82.143</ele>
        <time>2021-10-14T11:53:04Z</time>
      </trkpt>
      <trkpt lat="43.282080" lon="-5.874562">
        <ele>81.911</ele>
        <time>2021-10-14T11:53:05Z</time>
      </trkpt>
      <trkpt lat="43.282220" lon="-5.874844">
        <ele>81.139</ele>
        <time>2021-10-14T11:53:06Z</time>
      </trkpt>
      <trkpt lat="43.282529" lon="-5.875429">
        <ele>79.746</ele>
        <time>2021-10-14T11:53:08Z</time>
      </trkpt>
      <trkpt lat="43.282811" lon="-5.875962">
        <ele>78.039</ele>
        <time>2021-10-14T11:53:10Z</time>
      </trkpt>
      <trkpt lat="43.283068" lon="-5.876445">
        <ele>77.496</ele>
        <time>2021-10-14T11:53:12Z</time>
      </trkpt>
      <trkpt lat="43.283181" lon="-5.876667">
        <ele>77.068</ele>
        <time>2021-10-14T11:53:13Z</time>
      </trkpt>
      <trkpt lat="43.283292" lon="-5.876887">
        <ele>76.347</ele>
        <time>2021-10-14T11:53:14Z</time>
      </trkpt>
      <trkpt lat="43.283492" lon="-5.877292">
        <ele>74.748</ele>
        <time>2021-10-14T11:53:16Z</time>
      </trkpt>
      <trkpt lat="43.283708" lon="-5.877706">
        <ele>74.461</ele>
        <time>2021-10-14T11:53:18Z</time>
      </trkpt>
      <trkpt lat="43.283937" lon="-5.878140">
        <ele>72.417</ele>
        <time>2021-10-14T11:53:20Z</time>
      </trkpt>
      <trkpt lat="43.284169" lon="-5.878583">
        <ele>71.308</ele>
        <time>2021-10-14T11:53:22Z</time>
      </trkpt>
      <trkpt lat="43.284292" lon="-5.878819">
        <ele>71.342</ele>
        <time>2021-10-14T11:53:23Z</time>
      </trkpt>
      <trkpt lat="43.284419" lon="-5.879057">
        <ele>70.940</ele>
        <time>2021-10-14T11:53:24Z</time>
      </trkpt>
      <trkpt lat="43.284676" lon="-5.879538">
        <ele>69.778</ele>
        <time>2021-10-14T11:53:26Z</time>
      </trkpt>
      <trkpt lat="43.284918" lon="-5.879995">
        <ele>70.285</ele>
        <time>2021-10-14T11:53:28Z</time>
      </trkpt>
      <trkpt lat="43.285176" lon="-5.880451">
        <ele>69.138</ele>
        <time>2021-10-14T11:53:30Z</time>
      </trkpt>
      <trkpt lat="43.285327" lon="-5.880640">
        <ele>69.315</ele>
        <time>2021-10-14T11:53:31Z</time>
      </trkpt>
      <trkpt lat="43.285504" lon="-5.880793">
        <ele>68.927</ele>
        <time>2021-10-14T11:53:32Z</time>
      </trkpt>
      <trkpt lat="43.285890" lon="-5.880972">
        <ele>68.386</ele>
        <time>2021-10-14T11:53:34Z</time>
      </trkpt>
      <trkpt lat="43.286104" lon="-5.881004">
        <ele>68.148</ele>
        <time>2021-10-14T11:53:35Z</time>
      </trkpt>
      <trkpt lat="43.286325" lon="-5.880988">
        <ele>68.861</ele>
        <time>2021-10-14T11:53:36Z</time>
      </trkpt>
      <trkpt lat="43.286761" lon="-5.880821">
        <ele>70.317</ele>
        <time>2021-10-14T11:53:38Z</time>
      </trkpt>
      <trkpt lat="43.287175" lon="-5.880624">
        <ele>70.408</ele>
        <time>2021-10-14T11:53:40Z</time>
      </trkpt>
      <trkpt lat="43.287390" lon="-5.880536">
        <ele>70.832</ele>
        <time>2021-10-14T11:53:41Z</time>
      </trkpt>
      <trkpt lat="43.287613" lon="-5.880463">
        <ele>70.530</ele>
        <time>2021-10-14T11:53:42Z</time>
      </trkpt>
      <trkpt lat="43.288069" lon="-5.880412">
        <ele>70.378</ele>
        <time>2021-10-14T11:53:44Z</time>
      </trkpt>
      <trkpt lat="43.288499" lon="-5.880538">
        <ele>69.735</ele>
        <time>2021-10-14T11:53:46Z</time>
      </trkpt>
      <trkpt lat="43.288716" lon="-5.880653">
        <ele>68.848</ele>
        <time>2021-10-14T11:53:47Z</time>
      </trkpt>
      <trkpt lat="43.288938" lon="-5.880776">
        <ele>67.845</ele>
        <time>2021-10-14T11:53:48Z</time>
      </trkpt>
      <trkpt lat="43.289420" lon="-5.881031">
        <ele>66.537</ele>
        <time>2021-10-14T11:53:50Z</time>
      </trkpt>
      <trkpt lat="43.289903" lon="-5.881241">
        <ele>64.966</ele>
        <time>2021-10-14T11:53:52Z</time>
      </trkpt>
      <trkpt lat="43.290163" lon="-5.881309">
        <ele>64.277</ele>
        <time>2021-10-14T11:53:53Z</time>
      </trkpt>
      <trkpt lat="43.290689" lon="-5.881321">
        <ele>62.561</ele>
        <time>2021-10-14T11:53:55Z</time>
      </trkpt>
      <trkpt lat="43.290953" lon="-5.881286">
        <ele>62.627</ele>
        <time>2021-10-14T11:53:56Z</time>
      </trkpt>
      <trkpt lat="43.291440" lon="-5.881217">
        <ele>59.808</ele>
        <time>2021-10-14T11:53:58Z</time>
      </trkpt>
      <trkpt lat="43.291944" lon="-5.881161">
        <ele>58.115</ele>
        <time>2021-10-14T11:54:00Z</time>
      </trkpt>
      <trkpt lat="43.292179" lon="-5.881134">
        <ele>56.573</ele>
        <time>2021-10-14T11:54:01Z</time>
      </trkpt>
      <trkpt lat="43.292620" lon="-5.881107">
        <ele>54.961</ele>
        <time>2021-10-14T11:54:03Z</time>
      </trkpt>
      <trkpt lat="43.293079" lon="-5.881166">
        <ele>53.738</ele>
        <time>2021-10-14T11:54:05Z</time>
      </trkpt>
      <trkpt lat="43.293549" lon="-5.881329">
        <ele>53.681</ele>
        <time>2021-10-14T11:54:07Z</time>
      </trkpt>
      <trkpt lat="43.293789" lon="-5.881425">
        <ele>53.768</ele>
        <time>2021-10-14T11:54:08Z</time>
      </trkpt>
      <trkpt lat="43.294236" lon="-5.881580">
        <ele>54.940</ele>
        <time>2021-10-14T11:54:10Z</time>
      </trkpt>
      <trkpt lat="43.294668" lon="-5.881723">
        <ele>55.189</ele>
        <time>2021-10-14T11:54:12Z</time>
      </trkpt>
      <trkpt lat="43.294870" lon="-5.881789">
        <ele>55.421</ele>
        <time>2021-10-14T11:54:13Z</time>
      </trkpt>
      <trkpt lat="43.295069" lon="-5.881853">
        <ele>55.841</ele>
        <time>2021-10-14T11:54:14Z</time>
      </trkpt>
      <trkpt lat="43.295425" lon="-5.881961">
        <ele>56.005</ele>
        <time>2021-10-14T11:54:16Z</time>
      </trkpt>
      <trkpt lat="43.295606" lon="-5.882013">
        <ele>56.008</ele>
        <time>2021-10-14T11:54:17Z</time>
      </trkpt>
      <trkpt lat="43.295972" lon="-5.882120">
        <ele>55.470</ele>
        <time>2021-10-14T11:54:19Z</time>
      </trkpt>
      <trkpt lat="43.296163" lon="-5.882181">
        <ele>55.818</ele>
        <time>2021-10-14T11:54:20Z</time>
      </trkpt>
      <trkpt lat="43.296528" lon="-5.882290">
        <ele>55.256</ele>
        <time>2021-10-14T11:54:22Z</time>
      </trkpt>
      <trkpt lat="43.296715" lon="-5.882347">
        <ele>54.823</ele>
        <time>2021-10-14T11:54:23Z</time>
      </trkpt>
      <trkpt lat="43.297086" lon="-5.882459">
        <ele>54.786</ele>
        <time>2021-10-14T11:54:25Z</time>
      </trkpt>
      <trkpt lat="43.297275" lon="-5.882515">
        <ele>54.623</ele>
        <time>2021-10-14T11:54:26Z</time>
      </trkpt>
      <trkpt lat="43.297639" lon="-5.882619">
        <ele>54.175</ele>
        <time>2021-10-14T11:54:28Z</time>
      </trkpt>
      <trkpt lat="43.297828" lon="-5.882671">
        <ele>54.214</ele>
        <time>2021-10-14T11:54:29Z</time>
      </trkpt>
      <trkpt lat="43.298018" lon="-5.882724">
        <ele>53.659</ele>
        <time>2021-10-14T11:54:30Z</time>
      </trkpt>
      <trkpt lat="43.298399" lon="-5.882810">
        <ele>54.203</ele>
        <time>2021-10-14T11:54:32Z</time>
      </trkpt>
      <trkpt lat="43.298791" lon="-5.882868">
        <ele>53.823</ele>
        <time>2021-10-14T11:54:34Z</time>
      </trkpt>
      <trkpt lat="43.298996" lon="-5.882888">
        <ele>54.008</ele>
        <time>2021-10-14T11:54:35Z</time>
      </trkpt>
      <trkpt lat="43.299422" lon="-5.882909">
        <ele>54.253</ele>
        <time>2021-10-14T11:54:37Z</time>
      </trkpt>
      <trkpt lat="43.299654" lon="-5.882910">
        <ele>54.311</ele>
        <time>2021-10-14T11:54:38Z</time>
      </trkpt>
      <trkpt lat="43.300108" lon="-5.882875">
        <ele>54.089</ele>
        <time>2021-10-14T11:54:40Z</time>
      </trkpt>
      <trkpt lat="43.300593" lon="-5.882779">
        <ele>53.486</ele>
        <time>2021-10-14T11:54:42Z</time>
      </trkpt>
      <trkpt lat="43.301087" lon="-5.882580">
        <ele>52.619</ele>
        <time>2021-10-14T11:54:44Z</time>
      </trkpt>
      <trkpt lat="43.301548" lon="-5.882317">
        <ele>52.486</ele>
        <time>2021-10-14T11:54:46Z</time>
      </trkpt>
      <trkpt lat="43.301775" lon="-5.882188">
        <ele>52.318</ele>
        <time>2021-10-14T11:54:47Z</time>
      </trkpt>
      <trkpt lat="43.301997" lon="-5.882057">
        <ele>52.817</ele>
        <time>2021-10-14T11:54:48Z</time>
      </trkpt>
      <trkpt lat="43.302443" lon="-5.881784">
        <ele>52.887</ele>
        <time>2021-10-14T11:54:50Z</time>
      </trkpt>
      <trkpt lat="43.302871" lon="-5.881515">
        <ele>54.142</ele>
        <time>2021-10-14T11:54:52Z</time>
      </trkpt>
      <trkpt lat="43.303086" lon="-5.881371">
        <ele>54.026</ele>
        <time>2021-10-14T11:54:53Z</time>
      </trkpt>
      <trkpt lat="43.303297" lon="-5.881223">
        <ele>53.408</ele>
        <time>2021-10-14T11:54:54Z</time>
      </trkpt>
      <trkpt lat="43.303503" lon="-5.881066">
        <ele>53.686</ele>
        <time>2021-10-14T11:54:55Z</time>
      </trkpt>
      <trkpt lat="43.303715" lon="-5.880899">
        <ele>53.964</ele>
        <time>2021-10-14T11:54:56Z</time>
      </trkpt>
      <trkpt lat="43.304051" lon="-5.880453">
        <ele>54.462</ele>
        <time>2021-10-14T11:54:58Z</time>
      </trkpt>
      <trkpt lat="43.304206" lon="-5.880192">
        <ele>54.729</ele>
        <time>2021-10-14T11:54:59Z</time>
      </trkpt>
      <trkpt lat="43.304347" lon="-5.879922">
        <ele>54.742</ele>
        <time>2021-10-14T11:55:00Z</time>
      </trkpt>
      <trkpt lat="43.304612" lon="-5.879359">
        <ele>54.779</ele>
        <time>2021-10-14T11:55:02Z</time>
      </trkpt>
      <trkpt lat="43.304872" lon="-5.878812">
        <ele>54.381</ele>
        <time>2021-10-14T11:55:04Z</time>
      </trkpt>
      <trkpt lat="43.305136" lon="-5.878258">
        <ele>53.680</ele>
        <time>2021-10-14T11:55:06Z</time>
      </trkpt>
      <trkpt lat="43.305409" lon="-5.877699">
        <ele>53.472</ele>
        <time>2021-10-14T11:55:08Z</time>
      </trkpt>
      <trkpt lat="43.305675" lon="-5.877167">
        <ele>52.813</ele>
        <time>2021-10-14T11:55:10Z</time>
      </trkpt>
      <trkpt lat="43.305809" lon="-5.876910">
        <ele>52.914</ele>
        <time>2021-10-14T11:55:11Z</time>
      </trkpt>
      <trkpt lat="43.305938" lon="-5.876663">
        <ele>53.008</ele>
        <time>2021-10-14T11:55:12Z</time>
      </trkpt>
      <trkpt lat="43.306185" lon="-5.876189">
        <ele>53.335</ele>
        <time>2021-10-14T11:55:14Z</time>
      </trkpt>
      <trkpt lat="43.306421" lon="-5.875733">
        <ele>54.633</ele>
        <time>2021-10-14T11:55:16Z</time>
      </trkpt>
      <trkpt lat="43.306533" lon="-5.875517">
        <ele>54.171</ele>
        <time>2021-10-14T11:55:17Z</time>
      </trkpt>
      <trkpt lat="43.306760" lon="-5.875143">
        <ele>55.898</ele>
        <time>2021-10-14T11:55:19Z</time>
      </trkpt>
      <trkpt lat="43.306886" lon="-5.874979">
        <ele>56.141</ele>
        <time>2021-10-14T11:55:20Z</time>
      </trkpt>
      <trkpt lat="43.307141" lon="-5.874703">
        <ele>57.078</ele>
        <time>2021-10-14T11:55:22Z</time>
      </trkpt>
      <trkpt lat="43.307404" lon="-5.874489">
        <ele>57.450</ele>
        <time>2021-10-14T11:55:24Z</time>
      </trkpt>
      <trkpt lat="43.307534" lon="-5.874408">
        <ele>58.139</ele>
        <time>2021-10-14T11:55:25Z</time>
      </trkpt>
      <trkpt lat="43.307662" lon="-5.874332">
        <ele>58.722</ele>
        <time>2021-10-14T11:55:26Z</time>
      </trkpt>
      <trkpt lat="43.307897" lon="-5.874193">
        <ele>60.662</ele>
        <time>2021-10-14T11:55:28Z</time>
      </trkpt>
      <trkpt lat="43.308023" lon="-5.874120">
        <ele>60.708</ele>
        <time>2021-10-14T11:55:29Z</time>
      </trkpt>
      <trkpt lat="43.308257" lon="-5.873967">
        <ele>61.808</ele>
        <time>2021-10-14T11:55:31Z</time>
      </trkpt>
      <trkpt lat="43.308365" lon="-5.873882">
        <ele>61.860</ele>
        <time>2021-10-14T11:55:32Z</time>
      </trkpt>
      <trkpt lat="43.308551" lon="-5.873712">
        <ele>61.438</ele>
        <time>2021-10-14T11:55:34Z</time>
      </trkpt>
      <trkpt lat="43.308637" lon="-5.873620">
        <ele>60.196</ele>
        <time>2021-10-14T11:55:35Z</time>
      </trkpt>
      <trkpt lat="43.308792" lon="-5.873423">
        <ele>59.453</ele>
        <time>2021-10-14T11:55:37Z</time>
      </trkpt>
      <trkpt lat="43.308870" lon="-5.873300">
        <ele>59.066</ele>
        <time>2021-10-14T11:55:38Z</time>
      </trkpt>
      <trkpt lat="43.308993" lon="-5.873073">
        <ele>57.623</ele>
        <time>2021-10-14T11:55:40Z</time>
      </trkpt>
      <trkpt lat="43.309047" lon="-5.872961">
        <ele>57.665</ele>
        <time>2021-10-14T11:55:41Z</time>
      </trkpt>
      <trkpt lat="43.309143" lon="-5.872758">
        <ele>55.864</ele>
        <time>2021-10-14T11:55:43Z</time>
      </trkpt>
      <trkpt lat="43.309190" lon="-5.872662">
        <ele>55.781</ele>
        <time>2021-10-14T11:55:44Z</time>
      </trkpt>
      <trkpt lat="43.309263" lon="-5.872511">
        <ele>55.161</ele>
        <time>2021-10-14T11:55:46Z</time>
      </trkpt>
      <trkpt lat="43.309293" lon="-5.872448">
        <ele>54.517</ele>
        <time>2021-10-14T11:55:47Z</time>
      </trkpt>
      <trkpt lat="43.309321" lon="-5.872388">
        <ele>54.508</ele>
        <time>2021-10-14T11:55:48Z</time>
      </trkpt>
      <trkpt lat="43.309370" lon="-5.872266">
        <ele>52.366</ele>
        <time>2021-10-14T11:55:50Z</time>
      </trkpt>
      <trkpt lat="43.309396" lon="-5.872112">
        <ele>52.234</ele>
        <time>2021-10-14T11:55:52Z</time>
      </trkpt>
      <trkpt lat="43.309394" lon="-5.872008">
        <ele>52.132</ele>
        <time>2021-10-14T11:55:53Z</time>
      </trkpt>
      <trkpt lat="43.309416" lon="-5.871823">
        <ele>51.819</ele>
        <time>2021-10-14T11:55:55Z</time>
      </trkpt>
      <trkpt lat="43.309455" lon="-5.871750">
        <ele>51.872</ele>
        <time>2021-10-14T11:55:56Z</time>
      </trkpt>
      <trkpt lat="43.309584" lon="-5.871633">
        <ele>53.669</ele>
        <time>2021-10-14T11:55:58Z</time>
      </trkpt>
      <trkpt lat="43.309659" lon="-5.871569">
        <ele>54.131</ele>
        <time>2021-10-14T11:55:59Z</time>
      </trkpt>
      <trkpt lat="43.309729" lon="-5.871483">
        <ele>54.170</ele>
        <time>2021-10-14T11:56:00Z</time>
      </trkpt>
      <trkpt lat="43.309793" lon="-5.871373">
        <ele>54.546</ele>
        <time>2021-10-14T11:56:01Z</time>
      </trkpt>
      <trkpt lat="43.309852" lon="-5.871242">
        <ele>55.188</ele>
        <time>2021-10-14T11:56:02Z</time>
      </trkpt>
      <trkpt lat="43.309969" lon="-5.870960">
        <ele>55.516</ele>
        <time>2021-10-14T11:56:04Z</time>
      </trkpt>
      <trkpt lat="43.310027" lon="-5.870828">
        <ele>56.908</ele>
        <time>2021-10-14T11:56:05Z</time>
      </trkpt>
      <trkpt lat="43.310134" lon="-5.870597">
        <ele>58.592</ele>
        <time>2021-10-14T11:56:07Z</time>
      </trkpt>
      <trkpt lat="43.310180" lon="-5.870493">
        <ele>58.530</ele>
        <time>2021-10-14T11:56:08Z</time>
      </trkpt>
      <trkpt lat="43.310266" lon="-5.870291">
        <ele>59.928</ele>
        <time>2021-10-14T11:56:10Z</time>
      </trkpt>
      <trkpt lat="43.310324" lon="-5.870193">
        <ele>60.915</ele>
        <time>2021-10-14T11:56:11Z</time>
      </trkpt>
      <trkpt lat="43.310388" lon="-5.870095">
        <ele>61.248</ele>
        <time>2021-10-14T11:56:12Z</time>
      </trkpt>
      <trkpt lat="43.310531" lon="-5.869888">
        <ele>63.945</ele>
        <time>2021-10-14T11:56:14Z</time>
      </trkpt>
      <trkpt lat="43.310699" lon="-5.869701">
        <ele>65.047</ele>
        <time>2021-10-14T11:56:16Z</time>
      </trkpt>
      <trkpt lat="43.310785" lon="-5.869623">
        <ele>65.386</ele>
        <time>2021-10-14T11:56:17Z</time>
      </trkpt>
      <trkpt lat="43.310946" lon="-5.869506">
        <ele>68.246</ele>
        <time>2021-10-14T11:56:19Z</time>
      </trkpt>
      <trkpt lat="43.311030" lon="-5.869450">
        <ele>68.388</ele>
        <time>2021-10-14T11:56:20Z</time>
      </trkpt>
      <trkpt lat="43.311210" lon="-5.869349">
        <ele>68.816</ele>
        <time>2021-10-14T11:56:22Z</time>
      </trkpt>
      <trkpt lat="43.311409" lon="-5.869257">
        <ele>70.708</ele>
        <time>2021-10-14T11:56:24Z</time>
      </trkpt>
      <trkpt lat="43.311589" lon="-5.869112">
        <ele>72.262</ele>
        <time>2021-10-14T11:56:26Z</time>
      </trkpt>
      <trkpt lat="43.311769" lon="-5.869034">
        <ele>72.260</ele>
        <time>2021-10-14T11:56:28Z</time>
      </trkpt>
      <trkpt lat="43.312002" lon="-5.869057">
        <ele>72.388</ele>
        <time>2021-10-14T11:56:30Z</time>
      </trkpt>
      <trkpt lat="43.312291" lon="-5.869038">
        <ele>73.995</ele>
        <time>2021-10-14T11:56:32Z</time>
      </trkpt>
      <trkpt lat="43.312598" lon="-5.868971">
        <ele>76.538</ele>
        <time>2021-10-14T11:56:34Z</time>
      </trkpt>
      <trkpt lat="43.312746" lon="-5.868933">
        <ele>76.885</ele>
        <time>2021-10-14T11:56:35Z</time>
      </trkpt>
      <trkpt lat="43.312999" lon="-5.868871">
        <ele>78.697</ele>
        <time>2021-10-14T11:56:37Z</time>
      </trkpt>
      <trkpt lat="43.313121" lon="-5.868846">
        <ele>79.656</ele>
        <time>2021-10-14T11:56:38Z</time>
      </trkpt>
      <trkpt lat="43.313326" lon="-5.868800">
        <ele>82.096</ele>
        <time>2021-10-14T11:56:40Z</time>
      </trkpt>
      <trkpt lat="43.313426" lon="-5.868774">
        <ele>82.831</ele>
        <time>2021-10-14T11:56:41Z</time>
      </trkpt>
      <trkpt lat="43.313622" lon="-5.868728">
        <ele>84.624</ele>
        <time>2021-10-14T11:56:43Z</time>
      </trkpt>
      <trkpt lat="43.313728" lon="-5.868708">
        <ele>85.908</ele>
        <time>2021-10-14T11:56:44Z</time>
      </trkpt>
      <trkpt lat="43.313920" lon="-5.868665">
        <ele>88.117</ele>
        <time>2021-10-14T11:56:46Z</time>
      </trkpt>
      <trkpt lat="43.314109" lon="-5.868613">
        <ele>89.725</ele>
        <time>2021-10-14T11:56:48Z</time>
      </trkpt>
      <trkpt lat="43.314207" lon="-5.868591">
        <ele>90.283</ele>
        <time>2021-10-14T11:56:49Z</time>
      </trkpt>
      <trkpt lat="43.314311" lon="-5.868570">
        <ele>90.710</ele>
        <time>2021-10-14T11:56:50Z</time>
      </trkpt>
      <trkpt lat="43.314508" lon="-5.868534">
        <ele>92.673</ele>
        <time>2021-10-14T11:56:52Z</time>
      </trkpt>
      <trkpt lat="43.314612" lon="-5.868512">
        <ele>93.840</ele>
        <time>2021-10-14T11:56:53Z</time>
      </trkpt>
      <trkpt lat="43.314718" lon="-5.868486">
        <ele>94.662</ele>
        <time>2021-10-14T11:56:54Z</time>
      </trkpt>
      <trkpt lat="43.314940" lon="-5.868423">
        <ele>94.971</ele>
        <time>2021-10-14T11:56:56Z</time>
      </trkpt>
      <trkpt lat="43.315147" lon="-5.868369">
        <ele>95.669</ele>
        <time>2021-10-14T11:56:58Z</time>
      </trkpt>
      <trkpt lat="43.315252" lon="-5.868341">
        <ele>96.704</ele>
        <time>2021-10-14T11:56:59Z</time>
      </trkpt>
      <trkpt lat="43.315451" lon="-5.868292">
        <ele>98.124</ele>
        <time>2021-10-14T11:57:01Z</time>
      </trkpt>
      <trkpt lat="43.315537" lon="-5.868269">
        <ele>97.808</ele>
        <time>2021-10-14T11:57:02Z</time>
      </trkpt>
      <trkpt lat="43.315675" lon="-5.868182">
        <ele>97.844</ele>
        <time>2021-10-14T11:57:04Z</time>
      </trkpt>
      <trkpt lat="43.315749" lon="-5.868107">
        <ele>97.862</ele>
        <time>2021-10-14T11:57:05Z</time>
      </trkpt>
      <trkpt lat="43.315896" lon="-5.867924">
        <ele>98.630</ele>
        <time>2021-10-14T11:57:07Z</time>
      </trkpt>
      <trkpt lat="43.315970" lon="-5.867830">
        <ele>99.667</ele>
        <time>2021-10-14T11:57:08Z</time>
      </trkpt>
      <trkpt lat="43.316088" lon="-5.867678">
        <ele>100.350</ele>
        <time>2021-10-14T11:57:10Z</time>
      </trkpt>
      <trkpt lat="43.316133" lon="-5.867618">
        <ele>100.517</ele>
        <time>2021-10-14T11:57:11Z</time>
      </trkpt>
      <trkpt lat="43.316231" lon="-5.867515">
        <ele>100.429</ele>
        <time>2021-10-14T11:57:13Z</time>
      </trkpt>
      <trkpt lat="43.316309" lon="-5.867458">
        <ele>100.778</ele>
        <time>2021-10-14T11:57:14Z</time>
      </trkpt>
      <trkpt lat="43.316460" lon="-5.867415">
        <ele>101.492</ele>
        <time>2021-10-14T11:57:16Z</time>
      </trkpt>
      <trkpt lat="43.316573" lon="-5.867442">
        <ele>101.473</ele>
        <time>2021-10-14T11:57:17Z</time>
      </trkpt>
      <trkpt lat="43.316795" lon="-5.867614">
        <ele>101.520</ele>
        <time>2021-10-14T11:57:19Z</time>
      </trkpt>
      <trkpt lat="43.316922" lon="-5.867726">
        <ele>101.508</ele>
        <time>2021-10-14T11:57:20Z</time>
      </trkpt>
      <trkpt lat="43.317228" lon="-5.867940">
        <ele>101.267</ele>
        <time>2021-10-14T11:57:22Z</time>
      </trkpt>
      <trkpt lat="43.317537" lon="-5.868138">
        <ele>101.995</ele>
        <time>2021-10-14T11:57:24Z</time>
      </trkpt>
      <trkpt lat="43.317781" lon="-5.868176">
        <ele>103.233</ele>
        <time>2021-10-14T11:57:26Z</time>
      </trkpt>
      <trkpt lat="43.317979" lon="-5.868082">
        <ele>103.150</ele>
        <time>2021-10-14T11:57:28Z</time>
      </trkpt>
      <trkpt lat="43.318086" lon="-5.868038">
        <ele>103.163</ele>
        <time>2021-10-14T11:57:29Z</time>
      </trkpt>
      <trkpt lat="43.318350" lon="-5.867944">
        <ele>103.950</ele>
        <time>2021-10-14T11:57:31Z</time>
      </trkpt>
      <trkpt lat="43.318498" lon="-5.867914">
        <ele>104.642</ele>
        <time>2021-10-14T11:57:32Z</time>
      </trkpt>
      <trkpt lat="43.318803" lon="-5.867895">
        <ele>106.321</ele>
        <time>2021-10-14T11:57:34Z</time>
      </trkpt>
      <trkpt lat="43.318960" lon="-5.867889">
        <ele>107.018</ele>
        <time>2021-10-14T11:57:35Z</time>
      </trkpt>
      <trkpt lat="43.319275" lon="-5.867900">
        <ele>108.998</ele>
        <time>2021-10-14T11:57:37Z</time>
      </trkpt>
      <trkpt lat="43.319442" lon="-5.867917">
        <ele>109.317</ele>
        <time>2021-10-14T11:57:38Z</time>
      </trkpt>
      <trkpt lat="43.319779" lon="-5.867928">
        <ele>111.808</ele>
        <time>2021-10-14T11:57:40Z</time>
      </trkpt>
      <trkpt lat="43.319939" lon="-5.867927">
        <ele>113.639</ele>
        <time>2021-10-14T11:57:41Z</time>
      </trkpt>
      <trkpt lat="43.320099" lon="-5.867932">
        <ele>114.977</ele>
        <time>2021-10-14T11:57:42Z</time>
      </trkpt>
      <trkpt lat="43.320255" lon="-5.867955">
        <ele>116.525</ele>
        <time>2021-10-14T11:57:43Z</time>
      </trkpt>
      <trkpt lat="43.320415" lon="-5.867992">
        <ele>117.442</ele>
        <time>2021-10-14T11:57:44Z</time>
      </trkpt>
      <trkpt lat="43.320725" lon="-5.868072">
        <ele>117.645</ele>
        <time>2021-10-14T11:57:46Z</time>
      </trkpt>
      <trkpt lat="43.321059" lon="-5.868126">
        <ele>119.792</ele>
        <time>2021-10-14T11:57:48Z</time>
      </trkpt>
      <trkpt lat="43.321211" lon="-5.868145">
        <ele>121.084</ele>
        <time>2021-10-14T11:57:49Z</time>
      </trkpt>
      <trkpt lat="43.321344" lon="-5.868171">
        <ele>121.973</ele>
        <time>2021-10-14T11:57:50Z</time>
      </trkpt>
      <trkpt lat="43.321553" lon="-5.868243">
        <ele>124.593</ele>
        <time>2021-10-14T11:57:52Z</time>
      </trkpt>
      <trkpt lat="43.321646" lon="-5.868286">
        <ele>125.065</ele>
        <time>2021-10-14T11:57:53Z</time>
      </trkpt>
      <trkpt lat="43.321740" lon="-5.868330">
        <ele>126.321</ele>
        <time>2021-10-14T11:57:54Z</time>
      </trkpt>
      <trkpt lat="43.321941" lon="-5.868364">
        <ele>127.908</ele>
        <time>2021-10-14T11:57:56Z</time>
      </trkpt>
      <trkpt lat="43.322165" lon="-5.868277">
        <ele>130.887</ele>
        <time>2021-10-14T11:57:58Z</time>
      </trkpt>
      <trkpt lat="43.322427" lon="-5.868115">
        <ele>135.025</ele>
        <time>2021-10-14T11:58:00Z</time>
      </trkpt>
      <trkpt lat="43.322656" lon="-5.867972">
        <ele>137.873</ele>
        <time>2021-10-14T11:58:02Z</time>
      </trkpt>
      <trkpt lat="43.322802" lon="-5.867795">
        <ele>138.870</ele>
        <time>2021-10-14T11:58:04Z</time>
      </trkpt>
      <trkpt lat="43.322857" lon="-5.867530">
        <ele>140.613</ele>
        <time>2021-10-14T11:58:06Z</time>
      </trkpt>
      <trkpt lat="43.322830" lon="-5.867224">
        <ele>142.330</ele>
        <time>2021-10-14T11:58:08Z</time>
      </trkpt>
      <trkpt lat="43.322767" lon="-5.866891">
        <ele>144.422</ele>
        <time>2021-10-14T11:58:10Z</time>
      </trkpt>
      <trkpt lat="43.322745" lon="-5.866706">
        <ele>146.411</ele>
        <time>2021-10-14T11:58:11Z</time>
      </trkpt>
      <trkpt lat="43.322738" lon="-5.866352">
        <ele>148.261</ele>
        <time>2021-10-14T11:58:13Z</time>
      </trkpt>
      <trkpt lat="43.322757" lon="-5.866198">
        <ele>148.621</ele>
        <time>2021-10-14T11:58:14Z</time>
      </trkpt>
      <trkpt lat="43.322848" lon="-5.865929">
        <ele>151.913</ele>
        <time>2021-10-14T11:58:16Z</time>
      </trkpt>
      <trkpt lat="43.322918" lon="-5.865798">
        <ele>152.808</ele>
        <time>2021-10-14T11:58:17Z</time>
      </trkpt>
      <trkpt lat="43.323074" lon="-5.865588">
        <ele>155.294</ele>
        <time>2021-10-14T11:58:19Z</time>
      </trkpt>
      <trkpt lat="43.323174" lon="-5.865513">
        <ele>155.622</ele>
        <time>2021-10-14T11:58:20Z</time>
      </trkpt>
      <trkpt lat="43.323416" lon="-5.865451">
        <ele>157.280</ele>
        <time>2021-10-14T11:58:22Z</time>
      </trkpt>
      <trkpt lat="43.323638" lon="-5.865423">
        <ele>158.197</ele>
        <time>2021-10-14T11:58:24Z</time>
      </trkpt>
      <trkpt lat="43.323729" lon="-5.865369">
        <ele>156.910</ele>
        <time>2021-10-14T11:58:25Z</time>
      </trkpt>
      <trkpt lat="43.323802" lon="-5.865275">
        <ele>156.577</ele>
        <time>2021-10-14T11:58:26Z</time>
      </trkpt>
      <trkpt lat="43.323895" lon="-5.865006">
        <ele>155.449</ele>
        <time>2021-10-14T11:58:28Z</time>
      </trkpt>
      <trkpt lat="43.323929" lon="-5.864838">
        <ele>155.428</ele>
        <time>2021-10-14T11:58:29Z</time>
      </trkpt>
      <trkpt lat="43.323987" lon="-5.864501">
        <ele>153.083</ele>
        <time>2021-10-14T11:58:31Z</time>
      </trkpt>
      <trkpt lat="43.324029" lon="-5.864339">
        <ele>152.325</ele>
        <time>2021-10-14T11:58:32Z</time>
      </trkpt>
      <trkpt lat="43.324126" lon="-5.864065">
        <ele>150.217</ele>
        <time>2021-10-14T11:58:34Z</time>
      </trkpt>
      <trkpt lat="43.324165" lon="-5.863936">
        <ele>149.608</ele>
        <time>2021-10-14T11:58:35Z</time>
      </trkpt>
      <trkpt lat="43.324200" lon="-5.863698">
        <ele>148.756</ele>
        <time>2021-10-14T11:58:37Z</time>
      </trkpt>
      <trkpt lat="43.324191" lon="-5.863566">
        <ele>147.844</ele>
        <time>2021-10-14T11:58:38Z</time>
      </trkpt>
      <trkpt lat="43.324168" lon="-5.863337">
        <ele>146.792</ele>
        <time>2021-10-14T11:58:40Z</time>
      </trkpt>
      <trkpt lat="43.324193" lon="-5.863227">
        <ele>146.389</ele>
        <time>2021-10-14T11:58:41Z</time>
      </trkpt>
      <trkpt lat="43.324322" lon="-5.863026">
        <ele>144.422</ele>
        <time>2021-10-14T11:58:43Z</time>
      </trkpt>
      <trkpt lat="43.324394" lon="-5.862924">
        <ele>143.069</ele>
        <time>2021-10-14T11:58:44Z</time>
      </trkpt>
      <trkpt lat="43.324471" lon="-5.862677">
        <ele>141.251</ele>
        <time>2021-10-14T11:58:46Z</time>
      </trkpt>
      <trkpt lat="43.324474" lon="-5.862535">
        <ele>140.110</ele>
        <time>2021-10-14T11:58:47Z</time>
      </trkpt>
      <trkpt lat="43.324452" lon="-5.862409">
        <ele>139.321</ele>
        <time>2021-10-14T11:58:48Z</time>
      </trkpt>
      <trkpt lat="43.324434" lon="-5.862191">
        <ele>137.441</ele>
        <time>2021-10-14T11:58:50Z</time>
      </trkpt>
      <trkpt lat="43.324530" lon="-5.862036">
        <ele>135.105</ele>
        <time>2021-10-14T11:58:52Z</time>
      </trkpt>
      <trkpt lat="43.324608" lon="-5.861980">
        <ele>134.308</ele>
        <time>2021-10-14T11:58:53Z</time>
      </trkpt>
      <trkpt lat="43.324813" lon="-5.861867">
        <ele>132.520</ele>
        <time>2021-10-14T11:58:55Z</time>
      </trkpt>
      <trkpt lat="43.324938" lon="-5.861809">
        <ele>130.618</ele>
        <time>2021-10-14T11:58:56Z</time>
      </trkpt>
      <trkpt lat="43.325196" lon="-5.861736">
        <ele>130.436</ele>
        <time>2021-10-14T11:58:58Z</time>
      </trkpt>
      <trkpt lat="43.325328" lon="-5.861725">
        <ele>128.153</ele>
        <time>2021-10-14T11:58:59Z</time>
      </trkpt>
      <trkpt lat="43.325462" lon="-5.861744">
        <ele>127.036</ele>
        <time>2021-10-14T11:59:00Z</time>
      </trkpt>
      <trkpt lat="43.325735" lon="-5.861858">
        <ele>123.413</ele>
        <time>2021-10-14T11:59:02Z</time>
      </trkpt>
      <trkpt lat="43.325869" lon="-5.861917">
        <ele>121.825</ele>
        <time>2021-10-14T11:59:03Z</time>
      </trkpt>
      <trkpt lat="43.326158" lon="-5.861947">
        <ele>119.424</ele>
        <time>2021-10-14T11:59:05Z</time>
      </trkpt>
      <trkpt lat="43.326474" lon="-5.861832">
        <ele>116.693</ele>
        <time>2021-10-14T11:59:07Z</time>
      </trkpt>
      <trkpt lat="43.326632" lon="-5.861764">
        <ele>115.565</ele>
        <time>2021-10-14T11:59:08Z</time>
      </trkpt>
      <trkpt lat="43.326926" lon="-5.861661">
        <ele>113.521</ele>
        <time>2021-10-14T11:59:10Z</time>
      </trkpt>
      <trkpt lat="43.327082" lon="-5.861621">
        <ele>113.008</ele>
        <time>2021-10-14T11:59:11Z</time>
      </trkpt>
      <trkpt lat="43.327408" lon="-5.861565">
        <ele>108.687</ele>
        <time>2021-10-14T11:59:13Z</time>
      </trkpt>
      <trkpt lat="43.327576" lon="-5.861540">
        <ele>107.415</ele>
        <time>2021-10-14T11:59:14Z</time>
      </trkpt>
      <trkpt lat="43.327875" lon="-5.861488">
        <ele>105.433</ele>
        <time>2021-10-14T11:59:16Z</time>
      </trkpt>
      <trkpt lat="43.328136" lon="-5.861417">
        <ele>104.480</ele>
        <time>2021-10-14T11:59:18Z</time>
      </trkpt>
      <trkpt lat="43.328356" lon="-5.861343">
        <ele>104.983</ele>
        <time>2021-10-14T11:59:20Z</time>
      </trkpt>
      <trkpt lat="43.328529" lon="-5.861266">
        <ele>105.130</ele>
        <time>2021-10-14T11:59:22Z</time>
      </trkpt>
      <trkpt lat="43.328603" lon="-5.861212">
        <ele>104.952</ele>
        <time>2021-10-14T11:59:23Z</time>
      </trkpt>
      <trkpt lat="43.328659" lon="-5.861141">
        <ele>105.321</ele>
        <time>2021-10-14T11:59:24Z</time>
      </trkpt>
      <trkpt lat="43.328700" lon="-5.861060">
        <ele>105.791</ele>
        <time>2021-10-14T11:59:25Z</time>
      </trkpt>
      <trkpt lat="43.328742" lon="-5.860991">
        <ele>105.781</ele>
        <time>2021-10-14T11:59:26Z</time>
      </trkpt>
      <trkpt lat="43.328883" lon="-5.860934">
        <ele>106.119</ele>
        <time>2021-10-14T11:59:28Z</time>
      </trkpt>
      <trkpt lat="43.328986" lon="-5.860949">
        <ele>106.308</ele>
        <time>2021-10-14T11:59:29Z</time>
      </trkpt>
      <trkpt lat="43.329104" lon="-5.860986">
        <ele>106.527</ele>
        <time>2021-10-14T11:59:30Z</time>
      </trkpt>
      <trkpt lat="43.329376" lon="-5.861101">
        <ele>107.325</ele>
        <time>2021-10-14T11:59:32Z</time>
      </trkpt>
      <trkpt lat="43.329645" lon="-5.861317">
        <ele>109.093</ele>
        <time>2021-10-14T11:59:34Z</time>
      </trkpt>
      <trkpt lat="43.329765" lon="-5.861487">
        <ele>109.440</ele>
        <time>2021-10-14T11:59:35Z</time>
      </trkpt>
      <trkpt lat="43.329863" lon="-5.861696">
        <ele>110.353</ele>
        <time>2021-10-14T11:59:36Z</time>
      </trkpt>
      <trkpt lat="43.329940" lon="-5.861934">
        <ele>112.050</ele>
        <time>2021-10-14T11:59:37Z</time>
      </trkpt>
      <trkpt lat="43.330011" lon="-5.862187">
        <ele>112.982</ele>
        <time>2021-10-14T11:59:38Z</time>
      </trkpt>
      <trkpt lat="43.330154" lon="-5.862660">
        <ele>114.911</ele>
        <time>2021-10-14T11:59:40Z</time>
      </trkpt>
      <trkpt lat="43.330325" lon="-5.863058">
        <ele>117.536</ele>
        <time>2021-10-14T11:59:42Z</time>
      </trkpt>
      <trkpt lat="43.330477" lon="-5.863272">
        <ele>119.917</ele>
        <time>2021-10-14T11:59:44Z</time>
      </trkpt>
      <trkpt lat="43.330545" lon="-5.863318">
        <ele>120.018</ele>
        <time>2021-10-14T11:59:45Z</time>
      </trkpt>
      <trkpt lat="43.330685" lon="-5.863323">
        <ele>121.608</ele>
        <time>2021-10-14T11:59:47Z</time>
      </trkpt>
      <trkpt lat="43.330759" lon="-5.863339">
        <ele>122.281</ele>
        <time>2021-10-14T11:59:48Z</time>
      </trkpt>
      <trkpt lat="43.330871" lon="-5.863477">
        <ele>123.619</ele>
        <time>2021-10-14T11:59:50Z</time>
      </trkpt>
      <trkpt lat="43.330922" lon="-5.863547">
        <ele>124.227</ele>
        <time>2021-10-14T11:59:51Z</time>
      </trkpt>
      <trkpt lat="43.330997" lon="-5.863597">
        <ele>124.654</ele>
        <time>2021-10-14T11:59:52Z</time>
      </trkpt>
      <trkpt lat="43.331097" lon="-5.863629">
        <ele>124.917</ele>
        <time>2021-10-14T11:59:53Z</time>
      </trkpt>
      <trkpt lat="43.331367" lon="-5.863655">
        <ele>127.174</ele>
        <time>2021-10-14T11:59:55Z</time>
      </trkpt>
      <trkpt lat="43.331542" lon="-5.863636">
        <ele>128.836</ele>
        <time>2021-10-14T11:59:56Z</time>
      </trkpt>
      <trkpt lat="43.331905" lon="-5.863521">
        <ele>131.175</ele>
        <time>2021-10-14T11:59:58Z</time>
      </trkpt>
      <trkpt lat="43.332262" lon="-5.863267">
        <ele>134.144</ele>
        <time>2021-10-14T12:00:00Z</time>
      </trkpt>
      <trkpt lat="43.332568" lon="-5.862901">
        <ele>136.705</ele>
        <time>2021-10-14T12:00:02Z</time>
      </trkpt>
      <trkpt lat="43.332694" lon="-5.862680">
        <ele>137.715</ele>
        <time>2021-10-14T12:00:03Z</time>
      </trkpt>
      <trkpt lat="43.332899" lon="-5.862208">
        <ele>140.908</ele>
        <time>2021-10-14T12:00:05Z</time>
      </trkpt>
      <trkpt lat="43.333088" lon="-5.861778">
        <ele>143.112</ele>
        <time>2021-10-14T12:00:07Z</time>
      </trkpt>
      <trkpt lat="43.333242" lon="-5.861420">
        <ele>144.630</ele>
        <time>2021-10-14T12:00:09Z</time>
      </trkpt>
      <trkpt lat="43.333353" lon="-5.861081">
        <ele>146.258</ele>
        <time>2021-10-14T12:00:11Z</time>
      </trkpt>
      <trkpt lat="43.333412" lon="-5.860917">
        <ele>147.385</ele>
        <time>2021-10-14T12:00:12Z</time>
      </trkpt>
      <trkpt lat="43.333569" lon="-5.860673">
        <ele>148.938</ele>
        <time>2021-10-14T12:00:14Z</time>
      </trkpt>
      <trkpt lat="43.333785" lon="-5.860520">
        <ele>150.345</ele>
        <time>2021-10-14T12:00:16Z</time>
      </trkpt>
      <trkpt lat="43.334008" lon="-5.860400">
        <ele>152.587</ele>
        <time>2021-10-14T12:00:18Z</time>
      </trkpt>
      <trkpt lat="43.334103" lon="-5.860309">
        <ele>152.646</ele>
        <time>2021-10-14T12:00:19Z</time>
      </trkpt>
      <trkpt lat="43.334194" lon="-5.860199">
        <ele>153.882</ele>
        <time>2021-10-14T12:00:20Z</time>
      </trkpt>
      <trkpt lat="43.334391" lon="-5.859946">
        <ele>156.043</ele>
        <time>2021-10-14T12:00:22Z</time>
      </trkpt>
      <trkpt lat="43.334583" lon="-5.859667">
        <ele>157.917</ele>
        <time>2021-10-14T12:00:24Z</time>
      </trkpt>
      <trkpt lat="43.334691" lon="-5.859339">
        <ele>158.208</ele>
        <time>2021-10-14T12:00:26Z</time>
      </trkpt>
      <trkpt lat="43.334724" lon="-5.858981">
        <ele>159.896</ele>
        <time>2021-10-14T12:00:28Z</time>
      </trkpt>
      <trkpt lat="43.334735" lon="-5.858605">
        <ele>161.184</ele>
        <time>2021-10-14T12:00:30Z</time>
      </trkpt>
      <trkpt lat="43.334748" lon="-5.858250">
        <ele>163.952</ele>
        <time>2021-10-14T12:00:32Z</time>
      </trkpt>
      <trkpt lat="43.334767" lon="-5.857945">
        <ele>165.219</ele>
        <time>2021-10-14T12:00:34Z</time>
      </trkpt>
      <trkpt lat="43.334794" lon="-5.857810">
        <ele>165.692</ele>
        <time>2021-10-14T12:00:35Z</time>
      </trkpt>
      <trkpt lat="43.334913" lon="-5.857575">
        <ele>167.489</ele>
        <time>2021-10-14T12:00:37Z</time>
      </trkpt>
      <trkpt lat="43.335009" lon="-5.857477">
        <ele>168.281</ele>
        <time>2021-10-14T12:00:38Z</time>
      </trkpt>
      <trkpt lat="43.335268" lon="-5.857341">
        <ele>168.570</ele>
        <time>2021-10-14T12:00:40Z</time>
      </trkpt>
      <trkpt lat="43.335424" lon="-5.857297">
        <ele>169.385</ele>
        <time>2021-10-14T12:00:41Z</time>
      </trkpt>
      <trkpt lat="43.335588" lon="-5.857248">
        <ele>169.689</ele>
        <time>2021-10-14T12:00:42Z</time>
      </trkpt>
      <trkpt lat="43.335887" lon="-5.857146">
        <ele>170.617</ele>
        <time>2021-10-14T12:00:44Z</time>
      </trkpt>
      <trkpt lat="43.336138" lon="-5.857037">
        <ele>172.908</ele>
        <time>2021-10-14T12:00:46Z</time>
      </trkpt>
      <trkpt lat="43.336372" lon="-5.856863">
        <ele>173.656</ele>
        <time>2021-10-14T12:00:48Z</time>
      </trkpt>
      <trkpt lat="43.336487" lon="-5.856741">
        <ele>173.734</ele>
        <time>2021-10-14T12:00:49Z</time>
      </trkpt>
      <trkpt lat="43.336598" lon="-5.856603">
        <ele>175.172</ele>
        <time>2021-10-14T12:00:50Z</time>
      </trkpt>
      <trkpt lat="43.336832" lon="-5.856321">
        <ele>177.359</ele>
        <time>2021-10-14T12:00:52Z</time>
      </trkpt>
      <trkpt lat="43.336956" lon="-5.856189">
        <ele>178.262</ele>
        <time>2021-10-14T12:00:53Z</time>
      </trkpt>
      <trkpt lat="43.337083" lon="-5.856066">
        <ele>179.749</ele>
        <time>2021-10-14T12:00:54Z</time>
      </trkpt>
      <trkpt lat="43.337352" lon="-5.855821">
        <ele>181.711</ele>
        <time>2021-10-14T12:00:56Z</time>
      </trkpt>
      <trkpt lat="43.337628" lon="-5.855544">
        <ele>182.790</ele>
        <time>2021-10-14T12:00:58Z</time>
      </trkpt>
      <trkpt lat="43.337929" lon="-5.855245">
        <ele>186.365</ele>
        <time>2021-10-14T12:01:00Z</time>
      </trkpt>
      <trkpt lat="43.338214" lon="-5.854974">
        <ele>189.168</ele>
        <time>2021-10-14T12:01:02Z</time>
      </trkpt>
      <trkpt lat="43.338424" lon="-5.854776">
        <ele>190.614</ele>
        <time>2021-10-14T12:01:04Z</time>
      </trkpt>
      <trkpt lat="43.338617" lon="-5.854603">
        <ele>191.508</ele>
        <time>2021-10-14T12:01:06Z</time>
      </trkpt>
      <trkpt lat="43.338787" lon="-5.854461">
        <ele>193.544</ele>
        <time>2021-10-14T12:01:08Z</time>
      </trkpt>
      <trkpt lat="43.338926" lon="-5.854350">
        <ele>194.482</ele>
        <time>2021-10-14T12:01:10Z</time>
      </trkpt>
      <trkpt lat="43.339038" lon="-5.854261">
        <ele>195.540</ele>
        <time>2021-10-14T12:01:12Z</time>
      </trkpt>
      <trkpt lat="43.339200" lon="-5.854142">
        <ele>196.347</ele>
        <time>2021-10-14T12:01:14Z</time>
      </trkpt>
      <trkpt lat="43.339303" lon="-5.854049">
        <ele>196.760</ele>
        <time>2021-10-14T12:01:15Z</time>
      </trkpt>
      <trkpt lat="43.339501" lon="-5.853860">
        <ele>197.137</ele>
        <time>2021-10-14T12:01:17Z</time>
      </trkpt>
      <trkpt lat="43.339595" lon="-5.853742">
        <ele>197.399</ele>
        <time>2021-10-14T12:01:18Z</time>
      </trkpt>
      <trkpt lat="43.339687" lon="-5.853589">
        <ele>197.618</ele>
        <time>2021-10-14T12:01:19Z</time>
      </trkpt>
      <trkpt lat="43.339778" lon="-5.853413">
        <ele>197.768</ele>
        <time>2021-10-14T12:01:20Z</time>
      </trkpt>
      <trkpt lat="43.339864" lon="-5.853245">
        <ele>197.842</ele>
        <time>2021-10-14T12:01:21Z</time>
      </trkpt>
      <trkpt lat="43.339954" lon="-5.853079">
        <ele>198.326</ele>
        <time>2021-10-14T12:01:22Z</time>
      </trkpt>
      <trkpt lat="43.340098" lon="-5.852703">
        <ele>197.308</ele>
        <time>2021-10-14T12:01:24Z</time>
      </trkpt>
      <trkpt lat="43.340144" lon="-5.852504">
        <ele>198.284</ele>
        <time>2021-10-14T12:01:25Z</time>
      </trkpt>
      <trkpt lat="43.340189" lon="-5.852287">
        <ele>198.532</ele>
        <time>2021-10-14T12:01:26Z</time>
      </trkpt>
      <trkpt lat="43.340288" lon="-5.851858">
        <ele>199.230</ele>
        <time>2021-10-14T12:01:28Z</time>
      </trkpt>
      <trkpt lat="43.340348" lon="-5.851627">
        <ele>199.787</ele>
        <time>2021-10-14T12:01:29Z</time>
      </trkpt>
      <trkpt lat="43.340470" lon="-5.851177">
        <ele>200.230</ele>
        <time>2021-10-14T12:01:31Z</time>
      </trkpt>
      <trkpt lat="43.340535" lon="-5.850948">
        <ele>200.077</ele>
        <time>2021-10-14T12:01:32Z</time>
      </trkpt>
      <trkpt lat="43.340622" lon="-5.850598">
        <ele>200.859</ele>
        <time>2021-10-14T12:01:34Z</time>
      </trkpt>
      <trkpt lat="43.340645" lon="-5.850435">
        <ele>201.118</ele>
        <time>2021-10-14T12:01:35Z</time>
      </trkpt>
      <trkpt lat="43.340616" lon="-5.850130">
        <ele>203.157</ele>
        <time>2021-10-14T12:01:37Z</time>
      </trkpt>
      <trkpt lat="43.340573" lon="-5.849963">
        <ele>203.300</ele>
        <time>2021-10-14T12:01:38Z</time>
      </trkpt>
      <trkpt lat="43.340521" lon="-5.849778">
        <ele>205.420</ele>
        <time>2021-10-14T12:01:39Z</time>
      </trkpt>
      <trkpt lat="43.340467" lon="-5.849574">
        <ele>206.008</ele>
        <time>2021-10-14T12:01:40Z</time>
      </trkpt>
      <trkpt lat="43.340418" lon="-5.849354">
        <ele>206.593</ele>
        <time>2021-10-14T12:01:41Z</time>
      </trkpt>
      <trkpt lat="43.340337" lon="-5.848886">
        <ele>209.611</ele>
        <time>2021-10-14T12:01:43Z</time>
      </trkpt>
      <trkpt lat="43.340307" lon="-5.848655">
        <ele>209.849</ele>
        <time>2021-10-14T12:01:44Z</time>
      </trkpt>
      <trkpt lat="43.340256" lon="-5.848247">
        <ele>211.846</ele>
        <time>2021-10-14T12:01:46Z</time>
      </trkpt>
      <trkpt lat="43.340218" lon="-5.847911">
        <ele>213.159</ele>
        <time>2021-10-14T12:01:48Z</time>
      </trkpt>
      <trkpt lat="43.340244" lon="-5.847625">
        <ele>214.056</ele>
        <time>2021-10-14T12:01:50Z</time>
      </trkpt>
      <trkpt lat="43.340384" lon="-5.847370">
        <ele>218.488</ele>
        <time>2021-10-14T12:01:52Z</time>
      </trkpt>
      <trkpt lat="43.340636" lon="-5.847171">
        <ele>220.287</ele>
        <time>2021-10-14T12:01:54Z</time>
      </trkpt>
      <trkpt lat="43.340958" lon="-5.846993">
        <ele>222.964</ele>
        <time>2021-10-14T12:01:56Z</time>
      </trkpt>
      <trkpt lat="43.341274" lon="-5.846798">
        <ele>224.006</ele>
        <time>2021-10-14T12:01:58Z</time>
      </trkpt>
      <trkpt lat="43.341449" lon="-5.846716">
        <ele>223.816</ele>
        <time>2021-10-14T12:01:59Z</time>
      </trkpt>
      <trkpt lat="43.341775" lon="-5.846582">
        <ele>223.408</ele>
        <time>2021-10-14T12:02:01Z</time>
      </trkpt>
      <trkpt lat="43.341930" lon="-5.846514">
        <ele>223.434</ele>
        <time>2021-10-14T12:02:02Z</time>
      </trkpt>
      <trkpt lat="43.342205" lon="-5.846367">
        <ele>223.672</ele>
        <time>2021-10-14T12:02:04Z</time>
      </trkpt>
      <trkpt lat="43.342476" lon="-5.846162">
        <ele>223.010</ele>
        <time>2021-10-14T12:02:06Z</time>
      </trkpt>
      <trkpt lat="43.342597" lon="-5.846059">
        <ele>223.077</ele>
        <time>2021-10-14T12:02:07Z</time>
      </trkpt>
      <trkpt lat="43.342817" lon="-5.845883">
        <ele>222.260</ele>
        <time>2021-10-14T12:02:09Z</time>
      </trkpt>
      <trkpt lat="43.342914" lon="-5.845793">
        <ele>222.037</ele>
        <time>2021-10-14T12:02:10Z</time>
      </trkpt>
      <trkpt lat="43.343054" lon="-5.845545">
        <ele>221.579</ele>
        <time>2021-10-14T12:02:12Z</time>
      </trkpt>
      <trkpt lat="43.343099" lon="-5.845249">
        <ele>221.018</ele>
        <time>2021-10-14T12:02:14Z</time>
      </trkpt>
      <trkpt lat="43.343127" lon="-5.844934">
        <ele>221.288</ele>
        <time>2021-10-14T12:02:16Z</time>
      </trkpt>
      <trkpt lat="43.343139" lon="-5.844641">
        <ele>222.324</ele>
        <time>2021-10-14T12:02:18Z</time>
      </trkpt>
      <trkpt lat="43.343129" lon="-5.844483">
        <ele>222.426</ele>
        <time>2021-10-14T12:02:19Z</time>
      </trkpt>
      <trkpt lat="43.343104" lon="-5.844312">
        <ele>223.008</ele>
        <time>2021-10-14T12:02:20Z</time>
      </trkpt>
      <trkpt lat="43.343047" lon="-5.843967">
        <ele>224.916</ele>
        <time>2021-10-14T12:02:22Z</time>
      </trkpt>
      <trkpt lat="43.343063" lon="-5.843681">
        <ele>227.264</ele>
        <time>2021-10-14T12:02:24Z</time>
      </trkpt>
      <trkpt lat="43.343189" lon="-5.843519">
        <ele>228.892</ele>
        <time>2021-10-14T12:02:26Z</time>
      </trkpt>
      <trkpt lat="43.343424" lon="-5.843450">
        <ele>230.419</ele>
        <time>2021-10-14T12:02:28Z</time>
      </trkpt>
      <trkpt lat="43.343568" lon="-5.843415">
        <ele>232.282</ele>
        <time>2021-10-14T12:02:29Z</time>
      </trkpt>
      <trkpt lat="43.343817" lon="-5.843308">
        <ele>233.439</ele>
        <time>2021-10-14T12:02:31Z</time>
      </trkpt>
      <trkpt lat="43.343929" lon="-5.843228">
        <ele>233.981</ele>
        <time>2021-10-14T12:02:32Z</time>
      </trkpt>
      <trkpt lat="43.344115" lon="-5.842987">
        <ele>235.410</ele>
        <time>2021-10-14T12:02:34Z</time>
      </trkpt>
      <trkpt lat="43.344197" lon="-5.842828">
        <ele>237.176</ele>
        <time>2021-10-14T12:02:35Z</time>
      </trkpt>
      <trkpt lat="43.344391" lon="-5.842500">
        <ele>238.390</ele>
        <time>2021-10-14T12:02:37Z</time>
      </trkpt>
      <trkpt lat="43.344512" lon="-5.842356">
        <ele>238.819</ele>
        <time>2021-10-14T12:02:38Z</time>
      </trkpt>
      <trkpt lat="43.344773" lon="-5.842111">
        <ele>238.808</ele>
        <time>2021-10-14T12:02:40Z</time>
      </trkpt>
      <trkpt lat="43.344974" lon="-5.841829">
        <ele>239.235</ele>
        <time>2021-10-14T12:02:42Z</time>
      </trkpt>
      <trkpt lat="43.345054" lon="-5.841660">
        <ele>239.613</ele>
        <time>2021-10-14T12:02:43Z</time>
      </trkpt>
      <trkpt lat="43.345119" lon="-5.841496">
        <ele>238.831</ele>
        <time>2021-10-14T12:02:44Z</time>
      </trkpt>
      <trkpt lat="43.345226" lon="-5.841201">
        <ele>239.028</ele>
        <time>2021-10-14T12:02:46Z</time>
      </trkpt>
      <trkpt lat="43.345327" lon="-5.840945">
        <ele>239.291</ele>
        <time>2021-10-14T12:02:48Z</time>
      </trkpt>
      <trkpt lat="43.345380" lon="-5.840829">
        <ele>238.658</ele>
        <time>2021-10-14T12:02:49Z</time>
      </trkpt>
      <trkpt lat="43.345550" lon="-5.840586">
        <ele>238.130</ele>
        <time>2021-10-14T12:02:51Z</time>
      </trkpt>
      <trkpt lat="43.345659" lon="-5.840468">
        <ele>237.839</ele>
        <time>2021-10-14T12:02:52Z</time>
      </trkpt>
      <trkpt lat="43.345768" lon="-5.840360">
        <ele>236.179</ele>
        <time>2021-10-14T12:02:53Z</time>
      </trkpt>
      <trkpt lat="43.345864" lon="-5.840274">
        <ele>235.505</ele>
        <time>2021-10-14T12:02:54Z</time>
      </trkpt>
      <trkpt lat="43.346046" lon="-5.840160">
        <ele>235.325</ele>
        <time>2021-10-14T12:02:56Z</time>
      </trkpt>
      <trkpt lat="43.346261" lon="-5.840153">
        <ele>234.208</ele>
        <time>2021-10-14T12:02:58Z</time>
      </trkpt>
      <trkpt lat="43.346495" lon="-5.840205">
        <ele>231.285</ele>
        <time>2021-10-14T12:03:00Z</time>
      </trkpt>
      <trkpt lat="43.346728" lon="-5.840197">
        <ele>229.053</ele>
        <time>2021-10-14T12:03:02Z</time>
      </trkpt>
      <trkpt lat="43.346937" lon="-5.840055">
        <ele>226.751</ele>
        <time>2021-10-14T12:03:04Z</time>
      </trkpt>
      <trkpt lat="43.347129" lon="-5.839802">
        <ele>222.928</ele>
        <time>2021-10-14T12:03:06Z</time>
      </trkpt>
      <trkpt lat="43.347235" lon="-5.839672">
        <ele>222.891</ele>
        <time>2021-10-14T12:03:07Z</time>
      </trkpt>
      <trkpt lat="43.347350" lon="-5.839546">
        <ele>220.418</ele>
        <time>2021-10-14T12:03:08Z</time>
      </trkpt>
      <trkpt lat="43.347472" lon="-5.839427">
        <ele>218.990</ele>
        <time>2021-10-14T12:03:09Z</time>
      </trkpt>
      <trkpt lat="43.347705" lon="-5.839207">
        <ele>215.729</ele>
        <time>2021-10-14T12:03:11Z</time>
      </trkpt>
      <trkpt lat="43.347809" lon="-5.839111">
        <ele>213.996</ele>
        <time>2021-10-14T12:03:12Z</time>
      </trkpt>
      <trkpt lat="43.347972" lon="-5.838972">
        <ele>212.131</ele>
        <time>2021-10-14T12:03:14Z</time>
      </trkpt>
      <trkpt lat="43.348116" lon="-5.838901">
        <ele>210.424</ele>
        <time>2021-10-14T12:03:16Z</time>
      </trkpt>
      <trkpt lat="43.348288" lon="-5.838961">
        <ele>209.908</ele>
        <time>2021-10-14T12:03:18Z</time>
      </trkpt>
      <trkpt lat="43.348512" lon="-5.839123">
        <ele>209.137</ele>
        <time>2021-10-14T12:03:20Z</time>
      </trkpt>
      <trkpt lat="43.348722" lon="-5.839249">
        <ele>209.815</ele>
        <time>2021-10-14T12:03:22Z</time>
      </trkpt>
      <trkpt lat="43.348922" lon="-5.839214">
        <ele>209.643</ele>
        <time>2021-10-14T12:03:24Z</time>
      </trkpt>
      <trkpt lat="43.349014" lon="-5.839131">
        <ele>209.670</ele>
        <time>2021-10-14T12:03:25Z</time>
      </trkpt>
      <trkpt lat="43.349101" lon="-5.839005">
        <ele>209.853</ele>
        <time>2021-10-14T12:03:26Z</time>
      </trkpt>
      <trkpt lat="43.349250" lon="-5.838646">
        <ele>211.050</ele>
        <time>2021-10-14T12:03:28Z</time>
      </trkpt>
      <trkpt lat="43.349392" lon="-5.838198">
        <ele>211.532</ele>
        <time>2021-10-14T12:03:30Z</time>
      </trkpt>
      <trkpt lat="43.349459" lon="-5.837979">
        <ele>210.911</ele>
        <time>2021-10-14T12:03:31Z</time>
      </trkpt>
      <trkpt lat="43.349567" lon="-5.837579">
        <ele>211.719</ele>
        <time>2021-10-14T12:03:33Z</time>
      </trkpt>
      <trkpt lat="43.349656" lon="-5.837227">
        <ele>211.409</ele>
        <time>2021-10-14T12:03:35Z</time>
      </trkpt>
      <trkpt lat="43.349695" lon="-5.837067">
        <ele>212.319</ele>
        <time>2021-10-14T12:03:36Z</time>
      </trkpt>
      <trkpt lat="43.349764" lon="-5.836799">
        <ele>212.908</ele>
        <time>2021-10-14T12:03:38Z</time>
      </trkpt>
      <trkpt lat="43.349821" lon="-5.836626">
        <ele>212.989</ele>
        <time>2021-10-14T12:03:40Z</time>
      </trkpt>
      <trkpt lat="43.349838" lon="-5.836565">
        <ele>214.847</ele>
        <time>2021-10-14T12:03:42Z</time>
      </trkpt>
      <trkpt lat="43.349852" lon="-5.836506">
        <ele>215.485</ele>
        <time>2021-10-14T12:03:45Z</time>
      </trkpt>
      <trkpt lat="43.349925" lon="-5.836491">
        <ele>240.082</ele>
        <time>2021-10-14T12:03:54Z</time>
      </trkpt>
      <trkpt lat="43.350007" lon="-5.836535">
        <ele>246.715</ele>
        <time>2021-10-14T12:03:55Z</time>
      </trkpt>
      <trkpt lat="43.350091" lon="-5.836609">
        <ele>246.762</ele>
        <time>2021-10-14T12:03:56Z</time>
      </trkpt>
      <trkpt lat="43.350266" lon="-5.836780">
        <ele>246.624</ele>
        <time>2021-10-14T12:03:58Z</time>
      </trkpt>
      <trkpt lat="43.350372" lon="-5.836878">
        <ele>246.653</ele>
        <time>2021-10-14T12:03:59Z</time>
      </trkpt>
      <trkpt lat="43.350609" lon="-5.837092">
        <ele>246.616</ele>
        <time>2021-10-14T12:04:01Z</time>
      </trkpt>
      <trkpt lat="43.350841" lon="-5.837303">
        <ele>246.576</ele>
        <time>2021-10-14T12:04:03Z</time>
      </trkpt>
      <trkpt lat="43.351059" lon="-5.837510">
        <ele>246.513</ele>
        <time>2021-10-14T12:04:05Z</time>
      </trkpt>
      <trkpt lat="43.351164" lon="-5.837611">
        <ele>246.508</ele>
        <time>2021-10-14T12:04:06Z</time>
      </trkpt>
      <trkpt lat="43.351345" lon="-5.837795">
        <ele>246.539</ele>
        <time>2021-10-14T12:04:08Z</time>
      </trkpt>
      <trkpt lat="43.351497" lon="-5.837989">
        <ele>246.517</ele>
        <time>2021-10-14T12:04:10Z</time>
      </trkpt>
      <trkpt lat="43.351562" lon="-5.838095">
        <ele>246.525</ele>
        <time>2021-10-14T12:04:11Z</time>
      </trkpt>
      <trkpt lat="43.351680" lon="-5.838340">
        <ele>246.562</ele>
        <time>2021-10-14T12:04:13Z</time>
      </trkpt>
      <trkpt lat="43.351731" lon="-5.838473">
        <ele>246.575</ele>
        <time>2021-10-14T12:04:14Z</time>
      </trkpt>
      <trkpt lat="43.351821" lon="-5.838729">
        <ele>246.562</ele>
        <time>2021-10-14T12:04:16Z</time>
      </trkpt>
      <trkpt lat="43.351862" lon="-5.838839">
        <ele>246.574</ele>
        <time>2021-10-14T12:04:17Z</time>
      </trkpt>
      <trkpt lat="43.351902" lon="-5.838943">
        <ele>246.543</ele>
        <time>2021-10-14T12:04:18Z</time>
      </trkpt>
      <trkpt lat="43.351983" lon="-5.839157">
        <ele>246.558</ele>
        <time>2021-10-14T12:04:20Z</time>
      </trkpt>
      <trkpt lat="43.352025" lon="-5.839266">
        <ele>246.552</ele>
        <time>2021-10-14T12:04:21Z</time>
      </trkpt>
      <trkpt lat="43.352067" lon="-5.839375">
        <ele>246.517</ele>
        <time>2021-10-14T12:04:22Z</time>
      </trkpt>
      <trkpt lat="43.352109" lon="-5.839485">
        <ele>246.508</ele>
        <time>2021-10-14T12:04:23Z</time>
      </trkpt>
      <trkpt lat="43.352188" lon="-5.839706">
        <ele>246.523</ele>
        <time>2021-10-14T12:04:25Z</time>
      </trkpt>
      <trkpt lat="43.352228" lon="-5.839818">
        <ele>246.511</ele>
        <time>2021-10-14T12:04:26Z</time>
      </trkpt>
      <trkpt lat="43.352265" lon="-5.839922">
        <ele>246.599</ele>
        <time>2021-10-14T12:04:27Z</time>
      </trkpt>
      <trkpt lat="43.352334" lon="-5.840113">
        <ele>246.676</ele>
        <time>2021-10-14T12:04:29Z</time>
      </trkpt>
      <trkpt lat="43.352372" lon="-5.840214">
        <ele>246.619</ele>
        <time>2021-10-14T12:04:30Z</time>
      </trkpt>
      <trkpt lat="43.352451" lon="-5.840442">
        <ele>246.656</ele>
        <time>2021-10-14T12:04:32Z</time>
      </trkpt>
      <trkpt lat="43.352533" lon="-5.840661">
        <ele>246.618</ele>
        <time>2021-10-14T12:04:34Z</time>
      </trkpt>
      <trkpt lat="43.352598" lon="-5.840836">
        <ele>246.657</ele>
        <time>2021-10-14T12:04:36Z</time>
      </trkpt>
      <trkpt lat="43.352626" lon="-5.840913">
        <ele>246.637</ele>
        <time>2021-10-14T12:04:37Z</time>
      </trkpt>
      <trkpt lat="43.352654" lon="-5.840993">
        <ele>246.649</ele>
        <time>2021-10-14T12:04:38Z</time>
      </trkpt>
      <trkpt lat="43.352711" lon="-5.841145">
        <ele>246.613</ele>
        <time>2021-10-14T12:04:40Z</time>
      </trkpt>
      <trkpt lat="43.352769" lon="-5.841294">
        <ele>246.608</ele>
        <time>2021-10-14T12:04:42Z</time>
      </trkpt>
      <trkpt lat="43.352799" lon="-5.841368">
        <ele>246.641</ele>
        <time>2021-10-14T12:04:43Z</time>
      </trkpt>
      <trkpt lat="43.352831" lon="-5.841441">
        <ele>246.619</ele>
        <time>2021-10-14T12:04:44Z</time>
      </trkpt>
      <trkpt lat="43.352864" lon="-5.841514">
        <ele>246.637</ele>
        <time>2021-10-14T12:04:45Z</time>
      </trkpt>
      <trkpt lat="43.352926" lon="-5.841664">
        <ele>246.594</ele>
        <time>2021-10-14T12:04:47Z</time>
      </trkpt>
      <trkpt lat="43.352958" lon="-5.841748">
        <ele>246.587</ele>
        <time>2021-10-14T12:04:48Z</time>
      </trkpt>
      <trkpt lat="43.352995" lon="-5.841844">
        <ele>246.594</ele>
        <time>2021-10-14T12:04:49Z</time>
      </trkpt>
      <trkpt lat="43.353034" lon="-5.841946">
        <ele>218.786</ele>
        <time>2021-10-14T12:04:50Z</time>
      </trkpt>
      <trkpt lat="43.353110" lon="-5.842141">
        <ele>176.495</ele>
        <time>2021-10-14T12:04:52Z</time>
      </trkpt>
      <trkpt lat="43.353149" lon="-5.842234">
        <ele>175.663</ele>
        <time>2021-10-14T12:04:53Z</time>
      </trkpt>
      <trkpt lat="43.353189" lon="-5.842325">
        <ele>174.144</ele>
        <time>2021-10-14T12:04:54Z</time>
      </trkpt>
      <trkpt lat="43.353277" lon="-5.842506">
        <ele>172.218</ele>
        <time>2021-10-14T12:04:56Z</time>
      </trkpt>
      <trkpt lat="43.353378" lon="-5.842696">
        <ele>170.708</ele>
        <time>2021-10-14T12:04:58Z</time>
      </trkpt>
      <trkpt lat="43.353497" lon="-5.842875">
        <ele>168.554</ele>
        <time>2021-10-14T12:05:00Z</time>
      </trkpt>
      <trkpt lat="43.353603" lon="-5.843028">
        <ele>166.172</ele>
        <time>2021-10-14T12:05:02Z</time>
      </trkpt>
      <trkpt lat="43.353685" lon="-5.843146">
        <ele>164.920</ele>
        <time>2021-10-14T12:05:04Z</time>
      </trkpt>
      <trkpt lat="43.353750" lon="-5.843242">
        <ele>162.827</ele>
        <time>2021-10-14T12:05:06Z</time>
      </trkpt>
      <trkpt lat="43.353801" lon="-5.843316">
        <ele>161.160</ele>
        <time>2021-10-14T12:05:08Z</time>
      </trkpt>
      <trkpt lat="43.353757" lon="-5.843272">
        <ele>159.197</ele>
        <time>2021-10-14T12:05:11Z</time>
      </trkpt>
      <trkpt lat="43.353792" lon="-5.843341">
        <ele>158.159</ele>
        <time>2021-10-14T12:05:14Z</time>
      </trkpt>
      <trkpt lat="43.353856" lon="-5.843424">
        <ele>157.858</ele>
        <time>2021-10-14T12:05:16Z</time>
      </trkpt>
      <trkpt lat="43.353806" lon="-5.843418">
        <ele>159.526</ele>
        <time>2021-10-14T12:05:21Z</time>
      </trkpt>
      <trkpt lat="43.353854" lon="-5.843449">
        <ele>159.547</ele>
        <time>2021-10-14T12:05:34Z</time>
      </trkpt>
      <trkpt lat="43.353896" lon="-5.843473">
        <ele>159.511</ele>
        <time>2021-10-14T12:05:40Z</time>
      </trkpt>
      <trkpt lat="43.353938" lon="-5.843496">
        <ele>159.508</ele>
        <time>2021-10-14T12:05:49Z</time>
      </trkpt>
      <trkpt lat="43.353983" lon="-5.843523">
        <ele>159.540</ele>
        <time>2021-10-14T12:05:55Z</time>
      </trkpt>
      <trkpt lat="43.354031" lon="-5.843556">
        <ele>159.528</ele>
        <time>2021-10-14T12:05:57Z</time>
      </trkpt>
      <trkpt lat="43.354103" lon="-5.843594">
        <ele>159.586</ele>
        <time>2021-10-14T12:05:59Z</time>
      </trkpt>
      <trkpt lat="43.354152" lon="-5.843615">
        <ele>159.533</ele>
        <time>2021-10-14T12:06:00Z</time>
      </trkpt>
      <trkpt lat="43.354256" lon="-5.843625">
        <ele>159.546</ele>
        <time>2021-10-14T12:06:02Z</time>
      </trkpt>
      <trkpt lat="43.354358" lon="-5.843578">
        <ele>159.543</ele>
        <time>2021-10-14T12:06:04Z</time>
      </trkpt>
      <trkpt lat="43.354438" lon="-5.843416">
        <ele>159.555</ele>
        <time>2021-10-14T12:06:06Z</time>
      </trkpt>
      <trkpt lat="43.354467" lon="-5.843295">
        <ele>159.564</ele>
        <time>2021-10-14T12:06:07Z</time>
      </trkpt>
      <trkpt lat="43.354485" lon="-5.843150">
        <ele>159.549</ele>
        <time>2021-10-14T12:06:08Z</time>
      </trkpt>
      <trkpt lat="43.354498" lon="-5.842797">
        <ele>159.502</ele>
        <time>2021-10-14T12:06:10Z</time>
      </trkpt>
      <trkpt lat="43.354505" lon="-5.842412">
        <ele>159.522</ele>
        <time>2021-10-14T12:06:12Z</time>
      </trkpt>
      <trkpt lat="43.354523" lon="-5.842207">
        <ele>159.508</ele>
        <time>2021-10-14T12:06:13Z</time>
      </trkpt>
      <trkpt lat="43.354553" lon="-5.842000">
        <ele>159.592</ele>
        <time>2021-10-14T12:06:14Z</time>
      </trkpt>
      <trkpt lat="43.354648" lon="-5.841594">
        <ele>159.540</ele>
        <time>2021-10-14T12:06:16Z</time>
      </trkpt>
      <trkpt lat="43.354715" lon="-5.841392">
        <ele>159.588</ele>
        <time>2021-10-14T12:06:17Z</time>
      </trkpt>
      <trkpt lat="43.354891" lon="-5.840979">
        <ele>159.595</ele>
        <time>2021-10-14T12:06:19Z</time>
      </trkpt>
      <trkpt lat="43.354999" lon="-5.840781">
        <ele>159.518</ele>
        <time>2021-10-14T12:06:20Z</time>
      </trkpt>
      <trkpt lat="43.355263" lon="-5.840411">
        <ele>159.555</ele>
        <time>2021-10-14T12:06:22Z</time>
      </trkpt>
      <trkpt lat="43.355430" lon="-5.840237">
        <ele>159.537</ele>
        <time>2021-10-14T12:06:23Z</time>
      </trkpt>
      <trkpt lat="43.355781" lon="-5.839903">
        <ele>159.446</ele>
        <time>2021-10-14T12:06:25Z</time>
      </trkpt>
      <trkpt lat="43.355954" lon="-5.839740">
        <ele>159.495</ele>
        <time>2021-10-14T12:06:26Z</time>
      </trkpt>
      <trkpt lat="43.356264" lon="-5.839448">
        <ele>159.449</ele>
        <time>2021-10-14T12:06:28Z</time>
      </trkpt>
      <trkpt lat="43.356576" lon="-5.839158">
        <ele>159.423</ele>
        <time>2021-10-14T12:06:30Z</time>
      </trkpt>
      <trkpt lat="43.356873" lon="-5.838886">
        <ele>159.408</ele>
        <time>2021-10-14T12:06:32Z</time>
      </trkpt>
      <trkpt lat="43.357021" lon="-5.838751">
        <ele>159.467</ele>
        <time>2021-10-14T12:06:33Z</time>
      </trkpt>
      <trkpt lat="43.357293" lon="-5.838505">
        <ele>159.485</ele>
        <time>2021-10-14T12:06:35Z</time>
      </trkpt>
      <trkpt lat="43.357580" lon="-5.838293">
        <ele>159.433</ele>
        <time>2021-10-14T12:06:37Z</time>
      </trkpt>
      <trkpt lat="43.357745" lon="-5.838207">
        <ele>159.410</ele>
        <time>2021-10-14T12:06:38Z</time>
      </trkpt>
      <trkpt lat="43.357919" lon="-5.838136">
        <ele>159.473</ele>
        <time>2021-10-14T12:06:39Z</time>
      </trkpt>
      <trkpt lat="43.358276" lon="-5.838052">
        <ele>159.450</ele>
        <time>2021-10-14T12:06:41Z</time>
      </trkpt>
      <trkpt lat="43.358600" lon="-5.838040">
        <ele>159.462</ele>
        <time>2021-10-14T12:06:43Z</time>
      </trkpt>
      <trkpt lat="43.358850" lon="-5.838053">
        <ele>159.451</ele>
        <time>2021-10-14T12:06:45Z</time>
      </trkpt>
      <trkpt lat="43.359066" lon="-5.838081">
        <ele>159.459</ele>
        <time>2021-10-14T12:06:47Z</time>
      </trkpt>
      <trkpt lat="43.359257" lon="-5.838077">
        <ele>159.403</ele>
        <time>2021-10-14T12:06:49Z</time>
      </trkpt>
      <trkpt lat="43.359343" lon="-5.838044">
        <ele>159.423</ele>
        <time>2021-10-14T12:06:50Z</time>
      </trkpt>
      <trkpt lat="43.359491" lon="-5.837937">
        <ele>159.408</ele>
        <time>2021-10-14T12:06:52Z</time>
      </trkpt>
      <trkpt lat="43.359647" lon="-5.837886">
        <ele>124.223</ele>
        <time>2021-10-14T12:06:54Z</time>
      </trkpt>
      <trkpt lat="43.359731" lon="-5.837901">
        <ele>123.571</ele>
        <time>2021-10-14T12:06:55Z</time>
      </trkpt>
      <trkpt lat="43.359818" lon="-5.837935">
        <ele>122.789</ele>
        <time>2021-10-14T12:06:56Z</time>
      </trkpt>
      <trkpt lat="43.359989" lon="-5.838039">
        <ele>120.016</ele>
        <time>2021-10-14T12:06:58Z</time>
      </trkpt>
      <trkpt lat="43.360124" lon="-5.838171">
        <ele>118.469</ele>
        <time>2021-10-14T12:07:00Z</time>
      </trkpt>
      <trkpt lat="43.360214" lon="-5.838340">
        <ele>117.176</ele>
        <time>2021-10-14T12:07:02Z</time>
      </trkpt>
      <trkpt lat="43.360338" lon="-5.838498">
        <ele>116.448</ele>
        <time>2021-10-14T12:07:04Z</time>
      </trkpt>
      <trkpt lat="43.360427" lon="-5.838543">
        <ele>116.727</ele>
        <time>2021-10-14T12:07:05Z</time>
      </trkpt>
      <trkpt lat="43.360526" lon="-5.838571">
        <ele>116.445</ele>
        <time>2021-10-14T12:07:06Z</time>
      </trkpt>
      <trkpt lat="43.360625" lon="-5.838589">
        <ele>116.047</ele>
        <time>2021-10-14T12:07:07Z</time>
      </trkpt>
      <trkpt lat="43.360719" lon="-5.838600">
        <ele>116.011</ele>
        <time>2021-10-14T12:07:08Z</time>
      </trkpt>
      <trkpt lat="43.360857" lon="-5.838610">
        <ele>116.008</ele>
        <time>2021-10-14T12:07:10Z</time>
      </trkpt>
      <trkpt lat="43.360923" lon="-5.838614">
        <ele>116.172</ele>
        <time>2021-10-14T12:07:11Z</time>
      </trkpt>
      <trkpt lat="43.361000" lon="-5.838621">
        <ele>115.850</ele>
        <time>2021-10-14T12:07:12Z</time>
      </trkpt>
      <trkpt lat="43.361084" lon="-5.838629">
        <ele>116.418</ele>
        <time>2021-10-14T12:07:13Z</time>
      </trkpt>
      <trkpt lat="43.361170" lon="-5.838635">
        <ele>116.645</ele>
        <time>2021-10-14T12:07:14Z</time>
      </trkpt>
      <trkpt lat="43.361330" lon="-5.838639">
        <ele>117.158</ele>
        <time>2021-10-14T12:07:16Z</time>
      </trkpt>
      <trkpt lat="43.361412" lon="-5.838640">
        <ele>117.125</ele>
        <time>2021-10-14T12:07:17Z</time>
      </trkpt>
      <trkpt lat="43.361500" lon="-5.838642">
        <ele>117.517</ele>
        <time>2021-10-14T12:07:18Z</time>
      </trkpt>
      <trkpt lat="43.361721" lon="-5.838642">
        <ele>120.036</ele>
        <time>2021-10-14T12:07:20Z</time>
      </trkpt>
      <trkpt lat="43.361961" lon="-5.838625">
        <ele>119.624</ele>
        <time>2021-10-14T12:07:22Z</time>
      </trkpt>
      <trkpt lat="43.362072" lon="-5.838619">
        <ele>119.504</ele>
        <time>2021-10-14T12:07:23Z</time>
      </trkpt>
      <trkpt lat="43.362277" lon="-5.838616">
        <ele>120.714</ele>
        <time>2021-10-14T12:07:25Z</time>
      </trkpt>
      <trkpt lat="43.362395" lon="-5.838615">
        <ele>120.708</ele>
        <time>2021-10-14T12:07:26Z</time>
      </trkpt>
      <trkpt lat="43.362621" lon="-5.838618">
        <ele>120.940</ele>
        <time>2021-10-14T12:07:28Z</time>
      </trkpt>
      <trkpt lat="43.362726" lon="-5.838625">
        <ele>122.348</ele>
        <time>2021-10-14T12:07:29Z</time>
      </trkpt>
      <trkpt lat="43.362889" lon="-5.838640">
        <ele>122.726</ele>
        <time>2021-10-14T12:07:31Z</time>
      </trkpt>
      <trkpt lat="43.362959" lon="-5.838650">
        <ele>122.883</ele>
        <time>2021-10-14T12:07:32Z</time>
      </trkpt>
      <trkpt lat="43.363083" lon="-5.838668">
        <ele>123.636</ele>
        <time>2021-10-14T12:07:34Z</time>
      </trkpt>
      <trkpt lat="43.363139" lon="-5.838674">
        <ele>124.713</ele>
        <time>2021-10-14T12:07:35Z</time>
      </trkpt>
      <trkpt lat="43.363214" lon="-5.838673">
        <ele>126.385</ele>
        <time>2021-10-14T12:07:37Z</time>
      </trkpt>
      <trkpt lat="43.363267" lon="-5.838678">
        <ele>126.684</ele>
        <time>2021-10-14T12:07:40Z</time>
      </trkpt>
      <trkpt lat="43.363317" lon="-5.838699">
        <ele>128.534</ele>
        <time>2021-10-14T12:07:51Z</time>
      </trkpt>
      <trkpt lat="43.363361" lon="-5.838724">
        <ele>128.555</ele>
        <time>2021-10-14T12:07:54Z</time>
      </trkpt>
      <trkpt lat="43.363410" lon="-5.838756">
        <ele>128.510</ele>
        <time>2021-10-14T12:07:57Z</time>
      </trkpt>
      <trkpt lat="43.363456" lon="-5.838778">
        <ele>128.508</ele>
        <time>2021-10-14T12:08:07Z</time>
      </trkpt>
      <trkpt lat="43.363502" lon="-5.838793">
        <ele>128.511</ele>
        <time>2021-10-14T12:08:12Z</time>
      </trkpt>
      <trkpt lat="43.363548" lon="-5.838813">
        <ele>128.579</ele>
        <time>2021-10-14T12:08:25Z</time>
      </trkpt>
      <trkpt lat="43.363595" lon="-5.838822">
        <ele>128.527</ele>
        <time>2021-10-14T12:08:34Z</time>
      </trkpt>
      <trkpt lat="43.363643" lon="-5.838836">
        <ele>128.524</ele>
        <time>2021-10-14T12:08:40Z</time>
      </trkpt>
      <trkpt lat="43.363687" lon="-5.838864">
        <ele>128.537</ele>
        <time>2021-10-14T12:08:42Z</time>
      </trkpt>
      <trkpt lat="43.363745" lon="-5.838903">
        <ele>128.534</ele>
        <time>2021-10-14T12:08:44Z</time>
      </trkpt>
      <trkpt lat="43.363790" lon="-5.838928">
        <ele>128.556</ele>
        <time>2021-10-14T12:08:47Z</time>
      </trkpt>
      <trkpt lat="43.363853" lon="-5.838949">
        <ele>128.515</ele>
        <time>2021-10-14T12:08:50Z</time>
      </trkpt>
      <trkpt lat="43.363933" lon="-5.838893">
        <ele>128.517</ele>
        <time>2021-10-14T12:08:52Z</time>
      </trkpt>
      <trkpt lat="43.364012" lon="-5.838727">
        <ele>128.587</ele>
        <time>2021-10-14T12:08:54Z</time>
      </trkpt>
      <trkpt lat="43.364045" lon="-5.838633">
        <ele>128.515</ele>
        <time>2021-10-14T12:08:55Z</time>
      </trkpt>
      <trkpt lat="43.364070" lon="-5.838540">
        <ele>128.508</ele>
        <time>2021-10-14T12:08:56Z</time>
      </trkpt>
      <trkpt lat="43.364088" lon="-5.838392">
        <ele>128.589</ele>
        <time>2021-10-14T12:08:58Z</time>
      </trkpt>
      <trkpt lat="43.364093" lon="-5.838318">
        <ele>128.577</ele>
        <time>2021-10-14T12:09:00Z</time>
      </trkpt>
      <trkpt lat="43.364091" lon="-5.838252">
        <ele>128.665</ele>
        <time>2021-10-14T12:09:10Z</time>
      </trkpt>
      <trkpt lat="43.364108" lon="-5.838187">
        <ele>128.632</ele>
        <time>2021-10-14T12:09:13Z</time>
      </trkpt>
      <trkpt lat="43.364140" lon="-5.838115">
        <ele>128.715</ele>
        <time>2021-10-14T12:09:17Z</time>
      </trkpt>
      <trkpt lat="43.364184" lon="-5.838016">
        <ele>128.712</ele>
        <time>2021-10-14T12:09:19Z</time>
      </trkpt>
      <trkpt lat="43.364221" lon="-5.837925">
        <ele>128.774</ele>
        <time>2021-10-14T12:09:20Z</time>
      </trkpt>
      <trkpt lat="43.364309" lon="-5.837685">
        <ele>129.073</ele>
        <time>2021-10-14T12:09:22Z</time>
      </trkpt>
      <trkpt lat="43.364373" lon="-5.837417">
        <ele>129.086</ele>
        <time>2021-10-14T12:09:24Z</time>
      </trkpt>
      <trkpt lat="43.364394" lon="-5.837299">
        <ele>129.060</ele>
        <time>2021-10-14T12:09:25Z</time>
      </trkpt>
      <trkpt lat="43.364415" lon="-5.837183">
        <ele>129.026</ele>
        <time>2021-10-14T12:09:26Z</time>
      </trkpt>
      <trkpt lat="43.364453" lon="-5.836975">
        <ele>129.008</ele>
        <time>2021-10-14T12:09:28Z</time>
      </trkpt>
      <trkpt lat="43.364474" lon="-5.836870">
        <ele>129.076</ele>
        <time>2021-10-14T12:09:29Z</time>
      </trkpt>
      <trkpt lat="43.364491" lon="-5.836772">
        <ele>129.074</ele>
        <time>2021-10-14T12:09:30Z</time>
      </trkpt>
      <trkpt lat="43.364518" lon="-5.836604">
        <ele>129.072</ele>
        <time>2021-10-14T12:09:32Z</time>
      </trkpt>
      <trkpt lat="43.364535" lon="-5.836481">
        <ele>129.099</ele>
        <time>2021-10-14T12:09:34Z</time>
      </trkpt>
      <trkpt lat="43.364548" lon="-5.836410">
        <ele>129.032</ele>
        <time>2021-10-14T12:09:35Z</time>
      </trkpt>
      <trkpt lat="43.364568" lon="-5.836316">
        <ele>129.019</ele>
        <time>2021-10-14T12:09:36Z</time>
      </trkpt>
      <trkpt lat="43.364594" lon="-5.836137">
        <ele>129.021</ele>
        <time>2021-10-14T12:09:38Z</time>
      </trkpt>
      <trkpt lat="43.364633" lon="-5.835994">
        <ele>129.020</ele>
        <time>2021-10-14T12:09:40Z</time>
      </trkpt>
      <trkpt lat="43.364654" lon="-5.835913">
        <ele>129.032</ele>
        <time>2021-10-14T12:09:42Z</time>
      </trkpt>
      <trkpt lat="43.364682" lon="-5.835845">
        <ele>128.992</ele>
        <time>2021-10-14T12:09:45Z</time>
      </trkpt>
      <trkpt lat="43.364716" lon="-5.835794">
        <ele>145.811</ele>
        <time>2021-10-14T12:10:23Z</time>
      </trkpt>
      <trkpt lat="43.364735" lon="-5.835719">
        <ele>154.708</ele>
        <time>2021-10-14T12:10:25Z</time>
      </trkpt>
      <trkpt lat="43.364747" lon="-5.835655">
        <ele>154.731</ele>
        <time>2021-10-14T12:10:26Z</time>
      </trkpt>
      <trkpt lat="43.364764" lon="-5.835552">
        <ele>154.789</ele>
        <time>2021-10-14T12:10:28Z</time>
      </trkpt>
      <trkpt lat="43.364778" lon="-5.835450">
        <ele>154.737</ele>
        <time>2021-10-14T12:10:30Z</time>
      </trkpt>
      <trkpt lat="43.364793" lon="-5.835341">
        <ele>155.654</ele>
        <time>2021-10-14T12:10:32Z</time>
      </trkpt>
      <trkpt lat="43.364816" lon="-5.835227">
        <ele>155.667</ele>
        <time>2021-10-14T12:10:34Z</time>
      </trkpt>
      <trkpt lat="43.364827" lon="-5.835167">
        <ele>155.614</ele>
        <time>2021-10-14T12:10:35Z</time>
      </trkpt>
      <trkpt lat="43.364841" lon="-5.835090">
        <ele>155.696</ele>
        <time>2021-10-14T12:10:36Z</time>
      </trkpt>
      <trkpt lat="43.364868" lon="-5.834939">
        <ele>155.685</ele>
        <time>2021-10-14T12:10:38Z</time>
      </trkpt>
      <trkpt lat="43.364889" lon="-5.834835">
        <ele>155.629</ele>
        <time>2021-10-14T12:10:40Z</time>
      </trkpt>
      <trkpt lat="43.364900" lon="-5.834758">
        <ele>155.600</ele>
        <time>2021-10-14T12:10:42Z</time>
      </trkpt>
      <trkpt lat="43.364902" lon="-5.834693">
        <ele>155.620</ele>
        <time>2021-10-14T12:10:47Z</time>
      </trkpt>
      <trkpt lat="43.364915" lon="-5.834622">
        <ele>155.608</ele>
        <time>2021-10-14T12:10:50Z</time>
      </trkpt>
      <trkpt lat="43.364938" lon="-5.834565">
        <ele>155.680</ele>
        <time>2021-10-14T12:10:52Z</time>
      </trkpt>
      <trkpt lat="43.364942" lon="-5.834497">
        <ele>154.528</ele>
        <time>2021-10-14T12:11:28Z</time>
      </trkpt>
      <trkpt lat="43.364950" lon="-5.834421">
        <ele>153.086</ele>
        <time>2021-10-14T12:12:11Z</time>
      </trkpt>
      <trkpt lat="43.364978" lon="-5.834311">
        <ele>153.053</ele>
        <time>2021-10-14T12:12:13Z</time>
      </trkpt>
      <trkpt lat="43.364996" lon="-5.834249">
        <ele>152.966</ele>
        <time>2021-10-14T12:12:14Z</time>
      </trkpt>
      <trkpt lat="43.365034" lon="-5.834126">
        <ele>152.963</ele>
        <time>2021-10-14T12:12:16Z</time>
      </trkpt>
      <trkpt lat="43.365053" lon="-5.834049">
        <ele>152.745</ele>
        <time>2021-10-14T12:12:17Z</time>
      </trkpt>
      <trkpt lat="43.365071" lon="-5.833974">
        <ele>152.694</ele>
        <time>2021-10-14T12:12:18Z</time>
      </trkpt>
      <trkpt lat="43.365091" lon="-5.833895">
        <ele>152.673</ele>
        <time>2021-10-14T12:12:19Z</time>
      </trkpt>
      <trkpt lat="43.365112" lon="-5.833811">
        <ele>152.685</ele>
        <time>2021-10-14T12:12:20Z</time>
      </trkpt>
      <trkpt lat="43.365167" lon="-5.833659">
        <ele>152.613</ele>
        <time>2021-10-14T12:12:22Z</time>
      </trkpt>
      <trkpt lat="43.365222" lon="-5.833600">
        <ele>152.608</ele>
        <time>2021-10-14T12:12:23Z</time>
      </trkpt>
      <trkpt lat="43.365388" lon="-5.833501">
        <ele>152.635</ele>
        <time>2021-10-14T12:12:25Z</time>
      </trkpt>
      <trkpt lat="43.365487" lon="-5.833447">
        <ele>152.693</ele>
        <time>2021-10-14T12:12:26Z</time>
      </trkpt>
      <trkpt lat="43.365659" lon="-5.833326">
        <ele>152.641</ele>
        <time>2021-10-14T12:12:28Z</time>
      </trkpt>
      <trkpt lat="43.365732" lon="-5.833283">
        <ele>152.668</ele>
        <time>2021-10-14T12:12:29Z</time>
      </trkpt>
      <trkpt lat="43.365845" lon="-5.833230">
        <ele>152.661</ele>
        <time>2021-10-14T12:12:31Z</time>
      </trkpt>
      <trkpt lat="43.365895" lon="-5.833208">
        <ele>152.658</ele>
        <time>2021-10-14T12:12:32Z</time>
      </trkpt>
      <trkpt lat="43.365943" lon="-5.833191">
        <ele>152.690</ele>
        <time>2021-10-14T12:12:33Z</time>
      </trkpt>
      <trkpt lat="43.366041" lon="-5.833150">
        <ele>152.679</ele>
        <time>2021-10-14T12:12:35Z</time>
      </trkpt>
      <trkpt lat="43.366118" lon="-5.833147">
        <ele>152.675</ele>
        <time>2021-10-14T12:12:37Z</time>
      </trkpt>
      <trkpt lat="43.366182" lon="-5.833221">
        <ele>152.628</ele>
        <time>2021-10-14T12:12:39Z</time>
      </trkpt>
      <trkpt lat="43.366268" lon="-5.833387">
        <ele>152.620</ele>
        <time>2021-10-14T12:12:41Z</time>
      </trkpt>
      <trkpt lat="43.366341" lon="-5.833458">
        <ele>152.608</ele>
        <time>2021-10-14T12:12:42Z</time>
      </trkpt>
      <trkpt lat="43.366532" lon="-5.833573">
        <ele>152.615</ele>
        <time>2021-10-14T12:12:44Z</time>
      </trkpt>
      <trkpt lat="43.366715" lon="-5.833678">
        <ele>152.633</ele>
        <time>2021-10-14T12:12:46Z</time>
      </trkpt>
      <trkpt lat="43.366799" lon="-5.833729">
        <ele>152.661</ele>
        <time>2021-10-14T12:12:47Z</time>
      </trkpt>
      <trkpt lat="43.366947" lon="-5.833817">
        <ele>152.638</ele>
        <time>2021-10-14T12:12:49Z</time>
      </trkpt>
      <trkpt lat="43.367033" lon="-5.833851">
        <ele>152.621</ele>
        <time>2021-10-14T12:12:50Z</time>
      </trkpt>
      <trkpt lat="43.367219" lon="-5.833877">
        <ele>152.628</ele>
        <time>2021-10-14T12:12:52Z</time>
      </trkpt>
      <trkpt lat="43.367320" lon="-5.833866">
        <ele>152.650</ele>
        <time>2021-10-14T12:12:53Z</time>
      </trkpt>
      <trkpt lat="43.367419" lon="-5.833830">
        <ele>152.659</ele>
        <time>2021-10-14T12:12:54Z</time>
      </trkpt>
      <trkpt lat="43.367596" lon="-5.833667">
        <ele>152.672</ele>
        <time>2021-10-14T12:12:56Z</time>
      </trkpt>
      <trkpt lat="43.367740" lon="-5.833412">
        <ele>152.613</ele>
        <time>2021-10-14T12:12:58Z</time>
      </trkpt>
      <trkpt lat="43.367881" lon="-5.833117">
        <ele>152.614</ele>
        <time>2021-10-14T12:13:00Z</time>
      </trkpt>
      <trkpt lat="43.367971" lon="-5.832951">
        <ele>152.608</ele>
        <time>2021-10-14T12:13:01Z</time>
      </trkpt>
      <trkpt lat="43.368077" lon="-5.832766">
        <ele>152.615</ele>
        <time>2021-10-14T12:13:02Z</time>
      </trkpt>
      <trkpt lat="43.368282" lon="-5.832402">
        <ele>152.673</ele>
        <time>2021-10-14T12:13:04Z</time>
      </trkpt>
      <trkpt lat="43.368388" lon="-5.832210">
        <ele>152.671</ele>
        <time>2021-10-14T12:13:05Z</time>
      </trkpt>
      <trkpt lat="43.368500" lon="-5.832002">
        <ele>152.638</ele>
        <time>2021-10-14T12:13:06Z</time>
      </trkpt>
      <trkpt lat="43.368753" lon="-5.831538">
        <ele>97.591</ele>
        <time>2021-10-14T12:13:08Z</time>
      </trkpt>
      <trkpt lat="43.369036" lon="-5.831064">
        <ele>96.438</ele>
        <time>2021-10-14T12:13:10Z</time>
      </trkpt>
      <trkpt lat="43.369352" lon="-5.830585">
        <ele>96.840</ele>
        <time>2021-10-14T12:13:12Z</time>
      </trkpt>
      <trkpt lat="43.369504" lon="-5.830358">
        <ele>96.649</ele>
        <time>2021-10-14T12:13:13Z</time>
      </trkpt>
      <trkpt lat="43.369647" lon="-5.830146">
        <ele>95.994</ele>
        <time>2021-10-14T12:13:14Z</time>
      </trkpt>
      <trkpt lat="43.369901" lon="-5.829769">
        <ele>95.957</ele>
        <time>2021-10-14T12:13:16Z</time>
      </trkpt>
      <trkpt lat="43.370161" lon="-5.829382">
        <ele>96.522</ele>
        <time>2021-10-14T12:13:18Z</time>
      </trkpt>
      <trkpt lat="43.370423" lon="-5.828988">
        <ele>97.208</ele>
        <time>2021-10-14T12:13:20Z</time>
      </trkpt>
      <trkpt lat="43.370661" lon="-5.828609">
        <ele>97.517</ele>
        <time>2021-10-14T12:13:22Z</time>
      </trkpt>
      <trkpt lat="43.370906" lon="-5.828211">
        <ele>97.715</ele>
        <time>2021-10-14T12:13:24Z</time>
      </trkpt>
      <trkpt lat="43.371141" lon="-5.827785">
        <ele>98.773</ele>
        <time>2021-10-14T12:13:26Z</time>
      </trkpt>
      <trkpt lat="43.371360" lon="-5.827330">
        <ele>101.050</ele>
        <time>2021-10-14T12:13:28Z</time>
      </trkpt>
      <trkpt lat="43.371562" lon="-5.826849">
        <ele>100.433</ele>
        <time>2021-10-14T12:13:30Z</time>
      </trkpt>
      <trkpt lat="43.371664" lon="-5.826598">
        <ele>100.190</ele>
        <time>2021-10-14T12:13:31Z</time>
      </trkpt>
      <trkpt lat="43.371767" lon="-5.826340">
        <ele>99.432</ele>
        <time>2021-10-14T12:13:32Z</time>
      </trkpt>
      <trkpt lat="43.371941" lon="-5.825833">
        <ele>99.021</ele>
        <time>2021-10-14T12:13:34Z</time>
      </trkpt>
      <trkpt lat="43.372022" lon="-5.825572">
        <ele>98.687</ele>
        <time>2021-10-14T12:13:35Z</time>
      </trkpt>
      <trkpt lat="43.372098" lon="-5.825305">
        <ele>98.242</ele>
        <time>2021-10-14T12:13:36Z</time>
      </trkpt>
      <trkpt lat="43.372235" lon="-5.824762">
        <ele>97.126</ele>
        <time>2021-10-14T12:13:38Z</time>
      </trkpt>
      <trkpt lat="43.372359" lon="-5.824233">
        <ele>97.308</ele>
        <time>2021-10-14T12:13:40Z</time>
      </trkpt>
      <trkpt lat="43.372462" lon="-5.823690">
        <ele>98.346</ele>
        <time>2021-10-14T12:13:42Z</time>
      </trkpt>
      <trkpt lat="43.372558" lon="-5.823122">
        <ele>101.354</ele>
        <time>2021-10-14T12:13:44Z</time>
      </trkpt>
      <trkpt lat="43.372656" lon="-5.822532">
        <ele>103.892</ele>
        <time>2021-10-14T12:13:46Z</time>
      </trkpt>
      <trkpt lat="43.372712" lon="-5.822193">
        <ele>104.879</ele>
        <time>2021-10-14T12:13:47Z</time>
      </trkpt>
      <trkpt lat="43.372848" lon="-5.821397">
        <ele>106.942</ele>
        <time>2021-10-14T12:13:49Z</time>
      </trkpt>
      <trkpt lat="43.372924" lon="-5.820983">
        <ele>106.719</ele>
        <time>2021-10-14T12:13:50Z</time>
      </trkpt>
      <trkpt lat="43.373054" lon="-5.820245">
        <ele>107.981</ele>
        <time>2021-10-14T12:13:52Z</time>
      </trkpt>
      <trkpt lat="43.373201" lon="-5.819513">
        <ele>108.350</ele>
        <time>2021-10-14T12:13:54Z</time>
      </trkpt>
      <trkpt lat="43.373379" lon="-5.818794">
        <ele>109.051</ele>
        <time>2021-10-14T12:13:56Z</time>
      </trkpt>
      <trkpt lat="43.373569" lon="-5.818179">
        <ele>110.201</ele>
        <time>2021-10-14T12:13:58Z</time>
      </trkpt>
      <trkpt lat="43.373663" lon="-5.817878">
        <ele>110.111</ele>
        <time>2021-10-14T12:13:59Z</time>
      </trkpt>
      <trkpt lat="43.373764" lon="-5.817574">
        <ele>110.508</ele>
        <time>2021-10-14T12:14:00Z</time>
      </trkpt>
      <trkpt lat="43.373992" lon="-5.816958">
        <ele>109.643</ele>
        <time>2021-10-14T12:14:02Z</time>
      </trkpt>
      <trkpt lat="43.374237" lon="-5.816358">
        <ele>108.341</ele>
        <time>2021-10-14T12:14:04Z</time>
      </trkpt>
      <trkpt lat="43.374521" lon="-5.815736">
        <ele>107.499</ele>
        <time>2021-10-14T12:14:06Z</time>
      </trkpt>
      <trkpt lat="43.374802" lon="-5.815174">
        <ele>105.726</ele>
        <time>2021-10-14T12:14:08Z</time>
      </trkpt>
      <trkpt lat="43.375088" lon="-5.814636">
        <ele>102.549</ele>
        <time>2021-10-14T12:14:10Z</time>
      </trkpt>
      <trkpt lat="43.375388" lon="-5.814120">
        <ele>100.126</ele>
        <time>2021-10-14T12:14:12Z</time>
      </trkpt>
      <trkpt lat="43.375545" lon="-5.813876">
        <ele>99.098</ele>
        <time>2021-10-14T12:14:13Z</time>
      </trkpt>
      <trkpt lat="43.375711" lon="-5.813640">
        <ele>97.627</ele>
        <time>2021-10-14T12:14:14Z</time>
      </trkpt>
      <trkpt lat="43.376045" lon="-5.813212">
        <ele>95.959</ele>
        <time>2021-10-14T12:14:16Z</time>
      </trkpt>
      <trkpt lat="43.376224" lon="-5.812999">
        <ele>95.003</ele>
        <time>2021-10-14T12:14:17Z</time>
      </trkpt>
      <trkpt lat="43.376599" lon="-5.812609">
        <ele>93.123</ele>
        <time>2021-10-14T12:14:19Z</time>
      </trkpt>
      <trkpt lat="43.376788" lon="-5.812440">
        <ele>92.608</ele>
        <time>2021-10-14T12:14:20Z</time>
      </trkpt>
      <trkpt lat="43.377147" lon="-5.812144">
        <ele>91.023</ele>
        <time>2021-10-14T12:14:22Z</time>
      </trkpt>
      <trkpt lat="43.377331" lon="-5.812009">
        <ele>90.851</ele>
        <time>2021-10-14T12:14:23Z</time>
      </trkpt>
      <trkpt lat="43.377510" lon="-5.811883">
        <ele>90.049</ele>
        <time>2021-10-14T12:14:24Z</time>
      </trkpt>
      <trkpt lat="43.377862" lon="-5.811691">
        <ele>90.066</ele>
        <time>2021-10-14T12:14:26Z</time>
      </trkpt>
      <trkpt lat="43.378200" lon="-5.811566">
        <ele>89.089</ele>
        <time>2021-10-14T12:14:28Z</time>
      </trkpt>
      <trkpt lat="43.378549" lon="-5.811467">
        <ele>88.546</ele>
        <time>2021-10-14T12:14:30Z</time>
      </trkpt>
      <trkpt lat="43.378903" lon="-5.811389">
        <ele>87.748</ele>
        <time>2021-10-14T12:14:32Z</time>
      </trkpt>
      <trkpt lat="43.379231" lon="-5.811334">
        <ele>88.637</ele>
        <time>2021-10-14T12:14:34Z</time>
      </trkpt>
      <trkpt lat="43.379398" lon="-5.811318">
        <ele>88.197</ele>
        <time>2021-10-14T12:14:35Z</time>
      </trkpt>
      <trkpt lat="43.379732" lon="-5.811311">
        <ele>86.323</ele>
        <time>2021-10-14T12:14:37Z</time>
      </trkpt>
      <trkpt lat="43.379894" lon="-5.811318">
        <ele>86.525</ele>
        <time>2021-10-14T12:14:38Z</time>
      </trkpt>
      <trkpt lat="43.380217" lon="-5.811351">
        <ele>85.308</ele>
        <time>2021-10-14T12:14:40Z</time>
      </trkpt>
      <trkpt lat="43.380391" lon="-5.811376">
        <ele>85.097</ele>
        <time>2021-10-14T12:14:41Z</time>
      </trkpt>
      <trkpt lat="43.380737" lon="-5.811431">
        <ele>83.465</ele>
        <time>2021-10-14T12:14:43Z</time>
      </trkpt>
      <trkpt lat="43.380905" lon="-5.811459">
        <ele>83.153</ele>
        <time>2021-10-14T12:14:44Z</time>
      </trkpt>
      <trkpt lat="43.381191" lon="-5.811499">
        <ele>83.530</ele>
        <time>2021-10-14T12:14:46Z</time>
      </trkpt>
      <trkpt lat="43.381489" lon="-5.811538">
        <ele>83.393</ele>
        <time>2021-10-14T12:14:48Z</time>
      </trkpt>
      <trkpt lat="43.381645" lon="-5.811555">
        <ele>83.160</ele>
        <time>2021-10-14T12:14:49Z</time>
      </trkpt>
      <trkpt lat="43.381808" lon="-5.811571">
        <ele>83.682</ele>
        <time>2021-10-14T12:14:50Z</time>
      </trkpt>
      <trkpt lat="43.382139" lon="-5.811593">
        <ele>82.771</ele>
        <time>2021-10-14T12:14:52Z</time>
      </trkpt>
      <trkpt lat="43.382309" lon="-5.811598">
        <ele>82.284</ele>
        <time>2021-10-14T12:14:53Z</time>
      </trkpt>
      <trkpt lat="43.382650" lon="-5.811594">
        <ele>82.507</ele>
        <time>2021-10-14T12:14:55Z</time>
      </trkpt>
      <trkpt lat="43.382829" lon="-5.811588">
        <ele>81.917</ele>
        <time>2021-10-14T12:14:56Z</time>
      </trkpt>
      <trkpt lat="43.383185" lon="-5.811571">
        <ele>81.508</ele>
        <time>2021-10-14T12:14:58Z</time>
      </trkpt>
      <trkpt lat="43.383375" lon="-5.811556">
        <ele>81.216</ele>
        <time>2021-10-14T12:14:59Z</time>
      </trkpt>
      <trkpt lat="43.383768" lon="-5.811519">
        <ele>80.064</ele>
        <time>2021-10-14T12:15:01Z</time>
      </trkpt>
      <trkpt lat="43.383969" lon="-5.811482">
        <ele>79.352</ele>
        <time>2021-10-14T12:15:02Z</time>
      </trkpt>
      <trkpt lat="43.384340" lon="-5.811383">
        <ele>79.279</ele>
        <time>2021-10-14T12:15:04Z</time>
      </trkpt>
      <trkpt lat="43.384505" lon="-5.811330">
        <ele>78.252</ele>
        <time>2021-10-14T12:15:05Z</time>
      </trkpt>
      <trkpt lat="43.384826" lon="-5.811212">
        <ele>78.079</ele>
        <time>2021-10-14T12:15:07Z</time>
      </trkpt>
      <trkpt lat="43.384992" lon="-5.811146">
        <ele>77.971</ele>
        <time>2021-10-14T12:15:08Z</time>
      </trkpt>
      <trkpt lat="43.385321" lon="-5.811008">
        <ele>78.040</ele>
        <time>2021-10-14T12:15:10Z</time>
      </trkpt>
      <trkpt lat="43.385653" lon="-5.810843">
        <ele>78.024</ele>
        <time>2021-10-14T12:15:12Z</time>
      </trkpt>
      <trkpt lat="43.385999" lon="-5.810641">
        <ele>79.804</ele>
        <time>2021-10-14T12:15:14Z</time>
      </trkpt>
      <trkpt lat="43.386334" lon="-5.810432">
        <ele>79.114</ele>
        <time>2021-10-14T12:15:16Z</time>
      </trkpt>
      <trkpt lat="43.386680" lon="-5.810193">
        <ele>80.408</ele>
        <time>2021-10-14T12:15:18Z</time>
      </trkpt>
      <trkpt lat="43.387047" lon="-5.809914">
        <ele>79.930</ele>
        <time>2021-10-14T12:15:20Z</time>
      </trkpt>
      <trkpt lat="43.387412" lon="-5.809618">
        <ele>80.078</ele>
        <time>2021-10-14T12:15:22Z</time>
      </trkpt>
      <trkpt lat="43.387582" lon="-5.809471">
        <ele>80.326</ele>
        <time>2021-10-14T12:15:23Z</time>
      </trkpt>
      <trkpt lat="43.387893" lon="-5.809189">
        <ele>82.053</ele>
        <time>2021-10-14T12:15:25Z</time>
      </trkpt>
      <trkpt lat="43.388049" lon="-5.809047">
        <ele>82.186</ele>
        <time>2021-10-14T12:15:26Z</time>
      </trkpt>
      <trkpt lat="43.388320" lon="-5.808789">
        <ele>83.083</ele>
        <time>2021-10-14T12:15:28Z</time>
      </trkpt>
      <trkpt lat="43.388453" lon="-5.808657">
        <ele>83.485</ele>
        <time>2021-10-14T12:15:29Z</time>
      </trkpt>
      <trkpt lat="43.388577" lon="-5.808530">
        <ele>84.224</ele>
        <time>2021-10-14T12:15:30Z</time>
      </trkpt>
      <trkpt lat="43.388811" lon="-5.808289">
        <ele>84.347</ele>
        <time>2021-10-14T12:15:32Z</time>
      </trkpt>
      <trkpt lat="43.389022" lon="-5.808061">
        <ele>85.329</ele>
        <time>2021-10-14T12:15:34Z</time>
      </trkpt>
      <trkpt lat="43.389137" lon="-5.807932">
        <ele>85.821</ele>
        <time>2021-10-14T12:15:35Z</time>
      </trkpt>
      <trkpt lat="43.389389" lon="-5.807649">
        <ele>85.508</ele>
        <time>2021-10-14T12:15:37Z</time>
      </trkpt>
      <trkpt lat="43.389523" lon="-5.807495">
        <ele>86.362</ele>
        <time>2021-10-14T12:15:38Z</time>
      </trkpt>
      <trkpt lat="43.389785" lon="-5.807194">
        <ele>87.430</ele>
        <time>2021-10-14T12:15:40Z</time>
      </trkpt>
      <trkpt lat="43.390030" lon="-5.806917">
        <ele>87.438</ele>
        <time>2021-10-14T12:15:42Z</time>
      </trkpt>
      <trkpt lat="43.390142" lon="-5.806792">
        <ele>87.695</ele>
        <time>2021-10-14T12:15:43Z</time>
      </trkpt>
      <trkpt lat="43.390245" lon="-5.806675">
        <ele>87.468</ele>
        <time>2021-10-14T12:15:44Z</time>
      </trkpt>
      <trkpt lat="43.390419" lon="-5.806469">
        <ele>87.995</ele>
        <time>2021-10-14T12:15:46Z</time>
      </trkpt>
      <trkpt lat="43.390509" lon="-5.806362">
        <ele>87.917</ele>
        <time>2021-10-14T12:15:47Z</time>
      </trkpt>
      <trkpt lat="43.390728" lon="-5.806104">
        <ele>88.776</ele>
        <time>2021-10-14T12:15:49Z</time>
      </trkpt>
      <trkpt lat="43.390859" lon="-5.805952">
        <ele>89.123</ele>
        <time>2021-10-14T12:15:50Z</time>
      </trkpt>
      <trkpt lat="43.391133" lon="-5.805643">
        <ele>88.883</ele>
        <time>2021-10-14T12:15:52Z</time>
      </trkpt>
      <trkpt lat="43.391429" lon="-5.805310">
        <ele>88.811</ele>
        <time>2021-10-14T12:15:54Z</time>
      </trkpt>
      <trkpt lat="43.391586" lon="-5.805135">
        <ele>89.208</ele>
        <time>2021-10-14T12:15:55Z</time>
      </trkpt>
      <trkpt lat="43.391744" lon="-5.804960">
        <ele>89.950</ele>
        <time>2021-10-14T12:15:56Z</time>
      </trkpt>
      <trkpt lat="43.392044" lon="-5.804634">
        <ele>89.598</ele>
        <time>2021-10-14T12:15:58Z</time>
      </trkpt>
      <trkpt lat="43.392338" lon="-5.804323">
        <ele>89.346</ele>
        <time>2021-10-14T12:16:00Z</time>
      </trkpt>
      <trkpt lat="43.392479" lon="-5.804176">
        <ele>89.833</ele>
        <time>2021-10-14T12:16:01Z</time>
      </trkpt>
      <trkpt lat="43.392746" lon="-5.803897">
        <ele>91.056</ele>
        <time>2021-10-14T12:16:03Z</time>
      </trkpt>
      <trkpt lat="43.392872" lon="-5.803769">
        <ele>91.393</ele>
        <time>2021-10-14T12:16:04Z</time>
      </trkpt>
      <trkpt lat="43.392995" lon="-5.803648">
        <ele>91.325</ele>
        <time>2021-10-14T12:16:05Z</time>
      </trkpt>
      <trkpt lat="43.393240" lon="-5.803407">
        <ele>92.034</ele>
        <time>2021-10-14T12:16:07Z</time>
      </trkpt>
      <trkpt lat="43.393368" lon="-5.803282">
        <ele>92.618</ele>
        <time>2021-10-14T12:16:08Z</time>
      </trkpt>
      <trkpt lat="43.393643" lon="-5.803017">
        <ele>92.498</ele>
        <time>2021-10-14T12:16:10Z</time>
      </trkpt>
      <trkpt lat="43.393802" lon="-5.802875">
        <ele>93.317</ele>
        <time>2021-10-14T12:16:11Z</time>
      </trkpt>
      <trkpt lat="43.394134" lon="-5.802588">
        <ele>94.108</ele>
        <time>2021-10-14T12:16:13Z</time>
      </trkpt>
      <trkpt lat="43.394297" lon="-5.802446">
        <ele>93.889</ele>
        <time>2021-10-14T12:16:14Z</time>
      </trkpt>
      <trkpt lat="43.394593" lon="-5.802202">
        <ele>93.897</ele>
        <time>2021-10-14T12:16:16Z</time>
      </trkpt>
      <trkpt lat="43.394740" lon="-5.802081">
        <ele>94.345</ele>
        <time>2021-10-14T12:16:17Z</time>
      </trkpt>
      <trkpt lat="43.394887" lon="-5.801958">
        <ele>95.582</ele>
        <time>2021-10-14T12:16:18Z</time>
      </trkpt>
      <trkpt lat="43.395175" lon="-5.801725">
        <ele>95.775</ele>
        <time>2021-10-14T12:16:20Z</time>
      </trkpt>
      <trkpt lat="43.395439" lon="-5.801529">
        <ele>96.392</ele>
        <time>2021-10-14T12:16:22Z</time>
      </trkpt>
      <trkpt lat="43.395699" lon="-5.801339">
        <ele>96.784</ele>
        <time>2021-10-14T12:16:24Z</time>
      </trkpt>
      <trkpt lat="43.395952" lon="-5.801163">
        <ele>96.573</ele>
        <time>2021-10-14T12:16:26Z</time>
      </trkpt>
      <trkpt lat="43.396188" lon="-5.801001">
        <ele>96.333</ele>
        <time>2021-10-14T12:16:28Z</time>
      </trkpt>
      <trkpt lat="43.396316" lon="-5.800917">
        <ele>96.323</ele>
        <time>2021-10-14T12:16:29Z</time>
      </trkpt>
      <trkpt lat="43.396593" lon="-5.800743">
        <ele>96.115</ele>
        <time>2021-10-14T12:16:31Z</time>
      </trkpt>
      <trkpt lat="43.396889" lon="-5.800559">
        <ele>95.908</ele>
        <time>2021-10-14T12:16:33Z</time>
      </trkpt>
      <trkpt lat="43.397040" lon="-5.800471">
        <ele>95.491</ele>
        <time>2021-10-14T12:16:34Z</time>
      </trkpt>
      <trkpt lat="43.397341" lon="-5.800297">
        <ele>94.019</ele>
        <time>2021-10-14T12:16:36Z</time>
      </trkpt>
      <trkpt lat="43.397498" lon="-5.800208">
        <ele>93.987</ele>
        <time>2021-10-14T12:16:37Z</time>
      </trkpt>
      <trkpt lat="43.397661" lon="-5.800114">
        <ele>94.644</ele>
        <time>2021-10-14T12:16:38Z</time>
      </trkpt>
      <trkpt lat="43.397961" lon="-5.799950">
        <ele>94.227</ele>
        <time>2021-10-14T12:16:40Z</time>
      </trkpt>
      <trkpt lat="43.398113" lon="-5.799869">
        <ele>94.554</ele>
        <time>2021-10-14T12:16:41Z</time>
      </trkpt>
      <trkpt lat="43.398264" lon="-5.799792">
        <ele>94.556</ele>
        <time>2021-10-14T12:16:42Z</time>
      </trkpt>
      <trkpt lat="43.398573" lon="-5.799645">
        <ele>93.945</ele>
        <time>2021-10-14T12:16:44Z</time>
      </trkpt>
      <trkpt lat="43.398883" lon="-5.799503">
        <ele>94.493</ele>
        <time>2021-10-14T12:16:46Z</time>
      </trkpt>
      <trkpt lat="43.399208" lon="-5.799353">
        <ele>93.365</ele>
        <time>2021-10-14T12:16:48Z</time>
      </trkpt>
      <trkpt lat="43.399523" lon="-5.799218">
        <ele>92.921</ele>
        <time>2021-10-14T12:16:50Z</time>
      </trkpt>
      <trkpt lat="43.399836" lon="-5.799090">
        <ele>93.108</ele>
        <time>2021-10-14T12:16:52Z</time>
      </trkpt>
      <trkpt lat="43.400004" lon="-5.799028">
        <ele>92.627</ele>
        <time>2021-10-14T12:16:53Z</time>
      </trkpt>
      <trkpt lat="43.400335" lon="-5.798912">
        <ele>92.035</ele>
        <time>2021-10-14T12:16:55Z</time>
      </trkpt>
      <trkpt lat="43.400686" lon="-5.798796">
        <ele>91.523</ele>
        <time>2021-10-14T12:16:57Z</time>
      </trkpt>
      <trkpt lat="43.400869" lon="-5.798738">
        <ele>90.610</ele>
        <time>2021-10-14T12:16:58Z</time>
      </trkpt>
      <trkpt lat="43.401049" lon="-5.798684">
        <ele>90.263</ele>
        <time>2021-10-14T12:16:59Z</time>
      </trkpt>
      <trkpt lat="43.401396" lon="-5.798577">
        <ele>89.890</ele>
        <time>2021-10-14T12:17:01Z</time>
      </trkpt>
      <trkpt lat="43.401558" lon="-5.798528">
        <ele>89.242</ele>
        <time>2021-10-14T12:17:02Z</time>
      </trkpt>
      <trkpt lat="43.401857" lon="-5.798452">
        <ele>89.121</ele>
        <time>2021-10-14T12:17:04Z</time>
      </trkpt>
      <trkpt lat="43.402152" lon="-5.798383">
        <ele>89.247</ele>
        <time>2021-10-14T12:17:06Z</time>
      </trkpt>
      <trkpt lat="43.402465" lon="-5.798324">
        <ele>88.929</ele>
        <time>2021-10-14T12:17:08Z</time>
      </trkpt>
      <trkpt lat="43.402790" lon="-5.798259">
        <ele>89.321</ele>
        <time>2021-10-14T12:17:10Z</time>
      </trkpt>
      <trkpt lat="43.403134" lon="-5.798201">
        <ele>88.308</ele>
        <time>2021-10-14T12:17:12Z</time>
      </trkpt>
      <trkpt lat="43.403490" lon="-5.798147">
        <ele>87.122</ele>
        <time>2021-10-14T12:17:14Z</time>
      </trkpt>
      <trkpt lat="43.403849" lon="-5.798098">
        <ele>86.810</ele>
        <time>2021-10-14T12:17:16Z</time>
      </trkpt>
      <trkpt lat="43.404024" lon="-5.798075">
        <ele>86.668</ele>
        <time>2021-10-14T12:17:17Z</time>
      </trkpt>
      <trkpt lat="43.404352" lon="-5.798038">
        <ele>86.555</ele>
        <time>2021-10-14T12:17:19Z</time>
      </trkpt>
      <trkpt lat="43.404512" lon="-5.798023">
        <ele>86.258</ele>
        <time>2021-10-14T12:17:20Z</time>
      </trkpt>
      <trkpt lat="43.404807" lon="-5.798002">
        <ele>86.245</ele>
        <time>2021-10-14T12:17:22Z</time>
      </trkpt>
      <trkpt lat="43.404958" lon="-5.797995">
        <ele>86.317</ele>
        <time>2021-10-14T12:17:23Z</time>
      </trkpt>
      <trkpt lat="43.405277" lon="-5.797983">
        <ele>85.316</ele>
        <time>2021-10-14T12:17:25Z</time>
      </trkpt>
      <trkpt lat="43.405453" lon="-5.797982">
        <ele>85.071</ele>
        <time>2021-10-14T12:17:26Z</time>
      </trkpt>
      <trkpt lat="43.405800" lon="-5.797982">
        <ele>85.341</ele>
        <time>2021-10-14T12:17:28Z</time>
      </trkpt>
      <trkpt lat="43.406139" lon="-5.797985">
        <ele>84.815</ele>
        <time>2021-10-14T12:17:30Z</time>
      </trkpt>
      <trkpt lat="43.406300" lon="-5.797991">
        <ele>84.608</ele>
        <time>2021-10-14T12:17:31Z</time>
      </trkpt>
      <trkpt lat="43.406458" lon="-5.798000">
        <ele>85.015</ele>
        <time>2021-10-14T12:17:32Z</time>
      </trkpt>
      <trkpt lat="43.406735" lon="-5.798018">
        <ele>85.593</ele>
        <time>2021-10-14T12:17:34Z</time>
      </trkpt>
      <trkpt lat="43.406860" lon="-5.798026">
        <ele>85.151</ele>
        <time>2021-10-14T12:17:35Z</time>
      </trkpt>
      <trkpt lat="43.407112" lon="-5.798043">
        <ele>84.218</ele>
        <time>2021-10-14T12:17:37Z</time>
      </trkpt>
      <trkpt lat="43.407249" lon="-5.798055">
        <ele>84.541</ele>
        <time>2021-10-14T12:17:38Z</time>
      </trkpt>
      <trkpt lat="43.407527" lon="-5.798072">
        <ele>85.028</ele>
        <time>2021-10-14T12:17:40Z</time>
      </trkpt>
      <trkpt lat="43.407823" lon="-5.798080">
        <ele>84.960</ele>
        <time>2021-10-14T12:17:42Z</time>
      </trkpt>
      <trkpt lat="43.408116" lon="-5.798082">
        <ele>84.739</ele>
        <time>2021-10-14T12:17:44Z</time>
      </trkpt>
      <trkpt lat="43.408373" lon="-5.798087">
        <ele>84.385</ele>
        <time>2021-10-14T12:17:46Z</time>
      </trkpt>
      <trkpt lat="43.408654" lon="-5.798103">
        <ele>84.489</ele>
        <time>2021-10-14T12:17:48Z</time>
      </trkpt>
      <trkpt lat="43.408806" lon="-5.798114">
        <ele>85.617</ele>
        <time>2021-10-14T12:17:49Z</time>
      </trkpt>
      <trkpt lat="43.408965" lon="-5.798122">
        <ele>84.808</ele>
        <time>2021-10-14T12:17:50Z</time>
      </trkpt>
      <trkpt lat="43.409262" lon="-5.798116">
        <ele>83.866</ele>
        <time>2021-10-14T12:17:52Z</time>
      </trkpt>
      <trkpt lat="43.409521" lon="-5.798034">
        <ele>83.584</ele>
        <time>2021-10-14T12:17:54Z</time>
      </trkpt>
      <trkpt lat="43.409633" lon="-5.797954">
        <ele>83.722</ele>
        <time>2021-10-14T12:17:55Z</time>
      </trkpt>
      <trkpt lat="43.409739" lon="-5.797845">
        <ele>83.739</ele>
        <time>2021-10-14T12:17:56Z</time>
      </trkpt>
      <trkpt lat="43.409890" lon="-5.797569">
        <ele>83.652</ele>
        <time>2021-10-14T12:17:58Z</time>
      </trkpt>
      <trkpt lat="43.409935" lon="-5.797395">
        <ele>83.099</ele>
        <time>2021-10-14T12:17:59Z</time>
      </trkpt>
      <trkpt lat="43.409948" lon="-5.797021">
        <ele>81.071</ele>
        <time>2021-10-14T12:18:01Z</time>
      </trkpt>
      <trkpt lat="43.409915" lon="-5.796835">
        <ele>80.760</ele>
        <time>2021-10-14T12:18:02Z</time>
      </trkpt>
      <trkpt lat="43.409788" lon="-5.796515">
        <ele>79.591</ele>
        <time>2021-10-14T12:18:04Z</time>
      </trkpt>
      <trkpt lat="43.409572" lon="-5.796283">
        <ele>78.581</ele>
        <time>2021-10-14T12:18:06Z</time>
      </trkpt>
      <trkpt lat="43.409439" lon="-5.796215">
        <ele>77.619</ele>
        <time>2021-10-14T12:18:07Z</time>
      </trkpt>
      <trkpt lat="43.409291" lon="-5.796180">
        <ele>77.308</ele>
        <time>2021-10-14T12:18:08Z</time>
      </trkpt>
      <trkpt lat="43.408995" lon="-5.796215">
        <ele>77.417</ele>
        <time>2021-10-14T12:18:10Z</time>
      </trkpt>
      <trkpt lat="43.408854" lon="-5.796268">
        <ele>76.585</ele>
        <time>2021-10-14T12:18:11Z</time>
      </trkpt>
      <trkpt lat="43.408729" lon="-5.796340">
        <ele>75.243</ele>
        <time>2021-10-14T12:18:12Z</time>
      </trkpt>
      <trkpt lat="43.408515" lon="-5.796530">
        <ele>74.490</ele>
        <time>2021-10-14T12:18:14Z</time>
      </trkpt>
      <trkpt lat="43.408362" lon="-5.796811">
        <ele>73.363</ele>
        <time>2021-10-14T12:18:16Z</time>
      </trkpt>
      <trkpt lat="43.408282" lon="-5.797185">
        <ele>73.590</ele>
        <time>2021-10-14T12:18:18Z</time>
      </trkpt>
      <trkpt lat="43.408284" lon="-5.797382">
        <ele>73.342</ele>
        <time>2021-10-14T12:18:19Z</time>
      </trkpt>
      <trkpt lat="43.408311" lon="-5.797581">
        <ele>73.091</ele>
        <time>2021-10-14T12:18:20Z</time>
      </trkpt>
      <trkpt lat="43.408437" lon="-5.797960">
        <ele>73.422</ele>
        <time>2021-10-14T12:18:22Z</time>
      </trkpt>
      <trkpt lat="43.408519" lon="-5.798152">
        <ele>73.562</ele>
        <time>2021-10-14T12:18:23Z</time>
      </trkpt>
      <trkpt lat="43.408675" lon="-5.798511">
        <ele>73.208</ele>
        <time>2021-10-14T12:18:25Z</time>
      </trkpt>
      <trkpt lat="43.408754" lon="-5.798680">
        <ele>73.008</ele>
        <time>2021-10-14T12:18:26Z</time>
      </trkpt>
      <trkpt lat="43.408893" lon="-5.799003">
        <ele>73.210</ele>
        <time>2021-10-14T12:18:28Z</time>
      </trkpt>
      <trkpt lat="43.409016" lon="-5.799254">
        <ele>73.018</ele>
        <time>2021-10-14T12:18:30Z</time>
      </trkpt>
      <trkpt lat="43.409089" lon="-5.799347">
        <ele>73.546</ele>
        <time>2021-10-14T12:18:31Z</time>
      </trkpt>
      <trkpt lat="43.409178" lon="-5.799419">
        <ele>73.643</ele>
        <time>2021-10-14T12:18:32Z</time>
      </trkpt>
      <trkpt lat="43.409354" lon="-5.799531">
        <ele>73.656</ele>
        <time>2021-10-14T12:18:34Z</time>
      </trkpt>
      <trkpt lat="43.409424" lon="-5.799607">
        <ele>73.973</ele>
        <time>2021-10-14T12:18:35Z</time>
      </trkpt>
      <trkpt lat="43.409505" lon="-5.799812">
        <ele>74.265</ele>
        <time>2021-10-14T12:18:37Z</time>
      </trkpt>
      <trkpt lat="43.409517" lon="-5.799938">
        <ele>74.514</ele>
        <time>2021-10-14T12:18:38Z</time>
      </trkpt>
      <trkpt lat="43.409503" lon="-5.800217">
        <ele>74.861</ele>
        <time>2021-10-14T12:18:40Z</time>
      </trkpt>
      <trkpt lat="43.409508" lon="-5.800369">
        <ele>76.221</ele>
        <time>2021-10-14T12:18:41Z</time>
      </trkpt>
      <trkpt lat="43.409569" lon="-5.800658">
        <ele>76.213</ele>
        <time>2021-10-14T12:18:43Z</time>
      </trkpt>
      <trkpt lat="43.409611" lon="-5.800789">
        <ele>75.008</ele>
        <time>2021-10-14T12:18:44Z</time>
      </trkpt>
      <trkpt lat="43.409705" lon="-5.801038">
        <ele>75.744</ele>
        <time>2021-10-14T12:18:46Z</time>
      </trkpt>
      <trkpt lat="43.409752" lon="-5.801156">
        <ele>75.782</ele>
        <time>2021-10-14T12:18:47Z</time>
      </trkpt>
      <trkpt lat="43.409793" lon="-5.801256">
        <ele>76.290</ele>
        <time>2021-10-14T12:18:48Z</time>
      </trkpt>
      <trkpt lat="43.409860" lon="-5.801411">
        <ele>76.177</ele>
        <time>2021-10-14T12:18:50Z</time>
      </trkpt>
      <trkpt lat="43.409926" lon="-5.801524">
        <ele>75.990</ele>
        <time>2021-10-14T12:18:52Z</time>
      </trkpt>
      <trkpt lat="43.409993" lon="-5.801615">
        <ele>75.937</ele>
        <time>2021-10-14T12:18:54Z</time>
      </trkpt>
      <trkpt lat="43.410041" lon="-5.801669">
        <ele>76.369</ele>
        <time>2021-10-14T12:18:56Z</time>
      </trkpt>
      <trkpt lat="43.410084" lon="-5.801701">
        <ele>76.798</ele>
        <time>2021-10-14T12:18:58Z</time>
      </trkpt>
      <trkpt lat="43.410125" lon="-5.801732">
        <ele>76.823</ele>
        <time>2021-10-14T12:19:00Z</time>
      </trkpt>
      <trkpt lat="43.410181" lon="-5.801775">
        <ele>77.183</ele>
        <time>2021-10-14T12:19:02Z</time>
      </trkpt>
      <trkpt lat="43.410219" lon="-5.801808">
        <ele>92.211</ele>
        <time>2021-10-14T12:19:03Z</time>
      </trkpt>
      <trkpt lat="43.410305" lon="-5.801806">
        <ele>120.908</ele>
        <time>2021-10-14T12:19:04Z</time>
      </trkpt>
      <trkpt lat="43.410389" lon="-5.801812">
        <ele>142.760</ele>
        <time>2021-10-14T12:19:05Z</time>
      </trkpt>
      <trkpt lat="43.410485" lon="-5.801808">
        <ele>142.728</ele>
        <time>2021-10-14T12:19:06Z</time>
      </trkpt>
      <trkpt lat="43.410700" lon="-5.801743">
        <ele>142.756</ele>
        <time>2021-10-14T12:19:08Z</time>
      </trkpt>
      <trkpt lat="43.410897" lon="-5.801596">
        <ele>142.863</ele>
        <time>2021-10-14T12:19:10Z</time>
      </trkpt>
      <trkpt lat="43.411120" lon="-5.801379">
        <ele>142.816</ele>
        <time>2021-10-14T12:19:12Z</time>
      </trkpt>
      <trkpt lat="43.411243" lon="-5.801243">
        <ele>142.853</ele>
        <time>2021-10-14T12:19:13Z</time>
      </trkpt>
      <trkpt lat="43.411372" lon="-5.801091">
        <ele>142.825</ele>
        <time>2021-10-14T12:19:14Z</time>
      </trkpt>
      <trkpt lat="43.411616" lon="-5.800803">
        <ele>142.814</ele>
        <time>2021-10-14T12:19:16Z</time>
      </trkpt>
      <trkpt lat="43.411900" lon="-5.800466">
        <ele>142.843</ele>
        <time>2021-10-14T12:19:18Z</time>
      </trkpt>
      <trkpt lat="43.412065" lon="-5.800271">
        <ele>142.864</ele>
        <time>2021-10-14T12:19:19Z</time>
      </trkpt>
      <trkpt lat="43.412213" lon="-5.800090">
        <ele>142.810</ele>
        <time>2021-10-14T12:19:20Z</time>
      </trkpt>
      <trkpt lat="43.412454" lon="-5.799791">
        <ele>142.808</ele>
        <time>2021-10-14T12:19:22Z</time>
      </trkpt>
      <trkpt lat="43.412570" lon="-5.799667">
        <ele>142.872</ele>
        <time>2021-10-14T12:19:23Z</time>
      </trkpt>
      <trkpt lat="43.412684" lon="-5.799551">
        <ele>142.810</ele>
        <time>2021-10-14T12:19:24Z</time>
      </trkpt>
      <trkpt lat="43.412795" lon="-5.799436">
        <ele>142.818</ele>
        <time>2021-10-14T12:19:25Z</time>
      </trkpt>
      <trkpt lat="43.412910" lon="-5.799317">
        <ele>142.895</ele>
        <time>2021-10-14T12:19:26Z</time>
      </trkpt>
      <trkpt lat="43.413160" lon="-5.799113">
        <ele>142.898</ele>
        <time>2021-10-14T12:19:28Z</time>
      </trkpt>
      <trkpt lat="43.413298" lon="-5.799017">
        <ele>142.835</ele>
        <time>2021-10-14T12:19:29Z</time>
      </trkpt>
      <trkpt lat="43.413556" lon="-5.798842">
        <ele>142.837</ele>
        <time>2021-10-14T12:19:31Z</time>
      </trkpt>
      <trkpt lat="43.413679" lon="-5.798765">
        <ele>142.996</ele>
        <time>2021-10-14T12:19:32Z</time>
      </trkpt>
      <trkpt lat="43.413929" lon="-5.798608">
        <ele>142.958</ele>
        <time>2021-10-14T12:19:34Z</time>
      </trkpt>
      <trkpt lat="43.414071" lon="-5.798515">
        <ele>142.952</ele>
        <time>2021-10-14T12:19:35Z</time>
      </trkpt>
      <trkpt lat="43.414354" lon="-5.798326">
        <ele>142.917</ele>
        <time>2021-10-14T12:19:37Z</time>
      </trkpt>
      <trkpt lat="43.414483" lon="-5.798240">
        <ele>142.908</ele>
        <time>2021-10-14T12:19:38Z</time>
      </trkpt>
      <trkpt lat="43.414707" lon="-5.798092">
        <ele>142.933</ele>
        <time>2021-10-14T12:19:40Z</time>
      </trkpt>
      <trkpt lat="43.414891" lon="-5.797962">
        <ele>142.971</ele>
        <time>2021-10-14T12:19:42Z</time>
      </trkpt>
      <trkpt lat="43.414962" lon="-5.797910">
        <ele>142.999</ele>
        <time>2021-10-14T12:19:43Z</time>
      </trkpt>
      <trkpt lat="43.415019" lon="-5.797870">
        <ele>142.966</ele>
        <time>2021-10-14T12:19:44Z</time>
      </trkpt>
      <trkpt lat="43.415078" lon="-5.797821">
        <ele>142.999</ele>
        <time>2021-10-14T12:19:46Z</time>
      </trkpt>
      <trkpt lat="43.415127" lon="-5.797769">
        <ele>142.946</ele>
        <time>2021-10-14T12:19:48Z</time>
      </trkpt>
      <trkpt lat="43.415200" lon="-5.797626">
        <ele>142.948</ele>
        <time>2021-10-14T12:19:50Z</time>
      </trkpt>
      <trkpt lat="43.415223" lon="-5.797441">
        <ele>142.927</ele>
        <time>2021-10-14T12:19:52Z</time>
      </trkpt>
      <trkpt lat="43.415200" lon="-5.797360">
        <ele>142.911</ele>
        <time>2021-10-14T12:19:53Z</time>
      </trkpt>
      <trkpt lat="43.415114" lon="-5.797235">
        <ele>142.921</ele>
        <time>2021-10-14T12:19:55Z</time>
      </trkpt>
      <trkpt lat="43.415071" lon="-5.797158">
        <ele>142.903</ele>
        <time>2021-10-14T12:19:56Z</time>
      </trkpt>
      <trkpt lat="43.415057" lon="-5.796997">
        <ele>142.908</ele>
        <time>2021-10-14T12:19:58Z</time>
      </trkpt>
      <trkpt lat="43.415089" lon="-5.796936">
        <ele>142.979</ele>
        <time>2021-10-14T12:19:59Z</time>
      </trkpt>
      <trkpt lat="43.415138" lon="-5.796892">
        <ele>142.927</ele>
        <time>2021-10-14T12:20:00Z</time>
      </trkpt>
      <trkpt lat="43.415271" lon="-5.796872">
        <ele>142.915</ele>
        <time>2021-10-14T12:20:02Z</time>
      </trkpt>
      <trkpt lat="43.415396" lon="-5.796888">
        <ele>101.192</ele>
        <time>2021-10-14T12:20:04Z</time>
      </trkpt>
      <trkpt lat="43.415455" lon="-5.796874">
        <ele>83.165</ele>
        <time>2021-10-14T12:20:06Z</time>
      </trkpt>
      <trkpt lat="43.415539" lon="-5.796850">
        <ele>83.172</ele>
        <time>2021-10-14T12:20:08Z</time>
      </trkpt>
      <trkpt lat="43.415639" lon="-5.796836">
        <ele>83.294</ele>
        <time>2021-10-14T12:20:10Z</time>
      </trkpt>
      <trkpt lat="43.415704" lon="-5.796807">
        <ele>83.543</ele>
        <time>2021-10-14T12:20:12Z</time>
      </trkpt>
      <trkpt lat="43.415764" lon="-5.796730">
        <ele>83.569</ele>
        <time>2021-10-14T12:20:14Z</time>
      </trkpt>
      <trkpt lat="43.415815" lon="-5.796650">
        <ele>83.504</ele>
        <time>2021-10-14T12:20:16Z</time>
      </trkpt>
      <trkpt lat="43.415842" lon="-5.796578">
        <ele>83.524</ele>
        <time>2021-10-14T12:20:18Z</time>
      </trkpt>
      <trkpt lat="43.415875" lon="-5.796526">
        <ele>83.408</ele>
        <time>2021-10-14T12:20:21Z</time>
      </trkpt>
      <trkpt lat="43.415924" lon="-5.796561">
        <ele>84.694</ele>
        <time>2021-10-14T12:24:24Z</time>
      </trkpt>
      <trkpt lat="43.415978" lon="-5.796551">
        <ele>85.032</ele>
        <time>2021-10-14T12:25:04Z</time>
      </trkpt>
      <trkpt lat="43.416018" lon="-5.796583">
        <ele>85.110</ele>
        <time>2021-10-14T12:25:07Z</time>
      </trkpt>
      <trkpt lat="43.415979" lon="-5.796547">
        <ele>85.647</ele>
        <time>2021-10-14T12:26:43Z</time>
      </trkpt>
      <trkpt lat="43.415944" lon="-5.796500">
        <ele>86.370</ele>
        <time>2021-10-14T12:29:21Z</time>
      </trkpt>
      <trkpt lat="43.415897" lon="-5.796485">
        <ele>86.367</ele>
        <time>2021-10-14T12:29:26Z</time>
      </trkpt>
      <trkpt lat="43.415851" lon="-5.796476">
        <ele>86.479</ele>
        <time>2021-10-14T12:29:33Z</time>
      </trkpt>
      <trkpt lat="43.415907" lon="-5.796523">
        <ele>86.588</ele>
        <time>2021-10-14T12:36:53Z</time>
      </trkpt>
      <trkpt lat="43.415910" lon="-5.796589">
        <ele>86.558</ele>
        <time>2021-10-14T12:36:56Z</time>
      </trkpt>
      <trkpt lat="43.415846" lon="-5.796661">
        <ele>86.552</ele>
        <time>2021-10-14T12:37:48Z</time>
      </trkpt>
      <trkpt lat="43.415807" lon="-5.796705">
        <ele>86.517</ele>
        <time>2021-10-14T12:37:49Z</time>
      </trkpt>
      <trkpt lat="43.415748" lon="-5.796775">
        <ele>86.608</ele>
        <time>2021-10-14T12:37:51Z</time>
      </trkpt>
      <trkpt lat="43.415698" lon="-5.796832">
        <ele>93.013</ele>
        <time>2021-10-14T12:37:53Z</time>
      </trkpt>
      <trkpt lat="43.415641" lon="-5.796875">
        <ele>92.981</ele>
        <time>2021-10-14T12:37:55Z</time>
      </trkpt>
      <trkpt lat="43.415590" lon="-5.796914">
        <ele>92.979</ele>
        <time>2021-10-14T12:37:58Z</time>
      </trkpt>
      <trkpt lat="43.415553" lon="-5.796853">
        <ele>92.886</ele>
        <time>2021-10-14T12:38:21Z</time>
      </trkpt>
      <trkpt lat="43.415591" lon="-5.796741">
        <ele>92.859</ele>
        <time>2021-10-14T12:38:23Z</time>
      </trkpt>
      <trkpt lat="43.415693" lon="-5.796567">
        <ele>92.856</ele>
        <time>2021-10-14T12:38:25Z</time>
      </trkpt>
      <trkpt lat="43.415756" lon="-5.796457">
        <ele>92.958</ele>
        <time>2021-10-14T12:38:26Z</time>
      </trkpt>
      <trkpt lat="43.415863" lon="-5.796219">
        <ele>92.967</ele>
        <time>2021-10-14T12:38:28Z</time>
      </trkpt>
      <trkpt lat="43.415906" lon="-5.796073">
        <ele>92.971</ele>
        <time>2021-10-14T12:38:29Z</time>
      </trkpt>
      <trkpt lat="43.415941" lon="-5.795915">
        <ele>92.941</ele>
        <time>2021-10-14T12:38:30Z</time>
      </trkpt>
      <trkpt lat="43.415975" lon="-5.795756">
        <ele>92.915</ele>
        <time>2021-10-14T12:38:31Z</time>
      </trkpt>
      <trkpt lat="43.416004" lon="-5.795597">
        <ele>92.908</ele>
        <time>2021-10-14T12:38:32Z</time>
      </trkpt>
      <trkpt lat="43.416037" lon="-5.795299">
        <ele>93.065</ele>
        <time>2021-10-14T12:38:34Z</time>
      </trkpt>
      <trkpt lat="43.416032" lon="-5.795149">
        <ele>93.083</ele>
        <time>2021-10-14T12:38:35Z</time>
      </trkpt>
      <trkpt lat="43.415974" lon="-5.794843">
        <ele>93.021</ele>
        <time>2021-10-14T12:38:37Z</time>
      </trkpt>
      <trkpt lat="43.415915" lon="-5.794694">
        <ele>93.098</ele>
        <time>2021-10-14T12:38:38Z</time>
      </trkpt>
      <trkpt lat="43.415773" lon="-5.794466">
        <ele>93.071</ele>
        <time>2021-10-14T12:38:40Z</time>
      </trkpt>
      <trkpt lat="43.415700" lon="-5.794366">
        <ele>93.048</ele>
        <time>2021-10-14T12:38:41Z</time>
      </trkpt>
      <trkpt lat="43.415569" lon="-5.794175">
        <ele>93.090</ele>
        <time>2021-10-14T12:38:43Z</time>
      </trkpt>
      <trkpt lat="43.415502" lon="-5.794081">
        <ele>93.039</ele>
        <time>2021-10-14T12:38:44Z</time>
      </trkpt>
      <trkpt lat="43.415367" lon="-5.793876">
        <ele>92.992</ele>
        <time>2021-10-14T12:38:46Z</time>
      </trkpt>
      <trkpt lat="43.415303" lon="-5.793754">
        <ele>87.273</ele>
        <time>2021-10-14T12:38:47Z</time>
      </trkpt>
      <trkpt lat="43.415225" lon="-5.793487">
        <ele>87.320</ele>
        <time>2021-10-14T12:38:49Z</time>
      </trkpt>
      <trkpt lat="43.415209" lon="-5.793363">
        <ele>87.508</ele>
        <time>2021-10-14T12:38:50Z</time>
      </trkpt>
      <trkpt lat="43.415162" lon="-5.793151">
        <ele>86.497</ele>
        <time>2021-10-14T12:38:52Z</time>
      </trkpt>
      <trkpt lat="43.415121" lon="-5.793042">
        <ele>86.925</ele>
        <time>2021-10-14T12:38:53Z</time>
      </trkpt>
      <trkpt lat="43.415096" lon="-5.792933">
        <ele>86.863</ele>
        <time>2021-10-14T12:38:54Z</time>
      </trkpt>
      <trkpt lat="43.415110" lon="-5.792728">
        <ele>87.350</ele>
        <time>2021-10-14T12:38:56Z</time>
      </trkpt>
      <trkpt lat="43.415216" lon="-5.792588">
        <ele>87.263</ele>
        <time>2021-10-14T12:38:58Z</time>
      </trkpt>
      <trkpt lat="43.415295" lon="-5.792560">
        <ele>87.140</ele>
        <time>2021-10-14T12:38:59Z</time>
      </trkpt>
      <trkpt lat="43.415458" lon="-5.792627">
        <ele>87.082</ele>
        <time>2021-10-14T12:39:01Z</time>
      </trkpt>
      <trkpt lat="43.415527" lon="-5.792717">
        <ele>86.931</ele>
        <time>2021-10-14T12:39:02Z</time>
      </trkpt>
      <trkpt lat="43.415617" lon="-5.792949">
        <ele>86.854</ele>
        <time>2021-10-14T12:39:04Z</time>
      </trkpt>
      <trkpt lat="43.415675" lon="-5.793047">
        <ele>87.456</ele>
        <time>2021-10-14T12:39:05Z</time>
      </trkpt>
      <trkpt lat="43.415837" lon="-5.793164">
        <ele>87.811</ele>
        <time>2021-10-14T12:39:07Z</time>
      </trkpt>
      <trkpt lat="43.415952" lon="-5.793203">
        <ele>87.808</ele>
        <time>2021-10-14T12:39:08Z</time>
      </trkpt>
      <trkpt lat="43.416198" lon="-5.793285">
        <ele>90.483</ele>
        <time>2021-10-14T12:39:10Z</time>
      </trkpt>
      <trkpt lat="43.416331" lon="-5.793334">
        <ele>91.191</ele>
        <time>2021-10-14T12:39:11Z</time>
      </trkpt>
      <trkpt lat="43.416616" lon="-5.793463">
        <ele>96.039</ele>
        <time>2021-10-14T12:39:13Z</time>
      </trkpt>
      <trkpt lat="43.416777" lon="-5.793550">
        <ele>97.056</ele>
        <time>2021-10-14T12:39:14Z</time>
      </trkpt>
      <trkpt lat="43.417076" lon="-5.793763">
        <ele>101.159</ele>
        <time>2021-10-14T12:39:16Z</time>
      </trkpt>
      <trkpt lat="43.417196" lon="-5.793879">
        <ele>101.566</ele>
        <time>2021-10-14T12:39:17Z</time>
      </trkpt>
      <trkpt lat="43.417393" lon="-5.794124">
        <ele>102.968</ele>
        <time>2021-10-14T12:39:19Z</time>
      </trkpt>
      <trkpt lat="43.417476" lon="-5.794246">
        <ele>103.047</ele>
        <time>2021-10-14T12:39:20Z</time>
      </trkpt>
      <trkpt lat="43.417623" lon="-5.794478">
        <ele>102.472</ele>
        <time>2021-10-14T12:39:22Z</time>
      </trkpt>
      <trkpt lat="43.417818" lon="-5.794666">
        <ele>98.113</ele>
        <time>2021-10-14T12:39:24Z</time>
      </trkpt>
      <trkpt lat="43.418078" lon="-5.794745">
        <ele>96.914</ele>
        <time>2021-10-14T12:39:26Z</time>
      </trkpt>
      <trkpt lat="43.418322" lon="-5.794620">
        <ele>94.808</ele>
        <time>2021-10-14T12:39:28Z</time>
      </trkpt>
      <trkpt lat="43.418442" lon="-5.794505">
        <ele>95.025</ele>
        <time>2021-10-14T12:39:29Z</time>
      </trkpt>
      <trkpt lat="43.418699" lon="-5.794213">
        <ele>95.223</ele>
        <time>2021-10-14T12:39:31Z</time>
      </trkpt>
      <trkpt lat="43.418841" lon="-5.794057">
        <ele>96.891</ele>
        <time>2021-10-14T12:39:32Z</time>
      </trkpt>
      <trkpt lat="43.419083" lon="-5.793782">
        <ele>99.648</ele>
        <time>2021-10-14T12:39:34Z</time>
      </trkpt>
      <trkpt lat="43.419296" lon="-5.793473">
        <ele>101.951</ele>
        <time>2021-10-14T12:39:36Z</time>
      </trkpt>
      <trkpt lat="43.419391" lon="-5.793271">
        <ele>103.928</ele>
        <time>2021-10-14T12:39:37Z</time>
      </trkpt>
      <trkpt lat="43.419484" lon="-5.793037">
        <ele>105.180</ele>
        <time>2021-10-14T12:39:38Z</time>
      </trkpt>
      <trkpt lat="43.419675" lon="-5.792543">
        <ele>107.979</ele>
        <time>2021-10-14T12:39:40Z</time>
      </trkpt>
      <trkpt lat="43.419876" lon="-5.792075">
        <ele>110.113</ele>
        <time>2021-10-14T12:39:42Z</time>
      </trkpt>
      <trkpt lat="43.420096" lon="-5.791696">
        <ele>112.943</ele>
        <time>2021-10-14T12:39:44Z</time>
      </trkpt>
      <trkpt lat="43.420410" lon="-5.791389">
        <ele>115.207</ele>
        <time>2021-10-14T12:39:46Z</time>
      </trkpt>
      <trkpt lat="43.420619" lon="-5.791265">
        <ele>116.208</ele>
        <time>2021-10-14T12:39:47Z</time>
      </trkpt>
      <trkpt lat="43.420853" lon="-5.791165">
        <ele>116.769</ele>
        <time>2021-10-14T12:39:48Z</time>
      </trkpt>
      <trkpt lat="43.421345" lon="-5.790983">
        <ele>117.427</ele>
        <time>2021-10-14T12:39:50Z</time>
      </trkpt>
      <trkpt lat="43.421790" lon="-5.790812">
        <ele>117.775</ele>
        <time>2021-10-14T12:39:52Z</time>
      </trkpt>
      <trkpt lat="43.421982" lon="-5.790736">
        <ele>118.172</ele>
        <time>2021-10-14T12:39:53Z</time>
      </trkpt>
      <trkpt lat="43.422296" lon="-5.790613">
        <ele>118.225</ele>
        <time>2021-10-14T12:39:55Z</time>
      </trkpt>
      <trkpt lat="43.422443" lon="-5.790550">
        <ele>119.382</ele>
        <time>2021-10-14T12:39:56Z</time>
      </trkpt>
      <trkpt lat="43.422741" lon="-5.790418">
        <ele>118.534</ele>
        <time>2021-10-14T12:39:58Z</time>
      </trkpt>
      <trkpt lat="43.422904" lon="-5.790361">
        <ele>118.623</ele>
        <time>2021-10-14T12:39:59Z</time>
      </trkpt>
      <trkpt lat="43.423230" lon="-5.790258">
        <ele>118.938</ele>
        <time>2021-10-14T12:40:01Z</time>
      </trkpt>
      <trkpt lat="43.423403" lon="-5.790208">
        <ele>118.470</ele>
        <time>2021-10-14T12:40:02Z</time>
      </trkpt>
      <trkpt lat="43.423734" lon="-5.790090">
        <ele>118.817</ele>
        <time>2021-10-14T12:40:04Z</time>
      </trkpt>
      <trkpt lat="43.424058" lon="-5.789955">
        <ele>118.408</ele>
        <time>2021-10-14T12:40:06Z</time>
      </trkpt>
      <trkpt lat="43.424385" lon="-5.789820">
        <ele>117.651</ele>
        <time>2021-10-14T12:40:08Z</time>
      </trkpt>
      <trkpt lat="43.424713" lon="-5.789688">
        <ele>117.579</ele>
        <time>2021-10-14T12:40:10Z</time>
      </trkpt>
      <trkpt lat="43.424884" lon="-5.789619">
        <ele>117.897</ele>
        <time>2021-10-14T12:40:11Z</time>
      </trkpt>
      <trkpt lat="43.425220" lon="-5.789484">
        <ele>116.384</ele>
        <time>2021-10-14T12:40:13Z</time>
      </trkpt>
      <trkpt lat="43.425383" lon="-5.789417">
        <ele>116.197</ele>
        <time>2021-10-14T12:40:14Z</time>
      </trkpt>
      <trkpt lat="43.425692" lon="-5.789291">
        <ele>117.934</ele>
        <time>2021-10-14T12:40:16Z</time>
      </trkpt>
      <trkpt lat="43.426014" lon="-5.789160">
        <ele>117.376</ele>
        <time>2021-10-14T12:40:18Z</time>
      </trkpt>
      <trkpt lat="43.426181" lon="-5.789092">
        <ele>117.375</ele>
        <time>2021-10-14T12:40:19Z</time>
      </trkpt>
      <trkpt lat="43.426356" lon="-5.789021">
        <ele>118.234</ele>
        <time>2021-10-14T12:40:20Z</time>
      </trkpt>
      <trkpt lat="43.426728" lon="-5.788870">
        <ele>119.055</ele>
        <time>2021-10-14T12:40:22Z</time>
      </trkpt>
      <trkpt lat="43.426943" lon="-5.788782">
        <ele>119.810</ele>
        <time>2021-10-14T12:40:23Z</time>
      </trkpt>
      <trkpt lat="43.427384" lon="-5.788606">
        <ele>119.908</ele>
        <time>2021-10-14T12:40:25Z</time>
      </trkpt>
      <trkpt lat="43.427604" lon="-5.788519">
        <ele>119.381</ele>
        <time>2021-10-14T12:40:26Z</time>
      </trkpt>
      <trkpt lat="43.428025" lon="-5.788352">
        <ele>119.339</ele>
        <time>2021-10-14T12:40:28Z</time>
      </trkpt>
      <trkpt lat="43.428436" lon="-5.788196">
        <ele>119.987</ele>
        <time>2021-10-14T12:40:30Z</time>
      </trkpt>
      <trkpt lat="43.428632" lon="-5.788116">
        <ele>120.424</ele>
        <time>2021-10-14T12:40:31Z</time>
      </trkpt>
      <trkpt lat="43.428816" lon="-5.788041">
        <ele>120.227</ele>
        <time>2021-10-14T12:40:32Z</time>
      </trkpt>
      <trkpt lat="43.429149" lon="-5.787906">
        <ele>122.194</ele>
        <time>2021-10-14T12:40:34Z</time>
      </trkpt>
      <trkpt lat="43.429324" lon="-5.787840">
        <ele>122.366</ele>
        <time>2021-10-14T12:40:35Z</time>
      </trkpt>
      <trkpt lat="43.429675" lon="-5.787699">
        <ele>123.285</ele>
        <time>2021-10-14T12:40:37Z</time>
      </trkpt>
      <trkpt lat="43.429858" lon="-5.787624">
        <ele>123.778</ele>
        <time>2021-10-14T12:40:38Z</time>
      </trkpt>
      <trkpt lat="43.430220" lon="-5.787500">
        <ele>125.733</ele>
        <time>2021-10-14T12:40:40Z</time>
      </trkpt>
      <trkpt lat="43.430413" lon="-5.787451">
        <ele>125.626</ele>
        <time>2021-10-14T12:40:41Z</time>
      </trkpt>
      <trkpt lat="43.430819" lon="-5.787389">
        <ele>123.408</ele>
        <time>2021-10-14T12:40:43Z</time>
      </trkpt>
      <trkpt lat="43.431038" lon="-5.787364">
        <ele>122.585</ele>
        <time>2021-10-14T12:40:44Z</time>
      </trkpt>
      <trkpt lat="43.431460" lon="-5.787328">
        <ele>120.573</ele>
        <time>2021-10-14T12:40:46Z</time>
      </trkpt>
      <trkpt lat="43.431858" lon="-5.787292">
        <ele>117.621</ele>
        <time>2021-10-14T12:40:48Z</time>
      </trkpt>
      <trkpt lat="43.432236" lon="-5.787258">
        <ele>114.888</ele>
        <time>2021-10-14T12:40:50Z</time>
      </trkpt>
      <trkpt lat="43.432572" lon="-5.787229">
        <ele>113.291</ele>
        <time>2021-10-14T12:40:52Z</time>
      </trkpt>
      <trkpt lat="43.432878" lon="-5.787204">
        <ele>113.158</ele>
        <time>2021-10-14T12:40:54Z</time>
      </trkpt>
      <trkpt lat="43.433191" lon="-5.787178">
        <ele>111.610</ele>
        <time>2021-10-14T12:40:56Z</time>
      </trkpt>
      <trkpt lat="43.433513" lon="-5.787146">
        <ele>110.219</ele>
        <time>2021-10-14T12:40:58Z</time>
      </trkpt>
      <trkpt lat="43.433687" lon="-5.787127">
        <ele>109.941</ele>
        <time>2021-10-14T12:40:59Z</time>
      </trkpt>
      <trkpt lat="43.434056" lon="-5.787091">
        <ele>109.381</ele>
        <time>2021-10-14T12:41:01Z</time>
      </trkpt>
      <trkpt lat="43.434251" lon="-5.787073">
        <ele>108.709</ele>
        <time>2021-10-14T12:41:02Z</time>
      </trkpt>
      <trkpt lat="43.434616" lon="-5.787040">
        <ele>109.408</ele>
        <time>2021-10-14T12:41:04Z</time>
      </trkpt>
      <trkpt lat="43.434957" lon="-5.787008">
        <ele>111.042</ele>
        <time>2021-10-14T12:41:06Z</time>
      </trkpt>
      <trkpt lat="43.435300" lon="-5.786972">
        <ele>111.620</ele>
        <time>2021-10-14T12:41:08Z</time>
      </trkpt>
      <trkpt lat="43.435637" lon="-5.786939">
        <ele>112.388</ele>
        <time>2021-10-14T12:41:10Z</time>
      </trkpt>
      <trkpt lat="43.435953" lon="-5.786905">
        <ele>113.525</ele>
        <time>2021-10-14T12:41:12Z</time>
      </trkpt>
      <trkpt lat="43.436107" lon="-5.786890">
        <ele>113.548</ele>
        <time>2021-10-14T12:41:13Z</time>
      </trkpt>
      <trkpt lat="43.436270" lon="-5.786874">
        <ele>114.635</ele>
        <time>2021-10-14T12:41:14Z</time>
      </trkpt>
      <trkpt lat="43.436604" lon="-5.786812">
        <ele>115.067</ele>
        <time>2021-10-14T12:41:16Z</time>
      </trkpt>
      <trkpt lat="43.436779" lon="-5.786743">
        <ele>115.866</ele>
        <time>2021-10-14T12:41:17Z</time>
      </trkpt>
      <trkpt lat="43.437114" lon="-5.786563">
        <ele>115.761</ele>
        <time>2021-10-14T12:41:19Z</time>
      </trkpt>
      <trkpt lat="43.437272" lon="-5.786470">
        <ele>116.121</ele>
        <time>2021-10-14T12:41:20Z</time>
      </trkpt>
      <trkpt lat="43.437554" lon="-5.786303">
        <ele>116.613</ele>
        <time>2021-10-14T12:41:22Z</time>
      </trkpt>
      <trkpt lat="43.437694" lon="-5.786222">
        <ele>116.908</ele>
        <time>2021-10-14T12:41:23Z</time>
      </trkpt>
      <trkpt lat="43.437838" lon="-5.786140">
        <ele>117.564</ele>
        <time>2021-10-14T12:41:24Z</time>
      </trkpt>
      <trkpt lat="43.438154" lon="-5.785961">
        <ele>117.522</ele>
        <time>2021-10-14T12:41:26Z</time>
      </trkpt>
      <trkpt lat="43.438473" lon="-5.785780">
        <ele>118.530</ele>
        <time>2021-10-14T12:41:28Z</time>
      </trkpt>
      <trkpt lat="43.438812" lon="-5.785587">
        <ele>118.567</ele>
        <time>2021-10-14T12:41:30Z</time>
      </trkpt>
      <trkpt lat="43.439144" lon="-5.785396">
        <ele>119.060</ele>
        <time>2021-10-14T12:41:32Z</time>
      </trkpt>
      <trkpt lat="43.439446" lon="-5.785215">
        <ele>121.097</ele>
        <time>2021-10-14T12:41:34Z</time>
      </trkpt>
      <trkpt lat="43.439713" lon="-5.785061">
        <ele>121.519</ele>
        <time>2021-10-14T12:41:36Z</time>
      </trkpt>
      <trkpt lat="43.439989" lon="-5.784900">
        <ele>122.578</ele>
        <time>2021-10-14T12:41:38Z</time>
      </trkpt>
      <trkpt lat="43.440263" lon="-5.784746">
        <ele>121.735</ele>
        <time>2021-10-14T12:41:40Z</time>
      </trkpt>
      <trkpt lat="43.440399" lon="-5.784667">
        <ele>122.386</ele>
        <time>2021-10-14T12:41:41Z</time>
      </trkpt>
      <trkpt lat="43.440664" lon="-5.784504">
        <ele>123.314</ele>
        <time>2021-10-14T12:41:43Z</time>
      </trkpt>
      <trkpt lat="43.440804" lon="-5.784420">
        <ele>123.908</ele>
        <time>2021-10-14T12:41:44Z</time>
      </trkpt>
      <trkpt lat="43.441084" lon="-5.784253">
        <ele>124.091</ele>
        <time>2021-10-14T12:41:46Z</time>
      </trkpt>
      <trkpt lat="43.441367" lon="-5.784080">
        <ele>122.929</ele>
        <time>2021-10-14T12:41:48Z</time>
      </trkpt>
      <trkpt lat="43.441650" lon="-5.783890">
        <ele>122.557</ele>
        <time>2021-10-14T12:41:50Z</time>
      </trkpt>
      <trkpt lat="43.441898" lon="-5.783680">
        <ele>121.894</ele>
        <time>2021-10-14T12:41:52Z</time>
      </trkpt>
      <trkpt lat="43.442149" lon="-5.783440">
        <ele>121.547</ele>
        <time>2021-10-14T12:41:54Z</time>
      </trkpt>
      <trkpt lat="43.442278" lon="-5.783316">
        <ele>121.624</ele>
        <time>2021-10-14T12:41:55Z</time>
      </trkpt>
      <trkpt lat="43.442542" lon="-5.783073">
        <ele>121.516</ele>
        <time>2021-10-14T12:41:57Z</time>
      </trkpt>
      <trkpt lat="43.442686" lon="-5.782956">
        <ele>121.365</ele>
        <time>2021-10-14T12:41:58Z</time>
      </trkpt>
      <trkpt lat="43.442968" lon="-5.782772">
        <ele>121.086</ele>
        <time>2021-10-14T12:42:00Z</time>
      </trkpt>
      <trkpt lat="43.443106" lon="-5.782695">
        <ele>120.160</ele>
        <time>2021-10-14T12:42:01Z</time>
      </trkpt>
      <trkpt lat="43.443242" lon="-5.782612">
        <ele>119.826</ele>
        <time>2021-10-14T12:42:02Z</time>
      </trkpt>
      <trkpt lat="43.443480" lon="-5.782429">
        <ele>119.108</ele>
        <time>2021-10-14T12:42:04Z</time>
      </trkpt>
      <trkpt lat="43.443591" lon="-5.782329">
        <ele>118.186</ele>
        <time>2021-10-14T12:42:05Z</time>
      </trkpt>
      <trkpt lat="43.443807" lon="-5.782131">
        <ele>116.314</ele>
        <time>2021-10-14T12:42:07Z</time>
      </trkpt>
      <trkpt lat="43.443918" lon="-5.782025">
        <ele>116.242</ele>
        <time>2021-10-14T12:42:08Z</time>
      </trkpt>
      <trkpt lat="43.444134" lon="-5.781822">
        <ele>115.339</ele>
        <time>2021-10-14T12:42:10Z</time>
      </trkpt>
      <trkpt lat="43.444236" lon="-5.781727">
        <ele>114.372</ele>
        <time>2021-10-14T12:42:11Z</time>
      </trkpt>
      <trkpt lat="43.444423" lon="-5.781560">
        <ele>113.859</ele>
        <time>2021-10-14T12:42:13Z</time>
      </trkpt>
      <trkpt lat="43.444508" lon="-5.781483">
        <ele>113.411</ele>
        <time>2021-10-14T12:42:14Z</time>
      </trkpt>
      <trkpt lat="43.444659" lon="-5.781357">
        <ele>113.850</ele>
        <time>2021-10-14T12:42:16Z</time>
      </trkpt>
      <trkpt lat="43.444787" lon="-5.781226">
        <ele>113.959</ele>
        <time>2021-10-14T12:42:18Z</time>
      </trkpt>
      <trkpt lat="43.444849" lon="-5.781137">
        <ele>113.903</ele>
        <time>2021-10-14T12:42:19Z</time>
      </trkpt>
      <trkpt lat="43.444920" lon="-5.781028">
        <ele>113.523</ele>
        <time>2021-10-14T12:42:20Z</time>
      </trkpt>
      <trkpt lat="43.445062" lon="-5.780796">
        <ele>112.908</ele>
        <time>2021-10-14T12:42:22Z</time>
      </trkpt>
      <trkpt lat="43.445177" lon="-5.780510">
        <ele>112.733</ele>
        <time>2021-10-14T12:42:24Z</time>
      </trkpt>
      <trkpt lat="43.445276" lon="-5.780179">
        <ele>112.651</ele>
        <time>2021-10-14T12:42:26Z</time>
      </trkpt>
      <trkpt lat="43.445371" lon="-5.779866">
        <ele>112.569</ele>
        <time>2021-10-14T12:42:28Z</time>
      </trkpt>
      <trkpt lat="43.445484" lon="-5.779527">
        <ele>112.556</ele>
        <time>2021-10-14T12:42:30Z</time>
      </trkpt>
      <trkpt lat="43.445544" lon="-5.779347">
        <ele>113.469</ele>
        <time>2021-10-14T12:42:31Z</time>
      </trkpt>
      <trkpt lat="43.445604" lon="-5.779156">
        <ele>113.976</ele>
        <time>2021-10-14T12:42:32Z</time>
      </trkpt>
      <trkpt lat="43.445722" lon="-5.778779">
        <ele>115.048</ele>
        <time>2021-10-14T12:42:34Z</time>
      </trkpt>
      <trkpt lat="43.445847" lon="-5.778389">
        <ele>117.757</ele>
        <time>2021-10-14T12:42:36Z</time>
      </trkpt>
      <trkpt lat="43.445971" lon="-5.777993">
        <ele>118.859</ele>
        <time>2021-10-14T12:42:38Z</time>
      </trkpt>
      <trkpt lat="43.446096" lon="-5.777594">
        <ele>120.703</ele>
        <time>2021-10-14T12:42:40Z</time>
      </trkpt>
      <trkpt lat="43.446160" lon="-5.777390">
        <ele>121.323</ele>
        <time>2021-10-14T12:42:41Z</time>
      </trkpt>
      <trkpt lat="43.446331" lon="-5.776950">
        <ele>122.608</ele>
        <time>2021-10-14T12:42:43Z</time>
      </trkpt>
      <trkpt lat="43.446453" lon="-5.776725">
        <ele>122.723</ele>
        <time>2021-10-14T12:42:44Z</time>
      </trkpt>
      <trkpt lat="43.446713" lon="-5.776350">
        <ele>123.731</ele>
        <time>2021-10-14T12:42:46Z</time>
      </trkpt>
      <trkpt lat="43.446979" lon="-5.775972">
        <ele>125.329</ele>
        <time>2021-10-14T12:42:48Z</time>
      </trkpt>
      <trkpt lat="43.447265" lon="-5.775572">
        <ele>126.326</ele>
        <time>2021-10-14T12:42:50Z</time>
      </trkpt>
      <trkpt lat="43.447588" lon="-5.775112">
        <ele>127.119</ele>
        <time>2021-10-14T12:42:52Z</time>
      </trkpt>
      <trkpt lat="43.447763" lon="-5.774862">
        <ele>127.766</ele>
        <time>2021-10-14T12:42:53Z</time>
      </trkpt>
      <trkpt lat="43.448112" lon="-5.774361">
        <ele>130.528</ele>
        <time>2021-10-14T12:42:55Z</time>
      </trkpt>
      <trkpt lat="43.448288" lon="-5.774105">
        <ele>132.397</ele>
        <time>2021-10-14T12:42:56Z</time>
      </trkpt>
      <trkpt lat="43.448619" lon="-5.773624">
        <ele>134.019</ele>
        <time>2021-10-14T12:42:58Z</time>
      </trkpt>
      <trkpt lat="43.448782" lon="-5.773387">
        <ele>135.809</ele>
        <time>2021-10-14T12:42:59Z</time>
      </trkpt>
      <trkpt lat="43.449084" lon="-5.772947">
        <ele>138.319</ele>
        <time>2021-10-14T12:43:01Z</time>
      </trkpt>
      <trkpt lat="43.449232" lon="-5.772728">
        <ele>139.008</ele>
        <time>2021-10-14T12:43:02Z</time>
      </trkpt>
      <trkpt lat="43.449516" lon="-5.772320">
        <ele>140.529</ele>
        <time>2021-10-14T12:43:04Z</time>
      </trkpt>
      <trkpt lat="43.449661" lon="-5.772111">
        <ele>141.057</ele>
        <time>2021-10-14T12:43:05Z</time>
      </trkpt>
      <trkpt lat="43.449803" lon="-5.771903">
        <ele>141.245</ele>
        <time>2021-10-14T12:43:06Z</time>
      </trkpt>
      <trkpt lat="43.450072" lon="-5.771498">
        <ele>141.952</ele>
        <time>2021-10-14T12:43:08Z</time>
      </trkpt>
      <trkpt lat="43.450276" lon="-5.771085">
        <ele>141.585</ele>
        <time>2021-10-14T12:43:10Z</time>
      </trkpt>
      <trkpt lat="43.450426" lon="-5.770605">
        <ele>142.092</ele>
        <time>2021-10-14T12:43:12Z</time>
      </trkpt>
      <trkpt lat="43.450495" lon="-5.770346">
        <ele>142.694</ele>
        <time>2021-10-14T12:43:13Z</time>
      </trkpt>
      <trkpt lat="43.450559" lon="-5.770086">
        <ele>142.863</ele>
        <time>2021-10-14T12:43:14Z</time>
      </trkpt>
      <trkpt lat="43.450685" lon="-5.769592">
        <ele>142.461</ele>
        <time>2021-10-14T12:43:16Z</time>
      </trkpt>
      <trkpt lat="43.450836" lon="-5.769085">
        <ele>142.221</ele>
        <time>2021-10-14T12:43:18Z</time>
      </trkpt>
      <trkpt lat="43.451064" lon="-5.768618">
        <ele>141.713</ele>
        <time>2021-10-14T12:43:20Z</time>
      </trkpt>
      <trkpt lat="43.451365" lon="-5.768237">
        <ele>141.208</ele>
        <time>2021-10-14T12:43:22Z</time>
      </trkpt>
      <trkpt lat="43.451699" lon="-5.767904">
        <ele>141.624</ele>
        <time>2021-10-14T12:43:24Z</time>
      </trkpt>
      <trkpt lat="43.451862" lon="-5.767731">
        <ele>142.372</ele>
        <time>2021-10-14T12:43:25Z</time>
      </trkpt>
      <trkpt lat="43.452030" lon="-5.767558">
        <ele>142.460</ele>
        <time>2021-10-14T12:43:26Z</time>
      </trkpt>
      <trkpt lat="43.452353" lon="-5.767227">
        <ele>142.687</ele>
        <time>2021-10-14T12:43:28Z</time>
      </trkpt>
      <trkpt lat="43.452629" lon="-5.766891">
        <ele>143.450</ele>
        <time>2021-10-14T12:43:30Z</time>
      </trkpt>
      <trkpt lat="43.452739" lon="-5.766700">
        <ele>143.837</ele>
        <time>2021-10-14T12:43:31Z</time>
      </trkpt>
      <trkpt lat="43.452820" lon="-5.766473">
        <ele>144.659</ele>
        <time>2021-10-14T12:43:32Z</time>
      </trkpt>
      <trkpt lat="43.452898" lon="-5.765984">
        <ele>143.998</ele>
        <time>2021-10-14T12:43:34Z</time>
      </trkpt>
      <trkpt lat="43.452905" lon="-5.765735">
        <ele>144.153</ele>
        <time>2021-10-14T12:43:35Z</time>
      </trkpt>
      <trkpt lat="43.452905" lon="-5.765302">
        <ele>142.304</ele>
        <time>2021-10-14T12:43:37Z</time>
      </trkpt>
      <trkpt lat="43.452905" lon="-5.765125">
        <ele>141.614</ele>
        <time>2021-10-14T12:43:38Z</time>
      </trkpt>
      <trkpt lat="43.452907" lon="-5.764848">
        <ele>139.608</ele>
        <time>2021-10-14T12:43:40Z</time>
      </trkpt>
      <trkpt lat="43.452906" lon="-5.764733">
        <ele>139.543</ele>
        <time>2021-10-14T12:43:41Z</time>
      </trkpt>
      <trkpt lat="43.452901" lon="-5.764555">
        <ele>138.571</ele>
        <time>2021-10-14T12:43:43Z</time>
      </trkpt>
      <trkpt lat="43.452899" lon="-5.764479">
        <ele>138.219</ele>
        <time>2021-10-14T12:43:44Z</time>
      </trkpt>
      <trkpt lat="43.452898" lon="-5.764356">
        <ele>136.816</ele>
        <time>2021-10-14T12:43:46Z</time>
      </trkpt>
      <trkpt lat="43.452899" lon="-5.764274">
        <ele>135.819</ele>
        <time>2021-10-14T12:43:48Z</time>
      </trkpt>
      <trkpt lat="43.452899" lon="-5.764203">
        <ele>135.476</ele>
        <time>2021-10-14T12:43:50Z</time>
      </trkpt>
      <trkpt lat="43.452901" lon="-5.764138">
        <ele>134.268</ele>
        <time>2021-10-14T12:43:53Z</time>
      </trkpt>
      <trkpt lat="43.452903" lon="-5.764076">
        <ele>149.247</ele>
        <time>2021-10-14T12:44:40Z</time>
      </trkpt>
      <trkpt lat="43.452907" lon="-5.763996">
        <ele>168.749</ele>
        <time>2021-10-14T12:44:41Z</time>
      </trkpt>
      <trkpt lat="43.452915" lon="-5.763806">
        <ele>195.602</ele>
        <time>2021-10-14T12:44:43Z</time>
      </trkpt>
      <trkpt lat="43.452920" lon="-5.763683">
        <ele>195.622</ele>
        <time>2021-10-14T12:44:44Z</time>
      </trkpt>
      <trkpt lat="43.452932" lon="-5.763319">
        <ele>195.808</ele>
        <time>2021-10-14T12:44:46Z</time>
      </trkpt>
      <trkpt lat="43.452936" lon="-5.762869">
        <ele>195.792</ele>
        <time>2021-10-14T12:44:48Z</time>
      </trkpt>
      <trkpt lat="43.452942" lon="-5.762452">
        <ele>195.790</ele>
        <time>2021-10-14T12:44:50Z</time>
      </trkpt>
      <trkpt lat="43.452946" lon="-5.762042">
        <ele>195.738</ele>
        <time>2021-10-14T12:44:52Z</time>
      </trkpt>
      <trkpt lat="43.452951" lon="-5.761639">
        <ele>195.685</ele>
        <time>2021-10-14T12:44:54Z</time>
      </trkpt>
      <trkpt lat="43.452961" lon="-5.761448">
        <ele>195.658</ele>
        <time>2021-10-14T12:44:55Z</time>
      </trkpt>
      <trkpt lat="43.452983" lon="-5.761254">
        <ele>195.615</ele>
        <time>2021-10-14T12:44:56Z</time>
      </trkpt>
      <trkpt lat="43.453093" lon="-5.760927">
        <ele>195.637</ele>
        <time>2021-10-14T12:44:58Z</time>
      </trkpt>
      <trkpt lat="43.453188" lon="-5.760782">
        <ele>195.696</ele>
        <time>2021-10-14T12:44:59Z</time>
      </trkpt>
      <trkpt lat="43.453447" lon="-5.760531">
        <ele>195.666</ele>
        <time>2021-10-14T12:45:01Z</time>
      </trkpt>
      <trkpt lat="43.453595" lon="-5.760436">
        <ele>195.629</ele>
        <time>2021-10-14T12:45:02Z</time>
      </trkpt>
      <trkpt lat="43.453907" lon="-5.760364">
        <ele>195.621</ele>
        <time>2021-10-14T12:45:04Z</time>
      </trkpt>
      <trkpt lat="43.454069" lon="-5.760383">
        <ele>195.608</ele>
        <time>2021-10-14T12:45:05Z</time>
      </trkpt>
      <trkpt lat="43.454375" lon="-5.760538">
        <ele>195.614</ele>
        <time>2021-10-14T12:45:07Z</time>
      </trkpt>
      <trkpt lat="43.454516" lon="-5.760690">
        <ele>195.622</ele>
        <time>2021-10-14T12:45:08Z</time>
      </trkpt>
      <trkpt lat="43.454776" lon="-5.761088">
        <ele>195.620</ele>
        <time>2021-10-14T12:45:10Z</time>
      </trkpt>
      <trkpt lat="43.455045" lon="-5.761469">
        <ele>195.667</ele>
        <time>2021-10-14T12:45:12Z</time>
      </trkpt>
      <trkpt lat="43.455173" lon="-5.761646">
        <ele>195.620</ele>
        <time>2021-10-14T12:45:13Z</time>
      </trkpt>
      <trkpt lat="43.455287" lon="-5.761814">
        <ele>195.677</ele>
        <time>2021-10-14T12:45:14Z</time>
      </trkpt>
      <trkpt lat="43.455441" lon="-5.762139">
        <ele>195.659</ele>
        <time>2021-10-14T12:45:16Z</time>
      </trkpt>
      <trkpt lat="43.455481" lon="-5.762319">
        <ele>195.638</ele>
        <time>2021-10-14T12:45:17Z</time>
      </trkpt>
      <trkpt lat="43.455497" lon="-5.762502">
        <ele>195.663</ele>
        <time>2021-10-14T12:45:18Z</time>
      </trkpt>
      <trkpt lat="43.455490" lon="-5.762682">
        <ele>195.644</ele>
        <time>2021-10-14T12:45:19Z</time>
      </trkpt>
      <trkpt lat="43.455467" lon="-5.762852">
        <ele>195.618</ele>
        <time>2021-10-14T12:45:20Z</time>
      </trkpt>
      <trkpt lat="43.455426" lon="-5.763137">
        <ele>195.608</ele>
        <time>2021-10-14T12:45:22Z</time>
      </trkpt>
      <trkpt lat="43.455428" lon="-5.763262">
        <ele>195.644</ele>
        <time>2021-10-14T12:45:23Z</time>
      </trkpt>
      <trkpt lat="43.455516" lon="-5.763450">
        <ele>195.682</ele>
        <time>2021-10-14T12:45:25Z</time>
      </trkpt>
      <trkpt lat="43.455597" lon="-5.763510">
        <ele>195.660</ele>
        <time>2021-10-14T12:45:26Z</time>
      </trkpt>
      <trkpt lat="43.455793" lon="-5.763582">
        <ele>195.617</ele>
        <time>2021-10-14T12:45:28Z</time>
      </trkpt>
      <trkpt lat="43.455950" lon="-5.763725">
        <ele>195.670</ele>
        <time>2021-10-14T12:45:30Z</time>
      </trkpt>
      <trkpt lat="43.455999" lon="-5.763803">
        <ele>195.687</ele>
        <time>2021-10-14T12:45:31Z</time>
      </trkpt>
      <trkpt lat="43.456021" lon="-5.763894">
        <ele>195.619</ele>
        <time>2021-10-14T12:45:32Z</time>
      </trkpt>
      <trkpt lat="43.455986" lon="-5.764092">
        <ele>195.648</ele>
        <time>2021-10-14T12:45:34Z</time>
      </trkpt>
      <trkpt lat="43.455969" lon="-5.764182">
        <ele>195.688</ele>
        <time>2021-10-14T12:45:35Z</time>
      </trkpt>
      <trkpt lat="43.456013" lon="-5.764283">
        <ele>195.624</ele>
        <time>2021-10-14T12:45:37Z</time>
      </trkpt>
      <trkpt lat="43.456072" lon="-5.764253">
        <ele>195.626</ele>
        <time>2021-10-14T12:45:39Z</time>
      </trkpt>
      <trkpt lat="43.456114" lon="-5.764198">
        <ele>176.408</ele>
        <time>2021-10-14T12:45:40Z</time>
      </trkpt>
      <trkpt lat="43.456214" lon="-5.763978">
        <ele>113.626</ele>
        <time>2021-10-14T12:45:42Z</time>
      </trkpt>
      <trkpt lat="43.456383" lon="-5.763771">
        <ele>105.034</ele>
        <time>2021-10-14T12:45:44Z</time>
      </trkpt>
      <trkpt lat="43.456646" lon="-5.763589">
        <ele>106.352</ele>
        <time>2021-10-14T12:45:46Z</time>
      </trkpt>
      <trkpt lat="43.456809" lon="-5.763496">
        <ele>106.719</ele>
        <time>2021-10-14T12:45:47Z</time>
      </trkpt>
      <trkpt lat="43.457154" lon="-5.763345">
        <ele>107.422</ele>
        <time>2021-10-14T12:45:49Z</time>
      </trkpt>
      <trkpt lat="43.457343" lon="-5.763283">
        <ele>108.659</ele>
        <time>2021-10-14T12:45:50Z</time>
      </trkpt>
      <trkpt lat="43.457730" lon="-5.763165">
        <ele>107.581</ele>
        <time>2021-10-14T12:45:52Z</time>
      </trkpt>
      <trkpt lat="43.457934" lon="-5.763107">
        <ele>106.690</ele>
        <time>2021-10-14T12:45:53Z</time>
      </trkpt>
      <trkpt lat="43.458138" lon="-5.763055">
        <ele>106.245</ele>
        <time>2021-10-14T12:45:54Z</time>
      </trkpt>
      <trkpt lat="43.458338" lon="-5.763017">
        <ele>105.447</ele>
        <time>2021-10-14T12:45:55Z</time>
      </trkpt>
      <trkpt lat="43.458535" lon="-5.763002">
        <ele>105.511</ele>
        <time>2021-10-14T12:45:56Z</time>
      </trkpt>
      <trkpt lat="43.458910" lon="-5.762995">
        <ele>103.008</ele>
        <time>2021-10-14T12:45:58Z</time>
      </trkpt>
      <trkpt lat="43.459263" lon="-5.762980">
        <ele>100.842</ele>
        <time>2021-10-14T12:46:00Z</time>
      </trkpt>
      <trkpt lat="43.459594" lon="-5.762967">
        <ele>98.730</ele>
        <time>2021-10-14T12:46:02Z</time>
      </trkpt>
      <trkpt lat="43.459932" lon="-5.762961">
        <ele>95.798</ele>
        <time>2021-10-14T12:46:04Z</time>
      </trkpt>
      <trkpt lat="43.460124" lon="-5.762954">
        <ele>93.415</ele>
        <time>2021-10-14T12:46:05Z</time>
      </trkpt>
      <trkpt lat="43.460532" lon="-5.762935">
        <ele>93.548</ele>
        <time>2021-10-14T12:46:07Z</time>
      </trkpt>
      <trkpt lat="43.460753" lon="-5.762925">
        <ele>93.245</ele>
        <time>2021-10-14T12:46:08Z</time>
      </trkpt>
      <trkpt lat="43.461201" lon="-5.762917">
        <ele>95.257</ele>
        <time>2021-10-14T12:46:10Z</time>
      </trkpt>
      <trkpt lat="43.461422" lon="-5.762909">
        <ele>96.866</ele>
        <time>2021-10-14T12:46:11Z</time>
      </trkpt>
      <trkpt lat="43.461810" lon="-5.762888">
        <ele>99.465</ele>
        <time>2021-10-14T12:46:13Z</time>
      </trkpt>
      <trkpt lat="43.461986" lon="-5.762865">
        <ele>99.368</ele>
        <time>2021-10-14T12:46:14Z</time>
      </trkpt>
      <trkpt lat="43.462329" lon="-5.762789">
        <ele>98.114</ele>
        <time>2021-10-14T12:46:16Z</time>
      </trkpt>
      <trkpt lat="43.462505" lon="-5.762743">
        <ele>96.208</ele>
        <time>2021-10-14T12:46:17Z</time>
      </trkpt>
      <trkpt lat="43.462839" lon="-5.762635">
        <ele>93.044</ele>
        <time>2021-10-14T12:46:19Z</time>
      </trkpt>
      <trkpt lat="43.462995" lon="-5.762568">
        <ele>90.992</ele>
        <time>2021-10-14T12:46:20Z</time>
      </trkpt>
      <trkpt lat="43.463267" lon="-5.762448">
        <ele>87.410</ele>
        <time>2021-10-14T12:46:22Z</time>
      </trkpt>
      <trkpt lat="43.463541" lon="-5.762408">
        <ele>83.297</ele>
        <time>2021-10-14T12:46:24Z</time>
      </trkpt>
      <trkpt lat="43.463683" lon="-5.762453">
        <ele>81.680</ele>
        <time>2021-10-14T12:46:25Z</time>
      </trkpt>
      <trkpt lat="43.463830" lon="-5.762558">
        <ele>80.077</ele>
        <time>2021-10-14T12:46:26Z</time>
      </trkpt>
      <trkpt lat="43.464109" lon="-5.762800">
        <ele>78.559</ele>
        <time>2021-10-14T12:46:28Z</time>
      </trkpt>
      <trkpt lat="43.464389" lon="-5.762940">
        <ele>76.948</ele>
        <time>2021-10-14T12:46:30Z</time>
      </trkpt>
      <trkpt lat="43.464674" lon="-5.762968">
        <ele>74.894</ele>
        <time>2021-10-14T12:46:32Z</time>
      </trkpt>
      <trkpt lat="43.464951" lon="-5.762862">
        <ele>72.057</ele>
        <time>2021-10-14T12:46:34Z</time>
      </trkpt>
      <trkpt lat="43.465181" lon="-5.762603">
        <ele>69.322</ele>
        <time>2021-10-14T12:46:36Z</time>
      </trkpt>
      <trkpt lat="43.465296" lon="-5.762438">
        <ele>68.308</ele>
        <time>2021-10-14T12:46:37Z</time>
      </trkpt>
      <trkpt lat="43.465427" lon="-5.762271">
        <ele>67.597</ele>
        <time>2021-10-14T12:46:38Z</time>
      </trkpt>
      <trkpt lat="43.465721" lon="-5.761943">
        <ele>64.115</ele>
        <time>2021-10-14T12:46:40Z</time>
      </trkpt>
      <trkpt lat="43.465990" lon="-5.761584">
        <ele>62.043</ele>
        <time>2021-10-14T12:46:42Z</time>
      </trkpt>
      <trkpt lat="43.466194" lon="-5.761193">
        <ele>59.370</ele>
        <time>2021-10-14T12:46:44Z</time>
      </trkpt>
      <trkpt lat="43.466378" lon="-5.760830">
        <ele>56.313</ele>
        <time>2021-10-14T12:46:46Z</time>
      </trkpt>
      <trkpt lat="43.466561" lon="-5.760497">
        <ele>54.490</ele>
        <time>2021-10-14T12:46:48Z</time>
      </trkpt>
      <trkpt lat="43.466655" lon="-5.760348">
        <ele>53.882</ele>
        <time>2021-10-14T12:46:49Z</time>
      </trkpt>
      <trkpt lat="43.466763" lon="-5.760216">
        <ele>53.391</ele>
        <time>2021-10-14T12:46:50Z</time>
      </trkpt>
      <trkpt lat="43.467025" lon="-5.760039">
        <ele>51.986</ele>
        <time>2021-10-14T12:46:52Z</time>
      </trkpt>
      <trkpt lat="43.467187" lon="-5.759999">
        <ele>49.760</ele>
        <time>2021-10-14T12:46:53Z</time>
      </trkpt>
      <trkpt lat="43.467541" lon="-5.760035">
        <ele>48.626</ele>
        <time>2021-10-14T12:46:55Z</time>
      </trkpt>
      <trkpt lat="43.467740" lon="-5.760093">
        <ele>48.208</ele>
        <time>2021-10-14T12:46:56Z</time>
      </trkpt>
      <trkpt lat="43.468127" lon="-5.760232">
        <ele>45.856</ele>
        <time>2021-10-14T12:46:58Z</time>
      </trkpt>
      <trkpt lat="43.468574" lon="-5.760406">
        <ele>43.934</ele>
        <time>2021-10-14T12:47:00Z</time>
      </trkpt>
      <trkpt lat="43.468825" lon="-5.760511">
        <ele>42.452</ele>
        <time>2021-10-14T12:47:01Z</time>
      </trkpt>
      <trkpt lat="43.469091" lon="-5.760623">
        <ele>40.769</ele>
        <time>2021-10-14T12:47:02Z</time>
      </trkpt>
      <trkpt lat="43.469579" lon="-5.760827">
        <ele>40.432</ele>
        <time>2021-10-14T12:47:04Z</time>
      </trkpt>
      <trkpt lat="43.470023" lon="-5.761005">
        <ele>38.799</ele>
        <time>2021-10-14T12:47:06Z</time>
      </trkpt>
      <trkpt lat="43.470441" lon="-5.761168">
        <ele>39.841</ele>
        <time>2021-10-14T12:47:08Z</time>
      </trkpt>
      <trkpt lat="43.470859" lon="-5.761319">
        <ele>40.860</ele>
        <time>2021-10-14T12:47:10Z</time>
      </trkpt>
      <trkpt lat="43.471298" lon="-5.761446">
        <ele>40.265</ele>
        <time>2021-10-14T12:47:12Z</time>
      </trkpt>
      <trkpt lat="43.471514" lon="-5.761499">
        <ele>40.868</ele>
        <time>2021-10-14T12:47:13Z</time>
      </trkpt>
      <trkpt lat="43.471732" lon="-5.761548">
        <ele>40.214</ele>
        <time>2021-10-14T12:47:14Z</time>
      </trkpt>
      <trkpt lat="43.472153" lon="-5.761625">
        <ele>41.508</ele>
        <time>2021-10-14T12:47:16Z</time>
      </trkpt>
      <trkpt lat="43.472588" lon="-5.761680">
        <ele>39.554</ele>
        <time>2021-10-14T12:47:18Z</time>
      </trkpt>
      <trkpt lat="43.473006" lon="-5.761712">
        <ele>38.772</ele>
        <time>2021-10-14T12:47:20Z</time>
      </trkpt>
      <trkpt lat="43.473436" lon="-5.761695">
        <ele>35.590</ele>
        <time>2021-10-14T12:47:22Z</time>
      </trkpt>
      <trkpt lat="43.473890" lon="-5.761618">
        <ele>33.337</ele>
        <time>2021-10-14T12:47:24Z</time>
      </trkpt>
      <trkpt lat="43.474353" lon="-5.761461">
        <ele>29.830</ele>
        <time>2021-10-14T12:47:26Z</time>
      </trkpt>
      <trkpt lat="43.474787" lon="-5.761239">
        <ele>29.147</ele>
        <time>2021-10-14T12:47:28Z</time>
      </trkpt>
      <trkpt lat="43.475004" lon="-5.761092">
        <ele>28.159</ele>
        <time>2021-10-14T12:47:29Z</time>
      </trkpt>
      <trkpt lat="43.475212" lon="-5.760928">
        <ele>27.148</ele>
        <time>2021-10-14T12:47:30Z</time>
      </trkpt>
      <trkpt lat="43.475415" lon="-5.760748">
        <ele>27.215</ele>
        <time>2021-10-14T12:47:31Z</time>
      </trkpt>
      <trkpt lat="43.475620" lon="-5.760544">
        <ele>27.165</ele>
        <time>2021-10-14T12:47:32Z</time>
      </trkpt>
      <trkpt lat="43.475979" lon="-5.760096">
        <ele>25.511</ele>
        <time>2021-10-14T12:47:34Z</time>
      </trkpt>
      <trkpt lat="43.476308" lon="-5.759574">
        <ele>23.308</ele>
        <time>2021-10-14T12:47:36Z</time>
      </trkpt>
      <trkpt lat="43.476585" lon="-5.759014">
        <ele>21.139</ele>
        <time>2021-10-14T12:47:38Z</time>
      </trkpt>
      <trkpt lat="43.476790" lon="-5.758464">
        <ele>20.057</ele>
        <time>2021-10-14T12:47:40Z</time>
      </trkpt>
      <trkpt lat="43.476968" lon="-5.757887">
        <ele>19.085</ele>
        <time>2021-10-14T12:47:42Z</time>
      </trkpt>
      <trkpt lat="43.477131" lon="-5.757286">
        <ele>17.192</ele>
        <time>2021-10-14T12:47:44Z</time>
      </trkpt>
      <trkpt lat="43.477295" lon="-5.756691">
        <ele>14.795</ele>
        <time>2021-10-14T12:47:46Z</time>
      </trkpt>
      <trkpt lat="43.477382" lon="-5.756386">
        <ele>14.152</ele>
        <time>2021-10-14T12:47:47Z</time>
      </trkpt>
      <trkpt lat="43.477465" lon="-5.756081">
        <ele>14.314</ele>
        <time>2021-10-14T12:47:48Z</time>
      </trkpt>
      <trkpt lat="43.477549" lon="-5.755778">
        <ele>13.883</ele>
        <time>2021-10-14T12:47:49Z</time>
      </trkpt>
      <trkpt lat="43.477637" lon="-5.755470">
        <ele>12.379</ele>
        <time>2021-10-14T12:47:50Z</time>
      </trkpt>
      <trkpt lat="43.477819" lon="-5.754864">
        <ele>10.605</ele>
        <time>2021-10-14T12:47:52Z</time>
      </trkpt>
      <trkpt lat="43.477929" lon="-5.754560">
        <ele>10.625</ele>
        <time>2021-10-14T12:47:53Z</time>
      </trkpt>
      <trkpt lat="43.478185" lon="-5.753992">
        <ele>9.108</ele>
        <time>2021-10-14T12:47:55Z</time>
      </trkpt>
      <trkpt lat="43.478336" lon="-5.753721">
        <ele>7.985</ele>
        <time>2021-10-14T12:47:56Z</time>
      </trkpt>
      <trkpt lat="43.478653" lon="-5.753250">
        <ele>6.543</ele>
        <time>2021-10-14T12:47:58Z</time>
      </trkpt>
      <trkpt lat="43.478826" lon="-5.753030">
        <ele>5.991</ele>
        <time>2021-10-14T12:47:59Z</time>
      </trkpt>
      <trkpt lat="43.479166" lon="-5.752628">
        <ele>1.798</ele>
        <time>2021-10-14T12:48:01Z</time>
      </trkpt>
      <trkpt lat="43.479340" lon="-5.752421">
        <ele>0.241</ele>
        <time>2021-10-14T12:48:02Z</time>
      </trkpt>
      <trkpt lat="43.479665" lon="-5.752006">
        <ele>-3.138</ele>
        <time>2021-10-14T12:48:04Z</time>
      </trkpt>
      <trkpt lat="43.479993" lon="-5.751601">
        <ele>-3.180</ele>
        <time>2021-10-14T12:48:06Z</time>
      </trkpt>
      <trkpt lat="43.480301" lon="-5.751220">
        <ele>-3.669</ele>
        <time>2021-10-14T12:48:08Z</time>
      </trkpt>
      <trkpt lat="43.480611" lon="-5.750845">
        <ele>-3.078</ele>
        <time>2021-10-14T12:48:10Z</time>
      </trkpt>
      <trkpt lat="43.480948" lon="-5.750448">
        <ele>-4.433</ele>
        <time>2021-10-14T12:48:12Z</time>
      </trkpt>
      <trkpt lat="43.481122" lon="-5.750245">
        <ele>-4.026</ele>
        <time>2021-10-14T12:48:13Z</time>
      </trkpt>
      <trkpt lat="43.481299" lon="-5.750034">
        <ele>-4.408</ele>
        <time>2021-10-14T12:48:14Z</time>
      </trkpt>
      <trkpt lat="43.481624" lon="-5.749647">
        <ele>-4.375</ele>
        <time>2021-10-14T12:48:16Z</time>
      </trkpt>
      <trkpt lat="43.481777" lon="-5.749463">
        <ele>-5.493</ele>
        <time>2021-10-14T12:48:17Z</time>
      </trkpt>
      <trkpt lat="43.482079" lon="-5.749105">
        <ele>-5.591</ele>
        <time>2021-10-14T12:48:19Z</time>
      </trkpt>
      <trkpt lat="43.482240" lon="-5.748913">
        <ele>-5.278</ele>
        <time>2021-10-14T12:48:20Z</time>
      </trkpt>
      <trkpt lat="43.482558" lon="-5.748529">
        <ele>-5.951</ele>
        <time>2021-10-14T12:48:22Z</time>
      </trkpt>
      <trkpt lat="43.482721" lon="-5.748333">
        <ele>-5.248</ele>
        <time>2021-10-14T12:48:23Z</time>
      </trkpt>
      <trkpt lat="43.483024" lon="-5.747989">
        <ele>-5.990</ele>
        <time>2021-10-14T12:48:25Z</time>
      </trkpt>
      <trkpt lat="43.483172" lon="-5.747831">
        <ele>-7.289</ele>
        <time>2021-10-14T12:48:26Z</time>
      </trkpt>
      <trkpt lat="43.483444" lon="-5.747551">
        <ele>-8.028</ele>
        <time>2021-10-14T12:48:28Z</time>
      </trkpt>
      <trkpt lat="43.483576" lon="-5.747417">
        <ele>-8.689</ele>
        <time>2021-10-14T12:48:29Z</time>
      </trkpt>
      <trkpt lat="43.483817" lon="-5.747161">
        <ele>-8.417</ele>
        <time>2021-10-14T12:48:31Z</time>
      </trkpt>
      <trkpt lat="43.483930" lon="-5.747031">
        <ele>-8.608</ele>
        <time>2021-10-14T12:48:32Z</time>
      </trkpt>
      <trkpt lat="43.484128" lon="-5.746796">
        <ele>-8.340</ele>
        <time>2021-10-14T12:48:34Z</time>
      </trkpt>
      <trkpt lat="43.484291" lon="-5.746602">
        <ele>-7.438</ele>
        <time>2021-10-14T12:48:36Z</time>
      </trkpt>
      <trkpt lat="43.484349" lon="-5.746520">
        <ele>-7.146</ele>
        <time>2021-10-14T12:48:37Z</time>
      </trkpt>
      <trkpt lat="43.484394" lon="-5.746435">
        <ele>-6.773</ele>
        <time>2021-10-14T12:48:38Z</time>
      </trkpt>
      <trkpt lat="43.484456" lon="-5.746239">
        <ele>-5.266</ele>
        <time>2021-10-14T12:48:40Z</time>
      </trkpt>
      <trkpt lat="43.484505" lon="-5.746146">
        <ele>-4.943</ele>
        <time>2021-10-14T12:48:41Z</time>
      </trkpt>
      <trkpt lat="43.484578" lon="-5.746078">
        <ele>-6.895</ele>
        <time>2021-10-14T12:48:42Z</time>
      </trkpt>
      <trkpt lat="43.484785" lon="-5.745983">
        <ele>-5.284</ele>
        <time>2021-10-14T12:48:44Z</time>
      </trkpt>
      <trkpt lat="43.485006" lon="-5.745770">
        <ele>-5.535</ele>
        <time>2021-10-14T12:48:46Z</time>
      </trkpt>
      <trkpt lat="43.485121" lon="-5.745630">
        <ele>-6.686</ele>
        <time>2021-10-14T12:48:47Z</time>
      </trkpt>
      <trkpt lat="43.485342" lon="-5.745374">
        <ele>-6.414</ele>
        <time>2021-10-14T12:48:49Z</time>
      </trkpt>
      <trkpt lat="43.485450" lon="-5.745249">
        <ele>-6.008</ele>
        <time>2021-10-14T12:48:50Z</time>
      </trkpt>
      <trkpt lat="43.485631" lon="-5.745048">
        <ele>-7.051</ele>
        <time>2021-10-14T12:48:52Z</time>
      </trkpt>
      <trkpt lat="43.485831" lon="-5.744882">
        <ele>-7.129</ele>
        <time>2021-10-14T12:48:54Z</time>
      </trkpt>
      <trkpt lat="43.486056" lon="-5.744791">
        <ele>-8.327</ele>
        <time>2021-10-14T12:48:56Z</time>
      </trkpt>
      <trkpt lat="43.486306" lon="-5.744826">
        <ele>-8.324</ele>
        <time>2021-10-14T12:48:58Z</time>
      </trkpt>
      <trkpt lat="43.486439" lon="-5.744882">
        <ele>-7.917</ele>
        <time>2021-10-14T12:48:59Z</time>
      </trkpt>
      <trkpt lat="43.486564" lon="-5.744934">
        <ele>-7.654</ele>
        <time>2021-10-14T12:49:00Z</time>
      </trkpt>
      <trkpt lat="43.486683" lon="-5.744985">
        <ele>-7.956</ele>
        <time>2021-10-14T12:49:01Z</time>
      </trkpt>
      <trkpt lat="43.486901" lon="-5.745110">
        <ele>-9.555</ele>
        <time>2021-10-14T12:49:03Z</time>
      </trkpt>
      <trkpt lat="43.487004" lon="-5.745188">
        <ele>-10.054</ele>
        <time>2021-10-14T12:49:04Z</time>
      </trkpt>
      <trkpt lat="43.487216" lon="-5.745339">
        <ele>-11.456</ele>
        <time>2021-10-14T12:49:06Z</time>
      </trkpt>
      <trkpt lat="43.487444" lon="-5.745397">
        <ele>-13.311</ele>
        <time>2021-10-14T12:49:08Z</time>
      </trkpt>
      <trkpt lat="43.487681" lon="-5.745303">
        <ele>-14.608</ele>
        <time>2021-10-14T12:49:10Z</time>
      </trkpt>
      <trkpt lat="43.487798" lon="-5.745214">
        <ele>-15.033</ele>
        <time>2021-10-14T12:49:11Z</time>
      </trkpt>
      <trkpt lat="43.488046" lon="-5.745085">
        <ele>-17.381</ele>
        <time>2021-10-14T12:49:13Z</time>
      </trkpt>
      <trkpt lat="43.488193" lon="-5.745069">
        <ele>-16.539</ele>
        <time>2021-10-14T12:49:14Z</time>
      </trkpt>
      <trkpt lat="43.488481" lon="-5.745073">
        <ele>-17.176</ele>
        <time>2021-10-14T12:49:16Z</time>
      </trkpt>
      <trkpt lat="43.488613" lon="-5.745062">
        <ele>-19.829</ele>
        <time>2021-10-14T12:49:17Z</time>
      </trkpt>
      <trkpt lat="43.488852" lon="-5.744943">
        <ele>-18.636</ele>
        <time>2021-10-14T12:49:19Z</time>
      </trkpt>
      <trkpt lat="43.488962" lon="-5.744839">
        <ele>-19.078</ele>
        <time>2021-10-14T12:49:20Z</time>
      </trkpt>
      <trkpt lat="43.489167" lon="-5.744639">
        <ele>-20.097</ele>
        <time>2021-10-14T12:49:22Z</time>
      </trkpt>
      <trkpt lat="43.489366" lon="-5.744423">
        <ele>-20.699</ele>
        <time>2021-10-14T12:49:24Z</time>
      </trkpt>
      <trkpt lat="43.489554" lon="-5.744167">
        <ele>-21.307</ele>
        <time>2021-10-14T12:49:26Z</time>
      </trkpt>
      <trkpt lat="43.489745" lon="-5.743933">
        <ele>-21.127</ele>
        <time>2021-10-14T12:49:28Z</time>
      </trkpt>
      <trkpt lat="43.489853" lon="-5.743820">
        <ele>-20.308</ele>
        <time>2021-10-14T12:49:29Z</time>
      </trkpt>
      <trkpt lat="43.489972" lon="-5.743721">
        <ele>-21.597</ele>
        <time>2021-10-14T12:49:30Z</time>
      </trkpt>
      <trkpt lat="43.490239" lon="-5.743525">
        <ele>-21.125</ele>
        <time>2021-10-14T12:49:32Z</time>
      </trkpt>
      <trkpt lat="43.490382" lon="-5.743416">
        <ele>-22.093</ele>
        <time>2021-10-14T12:49:33Z</time>
      </trkpt>
      <trkpt lat="43.490673" lon="-5.743197">
        <ele>-24.040</ele>
        <time>2021-10-14T12:49:35Z</time>
      </trkpt>
      <trkpt lat="43.490940" lon="-5.742987">
        <ele>-23.633</ele>
        <time>2021-10-14T12:49:37Z</time>
      </trkpt>
      <trkpt lat="43.491064" lon="-5.742887">
        <ele>-25.330</ele>
        <time>2021-10-14T12:49:38Z</time>
      </trkpt>
      <trkpt lat="43.491300" lon="-5.742709">
        <ele>-25.672</ele>
        <time>2021-10-14T12:49:40Z</time>
      </trkpt>
      <trkpt lat="43.491553" lon="-5.742530">
        <ele>-26.511</ele>
        <time>2021-10-14T12:49:42Z</time>
      </trkpt>
      <trkpt lat="43.491690" lon="-5.742460">
        <ele>-25.975</ele>
        <time>2021-10-14T12:49:43Z</time>
      </trkpt>
      <trkpt lat="43.491832" lon="-5.742414">
        <ele>-27.428</ele>
        <time>2021-10-14T12:49:44Z</time>
      </trkpt>
      <trkpt lat="43.492087" lon="-5.742407">
        <ele>-26.820</ele>
        <time>2021-10-14T12:49:46Z</time>
      </trkpt>
      <trkpt lat="43.492334" lon="-5.742408">
        <ele>-29.908</ele>
        <time>2021-10-14T12:49:48Z</time>
      </trkpt>
      <trkpt lat="43.492549" lon="-5.742271">
        <ele>-31.415</ele>
        <time>2021-10-14T12:49:50Z</time>
      </trkpt>
      <trkpt lat="43.492724" lon="-5.742033">
        <ele>-31.643</ele>
        <time>2021-10-14T12:49:52Z</time>
      </trkpt>
      <trkpt lat="43.492826" lon="-5.741906">
        <ele>-31.321</ele>
        <time>2021-10-14T12:49:53Z</time>
      </trkpt>
      <trkpt lat="43.493046" lon="-5.741646">
        <ele>-33.998</ele>
        <time>2021-10-14T12:49:55Z</time>
      </trkpt>
      <trkpt lat="43.493160" lon="-5.741509">
        <ele>-33.441</ele>
        <time>2021-10-14T12:49:56Z</time>
      </trkpt>
      <trkpt lat="43.493380" lon="-5.741256">
        <ele>-33.188</ele>
        <time>2021-10-14T12:49:58Z</time>
      </trkpt>
      <trkpt lat="43.493497" lon="-5.741132">
        <ele>-34.270</ele>
        <time>2021-10-14T12:49:59Z</time>
      </trkpt>
      <trkpt lat="43.493613" lon="-5.741018">
        <ele>-32.539</ele>
        <time>2021-10-14T12:50:00Z</time>
      </trkpt>
      <trkpt lat="43.493725" lon="-5.740919">
        <ele>-32.224</ele>
        <time>2021-10-14T12:50:01Z</time>
      </trkpt>
      <trkpt lat="43.493839" lon="-5.740821">
        <ele>-31.304</ele>
        <time>2021-10-14T12:50:02Z</time>
      </trkpt>
      <trkpt lat="43.494040" lon="-5.740646">
        <ele>-30.714</ele>
        <time>2021-10-14T12:50:04Z</time>
      </trkpt>
      <trkpt lat="43.494142" lon="-5.740561">
        <ele>-30.308</ele>
        <time>2021-10-14T12:50:05Z</time>
      </trkpt>
      <trkpt lat="43.494353" lon="-5.740422">
        <ele>-30.830</ele>
        <time>2021-10-14T12:50:07Z</time>
      </trkpt>
      <trkpt lat="43.494468" lon="-5.740376">
        <ele>-30.328</ele>
        <time>2021-10-14T12:50:08Z</time>
      </trkpt>
      <trkpt lat="43.494702" lon="-5.740361">
        <ele>-32.036</ele>
        <time>2021-10-14T12:50:10Z</time>
      </trkpt>
      <trkpt lat="43.494826" lon="-5.740387">
        <ele>-32.743</ele>
        <time>2021-10-14T12:50:11Z</time>
      </trkpt>
      <trkpt lat="43.495085" lon="-5.740427">
        <ele>-31.676</ele>
        <time>2021-10-14T12:50:13Z</time>
      </trkpt>
      <trkpt lat="43.495217" lon="-5.740427">
        <ele>-34.753</ele>
        <time>2021-10-14T12:50:14Z</time>
      </trkpt>
      <trkpt lat="43.495456" lon="-5.740417">
        <ele>-34.955</ele>
        <time>2021-10-14T12:50:16Z</time>
      </trkpt>
      <trkpt lat="43.495571" lon="-5.740431">
        <ele>-33.964</ele>
        <time>2021-10-14T12:50:17Z</time>
      </trkpt>
      <trkpt lat="43.495787" lon="-5.740488">
        <ele>-36.078</ele>
        <time>2021-10-14T12:50:19Z</time>
      </trkpt>
      <trkpt lat="43.495904" lon="-5.740484">
        <ele>-36.533</ele>
        <time>2021-10-14T12:50:20Z</time>
      </trkpt>
      <trkpt lat="43.496129" lon="-5.740398">
        <ele>-36.926</ele>
        <time>2021-10-14T12:50:22Z</time>
      </trkpt>
      <trkpt lat="43.496234" lon="-5.740340">
        <ele>-37.708</ele>
        <time>2021-10-14T12:50:23Z</time>
      </trkpt>
      <trkpt lat="43.496411" lon="-5.740177">
        <ele>-39.665</ele>
        <time>2021-10-14T12:50:25Z</time>
      </trkpt>
      <trkpt lat="43.496479" lon="-5.740050">
        <ele>-39.413</ele>
        <time>2021-10-14T12:50:26Z</time>
      </trkpt>
      <trkpt lat="43.496576" lon="-5.739751">
        <ele>-40.531</ele>
        <time>2021-10-14T12:50:28Z</time>
      </trkpt>
      <trkpt lat="43.496623" lon="-5.739591">
        <ele>-40.638</ele>
        <time>2021-10-14T12:50:29Z</time>
      </trkpt>
      <trkpt lat="43.496743" lon="-5.739293">
        <ele>-42.071</ele>
        <time>2021-10-14T12:50:31Z</time>
      </trkpt>
      <trkpt lat="43.496829" lon="-5.739145">
        <ele>-42.528</ele>
        <time>2021-10-14T12:50:32Z</time>
      </trkpt>
      <trkpt lat="43.497019" lon="-5.738888">
        <ele>-45.020</ele>
        <time>2021-10-14T12:50:34Z</time>
      </trkpt>
      <trkpt lat="43.497180" lon="-5.738661">
        <ele>-45.979</ele>
        <time>2021-10-14T12:50:36Z</time>
      </trkpt>
      <trkpt lat="43.497309" lon="-5.738418">
        <ele>-46.948</ele>
        <time>2021-10-14T12:50:38Z</time>
      </trkpt>
      <trkpt lat="43.497411" lon="-5.738133">
        <ele>-47.561</ele>
        <time>2021-10-14T12:50:40Z</time>
      </trkpt>
      <trkpt lat="43.497459" lon="-5.737979">
        <ele>-47.617</ele>
        <time>2021-10-14T12:50:41Z</time>
      </trkpt>
      <trkpt lat="43.497503" lon="-5.737833">
        <ele>-48.408</ele>
        <time>2021-10-14T12:50:42Z</time>
      </trkpt>
      <trkpt lat="43.497586" lon="-5.737538">
        <ele>-48.782</ele>
        <time>2021-10-14T12:50:44Z</time>
      </trkpt>
      <trkpt lat="43.497694" lon="-5.737284">
        <ele>-47.690</ele>
        <time>2021-10-14T12:50:46Z</time>
      </trkpt>
      <trkpt lat="43.497854" lon="-5.737041">
        <ele>-49.148</ele>
        <time>2021-10-14T12:50:48Z</time>
      </trkpt>
      <trkpt lat="43.498047" lon="-5.736787">
        <ele>-48.245</ele>
        <time>2021-10-14T12:50:50Z</time>
      </trkpt>
      <trkpt lat="43.498255" lon="-5.736508">
        <ele>-47.518</ele>
        <time>2021-10-14T12:50:52Z</time>
      </trkpt>
      <trkpt lat="43.498370" lon="-5.736357">
        <ele>-48.085</ele>
        <time>2021-10-14T12:50:53Z</time>
      </trkpt>
      <trkpt lat="43.498597" lon="-5.736064">
        <ele>-47.217</ele>
        <time>2021-10-14T12:50:55Z</time>
      </trkpt>
      <trkpt lat="43.498704" lon="-5.735925">
        <ele>-48.416</ele>
        <time>2021-10-14T12:50:56Z</time>
      </trkpt>
      <trkpt lat="43.498903" lon="-5.735656">
        <ele>-49.667</ele>
        <time>2021-10-14T12:50:58Z</time>
      </trkpt>
      <trkpt lat="43.499011" lon="-5.735516">
        <ele>-50.281</ele>
        <time>2021-10-14T12:50:59Z</time>
      </trkpt>
      <trkpt lat="43.499250" lon="-5.735202">
        <ele>-49.619</ele>
        <time>2021-10-14T12:51:01Z</time>
      </trkpt>
      <trkpt lat="43.499365" lon="-5.735034">
        <ele>-48.508</ele>
        <time>2021-10-14T12:51:02Z</time>
      </trkpt>
      <trkpt lat="43.499551" lon="-5.734698">
        <ele>-49.164</ele>
        <time>2021-10-14T12:51:04Z</time>
      </trkpt>
      <trkpt lat="43.499636" lon="-5.734516">
        <ele>-49.642</ele>
        <time>2021-10-14T12:51:05Z</time>
      </trkpt>
      <trkpt lat="43.499768" lon="-5.734146">
        <ele>-50.710</ele>
        <time>2021-10-14T12:51:07Z</time>
      </trkpt>
      <trkpt lat="43.499810" lon="-5.733954">
        <ele>-51.157</ele>
        <time>2021-10-14T12:51:08Z</time>
      </trkpt>
      <trkpt lat="43.499833" lon="-5.733595">
        <ele>-50.550</ele>
        <time>2021-10-14T12:51:10Z</time>
      </trkpt>
      <trkpt lat="43.499841" lon="-5.733415">
        <ele>-50.567</ele>
        <time>2021-10-14T12:51:11Z</time>
      </trkpt>
      <trkpt lat="43.499919" lon="-5.733051">
        <ele>-51.139</ele>
        <time>2021-10-14T12:51:13Z</time>
      </trkpt>
      <trkpt lat="43.499987" lon="-5.732860">
        <ele>-49.648</ele>
        <time>2021-10-14T12:51:14Z</time>
      </trkpt>
      <trkpt lat="43.500099" lon="-5.732477">
        <ele>-51.757</ele>
        <time>2021-10-14T12:51:16Z</time>
      </trkpt>
      <trkpt lat="43.500166" lon="-5.732086">
        <ele>-52.000</ele>
        <time>2021-10-14T12:51:18Z</time>
      </trkpt>
      <trkpt lat="43.500192" lon="-5.731897">
        <ele>-52.220</ele>
        <time>2021-10-14T12:51:19Z</time>
      </trkpt>
      <trkpt lat="43.500217" lon="-5.731724">
        <ele>-51.008</ele>
        <time>2021-10-14T12:51:20Z</time>
      </trkpt>
      <trkpt lat="43.500282" lon="-5.731435">
        <ele>-51.023</ele>
        <time>2021-10-14T12:51:22Z</time>
      </trkpt>
      <trkpt lat="43.500349" lon="-5.731319">
        <ele>-50.051</ele>
        <time>2021-10-14T12:51:23Z</time>
      </trkpt>
      <trkpt lat="43.500567" lon="-5.731193">
        <ele>-51.919</ele>
        <time>2021-10-14T12:51:25Z</time>
      </trkpt>
      <trkpt lat="43.500710" lon="-5.731174">
        <ele>-52.856</ele>
        <time>2021-10-14T12:51:26Z</time>
      </trkpt>
      <trkpt lat="43.500987" lon="-5.731161">
        <ele>-52.959</ele>
        <time>2021-10-14T12:51:28Z</time>
      </trkpt>
      <trkpt lat="43.501102" lon="-5.731138">
        <ele>-53.096</ele>
        <time>2021-10-14T12:51:29Z</time>
      </trkpt>
      <trkpt lat="43.501312" lon="-5.731062">
        <ele>-53.388</ele>
        <time>2021-10-14T12:51:31Z</time>
      </trkpt>
      <trkpt lat="43.501424" lon="-5.731005">
        <ele>-54.557</ele>
        <time>2021-10-14T12:51:32Z</time>
      </trkpt>
      <trkpt lat="43.501647" lon="-5.730877">
        <ele>-54.388</ele>
        <time>2021-10-14T12:51:34Z</time>
      </trkpt>
      <trkpt lat="43.501872" lon="-5.730747">
        <ele>-56.024</ele>
        <time>2021-10-14T12:51:36Z</time>
      </trkpt>
      <trkpt lat="43.502099" lon="-5.730617">
        <ele>-55.926</ele>
        <time>2021-10-14T12:51:38Z</time>
      </trkpt>
      <trkpt lat="43.502335" lon="-5.730458">
        <ele>-56.608</ele>
        <time>2021-10-14T12:51:40Z</time>
      </trkpt>
      <trkpt lat="43.502559" lon="-5.730222">
        <ele>-57.746</ele>
        <time>2021-10-14T12:51:42Z</time>
      </trkpt>
      <trkpt lat="43.502658" lon="-5.730082">
        <ele>-58.074</ele>
        <time>2021-10-14T12:51:43Z</time>
      </trkpt>
      <trkpt lat="43.502751" lon="-5.729946">
        <ele>-57.912</ele>
        <time>2021-10-14T12:51:44Z</time>
      </trkpt>
      <trkpt lat="43.502915" lon="-5.729710">
        <ele>-59.959</ele>
        <time>2021-10-14T12:51:46Z</time>
      </trkpt>
      <trkpt lat="43.502997" lon="-5.729604">
        <ele>-59.522</ele>
        <time>2021-10-14T12:51:47Z</time>
      </trkpt>
      <trkpt lat="43.503176" lon="-5.729419">
        <ele>-59.329</ele>
        <time>2021-10-14T12:51:49Z</time>
      </trkpt>
      <trkpt lat="43.503263" lon="-5.729334">
        <ele>-61.411</ele>
        <time>2021-10-14T12:51:50Z</time>
      </trkpt>
      <trkpt lat="43.503403" lon="-5.729135">
        <ele>-61.830</ele>
        <time>2021-10-14T12:51:52Z</time>
      </trkpt>
      <trkpt lat="43.503452" lon="-5.729003">
        <ele>-61.634</ele>
        <time>2021-10-14T12:51:53Z</time>
      </trkpt>
      <trkpt lat="43.503479" lon="-5.728853">
        <ele>-62.155</ele>
        <time>2021-10-14T12:51:54Z</time>
      </trkpt>
      <trkpt lat="43.503511" lon="-5.728516">
        <ele>-61.110</ele>
        <time>2021-10-14T12:51:56Z</time>
      </trkpt>
      <trkpt lat="43.503566" lon="-5.728219">
        <ele>-60.908</ele>
        <time>2021-10-14T12:51:58Z</time>
      </trkpt>
      <trkpt lat="43.503694" lon="-5.728003">
        <ele>-60.711</ele>
        <time>2021-10-14T12:52:00Z</time>
      </trkpt>
      <trkpt lat="43.503795" lon="-5.727936">
        <ele>-61.669</ele>
        <time>2021-10-14T12:52:01Z</time>
      </trkpt>
      <trkpt lat="43.503926" lon="-5.727889">
        <ele>-60.017</ele>
        <time>2021-10-14T12:52:02Z</time>
      </trkpt>
      <trkpt lat="43.504226" lon="-5.727829">
        <ele>-59.834</ele>
        <time>2021-10-14T12:52:04Z</time>
      </trkpt>
      <trkpt lat="43.504590" lon="-5.727783">
        <ele>-59.857</ele>
        <time>2021-10-14T12:52:06Z</time>
      </trkpt>
      <trkpt lat="43.504993" lon="-5.727736">
        <ele>-60.464</ele>
        <time>2021-10-14T12:52:08Z</time>
      </trkpt>
      <trkpt lat="43.505381" lon="-5.727697">
        <ele>-60.076</ele>
        <time>2021-10-14T12:52:10Z</time>
      </trkpt>
      <trkpt lat="43.505578" lon="-5.727671">
        <ele>-59.355</ele>
        <time>2021-10-14T12:52:11Z</time>
      </trkpt>
      <trkpt lat="43.505768" lon="-5.727641">
        <ele>-59.227</ele>
        <time>2021-10-14T12:52:12Z</time>
      </trkpt>
      <trkpt lat="43.505962" lon="-5.727607">
        <ele>-60.568</ele>
        <time>2021-10-14T12:52:13Z</time>
      </trkpt>
      <trkpt lat="43.506164" lon="-5.727554">
        <ele>-59.014</ele>
        <time>2021-10-14T12:52:14Z</time>
      </trkpt>
      <trkpt lat="43.506562" lon="-5.727369">
        <ele>-59.508</ele>
        <time>2021-10-14T12:52:16Z</time>
      </trkpt>
      <trkpt lat="43.506768" lon="-5.727237">
        <ele>-59.680</ele>
        <time>2021-10-14T12:52:17Z</time>
      </trkpt>
      <trkpt lat="43.506974" lon="-5.727097">
        <ele>-59.628</ele>
        <time>2021-10-14T12:52:18Z</time>
      </trkpt>
      <trkpt lat="43.507387" lon="-5.726812">
        <ele>-60.586</ele>
        <time>2021-10-14T12:52:20Z</time>
      </trkpt>
      <trkpt lat="43.507798" lon="-5.726525">
        <ele>-63.073</ele>
        <time>2021-10-14T12:52:22Z</time>
      </trkpt>
      <trkpt lat="43.508012" lon="-5.726379">
        <ele>-63.276</ele>
        <time>2021-10-14T12:52:23Z</time>
      </trkpt>
      <trkpt lat="43.508232" lon="-5.726244">
        <ele>-64.033</ele>
        <time>2021-10-14T12:52:24Z</time>
      </trkpt>
      <trkpt lat="43.508692" lon="-5.726014">
        <ele>-65.875</ele>
        <time>2021-10-14T12:52:26Z</time>
      </trkpt>
      <trkpt lat="43.509132" lon="-5.725844">
        <ele>-67.724</ele>
        <time>2021-10-14T12:52:28Z</time>
      </trkpt>
      <trkpt lat="43.509341" lon="-5.725766">
        <ele>-68.365</ele>
        <time>2021-10-14T12:52:29Z</time>
      </trkpt>
      <trkpt lat="43.509743" lon="-5.725620">
        <ele>-69.968</ele>
        <time>2021-10-14T12:52:31Z</time>
      </trkpt>
      <trkpt lat="43.509951" lon="-5.725546">
        <ele>-70.714</ele>
        <time>2021-10-14T12:52:32Z</time>
      </trkpt>
      <trkpt lat="43.510354" lon="-5.725393">
        <ele>-71.008</ele>
        <time>2021-10-14T12:52:34Z</time>
      </trkpt>
      <trkpt lat="43.510779" lon="-5.725227">
        <ele>-71.274</ele>
        <time>2021-10-14T12:52:36Z</time>
      </trkpt>
      <trkpt lat="43.510995" lon="-5.725139">
        <ele>-71.492</ele>
        <time>2021-10-14T12:52:37Z</time>
      </trkpt>
      <trkpt lat="43.511214" lon="-5.725049">
        <ele>-71.210</ele>
        <time>2021-10-14T12:52:38Z</time>
      </trkpt>
      <trkpt lat="43.511633" lon="-5.724880">
        <ele>-70.897</ele>
        <time>2021-10-14T12:52:40Z</time>
      </trkpt>
      <trkpt lat="43.511833" lon="-5.724798">
        <ele>-71.290</ele>
        <time>2021-10-14T12:52:41Z</time>
      </trkpt>
      <trkpt lat="43.512199" lon="-5.724651">
        <ele>-70.767</ele>
        <time>2021-10-14T12:52:43Z</time>
      </trkpt>
      <trkpt lat="43.512378" lon="-5.724578">
        <ele>-71.379</ele>
        <time>2021-10-14T12:52:44Z</time>
      </trkpt>
      <trkpt lat="43.512719" lon="-5.724442">
        <ele>-69.788</ele>
        <time>2021-10-14T12:52:46Z</time>
      </trkpt>
      <trkpt lat="43.512893" lon="-5.724376">
        <ele>-70.477</ele>
        <time>2021-10-14T12:52:47Z</time>
      </trkpt>
      <trkpt lat="43.513068" lon="-5.724311">
        <ele>-70.761</ele>
        <time>2021-10-14T12:52:48Z</time>
      </trkpt>
      <trkpt lat="43.513248" lon="-5.724247">
        <ele>-70.827</ele>
        <time>2021-10-14T12:52:49Z</time>
      </trkpt>
      <trkpt lat="43.513431" lon="-5.724180">
        <ele>-70.308</ele>
        <time>2021-10-14T12:52:50Z</time>
      </trkpt>
      <trkpt lat="43.513776" lon="-5.724043">
        <ele>-71.545</ele>
        <time>2021-10-14T12:52:52Z</time>
      </trkpt>
      <trkpt lat="43.514134" lon="-5.723940">
        <ele>-71.223</ele>
        <time>2021-10-14T12:52:54Z</time>
      </trkpt>
      <trkpt lat="43.514321" lon="-5.723904">
        <ele>-70.491</ele>
        <time>2021-10-14T12:52:55Z</time>
      </trkpt>
      <trkpt lat="43.514518" lon="-5.723868">
        <ele>-69.548</ele>
        <time>2021-10-14T12:52:56Z</time>
      </trkpt>
      <trkpt lat="43.514907" lon="-5.723793">
        <ele>-68.771</ele>
        <time>2021-10-14T12:52:58Z</time>
      </trkpt>
      <trkpt lat="43.515320" lon="-5.723774">
        <ele>-68.868</ele>
        <time>2021-10-14T12:53:00Z</time>
      </trkpt>
      <trkpt lat="43.515743" lon="-5.723908">
        <ele>-68.720</ele>
        <time>2021-10-14T12:53:02Z</time>
      </trkpt>
      <trkpt lat="43.516129" lon="-5.724113">
        <ele>-67.279</ele>
        <time>2021-10-14T12:53:04Z</time>
      </trkpt>
      <trkpt lat="43.516315" lon="-5.724211">
        <ele>-67.294</ele>
        <time>2021-10-14T12:53:05Z</time>
      </trkpt>
      <trkpt lat="43.516660" lon="-5.724369">
        <ele>-67.857</ele>
        <time>2021-10-14T12:53:07Z</time>
      </trkpt>
      <trkpt lat="43.516835" lon="-5.724413">
        <ele>-67.422</ele>
        <time>2021-10-14T12:53:08Z</time>
      </trkpt>
      <trkpt lat="43.517154" lon="-5.724403">
        <ele>-67.708</ele>
        <time>2021-10-14T12:53:10Z</time>
      </trkpt>
      <trkpt lat="43.517298" lon="-5.724319">
        <ele>-66.227</ele>
        <time>2021-10-14T12:53:11Z</time>
      </trkpt>
      <trkpt lat="43.517497" lon="-5.723956">
        <ele>-65.285</ele>
        <time>2021-10-14T12:53:13Z</time>
      </trkpt>
      <trkpt lat="43.517558" lon="-5.723737">
        <ele>-64.783</ele>
        <time>2021-10-14T12:53:14Z</time>
      </trkpt>
      <trkpt lat="43.517633" lon="-5.723389">
        <ele>-64.470</ele>
        <time>2021-10-14T12:53:16Z</time>
      </trkpt>
      <trkpt lat="43.517697" lon="-5.723105">
        <ele>-63.163</ele>
        <time>2021-10-14T12:53:18Z</time>
      </trkpt>
      <trkpt lat="43.517788" lon="-5.722828">
        <ele>-61.390</ele>
        <time>2021-10-14T12:53:20Z</time>
      </trkpt>
      <trkpt lat="43.517902" lon="-5.722505">
        <ele>-59.912</ele>
        <time>2021-10-14T12:53:22Z</time>
      </trkpt>
      <trkpt lat="43.518030" lon="-5.722169">
        <ele>-57.761</ele>
        <time>2021-10-14T12:53:24Z</time>
      </trkpt>
      <trkpt lat="43.518101" lon="-5.721990">
        <ele>-57.573</ele>
        <time>2021-10-14T12:53:25Z</time>
      </trkpt>
      <trkpt lat="43.518174" lon="-5.721795">
        <ele>-56.785</ele>
        <time>2021-10-14T12:53:26Z</time>
      </trkpt>
      <trkpt lat="43.518314" lon="-5.721388">
        <ele>-51.813</ele>
        <time>2021-10-14T12:53:28Z</time>
      </trkpt>
      <trkpt lat="43.518391" lon="-5.721162">
        <ele>-51.908</ele>
        <time>2021-10-14T12:53:29Z</time>
      </trkpt>
      <trkpt lat="43.518469" lon="-5.720942">
        <ele>-51.125</ele>
        <time>2021-10-14T12:53:30Z</time>
      </trkpt>
      <trkpt lat="43.518626" lon="-5.720492">
        <ele>-48.093</ele>
        <time>2021-10-14T12:53:32Z</time>
      </trkpt>
      <trkpt lat="43.518761" lon="-5.720060">
        <ele>-48.671</ele>
        <time>2021-10-14T12:53:34Z</time>
      </trkpt>
      <trkpt lat="43.518826" lon="-5.719850">
        <ele>-46.148</ele>
        <time>2021-10-14T12:53:35Z</time>
      </trkpt>
      <trkpt lat="43.518956" lon="-5.719429">
        <ele>-46.521</ele>
        <time>2021-10-14T12:53:37Z</time>
      </trkpt>
      <trkpt lat="43.519020" lon="-5.719209">
        <ele>-44.748</ele>
        <time>2021-10-14T12:53:38Z</time>
      </trkpt>
      <trkpt lat="43.519133" lon="-5.718787">
        <ele>-43.040</ele>
        <time>2021-10-14T12:53:40Z</time>
      </trkpt>
      <trkpt lat="43.519233" lon="-5.718346">
        <ele>-43.139</ele>
        <time>2021-10-14T12:53:42Z</time>
      </trkpt>
      <trkpt lat="43.519318" lon="-5.717869">
        <ele>-42.474</ele>
        <time>2021-10-14T12:53:44Z</time>
      </trkpt>
      <trkpt lat="43.519390" lon="-5.717375">
        <ele>-41.756</ele>
        <time>2021-10-14T12:53:46Z</time>
      </trkpt>
      <trkpt lat="43.519423" lon="-5.717118">
        <ele>-39.221</ele>
        <time>2021-10-14T12:53:47Z</time>
      </trkpt>
      <trkpt lat="43.519452" lon="-5.716860">
        <ele>-40.508</ele>
        <time>2021-10-14T12:53:48Z</time>
      </trkpt>
      <trkpt lat="43.519494" lon="-5.716384">
        <ele>-36.755</ele>
        <time>2021-10-14T12:53:50Z</time>
      </trkpt>
      <trkpt lat="43.519522" lon="-5.715997">
        <ele>-36.943</ele>
        <time>2021-10-14T12:53:52Z</time>
      </trkpt>
      <trkpt lat="43.519534" lon="-5.715816">
        <ele>-35.581</ele>
        <time>2021-10-14T12:53:53Z</time>
      </trkpt>
      <trkpt lat="43.519565" lon="-5.715482">
        <ele>-35.288</ele>
        <time>2021-10-14T12:53:55Z</time>
      </trkpt>
      <trkpt lat="43.519600" lon="-5.715329">
        <ele>-35.061</ele>
        <time>2021-10-14T12:53:56Z</time>
      </trkpt>
      <trkpt lat="43.519751" lon="-5.715096">
        <ele>-33.268</ele>
        <time>2021-10-14T12:53:58Z</time>
      </trkpt>
      <trkpt lat="43.519867" lon="-5.715036">
        <ele>-31.520</ele>
        <time>2021-10-14T12:53:59Z</time>
      </trkpt>
      <trkpt lat="43.520142" lon="-5.715020">
        <ele>-29.439</ele>
        <time>2021-10-14T12:54:01Z</time>
      </trkpt>
      <trkpt lat="43.520436" lon="-5.715121">
        <ele>-26.521</ele>
        <time>2021-10-14T12:54:03Z</time>
      </trkpt>
      <trkpt lat="43.520571" lon="-5.715198">
        <ele>-26.341</ele>
        <time>2021-10-14T12:54:04Z</time>
      </trkpt>
      <trkpt lat="43.520825" lon="-5.715329">
        <ele>-23.805</ele>
        <time>2021-10-14T12:54:06Z</time>
      </trkpt>
      <trkpt lat="43.520952" lon="-5.715361">
        <ele>-25.508</ele>
        <time>2021-10-14T12:54:07Z</time>
      </trkpt>
      <trkpt lat="43.521090" lon="-5.715368">
        <ele>-25.540</ele>
        <time>2021-10-14T12:54:08Z</time>
      </trkpt>
      <trkpt lat="43.521375" lon="-5.715315">
        <ele>-24.898</ele>
        <time>2021-10-14T12:54:10Z</time>
      </trkpt>
      <trkpt lat="43.521652" lon="-5.715254">
        <ele>-26.246</ele>
        <time>2021-10-14T12:54:12Z</time>
      </trkpt>
      <trkpt lat="43.521778" lon="-5.715234">
        <ele>-25.773</ele>
        <time>2021-10-14T12:54:13Z</time>
      </trkpt>
      <trkpt lat="43.521896" lon="-5.715217">
        <ele>-25.916</ele>
        <time>2021-10-14T12:54:14Z</time>
      </trkpt>
      <trkpt lat="43.522076" lon="-5.715194">
        <ele>-27.873</ele>
        <time>2021-10-14T12:54:16Z</time>
      </trkpt>
      <trkpt lat="43.522155" lon="-5.715184">
        <ele>-27.565</ele>
        <time>2021-10-14T12:54:17Z</time>
      </trkpt>
      <trkpt lat="43.522295" lon="-5.715150">
        <ele>-28.724</ele>
        <time>2021-10-14T12:54:19Z</time>
      </trkpt>
      <trkpt lat="43.522364" lon="-5.715103">
        <ele>-27.821</ele>
        <time>2021-10-14T12:54:20Z</time>
      </trkpt>
      <trkpt lat="43.522481" lon="-5.714925">
        <ele>-29.141</ele>
        <time>2021-10-14T12:54:22Z</time>
      </trkpt>
      <trkpt lat="43.522549" lon="-5.714846">
        <ele>-27.905</ele>
        <time>2021-10-14T12:54:23Z</time>
      </trkpt>
      <trkpt lat="43.522631" lon="-5.714798">
        <ele>-28.308</ele>
        <time>2021-10-14T12:54:24Z</time>
      </trkpt>
      <trkpt lat="43.522806" lon="-5.714824">
        <ele>-29.220</ele>
        <time>2021-10-14T12:54:26Z</time>
      </trkpt>
      <trkpt lat="43.522890" lon="-5.714889">
        <ele>-29.248</ele>
        <time>2021-10-14T12:54:27Z</time>
      </trkpt>
      <trkpt lat="43.523050" lon="-5.715004">
        <ele>-30.066</ele>
        <time>2021-10-14T12:54:29Z</time>
      </trkpt>
      <trkpt lat="43.523138" lon="-5.715033">
        <ele>-31.933</ele>
        <time>2021-10-14T12:54:30Z</time>
      </trkpt>
      <trkpt lat="43.523343" lon="-5.715024">
        <ele>-30.116</ele>
        <time>2021-10-14T12:54:32Z</time>
      </trkpt>
      <trkpt lat="43.523577" lon="-5.714987">
        <ele>-31.393</ele>
        <time>2021-10-14T12:54:34Z</time>
      </trkpt>
      <trkpt lat="43.523832" lon="-5.714947">
        <ele>-29.195</ele>
        <time>2021-10-14T12:54:36Z</time>
      </trkpt>
      <trkpt lat="43.523963" lon="-5.714922">
        <ele>-29.524</ele>
        <time>2021-10-14T12:54:37Z</time>
      </trkpt>
      <trkpt lat="43.524093" lon="-5.714902">
        <ele>-29.254</ele>
        <time>2021-10-14T12:54:38Z</time>
      </trkpt>
      <trkpt lat="43.524329" lon="-5.714839">
        <ele>-30.556</ele>
        <time>2021-10-14T12:54:40Z</time>
      </trkpt>
      <trkpt lat="43.524440" lon="-5.714773">
        <ele>-31.311</ele>
        <time>2021-10-14T12:54:41Z</time>
      </trkpt>
      <trkpt lat="43.524641" lon="-5.714587">
        <ele>-32.908</ele>
        <time>2021-10-14T12:54:43Z</time>
      </trkpt>
      <trkpt lat="43.524728" lon="-5.714467">
        <ele>-34.993</ele>
        <time>2021-10-14T12:54:44Z</time>
      </trkpt>
      <trkpt lat="43.524853" lon="-5.714201">
        <ele>-35.931</ele>
        <time>2021-10-14T12:54:46Z</time>
      </trkpt>
      <trkpt lat="43.524897" lon="-5.714057">
        <ele>-36.949</ele>
        <time>2021-10-14T12:54:47Z</time>
      </trkpt>
      <trkpt lat="43.524944" lon="-5.713760">
        <ele>-39.096</ele>
        <time>2021-10-14T12:54:49Z</time>
      </trkpt>
      <trkpt lat="43.524950" lon="-5.713594">
        <ele>-38.959</ele>
        <time>2021-10-14T12:54:50Z</time>
      </trkpt>
      <trkpt lat="43.524966" lon="-5.713239">
        <ele>-38.576</ele>
        <time>2021-10-14T12:54:52Z</time>
      </trkpt>
      <trkpt lat="43.524972" lon="-5.712898">
        <ele>-39.088</ele>
        <time>2021-10-14T12:54:54Z</time>
      </trkpt>
      <trkpt lat="43.524978" lon="-5.712740">
        <ele>-40.077</ele>
        <time>2021-10-14T12:54:55Z</time>
      </trkpt>
      <trkpt lat="43.524983" lon="-5.712592">
        <ele>-39.915</ele>
        <time>2021-10-14T12:54:56Z</time>
      </trkpt>
      <trkpt lat="43.524996" lon="-5.712336">
        <ele>-37.965</ele>
        <time>2021-10-14T12:54:58Z</time>
      </trkpt>
      <trkpt lat="43.525004" lon="-5.712211">
        <ele>-37.711</ele>
        <time>2021-10-14T12:54:59Z</time>
      </trkpt>
      <trkpt lat="43.525019" lon="-5.711987">
        <ele>-36.908</ele>
        <time>2021-10-14T12:55:01Z</time>
      </trkpt>
      <trkpt lat="43.525027" lon="-5.711887">
        <ele>-38.059</ele>
        <time>2021-10-14T12:55:02Z</time>
      </trkpt>
      <trkpt lat="43.525039" lon="-5.711740">
        <ele>-35.547</ele>
        <time>2021-10-14T12:55:04Z</time>
      </trkpt>
      <trkpt lat="43.525041" lon="-5.711667">
        <ele>-35.915</ele>
        <time>2021-10-14T12:55:06Z</time>
      </trkpt>
      <trkpt lat="43.525041" lon="-5.711591">
        <ele>-17.662</ele>
        <time>2021-10-14T12:55:28Z</time>
      </trkpt>
      <trkpt lat="43.525049" lon="-5.711409">
        <ele>14.495</ele>
        <time>2021-10-14T12:55:30Z</time>
      </trkpt>
      <trkpt lat="43.525055" lon="-5.711311">
        <ele>14.482</ele>
        <time>2021-10-14T12:55:31Z</time>
      </trkpt>
      <trkpt lat="43.525064" lon="-5.711223">
        <ele>14.414</ele>
        <time>2021-10-14T12:55:32Z</time>
      </trkpt>
      <trkpt lat="43.525077" lon="-5.711017">
        <ele>14.313</ele>
        <time>2021-10-14T12:55:34Z</time>
      </trkpt>
      <trkpt lat="43.525098" lon="-5.710802">
        <ele>14.335</ele>
        <time>2021-10-14T12:55:36Z</time>
      </trkpt>
      <trkpt lat="43.525128" lon="-5.710563">
        <ele>14.386</ele>
        <time>2021-10-14T12:55:38Z</time>
      </trkpt>
      <trkpt lat="43.525191" lon="-5.710331">
        <ele>14.314</ele>
        <time>2021-10-14T12:55:40Z</time>
      </trkpt>
      <trkpt lat="43.525293" lon="-5.710110">
        <ele>14.308</ele>
        <time>2021-10-14T12:55:42Z</time>
      </trkpt>
      <trkpt lat="43.525348" lon="-5.710001">
        <ele>14.341</ele>
        <time>2021-10-14T12:55:43Z</time>
      </trkpt>
      <trkpt lat="43.525404" lon="-5.709894">
        <ele>14.329</ele>
        <time>2021-10-14T12:55:44Z</time>
      </trkpt>
      <trkpt lat="43.525503" lon="-5.709710">
        <ele>14.357</ele>
        <time>2021-10-14T12:55:46Z</time>
      </trkpt>
      <trkpt lat="43.525549" lon="-5.709625">
        <ele>14.334</ele>
        <time>2021-10-14T12:55:47Z</time>
      </trkpt>
      <trkpt lat="43.525595" lon="-5.709543">
        <ele>14.397</ele>
        <time>2021-10-14T12:55:48Z</time>
      </trkpt>
      <trkpt lat="43.525701" lon="-5.709357">
        <ele>14.364</ele>
        <time>2021-10-14T12:55:50Z</time>
      </trkpt>
      <trkpt lat="43.525808" lon="-5.709163">
        <ele>14.356</ele>
        <time>2021-10-14T12:55:52Z</time>
      </trkpt>
      <trkpt lat="43.525896" lon="-5.709000">
        <ele>14.375</ele>
        <time>2021-10-14T12:55:54Z</time>
      </trkpt>
      <trkpt lat="43.525932" lon="-5.708931">
        <ele>14.345</ele>
        <time>2021-10-14T12:55:55Z</time>
      </trkpt>
      <trkpt lat="43.525977" lon="-5.708852">
        <ele>14.347</ele>
        <time>2021-10-14T12:55:56Z</time>
      </trkpt>
      <trkpt lat="43.526083" lon="-5.708647">
        <ele>14.211</ele>
        <time>2021-10-14T12:55:58Z</time>
      </trkpt>
      <trkpt lat="43.526212" lon="-5.708400">
        <ele>14.208</ele>
        <time>2021-10-14T12:56:00Z</time>
      </trkpt>
      <trkpt lat="43.526331" lon="-5.708175">
        <ele>14.392</ele>
        <time>2021-10-14T12:56:02Z</time>
      </trkpt>
      <trkpt lat="43.526439" lon="-5.707966">
        <ele>14.330</ele>
        <time>2021-10-14T12:56:04Z</time>
      </trkpt>
      <trkpt lat="43.526544" lon="-5.707763">
        <ele>14.358</ele>
        <time>2021-10-14T12:56:06Z</time>
      </trkpt>
      <trkpt lat="43.526594" lon="-5.707670">
        <ele>14.345</ele>
        <time>2021-10-14T12:56:07Z</time>
      </trkpt>
      <trkpt lat="43.526647" lon="-5.707578">
        <ele>14.348</ele>
        <time>2021-10-14T12:56:08Z</time>
      </trkpt>
      <trkpt lat="43.526772" lon="-5.707369">
        <ele>14.365</ele>
        <time>2021-10-14T12:56:10Z</time>
      </trkpt>
      <trkpt lat="43.526905" lon="-5.707148">
        <ele>14.377</ele>
        <time>2021-10-14T12:56:12Z</time>
      </trkpt>
      <trkpt lat="43.526965" lon="-5.707051">
        <ele>14.316</ele>
        <time>2021-10-14T12:56:13Z</time>
      </trkpt>
      <trkpt lat="43.527024" lon="-5.706960">
        <ele>14.347</ele>
        <time>2021-10-14T12:56:14Z</time>
      </trkpt>
      <trkpt lat="43.527135" lon="-5.706796">
        <ele>14.329</ele>
        <time>2021-10-14T12:56:16Z</time>
      </trkpt>
      <trkpt lat="43.527194" lon="-5.706707">
        <ele>14.321</ele>
        <time>2021-10-14T12:56:17Z</time>
      </trkpt>
      <trkpt lat="43.527319" lon="-5.706506">
        <ele>14.308</ele>
        <time>2021-10-14T12:56:19Z</time>
      </trkpt>
      <trkpt lat="43.527391" lon="-5.706386">
        <ele>14.332</ele>
        <time>2021-10-14T12:56:20Z</time>
      </trkpt>
      <trkpt lat="43.527536" lon="-5.706141">
        <ele>14.380</ele>
        <time>2021-10-14T12:56:22Z</time>
      </trkpt>
      <trkpt lat="43.527606" lon="-5.706024">
        <ele>14.378</ele>
        <time>2021-10-14T12:56:23Z</time>
      </trkpt>
      <trkpt lat="43.527734" lon="-5.705809">
        <ele>14.335</ele>
        <time>2021-10-14T12:56:25Z</time>
      </trkpt>
      <trkpt lat="43.527797" lon="-5.705700">
        <ele>14.378</ele>
        <time>2021-10-14T12:56:26Z</time>
      </trkpt>
      <trkpt lat="43.527918" lon="-5.705479">
        <ele>-52.755</ele>
        <time>2021-10-14T12:56:28Z</time>
      </trkpt>
      <trkpt lat="43.528030" lon="-5.705281">
        <ele>-57.037</ele>
        <time>2021-10-14T12:56:30Z</time>
      </trkpt>
      <trkpt lat="43.528083" lon="-5.705190">
        <ele>-57.756</ele>
        <time>2021-10-14T12:56:31Z</time>
      </trkpt>
      <trkpt lat="43.528189" lon="-5.705007">
        <ele>-58.015</ele>
        <time>2021-10-14T12:56:33Z</time>
      </trkpt>
      <trkpt lat="43.528304" lon="-5.704808">
        <ele>-60.065</ele>
        <time>2021-10-14T12:56:35Z</time>
      </trkpt>
      <trkpt lat="43.528413" lon="-5.704606">
        <ele>-59.211</ele>
        <time>2021-10-14T12:56:37Z</time>
      </trkpt>
      <trkpt lat="43.528464" lon="-5.704515">
        <ele>-58.608</ele>
        <time>2021-10-14T12:56:38Z</time>
      </trkpt>
      <trkpt lat="43.528543" lon="-5.704374">
        <ele>-60.389</ele>
        <time>2021-10-14T12:56:40Z</time>
      </trkpt>
      <trkpt lat="43.528594" lon="-5.704286">
        <ele>-58.767</ele>
        <time>2021-10-14T12:56:42Z</time>
      </trkpt>
      <trkpt lat="43.528638" lon="-5.704194">
        <ele>-58.045</ele>
        <time>2021-10-14T12:56:44Z</time>
      </trkpt>
      <trkpt lat="43.528690" lon="-5.704094">
        <ele>-58.532</ele>
        <time>2021-10-14T12:56:46Z</time>
      </trkpt>
      <trkpt lat="43.528718" lon="-5.704032">
        <ele>-58.535</ele>
        <time>2021-10-14T12:56:47Z</time>
      </trkpt>
      <trkpt lat="43.528772" lon="-5.703913">
        <ele>-58.422</ele>
        <time>2021-10-14T12:56:49Z</time>
      </trkpt>
      <trkpt lat="43.528796" lon="-5.703848">
        <ele>-58.274</ele>
        <time>2021-10-14T12:56:50Z</time>
      </trkpt>
      <trkpt lat="43.528841" lon="-5.703696">
        <ele>-57.773</ele>
        <time>2021-10-14T12:56:52Z</time>
      </trkpt>
      <trkpt lat="43.528865" lon="-5.703608">
        <ele>-56.549</ele>
        <time>2021-10-14T12:56:53Z</time>
      </trkpt>
      <trkpt lat="43.528919" lon="-5.703411">
        <ele>-56.002</ele>
        <time>2021-10-14T12:56:55Z</time>
      </trkpt>
      <trkpt lat="43.528945" lon="-5.703304">
        <ele>-57.022</ele>
        <time>2021-10-14T12:56:56Z</time>
      </trkpt>
      <trkpt lat="43.528998" lon="-5.703090">
        <ele>-57.308</ele>
        <time>2021-10-14T12:56:58Z</time>
      </trkpt>
      <trkpt lat="43.529026" lon="-5.702975">
        <ele>-56.442</ele>
        <time>2021-10-14T12:56:59Z</time>
      </trkpt>
      <trkpt lat="43.529091" lon="-5.702724">
        <ele>-57.880</ele>
        <time>2021-10-14T12:57:01Z</time>
      </trkpt>
      <trkpt lat="43.529129" lon="-5.702585">
        <ele>-56.458</ele>
        <time>2021-10-14T12:57:02Z</time>
      </trkpt>
      <trkpt lat="43.529170" lon="-5.702441">
        <ele>-57.115</ele>
        <time>2021-10-14T12:57:03Z</time>
      </trkpt>
      <trkpt lat="43.529250" lon="-5.702152">
        <ele>-56.078</ele>
        <time>2021-10-14T12:57:05Z</time>
      </trkpt>
      <trkpt lat="43.529281" lon="-5.702023">
        <ele>-55.555</ele>
        <time>2021-10-14T12:57:06Z</time>
      </trkpt>
      <trkpt lat="43.529339" lon="-5.701766">
        <ele>-54.787</ele>
        <time>2021-10-14T12:57:08Z</time>
      </trkpt>
      <trkpt lat="43.529390" lon="-5.701465">
        <ele>-54.436</ele>
        <time>2021-10-14T12:57:10Z</time>
      </trkpt>
      <trkpt lat="43.529416" lon="-5.701290">
        <ele>-56.164</ele>
        <time>2021-10-14T12:57:11Z</time>
      </trkpt>
      <trkpt lat="43.529444" lon="-5.701122">
        <ele>-55.306</ele>
        <time>2021-10-14T12:57:12Z</time>
      </trkpt>
      <trkpt lat="43.529506" lon="-5.700769">
        <ele>-56.816</ele>
        <time>2021-10-14T12:57:14Z</time>
      </trkpt>
      <trkpt lat="43.529569" lon="-5.700391">
        <ele>-56.908</ele>
        <time>2021-10-14T12:57:16Z</time>
      </trkpt>
      <trkpt lat="43.529599" lon="-5.700213">
        <ele>-57.674</ele>
        <time>2021-10-14T12:57:17Z</time>
      </trkpt>
      <trkpt lat="43.529628" lon="-5.700043">
        <ele>-58.392</ele>
        <time>2021-10-14T12:57:18Z</time>
      </trkpt>
      <trkpt lat="43.529684" lon="-5.699695">
        <ele>-58.410</ele>
        <time>2021-10-14T12:57:20Z</time>
      </trkpt>
      <trkpt lat="43.529732" lon="-5.699389">
        <ele>-60.037</ele>
        <time>2021-10-14T12:57:22Z</time>
      </trkpt>
      <trkpt lat="43.529754" lon="-5.699247">
        <ele>-59.880</ele>
        <time>2021-10-14T12:57:23Z</time>
      </trkpt>
      <trkpt lat="43.529794" lon="-5.698976">
        <ele>-58.337</ele>
        <time>2021-10-14T12:57:25Z</time>
      </trkpt>
      <trkpt lat="43.529816" lon="-5.698841">
        <ele>-60.839</ele>
        <time>2021-10-14T12:57:26Z</time>
      </trkpt>
      <trkpt lat="43.529863" lon="-5.698570">
        <ele>-59.548</ele>
        <time>2021-10-14T12:57:28Z</time>
      </trkpt>
      <trkpt lat="43.529889" lon="-5.698420">
        <ele>-59.266</ele>
        <time>2021-10-14T12:57:29Z</time>
      </trkpt>
      <trkpt lat="43.529941" lon="-5.698121">
        <ele>-60.129</ele>
        <time>2021-10-14T12:57:31Z</time>
      </trkpt>
      <trkpt lat="43.529967" lon="-5.697977">
        <ele>-60.021</ele>
        <time>2021-10-14T12:57:32Z</time>
      </trkpt>
      <trkpt lat="43.530007" lon="-5.697700">
        <ele>-60.608</ele>
        <time>2021-10-14T12:57:34Z</time>
      </trkpt>
      <trkpt lat="43.530028" lon="-5.697570">
        <ele>-61.634</ele>
        <time>2021-10-14T12:57:35Z</time>
      </trkpt>
      <trkpt lat="43.530074" lon="-5.697345">
        <ele>-60.832</ele>
        <time>2021-10-14T12:57:37Z</time>
      </trkpt>
      <trkpt lat="43.530099" lon="-5.697249">
        <ele>-59.830</ele>
        <time>2021-10-14T12:57:38Z</time>
      </trkpt>
      <trkpt lat="43.530141" lon="-5.697103">
        <ele>-58.887</ele>
        <time>2021-10-14T12:57:40Z</time>
      </trkpt>
      <trkpt lat="43.530183" lon="-5.696965">
        <ele>-57.150</ele>
        <time>2021-10-14T12:57:42Z</time>
      </trkpt>
      <trkpt lat="43.530236" lon="-5.696805">
        <ele>-56.817</ele>
        <time>2021-10-14T12:57:44Z</time>
      </trkpt>
      <trkpt lat="43.530306" lon="-5.696614">
        <ele>-57.529</ele>
        <time>2021-10-14T12:57:46Z</time>
      </trkpt>
      <trkpt lat="43.530345" lon="-5.696509">
        <ele>-57.618</ele>
        <time>2021-10-14T12:57:47Z</time>
      </trkpt>
      <trkpt lat="43.530385" lon="-5.696400">
        <ele>-57.895</ele>
        <time>2021-10-14T12:57:48Z</time>
      </trkpt>
      <trkpt lat="43.530458" lon="-5.696198">
        <ele>-57.049</ele>
        <time>2021-10-14T12:57:50Z</time>
      </trkpt>
      <trkpt lat="43.530517" lon="-5.696037">
        <ele>-57.623</ele>
        <time>2021-10-14T12:57:52Z</time>
      </trkpt>
      <trkpt lat="43.530548" lon="-5.695962">
        <ele>-58.408</ele>
        <time>2021-10-14T12:57:53Z</time>
      </trkpt>
      <trkpt lat="43.530608" lon="-5.695813">
        <ele>-59.867</ele>
        <time>2021-10-14T12:57:55Z</time>
      </trkpt>
      <trkpt lat="43.530641" lon="-5.695719">
        <ele>-59.965</ele>
        <time>2021-10-14T12:57:56Z</time>
      </trkpt>
      <trkpt lat="43.530710" lon="-5.695525">
        <ele>-59.913</ele>
        <time>2021-10-14T12:57:58Z</time>
      </trkpt>
      <trkpt lat="43.530776" lon="-5.695335">
        <ele>-61.250</ele>
        <time>2021-10-14T12:58:00Z</time>
      </trkpt>
      <trkpt lat="43.530846" lon="-5.695111">
        <ele>-60.543</ele>
        <time>2021-10-14T12:58:02Z</time>
      </trkpt>
      <trkpt lat="43.530919" lon="-5.694874">
        <ele>-60.080</ele>
        <time>2021-10-14T12:58:04Z</time>
      </trkpt>
      <trkpt lat="43.531000" lon="-5.694661">
        <ele>-60.352</ele>
        <time>2021-10-14T12:58:06Z</time>
      </trkpt>
      <trkpt lat="43.531106" lon="-5.694444">
        <ele>-59.891</ele>
        <time>2021-10-14T12:58:08Z</time>
      </trkpt>
      <trkpt lat="43.531244" lon="-5.694213">
        <ele>-59.761</ele>
        <time>2021-10-14T12:58:10Z</time>
      </trkpt>
      <trkpt lat="43.531414" lon="-5.693962">
        <ele>-59.421</ele>
        <time>2021-10-14T12:58:12Z</time>
      </trkpt>
      <trkpt lat="43.531606" lon="-5.693714">
        <ele>-59.913</ele>
        <time>2021-10-14T12:58:14Z</time>
      </trkpt>
      <trkpt lat="43.531810" lon="-5.693504">
        <ele>-61.508</ele>
        <time>2021-10-14T12:58:16Z</time>
      </trkpt>
      <trkpt lat="43.531916" lon="-5.693410">
        <ele>-63.474</ele>
        <time>2021-10-14T12:58:17Z</time>
      </trkpt>
      <trkpt lat="43.532018" lon="-5.693326">
        <ele>-62.932</ele>
        <time>2021-10-14T12:58:18Z</time>
      </trkpt>
      <trkpt lat="43.532212" lon="-5.693162">
        <ele>-63.440</ele>
        <time>2021-10-14T12:58:20Z</time>
      </trkpt>
      <trkpt lat="43.532420" lon="-5.692984">
        <ele>-65.567</ele>
        <time>2021-10-14T12:58:22Z</time>
      </trkpt>
      <trkpt lat="43.532533" lon="-5.692888">
        <ele>-63.510</ele>
        <time>2021-10-14T12:58:23Z</time>
      </trkpt>
      <trkpt lat="43.532758" lon="-5.692688">
        <ele>-63.987</ele>
        <time>2021-10-14T12:58:25Z</time>
      </trkpt>
      <trkpt lat="43.532872" lon="-5.692582">
        <ele>-63.339</ele>
        <time>2021-10-14T12:58:26Z</time>
      </trkpt>
      <trkpt lat="43.533089" lon="-5.692388">
        <ele>-61.918</ele>
        <time>2021-10-14T12:58:28Z</time>
      </trkpt>
      <trkpt lat="43.533291" lon="-5.692212">
        <ele>-61.815</ele>
        <time>2021-10-14T12:58:30Z</time>
      </trkpt>
      <trkpt lat="43.533465" lon="-5.692049">
        <ele>-63.165</ele>
        <time>2021-10-14T12:58:32Z</time>
      </trkpt>
      <trkpt lat="43.533602" lon="-5.691917">
        <ele>-62.611</ele>
        <time>2021-10-14T12:58:34Z</time>
      </trkpt>
      <trkpt lat="43.533660" lon="-5.691857">
        <ele>-60.608</ele>
        <time>2021-10-14T12:58:35Z</time>
      </trkpt>
      <trkpt lat="43.533759" lon="-5.691758">
        <ele>-62.219</ele>
        <time>2021-10-14T12:58:37Z</time>
      </trkpt>
      <trkpt lat="43.533796" lon="-5.691721">
        <ele>-62.557</ele>
        <time>2021-10-14T12:58:38Z</time>
      </trkpt>
      <trkpt lat="43.533838" lon="-5.691672">
        <ele>-63.565</ele>
        <time>2021-10-14T12:58:40Z</time>
      </trkpt>
      <trkpt lat="43.533881" lon="-5.691611">
        <ele>-63.572</ele>
        <time>2021-10-14T12:58:42Z</time>
      </trkpt>
      <trkpt lat="43.533940" lon="-5.691540">
        <ele>-63.745</ele>
        <time>2021-10-14T12:58:44Z</time>
      </trkpt>
      <trkpt lat="43.534012" lon="-5.691462">
        <ele>-63.722</ele>
        <time>2021-10-14T12:58:46Z</time>
      </trkpt>
      <trkpt lat="43.534052" lon="-5.691418">
        <ele>-63.714</ele>
        <time>2021-10-14T12:58:48Z</time>
      </trkpt>
      <trkpt lat="43.534096" lon="-5.691356">
        <ele>-63.733</ele>
        <time>2021-10-14T12:58:51Z</time>
      </trkpt>
      <trkpt lat="43.534145" lon="-5.691302">
        <ele>-63.759</ele>
        <time>2021-10-14T12:58:54Z</time>
      </trkpt>
      <trkpt lat="43.534204" lon="-5.691224">
        <ele>-63.803</ele>
        <time>2021-10-14T12:59:14Z</time>
      </trkpt>
      <trkpt lat="43.534316" lon="-5.691064">
        <ele>-63.823</ele>
        <time>2021-10-14T12:59:16Z</time>
      </trkpt>
      <trkpt lat="43.534419" lon="-5.690888">
        <ele>-63.808</ele>
        <time>2021-10-14T12:59:18Z</time>
      </trkpt>
      <trkpt lat="43.534506" lon="-5.690699">
        <ele>-63.743</ele>
        <time>2021-10-14T12:59:20Z</time>
      </trkpt>
      <trkpt lat="43.534565" lon="-5.690537">
        <ele>-63.781</ele>
        <time>2021-10-14T12:59:22Z</time>
      </trkpt>
      <trkpt lat="43.534615" lon="-5.690406">
        <ele>-63.769</ele>
        <time>2021-10-14T12:59:24Z</time>
      </trkpt>
      <trkpt lat="43.534640" lon="-5.690342">
        <ele>-63.726</ele>
        <time>2021-10-14T12:59:25Z</time>
      </trkpt>
      <trkpt lat="43.534665" lon="-5.690286">
        <ele>-63.799</ele>
        <time>2021-10-14T12:59:26Z</time>
      </trkpt>
      <trkpt lat="43.534722" lon="-5.690246">
        <ele>-63.746</ele>
        <time>2021-10-14T12:59:28Z</time>
      </trkpt>
      <trkpt lat="43.534824" lon="-5.690285">
        <ele>-63.738</ele>
        <time>2021-10-14T12:59:30Z</time>
      </trkpt>
      <trkpt lat="43.534869" lon="-5.690325">
        <ele>-63.757</ele>
        <time>2021-10-14T12:59:31Z</time>
      </trkpt>
      <trkpt lat="43.534910" lon="-5.690373">
        <ele>-63.765</ele>
        <time>2021-10-14T12:59:32Z</time>
      </trkpt>
      <trkpt lat="43.534943" lon="-5.690440">
        <ele>-63.668</ele>
        <time>2021-10-14T12:59:34Z</time>
      </trkpt>
      <trkpt lat="43.534945" lon="-5.690532">
        <ele>-63.614</ele>
        <time>2021-10-14T12:59:39Z</time>
      </trkpt>
      <trkpt lat="43.534911" lon="-5.690641">
        <ele>-63.708</ele>
        <time>2021-10-14T12:59:41Z</time>
      </trkpt>
      <trkpt lat="43.534813" lon="-5.690770">
        <ele>-63.714</ele>
        <time>2021-10-14T12:59:43Z</time>
      </trkpt>
      <trkpt lat="43.534749" lon="-5.690841">
        <ele>-63.682</ele>
        <time>2021-10-14T12:59:44Z</time>
      </trkpt>
      <trkpt lat="43.534627" lon="-5.690982">
        <ele>-63.590</ele>
        <time>2021-10-14T12:59:46Z</time>
      </trkpt>
      <trkpt lat="43.534573" lon="-5.691048">
        <ele>-63.587</ele>
        <time>2021-10-14T12:59:47Z</time>
      </trkpt>
      <trkpt lat="43.534493" lon="-5.691179">
        <ele>-63.450</ele>
        <time>2021-10-14T12:59:49Z</time>
      </trkpt>
      <trkpt lat="43.534475" lon="-5.691246">
        <ele>-63.427</ele>
        <time>2021-10-14T12:59:50Z</time>
      </trkpt>
      <trkpt lat="43.534492" lon="-5.691384">
        <ele>-63.489</ele>
        <time>2021-10-14T12:59:52Z</time>
      </trkpt>
      <trkpt lat="43.534580" lon="-5.691556">
        <ele>-63.438</ele>
        <time>2021-10-14T12:59:54Z</time>
      </trkpt>
      <trkpt lat="43.534699" lon="-5.691797">
        <ele>-63.586</ele>
        <time>2021-10-14T12:59:56Z</time>
      </trkpt>
      <trkpt lat="43.534816" lon="-5.692055">
        <ele>-63.560</ele>
        <time>2021-10-14T12:59:58Z</time>
      </trkpt>
      <trkpt lat="43.534913" lon="-5.692269">
        <ele>-63.626</ele>
        <time>2021-10-14T13:00:00Z</time>
      </trkpt>
      <trkpt lat="43.535003" lon="-5.692467">
        <ele>-63.608</ele>
        <time>2021-10-14T13:00:02Z</time>
      </trkpt>
      <trkpt lat="43.535076" lon="-5.692627">
        <ele>-63.616</ele>
        <time>2021-10-14T13:00:04Z</time>
      </trkpt>
      <trkpt lat="43.535137" lon="-5.692762">
        <ele>-63.694</ele>
        <time>2021-10-14T13:00:06Z</time>
      </trkpt>
      <trkpt lat="43.535191" lon="-5.692878">
        <ele>-63.682</ele>
        <time>2021-10-14T13:00:08Z</time>
      </trkpt>
      <trkpt lat="43.535239" lon="-5.692990">
        <ele>-63.699</ele>
        <time>2021-10-14T13:00:10Z</time>
      </trkpt>
      <trkpt lat="43.535301" lon="-5.693125">
        <ele>-63.712</ele>
        <time>2021-10-14T13:00:12Z</time>
      </trkpt>
      <trkpt lat="43.535335" lon="-5.693189">
        <ele>-63.759</ele>
        <time>2021-10-14T13:00:13Z</time>
      </trkpt>
      <trkpt lat="43.535371" lon="-5.693259">
        <ele>-63.721</ele>
        <time>2021-10-14T13:00:14Z</time>
      </trkpt>
      <trkpt lat="43.535441" lon="-5.693364">
        <ele>-63.740</ele>
        <time>2021-10-14T13:00:16Z</time>
      </trkpt>
      <trkpt lat="43.535509" lon="-5.693381">
        <ele>-63.754</ele>
        <time>2021-10-14T13:00:18Z</time>
      </trkpt>
      <trkpt lat="43.535579" lon="-5.693314">
        <ele>-63.656</ele>
        <time>2021-10-14T13:00:20Z</time>
      </trkpt>
      <trkpt lat="43.535608" lon="-5.693158">
        <ele>-63.611</ele>
        <time>2021-10-14T13:00:22Z</time>
      </trkpt>
      <trkpt lat="43.535619" lon="-5.693075">
        <ele>-63.608</ele>
        <time>2021-10-14T13:00:23Z</time>
      </trkpt>
      <trkpt lat="43.535626" lon="-5.693010">
        <ele>-63.683</ele>
        <time>2021-10-14T13:00:24Z</time>
      </trkpt>
      <trkpt lat="43.535634" lon="-5.692927">
        <ele>-63.591</ele>
        <time>2021-10-14T13:00:26Z</time>
      </trkpt>
      <trkpt lat="43.535639" lon="-5.692840">
        <ele>-63.639</ele>
        <time>2021-10-14T13:00:29Z</time>
      </trkpt>
      <trkpt lat="43.535647" lon="-5.692755">
        <ele>-63.636</ele>
        <time>2021-10-14T13:00:32Z</time>
      </trkpt>
      <trkpt lat="43.535660" lon="-5.692678">
        <ele>-63.669</ele>
        <time>2021-10-14T13:00:34Z</time>
      </trkpt>
      <trkpt lat="43.535682" lon="-5.692563">
        <ele>-63.656</ele>
        <time>2021-10-14T13:00:36Z</time>
      </trkpt>
      <trkpt lat="43.535716" lon="-5.692362">
        <ele>-63.678</ele>
        <time>2021-10-14T13:00:38Z</time>
      </trkpt>
      <trkpt lat="43.535749" lon="-5.692162">
        <ele>-65.817</ele>
        <time>2021-10-14T13:00:40Z</time>
      </trkpt>
      <trkpt lat="43.535768" lon="-5.692058">
        <ele>-64.875</ele>
        <time>2021-10-14T13:00:41Z</time>
      </trkpt>
      <trkpt lat="43.535804" lon="-5.691860">
        <ele>-66.528</ele>
        <time>2021-10-14T13:00:43Z</time>
      </trkpt>
      <trkpt lat="43.535824" lon="-5.691754">
        <ele>-65.220</ele>
        <time>2021-10-14T13:00:44Z</time>
      </trkpt>
      <trkpt lat="43.535870" lon="-5.691529">
        <ele>-65.808</ele>
        <time>2021-10-14T13:00:46Z</time>
      </trkpt>
      <trkpt lat="43.535917" lon="-5.691295">
        <ele>-65.795</ele>
        <time>2021-10-14T13:00:48Z</time>
      </trkpt>
      <trkpt lat="43.535966" lon="-5.691053">
        <ele>-66.473</ele>
        <time>2021-10-14T13:00:50Z</time>
      </trkpt>
      <trkpt lat="43.536014" lon="-5.690815">
        <ele>-66.841</ele>
        <time>2021-10-14T13:00:52Z</time>
      </trkpt>
      <trkpt lat="43.536036" lon="-5.690686">
        <ele>-66.578</ele>
        <time>2021-10-14T13:00:53Z</time>
      </trkpt>
      <trkpt lat="43.536080" lon="-5.690441">
        <ele>-67.231</ele>
        <time>2021-10-14T13:00:55Z</time>
      </trkpt>
      <trkpt lat="43.536100" lon="-5.690326">
        <ele>-68.238</ele>
        <time>2021-10-14T13:00:56Z</time>
      </trkpt>
      <trkpt lat="43.536146" lon="-5.690079">
        <ele>-68.210</ele>
        <time>2021-10-14T13:00:58Z</time>
      </trkpt>
      <trkpt lat="43.536175" lon="-5.689946">
        <ele>-70.239</ele>
        <time>2021-10-14T13:00:59Z</time>
      </trkpt>
      <trkpt lat="43.536220" lon="-5.689704">
        <ele>-68.779</ele>
        <time>2021-10-14T13:01:01Z</time>
      </trkpt>
      <trkpt lat="43.536241" lon="-5.689588">
        <ele>-68.805</ele>
        <time>2021-10-14T13:01:02Z</time>
      </trkpt>
      <trkpt lat="43.536276" lon="-5.689361">
        <ele>-69.325</ele>
        <time>2021-10-14T13:01:04Z</time>
      </trkpt>
      <trkpt lat="43.536329" lon="-5.689150">
        <ele>-69.308</ele>
        <time>2021-10-14T13:01:06Z</time>
      </trkpt>
      <trkpt lat="43.536354" lon="-5.689050">
        <ele>-68.215</ele>
        <time>2021-10-14T13:01:07Z</time>
      </trkpt>
      <trkpt lat="43.536377" lon="-5.688953">
        <ele>-67.963</ele>
        <time>2021-10-14T13:01:08Z</time>
      </trkpt>
      <trkpt lat="43.536421" lon="-5.688748">
        <ele>-68.741</ele>
        <time>2021-10-14T13:01:10Z</time>
      </trkpt>
      <trkpt lat="43.536447" lon="-5.688630">
        <ele>-69.038</ele>
        <time>2021-10-14T13:01:11Z</time>
      </trkpt>
      <trkpt lat="43.536487" lon="-5.688385">
        <ele>-67.981</ele>
        <time>2021-10-14T13:01:13Z</time>
      </trkpt>
      <trkpt lat="43.536503" lon="-5.688267">
        <ele>-67.758</ele>
        <time>2021-10-14T13:01:14Z</time>
      </trkpt>
      <trkpt lat="43.536531" lon="-5.688057">
        <ele>-67.470</ele>
        <time>2021-10-14T13:01:16Z</time>
      </trkpt>
      <trkpt lat="43.536544" lon="-5.687957">
        <ele>-67.419</ele>
        <time>2021-10-14T13:01:17Z</time>
      </trkpt>
      <trkpt lat="43.536557" lon="-5.687859">
        <ele>-67.418</ele>
        <time>2021-10-14T13:01:18Z</time>
      </trkpt>
      <trkpt lat="43.536588" lon="-5.687689">
        <ele>-66.798</ele>
        <time>2021-10-14T13:01:20Z</time>
      </trkpt>
      <trkpt lat="43.536618" lon="-5.687561">
        <ele>-68.817</ele>
        <time>2021-10-14T13:01:22Z</time>
      </trkpt>
      <trkpt lat="43.536642" lon="-5.687476">
        <ele>-70.308</ele>
        <time>2021-10-14T13:01:24Z</time>
      </trkpt>
      <trkpt lat="43.536662" lon="-5.687414">
        <ele>-69.739</ele>
        <time>2021-10-14T13:01:26Z</time>
      </trkpt>
      <trkpt lat="43.536684" lon="-5.687359">
        <ele>-71.377</ele>
        <time>2021-10-14T13:01:29Z</time>
      </trkpt>
      <trkpt lat="43.536700" lon="-5.687275">
        <ele>-71.515</ele>
        <time>2021-10-14T13:01:56Z</time>
      </trkpt>
      <trkpt lat="43.536746" lon="-5.687103">
        <ele>-71.542</ele>
        <time>2021-10-14T13:01:58Z</time>
      </trkpt>
      <trkpt lat="43.536776" lon="-5.686999">
        <ele>-71.585</ele>
        <time>2021-10-14T13:01:59Z</time>
      </trkpt>
      <trkpt lat="43.536828" lon="-5.686795">
        <ele>-71.552</ele>
        <time>2021-10-14T13:02:01Z</time>
      </trkpt>
      <trkpt lat="43.536858" lon="-5.686682">
        <ele>-71.584</ele>
        <time>2021-10-14T13:02:02Z</time>
      </trkpt>
      <trkpt lat="43.536924" lon="-5.686427">
        <ele>-71.553</ele>
        <time>2021-10-14T13:02:04Z</time>
      </trkpt>
      <trkpt lat="43.536961" lon="-5.686293">
        <ele>-71.577</ele>
        <time>2021-10-14T13:02:05Z</time>
      </trkpt>
      <trkpt lat="43.537039" lon="-5.686024">
        <ele>-71.561</ele>
        <time>2021-10-14T13:02:07Z</time>
      </trkpt>
      <trkpt lat="43.537080" lon="-5.685889">
        <ele>-71.527</ele>
        <time>2021-10-14T13:02:08Z</time>
      </trkpt>
      <trkpt lat="43.537145" lon="-5.685642">
        <ele>-71.508</ele>
        <time>2021-10-14T13:02:10Z</time>
      </trkpt>
      <trkpt lat="43.537175" lon="-5.685531">
        <ele>-71.545</ele>
        <time>2021-10-14T13:02:11Z</time>
      </trkpt>
      <trkpt lat="43.537234" lon="-5.685304">
        <ele>-71.513</ele>
        <time>2021-10-14T13:02:13Z</time>
      </trkpt>
      <trkpt lat="43.537264" lon="-5.685178">
        <ele>-71.581</ele>
        <time>2021-10-14T13:02:14Z</time>
      </trkpt>
      <trkpt lat="43.537333" lon="-5.684930">
        <ele>-71.598</ele>
        <time>2021-10-14T13:02:16Z</time>
      </trkpt>
      <trkpt lat="43.537365" lon="-5.684812">
        <ele>-71.551</ele>
        <time>2021-10-14T13:02:17Z</time>
      </trkpt>
      <trkpt lat="43.537426" lon="-5.684596">
        <ele>-71.528</ele>
        <time>2021-10-14T13:02:19Z</time>
      </trkpt>
      <trkpt lat="43.537453" lon="-5.684487">
        <ele>-71.510</ele>
        <time>2021-10-14T13:02:20Z</time>
      </trkpt>
      <trkpt lat="43.537507" lon="-5.684271">
        <ele>-71.539</ele>
        <time>2021-10-14T13:02:22Z</time>
      </trkpt>
      <trkpt lat="43.537537" lon="-5.684157">
        <ele>-71.577</ele>
        <time>2021-10-14T13:02:23Z</time>
      </trkpt>
      <trkpt lat="43.537597" lon="-5.683924">
        <ele>-71.561</ele>
        <time>2021-10-14T13:02:25Z</time>
      </trkpt>
      <trkpt lat="43.537633" lon="-5.683799">
        <ele>-71.527</ele>
        <time>2021-10-14T13:02:26Z</time>
      </trkpt>
      <trkpt lat="43.537719" lon="-5.683518">
        <ele>-71.708</ele>
        <time>2021-10-14T13:02:28Z</time>
      </trkpt>
      <trkpt lat="43.537771" lon="-5.683352">
        <ele>-71.795</ele>
        <time>2021-10-14T13:02:29Z</time>
      </trkpt>
      <trkpt lat="43.537822" lon="-5.683187">
        <ele>-71.743</ele>
        <time>2021-10-14T13:02:30Z</time>
      </trkpt>
      <trkpt lat="43.537873" lon="-5.683017">
        <ele>-71.741</ele>
        <time>2021-10-14T13:02:31Z</time>
      </trkpt>
      <trkpt lat="43.537926" lon="-5.682843">
        <ele>-71.778</ele>
        <time>2021-10-14T13:02:32Z</time>
      </trkpt>
      <trkpt lat="43.538023" lon="-5.682514">
        <ele>-71.791</ele>
        <time>2021-10-14T13:02:34Z</time>
      </trkpt>
      <trkpt lat="43.538106" lon="-5.682249">
        <ele>-71.738</ele>
        <time>2021-10-14T13:02:36Z</time>
      </trkpt>
      <trkpt lat="43.538139" lon="-5.682137">
        <ele>-71.730</ele>
        <time>2021-10-14T13:02:37Z</time>
      </trkpt>
      <trkpt lat="43.538169" lon="-5.682033">
        <ele>-71.789</ele>
        <time>2021-10-14T13:02:38Z</time>
      </trkpt>
      <trkpt lat="43.538214" lon="-5.681870">
        <ele>-71.777</ele>
        <time>2021-10-14T13:02:40Z</time>
      </trkpt>
      <trkpt lat="43.538234" lon="-5.681802">
        <ele>-71.861</ele>
        <time>2021-10-14T13:02:41Z</time>
      </trkpt>
      <trkpt lat="43.538263" lon="-5.681711">
        <ele>-71.827</ele>
        <time>2021-10-14T13:02:43Z</time>
      </trkpt>
      <trkpt lat="43.538275" lon="-5.681650">
        <ele>-71.708</ele>
        <time>2021-10-14T13:03:08Z</time>
      </trkpt>
      <trkpt lat="43.538300" lon="-5.681552">
        <ele>-71.765</ele>
        <time>2021-10-14T13:03:10Z</time>
      </trkpt>
      <trkpt lat="43.538333" lon="-5.681449">
        <ele>-71.723</ele>
        <time>2021-10-14T13:03:11Z</time>
      </trkpt>
      <trkpt lat="43.538370" lon="-5.681335">
        <ele>-71.731</ele>
        <time>2021-10-14T13:03:12Z</time>
      </trkpt>
      <trkpt lat="43.538451" lon="-5.681094">
        <ele>-71.768</ele>
        <time>2021-10-14T13:03:14Z</time>
      </trkpt>
      <trkpt lat="43.538516" lon="-5.680885">
        <ele>-71.751</ele>
        <time>2021-10-14T13:03:16Z</time>
      </trkpt>
      <trkpt lat="43.538545" lon="-5.680782">
        <ele>-71.758</ele>
        <time>2021-10-14T13:03:17Z</time>
      </trkpt>
      <trkpt lat="43.538610" lon="-5.680553">
        <ele>-71.740</ele>
        <time>2021-10-14T13:03:19Z</time>
      </trkpt>
      <trkpt lat="43.538644" lon="-5.680442">
        <ele>-71.789</ele>
        <time>2021-10-14T13:03:20Z</time>
      </trkpt>
      <trkpt lat="43.538713" lon="-5.680226">
        <ele>-71.787</ele>
        <time>2021-10-14T13:03:22Z</time>
      </trkpt>
      <trkpt lat="43.538751" lon="-5.680113">
        <ele>-71.742</ele>
        <time>2021-10-14T13:03:23Z</time>
      </trkpt>
      <trkpt lat="43.538788" lon="-5.679998">
        <ele>-71.726</ele>
        <time>2021-10-14T13:03:24Z</time>
      </trkpt>
      <trkpt lat="43.538820" lon="-5.679880">
        <ele>-71.708</ele>
        <time>2021-10-14T13:03:25Z</time>
      </trkpt>
      <trkpt lat="43.538856" lon="-5.679758">
        <ele>-71.796</ele>
        <time>2021-10-14T13:03:26Z</time>
      </trkpt>
      <trkpt lat="43.538928" lon="-5.679524">
        <ele>-71.784</ele>
        <time>2021-10-14T13:03:28Z</time>
      </trkpt>
      <trkpt lat="43.538961" lon="-5.679411">
        <ele>-71.742</ele>
        <time>2021-10-14T13:03:29Z</time>
      </trkpt>
      <trkpt lat="43.539023" lon="-5.679188">
        <ele>-71.769</ele>
        <time>2021-10-14T13:03:31Z</time>
      </trkpt>
      <trkpt lat="43.539057" lon="-5.679072">
        <ele>-71.772</ele>
        <time>2021-10-14T13:03:32Z</time>
      </trkpt>
      <trkpt lat="43.539122" lon="-5.678861">
        <ele>-71.799</ele>
        <time>2021-10-14T13:03:34Z</time>
      </trkpt>
      <trkpt lat="43.539180" lon="-5.678646">
        <ele>-71.781</ele>
        <time>2021-10-14T13:03:36Z</time>
      </trkpt>
      <trkpt lat="43.539205" lon="-5.678529">
        <ele>-71.710</ele>
        <time>2021-10-14T13:03:37Z</time>
      </trkpt>
      <trkpt lat="43.539224" lon="-5.678406">
        <ele>-71.726</ele>
        <time>2021-10-14T13:03:38Z</time>
      </trkpt>
      <trkpt lat="43.539241" lon="-5.678144">
        <ele>-71.747</ele>
        <time>2021-10-14T13:03:40Z</time>
      </trkpt>
      <trkpt lat="43.539258" lon="-5.677871">
        <ele>-71.511</ele>
        <time>2021-10-14T13:03:42Z</time>
      </trkpt>
      <trkpt lat="43.539312" lon="-5.677537">
        <ele>-71.508</ele>
        <time>2021-10-14T13:03:44Z</time>
      </trkpt>
      <trkpt lat="43.539382" lon="-5.677194">
        <ele>-71.580</ele>
        <time>2021-10-14T13:03:46Z</time>
      </trkpt>
      <trkpt lat="43.539469" lon="-5.676853">
        <ele>-71.528</ele>
        <time>2021-10-14T13:03:48Z</time>
      </trkpt>
      <trkpt lat="43.539558" lon="-5.676508">
        <ele>-71.446</ele>
        <time>2021-10-14T13:03:50Z</time>
      </trkpt>
      <trkpt lat="43.539651" lon="-5.676145">
        <ele>-71.473</ele>
        <time>2021-10-14T13:03:52Z</time>
      </trkpt>
      <trkpt lat="43.539699" lon="-5.675961">
        <ele>-71.536</ele>
        <time>2021-10-14T13:03:53Z</time>
      </trkpt>
      <trkpt lat="43.539786" lon="-5.675618">
        <ele>-71.583</ele>
        <time>2021-10-14T13:03:55Z</time>
      </trkpt>
      <trkpt lat="43.539830" lon="-5.675460">
        <ele>-71.535</ele>
        <time>2021-10-14T13:03:56Z</time>
      </trkpt>
      <trkpt lat="43.539914" lon="-5.675157">
        <ele>-71.514</ele>
        <time>2021-10-14T13:03:58Z</time>
      </trkpt>
      <trkpt lat="43.539997" lon="-5.674861">
        <ele>-71.579</ele>
        <time>2021-10-14T13:04:00Z</time>
      </trkpt>
      <trkpt lat="43.540074" lon="-5.674589">
        <ele>-71.705</ele>
        <time>2021-10-14T13:04:02Z</time>
      </trkpt>
      <trkpt lat="43.540144" lon="-5.674357">
        <ele>-71.725</ele>
        <time>2021-10-14T13:04:04Z</time>
      </trkpt>
      <trkpt lat="43.540183" lon="-5.674231">
        <ele>-71.708</ele>
        <time>2021-10-14T13:04:05Z</time>
      </trkpt>
      <trkpt lat="43.540222" lon="-5.674100">
        <ele>-71.755</ele>
        <time>2021-10-14T13:04:06Z</time>
      </trkpt>
      <trkpt lat="43.540261" lon="-5.673969">
        <ele>-71.763</ele>
        <time>2021-10-14T13:04:07Z</time>
      </trkpt>
      <trkpt lat="43.540302" lon="-5.673836">
        <ele>-71.761</ele>
        <time>2021-10-14T13:04:08Z</time>
      </trkpt>
      <trkpt lat="43.540386" lon="-5.673569">
        <ele>-79.038</ele>
        <time>2021-10-14T13:04:10Z</time>
      </trkpt>
      <trkpt lat="43.540470" lon="-5.673314">
        <ele>-78.961</ele>
        <time>2021-10-14T13:04:12Z</time>
      </trkpt>
      <trkpt lat="43.540551" lon="-5.673088">
        <ele>-79.458</ele>
        <time>2021-10-14T13:04:14Z</time>
      </trkpt>
      <trkpt lat="43.540625" lon="-5.672870">
        <ele>-79.730</ele>
        <time>2021-10-14T13:04:16Z</time>
      </trkpt>
      <trkpt lat="43.540662" lon="-5.672754">
        <ele>-79.529</ele>
        <time>2021-10-14T13:04:17Z</time>
      </trkpt>
      <trkpt lat="43.540700" lon="-5.672636">
        <ele>-80.779</ele>
        <time>2021-10-14T13:04:18Z</time>
      </trkpt>
      <trkpt lat="43.540774" lon="-5.672406">
        <ele>-80.705</ele>
        <time>2021-10-14T13:04:20Z</time>
      </trkpt>
      <trkpt lat="43.540849" lon="-5.672162">
        <ele>-81.425</ele>
        <time>2021-10-14T13:04:22Z</time>
      </trkpt>
      <trkpt lat="43.540926" lon="-5.671902">
        <ele>-80.508</ele>
        <time>2021-10-14T13:04:24Z</time>
      </trkpt>
      <trkpt lat="43.541008" lon="-5.671679">
        <ele>-79.275</ele>
        <time>2021-10-14T13:04:26Z</time>
      </trkpt>
      <trkpt lat="43.541081" lon="-5.671474">
        <ele>-78.563</ele>
        <time>2021-10-14T13:04:28Z</time>
      </trkpt>
      <trkpt lat="43.541109" lon="-5.671356">
        <ele>-77.751</ele>
        <time>2021-10-14T13:04:29Z</time>
      </trkpt>
      <trkpt lat="43.541131" lon="-5.671239">
        <ele>-76.788</ele>
        <time>2021-10-14T13:04:30Z</time>
      </trkpt>
      <trkpt lat="43.541174" lon="-5.671029">
        <ele>-75.231</ele>
        <time>2021-10-14T13:04:32Z</time>
      </trkpt>
      <trkpt lat="43.541209" lon="-5.670839">
        <ele>-75.728</ele>
        <time>2021-10-14T13:04:34Z</time>
      </trkpt>
      <trkpt lat="43.541231" lon="-5.670732">
        <ele>-75.260</ele>
        <time>2021-10-14T13:04:35Z</time>
      </trkpt>
      <trkpt lat="43.541283" lon="-5.670502">
        <ele>-73.749</ele>
        <time>2021-10-14T13:04:37Z</time>
      </trkpt>
      <trkpt lat="43.541314" lon="-5.670386">
        <ele>-74.987</ele>
        <time>2021-10-14T13:04:38Z</time>
      </trkpt>
      <trkpt lat="43.541366" lon="-5.670157">
        <ele>-75.242</ele>
        <time>2021-10-14T13:04:40Z</time>
      </trkpt>
      <trkpt lat="43.541420" lon="-5.669936">
        <ele>-75.826</ele>
        <time>2021-10-14T13:04:42Z</time>
      </trkpt>
      <trkpt lat="43.541445" lon="-5.669841">
        <ele>-74.908</ele>
        <time>2021-10-14T13:04:43Z</time>
      </trkpt>
      <trkpt lat="43.541467" lon="-5.669757">
        <ele>-75.746</ele>
        <time>2021-10-14T13:04:44Z</time>
      </trkpt>
      <trkpt lat="43.541498" lon="-5.669638">
        <ele>-74.724</ele>
        <time>2021-10-14T13:04:46Z</time>
      </trkpt>
      <trkpt lat="43.541507" lon="-5.669535">
        <ele>-74.362</ele>
        <time>2021-10-14T13:05:25Z</time>
      </trkpt>
      <trkpt lat="43.541521" lon="-5.669455">
        <ele>-74.379</ele>
        <time>2021-10-14T13:05:26Z</time>
      </trkpt>
      <trkpt lat="43.541555" lon="-5.669269">
        <ele>-74.282</ele>
        <time>2021-10-14T13:05:28Z</time>
      </trkpt>
      <trkpt lat="43.541585" lon="-5.669064">
        <ele>-74.239</ele>
        <time>2021-10-14T13:05:30Z</time>
      </trkpt>
      <trkpt lat="43.541618" lon="-5.668852">
        <ele>-74.231</ele>
        <time>2021-10-14T13:05:32Z</time>
      </trkpt>
      <trkpt lat="43.541662" lon="-5.668628">
        <ele>-74.240</ele>
        <time>2021-10-14T13:05:34Z</time>
      </trkpt>
      <trkpt lat="43.541709" lon="-5.668396">
        <ele>-74.291</ele>
        <time>2021-10-14T13:05:36Z</time>
      </trkpt>
      <trkpt lat="43.541752" lon="-5.668191">
        <ele>-74.281</ele>
        <time>2021-10-14T13:05:38Z</time>
      </trkpt>
      <trkpt lat="43.541794" lon="-5.668035">
        <ele>-74.219</ele>
        <time>2021-10-14T13:05:40Z</time>
      </trkpt>
      <trkpt lat="43.541813" lon="-5.667964">
        <ele>-74.308</ele>
        <time>2021-10-14T13:05:41Z</time>
      </trkpt>
      <trkpt lat="43.541845" lon="-5.667805">
        <ele>-74.397</ele>
        <time>2021-10-14T13:05:43Z</time>
      </trkpt>
      <trkpt lat="43.541860" lon="-5.667731">
        <ele>-74.355</ele>
        <time>2021-10-14T13:05:44Z</time>
      </trkpt>
      <trkpt lat="43.541904" lon="-5.667594">
        <ele>-74.363</ele>
        <time>2021-10-14T13:05:46Z</time>
      </trkpt>
      <trkpt lat="43.541961" lon="-5.667389">
        <ele>-74.330</ele>
        <time>2021-10-14T13:05:48Z</time>
      </trkpt>
      <trkpt lat="43.542065" lon="-5.667146">
        <ele>-74.323</ele>
        <time>2021-10-14T13:05:50Z</time>
      </trkpt>
      <trkpt lat="43.542186" lon="-5.666951">
        <ele>-74.350</ele>
        <time>2021-10-14T13:05:52Z</time>
      </trkpt>
      <trkpt lat="43.542311" lon="-5.666804">
        <ele>-74.272</ele>
        <time>2021-10-14T13:05:54Z</time>
      </trkpt>
      <trkpt lat="43.542363" lon="-5.666743">
        <ele>-74.231</ele>
        <time>2021-10-14T13:05:55Z</time>
      </trkpt>
      <trkpt lat="43.542405" lon="-5.666691">
        <ele>-74.222</ele>
        <time>2021-10-14T13:05:56Z</time>
      </trkpt>
      <trkpt lat="43.542457" lon="-5.666626">
        <ele>-74.262</ele>
        <time>2021-10-14T13:05:58Z</time>
      </trkpt>
      <trkpt lat="43.542491" lon="-5.666583">
        <ele>-74.208</ele>
        <time>2021-10-14T13:06:00Z</time>
      </trkpt>
      <trkpt lat="43.542530" lon="-5.666530">
        <ele>-74.208</ele>
        <time>2021-10-14T13:06:04Z</time>
      </trkpt>
      <trkpt lat="43.542566" lon="-5.666476">
        <ele>-74.280</ele>
        <time>2021-10-14T13:06:07Z</time>
      </trkpt>
      <trkpt lat="43.542614" lon="-5.666411">
        <ele>-74.248</ele>
        <time>2021-10-14T13:06:09Z</time>
      </trkpt>
      <trkpt lat="43.542698" lon="-5.666308">
        <ele>-74.266</ele>
        <time>2021-10-14T13:06:11Z</time>
      </trkpt>
      <trkpt lat="43.542798" lon="-5.666176">
        <ele>-74.213</ele>
        <time>2021-10-14T13:06:13Z</time>
      </trkpt>
      <trkpt lat="43.542853" lon="-5.666107">
        <ele>-74.236</ele>
        <time>2021-10-14T13:06:14Z</time>
      </trkpt>
      <trkpt lat="43.542953" lon="-5.665966">
        <ele>-74.213</ele>
        <time>2021-10-14T13:06:16Z</time>
      </trkpt>
      <trkpt lat="43.543057" lon="-5.665817">
        <ele>-74.245</ele>
        <time>2021-10-14T13:06:18Z</time>
      </trkpt>
      <trkpt lat="43.543110" lon="-5.665739">
        <ele>-74.224</ele>
        <time>2021-10-14T13:06:19Z</time>
      </trkpt>
      <trkpt lat="43.543164" lon="-5.665660">
        <ele>-74.282</ele>
        <time>2021-10-14T13:06:20Z</time>
      </trkpt>
      <trkpt lat="43.543276" lon="-5.665495">
        <ele>-74.243</ele>
        <time>2021-10-14T13:06:22Z</time>
      </trkpt>
      <trkpt lat="43.543332" lon="-5.665410">
        <ele>-79.917</ele>
        <time>2021-10-14T13:06:23Z</time>
      </trkpt>
      <trkpt lat="43.543429" lon="-5.665235">
        <ele>-79.708</ele>
        <time>2021-10-14T13:06:25Z</time>
      </trkpt>
      <trkpt lat="43.543477" lon="-5.665154">
        <ele>-80.946</ele>
        <time>2021-10-14T13:06:26Z</time>
      </trkpt>
      <trkpt lat="43.543565" lon="-5.664982">
        <ele>-80.254</ele>
        <time>2021-10-14T13:06:28Z</time>
      </trkpt>
      <trkpt lat="43.543608" lon="-5.664899">
        <ele>-79.922</ele>
        <time>2021-10-14T13:06:29Z</time>
      </trkpt>
      <trkpt lat="43.543645" lon="-5.664814">
        <ele>-78.739</ele>
        <time>2021-10-14T13:06:30Z</time>
      </trkpt>
      <trkpt lat="43.543702" lon="-5.664625">
        <ele>-78.562</ele>
        <time>2021-10-14T13:06:32Z</time>
      </trkpt>
      <trkpt lat="43.543748" lon="-5.664411">
        <ele>-78.099</ele>
        <time>2021-10-14T13:06:34Z</time>
      </trkpt>
      <trkpt lat="43.543771" lon="-5.664308">
        <ele>-78.911</ele>
        <time>2021-10-14T13:06:35Z</time>
      </trkpt>
      <trkpt lat="43.543851" lon="-5.664139">
        <ele>-77.450</ele>
        <time>2021-10-14T13:06:37Z</time>
      </trkpt>
      <trkpt lat="43.543913" lon="-5.664073">
        <ele>-78.491</ele>
        <time>2021-10-14T13:06:38Z</time>
      </trkpt>
      <trkpt lat="43.544044" lon="-5.663960">
        <ele>-77.281</ele>
        <time>2021-10-14T13:06:40Z</time>
      </trkpt>
      <trkpt lat="43.544165" lon="-5.663848">
        <ele>-78.419</ele>
        <time>2021-10-14T13:06:42Z</time>
      </trkpt>
      <trkpt lat="43.544284" lon="-5.663743">
        <ele>-76.508</ele>
        <time>2021-10-14T13:06:44Z</time>
      </trkpt>
      <trkpt lat="43.544372" lon="-5.663629">
        <ele>-78.227</ele>
        <time>2021-10-14T13:06:46Z</time>
      </trkpt>
      <trkpt lat="43.544406" lon="-5.663450">
        <ele>-79.285</ele>
        <time>2021-10-14T13:06:48Z</time>
      </trkpt>
      <trkpt lat="43.544430" lon="-5.663365">
        <ele>-79.713</ele>
        <time>2021-10-14T13:06:49Z</time>
      </trkpt>
      <trkpt lat="43.544451" lon="-5.663276">
        <ele>-79.490</ele>
        <time>2021-10-14T13:06:50Z</time>
      </trkpt>
      <trkpt lat="43.544477" lon="-5.663144">
        <ele>-78.463</ele>
        <time>2021-10-14T13:06:52Z</time>
      </trkpt>
      <trkpt lat="43.544491" lon="-5.663069">
        <ele>-78.980</ele>
        <time>2021-10-14T13:06:54Z</time>
      </trkpt>
      <trkpt lat="43.544493" lon="-5.663005">
        <ele>-79.062</ele>
        <time>2021-10-14T13:06:56Z</time>
      </trkpt>
      <trkpt lat="43.544495" lon="-5.662912">
        <ele>-79.741</ele>
        <time>2021-10-14T13:06:58Z</time>
      </trkpt>
      <trkpt lat="43.544508" lon="-5.662790">
        <ele>-79.714</ele>
        <time>2021-10-14T13:07:00Z</time>
      </trkpt>
      <trkpt lat="43.544519" lon="-5.662709">
        <ele>-79.754</ele>
        <time>2021-10-14T13:07:02Z</time>
      </trkpt>
      <trkpt lat="43.544529" lon="-5.662616">
        <ele>-79.709</ele>
        <time>2021-10-14T13:07:04Z</time>
      </trkpt>
      <trkpt lat="43.544531" lon="-5.662521">
        <ele>-79.708</ele>
        <time>2021-10-14T13:07:06Z</time>
      </trkpt>
      <trkpt lat="43.544514" lon="-5.662380">
        <ele>-79.779</ele>
        <time>2021-10-14T13:07:08Z</time>
      </trkpt>
      <trkpt lat="43.544484" lon="-5.662200">
        <ele>-79.747</ele>
        <time>2021-10-14T13:07:10Z</time>
      </trkpt>
      <trkpt lat="43.544470" lon="-5.662037">
        <ele>-79.735</ele>
        <time>2021-10-14T13:07:12Z</time>
      </trkpt>
      <trkpt lat="43.544463" lon="-5.661968">
        <ele>-79.742</ele>
        <time>2021-10-14T13:07:13Z</time>
      </trkpt>
      <trkpt lat="43.544456" lon="-5.661888">
        <ele>-79.725</ele>
        <time>2021-10-14T13:07:15Z</time>
      </trkpt>
      <trkpt lat="43.544457" lon="-5.661820">
        <ele>-79.712</ele>
        <time>2021-10-14T13:07:17Z</time>
      </trkpt>
      <trkpt lat="43.544504" lon="-5.661764">
        <ele>-79.724</ele>
        <time>2021-10-14T13:07:19Z</time>
      </trkpt>
      <trkpt lat="43.544602" lon="-5.661761">
        <ele>-79.763</ele>
        <time>2021-10-14T13:07:21Z</time>
      </trkpt>
      <trkpt lat="43.544656" lon="-5.661770">
        <ele>-79.745</ele>
        <time>2021-10-14T13:07:22Z</time>
      </trkpt>
      <trkpt lat="43.544705" lon="-5.661782">
        <ele>-79.747</ele>
        <time>2021-10-14T13:07:23Z</time>
      </trkpt>
      <trkpt lat="43.544780" lon="-5.661805">
        <ele>-79.711</ele>
        <time>2021-10-14T13:07:25Z</time>
      </trkpt>
      <trkpt lat="43.544825" lon="-5.661813">
        <ele>-79.708</ele>
        <time>2021-10-14T13:07:26Z</time>
      </trkpt>
      <trkpt lat="43.544885" lon="-5.661828">
        <ele>-79.762</ele>
        <time>2021-10-14T13:07:28Z</time>
      </trkpt>
      <trkpt lat="43.544944" lon="-5.661841">
        <ele>-79.730</ele>
        <time>2021-10-14T13:07:30Z</time>
      </trkpt>
      <trkpt lat="43.545014" lon="-5.661852">
        <ele>-79.758</ele>
        <time>2021-10-14T13:07:32Z</time>
      </trkpt>
      <trkpt lat="43.545110" lon="-5.661874">
        <ele>-79.765</ele>
        <time>2021-10-14T13:07:34Z</time>
      </trkpt>
      <trkpt lat="43.545184" lon="-5.661872">
        <ele>-79.938</ele>
        <time>2021-10-14T13:07:36Z</time>
      </trkpt>
      <trkpt lat="43.545262" lon="-5.661860">
        <ele>-79.925</ele>
        <time>2021-10-14T13:07:38Z</time>
      </trkpt>
      <trkpt lat="43.545338" lon="-5.661811">
        <ele>-79.967</ele>
        <time>2021-10-14T13:07:40Z</time>
      </trkpt>
      <trkpt lat="43.545402" lon="-5.661747">
        <ele>-79.926</ele>
        <time>2021-10-14T13:07:42Z</time>
      </trkpt>
      <trkpt lat="43.545458" lon="-5.661733">
        <ele>-79.924</ele>
        <time>2021-10-14T13:07:44Z</time>
      </trkpt>
      <trkpt lat="43.545491" lon="-5.661804">
        <ele>-79.904</ele>
        <time>2021-10-14T13:07:47Z</time>
      </trkpt>
      <trkpt lat="43.545475" lon="-5.661876">
        <ele>-79.914</ele>
        <time>2021-10-14T13:07:50Z</time>
      </trkpt>
      <trkpt lat="43.545428" lon="-5.661903">
        <ele>-80.008</ele>
        <time>2021-10-14T13:07:53Z</time>
      </trkpt>
      <trkpt lat="43.545379" lon="-5.661920">
        <ele>-80.040</ele>
        <time>2021-10-14T13:07:56Z</time>
      </trkpt>
      <trkpt lat="43.545327" lon="-5.661924">
        <ele>-80.018</ele>
        <time>2021-10-14T13:07:58Z</time>
      </trkpt>
      <trkpt lat="43.545259" lon="-5.661926">
        <ele>-80.056</ele>
        <time>2021-10-14T13:08:00Z</time>
      </trkpt>
      <trkpt lat="43.545200" lon="-5.661912">
        <ele>-80.033</ele>
        <time>2021-10-14T13:08:02Z</time>
      </trkpt>
      <trkpt lat="43.545145" lon="-5.661895">
        <ele>-79.936</ele>
        <time>2021-10-14T13:08:05Z</time>
      </trkpt>
      <trkpt lat="43.545094" lon="-5.661887">
        <ele>-79.953</ele>
        <time>2021-10-14T13:08:08Z</time>
      </trkpt>
      <trkpt lat="43.545039" lon="-5.661871">
        <ele>-79.995</ele>
        <time>2021-10-14T13:08:10Z</time>
      </trkpt>
      <trkpt lat="43.544979" lon="-5.661861">
        <ele>-79.964</ele>
        <time>2021-10-14T13:08:12Z</time>
      </trkpt>
      <trkpt lat="43.544926" lon="-5.661862">
        <ele>-79.946</ele>
        <time>2021-10-14T13:08:15Z</time>
      </trkpt>
      <trkpt lat="43.544970" lon="-5.661832">
        <ele>-79.988</ele>
        <time>2021-10-14T13:08:27Z</time>
      </trkpt>
      <trkpt lat="43.545036" lon="-5.661846">
        <ele>-79.916</ele>
        <time>2021-10-14T13:08:29Z</time>
      </trkpt>
      <trkpt lat="43.545093" lon="-5.661859">
        <ele>-79.908</ele>
        <time>2021-10-14T13:08:32Z</time>
      </trkpt>
      <trkpt lat="43.545148" lon="-5.661857">
        <ele>-79.912</ele>
        <time>2021-10-14T13:08:36Z</time>
      </trkpt>
      <trkpt lat="43.545121" lon="-5.661808">
        <ele>-80.220</ele>
        <time>2021-10-14T13:09:15Z</time>
      </trkpt>
      <trkpt lat="43.545054" lon="-5.661817">
        <ele>-80.298</ele>
        <time>2021-10-14T13:23:11Z</time>
      </trkpt>
      <trkpt lat="43.545091" lon="-5.661777">
        <ele>-80.245</ele>
        <time>2021-10-14T13:23:14Z</time>
      </trkpt>
      <trkpt lat="43.545032" lon="-5.661781">
        <ele>-75.428</ele>
        <time>2021-10-14T13:26:15Z</time>
      </trkpt>
      <trkpt lat="43.544976" lon="-5.661774">
        <ele>-75.465</ele>
        <time>2021-10-14T13:26:17Z</time>
      </trkpt>
      <trkpt lat="43.544935" lon="-5.661827">
        <ele>-75.247</ele>
        <time>2021-10-14T13:26:58Z</time>
      </trkpt>
      <trkpt lat="43.544864" lon="-5.661842">
        <ele>-75.266</ele>
        <time>2021-10-14T13:27:00Z</time>
      </trkpt>
      <trkpt lat="43.544797" lon="-5.661828">
        <ele>-75.265</ele>
        <time>2021-10-14T13:27:02Z</time>
      </trkpt>
      <trkpt lat="43.544736" lon="-5.661816">
        <ele>-75.268</ele>
        <time>2021-10-14T13:27:04Z</time>
      </trkpt>
      <trkpt lat="43.544685" lon="-5.661802">
        <ele>-75.014</ele>
        <time>2021-10-14T13:27:06Z</time>
      </trkpt>
      <trkpt lat="43.544639" lon="-5.661791">
        <ele>-75.208</ele>
        <time>2021-10-14T13:27:08Z</time>
      </trkpt>
      <trkpt lat="43.544594" lon="-5.661778">
        <ele>-74.824</ele>
        <time>2021-10-14T13:28:08Z</time>
      </trkpt>
      <trkpt lat="43.544521" lon="-5.661759">
        <ele>-74.822</ele>
        <time>2021-10-14T13:28:10Z</time>
      </trkpt>
      <trkpt lat="43.544457" lon="-5.661742">
        <ele>-74.880</ele>
        <time>2021-10-14T13:28:11Z</time>
      </trkpt>
      <trkpt lat="43.544291" lon="-5.661695">
        <ele>-74.877</ele>
        <time>2021-10-14T13:28:13Z</time>
      </trkpt>
      <trkpt lat="43.544205" lon="-5.661672">
        <ele>-74.880</ele>
        <time>2021-10-14T13:28:14Z</time>
      </trkpt>
      <trkpt lat="43.544050" lon="-5.661632">
        <ele>-74.847</ele>
        <time>2021-10-14T13:28:16Z</time>
      </trkpt>
      <trkpt lat="43.543976" lon="-5.661608">
        <ele>-74.889</ele>
        <time>2021-10-14T13:28:17Z</time>
      </trkpt>
      <trkpt lat="43.543849" lon="-5.661545">
        <ele>-74.878</ele>
        <time>2021-10-14T13:28:19Z</time>
      </trkpt>
      <trkpt lat="43.543782" lon="-5.661510">
        <ele>-74.838</ele>
        <time>2021-10-14T13:28:20Z</time>
      </trkpt>
      <trkpt lat="43.543637" lon="-5.661444">
        <ele>-74.770</ele>
        <time>2021-10-14T13:28:22Z</time>
      </trkpt>
      <trkpt lat="43.543496" lon="-5.661377">
        <ele>-74.717</ele>
        <time>2021-10-14T13:28:24Z</time>
      </trkpt>
      <trkpt lat="43.543359" lon="-5.661311">
        <ele>-74.708</ele>
        <time>2021-10-14T13:28:26Z</time>
      </trkpt>
      <trkpt lat="43.543231" lon="-5.661261">
        <ele>-74.731</ele>
        <time>2021-10-14T13:28:28Z</time>
      </trkpt>
      <trkpt lat="43.543169" lon="-5.661240">
        <ele>-74.759</ele>
        <time>2021-10-14T13:28:29Z</time>
      </trkpt>
      <trkpt lat="43.543045" lon="-5.661182">
        <ele>-74.777</ele>
        <time>2021-10-14T13:28:31Z</time>
      </trkpt>
      <trkpt lat="43.542985" lon="-5.661155">
        <ele>-74.754</ele>
        <time>2021-10-14T13:28:32Z</time>
      </trkpt>
      <trkpt lat="43.542891" lon="-5.661127">
        <ele>-74.737</ele>
        <time>2021-10-14T13:28:34Z</time>
      </trkpt>
      <trkpt lat="43.542829" lon="-5.661103">
        <ele>-74.744</ele>
        <time>2021-10-14T13:28:36Z</time>
      </trkpt>
      <trkpt lat="43.542775" lon="-5.661089">
        <ele>-74.536</ele>
        <time>2021-10-14T13:28:38Z</time>
      </trkpt>
      <trkpt lat="43.542730" lon="-5.661104">
        <ele>-74.335</ele>
        <time>2021-10-14T13:29:12Z</time>
      </trkpt>
      <trkpt lat="43.542669" lon="-5.661088">
        <ele>-74.393</ele>
        <time>2021-10-14T13:29:14Z</time>
      </trkpt>
      <trkpt lat="43.542560" lon="-5.661069">
        <ele>-74.265</ele>
        <time>2021-10-14T13:29:16Z</time>
      </trkpt>
      <trkpt lat="43.542439" lon="-5.661024">
        <ele>-74.221</ele>
        <time>2021-10-14T13:29:18Z</time>
      </trkpt>
      <trkpt lat="43.542376" lon="-5.660987">
        <ele>-74.208</ele>
        <time>2021-10-14T13:29:19Z</time>
      </trkpt>
      <trkpt lat="43.542313" lon="-5.660957">
        <ele>-74.257</ele>
        <time>2021-10-14T13:29:20Z</time>
      </trkpt>
      <trkpt lat="43.542213" lon="-5.660914">
        <ele>-74.285</ele>
        <time>2021-10-14T13:29:22Z</time>
      </trkpt>
      <trkpt lat="43.542148" lon="-5.660882">
        <ele>-74.223</ele>
        <time>2021-10-14T13:29:23Z</time>
      </trkpt>
      <trkpt lat="43.542118" lon="-5.660825">
        <ele>-74.240</ele>
        <time>2021-10-14T13:29:25Z</time>
      </trkpt>
      <trkpt lat="43.542050" lon="-5.660790">
        <ele>-74.263</ele>
        <time>2021-10-14T13:29:26Z</time>
      </trkpt>
      <trkpt lat="43.542003" lon="-5.660757">
        <ele>-74.230</ele>
        <time>2021-10-14T13:29:27Z</time>
      </trkpt>
      <trkpt lat="43.541972" lon="-5.660711">
        <ele>-74.212</ele>
        <time>2021-10-14T13:29:29Z</time>
      </trkpt>
      <trkpt lat="43.541991" lon="-5.660646">
        <ele>-74.261</ele>
        <time>2021-10-14T13:29:36Z</time>
      </trkpt>
      <trkpt lat="43.542010" lon="-5.660560">
        <ele>-74.229</ele>
        <time>2021-10-14T13:29:37Z</time>
      </trkpt>
      <trkpt lat="43.542036" lon="-5.660452">
        <ele>-74.200</ele>
        <time>2021-10-14T13:29:38Z</time>
      </trkpt>
      <trkpt lat="43.542099" lon="-5.660170">
        <ele>-74.220</ele>
        <time>2021-10-14T13:29:40Z</time>
      </trkpt>
      <trkpt lat="43.542157" lon="-5.659879">
        <ele>-74.208</ele>
        <time>2021-10-14T13:29:42Z</time>
      </trkpt>
      <trkpt lat="43.542177" lon="-5.659734">
        <ele>-74.250</ele>
        <time>2021-10-14T13:29:43Z</time>
      </trkpt>
      <trkpt lat="43.542184" lon="-5.659596">
        <ele>-74.258</ele>
        <time>2021-10-14T13:29:44Z</time>
      </trkpt>
      <trkpt lat="43.542160" lon="-5.659371">
        <ele>-74.266</ele>
        <time>2021-10-14T13:29:46Z</time>
      </trkpt>
      <trkpt lat="43.542119" lon="-5.659189">
        <ele>-74.233</ele>
        <time>2021-10-14T13:29:48Z</time>
      </trkpt>
      <trkpt lat="43.542098" lon="-5.659124">
        <ele>-74.286</ele>
        <time>2021-10-14T13:29:49Z</time>
      </trkpt>
      <trkpt lat="43.542068" lon="-5.659050">
        <ele>-74.233</ele>
        <time>2021-10-14T13:29:51Z</time>
      </trkpt>
      <trkpt lat="43.542002" lon="-5.658956">
        <ele>-73.985</ele>
        <time>2021-10-14T13:30:25Z</time>
      </trkpt>
      <trkpt lat="43.541953" lon="-5.658896">
        <ele>-73.934</ele>
        <time>2021-10-14T13:30:26Z</time>
      </trkpt>
      <trkpt lat="43.541830" lon="-5.658806">
        <ele>-73.948</ele>
        <time>2021-10-14T13:30:28Z</time>
      </trkpt>
      <trkpt lat="43.541729" lon="-5.658748">
        <ele>-73.961</ele>
        <time>2021-10-14T13:30:30Z</time>
      </trkpt>
      <trkpt lat="43.541610" lon="-5.658697">
        <ele>-73.917</ele>
        <time>2021-10-14T13:30:32Z</time>
      </trkpt>
      <trkpt lat="43.541504" lon="-5.658650">
        <ele>-73.908</ele>
        <time>2021-10-14T13:30:34Z</time>
      </trkpt>
      <trkpt lat="43.541441" lon="-5.658574">
        <ele>-73.922</ele>
        <time>2021-10-14T13:30:36Z</time>
      </trkpt>
      <trkpt lat="43.541366" lon="-5.658484">
        <ele>-73.930</ele>
        <time>2021-10-14T13:30:38Z</time>
      </trkpt>
      <trkpt lat="43.541243" lon="-5.658458">
        <ele>-73.978</ele>
        <time>2021-10-14T13:30:40Z</time>
      </trkpt>
      <trkpt lat="43.541181" lon="-5.658461">
        <ele>-73.935</ele>
        <time>2021-10-14T13:30:41Z</time>
      </trkpt>
      <trkpt lat="43.541127" lon="-5.658467">
        <ele>-73.958</ele>
        <time>2021-10-14T13:30:42Z</time>
      </trkpt>
      <trkpt lat="43.541025" lon="-5.658460">
        <ele>-73.935</ele>
        <time>2021-10-14T13:30:44Z</time>
      </trkpt>
      <trkpt lat="43.540951" lon="-5.658435">
        <ele>-73.967</ele>
        <time>2021-10-14T13:30:46Z</time>
      </trkpt>
      <trkpt lat="43.540853" lon="-5.658351">
        <ele>-73.966</ele>
        <time>2021-10-14T13:30:48Z</time>
      </trkpt>
      <trkpt lat="43.540811" lon="-5.658297">
        <ele>-73.956</ele>
        <time>2021-10-14T13:30:49Z</time>
      </trkpt>
      <trkpt lat="43.540774" lon="-5.658230">
        <ele>-73.959</ele>
        <time>2021-10-14T13:30:50Z</time>
      </trkpt>
      <trkpt lat="43.540718" lon="-5.658071">
        <ele>-73.914</ele>
        <time>2021-10-14T13:30:52Z</time>
      </trkpt>
      <trkpt lat="43.540668" lon="-5.657902">
        <ele>-73.908</ele>
        <time>2021-10-14T13:30:54Z</time>
      </trkpt>
      <trkpt lat="43.540644" lon="-5.657828">
        <ele>-73.923</ele>
        <time>2021-10-14T13:30:55Z</time>
      </trkpt>
      <trkpt lat="43.540614" lon="-5.657761">
        <ele>-73.951</ele>
        <time>2021-10-14T13:30:56Z</time>
      </trkpt>
      <trkpt lat="43.540549" lon="-5.657632">
        <ele>-73.979</ele>
        <time>2021-10-14T13:30:58Z</time>
      </trkpt>
      <trkpt lat="43.540514" lon="-5.657561">
        <ele>-73.966</ele>
        <time>2021-10-14T13:30:59Z</time>
      </trkpt>
      <trkpt lat="43.540477" lon="-5.657485">
        <ele>-73.999</ele>
        <time>2021-10-14T13:31:00Z</time>
      </trkpt>
      <trkpt lat="43.540409" lon="-5.657343">
        <ele>-73.956</ele>
        <time>2021-10-14T13:31:02Z</time>
      </trkpt>
      <trkpt lat="43.540347" lon="-5.657213">
        <ele>-73.888</ele>
        <time>2021-10-14T13:31:04Z</time>
      </trkpt>
      <trkpt lat="43.540301" lon="-5.657037">
        <ele>-73.877</ele>
        <time>2021-10-14T13:31:06Z</time>
      </trkpt>
      <trkpt lat="43.540236" lon="-5.656865">
        <ele>-73.911</ele>
        <time>2021-10-14T13:31:08Z</time>
      </trkpt>
      <trkpt lat="43.540169" lon="-5.656718">
        <ele>-73.921</ele>
        <time>2021-10-14T13:31:10Z</time>
      </trkpt>
      <trkpt lat="43.540101" lon="-5.656587">
        <ele>-73.903</ele>
        <time>2021-10-14T13:31:12Z</time>
      </trkpt>
      <trkpt lat="43.540032" lon="-5.656456">
        <ele>-73.908</ele>
        <time>2021-10-14T13:31:14Z</time>
      </trkpt>
      <trkpt lat="43.539972" lon="-5.656330">
        <ele>-73.949</ele>
        <time>2021-10-14T13:31:16Z</time>
      </trkpt>
      <trkpt lat="43.539917" lon="-5.656210">
        <ele>-73.927</ele>
        <time>2021-10-14T13:31:18Z</time>
      </trkpt>
      <trkpt lat="43.539885" lon="-5.656125">
        <ele>-73.995</ele>
        <time>2021-10-14T13:31:20Z</time>
      </trkpt>
      <trkpt lat="43.539855" lon="-5.656056">
        <ele>-72.412</ele>
        <time>2021-10-14T13:31:22Z</time>
      </trkpt>
      <trkpt lat="43.539824" lon="-5.655988">
        <ele>-69.715</ele>
        <time>2021-10-14T13:31:25Z</time>
      </trkpt>
      <trkpt lat="43.539785" lon="-5.655913">
        <ele>-69.772</ele>
        <time>2021-10-14T13:31:28Z</time>
      </trkpt>
      <trkpt lat="43.539744" lon="-5.655833">
        <ele>-69.754</ele>
        <time>2021-10-14T13:31:30Z</time>
      </trkpt>
      <trkpt lat="43.539711" lon="-5.655751">
        <ele>-69.723</ele>
        <time>2021-10-14T13:31:32Z</time>
      </trkpt>
      <trkpt lat="43.539691" lon="-5.655681">
        <ele>-69.758</ele>
        <time>2021-10-14T13:31:34Z</time>
      </trkpt>
      <trkpt lat="43.539714" lon="-5.655614">
        <ele>-69.552</ele>
        <time>2021-10-14T13:31:37Z</time>
      </trkpt>
      <trkpt lat="43.539765" lon="-5.655571">
        <ele>-69.417</ele>
        <time>2021-10-14T13:31:39Z</time>
      </trkpt>
      <trkpt lat="43.539805" lon="-5.655539">
        <ele>-69.408</ele>
        <time>2021-10-14T13:31:40Z</time>
      </trkpt>
      <trkpt lat="43.539870" lon="-5.655481">
        <ele>-69.353</ele>
        <time>2021-10-14T13:31:42Z</time>
      </trkpt>
      <trkpt lat="43.539949" lon="-5.655411">
        <ele>-69.241</ele>
        <time>2021-10-14T13:31:44Z</time>
      </trkpt>
      <trkpt lat="43.540023" lon="-5.655346">
        <ele>-69.219</ele>
        <time>2021-10-14T13:31:46Z</time>
      </trkpt>
      <trkpt lat="43.540067" lon="-5.655308">
        <ele>-69.276</ele>
        <time>2021-10-14T13:31:47Z</time>
      </trkpt>
      <trkpt lat="43.540149" lon="-5.655230">
        <ele>-69.319</ele>
        <time>2021-10-14T13:31:49Z</time>
      </trkpt>
      <trkpt lat="43.540199" lon="-5.655180">
        <ele>-69.386</ele>
        <time>2021-10-14T13:31:50Z</time>
      </trkpt>
      <trkpt lat="43.540274" lon="-5.655103">
        <ele>-69.378</ele>
        <time>2021-10-14T13:31:52Z</time>
      </trkpt>
      <trkpt lat="43.540325" lon="-5.655063">
        <ele>-69.367</ele>
        <time>2021-10-14T13:31:54Z</time>
      </trkpt>
      <trkpt lat="43.540383" lon="-5.655059">
        <ele>-69.242</ele>
        <time>2021-10-14T13:31:56Z</time>
      </trkpt>
      <trkpt lat="43.540451" lon="-5.655126">
        <ele>-69.222</ele>
        <time>2021-10-14T13:31:58Z</time>
      </trkpt>
      <trkpt lat="43.540530" lon="-5.655244">
        <ele>-69.214</ele>
        <time>2021-10-14T13:32:00Z</time>
      </trkpt>
      <trkpt lat="43.540595" lon="-5.655322">
        <ele>-69.208</ele>
        <time>2021-10-14T13:32:02Z</time>
      </trkpt>
      <trkpt lat="43.540644" lon="-5.655424">
        <ele>-69.292</ele>
        <time>2021-10-14T13:32:04Z</time>
      </trkpt>
      <trkpt lat="43.540671" lon="-5.655486">
        <ele>-69.260</ele>
        <time>2021-10-14T13:32:05Z</time>
      </trkpt>
      <trkpt lat="43.540699" lon="-5.655550">
        <ele>-69.288</ele>
        <time>2021-10-14T13:32:06Z</time>
      </trkpt>
      <trkpt lat="43.540746" lon="-5.655652">
        <ele>-69.285</ele>
        <time>2021-10-14T13:32:08Z</time>
      </trkpt>
      <trkpt lat="43.540794" lon="-5.655726">
        <ele>-69.238</ele>
        <time>2021-10-14T13:32:10Z</time>
      </trkpt>
      <trkpt lat="43.540770" lon="-5.655605">
        <ele>-69.435</ele>
        <time>2021-10-14T13:32:16Z</time>
      </trkpt>
      <trkpt lat="43.540752" lon="-5.655537">
        <ele>-69.497</ele>
        <time>2021-10-14T13:32:17Z</time>
      </trkpt>
      <trkpt lat="43.540724" lon="-5.655416">
        <ele>-69.436</ele>
        <time>2021-10-14T13:32:19Z</time>
      </trkpt>
      <trkpt lat="43.540715" lon="-5.655310">
        <ele>-69.388</ele>
        <time>2021-10-14T13:32:21Z</time>
      </trkpt>
      <trkpt lat="43.540709" lon="-5.655192">
        <ele>-69.324</ele>
        <time>2021-10-14T13:32:23Z</time>
      </trkpt>
      <trkpt lat="43.540698" lon="-5.655044">
        <ele>-76.426</ele>
        <time>2021-10-14T13:32:25Z</time>
      </trkpt>
      <trkpt lat="43.540693" lon="-5.654955">
        <ele>-77.208</ele>
        <time>2021-10-14T13:32:26Z</time>
      </trkpt>
      <trkpt lat="43.540682" lon="-5.654771">
        <ele>-76.936</ele>
        <time>2021-10-14T13:32:28Z</time>
      </trkpt>
      <trkpt lat="43.540672" lon="-5.654670">
        <ele>-76.924</ele>
        <time>2021-10-14T13:32:29Z</time>
      </trkpt>
      <trkpt lat="43.540645" lon="-5.654472">
        <ele>-77.932</ele>
        <time>2021-10-14T13:32:31Z</time>
      </trkpt>
      <trkpt lat="43.540635" lon="-5.654367">
        <ele>-77.499</ele>
        <time>2021-10-14T13:32:32Z</time>
      </trkpt>
      <trkpt lat="43.540612" lon="-5.654194">
        <ele>-78.962</ele>
        <time>2021-10-14T13:32:34Z</time>
      </trkpt>
      <trkpt lat="43.540593" lon="-5.654058">
        <ele>-78.759</ele>
        <time>2021-10-14T13:32:36Z</time>
      </trkpt>
      <trkpt lat="43.540578" lon="-5.653969">
        <ele>-78.591</ele>
        <time>2021-10-14T13:32:38Z</time>
      </trkpt>
      <trkpt lat="43.540565" lon="-5.653899">
        <ele>-79.410</ele>
        <time>2021-10-14T13:32:40Z</time>
      </trkpt>
      <trkpt lat="43.540540" lon="-5.653847">
        <ele>-79.775</ele>
        <time>2021-10-14T13:32:44Z</time>
      </trkpt>
      <trkpt lat="43.540544" lon="-5.653729">
        <ele>-79.528</ele>
        <time>2021-10-14T13:33:00Z</time>
      </trkpt>
      <trkpt lat="43.540540" lon="-5.653638">
        <ele>-79.520</ele>
        <time>2021-10-14T13:33:01Z</time>
      </trkpt>
      <trkpt lat="43.540534" lon="-5.653532">
        <ele>-79.408</ele>
        <time>2021-10-14T13:33:02Z</time>
      </trkpt>
      <trkpt lat="43.540525" lon="-5.653353">
        <ele>-79.425</ele>
        <time>2021-10-14T13:33:04Z</time>
      </trkpt>
      <trkpt lat="43.540517" lon="-5.653275">
        <ele>-79.493</ele>
        <time>2021-10-14T13:33:05Z</time>
      </trkpt>
      <trkpt lat="43.540509" lon="-5.653197">
        <ele>-79.451</ele>
        <time>2021-10-14T13:33:06Z</time>
      </trkpt>
      <trkpt lat="43.540492" lon="-5.653034">
        <ele>-79.498</ele>
        <time>2021-10-14T13:33:08Z</time>
      </trkpt>
      <trkpt lat="43.540478" lon="-5.652852">
        <ele>-79.411</ele>
        <time>2021-10-14T13:33:10Z</time>
      </trkpt>
      <trkpt lat="43.540463" lon="-5.652642">
        <ele>-79.438</ele>
        <time>2021-10-14T13:33:12Z</time>
      </trkpt>
      <trkpt lat="43.540456" lon="-5.652536">
        <ele>-79.410</ele>
        <time>2021-10-14T13:33:13Z</time>
      </trkpt>
      <trkpt lat="43.540448" lon="-5.652429">
        <ele>-79.449</ele>
        <time>2021-10-14T13:33:14Z</time>
      </trkpt>
      <trkpt lat="43.540431" lon="-5.652235">
        <ele>-79.467</ele>
        <time>2021-10-14T13:33:16Z</time>
      </trkpt>
      <trkpt lat="43.540419" lon="-5.652039">
        <ele>-79.481</ele>
        <time>2021-10-14T13:33:18Z</time>
      </trkpt>
      <trkpt lat="43.540412" lon="-5.651937">
        <ele>-79.419</ele>
        <time>2021-10-14T13:33:19Z</time>
      </trkpt>
      <trkpt lat="43.540405" lon="-5.651832">
        <ele>-79.408</ele>
        <time>2021-10-14T13:33:20Z</time>
      </trkpt>
      <trkpt lat="43.540391" lon="-5.651631">
        <ele>-79.424</ele>
        <time>2021-10-14T13:33:22Z</time>
      </trkpt>
      <trkpt lat="43.540380" lon="-5.651533">
        <ele>-79.482</ele>
        <time>2021-10-14T13:33:23Z</time>
      </trkpt>
      <trkpt lat="43.540371" lon="-5.651438">
        <ele>-79.560</ele>
        <time>2021-10-14T13:33:24Z</time>
      </trkpt>
      <trkpt lat="43.540357" lon="-5.651346">
        <ele>-79.787</ele>
        <time>2021-10-14T13:33:25Z</time>
      </trkpt>
      <trkpt lat="43.540344" lon="-5.651255">
        <ele>-79.720</ele>
        <time>2021-10-14T13:33:26Z</time>
      </trkpt>
      <trkpt lat="43.540325" lon="-5.651072">
        <ele>-79.757</ele>
        <time>2021-10-14T13:33:28Z</time>
      </trkpt>
      <trkpt lat="43.540305" lon="-5.650855">
        <ele>-79.779</ele>
        <time>2021-10-14T13:33:30Z</time>
      </trkpt>
      <trkpt lat="43.540281" lon="-5.650625">
        <ele>-79.738</ele>
        <time>2021-10-14T13:33:32Z</time>
      </trkpt>
      <trkpt lat="43.540261" lon="-5.650414">
        <ele>-79.725</ele>
        <time>2021-10-14T13:33:34Z</time>
      </trkpt>
      <trkpt lat="43.540242" lon="-5.650211">
        <ele>-79.726</ele>
        <time>2021-10-14T13:33:36Z</time>
      </trkpt>
      <trkpt lat="43.540235" lon="-5.650113">
        <ele>-79.708</ele>
        <time>2021-10-14T13:33:37Z</time>
      </trkpt>
      <trkpt lat="43.540228" lon="-5.650009">
        <ele>-79.708</ele>
        <time>2021-10-14T13:33:38Z</time>
      </trkpt>
      <trkpt lat="43.540212" lon="-5.649809">
        <ele>-79.750</ele>
        <time>2021-10-14T13:33:40Z</time>
      </trkpt>
      <trkpt lat="43.540207" lon="-5.649702">
        <ele>-79.538</ele>
        <time>2021-10-14T13:33:41Z</time>
      </trkpt>
      <trkpt lat="43.540201" lon="-5.649593">
        <ele>-79.516</ele>
        <time>2021-10-14T13:33:42Z</time>
      </trkpt>
      <trkpt lat="43.540187" lon="-5.649381">
        <ele>-79.593</ele>
        <time>2021-10-14T13:33:44Z</time>
      </trkpt>
      <trkpt lat="43.540178" lon="-5.649211">
        <ele>-79.546</ele>
        <time>2021-10-14T13:33:46Z</time>
      </trkpt>
      <trkpt lat="43.540166" lon="-5.649027">
        <ele>-79.513</ele>
        <time>2021-10-14T13:33:48Z</time>
      </trkpt>
      <trkpt lat="43.540159" lon="-5.648924">
        <ele>-79.495</ele>
        <time>2021-10-14T13:33:49Z</time>
      </trkpt>
      <trkpt lat="43.540152" lon="-5.648817">
        <ele>-79.444</ele>
        <time>2021-10-14T13:33:50Z</time>
      </trkpt>
      <trkpt lat="43.540144" lon="-5.648640">
        <ele>-79.431</ele>
        <time>2021-10-14T13:33:52Z</time>
      </trkpt>
      <trkpt lat="43.540140" lon="-5.648542">
        <ele>-78.961</ele>
        <time>2021-10-14T13:33:53Z</time>
      </trkpt>
      <trkpt lat="43.540135" lon="-5.648439">
        <ele>-78.207</ele>
        <time>2021-10-14T13:33:54Z</time>
      </trkpt>
      <trkpt lat="43.540127" lon="-5.648226">
        <ele>-77.908</ele>
        <time>2021-10-14T13:33:56Z</time>
      </trkpt>
      <trkpt lat="43.540117" lon="-5.648040">
        <ele>-77.781</ele>
        <time>2021-10-14T13:33:58Z</time>
      </trkpt>
      <trkpt lat="43.540114" lon="-5.647945">
        <ele>-78.579</ele>
        <time>2021-10-14T13:33:59Z</time>
      </trkpt>
      <trkpt lat="43.540112" lon="-5.647855">
        <ele>-76.917</ele>
        <time>2021-10-14T13:34:00Z</time>
      </trkpt>
      <trkpt lat="43.540108" lon="-5.647760">
        <ele>-78.024</ele>
        <time>2021-10-14T13:34:01Z</time>
      </trkpt>
      <trkpt lat="43.540096" lon="-5.647553">
        <ele>-77.437</ele>
        <time>2021-10-14T13:34:03Z</time>
      </trkpt>
      <trkpt lat="43.540090" lon="-5.647436">
        <ele>-77.764</ele>
        <time>2021-10-14T13:34:04Z</time>
      </trkpt>
      <trkpt lat="43.540078" lon="-5.647193">
        <ele>-78.486</ele>
        <time>2021-10-14T13:34:06Z</time>
      </trkpt>
      <trkpt lat="43.540069" lon="-5.647079">
        <ele>-77.945</ele>
        <time>2021-10-14T13:34:07Z</time>
      </trkpt>
      <trkpt lat="43.540057" lon="-5.646966">
        <ele>-78.498</ele>
        <time>2021-10-14T13:34:08Z</time>
      </trkpt>
      <trkpt lat="43.540042" lon="-5.646756">
        <ele>-77.715</ele>
        <time>2021-10-14T13:34:10Z</time>
      </trkpt>
      <trkpt lat="43.540036" lon="-5.646644">
        <ele>-78.426</ele>
        <time>2021-10-14T13:34:11Z</time>
      </trkpt>
      <trkpt lat="43.540028" lon="-5.646528">
        <ele>-78.008</ele>
        <time>2021-10-14T13:34:12Z</time>
      </trkpt>
      <trkpt lat="43.540008" lon="-5.646307">
        <ele>-77.777</ele>
        <time>2021-10-14T13:34:14Z</time>
      </trkpt>
      <trkpt lat="43.539990" lon="-5.646107">
        <ele>-77.575</ele>
        <time>2021-10-14T13:34:16Z</time>
      </trkpt>
      <trkpt lat="43.539982" lon="-5.646006">
        <ele>-79.953</ele>
        <time>2021-10-14T13:34:17Z</time>
      </trkpt>
      <trkpt lat="43.539975" lon="-5.645905">
        <ele>-78.770</ele>
        <time>2021-10-14T13:34:18Z</time>
      </trkpt>
      <trkpt lat="43.539971" lon="-5.645689">
        <ele>-78.263</ele>
        <time>2021-10-14T13:34:20Z</time>
      </trkpt>
      <trkpt lat="43.539968" lon="-5.645470">
        <ele>-78.560</ele>
        <time>2021-10-14T13:34:22Z</time>
      </trkpt>
      <trkpt lat="43.539961" lon="-5.645362">
        <ele>-79.542</ele>
        <time>2021-10-14T13:34:23Z</time>
      </trkpt>
      <trkpt lat="43.539955" lon="-5.645265">
        <ele>-79.071</ele>
        <time>2021-10-14T13:34:24Z</time>
      </trkpt>
      <trkpt lat="43.539949" lon="-5.645112">
        <ele>-78.466</ele>
        <time>2021-10-14T13:34:26Z</time>
      </trkpt>
      <trkpt lat="43.539946" lon="-5.645035">
        <ele>-78.229</ele>
        <time>2021-10-14T13:34:28Z</time>
      </trkpt>
      <trkpt lat="43.539938" lon="-5.644970">
        <ele>-78.421</ele>
        <time>2021-10-14T13:34:37Z</time>
      </trkpt>
      <trkpt lat="43.539917" lon="-5.644872">
        <ele>-78.408</ele>
        <time>2021-10-14T13:34:42Z</time>
      </trkpt>
      <trkpt lat="43.539860" lon="-5.644801">
        <ele>-78.264</ele>
        <time>2021-10-14T13:34:44Z</time>
      </trkpt>
      <trkpt lat="43.539801" lon="-5.644702">
        <ele>-78.272</ele>
        <time>2021-10-14T13:34:46Z</time>
      </trkpt>
      <trkpt lat="43.539788" lon="-5.644522">
        <ele>-78.270</ele>
        <time>2021-10-14T13:34:48Z</time>
      </trkpt>
      <trkpt lat="43.539822" lon="-5.644441">
        <ele>-78.287</ele>
        <time>2021-10-14T13:34:49Z</time>
      </trkpt>
      <trkpt lat="43.539884" lon="-5.644376">
        <ele>-78.290</ele>
        <time>2021-10-14T13:34:50Z</time>
      </trkpt>
      <trkpt lat="43.540054" lon="-5.644345">
        <ele>-78.267</ele>
        <time>2021-10-14T13:34:52Z</time>
      </trkpt>
      <trkpt lat="43.540220" lon="-5.644367">
        <ele>-78.449</ele>
        <time>2021-10-14T13:34:54Z</time>
      </trkpt>
      <trkpt lat="43.540381" lon="-5.644316">
        <ele>-78.288</ele>
        <time>2021-10-14T13:34:56Z</time>
      </trkpt>
      <trkpt lat="43.540523" lon="-5.644202">
        <ele>-78.258</ele>
        <time>2021-10-14T13:34:58Z</time>
      </trkpt>
      <trkpt lat="43.540643" lon="-5.644096">
        <ele>-78.252</ele>
        <time>2021-10-14T13:35:00Z</time>
      </trkpt>
      <trkpt lat="43.540734" lon="-5.644018">
        <ele>-78.217</ele>
        <time>2021-10-14T13:35:02Z</time>
      </trkpt>
      <trkpt lat="43.540800" lon="-5.643961">
        <ele>-78.208</ele>
        <time>2021-10-14T13:35:04Z</time>
      </trkpt>
      <trkpt lat="43.540849" lon="-5.643914">
        <ele>-78.243</ele>
        <time>2021-10-14T13:35:06Z</time>
      </trkpt>
      <trkpt lat="43.540893" lon="-5.643867">
        <ele>-78.231</ele>
        <time>2021-10-14T13:35:09Z</time>
      </trkpt>
      <trkpt lat="43.540929" lon="-5.643821">
        <ele>-78.289</ele>
        <time>2021-10-14T13:35:12Z</time>
      </trkpt>
      <trkpt lat="43.540963" lon="-5.643776">
        <ele>-78.236</ele>
        <time>2021-10-14T13:35:16Z</time>
      </trkpt>
      <trkpt lat="43.540927" lon="-5.643820">
        <ele>-78.279</ele>
        <time>2021-10-14T13:35:28Z</time>
      </trkpt>
      <trkpt lat="43.540893" lon="-5.643864">
        <ele>-78.296</ele>
        <time>2021-10-14T13:35:38Z</time>
      </trkpt>
      <trkpt lat="43.540951" lon="-5.643816">
        <ele>-78.478</ele>
        <time>2021-10-14T13:35:40Z</time>
      </trkpt>
      <trkpt lat="43.541006" lon="-5.643772">
        <ele>-78.237</ele>
        <time>2021-10-14T13:35:41Z</time>
      </trkpt>
      <trkpt lat="43.541071" lon="-5.643718">
        <ele>-78.223</ele>
        <time>2021-10-14T13:35:42Z</time>
      </trkpt>
      <trkpt lat="43.541214" lon="-5.643597">
        <ele>-78.283</ele>
        <time>2021-10-14T13:35:44Z</time>
      </trkpt>
      <trkpt lat="43.541337" lon="-5.643443">
        <ele>-78.211</ele>
        <time>2021-10-14T13:35:46Z</time>
      </trkpt>
      <trkpt lat="43.541391" lon="-5.643330">
        <ele>-78.208</ele>
        <time>2021-10-14T13:35:47Z</time>
      </trkpt>
      <trkpt lat="43.541480" lon="-5.643084">
        <ele>-78.210</ele>
        <time>2021-10-14T13:35:49Z</time>
      </trkpt>
      <trkpt lat="43.541524" lon="-5.642950">
        <ele>-78.258</ele>
        <time>2021-10-14T13:35:50Z</time>
      </trkpt>
      <trkpt lat="43.541601" lon="-5.642679">
        <ele>-78.286</ele>
        <time>2021-10-14T13:35:52Z</time>
      </trkpt>
      <trkpt lat="43.541642" lon="-5.642535">
        <ele>-78.283</ele>
        <time>2021-10-14T13:35:53Z</time>
      </trkpt>
      <trkpt lat="43.541686" lon="-5.642392">
        <ele>-78.256</ele>
        <time>2021-10-14T13:35:54Z</time>
      </trkpt>
      <trkpt lat="43.541782" lon="-5.642071">
        <ele>-78.263</ele>
        <time>2021-10-14T13:35:56Z</time>
      </trkpt>
      <trkpt lat="43.541883" lon="-5.641749">
        <ele>-78.255</ele>
        <time>2021-10-14T13:35:58Z</time>
      </trkpt>
      <trkpt lat="43.541934" lon="-5.641608">
        <ele>-78.224</ele>
        <time>2021-10-14T13:35:59Z</time>
      </trkpt>
      <trkpt lat="43.541980" lon="-5.641472">
        <ele>-78.231</ele>
        <time>2021-10-14T13:36:00Z</time>
      </trkpt>
      <trkpt lat="43.542068" lon="-5.641136">
        <ele>-78.261</ele>
        <time>2021-10-14T13:36:02Z</time>
      </trkpt>
      <trkpt lat="43.542112" lon="-5.640729">
        <ele>-78.207</ele>
        <time>2021-10-14T13:36:04Z</time>
      </trkpt>
      <trkpt lat="43.542139" lon="-5.640319">
        <ele>-78.208</ele>
        <time>2021-10-14T13:36:06Z</time>
      </trkpt>
      <trkpt lat="43.542155" lon="-5.640108">
        <ele>-78.251</ele>
        <time>2021-10-14T13:36:07Z</time>
      </trkpt>
      <trkpt lat="43.542174" lon="-5.639891">
        <ele>-78.239</ele>
        <time>2021-10-14T13:36:08Z</time>
      </trkpt>
      <trkpt lat="43.542195" lon="-5.639495">
        <ele>-78.277</ele>
        <time>2021-10-14T13:36:10Z</time>
      </trkpt>
      <trkpt lat="43.542193" lon="-5.639280">
        <ele>-78.214</ele>
        <time>2021-10-14T13:36:11Z</time>
      </trkpt>
      <trkpt lat="43.542148" lon="-5.638829">
        <ele>-78.287</ele>
        <time>2021-10-14T13:36:13Z</time>
      </trkpt>
      <trkpt lat="43.542109" lon="-5.638588">
        <ele>-78.034</ele>
        <time>2021-10-14T13:36:14Z</time>
      </trkpt>
      <trkpt lat="43.542036" lon="-5.638151">
        <ele>-77.976</ele>
        <time>2021-10-14T13:36:16Z</time>
      </trkpt>
      <trkpt lat="43.541957" lon="-5.637703">
        <ele>-78.025</ele>
        <time>2021-10-14T13:36:18Z</time>
      </trkpt>
      <trkpt lat="43.541883" lon="-5.637271">
        <ele>-78.078</ele>
        <time>2021-10-14T13:36:20Z</time>
      </trkpt>
      <trkpt lat="43.541833" lon="-5.636910">
        <ele>-78.033</ele>
        <time>2021-10-14T13:36:22Z</time>
      </trkpt>
      <trkpt lat="43.541817" lon="-5.636717">
        <ele>-78.026</ele>
        <time>2021-10-14T13:36:23Z</time>
      </trkpt>
      <trkpt lat="43.541831" lon="-5.636296">
        <ele>-78.008</ele>
        <time>2021-10-14T13:36:25Z</time>
      </trkpt>
      <trkpt lat="43.541855" lon="-5.636065">
        <ele>-78.275</ele>
        <time>2021-10-14T13:36:26Z</time>
      </trkpt>
      <trkpt lat="43.541905" lon="-5.635647">
        <ele>-78.213</ele>
        <time>2021-10-14T13:36:28Z</time>
      </trkpt>
      <trkpt lat="43.541925" lon="-5.635450">
        <ele>-78.251</ele>
        <time>2021-10-14T13:36:29Z</time>
      </trkpt>
      <trkpt lat="43.541964" lon="-5.635049">
        <ele>-78.238</ele>
        <time>2021-10-14T13:36:31Z</time>
      </trkpt>
      <trkpt lat="43.541984" lon="-5.634831">
        <ele>-78.211</ele>
        <time>2021-10-14T13:36:32Z</time>
      </trkpt>
      <trkpt lat="43.542012" lon="-5.634478">
        <ele>-78.258</ele>
        <time>2021-10-14T13:36:34Z</time>
      </trkpt>
      <trkpt lat="43.542025" lon="-5.634317">
        <ele>-78.230</ele>
        <time>2021-10-14T13:36:35Z</time>
      </trkpt>
      <trkpt lat="43.542035" lon="-5.634172">
        <ele>-78.249</ele>
        <time>2021-10-14T13:36:36Z</time>
      </trkpt>
      <trkpt lat="43.542055" lon="-5.633900">
        <ele>-72.898</ele>
        <time>2021-10-14T13:36:38Z</time>
      </trkpt>
      <trkpt lat="43.542074" lon="-5.633596">
        <ele>-70.415</ele>
        <time>2021-10-14T13:36:40Z</time>
      </trkpt>
      <trkpt lat="43.542043" lon="-5.633212">
        <ele>-69.526</ele>
        <time>2021-10-14T13:36:42Z</time>
      </trkpt>
      <trkpt lat="43.541917" lon="-5.632821">
        <ele>-69.408</ele>
        <time>2021-10-14T13:36:44Z</time>
      </trkpt>
      <trkpt lat="43.541773" lon="-5.632442">
        <ele>-69.337</ele>
        <time>2021-10-14T13:36:46Z</time>
      </trkpt>
      <trkpt lat="43.541617" lon="-5.631984">
        <ele>-70.015</ele>
        <time>2021-10-14T13:36:48Z</time>
      </trkpt>
      <trkpt lat="43.541450" lon="-5.631441">
        <ele>-70.423</ele>
        <time>2021-10-14T13:36:50Z</time>
      </trkpt>
      <trkpt lat="43.541278" lon="-5.630945">
        <ele>-71.740</ele>
        <time>2021-10-14T13:36:52Z</time>
      </trkpt>
      <trkpt lat="43.541106" lon="-5.630507">
        <ele>-71.713</ele>
        <time>2021-10-14T13:36:54Z</time>
      </trkpt>
      <trkpt lat="43.541014" lon="-5.630299">
        <ele>-73.230</ele>
        <time>2021-10-14T13:36:55Z</time>
      </trkpt>
      <trkpt lat="43.540906" lon="-5.630089">
        <ele>-72.362</ele>
        <time>2021-10-14T13:36:56Z</time>
      </trkpt>
      <trkpt lat="43.540663" lon="-5.629726">
        <ele>-72.441</ele>
        <time>2021-10-14T13:36:58Z</time>
      </trkpt>
      <trkpt lat="43.540409" lon="-5.629361">
        <ele>-71.286</ele>
        <time>2021-10-14T13:37:00Z</time>
      </trkpt>
      <trkpt lat="43.540174" lon="-5.628971">
        <ele>-70.360</ele>
        <time>2021-10-14T13:37:02Z</time>
      </trkpt>
      <trkpt lat="43.540029" lon="-5.628599">
        <ele>-69.726</ele>
        <time>2021-10-14T13:37:04Z</time>
      </trkpt>
      <trkpt lat="43.539938" lon="-5.628152">
        <ele>-67.708</ele>
        <time>2021-10-14T13:37:06Z</time>
      </trkpt>
      <trkpt lat="43.539847" lon="-5.627686">
        <ele>-66.286</ele>
        <time>2021-10-14T13:37:08Z</time>
      </trkpt>
      <trkpt lat="43.539728" lon="-5.627267">
        <ele>-66.454</ele>
        <time>2021-10-14T13:37:10Z</time>
      </trkpt>
      <trkpt lat="43.539658" lon="-5.627049">
        <ele>-65.712</ele>
        <time>2021-10-14T13:37:11Z</time>
      </trkpt>
      <trkpt lat="43.539586" lon="-5.626832">
        <ele>-63.979</ele>
        <time>2021-10-14T13:37:12Z</time>
      </trkpt>
      <trkpt lat="43.539517" lon="-5.626605">
        <ele>-62.372</ele>
        <time>2021-10-14T13:37:13Z</time>
      </trkpt>
      <trkpt lat="43.539449" lon="-5.626371">
        <ele>-62.419</ele>
        <time>2021-10-14T13:37:14Z</time>
      </trkpt>
      <trkpt lat="43.539313" lon="-5.625958">
        <ele>-60.391</ele>
        <time>2021-10-14T13:37:16Z</time>
      </trkpt>
      <trkpt lat="43.539221" lon="-5.625757">
        <ele>-59.940</ele>
        <time>2021-10-14T13:37:17Z</time>
      </trkpt>
      <trkpt lat="43.539000" lon="-5.625401">
        <ele>-59.544</ele>
        <time>2021-10-14T13:37:19Z</time>
      </trkpt>
      <trkpt lat="43.538878" lon="-5.625224">
        <ele>-59.605</ele>
        <time>2021-10-14T13:37:20Z</time>
      </trkpt>
      <trkpt lat="43.538647" lon="-5.624876">
        <ele>-60.015</ele>
        <time>2021-10-14T13:37:22Z</time>
      </trkpt>
      <trkpt lat="43.538529" lon="-5.624682">
        <ele>-59.608</ele>
        <time>2021-10-14T13:37:23Z</time>
      </trkpt>
      <trkpt lat="43.538312" lon="-5.624264">
        <ele>-61.242</ele>
        <time>2021-10-14T13:37:25Z</time>
      </trkpt>
      <trkpt lat="43.538211" lon="-5.624041">
        <ele>-62.270</ele>
        <time>2021-10-14T13:37:26Z</time>
      </trkpt>
      <trkpt lat="43.538050" lon="-5.623638">
        <ele>-63.368</ele>
        <time>2021-10-14T13:37:28Z</time>
      </trkpt>
      <trkpt lat="43.537914" lon="-5.623217">
        <ele>-63.855</ele>
        <time>2021-10-14T13:37:30Z</time>
      </trkpt>
      <trkpt lat="43.537801" lon="-5.622818">
        <ele>-64.088</ele>
        <time>2021-10-14T13:37:32Z</time>
      </trkpt>
      <trkpt lat="43.537684" lon="-5.622519">
        <ele>-61.975</ele>
        <time>2021-10-14T13:37:34Z</time>
      </trkpt>
      <trkpt lat="43.537598" lon="-5.622397">
        <ele>-61.797</ele>
        <time>2021-10-14T13:37:35Z</time>
      </trkpt>
      <trkpt lat="43.537391" lon="-5.622181">
        <ele>-61.526</ele>
        <time>2021-10-14T13:37:37Z</time>
      </trkpt>
      <trkpt lat="43.537279" lon="-5.622064">
        <ele>-61.693</ele>
        <time>2021-10-14T13:37:38Z</time>
      </trkpt>
      <trkpt lat="43.537079" lon="-5.621839">
        <ele>-61.865</ele>
        <time>2021-10-14T13:37:40Z</time>
      </trkpt>
      <trkpt lat="43.536983" lon="-5.621726">
        <ele>-61.221</ele>
        <time>2021-10-14T13:37:41Z</time>
      </trkpt>
      <trkpt lat="43.536893" lon="-5.621614">
        <ele>-60.908</ele>
        <time>2021-10-14T13:37:42Z</time>
      </trkpt>
      <trkpt lat="43.536757" lon="-5.621356">
        <ele>-60.127</ele>
        <time>2021-10-14T13:37:44Z</time>
      </trkpt>
      <trkpt lat="43.536705" lon="-5.621054">
        <ele>-59.265</ele>
        <time>2021-10-14T13:37:46Z</time>
      </trkpt>
      <trkpt lat="43.536663" lon="-5.620719">
        <ele>-59.443</ele>
        <time>2021-10-14T13:37:48Z</time>
      </trkpt>
      <trkpt lat="43.536634" lon="-5.620545">
        <ele>-59.330</ele>
        <time>2021-10-14T13:37:49Z</time>
      </trkpt>
      <trkpt lat="43.536606" lon="-5.620364">
        <ele>-59.163</ele>
        <time>2021-10-14T13:37:50Z</time>
      </trkpt>
      <trkpt lat="43.536563" lon="-5.620046">
        <ele>-58.910</ele>
        <time>2021-10-14T13:37:52Z</time>
      </trkpt>
      <trkpt lat="43.536546" lon="-5.619897">
        <ele>-59.382</ele>
        <time>2021-10-14T13:37:53Z</time>
      </trkpt>
      <trkpt lat="43.536512" lon="-5.619661">
        <ele>-57.741</ele>
        <time>2021-10-14T13:37:55Z</time>
      </trkpt>
      <trkpt lat="43.536498" lon="-5.619565">
        <ele>-58.898</ele>
        <time>2021-10-14T13:37:56Z</time>
      </trkpt>
      <trkpt lat="43.536488" lon="-5.619431">
        <ele>-56.715</ele>
        <time>2021-10-14T13:37:58Z</time>
      </trkpt>
      <trkpt lat="43.536483" lon="-5.619360">
        <ele>-56.426</ele>
        <time>2021-10-14T13:37:59Z</time>
      </trkpt>
      <trkpt lat="43.536460" lon="-5.619189">
        <ele>-55.708</ele>
        <time>2021-10-14T13:38:01Z</time>
      </trkpt>
      <trkpt lat="43.536444" lon="-5.619084">
        <ele>-55.177</ele>
        <time>2021-10-14T13:38:02Z</time>
      </trkpt>
      <trkpt lat="43.536408" lon="-5.618868">
        <ele>-54.545</ele>
        <time>2021-10-14T13:38:04Z</time>
      </trkpt>
      <trkpt lat="43.536394" lon="-5.618766">
        <ele>-53.193</ele>
        <time>2021-10-14T13:38:05Z</time>
      </trkpt>
      <trkpt lat="43.536379" lon="-5.618664">
        <ele>-53.270</ele>
        <time>2021-10-14T13:38:06Z</time>
      </trkpt>
      <trkpt lat="43.536319" lon="-5.618440">
        <ele>-52.073</ele>
        <time>2021-10-14T13:38:08Z</time>
      </trkpt>
      <trkpt lat="43.536211" lon="-5.618221">
        <ele>-52.390</ele>
        <time>2021-10-14T13:38:10Z</time>
      </trkpt>
      <trkpt lat="43.536148" lon="-5.618115">
        <ele>-52.242</ele>
        <time>2021-10-14T13:38:11Z</time>
      </trkpt>
      <trkpt lat="43.536035" lon="-5.617901">
        <ele>-52.261</ele>
        <time>2021-10-14T13:38:13Z</time>
      </trkpt>
      <trkpt lat="43.535989" lon="-5.617779">
        <ele>-52.674</ele>
        <time>2021-10-14T13:38:14Z</time>
      </trkpt>
      <trkpt lat="43.535957" lon="-5.617504">
        <ele>-52.356</ele>
        <time>2021-10-14T13:38:16Z</time>
      </trkpt>
      <trkpt lat="43.535976" lon="-5.617345">
        <ele>-52.721</ele>
        <time>2021-10-14T13:38:17Z</time>
      </trkpt>
      <trkpt lat="43.536014" lon="-5.617174">
        <ele>-52.608</ele>
        <time>2021-10-14T13:38:18Z</time>
      </trkpt>
      <trkpt lat="43.536090" lon="-5.616831">
        <ele>-51.575</ele>
        <time>2021-10-14T13:38:20Z</time>
      </trkpt>
      <trkpt lat="43.536147" lon="-5.616494">
        <ele>-50.943</ele>
        <time>2021-10-14T13:38:22Z</time>
      </trkpt>
      <trkpt lat="43.536193" lon="-5.616145">
        <ele>-49.591</ele>
        <time>2021-10-14T13:38:24Z</time>
      </trkpt>
      <trkpt lat="43.536217" lon="-5.615964">
        <ele>-50.228</ele>
        <time>2021-10-14T13:38:25Z</time>
      </trkpt>
      <trkpt lat="43.536245" lon="-5.615768">
        <ele>-49.551</ele>
        <time>2021-10-14T13:38:26Z</time>
      </trkpt>
      <trkpt lat="43.536306" lon="-5.615348">
        <ele>-50.088</ele>
        <time>2021-10-14T13:38:28Z</time>
      </trkpt>
      <trkpt lat="43.536373" lon="-5.614892">
        <ele>-49.190</ele>
        <time>2021-10-14T13:38:30Z</time>
      </trkpt>
      <trkpt lat="43.536449" lon="-5.614417">
        <ele>-47.129</ele>
        <time>2021-10-14T13:38:32Z</time>
      </trkpt>
      <trkpt lat="43.536513" lon="-5.613993">
        <ele>-44.572</ele>
        <time>2021-10-14T13:38:34Z</time>
      </trkpt>
      <trkpt lat="43.536558" lon="-5.613556">
        <ele>-41.513</ele>
        <time>2021-10-14T13:38:36Z</time>
      </trkpt>
      <trkpt lat="43.536560" lon="-5.613102">
        <ele>-39.714</ele>
        <time>2021-10-14T13:38:38Z</time>
      </trkpt>
      <trkpt lat="43.536539" lon="-5.612670">
        <ele>-38.108</ele>
        <time>2021-10-14T13:38:40Z</time>
      </trkpt>
      <trkpt lat="43.536524" lon="-5.612260">
        <ele>-36.415</ele>
        <time>2021-10-14T13:38:42Z</time>
      </trkpt>
      <trkpt lat="43.536497" lon="-5.611916">
        <ele>-35.593</ele>
        <time>2021-10-14T13:38:44Z</time>
      </trkpt>
      <trkpt lat="43.536390" lon="-5.611654">
        <ele>-36.281</ele>
        <time>2021-10-14T13:38:46Z</time>
      </trkpt>
      <trkpt lat="43.536296" lon="-5.611537">
        <ele>-35.688</ele>
        <time>2021-10-14T13:38:47Z</time>
      </trkpt>
      <trkpt lat="43.536194" lon="-5.611426">
        <ele>-34.971</ele>
        <time>2021-10-14T13:38:48Z</time>
      </trkpt>
      <trkpt lat="43.535985" lon="-5.611163">
        <ele>-34.998</ele>
        <time>2021-10-14T13:38:50Z</time>
      </trkpt>
      <trkpt lat="43.535796" lon="-5.610905">
        <ele>-35.210</ele>
        <time>2021-10-14T13:38:52Z</time>
      </trkpt>
      <trkpt lat="43.535688" lon="-5.610786">
        <ele>-35.049</ele>
        <time>2021-10-14T13:38:53Z</time>
      </trkpt>
      <trkpt lat="43.535568" lon="-5.610696">
        <ele>-35.181</ele>
        <time>2021-10-14T13:38:54Z</time>
      </trkpt>
      <trkpt lat="43.535436" lon="-5.610633">
        <ele>-34.061</ele>
        <time>2021-10-14T13:38:55Z</time>
      </trkpt>
      <trkpt lat="43.535297" lon="-5.610574">
        <ele>-33.917</ele>
        <time>2021-10-14T13:38:56Z</time>
      </trkpt>
      <trkpt lat="43.535063" lon="-5.610442">
        <ele>-32.908</ele>
        <time>2021-10-14T13:38:58Z</time>
      </trkpt>
      <trkpt lat="43.534967" lon="-5.610346">
        <ele>-32.076</ele>
        <time>2021-10-14T13:38:59Z</time>
      </trkpt>
      <trkpt lat="43.534887" lon="-5.610221">
        <ele>-32.114</ele>
        <time>2021-10-14T13:39:00Z</time>
      </trkpt>
      <trkpt lat="43.534774" lon="-5.609935">
        <ele>-30.472</ele>
        <time>2021-10-14T13:39:02Z</time>
      </trkpt>
      <trkpt lat="43.534708" lon="-5.609649">
        <ele>-28.949</ele>
        <time>2021-10-14T13:39:04Z</time>
      </trkpt>
      <trkpt lat="43.534688" lon="-5.609492">
        <ele>-28.032</ele>
        <time>2021-10-14T13:39:05Z</time>
      </trkpt>
      <trkpt lat="43.534684" lon="-5.609332">
        <ele>-26.579</ele>
        <time>2021-10-14T13:39:06Z</time>
      </trkpt>
      <trkpt lat="43.534687" lon="-5.609174">
        <ele>-27.421</ele>
        <time>2021-10-14T13:39:07Z</time>
      </trkpt>
      <trkpt lat="43.534689" lon="-5.609018">
        <ele>-26.780</ele>
        <time>2021-10-14T13:39:08Z</time>
      </trkpt>
      <trkpt lat="43.534692" lon="-5.608743">
        <ele>-24.572</ele>
        <time>2021-10-14T13:39:10Z</time>
      </trkpt>
      <trkpt lat="43.534700" lon="-5.608606">
        <ele>-23.513</ele>
        <time>2021-10-14T13:39:11Z</time>
      </trkpt>
      <trkpt lat="43.534712" lon="-5.608469">
        <ele>-23.514</ele>
        <time>2021-10-14T13:39:12Z</time>
      </trkpt>
      <trkpt lat="43.534735" lon="-5.608189">
        <ele>-22.508</ele>
        <time>2021-10-14T13:39:14Z</time>
      </trkpt>
      <trkpt lat="43.534770" lon="-5.607903">
        <ele>-21.125</ele>
        <time>2021-10-14T13:39:16Z</time>
      </trkpt>
      <trkpt lat="43.534822" lon="-5.607582">
        <ele>-19.833</ele>
        <time>2021-10-14T13:39:18Z</time>
      </trkpt>
      <trkpt lat="43.534886" lon="-5.607240">
        <ele>-19.011</ele>
        <time>2021-10-14T13:39:20Z</time>
      </trkpt>
      <trkpt lat="43.534933" lon="-5.606927">
        <ele>-16.658</ele>
        <time>2021-10-14T13:39:22Z</time>
      </trkpt>
      <trkpt lat="43.534951" lon="-5.606676">
        <ele>-15.611</ele>
        <time>2021-10-14T13:39:24Z</time>
      </trkpt>
      <trkpt lat="43.534930" lon="-5.606561">
        <ele>-15.218</ele>
        <time>2021-10-14T13:39:25Z</time>
      </trkpt>
      <trkpt lat="43.534872" lon="-5.606464">
        <ele>-14.820</ele>
        <time>2021-10-14T13:39:26Z</time>
      </trkpt>
      <trkpt lat="43.534702" lon="-5.606422">
        <ele>-13.699</ele>
        <time>2021-10-14T13:39:28Z</time>
      </trkpt>
      <trkpt lat="43.534487" lon="-5.606569">
        <ele>-13.412</ele>
        <time>2021-10-14T13:39:30Z</time>
      </trkpt>
      <trkpt lat="43.534255" lon="-5.606795">
        <ele>-12.332</ele>
        <time>2021-10-14T13:39:32Z</time>
      </trkpt>
      <trkpt lat="43.533996" lon="-5.606949">
        <ele>-11.805</ele>
        <time>2021-10-14T13:39:34Z</time>
      </trkpt>
      <trkpt lat="43.533861" lon="-5.607009">
        <ele>-11.008</ele>
        <time>2021-10-14T13:39:35Z</time>
      </trkpt>
      <trkpt lat="43.533606" lon="-5.607063">
        <ele>-8.829</ele>
        <time>2021-10-14T13:39:37Z</time>
      </trkpt>
      <trkpt lat="43.533464" lon="-5.607033">
        <ele>-8.467</ele>
        <time>2021-10-14T13:39:38Z</time>
      </trkpt>
      <trkpt lat="43.533197" lon="-5.606903">
        <ele>-6.825</ele>
        <time>2021-10-14T13:39:40Z</time>
      </trkpt>
      <trkpt lat="43.532954" lon="-5.606719">
        <ele>-7.262</ele>
        <time>2021-10-14T13:39:42Z</time>
      </trkpt>
      <trkpt lat="43.532849" lon="-5.606588">
        <ele>-7.635</ele>
        <time>2021-10-14T13:39:43Z</time>
      </trkpt>
      <trkpt lat="43.532764" lon="-5.606432">
        <ele>-6.042</ele>
        <time>2021-10-14T13:39:44Z</time>
      </trkpt>
      <trkpt lat="43.532667" lon="-5.606099">
        <ele>-3.644</ele>
        <time>2021-10-14T13:39:46Z</time>
      </trkpt>
      <trkpt lat="43.532645" lon="-5.605904">
        <ele>-2.923</ele>
        <time>2021-10-14T13:39:47Z</time>
      </trkpt>
      <trkpt lat="43.532596" lon="-5.605504">
        <ele>-1.323</ele>
        <time>2021-10-14T13:39:49Z</time>
      </trkpt>
      <trkpt lat="43.532564" lon="-5.605299">
        <ele>0.083</ele>
        <time>2021-10-14T13:39:50Z</time>
      </trkpt>
      <trkpt lat="43.532502" lon="-5.604926">
        <ele>1.511</ele>
        <time>2021-10-14T13:39:52Z</time>
      </trkpt>
      <trkpt lat="43.532446" lon="-5.604590">
        <ele>2.808</ele>
        <time>2021-10-14T13:39:54Z</time>
      </trkpt>
      <trkpt lat="43.532397" lon="-5.604455">
        <ele>3.870</ele>
        <time>2021-10-14T13:39:55Z</time>
      </trkpt>
      <trkpt lat="43.532323" lon="-5.604345">
        <ele>4.598</ele>
        <time>2021-10-14T13:39:56Z</time>
      </trkpt>
      <trkpt lat="43.532137" lon="-5.604252">
        <ele>7.196</ele>
        <time>2021-10-14T13:39:58Z</time>
      </trkpt>
      <trkpt lat="43.531895" lon="-5.604213">
        <ele>9.573</ele>
        <time>2021-10-14T13:40:00Z</time>
      </trkpt>
      <trkpt lat="43.531627" lon="-5.604294">
        <ele>11.116</ele>
        <time>2021-10-14T13:40:02Z</time>
      </trkpt>
      <trkpt lat="43.531342" lon="-5.604397">
        <ele>12.593</ele>
        <time>2021-10-14T13:40:04Z</time>
      </trkpt>
      <trkpt lat="43.531040" lon="-5.604387">
        <ele>13.675</ele>
        <time>2021-10-14T13:40:06Z</time>
      </trkpt>
      <trkpt lat="43.530904" lon="-5.604366">
        <ele>14.194</ele>
        <time>2021-10-14T13:40:07Z</time>
      </trkpt>
      <trkpt lat="43.530779" lon="-5.604333">
        <ele>14.767</ele>
        <time>2021-10-14T13:40:08Z</time>
      </trkpt>
      <trkpt lat="43.530582" lon="-5.604199">
        <ele>15.481</ele>
        <time>2021-10-14T13:40:10Z</time>
      </trkpt>
      <trkpt lat="43.530490" lon="-5.604104">
        <ele>16.119</ele>
        <time>2021-10-14T13:40:11Z</time>
      </trkpt>
      <trkpt lat="43.530324" lon="-5.603872">
        <ele>16.608</ele>
        <time>2021-10-14T13:40:13Z</time>
      </trkpt>
      <trkpt lat="43.530247" lon="-5.603731">
        <ele>16.614</ele>
        <time>2021-10-14T13:40:14Z</time>
      </trkpt>
      <trkpt lat="43.530115" lon="-5.603414">
        <ele>16.242</ele>
        <time>2021-10-14T13:40:16Z</time>
      </trkpt>
      <trkpt lat="43.530052" lon="-5.603239">
        <ele>15.770</ele>
        <time>2021-10-14T13:40:17Z</time>
      </trkpt>
      <trkpt lat="43.529973" lon="-5.602869">
        <ele>14.697</ele>
        <time>2021-10-14T13:40:19Z</time>
      </trkpt>
      <trkpt lat="43.529947" lon="-5.602680">
        <ele>14.490</ele>
        <time>2021-10-14T13:40:20Z</time>
      </trkpt>
      <trkpt lat="43.529830" lon="-5.602400">
        <ele>14.837</ele>
        <time>2021-10-14T13:40:22Z</time>
      </trkpt>
      <trkpt lat="43.529729" lon="-5.602278">
        <ele>15.039</ele>
        <time>2021-10-14T13:40:23Z</time>
      </trkpt>
      <trkpt lat="43.529472" lon="-5.602036">
        <ele>15.748</ele>
        <time>2021-10-14T13:40:25Z</time>
      </trkpt>
      <trkpt lat="43.529332" lon="-5.601880">
        <ele>16.061</ele>
        <time>2021-10-14T13:40:26Z</time>
      </trkpt>
      <trkpt lat="43.529124" lon="-5.601579">
        <ele>16.521</ele>
        <time>2021-10-14T13:40:28Z</time>
      </trkpt>
      <trkpt lat="43.529005" lon="-5.601225">
        <ele>16.413</ele>
        <time>2021-10-14T13:40:30Z</time>
      </trkpt>
      <trkpt lat="43.528985" lon="-5.601035">
        <ele>15.808</ele>
        <time>2021-10-14T13:40:31Z</time>
      </trkpt>
      <trkpt lat="43.528985" lon="-5.600839">
        <ele>15.284</ele>
        <time>2021-10-14T13:40:32Z</time>
      </trkpt>
      <trkpt lat="43.529057" lon="-5.600502">
        <ele>15.742</ele>
        <time>2021-10-14T13:40:34Z</time>
      </trkpt>
      <trkpt lat="43.529156" lon="-5.600224">
        <ele>14.840</ele>
        <time>2021-10-14T13:40:36Z</time>
      </trkpt>
      <trkpt lat="43.529181" lon="-5.599976">
        <ele>14.357</ele>
        <time>2021-10-14T13:40:38Z</time>
      </trkpt>
      <trkpt lat="43.529087" lon="-5.599822">
        <ele>13.050</ele>
        <time>2021-10-14T13:40:40Z</time>
      </trkpt>
      <trkpt lat="43.528882" lon="-5.599803">
        <ele>12.337</ele>
        <time>2021-10-14T13:40:42Z</time>
      </trkpt>
      <trkpt lat="43.528594" lon="-5.599892">
        <ele>12.339</ele>
        <time>2021-10-14T13:40:44Z</time>
      </trkpt>
      <trkpt lat="43.528300" lon="-5.599972">
        <ele>13.568</ele>
        <time>2021-10-14T13:40:46Z</time>
      </trkpt>
      <trkpt lat="43.528154" lon="-5.599982">
        <ele>14.885</ele>
        <time>2021-10-14T13:40:47Z</time>
      </trkpt>
      <trkpt lat="43.528013" lon="-5.599958">
        <ele>14.989</ele>
        <time>2021-10-14T13:40:48Z</time>
      </trkpt>
      <trkpt lat="43.527756" lon="-5.599819">
        <ele>17.017</ele>
        <time>2021-10-14T13:40:50Z</time>
      </trkpt>
      <trkpt lat="43.527575" lon="-5.599622">
        <ele>17.708</ele>
        <time>2021-10-14T13:40:52Z</time>
      </trkpt>
      <trkpt lat="43.527451" lon="-5.599343">
        <ele>20.016</ele>
        <time>2021-10-14T13:40:54Z</time>
      </trkpt>
      <trkpt lat="43.527428" lon="-5.599170">
        <ele>20.784</ele>
        <time>2021-10-14T13:40:55Z</time>
      </trkpt>
      <trkpt lat="43.527426" lon="-5.599001">
        <ele>21.532</ele>
        <time>2021-10-14T13:40:56Z</time>
      </trkpt>
      <trkpt lat="43.527393" lon="-5.598638">
        <ele>23.379</ele>
        <time>2021-10-14T13:40:58Z</time>
      </trkpt>
      <trkpt lat="43.527331" lon="-5.598488">
        <ele>25.022</ele>
        <time>2021-10-14T13:40:59Z</time>
      </trkpt>
      <trkpt lat="43.527234" lon="-5.598382">
        <ele>25.159</ele>
        <time>2021-10-14T13:41:00Z</time>
      </trkpt>
      <trkpt lat="43.526982" lon="-5.598209">
        <ele>26.851</ele>
        <time>2021-10-14T13:41:02Z</time>
      </trkpt>
      <trkpt lat="43.526721" lon="-5.597978">
        <ele>28.340</ele>
        <time>2021-10-14T13:41:04Z</time>
      </trkpt>
      <trkpt lat="43.526592" lon="-5.597835">
        <ele>29.291</ele>
        <time>2021-10-14T13:41:05Z</time>
      </trkpt>
      <trkpt lat="43.526369" lon="-5.597524">
        <ele>30.981</ele>
        <time>2021-10-14T13:41:07Z</time>
      </trkpt>
      <trkpt lat="43.526270" lon="-5.597343">
        <ele>31.119</ele>
        <time>2021-10-14T13:41:08Z</time>
      </trkpt>
      <trkpt lat="43.526161" lon="-5.596947">
        <ele>31.808</ele>
        <time>2021-10-14T13:41:10Z</time>
      </trkpt>
      <trkpt lat="43.526136" lon="-5.596515">
        <ele>33.077</ele>
        <time>2021-10-14T13:41:12Z</time>
      </trkpt>
      <trkpt lat="43.526141" lon="-5.596161">
        <ele>34.725</ele>
        <time>2021-10-14T13:41:14Z</time>
      </trkpt>
      <trkpt lat="43.526175" lon="-5.595888">
        <ele>35.813</ele>
        <time>2021-10-14T13:41:16Z</time>
      </trkpt>
      <trkpt lat="43.526186" lon="-5.595666">
        <ele>36.570</ele>
        <time>2021-10-14T13:41:18Z</time>
      </trkpt>
      <trkpt lat="43.526076" lon="-5.595463">
        <ele>38.393</ele>
        <time>2021-10-14T13:41:20Z</time>
      </trkpt>
      <trkpt lat="43.525859" lon="-5.595394">
        <ele>41.420</ele>
        <time>2021-10-14T13:41:22Z</time>
      </trkpt>
      <trkpt lat="43.525629" lon="-5.595312">
        <ele>42.562</ele>
        <time>2021-10-14T13:41:24Z</time>
      </trkpt>
      <trkpt lat="43.525460" lon="-5.595087">
        <ele>44.061</ele>
        <time>2021-10-14T13:41:26Z</time>
      </trkpt>
      <trkpt lat="43.525377" lon="-5.594753">
        <ele>45.212</ele>
        <time>2021-10-14T13:41:28Z</time>
      </trkpt>
      <trkpt lat="43.525354" lon="-5.594397">
        <ele>45.732</ele>
        <time>2021-10-14T13:41:30Z</time>
      </trkpt>
      <trkpt lat="43.525457" lon="-5.594034">
        <ele>47.905</ele>
        <time>2021-10-14T13:41:32Z</time>
      </trkpt>
      <trkpt lat="43.525644" lon="-5.593698">
        <ele>48.308</ele>
        <time>2021-10-14T13:41:34Z</time>
      </trkpt>
      <trkpt lat="43.525850" lon="-5.593406">
        <ele>50.759</ele>
        <time>2021-10-14T13:41:36Z</time>
      </trkpt>
      <trkpt lat="43.525961" lon="-5.593275">
        <ele>51.897</ele>
        <time>2021-10-14T13:41:37Z</time>
      </trkpt>
      <trkpt lat="43.526085" lon="-5.593170">
        <ele>52.855</ele>
        <time>2021-10-14T13:41:38Z</time>
      </trkpt>
      <trkpt lat="43.526330" lon="-5.593064">
        <ele>53.972</ele>
        <time>2021-10-14T13:41:40Z</time>
      </trkpt>
      <trkpt lat="43.526563" lon="-5.592951">
        <ele>53.365</ele>
        <time>2021-10-14T13:41:42Z</time>
      </trkpt>
      <trkpt lat="43.526715" lon="-5.592706">
        <ele>53.562</ele>
        <time>2021-10-14T13:41:44Z</time>
      </trkpt>
      <trkpt lat="43.526725" lon="-5.592388">
        <ele>54.754</ele>
        <time>2021-10-14T13:41:46Z</time>
      </trkpt>
      <trkpt lat="43.526699" lon="-5.592236">
        <ele>55.113</ele>
        <time>2021-10-14T13:41:47Z</time>
      </trkpt>
      <trkpt lat="43.526676" lon="-5.592112">
        <ele>55.441</ele>
        <time>2021-10-14T13:41:48Z</time>
      </trkpt>
      <trkpt lat="43.526630" lon="-5.591970">
        <ele>55.481</ele>
        <time>2021-10-14T13:41:50Z</time>
      </trkpt>
      <trkpt lat="43.526607" lon="-5.591916">
        <ele>55.709</ele>
        <time>2021-10-14T13:41:52Z</time>
      </trkpt>
      <trkpt lat="43.526600" lon="-5.591836">
        <ele>56.208</ele>
        <time>2021-10-14T13:41:57Z</time>
      </trkpt>
      <trkpt lat="43.526593" lon="-5.591724">
        <ele>56.362</ele>
        <time>2021-10-14T13:41:59Z</time>
      </trkpt>
      <trkpt lat="43.526578" lon="-5.591593">
        <ele>56.540</ele>
        <time>2021-10-14T13:42:01Z</time>
      </trkpt>
      <trkpt lat="43.526567" lon="-5.591522">
        <ele>74.018</ele>
        <time>2021-10-14T13:42:02Z</time>
      </trkpt>
      <trkpt lat="43.526532" lon="-5.591374">
        <ele>108.335</ele>
        <time>2021-10-14T13:42:04Z</time>
      </trkpt>
      <trkpt lat="43.526508" lon="-5.591297">
        <ele>108.388</ele>
        <time>2021-10-14T13:42:05Z</time>
      </trkpt>
      <trkpt lat="43.526456" lon="-5.591149">
        <ele>108.355</ele>
        <time>2021-10-14T13:42:07Z</time>
      </trkpt>
      <trkpt lat="43.526427" lon="-5.591071">
        <ele>108.367</ele>
        <time>2021-10-14T13:42:08Z</time>
      </trkpt>
      <trkpt lat="43.526374" lon="-5.590942">
        <ele>108.336</ele>
        <time>2021-10-14T13:42:10Z</time>
      </trkpt>
      <trkpt lat="43.526323" lon="-5.590811">
        <ele>108.363</ele>
        <time>2021-10-14T13:42:12Z</time>
      </trkpt>
      <trkpt lat="43.526275" lon="-5.590699">
        <ele>108.344</ele>
        <time>2021-10-14T13:42:14Z</time>
      </trkpt>
      <trkpt lat="43.526224" lon="-5.590577">
        <ele>108.318</ele>
        <time>2021-10-14T13:42:16Z</time>
      </trkpt>
      <trkpt lat="43.526172" lon="-5.590436">
        <ele>108.308</ele>
        <time>2021-10-14T13:42:18Z</time>
      </trkpt>
      <trkpt lat="43.526139" lon="-5.590351">
        <ele>108.324</ele>
        <time>2021-10-14T13:42:20Z</time>
      </trkpt>
      <trkpt lat="43.526105" lon="-5.590265">
        <ele>108.352</ele>
        <time>2021-10-14T13:42:22Z</time>
      </trkpt>
      <trkpt lat="43.526059" lon="-5.590150">
        <ele>108.360</ele>
        <time>2021-10-14T13:42:24Z</time>
      </trkpt>
      <trkpt lat="43.525992" lon="-5.589979">
        <ele>108.347</ele>
        <time>2021-10-14T13:42:26Z</time>
      </trkpt>
      <trkpt lat="43.525884" lon="-5.589760">
        <ele>108.360</ele>
        <time>2021-10-14T13:42:28Z</time>
      </trkpt>
      <trkpt lat="43.525807" lon="-5.589649">
        <ele>108.317</ele>
        <time>2021-10-14T13:42:29Z</time>
      </trkpt>
      <trkpt lat="43.525721" lon="-5.589548">
        <ele>108.339</ele>
        <time>2021-10-14T13:42:30Z</time>
      </trkpt>
      <trkpt lat="43.525637" lon="-5.589465">
        <ele>108.368</ele>
        <time>2021-10-14T13:42:31Z</time>
      </trkpt>
      <trkpt lat="43.525556" lon="-5.589388">
        <ele>108.347</ele>
        <time>2021-10-14T13:42:32Z</time>
      </trkpt>
      <trkpt lat="43.525382" lon="-5.589213">
        <ele>108.329</ele>
        <time>2021-10-14T13:42:34Z</time>
      </trkpt>
      <trkpt lat="43.525169" lon="-5.589013">
        <ele>108.321</ele>
        <time>2021-10-14T13:42:36Z</time>
      </trkpt>
      <trkpt lat="43.524874" lon="-5.588902">
        <ele>108.308</ele>
        <time>2021-10-14T13:42:38Z</time>
      </trkpt>
      <trkpt lat="43.524535" lon="-5.588933">
        <ele>108.332</ele>
        <time>2021-10-14T13:42:40Z</time>
      </trkpt>
      <trkpt lat="43.524346" lon="-5.588970">
        <ele>108.360</ele>
        <time>2021-10-14T13:42:41Z</time>
      </trkpt>
      <trkpt lat="43.523962" lon="-5.589021">
        <ele>108.388</ele>
        <time>2021-10-14T13:42:43Z</time>
      </trkpt>
      <trkpt lat="43.523766" lon="-5.589038">
        <ele>108.325</ele>
        <time>2021-10-14T13:42:44Z</time>
      </trkpt>
      <trkpt lat="43.523442" lon="-5.589056">
        <ele>108.428</ele>
        <time>2021-10-14T13:42:46Z</time>
      </trkpt>
      <trkpt lat="43.523289" lon="-5.589062">
        <ele>108.475</ele>
        <time>2021-10-14T13:42:47Z</time>
      </trkpt>
      <trkpt lat="43.523015" lon="-5.589066">
        <ele>108.487</ele>
        <time>2021-10-14T13:42:49Z</time>
      </trkpt>
      <trkpt lat="43.522886" lon="-5.589066">
        <ele>108.456</ele>
        <time>2021-10-14T13:42:50Z</time>
      </trkpt>
      <trkpt lat="43.522660" lon="-5.589065">
        <ele>108.423</ele>
        <time>2021-10-14T13:42:52Z</time>
      </trkpt>
      <trkpt lat="43.522536" lon="-5.589065">
        <ele>108.483</ele>
        <time>2021-10-14T13:42:53Z</time>
      </trkpt>
      <trkpt lat="43.522266" lon="-5.589067">
        <ele>108.411</ele>
        <time>2021-10-14T13:42:55Z</time>
      </trkpt>
      <trkpt lat="43.522134" lon="-5.589069">
        <ele>108.408</ele>
        <time>2021-10-14T13:42:56Z</time>
      </trkpt>
      <trkpt lat="43.521914" lon="-5.589070">
        <ele>108.410</ele>
        <time>2021-10-14T13:42:58Z</time>
      </trkpt>
      <trkpt lat="43.521818" lon="-5.589081">
        <ele>76.158</ele>
        <time>2021-10-14T13:42:59Z</time>
      </trkpt>
      <trkpt lat="43.521665" lon="-5.589140">
        <ele>53.286</ele>
        <time>2021-10-14T13:43:01Z</time>
      </trkpt>
      <trkpt lat="43.521604" lon="-5.589175">
        <ele>53.393</ele>
        <time>2021-10-14T13:43:02Z</time>
      </trkpt>
      <trkpt lat="43.521546" lon="-5.589210">
        <ele>53.516</ele>
        <time>2021-10-14T13:43:04Z</time>
      </trkpt>
      <trkpt lat="43.521488" lon="-5.589221">
        <ele>53.523</ele>
        <time>2021-10-14T13:43:07Z</time>
      </trkpt>
      <trkpt lat="43.521438" lon="-5.589216">
        <ele>53.615</ele>
        <time>2021-10-14T13:43:10Z</time>
      </trkpt>
      <trkpt lat="43.521382" lon="-5.589211">
        <ele>53.774</ele>
        <time>2021-10-14T13:43:12Z</time>
      </trkpt>
      <trkpt lat="43.521314" lon="-5.589185">
        <ele>53.759</ele>
        <time>2021-10-14T13:43:13Z</time>
      </trkpt>
      <trkpt lat="43.521245" lon="-5.589131">
        <ele>53.803</ele>
        <time>2021-10-14T13:43:14Z</time>
      </trkpt>
      <trkpt lat="43.521094" lon="-5.588948">
        <ele>54.223</ele>
        <time>2021-10-14T13:43:16Z</time>
      </trkpt>
      <trkpt lat="43.520995" lon="-5.588834">
        <ele>54.908</ele>
        <time>2021-10-14T13:43:17Z</time>
      </trkpt>
      <trkpt lat="43.520727" lon="-5.588575">
        <ele>55.873</ele>
        <time>2021-10-14T13:43:19Z</time>
      </trkpt>
      <trkpt lat="43.520539" lon="-5.588414">
        <ele>55.751</ele>
        <time>2021-10-14T13:43:20Z</time>
      </trkpt>
      <trkpt lat="43.520105" lon="-5.588057">
        <ele>55.879</ele>
        <time>2021-10-14T13:43:22Z</time>
      </trkpt>
      <trkpt lat="43.519765" lon="-5.587768">
        <ele>56.146</ele>
        <time>2021-10-14T13:43:24Z</time>
      </trkpt>
      <trkpt lat="43.519631" lon="-5.587614">
        <ele>55.759</ele>
        <time>2021-10-14T13:43:25Z</time>
      </trkpt>
      <trkpt lat="43.519515" lon="-5.587451">
        <ele>55.566</ele>
        <time>2021-10-14T13:43:26Z</time>
      </trkpt>
      <trkpt lat="43.519326" lon="-5.587128">
        <ele>54.878</ele>
        <time>2021-10-14T13:43:28Z</time>
      </trkpt>
      <trkpt lat="43.519143" lon="-5.586809">
        <ele>54.757</ele>
        <time>2021-10-14T13:43:30Z</time>
      </trkpt>
      <trkpt lat="43.519053" lon="-5.586652">
        <ele>54.899</ele>
        <time>2021-10-14T13:43:31Z</time>
      </trkpt>
      <trkpt lat="43.518958" lon="-5.586490">
        <ele>54.507</ele>
        <time>2021-10-14T13:43:32Z</time>
      </trkpt>
      <trkpt lat="43.518775" lon="-5.586179">
        <ele>55.227</ele>
        <time>2021-10-14T13:43:34Z</time>
      </trkpt>
      <trkpt lat="43.518678" lon="-5.586014">
        <ele>55.508</ele>
        <time>2021-10-14T13:43:35Z</time>
      </trkpt>
      <trkpt lat="43.518464" lon="-5.585711">
        <ele>54.497</ele>
        <time>2021-10-14T13:43:37Z</time>
      </trkpt>
      <trkpt lat="43.518340" lon="-5.585598">
        <ele>53.845</ele>
        <time>2021-10-14T13:43:38Z</time>
      </trkpt>
      <trkpt lat="43.518069" lon="-5.585448">
        <ele>52.383</ele>
        <time>2021-10-14T13:43:40Z</time>
      </trkpt>
      <trkpt lat="43.517805" lon="-5.585206">
        <ele>51.910</ele>
        <time>2021-10-14T13:43:42Z</time>
      </trkpt>
      <trkpt lat="43.517699" lon="-5.585019">
        <ele>51.463</ele>
        <time>2021-10-14T13:43:43Z</time>
      </trkpt>
      <trkpt lat="43.517598" lon="-5.584802">
        <ele>50.230</ele>
        <time>2021-10-14T13:43:44Z</time>
      </trkpt>
      <trkpt lat="43.517395" lon="-5.584364">
        <ele>47.932</ele>
        <time>2021-10-14T13:43:46Z</time>
      </trkpt>
      <trkpt lat="43.517290" lon="-5.584149">
        <ele>46.351</ele>
        <time>2021-10-14T13:43:47Z</time>
      </trkpt>
      <trkpt lat="43.517099" lon="-5.583751">
        <ele>44.455</ele>
        <time>2021-10-14T13:43:49Z</time>
      </trkpt>
      <trkpt lat="43.517006" lon="-5.583553">
        <ele>43.307</ele>
        <time>2021-10-14T13:43:50Z</time>
      </trkpt>
      <trkpt lat="43.516834" lon="-5.583190">
        <ele>42.117</ele>
        <time>2021-10-14T13:43:52Z</time>
      </trkpt>
      <trkpt lat="43.516679" lon="-5.582879">
        <ele>40.108</ele>
        <time>2021-10-14T13:43:54Z</time>
      </trkpt>
      <trkpt lat="43.516599" lon="-5.582763">
        <ele>39.613</ele>
        <time>2021-10-14T13:43:55Z</time>
      </trkpt>
      <trkpt lat="43.516498" lon="-5.582675">
        <ele>39.321</ele>
        <time>2021-10-14T13:43:56Z</time>
      </trkpt>
      <trkpt lat="43.516271" lon="-5.582628">
        <ele>38.749</ele>
        <time>2021-10-14T13:43:58Z</time>
      </trkpt>
      <trkpt lat="43.516144" lon="-5.582641">
        <ele>38.626</ele>
        <time>2021-10-14T13:43:59Z</time>
      </trkpt>
      <trkpt lat="43.516017" lon="-5.582612">
        <ele>38.519</ele>
        <time>2021-10-14T13:44:00Z</time>
      </trkpt>
      <trkpt lat="43.515758" lon="-5.582426">
        <ele>36.946</ele>
        <time>2021-10-14T13:44:02Z</time>
      </trkpt>
      <trkpt lat="43.515530" lon="-5.582210">
        <ele>34.888</ele>
        <time>2021-10-14T13:44:04Z</time>
      </trkpt>
      <trkpt lat="43.515425" lon="-5.582115">
        <ele>33.997</ele>
        <time>2021-10-14T13:44:05Z</time>
      </trkpt>
      <trkpt lat="43.515336" lon="-5.582034">
        <ele>33.768</ele>
        <time>2021-10-14T13:44:06Z</time>
      </trkpt>
      <trkpt lat="43.515265" lon="-5.581964">
        <ele>33.142</ele>
        <time>2021-10-14T13:44:07Z</time>
      </trkpt>
      <trkpt lat="43.515206" lon="-5.581901">
        <ele>32.826</ele>
        <time>2021-10-14T13:44:08Z</time>
      </trkpt>
      <trkpt lat="43.515087" lon="-5.581832">
        <ele>31.408</ele>
        <time>2021-10-14T13:44:10Z</time>
      </trkpt>
      <trkpt lat="43.514927" lon="-5.581828">
        <ele>30.584</ele>
        <time>2021-10-14T13:44:12Z</time>
      </trkpt>
      <trkpt lat="43.514852" lon="-5.581789">
        <ele>30.572</ele>
        <time>2021-10-14T13:44:13Z</time>
      </trkpt>
      <trkpt lat="43.514792" lon="-5.581723">
        <ele>30.790</ele>
        <time>2021-10-14T13:44:14Z</time>
      </trkpt>
      <trkpt lat="43.514764" lon="-5.581550">
        <ele>31.367</ele>
        <time>2021-10-14T13:44:16Z</time>
      </trkpt>
      <trkpt lat="43.514798" lon="-5.581450">
        <ele>31.610</ele>
        <time>2021-10-14T13:44:17Z</time>
      </trkpt>
      <trkpt lat="43.514849" lon="-5.581268">
        <ele>31.997</ele>
        <time>2021-10-14T13:44:19Z</time>
      </trkpt>
      <trkpt lat="43.514854" lon="-5.581180">
        <ele>32.589</ele>
        <time>2021-10-14T13:44:20Z</time>
      </trkpt>
      <trkpt lat="43.514853" lon="-5.580999">
        <ele>32.788</ele>
        <time>2021-10-14T13:44:22Z</time>
      </trkpt>
      <trkpt lat="43.514857" lon="-5.580890">
        <ele>32.876</ele>
        <time>2021-10-14T13:44:23Z</time>
      </trkpt>
      <trkpt lat="43.514862" lon="-5.580640">
        <ele>34.390</ele>
        <time>2021-10-14T13:44:25Z</time>
      </trkpt>
      <trkpt lat="43.514862" lon="-5.580502">
        <ele>35.219</ele>
        <time>2021-10-14T13:44:26Z</time>
      </trkpt>
      <trkpt lat="43.514865" lon="-5.580208">
        <ele>36.608</ele>
        <time>2021-10-14T13:44:28Z</time>
      </trkpt>
      <trkpt lat="43.514860" lon="-5.579835">
        <ele>39.685</ele>
        <time>2021-10-14T13:44:30Z</time>
      </trkpt>
      <trkpt lat="43.514854" lon="-5.579423">
        <ele>44.013</ele>
        <time>2021-10-14T13:44:32Z</time>
      </trkpt>
      <trkpt lat="43.514842" lon="-5.579024">
        <ele>46.811</ele>
        <time>2021-10-14T13:44:34Z</time>
      </trkpt>
      <trkpt lat="43.514832" lon="-5.578820">
        <ele>48.388</ele>
        <time>2021-10-14T13:44:35Z</time>
      </trkpt>
      <trkpt lat="43.514821" lon="-5.578612">
        <ele>50.241</ele>
        <time>2021-10-14T13:44:36Z</time>
      </trkpt>
      <trkpt lat="43.514803" lon="-5.578175">
        <ele>53.668</ele>
        <time>2021-10-14T13:44:38Z</time>
      </trkpt>
      <trkpt lat="43.514783" lon="-5.577725">
        <ele>56.130</ele>
        <time>2021-10-14T13:44:40Z</time>
      </trkpt>
      <trkpt lat="43.514766" lon="-5.577202">
        <ele>58.759</ele>
        <time>2021-10-14T13:44:42Z</time>
      </trkpt>
      <trkpt lat="43.514752" lon="-5.576710">
        <ele>59.388</ele>
        <time>2021-10-14T13:44:44Z</time>
      </trkpt>
      <trkpt lat="43.514737" lon="-5.576247">
        <ele>61.324</ele>
        <time>2021-10-14T13:44:46Z</time>
      </trkpt>
      <trkpt lat="43.514730" lon="-5.576002">
        <ele>61.526</ele>
        <time>2021-10-14T13:44:47Z</time>
      </trkpt>
      <trkpt lat="43.514654" lon="-5.575488">
        <ele>63.208</ele>
        <time>2021-10-14T13:44:49Z</time>
      </trkpt>
      <trkpt lat="43.514576" lon="-5.575213">
        <ele>63.516</ele>
        <time>2021-10-14T13:44:50Z</time>
      </trkpt>
      <trkpt lat="43.514395" lon="-5.574743">
        <ele>61.614</ele>
        <time>2021-10-14T13:44:52Z</time>
      </trkpt>
      <trkpt lat="43.514301" lon="-5.574506">
        <ele>60.782</ele>
        <time>2021-10-14T13:44:53Z</time>
      </trkpt>
      <trkpt lat="43.514118" lon="-5.574041">
        <ele>59.999</ele>
        <time>2021-10-14T13:44:55Z</time>
      </trkpt>
      <trkpt lat="43.514025" lon="-5.573813">
        <ele>59.272</ele>
        <time>2021-10-14T13:44:56Z</time>
      </trkpt>
      <trkpt lat="43.513856" lon="-5.573435">
        <ele>58.629</ele>
        <time>2021-10-14T13:44:58Z</time>
      </trkpt>
      <trkpt lat="43.513695" lon="-5.573100">
        <ele>58.591</ele>
        <time>2021-10-14T13:45:00Z</time>
      </trkpt>
      <trkpt lat="43.513620" lon="-5.572947">
        <ele>58.990</ele>
        <time>2021-10-14T13:45:01Z</time>
      </trkpt>
      <trkpt lat="43.513546" lon="-5.572799">
        <ele>59.313</ele>
        <time>2021-10-14T13:45:02Z</time>
      </trkpt>
      <trkpt lat="43.513427" lon="-5.572552">
        <ele>60.443</ele>
        <time>2021-10-14T13:45:04Z</time>
      </trkpt>
      <trkpt lat="43.513371" lon="-5.572433">
        <ele>60.407</ele>
        <time>2021-10-14T13:45:05Z</time>
      </trkpt>
      <trkpt lat="43.513271" lon="-5.572218">
        <ele>59.608</ele>
        <time>2021-10-14T13:45:07Z</time>
      </trkpt>
      <trkpt lat="43.513220" lon="-5.572119">
        <ele>58.929</ele>
        <time>2021-10-14T13:45:08Z</time>
      </trkpt>
      <trkpt lat="43.513112" lon="-5.571954">
        <ele>58.067</ele>
        <time>2021-10-14T13:45:10Z</time>
      </trkpt>
      <trkpt lat="43.512967" lon="-5.571814">
        <ele>57.175</ele>
        <time>2021-10-14T13:45:12Z</time>
      </trkpt>
      <trkpt lat="43.512841" lon="-5.571657">
        <ele>56.732</ele>
        <time>2021-10-14T13:45:14Z</time>
      </trkpt>
      <trkpt lat="43.512839" lon="-5.571440">
        <ele>56.575</ele>
        <time>2021-10-14T13:45:16Z</time>
      </trkpt>
      <trkpt lat="43.512962" lon="-5.571271">
        <ele>56.162</ele>
        <time>2021-10-14T13:45:18Z</time>
      </trkpt>
      <trkpt lat="43.513059" lon="-5.571257">
        <ele>55.994</ele>
        <time>2021-10-14T13:45:19Z</time>
      </trkpt>
      <trkpt lat="43.513161" lon="-5.571297">
        <ele>55.783</ele>
        <time>2021-10-14T13:45:20Z</time>
      </trkpt>
      <trkpt lat="43.513358" lon="-5.571460">
        <ele>56.885</ele>
        <time>2021-10-14T13:45:22Z</time>
      </trkpt>
      <trkpt lat="43.513475" lon="-5.571501">
        <ele>56.889</ele>
        <time>2021-10-14T13:45:23Z</time>
      </trkpt>
      <trkpt lat="43.513762" lon="-5.571483">
        <ele>56.617</ele>
        <time>2021-10-14T13:45:25Z</time>
      </trkpt>
      <trkpt lat="43.513945" lon="-5.571433">
        <ele>56.508</ele>
        <time>2021-10-14T13:45:26Z</time>
      </trkpt>
      <trkpt lat="43.514284" lon="-5.571266">
        <ele>56.546</ele>
        <time>2021-10-14T13:45:28Z</time>
      </trkpt>
      <trkpt lat="43.514612" lon="-5.571013">
        <ele>56.734</ele>
        <time>2021-10-14T13:45:30Z</time>
      </trkpt>
      <trkpt lat="43.514928" lon="-5.570649">
        <ele>56.592</ele>
        <time>2021-10-14T13:45:32Z</time>
      </trkpt>
      <trkpt lat="43.515186" lon="-5.570182">
        <ele>57.859</ele>
        <time>2021-10-14T13:45:34Z</time>
      </trkpt>
      <trkpt lat="43.515289" lon="-5.569913">
        <ele>58.272</ele>
        <time>2021-10-14T13:45:35Z</time>
      </trkpt>
      <trkpt lat="43.515421" lon="-5.569363">
        <ele>60.439</ele>
        <time>2021-10-14T13:45:37Z</time>
      </trkpt>
      <trkpt lat="43.515453" lon="-5.569085">
        <ele>60.931</ele>
        <time>2021-10-14T13:45:38Z</time>
      </trkpt>
      <trkpt lat="43.515475" lon="-5.568603">
        <ele>62.340</ele>
        <time>2021-10-14T13:45:40Z</time>
      </trkpt>
      <trkpt lat="43.515482" lon="-5.568139">
        <ele>64.599</ele>
        <time>2021-10-14T13:45:42Z</time>
      </trkpt>
      <trkpt lat="43.515488" lon="-5.567905">
        <ele>65.607</ele>
        <time>2021-10-14T13:45:43Z</time>
      </trkpt>
      <trkpt lat="43.515500" lon="-5.567666">
        <ele>66.627</ele>
        <time>2021-10-14T13:45:44Z</time>
      </trkpt>
      <trkpt lat="43.515556" lon="-5.567215">
        <ele>68.208</ele>
        <time>2021-10-14T13:45:46Z</time>
      </trkpt>
      <trkpt lat="43.515601" lon="-5.566994">
        <ele>69.317</ele>
        <time>2021-10-14T13:45:47Z</time>
      </trkpt>
      <trkpt lat="43.515721" lon="-5.566601">
        <ele>71.035</ele>
        <time>2021-10-14T13:45:49Z</time>
      </trkpt>
      <trkpt lat="43.515794" lon="-5.566426">
        <ele>71.563</ele>
        <time>2021-10-14T13:45:50Z</time>
      </trkpt>
      <trkpt lat="43.515956" lon="-5.566103">
        <ele>73.090</ele>
        <time>2021-10-14T13:45:52Z</time>
      </trkpt>
      <trkpt lat="43.516156" lon="-5.565789">
        <ele>74.353</ele>
        <time>2021-10-14T13:45:54Z</time>
      </trkpt>
      <trkpt lat="43.516273" lon="-5.565631">
        <ele>74.170</ele>
        <time>2021-10-14T13:45:55Z</time>
      </trkpt>
      <trkpt lat="43.516397" lon="-5.565467">
        <ele>73.542</ele>
        <time>2021-10-14T13:45:56Z</time>
      </trkpt>
      <trkpt lat="43.516631" lon="-5.565167">
        <ele>72.491</ele>
        <time>2021-10-14T13:45:58Z</time>
      </trkpt>
      <trkpt lat="43.516880" lon="-5.564865">
        <ele>70.436</ele>
        <time>2021-10-14T13:46:00Z</time>
      </trkpt>
      <trkpt lat="43.517006" lon="-5.564707">
        <ele>69.917</ele>
        <time>2021-10-14T13:46:01Z</time>
      </trkpt>
      <trkpt lat="43.517138" lon="-5.564540">
        <ele>69.318</ele>
        <time>2021-10-14T13:46:02Z</time>
      </trkpt>
      <trkpt lat="43.517388" lon="-5.564220">
        <ele>66.808</ele>
        <time>2021-10-14T13:46:04Z</time>
      </trkpt>
      <trkpt lat="43.517627" lon="-5.563916">
        <ele>66.151</ele>
        <time>2021-10-14T13:46:06Z</time>
      </trkpt>
      <trkpt lat="43.517744" lon="-5.563768">
        <ele>64.969</ele>
        <time>2021-10-14T13:46:07Z</time>
      </trkpt>
      <trkpt lat="43.517864" lon="-5.563615">
        <ele>63.787</ele>
        <time>2021-10-14T13:46:08Z</time>
      </trkpt>
      <trkpt lat="43.518094" lon="-5.563324">
        <ele>63.244</ele>
        <time>2021-10-14T13:46:10Z</time>
      </trkpt>
      <trkpt lat="43.518215" lon="-5.563171">
        <ele>63.387</ele>
        <time>2021-10-14T13:46:11Z</time>
      </trkpt>
      <trkpt lat="43.518330" lon="-5.563024">
        <ele>62.424</ele>
        <time>2021-10-14T13:46:12Z</time>
      </trkpt>
      <trkpt lat="43.518438" lon="-5.562878">
        <ele>62.146</ele>
        <time>2021-10-14T13:46:13Z</time>
      </trkpt>
      <trkpt lat="43.518540" lon="-5.562724">
        <ele>62.295</ele>
        <time>2021-10-14T13:46:14Z</time>
      </trkpt>
      <trkpt lat="43.518722" lon="-5.562384">
        <ele>61.967</ele>
        <time>2021-10-14T13:46:16Z</time>
      </trkpt>
      <trkpt lat="43.518811" lon="-5.562183">
        <ele>62.081</ele>
        <time>2021-10-14T13:46:17Z</time>
      </trkpt>
      <trkpt lat="43.518969" lon="-5.561738">
        <ele>62.619</ele>
        <time>2021-10-14T13:46:19Z</time>
      </trkpt>
      <trkpt lat="43.519036" lon="-5.561494">
        <ele>63.008</ele>
        <time>2021-10-14T13:46:20Z</time>
      </trkpt>
      <trkpt lat="43.519130" lon="-5.561015">
        <ele>64.654</ele>
        <time>2021-10-14T13:46:22Z</time>
      </trkpt>
      <trkpt lat="43.519166" lon="-5.560772">
        <ele>65.442</ele>
        <time>2021-10-14T13:46:23Z</time>
      </trkpt>
      <trkpt lat="43.519251" lon="-5.560306">
        <ele>66.650</ele>
        <time>2021-10-14T13:46:25Z</time>
      </trkpt>
      <trkpt lat="43.519311" lon="-5.560074">
        <ele>67.467</ele>
        <time>2021-10-14T13:46:26Z</time>
      </trkpt>
      <trkpt lat="43.519458" lon="-5.559668">
        <ele>67.610</ele>
        <time>2021-10-14T13:46:28Z</time>
      </trkpt>
      <trkpt lat="43.519641" lon="-5.559335">
        <ele>67.597</ele>
        <time>2021-10-14T13:46:30Z</time>
      </trkpt>
      <trkpt lat="43.519734" lon="-5.559201">
        <ele>67.669</ele>
        <time>2021-10-14T13:46:31Z</time>
      </trkpt>
      <trkpt lat="43.519889" lon="-5.559009">
        <ele>67.938</ele>
        <time>2021-10-14T13:46:33Z</time>
      </trkpt>
      <trkpt lat="43.519990" lon="-5.558839">
        <ele>66.939</ele>
        <time>2021-10-14T13:46:35Z</time>
      </trkpt>
      <trkpt lat="43.520011" lon="-5.558732">
        <ele>67.201</ele>
        <time>2021-10-14T13:46:36Z</time>
      </trkpt>
      <trkpt lat="43.520008" lon="-5.558613">
        <ele>67.221</ele>
        <time>2021-10-14T13:46:37Z</time>
      </trkpt>
      <trkpt lat="43.519980" lon="-5.558481">
        <ele>67.508</ele>
        <time>2021-10-14T13:46:38Z</time>
      </trkpt>
      <trkpt lat="43.519885" lon="-5.558199">
        <ele>67.951</ele>
        <time>2021-10-14T13:46:40Z</time>
      </trkpt>
      <trkpt lat="43.519766" lon="-5.557857">
        <ele>68.279</ele>
        <time>2021-10-14T13:46:42Z</time>
      </trkpt>
      <trkpt lat="43.519704" lon="-5.557664">
        <ele>69.197</ele>
        <time>2021-10-14T13:46:43Z</time>
      </trkpt>
      <trkpt lat="43.519643" lon="-5.557472">
        <ele>68.664</ele>
        <time>2021-10-14T13:46:44Z</time>
      </trkpt>
      <trkpt lat="43.519518" lon="-5.557083">
        <ele>68.947</ele>
        <time>2021-10-14T13:46:46Z</time>
      </trkpt>
      <trkpt lat="43.519451" lon="-5.556878">
        <ele>69.244</ele>
        <time>2021-10-14T13:46:47Z</time>
      </trkpt>
      <trkpt lat="43.519389" lon="-5.556686">
        <ele>69.566</ele>
        <time>2021-10-14T13:46:48Z</time>
      </trkpt>
      <trkpt lat="43.519332" lon="-5.556503">
        <ele>70.085</ele>
        <time>2021-10-14T13:46:49Z</time>
      </trkpt>
      <trkpt lat="43.519278" lon="-5.556329">
        <ele>70.241</ele>
        <time>2021-10-14T13:46:50Z</time>
      </trkpt>
      <trkpt lat="43.519175" lon="-5.556006">
        <ele>70.381</ele>
        <time>2021-10-14T13:46:52Z</time>
      </trkpt>
      <trkpt lat="43.519068" lon="-5.555665">
        <ele>71.709</ele>
        <time>2021-10-14T13:46:54Z</time>
      </trkpt>
      <trkpt lat="43.519016" lon="-5.555500">
        <ele>72.108</ele>
        <time>2021-10-14T13:46:55Z</time>
      </trkpt>
      <trkpt lat="43.518966" lon="-5.555343">
        <ele>72.182</ele>
        <time>2021-10-14T13:46:56Z</time>
      </trkpt>
      <trkpt lat="43.518878" lon="-5.555074">
        <ele>72.040</ele>
        <time>2021-10-14T13:46:58Z</time>
      </trkpt>
      <trkpt lat="43.518842" lon="-5.554960">
        <ele>72.568</ele>
        <time>2021-10-14T13:46:59Z</time>
      </trkpt>
      <trkpt lat="43.518784" lon="-5.554796">
        <ele>73.155</ele>
        <time>2021-10-14T13:47:01Z</time>
      </trkpt>
      <trkpt lat="43.518754" lon="-5.554712">
        <ele>72.978</ele>
        <time>2021-10-14T13:47:02Z</time>
      </trkpt>
      <trkpt lat="43.518668" lon="-5.554508">
        <ele>72.495</ele>
        <time>2021-10-14T13:47:04Z</time>
      </trkpt>
      <trkpt lat="43.518535" lon="-5.554279">
        <ele>71.787</ele>
        <time>2021-10-14T13:47:06Z</time>
      </trkpt>
      <trkpt lat="43.518454" lon="-5.554136">
        <ele>71.546</ele>
        <time>2021-10-14T13:47:07Z</time>
      </trkpt>
      <trkpt lat="43.518360" lon="-5.553971">
        <ele>71.528</ele>
        <time>2021-10-14T13:47:08Z</time>
      </trkpt>
      <trkpt lat="43.518157" lon="-5.553621">
        <ele>69.189</ele>
        <time>2021-10-14T13:47:10Z</time>
      </trkpt>
      <trkpt lat="43.517934" lon="-5.553234">
        <ele>67.117</ele>
        <time>2021-10-14T13:47:12Z</time>
      </trkpt>
      <trkpt lat="43.517827" lon="-5.553045">
        <ele>66.108</ele>
        <time>2021-10-14T13:47:13Z</time>
      </trkpt>
      <trkpt lat="43.517722" lon="-5.552861">
        <ele>64.650</ele>
        <time>2021-10-14T13:47:14Z</time>
      </trkpt>
      <trkpt lat="43.517524" lon="-5.552526">
        <ele>62.518</ele>
        <time>2021-10-14T13:47:16Z</time>
      </trkpt>
      <trkpt lat="43.517413" lon="-5.552357">
        <ele>61.896</ele>
        <time>2021-10-14T13:47:17Z</time>
      </trkpt>
      <trkpt lat="43.517287" lon="-5.552201">
        <ele>61.073</ele>
        <time>2021-10-14T13:47:18Z</time>
      </trkpt>
      <trkpt lat="43.517008" lon="-5.551932">
        <ele>58.836</ele>
        <time>2021-10-14T13:47:20Z</time>
      </trkpt>
      <trkpt lat="43.516761" lon="-5.551737">
        <ele>57.123</ele>
        <time>2021-10-14T13:47:22Z</time>
      </trkpt>
      <trkpt lat="43.516533" lon="-5.551602">
        <ele>55.535</ele>
        <time>2021-10-14T13:47:24Z</time>
      </trkpt>
      <trkpt lat="43.516414" lon="-5.551584">
        <ele>53.894</ele>
        <time>2021-10-14T13:47:25Z</time>
      </trkpt>
      <trkpt lat="43.516286" lon="-5.551618">
        <ele>53.735</ele>
        <time>2021-10-14T13:47:26Z</time>
      </trkpt>
      <trkpt lat="43.516048" lon="-5.551821">
        <ele>52.286</ele>
        <time>2021-10-14T13:47:28Z</time>
      </trkpt>
      <trkpt lat="43.515931" lon="-5.551905">
        <ele>52.014</ele>
        <time>2021-10-14T13:47:29Z</time>
      </trkpt>
      <trkpt lat="43.515699" lon="-5.551938">
        <ele>50.808</ele>
        <time>2021-10-14T13:47:31Z</time>
      </trkpt>
      <trkpt lat="43.515596" lon="-5.551870">
        <ele>49.861</ele>
        <time>2021-10-14T13:47:32Z</time>
      </trkpt>
      <trkpt lat="43.515477" lon="-5.551548">
        <ele>49.619</ele>
        <time>2021-10-14T13:47:34Z</time>
      </trkpt>
      <trkpt lat="43.515433" lon="-5.551358">
        <ele>48.987</ele>
        <time>2021-10-14T13:47:35Z</time>
      </trkpt>
      <trkpt lat="43.515344" lon="-5.551038">
        <ele>47.694</ele>
        <time>2021-10-14T13:47:37Z</time>
      </trkpt>
      <trkpt lat="43.515298" lon="-5.550889">
        <ele>47.017</ele>
        <time>2021-10-14T13:47:38Z</time>
      </trkpt>
      <trkpt lat="43.515203" lon="-5.550628">
        <ele>46.464</ele>
        <time>2021-10-14T13:47:40Z</time>
      </trkpt>
      <trkpt lat="43.515145" lon="-5.550511">
        <ele>46.096</ele>
        <time>2021-10-14T13:47:41Z</time>
      </trkpt>
      <trkpt lat="43.514995" lon="-5.550340">
        <ele>45.145</ele>
        <time>2021-10-14T13:47:43Z</time>
      </trkpt>
      <trkpt lat="43.514900" lon="-5.550291">
        <ele>45.022</ele>
        <time>2021-10-14T13:47:44Z</time>
      </trkpt>
      <trkpt lat="43.514707" lon="-5.550273">
        <ele>44.162</ele>
        <time>2021-10-14T13:47:46Z</time>
      </trkpt>
      <trkpt lat="43.514518" lon="-5.550250">
        <ele>42.708</ele>
        <time>2021-10-14T13:47:48Z</time>
      </trkpt>
      <trkpt lat="43.514361" lon="-5.550124">
        <ele>41.708</ele>
        <time>2021-10-14T13:47:50Z</time>
      </trkpt>
      <trkpt lat="43.514244" lon="-5.549917">
        <ele>41.110</ele>
        <time>2021-10-14T13:47:52Z</time>
      </trkpt>
      <trkpt lat="43.514086" lon="-5.549776">
        <ele>40.118</ele>
        <time>2021-10-14T13:47:54Z</time>
      </trkpt>
      <trkpt lat="43.513875" lon="-5.549702">
        <ele>39.076</ele>
        <time>2021-10-14T13:47:56Z</time>
      </trkpt>
      <trkpt lat="43.513643" lon="-5.549649">
        <ele>38.063</ele>
        <time>2021-10-14T13:47:58Z</time>
      </trkpt>
      <trkpt lat="43.513526" lon="-5.549620">
        <ele>37.196</ele>
        <time>2021-10-14T13:47:59Z</time>
      </trkpt>
      <trkpt lat="43.513414" lon="-5.549593">
        <ele>36.633</ele>
        <time>2021-10-14T13:48:00Z</time>
      </trkpt>
      <trkpt lat="43.513204" lon="-5.549537">
        <ele>35.015</ele>
        <time>2021-10-14T13:48:02Z</time>
      </trkpt>
      <trkpt lat="43.513039" lon="-5.549480">
        <ele>35.084</ele>
        <time>2021-10-14T13:48:04Z</time>
      </trkpt>
      <trkpt lat="43.512966" lon="-5.549440">
        <ele>35.127</ele>
        <time>2021-10-14T13:48:05Z</time>
      </trkpt>
      <trkpt lat="43.512862" lon="-5.549301">
        <ele>34.668</ele>
        <time>2021-10-14T13:48:07Z</time>
      </trkpt>
      <trkpt lat="43.512846" lon="-5.549209">
        <ele>34.614</ele>
        <time>2021-10-14T13:48:08Z</time>
      </trkpt>
      <trkpt lat="43.512924" lon="-5.549015">
        <ele>35.108</ele>
        <time>2021-10-14T13:48:10Z</time>
      </trkpt>
      <trkpt lat="43.513085" lon="-5.548874">
        <ele>36.070</ele>
        <time>2021-10-14T13:48:12Z</time>
      </trkpt>
      <trkpt lat="43.513349" lon="-5.548823">
        <ele>36.488</ele>
        <time>2021-10-14T13:48:14Z</time>
      </trkpt>
      <trkpt lat="43.513737" lon="-5.548854">
        <ele>35.486</ele>
        <time>2021-10-14T13:48:16Z</time>
      </trkpt>
      <trkpt lat="43.513936" lon="-5.548872">
        <ele>35.013</ele>
        <time>2021-10-14T13:48:17Z</time>
      </trkpt>
      <trkpt lat="43.514282" lon="-5.548880">
        <ele>32.766</ele>
        <time>2021-10-14T13:48:19Z</time>
      </trkpt>
      <trkpt lat="43.514445" lon="-5.548885">
        <ele>31.113</ele>
        <time>2021-10-14T13:48:20Z</time>
      </trkpt>
      <trkpt lat="43.514727" lon="-5.548891">
        <ele>30.465</ele>
        <time>2021-10-14T13:48:22Z</time>
      </trkpt>
      <trkpt lat="43.514987" lon="-5.548893">
        <ele>28.744</ele>
        <time>2021-10-14T13:48:24Z</time>
      </trkpt>
      <trkpt lat="43.515231" lon="-5.548893">
        <ele>28.824</ele>
        <time>2021-10-14T13:48:26Z</time>
      </trkpt>
      <trkpt lat="43.515465" lon="-5.548879">
        <ele>27.004</ele>
        <time>2021-10-14T13:48:28Z</time>
      </trkpt>
      <trkpt lat="43.515681" lon="-5.548791">
        <ele>25.214</ele>
        <time>2021-10-14T13:48:30Z</time>
      </trkpt>
      <trkpt lat="43.515769" lon="-5.548692">
        <ele>23.608</ele>
        <time>2021-10-14T13:48:31Z</time>
      </trkpt>
      <trkpt lat="43.515844" lon="-5.548554">
        <ele>22.470</ele>
        <time>2021-10-14T13:48:32Z</time>
      </trkpt>
      <trkpt lat="43.515942" lon="-5.548223">
        <ele>21.248</ele>
        <time>2021-10-14T13:48:34Z</time>
      </trkpt>
      <trkpt lat="43.515963" lon="-5.547863">
        <ele>19.916</ele>
        <time>2021-10-14T13:48:36Z</time>
      </trkpt>
      <trkpt lat="43.515949" lon="-5.547662">
        <ele>19.913</ele>
        <time>2021-10-14T13:48:37Z</time>
      </trkpt>
      <trkpt lat="43.515923" lon="-5.547429">
        <ele>17.846</ele>
        <time>2021-10-14T13:48:38Z</time>
      </trkpt>
      <trkpt lat="43.515810" lon="-5.546910">
        <ele>17.093</ele>
        <time>2021-10-14T13:48:40Z</time>
      </trkpt>
      <trkpt lat="43.515765" lon="-5.546406">
        <ele>15.145</ele>
        <time>2021-10-14T13:48:42Z</time>
      </trkpt>
      <trkpt lat="43.515786" lon="-5.545965">
        <ele>12.984</ele>
        <time>2021-10-14T13:48:44Z</time>
      </trkpt>
      <trkpt lat="43.515717" lon="-5.545611">
        <ele>12.152</ele>
        <time>2021-10-14T13:48:46Z</time>
      </trkpt>
      <trkpt lat="43.515482" lon="-5.545366">
        <ele>9.153</ele>
        <time>2021-10-14T13:48:48Z</time>
      </trkpt>
      <trkpt lat="43.515329" lon="-5.545276">
        <ele>8.508</ele>
        <time>2021-10-14T13:48:49Z</time>
      </trkpt>
      <trkpt lat="43.515158" lon="-5.545212">
        <ele>7.508</ele>
        <time>2021-10-14T13:48:50Z</time>
      </trkpt>
      <trkpt lat="43.514828" lon="-5.545099">
        <ele>4.323</ele>
        <time>2021-10-14T13:48:52Z</time>
      </trkpt>
      <trkpt lat="43.514562" lon="-5.544876">
        <ele>2.271</ele>
        <time>2021-10-14T13:48:54Z</time>
      </trkpt>
      <trkpt lat="43.514310" lon="-5.544711">
        <ele>0.439</ele>
        <time>2021-10-14T13:48:56Z</time>
      </trkpt>
      <trkpt lat="43.514083" lon="-5.544755">
        <ele>-1.386</ele>
        <time>2021-10-14T13:48:58Z</time>
      </trkpt>
      <trkpt lat="43.513974" lon="-5.544861">
        <ele>-1.329</ele>
        <time>2021-10-14T13:48:59Z</time>
      </trkpt>
      <trkpt lat="43.513852" lon="-5.545020">
        <ele>-2.626</ele>
        <time>2021-10-14T13:49:00Z</time>
      </trkpt>
      <trkpt lat="43.513535" lon="-5.545393">
        <ele>-4.968</ele>
        <time>2021-10-14T13:49:02Z</time>
      </trkpt>
      <trkpt lat="43.513176" lon="-5.545675">
        <ele>-6.247</ele>
        <time>2021-10-14T13:49:04Z</time>
      </trkpt>
      <trkpt lat="43.512816" lon="-5.545837">
        <ele>-8.855</ele>
        <time>2021-10-14T13:49:06Z</time>
      </trkpt>
      <trkpt lat="43.512636" lon="-5.545872">
        <ele>-9.907</ele>
        <time>2021-10-14T13:49:07Z</time>
      </trkpt>
      <trkpt lat="43.512449" lon="-5.545879">
        <ele>-10.717</ele>
        <time>2021-10-14T13:49:08Z</time>
      </trkpt>
      <trkpt lat="43.512075" lon="-5.545813">
        <ele>-12.508</ele>
        <time>2021-10-14T13:49:10Z</time>
      </trkpt>
      <trkpt lat="43.511890" lon="-5.545724">
        <ele>-13.263</ele>
        <time>2021-10-14T13:49:11Z</time>
      </trkpt>
      <trkpt lat="43.511724" lon="-5.545597">
        <ele>-13.991</ele>
        <time>2021-10-14T13:49:12Z</time>
      </trkpt>
      <trkpt lat="43.511569" lon="-5.545440">
        <ele>-15.519</ele>
        <time>2021-10-14T13:49:13Z</time>
      </trkpt>
      <trkpt lat="43.511423" lon="-5.545259">
        <ele>-18.226</ele>
        <time>2021-10-14T13:49:14Z</time>
      </trkpt>
      <trkpt lat="43.511170" lon="-5.544859">
        <ele>-20.529</ele>
        <time>2021-10-14T13:49:16Z</time>
      </trkpt>
      <trkpt lat="43.511052" lon="-5.544650">
        <ele>-21.326</ele>
        <time>2021-10-14T13:49:17Z</time>
      </trkpt>
      <trkpt lat="43.510934" lon="-5.544448">
        <ele>-22.878</ele>
        <time>2021-10-14T13:49:18Z</time>
      </trkpt>
      <trkpt lat="43.510701" lon="-5.544039">
        <ele>-24.547</ele>
        <time>2021-10-14T13:49:20Z</time>
      </trkpt>
      <trkpt lat="43.510489" lon="-5.543670">
        <ele>-25.911</ele>
        <time>2021-10-14T13:49:22Z</time>
      </trkpt>
      <trkpt lat="43.510385" lon="-5.543495">
        <ele>-27.221</ele>
        <time>2021-10-14T13:49:23Z</time>
      </trkpt>
      <trkpt lat="43.510126" lon="-5.543173">
        <ele>-29.003</ele>
        <time>2021-10-14T13:49:25Z</time>
      </trkpt>
      <trkpt lat="43.509977" lon="-5.543025">
        <ele>-29.008</ele>
        <time>2021-10-14T13:49:26Z</time>
      </trkpt>
      <trkpt lat="43.509711" lon="-5.542772">
        <ele>-30.499</ele>
        <time>2021-10-14T13:49:28Z</time>
      </trkpt>
      <trkpt lat="43.509599" lon="-5.542640">
        <ele>-30.517</ele>
        <time>2021-10-14T13:49:29Z</time>
      </trkpt>
      <trkpt lat="43.509476" lon="-5.542362">
        <ele>-31.765</ele>
        <time>2021-10-14T13:49:31Z</time>
      </trkpt>
      <trkpt lat="43.509451" lon="-5.542173">
        <ele>-32.662</ele>
        <time>2021-10-14T13:49:32Z</time>
      </trkpt>
      <trkpt lat="43.509451" lon="-5.541751">
        <ele>-32.095</ele>
        <time>2021-10-14T13:49:34Z</time>
      </trkpt>
      <trkpt lat="43.509478" lon="-5.541534">
        <ele>-30.752</ele>
        <time>2021-10-14T13:49:35Z</time>
      </trkpt>
      <trkpt lat="43.509608" lon="-5.541180">
        <ele>-30.154</ele>
        <time>2021-10-14T13:49:37Z</time>
      </trkpt>
      <trkpt lat="43.509709" lon="-5.541011">
        <ele>-29.413</ele>
        <time>2021-10-14T13:49:38Z</time>
      </trkpt>
      <trkpt lat="43.509888" lon="-5.540625">
        <ele>-27.627</ele>
        <time>2021-10-14T13:49:40Z</time>
      </trkpt>
      <trkpt lat="43.509976" lon="-5.540173">
        <ele>-26.968</ele>
        <time>2021-10-14T13:49:42Z</time>
      </trkpt>
      <trkpt lat="43.509936" lon="-5.539690">
        <ele>-25.514</ele>
        <time>2021-10-14T13:49:44Z</time>
      </trkpt>
      <trkpt lat="43.509782" lon="-5.539187">
        <ele>-23.808</ele>
        <time>2021-10-14T13:49:46Z</time>
      </trkpt>
      <trkpt lat="43.509710" lon="-5.538910">
        <ele>-22.570</ele>
        <time>2021-10-14T13:49:47Z</time>
      </trkpt>
      <trkpt lat="43.509661" lon="-5.538624">
        <ele>-20.068</ele>
        <time>2021-10-14T13:49:48Z</time>
      </trkpt>
      <trkpt lat="43.509627" lon="-5.538336">
        <ele>-19.556</ele>
        <time>2021-10-14T13:49:49Z</time>
      </trkpt>
      <trkpt lat="43.509571" lon="-5.538048">
        <ele>-17.013</ele>
        <time>2021-10-14T13:49:50Z</time>
      </trkpt>
      <trkpt lat="43.509397" lon="-5.537531">
        <ele>-14.876</ele>
        <time>2021-10-14T13:49:52Z</time>
      </trkpt>
      <trkpt lat="43.509305" lon="-5.537288">
        <ele>-13.463</ele>
        <time>2021-10-14T13:49:53Z</time>
      </trkpt>
      <trkpt lat="43.509234" lon="-5.537043">
        <ele>-12.955</ele>
        <time>2021-10-14T13:49:54Z</time>
      </trkpt>
      <trkpt lat="43.509176" lon="-5.536504">
        <ele>-9.714</ele>
        <time>2021-10-14T13:49:56Z</time>
      </trkpt>
      <trkpt lat="43.509215" lon="-5.535884">
        <ele>-7.649</ele>
        <time>2021-10-14T13:49:58Z</time>
      </trkpt>
      <trkpt lat="43.509255" lon="-5.535193">
        <ele>-3.502</ele>
        <time>2021-10-14T13:50:00Z</time>
      </trkpt>
      <trkpt lat="43.509322" lon="-5.534479">
        <ele>-0.422</ele>
        <time>2021-10-14T13:50:02Z</time>
      </trkpt>
      <trkpt lat="43.509423" lon="-5.533837">
        <ele>1.908</ele>
        <time>2021-10-14T13:50:04Z</time>
      </trkpt>
      <trkpt lat="43.509535" lon="-5.533230">
        <ele>4.032</ele>
        <time>2021-10-14T13:50:06Z</time>
      </trkpt>
      <trkpt lat="43.509599" lon="-5.532949">
        <ele>5.540</ele>
        <time>2021-10-14T13:50:07Z</time>
      </trkpt>
      <trkpt lat="43.509672" lon="-5.532686">
        <ele>6.528</ele>
        <time>2021-10-14T13:50:08Z</time>
      </trkpt>
      <trkpt lat="43.509814" lon="-5.532248">
        <ele>8.745</ele>
        <time>2021-10-14T13:50:10Z</time>
      </trkpt>
      <trkpt lat="43.509882" lon="-5.532055">
        <ele>9.628</ele>
        <time>2021-10-14T13:50:11Z</time>
      </trkpt>
      <trkpt lat="43.510067" lon="-5.531719">
        <ele>11.415</ele>
        <time>2021-10-14T13:50:13Z</time>
      </trkpt>
      <trkpt lat="43.510199" lon="-5.531584">
        <ele>12.357</ele>
        <time>2021-10-14T13:50:14Z</time>
      </trkpt>
      <trkpt lat="43.510520" lon="-5.531484">
        <ele>14.036</ele>
        <time>2021-10-14T13:50:16Z</time>
      </trkpt>
      <trkpt lat="43.510696" lon="-5.531477">
        <ele>14.133</ele>
        <time>2021-10-14T13:50:17Z</time>
      </trkpt>
      <trkpt lat="43.510858" lon="-5.531438">
        <ele>14.223</ele>
        <time>2021-10-14T13:50:18Z</time>
      </trkpt>
      <trkpt lat="43.511096" lon="-5.531194">
        <ele>14.915</ele>
        <time>2021-10-14T13:50:20Z</time>
      </trkpt>
      <trkpt lat="43.511217" lon="-5.530794">
        <ele>16.208</ele>
        <time>2021-10-14T13:50:22Z</time>
      </trkpt>
      <trkpt lat="43.511366" lon="-5.530438">
        <ele>18.331</ele>
        <time>2021-10-14T13:50:24Z</time>
      </trkpt>
      <trkpt lat="43.511456" lon="-5.530306">
        <ele>18.919</ele>
        <time>2021-10-14T13:50:25Z</time>
      </trkpt>
      <trkpt lat="43.511555" lon="-5.530181">
        <ele>19.617</ele>
        <time>2021-10-14T13:50:26Z</time>
      </trkpt>
      <trkpt lat="43.511755" lon="-5.529948">
        <ele>21.334</ele>
        <time>2021-10-14T13:50:28Z</time>
      </trkpt>
      <trkpt lat="43.511977" lon="-5.529702">
        <ele>22.657</ele>
        <time>2021-10-14T13:50:30Z</time>
      </trkpt>
      <trkpt lat="43.512202" lon="-5.529454">
        <ele>23.844</ele>
        <time>2021-10-14T13:50:32Z</time>
      </trkpt>
      <trkpt lat="43.512411" lon="-5.529299">
        <ele>24.736</ele>
        <time>2021-10-14T13:50:34Z</time>
      </trkpt>
      <trkpt lat="43.512515" lon="-5.529269">
        <ele>26.145</ele>
        <time>2021-10-14T13:50:35Z</time>
      </trkpt>
      <trkpt lat="43.512613" lon="-5.529230">
        <ele>26.496</ele>
        <time>2021-10-14T13:50:36Z</time>
      </trkpt>
      <trkpt lat="43.512786" lon="-5.529055">
        <ele>26.831</ele>
        <time>2021-10-14T13:50:38Z</time>
      </trkpt>
      <trkpt lat="43.512847" lon="-5.528726">
        <ele>27.724</ele>
        <time>2021-10-14T13:50:40Z</time>
      </trkpt>
      <trkpt lat="43.512850" lon="-5.528295">
        <ele>29.708</ele>
        <time>2021-10-14T13:50:42Z</time>
      </trkpt>
      <trkpt lat="43.512865" lon="-5.528074">
        <ele>31.177</ele>
        <time>2021-10-14T13:50:43Z</time>
      </trkpt>
      <trkpt lat="43.512874" lon="-5.527853">
        <ele>32.135</ele>
        <time>2021-10-14T13:50:44Z</time>
      </trkpt>
      <trkpt lat="43.512889" lon="-5.527446">
        <ele>33.353</ele>
        <time>2021-10-14T13:50:46Z</time>
      </trkpt>
      <trkpt lat="43.512912" lon="-5.527251">
        <ele>34.550</ele>
        <time>2021-10-14T13:50:47Z</time>
      </trkpt>
      <trkpt lat="43.512972" lon="-5.526909">
        <ele>36.943</ele>
        <time>2021-10-14T13:50:49Z</time>
      </trkpt>
      <trkpt lat="43.513010" lon="-5.526745">
        <ele>37.040</ele>
        <time>2021-10-14T13:50:50Z</time>
      </trkpt>
      <trkpt lat="43.513098" lon="-5.526419">
        <ele>38.432</ele>
        <time>2021-10-14T13:50:52Z</time>
      </trkpt>
      <trkpt lat="43.513184" lon="-5.526071">
        <ele>39.511</ele>
        <time>2021-10-14T13:50:54Z</time>
      </trkpt>
      <trkpt lat="43.513223" lon="-5.525907">
        <ele>39.761</ele>
        <time>2021-10-14T13:50:55Z</time>
      </trkpt>
      <trkpt lat="43.513254" lon="-5.525756">
        <ele>40.621</ele>
        <time>2021-10-14T13:50:56Z</time>
      </trkpt>
      <trkpt lat="43.513297" lon="-5.525504">
        <ele>41.413</ele>
        <time>2021-10-14T13:50:58Z</time>
      </trkpt>
      <trkpt lat="43.513314" lon="-5.525391">
        <ele>42.208</ele>
        <time>2021-10-14T13:50:59Z</time>
      </trkpt>
      <trkpt lat="43.513346" lon="-5.525165">
        <ele>42.824</ele>
        <time>2021-10-14T13:51:01Z</time>
      </trkpt>
      <trkpt lat="43.513360" lon="-5.525047">
        <ele>43.262</ele>
        <time>2021-10-14T13:51:02Z</time>
      </trkpt>
      <trkpt lat="43.513369" lon="-5.524883">
        <ele>43.590</ele>
        <time>2021-10-14T13:51:04Z</time>
      </trkpt>
      <trkpt lat="43.513361" lon="-5.524771">
        <ele>43.747</ele>
        <time>2021-10-14T13:51:06Z</time>
      </trkpt>
      <trkpt lat="43.513332" lon="-5.524658">
        <ele>44.190</ele>
        <time>2021-10-14T13:51:08Z</time>
      </trkpt>
      <trkpt lat="43.513256" lon="-5.524518">
        <ele>44.437</ele>
        <time>2021-10-14T13:51:10Z</time>
      </trkpt>
      <trkpt lat="43.513152" lon="-5.524448">
        <ele>45.119</ele>
        <time>2021-10-14T13:51:12Z</time>
      </trkpt>
      <trkpt lat="43.513033" lon="-5.524415">
        <ele>45.578</ele>
        <time>2021-10-14T13:51:14Z</time>
      </trkpt>
      <trkpt lat="43.512913" lon="-5.524324">
        <ele>46.084</ele>
        <time>2021-10-14T13:51:16Z</time>
      </trkpt>
      <trkpt lat="43.512864" lon="-5.524240">
        <ele>46.207</ele>
        <time>2021-10-14T13:51:17Z</time>
      </trkpt>
      <trkpt lat="43.512806" lon="-5.524015">
        <ele>47.317</ele>
        <time>2021-10-14T13:51:19Z</time>
      </trkpt>
      <trkpt lat="43.512793" lon="-5.523877">
        <ele>47.308</ele>
        <time>2021-10-14T13:51:20Z</time>
      </trkpt>
      <trkpt lat="43.512755" lon="-5.523597">
        <ele>48.016</ele>
        <time>2021-10-14T13:51:22Z</time>
      </trkpt>
      <trkpt lat="43.512728" lon="-5.523303">
        <ele>49.244</ele>
        <time>2021-10-14T13:51:24Z</time>
      </trkpt>
      <trkpt lat="43.512751" lon="-5.522980">
        <ele>50.042</ele>
        <time>2021-10-14T13:51:26Z</time>
      </trkpt>
      <trkpt lat="43.512831" lon="-5.522645">
        <ele>51.129</ele>
        <time>2021-10-14T13:51:28Z</time>
      </trkpt>
      <trkpt lat="43.512887" lon="-5.522458">
        <ele>52.432</ele>
        <time>2021-10-14T13:51:29Z</time>
      </trkpt>
      <trkpt lat="43.513014" lon="-5.522031">
        <ele>53.359</ele>
        <time>2021-10-14T13:51:31Z</time>
      </trkpt>
      <trkpt lat="43.513073" lon="-5.521797">
        <ele>54.311</ele>
        <time>2021-10-14T13:51:32Z</time>
      </trkpt>
      <trkpt lat="43.513204" lon="-5.521339">
        <ele>56.150</ele>
        <time>2021-10-14T13:51:34Z</time>
      </trkpt>
      <trkpt lat="43.513269" lon="-5.521127">
        <ele>57.213</ele>
        <time>2021-10-14T13:51:35Z</time>
      </trkpt>
      <trkpt lat="43.513330" lon="-5.520930">
        <ele>57.943</ele>
        <time>2021-10-14T13:51:36Z</time>
      </trkpt>
      <trkpt lat="43.513430" lon="-5.520518">
        <ele>59.007</ele>
        <time>2021-10-14T13:51:38Z</time>
      </trkpt>
      <trkpt lat="43.513404" lon="-5.520080">
        <ele>59.808</ele>
        <time>2021-10-14T13:51:40Z</time>
      </trkpt>
      <trkpt lat="43.513348" lon="-5.519852">
        <ele>60.639</ele>
        <time>2021-10-14T13:51:41Z</time>
      </trkpt>
      <trkpt lat="43.513305" lon="-5.519624">
        <ele>60.717</ele>
        <time>2021-10-14T13:51:42Z</time>
      </trkpt>
      <trkpt lat="43.513314" lon="-5.519169">
        <ele>61.555</ele>
        <time>2021-10-14T13:51:44Z</time>
      </trkpt>
      <trkpt lat="43.513471" lon="-5.518805">
        <ele>62.242</ele>
        <time>2021-10-14T13:51:46Z</time>
      </trkpt>
      <trkpt lat="43.513546" lon="-5.518644">
        <ele>62.765</ele>
        <time>2021-10-14T13:51:47Z</time>
      </trkpt>
      <trkpt lat="43.513588" lon="-5.518307">
        <ele>63.242</ele>
        <time>2021-10-14T13:51:49Z</time>
      </trkpt>
      <trkpt lat="43.513556" lon="-5.518146">
        <ele>64.044</ele>
        <time>2021-10-14T13:51:50Z</time>
      </trkpt>
      <trkpt lat="43.513448" lon="-5.517895">
        <ele>64.293</ele>
        <time>2021-10-14T13:51:52Z</time>
      </trkpt>
      <trkpt lat="43.513378" lon="-5.517667">
        <ele>64.272</ele>
        <time>2021-10-14T13:51:54Z</time>
      </trkpt>
      <trkpt lat="43.513404" lon="-5.517423">
        <ele>64.913</ele>
        <time>2021-10-14T13:51:56Z</time>
      </trkpt>
      <trkpt lat="43.513491" lon="-5.517165">
        <ele>66.514</ele>
        <time>2021-10-14T13:51:58Z</time>
      </trkpt>
      <trkpt lat="43.513514" lon="-5.517021">
        <ele>66.808</ele>
        <time>2021-10-14T13:51:59Z</time>
      </trkpt>
      <trkpt lat="43.513468" lon="-5.516733">
        <ele>68.555</ele>
        <time>2021-10-14T13:52:01Z</time>
      </trkpt>
      <trkpt lat="43.513421" lon="-5.516585">
        <ele>68.983</ele>
        <time>2021-10-14T13:52:02Z</time>
      </trkpt>
      <trkpt lat="43.513367" lon="-5.516274">
        <ele>70.161</ele>
        <time>2021-10-14T13:52:04Z</time>
      </trkpt>
      <trkpt lat="43.513369" lon="-5.516091">
        <ele>71.538</ele>
        <time>2021-10-14T13:52:05Z</time>
      </trkpt>
      <trkpt lat="43.513386" lon="-5.515897">
        <ele>72.281</ele>
        <time>2021-10-14T13:52:06Z</time>
      </trkpt>
      <trkpt lat="43.513394" lon="-5.515701">
        <ele>72.888</ele>
        <time>2021-10-14T13:52:07Z</time>
      </trkpt>
      <trkpt lat="43.513381" lon="-5.515514">
        <ele>73.520</ele>
        <time>2021-10-14T13:52:08Z</time>
      </trkpt>
      <trkpt lat="43.513292" lon="-5.515201">
        <ele>74.229</ele>
        <time>2021-10-14T13:52:10Z</time>
      </trkpt>
      <trkpt lat="43.513224" lon="-5.514904">
        <ele>74.696</ele>
        <time>2021-10-14T13:52:12Z</time>
      </trkpt>
      <trkpt lat="43.513216" lon="-5.514749">
        <ele>75.231</ele>
        <time>2021-10-14T13:52:13Z</time>
      </trkpt>
      <trkpt lat="43.513224" lon="-5.514583">
        <ele>75.324</ele>
        <time>2021-10-14T13:52:14Z</time>
      </trkpt>
      <trkpt lat="43.513259" lon="-5.514253">
        <ele>76.808</ele>
        <time>2021-10-14T13:52:16Z</time>
      </trkpt>
      <trkpt lat="43.513303" lon="-5.513906">
        <ele>77.277</ele>
        <time>2021-10-14T13:52:18Z</time>
      </trkpt>
      <trkpt lat="43.513336" lon="-5.513732">
        <ele>77.485</ele>
        <time>2021-10-14T13:52:19Z</time>
      </trkpt>
      <trkpt lat="43.513377" lon="-5.513557">
        <ele>77.773</ele>
        <time>2021-10-14T13:52:20Z</time>
      </trkpt>
      <trkpt lat="43.513452" lon="-5.513234">
        <ele>78.060</ele>
        <time>2021-10-14T13:52:22Z</time>
      </trkpt>
      <trkpt lat="43.513481" lon="-5.513076">
        <ele>78.393</ele>
        <time>2021-10-14T13:52:23Z</time>
      </trkpt>
      <trkpt lat="43.513509" lon="-5.512921">
        <ele>78.690</ele>
        <time>2021-10-14T13:52:24Z</time>
      </trkpt>
      <trkpt lat="43.513557" lon="-5.512597">
        <ele>80.452</ele>
        <time>2021-10-14T13:52:26Z</time>
      </trkpt>
      <trkpt lat="43.513607" lon="-5.512253">
        <ele>83.221</ele>
        <time>2021-10-14T13:52:28Z</time>
      </trkpt>
      <trkpt lat="43.513630" lon="-5.512062">
        <ele>83.246</ele>
        <time>2021-10-14T13:52:29Z</time>
      </trkpt>
      <trkpt lat="43.513681" lon="-5.511668">
        <ele>85.188</ele>
        <time>2021-10-14T13:52:31Z</time>
      </trkpt>
      <trkpt lat="43.513702" lon="-5.511458">
        <ele>85.916</ele>
        <time>2021-10-14T13:52:32Z</time>
      </trkpt>
      <trkpt lat="43.513735" lon="-5.511070">
        <ele>87.008</ele>
        <time>2021-10-14T13:52:34Z</time>
      </trkpt>
      <trkpt lat="43.513748" lon="-5.510885">
        <ele>87.512</ele>
        <time>2021-10-14T13:52:35Z</time>
      </trkpt>
      <trkpt lat="43.513760" lon="-5.510700">
        <ele>88.120</ele>
        <time>2021-10-14T13:52:36Z</time>
      </trkpt>
      <trkpt lat="43.513786" lon="-5.510323">
        <ele>89.218</ele>
        <time>2021-10-14T13:52:38Z</time>
      </trkpt>
      <trkpt lat="43.513812" lon="-5.509964">
        <ele>90.155</ele>
        <time>2021-10-14T13:52:40Z</time>
      </trkpt>
      <trkpt lat="43.513825" lon="-5.509773">
        <ele>90.418</ele>
        <time>2021-10-14T13:52:41Z</time>
      </trkpt>
      <trkpt lat="43.513849" lon="-5.509402">
        <ele>91.555</ele>
        <time>2021-10-14T13:52:43Z</time>
      </trkpt>
      <trkpt lat="43.513857" lon="-5.509228">
        <ele>91.947</ele>
        <time>2021-10-14T13:52:44Z</time>
      </trkpt>
      <trkpt lat="43.513869" lon="-5.508955">
        <ele>92.796</ele>
        <time>2021-10-14T13:52:46Z</time>
      </trkpt>
      <trkpt lat="43.513844" lon="-5.508767">
        <ele>93.564</ele>
        <time>2021-10-14T13:52:48Z</time>
      </trkpt>
      <trkpt lat="43.513810" lon="-5.508708">
        <ele>93.906</ele>
        <time>2021-10-14T13:52:49Z</time>
      </trkpt>
      <trkpt lat="43.513764" lon="-5.508677">
        <ele>94.316</ele>
        <time>2021-10-14T13:52:50Z</time>
      </trkpt>
      <trkpt lat="43.513692" lon="-5.508664">
        <ele>94.508</ele>
        <time>2021-10-14T13:52:52Z</time>
      </trkpt>
      <trkpt lat="43.513619" lon="-5.508674">
        <ele>95.254</ele>
        <time>2021-10-14T13:52:54Z</time>
      </trkpt>
      <trkpt lat="43.513497" lon="-5.508751">
        <ele>95.582</ele>
        <time>2021-10-14T13:52:56Z</time>
      </trkpt>
      <trkpt lat="43.513344" lon="-5.508889">
        <ele>96.940</ele>
        <time>2021-10-14T13:52:58Z</time>
      </trkpt>
      <trkpt lat="43.513155" lon="-5.509021">
        <ele>96.867</ele>
        <time>2021-10-14T13:53:00Z</time>
      </trkpt>
      <trkpt lat="43.513047" lon="-5.509078">
        <ele>96.830</ele>
        <time>2021-10-14T13:53:01Z</time>
      </trkpt>
      <trkpt lat="43.512920" lon="-5.509126">
        <ele>97.327</ele>
        <time>2021-10-14T13:53:02Z</time>
      </trkpt>
      <trkpt lat="43.512638" lon="-5.509143">
        <ele>98.319</ele>
        <time>2021-10-14T13:53:04Z</time>
      </trkpt>
      <trkpt lat="43.512489" lon="-5.509096">
        <ele>99.028</ele>
        <time>2021-10-14T13:53:05Z</time>
      </trkpt>
      <trkpt lat="43.512338" lon="-5.509010">
        <ele>99.346</ele>
        <time>2021-10-14T13:53:06Z</time>
      </trkpt>
      <trkpt lat="43.512182" lon="-5.508891">
        <ele>100.188</ele>
        <time>2021-10-14T13:53:07Z</time>
      </trkpt>
      <trkpt lat="43.512016" lon="-5.508755">
        <ele>100.916</ele>
        <time>2021-10-14T13:53:08Z</time>
      </trkpt>
      <trkpt lat="43.511678" lon="-5.508491">
        <ele>103.008</ele>
        <time>2021-10-14T13:53:10Z</time>
      </trkpt>
      <trkpt lat="43.511497" lon="-5.508352">
        <ele>103.652</ele>
        <time>2021-10-14T13:53:11Z</time>
      </trkpt>
      <trkpt lat="43.511125" lon="-5.508072">
        <ele>104.450</ele>
        <time>2021-10-14T13:53:13Z</time>
      </trkpt>
      <trkpt lat="43.510943" lon="-5.507932">
        <ele>105.298</ele>
        <time>2021-10-14T13:53:14Z</time>
      </trkpt>
      <trkpt lat="43.510595" lon="-5.507665">
        <ele>105.035</ele>
        <time>2021-10-14T13:53:16Z</time>
      </trkpt>
      <trkpt lat="43.510414" lon="-5.507525">
        <ele>105.428</ele>
        <time>2021-10-14T13:53:17Z</time>
      </trkpt>
      <trkpt lat="43.510237" lon="-5.507388">
        <ele>105.865</ele>
        <time>2021-10-14T13:53:18Z</time>
      </trkpt>
      <trkpt lat="43.510071" lon="-5.507264">
        <ele>106.377</ele>
        <time>2021-10-14T13:53:19Z</time>
      </trkpt>
      <trkpt lat="43.509912" lon="-5.507144">
        <ele>106.596</ele>
        <time>2021-10-14T13:53:20Z</time>
      </trkpt>
      <trkpt lat="43.509640" lon="-5.506936">
        <ele>106.819</ele>
        <time>2021-10-14T13:53:22Z</time>
      </trkpt>
      <trkpt lat="43.509370" lon="-5.506744">
        <ele>108.309</ele>
        <time>2021-10-14T13:53:24Z</time>
      </trkpt>
      <trkpt lat="43.509204" lon="-5.506624">
        <ele>109.019</ele>
        <time>2021-10-14T13:53:25Z</time>
      </trkpt>
      <trkpt lat="43.509021" lon="-5.506481">
        <ele>109.108</ele>
        <time>2021-10-14T13:53:26Z</time>
      </trkpt>
      <trkpt lat="43.508644" lon="-5.506184">
        <ele>110.799</ele>
        <time>2021-10-14T13:53:28Z</time>
      </trkpt>
      <trkpt lat="43.508442" lon="-5.506025">
        <ele>112.067</ele>
        <time>2021-10-14T13:53:29Z</time>
      </trkpt>
      <trkpt lat="43.508256" lon="-5.505881">
        <ele>113.195</ele>
        <time>2021-10-14T13:53:30Z</time>
      </trkpt>
      <trkpt lat="43.508084" lon="-5.505755">
        <ele>113.952</ele>
        <time>2021-10-14T13:53:31Z</time>
      </trkpt>
      <trkpt lat="43.507917" lon="-5.505635">
        <ele>115.015</ele>
        <time>2021-10-14T13:53:32Z</time>
      </trkpt>
      <trkpt lat="43.507632" lon="-5.505407">
        <ele>116.752</ele>
        <time>2021-10-14T13:53:34Z</time>
      </trkpt>
      <trkpt lat="43.507395" lon="-5.505210">
        <ele>117.334</ele>
        <time>2021-10-14T13:53:36Z</time>
      </trkpt>
      <trkpt lat="43.507287" lon="-5.505157">
        <ele>117.863</ele>
        <time>2021-10-14T13:53:37Z</time>
      </trkpt>
      <trkpt lat="43.507180" lon="-5.505143">
        <ele>117.997</ele>
        <time>2021-10-14T13:53:38Z</time>
      </trkpt>
      <trkpt lat="43.506997" lon="-5.505254">
        <ele>118.323</ele>
        <time>2021-10-14T13:53:40Z</time>
      </trkpt>
      <trkpt lat="43.506911" lon="-5.505373">
        <ele>118.325</ele>
        <time>2021-10-14T13:53:41Z</time>
      </trkpt>
      <trkpt lat="43.506696" lon="-5.505651">
        <ele>119.908</ele>
        <time>2021-10-14T13:53:43Z</time>
      </trkpt>
      <trkpt lat="43.506554" lon="-5.505754">
        <ele>121.297</ele>
        <time>2021-10-14T13:53:44Z</time>
      </trkpt>
      <trkpt lat="43.506210" lon="-5.505860">
        <ele>122.825</ele>
        <time>2021-10-14T13:53:46Z</time>
      </trkpt>
      <trkpt lat="43.506031" lon="-5.505903">
        <ele>122.913</ele>
        <time>2021-10-14T13:53:47Z</time>
      </trkpt>
      <trkpt lat="43.505709" lon="-5.505948">
        <ele>125.450</ele>
        <time>2021-10-14T13:53:49Z</time>
      </trkpt>
      <trkpt lat="43.505549" lon="-5.505933">
        <ele>125.883</ele>
        <time>2021-10-14T13:53:50Z</time>
      </trkpt>
      <trkpt lat="43.505281" lon="-5.505822">
        <ele>126.570</ele>
        <time>2021-10-14T13:53:52Z</time>
      </trkpt>
      <trkpt lat="43.505181" lon="-5.505743">
        <ele>127.042</ele>
        <time>2021-10-14T13:53:53Z</time>
      </trkpt>
      <trkpt lat="43.505062" lon="-5.505541">
        <ele>128.071</ele>
        <time>2021-10-14T13:53:55Z</time>
      </trkpt>
      <trkpt lat="43.505039" lon="-5.505420">
        <ele>128.348</ele>
        <time>2021-10-14T13:53:56Z</time>
      </trkpt>
      <trkpt lat="43.505126" lon="-5.505147">
        <ele>130.661</ele>
        <time>2021-10-14T13:53:58Z</time>
      </trkpt>
      <trkpt lat="43.505417" lon="-5.504868">
        <ele>131.217</ele>
        <time>2021-10-14T13:54:00Z</time>
      </trkpt>
      <trkpt lat="43.505591" lon="-5.504708">
        <ele>131.008</ele>
        <time>2021-10-14T13:54:01Z</time>
      </trkpt>
      <trkpt lat="43.505735" lon="-5.504517">
        <ele>130.672</ele>
        <time>2021-10-14T13:54:02Z</time>
      </trkpt>
      <trkpt lat="43.505859" lon="-5.504057">
        <ele>131.950</ele>
        <time>2021-10-14T13:54:04Z</time>
      </trkpt>
      <trkpt lat="43.505866" lon="-5.503816">
        <ele>131.858</ele>
        <time>2021-10-14T13:54:05Z</time>
      </trkpt>
      <trkpt lat="43.505834" lon="-5.503601">
        <ele>132.275</ele>
        <time>2021-10-14T13:54:06Z</time>
      </trkpt>
      <trkpt lat="43.505761" lon="-5.503421">
        <ele>132.878</ele>
        <time>2021-10-14T13:54:07Z</time>
      </trkpt>
      <trkpt lat="43.505651" lon="-5.503286">
        <ele>132.835</ele>
        <time>2021-10-14T13:54:08Z</time>
      </trkpt>
      <trkpt lat="43.505353" lon="-5.503162">
        <ele>133.327</ele>
        <time>2021-10-14T13:54:10Z</time>
      </trkpt>
      <trkpt lat="43.505180" lon="-5.503126">
        <ele>133.736</ele>
        <time>2021-10-14T13:54:11Z</time>
      </trkpt>
      <trkpt lat="43.504999" lon="-5.503084">
        <ele>134.198</ele>
        <time>2021-10-14T13:54:12Z</time>
      </trkpt>
      <trkpt lat="43.504651" lon="-5.502976">
        <ele>134.515</ele>
        <time>2021-10-14T13:54:14Z</time>
      </trkpt>
      <trkpt lat="43.504410" lon="-5.502764">
        <ele>135.426</ele>
        <time>2021-10-14T13:54:16Z</time>
      </trkpt>
      <trkpt lat="43.504335" lon="-5.502607">
        <ele>135.208</ele>
        <time>2021-10-14T13:54:17Z</time>
      </trkpt>
      <trkpt lat="43.504294" lon="-5.502415">
        <ele>135.537</ele>
        <time>2021-10-14T13:54:18Z</time>
      </trkpt>
      <trkpt lat="43.504299" lon="-5.501903">
        <ele>137.545</ele>
        <time>2021-10-14T13:54:20Z</time>
      </trkpt>
      <trkpt lat="43.504353" lon="-5.501235">
        <ele>139.383</ele>
        <time>2021-10-14T13:54:22Z</time>
      </trkpt>
      <trkpt lat="43.504379" lon="-5.500524">
        <ele>141.710</ele>
        <time>2021-10-14T13:54:24Z</time>
      </trkpt>
      <trkpt lat="43.504373" lon="-5.500193">
        <ele>143.313</ele>
        <time>2021-10-14T13:54:25Z</time>
      </trkpt>
      <trkpt lat="43.504359" lon="-5.499879">
        <ele>144.620</ele>
        <time>2021-10-14T13:54:26Z</time>
      </trkpt>
      <trkpt lat="43.504328" lon="-5.499338">
        <ele>147.972</ele>
        <time>2021-10-14T13:54:28Z</time>
      </trkpt>
      <trkpt lat="43.504283" lon="-5.498858">
        <ele>151.371</ele>
        <time>2021-10-14T13:54:30Z</time>
      </trkpt>
      <trkpt lat="43.504250" lon="-5.498637">
        <ele>152.159</ele>
        <time>2021-10-14T13:54:31Z</time>
      </trkpt>
      <trkpt lat="43.504200" lon="-5.498416">
        <ele>153.303</ele>
        <time>2021-10-14T13:54:32Z</time>
      </trkpt>
      <trkpt lat="43.504054" lon="-5.497985">
        <ele>154.523</ele>
        <time>2021-10-14T13:54:34Z</time>
      </trkpt>
      <trkpt lat="43.503960" lon="-5.497770">
        <ele>154.308</ele>
        <time>2021-10-14T13:54:35Z</time>
      </trkpt>
      <trkpt lat="43.503870" lon="-5.497570">
        <ele>153.553</ele>
        <time>2021-10-14T13:54:36Z</time>
      </trkpt>
      <trkpt lat="43.503782" lon="-5.497385">
        <ele>153.021</ele>
        <time>2021-10-14T13:54:37Z</time>
      </trkpt>
      <trkpt lat="43.503682" lon="-5.497206">
        <ele>153.389</ele>
        <time>2021-10-14T13:54:38Z</time>
      </trkpt>
      <trkpt lat="43.503448" lon="-5.496903">
        <ele>153.116</ele>
        <time>2021-10-14T13:54:40Z</time>
      </trkpt>
      <trkpt lat="43.503320" lon="-5.496774">
        <ele>152.929</ele>
        <time>2021-10-14T13:54:41Z</time>
      </trkpt>
      <trkpt lat="43.503195" lon="-5.496647">
        <ele>153.296</ele>
        <time>2021-10-14T13:54:42Z</time>
      </trkpt>
      <trkpt lat="43.503071" lon="-5.496521">
        <ele>153.278</ele>
        <time>2021-10-14T13:54:43Z</time>
      </trkpt>
      <trkpt lat="43.502950" lon="-5.496396">
        <ele>153.037</ele>
        <time>2021-10-14T13:54:44Z</time>
      </trkpt>
      <trkpt lat="43.502716" lon="-5.496212">
        <ele>153.724</ele>
        <time>2021-10-14T13:54:46Z</time>
      </trkpt>
      <trkpt lat="43.502585" lon="-5.496174">
        <ele>153.804</ele>
        <time>2021-10-14T13:54:47Z</time>
      </trkpt>
      <trkpt lat="43.502358" lon="-5.496173">
        <ele>153.414</ele>
        <time>2021-10-14T13:54:49Z</time>
      </trkpt>
      <trkpt lat="43.502269" lon="-5.496152">
        <ele>153.508</ele>
        <time>2021-10-14T13:54:50Z</time>
      </trkpt>
      <trkpt lat="43.502175" lon="-5.496005">
        <ele>153.640</ele>
        <time>2021-10-14T13:54:52Z</time>
      </trkpt>
      <trkpt lat="43.502198" lon="-5.495855">
        <ele>153.668</ele>
        <time>2021-10-14T13:54:53Z</time>
      </trkpt>
      <trkpt lat="43.502241" lon="-5.495682">
        <ele>153.776</ele>
        <time>2021-10-14T13:54:54Z</time>
      </trkpt>
      <trkpt lat="43.502276" lon="-5.495498">
        <ele>153.873</ele>
        <time>2021-10-14T13:54:55Z</time>
      </trkpt>
      <trkpt lat="43.502279" lon="-5.495317">
        <ele>153.456</ele>
        <time>2021-10-14T13:54:56Z</time>
      </trkpt>
      <trkpt lat="43.502161" lon="-5.494982">
        <ele>154.183</ele>
        <time>2021-10-14T13:54:58Z</time>
      </trkpt>
      <trkpt lat="43.502061" lon="-5.494824">
        <ele>155.395</ele>
        <time>2021-10-14T13:54:59Z</time>
      </trkpt>
      <trkpt lat="43.501957" lon="-5.494698">
        <ele>156.294</ele>
        <time>2021-10-14T13:55:00Z</time>
      </trkpt>
      <trkpt lat="43.501712" lon="-5.494576">
        <ele>157.442</ele>
        <time>2021-10-14T13:55:02Z</time>
      </trkpt>
      <trkpt lat="43.501444" lon="-5.494614">
        <ele>159.222</ele>
        <time>2021-10-14T13:55:04Z</time>
      </trkpt>
      <trkpt lat="43.501214" lon="-5.494607">
        <ele>160.514</ele>
        <time>2021-10-14T13:55:06Z</time>
      </trkpt>
      <trkpt lat="43.501130" lon="-5.494556">
        <ele>160.708</ele>
        <time>2021-10-14T13:55:07Z</time>
      </trkpt>
      <trkpt lat="43.501058" lon="-5.494478">
        <ele>161.082</ele>
        <time>2021-10-14T13:55:08Z</time>
      </trkpt>
      <trkpt lat="43.501000" lon="-5.494287">
        <ele>162.490</ele>
        <time>2021-10-14T13:55:10Z</time>
      </trkpt>
      <trkpt lat="43.501032" lon="-5.494158">
        <ele>162.618</ele>
        <time>2021-10-14T13:55:11Z</time>
      </trkpt>
      <trkpt lat="43.501107" lon="-5.493992">
        <ele>162.945</ele>
        <time>2021-10-14T13:55:12Z</time>
      </trkpt>
      <trkpt lat="43.501296" lon="-5.493536">
        <ele>163.778</ele>
        <time>2021-10-14T13:55:14Z</time>
      </trkpt>
      <trkpt lat="43.501393" lon="-5.492957">
        <ele>164.025</ele>
        <time>2021-10-14T13:55:16Z</time>
      </trkpt>
      <trkpt lat="43.501480" lon="-5.492373">
        <ele>162.517</ele>
        <time>2021-10-14T13:55:18Z</time>
      </trkpt>
      <trkpt lat="43.501543" lon="-5.492127">
        <ele>161.836</ele>
        <time>2021-10-14T13:55:19Z</time>
      </trkpt>
      <trkpt lat="43.501599" lon="-5.491914">
        <ele>161.198</ele>
        <time>2021-10-14T13:55:20Z</time>
      </trkpt>
      <trkpt lat="43.501625" lon="-5.491570">
        <ele>161.515</ele>
        <time>2021-10-14T13:55:22Z</time>
      </trkpt>
      <trkpt lat="43.501589" lon="-5.491396">
        <ele>161.526</ele>
        <time>2021-10-14T13:55:23Z</time>
      </trkpt>
      <trkpt lat="43.501424" lon="-5.491075">
        <ele>161.508</ele>
        <time>2021-10-14T13:55:25Z</time>
      </trkpt>
      <trkpt lat="43.501304" lon="-5.490926">
        <ele>162.127</ele>
        <time>2021-10-14T13:55:26Z</time>
      </trkpt>
      <trkpt lat="43.501061" lon="-5.490625">
        <ele>163.515</ele>
        <time>2021-10-14T13:55:28Z</time>
      </trkpt>
      <trkpt lat="43.500862" lon="-5.490203">
        <ele>164.253</ele>
        <time>2021-10-14T13:55:30Z</time>
      </trkpt>
      <trkpt lat="43.500717" lon="-5.489784">
        <ele>165.140</ele>
        <time>2021-10-14T13:55:32Z</time>
      </trkpt>
      <trkpt lat="43.500565" lon="-5.489427">
        <ele>164.613</ele>
        <time>2021-10-14T13:55:34Z</time>
      </trkpt>
      <trkpt lat="43.500449" lon="-5.489247">
        <ele>165.050</ele>
        <time>2021-10-14T13:55:35Z</time>
      </trkpt>
      <trkpt lat="43.500172" lon="-5.488894">
        <ele>165.392</ele>
        <time>2021-10-14T13:55:37Z</time>
      </trkpt>
      <trkpt lat="43.500027" lon="-5.488720">
        <ele>164.771</ele>
        <time>2021-10-14T13:55:38Z</time>
      </trkpt>
      <trkpt lat="43.499780" lon="-5.488465">
        <ele>163.189</ele>
        <time>2021-10-14T13:55:40Z</time>
      </trkpt>
      <trkpt lat="43.499652" lon="-5.488407">
        <ele>161.906</ele>
        <time>2021-10-14T13:55:41Z</time>
      </trkpt>
      <trkpt lat="43.499358" lon="-5.488441">
        <ele>161.926</ele>
        <time>2021-10-14T13:55:43Z</time>
      </trkpt>
      <trkpt lat="43.499198" lon="-5.488521">
        <ele>161.708</ele>
        <time>2021-10-14T13:55:44Z</time>
      </trkpt>
      <trkpt lat="43.498927" lon="-5.488715">
        <ele>161.096</ele>
        <time>2021-10-14T13:55:46Z</time>
      </trkpt>
      <trkpt lat="43.498821" lon="-5.488853">
        <ele>160.674</ele>
        <time>2021-10-14T13:55:47Z</time>
      </trkpt>
      <trkpt lat="43.498664" lon="-5.489219">
        <ele>159.942</ele>
        <time>2021-10-14T13:55:49Z</time>
      </trkpt>
      <trkpt lat="43.498585" lon="-5.489436">
        <ele>159.589</ele>
        <time>2021-10-14T13:55:50Z</time>
      </trkpt>
      <trkpt lat="43.498416" lon="-5.489835">
        <ele>158.532</ele>
        <time>2021-10-14T13:55:52Z</time>
      </trkpt>
      <trkpt lat="43.498286" lon="-5.490008">
        <ele>157.849</ele>
        <time>2021-10-14T13:55:53Z</time>
      </trkpt>
      <trkpt lat="43.498126" lon="-5.490135">
        <ele>156.641</ele>
        <time>2021-10-14T13:55:54Z</time>
      </trkpt>
      <trkpt lat="43.497739" lon="-5.490341">
        <ele>155.040</ele>
        <time>2021-10-14T13:55:56Z</time>
      </trkpt>
      <trkpt lat="43.497371" lon="-5.490543">
        <ele>155.058</ele>
        <time>2021-10-14T13:55:58Z</time>
      </trkpt>
      <trkpt lat="43.497060" lon="-5.490810">
        <ele>155.352</ele>
        <time>2021-10-14T13:56:00Z</time>
      </trkpt>
      <trkpt lat="43.496940" lon="-5.490985">
        <ele>156.017</ele>
        <time>2021-10-14T13:56:01Z</time>
      </trkpt>
      <trkpt lat="43.496839" lon="-5.491170">
        <ele>156.208</ele>
        <time>2021-10-14T13:56:02Z</time>
      </trkpt>
      <trkpt lat="43.496691" lon="-5.491482">
        <ele>157.453</ele>
        <time>2021-10-14T13:56:04Z</time>
      </trkpt>
      <trkpt lat="43.496610" lon="-5.491594">
        <ele>157.951</ele>
        <time>2021-10-14T13:56:05Z</time>
      </trkpt>
      <trkpt lat="43.496508" lon="-5.491649">
        <ele>158.429</ele>
        <time>2021-10-14T13:56:06Z</time>
      </trkpt>
      <trkpt lat="43.496387" lon="-5.491634">
        <ele>158.796</ele>
        <time>2021-10-14T13:56:07Z</time>
      </trkpt>
      <trkpt lat="43.496240" lon="-5.491547">
        <ele>159.729</ele>
        <time>2021-10-14T13:56:08Z</time>
      </trkpt>
      <trkpt lat="43.495901" lon="-5.491271">
        <ele>159.936</ele>
        <time>2021-10-14T13:56:10Z</time>
      </trkpt>
      <trkpt lat="43.495717" lon="-5.491172">
        <ele>160.198</ele>
        <time>2021-10-14T13:56:11Z</time>
      </trkpt>
      <trkpt lat="43.495381" lon="-5.491113">
        <ele>160.567</ele>
        <time>2021-10-14T13:56:13Z</time>
      </trkpt>
      <trkpt lat="43.495220" lon="-5.491166">
        <ele>160.931</ele>
        <time>2021-10-14T13:56:14Z</time>
      </trkpt>
      <trkpt lat="43.494896" lon="-5.491399">
        <ele>162.061</ele>
        <time>2021-10-14T13:56:16Z</time>
      </trkpt>
      <trkpt lat="43.494737" lon="-5.491486">
        <ele>162.507</ele>
        <time>2021-10-14T13:56:17Z</time>
      </trkpt>
      <trkpt lat="43.494448" lon="-5.491500">
        <ele>162.708</ele>
        <time>2021-10-14T13:56:19Z</time>
      </trkpt>
      <trkpt lat="43.494326" lon="-5.491408">
        <ele>163.151</ele>
        <time>2021-10-14T13:56:20Z</time>
      </trkpt>
      <trkpt lat="43.494136" lon="-5.491150">
        <ele>163.359</ele>
        <time>2021-10-14T13:56:22Z</time>
      </trkpt>
      <trkpt lat="43.494025" lon="-5.491076">
        <ele>163.357</ele>
        <time>2021-10-14T13:56:23Z</time>
      </trkpt>
      <trkpt lat="43.493798" lon="-5.491106">
        <ele>161.414</ele>
        <time>2021-10-14T13:56:25Z</time>
      </trkpt>
      <trkpt lat="43.493699" lon="-5.491242">
        <ele>161.377</ele>
        <time>2021-10-14T13:56:26Z</time>
      </trkpt>
      <trkpt lat="43.493572" lon="-5.491691">
        <ele>160.164</ele>
        <time>2021-10-14T13:56:28Z</time>
      </trkpt>
      <trkpt lat="43.493508" lon="-5.491922">
        <ele>159.336</ele>
        <time>2021-10-14T13:56:29Z</time>
      </trkpt>
      <trkpt lat="43.493334" lon="-5.492280">
        <ele>157.125</ele>
        <time>2021-10-14T13:56:31Z</time>
      </trkpt>
      <trkpt lat="43.493212" lon="-5.492416">
        <ele>155.953</ele>
        <time>2021-10-14T13:56:32Z</time>
      </trkpt>
      <trkpt lat="43.492928" lon="-5.492606">
        <ele>154.804</ele>
        <time>2021-10-14T13:56:34Z</time>
      </trkpt>
      <trkpt lat="43.492785" lon="-5.492699">
        <ele>153.714</ele>
        <time>2021-10-14T13:56:35Z</time>
      </trkpt>
      <trkpt lat="43.492652" lon="-5.492788">
        <ele>152.408</ele>
        <time>2021-10-14T13:56:36Z</time>
      </trkpt>
      <trkpt lat="43.492427" lon="-5.492942">
        <ele>151.883</ele>
        <time>2021-10-14T13:56:38Z</time>
      </trkpt>
      <trkpt lat="43.492255" lon="-5.493018">
        <ele>151.771</ele>
        <time>2021-10-14T13:56:40Z</time>
      </trkpt>
      <trkpt lat="43.492172" lon="-5.493009">
        <ele>151.759</ele>
        <time>2021-10-14T13:56:41Z</time>
      </trkpt>
      <trkpt lat="43.492046" lon="-5.492839">
        <ele>151.656</ele>
        <time>2021-10-14T13:56:43Z</time>
      </trkpt>
      <trkpt lat="43.492019" lon="-5.492669">
        <ele>151.669</ele>
        <time>2021-10-14T13:56:44Z</time>
      </trkpt>
      <trkpt lat="43.491949" lon="-5.492266">
        <ele>152.386</ele>
        <time>2021-10-14T13:56:46Z</time>
      </trkpt>
      <trkpt lat="43.491862" lon="-5.492080">
        <ele>153.398</ele>
        <time>2021-10-14T13:56:47Z</time>
      </trkpt>
      <trkpt lat="43.491597" lon="-5.491778">
        <ele>154.757</ele>
        <time>2021-10-14T13:56:49Z</time>
      </trkpt>
      <trkpt lat="43.491447" lon="-5.491645">
        <ele>154.737</ele>
        <time>2021-10-14T13:56:50Z</time>
      </trkpt>
      <trkpt lat="43.491193" lon="-5.491436">
        <ele>155.349</ele>
        <time>2021-10-14T13:56:52Z</time>
      </trkpt>
      <trkpt lat="43.490952" lon="-5.491333">
        <ele>155.213</ele>
        <time>2021-10-14T13:56:54Z</time>
      </trkpt>
      <trkpt lat="43.490719" lon="-5.491409">
        <ele>155.808</ele>
        <time>2021-10-14T13:56:56Z</time>
      </trkpt>
      <trkpt lat="43.490521" lon="-5.491605">
        <ele>155.881</ele>
        <time>2021-10-14T13:56:58Z</time>
      </trkpt>
      <trkpt lat="43.490335" lon="-5.491670">
        <ele>156.369</ele>
        <time>2021-10-14T13:57:00Z</time>
      </trkpt>
      <trkpt lat="43.490176" lon="-5.491530">
        <ele>156.397</ele>
        <time>2021-10-14T13:57:02Z</time>
      </trkpt>
      <trkpt lat="43.490104" lon="-5.491157">
        <ele>156.984</ele>
        <time>2021-10-14T13:57:04Z</time>
      </trkpt>
      <trkpt lat="43.490114" lon="-5.490873">
        <ele>156.997</ele>
        <time>2021-10-14T13:57:05Z</time>
      </trkpt>
      <trkpt lat="43.490152" lon="-5.490560">
        <ele>157.294</ele>
        <time>2021-10-14T13:57:06Z</time>
      </trkpt>
      <trkpt lat="43.490220" lon="-5.490005">
        <ele>157.426</ele>
        <time>2021-10-14T13:57:08Z</time>
      </trkpt>
      <trkpt lat="43.490226" lon="-5.489578">
        <ele>156.785</ele>
        <time>2021-10-14T13:57:10Z</time>
      </trkpt>
      <trkpt lat="43.490119" lon="-5.489193">
        <ele>156.987</ele>
        <time>2021-10-14T13:57:12Z</time>
      </trkpt>
      <trkpt lat="43.489958" lon="-5.488908">
        <ele>157.742</ele>
        <time>2021-10-14T13:57:14Z</time>
      </trkpt>
      <trkpt lat="43.489755" lon="-5.488769">
        <ele>158.026</ele>
        <time>2021-10-14T13:57:16Z</time>
      </trkpt>
      <trkpt lat="43.489499" lon="-5.488768">
        <ele>158.708</ele>
        <time>2021-10-14T13:57:18Z</time>
      </trkpt>
      <trkpt lat="43.489351" lon="-5.488837">
        <ele>158.716</ele>
        <time>2021-10-14T13:57:19Z</time>
      </trkpt>
      <trkpt lat="43.489202" lon="-5.488942">
        <ele>158.764</ele>
        <time>2021-10-14T13:57:20Z</time>
      </trkpt>
      <trkpt lat="43.488992" lon="-5.489207">
        <ele>158.382</ele>
        <time>2021-10-14T13:57:22Z</time>
      </trkpt>
      <trkpt lat="43.488930" lon="-5.489366">
        <ele>158.179</ele>
        <time>2021-10-14T13:57:23Z</time>
      </trkpt>
      <trkpt lat="43.488839" lon="-5.489667">
        <ele>156.642</ele>
        <time>2021-10-14T13:57:25Z</time>
      </trkpt>
      <trkpt lat="43.488775" lon="-5.489760">
        <ele>156.359</ele>
        <time>2021-10-14T13:57:26Z</time>
      </trkpt>
      <trkpt lat="43.488600" lon="-5.489771">
        <ele>154.971</ele>
        <time>2021-10-14T13:57:28Z</time>
      </trkpt>
      <trkpt lat="43.488321" lon="-5.489554">
        <ele>154.640</ele>
        <time>2021-10-14T13:57:30Z</time>
      </trkpt>
      <trkpt lat="43.488022" lon="-5.489370">
        <ele>153.622</ele>
        <time>2021-10-14T13:57:32Z</time>
      </trkpt>
      <trkpt lat="43.487744" lon="-5.489335">
        <ele>152.462</ele>
        <time>2021-10-14T13:57:34Z</time>
      </trkpt>
      <trkpt lat="43.487469" lon="-5.489460">
        <ele>152.408</ele>
        <time>2021-10-14T13:57:36Z</time>
      </trkpt>
      <trkpt lat="43.487319" lon="-5.489512">
        <ele>152.308</ele>
        <time>2021-10-14T13:57:37Z</time>
      </trkpt>
      <trkpt lat="43.487164" lon="-5.489527">
        <ele>152.830</ele>
        <time>2021-10-14T13:57:38Z</time>
      </trkpt>
      <trkpt lat="43.486866" lon="-5.489463">
        <ele>152.328</ele>
        <time>2021-10-14T13:57:40Z</time>
      </trkpt>
      <trkpt lat="43.486602" lon="-5.489489">
        <ele>152.016</ele>
        <time>2021-10-14T13:57:42Z</time>
      </trkpt>
      <trkpt lat="43.486484" lon="-5.489581">
        <ele>151.853</ele>
        <time>2021-10-14T13:57:43Z</time>
      </trkpt>
      <trkpt lat="43.486363" lon="-5.489723">
        <ele>152.176</ele>
        <time>2021-10-14T13:57:44Z</time>
      </trkpt>
      <trkpt lat="43.486125" lon="-5.490038">
        <ele>152.583</ele>
        <time>2021-10-14T13:57:46Z</time>
      </trkpt>
      <trkpt lat="43.485926" lon="-5.490405">
        <ele>151.265</ele>
        <time>2021-10-14T13:57:48Z</time>
      </trkpt>
      <trkpt lat="43.485747" lon="-5.490855">
        <ele>151.514</ele>
        <time>2021-10-14T13:57:50Z</time>
      </trkpt>
      <trkpt lat="43.485582" lon="-5.491284">
        <ele>151.219</ele>
        <time>2021-10-14T13:57:52Z</time>
      </trkpt>
      <trkpt lat="43.485505" lon="-5.491476">
        <ele>151.109</ele>
        <time>2021-10-14T13:57:53Z</time>
      </trkpt>
      <trkpt lat="43.485351" lon="-5.491798">
        <ele>152.019</ele>
        <time>2021-10-14T13:57:55Z</time>
      </trkpt>
      <trkpt lat="43.485252" lon="-5.491904">
        <ele>152.808</ele>
        <time>2021-10-14T13:57:56Z</time>
      </trkpt>
      <trkpt lat="43.485015" lon="-5.491900">
        <ele>152.999</ele>
        <time>2021-10-14T13:57:58Z</time>
      </trkpt>
      <trkpt lat="43.484893" lon="-5.491814">
        <ele>152.967</ele>
        <time>2021-10-14T13:57:59Z</time>
      </trkpt>
      <trkpt lat="43.484775" lon="-5.491681">
        <ele>152.565</ele>
        <time>2021-10-14T13:58:00Z</time>
      </trkpt>
      <trkpt lat="43.484656" lon="-5.491505">
        <ele>152.382</ele>
        <time>2021-10-14T13:58:01Z</time>
      </trkpt>
      <trkpt lat="43.484541" lon="-5.491309">
        <ele>151.365</ele>
        <time>2021-10-14T13:58:02Z</time>
      </trkpt>
      <trkpt lat="43.484410" lon="-5.490906">
        <ele>152.782</ele>
        <time>2021-10-14T13:58:04Z</time>
      </trkpt>
      <trkpt lat="43.484390" lon="-5.490694">
        <ele>153.034</ele>
        <time>2021-10-14T13:58:05Z</time>
      </trkpt>
      <trkpt lat="43.484411" lon="-5.490479">
        <ele>154.313</ele>
        <time>2021-10-14T13:58:06Z</time>
      </trkpt>
      <trkpt lat="43.484444" lon="-5.490096">
        <ele>153.836</ele>
        <time>2021-10-14T13:58:08Z</time>
      </trkpt>
      <trkpt lat="43.484350" lon="-5.489847">
        <ele>154.217</ele>
        <time>2021-10-14T13:58:10Z</time>
      </trkpt>
      <trkpt lat="43.484262" lon="-5.489763">
        <ele>154.318</ele>
        <time>2021-10-14T13:58:11Z</time>
      </trkpt>
      <trkpt lat="43.484069" lon="-5.489575">
        <ele>156.508</ele>
        <time>2021-10-14T13:58:13Z</time>
      </trkpt>
      <trkpt lat="43.484004" lon="-5.489436">
        <ele>156.681</ele>
        <time>2021-10-14T13:58:14Z</time>
      </trkpt>
      <trkpt lat="43.483967" lon="-5.489032">
        <ele>157.059</ele>
        <time>2021-10-14T13:58:16Z</time>
      </trkpt>
      <trkpt lat="43.483957" lon="-5.488777">
        <ele>157.427</ele>
        <time>2021-10-14T13:58:17Z</time>
      </trkpt>
      <trkpt lat="43.483929" lon="-5.488540">
        <ele>158.184</ele>
        <time>2021-10-14T13:58:18Z</time>
      </trkpt>
      <trkpt lat="43.483838" lon="-5.488146">
        <ele>157.487</ele>
        <time>2021-10-14T13:58:20Z</time>
      </trkpt>
      <trkpt lat="43.483758" lon="-5.487879">
        <ele>156.124</ele>
        <time>2021-10-14T13:58:22Z</time>
      </trkpt>
      <trkpt lat="43.483704" lon="-5.487675">
        <ele>154.736</ele>
        <time>2021-10-14T13:58:24Z</time>
      </trkpt>
      <trkpt lat="43.483669" lon="-5.487556">
        <ele>154.335</ele>
        <time>2021-10-14T13:58:26Z</time>
      </trkpt>
      <trkpt lat="43.483653" lon="-5.487474">
        <ele>154.187</ele>
        <time>2021-10-14T13:58:28Z</time>
      </trkpt>
      <trkpt lat="43.483639" lon="-5.487396">
        <ele>153.342</ele>
        <time>2021-10-14T13:58:30Z</time>
      </trkpt>
      <trkpt lat="43.483623" lon="-5.487334">
        <ele>152.526</ele>
        <time>2021-10-14T13:58:32Z</time>
      </trkpt>
      <trkpt lat="43.483606" lon="-5.487258">
        <ele>152.308</ele>
        <time>2021-10-14T13:58:34Z</time>
      </trkpt>
      <trkpt lat="43.483586" lon="-5.487202">
        <ele>151.966</ele>
        <time>2021-10-14T13:58:36Z</time>
      </trkpt>
      <trkpt lat="43.483563" lon="-5.487144">
        <ele>151.854</ele>
        <time>2021-10-14T13:58:38Z</time>
      </trkpt>
      <trkpt lat="43.483535" lon="-5.487058">
        <ele>129.012</ele>
        <time>2021-10-14T13:58:40Z</time>
      </trkpt>
      <trkpt lat="43.483509" lon="-5.486990">
        <ele>128.339</ele>
        <time>2021-10-14T13:58:42Z</time>
      </trkpt>
      <trkpt lat="43.483493" lon="-5.486917">
        <ele>128.322</ele>
        <time>2021-10-14T13:58:45Z</time>
      </trkpt>
      <trkpt lat="43.483480" lon="-5.486834">
        <ele>128.379</ele>
        <time>2021-10-14T13:58:49Z</time>
      </trkpt>
      <trkpt lat="43.483467" lon="-5.486749">
        <ele>128.311</ele>
        <time>2021-10-14T13:58:51Z</time>
      </trkpt>
      <trkpt lat="43.483459" lon="-5.486669">
        <ele>128.370</ele>
        <time>2021-10-14T13:58:52Z</time>
      </trkpt>
      <trkpt lat="43.483466" lon="-5.486494">
        <ele>128.346</ele>
        <time>2021-10-14T13:58:54Z</time>
      </trkpt>
      <trkpt lat="43.483481" lon="-5.486408">
        <ele>128.388</ele>
        <time>2021-10-14T13:58:55Z</time>
      </trkpt>
      <trkpt lat="43.483502" lon="-5.486320">
        <ele>128.316</ele>
        <time>2021-10-14T13:58:56Z</time>
      </trkpt>
      <trkpt lat="43.483550" lon="-5.486124">
        <ele>128.308</ele>
        <time>2021-10-14T13:58:58Z</time>
      </trkpt>
      <trkpt lat="43.483580" lon="-5.485865">
        <ele>128.372</ele>
        <time>2021-10-14T13:59:00Z</time>
      </trkpt>
      <trkpt lat="43.483534" lon="-5.485549">
        <ele>128.430</ele>
        <time>2021-10-14T13:59:02Z</time>
      </trkpt>
      <trkpt lat="43.483489" lon="-5.485200">
        <ele>128.448</ele>
        <time>2021-10-14T13:59:04Z</time>
      </trkpt>
      <trkpt lat="43.483557" lon="-5.484851">
        <ele>128.485</ele>
        <time>2021-10-14T13:59:06Z</time>
      </trkpt>
      <trkpt lat="43.483583" lon="-5.484673">
        <ele>128.418</ele>
        <time>2021-10-14T13:59:07Z</time>
      </trkpt>
      <trkpt lat="43.483580" lon="-5.484484">
        <ele>128.435</ele>
        <time>2021-10-14T13:59:08Z</time>
      </trkpt>
      <trkpt lat="43.483458" lon="-5.484133">
        <ele>128.537</ele>
        <time>2021-10-14T13:59:10Z</time>
      </trkpt>
      <trkpt lat="43.483258" lon="-5.483777">
        <ele>128.546</ele>
        <time>2021-10-14T13:59:12Z</time>
      </trkpt>
      <trkpt lat="43.483162" lon="-5.483583">
        <ele>128.596</ele>
        <time>2021-10-14T13:59:13Z</time>
      </trkpt>
      <trkpt lat="43.483071" lon="-5.483385">
        <ele>128.531</ele>
        <time>2021-10-14T13:59:14Z</time>
      </trkpt>
      <trkpt lat="43.482922" lon="-5.483021">
        <ele>128.524</ele>
        <time>2021-10-14T13:59:16Z</time>
      </trkpt>
      <trkpt lat="43.482873" lon="-5.482857">
        <ele>128.508</ele>
        <time>2021-10-14T13:59:17Z</time>
      </trkpt>
      <trkpt lat="43.482847" lon="-5.482704">
        <ele>128.547</ele>
        <time>2021-10-14T13:59:18Z</time>
      </trkpt>
      <trkpt lat="43.482844" lon="-5.482563">
        <ele>128.565</ele>
        <time>2021-10-14T13:59:19Z</time>
      </trkpt>
      <trkpt lat="43.482876" lon="-5.482435">
        <ele>128.543</ele>
        <time>2021-10-14T13:59:20Z</time>
      </trkpt>
      <trkpt lat="43.483036" lon="-5.482229">
        <ele>128.520</ele>
        <time>2021-10-14T13:59:22Z</time>
      </trkpt>
      <trkpt lat="43.483172" lon="-5.481973">
        <ele>128.563</ele>
        <time>2021-10-14T13:59:24Z</time>
      </trkpt>
      <trkpt lat="43.483193" lon="-5.481807">
        <ele>128.580</ele>
        <time>2021-10-14T13:59:25Z</time>
      </trkpt>
      <trkpt lat="43.483168" lon="-5.481618">
        <ele>128.592</ele>
        <time>2021-10-14T13:59:26Z</time>
      </trkpt>
      <trkpt lat="43.483004" lon="-5.481190">
        <ele>128.581</ele>
        <time>2021-10-14T13:59:28Z</time>
      </trkpt>
      <trkpt lat="43.482925" lon="-5.480947">
        <ele>128.565</ele>
        <time>2021-10-14T13:59:29Z</time>
      </trkpt>
      <trkpt lat="43.482829" lon="-5.480478">
        <ele>128.568</ele>
        <time>2021-10-14T13:59:31Z</time>
      </trkpt>
      <trkpt lat="43.482743" lon="-5.480060">
        <ele>128.514</ele>
        <time>2021-10-14T13:59:33Z</time>
      </trkpt>
      <trkpt lat="43.482510" lon="-5.479760">
        <ele>124.708</ele>
        <time>2021-10-14T13:59:35Z</time>
      </trkpt>
      <trkpt lat="43.482375" lon="-5.479653">
        <ele>120.454</ele>
        <time>2021-10-14T13:59:36Z</time>
      </trkpt>
      <trkpt lat="43.482147" lon="-5.479362">
        <ele>118.792</ele>
        <time>2021-10-14T13:59:38Z</time>
      </trkpt>
      <trkpt lat="43.482059" lon="-5.479156">
        <ele>117.410</ele>
        <time>2021-10-14T13:59:39Z</time>
      </trkpt>
      <trkpt lat="43.481927" lon="-5.478639">
        <ele>115.137</ele>
        <time>2021-10-14T13:59:41Z</time>
      </trkpt>
      <trkpt lat="43.481871" lon="-5.478385">
        <ele>114.060</ele>
        <time>2021-10-14T13:59:42Z</time>
      </trkpt>
      <trkpt lat="43.481772" lon="-5.477927">
        <ele>113.197</ele>
        <time>2021-10-14T13:59:44Z</time>
      </trkpt>
      <trkpt lat="43.481717" lon="-5.477554">
        <ele>112.149</ele>
        <time>2021-10-14T13:59:46Z</time>
      </trkpt>
      <trkpt lat="43.481782" lon="-5.477227">
        <ele>111.828</ele>
        <time>2021-10-14T13:59:48Z</time>
      </trkpt>
      <trkpt lat="43.481883" lon="-5.477088">
        <ele>111.592</ele>
        <time>2021-10-14T13:59:49Z</time>
      </trkpt>
      <trkpt lat="43.482135" lon="-5.476900">
        <ele>110.273</ele>
        <time>2021-10-14T13:59:51Z</time>
      </trkpt>
      <trkpt lat="43.482395" lon="-5.476880">
        <ele>108.720</ele>
        <time>2021-10-14T13:59:53Z</time>
      </trkpt>
      <trkpt lat="43.482530" lon="-5.476927">
        <ele>108.708</ele>
        <time>2021-10-14T13:59:54Z</time>
      </trkpt>
      <trkpt lat="43.482662" lon="-5.476945">
        <ele>107.527</ele>
        <time>2021-10-14T13:59:55Z</time>
      </trkpt>
      <trkpt lat="43.482789" lon="-5.476915">
        <ele>107.295</ele>
        <time>2021-10-14T13:59:56Z</time>
      </trkpt>
      <trkpt lat="43.482951" lon="-5.476653">
        <ele>106.313</ele>
        <time>2021-10-14T13:59:58Z</time>
      </trkpt>
      <trkpt lat="43.483006" lon="-5.476461">
        <ele>105.430</ele>
        <time>2021-10-14T13:59:59Z</time>
      </trkpt>
      <trkpt lat="43.483076" lon="-5.476302">
        <ele>104.373</ele>
        <time>2021-10-14T14:00:00Z</time>
      </trkpt>
      <trkpt lat="43.483251" lon="-5.476088">
        <ele>103.230</ele>
        <time>2021-10-14T14:00:02Z</time>
      </trkpt>
      <trkpt lat="43.483364" lon="-5.475870">
        <ele>99.552</ele>
        <time>2021-10-14T14:00:04Z</time>
      </trkpt>
      <trkpt lat="43.483384" lon="-5.475729">
        <ele>98.981</ele>
        <time>2021-10-14T14:00:05Z</time>
      </trkpt>
      <trkpt lat="43.483277" lon="-5.475411">
        <ele>96.945</ele>
        <time>2021-10-14T14:00:07Z</time>
      </trkpt>
      <trkpt lat="43.483138" lon="-5.475253">
        <ele>95.647</ele>
        <time>2021-10-14T14:00:08Z</time>
      </trkpt>
      <trkpt lat="43.482804" lon="-5.474872">
        <ele>93.911</ele>
        <time>2021-10-14T14:00:10Z</time>
      </trkpt>
      <trkpt lat="43.482520" lon="-5.474507">
        <ele>93.508</ele>
        <time>2021-10-14T14:00:12Z</time>
      </trkpt>
      <trkpt lat="43.482411" lon="-5.474326">
        <ele>93.442</ele>
        <time>2021-10-14T14:00:13Z</time>
      </trkpt>
      <trkpt lat="43.482260" lon="-5.473912">
        <ele>91.720</ele>
        <time>2021-10-14T14:00:15Z</time>
      </trkpt>
      <trkpt lat="43.482219" lon="-5.473687">
        <ele>91.178</ele>
        <time>2021-10-14T14:00:16Z</time>
      </trkpt>
      <trkpt lat="43.482202" lon="-5.473236">
        <ele>88.645</ele>
        <time>2021-10-14T14:00:18Z</time>
      </trkpt>
      <trkpt lat="43.482230" lon="-5.473009">
        <ele>87.518</ele>
        <time>2021-10-14T14:00:19Z</time>
      </trkpt>
      <trkpt lat="43.482360" lon="-5.472563">
        <ele>86.765</ele>
        <time>2021-10-14T14:00:21Z</time>
      </trkpt>
      <trkpt lat="43.482521" lon="-5.472114">
        <ele>86.387</ele>
        <time>2021-10-14T14:00:23Z</time>
      </trkpt>
      <trkpt lat="43.482654" lon="-5.471658">
        <ele>84.636</ele>
        <time>2021-10-14T14:00:25Z</time>
      </trkpt>
      <trkpt lat="43.482693" lon="-5.471423">
        <ele>83.399</ele>
        <time>2021-10-14T14:00:26Z</time>
      </trkpt>
      <trkpt lat="43.482729" lon="-5.470994">
        <ele>82.507</ele>
        <time>2021-10-14T14:00:28Z</time>
      </trkpt>
      <trkpt lat="43.482747" lon="-5.470779">
        <ele>80.927</ele>
        <time>2021-10-14T14:00:29Z</time>
      </trkpt>
      <trkpt lat="43.482774" lon="-5.470564">
        <ele>79.608</ele>
        <time>2021-10-14T14:00:30Z</time>
      </trkpt>
      <trkpt lat="43.482842" lon="-5.470155">
        <ele>77.277</ele>
        <time>2021-10-14T14:00:32Z</time>
      </trkpt>
      <trkpt lat="43.482986" lon="-5.469849">
        <ele>75.685</ele>
        <time>2021-10-14T14:00:34Z</time>
      </trkpt>
      <trkpt lat="43.483097" lon="-5.469730">
        <ele>75.453</ele>
        <time>2021-10-14T14:00:35Z</time>
      </trkpt>
      <trkpt lat="43.483235" lon="-5.469634">
        <ele>74.430</ele>
        <time>2021-10-14T14:00:36Z</time>
      </trkpt>
      <trkpt lat="43.483533" lon="-5.469493">
        <ele>72.043</ele>
        <time>2021-10-14T14:00:38Z</time>
      </trkpt>
      <trkpt lat="43.483685" lon="-5.469460">
        <ele>71.580</ele>
        <time>2021-10-14T14:00:39Z</time>
      </trkpt>
      <trkpt lat="43.483993" lon="-5.469511">
        <ele>69.812</ele>
        <time>2021-10-14T14:00:41Z</time>
      </trkpt>
      <trkpt lat="43.484151" lon="-5.469562">
        <ele>69.041</ele>
        <time>2021-10-14T14:00:42Z</time>
      </trkpt>
      <trkpt lat="43.484460" lon="-5.469653">
        <ele>67.096</ele>
        <time>2021-10-14T14:00:44Z</time>
      </trkpt>
      <trkpt lat="43.484740" lon="-5.469736">
        <ele>66.231</ele>
        <time>2021-10-14T14:00:46Z</time>
      </trkpt>
      <trkpt lat="43.484969" lon="-5.469759">
        <ele>65.524</ele>
        <time>2021-10-14T14:00:48Z</time>
      </trkpt>
      <trkpt lat="43.485136" lon="-5.469643">
        <ele>64.008</ele>
        <time>2021-10-14T14:00:50Z</time>
      </trkpt>
      <trkpt lat="43.485174" lon="-5.469320">
        <ele>62.667</ele>
        <time>2021-10-14T14:00:52Z</time>
      </trkpt>
      <trkpt lat="43.485104" lon="-5.469076">
        <ele>62.335</ele>
        <time>2021-10-14T14:00:53Z</time>
      </trkpt>
      <trkpt lat="43.485012" lon="-5.468822">
        <ele>62.183</ele>
        <time>2021-10-14T14:00:54Z</time>
      </trkpt>
      <trkpt lat="43.484935" lon="-5.468584">
        <ele>61.340</ele>
        <time>2021-10-14T14:00:55Z</time>
      </trkpt>
      <trkpt lat="43.484880" lon="-5.468366">
        <ele>60.493</ele>
        <time>2021-10-14T14:00:56Z</time>
      </trkpt>
      <trkpt lat="43.484879" lon="-5.467980">
        <ele>59.910</ele>
        <time>2021-10-14T14:00:58Z</time>
      </trkpt>
      <trkpt lat="43.484933" lon="-5.467832">
        <ele>59.182</ele>
        <time>2021-10-14T14:00:59Z</time>
      </trkpt>
      <trkpt lat="43.485113" lon="-5.467716">
        <ele>58.391</ele>
        <time>2021-10-14T14:01:01Z</time>
      </trkpt>
      <trkpt lat="43.485228" lon="-5.467755">
        <ele>57.762</ele>
        <time>2021-10-14T14:01:02Z</time>
      </trkpt>
      <trkpt lat="43.485451" lon="-5.468019">
        <ele>56.683</ele>
        <time>2021-10-14T14:01:04Z</time>
      </trkpt>
      <trkpt lat="43.485660" lon="-5.468171">
        <ele>54.711</ele>
        <time>2021-10-14T14:01:06Z</time>
      </trkpt>
      <trkpt lat="43.485759" lon="-5.468170">
        <ele>54.608</ele>
        <time>2021-10-14T14:01:07Z</time>
      </trkpt>
      <trkpt lat="43.485830" lon="-5.468111">
        <ele>54.564</ele>
        <time>2021-10-14T14:01:08Z</time>
      </trkpt>
      <trkpt lat="43.485868" lon="-5.467836">
        <ele>53.442</ele>
        <time>2021-10-14T14:01:10Z</time>
      </trkpt>
      <trkpt lat="43.485837" lon="-5.467610">
        <ele>52.720</ele>
        <time>2021-10-14T14:01:11Z</time>
      </trkpt>
      <trkpt lat="43.485713" lon="-5.467005">
        <ele>50.417</ele>
        <time>2021-10-14T14:01:13Z</time>
      </trkpt>
      <trkpt lat="43.485595" lon="-5.466429">
        <ele>48.520</ele>
        <time>2021-10-14T14:01:15Z</time>
      </trkpt>
      <trkpt lat="43.485521" lon="-5.466187">
        <ele>47.627</ele>
        <time>2021-10-14T14:01:16Z</time>
      </trkpt>
      <trkpt lat="43.485305" lon="-5.465828">
        <ele>46.339</ele>
        <time>2021-10-14T14:01:18Z</time>
      </trkpt>
      <trkpt lat="43.485186" lon="-5.465691">
        <ele>46.168</ele>
        <time>2021-10-14T14:01:19Z</time>
      </trkpt>
      <trkpt lat="43.485073" lon="-5.465566">
        <ele>45.726</ele>
        <time>2021-10-14T14:01:20Z</time>
      </trkpt>
      <trkpt lat="43.484976" lon="-5.465441">
        <ele>44.847</ele>
        <time>2021-10-14T14:01:21Z</time>
      </trkpt>
      <trkpt lat="43.484855" lon="-5.465146">
        <ele>43.611</ele>
        <time>2021-10-14T14:01:23Z</time>
      </trkpt>
      <trkpt lat="43.484837" lon="-5.464959">
        <ele>43.208</ele>
        <time>2021-10-14T14:01:24Z</time>
      </trkpt>
      <trkpt lat="43.484849" lon="-5.464754">
        <ele>42.850</ele>
        <time>2021-10-14T14:01:25Z</time>
      </trkpt>
      <trkpt lat="43.484898" lon="-5.464543">
        <ele>42.338</ele>
        <time>2021-10-14T14:01:26Z</time>
      </trkpt>
      <trkpt lat="43.485059" lon="-5.464163">
        <ele>41.416</ele>
        <time>2021-10-14T14:01:28Z</time>
      </trkpt>
      <trkpt lat="43.485143" lon="-5.463987">
        <ele>41.373</ele>
        <time>2021-10-14T14:01:29Z</time>
      </trkpt>
      <trkpt lat="43.485230" lon="-5.463831">
        <ele>40.736</ele>
        <time>2021-10-14T14:01:30Z</time>
      </trkpt>
      <trkpt lat="43.485328" lon="-5.463696">
        <ele>40.533</ele>
        <time>2021-10-14T14:01:31Z</time>
      </trkpt>
      <trkpt lat="43.485446" lon="-5.463586">
        <ele>39.985</ele>
        <time>2021-10-14T14:01:32Z</time>
      </trkpt>
      <trkpt lat="43.485723" lon="-5.463479">
        <ele>38.124</ele>
        <time>2021-10-14T14:01:34Z</time>
      </trkpt>
      <trkpt lat="43.485882" lon="-5.463470">
        <ele>37.324</ele>
        <time>2021-10-14T14:01:35Z</time>
      </trkpt>
      <trkpt lat="43.486205" lon="-5.463451">
        <ele>35.404</ele>
        <time>2021-10-14T14:01:37Z</time>
      </trkpt>
      <trkpt lat="43.486494" lon="-5.463350">
        <ele>33.314</ele>
        <time>2021-10-14T14:01:39Z</time>
      </trkpt>
      <trkpt lat="43.486705" lon="-5.463081">
        <ele>33.108</ele>
        <time>2021-10-14T14:01:41Z</time>
      </trkpt>
      <trkpt lat="43.486766" lon="-5.462893">
        <ele>32.580</ele>
        <time>2021-10-14T14:01:42Z</time>
      </trkpt>
      <trkpt lat="43.486792" lon="-5.462665">
        <ele>32.068</ele>
        <time>2021-10-14T14:01:43Z</time>
      </trkpt>
      <trkpt lat="43.486799" lon="-5.462404">
        <ele>32.066</ele>
        <time>2021-10-14T14:01:44Z</time>
      </trkpt>
      <trkpt lat="43.486821" lon="-5.461848">
        <ele>31.043</ele>
        <time>2021-10-14T14:01:46Z</time>
      </trkpt>
      <trkpt lat="43.486835" lon="-5.461583">
        <ele>30.016</ele>
        <time>2021-10-14T14:01:47Z</time>
      </trkpt>
      <trkpt lat="43.486869" lon="-5.461111">
        <ele>28.723</ele>
        <time>2021-10-14T14:01:49Z</time>
      </trkpt>
      <trkpt lat="43.486892" lon="-5.460902">
        <ele>27.945</ele>
        <time>2021-10-14T14:01:50Z</time>
      </trkpt>
      <trkpt lat="43.486960" lon="-5.460597">
        <ele>26.514</ele>
        <time>2021-10-14T14:01:52Z</time>
      </trkpt>
      <trkpt lat="43.487023" lon="-5.460483">
        <ele>25.997</ele>
        <time>2021-10-14T14:01:53Z</time>
      </trkpt>
      <trkpt lat="43.487205" lon="-5.460351">
        <ele>24.923</ele>
        <time>2021-10-14T14:01:55Z</time>
      </trkpt>
      <trkpt lat="43.487349" lon="-5.460352">
        <ele>23.225</ele>
        <time>2021-10-14T14:01:56Z</time>
      </trkpt>
      <trkpt lat="43.487656" lon="-5.460369">
        <ele>21.308</ele>
        <time>2021-10-14T14:01:58Z</time>
      </trkpt>
      <trkpt lat="43.487881" lon="-5.460236">
        <ele>18.597</ele>
        <time>2021-10-14T14:02:00Z</time>
      </trkpt>
      <trkpt lat="43.487938" lon="-5.459894">
        <ele>17.275</ele>
        <time>2021-10-14T14:02:02Z</time>
      </trkpt>
      <trkpt lat="43.487921" lon="-5.459456">
        <ele>15.553</ele>
        <time>2021-10-14T14:02:04Z</time>
      </trkpt>
      <trkpt lat="43.487917" lon="-5.459049">
        <ele>13.880</ele>
        <time>2021-10-14T14:02:06Z</time>
      </trkpt>
      <trkpt lat="43.487956" lon="-5.458720">
        <ele>13.553</ele>
        <time>2021-10-14T14:02:08Z</time>
      </trkpt>
      <trkpt lat="43.488016" lon="-5.458586">
        <ele>12.110</ele>
        <time>2021-10-14T14:02:09Z</time>
      </trkpt>
      <trkpt lat="43.488219" lon="-5.458437">
        <ele>11.922</ele>
        <time>2021-10-14T14:02:11Z</time>
      </trkpt>
      <trkpt lat="43.488360" lon="-5.458433">
        <ele>11.431</ele>
        <time>2021-10-14T14:02:12Z</time>
      </trkpt>
      <trkpt lat="43.488515" lon="-5.458441">
        <ele>10.934</ele>
        <time>2021-10-14T14:02:13Z</time>
      </trkpt>
      <trkpt lat="43.488675" lon="-5.458418">
        <ele>9.255</ele>
        <time>2021-10-14T14:02:14Z</time>
      </trkpt>
      <trkpt lat="43.488997" lon="-5.458263">
        <ele>7.810</ele>
        <time>2021-10-14T14:02:16Z</time>
      </trkpt>
      <trkpt lat="43.489152" lon="-5.458151">
        <ele>6.808</ele>
        <time>2021-10-14T14:02:17Z</time>
      </trkpt>
      <trkpt lat="43.489450" lon="-5.457960">
        <ele>5.221</ele>
        <time>2021-10-14T14:02:19Z</time>
      </trkpt>
      <trkpt lat="43.489760" lon="-5.457881">
        <ele>3.159</ele>
        <time>2021-10-14T14:02:21Z</time>
      </trkpt>
      <trkpt lat="43.489926" lon="-5.457897">
        <ele>3.147</ele>
        <time>2021-10-14T14:02:22Z</time>
      </trkpt>
      <trkpt lat="43.490101" lon="-5.457927">
        <ele>2.464</ele>
        <time>2021-10-14T14:02:23Z</time>
      </trkpt>
      <trkpt lat="43.490282" lon="-5.457954">
        <ele>1.577</ele>
        <time>2021-10-14T14:02:24Z</time>
      </trkpt>
      <trkpt lat="43.490633" lon="-5.458012">
        <ele>-0.444</ele>
        <time>2021-10-14T14:02:26Z</time>
      </trkpt>
      <trkpt lat="43.490934" lon="-5.458032">
        <ele>-2.146</ele>
        <time>2021-10-14T14:02:28Z</time>
      </trkpt>
      <trkpt lat="43.491073" lon="-5.457997">
        <ele>-1.635</ele>
        <time>2021-10-14T14:02:29Z</time>
      </trkpt>
      <trkpt lat="43.491280" lon="-5.457788">
        <ele>-2.731</ele>
        <time>2021-10-14T14:02:31Z</time>
      </trkpt>
      <trkpt lat="43.491343" lon="-5.457607">
        <ele>-2.761</ele>
        <time>2021-10-14T14:02:32Z</time>
      </trkpt>
      <trkpt lat="43.491363" lon="-5.457118">
        <ele>-2.507</ele>
        <time>2021-10-14T14:02:34Z</time>
      </trkpt>
      <trkpt lat="43.491326" lon="-5.456854">
        <ele>-2.608</ele>
        <time>2021-10-14T14:02:35Z</time>
      </trkpt>
      <trkpt lat="43.491158" lon="-5.456410">
        <ele>-1.511</ele>
        <time>2021-10-14T14:02:37Z</time>
      </trkpt>
      <trkpt lat="43.490914" lon="-5.456011">
        <ele>-1.379</ele>
        <time>2021-10-14T14:02:39Z</time>
      </trkpt>
      <trkpt lat="43.490688" lon="-5.455619">
        <ele>-2.497</ele>
        <time>2021-10-14T14:02:41Z</time>
      </trkpt>
      <trkpt lat="43.490446" lon="-5.455318">
        <ele>-3.134</ele>
        <time>2021-10-14T14:02:43Z</time>
      </trkpt>
      <trkpt lat="43.490231" lon="-5.455086">
        <ele>-2.617</ele>
        <time>2021-10-14T14:02:45Z</time>
      </trkpt>
      <trkpt lat="43.490113" lon="-5.454855">
        <ele>-3.014</ele>
        <time>2021-10-14T14:02:47Z</time>
      </trkpt>
      <trkpt lat="43.490094" lon="-5.454731">
        <ele>-3.026</ele>
        <time>2021-10-14T14:02:48Z</time>
      </trkpt>
      <trkpt lat="43.490141" lon="-5.454457">
        <ele>-3.145</ele>
        <time>2021-10-14T14:02:50Z</time>
      </trkpt>
      <trkpt lat="43.490174" lon="-5.454333">
        <ele>-3.057</ele>
        <time>2021-10-14T14:02:51Z</time>
      </trkpt>
      <trkpt lat="43.490233" lon="-5.454131">
        <ele>-2.400</ele>
        <time>2021-10-14T14:02:53Z</time>
      </trkpt>
      <trkpt lat="43.490281" lon="-5.453927">
        <ele>-2.120</ele>
        <time>2021-10-14T14:02:55Z</time>
      </trkpt>
      <trkpt lat="43.490317" lon="-5.453804">
        <ele>-3.008</ele>
        <time>2021-10-14T14:02:56Z</time>
      </trkpt>
      <trkpt lat="43.490419" lon="-5.453595">
        <ele>-3.863</ele>
        <time>2021-10-14T14:02:58Z</time>
      </trkpt>
      <trkpt lat="43.490496" lon="-5.453527">
        <ele>-4.971</ele>
        <time>2021-10-14T14:02:59Z</time>
      </trkpt>
      <trkpt lat="43.490766" lon="-5.453535">
        <ele>-6.479</ele>
        <time>2021-10-14T14:03:01Z</time>
      </trkpt>
      <trkpt lat="43.490932" lon="-5.453531">
        <ele>-7.666</ele>
        <time>2021-10-14T14:03:02Z</time>
      </trkpt>
      <trkpt lat="43.491218" lon="-5.453428">
        <ele>-10.489</ele>
        <time>2021-10-14T14:03:04Z</time>
      </trkpt>
      <trkpt lat="43.491418" lon="-5.453174">
        <ele>-10.926</ele>
        <time>2021-10-14T14:03:06Z</time>
      </trkpt>
      <trkpt lat="43.491481" lon="-5.452979">
        <ele>-12.488</ele>
        <time>2021-10-14T14:03:07Z</time>
      </trkpt>
      <trkpt lat="43.491533" lon="-5.452528">
        <ele>-14.497</ele>
        <time>2021-10-14T14:03:09Z</time>
      </trkpt>
      <trkpt lat="43.491506" lon="-5.452079">
        <ele>-15.566</ele>
        <time>2021-10-14T14:03:11Z</time>
      </trkpt>
      <trkpt lat="43.491534" lon="-5.451687">
        <ele>-17.629</ele>
        <time>2021-10-14T14:03:13Z</time>
      </trkpt>
      <trkpt lat="43.491584" lon="-5.451512">
        <ele>-17.521</ele>
        <time>2021-10-14T14:03:14Z</time>
      </trkpt>
      <trkpt lat="43.491731" lon="-5.451275">
        <ele>-20.008</ele>
        <time>2021-10-14T14:03:16Z</time>
      </trkpt>
      <trkpt lat="43.491946" lon="-5.451254">
        <ele>-21.514</ele>
        <time>2021-10-14T14:03:18Z</time>
      </trkpt>
      <trkpt lat="43.492061" lon="-5.451294">
        <ele>-22.692</ele>
        <time>2021-10-14T14:03:19Z</time>
      </trkpt>
      <trkpt lat="43.492173" lon="-5.451324">
        <ele>-23.650</ele>
        <time>2021-10-14T14:03:20Z</time>
      </trkpt>
      <trkpt lat="43.492275" lon="-5.451309">
        <ele>-24.577</ele>
        <time>2021-10-14T14:03:21Z</time>
      </trkpt>
      <trkpt lat="43.492399" lon="-5.451066">
        <ele>-24.390</ele>
        <time>2021-10-14T14:03:23Z</time>
      </trkpt>
      <trkpt lat="43.492465" lon="-5.450675">
        <ele>-26.877</ele>
        <time>2021-10-14T14:03:25Z</time>
      </trkpt>
      <trkpt lat="43.492486" lon="-5.450449">
        <ele>-27.879</ele>
        <time>2021-10-14T14:03:26Z</time>
      </trkpt>
      <trkpt lat="43.492473" lon="-5.450015">
        <ele>-28.858</ele>
        <time>2021-10-14T14:03:28Z</time>
      </trkpt>
      <trkpt lat="43.492445" lon="-5.449814">
        <ele>-29.792</ele>
        <time>2021-10-14T14:03:29Z</time>
      </trkpt>
      <trkpt lat="43.492359" lon="-5.449456">
        <ele>-30.573</ele>
        <time>2021-10-14T14:03:31Z</time>
      </trkpt>
      <trkpt lat="43.492281" lon="-5.449300">
        <ele>-32.120</ele>
        <time>2021-10-14T14:03:32Z</time>
      </trkpt>
      <trkpt lat="43.492052" lon="-5.449099">
        <ele>-33.508</ele>
        <time>2021-10-14T14:03:34Z</time>
      </trkpt>
      <trkpt lat="43.491799" lon="-5.448945">
        <ele>-35.227</ele>
        <time>2021-10-14T14:03:36Z</time>
      </trkpt>
      <trkpt lat="43.491690" lon="-5.448849">
        <ele>-35.225</ele>
        <time>2021-10-14T14:03:37Z</time>
      </trkpt>
      <trkpt lat="43.491553" lon="-5.448570">
        <ele>-37.993</ele>
        <time>2021-10-14T14:03:39Z</time>
      </trkpt>
      <trkpt lat="43.491543" lon="-5.448161">
        <ele>-39.010</ele>
        <time>2021-10-14T14:03:41Z</time>
      </trkpt>
      <trkpt lat="43.491517" lon="-5.447741">
        <ele>-41.993</ele>
        <time>2021-10-14T14:03:43Z</time>
      </trkpt>
      <trkpt lat="43.491457" lon="-5.447582">
        <ele>-42.090</ele>
        <time>2021-10-14T14:03:44Z</time>
      </trkpt>
      <trkpt lat="43.491358" lon="-5.447472">
        <ele>-43.042</ele>
        <time>2021-10-14T14:03:45Z</time>
      </trkpt>
      <trkpt lat="43.491099" lon="-5.447319">
        <ele>-44.121</ele>
        <time>2021-10-14T14:03:47Z</time>
      </trkpt>
      <trkpt lat="43.490863" lon="-5.447058">
        <ele>-46.564</ele>
        <time>2021-10-14T14:03:49Z</time>
      </trkpt>
      <trkpt lat="43.490756" lon="-5.446902">
        <ele>-46.606</ele>
        <time>2021-10-14T14:03:50Z</time>
      </trkpt>
      <trkpt lat="43.490567" lon="-5.446613">
        <ele>-48.516</ele>
        <time>2021-10-14T14:03:52Z</time>
      </trkpt>
      <trkpt lat="43.490483" lon="-5.446493">
        <ele>-48.608</ele>
        <time>2021-10-14T14:03:53Z</time>
      </trkpt>
      <trkpt lat="43.490319" lon="-5.446356">
        <ele>-50.234</ele>
        <time>2021-10-14T14:03:55Z</time>
      </trkpt>
      <trkpt lat="43.490235" lon="-5.446355">
        <ele>-50.722</ele>
        <time>2021-10-14T14:03:56Z</time>
      </trkpt>
      <trkpt lat="43.490125" lon="-5.446553">
        <ele>-51.050</ele>
        <time>2021-10-14T14:03:58Z</time>
      </trkpt>
      <trkpt lat="43.490096" lon="-5.446728">
        <ele>-51.617</ele>
        <time>2021-10-14T14:03:59Z</time>
      </trkpt>
      <trkpt lat="43.490077" lon="-5.446920">
        <ele>-51.580</ele>
        <time>2021-10-14T14:04:00Z</time>
      </trkpt>
      <trkpt lat="43.490057" lon="-5.447097">
        <ele>-52.857</ele>
        <time>2021-10-14T14:04:01Z</time>
      </trkpt>
      <trkpt lat="43.490024" lon="-5.447241">
        <ele>-53.599</ele>
        <time>2021-10-14T14:04:02Z</time>
      </trkpt>
      <trkpt lat="43.489917" lon="-5.447394">
        <ele>-54.168</ele>
        <time>2021-10-14T14:04:04Z</time>
      </trkpt>
      <trkpt lat="43.489759" lon="-5.447383">
        <ele>-53.848</ele>
        <time>2021-10-14T14:04:06Z</time>
      </trkpt>
      <trkpt lat="43.489603" lon="-5.447265">
        <ele>-55.661</ele>
        <time>2021-10-14T14:04:08Z</time>
      </trkpt>
      <trkpt lat="43.489479" lon="-5.447087">
        <ele>-57.217</ele>
        <time>2021-10-14T14:04:10Z</time>
      </trkpt>
      <trkpt lat="43.489435" lon="-5.446979">
        <ele>-59.108</ele>
        <time>2021-10-14T14:04:11Z</time>
      </trkpt>
      <trkpt lat="43.489402" lon="-5.446865">
        <ele>-58.942</ele>
        <time>2021-10-14T14:04:12Z</time>
      </trkpt>
      <trkpt lat="43.489375" lon="-5.446756">
        <ele>-60.320</ele>
        <time>2021-10-14T14:04:13Z</time>
      </trkpt>
      <trkpt lat="43.489348" lon="-5.446656">
        <ele>-60.378</ele>
        <time>2021-10-14T14:04:14Z</time>
      </trkpt>
      <trkpt lat="43.489291" lon="-5.446529">
        <ele>-63.065</ele>
        <time>2021-10-14T14:04:16Z</time>
      </trkpt>
      <trkpt lat="43.489242" lon="-5.446526">
        <ele>-62.838</ele>
        <time>2021-10-14T14:04:18Z</time>
      </trkpt>
      <trkpt lat="43.489191" lon="-5.446533">
        <ele>-62.745</ele>
        <time>2021-10-14T14:04:58Z</time>
      </trkpt>
      <trkpt lat="43.489099" lon="-5.446553">
        <ele>-63.137</ele>
        <time>2021-10-14T14:05:00Z</time>
      </trkpt>
      <trkpt lat="43.488974" lon="-5.446501">
        <ele>-65.226</ele>
        <time>2021-10-14T14:05:02Z</time>
      </trkpt>
      <trkpt lat="43.488875" lon="-5.446334">
        <ele>-64.325</ele>
        <time>2021-10-14T14:05:04Z</time>
      </trkpt>
      <trkpt lat="43.488847" lon="-5.446217">
        <ele>-64.426</ele>
        <time>2021-10-14T14:05:05Z</time>
      </trkpt>
      <trkpt lat="43.488783" lon="-5.445957">
        <ele>-64.808</ele>
        <time>2021-10-14T14:05:07Z</time>
      </trkpt>
      <trkpt lat="43.488753" lon="-5.445812">
        <ele>-65.508</ele>
        <time>2021-10-14T14:05:08Z</time>
      </trkpt>
      <trkpt lat="43.488700" lon="-5.445491">
        <ele>-65.910</ele>
        <time>2021-10-14T14:05:10Z</time>
      </trkpt>
      <trkpt lat="43.488656" lon="-5.445327">
        <ele>-66.938</ele>
        <time>2021-10-14T14:05:11Z</time>
      </trkpt>
      <trkpt lat="43.488602" lon="-5.445163">
        <ele>-67.986</ele>
        <time>2021-10-14T14:05:12Z</time>
      </trkpt>
      <trkpt lat="43.488478" lon="-5.444808">
        <ele>-67.983</ele>
        <time>2021-10-14T14:05:14Z</time>
      </trkpt>
      <trkpt lat="43.488349" lon="-5.444438">
        <ele>-69.956</ele>
        <time>2021-10-14T14:05:16Z</time>
      </trkpt>
      <trkpt lat="43.488282" lon="-5.444253">
        <ele>-70.223</ele>
        <time>2021-10-14T14:05:17Z</time>
      </trkpt>
      <trkpt lat="43.488163" lon="-5.443917">
        <ele>-71.325</ele>
        <time>2021-10-14T14:05:19Z</time>
      </trkpt>
      <trkpt lat="43.488106" lon="-5.443757">
        <ele>-71.594</ele>
        <time>2021-10-14T14:05:20Z</time>
      </trkpt>
      <trkpt lat="43.488007" lon="-5.443456">
        <ele>-71.735</ele>
        <time>2021-10-14T14:05:22Z</time>
      </trkpt>
      <trkpt lat="43.487953" lon="-5.443317">
        <ele>-72.786</ele>
        <time>2021-10-14T14:05:23Z</time>
      </trkpt>
      <trkpt lat="43.487832" lon="-5.443040">
        <ele>-74.914</ele>
        <time>2021-10-14T14:05:25Z</time>
      </trkpt>
      <trkpt lat="43.487759" lon="-5.442887">
        <ele>-75.208</ele>
        <time>2021-10-14T14:05:26Z</time>
      </trkpt>
      <trkpt lat="43.487609" lon="-5.442631">
        <ele>-76.741</ele>
        <time>2021-10-14T14:05:28Z</time>
      </trkpt>
      <trkpt lat="43.487527" lon="-5.442515">
        <ele>-77.769</ele>
        <time>2021-10-14T14:05:29Z</time>
      </trkpt>
      <trkpt lat="43.487340" lon="-5.442330">
        <ele>-77.727</ele>
        <time>2021-10-14T14:05:31Z</time>
      </trkpt>
      <trkpt lat="43.487220" lon="-5.442274">
        <ele>-76.494</ele>
        <time>2021-10-14T14:05:32Z</time>
      </trkpt>
      <trkpt lat="43.486929" lon="-5.442242">
        <ele>-76.977</ele>
        <time>2021-10-14T14:05:34Z</time>
      </trkpt>
      <trkpt lat="43.486769" lon="-5.442251">
        <ele>-76.344</ele>
        <time>2021-10-14T14:05:35Z</time>
      </trkpt>
      <trkpt lat="43.486453" lon="-5.442264">
        <ele>-77.286</ele>
        <time>2021-10-14T14:05:37Z</time>
      </trkpt>
      <trkpt lat="43.486297" lon="-5.442267">
        <ele>-77.485</ele>
        <time>2021-10-14T14:05:38Z</time>
      </trkpt>
      <trkpt lat="43.485999" lon="-5.442244">
        <ele>-79.219</ele>
        <time>2021-10-14T14:05:40Z</time>
      </trkpt>
      <trkpt lat="43.485849" lon="-5.442205">
        <ele>-79.709</ele>
        <time>2021-10-14T14:05:41Z</time>
      </trkpt>
      <trkpt lat="43.485548" lon="-5.442082">
        <ele>-80.019</ele>
        <time>2021-10-14T14:05:43Z</time>
      </trkpt>
      <trkpt lat="43.485387" lon="-5.442009">
        <ele>-80.408</ele>
        <time>2021-10-14T14:05:44Z</time>
      </trkpt>
      <trkpt lat="43.485062" lon="-5.441863">
        <ele>-80.289</ele>
        <time>2021-10-14T14:05:46Z</time>
      </trkpt>
      <trkpt lat="43.484732" lon="-5.441716">
        <ele>-79.027</ele>
        <time>2021-10-14T14:05:48Z</time>
      </trkpt>
      <trkpt lat="43.484433" lon="-5.441580">
        <ele>-78.925</ele>
        <time>2021-10-14T14:05:50Z</time>
      </trkpt>
      <trkpt lat="43.484176" lon="-5.441456">
        <ele>-77.512</ele>
        <time>2021-10-14T14:05:52Z</time>
      </trkpt>
      <trkpt lat="43.483949" lon="-5.441290">
        <ele>-76.725</ele>
        <time>2021-10-14T14:05:54Z</time>
      </trkpt>
      <trkpt lat="43.483836" lon="-5.441195">
        <ele>-76.352</ele>
        <time>2021-10-14T14:05:55Z</time>
      </trkpt>
      <trkpt lat="43.483725" lon="-5.441100">
        <ele>-77.264</ele>
        <time>2021-10-14T14:05:56Z</time>
      </trkpt>
      <trkpt lat="43.483530" lon="-5.440920">
        <ele>-76.573</ele>
        <time>2021-10-14T14:05:58Z</time>
      </trkpt>
      <trkpt lat="43.483363" lon="-5.440697">
        <ele>-77.716</ele>
        <time>2021-10-14T14:06:00Z</time>
      </trkpt>
      <trkpt lat="43.483244" lon="-5.440440">
        <ele>-77.276</ele>
        <time>2021-10-14T14:06:02Z</time>
      </trkpt>
      <trkpt lat="43.483156" lon="-5.440188">
        <ele>-77.713</ele>
        <time>2021-10-14T14:06:04Z</time>
      </trkpt>
      <trkpt lat="43.483118" lon="-5.440073">
        <ele>-78.008</ele>
        <time>2021-10-14T14:06:05Z</time>
      </trkpt>
      <trkpt lat="43.483084" lon="-5.439969">
        <ele>-78.259</ele>
        <time>2021-10-14T14:06:06Z</time>
      </trkpt>
      <trkpt lat="43.483001" lon="-5.439810">
        <ele>-78.597</ele>
        <time>2021-10-14T14:06:08Z</time>
      </trkpt>
      <trkpt lat="43.482894" lon="-5.439707">
        <ele>-78.755</ele>
        <time>2021-10-14T14:06:10Z</time>
      </trkpt>
      <trkpt lat="43.482815" lon="-5.439531">
        <ele>-78.252</ele>
        <time>2021-10-14T14:06:12Z</time>
      </trkpt>
      <trkpt lat="43.482784" lon="-5.439285">
        <ele>-78.735</ele>
        <time>2021-10-14T14:06:14Z</time>
      </trkpt>
      <trkpt lat="43.482695" lon="-5.439027">
        <ele>-79.412</ele>
        <time>2021-10-14T14:06:16Z</time>
      </trkpt>
      <trkpt lat="43.482639" lon="-5.438895">
        <ele>-79.434</ele>
        <time>2021-10-14T14:06:17Z</time>
      </trkpt>
      <trkpt lat="43.482546" lon="-5.438631">
        <ele>-79.243</ele>
        <time>2021-10-14T14:06:19Z</time>
      </trkpt>
      <trkpt lat="43.482509" lon="-5.438507">
        <ele>-79.455</ele>
        <time>2021-10-14T14:06:20Z</time>
      </trkpt>
      <trkpt lat="43.482436" lon="-5.438282">
        <ele>-81.207</ele>
        <time>2021-10-14T14:06:22Z</time>
      </trkpt>
      <trkpt lat="43.482369" lon="-5.438061">
        <ele>-80.917</ele>
        <time>2021-10-14T14:06:24Z</time>
      </trkpt>
      <trkpt lat="43.482335" lon="-5.437952">
        <ele>-81.908</ele>
        <time>2021-10-14T14:06:25Z</time>
      </trkpt>
      <trkpt lat="43.482300" lon="-5.437842">
        <ele>-82.513</ele>
        <time>2021-10-14T14:06:26Z</time>
      </trkpt>
      <trkpt lat="43.482238" lon="-5.437637">
        <ele>-82.951</ele>
        <time>2021-10-14T14:06:28Z</time>
      </trkpt>
      <trkpt lat="43.482210" lon="-5.437442">
        <ele>-81.919</ele>
        <time>2021-10-14T14:06:30Z</time>
      </trkpt>
      <trkpt lat="43.482206" lon="-5.437355">
        <ele>-80.996</ele>
        <time>2021-10-14T14:06:31Z</time>
      </trkpt>
      <trkpt lat="43.482203" lon="-5.437270">
        <ele>-81.439</ele>
        <time>2021-10-14T14:06:32Z</time>
      </trkpt>
      <trkpt lat="43.482223" lon="-5.437113">
        <ele>-78.476</ele>
        <time>2021-10-14T14:06:34Z</time>
      </trkpt>
      <trkpt lat="43.482299" lon="-5.437015">
        <ele>-77.928</ele>
        <time>2021-10-14T14:06:36Z</time>
      </trkpt>
      <trkpt lat="43.482366" lon="-5.436991">
        <ele>-78.547</ele>
        <time>2021-10-14T14:06:37Z</time>
      </trkpt>
      <trkpt lat="43.482447" lon="-5.436978">
        <ele>-77.941</ele>
        <time>2021-10-14T14:06:38Z</time>
      </trkpt>
      <trkpt lat="43.482607" lon="-5.436953">
        <ele>-77.981</ele>
        <time>2021-10-14T14:06:40Z</time>
      </trkpt>
      <trkpt lat="43.482682" lon="-5.436945">
        <ele>-78.209</ele>
        <time>2021-10-14T14:06:41Z</time>
      </trkpt>
      <trkpt lat="43.482813" lon="-5.436880">
        <ele>-77.708</ele>
        <time>2021-10-14T14:06:43Z</time>
      </trkpt>
      <trkpt lat="43.482860" lon="-5.436812">
        <ele>-77.792</ele>
        <time>2021-10-14T14:06:44Z</time>
      </trkpt>
      <trkpt lat="43.482867" lon="-5.436623">
        <ele>-76.370</ele>
        <time>2021-10-14T14:06:46Z</time>
      </trkpt>
      <trkpt lat="43.482804" lon="-5.436419">
        <ele>-75.768</ele>
        <time>2021-10-14T14:06:48Z</time>
      </trkpt>
      <trkpt lat="43.482727" lon="-5.436196">
        <ele>-76.275</ele>
        <time>2021-10-14T14:06:50Z</time>
      </trkpt>
      <trkpt lat="43.482664" lon="-5.435981">
        <ele>-77.768</ele>
        <time>2021-10-14T14:06:52Z</time>
      </trkpt>
      <trkpt lat="43.482629" lon="-5.435892">
        <ele>-78.455</ele>
        <time>2021-10-14T14:06:53Z</time>
      </trkpt>
      <trkpt lat="43.482592" lon="-5.435826">
        <ele>-77.747</ele>
        <time>2021-10-14T14:06:54Z</time>
      </trkpt>
      <trkpt lat="43.482490" lon="-5.435697">
        <ele>-77.996</ele>
        <time>2021-10-14T14:06:56Z</time>
      </trkpt>
      <trkpt lat="43.482367" lon="-5.435554">
        <ele>-77.268</ele>
        <time>2021-10-14T14:06:58Z</time>
      </trkpt>
      <trkpt lat="43.482295" lon="-5.435482">
        <ele>-77.442</ele>
        <time>2021-10-14T14:06:59Z</time>
      </trkpt>
      <trkpt lat="43.482218" lon="-5.435407">
        <ele>-77.526</ele>
        <time>2021-10-14T14:07:00Z</time>
      </trkpt>
      <trkpt lat="43.482138" lon="-5.435329">
        <ele>-77.708</ele>
        <time>2021-10-14T14:07:01Z</time>
      </trkpt>
      <trkpt lat="43.482057" lon="-5.435249">
        <ele>-78.264</ele>
        <time>2021-10-14T14:07:02Z</time>
      </trkpt>
      <trkpt lat="43.481910" lon="-5.435108">
        <ele>-77.932</ele>
        <time>2021-10-14T14:07:04Z</time>
      </trkpt>
      <trkpt lat="43.481769" lon="-5.434969">
        <ele>-77.250</ele>
        <time>2021-10-14T14:07:06Z</time>
      </trkpt>
      <trkpt lat="43.481709" lon="-5.434908">
        <ele>-78.467</ele>
        <time>2021-10-14T14:07:07Z</time>
      </trkpt>
      <trkpt lat="43.481654" lon="-5.434857">
        <ele>-78.950</ele>
        <time>2021-10-14T14:07:08Z</time>
      </trkpt>
      <trkpt lat="43.481573" lon="-5.434780">
        <ele>-80.067</ele>
        <time>2021-10-14T14:07:10Z</time>
      </trkpt>
      <trkpt lat="43.481495" lon="-5.434703">
        <ele>-82.489</ele>
        <time>2021-10-14T14:07:12Z</time>
      </trkpt>
      <trkpt lat="43.481452" lon="-5.434653">
        <ele>-82.938</ele>
        <time>2021-10-14T14:07:13Z</time>
      </trkpt>
      <trkpt lat="43.481408" lon="-5.434605">
        <ele>-82.443</ele>
        <time>2021-10-14T14:07:14Z</time>
      </trkpt>
      <trkpt lat="43.481332" lon="-5.434502">
        <ele>-80.764</ele>
        <time>2021-10-14T14:07:16Z</time>
      </trkpt>
      <trkpt lat="43.481305" lon="-5.434432">
        <ele>-79.710</ele>
        <time>2021-10-14T14:07:17Z</time>
      </trkpt>
      <trkpt lat="43.481288" lon="-5.434264">
        <ele>-76.908</ele>
        <time>2021-10-14T14:07:19Z</time>
      </trkpt>
      <trkpt lat="43.481302" lon="-5.434177">
        <ele>-76.782</ele>
        <time>2021-10-14T14:07:20Z</time>
      </trkpt>
      <trkpt lat="43.481354" lon="-5.434027">
        <ele>-75.790</ele>
        <time>2021-10-14T14:07:22Z</time>
      </trkpt>
      <trkpt lat="43.481383" lon="-5.433949">
        <ele>-75.288</ele>
        <time>2021-10-14T14:07:23Z</time>
      </trkpt>
      <trkpt lat="43.481436" lon="-5.433788">
        <ele>-74.275</ele>
        <time>2021-10-14T14:07:25Z</time>
      </trkpt>
      <trkpt lat="43.481455" lon="-5.433712">
        <ele>-74.818</ele>
        <time>2021-10-14T14:07:26Z</time>
      </trkpt>
      <trkpt lat="43.481484" lon="-5.433577">
        <ele>-72.915</ele>
        <time>2021-10-14T14:07:28Z</time>
      </trkpt>
      <trkpt lat="43.481502" lon="-5.433511">
        <ele>-73.787</ele>
        <time>2021-10-14T14:07:29Z</time>
      </trkpt>
      <trkpt lat="43.481567" lon="-5.433380">
        <ele>-73.496</ele>
        <time>2021-10-14T14:07:31Z</time>
      </trkpt>
      <trkpt lat="43.481615" lon="-5.433310">
        <ele>-74.348</ele>
        <time>2021-10-14T14:07:32Z</time>
      </trkpt>
      <trkpt lat="43.481726" lon="-5.433197">
        <ele>-74.561</ele>
        <time>2021-10-14T14:07:34Z</time>
      </trkpt>
      <trkpt lat="43.481782" lon="-5.433151">
        <ele>-74.817</ele>
        <time>2021-10-14T14:07:35Z</time>
      </trkpt>
      <trkpt lat="43.481891" lon="-5.433050">
        <ele>-76.208</ele>
        <time>2021-10-14T14:07:37Z</time>
      </trkpt>
      <trkpt lat="43.481950" lon="-5.432987">
        <ele>-76.022</ele>
        <time>2021-10-14T14:07:38Z</time>
      </trkpt>
      <trkpt lat="43.482085" lon="-5.432848">
        <ele>-75.880</ele>
        <time>2021-10-14T14:07:40Z</time>
      </trkpt>
      <trkpt lat="43.482155" lon="-5.432772">
        <ele>-75.788</ele>
        <time>2021-10-14T14:07:41Z</time>
      </trkpt>
      <trkpt lat="43.482224" lon="-5.432695">
        <ele>-75.765</ele>
        <time>2021-10-14T14:07:42Z</time>
      </trkpt>
      <trkpt lat="43.482359" lon="-5.432549">
        <ele>-74.718</ele>
        <time>2021-10-14T14:07:44Z</time>
      </trkpt>
      <trkpt lat="43.482474" lon="-5.432409">
        <ele>-74.715</ele>
        <time>2021-10-14T14:07:46Z</time>
      </trkpt>
      <trkpt lat="43.482517" lon="-5.432350">
        <ele>-73.817</ele>
        <time>2021-10-14T14:07:47Z</time>
      </trkpt>
      <trkpt lat="43.482580" lon="-5.432272">
        <ele>-73.446</ele>
        <time>2021-10-14T14:07:49Z</time>
      </trkpt>
      <trkpt lat="43.482654" lon="-5.432189">
        <ele>-73.313</ele>
        <time>2021-10-14T14:07:51Z</time>
      </trkpt>
      <trkpt lat="43.482699" lon="-5.432144">
        <ele>-72.943</ele>
        <time>2021-10-14T14:07:52Z</time>
      </trkpt>
      <trkpt lat="43.482795" lon="-5.432046">
        <ele>-72.307</ele>
        <time>2021-10-14T14:07:54Z</time>
      </trkpt>
      <trkpt lat="43.482895" lon="-5.431952">
        <ele>-73.508</ele>
        <time>2021-10-14T14:07:56Z</time>
      </trkpt>
      <trkpt lat="43.482990" lon="-5.431859">
        <ele>-73.319</ele>
        <time>2021-10-14T14:07:58Z</time>
      </trkpt>
      <trkpt lat="43.483043" lon="-5.431805">
        <ele>-72.997</ele>
        <time>2021-10-14T14:07:59Z</time>
      </trkpt>
      <trkpt lat="43.483151" lon="-5.431673">
        <ele>-72.965</ele>
        <time>2021-10-14T14:08:01Z</time>
      </trkpt>
      <trkpt lat="43.483213" lon="-5.431601">
        <ele>-72.982</ele>
        <time>2021-10-14T14:08:02Z</time>
      </trkpt>
      <trkpt lat="43.483338" lon="-5.431453">
        <ele>-72.515</ele>
        <time>2021-10-14T14:08:04Z</time>
      </trkpt>
      <trkpt lat="43.483412" lon="-5.431369">
        <ele>-72.462</ele>
        <time>2021-10-14T14:08:05Z</time>
      </trkpt>
      <trkpt lat="43.483492" lon="-5.431273">
        <ele>-72.294</ele>
        <time>2021-10-14T14:08:06Z</time>
      </trkpt>
      <trkpt lat="43.483674" lon="-5.431072">
        <ele>-73.363</ele>
        <time>2021-10-14T14:08:08Z</time>
      </trkpt>
      <trkpt lat="43.483856" lon="-5.430865">
        <ele>-72.778</ele>
        <time>2021-10-14T14:08:10Z</time>
      </trkpt>
      <trkpt lat="43.483958" lon="-5.430751">
        <ele>-71.733</ele>
        <time>2021-10-14T14:08:11Z</time>
      </trkpt>
      <trkpt lat="43.484174" lon="-5.430498">
        <ele>-71.226</ele>
        <time>2021-10-14T14:08:13Z</time>
      </trkpt>
      <trkpt lat="43.484288" lon="-5.430360">
        <ele>-70.908</ele>
        <time>2021-10-14T14:08:14Z</time>
      </trkpt>
      <trkpt lat="43.484517" lon="-5.430092">
        <ele>-70.975</ele>
        <time>2021-10-14T14:08:16Z</time>
      </trkpt>
      <trkpt lat="43.484752" lon="-5.429824">
        <ele>-70.963</ele>
        <time>2021-10-14T14:08:18Z</time>
      </trkpt>
      <trkpt lat="43.484868" lon="-5.429698">
        <ele>-71.211</ele>
        <time>2021-10-14T14:08:19Z</time>
      </trkpt>
      <trkpt lat="43.484981" lon="-5.429570">
        <ele>-71.398</ele>
        <time>2021-10-14T14:08:20Z</time>
      </trkpt>
      <trkpt lat="43.485187" lon="-5.429342">
        <ele>-73.551</ele>
        <time>2021-10-14T14:08:22Z</time>
      </trkpt>
      <trkpt lat="43.485290" lon="-5.429229">
        <ele>-72.788</ele>
        <time>2021-10-14T14:08:23Z</time>
      </trkpt>
      <trkpt lat="43.485479" lon="-5.429009">
        <ele>-72.750</ele>
        <time>2021-10-14T14:08:25Z</time>
      </trkpt>
      <trkpt lat="43.485578" lon="-5.428896">
        <ele>-72.839</ele>
        <time>2021-10-14T14:08:26Z</time>
      </trkpt>
      <trkpt lat="43.485787" lon="-5.428665">
        <ele>-72.959</ele>
        <time>2021-10-14T14:08:28Z</time>
      </trkpt>
      <trkpt lat="43.485909" lon="-5.428530">
        <ele>-71.703</ele>
        <time>2021-10-14T14:08:29Z</time>
      </trkpt>
      <trkpt lat="43.486184" lon="-5.428218">
        <ele>-72.323</ele>
        <time>2021-10-14T14:08:31Z</time>
      </trkpt>
      <trkpt lat="43.486338" lon="-5.428043">
        <ele>-71.808</ele>
        <time>2021-10-14T14:08:32Z</time>
      </trkpt>
      <trkpt lat="43.486657" lon="-5.427681">
        <ele>-71.223</ele>
        <time>2021-10-14T14:08:34Z</time>
      </trkpt>
      <trkpt lat="43.486997" lon="-5.427298">
        <ele>-71.831</ele>
        <time>2021-10-14T14:08:36Z</time>
      </trkpt>
      <trkpt lat="43.487298" lon="-5.426960">
        <ele>-71.599</ele>
        <time>2021-10-14T14:08:38Z</time>
      </trkpt>
      <trkpt lat="43.487560" lon="-5.426673">
        <ele>-73.366</ele>
        <time>2021-10-14T14:08:40Z</time>
      </trkpt>
      <trkpt lat="43.487794" lon="-5.426415">
        <ele>-72.879</ele>
        <time>2021-10-14T14:08:42Z</time>
      </trkpt>
      <trkpt lat="43.487900" lon="-5.426291">
        <ele>-73.266</ele>
        <time>2021-10-14T14:08:43Z</time>
      </trkpt>
      <trkpt lat="43.488003" lon="-5.426169">
        <ele>-72.968</ele>
        <time>2021-10-14T14:08:44Z</time>
      </trkpt>
      <trkpt lat="43.488233" lon="-5.425916">
        <ele>-73.477</ele>
        <time>2021-10-14T14:08:46Z</time>
      </trkpt>
      <trkpt lat="43.488375" lon="-5.425785">
        <ele>-73.494</ele>
        <time>2021-10-14T14:08:47Z</time>
      </trkpt>
      <trkpt lat="43.488528" lon="-5.425646">
        <ele>-73.757</ele>
        <time>2021-10-14T14:08:48Z</time>
      </trkpt>
      <trkpt lat="43.488842" lon="-5.425328">
        <ele>-73.922</ele>
        <time>2021-10-14T14:08:50Z</time>
      </trkpt>
      <trkpt lat="43.489154" lon="-5.425030">
        <ele>-75.908</ele>
        <time>2021-10-14T14:08:52Z</time>
      </trkpt>
      <trkpt lat="43.489523" lon="-5.424825">
        <ele>-76.227</ele>
        <time>2021-10-14T14:08:54Z</time>
      </trkpt>
      <trkpt lat="43.490018" lon="-5.424696">
        <ele>-76.255</ele>
        <time>2021-10-14T14:08:56Z</time>
      </trkpt>
      <trkpt lat="43.490511" lon="-5.424558">
        <ele>-78.483</ele>
        <time>2021-10-14T14:08:58Z</time>
      </trkpt>
      <trkpt lat="43.490745" lon="-5.424482">
        <ele>-79.210</ele>
        <time>2021-10-14T14:08:59Z</time>
      </trkpt>
      <trkpt lat="43.491202" lon="-5.424323">
        <ele>-81.943</ele>
        <time>2021-10-14T14:09:01Z</time>
      </trkpt>
      <trkpt lat="43.491440" lon="-5.424241">
        <ele>-81.240</ele>
        <time>2021-10-14T14:09:02Z</time>
      </trkpt>
      <trkpt lat="43.491891" lon="-5.424074">
        <ele>-81.722</ele>
        <time>2021-10-14T14:09:04Z</time>
      </trkpt>
      <trkpt lat="43.492333" lon="-5.423924">
        <ele>-82.061</ele>
        <time>2021-10-14T14:09:06Z</time>
      </trkpt>
      <trkpt lat="43.492727" lon="-5.423786">
        <ele>-81.959</ele>
        <time>2021-10-14T14:09:08Z</time>
      </trkpt>
      <trkpt lat="43.493087" lon="-5.423660">
        <ele>-82.003</ele>
        <time>2021-10-14T14:09:10Z</time>
      </trkpt>
      <trkpt lat="43.493266" lon="-5.423597">
        <ele>-81.223</ele>
        <time>2021-10-14T14:09:11Z</time>
      </trkpt>
      <trkpt lat="43.493597" lon="-5.423473">
        <ele>-81.208</ele>
        <time>2021-10-14T14:09:13Z</time>
      </trkpt>
      <trkpt lat="43.493760" lon="-5.423413">
        <ele>-81.473</ele>
        <time>2021-10-14T14:09:14Z</time>
      </trkpt>
      <trkpt lat="43.494090" lon="-5.423297">
        <ele>-81.411</ele>
        <time>2021-10-14T14:09:16Z</time>
      </trkpt>
      <trkpt lat="43.494419" lon="-5.423181">
        <ele>-81.939</ele>
        <time>2021-10-14T14:09:18Z</time>
      </trkpt>
      <trkpt lat="43.494582" lon="-5.423122">
        <ele>-81.996</ele>
        <time>2021-10-14T14:09:19Z</time>
      </trkpt>
      <trkpt lat="43.494746" lon="-5.423061">
        <ele>-81.449</ele>
        <time>2021-10-14T14:09:20Z</time>
      </trkpt>
      <trkpt lat="43.495065" lon="-5.422930">
        <ele>-83.576</ele>
        <time>2021-10-14T14:09:22Z</time>
      </trkpt>
      <trkpt lat="43.495250" lon="-5.422867">
        <ele>-83.738</ele>
        <time>2021-10-14T14:09:23Z</time>
      </trkpt>
      <trkpt lat="43.495432" lon="-5.422813">
        <ele>-83.077</ele>
        <time>2021-10-14T14:09:24Z</time>
      </trkpt>
      <trkpt lat="43.495613" lon="-5.422754">
        <ele>-83.476</ele>
        <time>2021-10-14T14:09:25Z</time>
      </trkpt>
      <trkpt lat="43.495794" lon="-5.422690">
        <ele>-83.790</ele>
        <time>2021-10-14T14:09:26Z</time>
      </trkpt>
      <trkpt lat="43.496135" lon="-5.422566">
        <ele>-82.919</ele>
        <time>2021-10-14T14:09:28Z</time>
      </trkpt>
      <trkpt lat="43.496311" lon="-5.422504">
        <ele>-83.408</ele>
        <time>2021-10-14T14:09:29Z</time>
      </trkpt>
      <trkpt lat="43.496658" lon="-5.422371">
        <ele>-82.075</ele>
        <time>2021-10-14T14:09:31Z</time>
      </trkpt>
      <trkpt lat="43.496829" lon="-5.422300">
        <ele>-80.953</ele>
        <time>2021-10-14T14:09:32Z</time>
      </trkpt>
      <trkpt lat="43.497130" lon="-5.422139">
        <ele>-79.261</ele>
        <time>2021-10-14T14:09:34Z</time>
      </trkpt>
      <trkpt lat="43.497408" lon="-5.421958">
        <ele>-76.968</ele>
        <time>2021-10-14T14:09:36Z</time>
      </trkpt>
      <trkpt lat="43.497537" lon="-5.421852">
        <ele>-76.031</ele>
        <time>2021-10-14T14:09:37Z</time>
      </trkpt>
      <trkpt lat="43.497667" lon="-5.421719">
        <ele>-76.518</ele>
        <time>2021-10-14T14:09:38Z</time>
      </trkpt>
      <trkpt lat="43.497907" lon="-5.421394">
        <ele>-74.070</ele>
        <time>2021-10-14T14:09:40Z</time>
      </trkpt>
      <trkpt lat="43.498020" lon="-5.421194">
        <ele>-73.279</ele>
        <time>2021-10-14T14:09:41Z</time>
      </trkpt>
      <trkpt lat="43.498211" lon="-5.420774">
        <ele>-70.953</ele>
        <time>2021-10-14T14:09:43Z</time>
      </trkpt>
      <trkpt lat="43.498291" lon="-5.420576">
        <ele>-71.404</ele>
        <time>2021-10-14T14:09:44Z</time>
      </trkpt>
      <trkpt lat="43.498419" lon="-5.420242">
        <ele>-71.514</ele>
        <time>2021-10-14T14:09:46Z</time>
      </trkpt>
      <trkpt lat="43.498450" lon="-5.420096">
        <ele>-71.708</ele>
        <time>2021-10-14T14:09:47Z</time>
      </trkpt>
      <trkpt lat="43.498449" lon="-5.419836">
        <ele>-70.223</ele>
        <time>2021-10-14T14:09:49Z</time>
      </trkpt>
      <trkpt lat="43.498438" lon="-5.419724">
        <ele>-70.541</ele>
        <time>2021-10-14T14:09:50Z</time>
      </trkpt>
      <trkpt lat="43.498456" lon="-5.419538">
        <ele>-69.529</ele>
        <time>2021-10-14T14:09:52Z</time>
      </trkpt>
      <trkpt lat="43.498494" lon="-5.419475">
        <ele>-68.946</ele>
        <time>2021-10-14T14:09:53Z</time>
      </trkpt>
      <trkpt lat="43.498559" lon="-5.419450">
        <ele>-69.929</ele>
        <time>2021-10-14T14:09:54Z</time>
      </trkpt>
      <trkpt lat="43.498734" lon="-5.419467">
        <ele>-70.086</ele>
        <time>2021-10-14T14:09:56Z</time>
      </trkpt>
      <trkpt lat="43.498930" lon="-5.419440">
        <ele>-70.028</ele>
        <time>2021-10-14T14:09:58Z</time>
      </trkpt>
      <trkpt lat="43.499037" lon="-5.419368">
        <ele>-72.237</ele>
        <time>2021-10-14T14:09:59Z</time>
      </trkpt>
      <trkpt lat="43.499152" lon="-5.419250">
        <ele>-72.219</ele>
        <time>2021-10-14T14:10:00Z</time>
      </trkpt>
      <trkpt lat="43.499284" lon="-5.419090">
        <ele>-73.009</ele>
        <time>2021-10-14T14:10:01Z</time>
      </trkpt>
      <trkpt lat="43.499429" lon="-5.418901">
        <ele>-74.319</ele>
        <time>2021-10-14T14:10:02Z</time>
      </trkpt>
      <trkpt lat="43.499712" lon="-5.418555">
        <ele>-76.208</ele>
        <time>2021-10-14T14:10:04Z</time>
      </trkpt>
      <trkpt lat="43.499852" lon="-5.418379">
        <ele>-77.739</ele>
        <time>2021-10-14T14:10:05Z</time>
      </trkpt>
      <trkpt lat="43.500143" lon="-5.418023">
        <ele>-79.747</ele>
        <time>2021-10-14T14:10:07Z</time>
      </trkpt>
      <trkpt lat="43.500293" lon="-5.417840">
        <ele>-78.515</ele>
        <time>2021-10-14T14:10:08Z</time>
      </trkpt>
      <trkpt lat="43.500585" lon="-5.417472">
        <ele>-79.722</ele>
        <time>2021-10-14T14:10:10Z</time>
      </trkpt>
      <trkpt lat="43.500726" lon="-5.417280">
        <ele>-79.215</ele>
        <time>2021-10-14T14:10:11Z</time>
      </trkpt>
      <trkpt lat="43.500967" lon="-5.416869">
        <ele>-79.982</ele>
        <time>2021-10-14T14:10:13Z</time>
      </trkpt>
      <trkpt lat="43.501076" lon="-5.416672">
        <ele>-79.094</ele>
        <time>2021-10-14T14:10:14Z</time>
      </trkpt>
      <trkpt lat="43.501265" lon="-5.416329">
        <ele>-78.213</ele>
        <time>2021-10-14T14:10:16Z</time>
      </trkpt>
      <trkpt lat="43.501355" lon="-5.416170">
        <ele>-78.521</ele>
        <time>2021-10-14T14:10:17Z</time>
      </trkpt>
      <trkpt lat="43.501443" lon="-5.416013">
        <ele>-77.241</ele>
        <time>2021-10-14T14:10:18Z</time>
      </trkpt>
      <trkpt lat="43.501630" lon="-5.415676">
        <ele>-76.205</ele>
        <time>2021-10-14T14:10:20Z</time>
      </trkpt>
      <trkpt lat="43.501839" lon="-5.415315">
        <ele>-74.808</ele>
        <time>2021-10-14T14:10:22Z</time>
      </trkpt>
      <trkpt lat="43.501957" lon="-5.415129">
        <ele>-73.260</ele>
        <time>2021-10-14T14:10:23Z</time>
      </trkpt>
      <trkpt lat="43.502086" lon="-5.414936">
        <ele>-73.478</ele>
        <time>2021-10-14T14:10:24Z</time>
      </trkpt>
      <trkpt lat="43.502225" lon="-5.414736">
        <ele>-72.866</ele>
        <time>2021-10-14T14:10:25Z</time>
      </trkpt>
      <trkpt lat="43.502369" lon="-5.414530">
        <ele>-71.743</ele>
        <time>2021-10-14T14:10:26Z</time>
      </trkpt>
      <trkpt lat="43.502631" lon="-5.414153">
        <ele>-71.086</ele>
        <time>2021-10-14T14:10:28Z</time>
      </trkpt>
      <trkpt lat="43.502763" lon="-5.413961">
        <ele>-70.443</ele>
        <time>2021-10-14T14:10:29Z</time>
      </trkpt>
      <trkpt lat="43.503023" lon="-5.413578">
        <ele>-70.085</ele>
        <time>2021-10-14T14:10:31Z</time>
      </trkpt>
      <trkpt lat="43.503153" lon="-5.413374">
        <ele>-69.814</ele>
        <time>2021-10-14T14:10:32Z</time>
      </trkpt>
      <trkpt lat="43.503393" lon="-5.412983">
        <ele>-70.251</ele>
        <time>2021-10-14T14:10:34Z</time>
      </trkpt>
      <trkpt lat="43.503623" lon="-5.412522">
        <ele>-70.001</ele>
        <time>2021-10-14T14:10:36Z</time>
      </trkpt>
      <trkpt lat="43.503722" lon="-5.412256">
        <ele>-70.411</ele>
        <time>2021-10-14T14:10:37Z</time>
      </trkpt>
      <trkpt lat="43.503819" lon="-5.411975">
        <ele>-70.208</ele>
        <time>2021-10-14T14:10:38Z</time>
      </trkpt>
      <trkpt lat="43.504017" lon="-5.411420">
        <ele>-69.773</ele>
        <time>2021-10-14T14:10:40Z</time>
      </trkpt>
      <trkpt lat="43.504116" lon="-5.411149">
        <ele>-70.031</ele>
        <time>2021-10-14T14:10:41Z</time>
      </trkpt>
      <trkpt lat="43.504289" lon="-5.410660">
        <ele>-70.379</ele>
        <time>2021-10-14T14:10:43Z</time>
      </trkpt>
      <trkpt lat="43.504359" lon="-5.410421">
        <ele>-69.716</ele>
        <time>2021-10-14T14:10:44Z</time>
      </trkpt>
      <trkpt lat="43.504448" lon="-5.409935">
        <ele>-66.849</ele>
        <time>2021-10-14T14:10:46Z</time>
      </trkpt>
      <trkpt lat="43.504479" lon="-5.409675">
        <ele>-67.586</ele>
        <time>2021-10-14T14:10:47Z</time>
      </trkpt>
      <trkpt lat="43.504537" lon="-5.409144">
        <ele>-66.058</ele>
        <time>2021-10-14T14:10:49Z</time>
      </trkpt>
      <trkpt lat="43.504567" lon="-5.408874">
        <ele>-65.717</ele>
        <time>2021-10-14T14:10:50Z</time>
      </trkpt>
      <trkpt lat="43.504628" lon="-5.408380">
        <ele>-66.249</ele>
        <time>2021-10-14T14:10:52Z</time>
      </trkpt>
      <trkpt lat="43.504660" lon="-5.408135">
        <ele>-66.902</ele>
        <time>2021-10-14T14:10:53Z</time>
      </trkpt>
      <trkpt lat="43.504692" lon="-5.407880">
        <ele>-66.722</ele>
        <time>2021-10-14T14:10:54Z</time>
      </trkpt>
      <trkpt lat="43.504725" lon="-5.407612">
        <ele>-67.208</ele>
        <time>2021-10-14T14:10:55Z</time>
      </trkpt>
      <trkpt lat="43.504759" lon="-5.407330">
        <ele>-68.712</ele>
        <time>2021-10-14T14:10:56Z</time>
      </trkpt>
      <trkpt lat="43.504826" lon="-5.406769">
        <ele>-70.730</ele>
        <time>2021-10-14T14:10:58Z</time>
      </trkpt>
      <trkpt lat="43.504863" lon="-5.406466">
        <ele>-72.498</ele>
        <time>2021-10-14T14:10:59Z</time>
      </trkpt>
      <trkpt lat="43.504903" lon="-5.406156">
        <ele>-73.475</ele>
        <time>2021-10-14T14:11:00Z</time>
      </trkpt>
      <trkpt lat="43.504991" lon="-5.405493">
        <ele>-76.078</ele>
        <time>2021-10-14T14:11:02Z</time>
      </trkpt>
      <trkpt lat="43.505073" lon="-5.404835">
        <ele>-77.015</ele>
        <time>2021-10-14T14:11:04Z</time>
      </trkpt>
      <trkpt lat="43.505117" lon="-5.404492">
        <ele>-77.937</ele>
        <time>2021-10-14T14:11:05Z</time>
      </trkpt>
      <trkpt lat="43.505192" lon="-5.403817">
        <ele>-77.466</ele>
        <time>2021-10-14T14:11:07Z</time>
      </trkpt>
      <trkpt lat="43.505232" lon="-5.403480">
        <ele>-76.574</ele>
        <time>2021-10-14T14:11:08Z</time>
      </trkpt>
      <trkpt lat="43.505307" lon="-5.402864">
        <ele>-74.956</ele>
        <time>2021-10-14T14:11:10Z</time>
      </trkpt>
      <trkpt lat="43.505384" lon="-5.402269">
        <ele>-73.421</ele>
        <time>2021-10-14T14:11:12Z</time>
      </trkpt>
      <trkpt lat="43.505424" lon="-5.401974">
        <ele>-73.008</ele>
        <time>2021-10-14T14:11:13Z</time>
      </trkpt>
      <trkpt lat="43.505460" lon="-5.401679">
        <ele>-70.925</ele>
        <time>2021-10-14T14:11:14Z</time>
      </trkpt>
      <trkpt lat="43.505528" lon="-5.401113">
        <ele>-70.713</ele>
        <time>2021-10-14T14:11:16Z</time>
      </trkpt>
      <trkpt lat="43.505563" lon="-5.400827">
        <ele>-70.561</ele>
        <time>2021-10-14T14:11:17Z</time>
      </trkpt>
      <trkpt lat="43.505637" lon="-5.400243">
        <ele>-69.828</ele>
        <time>2021-10-14T14:11:19Z</time>
      </trkpt>
      <trkpt lat="43.505675" lon="-5.399939">
        <ele>-68.271</ele>
        <time>2021-10-14T14:11:20Z</time>
      </trkpt>
      <trkpt lat="43.505747" lon="-5.399366">
        <ele>-68.098</ele>
        <time>2021-10-14T14:11:22Z</time>
      </trkpt>
      <trkpt lat="43.505810" lon="-5.398850">
        <ele>-65.930</ele>
        <time>2021-10-14T14:11:24Z</time>
      </trkpt>
      <trkpt lat="43.505867" lon="-5.398367">
        <ele>-63.979</ele>
        <time>2021-10-14T14:11:26Z</time>
      </trkpt>
      <trkpt lat="43.505927" lon="-5.397882">
        <ele>-62.712</ele>
        <time>2021-10-14T14:11:28Z</time>
      </trkpt>
      <trkpt lat="43.505937" lon="-5.397622">
        <ele>-62.632</ele>
        <time>2021-10-14T14:11:29Z</time>
      </trkpt>
      <trkpt lat="43.505924" lon="-5.397365">
        <ele>-62.305</ele>
        <time>2021-10-14T14:11:30Z</time>
      </trkpt>
      <trkpt lat="43.505891" lon="-5.397109">
        <ele>-62.808</ele>
        <time>2021-10-14T14:11:31Z</time>
      </trkpt>
      <trkpt lat="43.505852" lon="-5.396862">
        <ele>-63.899</ele>
        <time>2021-10-14T14:11:32Z</time>
      </trkpt>
      <trkpt lat="43.505780" lon="-5.396406">
        <ele>-64.717</ele>
        <time>2021-10-14T14:11:34Z</time>
      </trkpt>
      <trkpt lat="43.505758" lon="-5.396156">
        <ele>-66.285</ele>
        <time>2021-10-14T14:11:35Z</time>
      </trkpt>
      <trkpt lat="43.505770" lon="-5.395621">
        <ele>-66.282</ele>
        <time>2021-10-14T14:11:37Z</time>
      </trkpt>
      <trkpt lat="43.505787" lon="-5.395352">
        <ele>-67.975</ele>
        <time>2021-10-14T14:11:38Z</time>
      </trkpt>
      <trkpt lat="43.505822" lon="-5.394855">
        <ele>-69.252</ele>
        <time>2021-10-14T14:11:40Z</time>
      </trkpt>
      <trkpt lat="43.505859" lon="-5.394407">
        <ele>-71.934</ele>
        <time>2021-10-14T14:11:42Z</time>
      </trkpt>
      <trkpt lat="43.505907" lon="-5.394012">
        <ele>-72.713</ele>
        <time>2021-10-14T14:11:44Z</time>
      </trkpt>
      <trkpt lat="43.506020" lon="-5.393642">
        <ele>-74.492</ele>
        <time>2021-10-14T14:11:46Z</time>
      </trkpt>
      <trkpt lat="43.506120" lon="-5.393471">
        <ele>-76.073</ele>
        <time>2021-10-14T14:11:47Z</time>
      </trkpt>
      <trkpt lat="43.506250" lon="-5.393314">
        <ele>-77.520</ele>
        <time>2021-10-14T14:11:48Z</time>
      </trkpt>
      <trkpt lat="43.506392" lon="-5.393170">
        <ele>-77.508</ele>
        <time>2021-10-14T14:11:49Z</time>
      </trkpt>
      <trkpt lat="43.506547" lon="-5.393015">
        <ele>-78.737</ele>
        <time>2021-10-14T14:11:50Z</time>
      </trkpt>
      <trkpt lat="43.506821" lon="-5.392669">
        <ele>-79.715</ele>
        <time>2021-10-14T14:11:52Z</time>
      </trkpt>
      <trkpt lat="43.507023" lon="-5.392231">
        <ele>-79.963</ele>
        <time>2021-10-14T14:11:54Z</time>
      </trkpt>
      <trkpt lat="43.507098" lon="-5.391979">
        <ele>-80.260</ele>
        <time>2021-10-14T14:11:55Z</time>
      </trkpt>
      <trkpt lat="43.507167" lon="-5.391715">
        <ele>-79.763</ele>
        <time>2021-10-14T14:11:56Z</time>
      </trkpt>
      <trkpt lat="43.507296" lon="-5.391236">
        <ele>-79.710</ele>
        <time>2021-10-14T14:11:58Z</time>
      </trkpt>
      <trkpt lat="43.507356" lon="-5.391012">
        <ele>-80.792</ele>
        <time>2021-10-14T14:11:59Z</time>
      </trkpt>
      <trkpt lat="43.507413" lon="-5.390798">
        <ele>-80.421</ele>
        <time>2021-10-14T14:12:00Z</time>
      </trkpt>
      <trkpt lat="43.507509" lon="-5.390396">
        <ele>-80.061</ele>
        <time>2021-10-14T14:12:02Z</time>
      </trkpt>
      <trkpt lat="43.507582" lon="-5.390019">
        <ele>-80.021</ele>
        <time>2021-10-14T14:12:04Z</time>
      </trkpt>
      <trkpt lat="43.507602" lon="-5.389837">
        <ele>-78.913</ele>
        <time>2021-10-14T14:12:05Z</time>
      </trkpt>
      <trkpt lat="43.507618" lon="-5.389497">
        <ele>-79.208</ele>
        <time>2021-10-14T14:12:07Z</time>
      </trkpt>
      <trkpt lat="43.507622" lon="-5.389320">
        <ele>-79.224</ele>
        <time>2021-10-14T14:12:08Z</time>
      </trkpt>
      <trkpt lat="43.507609" lon="-5.388967">
        <ele>-78.012</ele>
        <time>2021-10-14T14:12:10Z</time>
      </trkpt>
      <trkpt lat="43.507595" lon="-5.388780">
        <ele>-77.290</ele>
        <time>2021-10-14T14:12:11Z</time>
      </trkpt>
      <trkpt lat="43.507561" lon="-5.388398">
        <ele>-76.227</ele>
        <time>2021-10-14T14:12:13Z</time>
      </trkpt>
      <trkpt lat="43.507548" lon="-5.388195">
        <ele>-75.070</ele>
        <time>2021-10-14T14:12:14Z</time>
      </trkpt>
      <trkpt lat="43.507554" lon="-5.387793">
        <ele>-74.717</ele>
        <time>2021-10-14T14:12:16Z</time>
      </trkpt>
      <trkpt lat="43.507615" lon="-5.387365">
        <ele>-73.979</ele>
        <time>2021-10-14T14:12:18Z</time>
      </trkpt>
      <trkpt lat="43.507750" lon="-5.386935">
        <ele>-72.828</ele>
        <time>2021-10-14T14:12:20Z</time>
      </trkpt>
      <trkpt lat="43.507837" lon="-5.386488">
        <ele>-71.796</ele>
        <time>2021-10-14T14:12:22Z</time>
      </trkpt>
      <trkpt lat="43.507840" lon="-5.386223">
        <ele>-70.231</ele>
        <time>2021-10-14T14:12:23Z</time>
      </trkpt>
      <trkpt lat="43.507744" lon="-5.385663">
        <ele>-69.724</ele>
        <time>2021-10-14T14:12:25Z</time>
      </trkpt>
      <trkpt lat="43.507653" lon="-5.385351">
        <ele>-68.708</ele>
        <time>2021-10-14T14:12:26Z</time>
      </trkpt>
      <trkpt lat="43.507451" lon="-5.384733">
        <ele>-68.257</ele>
        <time>2021-10-14T14:12:28Z</time>
      </trkpt>
      <trkpt lat="43.507332" lon="-5.384449">
        <ele>-68.015</ele>
        <time>2021-10-14T14:12:29Z</time>
      </trkpt>
      <trkpt lat="43.507001" lon="-5.383982">
        <ele>-67.463</ele>
        <time>2021-10-14T14:12:31Z</time>
      </trkpt>
      <trkpt lat="43.506810" lon="-5.383793">
        <ele>-66.720</ele>
        <time>2021-10-14T14:12:32Z</time>
      </trkpt>
      <trkpt lat="43.506510" lon="-5.383447">
        <ele>-67.483</ele>
        <time>2021-10-14T14:12:34Z</time>
      </trkpt>
      <trkpt lat="43.506326" lon="-5.383063">
        <ele>-66.060</ele>
        <time>2021-10-14T14:12:36Z</time>
      </trkpt>
      <trkpt lat="43.506243" lon="-5.382687">
        <ele>-64.292</ele>
        <time>2021-10-14T14:12:38Z</time>
      </trkpt>
      <trkpt lat="43.506056" lon="-5.382462">
        <ele>-62.771</ele>
        <time>2021-10-14T14:12:40Z</time>
      </trkpt>
      <trkpt lat="43.505801" lon="-5.382346">
        <ele>-60.829</ele>
        <time>2021-10-14T14:12:42Z</time>
      </trkpt>
      <trkpt lat="43.505694" lon="-5.382233">
        <ele>-60.400</ele>
        <time>2021-10-14T14:12:43Z</time>
      </trkpt>
      <trkpt lat="43.505607" lon="-5.382086">
        <ele>-60.220</ele>
        <time>2021-10-14T14:12:44Z</time>
      </trkpt>
      <trkpt lat="43.505448" lon="-5.381864">
        <ele>-59.608</ele>
        <time>2021-10-14T14:12:46Z</time>
      </trkpt>
      <trkpt lat="43.505353" lon="-5.381821">
        <ele>-58.520</ele>
        <time>2021-10-14T14:12:47Z</time>
      </trkpt>
      <trkpt lat="43.505122" lon="-5.381982">
        <ele>-58.558</ele>
        <time>2021-10-14T14:12:49Z</time>
      </trkpt>
      <trkpt lat="43.505019" lon="-5.382141">
        <ele>-57.576</ele>
        <time>2021-10-14T14:12:50Z</time>
      </trkpt>
      <trkpt lat="43.504824" lon="-5.382334">
        <ele>-57.023</ele>
        <time>2021-10-14T14:12:52Z</time>
      </trkpt>
      <trkpt lat="43.504712" lon="-5.382334">
        <ele>-56.616</ele>
        <time>2021-10-14T14:12:53Z</time>
      </trkpt>
      <trkpt lat="43.504530" lon="-5.382158">
        <ele>-55.513</ele>
        <time>2021-10-14T14:12:55Z</time>
      </trkpt>
      <trkpt lat="43.504498" lon="-5.381981">
        <ele>-56.165</ele>
        <time>2021-10-14T14:12:56Z</time>
      </trkpt>
      <trkpt lat="43.504580" lon="-5.381484">
        <ele>-56.254</ele>
        <time>2021-10-14T14:12:58Z</time>
      </trkpt>
      <trkpt lat="43.504638" lon="-5.381162">
        <ele>-55.399</ele>
        <time>2021-10-14T14:12:59Z</time>
      </trkpt>
      <trkpt lat="43.504740" lon="-5.380424">
        <ele>-53.607</ele>
        <time>2021-10-14T14:13:01Z</time>
      </trkpt>
      <trkpt lat="43.504774" lon="-5.380069">
        <ele>-52.627</ele>
        <time>2021-10-14T14:13:02Z</time>
      </trkpt>
      <trkpt lat="43.504803" lon="-5.379502">
        <ele>-50.208</ele>
        <time>2021-10-14T14:13:04Z</time>
      </trkpt>
      <trkpt lat="43.504918" lon="-5.379026">
        <ele>-48.537</ele>
        <time>2021-10-14T14:13:06Z</time>
      </trkpt>
      <trkpt lat="43.505084" lon="-5.378603">
        <ele>-47.285</ele>
        <time>2021-10-14T14:13:08Z</time>
      </trkpt>
      <trkpt lat="43.505180" lon="-5.378266">
        <ele>-45.633</ele>
        <time>2021-10-14T14:13:10Z</time>
      </trkpt>
      <trkpt lat="43.505186" lon="-5.378113">
        <ele>-45.690</ele>
        <time>2021-10-14T14:13:11Z</time>
      </trkpt>
      <trkpt lat="43.505079" lon="-5.377906">
        <ele>-43.653</ele>
        <time>2021-10-14T14:13:13Z</time>
      </trkpt>
      <trkpt lat="43.504979" lon="-5.377837">
        <ele>-42.550</ele>
        <time>2021-10-14T14:13:14Z</time>
      </trkpt>
      <trkpt lat="43.504773" lon="-5.377654">
        <ele>-42.752</ele>
        <time>2021-10-14T14:13:16Z</time>
      </trkpt>
      <trkpt lat="43.504690" lon="-5.377354">
        <ele>-39.691</ele>
        <time>2021-10-14T14:13:18Z</time>
      </trkpt>
      <trkpt lat="43.504743" lon="-5.377157">
        <ele>-40.591</ele>
        <time>2021-10-14T14:13:19Z</time>
      </trkpt>
      <trkpt lat="43.504835" lon="-5.376953">
        <ele>-40.481</ele>
        <time>2021-10-14T14:13:20Z</time>
      </trkpt>
      <trkpt lat="43.504972" lon="-5.376586">
        <ele>-39.719</ele>
        <time>2021-10-14T14:13:22Z</time>
      </trkpt>
      <trkpt lat="43.504986" lon="-5.376413">
        <ele>-39.508</ele>
        <time>2021-10-14T14:13:23Z</time>
      </trkpt>
      <trkpt lat="43.504830" lon="-5.376124">
        <ele>-37.427</ele>
        <time>2021-10-14T14:13:25Z</time>
      </trkpt>
      <trkpt lat="43.504696" lon="-5.375989">
        <ele>-36.455</ele>
        <time>2021-10-14T14:13:26Z</time>
      </trkpt>
      <trkpt lat="43.504422" lon="-5.375748">
        <ele>-35.453</ele>
        <time>2021-10-14T14:13:28Z</time>
      </trkpt>
      <trkpt lat="43.504123" lon="-5.375674">
        <ele>-34.940</ele>
        <time>2021-10-14T14:13:30Z</time>
      </trkpt>
      <trkpt lat="43.503969" lon="-5.375705">
        <ele>-33.663</ele>
        <time>2021-10-14T14:13:31Z</time>
      </trkpt>
      <trkpt lat="43.503828" lon="-5.375729">
        <ele>-34.490</ele>
        <time>2021-10-14T14:13:32Z</time>
      </trkpt>
      <trkpt lat="43.503620" lon="-5.375615">
        <ele>-31.912</ele>
        <time>2021-10-14T14:13:34Z</time>
      </trkpt>
      <trkpt lat="43.503574" lon="-5.375463">
        <ele>-30.961</ele>
        <time>2021-10-14T14:13:35Z</time>
      </trkpt>
      <trkpt lat="43.503566" lon="-5.375265">
        <ele>-30.696</ele>
        <time>2021-10-14T14:13:36Z</time>
      </trkpt>
      <trkpt lat="43.503565" lon="-5.375027">
        <ele>-29.831</ele>
        <time>2021-10-14T14:13:37Z</time>
      </trkpt>
      <trkpt lat="43.503537" lon="-5.374761">
        <ele>-30.124</ele>
        <time>2021-10-14T14:13:38Z</time>
      </trkpt>
      <trkpt lat="43.503387" lon="-5.374236">
        <ele>-28.708</ele>
        <time>2021-10-14T14:13:40Z</time>
      </trkpt>
      <trkpt lat="43.503148" lon="-5.373841">
        <ele>-27.597</ele>
        <time>2021-10-14T14:13:42Z</time>
      </trkpt>
      <trkpt lat="43.503011" lon="-5.373506">
        <ele>-26.925</ele>
        <time>2021-10-14T14:13:44Z</time>
      </trkpt>
      <trkpt lat="43.503033" lon="-5.373116">
        <ele>-25.833</ele>
        <time>2021-10-14T14:13:46Z</time>
      </trkpt>
      <trkpt lat="43.503015" lon="-5.372708">
        <ele>-25.570</ele>
        <time>2021-10-14T14:13:48Z</time>
      </trkpt>
      <trkpt lat="43.502849" lon="-5.372399">
        <ele>-24.583</ele>
        <time>2021-10-14T14:13:50Z</time>
      </trkpt>
      <trkpt lat="43.502661" lon="-5.372115">
        <ele>-24.340</ele>
        <time>2021-10-14T14:13:52Z</time>
      </trkpt>
      <trkpt lat="43.502604" lon="-5.371938">
        <ele>-23.652</ele>
        <time>2021-10-14T14:13:53Z</time>
      </trkpt>
      <trkpt lat="43.502570" lon="-5.371772">
        <ele>-23.551</ele>
        <time>2021-10-14T14:13:54Z</time>
      </trkpt>
      <trkpt lat="43.502518" lon="-5.371507">
        <ele>-21.836</ele>
        <time>2021-10-14T14:13:56Z</time>
      </trkpt>
      <trkpt lat="43.502448" lon="-5.371301">
        <ele>-21.317</ele>
        <time>2021-10-14T14:13:58Z</time>
      </trkpt>
      <trkpt lat="43.502328" lon="-5.371099">
        <ele>-20.518</ele>
        <time>2021-10-14T14:14:00Z</time>
      </trkpt>
      <trkpt lat="43.502136" lon="-5.370932">
        <ele>-21.108</ele>
        <time>2021-10-14T14:14:02Z</time>
      </trkpt>
      <trkpt lat="43.501911" lon="-5.370870">
        <ele>-19.361</ele>
        <time>2021-10-14T14:14:04Z</time>
      </trkpt>
      <trkpt lat="43.501789" lon="-5.370870">
        <ele>-18.629</ele>
        <time>2021-10-14T14:14:05Z</time>
      </trkpt>
      <trkpt lat="43.501588" lon="-5.370815">
        <ele>-18.057</ele>
        <time>2021-10-14T14:14:07Z</time>
      </trkpt>
      <trkpt lat="43.501510" lon="-5.370738">
        <ele>-17.674</ele>
        <time>2021-10-14T14:14:08Z</time>
      </trkpt>
      <trkpt lat="43.501386" lon="-5.370490">
        <ele>-17.097</ele>
        <time>2021-10-14T14:14:10Z</time>
      </trkpt>
      <trkpt lat="43.501232" lon="-5.370205">
        <ele>-16.184</ele>
        <time>2021-10-14T14:14:12Z</time>
      </trkpt>
      <trkpt lat="43.501127" lon="-5.370084">
        <ele>-15.656</ele>
        <time>2021-10-14T14:14:13Z</time>
      </trkpt>
      <trkpt lat="43.500999" lon="-5.369995">
        <ele>-15.935</ele>
        <time>2021-10-14T14:14:14Z</time>
      </trkpt>
      <trkpt lat="43.500740" lon="-5.369869">
        <ele>-14.947</ele>
        <time>2021-10-14T14:14:16Z</time>
      </trkpt>
      <trkpt lat="43.500513" lon="-5.369734">
        <ele>-14.529</ele>
        <time>2021-10-14T14:14:18Z</time>
      </trkpt>
      <trkpt lat="43.500428" lon="-5.369619">
        <ele>-13.521</ele>
        <time>2021-10-14T14:14:19Z</time>
      </trkpt>
      <trkpt lat="43.500362" lon="-5.369472">
        <ele>-13.408</ele>
        <time>2021-10-14T14:14:20Z</time>
      </trkpt>
      <trkpt lat="43.500292" lon="-5.369082">
        <ele>-11.952</ele>
        <time>2021-10-14T14:14:22Z</time>
      </trkpt>
      <trkpt lat="43.500247" lon="-5.368847">
        <ele>-12.380</ele>
        <time>2021-10-14T14:14:23Z</time>
      </trkpt>
      <trkpt lat="43.500072" lon="-5.368383">
        <ele>-11.388</ele>
        <time>2021-10-14T14:14:25Z</time>
      </trkpt>
      <trkpt lat="43.499948" lon="-5.368170">
        <ele>-10.365</ele>
        <time>2021-10-14T14:14:26Z</time>
      </trkpt>
      <trkpt lat="43.499718" lon="-5.367773">
        <ele>-8.478</ele>
        <time>2021-10-14T14:14:28Z</time>
      </trkpt>
      <trkpt lat="43.499618" lon="-5.367547">
        <ele>-8.445</ele>
        <time>2021-10-14T14:14:29Z</time>
      </trkpt>
      <trkpt lat="43.499525" lon="-5.367303">
        <ele>-8.397</ele>
        <time>2021-10-14T14:14:30Z</time>
      </trkpt>
      <trkpt lat="43.499334" lon="-5.366765">
        <ele>-6.556</ele>
        <time>2021-10-14T14:14:32Z</time>
      </trkpt>
      <trkpt lat="43.499141" lon="-5.366248">
        <ele>-5.544</ele>
        <time>2021-10-14T14:14:34Z</time>
      </trkpt>
      <trkpt lat="43.498943" lon="-5.365713">
        <ele>-5.405</ele>
        <time>2021-10-14T14:14:36Z</time>
      </trkpt>
      <trkpt lat="43.498841" lon="-5.365444">
        <ele>-4.415</ele>
        <time>2021-10-14T14:14:37Z</time>
      </trkpt>
      <trkpt lat="43.498741" lon="-5.365180">
        <ele>-4.708</ele>
        <time>2021-10-14T14:14:38Z</time>
      </trkpt>
      <trkpt lat="43.498569" lon="-5.364730">
        <ele>-3.572</ele>
        <time>2021-10-14T14:14:40Z</time>
      </trkpt>
      <trkpt lat="43.498489" lon="-5.364521">
        <ele>-1.950</ele>
        <time>2021-10-14T14:14:41Z</time>
      </trkpt>
      <trkpt lat="43.498339" lon="-5.364131">
        <ele>-2.158</ele>
        <time>2021-10-14T14:14:43Z</time>
      </trkpt>
      <trkpt lat="43.498263" lon="-5.363930">
        <ele>-0.955</ele>
        <time>2021-10-14T14:14:44Z</time>
      </trkpt>
      <trkpt lat="43.498143" lon="-5.363554">
        <ele>-0.568</ele>
        <time>2021-10-14T14:14:46Z</time>
      </trkpt>
      <trkpt lat="43.498111" lon="-5.363351">
        <ele>0.495</ele>
        <time>2021-10-14T14:14:47Z</time>
      </trkpt>
      <trkpt lat="43.498149" lon="-5.362986">
        <ele>2.187</ele>
        <time>2021-10-14T14:14:49Z</time>
      </trkpt>
      <trkpt lat="43.498219" lon="-5.362841">
        <ele>2.646</ele>
        <time>2021-10-14T14:14:50Z</time>
      </trkpt>
      <trkpt lat="43.498459" lon="-5.362651">
        <ele>4.261</ele>
        <time>2021-10-14T14:14:52Z</time>
      </trkpt>
      <trkpt lat="43.498622" lon="-5.362568">
        <ele>4.621</ele>
        <time>2021-10-14T14:14:53Z</time>
      </trkpt>
      <trkpt lat="43.498792" lon="-5.362465">
        <ele>6.013</ele>
        <time>2021-10-14T14:14:54Z</time>
      </trkpt>
      <trkpt lat="43.499118" lon="-5.362194">
        <ele>7.008</ele>
        <time>2021-10-14T14:14:56Z</time>
      </trkpt>
      <trkpt lat="43.499402" lon="-5.361829">
        <ele>7.824</ele>
        <time>2021-10-14T14:14:58Z</time>
      </trkpt>
      <trkpt lat="43.499638" lon="-5.361346">
        <ele>8.332</ele>
        <time>2021-10-14T14:15:00Z</time>
      </trkpt>
      <trkpt lat="43.499867" lon="-5.360886">
        <ele>8.980</ele>
        <time>2021-10-14T14:15:02Z</time>
      </trkpt>
      <trkpt lat="43.500152" lon="-5.360567">
        <ele>8.637</ele>
        <time>2021-10-14T14:15:04Z</time>
      </trkpt>
      <trkpt lat="43.500320" lon="-5.360464">
        <ele>9.020</ele>
        <time>2021-10-14T14:15:05Z</time>
      </trkpt>
      <trkpt lat="43.500673" lon="-5.360324">
        <ele>8.517</ele>
        <time>2021-10-14T14:15:07Z</time>
      </trkpt>
      <trkpt lat="43.500840" lon="-5.360224">
        <ele>8.399</ele>
        <time>2021-10-14T14:15:08Z</time>
      </trkpt>
      <trkpt lat="43.501106" lon="-5.359932">
        <ele>10.338</ele>
        <time>2021-10-14T14:15:10Z</time>
      </trkpt>
      <trkpt lat="43.501207" lon="-5.359733">
        <ele>10.962</ele>
        <time>2021-10-14T14:15:11Z</time>
      </trkpt>
      <trkpt lat="43.501388" lon="-5.359257">
        <ele>12.383</ele>
        <time>2021-10-14T14:15:13Z</time>
      </trkpt>
      <trkpt lat="43.501486" lon="-5.358976">
        <ele>13.111</ele>
        <time>2021-10-14T14:15:14Z</time>
      </trkpt>
      <trkpt lat="43.501680" lon="-5.358398">
        <ele>14.908</ele>
        <time>2021-10-14T14:15:16Z</time>
      </trkpt>
      <trkpt lat="43.501865" lon="-5.357904">
        <ele>16.044</ele>
        <time>2021-10-14T14:15:18Z</time>
      </trkpt>
      <trkpt lat="43.502040" lon="-5.357514">
        <ele>19.252</ele>
        <time>2021-10-14T14:15:20Z</time>
      </trkpt>
      <trkpt lat="43.502149" lon="-5.357087">
        <ele>21.480</ele>
        <time>2021-10-14T14:15:22Z</time>
      </trkpt>
      <trkpt lat="43.502185" lon="-5.356853">
        <ele>22.527</ele>
        <time>2021-10-14T14:15:23Z</time>
      </trkpt>
      <trkpt lat="43.502220" lon="-5.356427">
        <ele>23.340</ele>
        <time>2021-10-14T14:15:25Z</time>
      </trkpt>
      <trkpt lat="43.502207" lon="-5.356236">
        <ele>24.257</ele>
        <time>2021-10-14T14:15:26Z</time>
      </trkpt>
      <trkpt lat="43.502174" lon="-5.355930">
        <ele>25.569</ele>
        <time>2021-10-14T14:15:28Z</time>
      </trkpt>
      <trkpt lat="43.502185" lon="-5.355789">
        <ele>26.218</ele>
        <time>2021-10-14T14:15:29Z</time>
      </trkpt>
      <trkpt lat="43.502288" lon="-5.355572">
        <ele>26.985</ele>
        <time>2021-10-14T14:15:31Z</time>
      </trkpt>
      <trkpt lat="43.502402" lon="-5.355496">
        <ele>26.989</ele>
        <time>2021-10-14T14:15:32Z</time>
      </trkpt>
      <trkpt lat="43.502750" lon="-5.355402">
        <ele>27.517</ele>
        <time>2021-10-14T14:15:34Z</time>
      </trkpt>
      <trkpt lat="43.502905" lon="-5.355316">
        <ele>27.808</ele>
        <time>2021-10-14T14:15:35Z</time>
      </trkpt>
      <trkpt lat="43.503113" lon="-5.355007">
        <ele>30.666</ele>
        <time>2021-10-14T14:15:37Z</time>
      </trkpt>
      <trkpt lat="43.503182" lon="-5.354781">
        <ele>30.994</ele>
        <time>2021-10-14T14:15:38Z</time>
      </trkpt>
      <trkpt lat="43.503297" lon="-5.354211">
        <ele>31.932</ele>
        <time>2021-10-14T14:15:40Z</time>
      </trkpt>
      <trkpt lat="43.503407" lon="-5.353555">
        <ele>33.869</ele>
        <time>2021-10-14T14:15:42Z</time>
      </trkpt>
      <trkpt lat="43.503436" lon="-5.353233">
        <ele>35.032</ele>
        <time>2021-10-14T14:15:43Z</time>
      </trkpt>
      <trkpt lat="43.503455" lon="-5.352932">
        <ele>36.799</ele>
        <time>2021-10-14T14:15:44Z</time>
      </trkpt>
      <trkpt lat="43.503462" lon="-5.352361">
        <ele>39.671</ele>
        <time>2021-10-14T14:15:46Z</time>
      </trkpt>
      <trkpt lat="43.503449" lon="-5.351769">
        <ele>42.980</ele>
        <time>2021-10-14T14:15:48Z</time>
      </trkpt>
      <trkpt lat="43.503441" lon="-5.351480">
        <ele>43.816</ele>
        <time>2021-10-14T14:15:49Z</time>
      </trkpt>
      <trkpt lat="43.503434" lon="-5.351199">
        <ele>45.376</ele>
        <time>2021-10-14T14:15:50Z</time>
      </trkpt>
      <trkpt lat="43.503407" lon="-5.350686">
        <ele>47.413</ele>
        <time>2021-10-14T14:15:52Z</time>
      </trkpt>
      <trkpt lat="43.503331" lon="-5.350188">
        <ele>50.108</ele>
        <time>2021-10-14T14:15:54Z</time>
      </trkpt>
      <trkpt lat="43.503195" lon="-5.349729">
        <ele>53.159</ele>
        <time>2021-10-14T14:15:56Z</time>
      </trkpt>
      <trkpt lat="43.503004" lon="-5.349399">
        <ele>55.187</ele>
        <time>2021-10-14T14:15:58Z</time>
      </trkpt>
      <trkpt lat="43.502883" lon="-5.349294">
        <ele>55.915</ele>
        <time>2021-10-14T14:15:59Z</time>
      </trkpt>
      <trkpt lat="43.502747" lon="-5.349238">
        <ele>57.272</ele>
        <time>2021-10-14T14:16:00Z</time>
      </trkpt>
      <trkpt lat="43.502598" lon="-5.349221">
        <ele>58.525</ele>
        <time>2021-10-14T14:16:01Z</time>
      </trkpt>
      <trkpt lat="43.502442" lon="-5.349202">
        <ele>59.692</ele>
        <time>2021-10-14T14:16:02Z</time>
      </trkpt>
      <trkpt lat="43.502148" lon="-5.349019">
        <ele>62.214</ele>
        <time>2021-10-14T14:16:04Z</time>
      </trkpt>
      <trkpt lat="43.502030" lon="-5.348895">
        <ele>62.833</ele>
        <time>2021-10-14T14:16:05Z</time>
      </trkpt>
      <trkpt lat="43.501888" lon="-5.348663">
        <ele>63.937</ele>
        <time>2021-10-14T14:16:07Z</time>
      </trkpt>
      <trkpt lat="43.501879" lon="-5.348528">
        <ele>64.549</ele>
        <time>2021-10-14T14:16:08Z</time>
      </trkpt>
      <trkpt lat="43.501973" lon="-5.348245">
        <ele>65.513</ele>
        <time>2021-10-14T14:16:10Z</time>
      </trkpt>
      <trkpt lat="43.502087" lon="-5.348088">
        <ele>67.708</ele>
        <time>2021-10-14T14:16:11Z</time>
      </trkpt>
      <trkpt lat="43.502241" lon="-5.347924">
        <ele>68.011</ele>
        <time>2021-10-14T14:16:12Z</time>
      </trkpt>
      <trkpt lat="43.502424" lon="-5.347746">
        <ele>69.279</ele>
        <time>2021-10-14T14:16:13Z</time>
      </trkpt>
      <trkpt lat="43.502615" lon="-5.347552">
        <ele>70.467</ele>
        <time>2021-10-14T14:16:14Z</time>
      </trkpt>
      <trkpt lat="43.502917" lon="-5.347147">
        <ele>70.644</ele>
        <time>2021-10-14T14:16:16Z</time>
      </trkpt>
      <trkpt lat="43.503027" lon="-5.346917">
        <ele>71.377</ele>
        <time>2021-10-14T14:16:17Z</time>
      </trkpt>
      <trkpt lat="43.503123" lon="-5.346662">
        <ele>72.374</ele>
        <time>2021-10-14T14:16:18Z</time>
      </trkpt>
      <trkpt lat="43.503334" lon="-5.346148">
        <ele>72.566</ele>
        <time>2021-10-14T14:16:20Z</time>
      </trkpt>
      <trkpt lat="43.503504" lon="-5.345605">
        <ele>74.495</ele>
        <time>2021-10-14T14:16:22Z</time>
      </trkpt>
      <trkpt lat="43.503629" lon="-5.345108">
        <ele>75.766</ele>
        <time>2021-10-14T14:16:24Z</time>
      </trkpt>
      <trkpt lat="43.503651" lon="-5.344845">
        <ele>76.429</ele>
        <time>2021-10-14T14:16:25Z</time>
      </trkpt>
      <trkpt lat="43.503655" lon="-5.344560">
        <ele>77.821</ele>
        <time>2021-10-14T14:16:26Z</time>
      </trkpt>
      <trkpt lat="43.503664" lon="-5.344040">
        <ele>80.908</ele>
        <time>2021-10-14T14:16:28Z</time>
      </trkpt>
      <trkpt lat="43.503762" lon="-5.343582">
        <ele>83.294</ele>
        <time>2021-10-14T14:16:30Z</time>
      </trkpt>
      <trkpt lat="43.503860" lon="-5.343376">
        <ele>85.232</ele>
        <time>2021-10-14T14:16:31Z</time>
      </trkpt>
      <trkpt lat="43.503960" lon="-5.343190">
        <ele>86.280</ele>
        <time>2021-10-14T14:16:32Z</time>
      </trkpt>
      <trkpt lat="43.504064" lon="-5.342832">
        <ele>87.377</ele>
        <time>2021-10-14T14:16:34Z</time>
      </trkpt>
      <trkpt lat="43.504044" lon="-5.342407">
        <ele>88.480</ele>
        <time>2021-10-14T14:16:36Z</time>
      </trkpt>
      <trkpt lat="43.504053" lon="-5.341985">
        <ele>89.897</ele>
        <time>2021-10-14T14:16:38Z</time>
      </trkpt>
      <trkpt lat="43.504214" lon="-5.341623">
        <ele>90.229</ele>
        <time>2021-10-14T14:16:40Z</time>
      </trkpt>
      <trkpt lat="43.504331" lon="-5.341423">
        <ele>90.828</ele>
        <time>2021-10-14T14:16:41Z</time>
      </trkpt>
      <trkpt lat="43.504614" lon="-5.340934">
        <ele>91.244</ele>
        <time>2021-10-14T14:16:43Z</time>
      </trkpt>
      <trkpt lat="43.504769" lon="-5.340667">
        <ele>91.005</ele>
        <time>2021-10-14T14:16:44Z</time>
      </trkpt>
      <trkpt lat="43.505020" lon="-5.340238">
        <ele>90.615</ele>
        <time>2021-10-14T14:16:46Z</time>
      </trkpt>
      <trkpt lat="43.505111" lon="-5.340065">
        <ele>90.408</ele>
        <time>2021-10-14T14:16:47Z</time>
      </trkpt>
      <trkpt lat="43.505184" lon="-5.339896">
        <ele>89.972</ele>
        <time>2021-10-14T14:16:48Z</time>
      </trkpt>
      <trkpt lat="43.505235" lon="-5.339708">
        <ele>89.280</ele>
        <time>2021-10-14T14:16:49Z</time>
      </trkpt>
      <trkpt lat="43.505254" lon="-5.339513">
        <ele>88.658</ele>
        <time>2021-10-14T14:16:50Z</time>
      </trkpt>
      <trkpt lat="43.505165" lon="-5.339120">
        <ele>87.155</ele>
        <time>2021-10-14T14:16:52Z</time>
      </trkpt>
      <trkpt lat="43.504976" lon="-5.338763">
        <ele>85.368</ele>
        <time>2021-10-14T14:16:54Z</time>
      </trkpt>
      <trkpt lat="43.504868" lon="-5.338607">
        <ele>84.875</ele>
        <time>2021-10-14T14:16:55Z</time>
      </trkpt>
      <trkpt lat="43.504767" lon="-5.338444">
        <ele>83.777</ele>
        <time>2021-10-14T14:16:56Z</time>
      </trkpt>
      <trkpt lat="43.504605" lon="-5.338078">
        <ele>81.476</ele>
        <time>2021-10-14T14:16:58Z</time>
      </trkpt>
      <trkpt lat="43.504502" lon="-5.337600">
        <ele>79.589</ele>
        <time>2021-10-14T14:17:00Z</time>
      </trkpt>
      <trkpt lat="43.504440" lon="-5.337106">
        <ele>77.006</ele>
        <time>2021-10-14T14:17:02Z</time>
      </trkpt>
      <trkpt lat="43.504386" lon="-5.336661">
        <ele>75.526</ele>
        <time>2021-10-14T14:17:04Z</time>
      </trkpt>
      <trkpt lat="43.504320" lon="-5.336205">
        <ele>74.508</ele>
        <time>2021-10-14T14:17:06Z</time>
      </trkpt>
      <trkpt lat="43.504253" lon="-5.335745">
        <ele>73.046</ele>
        <time>2021-10-14T14:17:08Z</time>
      </trkpt>
      <trkpt lat="43.504131" lon="-5.335375">
        <ele>72.984</ele>
        <time>2021-10-14T14:17:10Z</time>
      </trkpt>
      <trkpt lat="43.504023" lon="-5.335224">
        <ele>72.762</ele>
        <time>2021-10-14T14:17:11Z</time>
      </trkpt>
      <trkpt lat="43.503726" lon="-5.334964">
        <ele>72.469</ele>
        <time>2021-10-14T14:17:13Z</time>
      </trkpt>
      <trkpt lat="43.503576" lon="-5.334840">
        <ele>71.792</ele>
        <time>2021-10-14T14:17:14Z</time>
      </trkpt>
      <trkpt lat="43.503321" lon="-5.334617">
        <ele>71.419</ele>
        <time>2021-10-14T14:17:16Z</time>
      </trkpt>
      <trkpt lat="43.503203" lon="-5.334508">
        <ele>70.831</ele>
        <time>2021-10-14T14:17:17Z</time>
      </trkpt>
      <trkpt lat="43.503090" lon="-5.334396">
        <ele>69.940</ele>
        <time>2021-10-14T14:17:18Z</time>
      </trkpt>
      <trkpt lat="43.502876" lon="-5.334152">
        <ele>68.626</ele>
        <time>2021-10-14T14:17:20Z</time>
      </trkpt>
      <trkpt lat="43.502744" lon="-5.333834">
        <ele>67.747</ele>
        <time>2021-10-14T14:17:22Z</time>
      </trkpt>
      <trkpt lat="43.502720" lon="-5.333657">
        <ele>67.511</ele>
        <time>2021-10-14T14:17:23Z</time>
      </trkpt>
      <trkpt lat="43.502726" lon="-5.333338">
        <ele>66.808</ele>
        <time>2021-10-14T14:17:25Z</time>
      </trkpt>
      <trkpt lat="43.502758" lon="-5.333192">
        <ele>66.890</ele>
        <time>2021-10-14T14:17:26Z</time>
      </trkpt>
      <trkpt lat="43.502860" lon="-5.332957">
        <ele>65.868</ele>
        <time>2021-10-14T14:17:28Z</time>
      </trkpt>
      <trkpt lat="43.502966" lon="-5.332759">
        <ele>65.256</ele>
        <time>2021-10-14T14:17:30Z</time>
      </trkpt>
      <trkpt lat="43.502993" lon="-5.332660">
        <ele>64.233</ele>
        <time>2021-10-14T14:17:31Z</time>
      </trkpt>
      <trkpt lat="43.503004" lon="-5.332566">
        <ele>64.586</ele>
        <time>2021-10-14T14:17:32Z</time>
      </trkpt>
      <trkpt lat="43.503002" lon="-5.332404">
        <ele>64.443</ele>
        <time>2021-10-14T14:17:34Z</time>
      </trkpt>
      <trkpt lat="43.502999" lon="-5.332265">
        <ele>64.465</ele>
        <time>2021-10-14T14:17:36Z</time>
      </trkpt>
      <trkpt lat="43.503016" lon="-5.332202">
        <ele>64.434</ele>
        <time>2021-10-14T14:17:37Z</time>
      </trkpt>
      <trkpt lat="43.503043" lon="-5.332146">
        <ele>64.311</ele>
        <time>2021-10-14T14:17:38Z</time>
      </trkpt>
      <trkpt lat="43.503114" lon="-5.332066">
        <ele>64.021</ele>
        <time>2021-10-14T14:17:40Z</time>
      </trkpt>
      <trkpt lat="43.503158" lon="-5.332038">
        <ele>63.903</ele>
        <time>2021-10-14T14:17:41Z</time>
      </trkpt>
      <trkpt lat="43.503202" lon="-5.332013">
        <ele>63.808</ele>
        <time>2021-10-14T14:17:42Z</time>
      </trkpt>
      <trkpt lat="43.503245" lon="-5.331983">
        <ele>63.729</ele>
        <time>2021-10-14T14:17:43Z</time>
      </trkpt>
      <trkpt lat="43.503288" lon="-5.331947">
        <ele>63.617</ele>
        <time>2021-10-14T14:17:44Z</time>
      </trkpt>
      <trkpt lat="43.503364" lon="-5.331855">
        <ele>63.435</ele>
        <time>2021-10-14T14:17:46Z</time>
      </trkpt>
      <trkpt lat="43.503395" lon="-5.331791">
        <ele>62.862</ele>
        <time>2021-10-14T14:17:47Z</time>
      </trkpt>
      <trkpt lat="43.503419" lon="-5.331721">
        <ele>62.295</ele>
        <time>2021-10-14T14:17:48Z</time>
      </trkpt>
      <trkpt lat="43.503442" lon="-5.331646">
        <ele>62.142</ele>
        <time>2021-10-14T14:17:49Z</time>
      </trkpt>
      <trkpt lat="43.503463" lon="-5.331568">
        <ele>62.054</ele>
        <time>2021-10-14T14:17:50Z</time>
      </trkpt>
      <trkpt lat="43.503506" lon="-5.331400">
        <ele>60.813</ele>
        <time>2021-10-14T14:17:52Z</time>
      </trkpt>
      <trkpt lat="43.503562" lon="-5.331175">
        <ele>60.171</ele>
        <time>2021-10-14T14:17:54Z</time>
      </trkpt>
      <trkpt lat="43.503593" lon="-5.331051">
        <ele>59.941</ele>
        <time>2021-10-14T14:17:55Z</time>
      </trkpt>
      <trkpt lat="43.503629" lon="-5.330922">
        <ele>59.815</ele>
        <time>2021-10-14T14:17:56Z</time>
      </trkpt>
      <trkpt lat="43.503701" lon="-5.330672">
        <ele>59.508</ele>
        <time>2021-10-14T14:17:58Z</time>
      </trkpt>
      <trkpt lat="43.503735" lon="-5.330545">
        <ele>59.365</ele>
        <time>2021-10-14T14:17:59Z</time>
      </trkpt>
      <trkpt lat="43.503761" lon="-5.330424">
        <ele>58.923</ele>
        <time>2021-10-14T14:18:00Z</time>
      </trkpt>
      <trkpt lat="43.503770" lon="-5.330192">
        <ele>58.461</ele>
        <time>2021-10-14T14:18:02Z</time>
      </trkpt>
      <trkpt lat="43.503739" lon="-5.329987">
        <ele>58.258</ele>
        <time>2021-10-14T14:18:04Z</time>
      </trkpt>
      <trkpt lat="43.503736" lon="-5.329873">
        <ele>58.141</ele>
        <time>2021-10-14T14:18:05Z</time>
      </trkpt>
      <trkpt lat="43.503759" lon="-5.329755">
        <ele>57.948</ele>
        <time>2021-10-14T14:18:06Z</time>
      </trkpt>
      <trkpt lat="43.503865" lon="-5.329566">
        <ele>57.290</ele>
        <time>2021-10-14T14:18:08Z</time>
      </trkpt>
      <trkpt lat="43.503992" lon="-5.329418">
        <ele>56.119</ele>
        <time>2021-10-14T14:18:10Z</time>
      </trkpt>
      <trkpt lat="43.504097" lon="-5.329207">
        <ele>54.957</ele>
        <time>2021-10-14T14:18:12Z</time>
      </trkpt>
      <trkpt lat="43.504168" lon="-5.328975">
        <ele>52.500</ele>
        <time>2021-10-14T14:18:14Z</time>
      </trkpt>
      <trkpt lat="43.504200" lon="-5.328801">
        <ele>51.220</ele>
        <time>2021-10-14T14:18:16Z</time>
      </trkpt>
      <trkpt lat="43.504204" lon="-5.328732">
        <ele>48.908</ele>
        <time>2021-10-14T14:18:18Z</time>
      </trkpt>
      <trkpt lat="43.504231" lon="-5.328859">
        <ele>48.083</ele>
        <time>2021-10-14T14:20:06Z</time>
      </trkpt>
      <trkpt lat="43.504227" lon="-5.328970">
        <ele>48.031</ele>
        <time>2021-10-14T14:20:08Z</time>
      </trkpt>
      <trkpt lat="43.504197" lon="-5.329080">
        <ele>48.099</ele>
        <time>2021-10-14T14:20:10Z</time>
      </trkpt>
      <trkpt lat="43.504182" lon="-5.329141">
        <ele>48.036</ele>
        <time>2021-10-14T14:20:11Z</time>
      </trkpt>
      <trkpt lat="43.504143" lon="-5.329309">
        <ele>47.889</ele>
        <time>2021-10-14T14:20:13Z</time>
      </trkpt>
      <trkpt lat="43.504128" lon="-5.329370">
        <ele>47.736</ele>
        <time>2021-10-14T14:20:14Z</time>
      </trkpt>
      <trkpt lat="43.504116" lon="-5.329456">
        <ele>47.788</ele>
        <time>2021-10-14T14:20:16Z</time>
      </trkpt>
      <trkpt lat="43.504110" lon="-5.329535">
        <ele>47.647</ele>
        <time>2021-10-14T14:20:18Z</time>
      </trkpt>
      <trkpt lat="43.504108" lon="-5.329613">
        <ele>47.742</ele>
        <time>2021-10-14T14:20:21Z</time>
      </trkpt>
      <trkpt lat="43.504133" lon="-5.329714">
        <ele>47.822</ele>
        <time>2021-10-14T14:20:24Z</time>
      </trkpt>
      <trkpt lat="43.504167" lon="-5.329905">
        <ele>48.014</ele>
        <time>2021-10-14T14:20:26Z</time>
      </trkpt>
      <trkpt lat="43.504119" lon="-5.330120">
        <ele>48.908</ele>
        <time>2021-10-14T14:20:28Z</time>
      </trkpt>
      <trkpt lat="43.504066" lon="-5.330206">
        <ele>50.872</ele>
        <time>2021-10-14T14:20:29Z</time>
      </trkpt>
      <trkpt lat="43.504001" lon="-5.330259">
        <ele>51.430</ele>
        <time>2021-10-14T14:20:30Z</time>
      </trkpt>
      <trkpt lat="43.503844" lon="-5.330238">
        <ele>51.548</ele>
        <time>2021-10-14T14:20:32Z</time>
      </trkpt>
      <trkpt lat="43.503689" lon="-5.330086">
        <ele>52.485</ele>
        <time>2021-10-14T14:20:34Z</time>
      </trkpt>
      <trkpt lat="43.503518" lon="-5.329946">
        <ele>53.198</ele>
        <time>2021-10-14T14:20:36Z</time>
      </trkpt>
      <trkpt lat="43.503415" lon="-5.329898">
        <ele>52.835</ele>
        <time>2021-10-14T14:20:37Z</time>
      </trkpt>
      <trkpt lat="43.503309" lon="-5.329865">
        <ele>52.737</ele>
        <time>2021-10-14T14:20:38Z</time>
      </trkpt>
      <trkpt lat="43.503112" lon="-5.329819">
        <ele>51.866</ele>
        <time>2021-10-14T14:20:40Z</time>
      </trkpt>
      <trkpt lat="43.503010" lon="-5.329792">
        <ele>51.529</ele>
        <time>2021-10-14T14:20:41Z</time>
      </trkpt>
      <trkpt lat="43.502763" lon="-5.329708">
        <ele>51.100</ele>
        <time>2021-10-14T14:20:43Z</time>
      </trkpt>
      <trkpt lat="43.502619" lon="-5.329656">
        <ele>50.820</ele>
        <time>2021-10-14T14:20:44Z</time>
      </trkpt>
      <trkpt lat="43.502327" lon="-5.329543">
        <ele>48.808</ele>
        <time>2021-10-14T14:20:46Z</time>
      </trkpt>
      <trkpt lat="43.501996" lon="-5.329458">
        <ele>45.810</ele>
        <time>2021-10-14T14:20:48Z</time>
      </trkpt>
      <trkpt lat="43.501819" lon="-5.329440">
        <ele>44.528</ele>
        <time>2021-10-14T14:20:49Z</time>
      </trkpt>
      <trkpt lat="43.501634" lon="-5.329437">
        <ele>43.576</ele>
        <time>2021-10-14T14:20:50Z</time>
      </trkpt>
      <trkpt lat="43.501291" lon="-5.329426">
        <ele>41.283</ele>
        <time>2021-10-14T14:20:52Z</time>
      </trkpt>
      <trkpt lat="43.501125" lon="-5.329391">
        <ele>40.166</ele>
        <time>2021-10-14T14:20:53Z</time>
      </trkpt>
      <trkpt lat="43.500811" lon="-5.329238">
        <ele>38.023</ele>
        <time>2021-10-14T14:20:55Z</time>
      </trkpt>
      <trkpt lat="43.500662" lon="-5.329125">
        <ele>37.255</ele>
        <time>2021-10-14T14:20:56Z</time>
      </trkpt>
      <trkpt lat="43.500409" lon="-5.328919">
        <ele>34.484</ele>
        <time>2021-10-14T14:20:58Z</time>
      </trkpt>
      <trkpt lat="43.500299" lon="-5.328841">
        <ele>33.322</ele>
        <time>2021-10-14T14:20:59Z</time>
      </trkpt>
      <trkpt lat="43.500098" lon="-5.328789">
        <ele>32.462</ele>
        <time>2021-10-14T14:21:01Z</time>
      </trkpt>
      <trkpt lat="43.499995" lon="-5.328841">
        <ele>31.608</ele>
        <time>2021-10-14T14:21:02Z</time>
      </trkpt>
      <trkpt lat="43.499818" lon="-5.329042">
        <ele>30.208</ele>
        <time>2021-10-14T14:21:04Z</time>
      </trkpt>
      <trkpt lat="43.499740" lon="-5.329199">
        <ele>30.190</ele>
        <time>2021-10-14T14:21:05Z</time>
      </trkpt>
      <trkpt lat="43.499665" lon="-5.329374">
        <ele>30.168</ele>
        <time>2021-10-14T14:21:06Z</time>
      </trkpt>
      <trkpt lat="43.499491" lon="-5.329675">
        <ele>30.076</ele>
        <time>2021-10-14T14:21:08Z</time>
      </trkpt>
      <trkpt lat="43.499277" lon="-5.329817">
        <ele>29.173</ele>
        <time>2021-10-14T14:21:10Z</time>
      </trkpt>
      <trkpt lat="43.499144" lon="-5.329834">
        <ele>28.716</ele>
        <time>2021-10-14T14:21:11Z</time>
      </trkpt>
      <trkpt lat="43.498998" lon="-5.329828">
        <ele>28.463</ele>
        <time>2021-10-14T14:21:12Z</time>
      </trkpt>
      <trkpt lat="43.498845" lon="-5.329817">
        <ele>26.875</ele>
        <time>2021-10-14T14:21:13Z</time>
      </trkpt>
      <trkpt lat="43.498681" lon="-5.329801">
        <ele>25.984</ele>
        <time>2021-10-14T14:21:14Z</time>
      </trkpt>
      <trkpt lat="43.498336" lon="-5.329725">
        <ele>24.477</ele>
        <time>2021-10-14T14:21:16Z</time>
      </trkpt>
      <trkpt lat="43.497957" lon="-5.329618">
        <ele>22.461</ele>
        <time>2021-10-14T14:21:18Z</time>
      </trkpt>
      <trkpt lat="43.497564" lon="-5.329476">
        <ele>20.927</ele>
        <time>2021-10-14T14:21:20Z</time>
      </trkpt>
      <trkpt lat="43.497193" lon="-5.329288">
        <ele>18.308</ele>
        <time>2021-10-14T14:21:22Z</time>
      </trkpt>
      <trkpt lat="43.497014" lon="-5.329191">
        <ele>16.855</ele>
        <time>2021-10-14T14:21:23Z</time>
      </trkpt>
      <trkpt lat="43.496664" lon="-5.328981">
        <ele>15.453</ele>
        <time>2021-10-14T14:21:25Z</time>
      </trkpt>
      <trkpt lat="43.496488" lon="-5.328879">
        <ele>14.751</ele>
        <time>2021-10-14T14:21:26Z</time>
      </trkpt>
      <trkpt lat="43.496155" lon="-5.328730">
        <ele>14.028</ele>
        <time>2021-10-14T14:21:28Z</time>
      </trkpt>
      <trkpt lat="43.495862" lon="-5.328545">
        <ele>13.171</ele>
        <time>2021-10-14T14:21:30Z</time>
      </trkpt>
      <trkpt lat="43.495599" lon="-5.328266">
        <ele>11.078</ele>
        <time>2021-10-14T14:21:32Z</time>
      </trkpt>
      <trkpt lat="43.495336" lon="-5.327953">
        <ele>9.170</ele>
        <time>2021-10-14T14:21:34Z</time>
      </trkpt>
      <trkpt lat="43.495200" lon="-5.327769">
        <ele>8.179</ele>
        <time>2021-10-14T14:21:35Z</time>
      </trkpt>
      <trkpt lat="43.494931" lon="-5.327326">
        <ele>5.269</ele>
        <time>2021-10-14T14:21:37Z</time>
      </trkpt>
      <trkpt lat="43.494787" lon="-5.327092">
        <ele>3.904</ele>
        <time>2021-10-14T14:21:38Z</time>
      </trkpt>
      <trkpt lat="43.494508" lon="-5.326630">
        <ele>2.024</ele>
        <time>2021-10-14T14:21:40Z</time>
      </trkpt>
      <trkpt lat="43.494249" lon="-5.326152">
        <ele>0.308</ele>
        <time>2021-10-14T14:21:42Z</time>
      </trkpt>
      <trkpt lat="43.494132" lon="-5.325898">
        <ele>-0.284</ele>
        <time>2021-10-14T14:21:43Z</time>
      </trkpt>
      <trkpt lat="43.494024" lon="-5.325630">
        <ele>-0.912</ele>
        <time>2021-10-14T14:21:44Z</time>
      </trkpt>
      <trkpt lat="43.493809" lon="-5.325109">
        <ele>-1.590</ele>
        <time>2021-10-14T14:21:46Z</time>
      </trkpt>
      <trkpt lat="43.493589" lon="-5.324581">
        <ele>-1.547</ele>
        <time>2021-10-14T14:21:48Z</time>
      </trkpt>
      <trkpt lat="43.493481" lon="-5.324313">
        <ele>-2.550</ele>
        <time>2021-10-14T14:21:49Z</time>
      </trkpt>
      <trkpt lat="43.493377" lon="-5.324056">
        <ele>-2.137</ele>
        <time>2021-10-14T14:21:50Z</time>
      </trkpt>
      <trkpt lat="43.493190" lon="-5.323598">
        <ele>-3.199</ele>
        <time>2021-10-14T14:21:52Z</time>
      </trkpt>
      <trkpt lat="43.493004" lon="-5.323190">
        <ele>-4.238</ele>
        <time>2021-10-14T14:21:54Z</time>
      </trkpt>
      <trkpt lat="43.492765" lon="-5.322837">
        <ele>-6.018</ele>
        <time>2021-10-14T14:21:56Z</time>
      </trkpt>
      <trkpt lat="43.492493" lon="-5.322519">
        <ele>-6.698</ele>
        <time>2021-10-14T14:21:58Z</time>
      </trkpt>
      <trkpt lat="43.492351" lon="-5.322349">
        <ele>-7.417</ele>
        <time>2021-10-14T14:21:59Z</time>
      </trkpt>
      <trkpt lat="43.492081" lon="-5.322025">
        <ele>-8.508</ele>
        <time>2021-10-14T14:22:01Z</time>
      </trkpt>
      <trkpt lat="43.491958" lon="-5.321866">
        <ele>-8.899</ele>
        <time>2021-10-14T14:22:02Z</time>
      </trkpt>
      <trkpt lat="43.491795" lon="-5.321551">
        <ele>-9.357</ele>
        <time>2021-10-14T14:22:04Z</time>
      </trkpt>
      <trkpt lat="43.491755" lon="-5.321364">
        <ele>-9.865</ele>
        <time>2021-10-14T14:22:05Z</time>
      </trkpt>
      <trkpt lat="43.491748" lon="-5.321169">
        <ele>-9.472</ele>
        <time>2021-10-14T14:22:06Z</time>
      </trkpt>
      <trkpt lat="43.491822" lon="-5.320779">
        <ele>-10.875</ele>
        <time>2021-10-14T14:22:08Z</time>
      </trkpt>
      <trkpt lat="43.491865" lon="-5.320402">
        <ele>-11.862</ele>
        <time>2021-10-14T14:22:10Z</time>
      </trkpt>
      <trkpt lat="43.491843" lon="-5.320215">
        <ele>-11.384</ele>
        <time>2021-10-14T14:22:11Z</time>
      </trkpt>
      <trkpt lat="43.491696" lon="-5.319880">
        <ele>-12.533</ele>
        <time>2021-10-14T14:22:13Z</time>
      </trkpt>
      <trkpt lat="43.491569" lon="-5.319754">
        <ele>-12.286</ele>
        <time>2021-10-14T14:22:14Z</time>
      </trkpt>
      <trkpt lat="43.491297" lon="-5.319559">
        <ele>-14.860</ele>
        <time>2021-10-14T14:22:16Z</time>
      </trkpt>
      <trkpt lat="43.491179" lon="-5.319422">
        <ele>-15.026</ele>
        <time>2021-10-14T14:22:17Z</time>
      </trkpt>
      <trkpt lat="43.491087" lon="-5.319253">
        <ele>-15.908</ele>
        <time>2021-10-14T14:22:18Z</time>
      </trkpt>
      <trkpt lat="43.491026" lon="-5.319054">
        <ele>-15.516</ele>
        <time>2021-10-14T14:22:19Z</time>
      </trkpt>
      <trkpt lat="43.490991" lon="-5.318831">
        <ele>-15.384</ele>
        <time>2021-10-14T14:22:20Z</time>
      </trkpt>
      <trkpt lat="43.490967" lon="-5.318396">
        <ele>-17.082</ele>
        <time>2021-10-14T14:22:22Z</time>
      </trkpt>
      <trkpt lat="43.490990" lon="-5.318026">
        <ele>-17.039</ele>
        <time>2021-10-14T14:22:24Z</time>
      </trkpt>
      <trkpt lat="43.491111" lon="-5.317734">
        <ele>-17.522</ele>
        <time>2021-10-14T14:22:26Z</time>
      </trkpt>
      <trkpt lat="43.491290" lon="-5.317517">
        <ele>-18.739</ele>
        <time>2021-10-14T14:22:28Z</time>
      </trkpt>
      <trkpt lat="43.491427" lon="-5.317215">
        <ele>-19.881</ele>
        <time>2021-10-14T14:22:30Z</time>
      </trkpt>
      <trkpt lat="43.491469" lon="-5.316791">
        <ele>-22.070</ele>
        <time>2021-10-14T14:22:32Z</time>
      </trkpt>
      <trkpt lat="43.491387" lon="-5.316363">
        <ele>-24.512</ele>
        <time>2021-10-14T14:22:34Z</time>
      </trkpt>
      <trkpt lat="43.491299" lon="-5.316192">
        <ele>-25.532</ele>
        <time>2021-10-14T14:22:35Z</time>
      </trkpt>
      <trkpt lat="43.491095" lon="-5.315907">
        <ele>-27.405</ele>
        <time>2021-10-14T14:22:37Z</time>
      </trkpt>
      <trkpt lat="43.491022" lon="-5.315746">
        <ele>-28.608</ele>
        <time>2021-10-14T14:22:38Z</time>
      </trkpt>
      <trkpt lat="43.490954" lon="-5.315397">
        <ele>-30.579</ele>
        <time>2021-10-14T14:22:40Z</time>
      </trkpt>
      <trkpt lat="43.490932" lon="-5.314985">
        <ele>-32.637</ele>
        <time>2021-10-14T14:22:42Z</time>
      </trkpt>
      <trkpt lat="43.490931" lon="-5.314755">
        <ele>-32.775</ele>
        <time>2021-10-14T14:22:43Z</time>
      </trkpt>
      <trkpt lat="43.490933" lon="-5.314513">
        <ele>-33.422</ele>
        <time>2021-10-14T14:22:44Z</time>
      </trkpt>
      <trkpt lat="43.490908" lon="-5.314027">
        <ele>-35.085</ele>
        <time>2021-10-14T14:22:46Z</time>
      </trkpt>
      <trkpt lat="43.490872" lon="-5.313772">
        <ele>-36.172</ele>
        <time>2021-10-14T14:22:47Z</time>
      </trkpt>
      <trkpt lat="43.490828" lon="-5.313515">
        <ele>-36.024</ele>
        <time>2021-10-14T14:22:48Z</time>
      </trkpt>
      <trkpt lat="43.490735" lon="-5.312998">
        <ele>-38.563</ele>
        <time>2021-10-14T14:22:50Z</time>
      </trkpt>
      <trkpt lat="43.490652" lon="-5.312531">
        <ele>-39.663</ele>
        <time>2021-10-14T14:22:52Z</time>
      </trkpt>
      <trkpt lat="43.490600" lon="-5.312311">
        <ele>-41.244</ele>
        <time>2021-10-14T14:22:53Z</time>
      </trkpt>
      <trkpt lat="43.490529" lon="-5.312113">
        <ele>-41.518</ele>
        <time>2021-10-14T14:22:54Z</time>
      </trkpt>
      <trkpt lat="43.490310" lon="-5.311816">
        <ele>-43.508</ele>
        <time>2021-10-14T14:22:56Z</time>
      </trkpt>
      <trkpt lat="43.490063" lon="-5.311596">
        <ele>-45.634</ele>
        <time>2021-10-14T14:22:58Z</time>
      </trkpt>
      <trkpt lat="43.489954" lon="-5.311465">
        <ele>-46.952</ele>
        <time>2021-10-14T14:22:59Z</time>
      </trkpt>
      <trkpt lat="43.489798" lon="-5.311141">
        <ele>-48.590</ele>
        <time>2021-10-14T14:23:01Z</time>
      </trkpt>
      <trkpt lat="43.489732" lon="-5.310939">
        <ele>-49.177</ele>
        <time>2021-10-14T14:23:02Z</time>
      </trkpt>
      <trkpt lat="43.489615" lon="-5.310508">
        <ele>-50.140</ele>
        <time>2021-10-14T14:23:04Z</time>
      </trkpt>
      <trkpt lat="43.489565" lon="-5.310262">
        <ele>-50.947</ele>
        <time>2021-10-14T14:23:05Z</time>
      </trkpt>
      <trkpt lat="43.489529" lon="-5.309971">
        <ele>-51.069</ele>
        <time>2021-10-14T14:23:06Z</time>
      </trkpt>
      <trkpt lat="43.489455" lon="-5.309309">
        <ele>-51.378</ele>
        <time>2021-10-14T14:23:08Z</time>
      </trkpt>
      <trkpt lat="43.489377" lon="-5.308686">
        <ele>-52.361</ele>
        <time>2021-10-14T14:23:10Z</time>
      </trkpt>
      <trkpt lat="43.489337" lon="-5.308374">
        <ele>-51.921</ele>
        <time>2021-10-14T14:23:11Z</time>
      </trkpt>
      <trkpt lat="43.489298" lon="-5.308073">
        <ele>-51.113</ele>
        <time>2021-10-14T14:23:12Z</time>
      </trkpt>
      <trkpt lat="43.489263" lon="-5.307777">
        <ele>-51.708</ele>
        <time>2021-10-14T14:23:13Z</time>
      </trkpt>
      <trkpt lat="43.489225" lon="-5.307480">
        <ele>-50.914</ele>
        <time>2021-10-14T14:23:14Z</time>
      </trkpt>
      <trkpt lat="43.489151" lon="-5.306904">
        <ele>-52.592</ele>
        <time>2021-10-14T14:23:16Z</time>
      </trkpt>
      <trkpt lat="43.489077" lon="-5.306320">
        <ele>-52.230</ele>
        <time>2021-10-14T14:23:18Z</time>
      </trkpt>
      <trkpt lat="43.489010" lon="-5.305727">
        <ele>-52.067</ele>
        <time>2021-10-14T14:23:20Z</time>
      </trkpt>
      <trkpt lat="43.488933" lon="-5.305140">
        <ele>-52.850</ele>
        <time>2021-10-14T14:23:22Z</time>
      </trkpt>
      <trkpt lat="43.488890" lon="-5.304843">
        <ele>-52.767</ele>
        <time>2021-10-14T14:23:23Z</time>
      </trkpt>
      <trkpt lat="43.488851" lon="-5.304547">
        <ele>-54.069</ele>
        <time>2021-10-14T14:23:24Z</time>
      </trkpt>
      <trkpt lat="43.488774" lon="-5.303945">
        <ele>-53.878</ele>
        <time>2021-10-14T14:23:26Z</time>
      </trkpt>
      <trkpt lat="43.488708" lon="-5.303385">
        <ele>-53.925</ele>
        <time>2021-10-14T14:23:28Z</time>
      </trkpt>
      <trkpt lat="43.488644" lon="-5.302860">
        <ele>-55.126</ele>
        <time>2021-10-14T14:23:30Z</time>
      </trkpt>
      <trkpt lat="43.488579" lon="-5.302365">
        <ele>-56.008</ele>
        <time>2021-10-14T14:23:32Z</time>
      </trkpt>
      <trkpt lat="43.488521" lon="-5.301931">
        <ele>-56.608</ele>
        <time>2021-10-14T14:23:34Z</time>
      </trkpt>
      <trkpt lat="43.488466" lon="-5.301528">
        <ele>-57.060</ele>
        <time>2021-10-14T14:23:36Z</time>
      </trkpt>
      <trkpt lat="43.488417" lon="-5.301153">
        <ele>-57.048</ele>
        <time>2021-10-14T14:23:38Z</time>
      </trkpt>
      <trkpt lat="43.488374" lon="-5.300812">
        <ele>-57.316</ele>
        <time>2021-10-14T14:23:40Z</time>
      </trkpt>
      <trkpt lat="43.488353" lon="-5.300627">
        <ele>-57.163</ele>
        <time>2021-10-14T14:23:41Z</time>
      </trkpt>
      <trkpt lat="43.488300" lon="-5.300237">
        <ele>-57.686</ele>
        <time>2021-10-14T14:23:43Z</time>
      </trkpt>
      <trkpt lat="43.488273" lon="-5.300044">
        <ele>-57.543</ele>
        <time>2021-10-14T14:23:44Z</time>
      </trkpt>
      <trkpt lat="43.488225" lon="-5.299670">
        <ele>-57.625</ele>
        <time>2021-10-14T14:23:46Z</time>
      </trkpt>
      <trkpt lat="43.488197" lon="-5.299463">
        <ele>-57.194</ele>
        <time>2021-10-14T14:23:47Z</time>
      </trkpt>
      <trkpt lat="43.488171" lon="-5.299243">
        <ele>-57.933</ele>
        <time>2021-10-14T14:23:48Z</time>
      </trkpt>
      <trkpt lat="43.488146" lon="-5.299012">
        <ele>-57.723</ele>
        <time>2021-10-14T14:23:49Z</time>
      </trkpt>
      <trkpt lat="43.488115" lon="-5.298768">
        <ele>-57.915</ele>
        <time>2021-10-14T14:23:50Z</time>
      </trkpt>
      <trkpt lat="43.488045" lon="-5.298281">
        <ele>-57.808</ele>
        <time>2021-10-14T14:23:52Z</time>
      </trkpt>
      <trkpt lat="43.487982" lon="-5.297787">
        <ele>-59.211</ele>
        <time>2021-10-14T14:23:54Z</time>
      </trkpt>
      <trkpt lat="43.487922" lon="-5.297296">
        <ele>-58.659</ele>
        <time>2021-10-14T14:23:56Z</time>
      </trkpt>
      <trkpt lat="43.487862" lon="-5.296861">
        <ele>-58.177</ele>
        <time>2021-10-14T14:23:58Z</time>
      </trkpt>
      <trkpt lat="43.487831" lon="-5.296649">
        <ele>-58.154</ele>
        <time>2021-10-14T14:23:59Z</time>
      </trkpt>
      <trkpt lat="43.487802" lon="-5.296445">
        <ele>-58.457</ele>
        <time>2021-10-14T14:24:00Z</time>
      </trkpt>
      <trkpt lat="43.487754" lon="-5.296060">
        <ele>-59.994</ele>
        <time>2021-10-14T14:24:02Z</time>
      </trkpt>
      <trkpt lat="43.487767" lon="-5.295688">
        <ele>-59.026</ele>
        <time>2021-10-14T14:24:04Z</time>
      </trkpt>
      <trkpt lat="43.487842" lon="-5.295276">
        <ele>-58.575</ele>
        <time>2021-10-14T14:24:06Z</time>
      </trkpt>
      <trkpt lat="43.487885" lon="-5.294822">
        <ele>-58.882</ele>
        <time>2021-10-14T14:24:08Z</time>
      </trkpt>
      <trkpt lat="43.487859" lon="-5.294377">
        <ele>-57.843</ele>
        <time>2021-10-14T14:24:10Z</time>
      </trkpt>
      <trkpt lat="43.487766" lon="-5.293985">
        <ele>-58.317</ele>
        <time>2021-10-14T14:24:12Z</time>
      </trkpt>
      <trkpt lat="43.487711" lon="-5.293805">
        <ele>-59.208</ele>
        <time>2021-10-14T14:24:13Z</time>
      </trkpt>
      <trkpt lat="43.487660" lon="-5.293608">
        <ele>-59.046</ele>
        <time>2021-10-14T14:24:14Z</time>
      </trkpt>
      <trkpt lat="43.487619" lon="-5.293226">
        <ele>-59.264</ele>
        <time>2021-10-14T14:24:16Z</time>
      </trkpt>
      <trkpt lat="43.487684" lon="-5.292847">
        <ele>-58.222</ele>
        <time>2021-10-14T14:24:18Z</time>
      </trkpt>
      <trkpt lat="43.487730" lon="-5.292649">
        <ele>-58.639</ele>
        <time>2021-10-14T14:24:19Z</time>
      </trkpt>
      <trkpt lat="43.487772" lon="-5.292441">
        <ele>-59.662</ele>
        <time>2021-10-14T14:24:20Z</time>
      </trkpt>
      <trkpt lat="43.487815" lon="-5.292041">
        <ele>-59.559</ele>
        <time>2021-10-14T14:24:22Z</time>
      </trkpt>
      <trkpt lat="43.487796" lon="-5.291843">
        <ele>-59.121</ele>
        <time>2021-10-14T14:24:23Z</time>
      </trkpt>
      <trkpt lat="43.487672" lon="-5.291476">
        <ele>-59.180</ele>
        <time>2021-10-14T14:24:25Z</time>
      </trkpt>
      <trkpt lat="43.487598" lon="-5.291286">
        <ele>-59.487</ele>
        <time>2021-10-14T14:24:26Z</time>
      </trkpt>
      <trkpt lat="43.487477" lon="-5.290908">
        <ele>-58.342</ele>
        <time>2021-10-14T14:24:28Z</time>
      </trkpt>
      <trkpt lat="43.487433" lon="-5.290704">
        <ele>-58.726</ele>
        <time>2021-10-14T14:24:29Z</time>
      </trkpt>
      <trkpt lat="43.487375" lon="-5.290284">
        <ele>-58.508</ele>
        <time>2021-10-14T14:24:31Z</time>
      </trkpt>
      <trkpt lat="43.487361" lon="-5.289861">
        <ele>-57.316</ele>
        <time>2021-10-14T14:24:33Z</time>
      </trkpt>
      <trkpt lat="43.487380" lon="-5.289641">
        <ele>-57.294</ele>
        <time>2021-10-14T14:24:34Z</time>
      </trkpt>
      <trkpt lat="43.487449" lon="-5.289197">
        <ele>-56.582</ele>
        <time>2021-10-14T14:24:36Z</time>
      </trkpt>
      <trkpt lat="43.487488" lon="-5.288955">
        <ele>-57.339</ele>
        <time>2021-10-14T14:24:37Z</time>
      </trkpt>
      <trkpt lat="43.487528" lon="-5.288706">
        <ele>-57.382</ele>
        <time>2021-10-14T14:24:38Z</time>
      </trkpt>
      <trkpt lat="43.487612" lon="-5.288202">
        <ele>-59.779</ele>
        <time>2021-10-14T14:24:40Z</time>
      </trkpt>
      <trkpt lat="43.487698" lon="-5.287693">
        <ele>-61.831</ele>
        <time>2021-10-14T14:24:42Z</time>
      </trkpt>
      <trkpt lat="43.487734" lon="-5.287461">
        <ele>-61.720</ele>
        <time>2021-10-14T14:24:43Z</time>
      </trkpt>
      <trkpt lat="43.487768" lon="-5.287253">
        <ele>-62.395</ele>
        <time>2021-10-14T14:24:44Z</time>
      </trkpt>
      <trkpt lat="43.487843" lon="-5.286936">
        <ele>-63.049</ele>
        <time>2021-10-14T14:24:46Z</time>
      </trkpt>
      <trkpt lat="43.487909" lon="-5.286806">
        <ele>-63.723</ele>
        <time>2021-10-14T14:24:47Z</time>
      </trkpt>
      <trkpt lat="43.488002" lon="-5.286695">
        <ele>-63.808</ele>
        <time>2021-10-14T14:24:48Z</time>
      </trkpt>
      <trkpt lat="43.488245" lon="-5.286478">
        <ele>-64.917</ele>
        <time>2021-10-14T14:24:50Z</time>
      </trkpt>
      <trkpt lat="43.488450" lon="-5.286159">
        <ele>-65.425</ele>
        <time>2021-10-14T14:24:52Z</time>
      </trkpt>
      <trkpt lat="43.488519" lon="-5.285951">
        <ele>-65.273</ele>
        <time>2021-10-14T14:24:53Z</time>
      </trkpt>
      <trkpt lat="43.488618" lon="-5.285501">
        <ele>-65.930</ele>
        <time>2021-10-14T14:24:55Z</time>
      </trkpt>
      <trkpt lat="43.488646" lon="-5.285276">
        <ele>-66.283</ele>
        <time>2021-10-14T14:24:56Z</time>
      </trkpt>
      <trkpt lat="43.488598" lon="-5.284831">
        <ele>-66.230</ele>
        <time>2021-10-14T14:24:58Z</time>
      </trkpt>
      <trkpt lat="43.488473" lon="-5.284391">
        <ele>-65.222</ele>
        <time>2021-10-14T14:25:00Z</time>
      </trkpt>
      <trkpt lat="43.488422" lon="-5.284173">
        <ele>-66.231</ele>
        <time>2021-10-14T14:25:01Z</time>
      </trkpt>
      <trkpt lat="43.488384" lon="-5.283960">
        <ele>-66.013</ele>
        <time>2021-10-14T14:25:02Z</time>
      </trkpt>
      <trkpt lat="43.488353" lon="-5.283537">
        <ele>-66.743</ele>
        <time>2021-10-14T14:25:04Z</time>
      </trkpt>
      <trkpt lat="43.488374" lon="-5.283325">
        <ele>-66.207</ele>
        <time>2021-10-14T14:25:05Z</time>
      </trkpt>
      <trkpt lat="43.488418" lon="-5.283122">
        <ele>-66.408</ele>
        <time>2021-10-14T14:25:06Z</time>
      </trkpt>
      <trkpt lat="43.488514" lon="-5.282728">
        <ele>-65.959</ele>
        <time>2021-10-14T14:25:08Z</time>
      </trkpt>
      <trkpt lat="43.488633" lon="-5.282347">
        <ele>-66.437</ele>
        <time>2021-10-14T14:25:10Z</time>
      </trkpt>
      <trkpt lat="43.488721" lon="-5.282159">
        <ele>-67.295</ele>
        <time>2021-10-14T14:25:11Z</time>
      </trkpt>
      <trkpt lat="43.488825" lon="-5.281976">
        <ele>-66.722</ele>
        <time>2021-10-14T14:25:12Z</time>
      </trkpt>
      <trkpt lat="43.488937" lon="-5.281793">
        <ele>-66.315</ele>
        <time>2021-10-14T14:25:13Z</time>
      </trkpt>
      <trkpt lat="43.489052" lon="-5.281601">
        <ele>-67.742</ele>
        <time>2021-10-14T14:25:14Z</time>
      </trkpt>
      <trkpt lat="43.489278" lon="-5.281223">
        <ele>-67.554</ele>
        <time>2021-10-14T14:25:16Z</time>
      </trkpt>
      <trkpt lat="43.489498" lon="-5.280831">
        <ele>-68.523</ele>
        <time>2021-10-14T14:25:18Z</time>
      </trkpt>
      <trkpt lat="43.489590" lon="-5.280619">
        <ele>-68.716</ele>
        <time>2021-10-14T14:25:19Z</time>
      </trkpt>
      <trkpt lat="43.489663" lon="-5.280389">
        <ele>-69.576</ele>
        <time>2021-10-14T14:25:20Z</time>
      </trkpt>
      <trkpt lat="43.489774" lon="-5.279925">
        <ele>-70.013</ele>
        <time>2021-10-14T14:25:22Z</time>
      </trkpt>
      <trkpt lat="43.489874" lon="-5.279453">
        <ele>-70.808</ele>
        <time>2021-10-14T14:25:24Z</time>
      </trkpt>
      <trkpt lat="43.489920" lon="-5.279228">
        <ele>-72.059</ele>
        <time>2021-10-14T14:25:25Z</time>
      </trkpt>
      <trkpt lat="43.489958" lon="-5.279033">
        <ele>-72.827</ele>
        <time>2021-10-14T14:25:26Z</time>
      </trkpt>
      <trkpt lat="43.490029" lon="-5.278685">
        <ele>-73.395</ele>
        <time>2021-10-14T14:25:28Z</time>
      </trkpt>
      <trkpt lat="43.490070" lon="-5.278328">
        <ele>-73.892</ele>
        <time>2021-10-14T14:25:30Z</time>
      </trkpt>
      <trkpt lat="43.490059" lon="-5.278142">
        <ele>-74.215</ele>
        <time>2021-10-14T14:25:31Z</time>
      </trkpt>
      <trkpt lat="43.490020" lon="-5.277949">
        <ele>-74.592</ele>
        <time>2021-10-14T14:25:32Z</time>
      </trkpt>
      <trkpt lat="43.489838" lon="-5.277610">
        <ele>-75.984</ele>
        <time>2021-10-14T14:25:34Z</time>
      </trkpt>
      <trkpt lat="43.489708" lon="-5.277490">
        <ele>-74.953</ele>
        <time>2021-10-14T14:25:35Z</time>
      </trkpt>
      <trkpt lat="43.489473" lon="-5.277334">
        <ele>-76.394</ele>
        <time>2021-10-14T14:25:37Z</time>
      </trkpt>
      <trkpt lat="43.489369" lon="-5.277266">
        <ele>-75.357</ele>
        <time>2021-10-14T14:25:38Z</time>
      </trkpt>
      <trkpt lat="43.489189" lon="-5.277128">
        <ele>-75.722</ele>
        <time>2021-10-14T14:25:40Z</time>
      </trkpt>
      <trkpt lat="43.489098" lon="-5.277051">
        <ele>-76.208</ele>
        <time>2021-10-14T14:25:41Z</time>
      </trkpt>
      <trkpt lat="43.489004" lon="-5.276973">
        <ele>-76.027</ele>
        <time>2021-10-14T14:25:42Z</time>
      </trkpt>
      <trkpt lat="43.488907" lon="-5.276891">
        <ele>-75.725</ele>
        <time>2021-10-14T14:25:43Z</time>
      </trkpt>
      <trkpt lat="43.488802" lon="-5.276803">
        <ele>-76.283</ele>
        <time>2021-10-14T14:25:44Z</time>
      </trkpt>
      <trkpt lat="43.488579" lon="-5.276620">
        <ele>-75.860</ele>
        <time>2021-10-14T14:25:46Z</time>
      </trkpt>
      <trkpt lat="43.488337" lon="-5.276440">
        <ele>-75.553</ele>
        <time>2021-10-14T14:25:48Z</time>
      </trkpt>
      <trkpt lat="43.488206" lon="-5.276355">
        <ele>-75.760</ele>
        <time>2021-10-14T14:25:49Z</time>
      </trkpt>
      <trkpt lat="43.488064" lon="-5.276283">
        <ele>-75.442</ele>
        <time>2021-10-14T14:25:50Z</time>
      </trkpt>
      <trkpt lat="43.487769" lon="-5.276169">
        <ele>-75.341</ele>
        <time>2021-10-14T14:25:52Z</time>
      </trkpt>
      <trkpt lat="43.487611" lon="-5.276129">
        <ele>-75.756</ele>
        <time>2021-10-14T14:25:53Z</time>
      </trkpt>
      <trkpt lat="43.487318" lon="-5.276112">
        <ele>-74.459</ele>
        <time>2021-10-14T14:25:55Z</time>
      </trkpt>
      <trkpt lat="43.487182" lon="-5.276107">
        <ele>-73.714</ele>
        <time>2021-10-14T14:25:56Z</time>
      </trkpt>
      <trkpt lat="43.486909" lon="-5.276012">
        <ele>-72.508</ele>
        <time>2021-10-14T14:25:58Z</time>
      </trkpt>
      <trkpt lat="43.486765" lon="-5.275918">
        <ele>-72.713</ele>
        <time>2021-10-14T14:25:59Z</time>
      </trkpt>
      <trkpt lat="43.486622" lon="-5.275811">
        <ele>-72.791</ele>
        <time>2021-10-14T14:26:00Z</time>
      </trkpt>
      <trkpt lat="43.486484" lon="-5.275697">
        <ele>-74.239</ele>
        <time>2021-10-14T14:26:01Z</time>
      </trkpt>
      <trkpt lat="43.486358" lon="-5.275581">
        <ele>-74.046</ele>
        <time>2021-10-14T14:26:02Z</time>
      </trkpt>
      <trkpt lat="43.486159" lon="-5.275364">
        <ele>-74.219</ele>
        <time>2021-10-14T14:26:04Z</time>
      </trkpt>
      <trkpt lat="43.485990" lon="-5.275179">
        <ele>-75.366</ele>
        <time>2021-10-14T14:26:06Z</time>
      </trkpt>
      <trkpt lat="43.485836" lon="-5.275040">
        <ele>-75.868</ele>
        <time>2021-10-14T14:26:08Z</time>
      </trkpt>
      <trkpt lat="43.485749" lon="-5.274947">
        <ele>-75.587</ele>
        <time>2021-10-14T14:26:10Z</time>
      </trkpt>
      <trkpt lat="43.485720" lon="-5.274900">
        <ele>-75.247</ele>
        <time>2021-10-14T14:26:12Z</time>
      </trkpt>
      <trkpt lat="43.485674" lon="-5.274863">
        <ele>-57.529</ele>
        <time>2021-10-14T14:26:29Z</time>
      </trkpt>
      <trkpt lat="43.485624" lon="-5.274821">
        <ele>-38.121</ele>
        <time>2021-10-14T14:27:11Z</time>
      </trkpt>
      <trkpt lat="43.485542" lon="-5.274695">
        <ele>-19.108</ele>
        <time>2021-10-14T14:27:13Z</time>
      </trkpt>
      <trkpt lat="43.485467" lon="-5.274588">
        <ele>-19.142</ele>
        <time>2021-10-14T14:27:14Z</time>
      </trkpt>
      <trkpt lat="43.485336" lon="-5.274397">
        <ele>-19.150</ele>
        <time>2021-10-14T14:27:16Z</time>
      </trkpt>
      <trkpt lat="43.485274" lon="-5.274307">
        <ele>-19.198</ele>
        <time>2021-10-14T14:27:17Z</time>
      </trkpt>
      <trkpt lat="43.485172" lon="-5.274166">
        <ele>-19.155</ele>
        <time>2021-10-14T14:27:19Z</time>
      </trkpt>
      <trkpt lat="43.485119" lon="-5.274103">
        <ele>-19.128</ele>
        <time>2021-10-14T14:27:20Z</time>
      </trkpt>
      <trkpt lat="43.485024" lon="-5.273997">
        <ele>-19.195</ele>
        <time>2021-10-14T14:27:22Z</time>
      </trkpt>
      <trkpt lat="43.484979" lon="-5.273950">
        <ele>-19.197</ele>
        <time>2021-10-14T14:27:23Z</time>
      </trkpt>
      <trkpt lat="43.484896" lon="-5.273868">
        <ele>-19.096</ele>
        <time>2021-10-14T14:27:25Z</time>
      </trkpt>
      <trkpt lat="43.484855" lon="-5.273827">
        <ele>-19.098</ele>
        <time>2021-10-14T14:27:26Z</time>
      </trkpt>
      <trkpt lat="43.484781" lon="-5.273752">
        <ele>-19.015</ele>
        <time>2021-10-14T14:27:28Z</time>
      </trkpt>
      <trkpt lat="43.484702" lon="-5.273673">
        <ele>-19.026</ele>
        <time>2021-10-14T14:27:30Z</time>
      </trkpt>
      <trkpt lat="43.484646" lon="-5.273616">
        <ele>-19.008</ele>
        <time>2021-10-14T14:27:31Z</time>
      </trkpt>
      <trkpt lat="43.484587" lon="-5.273555">
        <ele>-19.087</ele>
        <time>2021-10-14T14:27:32Z</time>
      </trkpt>
      <trkpt lat="43.484505" lon="-5.273458">
        <ele>-19.075</ele>
        <time>2021-10-14T14:27:34Z</time>
      </trkpt>
      <trkpt lat="43.484437" lon="-5.273348">
        <ele>-19.063</ele>
        <time>2021-10-14T14:27:36Z</time>
      </trkpt>
      <trkpt lat="43.484405" lon="-5.273282">
        <ele>-19.060</ele>
        <time>2021-10-14T14:27:37Z</time>
      </trkpt>
      <trkpt lat="43.484378" lon="-5.273214">
        <ele>-19.043</ele>
        <time>2021-10-14T14:27:38Z</time>
      </trkpt>
      <trkpt lat="43.484334" lon="-5.273089">
        <ele>-19.060</ele>
        <time>2021-10-14T14:27:40Z</time>
      </trkpt>
      <trkpt lat="43.484311" lon="-5.272937">
        <ele>-19.032</ele>
        <time>2021-10-14T14:27:42Z</time>
      </trkpt>
      <trkpt lat="43.484333" lon="-5.272774">
        <ele>-19.051</ele>
        <time>2021-10-14T14:27:44Z</time>
      </trkpt>
      <trkpt lat="43.484383" lon="-5.272629">
        <ele>-19.057</ele>
        <time>2021-10-14T14:27:46Z</time>
      </trkpt>
      <trkpt lat="43.484441" lon="-5.272513">
        <ele>-19.000</ele>
        <time>2021-10-14T14:27:48Z</time>
      </trkpt>
      <trkpt lat="43.484467" lon="-5.272454">
        <ele>-18.820</ele>
        <time>2021-10-14T14:27:49Z</time>
      </trkpt>
      <trkpt lat="43.484491" lon="-5.272397">
        <ele>-19.008</ele>
        <time>2021-10-14T14:27:51Z</time>
      </trkpt>
      <trkpt lat="43.484519" lon="-5.272348">
        <ele>-19.083</ele>
        <time>2021-10-14T14:27:55Z</time>
      </trkpt>
      <trkpt lat="43.484554" lon="-5.272282">
        <ele>-18.841</ele>
        <time>2021-10-14T14:28:18Z</time>
      </trkpt>
      <trkpt lat="43.484571" lon="-5.272212">
        <ele>-18.889</ele>
        <time>2021-10-14T14:28:20Z</time>
      </trkpt>
      <trkpt lat="43.484582" lon="-5.272145">
        <ele>-19.016</ele>
        <time>2021-10-14T14:28:22Z</time>
      </trkpt>
      <trkpt lat="43.484589" lon="-5.272057">
        <ele>-19.049</ele>
        <time>2021-10-14T14:28:25Z</time>
      </trkpt>
      <trkpt lat="43.484585" lon="-5.271964">
        <ele>-19.096</ele>
        <time>2021-10-14T14:28:28Z</time>
      </trkpt>
      <trkpt lat="43.484591" lon="-5.271897">
        <ele>-19.088</ele>
        <time>2021-10-14T14:28:30Z</time>
      </trkpt>
      <trkpt lat="43.484606" lon="-5.271815">
        <ele>-19.077</ele>
        <time>2021-10-14T14:28:34Z</time>
      </trkpt>
      <trkpt lat="43.484611" lon="-5.271728">
        <ele>-19.071</ele>
        <time>2021-10-14T14:28:37Z</time>
      </trkpt>
      <trkpt lat="43.484620" lon="-5.271662">
        <ele>-15.141</ele>
        <time>2021-10-14T14:28:49Z</time>
      </trkpt>
      <trkpt lat="43.484635" lon="-5.271600">
        <ele>-15.115</ele>
        <time>2021-10-14T14:28:53Z</time>
      </trkpt>
      <trkpt lat="43.484668" lon="-5.271510">
        <ele>-6.208</ele>
        <time>2021-10-14T14:29:37Z</time>
      </trkpt>
      <trkpt lat="43.484706" lon="-5.271421">
        <ele>-6.225</ele>
        <time>2021-10-14T14:29:39Z</time>
      </trkpt>
      <trkpt lat="43.484749" lon="-5.271342">
        <ele>-6.213</ele>
        <time>2021-10-14T14:29:41Z</time>
      </trkpt>
      <trkpt lat="43.484783" lon="-5.271284">
        <ele>-6.231</ele>
        <time>2021-10-14T14:29:43Z</time>
      </trkpt>
      <trkpt lat="43.484811" lon="-5.271233">
        <ele>-6.218</ele>
        <time>2021-10-14T14:29:45Z</time>
      </trkpt>
      <trkpt lat="43.484840" lon="-5.271154">
        <ele>-6.231</ele>
        <time>2021-10-14T14:29:47Z</time>
      </trkpt>
      <trkpt lat="43.484864" lon="-5.271086">
        <ele>-6.278</ele>
        <time>2021-10-14T14:29:49Z</time>
      </trkpt>
      <trkpt lat="43.484888" lon="-5.270990">
        <ele>-6.270</ele>
        <time>2021-10-14T14:29:52Z</time>
      </trkpt>
      <trkpt lat="43.484922" lon="-5.270929">
        <ele>-6.089</ele>
        <time>2021-10-14T14:29:54Z</time>
      </trkpt>
      <trkpt lat="43.484969" lon="-5.270928">
        <ele>-6.267</ele>
        <time>2021-10-14T14:29:57Z</time>
      </trkpt>
      <trkpt lat="43.484982" lon="-5.270998">
        <ele>-5.981</ele>
        <time>2021-10-14T14:30:09Z</time>
      </trkpt>
      <trkpt lat="43.485018" lon="-5.271038">
        <ele>-4.919</ele>
        <time>2021-10-14T14:31:37Z</time>
      </trkpt>
      <trkpt lat="43.485057" lon="-5.271074">
        <ele>-4.508</ele>
        <time>2021-10-14T14:31:41Z</time>
      </trkpt>
      <trkpt lat="43.485052" lon="-5.271008">
        <ele>-4.584</ele>
        <time>2021-10-14T16:15:09Z</time>
      </trkpt>
      <trkpt lat="43.484999" lon="-5.271034">
        <ele>-5.472</ele>
        <time>2021-10-14T16:20:25Z</time>
      </trkpt>
      <trkpt lat="43.484961" lon="-5.270990">
        <ele>-5.420</ele>
        <time>2021-10-14T16:20:27Z</time>
      </trkpt>
      <trkpt lat="43.484930" lon="-5.270908">
        <ele>-5.447</ele>
        <time>2021-10-14T16:20:38Z</time>
      </trkpt>
      <trkpt lat="43.484946" lon="-5.270821">
        <ele>-5.470</ele>
        <time>2021-10-14T16:20:41Z</time>
      </trkpt>
      <trkpt lat="43.484971" lon="-5.270755">
        <ele>-5.477</ele>
        <time>2021-10-14T16:20:44Z</time>
      </trkpt>
      <trkpt lat="43.484982" lon="-5.270689">
        <ele>-5.469</ele>
        <time>2021-10-14T16:20:47Z</time>
      </trkpt>
      <trkpt lat="43.485006" lon="-5.270628">
        <ele>-5.438</ele>
        <time>2021-10-14T16:20:50Z</time>
      </trkpt>
      <trkpt lat="43.485038" lon="-5.270572">
        <ele>-5.447</ele>
        <time>2021-10-14T16:20:54Z</time>
      </trkpt>
      <trkpt lat="43.485090" lon="-5.270485">
        <ele>-6.629</ele>
        <time>2021-10-14T16:21:11Z</time>
      </trkpt>
      <trkpt lat="43.485143" lon="-5.270362">
        <ele>-6.721</ele>
        <time>2021-10-14T16:21:13Z</time>
      </trkpt>
      <trkpt lat="43.485177" lon="-5.270267">
        <ele>-6.608</ele>
        <time>2021-10-14T16:21:15Z</time>
      </trkpt>
      <trkpt lat="43.485217" lon="-5.270134">
        <ele>-6.652</ele>
        <time>2021-10-14T16:21:17Z</time>
      </trkpt>
      <trkpt lat="43.485258" lon="-5.269977">
        <ele>-6.630</ele>
        <time>2021-10-14T16:21:19Z</time>
      </trkpt>
      <trkpt lat="43.485281" lon="-5.269893">
        <ele>-6.628</ele>
        <time>2021-10-14T16:21:20Z</time>
      </trkpt>
      <trkpt lat="43.485315" lon="-5.269737">
        <ele>-6.665</ele>
        <time>2021-10-14T16:21:22Z</time>
      </trkpt>
      <trkpt lat="43.485323" lon="-5.269659">
        <ele>-6.678</ele>
        <time>2021-10-14T16:21:23Z</time>
      </trkpt>
      <trkpt lat="43.485326" lon="-5.269502">
        <ele>-6.635</ele>
        <time>2021-10-14T16:21:25Z</time>
      </trkpt>
      <trkpt lat="43.485322" lon="-5.269421">
        <ele>-6.637</ele>
        <time>2021-10-14T16:21:26Z</time>
      </trkpt>
      <trkpt lat="43.485320" lon="-5.269256">
        <ele>-6.596</ele>
        <time>2021-10-14T16:21:28Z</time>
      </trkpt>
      <trkpt lat="43.485321" lon="-5.269165">
        <ele>-6.515</ele>
        <time>2021-10-14T16:21:29Z</time>
      </trkpt>
      <trkpt lat="43.485316" lon="-5.268964">
        <ele>-6.565</ele>
        <time>2021-10-14T16:21:31Z</time>
      </trkpt>
      <trkpt lat="43.485311" lon="-5.268860">
        <ele>-6.511</ele>
        <time>2021-10-14T16:21:32Z</time>
      </trkpt>
      <trkpt lat="43.485302" lon="-5.268663">
        <ele>-6.608</ele>
        <time>2021-10-14T16:21:34Z</time>
      </trkpt>
      <trkpt lat="43.485287" lon="-5.268446">
        <ele>-6.629</ele>
        <time>2021-10-14T16:21:36Z</time>
      </trkpt>
      <trkpt lat="43.485274" lon="-5.268324">
        <ele>-6.677</ele>
        <time>2021-10-14T16:21:37Z</time>
      </trkpt>
      <trkpt lat="43.485260" lon="-5.268194">
        <ele>-6.675</ele>
        <time>2021-10-14T16:21:38Z</time>
      </trkpt>
      <trkpt lat="43.485237" lon="-5.267939">
        <ele>-6.722</ele>
        <time>2021-10-14T16:21:40Z</time>
      </trkpt>
      <trkpt lat="43.485231" lon="-5.267825">
        <ele>-6.765</ele>
        <time>2021-10-14T16:21:41Z</time>
      </trkpt>
      <trkpt lat="43.485220" lon="-5.267624">
        <ele>-6.752</ele>
        <time>2021-10-14T16:21:43Z</time>
      </trkpt>
      <trkpt lat="43.485214" lon="-5.267513">
        <ele>-6.744</ele>
        <time>2021-10-14T16:21:44Z</time>
      </trkpt>
      <trkpt lat="43.485200" lon="-5.267270">
        <ele>-6.753</ele>
        <time>2021-10-14T16:21:46Z</time>
      </trkpt>
      <trkpt lat="43.485186" lon="-5.267131">
        <ele>-6.746</ele>
        <time>2021-10-14T16:21:47Z</time>
      </trkpt>
      <trkpt lat="43.485167" lon="-5.266989">
        <ele>-6.788</ele>
        <time>2021-10-14T16:21:48Z</time>
      </trkpt>
      <trkpt lat="43.485135" lon="-5.266735">
        <ele>-6.716</ele>
        <time>2021-10-14T16:21:50Z</time>
      </trkpt>
      <trkpt lat="43.485101" lon="-5.266521">
        <ele>-6.708</ele>
        <time>2021-10-14T16:21:52Z</time>
      </trkpt>
      <trkpt lat="43.485062" lon="-5.266287">
        <ele>-6.722</ele>
        <time>2021-10-14T16:21:54Z</time>
      </trkpt>
      <trkpt lat="43.485039" lon="-5.266162">
        <ele>-6.790</ele>
        <time>2021-10-14T16:21:55Z</time>
      </trkpt>
      <trkpt lat="43.485016" lon="-5.266023">
        <ele>-6.738</ele>
        <time>2021-10-14T16:21:56Z</time>
      </trkpt>
      <trkpt lat="43.484974" lon="-5.265743">
        <ele>-6.765</ele>
        <time>2021-10-14T16:21:58Z</time>
      </trkpt>
      <trkpt lat="43.484940" lon="-5.265470">
        <ele>-6.748</ele>
        <time>2021-10-14T16:22:00Z</time>
      </trkpt>
      <trkpt lat="43.484923" lon="-5.265345">
        <ele>-6.765</ele>
        <time>2021-10-14T16:22:01Z</time>
      </trkpt>
      <trkpt lat="43.484908" lon="-5.265223">
        <ele>-6.797</ele>
        <time>2021-10-14T16:22:02Z</time>
      </trkpt>
      <trkpt lat="43.484888" lon="-5.265000">
        <ele>-6.776</ele>
        <time>2021-10-14T16:22:04Z</time>
      </trkpt>
      <trkpt lat="43.484875" lon="-5.264878">
        <ele>-36.455</ele>
        <time>2021-10-14T16:22:05Z</time>
      </trkpt>
      <trkpt lat="43.484845" lon="-5.264581">
        <ele>-62.907</ele>
        <time>2021-10-14T16:22:07Z</time>
      </trkpt>
      <trkpt lat="43.484828" lon="-5.264403">
        <ele>-63.017</ele>
        <time>2021-10-14T16:22:08Z</time>
      </trkpt>
      <trkpt lat="43.484790" lon="-5.264077">
        <ele>-63.408</ele>
        <time>2021-10-14T16:22:10Z</time>
      </trkpt>
      <trkpt lat="43.484763" lon="-5.263803">
        <ele>-63.613</ele>
        <time>2021-10-14T16:22:12Z</time>
      </trkpt>
      <trkpt lat="43.484751" lon="-5.263664">
        <ele>-63.261</ele>
        <time>2021-10-14T16:22:13Z</time>
      </trkpt>
      <trkpt lat="43.484738" lon="-5.263518">
        <ele>-63.279</ele>
        <time>2021-10-14T16:22:14Z</time>
      </trkpt>
      <trkpt lat="43.484716" lon="-5.263221">
        <ele>-63.916</ele>
        <time>2021-10-14T16:22:16Z</time>
      </trkpt>
      <trkpt lat="43.484675" lon="-5.262883">
        <ele>-63.469</ele>
        <time>2021-10-14T16:22:18Z</time>
      </trkpt>
      <trkpt lat="43.484629" lon="-5.262505">
        <ele>-63.846</ele>
        <time>2021-10-14T16:22:20Z</time>
      </trkpt>
      <trkpt lat="43.484584" lon="-5.262129">
        <ele>-62.748</ele>
        <time>2021-10-14T16:22:22Z</time>
      </trkpt>
      <trkpt lat="43.484560" lon="-5.261936">
        <ele>-63.467</ele>
        <time>2021-10-14T16:22:23Z</time>
      </trkpt>
      <trkpt lat="43.484509" lon="-5.261548">
        <ele>-62.995</ele>
        <time>2021-10-14T16:22:25Z</time>
      </trkpt>
      <trkpt lat="43.484485" lon="-5.261354">
        <ele>-63.349</ele>
        <time>2021-10-14T16:22:26Z</time>
      </trkpt>
      <trkpt lat="43.484440" lon="-5.260990">
        <ele>-63.023</ele>
        <time>2021-10-14T16:22:28Z</time>
      </trkpt>
      <trkpt lat="43.484396" lon="-5.260604">
        <ele>-63.208</ele>
        <time>2021-10-14T16:22:30Z</time>
      </trkpt>
      <trkpt lat="43.484355" lon="-5.260191">
        <ele>-62.927</ele>
        <time>2021-10-14T16:22:32Z</time>
      </trkpt>
      <trkpt lat="43.484311" lon="-5.259778">
        <ele>-63.775</ele>
        <time>2021-10-14T16:22:34Z</time>
      </trkpt>
      <trkpt lat="43.484286" lon="-5.259572">
        <ele>-61.923</ele>
        <time>2021-10-14T16:22:35Z</time>
      </trkpt>
      <trkpt lat="43.484233" lon="-5.259165">
        <ele>-65.240</ele>
        <time>2021-10-14T16:22:37Z</time>
      </trkpt>
      <trkpt lat="43.484207" lon="-5.258942">
        <ele>-63.163</ele>
        <time>2021-10-14T16:22:38Z</time>
      </trkpt>
      <trkpt lat="43.484155" lon="-5.258500">
        <ele>-62.350</ele>
        <time>2021-10-14T16:22:40Z</time>
      </trkpt>
      <trkpt lat="43.484127" lon="-5.258264">
        <ele>-63.032</ele>
        <time>2021-10-14T16:22:41Z</time>
      </trkpt>
      <trkpt lat="43.484075" lon="-5.257780">
        <ele>-62.391</ele>
        <time>2021-10-14T16:22:43Z</time>
      </trkpt>
      <trkpt lat="43.484052" lon="-5.257545">
        <ele>-62.497</ele>
        <time>2021-10-14T16:22:44Z</time>
      </trkpt>
      <trkpt lat="43.484008" lon="-5.257143">
        <ele>-59.323</ele>
        <time>2021-10-14T16:22:46Z</time>
      </trkpt>
      <trkpt lat="43.483986" lon="-5.256969">
        <ele>-59.925</ele>
        <time>2021-10-14T16:22:47Z</time>
      </trkpt>
      <trkpt lat="43.483952" lon="-5.256679">
        <ele>-59.008</ele>
        <time>2021-10-14T16:22:49Z</time>
      </trkpt>
      <trkpt lat="43.483938" lon="-5.256551">
        <ele>-58.417</ele>
        <time>2021-10-14T16:22:50Z</time>
      </trkpt>
      <trkpt lat="43.483898" lon="-5.256349">
        <ele>-58.055</ele>
        <time>2021-10-14T16:22:52Z</time>
      </trkpt>
      <trkpt lat="43.483799" lon="-5.256180">
        <ele>-57.833</ele>
        <time>2021-10-14T16:22:54Z</time>
      </trkpt>
      <trkpt lat="43.483737" lon="-5.256092">
        <ele>-57.530</ele>
        <time>2021-10-14T16:22:55Z</time>
      </trkpt>
      <trkpt lat="43.483692" lon="-5.255999">
        <ele>-56.773</ele>
        <time>2021-10-14T16:22:56Z</time>
      </trkpt>
      <trkpt lat="43.483684" lon="-5.255814">
        <ele>-57.390</ele>
        <time>2021-10-14T16:22:58Z</time>
      </trkpt>
      <trkpt lat="43.483758" lon="-5.255593">
        <ele>-56.592</ele>
        <time>2021-10-14T16:23:00Z</time>
      </trkpt>
      <trkpt lat="43.483786" lon="-5.255454">
        <ele>-54.861</ele>
        <time>2021-10-14T16:23:01Z</time>
      </trkpt>
      <trkpt lat="43.483793" lon="-5.255296">
        <ele>-55.249</ele>
        <time>2021-10-14T16:23:02Z</time>
      </trkpt>
      <trkpt lat="43.483755" lon="-5.254939">
        <ele>-53.702</ele>
        <time>2021-10-14T16:23:04Z</time>
      </trkpt>
      <trkpt lat="43.483700" lon="-5.254498">
        <ele>-53.422</ele>
        <time>2021-10-14T16:23:06Z</time>
      </trkpt>
      <trkpt lat="43.483674" lon="-5.254257">
        <ele>-53.208</ele>
        <time>2021-10-14T16:23:07Z</time>
      </trkpt>
      <trkpt lat="43.483648" lon="-5.254003">
        <ele>-52.492</ele>
        <time>2021-10-14T16:23:08Z</time>
      </trkpt>
      <trkpt lat="43.483592" lon="-5.253500">
        <ele>-52.090</ele>
        <time>2021-10-14T16:23:10Z</time>
      </trkpt>
      <trkpt lat="43.483562" lon="-5.253234">
        <ele>-51.718</ele>
        <time>2021-10-14T16:23:11Z</time>
      </trkpt>
      <trkpt lat="43.483501" lon="-5.252694">
        <ele>-49.715</ele>
        <time>2021-10-14T16:23:13Z</time>
      </trkpt>
      <trkpt lat="43.483471" lon="-5.252416">
        <ele>-50.068</ele>
        <time>2021-10-14T16:23:14Z</time>
      </trkpt>
      <trkpt lat="43.483413" lon="-5.251874">
        <ele>-48.285</ele>
        <time>2021-10-14T16:23:16Z</time>
      </trkpt>
      <trkpt lat="43.483384" lon="-5.251606">
        <ele>-47.537</ele>
        <time>2021-10-14T16:23:17Z</time>
      </trkpt>
      <trkpt lat="43.483355" lon="-5.251334">
        <ele>-46.936</ele>
        <time>2021-10-14T16:23:18Z</time>
      </trkpt>
      <trkpt lat="43.483326" lon="-5.251064">
        <ele>-47.179</ele>
        <time>2021-10-14T16:23:19Z</time>
      </trkpt>
      <trkpt lat="43.483292" lon="-5.250787">
        <ele>-47.005</ele>
        <time>2021-10-14T16:23:20Z</time>
      </trkpt>
      <trkpt lat="43.483229" lon="-5.250237">
        <ele>-46.425</ele>
        <time>2021-10-14T16:23:22Z</time>
      </trkpt>
      <trkpt lat="43.483165" lon="-5.249665">
        <ele>-45.508</ele>
        <time>2021-10-14T16:23:24Z</time>
      </trkpt>
      <trkpt lat="43.483102" lon="-5.249150">
        <ele>-43.525</ele>
        <time>2021-10-14T16:23:26Z</time>
      </trkpt>
      <trkpt lat="43.483049" lon="-5.248648">
        <ele>-42.743</ele>
        <time>2021-10-14T16:23:28Z</time>
      </trkpt>
      <trkpt lat="43.483019" lon="-5.248374">
        <ele>-42.731</ele>
        <time>2021-10-14T16:23:29Z</time>
      </trkpt>
      <trkpt lat="43.482957" lon="-5.247803">
        <ele>-44.998</ele>
        <time>2021-10-14T16:23:31Z</time>
      </trkpt>
      <trkpt lat="43.482922" lon="-5.247493">
        <ele>-44.541</ele>
        <time>2021-10-14T16:23:32Z</time>
      </trkpt>
      <trkpt lat="43.482851" lon="-5.246888">
        <ele>-46.018</ele>
        <time>2021-10-14T16:23:34Z</time>
      </trkpt>
      <trkpt lat="43.482812" lon="-5.246576">
        <ele>-46.550</ele>
        <time>2021-10-14T16:23:35Z</time>
      </trkpt>
      <trkpt lat="43.482745" lon="-5.245987">
        <ele>-47.699</ele>
        <time>2021-10-14T16:23:37Z</time>
      </trkpt>
      <trkpt lat="43.482715" lon="-5.245709">
        <ele>-47.591</ele>
        <time>2021-10-14T16:23:38Z</time>
      </trkpt>
      <trkpt lat="43.482667" lon="-5.245198">
        <ele>-49.481</ele>
        <time>2021-10-14T16:23:40Z</time>
      </trkpt>
      <trkpt lat="43.482637" lon="-5.244941">
        <ele>-48.619</ele>
        <time>2021-10-14T16:23:41Z</time>
      </trkpt>
      <trkpt lat="43.482575" lon="-5.244420">
        <ele>-52.908</ele>
        <time>2021-10-14T16:23:43Z</time>
      </trkpt>
      <trkpt lat="43.482543" lon="-5.244145">
        <ele>-53.067</ele>
        <time>2021-10-14T16:23:44Z</time>
      </trkpt>
      <trkpt lat="43.482483" lon="-5.243605">
        <ele>-55.295</ele>
        <time>2021-10-14T16:23:46Z</time>
      </trkpt>
      <trkpt lat="43.482455" lon="-5.243327">
        <ele>-54.853</ele>
        <time>2021-10-14T16:23:47Z</time>
      </trkpt>
      <trkpt lat="43.482428" lon="-5.243051">
        <ele>-55.030</ele>
        <time>2021-10-14T16:23:48Z</time>
      </trkpt>
      <trkpt lat="43.482395" lon="-5.242775">
        <ele>-55.543</ele>
        <time>2021-10-14T16:23:49Z</time>
      </trkpt>
      <trkpt lat="43.482362" lon="-5.242497">
        <ele>-55.190</ele>
        <time>2021-10-14T16:23:50Z</time>
      </trkpt>
      <trkpt lat="43.482301" lon="-5.241975">
        <ele>-54.472</ele>
        <time>2021-10-14T16:23:52Z</time>
      </trkpt>
      <trkpt lat="43.482267" lon="-5.241709">
        <ele>-54.691</ele>
        <time>2021-10-14T16:23:53Z</time>
      </trkpt>
      <trkpt lat="43.482208" lon="-5.241189">
        <ele>-53.781</ele>
        <time>2021-10-14T16:23:55Z</time>
      </trkpt>
      <trkpt lat="43.482178" lon="-5.240925">
        <ele>-53.461</ele>
        <time>2021-10-14T16:23:56Z</time>
      </trkpt>
      <trkpt lat="43.482132" lon="-5.240424">
        <ele>-52.317</ele>
        <time>2021-10-14T16:23:58Z</time>
      </trkpt>
      <trkpt lat="43.482079" lon="-5.239912">
        <ele>-50.908</ele>
        <time>2021-10-14T16:24:00Z</time>
      </trkpt>
      <trkpt lat="43.482024" lon="-5.239395">
        <ele>-48.626</ele>
        <time>2021-10-14T16:24:02Z</time>
      </trkpt>
      <trkpt lat="43.481964" lon="-5.238879">
        <ele>-49.094</ele>
        <time>2021-10-14T16:24:04Z</time>
      </trkpt>
      <trkpt lat="43.481911" lon="-5.238323">
        <ele>-49.952</ele>
        <time>2021-10-14T16:24:06Z</time>
      </trkpt>
      <trkpt lat="43.481881" lon="-5.238036">
        <ele>-50.099</ele>
        <time>2021-10-14T16:24:07Z</time>
      </trkpt>
      <trkpt lat="43.481847" lon="-5.237752">
        <ele>-51.752</ele>
        <time>2021-10-14T16:24:08Z</time>
      </trkpt>
      <trkpt lat="43.481781" lon="-5.237242">
        <ele>-52.489</ele>
        <time>2021-10-14T16:24:10Z</time>
      </trkpt>
      <trkpt lat="43.481752" lon="-5.236994">
        <ele>-53.941</ele>
        <time>2021-10-14T16:24:11Z</time>
      </trkpt>
      <trkpt lat="43.481694" lon="-5.236522">
        <ele>-55.010</ele>
        <time>2021-10-14T16:24:13Z</time>
      </trkpt>
      <trkpt lat="43.481668" lon="-5.236290">
        <ele>-55.234</ele>
        <time>2021-10-14T16:24:14Z</time>
      </trkpt>
      <trkpt lat="43.481620" lon="-5.235865">
        <ele>-58.655</ele>
        <time>2021-10-14T16:24:16Z</time>
      </trkpt>
      <trkpt lat="43.481574" lon="-5.235457">
        <ele>-60.310</ele>
        <time>2021-10-14T16:24:18Z</time>
      </trkpt>
      <trkpt lat="43.481529" lon="-5.235065">
        <ele>-61.608</ele>
        <time>2021-10-14T16:24:20Z</time>
      </trkpt>
      <trkpt lat="43.481478" lon="-5.234659">
        <ele>-63.391</ele>
        <time>2021-10-14T16:24:22Z</time>
      </trkpt>
      <trkpt lat="43.481441" lon="-5.234460">
        <ele>-63.089</ele>
        <time>2021-10-14T16:24:23Z</time>
      </trkpt>
      <trkpt lat="43.481384" lon="-5.234270">
        <ele>-64.537</ele>
        <time>2021-10-14T16:24:24Z</time>
      </trkpt>
      <trkpt lat="43.481305" lon="-5.234084">
        <ele>-63.944</ele>
        <time>2021-10-14T16:24:25Z</time>
      </trkpt>
      <trkpt lat="43.481212" lon="-5.233894">
        <ele>-64.717</ele>
        <time>2021-10-14T16:24:26Z</time>
      </trkpt>
      <trkpt lat="43.481026" lon="-5.233500">
        <ele>-65.974</ele>
        <time>2021-10-14T16:24:28Z</time>
      </trkpt>
      <trkpt lat="43.480831" lon="-5.233095">
        <ele>-67.826</ele>
        <time>2021-10-14T16:24:30Z</time>
      </trkpt>
      <trkpt lat="43.480739" lon="-5.232906">
        <ele>-69.765</ele>
        <time>2021-10-14T16:24:31Z</time>
      </trkpt>
      <trkpt lat="43.480652" lon="-5.232726">
        <ele>-70.338</ele>
        <time>2021-10-14T16:24:32Z</time>
      </trkpt>
      <trkpt lat="43.480519" lon="-5.232440">
        <ele>-71.270</ele>
        <time>2021-10-14T16:24:34Z</time>
      </trkpt>
      <trkpt lat="43.480460" lon="-5.232314">
        <ele>-72.817</ele>
        <time>2021-10-14T16:24:35Z</time>
      </trkpt>
      <trkpt lat="43.480358" lon="-5.232095">
        <ele>-73.208</ele>
        <time>2021-10-14T16:24:37Z</time>
      </trkpt>
      <trkpt lat="43.480308" lon="-5.231989">
        <ele>-73.981</ele>
        <time>2021-10-14T16:24:38Z</time>
      </trkpt>
      <trkpt lat="43.480215" lon="-5.231795">
        <ele>-73.729</ele>
        <time>2021-10-14T16:24:40Z</time>
      </trkpt>
      <trkpt lat="43.480135" lon="-5.231609">
        <ele>-75.797</ele>
        <time>2021-10-14T16:24:42Z</time>
      </trkpt>
      <trkpt lat="43.480093" lon="-5.231514">
        <ele>-75.524</ele>
        <time>2021-10-14T16:24:43Z</time>
      </trkpt>
      <trkpt lat="43.480046" lon="-5.231409">
        <ele>-75.017</ele>
        <time>2021-10-14T16:24:44Z</time>
      </trkpt>
      <trkpt lat="43.479940" lon="-5.231182">
        <ele>-75.774</ele>
        <time>2021-10-14T16:24:46Z</time>
      </trkpt>
      <trkpt lat="43.479813" lon="-5.230900">
        <ele>-76.376</ele>
        <time>2021-10-14T16:24:48Z</time>
      </trkpt>
      <trkpt lat="43.479681" lon="-5.230599">
        <ele>-76.535</ele>
        <time>2021-10-14T16:24:50Z</time>
      </trkpt>
      <trkpt lat="43.479567" lon="-5.230333">
        <ele>-76.517</ele>
        <time>2021-10-14T16:24:52Z</time>
      </trkpt>
      <trkpt lat="43.479453" lon="-5.230062">
        <ele>-77.787</ele>
        <time>2021-10-14T16:24:54Z</time>
      </trkpt>
      <trkpt lat="43.479339" lon="-5.229790">
        <ele>-77.415</ele>
        <time>2021-10-14T16:24:56Z</time>
      </trkpt>
      <trkpt lat="43.479223" lon="-5.229509">
        <ele>-77.908</ele>
        <time>2021-10-14T16:24:58Z</time>
      </trkpt>
      <trkpt lat="43.479083" lon="-5.229216">
        <ele>-77.459</ele>
        <time>2021-10-14T16:25:00Z</time>
      </trkpt>
      <trkpt lat="43.479010" lon="-5.229062">
        <ele>-76.457</ele>
        <time>2021-10-14T16:25:01Z</time>
      </trkpt>
      <trkpt lat="43.478935" lon="-5.228898">
        <ele>-77.015</ele>
        <time>2021-10-14T16:25:02Z</time>
      </trkpt>
      <trkpt lat="43.478790" lon="-5.228571">
        <ele>-75.862</ele>
        <time>2021-10-14T16:25:04Z</time>
      </trkpt>
      <trkpt lat="43.478641" lon="-5.228244">
        <ele>-73.785</ele>
        <time>2021-10-14T16:25:06Z</time>
      </trkpt>
      <trkpt lat="43.478571" lon="-5.228096">
        <ele>-73.792</ele>
        <time>2021-10-14T16:25:07Z</time>
      </trkpt>
      <trkpt lat="43.478506" lon="-5.227954">
        <ele>-72.934</ele>
        <time>2021-10-14T16:25:08Z</time>
      </trkpt>
      <trkpt lat="43.478394" lon="-5.227706">
        <ele>-72.933</ele>
        <time>2021-10-14T16:25:10Z</time>
      </trkpt>
      <trkpt lat="43.478281" lon="-5.227446">
        <ele>-71.027</ele>
        <time>2021-10-14T16:25:12Z</time>
      </trkpt>
      <trkpt lat="43.478222" lon="-5.227313">
        <ele>-71.268</ele>
        <time>2021-10-14T16:25:13Z</time>
      </trkpt>
      <trkpt lat="43.478162" lon="-5.227179">
        <ele>-71.214</ele>
        <time>2021-10-14T16:25:14Z</time>
      </trkpt>
      <trkpt lat="43.478037" lon="-5.226903">
        <ele>-71.708</ele>
        <time>2021-10-14T16:25:16Z</time>
      </trkpt>
      <trkpt lat="43.477969" lon="-5.226751">
        <ele>-71.860</ele>
        <time>2021-10-14T16:25:17Z</time>
      </trkpt>
      <trkpt lat="43.477823" lon="-5.226433">
        <ele>-72.328</ele>
        <time>2021-10-14T16:25:19Z</time>
      </trkpt>
      <trkpt lat="43.477745" lon="-5.226260">
        <ele>-73.026</ele>
        <time>2021-10-14T16:25:20Z</time>
      </trkpt>
      <trkpt lat="43.477595" lon="-5.225921">
        <ele>-72.453</ele>
        <time>2021-10-14T16:25:22Z</time>
      </trkpt>
      <trkpt lat="43.477442" lon="-5.225587">
        <ele>-73.316</ele>
        <time>2021-10-14T16:25:24Z</time>
      </trkpt>
      <trkpt lat="43.477369" lon="-5.225423">
        <ele>-73.843</ele>
        <time>2021-10-14T16:25:25Z</time>
      </trkpt>
      <trkpt lat="43.477297" lon="-5.225256">
        <ele>-74.445</ele>
        <time>2021-10-14T16:25:26Z</time>
      </trkpt>
      <trkpt lat="43.477167" lon="-5.224961">
        <ele>-73.774</ele>
        <time>2021-10-14T16:25:28Z</time>
      </trkpt>
      <trkpt lat="43.477059" lon="-5.224716">
        <ele>-74.354</ele>
        <time>2021-10-14T16:25:30Z</time>
      </trkpt>
      <trkpt lat="43.477014" lon="-5.224615">
        <ele>-73.756</ele>
        <time>2021-10-14T16:25:31Z</time>
      </trkpt>
      <trkpt lat="43.476969" lon="-5.224525">
        <ele>-74.011</ele>
        <time>2021-10-14T16:25:32Z</time>
      </trkpt>
      <trkpt lat="43.476879" lon="-5.224343">
        <ele>-72.708</ele>
        <time>2021-10-14T16:25:34Z</time>
      </trkpt>
      <trkpt lat="43.476820" lon="-5.224227">
        <ele>-72.713</ele>
        <time>2021-10-14T16:25:35Z</time>
      </trkpt>
      <trkpt lat="43.476697" lon="-5.223954">
        <ele>-71.711</ele>
        <time>2021-10-14T16:25:37Z</time>
      </trkpt>
      <trkpt lat="43.476631" lon="-5.223808">
        <ele>-72.219</ele>
        <time>2021-10-14T16:25:38Z</time>
      </trkpt>
      <trkpt lat="43.476502" lon="-5.223525">
        <ele>-71.496</ele>
        <time>2021-10-14T16:25:40Z</time>
      </trkpt>
      <trkpt lat="43.476444" lon="-5.223388">
        <ele>-71.229</ele>
        <time>2021-10-14T16:25:41Z</time>
      </trkpt>
      <trkpt lat="43.476336" lon="-5.223146">
        <ele>-70.786</ele>
        <time>2021-10-14T16:25:43Z</time>
      </trkpt>
      <trkpt lat="43.476284" lon="-5.223027">
        <ele>-70.838</ele>
        <time>2021-10-14T16:25:44Z</time>
      </trkpt>
      <trkpt lat="43.476179" lon="-5.222787">
        <ele>-71.267</ele>
        <time>2021-10-14T16:25:46Z</time>
      </trkpt>
      <trkpt lat="43.476125" lon="-5.222668">
        <ele>-72.296</ele>
        <time>2021-10-14T16:25:47Z</time>
      </trkpt>
      <trkpt lat="43.476017" lon="-5.222428">
        <ele>-72.231</ele>
        <time>2021-10-14T16:25:49Z</time>
      </trkpt>
      <trkpt lat="43.475959" lon="-5.222298">
        <ele>-72.724</ele>
        <time>2021-10-14T16:25:50Z</time>
      </trkpt>
      <trkpt lat="43.475838" lon="-5.222029">
        <ele>-72.308</ele>
        <time>2021-10-14T16:25:52Z</time>
      </trkpt>
      <trkpt lat="43.475778" lon="-5.221891">
        <ele>-71.717</ele>
        <time>2021-10-14T16:25:53Z</time>
      </trkpt>
      <trkpt lat="43.475668" lon="-5.221646">
        <ele>-71.785</ele>
        <time>2021-10-14T16:25:55Z</time>
      </trkpt>
      <trkpt lat="43.475615" lon="-5.221523">
        <ele>-71.863</ele>
        <time>2021-10-14T16:25:56Z</time>
      </trkpt>
      <trkpt lat="43.475507" lon="-5.221263">
        <ele>-72.270</ele>
        <time>2021-10-14T16:25:58Z</time>
      </trkpt>
      <trkpt lat="43.475446" lon="-5.221120">
        <ele>-74.493</ele>
        <time>2021-10-14T16:25:59Z</time>
      </trkpt>
      <trkpt lat="43.475304" lon="-5.220820">
        <ele>-72.340</ele>
        <time>2021-10-14T16:26:01Z</time>
      </trkpt>
      <trkpt lat="43.475223" lon="-5.220654">
        <ele>-72.732</ele>
        <time>2021-10-14T16:26:02Z</time>
      </trkpt>
      <trkpt lat="43.475072" lon="-5.220321">
        <ele>-73.941</ele>
        <time>2021-10-14T16:26:04Z</time>
      </trkpt>
      <trkpt lat="43.474917" lon="-5.219978">
        <ele>-75.225</ele>
        <time>2021-10-14T16:26:06Z</time>
      </trkpt>
      <trkpt lat="43.474776" lon="-5.219663">
        <ele>-74.826</ele>
        <time>2021-10-14T16:26:08Z</time>
      </trkpt>
      <trkpt lat="43.474642" lon="-5.219373">
        <ele>-76.208</ele>
        <time>2021-10-14T16:26:10Z</time>
      </trkpt>
      <trkpt lat="43.474501" lon="-5.219059">
        <ele>-77.008</ele>
        <time>2021-10-14T16:26:12Z</time>
      </trkpt>
      <trkpt lat="43.474365" lon="-5.218761">
        <ele>-79.010</ele>
        <time>2021-10-14T16:26:14Z</time>
      </trkpt>
      <trkpt lat="43.474231" lon="-5.218462">
        <ele>-80.928</ele>
        <time>2021-10-14T16:26:16Z</time>
      </trkpt>
      <trkpt lat="43.474071" lon="-5.218102">
        <ele>-81.736</ele>
        <time>2021-10-14T16:26:18Z</time>
      </trkpt>
      <trkpt lat="43.473986" lon="-5.217917">
        <ele>-81.783</ele>
        <time>2021-10-14T16:26:19Z</time>
      </trkpt>
      <trkpt lat="43.473899" lon="-5.217731">
        <ele>-82.566</ele>
        <time>2021-10-14T16:26:20Z</time>
      </trkpt>
      <trkpt lat="43.473745" lon="-5.217389">
        <ele>-80.913</ele>
        <time>2021-10-14T16:26:22Z</time>
      </trkpt>
      <trkpt lat="43.473599" lon="-5.217065">
        <ele>-81.975</ele>
        <time>2021-10-14T16:26:24Z</time>
      </trkpt>
      <trkpt lat="43.473450" lon="-5.216732">
        <ele>-78.934</ele>
        <time>2021-10-14T16:26:26Z</time>
      </trkpt>
      <trkpt lat="43.473296" lon="-5.216402">
        <ele>-77.942</ele>
        <time>2021-10-14T16:26:28Z</time>
      </trkpt>
      <trkpt lat="43.473131" lon="-5.216041">
        <ele>-79.222</ele>
        <time>2021-10-14T16:26:30Z</time>
      </trkpt>
      <trkpt lat="43.473048" lon="-5.215853">
        <ele>-79.214</ele>
        <time>2021-10-14T16:26:31Z</time>
      </trkpt>
      <trkpt lat="43.472963" lon="-5.215662">
        <ele>-79.208</ele>
        <time>2021-10-14T16:26:32Z</time>
      </trkpt>
      <trkpt lat="43.472797" lon="-5.215283">
        <ele>-79.492</ele>
        <time>2021-10-14T16:26:34Z</time>
      </trkpt>
      <trkpt lat="43.472710" lon="-5.215092">
        <ele>-80.780</ele>
        <time>2021-10-14T16:26:35Z</time>
      </trkpt>
      <trkpt lat="43.472541" lon="-5.214710">
        <ele>-80.498</ele>
        <time>2021-10-14T16:26:37Z</time>
      </trkpt>
      <trkpt lat="43.472458" lon="-5.214528">
        <ele>-80.965</ele>
        <time>2021-10-14T16:26:38Z</time>
      </trkpt>
      <trkpt lat="43.472317" lon="-5.214213">
        <ele>-80.988</ele>
        <time>2021-10-14T16:26:40Z</time>
      </trkpt>
      <trkpt lat="43.472190" lon="-5.213937">
        <ele>-80.545</ele>
        <time>2021-10-14T16:26:42Z</time>
      </trkpt>
      <trkpt lat="43.472130" lon="-5.213805">
        <ele>-80.997</ele>
        <time>2021-10-14T16:26:43Z</time>
      </trkpt>
      <trkpt lat="43.472066" lon="-5.213667">
        <ele>-80.796</ele>
        <time>2021-10-14T16:26:44Z</time>
      </trkpt>
      <trkpt lat="43.471933" lon="-5.213416">
        <ele>-78.253</ele>
        <time>2021-10-14T16:26:46Z</time>
      </trkpt>
      <trkpt lat="43.471850" lon="-5.213303">
        <ele>-77.404</ele>
        <time>2021-10-14T16:26:47Z</time>
      </trkpt>
      <trkpt lat="43.471645" lon="-5.213131">
        <ele>-73.214</ele>
        <time>2021-10-14T16:26:49Z</time>
      </trkpt>
      <trkpt lat="43.471522" lon="-5.213074">
        <ele>-72.708</ele>
        <time>2021-10-14T16:26:50Z</time>
      </trkpt>
      <trkpt lat="43.471275" lon="-5.213047">
        <ele>-70.293</ele>
        <time>2021-10-14T16:26:52Z</time>
      </trkpt>
      <trkpt lat="43.471149" lon="-5.213051">
        <ele>-68.891</ele>
        <time>2021-10-14T16:26:53Z</time>
      </trkpt>
      <trkpt lat="43.470906" lon="-5.213031">
        <ele>-68.439</ele>
        <time>2021-10-14T16:26:55Z</time>
      </trkpt>
      <trkpt lat="43.470788" lon="-5.213005">
        <ele>-65.776</ele>
        <time>2021-10-14T16:26:56Z</time>
      </trkpt>
      <trkpt lat="43.470584" lon="-5.212953">
        <ele>-65.349</ele>
        <time>2021-10-14T16:26:58Z</time>
      </trkpt>
      <trkpt lat="43.470414" lon="-5.212847">
        <ele>-64.466</ele>
        <time>2021-10-14T16:27:00Z</time>
      </trkpt>
      <trkpt lat="43.470349" lon="-5.212745">
        <ele>-62.658</ele>
        <time>2021-10-14T16:27:01Z</time>
      </trkpt>
      <trkpt lat="43.470299" lon="-5.212613">
        <ele>-61.567</ele>
        <time>2021-10-14T16:27:02Z</time>
      </trkpt>
      <trkpt lat="43.470285" lon="-5.212299">
        <ele>-60.486</ele>
        <time>2021-10-14T16:27:04Z</time>
      </trkpt>
      <trkpt lat="43.470308" lon="-5.212127">
        <ele>-61.260</ele>
        <time>2021-10-14T16:27:05Z</time>
      </trkpt>
      <trkpt lat="43.470370" lon="-5.211810">
        <ele>-58.926</ele>
        <time>2021-10-14T16:27:07Z</time>
      </trkpt>
      <trkpt lat="43.470395" lon="-5.211672">
        <ele>-58.508</ele>
        <time>2021-10-14T16:27:08Z</time>
      </trkpt>
      <trkpt lat="43.470423" lon="-5.211433">
        <ele>-57.246</ele>
        <time>2021-10-14T16:27:10Z</time>
      </trkpt>
      <trkpt lat="43.470375" lon="-5.211190">
        <ele>-56.744</ele>
        <time>2021-10-14T16:27:12Z</time>
      </trkpt>
      <trkpt lat="43.470315" lon="-5.211078">
        <ele>-56.682</ele>
        <time>2021-10-14T16:27:13Z</time>
      </trkpt>
      <trkpt lat="43.470235" lon="-5.210981">
        <ele>-57.399</ele>
        <time>2021-10-14T16:27:14Z</time>
      </trkpt>
      <trkpt lat="43.470029" lon="-5.210833">
        <ele>-56.092</ele>
        <time>2021-10-14T16:27:16Z</time>
      </trkpt>
      <trkpt lat="43.469791" lon="-5.210670">
        <ele>-53.859</ele>
        <time>2021-10-14T16:27:18Z</time>
      </trkpt>
      <trkpt lat="43.469678" lon="-5.210589">
        <ele>-54.871</ele>
        <time>2021-10-14T16:27:19Z</time>
      </trkpt>
      <trkpt lat="43.469569" lon="-5.210512">
        <ele>-52.650</ele>
        <time>2021-10-14T16:27:20Z</time>
      </trkpt>
      <trkpt lat="43.469382" lon="-5.210380">
        <ele>-52.158</ele>
        <time>2021-10-14T16:27:22Z</time>
      </trkpt>
      <trkpt lat="43.469291" lon="-5.210316">
        <ele>-50.252</ele>
        <time>2021-10-14T16:27:23Z</time>
      </trkpt>
      <trkpt lat="43.469191" lon="-5.210245">
        <ele>-50.617</ele>
        <time>2021-10-14T16:27:24Z</time>
      </trkpt>
      <trkpt lat="43.468960" lon="-5.210078">
        <ele>-51.008</ele>
        <time>2021-10-14T16:27:26Z</time>
      </trkpt>
      <trkpt lat="43.468724" lon="-5.209909">
        <ele>-48.453</ele>
        <time>2021-10-14T16:27:28Z</time>
      </trkpt>
      <trkpt lat="43.468607" lon="-5.209822">
        <ele>-47.491</ele>
        <time>2021-10-14T16:27:29Z</time>
      </trkpt>
      <trkpt lat="43.468398" lon="-5.209631">
        <ele>-46.199</ele>
        <time>2021-10-14T16:27:31Z</time>
      </trkpt>
      <trkpt lat="43.468305" lon="-5.209516">
        <ele>-44.596</ele>
        <time>2021-10-14T16:27:32Z</time>
      </trkpt>
      <trkpt lat="43.468161" lon="-5.209244">
        <ele>-43.719</ele>
        <time>2021-10-14T16:27:34Z</time>
      </trkpt>
      <trkpt lat="43.468096" lon="-5.209088">
        <ele>-43.076</ele>
        <time>2021-10-14T16:27:35Z</time>
      </trkpt>
      <trkpt lat="43.467972" lon="-5.208791">
        <ele>-42.168</ele>
        <time>2021-10-14T16:27:37Z</time>
      </trkpt>
      <trkpt lat="43.467914" lon="-5.208650">
        <ele>-41.117</ele>
        <time>2021-10-14T16:27:38Z</time>
      </trkpt>
      <trkpt lat="43.467813" lon="-5.208409">
        <ele>-41.074</ele>
        <time>2021-10-14T16:27:40Z</time>
      </trkpt>
      <trkpt lat="43.467759" lon="-5.208280">
        <ele>-41.456</ele>
        <time>2021-10-14T16:27:41Z</time>
      </trkpt>
      <trkpt lat="43.467648" lon="-5.208018">
        <ele>-39.521</ele>
        <time>2021-10-14T16:27:43Z</time>
      </trkpt>
      <trkpt lat="43.467595" lon="-5.207883">
        <ele>-39.708</ele>
        <time>2021-10-14T16:27:44Z</time>
      </trkpt>
      <trkpt lat="43.467522" lon="-5.207599">
        <ele>-38.415</ele>
        <time>2021-10-14T16:27:46Z</time>
      </trkpt>
      <trkpt lat="43.467501" lon="-5.207257">
        <ele>-36.523</ele>
        <time>2021-10-14T16:27:48Z</time>
      </trkpt>
      <trkpt lat="43.467499" lon="-5.207048">
        <ele>-37.031</ele>
        <time>2021-10-14T16:27:49Z</time>
      </trkpt>
      <trkpt lat="43.467499" lon="-5.206808">
        <ele>-36.178</ele>
        <time>2021-10-14T16:27:50Z</time>
      </trkpt>
      <trkpt lat="43.467481" lon="-5.206273">
        <ele>-33.151</ele>
        <time>2021-10-14T16:27:52Z</time>
      </trkpt>
      <trkpt lat="43.467465" lon="-5.205977">
        <ele>-33.468</ele>
        <time>2021-10-14T16:27:53Z</time>
      </trkpt>
      <trkpt lat="43.467451" lon="-5.205339">
        <ele>-29.140</ele>
        <time>2021-10-14T16:27:55Z</time>
      </trkpt>
      <trkpt lat="43.467447" lon="-5.204996">
        <ele>-28.899</ele>
        <time>2021-10-14T16:27:56Z</time>
      </trkpt>
      <trkpt lat="43.467439" lon="-5.204315">
        <ele>-25.978</ele>
        <time>2021-10-14T16:27:58Z</time>
      </trkpt>
      <trkpt lat="43.467427" lon="-5.203951">
        <ele>-24.033</ele>
        <time>2021-10-14T16:27:59Z</time>
      </trkpt>
      <trkpt lat="43.467410" lon="-5.203597">
        <ele>-23.326</ele>
        <time>2021-10-14T16:28:00Z</time>
      </trkpt>
      <trkpt lat="43.467386" lon="-5.203262">
        <ele>-21.808</ele>
        <time>2021-10-14T16:28:01Z</time>
      </trkpt>
      <trkpt lat="43.467361" lon="-5.202949">
        <ele>-19.885</ele>
        <time>2021-10-14T16:28:02Z</time>
      </trkpt>
      <trkpt lat="43.467326" lon="-5.202445">
        <ele>-17.673</ele>
        <time>2021-10-14T16:28:04Z</time>
      </trkpt>
      <trkpt lat="43.467282" lon="-5.202045">
        <ele>-16.181</ele>
        <time>2021-10-14T16:28:06Z</time>
      </trkpt>
      <trkpt lat="43.467220" lon="-5.201674">
        <ele>-12.848</ele>
        <time>2021-10-14T16:28:08Z</time>
      </trkpt>
      <trkpt lat="43.467140" lon="-5.201293">
        <ele>-12.331</ele>
        <time>2021-10-14T16:28:10Z</time>
      </trkpt>
      <trkpt lat="43.467045" lon="-5.200897">
        <ele>-10.828</ele>
        <time>2021-10-14T16:28:12Z</time>
      </trkpt>
      <trkpt lat="43.466976" lon="-5.200711">
        <ele>-10.290</ele>
        <time>2021-10-14T16:28:13Z</time>
      </trkpt>
      <trkpt lat="43.466885" lon="-5.200539">
        <ele>-8.189</ele>
        <time>2021-10-14T16:28:14Z</time>
      </trkpt>
      <trkpt lat="43.466684" lon="-5.200296">
        <ele>-6.661</ele>
        <time>2021-10-14T16:28:16Z</time>
      </trkpt>
      <trkpt lat="43.466585" lon="-5.200215">
        <ele>-6.721</ele>
        <time>2021-10-14T16:28:17Z</time>
      </trkpt>
      <trkpt lat="43.466371" lon="-5.200140">
        <ele>-5.013</ele>
        <time>2021-10-14T16:28:19Z</time>
      </trkpt>
      <trkpt lat="43.466259" lon="-5.200189">
        <ele>-2.708</ele>
        <time>2021-10-14T16:28:20Z</time>
      </trkpt>
      <trkpt lat="43.466060" lon="-5.200457">
        <ele>-2.124</ele>
        <time>2021-10-14T16:28:22Z</time>
      </trkpt>
      <trkpt lat="43.465861" lon="-5.200769">
        <ele>-0.892</ele>
        <time>2021-10-14T16:28:24Z</time>
      </trkpt>
      <trkpt lat="43.465651" lon="-5.201084">
        <ele>1.070</ele>
        <time>2021-10-14T16:28:26Z</time>
      </trkpt>
      <trkpt lat="43.465465" lon="-5.201352">
        <ele>1.497</ele>
        <time>2021-10-14T16:28:28Z</time>
      </trkpt>
      <trkpt lat="43.465377" lon="-5.201471">
        <ele>1.790</ele>
        <time>2021-10-14T16:28:29Z</time>
      </trkpt>
      <trkpt lat="43.465296" lon="-5.201581">
        <ele>2.887</ele>
        <time>2021-10-14T16:28:30Z</time>
      </trkpt>
      <trkpt lat="43.465144" lon="-5.201784">
        <ele>3.479</ele>
        <time>2021-10-14T16:28:32Z</time>
      </trkpt>
      <trkpt lat="43.464982" lon="-5.201949">
        <ele>6.698</ele>
        <time>2021-10-14T16:28:34Z</time>
      </trkpt>
      <trkpt lat="43.464787" lon="-5.202042">
        <ele>8.419</ele>
        <time>2021-10-14T16:28:36Z</time>
      </trkpt>
      <trkpt lat="43.464677" lon="-5.202046">
        <ele>8.509</ele>
        <time>2021-10-14T16:28:37Z</time>
      </trkpt>
      <trkpt lat="43.464553" lon="-5.202033">
        <ele>9.419</ele>
        <time>2021-10-14T16:28:38Z</time>
      </trkpt>
      <trkpt lat="43.464284" lon="-5.202000">
        <ele>9.608</ele>
        <time>2021-10-14T16:28:40Z</time>
      </trkpt>
      <trkpt lat="43.463940" lon="-5.201973">
        <ele>10.289</ele>
        <time>2021-10-14T16:28:42Z</time>
      </trkpt>
      <trkpt lat="43.463762" lon="-5.201972">
        <ele>10.857</ele>
        <time>2021-10-14T16:28:43Z</time>
      </trkpt>
      <trkpt lat="43.463586" lon="-5.201973">
        <ele>11.195</ele>
        <time>2021-10-14T16:28:44Z</time>
      </trkpt>
      <trkpt lat="43.463241" lon="-5.201967">
        <ele>13.192</ele>
        <time>2021-10-14T16:28:46Z</time>
      </trkpt>
      <trkpt lat="43.462941" lon="-5.201946">
        <ele>14.685</ele>
        <time>2021-10-14T16:28:48Z</time>
      </trkpt>
      <trkpt lat="43.462679" lon="-5.201854">
        <ele>15.592</ele>
        <time>2021-10-14T16:28:50Z</time>
      </trkpt>
      <trkpt lat="43.462455" lon="-5.201595">
        <ele>16.374</ele>
        <time>2021-10-14T16:28:52Z</time>
      </trkpt>
      <trkpt lat="43.462367" lon="-5.201420">
        <ele>17.063</ele>
        <time>2021-10-14T16:28:53Z</time>
      </trkpt>
      <trkpt lat="43.462267" lon="-5.201034">
        <ele>16.792</ele>
        <time>2021-10-14T16:28:55Z</time>
      </trkpt>
      <trkpt lat="43.462253" lon="-5.200843">
        <ele>17.373</ele>
        <time>2021-10-14T16:28:56Z</time>
      </trkpt>
      <trkpt lat="43.462297" lon="-5.200522">
        <ele>18.020</ele>
        <time>2021-10-14T16:28:58Z</time>
      </trkpt>
      <trkpt lat="43.462431" lon="-5.200271">
        <ele>16.708</ele>
        <time>2021-10-14T16:29:00Z</time>
      </trkpt>
      <trkpt lat="43.462639" lon="-5.200108">
        <ele>15.977</ele>
        <time>2021-10-14T16:29:02Z</time>
      </trkpt>
      <trkpt lat="43.462889" lon="-5.200016">
        <ele>16.065</ele>
        <time>2021-10-14T16:29:04Z</time>
      </trkpt>
      <trkpt lat="43.463163" lon="-5.199836">
        <ele>16.153</ele>
        <time>2021-10-14T16:29:06Z</time>
      </trkpt>
      <trkpt lat="43.463410" lon="-5.199550">
        <ele>16.480</ele>
        <time>2021-10-14T16:29:08Z</time>
      </trkpt>
      <trkpt lat="43.463576" lon="-5.199183">
        <ele>17.633</ele>
        <time>2021-10-14T16:29:10Z</time>
      </trkpt>
      <trkpt lat="43.463619" lon="-5.198967">
        <ele>17.610</ele>
        <time>2021-10-14T16:29:11Z</time>
      </trkpt>
      <trkpt lat="43.463627" lon="-5.198533">
        <ele>17.652</ele>
        <time>2021-10-14T16:29:13Z</time>
      </trkpt>
      <trkpt lat="43.463612" lon="-5.198317">
        <ele>19.061</ele>
        <time>2021-10-14T16:29:14Z</time>
      </trkpt>
      <trkpt lat="43.463515" lon="-5.197944">
        <ele>19.627</ele>
        <time>2021-10-14T16:29:16Z</time>
      </trkpt>
      <trkpt lat="43.463433" lon="-5.197787">
        <ele>20.168</ele>
        <time>2021-10-14T16:29:17Z</time>
      </trkpt>
      <trkpt lat="43.463212" lon="-5.197535">
        <ele>21.114</ele>
        <time>2021-10-14T16:29:19Z</time>
      </trkpt>
      <trkpt lat="43.463087" lon="-5.197416">
        <ele>20.708</ele>
        <time>2021-10-14T16:29:20Z</time>
      </trkpt>
      <trkpt lat="43.462838" lon="-5.197186">
        <ele>22.140</ele>
        <time>2021-10-14T16:29:22Z</time>
      </trkpt>
      <trkpt lat="43.462657" lon="-5.196923">
        <ele>21.348</ele>
        <time>2021-10-14T16:29:24Z</time>
      </trkpt>
      <trkpt lat="43.462591" lon="-5.196780">
        <ele>21.476</ele>
        <time>2021-10-14T16:29:25Z</time>
      </trkpt>
      <trkpt lat="43.462537" lon="-5.196642">
        <ele>21.443</ele>
        <time>2021-10-14T16:29:26Z</time>
      </trkpt>
      <trkpt lat="43.462426" lon="-5.196433">
        <ele>23.286</ele>
        <time>2021-10-14T16:29:28Z</time>
      </trkpt>
      <trkpt lat="43.462367" lon="-5.196348">
        <ele>23.243</ele>
        <time>2021-10-14T16:29:29Z</time>
      </trkpt>
      <trkpt lat="43.462264" lon="-5.196195">
        <ele>23.535</ele>
        <time>2021-10-14T16:29:31Z</time>
      </trkpt>
      <trkpt lat="43.462219" lon="-5.196112">
        <ele>23.654</ele>
        <time>2021-10-14T16:29:32Z</time>
      </trkpt>
      <trkpt lat="43.462127" lon="-5.195942">
        <ele>23.681</ele>
        <time>2021-10-14T16:29:34Z</time>
      </trkpt>
      <trkpt lat="43.462030" lon="-5.195753">
        <ele>24.061</ele>
        <time>2021-10-14T16:29:36Z</time>
      </trkpt>
      <trkpt lat="43.461914" lon="-5.195537">
        <ele>24.217</ele>
        <time>2021-10-14T16:29:38Z</time>
      </trkpt>
      <trkpt lat="43.461784" lon="-5.195302">
        <ele>24.508</ele>
        <time>2021-10-14T16:29:40Z</time>
      </trkpt>
      <trkpt lat="43.461714" lon="-5.195168">
        <ele>24.556</ele>
        <time>2021-10-14T16:29:41Z</time>
      </trkpt>
      <trkpt lat="43.461649" lon="-5.195036">
        <ele>24.564</ele>
        <time>2021-10-14T16:29:42Z</time>
      </trkpt>
      <trkpt lat="43.461524" lon="-5.194788">
        <ele>25.352</ele>
        <time>2021-10-14T16:29:44Z</time>
      </trkpt>
      <trkpt lat="43.461397" lon="-5.194544">
        <ele>26.079</ele>
        <time>2021-10-14T16:29:46Z</time>
      </trkpt>
      <trkpt lat="43.461323" lon="-5.194405">
        <ele>25.932</ele>
        <time>2021-10-14T16:29:47Z</time>
      </trkpt>
      <trkpt lat="43.461177" lon="-5.194124">
        <ele>25.789</ele>
        <time>2021-10-14T16:29:49Z</time>
      </trkpt>
      <trkpt lat="43.461104" lon="-5.193985">
        <ele>24.831</ele>
        <time>2021-10-14T16:29:50Z</time>
      </trkpt>
      <trkpt lat="43.460983" lon="-5.193742">
        <ele>24.430</ele>
        <time>2021-10-14T16:29:52Z</time>
      </trkpt>
      <trkpt lat="43.460930" lon="-5.193627">
        <ele>25.068</ele>
        <time>2021-10-14T16:29:53Z</time>
      </trkpt>
      <trkpt lat="43.460885" lon="-5.193526">
        <ele>25.442</ele>
        <time>2021-10-14T16:29:54Z</time>
      </trkpt>
      <trkpt lat="43.460811" lon="-5.193357">
        <ele>26.126</ele>
        <time>2021-10-14T16:29:56Z</time>
      </trkpt>
      <trkpt lat="43.460763" lon="-5.193278">
        <ele>26.808</ele>
        <time>2021-10-14T16:29:58Z</time>
      </trkpt>
      <trkpt lat="43.460718" lon="-5.193222">
        <ele>26.814</ele>
        <time>2021-10-14T16:30:00Z</time>
      </trkpt>
      <trkpt lat="43.460670" lon="-5.193149">
        <ele>26.912</ele>
        <time>2021-10-14T16:30:02Z</time>
      </trkpt>
      <trkpt lat="43.460615" lon="-5.193039">
        <ele>26.910</ele>
        <time>2021-10-14T16:30:04Z</time>
      </trkpt>
      <trkpt lat="43.460564" lon="-5.192880">
        <ele>27.077</ele>
        <time>2021-10-14T16:30:06Z</time>
      </trkpt>
      <trkpt lat="43.460550" lon="-5.192783">
        <ele>27.160</ele>
        <time>2021-10-14T16:30:07Z</time>
      </trkpt>
      <trkpt lat="43.460550" lon="-5.192681">
        <ele>27.287</ele>
        <time>2021-10-14T16:30:08Z</time>
      </trkpt>
      <trkpt lat="43.460585" lon="-5.192505">
        <ele>26.539</ele>
        <time>2021-10-14T16:30:10Z</time>
      </trkpt>
      <trkpt lat="43.460616" lon="-5.192431">
        <ele>26.588</ele>
        <time>2021-10-14T16:30:11Z</time>
      </trkpt>
      <trkpt lat="43.460683" lon="-5.192295">
        <ele>26.549</ele>
        <time>2021-10-14T16:30:13Z</time>
      </trkpt>
      <trkpt lat="43.460722" lon="-5.192208">
        <ele>26.802</ele>
        <time>2021-10-14T16:30:14Z</time>
      </trkpt>
      <trkpt lat="43.460812" lon="-5.191998">
        <ele>26.622</ele>
        <time>2021-10-14T16:30:16Z</time>
      </trkpt>
      <trkpt lat="43.460916" lon="-5.191745">
        <ele>26.708</ele>
        <time>2021-10-14T16:30:18Z</time>
      </trkpt>
      <trkpt lat="43.460967" lon="-5.191615">
        <ele>26.592</ele>
        <time>2021-10-14T16:30:19Z</time>
      </trkpt>
      <trkpt lat="43.461013" lon="-5.191492">
        <ele>27.150</ele>
        <time>2021-10-14T16:30:20Z</time>
      </trkpt>
      <trkpt lat="43.461086" lon="-5.191287">
        <ele>27.958</ele>
        <time>2021-10-14T16:30:22Z</time>
      </trkpt>
      <trkpt lat="43.461146" lon="-5.191109">
        <ele>28.245</ele>
        <time>2021-10-14T16:30:24Z</time>
      </trkpt>
      <trkpt lat="43.461207" lon="-5.190912">
        <ele>28.558</ele>
        <time>2021-10-14T16:30:26Z</time>
      </trkpt>
      <trkpt lat="43.461259" lon="-5.190687">
        <ele>29.525</ele>
        <time>2021-10-14T16:30:28Z</time>
      </trkpt>
      <trkpt lat="43.461276" lon="-5.190578">
        <ele>29.797</ele>
        <time>2021-10-14T16:30:29Z</time>
      </trkpt>
      <trkpt lat="43.461288" lon="-5.190476">
        <ele>30.176</ele>
        <time>2021-10-14T16:30:30Z</time>
      </trkpt>
      <trkpt lat="43.461306" lon="-5.190311">
        <ele>31.444</ele>
        <time>2021-10-14T16:30:32Z</time>
      </trkpt>
      <trkpt lat="43.461315" lon="-5.190183">
        <ele>32.005</ele>
        <time>2021-10-14T16:30:34Z</time>
      </trkpt>
      <trkpt lat="43.461302" lon="-5.189979">
        <ele>33.615</ele>
        <time>2021-10-14T16:30:36Z</time>
      </trkpt>
      <trkpt lat="43.461244" lon="-5.189742">
        <ele>34.208</ele>
        <time>2021-10-14T16:30:38Z</time>
      </trkpt>
      <trkpt lat="43.461175" lon="-5.189527">
        <ele>36.242</ele>
        <time>2021-10-14T16:30:40Z</time>
      </trkpt>
      <trkpt lat="43.461143" lon="-5.189418">
        <ele>37.610</ele>
        <time>2021-10-14T16:30:41Z</time>
      </trkpt>
      <trkpt lat="43.461090" lon="-5.189192">
        <ele>38.848</ele>
        <time>2021-10-14T16:30:43Z</time>
      </trkpt>
      <trkpt lat="43.461064" lon="-5.189069">
        <ele>39.975</ele>
        <time>2021-10-14T16:30:44Z</time>
      </trkpt>
      <trkpt lat="43.461033" lon="-5.188832">
        <ele>40.768</ele>
        <time>2021-10-14T16:30:46Z</time>
      </trkpt>
      <trkpt lat="43.461036" lon="-5.188605">
        <ele>41.315</ele>
        <time>2021-10-14T16:30:48Z</time>
      </trkpt>
      <trkpt lat="43.461085" lon="-5.188393">
        <ele>41.817</ele>
        <time>2021-10-14T16:30:50Z</time>
      </trkpt>
      <trkpt lat="43.461162" lon="-5.188211">
        <ele>43.366</ele>
        <time>2021-10-14T16:30:52Z</time>
      </trkpt>
      <trkpt lat="43.461206" lon="-5.188117">
        <ele>43.839</ele>
        <time>2021-10-14T16:30:53Z</time>
      </trkpt>
      <trkpt lat="43.461286" lon="-5.187941">
        <ele>44.301</ele>
        <time>2021-10-14T16:30:55Z</time>
      </trkpt>
      <trkpt lat="43.461323" lon="-5.187852">
        <ele>44.621</ele>
        <time>2021-10-14T16:30:56Z</time>
      </trkpt>
      <trkpt lat="43.461397" lon="-5.187695">
        <ele>44.608</ele>
        <time>2021-10-14T16:30:58Z</time>
      </trkpt>
      <trkpt lat="43.461463" lon="-5.187581">
        <ele>44.611</ele>
        <time>2021-10-14T16:31:00Z</time>
      </trkpt>
      <trkpt lat="43.461547" lon="-5.187455">
        <ele>44.679</ele>
        <time>2021-10-14T16:31:02Z</time>
      </trkpt>
      <trkpt lat="43.461642" lon="-5.187338">
        <ele>44.957</ele>
        <time>2021-10-14T16:31:04Z</time>
      </trkpt>
      <trkpt lat="43.461698" lon="-5.187285">
        <ele>44.714</ele>
        <time>2021-10-14T16:31:05Z</time>
      </trkpt>
      <trkpt lat="43.461846" lon="-5.187205">
        <ele>44.747</ele>
        <time>2021-10-14T16:31:07Z</time>
      </trkpt>
      <trkpt lat="43.461950" lon="-5.187189">
        <ele>44.614</ele>
        <time>2021-10-14T16:31:08Z</time>
      </trkpt>
      <trkpt lat="43.462195" lon="-5.187153">
        <ele>44.556</ele>
        <time>2021-10-14T16:31:10Z</time>
      </trkpt>
      <trkpt lat="43.462343" lon="-5.187110">
        <ele>44.955</ele>
        <time>2021-10-14T16:31:11Z</time>
      </trkpt>
      <trkpt lat="43.462666" lon="-5.186993">
        <ele>47.159</ele>
        <time>2021-10-14T16:31:13Z</time>
      </trkpt>
      <trkpt lat="43.462835" lon="-5.186945">
        <ele>48.203</ele>
        <time>2021-10-14T16:31:14Z</time>
      </trkpt>
      <trkpt lat="43.463127" lon="-5.186883">
        <ele>49.323</ele>
        <time>2021-10-14T16:31:16Z</time>
      </trkpt>
      <trkpt lat="43.463251" lon="-5.186844">
        <ele>49.508</ele>
        <time>2021-10-14T16:31:17Z</time>
      </trkpt>
      <trkpt lat="43.463470" lon="-5.186758">
        <ele>49.423</ele>
        <time>2021-10-14T16:31:19Z</time>
      </trkpt>
      <trkpt lat="43.463588" lon="-5.186696">
        <ele>49.481</ele>
        <time>2021-10-14T16:31:20Z</time>
      </trkpt>
      <trkpt lat="43.463815" lon="-5.186543">
        <ele>48.659</ele>
        <time>2021-10-14T16:31:22Z</time>
      </trkpt>
      <trkpt lat="43.464051" lon="-5.186324">
        <ele>48.476</ele>
        <time>2021-10-14T16:31:24Z</time>
      </trkpt>
      <trkpt lat="43.464171" lon="-5.186171">
        <ele>48.019</ele>
        <time>2021-10-14T16:31:25Z</time>
      </trkpt>
      <trkpt lat="43.464303" lon="-5.185992">
        <ele>47.626</ele>
        <time>2021-10-14T16:31:26Z</time>
      </trkpt>
      <trkpt lat="43.464559" lon="-5.185632">
        <ele>47.248</ele>
        <time>2021-10-14T16:31:28Z</time>
      </trkpt>
      <trkpt lat="43.464835" lon="-5.185308">
        <ele>45.137</ele>
        <time>2021-10-14T16:31:30Z</time>
      </trkpt>
      <trkpt lat="43.465167" lon="-5.185102">
        <ele>43.332</ele>
        <time>2021-10-14T16:31:32Z</time>
      </trkpt>
      <trkpt lat="43.465435" lon="-5.184919">
        <ele>42.492</ele>
        <time>2021-10-14T16:31:34Z</time>
      </trkpt>
      <trkpt lat="43.465599" lon="-5.184605">
        <ele>42.711</ele>
        <time>2021-10-14T16:31:36Z</time>
      </trkpt>
      <trkpt lat="43.465643" lon="-5.184394">
        <ele>42.408</ele>
        <time>2021-10-14T16:31:37Z</time>
      </trkpt>
      <trkpt lat="43.465678" lon="-5.184167">
        <ele>42.041</ele>
        <time>2021-10-14T16:31:38Z</time>
      </trkpt>
      <trkpt lat="43.465727" lon="-5.183735">
        <ele>40.379</ele>
        <time>2021-10-14T16:31:40Z</time>
      </trkpt>
      <trkpt lat="43.465758" lon="-5.183523">
        <ele>39.757</ele>
        <time>2021-10-14T16:31:41Z</time>
      </trkpt>
      <trkpt lat="43.465868" lon="-5.183126">
        <ele>38.834</ele>
        <time>2021-10-14T16:31:43Z</time>
      </trkpt>
      <trkpt lat="43.465931" lon="-5.182941">
        <ele>38.917</ele>
        <time>2021-10-14T16:31:44Z</time>
      </trkpt>
      <trkpt lat="43.466052" lon="-5.182607">
        <ele>36.724</ele>
        <time>2021-10-14T16:31:46Z</time>
      </trkpt>
      <trkpt lat="43.466112" lon="-5.182443">
        <ele>35.896</ele>
        <time>2021-10-14T16:31:47Z</time>
      </trkpt>
      <trkpt lat="43.466237" lon="-5.182141">
        <ele>33.835</ele>
        <time>2021-10-14T16:31:49Z</time>
      </trkpt>
      <trkpt lat="43.466296" lon="-5.181995">
        <ele>33.845</ele>
        <time>2021-10-14T16:31:50Z</time>
      </trkpt>
      <trkpt lat="43.466370" lon="-5.181702">
        <ele>32.947</ele>
        <time>2021-10-14T16:31:52Z</time>
      </trkpt>
      <trkpt lat="43.466411" lon="-5.181350">
        <ele>32.311</ele>
        <time>2021-10-14T16:31:54Z</time>
      </trkpt>
      <trkpt lat="43.466486" lon="-5.180969">
        <ele>30.208</ele>
        <time>2021-10-14T16:31:56Z</time>
      </trkpt>
      <trkpt lat="43.466625" lon="-5.180627">
        <ele>29.462</ele>
        <time>2021-10-14T16:31:58Z</time>
      </trkpt>
      <trkpt lat="43.466710" lon="-5.180476">
        <ele>27.810</ele>
        <time>2021-10-14T16:31:59Z</time>
      </trkpt>
      <trkpt lat="43.466799" lon="-5.180335">
        <ele>27.438</ele>
        <time>2021-10-14T16:32:00Z</time>
      </trkpt>
      <trkpt lat="43.466959" lon="-5.180035">
        <ele>25.745</ele>
        <time>2021-10-14T16:32:02Z</time>
      </trkpt>
      <trkpt lat="43.467076" lon="-5.179731">
        <ele>24.768</ele>
        <time>2021-10-14T16:32:04Z</time>
      </trkpt>
      <trkpt lat="43.467198" lon="-5.179531">
        <ele>23.245</ele>
        <time>2021-10-14T16:32:06Z</time>
      </trkpt>
      <trkpt lat="43.467271" lon="-5.179470">
        <ele>23.047</ele>
        <time>2021-10-14T16:32:07Z</time>
      </trkpt>
      <trkpt lat="43.467364" lon="-5.179440">
        <ele>21.876</ele>
        <time>2021-10-14T16:32:08Z</time>
      </trkpt>
      <trkpt lat="43.467588" lon="-5.179454">
        <ele>21.437</ele>
        <time>2021-10-14T16:32:10Z</time>
      </trkpt>
      <trkpt lat="43.467724" lon="-5.179463">
        <ele>20.149</ele>
        <time>2021-10-14T16:32:11Z</time>
      </trkpt>
      <trkpt lat="43.467863" lon="-5.179472">
        <ele>19.313</ele>
        <time>2021-10-14T16:32:12Z</time>
      </trkpt>
      <trkpt lat="43.468151" lon="-5.179518">
        <ele>17.408</ele>
        <time>2021-10-14T16:32:14Z</time>
      </trkpt>
      <trkpt lat="43.468401" lon="-5.179523">
        <ele>15.021</ele>
        <time>2021-10-14T16:32:16Z</time>
      </trkpt>
      <trkpt lat="43.468519" lon="-5.179473">
        <ele>14.749</ele>
        <time>2021-10-14T16:32:17Z</time>
      </trkpt>
      <trkpt lat="43.468616" lon="-5.179379">
        <ele>13.537</ele>
        <time>2021-10-14T16:32:18Z</time>
      </trkpt>
      <trkpt lat="43.468693" lon="-5.179255">
        <ele>12.474</ele>
        <time>2021-10-14T16:32:19Z</time>
      </trkpt>
      <trkpt lat="43.468779" lon="-5.179105">
        <ele>11.527</ele>
        <time>2021-10-14T16:32:20Z</time>
      </trkpt>
      <trkpt lat="43.468932" lon="-5.178787">
        <ele>10.184</ele>
        <time>2021-10-14T16:32:22Z</time>
      </trkpt>
      <trkpt lat="43.468989" lon="-5.178375">
        <ele>8.586</ele>
        <time>2021-10-14T16:32:24Z</time>
      </trkpt>
      <trkpt lat="43.468927" lon="-5.177883">
        <ele>7.945</ele>
        <time>2021-10-14T16:32:26Z</time>
      </trkpt>
      <trkpt lat="43.468851" lon="-5.177375">
        <ele>7.889</ele>
        <time>2021-10-14T16:32:28Z</time>
      </trkpt>
      <trkpt lat="43.468885" lon="-5.176836">
        <ele>7.806</ele>
        <time>2021-10-14T16:32:30Z</time>
      </trkpt>
      <trkpt lat="43.468963" lon="-5.176569">
        <ele>6.526</ele>
        <time>2021-10-14T16:32:31Z</time>
      </trkpt>
      <trkpt lat="43.469076" lon="-5.176302">
        <ele>5.808</ele>
        <time>2021-10-14T16:32:32Z</time>
      </trkpt>
      <trkpt lat="43.469300" lon="-5.175816">
        <ele>5.436</ele>
        <time>2021-10-14T16:32:34Z</time>
      </trkpt>
      <trkpt lat="43.469401" lon="-5.175566">
        <ele>5.834</ele>
        <time>2021-10-14T16:32:35Z</time>
      </trkpt>
      <trkpt lat="43.469496" lon="-5.175306">
        <ele>5.962</ele>
        <time>2021-10-14T16:32:36Z</time>
      </trkpt>
      <trkpt lat="43.469586" lon="-5.175040">
        <ele>5.419</ele>
        <time>2021-10-14T16:32:37Z</time>
      </trkpt>
      <trkpt lat="43.469669" lon="-5.174775">
        <ele>4.092</ele>
        <time>2021-10-14T16:32:38Z</time>
      </trkpt>
      <trkpt lat="43.469796" lon="-5.174294">
        <ele>1.839</ele>
        <time>2021-10-14T16:32:40Z</time>
      </trkpt>
      <trkpt lat="43.469918" lon="-5.173838">
        <ele>-1.961</ele>
        <time>2021-10-14T16:32:42Z</time>
      </trkpt>
      <trkpt lat="43.470060" lon="-5.173434">
        <ele>-4.430</ele>
        <time>2021-10-14T16:32:44Z</time>
      </trkpt>
      <trkpt lat="43.470206" lon="-5.173130">
        <ele>-6.239</ele>
        <time>2021-10-14T16:32:46Z</time>
      </trkpt>
      <trkpt lat="43.470266" lon="-5.173001">
        <ele>-6.801</ele>
        <time>2021-10-14T16:32:47Z</time>
      </trkpt>
      <trkpt lat="43.470323" lon="-5.172760">
        <ele>-7.521</ele>
        <time>2021-10-14T16:32:49Z</time>
      </trkpt>
      <trkpt lat="43.470316" lon="-5.172633">
        <ele>-8.008</ele>
        <time>2021-10-14T16:32:50Z</time>
      </trkpt>
      <trkpt lat="43.470249" lon="-5.172408">
        <ele>-7.771</ele>
        <time>2021-10-14T16:32:52Z</time>
      </trkpt>
      <trkpt lat="43.470256" lon="-5.172225">
        <ele>-7.979</ele>
        <time>2021-10-14T16:32:54Z</time>
      </trkpt>
      <trkpt lat="43.470377" lon="-5.172131">
        <ele>-7.517</ele>
        <time>2021-10-14T16:32:56Z</time>
      </trkpt>
      <trkpt lat="43.470538" lon="-5.172174">
        <ele>-7.784</ele>
        <time>2021-10-14T16:32:58Z</time>
      </trkpt>
      <trkpt lat="43.470610" lon="-5.172194">
        <ele>-8.487</ele>
        <time>2021-10-14T16:32:59Z</time>
      </trkpt>
      <trkpt lat="43.470754" lon="-5.172108">
        <ele>-8.184</ele>
        <time>2021-10-14T16:33:01Z</time>
      </trkpt>
      <trkpt lat="43.470830" lon="-5.171996">
        <ele>-9.496</ele>
        <time>2021-10-14T16:33:02Z</time>
      </trkpt>
      <trkpt lat="43.470957" lon="-5.171676">
        <ele>-10.855</ele>
        <time>2021-10-14T16:33:04Z</time>
      </trkpt>
      <trkpt lat="43.471016" lon="-5.171476">
        <ele>-13.147</ele>
        <time>2021-10-14T16:33:05Z</time>
      </trkpt>
      <trkpt lat="43.471108" lon="-5.171005">
        <ele>-15.729</ele>
        <time>2021-10-14T16:33:07Z</time>
      </trkpt>
      <trkpt lat="43.471137" lon="-5.170745">
        <ele>-16.321</ele>
        <time>2021-10-14T16:33:08Z</time>
      </trkpt>
      <trkpt lat="43.471205" lon="-5.170269">
        <ele>-18.008</ele>
        <time>2021-10-14T16:33:10Z</time>
      </trkpt>
      <trkpt lat="43.471399" lon="-5.169888">
        <ele>-21.062</ele>
        <time>2021-10-14T16:33:12Z</time>
      </trkpt>
      <trkpt lat="43.471539" lon="-5.169758">
        <ele>-21.320</ele>
        <time>2021-10-14T16:33:13Z</time>
      </trkpt>
      <trkpt lat="43.471705" lon="-5.169669">
        <ele>-22.378</ele>
        <time>2021-10-14T16:33:14Z</time>
      </trkpt>
      <trkpt lat="43.472065" lon="-5.169593">
        <ele>-25.595</ele>
        <time>2021-10-14T16:33:16Z</time>
      </trkpt>
      <trkpt lat="43.472406" lon="-5.169439">
        <ele>-27.248</ele>
        <time>2021-10-14T16:33:18Z</time>
      </trkpt>
      <trkpt lat="43.472553" lon="-5.169283">
        <ele>-29.595</ele>
        <time>2021-10-14T16:33:19Z</time>
      </trkpt>
      <trkpt lat="43.472688" lon="-5.169083">
        <ele>-30.177</ele>
        <time>2021-10-14T16:33:20Z</time>
      </trkpt>
      <trkpt lat="43.472925" lon="-5.168662">
        <ele>-31.556</ele>
        <time>2021-10-14T16:33:22Z</time>
      </trkpt>
      <trkpt lat="43.473034" lon="-5.168442">
        <ele>-33.449</ele>
        <time>2021-10-14T16:33:23Z</time>
      </trkpt>
      <trkpt lat="43.473122" lon="-5.168227">
        <ele>-34.602</ele>
        <time>2021-10-14T16:33:24Z</time>
      </trkpt>
      <trkpt lat="43.473229" lon="-5.167732">
        <ele>-37.922</ele>
        <time>2021-10-14T16:33:26Z</time>
      </trkpt>
      <trkpt lat="43.473290" lon="-5.167167">
        <ele>-40.508</ele>
        <time>2021-10-14T16:33:28Z</time>
      </trkpt>
      <trkpt lat="43.473326" lon="-5.166877">
        <ele>-39.572</ele>
        <time>2021-10-14T16:33:29Z</time>
      </trkpt>
      <trkpt lat="43.473372" lon="-5.166579">
        <ele>-41.620</ele>
        <time>2021-10-14T16:33:30Z</time>
      </trkpt>
      <trkpt lat="43.473465" lon="-5.165971">
        <ele>-40.918</ele>
        <time>2021-10-14T16:33:32Z</time>
      </trkpt>
      <trkpt lat="43.473545" lon="-5.165385">
        <ele>-42.585</ele>
        <time>2021-10-14T16:33:34Z</time>
      </trkpt>
      <trkpt lat="43.473627" lon="-5.164771">
        <ele>-42.728</ele>
        <time>2021-10-14T16:33:36Z</time>
      </trkpt>
      <trkpt lat="43.473664" lon="-5.164173">
        <ele>-44.115</ele>
        <time>2021-10-14T16:33:38Z</time>
      </trkpt>
      <trkpt lat="43.473682" lon="-5.163661">
        <ele>-45.217</ele>
        <time>2021-10-14T16:33:40Z</time>
      </trkpt>
      <trkpt lat="43.473692" lon="-5.163423">
        <ele>-45.926</ele>
        <time>2021-10-14T16:33:41Z</time>
      </trkpt>
      <trkpt lat="43.473699" lon="-5.163203">
        <ele>-46.067</ele>
        <time>2021-10-14T16:33:42Z</time>
      </trkpt>
      <trkpt lat="43.473695" lon="-5.163006">
        <ele>-45.981</ele>
        <time>2021-10-14T16:33:43Z</time>
      </trkpt>
      <trkpt lat="43.473665" lon="-5.162817">
        <ele>-46.519</ele>
        <time>2021-10-14T16:33:44Z</time>
      </trkpt>
      <trkpt lat="43.473516" lon="-5.162491">
        <ele>-46.908</ele>
        <time>2021-10-14T16:33:46Z</time>
      </trkpt>
      <trkpt lat="43.473324" lon="-5.162223">
        <ele>-46.654</ele>
        <time>2021-10-14T16:33:48Z</time>
      </trkpt>
      <trkpt lat="43.473253" lon="-5.162084">
        <ele>-46.462</ele>
        <time>2021-10-14T16:33:49Z</time>
      </trkpt>
      <trkpt lat="43.473218" lon="-5.161927">
        <ele>-47.020</ele>
        <time>2021-10-14T16:33:50Z</time>
      </trkpt>
      <trkpt lat="43.473272" lon="-5.161594">
        <ele>-46.587</ele>
        <time>2021-10-14T16:33:52Z</time>
      </trkpt>
      <trkpt lat="43.473338" lon="-5.161417">
        <ele>-48.190</ele>
        <time>2021-10-14T16:33:53Z</time>
      </trkpt>
      <trkpt lat="43.473465" lon="-5.161081">
        <ele>-48.197</ele>
        <time>2021-10-14T16:33:55Z</time>
      </trkpt>
      <trkpt lat="43.473484" lon="-5.160921">
        <ele>-46.539</ele>
        <time>2021-10-14T16:33:56Z</time>
      </trkpt>
      <trkpt lat="43.473426" lon="-5.160616">
        <ele>-47.198</ele>
        <time>2021-10-14T16:33:58Z</time>
      </trkpt>
      <trkpt lat="43.473360" lon="-5.160435">
        <ele>-47.033</ele>
        <time>2021-10-14T16:33:59Z</time>
      </trkpt>
      <trkpt lat="43.473180" lon="-5.160048">
        <ele>-47.123</ele>
        <time>2021-10-14T16:34:01Z</time>
      </trkpt>
      <trkpt lat="43.473070" lon="-5.159845">
        <ele>-46.015</ele>
        <time>2021-10-14T16:34:02Z</time>
      </trkpt>
      <trkpt lat="43.472858" lon="-5.159449">
        <ele>-45.508</ele>
        <time>2021-10-14T16:34:04Z</time>
      </trkpt>
      <trkpt lat="43.472697" lon="-5.159013">
        <ele>-43.281</ele>
        <time>2021-10-14T16:34:06Z</time>
      </trkpt>
      <trkpt lat="43.472661" lon="-5.158788">
        <ele>-41.599</ele>
        <time>2021-10-14T16:34:07Z</time>
      </trkpt>
      <trkpt lat="43.472637" lon="-5.158570">
        <ele>-41.777</ele>
        <time>2021-10-14T16:34:08Z</time>
      </trkpt>
      <trkpt lat="43.472535" lon="-5.158204">
        <ele>-40.284</ele>
        <time>2021-10-14T16:34:10Z</time>
      </trkpt>
      <trkpt lat="43.472337" lon="-5.157891">
        <ele>-39.267</ele>
        <time>2021-10-14T16:34:12Z</time>
      </trkpt>
      <trkpt lat="43.472226" lon="-5.157770">
        <ele>-38.974</ele>
        <time>2021-10-14T16:34:13Z</time>
      </trkpt>
      <trkpt lat="43.472099" lon="-5.157678">
        <ele>-38.596</ele>
        <time>2021-10-14T16:34:14Z</time>
      </trkpt>
      <trkpt lat="43.471831" lon="-5.157578">
        <ele>-37.915</ele>
        <time>2021-10-14T16:34:16Z</time>
      </trkpt>
      <trkpt lat="43.471693" lon="-5.157497">
        <ele>-36.274</ele>
        <time>2021-10-14T16:34:17Z</time>
      </trkpt>
      <trkpt lat="43.471490" lon="-5.157230">
        <ele>-36.256</ele>
        <time>2021-10-14T16:34:19Z</time>
      </trkpt>
      <trkpt lat="43.471443" lon="-5.157048">
        <ele>-35.921</ele>
        <time>2021-10-14T16:34:20Z</time>
      </trkpt>
      <trkpt lat="43.471464" lon="-5.156645">
        <ele>-35.508</ele>
        <time>2021-10-14T16:34:22Z</time>
      </trkpt>
      <trkpt lat="43.471518" lon="-5.156393">
        <ele>-35.455</ele>
        <time>2021-10-14T16:34:23Z</time>
      </trkpt>
      <trkpt lat="43.471668" lon="-5.155847">
        <ele>-31.993</ele>
        <time>2021-10-14T16:34:25Z</time>
      </trkpt>
      <trkpt lat="43.471763" lon="-5.155578">
        <ele>-32.631</ele>
        <time>2021-10-14T16:34:26Z</time>
      </trkpt>
      <trkpt lat="43.471957" lon="-5.155164">
        <ele>-30.828</ele>
        <time>2021-10-14T16:34:28Z</time>
      </trkpt>
      <trkpt lat="43.472157" lon="-5.154853">
        <ele>-30.281</ele>
        <time>2021-10-14T16:34:30Z</time>
      </trkpt>
      <trkpt lat="43.472278" lon="-5.154759">
        <ele>-29.158</ele>
        <time>2021-10-14T16:34:31Z</time>
      </trkpt>
      <trkpt lat="43.472415" lon="-5.154719">
        <ele>-28.020</ele>
        <time>2021-10-14T16:34:32Z</time>
      </trkpt>
      <trkpt lat="43.472706" lon="-5.154762">
        <ele>-28.369</ele>
        <time>2021-10-14T16:34:34Z</time>
      </trkpt>
      <trkpt lat="43.473036" lon="-5.154887">
        <ele>-27.036</ele>
        <time>2021-10-14T16:34:36Z</time>
      </trkpt>
      <trkpt lat="43.473175" lon="-5.154978">
        <ele>-26.517</ele>
        <time>2021-10-14T16:34:37Z</time>
      </trkpt>
      <trkpt lat="43.473288" lon="-5.155107">
        <ele>-25.318</ele>
        <time>2021-10-14T16:34:38Z</time>
      </trkpt>
      <trkpt lat="43.473416" lon="-5.155457">
        <ele>-25.308</ele>
        <time>2021-10-14T16:34:40Z</time>
      </trkpt>
      <trkpt lat="43.473538" lon="-5.155847">
        <ele>-25.861</ele>
        <time>2021-10-14T16:34:42Z</time>
      </trkpt>
      <trkpt lat="43.473633" lon="-5.155997">
        <ele>-23.399</ele>
        <time>2021-10-14T16:34:43Z</time>
      </trkpt>
      <trkpt lat="43.473752" lon="-5.156097">
        <ele>-20.837</ele>
        <time>2021-10-14T16:34:44Z</time>
      </trkpt>
      <trkpt lat="43.473997" lon="-5.156110">
        <ele>-21.024</ele>
        <time>2021-10-14T16:34:46Z</time>
      </trkpt>
      <trkpt lat="43.474083" lon="-5.156051">
        <ele>-20.547</ele>
        <time>2021-10-14T16:34:47Z</time>
      </trkpt>
      <trkpt lat="43.474136" lon="-5.155982">
        <ele>-21.324</ele>
        <time>2021-10-14T16:34:48Z</time>
      </trkpt>
      <trkpt lat="43.474167" lon="-5.155878">
        <ele>-18.616</ele>
        <time>2021-10-14T16:34:49Z</time>
      </trkpt>
      <trkpt lat="43.474180" lon="-5.155730">
        <ele>-19.315</ele>
        <time>2021-10-14T16:34:50Z</time>
      </trkpt>
      <trkpt lat="43.474164" lon="-5.155334">
        <ele>-17.545</ele>
        <time>2021-10-14T16:34:52Z</time>
      </trkpt>
      <trkpt lat="43.474137" lon="-5.155131">
        <ele>-15.747</ele>
        <time>2021-10-14T16:34:53Z</time>
      </trkpt>
      <trkpt lat="43.474036" lon="-5.154754">
        <ele>-14.611</ele>
        <time>2021-10-14T16:34:55Z</time>
      </trkpt>
      <trkpt lat="43.473943" lon="-5.154569">
        <ele>-14.608</ele>
        <time>2021-10-14T16:34:56Z</time>
      </trkpt>
      <trkpt lat="43.473710" lon="-5.154282">
        <ele>-13.092</ele>
        <time>2021-10-14T16:34:58Z</time>
      </trkpt>
      <trkpt lat="43.473433" lon="-5.154093">
        <ele>-12.330</ele>
        <time>2021-10-14T16:35:00Z</time>
      </trkpt>
      <trkpt lat="43.473317" lon="-5.154003">
        <ele>-11.028</ele>
        <time>2021-10-14T16:35:01Z</time>
      </trkpt>
      <trkpt lat="43.473225" lon="-5.153891">
        <ele>-10.375</ele>
        <time>2021-10-14T16:35:02Z</time>
      </trkpt>
      <trkpt lat="43.473120" lon="-5.153619">
        <ele>-7.678</ele>
        <time>2021-10-14T16:35:04Z</time>
      </trkpt>
      <trkpt lat="43.473106" lon="-5.153461">
        <ele>-7.275</ele>
        <time>2021-10-14T16:35:05Z</time>
      </trkpt>
      <trkpt lat="43.473179" lon="-5.153130">
        <ele>-6.897</ele>
        <time>2021-10-14T16:35:07Z</time>
      </trkpt>
      <trkpt lat="43.473267" lon="-5.152950">
        <ele>-6.476</ele>
        <time>2021-10-14T16:35:08Z</time>
      </trkpt>
      <trkpt lat="43.473463" lon="-5.152575">
        <ele>-4.097</ele>
        <time>2021-10-14T16:35:10Z</time>
      </trkpt>
      <trkpt lat="43.473543" lon="-5.152368">
        <ele>-5.023</ele>
        <time>2021-10-14T16:35:11Z</time>
      </trkpt>
      <trkpt lat="43.473596" lon="-5.152159">
        <ele>-4.325</ele>
        <time>2021-10-14T16:35:12Z</time>
      </trkpt>
      <trkpt lat="43.473630" lon="-5.151966">
        <ele>-3.008</ele>
        <time>2021-10-14T16:35:13Z</time>
      </trkpt>
      <trkpt lat="43.473667" lon="-5.151776">
        <ele>-3.837</ele>
        <time>2021-10-14T16:35:14Z</time>
      </trkpt>
      <trkpt lat="43.473811" lon="-5.151478">
        <ele>-2.585</ele>
        <time>2021-10-14T16:35:16Z</time>
      </trkpt>
      <trkpt lat="43.474067" lon="-5.151332">
        <ele>-1.993</ele>
        <time>2021-10-14T16:35:18Z</time>
      </trkpt>
      <trkpt lat="43.474221" lon="-5.151285">
        <ele>-1.520</ele>
        <time>2021-10-14T16:35:19Z</time>
      </trkpt>
      <trkpt lat="43.474356" lon="-5.151218">
        <ele>-1.523</ele>
        <time>2021-10-14T16:35:20Z</time>
      </trkpt>
      <trkpt lat="43.474520" lon="-5.151002">
        <ele>-1.060</ele>
        <time>2021-10-14T16:35:22Z</time>
      </trkpt>
      <trkpt lat="43.474548" lon="-5.150846">
        <ele>0.152</ele>
        <time>2021-10-14T16:35:23Z</time>
      </trkpt>
      <trkpt lat="43.474489" lon="-5.150500">
        <ele>1.151</ele>
        <time>2021-10-14T16:35:25Z</time>
      </trkpt>
      <trkpt lat="43.474414" lon="-5.150341">
        <ele>0.387</ele>
        <time>2021-10-14T16:35:26Z</time>
      </trkpt>
      <trkpt lat="43.474223" lon="-5.150145">
        <ele>2.142</ele>
        <time>2021-10-14T16:35:28Z</time>
      </trkpt>
      <trkpt lat="43.474124" lon="-5.150084">
        <ele>0.726</ele>
        <time>2021-10-14T16:35:29Z</time>
      </trkpt>
      <trkpt lat="43.474034" lon="-5.150017">
        <ele>2.108</ele>
        <time>2021-10-14T16:35:30Z</time>
      </trkpt>
      <trkpt lat="43.473891" lon="-5.149773">
        <ele>1.046</ele>
        <time>2021-10-14T16:35:32Z</time>
      </trkpt>
      <trkpt lat="43.473832" lon="-5.149452">
        <ele>1.854</ele>
        <time>2021-10-14T16:35:34Z</time>
      </trkpt>
      <trkpt lat="43.473911" lon="-5.149085">
        <ele>3.752</ele>
        <time>2021-10-14T16:35:36Z</time>
      </trkpt>
      <trkpt lat="43.474002" lon="-5.148905">
        <ele>3.949</ele>
        <time>2021-10-14T16:35:37Z</time>
      </trkpt>
      <trkpt lat="43.474109" lon="-5.148735">
        <ele>4.172</ele>
        <time>2021-10-14T16:35:38Z</time>
      </trkpt>
      <trkpt lat="43.474261" lon="-5.148483">
        <ele>4.389</ele>
        <time>2021-10-14T16:35:40Z</time>
      </trkpt>
      <trkpt lat="43.474343" lon="-5.148255">
        <ele>3.951</ele>
        <time>2021-10-14T16:35:42Z</time>
      </trkpt>
      <trkpt lat="43.474370" lon="-5.147941">
        <ele>4.780</ele>
        <time>2021-10-14T16:35:44Z</time>
      </trkpt>
      <trkpt lat="43.474369" lon="-5.147569">
        <ele>4.762</ele>
        <time>2021-10-14T16:35:46Z</time>
      </trkpt>
      <trkpt lat="43.474358" lon="-5.147364">
        <ele>5.383</ele>
        <time>2021-10-14T16:35:47Z</time>
      </trkpt>
      <trkpt lat="43.474323" lon="-5.146947">
        <ele>5.811</ele>
        <time>2021-10-14T16:35:49Z</time>
      </trkpt>
      <trkpt lat="43.474300" lon="-5.146718">
        <ele>5.708</ele>
        <time>2021-10-14T16:35:50Z</time>
      </trkpt>
      <trkpt lat="43.474208" lon="-5.146292">
        <ele>5.724</ele>
        <time>2021-10-14T16:35:52Z</time>
      </trkpt>
      <trkpt lat="43.474147" lon="-5.146083">
        <ele>5.532</ele>
        <time>2021-10-14T16:35:53Z</time>
      </trkpt>
      <trkpt lat="43.474049" lon="-5.145709">
        <ele>5.460</ele>
        <time>2021-10-14T16:35:55Z</time>
      </trkpt>
      <trkpt lat="43.474006" lon="-5.145536">
        <ele>5.557</ele>
        <time>2021-10-14T16:35:56Z</time>
      </trkpt>
      <trkpt lat="43.473938" lon="-5.145241">
        <ele>4.770</ele>
        <time>2021-10-14T16:35:58Z</time>
      </trkpt>
      <trkpt lat="43.473849" lon="-5.144957">
        <ele>4.637</ele>
        <time>2021-10-14T16:36:00Z</time>
      </trkpt>
      <trkpt lat="43.473782" lon="-5.144824">
        <ele>4.879</ele>
        <time>2021-10-14T16:36:01Z</time>
      </trkpt>
      <trkpt lat="43.473699" lon="-5.144692">
        <ele>4.888</ele>
        <time>2021-10-14T16:36:02Z</time>
      </trkpt>
      <trkpt lat="43.473543" lon="-5.144484">
        <ele>3.747</ele>
        <time>2021-10-14T16:36:04Z</time>
      </trkpt>
      <trkpt lat="43.473469" lon="-5.144380">
        <ele>4.129</ele>
        <time>2021-10-14T16:36:05Z</time>
      </trkpt>
      <trkpt lat="43.473331" lon="-5.144170">
        <ele>5.421</ele>
        <time>2021-10-14T16:36:07Z</time>
      </trkpt>
      <trkpt lat="43.473256" lon="-5.144052">
        <ele>5.308</ele>
        <time>2021-10-14T16:36:08Z</time>
      </trkpt>
      <trkpt lat="43.473124" lon="-5.143814">
        <ele>5.352</ele>
        <time>2021-10-14T16:36:10Z</time>
      </trkpt>
      <trkpt lat="43.473065" lon="-5.143674">
        <ele>5.670</ele>
        <time>2021-10-14T16:36:11Z</time>
      </trkpt>
      <trkpt lat="43.473001" lon="-5.143367">
        <ele>5.118</ele>
        <time>2021-10-14T16:36:13Z</time>
      </trkpt>
      <trkpt lat="43.472985" lon="-5.143214">
        <ele>5.115</ele>
        <time>2021-10-14T16:36:14Z</time>
      </trkpt>
      <trkpt lat="43.472942" lon="-5.142954">
        <ele>5.548</ele>
        <time>2021-10-14T16:36:16Z</time>
      </trkpt>
      <trkpt lat="43.472844" lon="-5.142773">
        <ele>5.215</ele>
        <time>2021-10-14T16:36:18Z</time>
      </trkpt>
      <trkpt lat="43.472720" lon="-5.142698">
        <ele>5.267</ele>
        <time>2021-10-14T16:36:20Z</time>
      </trkpt>
      <trkpt lat="43.472591" lon="-5.142647">
        <ele>5.426</ele>
        <time>2021-10-14T16:36:22Z</time>
      </trkpt>
      <trkpt lat="43.472533" lon="-5.142599">
        <ele>5.627</ele>
        <time>2021-10-14T16:36:23Z</time>
      </trkpt>
      <trkpt lat="43.472486" lon="-5.142533">
        <ele>5.268</ele>
        <time>2021-10-14T16:36:24Z</time>
      </trkpt>
      <trkpt lat="43.472450" lon="-5.142438">
        <ele>5.514</ele>
        <time>2021-10-14T16:36:25Z</time>
      </trkpt>
      <trkpt lat="43.472427" lon="-5.142313">
        <ele>5.708</ele>
        <time>2021-10-14T16:36:26Z</time>
      </trkpt>
      <trkpt lat="43.472431" lon="-5.142014">
        <ele>6.760</ele>
        <time>2021-10-14T16:36:28Z</time>
      </trkpt>
      <trkpt lat="43.472489" lon="-5.141626">
        <ele>6.318</ele>
        <time>2021-10-14T16:36:30Z</time>
      </trkpt>
      <trkpt lat="43.472572" lon="-5.141154">
        <ele>7.116</ele>
        <time>2021-10-14T16:36:32Z</time>
      </trkpt>
      <trkpt lat="43.472645" lon="-5.140733">
        <ele>7.113</ele>
        <time>2021-10-14T16:36:34Z</time>
      </trkpt>
      <trkpt lat="43.472669" lon="-5.140532">
        <ele>6.986</ele>
        <time>2021-10-14T16:36:35Z</time>
      </trkpt>
      <trkpt lat="43.472681" lon="-5.140328">
        <ele>6.153</ele>
        <time>2021-10-14T16:36:36Z</time>
      </trkpt>
      <trkpt lat="43.472688" lon="-5.140131">
        <ele>5.825</ele>
        <time>2021-10-14T16:36:37Z</time>
      </trkpt>
      <trkpt lat="43.472693" lon="-5.139928">
        <ele>6.044</ele>
        <time>2021-10-14T16:36:38Z</time>
      </trkpt>
      <trkpt lat="43.472697" lon="-5.139539">
        <ele>6.374</ele>
        <time>2021-10-14T16:36:40Z</time>
      </trkpt>
      <trkpt lat="43.472690" lon="-5.139171">
        <ele>6.856</ele>
        <time>2021-10-14T16:36:42Z</time>
      </trkpt>
      <trkpt lat="43.472687" lon="-5.138998">
        <ele>6.721</ele>
        <time>2021-10-14T16:36:43Z</time>
      </trkpt>
      <trkpt lat="43.472684" lon="-5.138827">
        <ele>7.008</ele>
        <time>2021-10-14T16:36:44Z</time>
      </trkpt>
      <trkpt lat="43.472690" lon="-5.138512">
        <ele>8.725</ele>
        <time>2021-10-14T16:36:46Z</time>
      </trkpt>
      <trkpt lat="43.472728" lon="-5.138173">
        <ele>8.593</ele>
        <time>2021-10-14T16:36:48Z</time>
      </trkpt>
      <trkpt lat="43.472798" lon="-5.137824">
        <ele>8.221</ele>
        <time>2021-10-14T16:36:50Z</time>
      </trkpt>
      <trkpt lat="43.472867" lon="-5.137511">
        <ele>8.198</ele>
        <time>2021-10-14T16:36:52Z</time>
      </trkpt>
      <trkpt lat="43.472899" lon="-5.137357">
        <ele>8.421</ele>
        <time>2021-10-14T16:36:53Z</time>
      </trkpt>
      <trkpt lat="43.472931" lon="-5.137202">
        <ele>8.418</ele>
        <time>2021-10-14T16:36:54Z</time>
      </trkpt>
      <trkpt lat="43.472961" lon="-5.137045">
        <ele>8.280</ele>
        <time>2021-10-14T16:36:55Z</time>
      </trkpt>
      <trkpt lat="43.472985" lon="-5.136869">
        <ele>7.629</ele>
        <time>2021-10-14T16:36:56Z</time>
      </trkpt>
      <trkpt lat="43.472993" lon="-5.136518">
        <ele>7.637</ele>
        <time>2021-10-14T16:36:58Z</time>
      </trkpt>
      <trkpt lat="43.472988" lon="-5.136330">
        <ele>7.249</ele>
        <time>2021-10-14T16:36:59Z</time>
      </trkpt>
      <trkpt lat="43.472980" lon="-5.136141">
        <ele>6.013</ele>
        <time>2021-10-14T16:37:00Z</time>
      </trkpt>
      <trkpt lat="43.472949" lon="-5.135752">
        <ele>5.908</ele>
        <time>2021-10-14T16:37:02Z</time>
      </trkpt>
      <trkpt lat="43.472908" lon="-5.135422">
        <ele>5.891</ele>
        <time>2021-10-14T16:37:04Z</time>
      </trkpt>
      <trkpt lat="43.472857" lon="-5.135119">
        <ele>5.079</ele>
        <time>2021-10-14T16:37:06Z</time>
      </trkpt>
      <trkpt lat="43.472832" lon="-5.134979">
        <ele>5.967</ele>
        <time>2021-10-14T16:37:07Z</time>
      </trkpt>
      <trkpt lat="43.472808" lon="-5.134839">
        <ele>5.974</ele>
        <time>2021-10-14T16:37:08Z</time>
      </trkpt>
      <trkpt lat="43.472767" lon="-5.134569">
        <ele>5.877</ele>
        <time>2021-10-14T16:37:10Z</time>
      </trkpt>
      <trkpt lat="43.472744" lon="-5.134434">
        <ele>6.294</ele>
        <time>2021-10-14T16:37:11Z</time>
      </trkpt>
      <trkpt lat="43.472659" lon="-5.134193">
        <ele>6.216</ele>
        <time>2021-10-14T16:37:13Z</time>
      </trkpt>
      <trkpt lat="43.472587" lon="-5.134096">
        <ele>6.665</ele>
        <time>2021-10-14T16:37:14Z</time>
      </trkpt>
      <trkpt lat="43.472396" lon="-5.133965">
        <ele>5.852</ele>
        <time>2021-10-14T16:37:16Z</time>
      </trkpt>
      <trkpt lat="43.472278" lon="-5.133924">
        <ele>5.653</ele>
        <time>2021-10-14T16:37:17Z</time>
      </trkpt>
      <trkpt lat="43.472018" lon="-5.133892">
        <ele>5.108</ele>
        <time>2021-10-14T16:37:19Z</time>
      </trkpt>
      <trkpt lat="43.471879" lon="-5.133906">
        <ele>4.208</ele>
        <time>2021-10-14T16:37:20Z</time>
      </trkpt>
      <trkpt lat="43.471630" lon="-5.133968">
        <ele>3.913</ele>
        <time>2021-10-14T16:37:22Z</time>
      </trkpt>
      <trkpt lat="43.471506" lon="-5.133983">
        <ele>3.781</ele>
        <time>2021-10-14T16:37:23Z</time>
      </trkpt>
      <trkpt lat="43.471384" lon="-5.133981">
        <ele>3.049</ele>
        <time>2021-10-14T16:37:24Z</time>
      </trkpt>
      <trkpt lat="43.471265" lon="-5.133972">
        <ele>2.256</ele>
        <time>2021-10-14T16:37:25Z</time>
      </trkpt>
      <trkpt lat="43.471144" lon="-5.133972">
        <ele>2.299</ele>
        <time>2021-10-14T16:37:26Z</time>
      </trkpt>
      <trkpt lat="43.470933" lon="-5.133995">
        <ele>3.096</ele>
        <time>2021-10-14T16:37:28Z</time>
      </trkpt>
      <trkpt lat="43.470833" lon="-5.134006">
        <ele>1.878</ele>
        <time>2021-10-14T16:37:29Z</time>
      </trkpt>
      <trkpt lat="43.470657" lon="-5.134029">
        <ele>1.577</ele>
        <time>2021-10-14T16:37:31Z</time>
      </trkpt>
      <trkpt lat="43.470573" lon="-5.134027">
        <ele>1.293</ele>
        <time>2021-10-14T16:37:32Z</time>
      </trkpt>
      <trkpt lat="43.470427" lon="-5.133948">
        <ele>1.365</ele>
        <time>2021-10-14T16:37:34Z</time>
      </trkpt>
      <trkpt lat="43.470368" lon="-5.133867">
        <ele>0.921</ele>
        <time>2021-10-14T16:37:35Z</time>
      </trkpt>
      <trkpt lat="43.470275" lon="-5.133609">
        <ele>0.808</ele>
        <time>2021-10-14T16:37:37Z</time>
      </trkpt>
      <trkpt lat="43.470237" lon="-5.133457">
        <ele>-0.517</ele>
        <time>2021-10-14T16:37:38Z</time>
      </trkpt>
      <trkpt lat="43.470158" lon="-5.133202">
        <ele>-3.645</ele>
        <time>2021-10-14T16:37:40Z</time>
      </trkpt>
      <trkpt lat="43.470018" lon="-5.133037">
        <ele>-6.073</ele>
        <time>2021-10-14T16:37:42Z</time>
      </trkpt>
      <trkpt lat="43.469916" lon="-5.132999">
        <ele>-7.540</ele>
        <time>2021-10-14T16:37:43Z</time>
      </trkpt>
      <trkpt lat="43.469802" lon="-5.132998">
        <ele>-8.133</ele>
        <time>2021-10-14T16:37:44Z</time>
      </trkpt>
      <trkpt lat="43.469588" lon="-5.133058">
        <ele>-10.720</ele>
        <time>2021-10-14T16:37:46Z</time>
      </trkpt>
      <trkpt lat="43.469497" lon="-5.133096">
        <ele>-12.542</ele>
        <time>2021-10-14T16:37:47Z</time>
      </trkpt>
      <trkpt lat="43.469327" lon="-5.133195">
        <ele>-15.881</ele>
        <time>2021-10-14T16:37:49Z</time>
      </trkpt>
      <trkpt lat="43.469247" lon="-5.133264">
        <ele>-17.567</ele>
        <time>2021-10-14T16:37:50Z</time>
      </trkpt>
      <trkpt lat="43.469132" lon="-5.133466">
        <ele>-19.381</ele>
        <time>2021-10-14T16:37:52Z</time>
      </trkpt>
      <trkpt lat="43.469044" lon="-5.133755">
        <ele>-21.819</ele>
        <time>2021-10-14T16:37:54Z</time>
      </trkpt>
      <trkpt lat="43.468962" lon="-5.134041">
        <ele>-24.308</ele>
        <time>2021-10-14T16:37:56Z</time>
      </trkpt>
      <trkpt lat="43.468880" lon="-5.134277">
        <ele>-26.144</ele>
        <time>2021-10-14T16:37:58Z</time>
      </trkpt>
      <trkpt lat="43.468837" lon="-5.134402">
        <ele>-26.762</ele>
        <time>2021-10-14T16:37:59Z</time>
      </trkpt>
      <trkpt lat="43.468757" lon="-5.134639">
        <ele>-29.570</ele>
        <time>2021-10-14T16:38:01Z</time>
      </trkpt>
      <trkpt lat="43.468712" lon="-5.134754">
        <ele>-29.337</ele>
        <time>2021-10-14T16:38:02Z</time>
      </trkpt>
      <trkpt lat="43.468603" lon="-5.134930">
        <ele>-30.650</ele>
        <time>2021-10-14T16:38:04Z</time>
      </trkpt>
      <trkpt lat="43.468531" lon="-5.134974">
        <ele>-30.827</ele>
        <time>2021-10-14T16:38:05Z</time>
      </trkpt>
      <trkpt lat="43.468381" lon="-5.134967">
        <ele>-32.939</ele>
        <time>2021-10-14T16:38:07Z</time>
      </trkpt>
      <trkpt lat="43.468309" lon="-5.134937">
        <ele>-33.148</ele>
        <time>2021-10-14T16:38:08Z</time>
      </trkpt>
      <trkpt lat="43.468200" lon="-5.134823">
        <ele>-33.128</ele>
        <time>2021-10-14T16:38:10Z</time>
      </trkpt>
      <trkpt lat="43.468162" lon="-5.134726">
        <ele>-33.789</ele>
        <time>2021-10-14T16:38:11Z</time>
      </trkpt>
      <trkpt lat="43.468143" lon="-5.134606">
        <ele>-32.917</ele>
        <time>2021-10-14T16:38:12Z</time>
      </trkpt>
      <trkpt lat="43.468146" lon="-5.134470">
        <ele>-35.408</ele>
        <time>2021-10-14T16:38:13Z</time>
      </trkpt>
      <trkpt lat="43.468171" lon="-5.134322">
        <ele>-35.950</ele>
        <time>2021-10-14T16:38:14Z</time>
      </trkpt>
      <trkpt lat="43.468220" lon="-5.134058">
        <ele>-37.458</ele>
        <time>2021-10-14T16:38:16Z</time>
      </trkpt>
      <trkpt lat="43.468170" lon="-5.133859">
        <ele>-38.266</ele>
        <time>2021-10-14T16:38:18Z</time>
      </trkpt>
      <trkpt lat="43.468026" lon="-5.133797">
        <ele>-40.443</ele>
        <time>2021-10-14T16:38:20Z</time>
      </trkpt>
      <trkpt lat="43.467844" lon="-5.133812">
        <ele>-42.076</ele>
        <time>2021-10-14T16:38:22Z</time>
      </trkpt>
      <trkpt lat="43.467685" lon="-5.133697">
        <ele>-42.253</ele>
        <time>2021-10-14T16:38:24Z</time>
      </trkpt>
      <trkpt lat="43.467649" lon="-5.133471">
        <ele>-42.415</ele>
        <time>2021-10-14T16:38:26Z</time>
      </trkpt>
      <trkpt lat="43.467712" lon="-5.133231">
        <ele>-43.024</ele>
        <time>2021-10-14T16:38:28Z</time>
      </trkpt>
      <trkpt lat="43.467741" lon="-5.133104">
        <ele>-43.166</ele>
        <time>2021-10-14T16:38:29Z</time>
      </trkpt>
      <trkpt lat="43.467780" lon="-5.132859">
        <ele>-42.529</ele>
        <time>2021-10-14T16:38:31Z</time>
      </trkpt>
      <trkpt lat="43.467785" lon="-5.132731">
        <ele>-43.621</ele>
        <time>2021-10-14T16:38:32Z</time>
      </trkpt>
      <trkpt lat="43.467752" lon="-5.132483">
        <ele>-45.108</ele>
        <time>2021-10-14T16:38:34Z</time>
      </trkpt>
      <trkpt lat="43.467675" lon="-5.132176">
        <ele>-44.514</ele>
        <time>2021-10-14T16:38:36Z</time>
      </trkpt>
      <trkpt lat="43.467633" lon="-5.132010">
        <ele>-46.162</ele>
        <time>2021-10-14T16:38:37Z</time>
      </trkpt>
      <trkpt lat="43.467594" lon="-5.131841">
        <ele>-46.590</ele>
        <time>2021-10-14T16:38:38Z</time>
      </trkpt>
      <trkpt lat="43.467527" lon="-5.131542">
        <ele>-48.257</ele>
        <time>2021-10-14T16:38:40Z</time>
      </trkpt>
      <trkpt lat="43.467486" lon="-5.131401">
        <ele>-47.150</ele>
        <time>2021-10-14T16:38:41Z</time>
      </trkpt>
      <trkpt lat="43.467384" lon="-5.131141">
        <ele>-51.067</ele>
        <time>2021-10-14T16:38:43Z</time>
      </trkpt>
      <trkpt lat="43.467318" lon="-5.130995">
        <ele>-52.219</ele>
        <time>2021-10-14T16:38:44Z</time>
      </trkpt>
      <trkpt lat="43.467180" lon="-5.130699">
        <ele>-53.858</ele>
        <time>2021-10-14T16:38:46Z</time>
      </trkpt>
      <trkpt lat="43.467107" lon="-5.130548">
        <ele>-55.861</ele>
        <time>2021-10-14T16:38:47Z</time>
      </trkpt>
      <trkpt lat="43.466940" lon="-5.130260">
        <ele>-56.621</ele>
        <time>2021-10-14T16:38:49Z</time>
      </trkpt>
      <trkpt lat="43.466833" lon="-5.130131">
        <ele>-55.713</ele>
        <time>2021-10-14T16:38:50Z</time>
      </trkpt>
      <trkpt lat="43.466604" lon="-5.129895">
        <ele>-56.908</ele>
        <time>2021-10-14T16:38:52Z</time>
      </trkpt>
      <trkpt lat="43.466372" lon="-5.129653">
        <ele>-56.464</ele>
        <time>2021-10-14T16:38:54Z</time>
      </trkpt>
      <trkpt lat="43.466256" lon="-5.129527">
        <ele>-57.892</ele>
        <time>2021-10-14T16:38:55Z</time>
      </trkpt>
      <trkpt lat="43.466131" lon="-5.129392">
        <ele>-57.190</ele>
        <time>2021-10-14T16:38:56Z</time>
      </trkpt>
      <trkpt lat="43.465841" lon="-5.129073">
        <ele>-57.427</ele>
        <time>2021-10-14T16:38:58Z</time>
      </trkpt>
      <trkpt lat="43.465527" lon="-5.128697">
        <ele>-60.140</ele>
        <time>2021-10-14T16:39:00Z</time>
      </trkpt>
      <trkpt lat="43.465372" lon="-5.128499">
        <ele>-58.327</ele>
        <time>2021-10-14T16:39:01Z</time>
      </trkpt>
      <trkpt lat="43.465211" lon="-5.128307">
        <ele>-58.249</ele>
        <time>2021-10-14T16:39:02Z</time>
      </trkpt>
      <trkpt lat="43.464935" lon="-5.127997">
        <ele>-57.218</ele>
        <time>2021-10-14T16:39:04Z</time>
      </trkpt>
      <trkpt lat="43.464806" lon="-5.127845">
        <ele>-58.456</ele>
        <time>2021-10-14T16:39:05Z</time>
      </trkpt>
      <trkpt lat="43.464672" lon="-5.127701">
        <ele>-55.559</ele>
        <time>2021-10-14T16:39:06Z</time>
      </trkpt>
      <trkpt lat="43.464408" lon="-5.127432">
        <ele>-54.914</ele>
        <time>2021-10-14T16:39:08Z</time>
      </trkpt>
      <trkpt lat="43.464230" lon="-5.127177">
        <ele>-53.308</ele>
        <time>2021-10-14T16:39:10Z</time>
      </trkpt>
      <trkpt lat="43.464186" lon="-5.127018">
        <ele>-51.613</ele>
        <time>2021-10-14T16:39:11Z</time>
      </trkpt>
      <trkpt lat="43.464155" lon="-5.126632">
        <ele>-48.971</ele>
        <time>2021-10-14T16:39:13Z</time>
      </trkpt>
      <trkpt lat="43.464135" lon="-5.126410">
        <ele>-47.249</ele>
        <time>2021-10-14T16:39:14Z</time>
      </trkpt>
      <trkpt lat="43.464129" lon="-5.126033">
        <ele>-45.016</ele>
        <time>2021-10-14T16:39:16Z</time>
      </trkpt>
      <trkpt lat="43.464164" lon="-5.125862">
        <ele>-43.569</ele>
        <time>2021-10-14T16:39:17Z</time>
      </trkpt>
      <trkpt lat="43.464358" lon="-5.125609">
        <ele>-41.116</ele>
        <time>2021-10-14T16:39:19Z</time>
      </trkpt>
      <trkpt lat="43.464489" lon="-5.125533">
        <ele>-40.258</ele>
        <time>2021-10-14T16:39:20Z</time>
      </trkpt>
      <trkpt lat="43.464678" lon="-5.125339">
        <ele>-37.177</ele>
        <time>2021-10-14T16:39:22Z</time>
      </trkpt>
      <trkpt lat="43.464738" lon="-5.125022">
        <ele>-35.499</ele>
        <time>2021-10-14T16:39:24Z</time>
      </trkpt>
      <trkpt lat="43.464820" lon="-5.124761">
        <ele>-30.707</ele>
        <time>2021-10-14T16:39:26Z</time>
      </trkpt>
      <trkpt lat="43.465037" lon="-5.124642">
        <ele>-29.527</ele>
        <time>2021-10-14T16:39:28Z</time>
      </trkpt>
      <trkpt lat="43.465290" lon="-5.124482">
        <ele>-27.308</ele>
        <time>2021-10-14T16:39:30Z</time>
      </trkpt>
      <trkpt lat="43.465466" lon="-5.124193">
        <ele>-25.167</ele>
        <time>2021-10-14T16:39:32Z</time>
      </trkpt>
      <trkpt lat="43.465584" lon="-5.123822">
        <ele>-23.035</ele>
        <time>2021-10-14T16:39:34Z</time>
      </trkpt>
      <trkpt lat="43.465633" lon="-5.123600">
        <ele>-21.563</ele>
        <time>2021-10-14T16:39:35Z</time>
      </trkpt>
      <trkpt lat="43.465675" lon="-5.123390">
        <ele>-22.040</ele>
        <time>2021-10-14T16:39:36Z</time>
      </trkpt>
      <trkpt lat="43.465691" lon="-5.123015">
        <ele>-20.813</ele>
        <time>2021-10-14T16:39:38Z</time>
      </trkpt>
      <trkpt lat="43.465571" lon="-5.122643">
        <ele>-17.310</ele>
        <time>2021-10-14T16:39:40Z</time>
      </trkpt>
      <trkpt lat="43.465484" lon="-5.122425">
        <ele>-16.842</ele>
        <time>2021-10-14T16:39:41Z</time>
      </trkpt>
      <trkpt lat="43.465306" lon="-5.121944">
        <ele>-14.051</ele>
        <time>2021-10-14T16:39:43Z</time>
      </trkpt>
      <trkpt lat="43.465209" lon="-5.121690">
        <ele>-13.497</ele>
        <time>2021-10-14T16:39:44Z</time>
      </trkpt>
      <trkpt lat="43.465029" lon="-5.121211">
        <ele>-10.423</ele>
        <time>2021-10-14T16:39:46Z</time>
      </trkpt>
      <trkpt lat="43.464885" lon="-5.120756">
        <ele>-9.825</ele>
        <time>2021-10-14T16:39:48Z</time>
      </trkpt>
      <trkpt lat="43.464815" lon="-5.120286">
        <ele>-7.408</ele>
        <time>2021-10-14T16:39:50Z</time>
      </trkpt>
      <trkpt lat="43.464783" lon="-5.119866">
        <ele>-4.757</ele>
        <time>2021-10-14T16:39:52Z</time>
      </trkpt>
      <trkpt lat="43.464762" lon="-5.119514">
        <ele>-3.245</ele>
        <time>2021-10-14T16:39:54Z</time>
      </trkpt>
      <trkpt lat="43.464754" lon="-5.119353">
        <ele>-3.283</ele>
        <time>2021-10-14T16:39:55Z</time>
      </trkpt>
      <trkpt lat="43.464739" lon="-5.119203">
        <ele>-3.410</ele>
        <time>2021-10-14T16:39:56Z</time>
      </trkpt>
      <trkpt lat="43.464659" lon="-5.118964">
        <ele>-3.023</ele>
        <time>2021-10-14T16:39:58Z</time>
      </trkpt>
      <trkpt lat="43.464594" lon="-5.118861">
        <ele>-3.420</ele>
        <time>2021-10-14T16:39:59Z</time>
      </trkpt>
      <trkpt lat="43.464508" lon="-5.118655">
        <ele>-2.212</ele>
        <time>2021-10-14T16:40:01Z</time>
      </trkpt>
      <trkpt lat="43.464505" lon="-5.118549">
        <ele>-1.871</ele>
        <time>2021-10-14T16:40:02Z</time>
      </trkpt>
      <trkpt lat="43.464560" lon="-5.118368">
        <ele>-0.837</ele>
        <time>2021-10-14T16:40:04Z</time>
      </trkpt>
      <trkpt lat="43.464600" lon="-5.118262">
        <ele>-0.249</ele>
        <time>2021-10-14T16:40:05Z</time>
      </trkpt>
      <trkpt lat="43.464635" lon="-5.118144">
        <ele>0.213</ele>
        <time>2021-10-14T16:40:06Z</time>
      </trkpt>
      <trkpt lat="43.464661" lon="-5.117877">
        <ele>1.608</ele>
        <time>2021-10-14T16:40:08Z</time>
      </trkpt>
      <trkpt lat="43.464648" lon="-5.117596">
        <ele>1.661</ele>
        <time>2021-10-14T16:40:10Z</time>
      </trkpt>
      <trkpt lat="43.464636" lon="-5.117447">
        <ele>1.979</ele>
        <time>2021-10-14T16:40:11Z</time>
      </trkpt>
      <trkpt lat="43.464625" lon="-5.117300">
        <ele>3.177</ele>
        <time>2021-10-14T16:40:12Z</time>
      </trkpt>
      <trkpt lat="43.464608" lon="-5.117061">
        <ele>4.124</ele>
        <time>2021-10-14T16:40:14Z</time>
      </trkpt>
      <trkpt lat="43.464598" lon="-5.116867">
        <ele>4.457</ele>
        <time>2021-10-14T16:40:16Z</time>
      </trkpt>
      <trkpt lat="43.464583" lon="-5.116595">
        <ele>5.094</ele>
        <time>2021-10-14T16:40:18Z</time>
      </trkpt>
      <trkpt lat="43.464569" lon="-5.116251">
        <ele>5.386</ele>
        <time>2021-10-14T16:40:20Z</time>
      </trkpt>
      <trkpt lat="43.464550" lon="-5.115874">
        <ele>7.475</ele>
        <time>2021-10-14T16:40:22Z</time>
      </trkpt>
      <trkpt lat="43.464526" lon="-5.115490">
        <ele>8.277</ele>
        <time>2021-10-14T16:40:24Z</time>
      </trkpt>
      <trkpt lat="43.464515" lon="-5.115294">
        <ele>8.561</ele>
        <time>2021-10-14T16:40:25Z</time>
      </trkpt>
      <trkpt lat="43.464504" lon="-5.115102">
        <ele>9.127</ele>
        <time>2021-10-14T16:40:26Z</time>
      </trkpt>
      <trkpt lat="43.464483" lon="-5.114739">
        <ele>10.208</ele>
        <time>2021-10-14T16:40:28Z</time>
      </trkpt>
      <trkpt lat="43.464457" lon="-5.114357">
        <ele>11.055</ele>
        <time>2021-10-14T16:40:30Z</time>
      </trkpt>
      <trkpt lat="43.464450" lon="-5.114167">
        <ele>11.823</ele>
        <time>2021-10-14T16:40:31Z</time>
      </trkpt>
      <trkpt lat="43.464462" lon="-5.113970">
        <ele>12.571</ele>
        <time>2021-10-14T16:40:32Z</time>
      </trkpt>
      <trkpt lat="43.464557" lon="-5.113603">
        <ele>13.978</ele>
        <time>2021-10-14T16:40:34Z</time>
      </trkpt>
      <trkpt lat="43.464586" lon="-5.113222">
        <ele>15.551</ele>
        <time>2021-10-14T16:40:36Z</time>
      </trkpt>
      <trkpt lat="43.464519" lon="-5.112816">
        <ele>16.078</ele>
        <time>2021-10-14T16:40:38Z</time>
      </trkpt>
      <trkpt lat="43.464467" lon="-5.112473">
        <ele>16.910</ele>
        <time>2021-10-14T16:40:40Z</time>
      </trkpt>
      <trkpt lat="43.464447" lon="-5.112321">
        <ele>16.969</ele>
        <time>2021-10-14T16:40:41Z</time>
      </trkpt>
      <trkpt lat="43.464408" lon="-5.112015">
        <ele>17.643</ele>
        <time>2021-10-14T16:40:43Z</time>
      </trkpt>
      <trkpt lat="43.464384" lon="-5.111848">
        <ele>17.864</ele>
        <time>2021-10-14T16:40:44Z</time>
      </trkpt>
      <trkpt lat="43.464337" lon="-5.111504">
        <ele>18.610</ele>
        <time>2021-10-14T16:40:46Z</time>
      </trkpt>
      <trkpt lat="43.464313" lon="-5.111317">
        <ele>19.508</ele>
        <time>2021-10-14T16:40:47Z</time>
      </trkpt>
      <trkpt lat="43.464287" lon="-5.111130">
        <ele>20.942</ele>
        <time>2021-10-14T16:40:48Z</time>
      </trkpt>
      <trkpt lat="43.464236" lon="-5.110755">
        <ele>21.730</ele>
        <time>2021-10-14T16:40:50Z</time>
      </trkpt>
      <trkpt lat="43.464191" lon="-5.110383">
        <ele>23.848</ele>
        <time>2021-10-14T16:40:52Z</time>
      </trkpt>
      <trkpt lat="43.464172" lon="-5.110186">
        <ele>24.235</ele>
        <time>2021-10-14T16:40:53Z</time>
      </trkpt>
      <trkpt lat="43.464143" lon="-5.109810">
        <ele>25.038</ele>
        <time>2021-10-14T16:40:55Z</time>
      </trkpt>
      <trkpt lat="43.464156" lon="-5.109613">
        <ele>24.585</ele>
        <time>2021-10-14T16:40:56Z</time>
      </trkpt>
      <trkpt lat="43.464249" lon="-5.109244">
        <ele>24.637</ele>
        <time>2021-10-14T16:40:58Z</time>
      </trkpt>
      <trkpt lat="43.464301" lon="-5.109063">
        <ele>24.186</ele>
        <time>2021-10-14T16:40:59Z</time>
      </trkpt>
      <trkpt lat="43.464339" lon="-5.108704">
        <ele>22.348</ele>
        <time>2021-10-14T16:41:01Z</time>
      </trkpt>
      <trkpt lat="43.464317" lon="-5.108506">
        <ele>21.861</ele>
        <time>2021-10-14T16:41:02Z</time>
      </trkpt>
      <trkpt lat="43.464229" lon="-5.108106">
        <ele>19.017</ele>
        <time>2021-10-14T16:41:04Z</time>
      </trkpt>
      <trkpt lat="43.464172" lon="-5.107883">
        <ele>18.008</ele>
        <time>2021-10-14T16:41:05Z</time>
      </trkpt>
      <trkpt lat="43.464050" lon="-5.107437">
        <ele>17.232</ele>
        <time>2021-10-14T16:41:07Z</time>
      </trkpt>
      <trkpt lat="43.463993" lon="-5.107225">
        <ele>16.790</ele>
        <time>2021-10-14T16:41:08Z</time>
      </trkpt>
      <trkpt lat="43.463896" lon="-5.106842">
        <ele>14.978</ele>
        <time>2021-10-14T16:41:10Z</time>
      </trkpt>
      <trkpt lat="43.463859" lon="-5.106636">
        <ele>14.215</ele>
        <time>2021-10-14T16:41:11Z</time>
      </trkpt>
      <trkpt lat="43.463847" lon="-5.106410">
        <ele>13.838</ele>
        <time>2021-10-14T16:41:12Z</time>
      </trkpt>
      <trkpt lat="43.463900" lon="-5.105898">
        <ele>13.185</ele>
        <time>2021-10-14T16:41:14Z</time>
      </trkpt>
      <trkpt lat="43.463919" lon="-5.105361">
        <ele>10.767</ele>
        <time>2021-10-14T16:41:16Z</time>
      </trkpt>
      <trkpt lat="43.463913" lon="-5.105078">
        <ele>9.426</ele>
        <time>2021-10-14T16:41:17Z</time>
      </trkpt>
      <trkpt lat="43.463908" lon="-5.104809">
        <ele>8.455</ele>
        <time>2021-10-14T16:41:18Z</time>
      </trkpt>
      <trkpt lat="43.463930" lon="-5.104316">
        <ele>7.007</ele>
        <time>2021-10-14T16:41:20Z</time>
      </trkpt>
      <trkpt lat="43.463994" lon="-5.103911">
        <ele>5.817</ele>
        <time>2021-10-14T16:41:22Z</time>
      </trkpt>
      <trkpt lat="43.464064" lon="-5.103554">
        <ele>4.408</ele>
        <time>2021-10-14T16:41:24Z</time>
      </trkpt>
      <trkpt lat="43.464090" lon="-5.103370">
        <ele>4.043</ele>
        <time>2021-10-14T16:41:25Z</time>
      </trkpt>
      <trkpt lat="43.464087" lon="-5.103167">
        <ele>3.481</ele>
        <time>2021-10-14T16:41:26Z</time>
      </trkpt>
      <trkpt lat="43.464016" lon="-5.102817">
        <ele>1.829</ele>
        <time>2021-10-14T16:41:28Z</time>
      </trkpt>
      <trkpt lat="43.463973" lon="-5.102654">
        <ele>1.266</ele>
        <time>2021-10-14T16:41:29Z</time>
      </trkpt>
      <trkpt lat="43.463882" lon="-5.102356">
        <ele>-1.549</ele>
        <time>2021-10-14T16:41:31Z</time>
      </trkpt>
      <trkpt lat="43.463858" lon="-5.102195">
        <ele>-1.166</ele>
        <time>2021-10-14T16:41:32Z</time>
      </trkpt>
      <trkpt lat="43.463897" lon="-5.101872">
        <ele>-2.168</ele>
        <time>2021-10-14T16:41:34Z</time>
      </trkpt>
      <trkpt lat="43.463945" lon="-5.101704">
        <ele>-2.717</ele>
        <time>2021-10-14T16:41:35Z</time>
      </trkpt>
      <trkpt lat="43.464048" lon="-5.101320">
        <ele>-3.197</ele>
        <time>2021-10-14T16:41:37Z</time>
      </trkpt>
      <trkpt lat="43.464113" lon="-5.101101">
        <ele>-3.723</ele>
        <time>2021-10-14T16:41:38Z</time>
      </trkpt>
      <trkpt lat="43.464213" lon="-5.100669">
        <ele>-5.425</ele>
        <time>2021-10-14T16:41:40Z</time>
      </trkpt>
      <trkpt lat="43.464290" lon="-5.100225">
        <ele>-5.708</ele>
        <time>2021-10-14T16:41:42Z</time>
      </trkpt>
      <trkpt lat="43.464320" lon="-5.099825">
        <ele>-8.827</ele>
        <time>2021-10-14T16:41:44Z</time>
      </trkpt>
      <trkpt lat="43.464280" lon="-5.099519">
        <ele>-10.035</ele>
        <time>2021-10-14T16:41:46Z</time>
      </trkpt>
      <trkpt lat="43.464212" lon="-5.099398">
        <ele>-10.763</ele>
        <time>2021-10-14T16:41:47Z</time>
      </trkpt>
      <trkpt lat="43.464118" lon="-5.099301">
        <ele>-10.880</ele>
        <time>2021-10-14T16:41:48Z</time>
      </trkpt>
      <trkpt lat="43.463934" lon="-5.099087">
        <ele>-12.333</ele>
        <time>2021-10-14T16:41:50Z</time>
      </trkpt>
      <trkpt lat="43.463861" lon="-5.098781">
        <ele>-12.270</ele>
        <time>2021-10-14T16:41:52Z</time>
      </trkpt>
      <trkpt lat="43.463858" lon="-5.098366">
        <ele>-14.062</ele>
        <time>2021-10-14T16:41:54Z</time>
      </trkpt>
      <trkpt lat="43.463867" lon="-5.098115">
        <ele>-14.541</ele>
        <time>2021-10-14T16:41:55Z</time>
      </trkpt>
      <trkpt lat="43.463885" lon="-5.097824">
        <ele>-14.962</ele>
        <time>2021-10-14T16:41:56Z</time>
      </trkpt>
      <trkpt lat="43.463967" lon="-5.097275">
        <ele>-17.183</ele>
        <time>2021-10-14T16:41:58Z</time>
      </trkpt>
      <trkpt lat="43.464021" lon="-5.097012">
        <ele>-16.611</ele>
        <time>2021-10-14T16:41:59Z</time>
      </trkpt>
      <trkpt lat="43.464075" lon="-5.096533">
        <ele>-17.508</ele>
        <time>2021-10-14T16:42:01Z</time>
      </trkpt>
      <trkpt lat="43.464069" lon="-5.096308">
        <ele>-18.684</ele>
        <time>2021-10-14T16:42:02Z</time>
      </trkpt>
      <trkpt lat="43.464003" lon="-5.095961">
        <ele>-19.812</ele>
        <time>2021-10-14T16:42:04Z</time>
      </trkpt>
      <trkpt lat="43.463854" lon="-5.095714">
        <ele>-21.340</ele>
        <time>2021-10-14T16:42:06Z</time>
      </trkpt>
      <trkpt lat="43.463687" lon="-5.095496">
        <ele>-21.817</ele>
        <time>2021-10-14T16:42:08Z</time>
      </trkpt>
      <trkpt lat="43.463648" lon="-5.095244">
        <ele>-21.520</ele>
        <time>2021-10-14T16:42:10Z</time>
      </trkpt>
      <trkpt lat="43.463684" lon="-5.095133">
        <ele>-22.657</ele>
        <time>2021-10-14T16:42:11Z</time>
      </trkpt>
      <trkpt lat="43.463778" lon="-5.094873">
        <ele>-21.829</ele>
        <time>2021-10-14T16:42:13Z</time>
      </trkpt>
      <trkpt lat="43.463810" lon="-5.094681">
        <ele>-22.378</ele>
        <time>2021-10-14T16:42:14Z</time>
      </trkpt>
      <trkpt lat="43.463827" lon="-5.094283">
        <ele>-24.094</ele>
        <time>2021-10-14T16:42:16Z</time>
      </trkpt>
      <trkpt lat="43.463766" lon="-5.093918">
        <ele>-25.857</ele>
        <time>2021-10-14T16:42:18Z</time>
      </trkpt>
      <trkpt lat="43.463615" lon="-5.093630">
        <ele>-26.722</ele>
        <time>2021-10-14T16:42:20Z</time>
      </trkpt>
      <trkpt lat="43.463510" lon="-5.093369">
        <ele>-27.908</ele>
        <time>2021-10-14T16:42:22Z</time>
      </trkpt>
      <trkpt lat="43.463539" lon="-5.093094">
        <ele>-28.887</ele>
        <time>2021-10-14T16:42:24Z</time>
      </trkpt>
      <trkpt lat="43.463685" lon="-5.092883">
        <ele>-29.765</ele>
        <time>2021-10-14T16:42:26Z</time>
      </trkpt>
      <trkpt lat="43.463871" lon="-5.092681">
        <ele>-31.733</ele>
        <time>2021-10-14T16:42:28Z</time>
      </trkpt>
      <trkpt lat="43.463985" lon="-5.092407">
        <ele>-31.640</ele>
        <time>2021-10-14T16:42:30Z</time>
      </trkpt>
      <trkpt lat="43.463941" lon="-5.092108">
        <ele>-32.643</ele>
        <time>2021-10-14T16:42:32Z</time>
      </trkpt>
      <trkpt lat="43.463776" lon="-5.091873">
        <ele>-34.680</ele>
        <time>2021-10-14T16:42:34Z</time>
      </trkpt>
      <trkpt lat="43.463559" lon="-5.091728">
        <ele>-34.962</ele>
        <time>2021-10-14T16:42:36Z</time>
      </trkpt>
      <trkpt lat="43.463353" lon="-5.091579">
        <ele>-35.671</ele>
        <time>2021-10-14T16:42:38Z</time>
      </trkpt>
      <trkpt lat="43.463233" lon="-5.091296">
        <ele>-35.927</ele>
        <time>2021-10-14T16:42:40Z</time>
      </trkpt>
      <trkpt lat="43.463210" lon="-5.091125">
        <ele>-36.768</ele>
        <time>2021-10-14T16:42:41Z</time>
      </trkpt>
      <trkpt lat="43.463210" lon="-5.090954">
        <ele>-37.114</ele>
        <time>2021-10-14T16:42:42Z</time>
      </trkpt>
      <trkpt lat="43.463293" lon="-5.090652">
        <ele>-37.008</ele>
        <time>2021-10-14T16:42:44Z</time>
      </trkpt>
      <trkpt lat="43.463486" lon="-5.090487">
        <ele>-38.540</ele>
        <time>2021-10-14T16:42:46Z</time>
      </trkpt>
      <trkpt lat="43.463725" lon="-5.090464">
        <ele>-41.068</ele>
        <time>2021-10-14T16:42:48Z</time>
      </trkpt>
      <trkpt lat="43.463852" lon="-5.090470">
        <ele>-43.256</ele>
        <time>2021-10-14T16:42:49Z</time>
      </trkpt>
      <trkpt lat="43.463981" lon="-5.090462">
        <ele>-45.493</ele>
        <time>2021-10-14T16:42:50Z</time>
      </trkpt>
      <trkpt lat="43.464192" lon="-5.090384">
        <ele>-47.716</ele>
        <time>2021-10-14T16:42:52Z</time>
      </trkpt>
      <trkpt lat="43.464281" lon="-5.090310">
        <ele>-50.453</ele>
        <time>2021-10-14T16:42:53Z</time>
      </trkpt>
      <trkpt lat="43.464417" lon="-5.090102">
        <ele>-49.465</ele>
        <time>2021-10-14T16:42:55Z</time>
      </trkpt>
      <trkpt lat="43.464476" lon="-5.089983">
        <ele>-49.214</ele>
        <time>2021-10-14T16:42:56Z</time>
      </trkpt>
      <trkpt lat="43.464604" lon="-5.089820">
        <ele>-50.685</ele>
        <time>2021-10-14T16:42:58Z</time>
      </trkpt>
      <trkpt lat="43.464747" lon="-5.089697">
        <ele>-51.089</ele>
        <time>2021-10-14T16:43:00Z</time>
      </trkpt>
      <trkpt lat="43.464804" lon="-5.089608">
        <ele>-51.017</ele>
        <time>2021-10-14T16:43:01Z</time>
      </trkpt>
      <trkpt lat="43.464847" lon="-5.089490">
        <ele>-51.808</ele>
        <time>2021-10-14T16:43:02Z</time>
      </trkpt>
      <trkpt lat="43.464868" lon="-5.089235">
        <ele>-52.956</ele>
        <time>2021-10-14T16:43:04Z</time>
      </trkpt>
      <trkpt lat="43.464863" lon="-5.089104">
        <ele>-52.874</ele>
        <time>2021-10-14T16:43:05Z</time>
      </trkpt>
      <trkpt lat="43.464853" lon="-5.088976">
        <ele>-54.572</ele>
        <time>2021-10-14T16:43:06Z</time>
      </trkpt>
      <trkpt lat="43.464836" lon="-5.088855">
        <ele>-54.379</ele>
        <time>2021-10-14T16:43:07Z</time>
      </trkpt>
      <trkpt lat="43.464815" lon="-5.088737">
        <ele>-55.152</ele>
        <time>2021-10-14T16:43:08Z</time>
      </trkpt>
      <trkpt lat="43.464780" lon="-5.088507">
        <ele>-56.869</ele>
        <time>2021-10-14T16:43:10Z</time>
      </trkpt>
      <trkpt lat="43.464815" lon="-5.088234">
        <ele>-56.711</ele>
        <time>2021-10-14T16:43:12Z</time>
      </trkpt>
      <trkpt lat="43.464873" lon="-5.088111">
        <ele>-57.560</ele>
        <time>2021-10-14T16:43:13Z</time>
      </trkpt>
      <trkpt lat="43.464959" lon="-5.087993">
        <ele>-59.497</ele>
        <time>2021-10-14T16:43:14Z</time>
      </trkpt>
      <trkpt lat="43.465148" lon="-5.087762">
        <ele>-60.323</ele>
        <time>2021-10-14T16:43:16Z</time>
      </trkpt>
      <trkpt lat="43.465251" lon="-5.087449">
        <ele>-61.125</ele>
        <time>2021-10-14T16:43:18Z</time>
      </trkpt>
      <trkpt lat="43.465314" lon="-5.087073">
        <ele>-63.608</ele>
        <time>2021-10-14T16:43:20Z</time>
      </trkpt>
      <trkpt lat="43.465361" lon="-5.086652">
        <ele>-64.717</ele>
        <time>2021-10-14T16:43:22Z</time>
      </trkpt>
      <trkpt lat="43.465364" lon="-5.086224">
        <ele>-66.965</ele>
        <time>2021-10-14T16:43:24Z</time>
      </trkpt>
      <trkpt lat="43.465322" lon="-5.086027">
        <ele>-68.213</ele>
        <time>2021-10-14T16:43:25Z</time>
      </trkpt>
      <trkpt lat="43.465268" lon="-5.085837">
        <ele>-69.280</ele>
        <time>2021-10-14T16:43:26Z</time>
      </trkpt>
      <trkpt lat="43.465237" lon="-5.085503">
        <ele>-70.493</ele>
        <time>2021-10-14T16:43:28Z</time>
      </trkpt>
      <trkpt lat="43.465270" lon="-5.085345">
        <ele>-70.940</ele>
        <time>2021-10-14T16:43:29Z</time>
      </trkpt>
      <trkpt lat="43.465348" lon="-5.085006">
        <ele>-72.822</ele>
        <time>2021-10-14T16:43:31Z</time>
      </trkpt>
      <trkpt lat="43.465355" lon="-5.084795">
        <ele>-72.431</ele>
        <time>2021-10-14T16:43:32Z</time>
      </trkpt>
      <trkpt lat="43.465355" lon="-5.084362">
        <ele>-72.327</ele>
        <time>2021-10-14T16:43:34Z</time>
      </trkpt>
      <trkpt lat="43.465360" lon="-5.084128">
        <ele>-73.268</ele>
        <time>2021-10-14T16:43:35Z</time>
      </trkpt>
      <trkpt lat="43.465377" lon="-5.083656">
        <ele>-73.714</ele>
        <time>2021-10-14T16:43:37Z</time>
      </trkpt>
      <trkpt lat="43.465392" lon="-5.083425">
        <ele>-73.008</ele>
        <time>2021-10-14T16:43:38Z</time>
      </trkpt>
      <trkpt lat="43.465462" lon="-5.083026">
        <ele>-73.220</ele>
        <time>2021-10-14T16:43:40Z</time>
      </trkpt>
      <trkpt lat="43.465493" lon="-5.082855">
        <ele>-73.828</ele>
        <time>2021-10-14T16:43:41Z</time>
      </trkpt>
      <trkpt lat="43.465456" lon="-5.082552">
        <ele>-74.376</ele>
        <time>2021-10-14T16:43:43Z</time>
      </trkpt>
      <trkpt lat="43.465386" lon="-5.082427">
        <ele>-74.313</ele>
        <time>2021-10-14T16:43:44Z</time>
      </trkpt>
      <trkpt lat="43.465187" lon="-5.082263">
        <ele>-75.326</ele>
        <time>2021-10-14T16:43:46Z</time>
      </trkpt>
      <trkpt lat="43.465073" lon="-5.082170">
        <ele>-74.233</ele>
        <time>2021-10-14T16:43:47Z</time>
      </trkpt>
      <trkpt lat="43.464889" lon="-5.081865">
        <ele>-74.265</ele>
        <time>2021-10-14T16:43:49Z</time>
      </trkpt>
      <trkpt lat="43.464819" lon="-5.081661">
        <ele>-73.894</ele>
        <time>2021-10-14T16:43:50Z</time>
      </trkpt>
      <trkpt lat="43.464677" lon="-5.081268">
        <ele>-71.756</ele>
        <time>2021-10-14T16:43:52Z</time>
      </trkpt>
      <trkpt lat="43.464596" lon="-5.081073">
        <ele>-72.559</ele>
        <time>2021-10-14T16:43:53Z</time>
      </trkpt>
      <trkpt lat="43.464454" lon="-5.080669">
        <ele>-72.414</ele>
        <time>2021-10-14T16:43:55Z</time>
      </trkpt>
      <trkpt lat="43.464401" lon="-5.080449">
        <ele>-73.208</ele>
        <time>2021-10-14T16:43:56Z</time>
      </trkpt>
      <trkpt lat="43.464364" lon="-5.080030">
        <ele>-71.213</ele>
        <time>2021-10-14T16:43:58Z</time>
      </trkpt>
      <trkpt lat="43.464383" lon="-5.079815">
        <ele>-73.991</ele>
        <time>2021-10-14T16:43:59Z</time>
      </trkpt>
      <trkpt lat="43.464476" lon="-5.079404">
        <ele>-71.389</ele>
        <time>2021-10-14T16:44:01Z</time>
      </trkpt>
      <trkpt lat="43.464527" lon="-5.079188">
        <ele>-71.746</ele>
        <time>2021-10-14T16:44:02Z</time>
      </trkpt>
      <trkpt lat="43.464612" lon="-5.078776">
        <ele>-71.859</ele>
        <time>2021-10-14T16:44:04Z</time>
      </trkpt>
      <trkpt lat="43.464694" lon="-5.078393">
        <ele>-72.276</ele>
        <time>2021-10-14T16:44:06Z</time>
      </trkpt>
      <trkpt lat="43.464722" lon="-5.078209">
        <ele>-71.328</ele>
        <time>2021-10-14T16:44:07Z</time>
      </trkpt>
      <trkpt lat="43.464731" lon="-5.078026">
        <ele>-70.427</ele>
        <time>2021-10-14T16:44:08Z</time>
      </trkpt>
      <trkpt lat="43.464694" lon="-5.077660">
        <ele>-70.223</ele>
        <time>2021-10-14T16:44:10Z</time>
      </trkpt>
      <trkpt lat="43.464656" lon="-5.077456">
        <ele>-71.283</ele>
        <time>2021-10-14T16:44:11Z</time>
      </trkpt>
      <trkpt lat="43.464569" lon="-5.077020">
        <ele>-71.911</ele>
        <time>2021-10-14T16:44:13Z</time>
      </trkpt>
      <trkpt lat="43.464530" lon="-5.076783">
        <ele>-72.408</ele>
        <time>2021-10-14T16:44:14Z</time>
      </trkpt>
      <trkpt lat="43.464461" lon="-5.076319">
        <ele>-74.290</ele>
        <time>2021-10-14T16:44:16Z</time>
      </trkpt>
      <trkpt lat="43.464423" lon="-5.076081">
        <ele>-74.978</ele>
        <time>2021-10-14T16:44:17Z</time>
      </trkpt>
      <trkpt lat="43.464356" lon="-5.075640">
        <ele>-74.836</ele>
        <time>2021-10-14T16:44:19Z</time>
      </trkpt>
      <trkpt lat="43.464326" lon="-5.075429">
        <ele>-75.533</ele>
        <time>2021-10-14T16:44:20Z</time>
      </trkpt>
      <trkpt lat="43.464244" lon="-5.075055">
        <ele>-75.276</ele>
        <time>2021-10-14T16:44:22Z</time>
      </trkpt>
      <trkpt lat="43.464073" lon="-5.074698">
        <ele>-76.293</ele>
        <time>2021-10-14T16:44:24Z</time>
      </trkpt>
      <trkpt lat="43.463963" lon="-5.074522">
        <ele>-76.255</ele>
        <time>2021-10-14T16:44:25Z</time>
      </trkpt>
      <trkpt lat="43.463849" lon="-5.074335">
        <ele>-74.454</ele>
        <time>2021-10-14T16:44:26Z</time>
      </trkpt>
      <trkpt lat="43.463654" lon="-5.073973">
        <ele>-75.936</ele>
        <time>2021-10-14T16:44:28Z</time>
      </trkpt>
      <trkpt lat="43.463568" lon="-5.073790">
        <ele>-74.417</ele>
        <time>2021-10-14T16:44:29Z</time>
      </trkpt>
      <trkpt lat="43.463500" lon="-5.073599">
        <ele>-74.418</ele>
        <time>2021-10-14T16:44:30Z</time>
      </trkpt>
      <trkpt lat="43.463447" lon="-5.073162">
        <ele>-74.208</ele>
        <time>2021-10-14T16:44:32Z</time>
      </trkpt>
      <trkpt lat="43.463451" lon="-5.072732">
        <ele>-73.541</ele>
        <time>2021-10-14T16:44:34Z</time>
      </trkpt>
      <trkpt lat="43.463445" lon="-5.072531">
        <ele>-72.079</ele>
        <time>2021-10-14T16:44:35Z</time>
      </trkpt>
      <trkpt lat="43.463412" lon="-5.072152">
        <ele>-72.717</ele>
        <time>2021-10-14T16:44:37Z</time>
      </trkpt>
      <trkpt lat="43.463372" lon="-5.071960">
        <ele>-73.254</ele>
        <time>2021-10-14T16:44:38Z</time>
      </trkpt>
      <trkpt lat="43.463252" lon="-5.071587">
        <ele>-73.287</ele>
        <time>2021-10-14T16:44:40Z</time>
      </trkpt>
      <trkpt lat="43.463114" lon="-5.071182">
        <ele>-72.754</ele>
        <time>2021-10-14T16:44:42Z</time>
      </trkpt>
      <trkpt lat="43.462999" lon="-5.070734">
        <ele>-73.576</ele>
        <time>2021-10-14T16:44:44Z</time>
      </trkpt>
      <trkpt lat="43.462890" lon="-5.070312">
        <ele>-73.855</ele>
        <time>2021-10-14T16:44:46Z</time>
      </trkpt>
      <trkpt lat="43.462836" lon="-5.070119">
        <ele>-73.242</ele>
        <time>2021-10-14T16:44:47Z</time>
      </trkpt>
      <trkpt lat="43.462745" lon="-5.069788">
        <ele>-74.322</ele>
        <time>2021-10-14T16:44:49Z</time>
      </trkpt>
      <trkpt lat="43.462707" lon="-5.069657">
        <ele>-73.214</ele>
        <time>2021-10-14T16:44:50Z</time>
      </trkpt>
      <trkpt lat="43.462654" lon="-5.069446">
        <ele>-73.208</ele>
        <time>2021-10-14T16:44:52Z</time>
      </trkpt>
      <trkpt lat="43.462641" lon="-5.069336">
        <ele>-71.712</ele>
        <time>2021-10-14T16:44:53Z</time>
      </trkpt>
      <trkpt lat="43.462649" lon="-5.069087">
        <ele>-71.910</ele>
        <time>2021-10-14T16:44:55Z</time>
      </trkpt>
      <trkpt lat="43.462664" lon="-5.068940">
        <ele>-70.878</ele>
        <time>2021-10-14T16:44:56Z</time>
      </trkpt>
      <trkpt lat="43.462696" lon="-5.068653">
        <ele>-72.525</ele>
        <time>2021-10-14T16:44:58Z</time>
      </trkpt>
      <trkpt lat="43.462727" lon="-5.068382">
        <ele>-73.588</ele>
        <time>2021-10-14T16:45:00Z</time>
      </trkpt>
      <trkpt lat="43.462745" lon="-5.068257">
        <ele>-74.255</ele>
        <time>2021-10-14T16:45:01Z</time>
      </trkpt>
      <trkpt lat="43.462764" lon="-5.068130">
        <ele>-73.837</ele>
        <time>2021-10-14T16:45:02Z</time>
      </trkpt>
      <trkpt lat="43.462825" lon="-5.067876">
        <ele>-74.896</ele>
        <time>2021-10-14T16:45:04Z</time>
      </trkpt>
      <trkpt lat="43.462946" lon="-5.067655">
        <ele>-75.269</ele>
        <time>2021-10-14T16:45:06Z</time>
      </trkpt>
      <trkpt lat="43.463017" lon="-5.067573">
        <ele>-75.204</ele>
        <time>2021-10-14T16:45:07Z</time>
      </trkpt>
      <trkpt lat="43.463085" lon="-5.067501">
        <ele>-74.724</ele>
        <time>2021-10-14T16:45:08Z</time>
      </trkpt>
      <trkpt lat="43.463208" lon="-5.067364">
        <ele>-75.708</ele>
        <time>2021-10-14T16:45:10Z</time>
      </trkpt>
      <trkpt lat="43.463274" lon="-5.067283">
        <ele>-75.514</ele>
        <time>2021-10-14T16:45:11Z</time>
      </trkpt>
      <trkpt lat="43.463413" lon="-5.067111">
        <ele>-76.272</ele>
        <time>2021-10-14T16:45:13Z</time>
      </trkpt>
      <trkpt lat="43.463484" lon="-5.067020">
        <ele>-76.560</ele>
        <time>2021-10-14T16:45:14Z</time>
      </trkpt>
      <trkpt lat="43.463602" lon="-5.066863">
        <ele>-79.437</ele>
        <time>2021-10-14T16:45:16Z</time>
      </trkpt>
      <trkpt lat="43.463655" lon="-5.066789">
        <ele>-79.070</ele>
        <time>2021-10-14T16:45:17Z</time>
      </trkpt>
      <trkpt lat="43.463753" lon="-5.066626">
        <ele>-81.267</ele>
        <time>2021-10-14T16:45:19Z</time>
      </trkpt>
      <trkpt lat="43.463797" lon="-5.066528">
        <ele>-80.749</ele>
        <time>2021-10-14T16:45:20Z</time>
      </trkpt>
      <trkpt lat="43.463840" lon="-5.066331">
        <ele>-83.268</ele>
        <time>2021-10-14T16:45:22Z</time>
      </trkpt>
      <trkpt lat="43.463842" lon="-5.066214">
        <ele>-82.455</ele>
        <time>2021-10-14T16:45:23Z</time>
      </trkpt>
      <trkpt lat="43.463828" lon="-5.066092">
        <ele>-81.707</ele>
        <time>2021-10-14T16:45:24Z</time>
      </trkpt>
      <trkpt lat="43.463804" lon="-5.065974">
        <ele>-84.517</ele>
        <time>2021-10-14T16:45:25Z</time>
      </trkpt>
      <trkpt lat="43.463768" lon="-5.065859">
        <ele>-83.208</ele>
        <time>2021-10-14T16:45:26Z</time>
      </trkpt>
      <trkpt lat="43.463683" lon="-5.065677">
        <ele>-85.793</ele>
        <time>2021-10-14T16:45:28Z</time>
      </trkpt>
      <trkpt lat="43.463587" lon="-5.065539">
        <ele>-86.561</ele>
        <time>2021-10-14T16:45:30Z</time>
      </trkpt>
      <trkpt lat="43.463485" lon="-5.065429">
        <ele>-84.939</ele>
        <time>2021-10-14T16:45:32Z</time>
      </trkpt>
      <trkpt lat="43.463365" lon="-5.065333">
        <ele>-82.756</ele>
        <time>2021-10-14T16:45:34Z</time>
      </trkpt>
      <trkpt lat="43.463298" lon="-5.065286">
        <ele>-83.049</ele>
        <time>2021-10-14T16:45:35Z</time>
      </trkpt>
      <trkpt lat="43.463177" lon="-5.065203">
        <ele>-83.286</ele>
        <time>2021-10-14T16:45:37Z</time>
      </trkpt>
      <trkpt lat="43.463120" lon="-5.065156">
        <ele>-81.528</ele>
        <time>2021-10-14T16:45:38Z</time>
      </trkpt>
      <trkpt lat="43.463016" lon="-5.065047">
        <ele>-80.967</ele>
        <time>2021-10-14T16:45:40Z</time>
      </trkpt>
      <trkpt lat="43.462966" lon="-5.064978">
        <ele>-80.716</ele>
        <time>2021-10-14T16:45:41Z</time>
      </trkpt>
      <trkpt lat="43.462875" lon="-5.064825">
        <ele>-82.076</ele>
        <time>2021-10-14T16:45:43Z</time>
      </trkpt>
      <trkpt lat="43.462838" lon="-5.064742">
        <ele>-79.713</ele>
        <time>2021-10-14T16:45:44Z</time>
      </trkpt>
      <trkpt lat="43.462770" lon="-5.064559">
        <ele>-82.008</ele>
        <time>2021-10-14T16:45:46Z</time>
      </trkpt>
      <trkpt lat="43.462738" lon="-5.064459">
        <ele>-81.799</ele>
        <time>2021-10-14T16:45:47Z</time>
      </trkpt>
      <trkpt lat="43.462683" lon="-5.064287">
        <ele>-80.027</ele>
        <time>2021-10-14T16:45:49Z</time>
      </trkpt>
      <trkpt lat="43.462661" lon="-5.064223">
        <ele>-80.485</ele>
        <time>2021-10-14T16:45:50Z</time>
      </trkpt>
      <trkpt lat="43.462621" lon="-5.064108">
        <ele>-81.722</ele>
        <time>2021-10-14T16:45:52Z</time>
      </trkpt>
      <trkpt lat="43.462570" lon="-5.063962">
        <ele>-79.575</ele>
        <time>2021-10-14T16:45:54Z</time>
      </trkpt>
      <trkpt lat="43.462523" lon="-5.063839">
        <ele>-79.432</ele>
        <time>2021-10-14T16:45:56Z</time>
      </trkpt>
      <trkpt lat="43.462487" lon="-5.063745">
        <ele>-79.054</ele>
        <time>2021-10-14T16:45:58Z</time>
      </trkpt>
      <trkpt lat="43.462440" lon="-5.063603">
        <ele>-78.443</ele>
        <time>2021-10-14T16:46:00Z</time>
      </trkpt>
      <trkpt lat="43.462375" lon="-5.063425">
        <ele>-80.713</ele>
        <time>2021-10-14T16:46:02Z</time>
      </trkpt>
      <trkpt lat="43.462311" lon="-5.063250">
        <ele>-80.443</ele>
        <time>2021-10-14T16:46:04Z</time>
      </trkpt>
      <trkpt lat="43.462279" lon="-5.063152">
        <ele>-79.707</ele>
        <time>2021-10-14T16:46:05Z</time>
      </trkpt>
      <trkpt lat="43.462232" lon="-5.062989">
        <ele>-80.408</ele>
        <time>2021-10-14T16:46:07Z</time>
      </trkpt>
      <trkpt lat="43.462211" lon="-5.062928">
        <ele>-80.569</ele>
        <time>2021-10-14T16:46:08Z</time>
      </trkpt>
      <trkpt lat="43.462177" lon="-5.062831">
        <ele>-80.797</ele>
        <time>2021-10-14T16:46:10Z</time>
      </trkpt>
      <trkpt lat="43.462140" lon="-5.062712">
        <ele>-80.255</ele>
        <time>2021-10-14T16:46:12Z</time>
      </trkpt>
      <trkpt lat="43.462083" lon="-5.062538">
        <ele>-79.482</ele>
        <time>2021-10-14T16:46:14Z</time>
      </trkpt>
      <trkpt lat="43.462029" lon="-5.062363">
        <ele>-78.945</ele>
        <time>2021-10-14T16:46:16Z</time>
      </trkpt>
      <trkpt lat="43.461976" lon="-5.062196">
        <ele>-79.922</ele>
        <time>2021-10-14T16:46:18Z</time>
      </trkpt>
      <trkpt lat="43.461947" lon="-5.062110">
        <ele>-79.744</ele>
        <time>2021-10-14T16:46:19Z</time>
      </trkpt>
      <trkpt lat="43.461917" lon="-5.062028">
        <ele>-80.463</ele>
        <time>2021-10-14T16:46:20Z</time>
      </trkpt>
      <trkpt lat="43.461875" lon="-5.061883">
        <ele>-79.232</ele>
        <time>2021-10-14T16:46:22Z</time>
      </trkpt>
      <trkpt lat="43.461851" lon="-5.061812">
        <ele>-79.592</ele>
        <time>2021-10-14T16:46:23Z</time>
      </trkpt>
      <trkpt lat="43.461799" lon="-5.061660">
        <ele>-78.711</ele>
        <time>2021-10-14T16:46:25Z</time>
      </trkpt>
      <trkpt lat="43.461772" lon="-5.061576">
        <ele>-80.208</ele>
        <time>2021-10-14T16:46:26Z</time>
      </trkpt>
      <trkpt lat="43.461718" lon="-5.061408">
        <ele>-79.021</ele>
        <time>2021-10-14T16:46:28Z</time>
      </trkpt>
      <trkpt lat="43.461692" lon="-5.061326">
        <ele>-79.569</ele>
        <time>2021-10-14T16:46:29Z</time>
      </trkpt>
      <trkpt lat="43.461649" lon="-5.061186">
        <ele>-79.437</ele>
        <time>2021-10-14T16:46:31Z</time>
      </trkpt>
      <trkpt lat="43.461628" lon="-5.061124">
        <ele>-80.964</ele>
        <time>2021-10-14T16:46:32Z</time>
      </trkpt>
      <trkpt lat="43.461592" lon="-5.061001">
        <ele>-81.587</ele>
        <time>2021-10-14T16:46:34Z</time>
      </trkpt>
      <trkpt lat="43.461566" lon="-5.060926">
        <ele>-81.484</ele>
        <time>2021-10-14T16:46:35Z</time>
      </trkpt>
      <trkpt lat="43.461474" lon="-5.060757">
        <ele>-81.276</ele>
        <time>2021-10-14T16:46:37Z</time>
      </trkpt>
      <trkpt lat="43.461407" lon="-5.060674">
        <ele>-81.535</ele>
        <time>2021-10-14T16:46:38Z</time>
      </trkpt>
      <trkpt lat="43.461297" lon="-5.060539">
        <ele>-80.487</ele>
        <time>2021-10-14T16:46:40Z</time>
      </trkpt>
      <trkpt lat="43.461183" lon="-5.060428">
        <ele>-81.042</ele>
        <time>2021-10-14T16:46:42Z</time>
      </trkpt>
      <trkpt lat="43.461116" lon="-5.060404">
        <ele>-82.226</ele>
        <time>2021-10-14T16:46:43Z</time>
      </trkpt>
      <trkpt lat="43.461046" lon="-5.060411">
        <ele>-82.708</ele>
        <time>2021-10-14T16:46:44Z</time>
      </trkpt>
      <trkpt lat="43.460946" lon="-5.060476">
        <ele>-81.986</ele>
        <time>2021-10-14T16:46:46Z</time>
      </trkpt>
      <trkpt lat="43.460917" lon="-5.060544">
        <ele>-82.784</ele>
        <time>2021-10-14T16:46:48Z</time>
      </trkpt>
      <trkpt lat="43.460919" lon="-5.060635">
        <ele>-85.272</ele>
        <time>2021-10-14T16:46:51Z</time>
      </trkpt>
      <trkpt lat="43.460928" lon="-5.060720">
        <ele>-84.969</ele>
        <time>2021-10-14T16:46:53Z</time>
      </trkpt>
      <trkpt lat="43.460943" lon="-5.060786">
        <ele>-85.242</ele>
        <time>2021-10-14T16:46:54Z</time>
      </trkpt>
      <trkpt lat="43.460995" lon="-5.060924">
        <ele>-84.759</ele>
        <time>2021-10-14T16:46:56Z</time>
      </trkpt>
      <trkpt lat="43.461026" lon="-5.060996">
        <ele>-84.281</ele>
        <time>2021-10-14T16:46:58Z</time>
      </trkpt>
      <trkpt lat="43.461068" lon="-5.061053">
        <ele>-64.340</ele>
        <time>2021-10-14T16:47:10Z</time>
      </trkpt>
      <trkpt lat="43.461114" lon="-5.061112">
        <ele>-43.273</ele>
        <time>2021-10-14T16:47:12Z</time>
      </trkpt>
      <trkpt lat="43.461168" lon="-5.061118">
        <ele>-25.185</ele>
        <time>2021-10-14T16:47:14Z</time>
      </trkpt>
      <trkpt lat="43.461220" lon="-5.061112">
        <ele>-18.313</ele>
        <time>2021-10-14T16:47:17Z</time>
      </trkpt>
      <trkpt lat="43.461264" lon="-5.061134">
        <ele>-18.208</ele>
        <time>2021-10-14T16:47:22Z</time>
      </trkpt>
      <trkpt lat="43.461306" lon="-5.061165">
        <ele>-18.695</ele>
        <time>2021-10-14T16:47:27Z</time>
      </trkpt>
      <trkpt lat="43.461296" lon="-5.061103">
        <ele>-22.033</ele>
        <time>2021-10-14T16:47:36Z</time>
      </trkpt>
      <trkpt lat="43.461333" lon="-5.061156">
        <ele>-22.511</ele>
        <time>2021-10-14T16:48:35Z</time>
      </trkpt>
      <trkpt lat="43.461378" lon="-5.061169">
        <ele>-22.518</ele>
        <time>2021-10-14T16:48:38Z</time>
      </trkpt>
      <trkpt lat="43.461339" lon="-5.061209">
        <ele>-21.611</ele>
        <time>2021-10-14T16:49:05Z</time>
      </trkpt>
      <trkpt lat="43.461315" lon="-5.061263">
        <ele>-21.358</ele>
        <time>2021-10-14T16:49:10Z</time>
      </trkpt>
      <trkpt lat="43.461306" lon="-5.061328">
        <ele>-21.690</ele>
        <time>2021-10-14T16:49:57Z</time>
      </trkpt>
      <trkpt lat="43.461316" lon="-5.061268">
        <ele>-22.379</ele>
        <time>2021-10-14T16:50:42Z</time>
      </trkpt>
      <trkpt lat="43.461349" lon="-5.061218">
        <ele>-22.184</ele>
        <time>2021-10-14T16:51:09Z</time>
      </trkpt>
      <trkpt lat="43.461384" lon="-5.061174">
        <ele>-22.007</ele>
        <time>2021-10-14T16:51:13Z</time>
      </trkpt>
      <trkpt lat="43.461426" lon="-5.061138">
        <ele>-22.317</ele>
        <time>2021-10-14T16:51:23Z</time>
      </trkpt>
      <trkpt lat="43.461478" lon="-5.061107">
        <ele>-22.308</ele>
        <time>2021-10-14T16:51:26Z</time>
      </trkpt>
      <trkpt lat="43.461519" lon="-5.061081">
        <ele>-22.036</ele>
        <time>2021-10-14T16:51:29Z</time>
      </trkpt>
      <trkpt lat="43.461570" lon="-5.061068">
        <ele>-21.824</ele>
        <time>2021-10-14T16:52:03Z</time>
      </trkpt>
      <trkpt lat="43.461624" lon="-5.061080">
        <ele>-21.832</ele>
        <time>2021-10-14T16:52:07Z</time>
      </trkpt>
      <trkpt lat="43.461670" lon="-5.061092">
        <ele>-22.589</ele>
        <time>2021-10-14T16:52:34Z</time>
      </trkpt>
      <trkpt lat="43.461697" lon="-5.061148">
        <ele>-22.522</ele>
        <time>2021-10-14T16:52:40Z</time>
      </trkpt>
      <trkpt lat="43.461674" lon="-5.061094">
        <ele>-22.839</ele>
        <time>2021-10-14T16:53:27Z</time>
      </trkpt>
      <trkpt lat="43.461627" lon="-5.061060">
        <ele>-22.051</ele>
        <time>2021-10-14T16:54:57Z</time>
      </trkpt>
      <trkpt lat="43.461582" lon="-5.061070">
        <ele>-22.850</ele>
        <time>2021-10-14T16:55:06Z</time>
      </trkpt>
      <trkpt lat="43.461539" lon="-5.061043">
        <ele>-22.588</ele>
        <time>2021-10-14T16:55:16Z</time>
      </trkpt>
      <trkpt lat="43.461498" lon="-5.061016">
        <ele>-22.524</ele>
        <time>2021-10-14T16:55:19Z</time>
      </trkpt>
      <trkpt lat="43.461450" lon="-5.061022">
        <ele>-22.526</ele>
        <time>2021-10-14T16:55:21Z</time>
      </trkpt>
      <trkpt lat="43.461396" lon="-5.061049">
        <ele>-22.508</ele>
        <time>2021-10-14T16:55:25Z</time>
      </trkpt>
      <trkpt lat="43.461356" lon="-5.061079">
        <ele>-22.576</ele>
        <time>2021-10-14T16:55:28Z</time>
      </trkpt>
      <trkpt lat="43.461312" lon="-5.061108">
        <ele>-22.664</ele>
        <time>2021-10-14T16:55:31Z</time>
      </trkpt>
      <trkpt lat="43.461284" lon="-5.061158">
        <ele>-21.392</ele>
        <time>2021-10-14T16:58:31Z</time>
      </trkpt>
      <trkpt lat="43.461218" lon="-5.061168">
        <ele>-21.399</ele>
        <time>2021-10-14T16:58:32Z</time>
      </trkpt>
      <trkpt lat="43.461145" lon="-5.061205">
        <ele>-21.362</ele>
        <time>2021-10-14T16:58:33Z</time>
      </trkpt>
      <trkpt lat="43.461092" lon="-5.061201">
        <ele>-21.319</ele>
        <time>2021-10-14T16:58:35Z</time>
      </trkpt>
      <trkpt lat="43.461047" lon="-5.061221">
        <ele>-21.351</ele>
        <time>2021-10-14T16:58:37Z</time>
      </trkpt>
      <trkpt lat="43.460985" lon="-5.061249">
        <ele>-21.320</ele>
        <time>2021-10-14T16:58:39Z</time>
      </trkpt>
      <trkpt lat="43.460916" lon="-5.061180">
        <ele>-21.348</ele>
        <time>2021-10-14T16:58:41Z</time>
      </trkpt>
      <trkpt lat="43.460879" lon="-5.061085">
        <ele>-21.361</ele>
        <time>2021-10-14T16:58:42Z</time>
      </trkpt>
      <trkpt lat="43.460823" lon="-5.060881">
        <ele>-21.317</ele>
        <time>2021-10-14T16:58:44Z</time>
      </trkpt>
      <trkpt lat="43.460819" lon="-5.060792">
        <ele>-21.508</ele>
        <time>2021-10-14T16:58:46Z</time>
      </trkpt>
      <trkpt lat="43.460836" lon="-5.060733">
        <ele>-21.592</ele>
        <time>2021-10-14T16:58:51Z</time>
      </trkpt>
      <trkpt lat="43.460871" lon="-5.060669">
        <ele>-21.530</ele>
        <time>2021-10-14T16:58:53Z</time>
      </trkpt>
      <trkpt lat="43.460894" lon="-5.060601">
        <ele>-21.358</ele>
        <time>2021-10-14T16:58:55Z</time>
      </trkpt>
      <trkpt lat="43.460911" lon="-5.060533">
        <ele>-21.355</ele>
        <time>2021-10-14T16:58:57Z</time>
      </trkpt>
      <trkpt lat="43.461003" lon="-5.060426">
        <ele>-21.328</ele>
        <time>2021-10-14T16:58:59Z</time>
      </trkpt>
      <trkpt lat="43.461169" lon="-5.060369">
        <ele>-21.325</ele>
        <time>2021-10-14T16:59:01Z</time>
      </trkpt>
      <trkpt lat="43.461276" lon="-5.060353">
        <ele>-21.317</ele>
        <time>2021-10-14T16:59:02Z</time>
      </trkpt>
      <trkpt lat="43.461479" lon="-5.060315">
        <ele>-21.536</ele>
        <time>2021-10-14T16:59:04Z</time>
      </trkpt>
      <trkpt lat="43.461659" lon="-5.060306">
        <ele>-21.397</ele>
        <time>2021-10-14T16:59:06Z</time>
      </trkpt>
      <trkpt lat="43.461730" lon="-5.060323">
        <ele>-21.323</ele>
        <time>2021-10-14T16:59:07Z</time>
      </trkpt>
      <trkpt lat="43.461781" lon="-5.060360">
        <ele>-21.325</ele>
        <time>2021-10-14T16:59:08Z</time>
      </trkpt>
      <trkpt lat="43.461795" lon="-5.060489">
        <ele>-21.508</ele>
        <time>2021-10-14T16:59:10Z</time>
      </trkpt>
      <trkpt lat="43.461725" lon="-5.060656">
        <ele>-21.577</ele>
        <time>2021-10-14T16:59:12Z</time>
      </trkpt>
      <trkpt lat="43.461635" lon="-5.060837">
        <ele>-21.585</ele>
        <time>2021-10-14T16:59:14Z</time>
      </trkpt>
      <trkpt lat="43.461629" lon="-5.061025">
        <ele>-21.573</ele>
        <time>2021-10-14T16:59:16Z</time>
      </trkpt>
      <trkpt lat="43.461659" lon="-5.061131">
        <ele>-21.350</ele>
        <time>2021-10-14T16:59:17Z</time>
      </trkpt>
      <trkpt lat="43.461748" lon="-5.061389">
        <ele>-21.313</ele>
        <time>2021-10-14T16:59:19Z</time>
      </trkpt>
      <trkpt lat="43.461788" lon="-5.061521">
        <ele>-21.360</ele>
        <time>2021-10-14T16:59:20Z</time>
      </trkpt>
      <trkpt lat="43.461852" lon="-5.061739">
        <ele>-21.312</ele>
        <time>2021-10-14T16:59:22Z</time>
      </trkpt>
      <trkpt lat="43.461882" lon="-5.061836">
        <ele>-21.381</ele>
        <time>2021-10-14T16:59:23Z</time>
      </trkpt>
      <trkpt lat="43.461912" lon="-5.061923">
        <ele>-21.321</ele>
        <time>2021-10-14T16:59:24Z</time>
      </trkpt>
      <trkpt lat="43.461937" lon="-5.062005">
        <ele>-21.341</ele>
        <time>2021-10-14T16:59:25Z</time>
      </trkpt>
      <trkpt lat="43.461964" lon="-5.062089">
        <ele>-21.305</ele>
        <time>2021-10-14T16:59:26Z</time>
      </trkpt>
      <trkpt lat="43.462029" lon="-5.062286">
        <ele>-21.508</ele>
        <time>2021-10-14T16:59:28Z</time>
      </trkpt>
      <trkpt lat="43.462069" lon="-5.062401">
        <ele>-21.570</ele>
        <time>2021-10-14T16:59:29Z</time>
      </trkpt>
      <trkpt lat="43.462151" lon="-5.062658">
        <ele>-80.738</ele>
        <time>2021-10-14T16:59:31Z</time>
      </trkpt>
      <trkpt lat="43.462194" lon="-5.062797">
        <ele>-80.926</ele>
        <time>2021-10-14T16:59:32Z</time>
      </trkpt>
      <trkpt lat="43.462272" lon="-5.063040">
        <ele>-80.963</ele>
        <time>2021-10-14T16:59:34Z</time>
      </trkpt>
      <trkpt lat="43.462303" lon="-5.063130">
        <ele>-81.216</ele>
        <time>2021-10-14T16:59:35Z</time>
      </trkpt>
      <trkpt lat="43.462328" lon="-5.063203">
        <ele>-79.913</ele>
        <time>2021-10-14T16:59:36Z</time>
      </trkpt>
      <trkpt lat="43.462375" lon="-5.063335">
        <ele>-80.215</ele>
        <time>2021-10-14T16:59:38Z</time>
      </trkpt>
      <trkpt lat="43.462425" lon="-5.063474">
        <ele>-80.494</ele>
        <time>2021-10-14T16:59:40Z</time>
      </trkpt>
      <trkpt lat="43.462481" lon="-5.063646">
        <ele>-79.589</ele>
        <time>2021-10-14T16:59:42Z</time>
      </trkpt>
      <trkpt lat="43.462510" lon="-5.063736">
        <ele>-79.206</ele>
        <time>2021-10-14T16:59:43Z</time>
      </trkpt>
      <trkpt lat="43.462540" lon="-5.063833">
        <ele>-79.926</ele>
        <time>2021-10-14T16:59:44Z</time>
      </trkpt>
      <trkpt lat="43.462607" lon="-5.064051">
        <ele>-80.008</ele>
        <time>2021-10-14T16:59:46Z</time>
      </trkpt>
      <trkpt lat="43.462644" lon="-5.064162">
        <ele>-80.266</ele>
        <time>2021-10-14T16:59:47Z</time>
      </trkpt>
      <trkpt lat="43.462676" lon="-5.064261">
        <ele>-79.254</ele>
        <time>2021-10-14T16:59:48Z</time>
      </trkpt>
      <trkpt lat="43.462733" lon="-5.064437">
        <ele>-80.792</ele>
        <time>2021-10-14T16:59:50Z</time>
      </trkpt>
      <trkpt lat="43.462797" lon="-5.064629">
        <ele>-79.539</ele>
        <time>2021-10-14T16:59:52Z</time>
      </trkpt>
      <trkpt lat="43.462886" lon="-5.064839">
        <ele>-80.272</ele>
        <time>2021-10-14T16:59:54Z</time>
      </trkpt>
      <trkpt lat="43.462938" lon="-5.064934">
        <ele>-81.499</ele>
        <time>2021-10-14T16:59:55Z</time>
      </trkpt>
      <trkpt lat="43.462993" lon="-5.065024">
        <ele>-81.271</ele>
        <time>2021-10-14T16:59:56Z</time>
      </trkpt>
      <trkpt lat="43.463104" lon="-5.065161">
        <ele>-80.560</ele>
        <time>2021-10-14T16:59:58Z</time>
      </trkpt>
      <trkpt lat="43.463157" lon="-5.065214">
        <ele>-80.283</ele>
        <time>2021-10-14T16:59:59Z</time>
      </trkpt>
      <trkpt lat="43.463217" lon="-5.065262">
        <ele>-82.025</ele>
        <time>2021-10-14T17:00:00Z</time>
      </trkpt>
      <trkpt lat="43.463360" lon="-5.065373">
        <ele>-82.417</ele>
        <time>2021-10-14T17:00:02Z</time>
      </trkpt>
      <trkpt lat="43.463485" lon="-5.065478">
        <ele>-82.208</ele>
        <time>2021-10-14T17:00:04Z</time>
      </trkpt>
      <trkpt lat="43.463540" lon="-5.065531">
        <ele>-81.956</ele>
        <time>2021-10-14T17:00:05Z</time>
      </trkpt>
      <trkpt lat="43.463590" lon="-5.065582">
        <ele>-82.234</ele>
        <time>2021-10-14T17:00:06Z</time>
      </trkpt>
      <trkpt lat="43.463676" lon="-5.065684">
        <ele>-82.762</ele>
        <time>2021-10-14T17:00:08Z</time>
      </trkpt>
      <trkpt lat="43.463743" lon="-5.065791">
        <ele>-82.479</ele>
        <time>2021-10-14T17:00:10Z</time>
      </trkpt>
      <trkpt lat="43.463771" lon="-5.065847">
        <ele>-81.562</ele>
        <time>2021-10-14T17:00:11Z</time>
      </trkpt>
      <trkpt lat="43.463817" lon="-5.065956">
        <ele>-80.919</ele>
        <time>2021-10-14T17:00:13Z</time>
      </trkpt>
      <trkpt lat="43.463848" lon="-5.066069">
        <ele>-80.291</ele>
        <time>2021-10-14T17:00:15Z</time>
      </trkpt>
      <trkpt lat="43.463888" lon="-5.066191">
        <ele>-79.760</ele>
        <time>2021-10-14T17:00:17Z</time>
      </trkpt>
      <trkpt lat="43.463924" lon="-5.066239">
        <ele>-79.486</ele>
        <time>2021-10-14T17:00:18Z</time>
      </trkpt>
      <trkpt lat="43.464043" lon="-5.066303">
        <ele>-78.960</ele>
        <time>2021-10-14T17:00:20Z</time>
      </trkpt>
      <trkpt lat="43.464183" lon="-5.066352">
        <ele>-79.226</ele>
        <time>2021-10-14T17:00:22Z</time>
      </trkpt>
      <trkpt lat="43.464245" lon="-5.066381">
        <ele>-79.408</ele>
        <time>2021-10-14T17:00:23Z</time>
      </trkpt>
      <trkpt lat="43.464354" lon="-5.066422">
        <ele>-79.736</ele>
        <time>2021-10-14T17:00:25Z</time>
      </trkpt>
      <trkpt lat="43.464417" lon="-5.066443">
        <ele>-79.454</ele>
        <time>2021-10-14T17:00:26Z</time>
      </trkpt>
      <trkpt lat="43.464547" lon="-5.066496">
        <ele>-78.952</ele>
        <time>2021-10-14T17:00:28Z</time>
      </trkpt>
      <trkpt lat="43.464653" lon="-5.066548">
        <ele>-78.299</ele>
        <time>2021-10-14T17:00:30Z</time>
      </trkpt>
      <trkpt lat="43.464706" lon="-5.066564">
        <ele>-76.712</ele>
        <time>2021-10-14T17:00:32Z</time>
      </trkpt>
      <trkpt lat="43.464750" lon="-5.066587">
        <ele>-77.089</ele>
        <time>2021-10-14T17:00:35Z</time>
      </trkpt>
      <trkpt lat="43.464794" lon="-5.066624">
        <ele>-75.021</ele>
        <time>2021-10-14T17:00:42Z</time>
      </trkpt>
      <trkpt lat="43.464843" lon="-5.066664">
        <ele>-74.950</ele>
        <time>2021-10-14T17:00:45Z</time>
      </trkpt>
      <trkpt lat="43.464888" lon="-5.066673">
        <ele>-74.946</ele>
        <time>2021-10-14T17:01:13Z</time>
      </trkpt>
      <trkpt lat="43.464952" lon="-5.066662">
        <ele>-74.788</ele>
        <time>2021-10-14T17:01:43Z</time>
      </trkpt>
      <trkpt lat="43.465010" lon="-5.066681">
        <ele>-74.716</ele>
        <time>2021-10-14T17:01:45Z</time>
      </trkpt>
      <trkpt lat="43.465108" lon="-5.066736">
        <ele>-74.708</ele>
        <time>2021-10-14T17:01:47Z</time>
      </trkpt>
      <trkpt lat="43.465175" lon="-5.066774">
        <ele>-74.722</ele>
        <time>2021-10-14T17:01:48Z</time>
      </trkpt>
      <trkpt lat="43.465245" lon="-5.066811">
        <ele>-74.740</ele>
        <time>2021-10-14T17:01:49Z</time>
      </trkpt>
      <trkpt lat="43.465310" lon="-5.066849">
        <ele>-74.788</ele>
        <time>2021-10-14T17:01:50Z</time>
      </trkpt>
      <trkpt lat="43.465383" lon="-5.066880">
        <ele>-74.755</ele>
        <time>2021-10-14T17:01:52Z</time>
      </trkpt>
      <trkpt lat="43.465404" lon="-5.066957">
        <ele>-74.758</ele>
        <time>2021-10-14T17:01:56Z</time>
      </trkpt>
      <trkpt lat="43.465399" lon="-5.067050">
        <ele>-74.765</ele>
        <time>2021-10-14T17:01:58Z</time>
      </trkpt>
      <trkpt lat="43.465369" lon="-5.067107">
        <ele>-74.837</ele>
        <time>2021-10-14T17:02:01Z</time>
      </trkpt>
      <trkpt lat="43.465367" lon="-5.067183">
        <ele>-75.236</ele>
        <time>2021-10-14T17:03:25Z</time>
      </trkpt>
      <trkpt lat="43.465323" lon="-5.067200">
        <ele>-75.212</ele>
        <time>2021-10-14T17:03:29Z</time>
      </trkpt>
      <trkpt lat="43.465358" lon="-5.067262">
        <ele>-75.032</ele>
        <time>2021-10-14T17:03:58Z</time>
      </trkpt>
      <trkpt lat="43.465372" lon="-5.067190">
        <ele>-74.705</ele>
        <time>2021-10-14T17:05:14Z</time>
      </trkpt>
      <trkpt lat="43.465373" lon="-5.067124">
        <ele>-74.708</ele>
        <time>2021-10-14T17:05:41Z</time>
      </trkpt>
      <trkpt lat="43.465372" lon="-5.067048">
        <ele>-75.569</ele>
        <time>2021-10-14T17:08:38Z</time>
      </trkpt>
      <trkpt lat="43.465386" lon="-5.066976">
        <ele>-75.587</ele>
        <time>2021-10-14T17:08:40Z</time>
      </trkpt>
      <trkpt lat="43.465368" lon="-5.066907">
        <ele>-75.595</ele>
        <time>2021-10-14T17:08:42Z</time>
      </trkpt>
      <trkpt lat="43.465324" lon="-5.066882">
        <ele>-75.792</ele>
        <time>2021-10-14T17:08:44Z</time>
      </trkpt>
      <trkpt lat="43.465260" lon="-5.066859">
        <ele>-75.785</ele>
        <time>2021-10-14T17:08:46Z</time>
      </trkpt>
      <trkpt lat="43.465208" lon="-5.066832">
        <ele>-75.722</ele>
        <time>2021-10-14T17:08:48Z</time>
      </trkpt>
      <trkpt lat="43.465139" lon="-5.066804">
        <ele>-75.534</ele>
        <time>2021-10-14T17:08:50Z</time>
      </trkpt>
      <trkpt lat="43.465082" lon="-5.066781">
        <ele>-75.573</ele>
        <time>2021-10-14T17:08:52Z</time>
      </trkpt>
      <trkpt lat="43.465035" lon="-5.066757">
        <ele>-75.536</ele>
        <time>2021-10-14T17:08:54Z</time>
      </trkpt>
      <trkpt lat="43.464994" lon="-5.066728">
        <ele>-75.517</ele>
        <time>2021-10-14T17:08:56Z</time>
      </trkpt>
      <trkpt lat="43.464953" lon="-5.066702">
        <ele>-75.518</ele>
        <time>2021-10-14T17:08:58Z</time>
      </trkpt>
      <trkpt lat="43.464892" lon="-5.066699">
        <ele>-75.408</ele>
        <time>2021-10-14T17:09:01Z</time>
      </trkpt>
      <trkpt lat="43.464826" lon="-5.066674">
        <ele>-75.441</ele>
        <time>2021-10-14T17:09:04Z</time>
      </trkpt>
      <trkpt lat="43.464757" lon="-5.066655">
        <ele>-75.529</ele>
        <time>2021-10-14T17:09:06Z</time>
      </trkpt>
      <trkpt lat="43.464688" lon="-5.066626">
        <ele>-75.287</ele>
        <time>2021-10-14T17:09:59Z</time>
      </trkpt>
      <trkpt lat="43.464605" lon="-5.066598">
        <ele>-75.284</ele>
        <time>2021-10-14T17:10:01Z</time>
      </trkpt>
      <trkpt lat="43.464543" lon="-5.066584">
        <ele>-75.217</ele>
        <time>2021-10-14T17:10:03Z</time>
      </trkpt>
      <trkpt lat="43.464496" lon="-5.066577">
        <ele>-75.264</ele>
        <time>2021-10-14T17:10:07Z</time>
      </trkpt>
      <trkpt lat="43.464451" lon="-5.066547">
        <ele>-75.056</ele>
        <time>2021-10-14T17:10:16Z</time>
      </trkpt>
      <trkpt lat="43.464362" lon="-5.066500">
        <ele>-75.085</ele>
        <time>2021-10-14T17:10:18Z</time>
      </trkpt>
      <trkpt lat="43.464295" lon="-5.066475">
        <ele>-75.026</ele>
        <time>2021-10-14T17:10:19Z</time>
      </trkpt>
      <trkpt lat="43.464229" lon="-5.066456">
        <ele>-75.047</ele>
        <time>2021-10-14T17:10:20Z</time>
      </trkpt>
      <trkpt lat="43.464140" lon="-5.066431">
        <ele>-75.011</ele>
        <time>2021-10-14T17:10:22Z</time>
      </trkpt>
      <trkpt lat="43.464068" lon="-5.066408">
        <ele>-75.008</ele>
        <time>2021-10-14T17:10:24Z</time>
      </trkpt>
      <trkpt lat="43.463982" lon="-5.066365">
        <ele>-75.030</ele>
        <time>2021-10-14T17:10:26Z</time>
      </trkpt>
      <trkpt lat="43.463919" lon="-5.066339">
        <ele>-75.078</ele>
        <time>2021-10-14T17:10:28Z</time>
      </trkpt>
      <trkpt lat="43.463890" lon="-5.066257">
        <ele>-74.856</ele>
        <time>2021-10-14T17:10:38Z</time>
      </trkpt>
      <trkpt lat="43.463845" lon="-5.066102">
        <ele>-74.833</ele>
        <time>2021-10-14T17:10:40Z</time>
      </trkpt>
      <trkpt lat="43.463803" lon="-5.065991">
        <ele>-74.816</ele>
        <time>2021-10-14T17:10:41Z</time>
      </trkpt>
      <trkpt lat="43.463661" lon="-5.065763">
        <ele>-74.873</ele>
        <time>2021-10-14T17:10:43Z</time>
      </trkpt>
      <trkpt lat="43.463572" lon="-5.065662">
        <ele>-74.835</ele>
        <time>2021-10-14T17:10:44Z</time>
      </trkpt>
      <trkpt lat="43.463383" lon="-5.065481">
        <ele>-74.824</ele>
        <time>2021-10-14T17:10:46Z</time>
      </trkpt>
      <trkpt lat="43.463179" lon="-5.065302">
        <ele>-74.849</ele>
        <time>2021-10-14T17:10:48Z</time>
      </trkpt>
      <trkpt lat="43.463084" lon="-5.065205">
        <ele>-74.802</ele>
        <time>2021-10-14T17:10:49Z</time>
      </trkpt>
      <trkpt lat="43.462999" lon="-5.065104">
        <ele>-74.822</ele>
        <time>2021-10-14T17:10:50Z</time>
      </trkpt>
      <trkpt lat="43.462875" lon="-5.064904">
        <ele>-74.808</ele>
        <time>2021-10-14T17:10:52Z</time>
      </trkpt>
      <trkpt lat="43.462828" lon="-5.064798">
        <ele>-74.872</ele>
        <time>2021-10-14T17:10:53Z</time>
      </trkpt>
      <trkpt lat="43.462792" lon="-5.064702">
        <ele>-74.850</ele>
        <time>2021-10-14T17:10:54Z</time>
      </trkpt>
      <trkpt lat="43.462754" lon="-5.064589">
        <ele>-74.978</ele>
        <time>2021-10-14T17:10:56Z</time>
      </trkpt>
      <trkpt lat="43.462705" lon="-5.064476">
        <ele>-74.815</ele>
        <time>2021-10-14T17:11:05Z</time>
      </trkpt>
      <trkpt lat="43.462671" lon="-5.064381">
        <ele>-74.838</ele>
        <time>2021-10-14T17:11:06Z</time>
      </trkpt>
      <trkpt lat="43.462607" lon="-5.064187">
        <ele>-74.865</ele>
        <time>2021-10-14T17:11:08Z</time>
      </trkpt>
      <trkpt lat="43.462549" lon="-5.064003">
        <ele>-74.877</ele>
        <time>2021-10-14T17:11:10Z</time>
      </trkpt>
      <trkpt lat="43.462517" lon="-5.063905">
        <ele>-74.886</ele>
        <time>2021-10-14T17:11:11Z</time>
      </trkpt>
      <trkpt lat="43.462447" lon="-5.063696">
        <ele>-74.838</ele>
        <time>2021-10-14T17:11:13Z</time>
      </trkpt>
      <trkpt lat="43.462412" lon="-5.063584">
        <ele>-74.870</ele>
        <time>2021-10-14T17:11:14Z</time>
      </trkpt>
      <trkpt lat="43.462339" lon="-5.063361">
        <ele>-74.917</ele>
        <time>2021-10-14T17:11:16Z</time>
      </trkpt>
      <trkpt lat="43.462264" lon="-5.063134">
        <ele>-74.908</ele>
        <time>2021-10-14T17:11:18Z</time>
      </trkpt>
      <trkpt lat="43.462227" lon="-5.063018">
        <ele>-74.941</ele>
        <time>2021-10-14T17:11:19Z</time>
      </trkpt>
      <trkpt lat="43.462191" lon="-5.062900">
        <ele>-74.919</ele>
        <time>2021-10-14T17:11:20Z</time>
      </trkpt>
      <trkpt lat="43.462114" lon="-5.062666">
        <ele>-75.057</ele>
        <time>2021-10-14T17:11:22Z</time>
      </trkpt>
      <trkpt lat="43.462075" lon="-5.062545">
        <ele>-75.084</ele>
        <time>2021-10-14T17:11:23Z</time>
      </trkpt>
      <trkpt lat="43.461978" lon="-5.062239">
        <ele>-75.067</ele>
        <time>2021-10-14T17:11:25Z</time>
      </trkpt>
      <trkpt lat="43.461927" lon="-5.062082">
        <ele>-75.064</ele>
        <time>2021-10-14T17:11:26Z</time>
      </trkpt>
      <trkpt lat="43.461847" lon="-5.061838">
        <ele>-75.086</ele>
        <time>2021-10-14T17:11:28Z</time>
      </trkpt>
      <trkpt lat="43.461813" lon="-5.061730">
        <ele>-75.075</ele>
        <time>2021-10-14T17:11:29Z</time>
      </trkpt>
      <trkpt lat="43.461781" lon="-5.061632">
        <ele>-74.931</ele>
        <time>2021-10-14T17:11:30Z</time>
      </trkpt>
      <trkpt lat="43.461751" lon="-5.061537">
        <ele>-74.961</ele>
        <time>2021-10-14T17:11:31Z</time>
      </trkpt>
      <trkpt lat="43.461718" lon="-5.061428">
        <ele>-74.907</ele>
        <time>2021-10-14T17:11:32Z</time>
      </trkpt>
      <trkpt lat="43.461660" lon="-5.061245">
        <ele>-74.908</ele>
        <time>2021-10-14T17:11:34Z</time>
      </trkpt>
      <trkpt lat="43.461612" lon="-5.061099">
        <ele>-74.991</ele>
        <time>2021-10-14T17:11:36Z</time>
      </trkpt>
      <trkpt lat="43.461571" lon="-5.060976">
        <ele>-74.829</ele>
        <time>2021-10-14T17:11:38Z</time>
      </trkpt>
      <trkpt lat="43.461525" lon="-5.060866">
        <ele>-74.877</ele>
        <time>2021-10-14T17:11:40Z</time>
      </trkpt>
      <trkpt lat="43.461441" lon="-5.060742">
        <ele>-74.824</ele>
        <time>2021-10-14T17:11:42Z</time>
      </trkpt>
      <trkpt lat="43.461390" lon="-5.060689">
        <ele>-74.897</ele>
        <time>2021-10-14T17:11:43Z</time>
      </trkpt>
      <trkpt lat="43.461344" lon="-5.060637">
        <ele>-74.864</ele>
        <time>2021-10-14T17:11:44Z</time>
      </trkpt>
      <trkpt lat="43.461272" lon="-5.060523">
        <ele>-74.816</ele>
        <time>2021-10-14T17:11:46Z</time>
      </trkpt>
      <trkpt lat="43.461188" lon="-5.060433">
        <ele>-74.845</ele>
        <time>2021-10-14T17:11:48Z</time>
      </trkpt>
      <trkpt lat="43.461056" lon="-5.060421">
        <ele>-74.915</ele>
        <time>2021-10-14T17:11:50Z</time>
      </trkpt>
      <trkpt lat="43.460921" lon="-5.060467">
        <ele>-74.965</ele>
        <time>2021-10-14T17:11:52Z</time>
      </trkpt>
      <trkpt lat="43.460770" lon="-5.060518">
        <ele>-74.911</ele>
        <time>2021-10-14T17:11:54Z</time>
      </trkpt>
      <trkpt lat="43.460691" lon="-5.060542">
        <ele>-74.908</ele>
        <time>2021-10-14T17:11:55Z</time>
      </trkpt>
      <trkpt lat="43.460612" lon="-5.060566">
        <ele>-74.989</ele>
        <time>2021-10-14T17:11:56Z</time>
      </trkpt>
      <trkpt lat="43.460476" lon="-5.060604">
        <ele>-74.927</ele>
        <time>2021-10-14T17:11:58Z</time>
      </trkpt>
      <trkpt lat="43.460407" lon="-5.060625">
        <ele>-74.965</ele>
        <time>2021-10-14T17:11:59Z</time>
      </trkpt>
      <trkpt lat="43.460258" lon="-5.060687">
        <ele>-74.992</ele>
        <time>2021-10-14T17:12:01Z</time>
      </trkpt>
      <trkpt lat="43.460181" lon="-5.060737">
        <ele>-85.465</ele>
        <time>2021-10-14T17:12:02Z</time>
      </trkpt>
      <trkpt lat="43.460036" lon="-5.060850">
        <ele>-84.952</ele>
        <time>2021-10-14T17:12:04Z</time>
      </trkpt>
      <trkpt lat="43.459886" lon="-5.060965">
        <ele>-86.554</ele>
        <time>2021-10-14T17:12:06Z</time>
      </trkpt>
      <trkpt lat="43.459808" lon="-5.061020">
        <ele>-85.583</ele>
        <time>2021-10-14T17:12:07Z</time>
      </trkpt>
      <trkpt lat="43.459726" lon="-5.061069">
        <ele>-86.011</ele>
        <time>2021-10-14T17:12:08Z</time>
      </trkpt>
      <trkpt lat="43.459572" lon="-5.061145">
        <ele>-86.521</ele>
        <time>2021-10-14T17:12:10Z</time>
      </trkpt>
      <trkpt lat="43.459421" lon="-5.061201">
        <ele>-86.503</ele>
        <time>2021-10-14T17:12:12Z</time>
      </trkpt>
      <trkpt lat="43.459269" lon="-5.061236">
        <ele>-87.508</ele>
        <time>2021-10-14T17:12:14Z</time>
      </trkpt>
      <trkpt lat="43.459131" lon="-5.061259">
        <ele>-84.259</ele>
        <time>2021-10-14T17:12:16Z</time>
      </trkpt>
      <trkpt lat="43.459011" lon="-5.061283">
        <ele>-86.797</ele>
        <time>2021-10-14T17:12:18Z</time>
      </trkpt>
      <trkpt lat="43.458954" lon="-5.061295">
        <ele>-86.085</ele>
        <time>2021-10-14T17:12:19Z</time>
      </trkpt>
      <trkpt lat="43.458899" lon="-5.061306">
        <ele>-85.272</ele>
        <time>2021-10-14T17:12:20Z</time>
      </trkpt>
      <trkpt lat="43.458820" lon="-5.061303">
        <ele>-85.765</ele>
        <time>2021-10-14T17:12:22Z</time>
      </trkpt>
      <trkpt lat="43.458772" lon="-5.061253">
        <ele>-87.032</ele>
        <time>2021-10-14T17:12:24Z</time>
      </trkpt>
      <trkpt lat="43.458782" lon="-5.061154">
        <ele>-85.794</ele>
        <time>2021-10-14T17:12:26Z</time>
      </trkpt>
      <trkpt lat="43.458824" lon="-5.061102">
        <ele>-84.723</ele>
        <time>2021-10-14T17:12:27Z</time>
      </trkpt>
      <trkpt lat="43.458920" lon="-5.061090">
        <ele>-84.788</ele>
        <time>2021-10-14T17:12:29Z</time>
      </trkpt>
      <trkpt lat="43.459004" lon="-5.061092">
        <ele>-84.724</ele>
        <time>2021-10-14T17:12:30Z</time>
      </trkpt>
      <trkpt lat="43.459194" lon="-5.061058">
        <ele>-84.726</ele>
        <time>2021-10-14T17:12:32Z</time>
      </trkpt>
      <trkpt lat="43.459412" lon="-5.060987">
        <ele>-84.708</ele>
        <time>2021-10-14T17:12:34Z</time>
      </trkpt>
      <trkpt lat="43.459636" lon="-5.060888">
        <ele>-84.796</ele>
        <time>2021-10-14T17:12:36Z</time>
      </trkpt>
      <trkpt lat="43.459839" lon="-5.060723">
        <ele>-84.794</ele>
        <time>2021-10-14T17:12:38Z</time>
      </trkpt>
      <trkpt lat="43.459999" lon="-5.060549">
        <ele>-84.782</ele>
        <time>2021-10-14T17:12:40Z</time>
      </trkpt>
      <trkpt lat="43.460063" lon="-5.060476">
        <ele>-84.769</ele>
        <time>2021-10-14T17:12:41Z</time>
      </trkpt>
      <trkpt lat="43.460120" lon="-5.060401">
        <ele>-84.722</ele>
        <time>2021-10-14T17:12:42Z</time>
      </trkpt>
      <trkpt lat="43.460166" lon="-5.060309">
        <ele>-84.789</ele>
        <time>2021-10-14T17:12:43Z</time>
      </trkpt>
      <trkpt lat="43.460193" lon="-5.060199">
        <ele>-84.741</ele>
        <time>2021-10-14T17:12:44Z</time>
      </trkpt>
      <trkpt lat="43.460176" lon="-5.059967">
        <ele>-84.720</ele>
        <time>2021-10-14T17:12:46Z</time>
      </trkpt>
      <trkpt lat="43.460112" lon="-5.059700">
        <ele>-84.792</ele>
        <time>2021-10-14T17:12:48Z</time>
      </trkpt>
      <trkpt lat="43.460005" lon="-5.059440">
        <ele>-84.773</ele>
        <time>2021-10-14T17:12:50Z</time>
      </trkpt>
      <trkpt lat="43.459877" lon="-5.059195">
        <ele>-84.720</ele>
        <time>2021-10-14T17:12:52Z</time>
      </trkpt>
      <trkpt lat="43.459782" lon="-5.058951">
        <ele>-84.708</ele>
        <time>2021-10-14T17:12:54Z</time>
      </trkpt>
      <trkpt lat="43.459747" lon="-5.058820">
        <ele>-84.787</ele>
        <time>2021-10-14T17:12:55Z</time>
      </trkpt>
      <trkpt lat="43.459716" lon="-5.058672">
        <ele>-84.775</ele>
        <time>2021-10-14T17:12:56Z</time>
      </trkpt>
      <trkpt lat="43.459673" lon="-5.058379">
        <ele>-84.733</ele>
        <time>2021-10-14T17:12:58Z</time>
      </trkpt>
      <trkpt lat="43.459664" lon="-5.058053">
        <ele>-84.720</ele>
        <time>2021-10-14T17:13:00Z</time>
      </trkpt>
      <trkpt lat="43.459670" lon="-5.057682">
        <ele>-84.743</ele>
        <time>2021-10-14T17:13:02Z</time>
      </trkpt>
      <trkpt lat="43.459681" lon="-5.057310">
        <ele>-84.760</ele>
        <time>2021-10-14T17:13:04Z</time>
      </trkpt>
      <trkpt lat="43.459686" lon="-5.057122">
        <ele>-84.722</ele>
        <time>2021-10-14T17:13:05Z</time>
      </trkpt>
      <trkpt lat="43.459699" lon="-5.056749">
        <ele>-84.741</ele>
        <time>2021-10-14T17:13:07Z</time>
      </trkpt>
      <trkpt lat="43.459709" lon="-5.056554">
        <ele>-84.731</ele>
        <time>2021-10-14T17:13:08Z</time>
      </trkpt>
      <trkpt lat="43.459742" lon="-5.056174">
        <ele>-84.761</ele>
        <time>2021-10-14T17:13:10Z</time>
      </trkpt>
      <trkpt lat="43.459765" lon="-5.055980">
        <ele>-84.507</ele>
        <time>2021-10-14T17:13:11Z</time>
      </trkpt>
      <trkpt lat="43.459844" lon="-5.055625">
        <ele>-84.508</ele>
        <time>2021-10-14T17:13:13Z</time>
      </trkpt>
      <trkpt lat="43.459912" lon="-5.055452">
        <ele>-84.511</ele>
        <time>2021-10-14T17:13:14Z</time>
      </trkpt>
      <trkpt lat="43.460079" lon="-5.055125">
        <ele>-84.449</ele>
        <time>2021-10-14T17:13:16Z</time>
      </trkpt>
      <trkpt lat="43.460199" lon="-5.054730">
        <ele>-84.417</ele>
        <time>2021-10-14T17:13:18Z</time>
      </trkpt>
      <trkpt lat="43.460216" lon="-5.054504">
        <ele>-84.424</ele>
        <time>2021-10-14T17:13:19Z</time>
      </trkpt>
      <trkpt lat="43.460202" lon="-5.054263">
        <ele>-84.467</ele>
        <time>2021-10-14T17:13:20Z</time>
      </trkpt>
      <trkpt lat="43.460093" lon="-5.053813">
        <ele>-84.454</ele>
        <time>2021-10-14T17:13:22Z</time>
      </trkpt>
      <trkpt lat="43.460021" lon="-5.053589">
        <ele>-84.486</ele>
        <time>2021-10-14T17:13:23Z</time>
      </trkpt>
      <trkpt lat="43.459906" lon="-5.053138">
        <ele>-84.475</ele>
        <time>2021-10-14T17:13:25Z</time>
      </trkpt>
      <trkpt lat="43.459864" lon="-5.052898">
        <ele>-84.478</ele>
        <time>2021-10-14T17:13:26Z</time>
      </trkpt>
      <trkpt lat="43.459830" lon="-5.052456">
        <ele>-46.033</ele>
        <time>2021-10-14T17:13:28Z</time>
      </trkpt>
      <trkpt lat="43.459834" lon="-5.052228">
        <ele>-45.026</ele>
        <time>2021-10-14T17:13:29Z</time>
      </trkpt>
      <trkpt lat="43.459852" lon="-5.051998">
        <ele>-46.108</ele>
        <time>2021-10-14T17:13:30Z</time>
      </trkpt>
      <trkpt lat="43.459912" lon="-5.051532">
        <ele>-47.555</ele>
        <time>2021-10-14T17:13:32Z</time>
      </trkpt>
      <trkpt lat="43.459967" lon="-5.051057">
        <ele>-47.693</ele>
        <time>2021-10-14T17:13:34Z</time>
      </trkpt>
      <trkpt lat="43.459963" lon="-5.050528">
        <ele>-51.021</ele>
        <time>2021-10-14T17:13:36Z</time>
      </trkpt>
      <trkpt lat="43.459850" lon="-5.049958">
        <ele>-53.748</ele>
        <time>2021-10-14T17:13:38Z</time>
      </trkpt>
      <trkpt lat="43.459668" lon="-5.049398">
        <ele>-54.811</ele>
        <time>2021-10-14T17:13:40Z</time>
      </trkpt>
      <trkpt lat="43.459509" lon="-5.048801">
        <ele>-55.668</ele>
        <time>2021-10-14T17:13:42Z</time>
      </trkpt>
      <trkpt lat="43.459470" lon="-5.048118">
        <ele>-55.250</ele>
        <time>2021-10-14T17:13:44Z</time>
      </trkpt>
      <trkpt lat="43.459505" lon="-5.047381">
        <ele>-57.679</ele>
        <time>2021-10-14T17:13:46Z</time>
      </trkpt>
      <trkpt lat="43.459503" lon="-5.047014">
        <ele>-58.634</ele>
        <time>2021-10-14T17:13:47Z</time>
      </trkpt>
      <trkpt lat="43.459418" lon="-5.046356">
        <ele>-58.555</ele>
        <time>2021-10-14T17:13:49Z</time>
      </trkpt>
      <trkpt lat="43.459320" lon="-5.046051">
        <ele>-57.710</ele>
        <time>2021-10-14T17:13:50Z</time>
      </trkpt>
      <trkpt lat="43.459029" lon="-5.045541">
        <ele>-57.708</ele>
        <time>2021-10-14T17:13:52Z</time>
      </trkpt>
      <trkpt lat="43.458770" lon="-5.045285">
        <ele>-58.161</ele>
        <time>2021-10-14T17:13:53Z</time>
      </trkpt>
      <trkpt lat="43.458554" lon="-5.045016">
        <ele>-56.949</ele>
        <time>2021-10-14T17:13:54Z</time>
      </trkpt>
      <trkpt lat="43.458171" lon="-5.044359">
        <ele>-58.287</ele>
        <time>2021-10-14T17:13:56Z</time>
      </trkpt>
      <trkpt lat="43.457821" lon="-5.043582">
        <ele>-58.354</ele>
        <time>2021-10-14T17:13:58Z</time>
      </trkpt>
      <trkpt lat="43.457185" lon="-5.042276">
        <ele>-61.037</ele>
        <time>2021-10-14T17:14:01Z</time>
      </trkpt>
      <trkpt lat="43.456968" lon="-5.041841">
        <ele>-59.464</ele>
        <time>2021-10-14T17:14:02Z</time>
      </trkpt>
      <trkpt lat="43.456604" lon="-5.041085">
        <ele>-60.246</ele>
        <time>2021-10-14T17:14:04Z</time>
      </trkpt>
      <trkpt lat="43.456279" lon="-5.040418">
        <ele>-58.555</ele>
        <time>2021-10-14T17:14:06Z</time>
      </trkpt>
      <trkpt lat="43.456139" lon="-5.040126">
        <ele>-57.294</ele>
        <time>2021-10-14T17:14:07Z</time>
      </trkpt>
      <trkpt lat="43.456015" lon="-5.039859">
        <ele>-58.657</ele>
        <time>2021-10-14T17:14:08Z</time>
      </trkpt>
      <trkpt lat="43.455811" lon="-5.039385">
        <ele>-55.822</ele>
        <time>2021-10-14T17:14:10Z</time>
      </trkpt>
      <trkpt lat="43.455718" lon="-5.039159">
        <ele>-54.308</ele>
        <time>2021-10-14T17:14:11Z</time>
      </trkpt>
      <trkpt lat="43.455535" lon="-5.038715">
        <ele>-53.167</ele>
        <time>2021-10-14T17:14:13Z</time>
      </trkpt>
      <trkpt lat="43.455442" lon="-5.038479">
        <ele>-51.825</ele>
        <time>2021-10-14T17:14:14Z</time>
      </trkpt>
      <trkpt lat="43.455265" lon="-5.038016">
        <ele>-52.853</ele>
        <time>2021-10-14T17:14:16Z</time>
      </trkpt>
      <trkpt lat="43.455178" lon="-5.037782">
        <ele>-51.420</ele>
        <time>2021-10-14T17:14:17Z</time>
      </trkpt>
      <trkpt lat="43.455008" lon="-5.037320">
        <ele>-49.923</ele>
        <time>2021-10-14T17:14:19Z</time>
      </trkpt>
      <trkpt lat="43.454925" lon="-5.037076">
        <ele>-48.430</ele>
        <time>2021-10-14T17:14:20Z</time>
      </trkpt>
      <trkpt lat="43.454770" lon="-5.036592">
        <ele>-49.122</ele>
        <time>2021-10-14T17:14:22Z</time>
      </trkpt>
      <trkpt lat="43.454606" lon="-5.035988">
        <ele>-48.581</ele>
        <time>2021-10-14T17:14:24Z</time>
      </trkpt>
      <trkpt lat="43.454503" lon="-5.035623">
        <ele>-48.183</ele>
        <time>2021-10-14T17:14:25Z</time>
      </trkpt>
      <trkpt lat="43.454383" lon="-5.035224">
        <ele>-48.525</ele>
        <time>2021-10-14T17:14:26Z</time>
      </trkpt>
      <trkpt lat="43.454122" lon="-5.034414">
        <ele>-51.417</ele>
        <time>2021-10-14T17:14:28Z</time>
      </trkpt>
      <trkpt lat="43.453879" lon="-5.033652">
        <ele>-52.008</ele>
        <time>2021-10-14T17:14:30Z</time>
      </trkpt>
      <trkpt lat="43.453774" lon="-5.033294">
        <ele>-52.216</ele>
        <time>2021-10-14T17:14:31Z</time>
      </trkpt>
      <trkpt lat="43.453674" lon="-5.032932">
        <ele>-53.574</ele>
        <time>2021-10-14T17:14:32Z</time>
      </trkpt>
      <trkpt lat="43.453481" lon="-5.032233">
        <ele>-54.552</ele>
        <time>2021-10-14T17:14:34Z</time>
      </trkpt>
      <trkpt lat="43.453376" lon="-5.031837">
        <ele>-54.989</ele>
        <time>2021-10-14T17:14:35Z</time>
      </trkpt>
      <trkpt lat="43.453267" lon="-5.031418">
        <ele>-55.192</ele>
        <time>2021-10-14T17:14:36Z</time>
      </trkpt>
      <trkpt lat="43.452994" lon="-5.030554">
        <ele>-54.019</ele>
        <time>2021-10-14T17:14:38Z</time>
      </trkpt>
      <trkpt lat="43.452739" lon="-5.029734">
        <ele>-55.441</ele>
        <time>2021-10-14T17:14:40Z</time>
      </trkpt>
      <trkpt lat="43.452623" lon="-5.029337">
        <ele>-56.440</ele>
        <time>2021-10-14T17:14:41Z</time>
      </trkpt>
      <trkpt lat="43.452411" lon="-5.028584">
        <ele>-57.288</ele>
        <time>2021-10-14T17:14:43Z</time>
      </trkpt>
      <trkpt lat="43.452304" lon="-5.028211">
        <ele>-56.524</ele>
        <time>2021-10-14T17:14:44Z</time>
      </trkpt>
      <trkpt lat="43.452107" lon="-5.027519">
        <ele>-56.926</ele>
        <time>2021-10-14T17:14:46Z</time>
      </trkpt>
      <trkpt lat="43.452014" lon="-5.027193">
        <ele>-56.608</ele>
        <time>2021-10-14T17:14:47Z</time>
      </trkpt>
      <trkpt lat="43.451819" lon="-5.026584">
        <ele>-55.286</ele>
        <time>2021-10-14T17:14:49Z</time>
      </trkpt>
      <trkpt lat="43.451696" lon="-5.026295">
        <ele>-55.744</ele>
        <time>2021-10-14T17:14:50Z</time>
      </trkpt>
      <trkpt lat="43.451398" lon="-5.025752">
        <ele>-53.372</ele>
        <time>2021-10-14T17:14:52Z</time>
      </trkpt>
      <trkpt lat="43.451044" lon="-5.025171">
        <ele>-52.519</ele>
        <time>2021-10-14T17:14:54Z</time>
      </trkpt>
      <trkpt lat="43.450674" lon="-5.024560">
        <ele>-51.182</ele>
        <time>2021-10-14T17:14:56Z</time>
      </trkpt>
      <trkpt lat="43.450341" lon="-5.023996">
        <ele>-50.429</ele>
        <time>2021-10-14T17:14:58Z</time>
      </trkpt>
      <trkpt lat="43.450048" lon="-5.023497">
        <ele>-46.911</ele>
        <time>2021-10-14T17:15:00Z</time>
      </trkpt>
      <trkpt lat="43.449772" lon="-5.023012">
        <ele>-45.020</ele>
        <time>2021-10-14T17:15:02Z</time>
      </trkpt>
      <trkpt lat="43.449498" lon="-5.022528">
        <ele>-43.145</ele>
        <time>2021-10-14T17:15:04Z</time>
      </trkpt>
      <trkpt lat="43.449353" lon="-5.022279">
        <ele>-43.047</ele>
        <time>2021-10-14T17:15:05Z</time>
      </trkpt>
      <trkpt lat="43.449064" lon="-5.021786">
        <ele>-40.611</ele>
        <time>2021-10-14T17:15:07Z</time>
      </trkpt>
      <trkpt lat="43.448918" lon="-5.021535">
        <ele>-38.608</ele>
        <time>2021-10-14T17:15:08Z</time>
      </trkpt>
      <trkpt lat="43.448654" lon="-5.021078">
        <ele>-37.452</ele>
        <time>2021-10-14T17:15:10Z</time>
      </trkpt>
      <trkpt lat="43.448532" lon="-5.020824">
        <ele>-37.740</ele>
        <time>2021-10-14T17:15:11Z</time>
      </trkpt>
      <trkpt lat="43.448334" lon="-5.020243">
        <ele>-40.178</ele>
        <time>2021-10-14T17:15:13Z</time>
      </trkpt>
      <trkpt lat="43.448246" lon="-5.019918">
        <ele>-41.075</ele>
        <time>2021-10-14T17:15:14Z</time>
      </trkpt>
      <trkpt lat="43.448072" lon="-5.019265">
        <ele>-43.728</ele>
        <time>2021-10-14T17:15:16Z</time>
      </trkpt>
      <trkpt lat="43.447979" lon="-5.018936">
        <ele>-44.085</ele>
        <time>2021-10-14T17:15:17Z</time>
      </trkpt>
      <trkpt lat="43.447799" lon="-5.018277">
        <ele>-48.087</ele>
        <time>2021-10-14T17:15:19Z</time>
      </trkpt>
      <trkpt lat="43.447702" lon="-5.017938">
        <ele>-48.046</ele>
        <time>2021-10-14T17:15:20Z</time>
      </trkpt>
      <trkpt lat="43.447519" lon="-5.017272">
        <ele>-49.017</ele>
        <time>2021-10-14T17:15:22Z</time>
      </trkpt>
      <trkpt lat="43.447333" lon="-5.016599">
        <ele>-47.787</ele>
        <time>2021-10-14T17:15:24Z</time>
      </trkpt>
      <trkpt lat="43.447151" lon="-5.015918">
        <ele>-48.015</ele>
        <time>2021-10-14T17:15:26Z</time>
      </trkpt>
      <trkpt lat="43.446992" lon="-5.015248">
        <ele>-51.208</ele>
        <time>2021-10-14T17:15:28Z</time>
      </trkpt>
      <trkpt lat="43.446916" lon="-5.014897">
        <ele>-51.029</ele>
        <time>2021-10-14T17:15:29Z</time>
      </trkpt>
      <trkpt lat="43.446841" lon="-5.014547">
        <ele>-51.967</ele>
        <time>2021-10-14T17:15:30Z</time>
      </trkpt>
      <trkpt lat="43.446769" lon="-5.014193">
        <ele>-50.595</ele>
        <time>2021-10-14T17:15:31Z</time>
      </trkpt>
      <trkpt lat="43.446695" lon="-5.013831">
        <ele>-50.562</ele>
        <time>2021-10-14T17:15:32Z</time>
      </trkpt>
      <trkpt lat="43.446548" lon="-5.013144">
        <ele>-50.685</ele>
        <time>2021-10-14T17:15:34Z</time>
      </trkpt>
      <trkpt lat="43.446404" lon="-5.012468">
        <ele>-50.582</ele>
        <time>2021-10-14T17:15:36Z</time>
      </trkpt>
      <trkpt lat="43.446270" lon="-5.011846">
        <ele>-50.434</ele>
        <time>2021-10-14T17:15:38Z</time>
      </trkpt>
      <trkpt lat="43.446156" lon="-5.011289">
        <ele>-51.073</ele>
        <time>2021-10-14T17:15:40Z</time>
      </trkpt>
      <trkpt lat="43.446098" lon="-5.011016">
        <ele>-50.628</ele>
        <time>2021-10-14T17:15:41Z</time>
      </trkpt>
      <trkpt lat="43.445984" lon="-5.010485">
        <ele>-51.589</ele>
        <time>2021-10-14T17:15:43Z</time>
      </trkpt>
      <trkpt lat="43.445928" lon="-5.010221">
        <ele>-50.617</ele>
        <time>2021-10-14T17:15:44Z</time>
      </trkpt>
      <trkpt lat="43.445821" lon="-5.009719">
        <ele>-50.008</ele>
        <time>2021-10-14T17:15:46Z</time>
      </trkpt>
      <trkpt lat="43.445716" lon="-5.009229">
        <ele>-49.430</ele>
        <time>2021-10-14T17:15:48Z</time>
      </trkpt>
      <trkpt lat="43.445668" lon="-5.008992">
        <ele>-48.548</ele>
        <time>2021-10-14T17:15:49Z</time>
      </trkpt>
      <trkpt lat="43.445623" lon="-5.008753">
        <ele>-48.046</ele>
        <time>2021-10-14T17:15:50Z</time>
      </trkpt>
      <trkpt lat="43.445525" lon="-5.008284">
        <ele>-46.523</ele>
        <time>2021-10-14T17:15:52Z</time>
      </trkpt>
      <trkpt lat="43.445412" lon="-5.007753">
        <ele>-46.016</ele>
        <time>2021-10-14T17:15:54Z</time>
      </trkpt>
      <trkpt lat="43.445284" lon="-5.007130">
        <ele>-44.533</ele>
        <time>2021-10-14T17:15:56Z</time>
      </trkpt>
      <trkpt lat="43.445163" lon="-5.006512">
        <ele>-41.785</ele>
        <time>2021-10-14T17:15:58Z</time>
      </trkpt>
      <trkpt lat="43.445100" lon="-5.006212">
        <ele>-41.144</ele>
        <time>2021-10-14T17:15:59Z</time>
      </trkpt>
      <trkpt lat="43.444957" lon="-5.005704">
        <ele>-39.921</ele>
        <time>2021-10-14T17:16:01Z</time>
      </trkpt>
      <trkpt lat="43.444850" lon="-5.005458">
        <ele>-39.241</ele>
        <time>2021-10-14T17:16:02Z</time>
      </trkpt>
      <trkpt lat="43.444582" lon="-5.004988">
        <ele>-39.905</ele>
        <time>2021-10-14T17:16:04Z</time>
      </trkpt>
      <trkpt lat="43.444337" lon="-5.004445">
        <ele>-42.508</ele>
        <time>2021-10-14T17:16:06Z</time>
      </trkpt>
      <trkpt lat="43.444175" lon="-5.003777">
        <ele>-42.450</ele>
        <time>2021-10-14T17:16:08Z</time>
      </trkpt>
      <trkpt lat="43.444052" lon="-5.003139">
        <ele>-43.938</ele>
        <time>2021-10-14T17:16:10Z</time>
      </trkpt>
      <trkpt lat="43.443941" lon="-5.002569">
        <ele>-42.476</ele>
        <time>2021-10-14T17:16:12Z</time>
      </trkpt>
      <trkpt lat="43.443890" lon="-5.002309">
        <ele>-43.423</ele>
        <time>2021-10-14T17:16:13Z</time>
      </trkpt>
      <trkpt lat="43.443841" lon="-5.002050">
        <ele>-42.946</ele>
        <time>2021-10-14T17:16:14Z</time>
      </trkpt>
      <trkpt lat="43.443741" lon="-5.001560">
        <ele>-41.983</ele>
        <time>2021-10-14T17:16:16Z</time>
      </trkpt>
      <trkpt lat="43.443688" lon="-5.001313">
        <ele>-43.095</ele>
        <time>2021-10-14T17:16:17Z</time>
      </trkpt>
      <trkpt lat="43.443584" lon="-5.000824">
        <ele>-42.044</ele>
        <time>2021-10-14T17:16:19Z</time>
      </trkpt>
      <trkpt lat="43.443534" lon="-5.000576">
        <ele>-43.085</ele>
        <time>2021-10-14T17:16:20Z</time>
      </trkpt>
      <trkpt lat="43.443431" lon="-5.000095">
        <ele>-41.589</ele>
        <time>2021-10-14T17:16:22Z</time>
      </trkpt>
      <trkpt lat="43.443324" lon="-4.999591">
        <ele>-42.217</ele>
        <time>2021-10-14T17:16:24Z</time>
      </trkpt>
      <trkpt lat="43.443217" lon="-4.999074">
        <ele>-39.908</ele>
        <time>2021-10-14T17:16:26Z</time>
      </trkpt>
      <trkpt lat="43.443117" lon="-4.998607">
        <ele>-40.966</ele>
        <time>2021-10-14T17:16:28Z</time>
      </trkpt>
      <trkpt lat="43.443071" lon="-4.998391">
        <ele>-39.914</ele>
        <time>2021-10-14T17:16:29Z</time>
      </trkpt>
      <trkpt lat="43.442980" lon="-4.998000">
        <ele>-38.532</ele>
        <time>2021-10-14T17:16:31Z</time>
      </trkpt>
      <trkpt lat="43.442927" lon="-4.997803">
        <ele>-36.639</ele>
        <time>2021-10-14T17:16:32Z</time>
      </trkpt>
      <trkpt lat="43.442787" lon="-4.997440">
        <ele>-35.072</ele>
        <time>2021-10-14T17:16:34Z</time>
      </trkpt>
      <trkpt lat="43.442688" lon="-4.997265">
        <ele>-34.769</ele>
        <time>2021-10-14T17:16:35Z</time>
      </trkpt>
      <trkpt lat="43.442428" lon="-4.996932">
        <ele>-32.251</ele>
        <time>2021-10-14T17:16:37Z</time>
      </trkpt>
      <trkpt lat="43.442281" lon="-4.996759">
        <ele>-31.740</ele>
        <time>2021-10-14T17:16:38Z</time>
      </trkpt>
      <trkpt lat="43.441994" lon="-4.996414">
        <ele>-30.651</ele>
        <time>2021-10-14T17:16:40Z</time>
      </trkpt>
      <trkpt lat="43.441713" lon="-4.996057">
        <ele>-29.101</ele>
        <time>2021-10-14T17:16:42Z</time>
      </trkpt>
      <trkpt lat="43.441581" lon="-4.995874">
        <ele>-26.911</ele>
        <time>2021-10-14T17:16:43Z</time>
      </trkpt>
      <trkpt lat="43.441461" lon="-4.995682">
        <ele>-27.908</ele>
        <time>2021-10-14T17:16:44Z</time>
      </trkpt>
      <trkpt lat="43.441300" lon="-4.995289">
        <ele>-25.593</ele>
        <time>2021-10-14T17:16:46Z</time>
      </trkpt>
      <trkpt lat="43.441252" lon="-4.995079">
        <ele>-24.321</ele>
        <time>2021-10-14T17:16:47Z</time>
      </trkpt>
      <trkpt lat="43.441222" lon="-4.994867">
        <ele>-23.369</ele>
        <time>2021-10-14T17:16:48Z</time>
      </trkpt>
      <trkpt lat="43.441186" lon="-4.994449">
        <ele>-22.346</ele>
        <time>2021-10-14T17:16:50Z</time>
      </trkpt>
      <trkpt lat="43.441157" lon="-4.994044">
        <ele>-21.169</ele>
        <time>2021-10-14T17:16:52Z</time>
      </trkpt>
      <trkpt lat="43.441118" lon="-4.993628">
        <ele>-19.666</ele>
        <time>2021-10-14T17:16:54Z</time>
      </trkpt>
      <trkpt lat="43.441100" lon="-4.993435">
        <ele>-18.538</ele>
        <time>2021-10-14T17:16:55Z</time>
      </trkpt>
      <trkpt lat="43.441084" lon="-4.993241">
        <ele>-17.717</ele>
        <time>2021-10-14T17:16:56Z</time>
      </trkpt>
      <trkpt lat="43.441058" lon="-4.992896">
        <ele>-15.775</ele>
        <time>2021-10-14T17:16:58Z</time>
      </trkpt>
      <trkpt lat="43.441043" lon="-4.992715">
        <ele>-14.928</ele>
        <time>2021-10-14T17:16:59Z</time>
      </trkpt>
      <trkpt lat="43.441026" lon="-4.992344">
        <ele>-15.420</ele>
        <time>2021-10-14T17:17:01Z</time>
      </trkpt>
      <trkpt lat="43.441027" lon="-4.992142">
        <ele>-14.908</ele>
        <time>2021-10-14T17:17:02Z</time>
      </trkpt>
      <trkpt lat="43.441041" lon="-4.991729">
        <ele>-15.765</ele>
        <time>2021-10-14T17:17:04Z</time>
      </trkpt>
      <trkpt lat="43.441077" lon="-4.991280">
        <ele>-16.753</ele>
        <time>2021-10-14T17:17:06Z</time>
      </trkpt>
      <trkpt lat="43.441106" lon="-4.990800">
        <ele>-17.571</ele>
        <time>2021-10-14T17:17:08Z</time>
      </trkpt>
      <trkpt lat="43.441142" lon="-4.990298">
        <ele>-19.138</ele>
        <time>2021-10-14T17:17:10Z</time>
      </trkpt>
      <trkpt lat="43.441167" lon="-4.990024">
        <ele>-19.051</ele>
        <time>2021-10-14T17:17:11Z</time>
      </trkpt>
      <trkpt lat="43.441196" lon="-4.989743">
        <ele>-20.828</ele>
        <time>2021-10-14T17:17:12Z</time>
      </trkpt>
      <trkpt lat="43.441230" lon="-4.989462">
        <ele>-21.090</ele>
        <time>2021-10-14T17:17:13Z</time>
      </trkpt>
      <trkpt lat="43.441275" lon="-4.989181">
        <ele>-23.319</ele>
        <time>2021-10-14T17:17:14Z</time>
      </trkpt>
      <trkpt lat="43.441371" lon="-4.988675">
        <ele>-26.153</ele>
        <time>2021-10-14T17:17:16Z</time>
      </trkpt>
      <trkpt lat="43.441471" lon="-4.988188">
        <ele>-28.604</ele>
        <time>2021-10-14T17:17:18Z</time>
      </trkpt>
      <trkpt lat="43.441517" lon="-4.987949">
        <ele>-29.514</ele>
        <time>2021-10-14T17:17:19Z</time>
      </trkpt>
      <trkpt lat="43.441564" lon="-4.987710">
        <ele>-29.908</ele>
        <time>2021-10-14T17:17:20Z</time>
      </trkpt>
      <trkpt lat="43.441652" lon="-4.987265">
        <ele>-34.473</ele>
        <time>2021-10-14T17:17:22Z</time>
      </trkpt>
      <trkpt lat="43.441706" lon="-4.986800">
        <ele>-38.091</ele>
        <time>2021-10-14T17:17:24Z</time>
      </trkpt>
      <trkpt lat="43.441663" lon="-4.986315">
        <ele>-40.539</ele>
        <time>2021-10-14T17:17:26Z</time>
      </trkpt>
      <trkpt lat="43.441519" lon="-4.985859">
        <ele>-44.016</ele>
        <time>2021-10-14T17:17:28Z</time>
      </trkpt>
      <trkpt lat="43.441429" lon="-4.985633">
        <ele>-43.739</ele>
        <time>2021-10-14T17:17:29Z</time>
      </trkpt>
      <trkpt lat="43.441231" lon="-4.985174">
        <ele>-48.756</ele>
        <time>2021-10-14T17:17:31Z</time>
      </trkpt>
      <trkpt lat="43.441121" lon="-4.984950">
        <ele>-48.638</ele>
        <time>2021-10-14T17:17:32Z</time>
      </trkpt>
      <trkpt lat="43.440900" lon="-4.984565">
        <ele>-48.167</ele>
        <time>2021-10-14T17:17:34Z</time>
      </trkpt>
      <trkpt lat="43.440696" lon="-4.984211">
        <ele>-48.436</ele>
        <time>2021-10-14T17:17:36Z</time>
      </trkpt>
      <trkpt lat="43.440605" lon="-4.984052">
        <ele>-47.917</ele>
        <time>2021-10-14T17:17:37Z</time>
      </trkpt>
      <trkpt lat="43.440517" lon="-4.983901">
        <ele>-48.418</ele>
        <time>2021-10-14T17:17:38Z</time>
      </trkpt>
      <trkpt lat="43.440376" lon="-4.983653">
        <ele>-46.408</ele>
        <time>2021-10-14T17:17:40Z</time>
      </trkpt>
      <trkpt lat="43.440326" lon="-4.983567">
        <ele>-45.941</ele>
        <time>2021-10-14T17:17:41Z</time>
      </trkpt>
      <trkpt lat="43.440245" lon="-4.983425">
        <ele>-45.639</ele>
        <time>2021-10-14T17:17:43Z</time>
      </trkpt>
      <trkpt lat="43.440195" lon="-4.983336">
        <ele>-44.797</ele>
        <time>2021-10-14T17:17:44Z</time>
      </trkpt>
      <trkpt lat="43.440079" lon="-4.983107">
        <ele>-45.684</ele>
        <time>2021-10-14T17:17:46Z</time>
      </trkpt>
      <trkpt lat="43.440007" lon="-4.982966">
        <ele>-44.047</ele>
        <time>2021-10-14T17:17:47Z</time>
      </trkpt>
      <trkpt lat="43.439822" lon="-4.982630">
        <ele>-41.564</ele>
        <time>2021-10-14T17:17:49Z</time>
      </trkpt>
      <trkpt lat="43.439712" lon="-4.982435">
        <ele>-41.066</ele>
        <time>2021-10-14T17:17:50Z</time>
      </trkpt>
      <trkpt lat="43.439480" lon="-4.982022">
        <ele>-39.515</ele>
        <time>2021-10-14T17:17:52Z</time>
      </trkpt>
      <trkpt lat="43.439217" lon="-4.981562">
        <ele>-37.579</ele>
        <time>2021-10-14T17:17:54Z</time>
      </trkpt>
      <trkpt lat="43.439082" lon="-4.981319">
        <ele>-36.905</ele>
        <time>2021-10-14T17:17:55Z</time>
      </trkpt>
      <trkpt lat="43.438942" lon="-4.981067">
        <ele>-35.925</ele>
        <time>2021-10-14T17:17:56Z</time>
      </trkpt>
      <trkpt lat="43.438670" lon="-4.980564">
        <ele>-36.408</ele>
        <time>2021-10-14T17:17:58Z</time>
      </trkpt>
      <trkpt lat="43.438532" lon="-4.980301">
        <ele>-39.995</ele>
        <time>2021-10-14T17:17:59Z</time>
      </trkpt>
      <trkpt lat="43.438417" lon="-4.980021">
        <ele>-39.623</ele>
        <time>2021-10-14T17:18:00Z</time>
      </trkpt>
      <trkpt lat="43.438282" lon="-4.979403">
        <ele>-41.251</ele>
        <time>2021-10-14T17:18:02Z</time>
      </trkpt>
      <trkpt lat="43.438281" lon="-4.978720">
        <ele>-40.018</ele>
        <time>2021-10-14T17:18:04Z</time>
      </trkpt>
      <trkpt lat="43.438350" lon="-4.978005">
        <ele>-37.571</ele>
        <time>2021-10-14T17:18:06Z</time>
      </trkpt>
      <trkpt lat="43.438418" lon="-4.977254">
        <ele>-36.548</ele>
        <time>2021-10-14T17:18:08Z</time>
      </trkpt>
      <trkpt lat="43.438484" lon="-4.976524">
        <ele>-36.150</ele>
        <time>2021-10-14T17:18:10Z</time>
      </trkpt>
      <trkpt lat="43.438551" lon="-4.975803">
        <ele>-35.589</ele>
        <time>2021-10-14T17:18:12Z</time>
      </trkpt>
      <trkpt lat="43.438582" lon="-4.975441">
        <ele>-35.522</ele>
        <time>2021-10-14T17:18:13Z</time>
      </trkpt>
      <trkpt lat="43.438613" lon="-4.975070">
        <ele>-35.062</ele>
        <time>2021-10-14T17:18:14Z</time>
      </trkpt>
      <trkpt lat="43.438671" lon="-4.974361">
        <ele>-34.008</ele>
        <time>2021-10-14T17:18:16Z</time>
      </trkpt>
      <trkpt lat="43.438699" lon="-4.974002">
        <ele>-32.108</ele>
        <time>2021-10-14T17:18:17Z</time>
      </trkpt>
      <trkpt lat="43.438756" lon="-4.973301">
        <ele>-28.960</ele>
        <time>2021-10-14T17:18:19Z</time>
      </trkpt>
      <trkpt lat="43.438787" lon="-4.972943">
        <ele>-28.428</ele>
        <time>2021-10-14T17:18:20Z</time>
      </trkpt>
      <trkpt lat="43.438845" lon="-4.972275">
        <ele>-27.056</ele>
        <time>2021-10-14T17:18:22Z</time>
      </trkpt>
      <trkpt lat="43.438908" lon="-4.971584">
        <ele>-24.573</ele>
        <time>2021-10-14T17:18:24Z</time>
      </trkpt>
      <trkpt lat="43.438940" lon="-4.971237">
        <ele>-24.316</ele>
        <time>2021-10-14T17:18:25Z</time>
      </trkpt>
      <trkpt lat="43.438972" lon="-4.970880">
        <ele>-23.883</ele>
        <time>2021-10-14T17:18:26Z</time>
      </trkpt>
      <trkpt lat="43.439029" lon="-4.970185">
        <ele>-23.375</ele>
        <time>2021-10-14T17:18:28Z</time>
      </trkpt>
      <trkpt lat="43.439060" lon="-4.969821">
        <ele>-23.334</ele>
        <time>2021-10-14T17:18:29Z</time>
      </trkpt>
      <trkpt lat="43.439091" lon="-4.969461">
        <ele>-23.025</ele>
        <time>2021-10-14T17:18:30Z</time>
      </trkpt>
      <trkpt lat="43.439123" lon="-4.969108">
        <ele>-23.626</ele>
        <time>2021-10-14T17:18:31Z</time>
      </trkpt>
      <trkpt lat="43.439158" lon="-4.968763">
        <ele>-21.808</ele>
        <time>2021-10-14T17:18:32Z</time>
      </trkpt>
      <trkpt lat="43.439209" lon="-4.968171">
        <ele>-24.108</ele>
        <time>2021-10-14T17:18:34Z</time>
      </trkpt>
      <trkpt lat="43.439258" lon="-4.967584">
        <ele>-25.980</ele>
        <time>2021-10-14T17:18:36Z</time>
      </trkpt>
      <trkpt lat="43.439284" lon="-4.967285">
        <ele>-24.598</ele>
        <time>2021-10-14T17:18:37Z</time>
      </trkpt>
      <trkpt lat="43.439313" lon="-4.966980">
        <ele>-24.676</ele>
        <time>2021-10-14T17:18:38Z</time>
      </trkpt>
      <trkpt lat="43.439362" lon="-4.966392">
        <ele>-26.243</ele>
        <time>2021-10-14T17:18:40Z</time>
      </trkpt>
      <trkpt lat="43.439408" lon="-4.965796">
        <ele>-26.056</ele>
        <time>2021-10-14T17:18:42Z</time>
      </trkpt>
      <trkpt lat="43.439429" lon="-4.965504">
        <ele>-24.883</ele>
        <time>2021-10-14T17:18:43Z</time>
      </trkpt>
      <trkpt lat="43.439451" lon="-4.965212">
        <ele>-23.545</ele>
        <time>2021-10-14T17:18:44Z</time>
      </trkpt>
      <trkpt lat="43.439504" lon="-4.964660">
        <ele>-22.564</ele>
        <time>2021-10-14T17:18:46Z</time>
      </trkpt>
      <trkpt lat="43.439537" lon="-4.964388">
        <ele>-20.344</ele>
        <time>2021-10-14T17:18:47Z</time>
      </trkpt>
      <trkpt lat="43.439628" lon="-4.963882">
        <ele>-19.505</ele>
        <time>2021-10-14T17:18:49Z</time>
      </trkpt>
      <trkpt lat="43.439686" lon="-4.963636">
        <ele>-18.615</ele>
        <time>2021-10-14T17:18:50Z</time>
      </trkpt>
      <trkpt lat="43.439827" lon="-4.963166">
        <ele>-18.508</ele>
        <time>2021-10-14T17:18:52Z</time>
      </trkpt>
      <trkpt lat="43.439913" lon="-4.962921">
        <ele>-19.312</ele>
        <time>2021-10-14T17:18:53Z</time>
      </trkpt>
      <trkpt lat="43.440086" lon="-4.962471">
        <ele>-20.690</ele>
        <time>2021-10-14T17:18:55Z</time>
      </trkpt>
      <trkpt lat="43.440169" lon="-4.962253">
        <ele>-21.078</ele>
        <time>2021-10-14T17:18:56Z</time>
      </trkpt>
      <trkpt lat="43.440312" lon="-4.961851">
        <ele>-21.075</ele>
        <time>2021-10-14T17:18:58Z</time>
      </trkpt>
      <trkpt lat="43.440375" lon="-4.961651">
        <ele>-22.548</ele>
        <time>2021-10-14T17:18:59Z</time>
      </trkpt>
      <trkpt lat="43.440432" lon="-4.961449">
        <ele>-22.665</ele>
        <time>2021-10-14T17:19:00Z</time>
      </trkpt>
      <trkpt lat="43.440509" lon="-4.960990">
        <ele>-23.097</ele>
        <time>2021-10-14T17:19:02Z</time>
      </trkpt>
      <trkpt lat="43.440526" lon="-4.960472">
        <ele>-23.526</ele>
        <time>2021-10-14T17:19:04Z</time>
      </trkpt>
      <trkpt lat="43.440455" lon="-4.959900">
        <ele>-23.326</ele>
        <time>2021-10-14T17:19:06Z</time>
      </trkpt>
      <trkpt lat="43.440388" lon="-4.959620">
        <ele>-25.047</ele>
        <time>2021-10-14T17:19:07Z</time>
      </trkpt>
      <trkpt lat="43.440305" lon="-4.959345">
        <ele>-25.011</ele>
        <time>2021-10-14T17:19:08Z</time>
      </trkpt>
      <trkpt lat="43.440136" lon="-4.958855">
        <ele>-25.508</ele>
        <time>2021-10-14T17:19:10Z</time>
      </trkpt>
      <trkpt lat="43.439980" lon="-4.958406">
        <ele>-26.580</ele>
        <time>2021-10-14T17:19:12Z</time>
      </trkpt>
      <trkpt lat="43.439908" lon="-4.958202">
        <ele>-26.678</ele>
        <time>2021-10-14T17:19:13Z</time>
      </trkpt>
      <trkpt lat="43.439835" lon="-4.958006">
        <ele>-27.976</ele>
        <time>2021-10-14T17:19:14Z</time>
      </trkpt>
      <trkpt lat="43.439736" lon="-4.957646">
        <ele>-27.393</ele>
        <time>2021-10-14T17:19:16Z</time>
      </trkpt>
      <trkpt lat="43.439710" lon="-4.957456">
        <ele>-27.816</ele>
        <time>2021-10-14T17:19:17Z</time>
      </trkpt>
      <trkpt lat="43.439672" lon="-4.957067">
        <ele>-28.593</ele>
        <time>2021-10-14T17:19:19Z</time>
      </trkpt>
      <trkpt lat="43.439654" lon="-4.956858">
        <ele>-27.965</ele>
        <time>2021-10-14T17:19:20Z</time>
      </trkpt>
      <trkpt lat="43.439610" lon="-4.956441">
        <ele>-27.784</ele>
        <time>2021-10-14T17:19:22Z</time>
      </trkpt>
      <trkpt lat="43.439584" lon="-4.956224">
        <ele>-26.071</ele>
        <time>2021-10-14T17:19:23Z</time>
      </trkpt>
      <trkpt lat="43.439535" lon="-4.955785">
        <ele>-25.541</ele>
        <time>2021-10-14T17:19:25Z</time>
      </trkpt>
      <trkpt lat="43.439506" lon="-4.955550">
        <ele>-25.315</ele>
        <time>2021-10-14T17:19:26Z</time>
      </trkpt>
      <trkpt lat="43.439440" lon="-4.955086">
        <ele>-23.308</ele>
        <time>2021-10-14T17:19:28Z</time>
      </trkpt>
      <trkpt lat="43.439366" lon="-4.954580">
        <ele>-22.135</ele>
        <time>2021-10-14T17:19:30Z</time>
      </trkpt>
      <trkpt lat="43.439293" lon="-4.954045">
        <ele>-22.333</ele>
        <time>2021-10-14T17:19:32Z</time>
      </trkpt>
      <trkpt lat="43.439225" lon="-4.953552">
        <ele>-21.871</ele>
        <time>2021-10-14T17:19:34Z</time>
      </trkpt>
      <trkpt lat="43.439193" lon="-4.953324">
        <ele>-21.858</ele>
        <time>2021-10-14T17:19:35Z</time>
      </trkpt>
      <trkpt lat="43.439163" lon="-4.953108">
        <ele>-21.531</ele>
        <time>2021-10-14T17:19:36Z</time>
      </trkpt>
      <trkpt lat="43.439102" lon="-4.952674">
        <ele>-22.388</ele>
        <time>2021-10-14T17:19:38Z</time>
      </trkpt>
      <trkpt lat="43.439042" lon="-4.952245">
        <ele>-23.640</ele>
        <time>2021-10-14T17:19:40Z</time>
      </trkpt>
      <trkpt lat="43.438977" lon="-4.951790">
        <ele>-22.199</ele>
        <time>2021-10-14T17:19:42Z</time>
      </trkpt>
      <trkpt lat="43.438939" lon="-4.951543">
        <ele>-21.152</ele>
        <time>2021-10-14T17:19:43Z</time>
      </trkpt>
      <trkpt lat="43.438902" lon="-4.951278">
        <ele>-21.653</ele>
        <time>2021-10-14T17:19:44Z</time>
      </trkpt>
      <trkpt lat="43.438827" lon="-4.950739">
        <ele>-19.508</ele>
        <time>2021-10-14T17:19:46Z</time>
      </trkpt>
      <trkpt lat="43.438749" lon="-4.950182">
        <ele>-18.108</ele>
        <time>2021-10-14T17:19:48Z</time>
      </trkpt>
      <trkpt lat="43.438672" lon="-4.949592">
        <ele>-18.193</ele>
        <time>2021-10-14T17:19:50Z</time>
      </trkpt>
      <trkpt lat="43.438596" lon="-4.948980">
        <ele>-15.461</ele>
        <time>2021-10-14T17:19:52Z</time>
      </trkpt>
      <trkpt lat="43.438552" lon="-4.948658">
        <ele>-13.649</ele>
        <time>2021-10-14T17:19:53Z</time>
      </trkpt>
      <trkpt lat="43.438508" lon="-4.948327">
        <ele>-13.646</ele>
        <time>2021-10-14T17:19:54Z</time>
      </trkpt>
      <trkpt lat="43.438421" lon="-4.947679">
        <ele>-13.179</ele>
        <time>2021-10-14T17:19:56Z</time>
      </trkpt>
      <trkpt lat="43.438335" lon="-4.947073">
        <ele>-15.276</ele>
        <time>2021-10-14T17:19:58Z</time>
      </trkpt>
      <trkpt lat="43.438241" lon="-4.946473">
        <ele>-16.218</ele>
        <time>2021-10-14T17:20:00Z</time>
      </trkpt>
      <trkpt lat="43.438191" lon="-4.946186">
        <ele>-18.687</ele>
        <time>2021-10-14T17:20:01Z</time>
      </trkpt>
      <trkpt lat="43.438140" lon="-4.945905">
        <ele>-20.549</ele>
        <time>2021-10-14T17:20:02Z</time>
      </trkpt>
      <trkpt lat="43.438040" lon="-4.945384">
        <ele>-22.002</ele>
        <time>2021-10-14T17:20:04Z</time>
      </trkpt>
      <trkpt lat="43.437936" lon="-4.944903">
        <ele>-22.522</ele>
        <time>2021-10-14T17:20:06Z</time>
      </trkpt>
      <trkpt lat="43.437869" lon="-4.944679">
        <ele>-22.508</ele>
        <time>2021-10-14T17:20:07Z</time>
      </trkpt>
      <trkpt lat="43.437781" lon="-4.944462">
        <ele>-24.332</ele>
        <time>2021-10-14T17:20:08Z</time>
      </trkpt>
      <trkpt lat="43.437521" lon="-4.944098">
        <ele>-24.690</ele>
        <time>2021-10-14T17:20:10Z</time>
      </trkpt>
      <trkpt lat="43.437180" lon="-4.943797">
        <ele>-25.638</ele>
        <time>2021-10-14T17:20:12Z</time>
      </trkpt>
      <trkpt lat="43.437004" lon="-4.943658">
        <ele>-26.565</ele>
        <time>2021-10-14T17:20:13Z</time>
      </trkpt>
      <trkpt lat="43.436829" lon="-4.943528">
        <ele>-27.978</ele>
        <time>2021-10-14T17:20:14Z</time>
      </trkpt>
      <trkpt lat="43.436525" lon="-4.943288">
        <ele>-27.845</ele>
        <time>2021-10-14T17:20:16Z</time>
      </trkpt>
      <trkpt lat="43.436381" lon="-4.943162">
        <ele>-27.647</ele>
        <time>2021-10-14T17:20:17Z</time>
      </trkpt>
      <trkpt lat="43.436136" lon="-4.942883">
        <ele>-28.116</ele>
        <time>2021-10-14T17:20:19Z</time>
      </trkpt>
      <trkpt lat="43.436031" lon="-4.942722">
        <ele>-28.763</ele>
        <time>2021-10-14T17:20:20Z</time>
      </trkpt>
      <trkpt lat="43.435872" lon="-4.942403">
        <ele>-28.744</ele>
        <time>2021-10-14T17:20:22Z</time>
      </trkpt>
      <trkpt lat="43.435809" lon="-4.942248">
        <ele>-28.818</ele>
        <time>2021-10-14T17:20:23Z</time>
      </trkpt>
      <trkpt lat="43.435695" lon="-4.941966">
        <ele>-29.808</ele>
        <time>2021-10-14T17:20:25Z</time>
      </trkpt>
      <trkpt lat="43.435639" lon="-4.941825">
        <ele>-29.814</ele>
        <time>2021-10-14T17:20:26Z</time>
      </trkpt>
      <trkpt lat="43.435551" lon="-4.941580">
        <ele>-29.162</ele>
        <time>2021-10-14T17:20:28Z</time>
      </trkpt>
      <trkpt lat="43.435514" lon="-4.941459">
        <ele>-28.320</ele>
        <time>2021-10-14T17:20:29Z</time>
      </trkpt>
      <trkpt lat="43.435467" lon="-4.941215">
        <ele>-27.337</ele>
        <time>2021-10-14T17:20:31Z</time>
      </trkpt>
      <trkpt lat="43.435460" lon="-4.941087">
        <ele>-28.670</ele>
        <time>2021-10-14T17:20:32Z</time>
      </trkpt>
      <trkpt lat="43.435478" lon="-4.940846">
        <ele>-28.227</ele>
        <time>2021-10-14T17:20:34Z</time>
      </trkpt>
      <trkpt lat="43.435529" lon="-4.940609">
        <ele>-28.939</ele>
        <time>2021-10-14T17:20:36Z</time>
      </trkpt>
      <trkpt lat="43.435631" lon="-4.940355">
        <ele>-28.138</ele>
        <time>2021-10-14T17:20:38Z</time>
      </trkpt>
      <trkpt lat="43.435751" lon="-4.940106">
        <ele>-27.389</ele>
        <time>2021-10-14T17:20:40Z</time>
      </trkpt>
      <trkpt lat="43.435804" lon="-4.939985">
        <ele>-28.006</ele>
        <time>2021-10-14T17:20:41Z</time>
      </trkpt>
      <trkpt lat="43.435906" lon="-4.939768">
        <ele>-29.026</ele>
        <time>2021-10-14T17:20:43Z</time>
      </trkpt>
      <trkpt lat="43.435952" lon="-4.939659">
        <ele>-28.608</ele>
        <time>2021-10-14T17:20:44Z</time>
      </trkpt>
      <trkpt lat="43.436051" lon="-4.939428">
        <ele>-28.436</ele>
        <time>2021-10-14T17:20:46Z</time>
      </trkpt>
      <trkpt lat="43.436115" lon="-4.939296">
        <ele>-27.784</ele>
        <time>2021-10-14T17:20:47Z</time>
      </trkpt>
      <trkpt lat="43.436185" lon="-4.939150">
        <ele>-28.612</ele>
        <time>2021-10-14T17:20:48Z</time>
      </trkpt>
      <trkpt lat="43.436323" lon="-4.938828">
        <ele>-27.899</ele>
        <time>2021-10-14T17:20:50Z</time>
      </trkpt>
      <trkpt lat="43.436456" lon="-4.938506">
        <ele>-26.922</ele>
        <time>2021-10-14T17:20:52Z</time>
      </trkpt>
      <trkpt lat="43.436580" lon="-4.938190">
        <ele>-27.869</ele>
        <time>2021-10-14T17:20:54Z</time>
      </trkpt>
      <trkpt lat="43.436717" lon="-4.937848">
        <ele>-28.941</ele>
        <time>2021-10-14T17:20:56Z</time>
      </trkpt>
      <trkpt lat="43.436859" lon="-4.937480">
        <ele>-28.440</ele>
        <time>2021-10-14T17:20:58Z</time>
      </trkpt>
      <trkpt lat="43.436931" lon="-4.937283">
        <ele>-28.323</ele>
        <time>2021-10-14T17:20:59Z</time>
      </trkpt>
      <trkpt lat="43.437004" lon="-4.937082">
        <ele>-28.583</ele>
        <time>2021-10-14T17:21:00Z</time>
      </trkpt>
      <trkpt lat="43.437072" lon="-4.936883">
        <ele>-28.711</ele>
        <time>2021-10-14T17:21:01Z</time>
      </trkpt>
      <trkpt lat="43.437140" lon="-4.936683">
        <ele>-28.208</ele>
        <time>2021-10-14T17:21:02Z</time>
      </trkpt>
      <trkpt lat="43.437255" lon="-4.936324">
        <ele>-28.620</ele>
        <time>2021-10-14T17:21:04Z</time>
      </trkpt>
      <trkpt lat="43.437320" lon="-4.936134">
        <ele>-29.758</ele>
        <time>2021-10-14T17:21:05Z</time>
      </trkpt>
      <trkpt lat="43.437468" lon="-4.935768">
        <ele>-29.296</ele>
        <time>2021-10-14T17:21:07Z</time>
      </trkpt>
      <trkpt lat="43.437555" lon="-4.935585">
        <ele>-28.853</ele>
        <time>2021-10-14T17:21:08Z</time>
      </trkpt>
      <trkpt lat="43.437723" lon="-4.935228">
        <ele>-27.876</ele>
        <time>2021-10-14T17:21:10Z</time>
      </trkpt>
      <trkpt lat="43.437864" lon="-4.934829">
        <ele>-27.293</ele>
        <time>2021-10-14T17:21:12Z</time>
      </trkpt>
      <trkpt lat="43.437974" lon="-4.934367">
        <ele>-26.065</ele>
        <time>2021-10-14T17:21:14Z</time>
      </trkpt>
      <trkpt lat="43.438050" lon="-4.933873">
        <ele>-24.674</ele>
        <time>2021-10-14T17:21:16Z</time>
      </trkpt>
      <trkpt lat="43.438088" lon="-4.933605">
        <ele>-22.857</ele>
        <time>2021-10-14T17:21:17Z</time>
      </trkpt>
      <trkpt lat="43.438132" lon="-4.933325">
        <ele>-21.500</ele>
        <time>2021-10-14T17:21:18Z</time>
      </trkpt>
      <trkpt lat="43.438228" lon="-4.932733">
        <ele>-19.320</ele>
        <time>2021-10-14T17:21:20Z</time>
      </trkpt>
      <trkpt lat="43.438324" lon="-4.932130">
        <ele>-18.108</ele>
        <time>2021-10-14T17:21:22Z</time>
      </trkpt>
      <trkpt lat="43.438407" lon="-4.931552">
        <ele>-17.063</ele>
        <time>2021-10-14T17:21:24Z</time>
      </trkpt>
      <trkpt lat="43.438490" lon="-4.931007">
        <ele>-16.841</ele>
        <time>2021-10-14T17:21:26Z</time>
      </trkpt>
      <trkpt lat="43.438567" lon="-4.930472">
        <ele>-17.179</ele>
        <time>2021-10-14T17:21:28Z</time>
      </trkpt>
      <trkpt lat="43.438609" lon="-4.930195">
        <ele>-17.526</ele>
        <time>2021-10-14T17:21:29Z</time>
      </trkpt>
      <trkpt lat="43.438697" lon="-4.929622">
        <ele>-19.089</ele>
        <time>2021-10-14T17:21:31Z</time>
      </trkpt>
      <trkpt lat="43.438743" lon="-4.929330">
        <ele>-20.076</ele>
        <time>2021-10-14T17:21:32Z</time>
      </trkpt>
      <trkpt lat="43.438823" lon="-4.928800">
        <ele>-20.148</ele>
        <time>2021-10-14T17:21:34Z</time>
      </trkpt>
      <trkpt lat="43.438897" lon="-4.928300">
        <ele>-21.387</ele>
        <time>2021-10-14T17:21:36Z</time>
      </trkpt>
      <trkpt lat="43.438930" lon="-4.928056">
        <ele>-22.844</ele>
        <time>2021-10-14T17:21:37Z</time>
      </trkpt>
      <trkpt lat="43.438968" lon="-4.927814">
        <ele>-23.005</ele>
        <time>2021-10-14T17:21:38Z</time>
      </trkpt>
      <trkpt lat="43.439061" lon="-4.927380">
        <ele>-23.815</ele>
        <time>2021-10-14T17:21:40Z</time>
      </trkpt>
      <trkpt lat="43.439213" lon="-4.926957">
        <ele>-24.308</ele>
        <time>2021-10-14T17:21:42Z</time>
      </trkpt>
      <trkpt lat="43.439498" lon="-4.926674">
        <ele>-26.152</ele>
        <time>2021-10-14T17:21:44Z</time>
      </trkpt>
      <trkpt lat="43.439885" lon="-4.926495">
        <ele>-25.330</ele>
        <time>2021-10-14T17:21:46Z</time>
      </trkpt>
      <trkpt lat="43.440237" lon="-4.926295">
        <ele>-27.898</ele>
        <time>2021-10-14T17:21:48Z</time>
      </trkpt>
      <trkpt lat="43.440390" lon="-4.926188">
        <ele>-28.765</ele>
        <time>2021-10-14T17:21:49Z</time>
      </trkpt>
      <trkpt lat="43.440531" lon="-4.926061">
        <ele>-29.838</ele>
        <time>2021-10-14T17:21:50Z</time>
      </trkpt>
      <trkpt lat="43.440770" lon="-4.925725">
        <ele>-32.225</ele>
        <time>2021-10-14T17:21:52Z</time>
      </trkpt>
      <trkpt lat="43.440867" lon="-4.925506">
        <ele>-32.917</ele>
        <time>2021-10-14T17:21:53Z</time>
      </trkpt>
      <trkpt lat="43.441003" lon="-4.924991">
        <ele>-34.286</ele>
        <time>2021-10-14T17:21:55Z</time>
      </trkpt>
      <trkpt lat="43.441040" lon="-4.924730">
        <ele>-34.942</ele>
        <time>2021-10-14T17:21:56Z</time>
      </trkpt>
      <trkpt lat="43.441080" lon="-4.924269">
        <ele>-34.622</ele>
        <time>2021-10-14T17:21:58Z</time>
      </trkpt>
      <trkpt lat="43.441165" lon="-4.923856">
        <ele>-34.414</ele>
        <time>2021-10-14T17:22:00Z</time>
      </trkpt>
      <trkpt lat="43.441344" lon="-4.923497">
        <ele>-34.408</ele>
        <time>2021-10-14T17:22:02Z</time>
      </trkpt>
      <trkpt lat="43.441585" lon="-4.923187">
        <ele>-34.552</ele>
        <time>2021-10-14T17:22:04Z</time>
      </trkpt>
      <trkpt lat="43.441851" lon="-4.922906">
        <ele>-33.990</ele>
        <time>2021-10-14T17:22:06Z</time>
      </trkpt>
      <trkpt lat="43.441977" lon="-4.922771">
        <ele>-33.438</ele>
        <time>2021-10-14T17:22:07Z</time>
      </trkpt>
      <trkpt lat="43.442097" lon="-4.922630">
        <ele>-34.485</ele>
        <time>2021-10-14T17:22:08Z</time>
      </trkpt>
      <trkpt lat="43.442304" lon="-4.922329">
        <ele>-34.238</ele>
        <time>2021-10-14T17:22:10Z</time>
      </trkpt>
      <trkpt lat="43.442491" lon="-4.921975">
        <ele>-34.955</ele>
        <time>2021-10-14T17:22:12Z</time>
      </trkpt>
      <trkpt lat="43.442567" lon="-4.921786">
        <ele>-35.937</ele>
        <time>2021-10-14T17:22:13Z</time>
      </trkpt>
      <trkpt lat="43.442625" lon="-4.921575">
        <ele>-36.236</ele>
        <time>2021-10-14T17:22:14Z</time>
      </trkpt>
      <trkpt lat="43.442676" lon="-4.921117">
        <ele>-38.611</ele>
        <time>2021-10-14T17:22:16Z</time>
      </trkpt>
      <trkpt lat="43.442706" lon="-4.920657">
        <ele>-39.621</ele>
        <time>2021-10-14T17:22:18Z</time>
      </trkpt>
      <trkpt lat="43.442734" lon="-4.920249">
        <ele>-39.003</ele>
        <time>2021-10-14T17:22:20Z</time>
      </trkpt>
      <trkpt lat="43.442756" lon="-4.919895">
        <ele>-39.508</ele>
        <time>2021-10-14T17:22:22Z</time>
      </trkpt>
      <trkpt lat="43.442768" lon="-4.919719">
        <ele>-40.099</ele>
        <time>2021-10-14T17:22:23Z</time>
      </trkpt>
      <trkpt lat="43.442779" lon="-4.919537">
        <ele>-39.927</ele>
        <time>2021-10-14T17:22:24Z</time>
      </trkpt>
      <trkpt lat="43.442798" lon="-4.919158">
        <ele>-39.585</ele>
        <time>2021-10-14T17:22:26Z</time>
      </trkpt>
      <trkpt lat="43.442808" lon="-4.918752">
        <ele>-39.582</ele>
        <time>2021-10-14T17:22:28Z</time>
      </trkpt>
      <trkpt lat="43.442800" lon="-4.918308">
        <ele>-40.595</ele>
        <time>2021-10-14T17:22:30Z</time>
      </trkpt>
      <trkpt lat="43.442710" lon="-4.917833">
        <ele>-44.452</ele>
        <time>2021-10-14T17:22:32Z</time>
      </trkpt>
      <trkpt lat="43.442531" lon="-4.917356">
        <ele>-46.444</ele>
        <time>2021-10-14T17:22:34Z</time>
      </trkpt>
      <trkpt lat="43.442439" lon="-4.917109">
        <ele>-48.473</ele>
        <time>2021-10-14T17:22:35Z</time>
      </trkpt>
      <trkpt lat="43.442363" lon="-4.916863">
        <ele>-49.236</ele>
        <time>2021-10-14T17:22:36Z</time>
      </trkpt>
      <trkpt lat="43.442299" lon="-4.916316">
        <ele>-51.117</ele>
        <time>2021-10-14T17:22:38Z</time>
      </trkpt>
      <trkpt lat="43.442305" lon="-4.915745">
        <ele>-52.718</ele>
        <time>2021-10-14T17:22:40Z</time>
      </trkpt>
      <trkpt lat="43.442297" lon="-4.915179">
        <ele>-53.508</ele>
        <time>2021-10-14T17:22:42Z</time>
      </trkpt>
      <trkpt lat="43.442292" lon="-4.914904">
        <ele>-53.551</ele>
        <time>2021-10-14T17:22:43Z</time>
      </trkpt>
      <trkpt lat="43.442287" lon="-4.914619">
        <ele>-53.299</ele>
        <time>2021-10-14T17:22:44Z</time>
      </trkpt>
      <trkpt lat="43.442278" lon="-4.914056">
        <ele>-54.617</ele>
        <time>2021-10-14T17:22:46Z</time>
      </trkpt>
      <trkpt lat="43.442273" lon="-4.913764">
        <ele>-55.544</ele>
        <time>2021-10-14T17:22:47Z</time>
      </trkpt>
      <trkpt lat="43.442267" lon="-4.913184">
        <ele>-56.137</ele>
        <time>2021-10-14T17:22:49Z</time>
      </trkpt>
      <trkpt lat="43.442265" lon="-4.912892">
        <ele>-55.684</ele>
        <time>2021-10-14T17:22:50Z</time>
      </trkpt>
      <trkpt lat="43.442256" lon="-4.912335">
        <ele>-56.216</ele>
        <time>2021-10-14T17:22:52Z</time>
      </trkpt>
      <trkpt lat="43.442249" lon="-4.912052">
        <ele>-56.465</ele>
        <time>2021-10-14T17:22:53Z</time>
      </trkpt>
      <trkpt lat="43.442243" lon="-4.911503">
        <ele>-55.544</ele>
        <time>2021-10-14T17:22:55Z</time>
      </trkpt>
      <trkpt lat="43.442242" lon="-4.911232">
        <ele>-55.905</ele>
        <time>2021-10-14T17:22:56Z</time>
      </trkpt>
      <trkpt lat="43.442234" lon="-4.910714">
        <ele>-56.115</ele>
        <time>2021-10-14T17:22:58Z</time>
      </trkpt>
      <trkpt lat="43.442229" lon="-4.910185">
        <ele>-55.708</ele>
        <time>2021-10-14T17:23:00Z</time>
      </trkpt>
      <trkpt lat="43.442226" lon="-4.909644">
        <ele>-54.932</ele>
        <time>2021-10-14T17:23:02Z</time>
      </trkpt>
      <trkpt lat="43.442230" lon="-4.909099">
        <ele>-54.410</ele>
        <time>2021-10-14T17:23:04Z</time>
      </trkpt>
      <trkpt lat="43.442226" lon="-4.908536">
        <ele>-54.468</ele>
        <time>2021-10-14T17:23:06Z</time>
      </trkpt>
      <trkpt lat="43.442218" lon="-4.907945">
        <ele>-52.615</ele>
        <time>2021-10-14T17:23:08Z</time>
      </trkpt>
      <trkpt lat="43.442210" lon="-4.907367">
        <ele>-52.218</ele>
        <time>2021-10-14T17:23:10Z</time>
      </trkpt>
      <trkpt lat="43.442205" lon="-4.907074">
        <ele>-51.965</ele>
        <time>2021-10-14T17:23:11Z</time>
      </trkpt>
      <trkpt lat="43.442197" lon="-4.906786">
        <ele>-51.527</ele>
        <time>2021-10-14T17:23:12Z</time>
      </trkpt>
      <trkpt lat="43.442191" lon="-4.906504">
        <ele>-51.276</ele>
        <time>2021-10-14T17:23:13Z</time>
      </trkpt>
      <trkpt lat="43.442187" lon="-4.906217">
        <ele>-50.782</ele>
        <time>2021-10-14T17:23:14Z</time>
      </trkpt>
      <trkpt lat="43.442176" lon="-4.905702">
        <ele>-51.343</ele>
        <time>2021-10-14T17:23:16Z</time>
      </trkpt>
      <trkpt lat="43.442173" lon="-4.905448">
        <ele>-51.117</ele>
        <time>2021-10-14T17:23:17Z</time>
      </trkpt>
      <trkpt lat="43.442169" lon="-4.904963">
        <ele>-51.308</ele>
        <time>2021-10-14T17:23:19Z</time>
      </trkpt>
      <trkpt lat="43.442167" lon="-4.904730">
        <ele>-50.916</ele>
        <time>2021-10-14T17:23:20Z</time>
      </trkpt>
      <trkpt lat="43.442161" lon="-4.904309">
        <ele>-52.144</ele>
        <time>2021-10-14T17:23:22Z</time>
      </trkpt>
      <trkpt lat="43.442150" lon="-4.903911">
        <ele>-51.332</ele>
        <time>2021-10-14T17:23:24Z</time>
      </trkpt>
      <trkpt lat="43.442150" lon="-4.903721">
        <ele>-50.989</ele>
        <time>2021-10-14T17:23:25Z</time>
      </trkpt>
      <trkpt lat="43.442149" lon="-4.903541">
        <ele>-51.612</ele>
        <time>2021-10-14T17:23:26Z</time>
      </trkpt>
      <trkpt lat="43.442139" lon="-4.903225">
        <ele>-52.419</ele>
        <time>2021-10-14T17:23:28Z</time>
      </trkpt>
      <trkpt lat="43.442133" lon="-4.902938">
        <ele>-52.791</ele>
        <time>2021-10-14T17:23:30Z</time>
      </trkpt>
      <trkpt lat="43.442120" lon="-4.902655">
        <ele>-53.440</ele>
        <time>2021-10-14T17:23:32Z</time>
      </trkpt>
      <trkpt lat="43.442114" lon="-4.902314">
        <ele>-54.467</ele>
        <time>2021-10-14T17:23:34Z</time>
      </trkpt>
      <trkpt lat="43.442115" lon="-4.902118">
        <ele>-54.181</ele>
        <time>2021-10-14T17:23:35Z</time>
      </trkpt>
      <trkpt lat="43.442107" lon="-4.901696">
        <ele>-53.919</ele>
        <time>2021-10-14T17:23:37Z</time>
      </trkpt>
      <trkpt lat="43.442103" lon="-4.901471">
        <ele>-54.608</ele>
        <time>2021-10-14T17:23:38Z</time>
      </trkpt>
      <trkpt lat="43.442100" lon="-4.901096">
        <ele>-53.844</ele>
        <time>2021-10-14T17:23:40Z</time>
      </trkpt>
      <trkpt lat="43.442095" lon="-4.900920">
        <ele>-54.152</ele>
        <time>2021-10-14T17:23:41Z</time>
      </trkpt>
      <trkpt lat="43.442088" lon="-4.900547">
        <ele>-53.190</ele>
        <time>2021-10-14T17:23:43Z</time>
      </trkpt>
      <trkpt lat="43.442083" lon="-4.900337">
        <ele>-52.927</ele>
        <time>2021-10-14T17:23:44Z</time>
      </trkpt>
      <trkpt lat="43.442063" lon="-4.899898">
        <ele>-51.680</ele>
        <time>2021-10-14T17:23:46Z</time>
      </trkpt>
      <trkpt lat="43.442050" lon="-4.899655">
        <ele>-51.597</ele>
        <time>2021-10-14T17:23:47Z</time>
      </trkpt>
      <trkpt lat="43.442018" lon="-4.899134">
        <ele>-51.419</ele>
        <time>2021-10-14T17:23:49Z</time>
      </trkpt>
      <trkpt lat="43.441999" lon="-4.898857">
        <ele>-50.578</ele>
        <time>2021-10-14T17:23:50Z</time>
      </trkpt>
      <trkpt lat="43.441980" lon="-4.898297">
        <ele>-51.748</ele>
        <time>2021-10-14T17:23:52Z</time>
      </trkpt>
      <trkpt lat="43.441989" lon="-4.897762">
        <ele>-53.461</ele>
        <time>2021-10-14T17:23:54Z</time>
      </trkpt>
      <trkpt lat="43.442002" lon="-4.897268">
        <ele>-55.017</ele>
        <time>2021-10-14T17:23:56Z</time>
      </trkpt>
      <trkpt lat="43.442016" lon="-4.896759">
        <ele>-55.708</ele>
        <time>2021-10-14T17:23:58Z</time>
      </trkpt>
      <trkpt lat="43.442025" lon="-4.896479">
        <ele>-55.382</ele>
        <time>2021-10-14T17:23:59Z</time>
      </trkpt>
      <trkpt lat="43.442033" lon="-4.895886">
        <ele>-54.190</ele>
        <time>2021-10-14T17:24:01Z</time>
      </trkpt>
      <trkpt lat="43.442030" lon="-4.895564">
        <ele>-53.398</ele>
        <time>2021-10-14T17:24:02Z</time>
      </trkpt>
      <trkpt lat="43.442017" lon="-4.894915">
        <ele>-52.815</ele>
        <time>2021-10-14T17:24:04Z</time>
      </trkpt>
      <trkpt lat="43.442008" lon="-4.894217">
        <ele>-52.278</ele>
        <time>2021-10-14T17:24:06Z</time>
      </trkpt>
      <trkpt lat="43.442014" lon="-4.893591">
        <ele>-52.745</ele>
        <time>2021-10-14T17:24:08Z</time>
      </trkpt>
      <trkpt lat="43.442033" lon="-4.893128">
        <ele>-52.987</ele>
        <time>2021-10-14T17:24:10Z</time>
      </trkpt>
      <trkpt lat="43.442040" lon="-4.892932">
        <ele>-52.586</ele>
        <time>2021-10-14T17:24:11Z</time>
      </trkpt>
      <trkpt lat="43.442054" lon="-4.892548">
        <ele>-53.444</ele>
        <time>2021-10-14T17:24:13Z</time>
      </trkpt>
      <trkpt lat="43.442066" lon="-4.892344">
        <ele>-53.305</ele>
        <time>2021-10-14T17:24:14Z</time>
      </trkpt>
      <trkpt lat="43.442090" lon="-4.891927">
        <ele>-53.715</ele>
        <time>2021-10-14T17:24:16Z</time>
      </trkpt>
      <trkpt lat="43.442100" lon="-4.891708">
        <ele>-55.008</ele>
        <time>2021-10-14T17:24:17Z</time>
      </trkpt>
      <trkpt lat="43.442113" lon="-4.891488">
        <ele>-55.382</ele>
        <time>2021-10-14T17:24:18Z</time>
      </trkpt>
      <trkpt lat="43.442138" lon="-4.891045">
        <ele>-55.190</ele>
        <time>2021-10-14T17:24:20Z</time>
      </trkpt>
      <trkpt lat="43.442154" lon="-4.890608">
        <ele>-55.748</ele>
        <time>2021-10-14T17:24:22Z</time>
      </trkpt>
      <trkpt lat="43.442175" lon="-4.890141">
        <ele>-55.755</ele>
        <time>2021-10-14T17:24:24Z</time>
      </trkpt>
      <trkpt lat="43.442204" lon="-4.889644">
        <ele>-56.828</ele>
        <time>2021-10-14T17:24:26Z</time>
      </trkpt>
      <trkpt lat="43.442230" lon="-4.889175">
        <ele>-56.365</ele>
        <time>2021-10-14T17:24:28Z</time>
      </trkpt>
      <trkpt lat="43.442240" lon="-4.888942">
        <ele>-56.427</ele>
        <time>2021-10-14T17:24:29Z</time>
      </trkpt>
      <trkpt lat="43.442265" lon="-4.888469">
        <ele>-58.076</ele>
        <time>2021-10-14T17:24:31Z</time>
      </trkpt>
      <trkpt lat="43.442279" lon="-4.888210">
        <ele>-57.563</ele>
        <time>2021-10-14T17:24:32Z</time>
      </trkpt>
      <trkpt lat="43.442307" lon="-4.887691">
        <ele>-58.544</ele>
        <time>2021-10-14T17:24:34Z</time>
      </trkpt>
      <trkpt lat="43.442332" lon="-4.887135">
        <ele>-59.618</ele>
        <time>2021-10-14T17:24:36Z</time>
      </trkpt>
      <trkpt lat="43.442358" lon="-4.886561">
        <ele>-59.508</ele>
        <time>2021-10-14T17:24:38Z</time>
      </trkpt>
      <trkpt lat="43.442390" lon="-4.885989">
        <ele>-61.154</ele>
        <time>2021-10-14T17:24:40Z</time>
      </trkpt>
      <trkpt lat="43.442406" lon="-4.885709">
        <ele>-62.252</ele>
        <time>2021-10-14T17:24:41Z</time>
      </trkpt>
      <trkpt lat="43.442436" lon="-4.885196">
        <ele>-63.410</ele>
        <time>2021-10-14T17:24:43Z</time>
      </trkpt>
      <trkpt lat="43.442451" lon="-4.884948">
        <ele>-64.437</ele>
        <time>2021-10-14T17:24:44Z</time>
      </trkpt>
      <trkpt lat="43.442476" lon="-4.884504">
        <ele>-64.420</ele>
        <time>2021-10-14T17:24:46Z</time>
      </trkpt>
      <trkpt lat="43.442487" lon="-4.884290">
        <ele>-64.227</ele>
        <time>2021-10-14T17:24:47Z</time>
      </trkpt>
      <trkpt lat="43.442499" lon="-4.884083">
        <ele>-65.369</ele>
        <time>2021-10-14T17:24:48Z</time>
      </trkpt>
      <trkpt lat="43.442519" lon="-4.883671">
        <ele>-64.948</ele>
        <time>2021-10-14T17:24:50Z</time>
      </trkpt>
      <trkpt lat="43.442545" lon="-4.883236">
        <ele>-65.968</ele>
        <time>2021-10-14T17:24:52Z</time>
      </trkpt>
      <trkpt lat="43.442565" lon="-4.883002">
        <ele>-66.742</ele>
        <time>2021-10-14T17:24:53Z</time>
      </trkpt>
      <trkpt lat="43.442643" lon="-4.882518">
        <ele>-68.726</ele>
        <time>2021-10-14T17:24:55Z</time>
      </trkpt>
      <trkpt lat="43.442718" lon="-4.882261">
        <ele>-69.208</ele>
        <time>2021-10-14T17:24:56Z</time>
      </trkpt>
      <trkpt lat="43.442879" lon="-4.881785">
        <ele>-70.344</ele>
        <time>2021-10-14T17:24:58Z</time>
      </trkpt>
      <trkpt lat="43.442951" lon="-4.881557">
        <ele>-72.252</ele>
        <time>2021-10-14T17:24:59Z</time>
      </trkpt>
      <trkpt lat="43.443011" lon="-4.881337">
        <ele>-73.010</ele>
        <time>2021-10-14T17:25:00Z</time>
      </trkpt>
      <trkpt lat="43.443074" lon="-4.880909">
        <ele>-74.287</ele>
        <time>2021-10-14T17:25:02Z</time>
      </trkpt>
      <trkpt lat="43.443010" lon="-4.880482">
        <ele>-76.210</ele>
        <time>2021-10-14T17:25:04Z</time>
      </trkpt>
      <trkpt lat="43.442931" lon="-4.880257">
        <ele>-76.367</ele>
        <time>2021-10-14T17:25:05Z</time>
      </trkpt>
      <trkpt lat="43.442763" lon="-4.879793">
        <ele>-76.799</ele>
        <time>2021-10-14T17:25:07Z</time>
      </trkpt>
      <trkpt lat="43.442689" lon="-4.879550">
        <ele>-76.258</ele>
        <time>2021-10-14T17:25:08Z</time>
      </trkpt>
      <trkpt lat="43.442560" lon="-4.879114">
        <ele>-76.943</ele>
        <time>2021-10-14T17:25:10Z</time>
      </trkpt>
      <trkpt lat="43.442447" lon="-4.878717">
        <ele>-77.264</ele>
        <time>2021-10-14T17:25:12Z</time>
      </trkpt>
      <trkpt lat="43.442343" lon="-4.878351">
        <ele>-76.510</ele>
        <time>2021-10-14T17:25:14Z</time>
      </trkpt>
      <trkpt lat="43.442233" lon="-4.877982">
        <ele>-77.408</ele>
        <time>2021-10-14T17:25:16Z</time>
      </trkpt>
      <trkpt lat="43.442113" lon="-4.877570">
        <ele>-76.742</ele>
        <time>2021-10-14T17:25:18Z</time>
      </trkpt>
      <trkpt lat="43.442050" lon="-4.877353">
        <ele>-78.270</ele>
        <time>2021-10-14T17:25:19Z</time>
      </trkpt>
      <trkpt lat="43.441982" lon="-4.877126">
        <ele>-78.298</ele>
        <time>2021-10-14T17:25:20Z</time>
      </trkpt>
      <trkpt lat="43.441850" lon="-4.876660">
        <ele>-77.945</ele>
        <time>2021-10-14T17:25:22Z</time>
      </trkpt>
      <trkpt lat="43.441781" lon="-4.876417">
        <ele>-77.558</ele>
        <time>2021-10-14T17:25:23Z</time>
      </trkpt>
      <trkpt lat="43.441645" lon="-4.875956">
        <ele>-75.445</ele>
        <time>2021-10-14T17:25:25Z</time>
      </trkpt>
      <trkpt lat="43.441582" lon="-4.875740">
        <ele>-75.017</ele>
        <time>2021-10-14T17:25:26Z</time>
      </trkpt>
      <trkpt lat="43.441465" lon="-4.875351">
        <ele>-73.556</ele>
        <time>2021-10-14T17:25:28Z</time>
      </trkpt>
      <trkpt lat="43.441353" lon="-4.874970">
        <ele>-70.855</ele>
        <time>2021-10-14T17:25:30Z</time>
      </trkpt>
      <trkpt lat="43.441289" lon="-4.874580">
        <ele>-70.207</ele>
        <time>2021-10-14T17:25:32Z</time>
      </trkpt>
      <trkpt lat="43.441270" lon="-4.874201">
        <ele>-70.917</ele>
        <time>2021-10-14T17:25:34Z</time>
      </trkpt>
      <trkpt lat="43.441271" lon="-4.874020">
        <ele>-70.708</ele>
        <time>2021-10-14T17:25:35Z</time>
      </trkpt>
      <trkpt lat="43.441274" lon="-4.873682">
        <ele>-71.493</ele>
        <time>2021-10-14T17:25:37Z</time>
      </trkpt>
      <trkpt lat="43.441269" lon="-4.873518">
        <ele>-72.971</ele>
        <time>2021-10-14T17:25:38Z</time>
      </trkpt>
      <trkpt lat="43.441213" lon="-4.873206">
        <ele>-72.479</ele>
        <time>2021-10-14T17:25:40Z</time>
      </trkpt>
      <trkpt lat="43.441157" lon="-4.873057">
        <ele>-73.486</ele>
        <time>2021-10-14T17:25:41Z</time>
      </trkpt>
      <trkpt lat="43.441006" lon="-4.872813">
        <ele>-74.929</ele>
        <time>2021-10-14T17:25:43Z</time>
      </trkpt>
      <trkpt lat="43.440914" lon="-4.872715">
        <ele>-75.236</ele>
        <time>2021-10-14T17:25:44Z</time>
      </trkpt>
      <trkpt lat="43.440718" lon="-4.872546">
        <ele>-75.868</ele>
        <time>2021-10-14T17:25:46Z</time>
      </trkpt>
      <trkpt lat="43.440618" lon="-4.872465">
        <ele>-77.547</ele>
        <time>2021-10-14T17:25:47Z</time>
      </trkpt>
      <trkpt lat="43.440520" lon="-4.872382">
        <ele>-77.716</ele>
        <time>2021-10-14T17:25:48Z</time>
      </trkpt>
      <trkpt lat="43.440423" lon="-4.872296">
        <ele>-77.476</ele>
        <time>2021-10-14T17:25:49Z</time>
      </trkpt>
      <trkpt lat="43.440327" lon="-4.872208">
        <ele>-78.513</ele>
        <time>2021-10-14T17:25:50Z</time>
      </trkpt>
      <trkpt lat="43.440141" lon="-4.872033">
        <ele>-78.508</ele>
        <time>2021-10-14T17:25:52Z</time>
      </trkpt>
      <trkpt lat="43.440039" lon="-4.871935">
        <ele>-78.439</ele>
        <time>2021-10-14T17:25:53Z</time>
      </trkpt>
      <trkpt lat="43.439822" lon="-4.871736">
        <ele>-79.227</ele>
        <time>2021-10-14T17:25:55Z</time>
      </trkpt>
      <trkpt lat="43.439718" lon="-4.871639">
        <ele>-79.465</ele>
        <time>2021-10-14T17:25:56Z</time>
      </trkpt>
      <trkpt lat="43.439531" lon="-4.871474">
        <ele>-78.782</ele>
        <time>2021-10-14T17:25:58Z</time>
      </trkpt>
      <trkpt lat="43.439339" lon="-4.871323">
        <ele>-77.715</ele>
        <time>2021-10-14T17:26:00Z</time>
      </trkpt>
      <trkpt lat="43.439226" lon="-4.871257">
        <ele>-77.072</ele>
        <time>2021-10-14T17:26:01Z</time>
      </trkpt>
      <trkpt lat="43.439102" lon="-4.871191">
        <ele>-76.934</ele>
        <time>2021-10-14T17:26:02Z</time>
      </trkpt>
      <trkpt lat="43.438838" lon="-4.871052">
        <ele>-76.533</ele>
        <time>2021-10-14T17:26:04Z</time>
      </trkpt>
      <trkpt lat="43.438700" lon="-4.870977">
        <ele>-75.756</ele>
        <time>2021-10-14T17:26:05Z</time>
      </trkpt>
      <trkpt lat="43.438457" lon="-4.870840">
        <ele>-76.359</ele>
        <time>2021-10-14T17:26:07Z</time>
      </trkpt>
      <trkpt lat="43.438334" lon="-4.870770">
        <ele>-75.714</ele>
        <time>2021-10-14T17:26:08Z</time>
      </trkpt>
      <trkpt lat="43.438101" lon="-4.870638">
        <ele>-76.508</ele>
        <time>2021-10-14T17:26:10Z</time>
      </trkpt>
      <trkpt lat="43.437983" lon="-4.870580">
        <ele>-76.453</ele>
        <time>2021-10-14T17:26:11Z</time>
      </trkpt>
      <trkpt lat="43.437863" lon="-4.870532">
        <ele>-76.461</ele>
        <time>2021-10-14T17:26:12Z</time>
      </trkpt>
      <trkpt lat="43.437604" lon="-4.870469">
        <ele>-76.719</ele>
        <time>2021-10-14T17:26:14Z</time>
      </trkpt>
      <trkpt lat="43.437324" lon="-4.870481">
        <ele>-76.936</ele>
        <time>2021-10-14T17:26:16Z</time>
      </trkpt>
      <trkpt lat="43.437173" lon="-4.870525">
        <ele>-75.989</ele>
        <time>2021-10-14T17:26:17Z</time>
      </trkpt>
      <trkpt lat="43.436893" lon="-4.870724">
        <ele>-76.286</ele>
        <time>2021-10-14T17:26:19Z</time>
      </trkpt>
      <trkpt lat="43.436760" lon="-4.870864">
        <ele>-76.398</ele>
        <time>2021-10-14T17:26:20Z</time>
      </trkpt>
      <trkpt lat="43.436541" lon="-4.871184">
        <ele>-74.847</ele>
        <time>2021-10-14T17:26:22Z</time>
      </trkpt>
      <trkpt lat="43.436457" lon="-4.871372">
        <ele>-75.353</ele>
        <time>2021-10-14T17:26:23Z</time>
      </trkpt>
      <trkpt lat="43.436323" lon="-4.871761">
        <ele>-74.504</ele>
        <time>2021-10-14T17:26:25Z</time>
      </trkpt>
      <trkpt lat="43.436245" lon="-4.871956">
        <ele>-73.214</ele>
        <time>2021-10-14T17:26:26Z</time>
      </trkpt>
      <trkpt lat="43.436064" lon="-4.872287">
        <ele>-71.708</ele>
        <time>2021-10-14T17:26:28Z</time>
      </trkpt>
      <trkpt lat="43.435947" lon="-4.872431">
        <ele>-71.713</ele>
        <time>2021-10-14T17:26:29Z</time>
      </trkpt>
      <trkpt lat="43.435834" lon="-4.872580">
        <ele>-69.251</ele>
        <time>2021-10-14T17:26:30Z</time>
      </trkpt>
      <trkpt lat="43.435676" lon="-4.872914">
        <ele>-66.759</ele>
        <time>2021-10-14T17:26:32Z</time>
      </trkpt>
      <trkpt lat="43.435574" lon="-4.873173">
        <ele>-66.776</ele>
        <time>2021-10-14T17:26:34Z</time>
      </trkpt>
      <trkpt lat="43.435501" lon="-4.873263">
        <ele>-64.099</ele>
        <time>2021-10-14T17:26:35Z</time>
      </trkpt>
      <trkpt lat="43.435411" lon="-4.873308">
        <ele>-63.986</ele>
        <time>2021-10-14T17:26:36Z</time>
      </trkpt>
      <trkpt lat="43.435169" lon="-4.873284">
        <ele>-62.138</ele>
        <time>2021-10-14T17:26:38Z</time>
      </trkpt>
      <trkpt lat="43.434915" lon="-4.873156">
        <ele>-59.917</ele>
        <time>2021-10-14T17:26:40Z</time>
      </trkpt>
      <trkpt lat="43.434799" lon="-4.873048">
        <ele>-59.287</ele>
        <time>2021-10-14T17:26:41Z</time>
      </trkpt>
      <trkpt lat="43.434704" lon="-4.872884">
        <ele>-59.242</ele>
        <time>2021-10-14T17:26:42Z</time>
      </trkpt>
      <trkpt lat="43.434607" lon="-4.872451">
        <ele>-57.426</ele>
        <time>2021-10-14T17:26:44Z</time>
      </trkpt>
      <trkpt lat="43.434533" lon="-4.871996">
        <ele>-56.008</ele>
        <time>2021-10-14T17:26:46Z</time>
      </trkpt>
      <trkpt lat="43.434363" lon="-4.871645">
        <ele>-55.096</ele>
        <time>2021-10-14T17:26:48Z</time>
      </trkpt>
      <trkpt lat="43.434258" lon="-4.871494">
        <ele>-55.894</ele>
        <time>2021-10-14T17:26:49Z</time>
      </trkpt>
      <trkpt lat="43.434167" lon="-4.871325">
        <ele>-54.352</ele>
        <time>2021-10-14T17:26:50Z</time>
      </trkpt>
      <trkpt lat="43.434055" lon="-4.870929">
        <ele>-54.389</ele>
        <time>2021-10-14T17:26:52Z</time>
      </trkpt>
      <trkpt lat="43.434023" lon="-4.870695">
        <ele>-53.512</ele>
        <time>2021-10-14T17:26:53Z</time>
      </trkpt>
      <trkpt lat="43.433996" lon="-4.870459">
        <ele>-52.549</ele>
        <time>2021-10-14T17:26:54Z</time>
      </trkpt>
      <trkpt lat="43.433889" lon="-4.870067">
        <ele>-51.611</ele>
        <time>2021-10-14T17:26:56Z</time>
      </trkpt>
      <trkpt lat="43.433700" lon="-4.869829">
        <ele>-49.910</ele>
        <time>2021-10-14T17:26:58Z</time>
      </trkpt>
      <trkpt lat="43.433432" lon="-4.869831">
        <ele>-50.258</ele>
        <time>2021-10-14T17:27:00Z</time>
      </trkpt>
      <trkpt lat="43.433109" lon="-4.870069">
        <ele>-48.452</ele>
        <time>2021-10-14T17:27:02Z</time>
      </trkpt>
      <trkpt lat="43.432824" lon="-4.870458">
        <ele>-46.417</ele>
        <time>2021-10-14T17:27:04Z</time>
      </trkpt>
      <trkpt lat="43.432677" lon="-4.870675">
        <ele>-45.008</ele>
        <time>2021-10-14T17:27:05Z</time>
      </trkpt>
      <trkpt lat="43.432385" lon="-4.871081">
        <ele>-43.943</ele>
        <time>2021-10-14T17:27:07Z</time>
      </trkpt>
      <trkpt lat="43.432258" lon="-4.871279">
        <ele>-43.661</ele>
        <time>2021-10-14T17:27:08Z</time>
      </trkpt>
      <trkpt lat="43.432047" lon="-4.871639">
        <ele>-41.599</ele>
        <time>2021-10-14T17:27:10Z</time>
      </trkpt>
      <trkpt lat="43.431842" lon="-4.871994">
        <ele>-39.276</ele>
        <time>2021-10-14T17:27:12Z</time>
      </trkpt>
      <trkpt lat="43.431623" lon="-4.872309">
        <ele>-37.729</ele>
        <time>2021-10-14T17:27:14Z</time>
      </trkpt>
      <trkpt lat="43.431378" lon="-4.872490">
        <ele>-35.416</ele>
        <time>2021-10-14T17:27:16Z</time>
      </trkpt>
      <trkpt lat="43.431234" lon="-4.872539">
        <ele>-35.998</ele>
        <time>2021-10-14T17:27:17Z</time>
      </trkpt>
      <trkpt lat="43.430928" lon="-4.872561">
        <ele>-33.527</ele>
        <time>2021-10-14T17:27:19Z</time>
      </trkpt>
      <trkpt lat="43.430785" lon="-4.872536">
        <ele>-33.981</ele>
        <time>2021-10-14T17:27:20Z</time>
      </trkpt>
      <trkpt lat="43.430562" lon="-4.872345">
        <ele>-32.661</ele>
        <time>2021-10-14T17:27:22Z</time>
      </trkpt>
      <trkpt lat="43.430481" lon="-4.872179">
        <ele>-33.117</ele>
        <time>2021-10-14T17:27:23Z</time>
      </trkpt>
      <trkpt lat="43.430356" lon="-4.871819">
        <ele>-34.608</ele>
        <time>2021-10-14T17:27:25Z</time>
      </trkpt>
      <trkpt lat="43.430293" lon="-4.871645">
        <ele>-35.056</ele>
        <time>2021-10-14T17:27:26Z</time>
      </trkpt>
      <trkpt lat="43.430171" lon="-4.871320">
        <ele>-37.934</ele>
        <time>2021-10-14T17:27:28Z</time>
      </trkpt>
      <trkpt lat="43.430106" lon="-4.871147">
        <ele>-39.092</ele>
        <time>2021-10-14T17:27:29Z</time>
      </trkpt>
      <trkpt lat="43.429988" lon="-4.870825">
        <ele>-40.089</ele>
        <time>2021-10-14T17:27:31Z</time>
      </trkpt>
      <trkpt lat="43.429939" lon="-4.870692">
        <ele>-40.282</ele>
        <time>2021-10-14T17:27:32Z</time>
      </trkpt>
      <trkpt lat="43.429845" lon="-4.870448">
        <ele>-41.549</ele>
        <time>2021-10-14T17:27:34Z</time>
      </trkpt>
      <trkpt lat="43.429787" lon="-4.870303">
        <ele>-42.051</ele>
        <time>2021-10-14T17:27:35Z</time>
      </trkpt>
      <trkpt lat="43.429723" lon="-4.870146">
        <ele>-42.030</ele>
        <time>2021-10-14T17:27:36Z</time>
      </trkpt>
      <trkpt lat="43.429587" lon="-4.869803">
        <ele>-43.072</ele>
        <time>2021-10-14T17:27:38Z</time>
      </trkpt>
      <trkpt lat="43.429447" lon="-4.869445">
        <ele>-43.413</ele>
        <time>2021-10-14T17:27:40Z</time>
      </trkpt>
      <trkpt lat="43.429304" lon="-4.869088">
        <ele>-42.914</ele>
        <time>2021-10-14T17:27:42Z</time>
      </trkpt>
      <trkpt lat="43.429154" lon="-4.868725">
        <ele>-43.508</ele>
        <time>2021-10-14T17:27:44Z</time>
      </trkpt>
      <trkpt lat="43.429005" lon="-4.868363">
        <ele>-45.055</ele>
        <time>2021-10-14T17:27:46Z</time>
      </trkpt>
      <trkpt lat="43.428856" lon="-4.868007">
        <ele>-46.073</ele>
        <time>2021-10-14T17:27:48Z</time>
      </trkpt>
      <trkpt lat="43.428706" lon="-4.867674">
        <ele>-46.611</ele>
        <time>2021-10-14T17:27:50Z</time>
      </trkpt>
      <trkpt lat="43.428561" lon="-4.867328">
        <ele>-48.588</ele>
        <time>2021-10-14T17:27:52Z</time>
      </trkpt>
      <trkpt lat="43.428410" lon="-4.866942">
        <ele>-49.991</ele>
        <time>2021-10-14T17:27:54Z</time>
      </trkpt>
      <trkpt lat="43.428334" lon="-4.866737">
        <ele>-49.588</ele>
        <time>2021-10-14T17:27:55Z</time>
      </trkpt>
      <trkpt lat="43.428259" lon="-4.866521">
        <ele>-50.540</ele>
        <time>2021-10-14T17:27:56Z</time>
      </trkpt>
      <trkpt lat="43.428119" lon="-4.866113">
        <ele>-52.529</ele>
        <time>2021-10-14T17:27:58Z</time>
      </trkpt>
      <trkpt lat="43.427977" lon="-4.865746">
        <ele>-52.751</ele>
        <time>2021-10-14T17:28:00Z</time>
      </trkpt>
      <trkpt lat="43.427844" lon="-4.865411">
        <ele>-52.301</ele>
        <time>2021-10-14T17:28:02Z</time>
      </trkpt>
      <trkpt lat="43.427729" lon="-4.865107">
        <ele>-52.411</ele>
        <time>2021-10-14T17:28:04Z</time>
      </trkpt>
      <trkpt lat="43.427669" lon="-4.864954">
        <ele>-53.708</ele>
        <time>2021-10-14T17:28:05Z</time>
      </trkpt>
      <trkpt lat="43.427543" lon="-4.864642">
        <ele>-54.553</ele>
        <time>2021-10-14T17:28:07Z</time>
      </trkpt>
      <trkpt lat="43.427479" lon="-4.864479">
        <ele>-54.321</ele>
        <time>2021-10-14T17:28:08Z</time>
      </trkpt>
      <trkpt lat="43.427353" lon="-4.864165">
        <ele>-56.199</ele>
        <time>2021-10-14T17:28:10Z</time>
      </trkpt>
      <trkpt lat="43.427226" lon="-4.863842">
        <ele>-55.916</ele>
        <time>2021-10-14T17:28:12Z</time>
      </trkpt>
      <trkpt lat="43.427164" lon="-4.863680">
        <ele>-56.199</ele>
        <time>2021-10-14T17:28:13Z</time>
      </trkpt>
      <trkpt lat="43.427100" lon="-4.863516">
        <ele>-56.356</ele>
        <time>2021-10-14T17:28:14Z</time>
      </trkpt>
      <trkpt lat="43.426979" lon="-4.863200">
        <ele>-56.648</ele>
        <time>2021-10-14T17:28:16Z</time>
      </trkpt>
      <trkpt lat="43.426864" lon="-4.862900">
        <ele>-56.487</ele>
        <time>2021-10-14T17:28:18Z</time>
      </trkpt>
      <trkpt lat="43.426756" lon="-4.862617">
        <ele>-56.596</ele>
        <time>2021-10-14T17:28:20Z</time>
      </trkpt>
      <trkpt lat="43.426637" lon="-4.862327">
        <ele>-56.631</ele>
        <time>2021-10-14T17:28:22Z</time>
      </trkpt>
      <trkpt lat="43.426515" lon="-4.862019">
        <ele>-56.024</ele>
        <time>2021-10-14T17:28:24Z</time>
      </trkpt>
      <trkpt lat="43.426450" lon="-4.861858">
        <ele>-55.908</ele>
        <time>2021-10-14T17:28:25Z</time>
      </trkpt>
      <trkpt lat="43.426384" lon="-4.861691">
        <ele>-57.137</ele>
        <time>2021-10-14T17:28:26Z</time>
      </trkpt>
      <trkpt lat="43.426260" lon="-4.861389">
        <ele>-56.785</ele>
        <time>2021-10-14T17:28:28Z</time>
      </trkpt>
      <trkpt lat="43.426199" lon="-4.861249">
        <ele>-56.293</ele>
        <time>2021-10-14T17:28:29Z</time>
      </trkpt>
      <trkpt lat="43.426139" lon="-4.861116">
        <ele>-55.640</ele>
        <time>2021-10-14T17:28:30Z</time>
      </trkpt>
      <trkpt lat="43.426077" lon="-4.860973">
        <ele>-56.333</ele>
        <time>2021-10-14T17:28:31Z</time>
      </trkpt>
      <trkpt lat="43.426016" lon="-4.860819">
        <ele>-54.920</ele>
        <time>2021-10-14T17:28:32Z</time>
      </trkpt>
      <trkpt lat="43.425904" lon="-4.860523">
        <ele>-56.022</ele>
        <time>2021-10-14T17:28:34Z</time>
      </trkpt>
      <trkpt lat="43.425849" lon="-4.860371">
        <ele>-55.811</ele>
        <time>2021-10-14T17:28:35Z</time>
      </trkpt>
      <trkpt lat="43.425733" lon="-4.860056">
        <ele>-55.192</ele>
        <time>2021-10-14T17:28:37Z</time>
      </trkpt>
      <trkpt lat="43.425664" lon="-4.859883">
        <ele>-55.773</ele>
        <time>2021-10-14T17:28:38Z</time>
      </trkpt>
      <trkpt lat="43.425520" lon="-4.859520">
        <ele>-56.620</ele>
        <time>2021-10-14T17:28:40Z</time>
      </trkpt>
      <trkpt lat="43.425442" lon="-4.859318">
        <ele>-56.508</ele>
        <time>2021-10-14T17:28:41Z</time>
      </trkpt>
      <trkpt lat="43.425273" lon="-4.858885">
        <ele>-57.627</ele>
        <time>2021-10-14T17:28:43Z</time>
      </trkpt>
      <trkpt lat="43.425183" lon="-4.858655">
        <ele>-56.975</ele>
        <time>2021-10-14T17:28:44Z</time>
      </trkpt>
      <trkpt lat="43.425026" lon="-4.858255">
        <ele>-57.833</ele>
        <time>2021-10-14T17:28:46Z</time>
      </trkpt>
      <trkpt lat="43.424885" lon="-4.857894">
        <ele>-57.230</ele>
        <time>2021-10-14T17:28:48Z</time>
      </trkpt>
      <trkpt lat="43.424819" lon="-4.857723">
        <ele>-57.773</ele>
        <time>2021-10-14T17:28:49Z</time>
      </trkpt>
      <trkpt lat="43.424752" lon="-4.857549">
        <ele>-58.030</ele>
        <time>2021-10-14T17:28:50Z</time>
      </trkpt>
      <trkpt lat="43.424612" lon="-4.857201">
        <ele>-58.152</ele>
        <time>2021-10-14T17:28:52Z</time>
      </trkpt>
      <trkpt lat="43.424463" lon="-4.856822">
        <ele>-59.211</ele>
        <time>2021-10-14T17:28:54Z</time>
      </trkpt>
      <trkpt lat="43.424388" lon="-4.856619">
        <ele>-58.385</ele>
        <time>2021-10-14T17:28:55Z</time>
      </trkpt>
      <trkpt lat="43.424307" lon="-4.856403">
        <ele>-59.189</ele>
        <time>2021-10-14T17:28:56Z</time>
      </trkpt>
      <trkpt lat="43.424134" lon="-4.855975">
        <ele>-59.317</ele>
        <time>2021-10-14T17:28:58Z</time>
      </trkpt>
      <trkpt lat="43.424043" lon="-4.855756">
        <ele>-58.708</ele>
        <time>2021-10-14T17:28:59Z</time>
      </trkpt>
      <trkpt lat="43.423859" lon="-4.855323">
        <ele>-59.626</ele>
        <time>2021-10-14T17:29:01Z</time>
      </trkpt>
      <trkpt lat="43.423763" lon="-4.855096">
        <ele>-59.024</ele>
        <time>2021-10-14T17:29:02Z</time>
      </trkpt>
      <trkpt lat="43.423577" lon="-4.854631">
        <ele>-59.112</ele>
        <time>2021-10-14T17:29:04Z</time>
      </trkpt>
      <trkpt lat="43.423397" lon="-4.854133">
        <ele>-58.729</ele>
        <time>2021-10-14T17:29:06Z</time>
      </trkpt>
      <trkpt lat="43.423313" lon="-4.853871">
        <ele>-58.142</ele>
        <time>2021-10-14T17:29:07Z</time>
      </trkpt>
      <trkpt lat="43.423233" lon="-4.853597">
        <ele>-56.419</ele>
        <time>2021-10-14T17:29:08Z</time>
      </trkpt>
      <trkpt lat="43.423083" lon="-4.853054">
        <ele>-56.061</ele>
        <time>2021-10-14T17:29:10Z</time>
      </trkpt>
      <trkpt lat="43.422934" lon="-4.852503">
        <ele>-56.360</ele>
        <time>2021-10-14T17:29:12Z</time>
      </trkpt>
      <trkpt lat="43.422867" lon="-4.852244">
        <ele>-56.195</ele>
        <time>2021-10-14T17:29:13Z</time>
      </trkpt>
      <trkpt lat="43.422801" lon="-4.851998">
        <ele>-56.849</ele>
        <time>2021-10-14T17:29:14Z</time>
      </trkpt>
      <trkpt lat="43.422678" lon="-4.851551">
        <ele>-55.423</ele>
        <time>2021-10-14T17:29:16Z</time>
      </trkpt>
      <trkpt lat="43.422559" lon="-4.851098">
        <ele>-55.508</ele>
        <time>2021-10-14T17:29:18Z</time>
      </trkpt>
      <trkpt lat="43.422499" lon="-4.850866">
        <ele>-55.357</ele>
        <time>2021-10-14T17:29:19Z</time>
      </trkpt>
      <trkpt lat="43.422435" lon="-4.850621">
        <ele>-56.285</ele>
        <time>2021-10-14T17:29:20Z</time>
      </trkpt>
      <trkpt lat="43.422300" lon="-4.850137">
        <ele>-55.983</ele>
        <time>2021-10-14T17:29:22Z</time>
      </trkpt>
      <trkpt lat="43.422233" lon="-4.849890">
        <ele>-55.210</ele>
        <time>2021-10-14T17:29:23Z</time>
      </trkpt>
      <trkpt lat="43.422108" lon="-4.849423">
        <ele>-56.423</ele>
        <time>2021-10-14T17:29:25Z</time>
      </trkpt>
      <trkpt lat="43.422042" lon="-4.849175">
        <ele>-55.790</ele>
        <time>2021-10-14T17:29:26Z</time>
      </trkpt>
      <trkpt lat="43.421909" lon="-4.848691">
        <ele>-53.732</ele>
        <time>2021-10-14T17:29:28Z</time>
      </trkpt>
      <trkpt lat="43.421847" lon="-4.848459">
        <ele>-53.931</ele>
        <time>2021-10-14T17:29:29Z</time>
      </trkpt>
      <trkpt lat="43.421789" lon="-4.848237">
        <ele>-53.292</ele>
        <time>2021-10-14T17:29:30Z</time>
      </trkpt>
      <trkpt lat="43.421741" lon="-4.848033">
        <ele>-53.473</ele>
        <time>2021-10-14T17:29:31Z</time>
      </trkpt>
      <trkpt lat="43.421693" lon="-4.847845">
        <ele>-54.020</ele>
        <time>2021-10-14T17:29:32Z</time>
      </trkpt>
      <trkpt lat="43.421589" lon="-4.847495">
        <ele>-52.208</ele>
        <time>2021-10-14T17:29:34Z</time>
      </trkpt>
      <trkpt lat="43.421485" lon="-4.847134">
        <ele>-52.187</ele>
        <time>2021-10-14T17:29:36Z</time>
      </trkpt>
      <trkpt lat="43.421437" lon="-4.846947">
        <ele>-52.315</ele>
        <time>2021-10-14T17:29:37Z</time>
      </trkpt>
      <trkpt lat="43.421386" lon="-4.846743">
        <ele>-51.763</ele>
        <time>2021-10-14T17:29:38Z</time>
      </trkpt>
      <trkpt lat="43.421292" lon="-4.846272">
        <ele>-52.080</ele>
        <time>2021-10-14T17:29:40Z</time>
      </trkpt>
      <trkpt lat="43.421252" lon="-4.845983">
        <ele>-51.033</ele>
        <time>2021-10-14T17:29:41Z</time>
      </trkpt>
      <trkpt lat="43.421207" lon="-4.845674">
        <ele>-51.040</ele>
        <time>2021-10-14T17:29:42Z</time>
      </trkpt>
      <trkpt lat="43.421113" lon="-4.845072">
        <ele>-50.112</ele>
        <time>2021-10-14T17:29:44Z</time>
      </trkpt>
      <trkpt lat="43.421035" lon="-4.844535">
        <ele>-48.651</ele>
        <time>2021-10-14T17:29:46Z</time>
      </trkpt>
      <trkpt lat="43.420998" lon="-4.844276">
        <ele>-48.464</ele>
        <time>2021-10-14T17:29:47Z</time>
      </trkpt>
      <trkpt lat="43.420963" lon="-4.844027">
        <ele>-47.006</ele>
        <time>2021-10-14T17:29:48Z</time>
      </trkpt>
      <trkpt lat="43.420897" lon="-4.843556">
        <ele>-45.416</ele>
        <time>2021-10-14T17:29:50Z</time>
      </trkpt>
      <trkpt lat="43.420838" lon="-4.843131">
        <ele>-44.608</ele>
        <time>2021-10-14T17:29:52Z</time>
      </trkpt>
      <trkpt lat="43.420801" lon="-4.842704">
        <ele>-45.254</ele>
        <time>2021-10-14T17:29:54Z</time>
      </trkpt>
      <trkpt lat="43.420809" lon="-4.842484">
        <ele>-44.582</ele>
        <time>2021-10-14T17:29:55Z</time>
      </trkpt>
      <trkpt lat="43.420835" lon="-4.842257">
        <ele>-43.580</ele>
        <time>2021-10-14T17:29:56Z</time>
      </trkpt>
      <trkpt lat="43.420902" lon="-4.841824">
        <ele>-43.527</ele>
        <time>2021-10-14T17:29:58Z</time>
      </trkpt>
      <trkpt lat="43.420935" lon="-4.841607">
        <ele>-43.210</ele>
        <time>2021-10-14T17:29:59Z</time>
      </trkpt>
      <trkpt lat="43.420968" lon="-4.841386">
        <ele>-45.027</ele>
        <time>2021-10-14T17:30:00Z</time>
      </trkpt>
      <trkpt lat="43.421054" lon="-4.840951">
        <ele>-45.219</ele>
        <time>2021-10-14T17:30:02Z</time>
      </trkpt>
      <trkpt lat="43.421174" lon="-4.840496">
        <ele>-46.438</ele>
        <time>2021-10-14T17:30:04Z</time>
      </trkpt>
      <trkpt lat="43.421240" lon="-4.840243">
        <ele>-47.252</ele>
        <time>2021-10-14T17:30:05Z</time>
      </trkpt>
      <trkpt lat="43.421377" lon="-4.839710">
        <ele>-48.253</ele>
        <time>2021-10-14T17:30:07Z</time>
      </trkpt>
      <trkpt lat="43.421450" lon="-4.839424">
        <ele>-48.408</ele>
        <time>2021-10-14T17:30:08Z</time>
      </trkpt>
      <trkpt lat="43.421581" lon="-4.838855">
        <ele>-50.408</ele>
        <time>2021-10-14T17:30:10Z</time>
      </trkpt>
      <trkpt lat="43.421651" lon="-4.838565">
        <ele>-51.593</ele>
        <time>2021-10-14T17:30:11Z</time>
      </trkpt>
      <trkpt lat="43.421793" lon="-4.838005">
        <ele>-52.181</ele>
        <time>2021-10-14T17:30:13Z</time>
      </trkpt>
      <trkpt lat="43.421861" lon="-4.837734">
        <ele>-53.069</ele>
        <time>2021-10-14T17:30:14Z</time>
      </trkpt>
      <trkpt lat="43.421981" lon="-4.837246">
        <ele>-52.916</ele>
        <time>2021-10-14T17:30:16Z</time>
      </trkpt>
      <trkpt lat="43.422042" lon="-4.837018">
        <ele>-53.719</ele>
        <time>2021-10-14T17:30:17Z</time>
      </trkpt>
      <trkpt lat="43.422178" lon="-4.836608">
        <ele>-54.266</ele>
        <time>2021-10-14T17:30:19Z</time>
      </trkpt>
      <trkpt lat="43.422246" lon="-4.836406">
        <ele>-54.558</ele>
        <time>2021-10-14T17:30:20Z</time>
      </trkpt>
      <trkpt lat="43.422375" lon="-4.836026">
        <ele>-55.657</ele>
        <time>2021-10-14T17:30:22Z</time>
      </trkpt>
      <trkpt lat="43.422508" lon="-4.835629">
        <ele>-56.792</ele>
        <time>2021-10-14T17:30:24Z</time>
      </trkpt>
      <trkpt lat="43.422572" lon="-4.835435">
        <ele>-56.973</ele>
        <time>2021-10-14T17:30:25Z</time>
      </trkpt>
      <trkpt lat="43.422632" lon="-4.835246">
        <ele>-57.420</ele>
        <time>2021-10-14T17:30:26Z</time>
      </trkpt>
      <trkpt lat="43.422743" lon="-4.834900">
        <ele>-58.708</ele>
        <time>2021-10-14T17:30:28Z</time>
      </trkpt>
      <trkpt lat="43.422852" lon="-4.834558">
        <ele>-57.287</ele>
        <time>2021-10-14T17:30:30Z</time>
      </trkpt>
      <trkpt lat="43.422954" lon="-4.834238">
        <ele>-58.645</ele>
        <time>2021-10-14T17:30:32Z</time>
      </trkpt>
      <trkpt lat="43.423058" lon="-4.833938">
        <ele>-58.283</ele>
        <time>2021-10-14T17:30:34Z</time>
      </trkpt>
      <trkpt lat="43.423175" lon="-4.833644">
        <ele>-57.430</ele>
        <time>2021-10-14T17:30:36Z</time>
      </trkpt>
      <trkpt lat="43.423291" lon="-4.833372">
        <ele>-57.083</ele>
        <time>2021-10-14T17:30:38Z</time>
      </trkpt>
      <trkpt lat="43.423397" lon="-4.833119">
        <ele>-57.660</ele>
        <time>2021-10-14T17:30:40Z</time>
      </trkpt>
      <trkpt lat="43.423456" lon="-4.832981">
        <ele>-57.152</ele>
        <time>2021-10-14T17:30:41Z</time>
      </trkpt>
      <trkpt lat="43.423516" lon="-4.832834">
        <ele>-57.321</ele>
        <time>2021-10-14T17:30:42Z</time>
      </trkpt>
      <trkpt lat="43.423578" lon="-4.832677">
        <ele>-57.312</ele>
        <time>2021-10-14T17:30:43Z</time>
      </trkpt>
      <trkpt lat="43.423643" lon="-4.832510">
        <ele>-57.832</ele>
        <time>2021-10-14T17:30:44Z</time>
      </trkpt>
      <trkpt lat="43.423753" lon="-4.832184">
        <ele>-58.405</ele>
        <time>2021-10-14T17:30:46Z</time>
      </trkpt>
      <trkpt lat="43.423866" lon="-4.831865">
        <ele>-57.708</ele>
        <time>2021-10-14T17:30:48Z</time>
      </trkpt>
      <trkpt lat="43.423981" lon="-4.831532">
        <ele>-58.359</ele>
        <time>2021-10-14T17:30:50Z</time>
      </trkpt>
      <trkpt lat="43.424090" lon="-4.831184">
        <ele>-57.847</ele>
        <time>2021-10-14T17:30:52Z</time>
      </trkpt>
      <trkpt lat="43.424149" lon="-4.831011">
        <ele>-59.125</ele>
        <time>2021-10-14T17:30:53Z</time>
      </trkpt>
      <trkpt lat="43.424206" lon="-4.830842">
        <ele>-58.052</ele>
        <time>2021-10-14T17:30:54Z</time>
      </trkpt>
      <trkpt lat="43.424266" lon="-4.830673">
        <ele>-57.575</ele>
        <time>2021-10-14T17:30:55Z</time>
      </trkpt>
      <trkpt lat="43.424331" lon="-4.830494">
        <ele>-57.342</ele>
        <time>2021-10-14T17:30:56Z</time>
      </trkpt>
      <trkpt lat="43.424466" lon="-4.830118">
        <ele>-58.524</ele>
        <time>2021-10-14T17:30:58Z</time>
      </trkpt>
      <trkpt lat="43.424601" lon="-4.829720">
        <ele>-57.553</ele>
        <time>2021-10-14T17:31:00Z</time>
      </trkpt>
      <trkpt lat="43.424665" lon="-4.829538">
        <ele>-57.718</ele>
        <time>2021-10-14T17:31:01Z</time>
      </trkpt>
      <trkpt lat="43.424729" lon="-4.829354">
        <ele>-57.898</ele>
        <time>2021-10-14T17:31:02Z</time>
      </trkpt>
      <trkpt lat="43.424843" lon="-4.829026">
        <ele>-57.817</ele>
        <time>2021-10-14T17:31:04Z</time>
      </trkpt>
      <trkpt lat="43.424901" lon="-4.828857">
        <ele>-58.508</ele>
        <time>2021-10-14T17:31:05Z</time>
      </trkpt>
      <trkpt lat="43.425016" lon="-4.828530">
        <ele>-60.529</ele>
        <time>2021-10-14T17:31:07Z</time>
      </trkpt>
      <trkpt lat="43.425074" lon="-4.828366">
        <ele>-60.217</ele>
        <time>2021-10-14T17:31:08Z</time>
      </trkpt>
      <trkpt lat="43.425193" lon="-4.828047">
        <ele>-59.645</ele>
        <time>2021-10-14T17:31:10Z</time>
      </trkpt>
      <trkpt lat="43.425312" lon="-4.827725">
        <ele>-61.572</ele>
        <time>2021-10-14T17:31:12Z</time>
      </trkpt>
      <trkpt lat="43.425371" lon="-4.827571">
        <ele>-61.515</ele>
        <time>2021-10-14T17:31:13Z</time>
      </trkpt>
      <trkpt lat="43.425424" lon="-4.827427">
        <ele>-61.712</ele>
        <time>2021-10-14T17:31:14Z</time>
      </trkpt>
      <trkpt lat="43.425510" lon="-4.827179">
        <ele>-63.044</ele>
        <time>2021-10-14T17:31:16Z</time>
      </trkpt>
      <trkpt lat="43.425578" lon="-4.826962">
        <ele>-62.913</ele>
        <time>2021-10-14T17:31:18Z</time>
      </trkpt>
      <trkpt lat="43.425602" lon="-4.826860">
        <ele>-63.154</ele>
        <time>2021-10-14T17:31:19Z</time>
      </trkpt>
      <trkpt lat="43.425615" lon="-4.826752">
        <ele>-63.156</ele>
        <time>2021-10-14T17:31:20Z</time>
      </trkpt>
      <trkpt lat="43.425604" lon="-4.826523">
        <ele>-61.911</ele>
        <time>2021-10-14T17:31:22Z</time>
      </trkpt>
      <trkpt lat="43.425603" lon="-4.826412">
        <ele>-62.508</ele>
        <time>2021-10-14T17:31:23Z</time>
      </trkpt>
      <trkpt lat="43.425661" lon="-4.826215">
        <ele>-63.433</ele>
        <time>2021-10-14T17:31:25Z</time>
      </trkpt>
      <trkpt lat="43.425720" lon="-4.826137">
        <ele>-63.471</ele>
        <time>2021-10-14T17:31:26Z</time>
      </trkpt>
      <trkpt lat="43.425874" lon="-4.826003">
        <ele>-63.419</ele>
        <time>2021-10-14T17:31:28Z</time>
      </trkpt>
      <trkpt lat="43.426018" lon="-4.825797">
        <ele>-63.896</ele>
        <time>2021-10-14T17:31:30Z</time>
      </trkpt>
      <trkpt lat="43.426143" lon="-4.825500">
        <ele>-64.519</ele>
        <time>2021-10-14T17:31:32Z</time>
      </trkpt>
      <trkpt lat="43.426264" lon="-4.825137">
        <ele>-64.016</ele>
        <time>2021-10-14T17:31:34Z</time>
      </trkpt>
      <trkpt lat="43.426326" lon="-4.824955">
        <ele>-64.318</ele>
        <time>2021-10-14T17:31:35Z</time>
      </trkpt>
      <trkpt lat="43.426436" lon="-4.824620">
        <ele>-62.997</ele>
        <time>2021-10-14T17:31:37Z</time>
      </trkpt>
      <trkpt lat="43.426486" lon="-4.824456">
        <ele>-63.575</ele>
        <time>2021-10-14T17:31:38Z</time>
      </trkpt>
      <trkpt lat="43.426570" lon="-4.824136">
        <ele>-64.028</ele>
        <time>2021-10-14T17:31:40Z</time>
      </trkpt>
      <trkpt lat="43.426654" lon="-4.823823">
        <ele>-64.720</ele>
        <time>2021-10-14T17:31:42Z</time>
      </trkpt>
      <trkpt lat="43.426697" lon="-4.823664">
        <ele>-65.208</ele>
        <time>2021-10-14T17:31:43Z</time>
      </trkpt>
      <trkpt lat="43.426733" lon="-4.823481">
        <ele>-65.245</ele>
        <time>2021-10-14T17:31:44Z</time>
      </trkpt>
      <trkpt lat="43.426757" lon="-4.823080">
        <ele>-65.583</ele>
        <time>2021-10-14T17:31:46Z</time>
      </trkpt>
      <trkpt lat="43.426683" lon="-4.822655">
        <ele>-65.561</ele>
        <time>2021-10-14T17:31:48Z</time>
      </trkpt>
      <trkpt lat="43.426603" lon="-4.822445">
        <ele>-65.868</ele>
        <time>2021-10-14T17:31:49Z</time>
      </trkpt>
      <trkpt lat="43.426497" lon="-4.822235">
        <ele>-67.091</ele>
        <time>2021-10-14T17:31:50Z</time>
      </trkpt>
      <trkpt lat="43.426283" lon="-4.821836">
        <ele>-67.038</ele>
        <time>2021-10-14T17:31:52Z</time>
      </trkpt>
      <trkpt lat="43.426174" lon="-4.821641">
        <ele>-67.270</ele>
        <time>2021-10-14T17:31:53Z</time>
      </trkpt>
      <trkpt lat="43.425957" lon="-4.821258">
        <ele>-67.039</ele>
        <time>2021-10-14T17:31:55Z</time>
      </trkpt>
      <trkpt lat="43.425852" lon="-4.821064">
        <ele>-67.088</ele>
        <time>2021-10-14T17:31:56Z</time>
      </trkpt>
      <trkpt lat="43.425670" lon="-4.820694">
        <ele>-67.024</ele>
        <time>2021-10-14T17:31:58Z</time>
      </trkpt>
      <trkpt lat="43.425588" lon="-4.820497">
        <ele>-67.226</ele>
        <time>2021-10-14T17:31:59Z</time>
      </trkpt>
      <trkpt lat="43.425460" lon="-4.820066">
        <ele>-65.908</ele>
        <time>2021-10-14T17:32:01Z</time>
      </trkpt>
      <trkpt lat="43.425418" lon="-4.819819">
        <ele>-66.286</ele>
        <time>2021-10-14T17:32:02Z</time>
      </trkpt>
      <trkpt lat="43.425386" lon="-4.819320">
        <ele>-65.964</ele>
        <time>2021-10-14T17:32:04Z</time>
      </trkpt>
      <trkpt lat="43.425383" lon="-4.819065">
        <ele>-66.282</ele>
        <time>2021-10-14T17:32:05Z</time>
      </trkpt>
      <trkpt lat="43.425383" lon="-4.818810">
        <ele>-66.549</ele>
        <time>2021-10-14T17:32:06Z</time>
      </trkpt>
      <trkpt lat="43.425378" lon="-4.818558">
        <ele>-66.572</ele>
        <time>2021-10-14T17:32:07Z</time>
      </trkpt>
      <trkpt lat="43.425370" lon="-4.818304">
        <ele>-66.049</ele>
        <time>2021-10-14T17:32:08Z</time>
      </trkpt>
      <trkpt lat="43.425359" lon="-4.817810">
        <ele>-65.011</ele>
        <time>2021-10-14T17:32:10Z</time>
      </trkpt>
      <trkpt lat="43.425359" lon="-4.817558">
        <ele>-66.310</ele>
        <time>2021-10-14T17:32:11Z</time>
      </trkpt>
      <trkpt lat="43.425357" lon="-4.817077">
        <ele>-64.862</ele>
        <time>2021-10-14T17:32:13Z</time>
      </trkpt>
      <trkpt lat="43.425356" lon="-4.816838">
        <ele>-65.783</ele>
        <time>2021-10-14T17:32:14Z</time>
      </trkpt>
      <trkpt lat="43.425360" lon="-4.816386">
        <ele>-63.911</ele>
        <time>2021-10-14T17:32:16Z</time>
      </trkpt>
      <trkpt lat="43.425363" lon="-4.815923">
        <ele>-64.208</ele>
        <time>2021-10-14T17:32:18Z</time>
      </trkpt>
      <trkpt lat="43.425358" lon="-4.815455">
        <ele>-62.424</ele>
        <time>2021-10-14T17:32:20Z</time>
      </trkpt>
      <trkpt lat="43.425358" lon="-4.814998">
        <ele>-60.992</ele>
        <time>2021-10-14T17:32:22Z</time>
      </trkpt>
      <trkpt lat="43.425347" lon="-4.814563">
        <ele>-58.720</ele>
        <time>2021-10-14T17:32:24Z</time>
      </trkpt>
      <trkpt lat="43.425347" lon="-4.814178">
        <ele>-57.687</ele>
        <time>2021-10-14T17:32:26Z</time>
      </trkpt>
      <trkpt lat="43.425346" lon="-4.813821">
        <ele>-56.740</ele>
        <time>2021-10-14T17:32:28Z</time>
      </trkpt>
      <trkpt lat="43.425345" lon="-4.813630">
        <ele>-56.767</ele>
        <time>2021-10-14T17:32:29Z</time>
      </trkpt>
      <trkpt lat="43.425341" lon="-4.813243">
        <ele>-57.829</ele>
        <time>2021-10-14T17:32:31Z</time>
      </trkpt>
      <trkpt lat="43.425335" lon="-4.813058">
        <ele>-57.648</ele>
        <time>2021-10-14T17:32:32Z</time>
      </trkpt>
      <trkpt lat="43.425322" lon="-4.812723">
        <ele>-58.182</ele>
        <time>2021-10-14T17:32:34Z</time>
      </trkpt>
      <trkpt lat="43.425318" lon="-4.812558">
        <ele>-59.143</ele>
        <time>2021-10-14T17:32:35Z</time>
      </trkpt>
      <trkpt lat="43.425315" lon="-4.812390">
        <ele>-60.217</ele>
        <time>2021-10-14T17:32:36Z</time>
      </trkpt>
      <trkpt lat="43.425316" lon="-4.812068">
        <ele>-60.508</ele>
        <time>2021-10-14T17:32:38Z</time>
      </trkpt>
      <trkpt lat="43.425327" lon="-4.811754">
        <ele>-60.916</ele>
        <time>2021-10-14T17:32:40Z</time>
      </trkpt>
      <trkpt lat="43.425331" lon="-4.811418">
        <ele>-61.534</ele>
        <time>2021-10-14T17:32:42Z</time>
      </trkpt>
      <trkpt lat="43.425330" lon="-4.811250">
        <ele>-63.462</ele>
        <time>2021-10-14T17:32:43Z</time>
      </trkpt>
      <trkpt lat="43.425329" lon="-4.811073">
        <ele>-62.879</ele>
        <time>2021-10-14T17:32:44Z</time>
      </trkpt>
      <trkpt lat="43.425332" lon="-4.810712">
        <ele>-64.852</ele>
        <time>2021-10-14T17:32:46Z</time>
      </trkpt>
      <trkpt lat="43.425336" lon="-4.810524">
        <ele>-64.279</ele>
        <time>2021-10-14T17:32:47Z</time>
      </trkpt>
      <trkpt lat="43.425342" lon="-4.810140">
        <ele>-65.261</ele>
        <time>2021-10-14T17:32:49Z</time>
      </trkpt>
      <trkpt lat="43.425347" lon="-4.809935">
        <ele>-65.050</ele>
        <time>2021-10-14T17:32:50Z</time>
      </trkpt>
      <trkpt lat="43.425348" lon="-4.809513">
        <ele>-64.069</ele>
        <time>2021-10-14T17:32:52Z</time>
      </trkpt>
      <trkpt lat="43.425347" lon="-4.809084">
        <ele>-63.704</ele>
        <time>2021-10-14T17:32:54Z</time>
      </trkpt>
      <trkpt lat="43.425347" lon="-4.808879">
        <ele>-63.624</ele>
        <time>2021-10-14T17:32:55Z</time>
      </trkpt>
      <trkpt lat="43.425347" lon="-4.808668">
        <ele>-63.708</ele>
        <time>2021-10-14T17:32:56Z</time>
      </trkpt>
      <trkpt lat="43.425355" lon="-4.808243">
        <ele>-64.374</ele>
        <time>2021-10-14T17:32:58Z</time>
      </trkpt>
      <trkpt lat="43.425359" lon="-4.808008">
        <ele>-63.922</ele>
        <time>2021-10-14T17:32:59Z</time>
      </trkpt>
      <trkpt lat="43.425365" lon="-4.807716">
        <ele>-64.260</ele>
        <time>2021-10-14T17:33:00Z</time>
      </trkpt>
      <trkpt lat="43.425379" lon="-4.807010">
        <ele>-66.967</ele>
        <time>2021-10-14T17:33:02Z</time>
      </trkpt>
      <trkpt lat="43.425361" lon="-4.806212">
        <ele>-68.430</ele>
        <time>2021-10-14T17:33:04Z</time>
      </trkpt>
      <trkpt lat="43.425353" lon="-4.805793">
        <ele>-69.387</ele>
        <time>2021-10-14T17:33:05Z</time>
      </trkpt>
      <trkpt lat="43.425350" lon="-4.804979">
        <ele>-70.729</ele>
        <time>2021-10-14T17:33:07Z</time>
      </trkpt>
      <trkpt lat="43.425358" lon="-4.804575">
        <ele>-70.858</ele>
        <time>2021-10-14T17:33:08Z</time>
      </trkpt>
      <trkpt lat="43.425366" lon="-4.803880">
        <ele>-71.379</ele>
        <time>2021-10-14T17:33:10Z</time>
      </trkpt>
      <trkpt lat="43.425365" lon="-4.803224">
        <ele>-71.405</ele>
        <time>2021-10-14T17:33:12Z</time>
      </trkpt>
      <trkpt lat="43.425365" lon="-4.802896">
        <ele>-71.725</ele>
        <time>2021-10-14T17:33:13Z</time>
      </trkpt>
      <trkpt lat="43.425365" lon="-4.802561">
        <ele>-71.208</ele>
        <time>2021-10-14T17:33:14Z</time>
      </trkpt>
      <trkpt lat="43.425366" lon="-4.801923">
        <ele>-71.375</ele>
        <time>2021-10-14T17:33:16Z</time>
      </trkpt>
      <trkpt lat="43.425372" lon="-4.801299">
        <ele>-70.783</ele>
        <time>2021-10-14T17:33:18Z</time>
      </trkpt>
      <trkpt lat="43.425374" lon="-4.800679">
        <ele>-71.291</ele>
        <time>2021-10-14T17:33:20Z</time>
      </trkpt>
      <trkpt lat="43.425375" lon="-4.800136">
        <ele>-69.318</ele>
        <time>2021-10-14T17:33:22Z</time>
      </trkpt>
      <trkpt lat="43.425379" lon="-4.799868">
        <ele>-70.761</ele>
        <time>2021-10-14T17:33:23Z</time>
      </trkpt>
      <trkpt lat="43.425381" lon="-4.799583">
        <ele>-69.458</ele>
        <time>2021-10-14T17:33:24Z</time>
      </trkpt>
      <trkpt lat="43.425387" lon="-4.798968">
        <ele>-68.730</ele>
        <time>2021-10-14T17:33:26Z</time>
      </trkpt>
      <trkpt lat="43.425384" lon="-4.798335">
        <ele>-69.299</ele>
        <time>2021-10-14T17:33:28Z</time>
      </trkpt>
      <trkpt lat="43.425380" lon="-4.797985">
        <ele>-68.751</ele>
        <time>2021-10-14T17:33:29Z</time>
      </trkpt>
      <trkpt lat="43.425375" lon="-4.797605">
        <ele>-68.901</ele>
        <time>2021-10-14T17:33:30Z</time>
      </trkpt>
      <trkpt lat="43.425349" lon="-4.796764">
        <ele>-68.811</ele>
        <time>2021-10-14T17:33:32Z</time>
      </trkpt>
      <trkpt lat="43.425302" lon="-4.795879">
        <ele>-69.008</ele>
        <time>2021-10-14T17:33:34Z</time>
      </trkpt>
      <trkpt lat="43.425273" lon="-4.795017">
        <ele>-65.763</ele>
        <time>2021-10-14T17:33:36Z</time>
      </trkpt>
      <trkpt lat="43.425259" lon="-4.794618">
        <ele>-64.981</ele>
        <time>2021-10-14T17:33:37Z</time>
      </trkpt>
      <trkpt lat="43.425247" lon="-4.794238">
        <ele>-63.539</ele>
        <time>2021-10-14T17:33:38Z</time>
      </trkpt>
      <trkpt lat="43.425222" lon="-4.793585">
        <ele>-62.356</ele>
        <time>2021-10-14T17:33:40Z</time>
      </trkpt>
      <trkpt lat="43.425209" lon="-4.793274">
        <ele>-61.089</ele>
        <time>2021-10-14T17:33:41Z</time>
      </trkpt>
      <trkpt lat="43.425199" lon="-4.792975">
        <ele>-59.766</ele>
        <time>2021-10-14T17:33:42Z</time>
      </trkpt>
      <trkpt lat="43.425183" lon="-4.792387">
        <ele>-56.688</ele>
        <time>2021-10-14T17:33:44Z</time>
      </trkpt>
      <trkpt lat="43.425136" lon="-4.791803">
        <ele>-56.167</ele>
        <time>2021-10-14T17:33:46Z</time>
      </trkpt>
      <trkpt lat="43.425082" lon="-4.791492">
        <ele>-55.574</ele>
        <time>2021-10-14T17:33:47Z</time>
      </trkpt>
      <trkpt lat="43.424915" lon="-4.790841">
        <ele>-55.756</ele>
        <time>2021-10-14T17:33:49Z</time>
      </trkpt>
      <trkpt lat="43.424827" lon="-4.790503">
        <ele>-58.121</ele>
        <time>2021-10-14T17:33:50Z</time>
      </trkpt>
      <trkpt lat="43.424652" lon="-4.789872">
        <ele>-60.608</ele>
        <time>2021-10-14T17:33:52Z</time>
      </trkpt>
      <trkpt lat="43.424483" lon="-4.789281">
        <ele>-63.585</ele>
        <time>2021-10-14T17:33:54Z</time>
      </trkpt>
      <trkpt lat="43.424402" lon="-4.788995">
        <ele>-65.733</ele>
        <time>2021-10-14T17:33:55Z</time>
      </trkpt>
      <trkpt lat="43.424322" lon="-4.788712">
        <ele>-65.941</ele>
        <time>2021-10-14T17:33:56Z</time>
      </trkpt>
      <trkpt lat="43.424184" lon="-4.788197">
        <ele>-68.028</ele>
        <time>2021-10-14T17:33:58Z</time>
      </trkpt>
      <trkpt lat="43.424115" lon="-4.787942">
        <ele>-69.961</ele>
        <time>2021-10-14T17:33:59Z</time>
      </trkpt>
      <trkpt lat="43.424049" lon="-4.787697">
        <ele>-70.968</ele>
        <time>2021-10-14T17:34:00Z</time>
      </trkpt>
      <trkpt lat="43.423917" lon="-4.787240">
        <ele>-74.230</ele>
        <time>2021-10-14T17:34:02Z</time>
      </trkpt>
      <trkpt lat="43.423818" lon="-4.786818">
        <ele>-74.949</ele>
        <time>2021-10-14T17:34:04Z</time>
      </trkpt>
      <trkpt lat="43.423804" lon="-4.786402">
        <ele>-75.793</ele>
        <time>2021-10-14T17:34:06Z</time>
      </trkpt>
      <trkpt lat="43.423833" lon="-4.786204">
        <ele>-75.265</ele>
        <time>2021-10-14T17:34:07Z</time>
      </trkpt>
      <trkpt lat="43.423891" lon="-4.786009">
        <ele>-76.021</ele>
        <time>2021-10-14T17:34:08Z</time>
      </trkpt>
      <trkpt lat="43.424019" lon="-4.785631">
        <ele>-75.708</ele>
        <time>2021-10-14T17:34:10Z</time>
      </trkpt>
      <trkpt lat="43.424075" lon="-4.785433">
        <ele>-74.787</ele>
        <time>2021-10-14T17:34:11Z</time>
      </trkpt>
      <trkpt lat="43.424162" lon="-4.785068">
        <ele>-73.925</ele>
        <time>2021-10-14T17:34:13Z</time>
      </trkpt>
      <trkpt lat="43.424194" lon="-4.784883">
        <ele>-72.083</ele>
        <time>2021-10-14T17:34:14Z</time>
      </trkpt>
      <trkpt lat="43.424234" lon="-4.784514">
        <ele>-70.790</ele>
        <time>2021-10-14T17:34:16Z</time>
      </trkpt>
      <trkpt lat="43.424243" lon="-4.784318">
        <ele>-69.573</ele>
        <time>2021-10-14T17:34:17Z</time>
      </trkpt>
      <trkpt lat="43.424252" lon="-4.784120">
        <ele>-67.240</ele>
        <time>2021-10-14T17:34:18Z</time>
      </trkpt>
      <trkpt lat="43.424266" lon="-4.783733">
        <ele>-67.872</ele>
        <time>2021-10-14T17:34:20Z</time>
      </trkpt>
      <trkpt lat="43.424279" lon="-4.783371">
        <ele>-66.041</ele>
        <time>2021-10-14T17:34:22Z</time>
      </trkpt>
      <trkpt lat="43.424302" lon="-4.782986">
        <ele>-67.583</ele>
        <time>2021-10-14T17:34:24Z</time>
      </trkpt>
      <trkpt lat="43.424329" lon="-4.782589">
        <ele>-68.425</ele>
        <time>2021-10-14T17:34:26Z</time>
      </trkpt>
      <trkpt lat="43.424351" lon="-4.782196">
        <ele>-68.317</ele>
        <time>2021-10-14T17:34:28Z</time>
      </trkpt>
      <trkpt lat="43.424361" lon="-4.781991">
        <ele>-69.908</ele>
        <time>2021-10-14T17:34:29Z</time>
      </trkpt>
      <trkpt lat="43.424382" lon="-4.781587">
        <ele>-70.536</ele>
        <time>2021-10-14T17:34:31Z</time>
      </trkpt>
      <trkpt lat="43.424394" lon="-4.781383">
        <ele>-70.434</ele>
        <time>2021-10-14T17:34:32Z</time>
      </trkpt>
      <trkpt lat="43.424416" lon="-4.781014">
        <ele>-70.222</ele>
        <time>2021-10-14T17:34:34Z</time>
      </trkpt>
      <trkpt lat="43.424426" lon="-4.780858">
        <ele>-70.799</ele>
        <time>2021-10-14T17:34:35Z</time>
      </trkpt>
      <trkpt lat="43.424435" lon="-4.780731">
        <ele>-70.782</ele>
        <time>2021-10-14T17:34:36Z</time>
      </trkpt>
      <trkpt lat="43.424445" lon="-4.780627">
        <ele>-69.759</ele>
        <time>2021-10-14T17:34:37Z</time>
      </trkpt>
      <trkpt lat="43.424452" lon="-4.780536">
        <ele>-69.891</ele>
        <time>2021-10-14T17:34:38Z</time>
      </trkpt>
      <trkpt lat="43.424462" lon="-4.780351">
        <ele>-69.880</ele>
        <time>2021-10-14T17:34:40Z</time>
      </trkpt>
      <trkpt lat="43.424479" lon="-4.780109">
        <ele>-70.388</ele>
        <time>2021-10-14T17:34:42Z</time>
      </trkpt>
      <trkpt lat="43.424496" lon="-4.779768">
        <ele>-69.724</ele>
        <time>2021-10-14T17:34:44Z</time>
      </trkpt>
      <trkpt lat="43.424521" lon="-4.779343">
        <ele>-69.726</ele>
        <time>2021-10-14T17:34:46Z</time>
      </trkpt>
      <trkpt lat="43.424550" lon="-4.778861">
        <ele>-69.208</ele>
        <time>2021-10-14T17:34:48Z</time>
      </trkpt>
      <trkpt lat="43.424575" lon="-4.778341">
        <ele>-70.216</ele>
        <time>2021-10-14T17:34:50Z</time>
      </trkpt>
      <trkpt lat="43.424598" lon="-4.777835">
        <ele>-70.524</ele>
        <time>2021-10-14T17:34:52Z</time>
      </trkpt>
      <trkpt lat="43.424621" lon="-4.777316">
        <ele>-69.282</ele>
        <time>2021-10-14T17:34:54Z</time>
      </trkpt>
      <trkpt lat="43.424623" lon="-4.777054">
        <ele>-70.379</ele>
        <time>2021-10-14T17:34:55Z</time>
      </trkpt>
      <trkpt lat="43.424616" lon="-4.776789">
        <ele>-68.922</ele>
        <time>2021-10-14T17:34:56Z</time>
      </trkpt>
      <trkpt lat="43.424593" lon="-4.776320">
        <ele>-67.779</ele>
        <time>2021-10-14T17:34:58Z</time>
      </trkpt>
      <trkpt lat="43.424570" lon="-4.775902">
        <ele>-68.251</ele>
        <time>2021-10-14T17:35:00Z</time>
      </trkpt>
      <trkpt lat="43.424561" lon="-4.775706">
        <ele>-67.710</ele>
        <time>2021-10-14T17:35:01Z</time>
      </trkpt>
      <trkpt lat="43.424553" lon="-4.775522">
        <ele>-67.444</ele>
        <time>2021-10-14T17:35:02Z</time>
      </trkpt>
      <trkpt lat="43.424537" lon="-4.775190">
        <ele>-68.705</ele>
        <time>2021-10-14T17:35:04Z</time>
      </trkpt>
      <trkpt lat="43.424530" lon="-4.775034">
        <ele>-67.515</ele>
        <time>2021-10-14T17:35:05Z</time>
      </trkpt>
      <trkpt lat="43.424518" lon="-4.774745">
        <ele>-67.708</ele>
        <time>2021-10-14T17:35:07Z</time>
      </trkpt>
      <trkpt lat="43.424517" lon="-4.774603">
        <ele>-66.472</ele>
        <time>2021-10-14T17:35:08Z</time>
      </trkpt>
      <trkpt lat="43.424537" lon="-4.774327">
        <ele>-66.390</ele>
        <time>2021-10-14T17:35:10Z</time>
      </trkpt>
      <trkpt lat="43.424560" lon="-4.774068">
        <ele>-69.248</ele>
        <time>2021-10-14T17:35:12Z</time>
      </trkpt>
      <trkpt lat="43.424550" lon="-4.773953">
        <ele>-68.735</ele>
        <time>2021-10-14T17:35:13Z</time>
      </trkpt>
      <trkpt lat="43.424538" lon="-4.773843">
        <ele>-68.868</ele>
        <time>2021-10-14T17:35:14Z</time>
      </trkpt>
      <trkpt lat="43.424561" lon="-4.773640">
        <ele>-66.775</ele>
        <time>2021-10-14T17:35:16Z</time>
      </trkpt>
      <trkpt lat="43.424603" lon="-4.773557">
        <ele>-66.987</ele>
        <time>2021-10-14T17:35:17Z</time>
      </trkpt>
      <trkpt lat="43.424730" lon="-4.773465">
        <ele>-68.426</ele>
        <time>2021-10-14T17:35:19Z</time>
      </trkpt>
      <trkpt lat="43.424800" lon="-4.773449">
        <ele>-68.081</ele>
        <time>2021-10-14T17:35:20Z</time>
      </trkpt>
      <trkpt lat="43.424918" lon="-4.773402">
        <ele>-67.761</ele>
        <time>2021-10-14T17:35:22Z</time>
      </trkpt>
      <trkpt lat="43.424970" lon="-4.773351">
        <ele>-67.917</ele>
        <time>2021-10-14T17:35:23Z</time>
      </trkpt>
      <trkpt lat="43.425010" lon="-4.773276">
        <ele>-67.708</ele>
        <time>2021-10-14T17:35:24Z</time>
      </trkpt>
      <trkpt lat="43.425027" lon="-4.773062">
        <ele>-67.576</ele>
        <time>2021-10-14T17:35:26Z</time>
      </trkpt>
      <trkpt lat="43.424932" lon="-4.772795">
        <ele>-66.274</ele>
        <time>2021-10-14T17:35:28Z</time>
      </trkpt>
      <trkpt lat="43.424726" lon="-4.772575">
        <ele>-65.772</ele>
        <time>2021-10-14T17:35:30Z</time>
      </trkpt>
      <trkpt lat="43.424599" lon="-4.772508">
        <ele>-65.849</ele>
        <time>2021-10-14T17:35:31Z</time>
      </trkpt>
      <trkpt lat="43.424453" lon="-4.772459">
        <ele>-64.212</ele>
        <time>2021-10-14T17:35:32Z</time>
      </trkpt>
      <trkpt lat="43.424112" lon="-4.772357">
        <ele>-63.559</ele>
        <time>2021-10-14T17:35:34Z</time>
      </trkpt>
      <trkpt lat="43.423915" lon="-4.772295">
        <ele>-63.481</ele>
        <time>2021-10-14T17:35:35Z</time>
      </trkpt>
      <trkpt lat="43.423726" lon="-4.772232">
        <ele>-64.980</ele>
        <time>2021-10-14T17:35:36Z</time>
      </trkpt>
      <trkpt lat="43.423551" lon="-4.772175">
        <ele>-65.236</ele>
        <time>2021-10-14T17:35:37Z</time>
      </trkpt>
      <trkpt lat="43.423386" lon="-4.772119">
        <ele>-66.317</ele>
        <time>2021-10-14T17:35:38Z</time>
      </trkpt>
      <trkpt lat="43.423102" lon="-4.772025">
        <ele>-64.818</ele>
        <time>2021-10-14T17:35:40Z</time>
      </trkpt>
      <trkpt lat="43.422849" lon="-4.771937">
        <ele>-65.708</ele>
        <time>2021-10-14T17:35:42Z</time>
      </trkpt>
      <trkpt lat="43.422621" lon="-4.771857">
        <ele>-64.221</ele>
        <time>2021-10-14T17:35:44Z</time>
      </trkpt>
      <trkpt lat="43.422420" lon="-4.771797">
        <ele>-65.899</ele>
        <time>2021-10-14T17:35:46Z</time>
      </trkpt>
      <trkpt lat="43.422325" lon="-4.771770">
        <ele>-64.867</ele>
        <time>2021-10-14T17:35:47Z</time>
      </trkpt>
      <trkpt lat="43.422137" lon="-4.771707">
        <ele>-65.214</ele>
        <time>2021-10-14T17:35:49Z</time>
      </trkpt>
      <trkpt lat="43.422027" lon="-4.771670">
        <ele>-66.797</ele>
        <time>2021-10-14T17:35:50Z</time>
      </trkpt>
      <trkpt lat="43.421775" lon="-4.771610">
        <ele>-67.014</ele>
        <time>2021-10-14T17:35:52Z</time>
      </trkpt>
      <trkpt lat="43.421497" lon="-4.771564">
        <ele>-68.216</ele>
        <time>2021-10-14T17:35:54Z</time>
      </trkpt>
      <trkpt lat="43.421368" lon="-4.771548">
        <ele>-68.375</ele>
        <time>2021-10-14T17:35:55Z</time>
      </trkpt>
      <trkpt lat="43.421244" lon="-4.771534">
        <ele>-69.065</ele>
        <time>2021-10-14T17:35:56Z</time>
      </trkpt>
      <trkpt lat="43.421032" lon="-4.771520">
        <ele>-69.768</ele>
        <time>2021-10-14T17:35:58Z</time>
      </trkpt>
      <trkpt lat="43.420932" lon="-4.771517">
        <ele>-72.214</ele>
        <time>2021-10-14T17:35:59Z</time>
      </trkpt>
      <trkpt lat="43.420835" lon="-4.771514">
        <ele>-71.508</ele>
        <time>2021-10-14T17:36:00Z</time>
      </trkpt>
      <trkpt lat="43.420743" lon="-4.771517">
        <ele>-71.344</ele>
        <time>2021-10-14T17:36:01Z</time>
      </trkpt>
      <trkpt lat="43.420653" lon="-4.771526">
        <ele>-70.742</ele>
        <time>2021-10-14T17:36:02Z</time>
      </trkpt>
      <trkpt lat="43.420522" lon="-4.771551">
        <ele>-71.780</ele>
        <time>2021-10-14T17:36:04Z</time>
      </trkpt>
      <trkpt lat="43.420473" lon="-4.771568">
        <ele>-72.797</ele>
        <time>2021-10-14T17:36:06Z</time>
      </trkpt>
      <trkpt lat="43.420423" lon="-4.771598">
        <ele>-72.860</ele>
        <time>2021-10-14T17:36:14Z</time>
      </trkpt>
      <trkpt lat="43.420276" lon="-4.771724">
        <ele>-72.747</ele>
        <time>2021-10-14T17:36:16Z</time>
      </trkpt>
      <trkpt lat="43.420184" lon="-4.771783">
        <ele>-72.789</ele>
        <time>2021-10-14T17:36:17Z</time>
      </trkpt>
      <trkpt lat="43.420092" lon="-4.771804">
        <ele>-71.838</ele>
        <time>2021-10-14T17:36:18Z</time>
      </trkpt>
      <trkpt lat="43.419933" lon="-4.771729">
        <ele>-72.294</ele>
        <time>2021-10-14T17:36:20Z</time>
      </trkpt>
      <trkpt lat="43.419860" lon="-4.771538">
        <ele>-71.057</ele>
        <time>2021-10-14T17:36:22Z</time>
      </trkpt>
      <trkpt lat="43.419854" lon="-4.771426">
        <ele>-71.422</ele>
        <time>2021-10-14T17:36:23Z</time>
      </trkpt>
      <trkpt lat="43.419857" lon="-4.771302">
        <ele>-70.508</ele>
        <time>2021-10-14T17:36:24Z</time>
      </trkpt>
      <trkpt lat="43.419848" lon="-4.771152">
        <ele>-70.767</ele>
        <time>2021-10-14T17:36:25Z</time>
      </trkpt>
      <trkpt lat="43.419819" lon="-4.770995">
        <ele>-70.745</ele>
        <time>2021-10-14T17:36:26Z</time>
      </trkpt>
      <trkpt lat="43.419699" lon="-4.770714">
        <ele>-70.283</ele>
        <time>2021-10-14T17:36:28Z</time>
      </trkpt>
      <trkpt lat="43.419615" lon="-4.770554">
        <ele>-69.420</ele>
        <time>2021-10-14T17:36:29Z</time>
      </trkpt>
      <trkpt lat="43.419433" lon="-4.770215">
        <ele>-68.253</ele>
        <time>2021-10-14T17:36:31Z</time>
      </trkpt>
      <trkpt lat="43.419340" lon="-4.770036">
        <ele>-67.840</ele>
        <time>2021-10-14T17:36:32Z</time>
      </trkpt>
      <trkpt lat="43.419157" lon="-4.769690">
        <ele>-66.792</ele>
        <time>2021-10-14T17:36:34Z</time>
      </trkpt>
      <trkpt lat="43.419061" lon="-4.769513">
        <ele>-65.781</ele>
        <time>2021-10-14T17:36:35Z</time>
      </trkpt>
      <trkpt lat="43.418877" lon="-4.769158">
        <ele>-63.428</ele>
        <time>2021-10-14T17:36:37Z</time>
      </trkpt>
      <trkpt lat="43.418780" lon="-4.768965">
        <ele>-63.589</ele>
        <time>2021-10-14T17:36:38Z</time>
      </trkpt>
      <trkpt lat="43.418558" lon="-4.768532">
        <ele>-63.317</ele>
        <time>2021-10-14T17:36:40Z</time>
      </trkpt>
      <trkpt lat="43.418308" lon="-4.768050">
        <ele>-61.308</ele>
        <time>2021-10-14T17:36:42Z</time>
      </trkpt>
      <trkpt lat="43.418048" lon="-4.767545">
        <ele>-61.150</ele>
        <time>2021-10-14T17:36:44Z</time>
      </trkpt>
      <trkpt lat="43.417820" lon="-4.767072">
        <ele>-61.768</ele>
        <time>2021-10-14T17:36:46Z</time>
      </trkpt>
      <trkpt lat="43.417725" lon="-4.766842">
        <ele>-61.666</ele>
        <time>2021-10-14T17:36:47Z</time>
      </trkpt>
      <trkpt lat="43.417581" lon="-4.766378">
        <ele>-62.683</ele>
        <time>2021-10-14T17:36:49Z</time>
      </trkpt>
      <trkpt lat="43.417528" lon="-4.766144">
        <ele>-64.016</ele>
        <time>2021-10-14T17:36:50Z</time>
      </trkpt>
      <trkpt lat="43.417458" lon="-4.765694">
        <ele>-65.343</ele>
        <time>2021-10-14T17:36:52Z</time>
      </trkpt>
      <trkpt lat="43.417420" lon="-4.765210">
        <ele>-66.995</ele>
        <time>2021-10-14T17:36:54Z</time>
      </trkpt>
      <trkpt lat="43.417390" lon="-4.764687">
        <ele>-67.934</ele>
        <time>2021-10-14T17:36:56Z</time>
      </trkpt>
      <trkpt lat="43.417363" lon="-4.764156">
        <ele>-71.327</ele>
        <time>2021-10-14T17:36:58Z</time>
      </trkpt>
      <trkpt lat="43.417349" lon="-4.763881">
        <ele>-71.868</ele>
        <time>2021-10-14T17:36:59Z</time>
      </trkpt>
      <trkpt lat="43.417314" lon="-4.763354">
        <ele>-72.714</ele>
        <time>2021-10-14T17:37:01Z</time>
      </trkpt>
      <trkpt lat="43.417291" lon="-4.763097">
        <ele>-75.508</ele>
        <time>2021-10-14T17:37:02Z</time>
      </trkpt>
      <trkpt lat="43.417230" lon="-4.762638">
        <ele>-74.780</ele>
        <time>2021-10-14T17:37:04Z</time>
      </trkpt>
      <trkpt lat="43.417182" lon="-4.762414">
        <ele>-73.858</ele>
        <time>2021-10-14T17:37:05Z</time>
      </trkpt>
      <trkpt lat="43.417047" lon="-4.761978">
        <ele>-73.246</ele>
        <time>2021-10-14T17:37:07Z</time>
      </trkpt>
      <trkpt lat="43.416957" lon="-4.761756">
        <ele>-71.793</ele>
        <time>2021-10-14T17:37:08Z</time>
      </trkpt>
      <trkpt lat="43.416768" lon="-4.761335">
        <ele>-71.216</ele>
        <time>2021-10-14T17:37:10Z</time>
      </trkpt>
      <trkpt lat="43.416591" lon="-4.760946">
        <ele>-68.353</ele>
        <time>2021-10-14T17:37:12Z</time>
      </trkpt>
      <trkpt lat="43.416436" lon="-4.760606">
        <ele>-68.725</ele>
        <time>2021-10-14T17:37:14Z</time>
      </trkpt>
      <trkpt lat="43.416302" lon="-4.760320">
        <ele>-67.384</ele>
        <time>2021-10-14T17:37:16Z</time>
      </trkpt>
      <trkpt lat="43.416171" lon="-4.760034">
        <ele>-67.218</ele>
        <time>2021-10-14T17:37:18Z</time>
      </trkpt>
      <trkpt lat="43.416034" lon="-4.759731">
        <ele>-67.598</ele>
        <time>2021-10-14T17:37:20Z</time>
      </trkpt>
      <trkpt lat="43.415899" lon="-4.759434">
        <ele>-68.417</ele>
        <time>2021-10-14T17:37:22Z</time>
      </trkpt>
      <trkpt lat="43.415832" lon="-4.759287">
        <ele>-69.408</ele>
        <time>2021-10-14T17:37:23Z</time>
      </trkpt>
      <trkpt lat="43.415768" lon="-4.759142">
        <ele>-69.719</ele>
        <time>2021-10-14T17:37:24Z</time>
      </trkpt>
      <trkpt lat="43.415631" lon="-4.758844">
        <ele>-70.447</ele>
        <time>2021-10-14T17:37:26Z</time>
      </trkpt>
      <trkpt lat="43.415513" lon="-4.758579">
        <ele>-72.255</ele>
        <time>2021-10-14T17:37:28Z</time>
      </trkpt>
      <trkpt lat="43.415471" lon="-4.758470">
        <ele>-72.092</ele>
        <time>2021-10-14T17:37:29Z</time>
      </trkpt>
      <trkpt lat="43.415435" lon="-4.758372">
        <ele>-73.945</ele>
        <time>2021-10-14T17:37:30Z</time>
      </trkpt>
      <trkpt lat="43.415403" lon="-4.758283">
        <ele>-73.512</ele>
        <time>2021-10-14T17:37:31Z</time>
      </trkpt>
      <trkpt lat="43.415371" lon="-4.758204">
        <ele>-73.784</ele>
        <time>2021-10-14T17:37:32Z</time>
      </trkpt>
      <trkpt lat="43.415285" lon="-4.758062">
        <ele>-74.793</ele>
        <time>2021-10-14T17:37:34Z</time>
      </trkpt>
      <trkpt lat="43.415203" lon="-4.757893">
        <ele>-76.272</ele>
        <time>2021-10-14T17:37:36Z</time>
      </trkpt>
      <trkpt lat="43.415177" lon="-4.757796">
        <ele>-75.213</ele>
        <time>2021-10-14T17:37:37Z</time>
      </trkpt>
      <trkpt lat="43.415146" lon="-4.757688">
        <ele>-76.914</ele>
        <time>2021-10-14T17:37:38Z</time>
      </trkpt>
      <trkpt lat="43.415039" lon="-4.757480">
        <ele>-77.508</ele>
        <time>2021-10-14T17:37:40Z</time>
      </trkpt>
      <trkpt lat="43.414971" lon="-4.757368">
        <ele>-76.785</ele>
        <time>2021-10-14T17:37:41Z</time>
      </trkpt>
      <trkpt lat="43.414837" lon="-4.757117">
        <ele>-77.793</ele>
        <time>2021-10-14T17:37:43Z</time>
      </trkpt>
      <trkpt lat="43.414772" lon="-4.756981">
        <ele>-77.481</ele>
        <time>2021-10-14T17:37:44Z</time>
      </trkpt>
      <trkpt lat="43.414648" lon="-4.756717">
        <ele>-78.228</ele>
        <time>2021-10-14T17:37:46Z</time>
      </trkpt>
      <trkpt lat="43.414594" lon="-4.756593">
        <ele>-77.281</ele>
        <time>2021-10-14T17:37:47Z</time>
      </trkpt>
      <trkpt lat="43.414547" lon="-4.756475">
        <ele>-77.538</ele>
        <time>2021-10-14T17:37:48Z</time>
      </trkpt>
      <trkpt lat="43.414467" lon="-4.756250">
        <ele>-76.920</ele>
        <time>2021-10-14T17:37:50Z</time>
      </trkpt>
      <trkpt lat="43.414394" lon="-4.756020">
        <ele>-76.769</ele>
        <time>2021-10-14T17:37:52Z</time>
      </trkpt>
      <trkpt lat="43.414356" lon="-4.755889">
        <ele>-77.496</ele>
        <time>2021-10-14T17:37:53Z</time>
      </trkpt>
      <trkpt lat="43.414275" lon="-4.755588">
        <ele>-76.931</ele>
        <time>2021-10-14T17:37:55Z</time>
      </trkpt>
      <trkpt lat="43.414230" lon="-4.755412">
        <ele>-75.924</ele>
        <time>2021-10-14T17:37:56Z</time>
      </trkpt>
      <trkpt lat="43.414141" lon="-4.755041">
        <ele>-76.208</ele>
        <time>2021-10-14T17:37:58Z</time>
      </trkpt>
      <trkpt lat="43.414095" lon="-4.754845">
        <ele>-76.257</ele>
        <time>2021-10-14T17:37:59Z</time>
      </trkpt>
      <trkpt lat="43.414013" lon="-4.754484">
        <ele>-75.375</ele>
        <time>2021-10-14T17:38:01Z</time>
      </trkpt>
      <trkpt lat="43.413973" lon="-4.754319">
        <ele>-75.343</ele>
        <time>2021-10-14T17:38:02Z</time>
      </trkpt>
      <trkpt lat="43.413871" lon="-4.754031">
        <ele>-74.740</ele>
        <time>2021-10-14T17:38:04Z</time>
      </trkpt>
      <trkpt lat="43.413739" lon="-4.753787">
        <ele>-73.093</ele>
        <time>2021-10-14T17:38:06Z</time>
      </trkpt>
      <trkpt lat="43.413681" lon="-4.753680">
        <ele>-75.530</ele>
        <time>2021-10-14T17:38:07Z</time>
      </trkpt>
      <trkpt lat="43.413632" lon="-4.753579">
        <ele>-74.312</ele>
        <time>2021-10-14T17:38:08Z</time>
      </trkpt>
      <trkpt lat="43.413569" lon="-4.753403">
        <ele>-74.231</ele>
        <time>2021-10-14T17:38:10Z</time>
      </trkpt>
      <trkpt lat="43.413523" lon="-4.753245">
        <ele>-72.729</ele>
        <time>2021-10-14T17:38:12Z</time>
      </trkpt>
      <trkpt lat="43.413499" lon="-4.753165">
        <ele>-73.200</ele>
        <time>2021-10-14T17:38:13Z</time>
      </trkpt>
      <trkpt lat="43.413470" lon="-4.753084">
        <ele>-73.920</ele>
        <time>2021-10-14T17:38:14Z</time>
      </trkpt>
      <trkpt lat="43.413389" lon="-4.752941">
        <ele>-73.808</ele>
        <time>2021-10-14T17:38:16Z</time>
      </trkpt>
      <trkpt lat="43.413314" lon="-4.752797">
        <ele>-73.460</ele>
        <time>2021-10-14T17:38:18Z</time>
      </trkpt>
      <trkpt lat="43.413297" lon="-4.752727">
        <ele>-72.378</ele>
        <time>2021-10-14T17:38:19Z</time>
      </trkpt>
      <trkpt lat="43.413299" lon="-4.752657">
        <ele>-73.716</ele>
        <time>2021-10-14T17:38:20Z</time>
      </trkpt>
      <trkpt lat="43.413359" lon="-4.752528">
        <ele>-72.493</ele>
        <time>2021-10-14T17:38:22Z</time>
      </trkpt>
      <trkpt lat="43.413487" lon="-4.752481">
        <ele>-73.486</ele>
        <time>2021-10-14T17:38:24Z</time>
      </trkpt>
      <trkpt lat="43.413566" lon="-4.752497">
        <ele>-72.223</ele>
        <time>2021-10-14T17:38:25Z</time>
      </trkpt>
      <trkpt lat="43.413655" lon="-4.752522">
        <ele>-73.735</ele>
        <time>2021-10-14T17:38:26Z</time>
      </trkpt>
      <trkpt lat="43.413844" lon="-4.752567">
        <ele>-75.744</ele>
        <time>2021-10-14T17:38:28Z</time>
      </trkpt>
      <trkpt lat="43.414045" lon="-4.752625">
        <ele>-75.454</ele>
        <time>2021-10-14T17:38:30Z</time>
      </trkpt>
      <trkpt lat="43.414140" lon="-4.752649">
        <ele>-75.256</ele>
        <time>2021-10-14T17:38:31Z</time>
      </trkpt>
      <trkpt lat="43.414231" lon="-4.752678">
        <ele>-75.711</ele>
        <time>2021-10-14T17:38:32Z</time>
      </trkpt>
      <trkpt lat="43.414390" lon="-4.752733">
        <ele>-74.208</ele>
        <time>2021-10-14T17:38:34Z</time>
      </trkpt>
      <trkpt lat="43.414467" lon="-4.752759">
        <ele>-72.363</ele>
        <time>2021-10-14T17:38:35Z</time>
      </trkpt>
      <trkpt lat="43.414545" lon="-4.752784">
        <ele>-72.971</ele>
        <time>2021-10-14T17:38:36Z</time>
      </trkpt>
      <trkpt lat="43.414621" lon="-4.752813">
        <ele>-71.749</ele>
        <time>2021-10-14T17:38:37Z</time>
      </trkpt>
      <trkpt lat="43.414692" lon="-4.752841">
        <ele>-71.836</ele>
        <time>2021-10-14T17:38:38Z</time>
      </trkpt>
      <trkpt lat="43.414798" lon="-4.752884">
        <ele>-68.839</ele>
        <time>2021-10-14T17:38:40Z</time>
      </trkpt>
      <trkpt lat="43.414845" lon="-4.752903">
        <ele>-69.776</ele>
        <time>2021-10-14T17:38:41Z</time>
      </trkpt>
      <trkpt lat="43.414932" lon="-4.752934">
        <ele>-68.748</ele>
        <time>2021-10-14T17:38:43Z</time>
      </trkpt>
      <trkpt lat="43.414978" lon="-4.752950">
        <ele>-67.847</ele>
        <time>2021-10-14T17:38:44Z</time>
      </trkpt>
      <trkpt lat="43.415067" lon="-4.752966">
        <ele>-67.717</ele>
        <time>2021-10-14T17:38:46Z</time>
      </trkpt>
      <trkpt lat="43.415187" lon="-4.753016">
        <ele>-68.987</ele>
        <time>2021-10-14T17:38:48Z</time>
      </trkpt>
      <trkpt lat="43.415316" lon="-4.753069">
        <ele>-68.215</ele>
        <time>2021-10-14T17:38:50Z</time>
      </trkpt>
      <trkpt lat="43.415428" lon="-4.753118">
        <ele>-69.708</ele>
        <time>2021-10-14T17:38:52Z</time>
      </trkpt>
      <trkpt lat="43.415485" lon="-4.753142">
        <ele>-68.419</ele>
        <time>2021-10-14T17:38:53Z</time>
      </trkpt>
      <trkpt lat="43.415617" lon="-4.753198">
        <ele>-69.787</ele>
        <time>2021-10-14T17:38:55Z</time>
      </trkpt>
      <trkpt lat="43.415691" lon="-4.753225">
        <ele>-69.335</ele>
        <time>2021-10-14T17:38:56Z</time>
      </trkpt>
      <trkpt lat="43.415827" lon="-4.753280">
        <ele>-70.482</ele>
        <time>2021-10-14T17:38:58Z</time>
      </trkpt>
      <trkpt lat="43.415893" lon="-4.753302">
        <ele>-70.595</ele>
        <time>2021-10-14T17:38:59Z</time>
      </trkpt>
      <trkpt lat="43.416039" lon="-4.753357">
        <ele>-72.242</ele>
        <time>2021-10-14T17:39:01Z</time>
      </trkpt>
      <trkpt lat="43.416114" lon="-4.753384">
        <ele>-72.724</ele>
        <time>2021-10-14T17:39:02Z</time>
      </trkpt>
      <trkpt lat="43.416243" lon="-4.753438">
        <ele>-73.273</ele>
        <time>2021-10-14T17:39:04Z</time>
      </trkpt>
      <trkpt lat="43.416370" lon="-4.753477">
        <ele>-74.234</ele>
        <time>2021-10-14T17:39:06Z</time>
      </trkpt>
      <trkpt lat="43.416432" lon="-4.753498">
        <ele>-74.755</ele>
        <time>2021-10-14T17:39:07Z</time>
      </trkpt>
      <trkpt lat="43.416494" lon="-4.753520">
        <ele>-75.710</ele>
        <time>2021-10-14T17:39:08Z</time>
      </trkpt>
      <trkpt lat="43.416601" lon="-4.753557">
        <ele>-76.908</ele>
        <time>2021-10-14T17:39:10Z</time>
      </trkpt>
      <trkpt lat="43.416712" lon="-4.753590">
        <ele>-76.791</ele>
        <time>2021-10-14T17:39:12Z</time>
      </trkpt>
      <trkpt lat="43.416778" lon="-4.753605">
        <ele>-76.219</ele>
        <time>2021-10-14T17:39:13Z</time>
      </trkpt>
      <trkpt lat="43.416849" lon="-4.753616">
        <ele>-74.557</ele>
        <time>2021-10-14T17:39:14Z</time>
      </trkpt>
      <trkpt lat="43.416993" lon="-4.753631">
        <ele>-76.464</ele>
        <time>2021-10-14T17:39:16Z</time>
      </trkpt>
      <trkpt lat="43.417066" lon="-4.753639">
        <ele>-75.967</ele>
        <time>2021-10-14T17:39:17Z</time>
      </trkpt>
      <trkpt lat="43.417196" lon="-4.753645">
        <ele>-75.594</ele>
        <time>2021-10-14T17:39:19Z</time>
      </trkpt>
      <trkpt lat="43.417256" lon="-4.753640">
        <ele>-75.446</ele>
        <time>2021-10-14T17:39:20Z</time>
      </trkpt>
      <trkpt lat="43.417368" lon="-4.753638">
        <ele>-75.475</ele>
        <time>2021-10-14T17:39:22Z</time>
      </trkpt>
      <trkpt lat="43.417427" lon="-4.753635">
        <ele>-74.087</ele>
        <time>2021-10-14T17:39:23Z</time>
      </trkpt>
      <trkpt lat="43.417490" lon="-4.753630">
        <ele>-73.442</ele>
        <time>2021-10-14T17:39:24Z</time>
      </trkpt>
      <trkpt lat="43.417555" lon="-4.753627">
        <ele>-72.826</ele>
        <time>2021-10-14T17:39:25Z</time>
      </trkpt>
      <trkpt lat="43.417617" lon="-4.753625">
        <ele>-72.208</ele>
        <time>2021-10-14T17:39:26Z</time>
      </trkpt>
      <trkpt lat="43.417717" lon="-4.753623">
        <ele>-70.756</ele>
        <time>2021-10-14T17:39:28Z</time>
      </trkpt>
      <trkpt lat="43.417799" lon="-4.753627">
        <ele>-71.254</ele>
        <time>2021-10-14T17:39:30Z</time>
      </trkpt>
      <trkpt lat="43.417908" lon="-4.753623">
        <ele>-70.262</ele>
        <time>2021-10-14T17:39:32Z</time>
      </trkpt>
      <trkpt lat="43.418027" lon="-4.753620">
        <ele>-69.019</ele>
        <time>2021-10-14T17:39:34Z</time>
      </trkpt>
      <trkpt lat="43.418154" lon="-4.753626">
        <ele>-70.222</ele>
        <time>2021-10-14T17:39:36Z</time>
      </trkpt>
      <trkpt lat="43.418215" lon="-4.753625">
        <ele>-70.569</ele>
        <time>2021-10-14T17:39:37Z</time>
      </trkpt>
      <trkpt lat="43.418273" lon="-4.753625">
        <ele>-70.531</ele>
        <time>2021-10-14T17:39:38Z</time>
      </trkpt>
      <trkpt lat="43.418369" lon="-4.753631">
        <ele>-69.750</ele>
        <time>2021-10-14T17:39:40Z</time>
      </trkpt>
      <trkpt lat="43.418437" lon="-4.753628">
        <ele>-70.276</ele>
        <time>2021-10-14T17:39:42Z</time>
      </trkpt>
      <trkpt lat="43.418510" lon="-4.753624">
        <ele>-70.290</ele>
        <time>2021-10-14T17:39:44Z</time>
      </trkpt>
      <trkpt lat="43.418609" lon="-4.753622">
        <ele>-72.019</ele>
        <time>2021-10-14T17:39:46Z</time>
      </trkpt>
      <trkpt lat="43.418734" lon="-4.753649">
        <ele>-74.308</ele>
        <time>2021-10-14T17:39:48Z</time>
      </trkpt>
      <trkpt lat="43.418859" lon="-4.753705">
        <ele>-75.715</ele>
        <time>2021-10-14T17:39:50Z</time>
      </trkpt>
      <trkpt lat="43.418970" lon="-4.753773">
        <ele>-76.743</ele>
        <time>2021-10-14T17:39:52Z</time>
      </trkpt>
      <trkpt lat="43.419077" lon="-4.753851">
        <ele>-75.581</ele>
        <time>2021-10-14T17:39:54Z</time>
      </trkpt>
      <trkpt lat="43.419133" lon="-4.753898">
        <ele>-76.348</ele>
        <time>2021-10-14T17:39:55Z</time>
      </trkpt>
      <trkpt lat="43.419191" lon="-4.753949">
        <ele>-77.211</ele>
        <time>2021-10-14T17:39:56Z</time>
      </trkpt>
      <trkpt lat="43.419298" lon="-4.754052">
        <ele>-77.298</ele>
        <time>2021-10-14T17:39:58Z</time>
      </trkpt>
      <trkpt lat="43.419352" lon="-4.754102">
        <ele>-76.780</ele>
        <time>2021-10-14T17:39:59Z</time>
      </trkpt>
      <trkpt lat="43.419399" lon="-4.754152">
        <ele>-76.519</ele>
        <time>2021-10-14T17:40:00Z</time>
      </trkpt>
      <trkpt lat="43.419443" lon="-4.754199">
        <ele>-77.964</ele>
        <time>2021-10-14T17:40:01Z</time>
      </trkpt>
      <trkpt lat="43.419485" lon="-4.754240">
        <ele>-76.706</ele>
        <time>2021-10-14T17:40:02Z</time>
      </trkpt>
      <trkpt lat="43.419550" lon="-4.754289">
        <ele>-76.916</ele>
        <time>2021-10-14T17:40:04Z</time>
      </trkpt>
      <trkpt lat="43.419610" lon="-4.754328">
        <ele>-75.508</ele>
        <time>2021-10-14T17:40:06Z</time>
      </trkpt>
      <trkpt lat="43.419659" lon="-4.754360">
        <ele>-74.574</ele>
        <time>2021-10-14T17:40:09Z</time>
      </trkpt>
      <trkpt lat="43.419712" lon="-4.754358">
        <ele>-56.642</ele>
        <time>2021-10-14T17:40:11Z</time>
      </trkpt>
      <trkpt lat="43.419750" lon="-4.754313">
        <ele>-40.070</ele>
        <time>2021-10-14T17:40:12Z</time>
      </trkpt>
      <trkpt lat="43.419827" lon="-4.754152">
        <ele>-22.837</ele>
        <time>2021-10-14T17:40:14Z</time>
      </trkpt>
      <trkpt lat="43.419919" lon="-4.753960">
        <ele>-22.810</ele>
        <time>2021-10-14T17:40:16Z</time>
      </trkpt>
      <trkpt lat="43.419977" lon="-4.753850">
        <ele>-22.897</ele>
        <time>2021-10-14T17:40:17Z</time>
      </trkpt>
      <trkpt lat="43.420037" lon="-4.753741">
        <ele>-22.829</ele>
        <time>2021-10-14T17:40:18Z</time>
      </trkpt>
      <trkpt lat="43.420155" lon="-4.753564">
        <ele>-22.848</ele>
        <time>2021-10-14T17:40:20Z</time>
      </trkpt>
      <trkpt lat="43.420280" lon="-4.753502">
        <ele>-22.891</ele>
        <time>2021-10-14T17:40:22Z</time>
      </trkpt>
      <trkpt lat="43.420353" lon="-4.753504">
        <ele>-22.881</ele>
        <time>2021-10-14T17:40:23Z</time>
      </trkpt>
      <trkpt lat="43.420504" lon="-4.753476">
        <ele>-22.619</ele>
        <time>2021-10-14T17:40:25Z</time>
      </trkpt>
      <trkpt lat="43.420572" lon="-4.753422">
        <ele>-22.608</ele>
        <time>2021-10-14T17:40:26Z</time>
      </trkpt>
      <trkpt lat="43.420670" lon="-4.753247">
        <ele>-22.657</ele>
        <time>2021-10-14T17:40:28Z</time>
      </trkpt>
      <trkpt lat="43.420688" lon="-4.753137">
        <ele>-22.585</ele>
        <time>2021-10-14T17:40:29Z</time>
      </trkpt>
      <trkpt lat="43.420663" lon="-4.752912">
        <ele>-22.623</ele>
        <time>2021-10-14T17:40:31Z</time>
      </trkpt>
      <trkpt lat="43.420617" lon="-4.752816">
        <ele>-22.630</ele>
        <time>2021-10-14T17:40:32Z</time>
      </trkpt>
      <trkpt lat="43.420497" lon="-4.752675">
        <ele>-22.683</ele>
        <time>2021-10-14T17:40:34Z</time>
      </trkpt>
      <trkpt lat="43.420415" lon="-4.752495">
        <ele>-22.580</ele>
        <time>2021-10-14T17:40:36Z</time>
      </trkpt>
      <trkpt lat="43.420378" lon="-4.752335">
        <ele>-22.562</ele>
        <time>2021-10-14T17:40:38Z</time>
      </trkpt>
      <trkpt lat="43.420395" lon="-4.752244">
        <ele>-22.531</ele>
        <time>2021-10-14T17:40:40Z</time>
      </trkpt>
      <trkpt lat="43.420493" lon="-4.752128">
        <ele>-22.542</ele>
        <time>2021-10-14T17:40:42Z</time>
      </trkpt>
      <trkpt lat="43.420642" lon="-4.751985">
        <ele>-22.522</ele>
        <time>2021-10-14T17:40:44Z</time>
      </trkpt>
      <trkpt lat="43.420786" lon="-4.751809">
        <ele>-22.514</ele>
        <time>2021-10-14T17:40:46Z</time>
      </trkpt>
      <trkpt lat="43.420905" lon="-4.751624">
        <ele>-22.508</ele>
        <time>2021-10-14T17:40:48Z</time>
      </trkpt>
      <trkpt lat="43.420995" lon="-4.751458">
        <ele>-22.552</ele>
        <time>2021-10-14T17:40:50Z</time>
      </trkpt>
      <trkpt lat="43.421057" lon="-4.751300">
        <ele>-22.550</ele>
        <time>2021-10-14T17:40:52Z</time>
      </trkpt>
      <trkpt lat="43.421085" lon="-4.751211">
        <ele>-22.528</ele>
        <time>2021-10-14T17:40:53Z</time>
      </trkpt>
      <trkpt lat="43.421129" lon="-4.751025">
        <ele>-22.595</ele>
        <time>2021-10-14T17:40:55Z</time>
      </trkpt>
      <trkpt lat="43.421142" lon="-4.750931">
        <ele>-22.528</ele>
        <time>2021-10-14T17:40:56Z</time>
      </trkpt>
      <trkpt lat="43.421154" lon="-4.750757">
        <ele>-22.575</ele>
        <time>2021-10-14T17:40:58Z</time>
      </trkpt>
      <trkpt lat="43.421159" lon="-4.750676">
        <ele>-22.567</ele>
        <time>2021-10-14T17:40:59Z</time>
      </trkpt>
      <trkpt lat="43.421174" lon="-4.750605">
        <ele>-22.556</ele>
        <time>2021-10-14T17:41:00Z</time>
      </trkpt>
      <trkpt lat="43.421198" lon="-4.750550">
        <ele>-22.528</ele>
        <time>2021-10-14T17:41:01Z</time>
      </trkpt>
      <trkpt lat="43.421234" lon="-4.750505">
        <ele>-22.589</ele>
        <time>2021-10-14T17:41:02Z</time>
      </trkpt>
      <trkpt lat="43.421305" lon="-4.750414">
        <ele>-22.317</ele>
        <time>2021-10-14T17:41:04Z</time>
      </trkpt>
      <trkpt lat="43.421367" lon="-4.750282">
        <ele>-22.308</ele>
        <time>2021-10-14T17:41:06Z</time>
      </trkpt>
      <trkpt lat="43.421391" lon="-4.750202">
        <ele>-22.320</ele>
        <time>2021-10-14T17:41:07Z</time>
      </trkpt>
      <trkpt lat="43.421408" lon="-4.750112">
        <ele>-22.358</ele>
        <time>2021-10-14T17:41:08Z</time>
      </trkpt>
      <trkpt lat="43.421412" lon="-4.749926">
        <ele>-67.436</ele>
        <time>2021-10-14T17:41:10Z</time>
      </trkpt>
      <trkpt lat="43.421403" lon="-4.749749">
        <ele>-82.263</ele>
        <time>2021-10-14T17:41:12Z</time>
      </trkpt>
      <trkpt lat="43.421399" lon="-4.749597">
        <ele>-81.986</ele>
        <time>2021-10-14T17:41:14Z</time>
      </trkpt>
      <trkpt lat="43.421404" lon="-4.749469">
        <ele>-83.523</ele>
        <time>2021-10-14T17:41:16Z</time>
      </trkpt>
      <trkpt lat="43.421414" lon="-4.749377">
        <ele>-83.065</ele>
        <time>2021-10-14T17:41:18Z</time>
      </trkpt>
      <trkpt lat="43.421434" lon="-4.749249">
        <ele>-84.424</ele>
        <time>2021-10-14T17:41:20Z</time>
      </trkpt>
      <trkpt lat="43.421446" lon="-4.749109">
        <ele>-85.053</ele>
        <time>2021-10-14T17:41:22Z</time>
      </trkpt>
      <trkpt lat="43.421452" lon="-4.748980">
        <ele>-83.904</ele>
        <time>2021-10-14T17:41:24Z</time>
      </trkpt>
      <trkpt lat="43.421455" lon="-4.748871">
        <ele>-84.414</ele>
        <time>2021-10-14T17:41:26Z</time>
      </trkpt>
      <trkpt lat="43.421454" lon="-4.748757">
        <ele>-84.408</ele>
        <time>2021-10-14T17:41:28Z</time>
      </trkpt>
      <trkpt lat="43.421454" lon="-4.748663">
        <ele>-82.033</ele>
        <time>2021-10-14T17:41:30Z</time>
      </trkpt>
      <trkpt lat="43.421454" lon="-4.748553">
        <ele>-83.461</ele>
        <time>2021-10-14T17:41:32Z</time>
      </trkpt>
      <trkpt lat="43.421459" lon="-4.748448">
        <ele>-83.519</ele>
        <time>2021-10-14T17:41:34Z</time>
      </trkpt>
      <trkpt lat="43.421464" lon="-4.748351">
        <ele>-84.246</ele>
        <time>2021-10-14T17:41:36Z</time>
      </trkpt>
      <trkpt lat="43.421478" lon="-4.748200">
        <ele>-82.249</ele>
        <time>2021-10-14T17:41:38Z</time>
      </trkpt>
      <trkpt lat="43.421499" lon="-4.748052">
        <ele>-82.436</ele>
        <time>2021-10-14T17:41:40Z</time>
      </trkpt>
      <trkpt lat="43.421507" lon="-4.747977">
        <ele>-82.718</ele>
        <time>2021-10-14T17:41:41Z</time>
      </trkpt>
      <trkpt lat="43.421516" lon="-4.747905">
        <ele>-82.277</ele>
        <time>2021-10-14T17:41:42Z</time>
      </trkpt>
      <trkpt lat="43.421527" lon="-4.747767">
        <ele>-83.493</ele>
        <time>2021-10-14T17:41:44Z</time>
      </trkpt>
      <trkpt lat="43.421526" lon="-4.747667">
        <ele>-83.265</ele>
        <time>2021-10-14T17:41:46Z</time>
      </trkpt>
      <trkpt lat="43.421534" lon="-4.747554">
        <ele>-82.721</ele>
        <time>2021-10-14T17:41:48Z</time>
      </trkpt>
      <trkpt lat="43.421542" lon="-4.747467">
        <ele>-82.908</ele>
        <time>2021-10-14T17:41:50Z</time>
      </trkpt>
      <trkpt lat="43.421547" lon="-4.747364">
        <ele>-83.077</ele>
        <time>2021-10-14T17:41:52Z</time>
      </trkpt>
      <trkpt lat="43.421537" lon="-4.747266">
        <ele>-81.575</ele>
        <time>2021-10-14T17:41:54Z</time>
      </trkpt>
      <trkpt lat="43.421532" lon="-4.747176">
        <ele>-80.013</ele>
        <time>2021-10-14T17:41:56Z</time>
      </trkpt>
      <trkpt lat="43.421533" lon="-4.747110">
        <ele>-81.270</ele>
        <time>2021-10-14T17:41:58Z</time>
      </trkpt>
      <trkpt lat="43.421559" lon="-4.747038">
        <ele>-80.423</ele>
        <time>2021-10-14T17:46:53Z</time>
      </trkpt>
      <trkpt lat="43.421589" lon="-4.747099">
        <ele>-79.960</ele>
        <time>2021-10-14T17:59:00Z</time>
      </trkpt>
      <trkpt lat="43.421592" lon="-4.747175">
        <ele>-79.912</ele>
        <time>2021-10-14T17:59:02Z</time>
      </trkpt>
      <trkpt lat="43.421570" lon="-4.747253">
        <ele>-79.981</ele>
        <time>2021-10-14T17:59:04Z</time>
      </trkpt>
      <trkpt lat="43.421561" lon="-4.747337">
        <ele>-79.911</ele>
        <time>2021-10-14T17:59:05Z</time>
      </trkpt>
      <trkpt lat="43.421556" lon="-4.747423">
        <ele>-79.921</ele>
        <time>2021-10-14T17:59:06Z</time>
      </trkpt>
      <trkpt lat="43.421546" lon="-4.747588">
        <ele>-79.903</ele>
        <time>2021-10-14T17:59:08Z</time>
      </trkpt>
      <trkpt lat="43.421534" lon="-4.747740">
        <ele>-79.908</ele>
        <time>2021-10-14T17:59:10Z</time>
      </trkpt>
      <trkpt lat="43.421529" lon="-4.747809">
        <ele>-79.999</ele>
        <time>2021-10-14T17:59:11Z</time>
      </trkpt>
      <trkpt lat="43.421516" lon="-4.747954">
        <ele>-79.767</ele>
        <time>2021-10-14T17:59:13Z</time>
      </trkpt>
      <trkpt lat="43.421509" lon="-4.748032">
        <ele>-79.715</ele>
        <time>2021-10-14T17:59:14Z</time>
      </trkpt>
      <trkpt lat="43.421500" lon="-4.748170">
        <ele>-79.782</ele>
        <time>2021-10-14T17:59:16Z</time>
      </trkpt>
      <trkpt lat="43.421487" lon="-4.748267">
        <ele>-79.785</ele>
        <time>2021-10-14T17:59:18Z</time>
      </trkpt>
      <trkpt lat="43.421478" lon="-4.748384">
        <ele>-79.752</ele>
        <time>2021-10-14T17:59:20Z</time>
      </trkpt>
      <trkpt lat="43.421467" lon="-4.748536">
        <ele>-79.754</ele>
        <time>2021-10-14T17:59:22Z</time>
      </trkpt>
      <trkpt lat="43.421462" lon="-4.748623">
        <ele>-79.783</ele>
        <time>2021-10-14T17:59:23Z</time>
      </trkpt>
      <trkpt lat="43.421457" lon="-4.748712">
        <ele>-79.767</ele>
        <time>2021-10-14T17:59:24Z</time>
      </trkpt>
      <trkpt lat="43.421459" lon="-4.748904">
        <ele>-79.781</ele>
        <time>2021-10-14T17:59:26Z</time>
      </trkpt>
      <trkpt lat="43.421466" lon="-4.749086">
        <ele>-79.719</ele>
        <time>2021-10-14T17:59:28Z</time>
      </trkpt>
      <trkpt lat="43.421454" lon="-4.749275">
        <ele>-79.708</ele>
        <time>2021-10-14T17:59:30Z</time>
      </trkpt>
      <trkpt lat="43.421442" lon="-4.749369">
        <ele>-79.764</ele>
        <time>2021-10-14T17:59:31Z</time>
      </trkpt>
      <trkpt lat="43.421426" lon="-4.749463">
        <ele>-79.792</ele>
        <time>2021-10-14T17:59:32Z</time>
      </trkpt>
      <trkpt lat="43.421412" lon="-4.749626">
        <ele>-79.750</ele>
        <time>2021-10-14T17:59:34Z</time>
      </trkpt>
      <trkpt lat="43.421417" lon="-4.749706">
        <ele>-79.727</ele>
        <time>2021-10-14T17:59:35Z</time>
      </trkpt>
      <trkpt lat="43.421428" lon="-4.749854">
        <ele>-79.750</ele>
        <time>2021-10-14T17:59:37Z</time>
      </trkpt>
      <trkpt lat="43.421430" lon="-4.749926">
        <ele>-79.767</ele>
        <time>2021-10-14T17:59:38Z</time>
      </trkpt>
      <trkpt lat="43.421427" lon="-4.750074">
        <ele>-79.729</ele>
        <time>2021-10-14T17:59:40Z</time>
      </trkpt>
      <trkpt lat="43.421399" lon="-4.750200">
        <ele>-79.788</ele>
        <time>2021-10-14T17:59:42Z</time>
      </trkpt>
      <trkpt lat="43.421391" lon="-4.750279">
        <ele>-79.976</ele>
        <time>2021-10-14T17:59:44Z</time>
      </trkpt>
      <trkpt lat="43.421386" lon="-4.750341">
        <ele>-79.990</ele>
        <time>2021-10-14T17:59:46Z</time>
      </trkpt>
      <trkpt lat="43.421410" lon="-4.750422">
        <ele>-79.719</ele>
        <time>2021-10-14T17:59:50Z</time>
      </trkpt>
      <trkpt lat="43.421450" lon="-4.750507">
        <ele>-79.708</ele>
        <time>2021-10-14T17:59:52Z</time>
      </trkpt>
      <trkpt lat="43.421486" lon="-4.750572">
        <ele>-79.755</ele>
        <time>2021-10-14T17:59:53Z</time>
      </trkpt>
      <trkpt lat="43.421565" lon="-4.750724">
        <ele>-79.763</ele>
        <time>2021-10-14T17:59:55Z</time>
      </trkpt>
      <trkpt lat="43.421592" lon="-4.750787">
        <ele>-79.731</ele>
        <time>2021-10-14T17:59:56Z</time>
      </trkpt>
      <trkpt lat="43.421643" lon="-4.750915">
        <ele>-79.728</ele>
        <time>2021-10-14T17:59:58Z</time>
      </trkpt>
      <trkpt lat="43.421709" lon="-4.751076">
        <ele>-79.771</ele>
        <time>2021-10-14T18:00:00Z</time>
      </trkpt>
      <trkpt lat="43.421774" lon="-4.751267">
        <ele>-79.768</ele>
        <time>2021-10-14T18:00:02Z</time>
      </trkpt>
      <trkpt lat="43.421812" lon="-4.751443">
        <ele>-73.790</ele>
        <time>2021-10-14T18:00:04Z</time>
      </trkpt>
      <trkpt lat="43.421822" lon="-4.751527">
        <ele>-75.459</ele>
        <time>2021-10-14T18:00:05Z</time>
      </trkpt>
      <trkpt lat="43.421820" lon="-4.751705">
        <ele>-75.235</ele>
        <time>2021-10-14T18:00:07Z</time>
      </trkpt>
      <trkpt lat="43.421814" lon="-4.751897">
        <ele>-75.786</ele>
        <time>2021-10-14T18:00:09Z</time>
      </trkpt>
      <trkpt lat="43.421816" lon="-4.751986">
        <ele>-75.714</ele>
        <time>2021-10-14T18:00:10Z</time>
      </trkpt>
      <trkpt lat="43.421832" lon="-4.752133">
        <ele>-74.008</ele>
        <time>2021-10-14T18:00:12Z</time>
      </trkpt>
      <trkpt lat="43.421864" lon="-4.752197">
        <ele>-73.741</ele>
        <time>2021-10-14T18:00:13Z</time>
      </trkpt>
      <trkpt lat="43.421913" lon="-4.752258">
        <ele>-71.269</ele>
        <time>2021-10-14T18:00:14Z</time>
      </trkpt>
      <trkpt lat="43.422027" lon="-4.752404">
        <ele>-71.417</ele>
        <time>2021-10-14T18:00:16Z</time>
      </trkpt>
      <trkpt lat="43.422077" lon="-4.752492">
        <ele>-72.424</ele>
        <time>2021-10-14T18:00:17Z</time>
      </trkpt>
      <trkpt lat="43.422122" lon="-4.752577">
        <ele>-72.777</ele>
        <time>2021-10-14T18:00:18Z</time>
      </trkpt>
      <trkpt lat="43.422213" lon="-4.752738">
        <ele>-73.244</ele>
        <time>2021-10-14T18:00:20Z</time>
      </trkpt>
      <trkpt lat="43.422276" lon="-4.752906">
        <ele>-73.926</ele>
        <time>2021-10-14T18:00:22Z</time>
      </trkpt>
      <trkpt lat="43.422288" lon="-4.752998">
        <ele>-73.535</ele>
        <time>2021-10-14T18:00:23Z</time>
      </trkpt>
      <trkpt lat="43.422287" lon="-4.753200">
        <ele>-75.758</ele>
        <time>2021-10-14T18:00:25Z</time>
      </trkpt>
      <trkpt lat="43.422294" lon="-4.753305">
        <ele>-74.352</ele>
        <time>2021-10-14T18:00:26Z</time>
      </trkpt>
      <trkpt lat="43.422350" lon="-4.753463">
        <ele>-73.817</ele>
        <time>2021-10-14T18:00:28Z</time>
      </trkpt>
      <trkpt lat="43.422448" lon="-4.753584">
        <ele>-74.208</ele>
        <time>2021-10-14T18:00:30Z</time>
      </trkpt>
      <trkpt lat="43.422521" lon="-4.753622">
        <ele>-75.753</ele>
        <time>2021-10-14T18:00:31Z</time>
      </trkpt>
      <trkpt lat="43.422606" lon="-4.753646">
        <ele>-74.761</ele>
        <time>2021-10-14T18:00:32Z</time>
      </trkpt>
      <trkpt lat="43.422787" lon="-4.753652">
        <ele>-77.999</ele>
        <time>2021-10-14T18:00:34Z</time>
      </trkpt>
      <trkpt lat="43.422949" lon="-4.753606">
        <ele>-78.426</ele>
        <time>2021-10-14T18:00:36Z</time>
      </trkpt>
      <trkpt lat="43.423018" lon="-4.753588">
        <ele>-77.439</ele>
        <time>2021-10-14T18:00:37Z</time>
      </trkpt>
      <trkpt lat="43.423131" lon="-4.753618">
        <ele>-76.976</ele>
        <time>2021-10-14T18:00:39Z</time>
      </trkpt>
      <trkpt lat="43.423217" lon="-4.753741">
        <ele>-75.758</ele>
        <time>2021-10-14T18:00:41Z</time>
      </trkpt>
      <trkpt lat="43.423259" lon="-4.753831">
        <ele>-73.717</ele>
        <time>2021-10-14T18:00:42Z</time>
      </trkpt>
      <trkpt lat="43.423349" lon="-4.754023">
        <ele>-72.561</ele>
        <time>2021-10-14T18:00:44Z</time>
      </trkpt>
      <trkpt lat="43.423391" lon="-4.754119">
        <ele>-71.321</ele>
        <time>2021-10-14T18:00:45Z</time>
      </trkpt>
      <trkpt lat="43.423466" lon="-4.754322">
        <ele>-70.213</ele>
        <time>2021-10-14T18:00:47Z</time>
      </trkpt>
      <trkpt lat="43.423504" lon="-4.754432">
        <ele>-69.708</ele>
        <time>2021-10-14T18:00:48Z</time>
      </trkpt>
      <trkpt lat="43.423543" lon="-4.754558">
        <ele>-70.324</ele>
        <time>2021-10-14T18:00:49Z</time>
      </trkpt>
      <trkpt lat="43.423627" lon="-4.754859">
        <ele>-68.392</ele>
        <time>2021-10-14T18:00:51Z</time>
      </trkpt>
      <trkpt lat="43.423675" lon="-4.755028">
        <ele>-68.740</ele>
        <time>2021-10-14T18:00:52Z</time>
      </trkpt>
      <trkpt lat="43.423779" lon="-4.755381">
        <ele>-66.357</ele>
        <time>2021-10-14T18:00:54Z</time>
      </trkpt>
      <trkpt lat="43.423831" lon="-4.755555">
        <ele>-65.950</ele>
        <time>2021-10-14T18:00:55Z</time>
      </trkpt>
      <trkpt lat="43.423882" lon="-4.755729">
        <ele>-66.297</ele>
        <time>2021-10-14T18:00:56Z</time>
      </trkpt>
      <trkpt lat="43.423973" lon="-4.756044">
        <ele>-65.239</ele>
        <time>2021-10-14T18:00:58Z</time>
      </trkpt>
      <trkpt lat="43.424055" lon="-4.756294">
        <ele>-64.778</ele>
        <time>2021-10-14T18:01:00Z</time>
      </trkpt>
      <trkpt lat="43.424100" lon="-4.756417">
        <ele>-64.915</ele>
        <time>2021-10-14T18:01:01Z</time>
      </trkpt>
      <trkpt lat="43.424153" lon="-4.756552">
        <ele>-65.765</ele>
        <time>2021-10-14T18:01:02Z</time>
      </trkpt>
      <trkpt lat="43.424253" lon="-4.756869">
        <ele>-64.011</ele>
        <time>2021-10-14T18:01:04Z</time>
      </trkpt>
      <trkpt lat="43.424301" lon="-4.757045">
        <ele>-63.808</ele>
        <time>2021-10-14T18:01:05Z</time>
      </trkpt>
      <trkpt lat="43.424351" lon="-4.757222">
        <ele>-63.949</ele>
        <time>2021-10-14T18:01:06Z</time>
      </trkpt>
      <trkpt lat="43.424401" lon="-4.757406">
        <ele>-63.847</ele>
        <time>2021-10-14T18:01:07Z</time>
      </trkpt>
      <trkpt lat="43.424456" lon="-4.757598">
        <ele>-62.445</ele>
        <time>2021-10-14T18:01:08Z</time>
      </trkpt>
      <trkpt lat="43.424566" lon="-4.757984">
        <ele>-64.562</ele>
        <time>2021-10-14T18:01:10Z</time>
      </trkpt>
      <trkpt lat="43.424663" lon="-4.758329">
        <ele>-62.945</ele>
        <time>2021-10-14T18:01:12Z</time>
      </trkpt>
      <trkpt lat="43.424698" lon="-4.758494">
        <ele>-63.342</ele>
        <time>2021-10-14T18:01:13Z</time>
      </trkpt>
      <trkpt lat="43.424740" lon="-4.758828">
        <ele>-63.334</ele>
        <time>2021-10-14T18:01:15Z</time>
      </trkpt>
      <trkpt lat="43.424776" lon="-4.759164">
        <ele>-63.343</ele>
        <time>2021-10-14T18:01:17Z</time>
      </trkpt>
      <trkpt lat="43.424795" lon="-4.759542">
        <ele>-63.391</ele>
        <time>2021-10-14T18:01:19Z</time>
      </trkpt>
      <trkpt lat="43.424782" lon="-4.759952">
        <ele>-64.281</ele>
        <time>2021-10-14T18:01:21Z</time>
      </trkpt>
      <trkpt lat="43.424765" lon="-4.760165">
        <ele>-64.219</ele>
        <time>2021-10-14T18:01:22Z</time>
      </trkpt>
      <trkpt lat="43.424738" lon="-4.760600">
        <ele>-65.408</ele>
        <time>2021-10-14T18:01:24Z</time>
      </trkpt>
      <trkpt lat="43.424728" lon="-4.760814">
        <ele>-66.047</ele>
        <time>2021-10-14T18:01:25Z</time>
      </trkpt>
      <trkpt lat="43.424718" lon="-4.761025">
        <ele>-67.375</ele>
        <time>2021-10-14T18:01:26Z</time>
      </trkpt>
      <trkpt lat="43.424706" lon="-4.761349">
        <ele>-68.753</ele>
        <time>2021-10-14T18:01:28Z</time>
      </trkpt>
      <trkpt lat="43.424704" lon="-4.761639">
        <ele>-68.820</ele>
        <time>2021-10-14T18:01:30Z</time>
      </trkpt>
      <trkpt lat="43.424706" lon="-4.761773">
        <ele>-66.733</ele>
        <time>2021-10-14T18:01:31Z</time>
      </trkpt>
      <trkpt lat="43.424710" lon="-4.761893">
        <ele>-66.370</ele>
        <time>2021-10-14T18:01:32Z</time>
      </trkpt>
      <trkpt lat="43.424719" lon="-4.762083">
        <ele>-65.552</ele>
        <time>2021-10-14T18:01:34Z</time>
      </trkpt>
      <trkpt lat="43.424722" lon="-4.762178">
        <ele>-65.761</ele>
        <time>2021-10-14T18:01:35Z</time>
      </trkpt>
      <trkpt lat="43.424727" lon="-4.762271">
        <ele>-64.552</ele>
        <time>2021-10-14T18:01:36Z</time>
      </trkpt>
      <trkpt lat="43.424742" lon="-4.762441">
        <ele>-66.253</ele>
        <time>2021-10-14T18:01:38Z</time>
      </trkpt>
      <trkpt lat="43.424745" lon="-4.762519">
        <ele>-63.908</ele>
        <time>2021-10-14T18:01:39Z</time>
      </trkpt>
      <trkpt lat="43.424719" lon="-4.762611">
        <ele>-66.308</ele>
        <time>2021-10-14T18:01:41Z</time>
      </trkpt>
      <trkpt lat="43.424657" lon="-4.762627">
        <ele>-64.983</ele>
        <time>2021-10-14T18:01:43Z</time>
      </trkpt>
      <trkpt lat="43.424579" lon="-4.762620">
        <ele>-66.261</ele>
        <time>2021-10-14T18:01:45Z</time>
      </trkpt>
      <trkpt lat="43.424503" lon="-4.762627">
        <ele>-64.079</ele>
        <time>2021-10-14T18:01:47Z</time>
      </trkpt>
      <trkpt lat="43.424459" lon="-4.762583">
        <ele>-64.216</ele>
        <time>2021-10-14T18:01:51Z</time>
      </trkpt>
      <trkpt lat="43.424501" lon="-4.762554">
        <ele>-63.679</ele>
        <time>2021-10-14T18:03:31Z</time>
      </trkpt>
      <trkpt lat="43.424549" lon="-4.762574">
        <ele>-63.626</ele>
        <time>2021-10-14T18:03:33Z</time>
      </trkpt>
      <trkpt lat="43.424599" lon="-4.762566">
        <ele>-62.968</ele>
        <time>2021-10-14T18:08:05Z</time>
      </trkpt>
      <trkpt lat="43.424665" lon="-4.762512">
        <ele>-63.257</ele>
        <time>2021-10-14T18:08:46Z</time>
      </trkpt>
      <trkpt lat="43.424686" lon="-4.762419">
        <ele>-63.135</ele>
        <time>2021-10-14T18:08:48Z</time>
      </trkpt>
      <trkpt lat="43.424686" lon="-4.762336">
        <ele>-63.186</ele>
        <time>2021-10-14T18:08:49Z</time>
      </trkpt>
      <trkpt lat="43.424686" lon="-4.762233">
        <ele>-63.114</ele>
        <time>2021-10-14T18:08:50Z</time>
      </trkpt>
      <trkpt lat="43.424686" lon="-4.762052">
        <ele>-63.108</ele>
        <time>2021-10-14T18:08:52Z</time>
      </trkpt>
      <trkpt lat="43.424687" lon="-4.761964">
        <ele>-63.141</ele>
        <time>2021-10-14T18:08:53Z</time>
      </trkpt>
      <trkpt lat="43.424684" lon="-4.761767">
        <ele>-63.279</ele>
        <time>2021-10-14T18:08:55Z</time>
      </trkpt>
      <trkpt lat="43.424682" lon="-4.761672">
        <ele>-63.247</ele>
        <time>2021-10-14T18:08:56Z</time>
      </trkpt>
      <trkpt lat="43.424680" lon="-4.761464">
        <ele>-63.124</ele>
        <time>2021-10-14T18:08:58Z</time>
      </trkpt>
      <trkpt lat="43.424684" lon="-4.761223">
        <ele>-63.157</ele>
        <time>2021-10-14T18:09:00Z</time>
      </trkpt>
      <trkpt lat="43.424688" lon="-4.761101">
        <ele>-63.174</ele>
        <time>2021-10-14T18:09:01Z</time>
      </trkpt>
      <trkpt lat="43.424693" lon="-4.760987">
        <ele>-63.146</ele>
        <time>2021-10-14T18:09:02Z</time>
      </trkpt>
      <trkpt lat="43.424706" lon="-4.760791">
        <ele>-63.135</ele>
        <time>2021-10-14T18:09:04Z</time>
      </trkpt>
      <trkpt lat="43.424715" lon="-4.760683">
        <ele>-63.167</ele>
        <time>2021-10-14T18:09:05Z</time>
      </trkpt>
      <trkpt lat="43.424732" lon="-4.760453">
        <ele>-63.181</ele>
        <time>2021-10-14T18:09:07Z</time>
      </trkpt>
      <trkpt lat="43.424742" lon="-4.760344">
        <ele>-63.119</ele>
        <time>2021-10-14T18:09:08Z</time>
      </trkpt>
      <trkpt lat="43.424758" lon="-4.760131">
        <ele>-63.108</ele>
        <time>2021-10-14T18:09:10Z</time>
      </trkpt>
      <trkpt lat="43.424767" lon="-4.760012">
        <ele>-63.144</ele>
        <time>2021-10-14T18:09:11Z</time>
      </trkpt>
      <trkpt lat="43.424777" lon="-4.759781">
        <ele>-63.252</ele>
        <time>2021-10-14T18:09:13Z</time>
      </trkpt>
      <trkpt lat="43.424779" lon="-4.759669">
        <ele>-63.270</ele>
        <time>2021-10-14T18:09:14Z</time>
      </trkpt>
      <trkpt lat="43.424771" lon="-4.759480">
        <ele>-63.277</ele>
        <time>2021-10-14T18:09:16Z</time>
      </trkpt>
      <trkpt lat="43.424756" lon="-4.759403">
        <ele>-63.280</ele>
        <time>2021-10-14T18:09:17Z</time>
      </trkpt>
      <trkpt lat="43.424687" lon="-4.759309">
        <ele>-63.287</ele>
        <time>2021-10-14T18:09:19Z</time>
      </trkpt>
      <trkpt lat="43.424634" lon="-4.759292">
        <ele>-63.219</ele>
        <time>2021-10-14T18:09:20Z</time>
      </trkpt>
      <trkpt lat="43.424511" lon="-4.759281">
        <ele>-63.268</ele>
        <time>2021-10-14T18:09:22Z</time>
      </trkpt>
      <trkpt lat="43.424365" lon="-4.759270">
        <ele>-63.355</ele>
        <time>2021-10-14T18:09:24Z</time>
      </trkpt>
      <trkpt lat="43.424217" lon="-4.759251">
        <ele>-63.307</ele>
        <time>2021-10-14T18:09:26Z</time>
      </trkpt>
      <trkpt lat="43.424082" lon="-4.759227">
        <ele>-63.317</ele>
        <time>2021-10-14T18:09:28Z</time>
      </trkpt>
      <trkpt lat="43.423948" lon="-4.759209">
        <ele>-63.208</ele>
        <time>2021-10-14T18:09:30Z</time>
      </trkpt>
      <trkpt lat="43.423791" lon="-4.759189">
        <ele>-63.223</ele>
        <time>2021-10-14T18:09:32Z</time>
      </trkpt>
      <trkpt lat="43.423642" lon="-4.759185">
        <ele>-63.241</ele>
        <time>2021-10-14T18:09:34Z</time>
      </trkpt>
      <trkpt lat="43.423571" lon="-4.759185">
        <ele>-63.239</ele>
        <time>2021-10-14T18:09:35Z</time>
      </trkpt>
      <trkpt lat="43.423510" lon="-4.759186">
        <ele>-63.276</ele>
        <time>2021-10-14T18:09:36Z</time>
      </trkpt>
      <trkpt lat="43.423410" lon="-4.759187">
        <ele>-63.329</ele>
        <time>2021-10-14T18:09:38Z</time>
      </trkpt>
      <trkpt lat="43.423317" lon="-4.759188">
        <ele>-63.396</ele>
        <time>2021-10-14T18:09:40Z</time>
      </trkpt>
      <trkpt lat="43.423265" lon="-4.759187">
        <ele>-63.398</ele>
        <time>2021-10-14T18:09:41Z</time>
      </trkpt>
      <trkpt lat="43.423208" lon="-4.759182">
        <ele>-63.337</ele>
        <time>2021-10-14T18:09:42Z</time>
      </trkpt>
      <trkpt lat="43.423096" lon="-4.759176">
        <ele>-61.753</ele>
        <time>2021-10-14T18:09:44Z</time>
      </trkpt>
      <trkpt lat="43.422993" lon="-4.759170">
        <ele>-63.704</ele>
        <time>2021-10-14T18:09:46Z</time>
      </trkpt>
      <trkpt lat="43.422897" lon="-4.759164">
        <ele>-62.414</ele>
        <time>2021-10-14T18:09:48Z</time>
      </trkpt>
      <trkpt lat="43.422829" lon="-4.759166">
        <ele>-63.208</ele>
        <time>2021-10-14T18:09:50Z</time>
      </trkpt>
      <trkpt lat="43.422741" lon="-4.759155">
        <ele>-63.753</ele>
        <time>2021-10-14T18:09:52Z</time>
      </trkpt>
      <trkpt lat="43.422640" lon="-4.759134">
        <ele>-65.341</ele>
        <time>2021-10-14T18:09:54Z</time>
      </trkpt>
      <trkpt lat="43.422536" lon="-4.759123">
        <ele>-66.319</ele>
        <time>2021-10-14T18:09:56Z</time>
      </trkpt>
      <trkpt lat="43.422436" lon="-4.759116">
        <ele>-66.476</ele>
        <time>2021-10-14T18:09:58Z</time>
      </trkpt>
      <trkpt lat="43.422384" lon="-4.759110">
        <ele>-66.769</ele>
        <time>2021-10-14T18:09:59Z</time>
      </trkpt>
      <trkpt lat="43.422291" lon="-4.759095">
        <ele>-66.766</ele>
        <time>2021-10-14T18:10:01Z</time>
      </trkpt>
      <trkpt lat="43.422227" lon="-4.759092">
        <ele>-69.598</ele>
        <time>2021-10-14T18:10:03Z</time>
      </trkpt>
      <trkpt lat="43.422157" lon="-4.759126">
        <ele>-66.817</ele>
        <time>2021-10-14T18:10:05Z</time>
      </trkpt>
      <trkpt lat="43.422087" lon="-4.759157">
        <ele>-65.771</ele>
        <time>2021-10-14T18:10:07Z</time>
      </trkpt>
      <trkpt lat="43.422028" lon="-4.759166">
        <ele>-65.241</ele>
        <time>2021-10-14T18:10:10Z</time>
      </trkpt>
      <trkpt lat="43.421974" lon="-4.759177">
        <ele>-67.015</ele>
        <time>2021-10-14T18:10:13Z</time>
      </trkpt>
      <trkpt lat="43.421919" lon="-4.759211">
        <ele>-67.808</ele>
        <time>2021-10-14T18:10:22Z</time>
      </trkpt>
      <trkpt lat="43.421857" lon="-4.759236">
        <ele>-67.815</ele>
        <time>2021-10-14T18:10:25Z</time>
      </trkpt>
      <trkpt lat="43.421790" lon="-4.759224">
        <ele>-67.863</ele>
        <time>2021-10-14T18:10:28Z</time>
      </trkpt>
      <trkpt lat="43.421739" lon="-4.759177">
        <ele>-67.871</ele>
        <time>2021-10-14T18:10:30Z</time>
      </trkpt>
      <trkpt lat="43.421713" lon="-4.759122">
        <ele>-67.868</ele>
        <time>2021-10-14T18:10:31Z</time>
      </trkpt>
      <trkpt lat="43.421694" lon="-4.759047">
        <ele>-67.861</ele>
        <time>2021-10-14T18:10:32Z</time>
      </trkpt>
      <trkpt lat="43.421658" lon="-4.758912">
        <ele>-67.838</ele>
        <time>2021-10-14T18:10:34Z</time>
      </trkpt>
      <trkpt lat="43.421622" lon="-4.758773">
        <ele>-67.870</ele>
        <time>2021-10-14T18:10:36Z</time>
      </trkpt>
      <trkpt lat="43.421574" lon="-4.758640">
        <ele>-67.889</ele>
        <time>2021-10-14T18:10:38Z</time>
      </trkpt>
      <trkpt lat="43.421515" lon="-4.758583">
        <ele>-67.922</ele>
        <time>2021-10-14T18:10:40Z</time>
      </trkpt>
      <trkpt lat="43.421434" lon="-4.758608">
        <ele>-67.962</ele>
        <time>2021-10-14T18:10:42Z</time>
      </trkpt>
      <trkpt lat="43.421336" lon="-4.758654">
        <ele>-67.908</ele>
        <time>2021-10-14T18:10:44Z</time>
      </trkpt>
      <trkpt lat="43.421206" lon="-4.758703">
        <ele>-68.008</ele>
        <time>2021-10-14T18:10:46Z</time>
      </trkpt>
      <trkpt lat="43.421116" lon="-4.758727">
        <ele>-68.280</ele>
        <time>2021-10-14T18:10:48Z</time>
      </trkpt>
      <trkpt lat="43.421066" lon="-4.758730">
        <ele>-68.268</ele>
        <time>2021-10-14T18:10:50Z</time>
      </trkpt>
      <trkpt lat="43.421018" lon="-4.758706">
        <ele>-68.276</ele>
        <time>2021-10-14T18:10:52Z</time>
      </trkpt>
      <trkpt lat="43.420955" lon="-4.758596">
        <ele>-68.283</ele>
        <time>2021-10-14T18:10:54Z</time>
      </trkpt>
      <trkpt lat="43.420876" lon="-4.758404">
        <ele>-68.226</ele>
        <time>2021-10-14T18:10:56Z</time>
      </trkpt>
      <trkpt lat="43.420781" lon="-4.758169">
        <ele>-68.243</ele>
        <time>2021-10-14T18:10:58Z</time>
      </trkpt>
      <trkpt lat="43.420738" lon="-4.758056">
        <ele>-68.215</ele>
        <time>2021-10-14T18:10:59Z</time>
      </trkpt>
      <trkpt lat="43.420697" lon="-4.757950">
        <ele>-68.284</ele>
        <time>2021-10-14T18:11:00Z</time>
      </trkpt>
      <trkpt lat="43.420619" lon="-4.757755">
        <ele>-68.295</ele>
        <time>2021-10-14T18:11:02Z</time>
      </trkpt>
      <trkpt lat="43.420544" lon="-4.757573">
        <ele>-68.249</ele>
        <time>2021-10-14T18:11:04Z</time>
      </trkpt>
      <trkpt lat="43.420501" lon="-4.757477">
        <ele>-68.223</ele>
        <time>2021-10-14T18:11:05Z</time>
      </trkpt>
      <trkpt lat="43.420419" lon="-4.757288">
        <ele>-68.208</ele>
        <time>2021-10-14T18:11:07Z</time>
      </trkpt>
      <trkpt lat="43.420382" lon="-4.757208">
        <ele>-68.257</ele>
        <time>2021-10-14T18:11:08Z</time>
      </trkpt>
      <trkpt lat="43.420340" lon="-4.757120">
        <ele>-68.295</ele>
        <time>2021-10-14T18:11:10Z</time>
      </trkpt>
      <trkpt lat="43.420312" lon="-4.757069">
        <ele>-68.233</ele>
        <time>2021-10-14T18:11:12Z</time>
      </trkpt>
      <trkpt lat="43.420263" lon="-4.757004">
        <ele>-68.290</ele>
        <time>2021-10-14T18:11:15Z</time>
      </trkpt>
      <trkpt lat="43.420202" lon="-4.756946">
        <ele>-68.273</ele>
        <time>2021-10-14T18:11:17Z</time>
      </trkpt>
      <trkpt lat="43.420109" lon="-4.756947">
        <ele>-68.080</ele>
        <time>2021-10-14T18:11:19Z</time>
      </trkpt>
      <trkpt lat="43.420045" lon="-4.756976">
        <ele>-68.052</ele>
        <time>2021-10-14T18:11:20Z</time>
      </trkpt>
      <trkpt lat="43.419895" lon="-4.757061">
        <ele>-64.821</ele>
        <time>2021-10-14T18:11:22Z</time>
      </trkpt>
      <trkpt lat="43.419814" lon="-4.757110">
        <ele>-66.259</ele>
        <time>2021-10-14T18:11:23Z</time>
      </trkpt>
      <trkpt lat="43.419656" lon="-4.757206">
        <ele>-67.003</ele>
        <time>2021-10-14T18:11:25Z</time>
      </trkpt>
      <trkpt lat="43.419582" lon="-4.757251">
        <ele>-66.023</ele>
        <time>2021-10-14T18:11:26Z</time>
      </trkpt>
      <trkpt lat="43.419437" lon="-4.757309">
        <ele>-68.208</ele>
        <time>2021-10-14T18:11:28Z</time>
      </trkpt>
      <trkpt lat="43.419355" lon="-4.757329">
        <ele>-65.563</ele>
        <time>2021-10-14T18:11:29Z</time>
      </trkpt>
      <trkpt lat="43.419162" lon="-4.757348">
        <ele>-65.461</ele>
        <time>2021-10-14T18:11:31Z</time>
      </trkpt>
      <trkpt lat="43.419051" lon="-4.757345">
        <ele>-67.269</ele>
        <time>2021-10-14T18:11:32Z</time>
      </trkpt>
      <trkpt lat="43.418836" lon="-4.757299">
        <ele>-67.946</ele>
        <time>2021-10-14T18:11:34Z</time>
      </trkpt>
      <trkpt lat="43.418728" lon="-4.757247">
        <ele>-67.289</ele>
        <time>2021-10-14T18:11:35Z</time>
      </trkpt>
      <trkpt lat="43.418515" lon="-4.757114">
        <ele>-68.066</ele>
        <time>2021-10-14T18:11:37Z</time>
      </trkpt>
      <trkpt lat="43.418414" lon="-4.757030">
        <ele>-67.238</ele>
        <time>2021-10-14T18:11:38Z</time>
      </trkpt>
      <trkpt lat="43.418243" lon="-4.756847">
        <ele>-66.977</ele>
        <time>2021-10-14T18:11:40Z</time>
      </trkpt>
      <trkpt lat="43.418182" lon="-4.756764">
        <ele>-65.064</ele>
        <time>2021-10-14T18:11:41Z</time>
      </trkpt>
      <trkpt lat="43.418075" lon="-4.756642">
        <ele>-65.406</ele>
        <time>2021-10-14T18:11:43Z</time>
      </trkpt>
      <trkpt lat="43.418010" lon="-4.756597">
        <ele>-64.916</ele>
        <time>2021-10-14T18:11:44Z</time>
      </trkpt>
      <trkpt lat="43.417868" lon="-4.756536">
        <ele>-63.308</ele>
        <time>2021-10-14T18:11:46Z</time>
      </trkpt>
      <trkpt lat="43.417703" lon="-4.756475">
        <ele>-61.054</ele>
        <time>2021-10-14T18:11:48Z</time>
      </trkpt>
      <trkpt lat="43.417534" lon="-4.756414">
        <ele>-60.972</ele>
        <time>2021-10-14T18:11:50Z</time>
      </trkpt>
      <trkpt lat="43.417360" lon="-4.756352">
        <ele>-61.460</ele>
        <time>2021-10-14T18:11:52Z</time>
      </trkpt>
      <trkpt lat="43.417264" lon="-4.756325">
        <ele>-62.267</ele>
        <time>2021-10-14T18:11:53Z</time>
      </trkpt>
      <trkpt lat="43.417049" lon="-4.756287">
        <ele>-63.890</ele>
        <time>2021-10-14T18:11:55Z</time>
      </trkpt>
      <trkpt lat="43.416937" lon="-4.756280">
        <ele>-62.147</ele>
        <time>2021-10-14T18:11:56Z</time>
      </trkpt>
      <trkpt lat="43.416741" lon="-4.756317">
        <ele>-61.539</ele>
        <time>2021-10-14T18:11:58Z</time>
      </trkpt>
      <trkpt lat="43.416570" lon="-4.756424">
        <ele>-62.188</ele>
        <time>2021-10-14T18:12:00Z</time>
      </trkpt>
      <trkpt lat="43.416429" lon="-4.756588">
        <ele>-61.821</ele>
        <time>2021-10-14T18:12:02Z</time>
      </trkpt>
      <trkpt lat="43.416314" lon="-4.756768">
        <ele>-62.041</ele>
        <time>2021-10-14T18:12:04Z</time>
      </trkpt>
      <trkpt lat="43.416259" lon="-4.756853">
        <ele>-63.005</ele>
        <time>2021-10-14T18:12:05Z</time>
      </trkpt>
      <trkpt lat="43.416201" lon="-4.756928">
        <ele>-64.008</ele>
        <time>2021-10-14T18:12:06Z</time>
      </trkpt>
      <trkpt lat="43.416141" lon="-4.756993">
        <ele>-62.910</ele>
        <time>2021-10-14T18:12:07Z</time>
      </trkpt>
      <trkpt lat="43.416078" lon="-4.757049">
        <ele>-64.428</ele>
        <time>2021-10-14T18:12:08Z</time>
      </trkpt>
      <trkpt lat="43.415967" lon="-4.757151">
        <ele>-65.766</ele>
        <time>2021-10-14T18:12:10Z</time>
      </trkpt>
      <trkpt lat="43.415916" lon="-4.757203">
        <ele>-66.243</ele>
        <time>2021-10-14T18:12:11Z</time>
      </trkpt>
      <trkpt lat="43.415823" lon="-4.757314">
        <ele>-67.576</ele>
        <time>2021-10-14T18:12:13Z</time>
      </trkpt>
      <trkpt lat="43.415782" lon="-4.757372">
        <ele>-65.923</ele>
        <time>2021-10-14T18:12:14Z</time>
      </trkpt>
      <trkpt lat="43.415716" lon="-4.757481">
        <ele>-65.995</ele>
        <time>2021-10-14T18:12:16Z</time>
      </trkpt>
      <trkpt lat="43.415683" lon="-4.757530">
        <ele>-67.394</ele>
        <time>2021-10-14T18:12:17Z</time>
      </trkpt>
      <trkpt lat="43.415646" lon="-4.757572">
        <ele>-66.735</ele>
        <time>2021-10-14T18:12:18Z</time>
      </trkpt>
      <trkpt lat="43.415567" lon="-4.757678">
        <ele>-68.086</ele>
        <time>2021-10-14T18:12:20Z</time>
      </trkpt>
      <trkpt lat="43.415498" lon="-4.757843">
        <ele>-66.314</ele>
        <time>2021-10-14T18:12:22Z</time>
      </trkpt>
      <trkpt lat="43.415409" lon="-4.757990">
        <ele>-67.808</ele>
        <time>2021-10-14T18:12:24Z</time>
      </trkpt>
      <trkpt lat="43.415295" lon="-4.758021">
        <ele>-69.591</ele>
        <time>2021-10-14T18:12:26Z</time>
      </trkpt>
      <trkpt lat="43.415211" lon="-4.757919">
        <ele>-70.559</ele>
        <time>2021-10-14T18:12:28Z</time>
      </trkpt>
      <trkpt lat="43.415179" lon="-4.757827">
        <ele>-69.467</ele>
        <time>2021-10-14T18:12:29Z</time>
      </trkpt>
      <trkpt lat="43.415145" lon="-4.757713">
        <ele>-71.024</ele>
        <time>2021-10-14T18:12:30Z</time>
      </trkpt>
      <trkpt lat="43.415040" lon="-4.757457">
        <ele>-72.027</ele>
        <time>2021-10-14T18:12:32Z</time>
      </trkpt>
      <trkpt lat="43.414899" lon="-4.757211">
        <ele>-74.914</ele>
        <time>2021-10-14T18:12:34Z</time>
      </trkpt>
      <trkpt lat="43.414838" lon="-4.757093">
        <ele>-73.816</ele>
        <time>2021-10-14T18:12:35Z</time>
      </trkpt>
      <trkpt lat="43.414782" lon="-4.756977">
        <ele>-75.225</ele>
        <time>2021-10-14T18:12:36Z</time>
      </trkpt>
      <trkpt lat="43.414728" lon="-4.756867">
        <ele>-73.564</ele>
        <time>2021-10-14T18:12:37Z</time>
      </trkpt>
      <trkpt lat="43.414676" lon="-4.756753">
        <ele>-75.206</ele>
        <time>2021-10-14T18:12:38Z</time>
      </trkpt>
      <trkpt lat="43.414569" lon="-4.756498">
        <ele>-74.016</ele>
        <time>2021-10-14T18:12:40Z</time>
      </trkpt>
      <trkpt lat="43.414513" lon="-4.756346">
        <ele>-74.708</ele>
        <time>2021-10-14T18:12:41Z</time>
      </trkpt>
      <trkpt lat="43.414404" lon="-4.756013">
        <ele>-74.854</ele>
        <time>2021-10-14T18:12:43Z</time>
      </trkpt>
      <trkpt lat="43.414355" lon="-4.755854">
        <ele>-74.022</ele>
        <time>2021-10-14T18:12:44Z</time>
      </trkpt>
      <trkpt lat="43.414275" lon="-4.755579">
        <ele>-73.280</ele>
        <time>2021-10-14T18:12:46Z</time>
      </trkpt>
      <trkpt lat="43.414243" lon="-4.755446">
        <ele>-72.857</ele>
        <time>2021-10-14T18:12:47Z</time>
      </trkpt>
      <trkpt lat="43.414175" lon="-4.755162">
        <ele>-72.730</ele>
        <time>2021-10-14T18:12:49Z</time>
      </trkpt>
      <trkpt lat="43.414138" lon="-4.755005">
        <ele>-71.847</ele>
        <time>2021-10-14T18:12:50Z</time>
      </trkpt>
      <trkpt lat="43.414067" lon="-4.754720">
        <ele>-72.299</ele>
        <time>2021-10-14T18:12:52Z</time>
      </trkpt>
      <trkpt lat="43.414036" lon="-4.754591">
        <ele>-71.248</ele>
        <time>2021-10-14T18:12:53Z</time>
      </trkpt>
      <trkpt lat="43.414007" lon="-4.754472">
        <ele>-71.556</ele>
        <time>2021-10-14T18:12:54Z</time>
      </trkpt>
      <trkpt lat="43.413979" lon="-4.754363">
        <ele>-71.259</ele>
        <time>2021-10-14T18:12:55Z</time>
      </trkpt>
      <trkpt lat="43.413948" lon="-4.754253">
        <ele>-71.714</ele>
        <time>2021-10-14T18:12:56Z</time>
      </trkpt>
      <trkpt lat="43.413874" lon="-4.754065">
        <ele>-69.308</ele>
        <time>2021-10-14T18:12:58Z</time>
      </trkpt>
      <trkpt lat="43.413827" lon="-4.753977">
        <ele>-69.773</ele>
        <time>2021-10-14T18:12:59Z</time>
      </trkpt>
      <trkpt lat="43.413783" lon="-4.753898">
        <ele>-70.021</ele>
        <time>2021-10-14T18:13:00Z</time>
      </trkpt>
      <trkpt lat="43.413719" lon="-4.753782">
        <ele>-69.439</ele>
        <time>2021-10-14T18:13:02Z</time>
      </trkpt>
      <trkpt lat="43.413688" lon="-4.753717">
        <ele>-69.886</ele>
        <time>2021-10-14T18:13:04Z</time>
      </trkpt>
      <trkpt lat="43.413664" lon="-4.753655">
        <ele>-67.379</ele>
        <time>2021-10-14T18:13:06Z</time>
      </trkpt>
      <trkpt lat="43.413628" lon="-4.753571">
        <ele>-68.846</ele>
        <time>2021-10-14T18:13:08Z</time>
      </trkpt>
      <trkpt lat="43.413573" lon="-4.753434">
        <ele>-67.368</ele>
        <time>2021-10-14T18:13:10Z</time>
      </trkpt>
      <trkpt lat="43.413526" lon="-4.753290">
        <ele>-68.437</ele>
        <time>2021-10-14T18:13:12Z</time>
      </trkpt>
      <trkpt lat="43.413508" lon="-4.753226">
        <ele>-67.035</ele>
        <time>2021-10-14T18:13:13Z</time>
      </trkpt>
      <trkpt lat="43.413485" lon="-4.753151">
        <ele>-67.986</ele>
        <time>2021-10-14T18:13:16Z</time>
      </trkpt>
      <trkpt lat="43.413455" lon="-4.753081">
        <ele>-68.814</ele>
        <time>2021-10-14T18:13:18Z</time>
      </trkpt>
      <trkpt lat="43.413426" lon="-4.753033">
        <ele>-68.708</ele>
        <time>2021-10-14T18:13:20Z</time>
      </trkpt>
      <trkpt lat="43.413372" lon="-4.752970">
        <ele>-69.771</ele>
        <time>2021-10-14T18:13:21Z</time>
      </trkpt>
      <trkpt lat="43.413262" lon="-4.752928">
        <ele>-68.339</ele>
        <time>2021-10-14T18:13:23Z</time>
      </trkpt>
      <trkpt lat="43.413203" lon="-4.752947">
        <ele>-69.597</ele>
        <time>2021-10-14T18:13:24Z</time>
      </trkpt>
      <trkpt lat="43.413144" lon="-4.752990">
        <ele>-70.044</ele>
        <time>2021-10-14T18:13:25Z</time>
      </trkpt>
      <trkpt lat="43.413086" lon="-4.753051">
        <ele>-70.327</ele>
        <time>2021-10-14T18:13:26Z</time>
      </trkpt>
      <trkpt lat="43.412971" lon="-4.753189">
        <ele>-69.024</ele>
        <time>2021-10-14T18:13:28Z</time>
      </trkpt>
      <trkpt lat="43.412907" lon="-4.753256">
        <ele>-68.086</ele>
        <time>2021-10-14T18:13:29Z</time>
      </trkpt>
      <trkpt lat="43.412769" lon="-4.753390">
        <ele>-69.755</ele>
        <time>2021-10-14T18:13:31Z</time>
      </trkpt>
      <trkpt lat="43.412698" lon="-4.753475">
        <ele>-68.027</ele>
        <time>2021-10-14T18:13:32Z</time>
      </trkpt>
      <trkpt lat="43.412554" lon="-4.753645">
        <ele>-67.968</ele>
        <time>2021-10-14T18:13:34Z</time>
      </trkpt>
      <trkpt lat="43.412484" lon="-4.753727">
        <ele>-65.314</ele>
        <time>2021-10-14T18:13:35Z</time>
      </trkpt>
      <trkpt lat="43.412351" lon="-4.753877">
        <ele>-64.708</ele>
        <time>2021-10-14T18:13:37Z</time>
      </trkpt>
      <trkpt lat="43.412273" lon="-4.753962">
        <ele>-64.570</ele>
        <time>2021-10-14T18:13:38Z</time>
      </trkpt>
      <trkpt lat="43.412120" lon="-4.754134">
        <ele>-65.248</ele>
        <time>2021-10-14T18:13:40Z</time>
      </trkpt>
      <trkpt lat="43.411961" lon="-4.754311">
        <ele>-62.716</ele>
        <time>2021-10-14T18:13:42Z</time>
      </trkpt>
      <trkpt lat="43.411806" lon="-4.754481">
        <ele>-62.473</ele>
        <time>2021-10-14T18:13:44Z</time>
      </trkpt>
      <trkpt lat="43.411664" lon="-4.754642">
        <ele>-62.526</ele>
        <time>2021-10-14T18:13:46Z</time>
      </trkpt>
      <trkpt lat="43.411590" lon="-4.754726">
        <ele>-62.343</ele>
        <time>2021-10-14T18:13:47Z</time>
      </trkpt>
      <trkpt lat="43.411437" lon="-4.754892">
        <ele>-60.235</ele>
        <time>2021-10-14T18:13:49Z</time>
      </trkpt>
      <trkpt lat="43.411354" lon="-4.754979">
        <ele>-60.154</ele>
        <time>2021-10-14T18:13:50Z</time>
      </trkpt>
      <trkpt lat="43.411188" lon="-4.755161">
        <ele>-58.878</ele>
        <time>2021-10-14T18:13:52Z</time>
      </trkpt>
      <trkpt lat="43.411095" lon="-4.755262">
        <ele>-59.933</ele>
        <time>2021-10-14T18:13:53Z</time>
      </trkpt>
      <trkpt lat="43.410994" lon="-4.755365">
        <ele>-60.726</ele>
        <time>2021-10-14T18:13:54Z</time>
      </trkpt>
      <trkpt lat="43.410798" lon="-4.755569">
        <ele>-60.308</ele>
        <time>2021-10-14T18:13:56Z</time>
      </trkpt>
      <trkpt lat="43.410625" lon="-4.755743">
        <ele>-60.575</ele>
        <time>2021-10-14T18:13:58Z</time>
      </trkpt>
      <trkpt lat="43.410537" lon="-4.755832">
        <ele>-58.713</ele>
        <time>2021-10-14T18:13:59Z</time>
      </trkpt>
      <trkpt lat="43.410447" lon="-4.755927">
        <ele>-58.181</ele>
        <time>2021-10-14T18:14:00Z</time>
      </trkpt>
      <trkpt lat="43.410261" lon="-4.756116">
        <ele>-58.518</ele>
        <time>2021-10-14T18:14:02Z</time>
      </trkpt>
      <trkpt lat="43.410093" lon="-4.756294">
        <ele>-59.361</ele>
        <time>2021-10-14T18:14:04Z</time>
      </trkpt>
      <trkpt lat="43.409914" lon="-4.756491">
        <ele>-58.958</ele>
        <time>2021-10-14T18:14:06Z</time>
      </trkpt>
      <trkpt lat="43.409816" lon="-4.756595">
        <ele>-58.710</ele>
        <time>2021-10-14T18:14:07Z</time>
      </trkpt>
      <trkpt lat="43.409702" lon="-4.756708">
        <ele>-57.679</ele>
        <time>2021-10-14T18:14:08Z</time>
      </trkpt>
      <trkpt lat="43.409449" lon="-4.756948">
        <ele>-57.558</ele>
        <time>2021-10-14T18:14:10Z</time>
      </trkpt>
      <trkpt lat="43.409185" lon="-4.757181">
        <ele>-55.052</ele>
        <time>2021-10-14T18:14:12Z</time>
      </trkpt>
      <trkpt lat="43.409061" lon="-4.757285">
        <ele>-56.617</ele>
        <time>2021-10-14T18:14:13Z</time>
      </trkpt>
      <trkpt lat="43.408945" lon="-4.757380">
        <ele>-55.808</ele>
        <time>2021-10-14T18:14:14Z</time>
      </trkpt>
      <trkpt lat="43.408743" lon="-4.757531">
        <ele>-55.573</ele>
        <time>2021-10-14T18:14:16Z</time>
      </trkpt>
      <trkpt lat="43.408649" lon="-4.757597">
        <ele>-55.041</ele>
        <time>2021-10-14T18:14:17Z</time>
      </trkpt>
      <trkpt lat="43.408466" lon="-4.757728">
        <ele>-52.759</ele>
        <time>2021-10-14T18:14:19Z</time>
      </trkpt>
      <trkpt lat="43.408370" lon="-4.757791">
        <ele>-53.536</ele>
        <time>2021-10-14T18:14:20Z</time>
      </trkpt>
      <trkpt lat="43.408184" lon="-4.757918">
        <ele>-52.299</ele>
        <time>2021-10-14T18:14:22Z</time>
      </trkpt>
      <trkpt lat="43.408007" lon="-4.758040">
        <ele>-51.776</ele>
        <time>2021-10-14T18:14:24Z</time>
      </trkpt>
      <trkpt lat="43.407926" lon="-4.758096">
        <ele>-51.388</ele>
        <time>2021-10-14T18:14:25Z</time>
      </trkpt>
      <trkpt lat="43.407848" lon="-4.758145">
        <ele>-50.487</ele>
        <time>2021-10-14T18:14:26Z</time>
      </trkpt>
      <trkpt lat="43.407716" lon="-4.758233">
        <ele>-48.691</ele>
        <time>2021-10-14T18:14:28Z</time>
      </trkpt>
      <trkpt lat="43.407575" lon="-4.758331">
        <ele>-48.981</ele>
        <time>2021-10-14T18:14:30Z</time>
      </trkpt>
      <trkpt lat="43.407502" lon="-4.758377">
        <ele>-48.019</ele>
        <time>2021-10-14T18:14:31Z</time>
      </trkpt>
      <trkpt lat="43.407436" lon="-4.758422">
        <ele>-49.008</ele>
        <time>2021-10-14T18:14:32Z</time>
      </trkpt>
      <trkpt lat="43.407307" lon="-4.758505">
        <ele>-47.687</ele>
        <time>2021-10-14T18:14:34Z</time>
      </trkpt>
      <trkpt lat="43.407240" lon="-4.758550">
        <ele>-47.755</ele>
        <time>2021-10-14T18:14:35Z</time>
      </trkpt>
      <trkpt lat="43.407171" lon="-4.758596">
        <ele>-46.543</ele>
        <time>2021-10-14T18:14:36Z</time>
      </trkpt>
      <trkpt lat="43.407101" lon="-4.758639">
        <ele>-45.460</ele>
        <time>2021-10-14T18:14:37Z</time>
      </trkpt>
      <trkpt lat="43.407019" lon="-4.758690">
        <ele>-44.463</ele>
        <time>2021-10-14T18:14:38Z</time>
      </trkpt>
      <trkpt lat="43.406830" lon="-4.758819">
        <ele>-44.460</ele>
        <time>2021-10-14T18:14:40Z</time>
      </trkpt>
      <trkpt lat="43.406650" lon="-4.758953">
        <ele>-43.992</ele>
        <time>2021-10-14T18:14:42Z</time>
      </trkpt>
      <trkpt lat="43.406484" lon="-4.759081">
        <ele>-43.491</ele>
        <time>2021-10-14T18:14:44Z</time>
      </trkpt>
      <trkpt lat="43.406328" lon="-4.759194">
        <ele>-41.914</ele>
        <time>2021-10-14T18:14:46Z</time>
      </trkpt>
      <trkpt lat="43.406246" lon="-4.759249">
        <ele>-43.754</ele>
        <time>2021-10-14T18:14:47Z</time>
      </trkpt>
      <trkpt lat="43.406091" lon="-4.759352">
        <ele>-41.109</ele>
        <time>2021-10-14T18:14:49Z</time>
      </trkpt>
      <trkpt lat="43.406014" lon="-4.759400">
        <ele>-41.908</ele>
        <time>2021-10-14T18:14:50Z</time>
      </trkpt>
      <trkpt lat="43.405892" lon="-4.759482">
        <ele>-41.639</ele>
        <time>2021-10-14T18:14:52Z</time>
      </trkpt>
      <trkpt lat="43.405800" lon="-4.759578">
        <ele>-40.717</ele>
        <time>2021-10-14T18:14:54Z</time>
      </trkpt>
      <trkpt lat="43.405763" lon="-4.759645">
        <ele>-41.115</ele>
        <time>2021-10-14T18:14:55Z</time>
      </trkpt>
      <trkpt lat="43.405734" lon="-4.759728">
        <ele>-39.922</ele>
        <time>2021-10-14T18:14:56Z</time>
      </trkpt>
      <trkpt lat="43.405688" lon="-4.759893">
        <ele>-40.645</ele>
        <time>2021-10-14T18:14:58Z</time>
      </trkpt>
      <trkpt lat="43.405650" lon="-4.759965">
        <ele>-40.522</ele>
        <time>2021-10-14T18:14:59Z</time>
      </trkpt>
      <trkpt lat="43.405601" lon="-4.760007">
        <ele>-41.514</ele>
        <time>2021-10-14T18:15:00Z</time>
      </trkpt>
      <trkpt lat="43.405497" lon="-4.760004">
        <ele>-41.513</ele>
        <time>2021-10-14T18:15:02Z</time>
      </trkpt>
      <trkpt lat="43.405382" lon="-4.759957">
        <ele>-40.094</ele>
        <time>2021-10-14T18:15:04Z</time>
      </trkpt>
      <trkpt lat="43.405315" lon="-4.759942">
        <ele>-40.557</ele>
        <time>2021-10-14T18:15:05Z</time>
      </trkpt>
      <trkpt lat="43.405170" lon="-4.759965">
        <ele>-41.522</ele>
        <time>2021-10-14T18:15:07Z</time>
      </trkpt>
      <trkpt lat="43.405092" lon="-4.760000">
        <ele>-42.008</ele>
        <time>2021-10-14T18:15:08Z</time>
      </trkpt>
      <trkpt lat="43.404949" lon="-4.760086">
        <ele>-41.237</ele>
        <time>2021-10-14T18:15:10Z</time>
      </trkpt>
      <trkpt lat="43.404887" lon="-4.760133">
        <ele>-41.965</ele>
        <time>2021-10-14T18:15:11Z</time>
      </trkpt>
      <trkpt lat="43.404792" lon="-4.760235">
        <ele>-41.773</ele>
        <time>2021-10-14T18:15:13Z</time>
      </trkpt>
      <trkpt lat="43.404757" lon="-4.760292">
        <ele>-40.790</ele>
        <time>2021-10-14T18:15:14Z</time>
      </trkpt>
      <trkpt lat="43.404684" lon="-4.760421">
        <ele>-40.523</ele>
        <time>2021-10-14T18:15:16Z</time>
      </trkpt>
      <trkpt lat="43.404582" lon="-4.760467">
        <ele>-40.220</ele>
        <time>2021-10-14T18:15:18Z</time>
      </trkpt>
      <trkpt lat="43.404473" lon="-4.760413">
        <ele>-40.412</ele>
        <time>2021-10-14T18:15:20Z</time>
      </trkpt>
      <trkpt lat="43.404390" lon="-4.760285">
        <ele>-40.631</ele>
        <time>2021-10-14T18:15:22Z</time>
      </trkpt>
      <trkpt lat="43.404358" lon="-4.760190">
        <ele>-39.612</ele>
        <time>2021-10-14T18:15:23Z</time>
      </trkpt>
      <trkpt lat="43.404278" lon="-4.759946">
        <ele>-39.232</ele>
        <time>2021-10-14T18:15:25Z</time>
      </trkpt>
      <trkpt lat="43.404231" lon="-4.759783">
        <ele>-39.005</ele>
        <time>2021-10-14T18:15:26Z</time>
      </trkpt>
      <trkpt lat="43.404183" lon="-4.759376">
        <ele>-41.408</ele>
        <time>2021-10-14T18:15:28Z</time>
      </trkpt>
      <trkpt lat="43.404180" lon="-4.759122">
        <ele>-43.089</ele>
        <time>2021-10-14T18:15:29Z</time>
      </trkpt>
      <trkpt lat="43.404194" lon="-4.758541">
        <ele>-45.057</ele>
        <time>2021-10-14T18:15:31Z</time>
      </trkpt>
      <trkpt lat="43.404196" lon="-4.758210">
        <ele>-47.645</ele>
        <time>2021-10-14T18:15:32Z</time>
      </trkpt>
      <trkpt lat="43.404160" lon="-4.757558">
        <ele>-48.642</ele>
        <time>2021-10-14T18:15:34Z</time>
      </trkpt>
      <trkpt lat="43.404129" lon="-4.757221">
        <ele>-50.245</ele>
        <time>2021-10-14T18:15:35Z</time>
      </trkpt>
      <trkpt lat="43.404098" lon="-4.756880">
        <ele>-48.242</ele>
        <time>2021-10-14T18:15:36Z</time>
      </trkpt>
      <trkpt lat="43.404034" lon="-4.756225">
        <ele>-47.694</ele>
        <time>2021-10-14T18:15:38Z</time>
      </trkpt>
      <trkpt lat="43.403984" lon="-4.755624">
        <ele>-45.023</ele>
        <time>2021-10-14T18:15:40Z</time>
      </trkpt>
      <trkpt lat="43.403960" lon="-4.755341">
        <ele>-43.954</ele>
        <time>2021-10-14T18:15:41Z</time>
      </trkpt>
      <trkpt lat="43.403921" lon="-4.754794">
        <ele>-41.556</ele>
        <time>2021-10-14T18:15:43Z</time>
      </trkpt>
      <trkpt lat="43.403905" lon="-4.754522">
        <ele>-40.211</ele>
        <time>2021-10-14T18:15:44Z</time>
      </trkpt>
      <trkpt lat="43.403877" lon="-4.754013">
        <ele>-37.208</ele>
        <time>2021-10-14T18:15:46Z</time>
      </trkpt>
      <trkpt lat="43.403854" lon="-4.753479">
        <ele>-34.643</ele>
        <time>2021-10-14T18:15:48Z</time>
      </trkpt>
      <trkpt lat="43.403842" lon="-4.752885">
        <ele>-33.641</ele>
        <time>2021-10-14T18:15:50Z</time>
      </trkpt>
      <trkpt lat="43.403831" lon="-4.752269">
        <ele>-32.459</ele>
        <time>2021-10-14T18:15:52Z</time>
      </trkpt>
      <trkpt lat="43.403825" lon="-4.751952">
        <ele>-32.016</ele>
        <time>2021-10-14T18:15:53Z</time>
      </trkpt>
      <trkpt lat="43.403819" lon="-4.751327">
        <ele>-31.929</ele>
        <time>2021-10-14T18:15:55Z</time>
      </trkpt>
      <trkpt lat="43.403815" lon="-4.751015">
        <ele>-32.436</ele>
        <time>2021-10-14T18:15:56Z</time>
      </trkpt>
      <trkpt lat="43.403811" lon="-4.750465">
        <ele>-29.768</ele>
        <time>2021-10-14T18:15:58Z</time>
      </trkpt>
      <trkpt lat="43.403807" lon="-4.749917">
        <ele>-29.197</ele>
        <time>2021-10-14T18:16:00Z</time>
      </trkpt>
      <trkpt lat="43.403802" lon="-4.749370">
        <ele>-28.789</ele>
        <time>2021-10-14T18:16:02Z</time>
      </trkpt>
      <trkpt lat="43.403791" lon="-4.748840">
        <ele>-26.706</ele>
        <time>2021-10-14T18:16:04Z</time>
      </trkpt>
      <trkpt lat="43.403780" lon="-4.748571">
        <ele>-27.526</ele>
        <time>2021-10-14T18:16:05Z</time>
      </trkpt>
      <trkpt lat="43.403728" lon="-4.748031">
        <ele>-27.308</ele>
        <time>2021-10-14T18:16:07Z</time>
      </trkpt>
      <trkpt lat="43.403678" lon="-4.747753">
        <ele>-27.026</ele>
        <time>2021-10-14T18:16:08Z</time>
      </trkpt>
      <trkpt lat="43.403535" lon="-4.747253">
        <ele>-28.154</ele>
        <time>2021-10-14T18:16:10Z</time>
      </trkpt>
      <trkpt lat="43.403449" lon="-4.747008">
        <ele>-26.672</ele>
        <time>2021-10-14T18:16:11Z</time>
      </trkpt>
      <trkpt lat="43.403361" lon="-4.746763">
        <ele>-28.039</ele>
        <time>2021-10-14T18:16:12Z</time>
      </trkpt>
      <trkpt lat="43.403191" lon="-4.746253">
        <ele>-28.692</ele>
        <time>2021-10-14T18:16:14Z</time>
      </trkpt>
      <trkpt lat="43.403088" lon="-4.745724">
        <ele>-27.319</ele>
        <time>2021-10-14T18:16:16Z</time>
      </trkpt>
      <trkpt lat="43.403065" lon="-4.745443">
        <ele>-28.881</ele>
        <time>2021-10-14T18:16:17Z</time>
      </trkpt>
      <trkpt lat="43.403052" lon="-4.745152">
        <ele>-27.860</ele>
        <time>2021-10-14T18:16:18Z</time>
      </trkpt>
      <trkpt lat="43.403050" lon="-4.744531">
        <ele>-28.548</ele>
        <time>2021-10-14T18:16:20Z</time>
      </trkpt>
      <trkpt lat="43.403063" lon="-4.743885">
        <ele>-29.561</ele>
        <time>2021-10-14T18:16:22Z</time>
      </trkpt>
      <trkpt lat="43.403064" lon="-4.743551">
        <ele>-28.317</ele>
        <time>2021-10-14T18:16:23Z</time>
      </trkpt>
      <trkpt lat="43.403059" lon="-4.743226">
        <ele>-28.608</ele>
        <time>2021-10-14T18:16:24Z</time>
      </trkpt>
      <trkpt lat="43.403018" lon="-4.742638">
        <ele>-29.852</ele>
        <time>2021-10-14T18:16:26Z</time>
      </trkpt>
      <trkpt lat="43.402947" lon="-4.742204">
        <ele>-28.160</ele>
        <time>2021-10-14T18:16:28Z</time>
      </trkpt>
      <trkpt lat="43.402911" lon="-4.742043">
        <ele>-28.278</ele>
        <time>2021-10-14T18:16:29Z</time>
      </trkpt>
      <trkpt lat="43.402844" lon="-4.741805">
        <ele>-27.845</ele>
        <time>2021-10-14T18:16:31Z</time>
      </trkpt>
      <trkpt lat="43.402800" lon="-4.741692">
        <ele>-27.798</ele>
        <time>2021-10-14T18:16:32Z</time>
      </trkpt>
      <trkpt lat="43.402665" lon="-4.741490">
        <ele>-29.375</ele>
        <time>2021-10-14T18:16:34Z</time>
      </trkpt>
      <trkpt lat="43.402586" lon="-4.741390">
        <ele>-28.697</ele>
        <time>2021-10-14T18:16:35Z</time>
      </trkpt>
      <trkpt lat="43.402520" lon="-4.741267">
        <ele>-29.066</ele>
        <time>2021-10-14T18:16:36Z</time>
      </trkpt>
      <trkpt lat="43.402431" lon="-4.740930">
        <ele>-28.798</ele>
        <time>2021-10-14T18:16:38Z</time>
      </trkpt>
      <trkpt lat="43.402308" lon="-4.740577">
        <ele>-30.415</ele>
        <time>2021-10-14T18:16:40Z</time>
      </trkpt>
      <trkpt lat="43.402101" lon="-4.740231">
        <ele>-31.826</ele>
        <time>2021-10-14T18:16:42Z</time>
      </trkpt>
      <trkpt lat="43.401851" lon="-4.739845">
        <ele>-32.608</ele>
        <time>2021-10-14T18:16:44Z</time>
      </trkpt>
      <trkpt lat="43.401581" lon="-4.739413">
        <ele>-33.137</ele>
        <time>2021-10-14T18:16:46Z</time>
      </trkpt>
      <trkpt lat="43.401319" lon="-4.738983">
        <ele>-33.625</ele>
        <time>2021-10-14T18:16:48Z</time>
      </trkpt>
      <trkpt lat="43.401066" lon="-4.738568">
        <ele>-34.573</ele>
        <time>2021-10-14T18:16:50Z</time>
      </trkpt>
      <trkpt lat="43.400834" lon="-4.738177">
        <ele>-33.130</ele>
        <time>2021-10-14T18:16:52Z</time>
      </trkpt>
      <trkpt lat="43.400602" lon="-4.737787">
        <ele>-34.433</ele>
        <time>2021-10-14T18:16:54Z</time>
      </trkpt>
      <trkpt lat="43.400485" lon="-4.737591">
        <ele>-35.160</ele>
        <time>2021-10-14T18:16:55Z</time>
      </trkpt>
      <trkpt lat="43.400366" lon="-4.737399">
        <ele>-34.582</ele>
        <time>2021-10-14T18:16:56Z</time>
      </trkpt>
      <trkpt lat="43.400151" lon="-4.737052">
        <ele>-32.091</ele>
        <time>2021-10-14T18:16:58Z</time>
      </trkpt>
      <trkpt lat="43.400049" lon="-4.736887">
        <ele>-33.439</ele>
        <time>2021-10-14T18:16:59Z</time>
      </trkpt>
      <trkpt lat="43.399860" lon="-4.736579">
        <ele>-32.901</ele>
        <time>2021-10-14T18:17:01Z</time>
      </trkpt>
      <trkpt lat="43.399765" lon="-4.736427">
        <ele>-33.521</ele>
        <time>2021-10-14T18:17:02Z</time>
      </trkpt>
      <trkpt lat="43.399589" lon="-4.736134">
        <ele>-33.008</ele>
        <time>2021-10-14T18:17:04Z</time>
      </trkpt>
      <trkpt lat="43.399499" lon="-4.735983">
        <ele>-32.761</ele>
        <time>2021-10-14T18:17:05Z</time>
      </trkpt>
      <trkpt lat="43.399318" lon="-4.735684">
        <ele>-35.489</ele>
        <time>2021-10-14T18:17:07Z</time>
      </trkpt>
      <trkpt lat="43.399226" lon="-4.735531">
        <ele>-32.997</ele>
        <time>2021-10-14T18:17:08Z</time>
      </trkpt>
      <trkpt lat="43.399054" lon="-4.735243">
        <ele>-34.144</ele>
        <time>2021-10-14T18:17:10Z</time>
      </trkpt>
      <trkpt lat="43.398968" lon="-4.735097">
        <ele>-35.927</ele>
        <time>2021-10-14T18:17:11Z</time>
      </trkpt>
      <trkpt lat="43.398794" lon="-4.734798">
        <ele>-35.974</ele>
        <time>2021-10-14T18:17:13Z</time>
      </trkpt>
      <trkpt lat="43.398701" lon="-4.734646">
        <ele>-35.056</ele>
        <time>2021-10-14T18:17:14Z</time>
      </trkpt>
      <trkpt lat="43.398524" lon="-4.734345">
        <ele>-36.015</ele>
        <time>2021-10-14T18:17:16Z</time>
      </trkpt>
      <trkpt lat="43.398436" lon="-4.734182">
        <ele>-37.157</ele>
        <time>2021-10-14T18:17:17Z</time>
      </trkpt>
      <trkpt lat="43.398347" lon="-4.734019">
        <ele>-35.700</ele>
        <time>2021-10-14T18:17:18Z</time>
      </trkpt>
      <trkpt lat="43.398154" lon="-4.733694">
        <ele>-37.020</ele>
        <time>2021-10-14T18:17:20Z</time>
      </trkpt>
      <trkpt lat="43.397963" lon="-4.733387">
        <ele>-35.708</ele>
        <time>2021-10-14T18:17:22Z</time>
      </trkpt>
      <trkpt lat="43.397868" lon="-4.733223">
        <ele>-35.413</ele>
        <time>2021-10-14T18:17:23Z</time>
      </trkpt>
      <trkpt lat="43.397769" lon="-4.733053">
        <ele>-37.221</ele>
        <time>2021-10-14T18:17:24Z</time>
      </trkpt>
      <trkpt lat="43.397664" lon="-4.732879">
        <ele>-35.249</ele>
        <time>2021-10-14T18:17:25Z</time>
      </trkpt>
      <trkpt lat="43.397553" lon="-4.732693">
        <ele>-36.416</ele>
        <time>2021-10-14T18:17:26Z</time>
      </trkpt>
      <trkpt lat="43.397344" lon="-4.732335">
        <ele>-36.179</ele>
        <time>2021-10-14T18:17:28Z</time>
      </trkpt>
      <trkpt lat="43.397241" lon="-4.732165">
        <ele>-35.946</ele>
        <time>2021-10-14T18:17:29Z</time>
      </trkpt>
      <trkpt lat="43.397049" lon="-4.731859">
        <ele>-36.098</ele>
        <time>2021-10-14T18:17:31Z</time>
      </trkpt>
      <trkpt lat="43.396955" lon="-4.731709">
        <ele>-34.657</ele>
        <time>2021-10-14T18:17:32Z</time>
      </trkpt>
      <trkpt lat="43.396776" lon="-4.731419">
        <ele>-35.989</ele>
        <time>2021-10-14T18:17:34Z</time>
      </trkpt>
      <trkpt lat="43.396682" lon="-4.731259">
        <ele>-34.906</ele>
        <time>2021-10-14T18:17:35Z</time>
      </trkpt>
      <trkpt lat="43.396487" lon="-4.730914">
        <ele>-34.126</ele>
        <time>2021-10-14T18:17:37Z</time>
      </trkpt>
      <trkpt lat="43.396381" lon="-4.730732">
        <ele>-33.908</ele>
        <time>2021-10-14T18:17:38Z</time>
      </trkpt>
      <trkpt lat="43.396194" lon="-4.730414">
        <ele>-34.036</ele>
        <time>2021-10-14T18:17:40Z</time>
      </trkpt>
      <trkpt lat="43.396100" lon="-4.730257">
        <ele>-33.484</ele>
        <time>2021-10-14T18:17:41Z</time>
      </trkpt>
      <trkpt lat="43.395901" lon="-4.729931">
        <ele>-33.242</ele>
        <time>2021-10-14T18:17:43Z</time>
      </trkpt>
      <trkpt lat="43.395799" lon="-4.729753">
        <ele>-32.449</ele>
        <time>2021-10-14T18:17:44Z</time>
      </trkpt>
      <trkpt lat="43.395603" lon="-4.729380">
        <ele>-31.982</ele>
        <time>2021-10-14T18:17:46Z</time>
      </trkpt>
      <trkpt lat="43.395511" lon="-4.729174">
        <ele>-32.589</ele>
        <time>2021-10-14T18:17:47Z</time>
      </trkpt>
      <trkpt lat="43.395357" lon="-4.728736">
        <ele>-33.191</ele>
        <time>2021-10-14T18:17:49Z</time>
      </trkpt>
      <trkpt lat="43.395298" lon="-4.728512">
        <ele>-33.210</ele>
        <time>2021-10-14T18:17:50Z</time>
      </trkpt>
      <trkpt lat="43.395223" lon="-4.728088">
        <ele>-33.438</ele>
        <time>2021-10-14T18:17:52Z</time>
      </trkpt>
      <trkpt lat="43.395193" lon="-4.727644">
        <ele>-33.470</ele>
        <time>2021-10-14T18:17:54Z</time>
      </trkpt>
      <trkpt lat="43.395198" lon="-4.727197">
        <ele>-34.417</ele>
        <time>2021-10-14T18:17:56Z</time>
      </trkpt>
      <trkpt lat="43.395238" lon="-4.726787">
        <ele>-34.608</ele>
        <time>2021-10-14T18:17:58Z</time>
      </trkpt>
      <trkpt lat="43.395269" lon="-4.726573">
        <ele>-37.591</ele>
        <time>2021-10-14T18:17:59Z</time>
      </trkpt>
      <trkpt lat="43.395354" lon="-4.726140">
        <ele>-38.149</ele>
        <time>2021-10-14T18:18:01Z</time>
      </trkpt>
      <trkpt lat="43.395405" lon="-4.725894">
        <ele>-37.627</ele>
        <time>2021-10-14T18:18:02Z</time>
      </trkpt>
      <trkpt lat="43.395502" lon="-4.725404">
        <ele>-39.514</ele>
        <time>2021-10-14T18:18:04Z</time>
      </trkpt>
      <trkpt lat="43.395551" lon="-4.725140">
        <ele>-39.587</ele>
        <time>2021-10-14T18:18:05Z</time>
      </trkpt>
      <trkpt lat="43.395659" lon="-4.724584">
        <ele>-40.474</ele>
        <time>2021-10-14T18:18:07Z</time>
      </trkpt>
      <trkpt lat="43.395715" lon="-4.724293">
        <ele>-40.256</ele>
        <time>2021-10-14T18:18:08Z</time>
      </trkpt>
      <trkpt lat="43.395825" lon="-4.723728">
        <ele>-39.255</ele>
        <time>2021-10-14T18:18:10Z</time>
      </trkpt>
      <trkpt lat="43.395945" lon="-4.723117">
        <ele>-42.048</ele>
        <time>2021-10-14T18:18:12Z</time>
      </trkpt>
      <trkpt lat="43.396085" lon="-4.722428">
        <ele>-42.061</ele>
        <time>2021-10-14T18:18:14Z</time>
      </trkpt>
      <trkpt lat="43.396224" lon="-4.721719">
        <ele>-41.917</ele>
        <time>2021-10-14T18:18:16Z</time>
      </trkpt>
      <trkpt lat="43.396349" lon="-4.721034">
        <ele>-44.208</ele>
        <time>2021-10-14T18:18:18Z</time>
      </trkpt>
      <trkpt lat="43.396413" lon="-4.720713">
        <ele>-44.482</ele>
        <time>2021-10-14T18:18:19Z</time>
      </trkpt>
      <trkpt lat="43.396475" lon="-4.720400">
        <ele>-44.930</ele>
        <time>2021-10-14T18:18:20Z</time>
      </trkpt>
      <trkpt lat="43.396584" lon="-4.719843">
        <ele>-46.668</ele>
        <time>2021-10-14T18:18:22Z</time>
      </trkpt>
      <trkpt lat="43.396687" lon="-4.719318">
        <ele>-49.075</ele>
        <time>2021-10-14T18:18:24Z</time>
      </trkpt>
      <trkpt lat="43.396737" lon="-4.719064">
        <ele>-49.028</ele>
        <time>2021-10-14T18:18:25Z</time>
      </trkpt>
      <trkpt lat="43.396785" lon="-4.718818">
        <ele>-50.285</ele>
        <time>2021-10-14T18:18:26Z</time>
      </trkpt>
      <trkpt lat="43.396875" lon="-4.718383">
        <ele>-52.017</ele>
        <time>2021-10-14T18:18:28Z</time>
      </trkpt>
      <trkpt lat="43.396918" lon="-4.718172">
        <ele>-51.656</ele>
        <time>2021-10-14T18:18:29Z</time>
      </trkpt>
      <trkpt lat="43.397000" lon="-4.717765">
        <ele>-53.386</ele>
        <time>2021-10-14T18:18:31Z</time>
      </trkpt>
      <trkpt lat="43.397040" lon="-4.717564">
        <ele>-53.760</ele>
        <time>2021-10-14T18:18:32Z</time>
      </trkpt>
      <trkpt lat="43.397097" lon="-4.717230">
        <ele>-54.526</ele>
        <time>2021-10-14T18:18:34Z</time>
      </trkpt>
      <trkpt lat="43.397112" lon="-4.717118">
        <ele>-54.408</ele>
        <time>2021-10-14T18:18:35Z</time>
      </trkpt>
      <trkpt lat="43.397121" lon="-4.717038">
        <ele>-54.166</ele>
        <time>2021-10-14T18:18:36Z</time>
      </trkpt>
      <trkpt lat="43.397118" lon="-4.716949">
        <ele>-54.044</ele>
        <time>2021-10-14T18:18:38Z</time>
      </trkpt>
      <trkpt lat="43.397101" lon="-4.716776">
        <ele>-52.442</ele>
        <time>2021-10-14T18:18:40Z</time>
      </trkpt>
      <trkpt lat="43.397118" lon="-4.716579">
        <ele>-52.969</ele>
        <time>2021-10-14T18:18:42Z</time>
      </trkpt>
      <trkpt lat="43.397228" lon="-4.716364">
        <ele>-53.672</ele>
        <time>2021-10-14T18:18:44Z</time>
      </trkpt>
      <trkpt lat="43.397339" lon="-4.716082">
        <ele>-51.739</ele>
        <time>2021-10-14T18:18:46Z</time>
      </trkpt>
      <trkpt lat="43.397379" lon="-4.715900">
        <ele>-53.471</ele>
        <time>2021-10-14T18:18:47Z</time>
      </trkpt>
      <trkpt lat="43.397413" lon="-4.715711">
        <ele>-54.080</ele>
        <time>2021-10-14T18:18:48Z</time>
      </trkpt>
      <trkpt lat="43.397444" lon="-4.715518">
        <ele>-55.047</ele>
        <time>2021-10-14T18:18:49Z</time>
      </trkpt>
      <trkpt lat="43.397478" lon="-4.715313">
        <ele>-55.429</ele>
        <time>2021-10-14T18:18:50Z</time>
      </trkpt>
      <trkpt lat="43.397563" lon="-4.714822">
        <ele>-56.221</ele>
        <time>2021-10-14T18:18:52Z</time>
      </trkpt>
      <trkpt lat="43.397602" lon="-4.714516">
        <ele>-55.608</ele>
        <time>2021-10-14T18:18:53Z</time>
      </trkpt>
      <trkpt lat="43.397686" lon="-4.713839">
        <ele>-56.562</ele>
        <time>2021-10-14T18:18:55Z</time>
      </trkpt>
      <trkpt lat="43.397740" lon="-4.713483">
        <ele>-57.010</ele>
        <time>2021-10-14T18:18:56Z</time>
      </trkpt>
      <trkpt lat="43.397838" lon="-4.712829">
        <ele>-58.968</ele>
        <time>2021-10-14T18:18:58Z</time>
      </trkpt>
      <trkpt lat="43.397954" lon="-4.712088">
        <ele>-61.055</ele>
        <time>2021-10-14T18:19:00Z</time>
      </trkpt>
      <trkpt lat="43.398017" lon="-4.711700">
        <ele>-60.658</ele>
        <time>2021-10-14T18:19:01Z</time>
      </trkpt>
      <trkpt lat="43.398092" lon="-4.711305">
        <ele>-63.095</ele>
        <time>2021-10-14T18:19:02Z</time>
      </trkpt>
      <trkpt lat="43.398258" lon="-4.710564">
        <ele>-62.297</ele>
        <time>2021-10-14T18:19:04Z</time>
      </trkpt>
      <trkpt lat="43.398449" lon="-4.709805">
        <ele>-63.426</ele>
        <time>2021-10-14T18:19:06Z</time>
      </trkpt>
      <trkpt lat="43.398547" lon="-4.709426">
        <ele>-63.725</ele>
        <time>2021-10-14T18:19:07Z</time>
      </trkpt>
      <trkpt lat="43.398647" lon="-4.709057">
        <ele>-63.726</ele>
        <time>2021-10-14T18:19:08Z</time>
      </trkpt>
      <trkpt lat="43.398822" lon="-4.708409">
        <ele>-65.208</ele>
        <time>2021-10-14T18:19:10Z</time>
      </trkpt>
      <trkpt lat="43.398969" lon="-4.707819">
        <ele>-64.208</ele>
        <time>2021-10-14T18:19:12Z</time>
      </trkpt>
      <trkpt lat="43.399025" lon="-4.707519">
        <ele>-63.510</ele>
        <time>2021-10-14T18:19:13Z</time>
      </trkpt>
      <trkpt lat="43.399061" lon="-4.707195">
        <ele>-64.528</ele>
        <time>2021-10-14T18:19:14Z</time>
      </trkpt>
      <trkpt lat="43.399065" lon="-4.706520">
        <ele>-61.466</ele>
        <time>2021-10-14T18:19:16Z</time>
      </trkpt>
      <trkpt lat="43.399051" lon="-4.706156">
        <ele>-61.183</ele>
        <time>2021-10-14T18:19:17Z</time>
      </trkpt>
      <trkpt lat="43.399022" lon="-4.705425">
        <ele>-61.556</ele>
        <time>2021-10-14T18:19:19Z</time>
      </trkpt>
      <trkpt lat="43.399010" lon="-4.705063">
        <ele>-61.553</ele>
        <time>2021-10-14T18:19:20Z</time>
      </trkpt>
      <trkpt lat="43.398985" lon="-4.704420">
        <ele>-60.875</ele>
        <time>2021-10-14T18:19:22Z</time>
      </trkpt>
      <trkpt lat="43.398972" lon="-4.704121">
        <ele>-63.234</ele>
        <time>2021-10-14T18:19:23Z</time>
      </trkpt>
      <trkpt lat="43.398958" lon="-4.703831">
        <ele>-61.975</ele>
        <time>2021-10-14T18:19:24Z</time>
      </trkpt>
      <trkpt lat="43.398943" lon="-4.703536">
        <ele>-63.328</ele>
        <time>2021-10-14T18:19:25Z</time>
      </trkpt>
      <trkpt lat="43.398910" lon="-4.703226">
        <ele>-63.120</ele>
        <time>2021-10-14T18:19:26Z</time>
      </trkpt>
      <trkpt lat="43.398764" lon="-4.702626">
        <ele>-65.408</ele>
        <time>2021-10-14T18:19:28Z</time>
      </trkpt>
      <trkpt lat="43.398655" lon="-4.702328">
        <ele>-65.825</ele>
        <time>2021-10-14T18:19:29Z</time>
      </trkpt>
      <trkpt lat="43.398448" lon="-4.701726">
        <ele>-66.733</ele>
        <time>2021-10-14T18:19:31Z</time>
      </trkpt>
      <trkpt lat="43.398378" lon="-4.701389">
        <ele>-67.791</ele>
        <time>2021-10-14T18:19:32Z</time>
      </trkpt>
      <trkpt lat="43.398361" lon="-4.700742">
        <ele>-69.298</ele>
        <time>2021-10-14T18:19:34Z</time>
      </trkpt>
      <trkpt lat="43.398392" lon="-4.700403">
        <ele>-69.591</ele>
        <time>2021-10-14T18:19:35Z</time>
      </trkpt>
      <trkpt lat="43.398446" lon="-4.700048">
        <ele>-68.868</ele>
        <time>2021-10-14T18:19:36Z</time>
      </trkpt>
      <trkpt lat="43.398515" lon="-4.699675">
        <ele>-69.080</ele>
        <time>2021-10-14T18:19:37Z</time>
      </trkpt>
      <trkpt lat="43.398600" lon="-4.699276">
        <ele>-70.299</ele>
        <time>2021-10-14T18:19:38Z</time>
      </trkpt>
      <trkpt lat="43.398771" lon="-4.698519">
        <ele>-69.825</ele>
        <time>2021-10-14T18:19:40Z</time>
      </trkpt>
      <trkpt lat="43.398879" lon="-4.697763">
        <ele>-68.726</ele>
        <time>2021-10-14T18:19:42Z</time>
      </trkpt>
      <trkpt lat="43.398893" lon="-4.697391">
        <ele>-70.908</ele>
        <time>2021-10-14T18:19:43Z</time>
      </trkpt>
      <trkpt lat="43.398872" lon="-4.697018">
        <ele>-68.508</ele>
        <time>2021-10-14T18:19:44Z</time>
      </trkpt>
      <trkpt lat="43.398744" lon="-4.696320">
        <ele>-65.260</ele>
        <time>2021-10-14T18:19:46Z</time>
      </trkpt>
      <trkpt lat="43.398526" lon="-4.695736">
        <ele>-64.838</ele>
        <time>2021-10-14T18:19:48Z</time>
      </trkpt>
      <trkpt lat="43.398396" lon="-4.695463">
        <ele>-63.296</ele>
        <time>2021-10-14T18:19:49Z</time>
      </trkpt>
      <trkpt lat="43.398243" lon="-4.695190">
        <ele>-61.693</ele>
        <time>2021-10-14T18:19:50Z</time>
      </trkpt>
      <trkpt lat="43.397895" lon="-4.694689">
        <ele>-58.636</ele>
        <time>2021-10-14T18:19:52Z</time>
      </trkpt>
      <trkpt lat="43.397702" lon="-4.694435">
        <ele>-57.613</ele>
        <time>2021-10-14T18:19:53Z</time>
      </trkpt>
      <trkpt lat="43.397339" lon="-4.693920">
        <ele>-55.765</ele>
        <time>2021-10-14T18:19:55Z</time>
      </trkpt>
      <trkpt lat="43.397172" lon="-4.693641">
        <ele>-54.794</ele>
        <time>2021-10-14T18:19:56Z</time>
      </trkpt>
      <trkpt lat="43.396919" lon="-4.693067">
        <ele>-52.024</ele>
        <time>2021-10-14T18:19:58Z</time>
      </trkpt>
      <trkpt lat="43.396784" lon="-4.692429">
        <ele>-50.104</ele>
        <time>2021-10-14T18:20:00Z</time>
      </trkpt>
      <trkpt lat="43.396756" lon="-4.692102">
        <ele>-49.514</ele>
        <time>2021-10-14T18:20:01Z</time>
      </trkpt>
      <trkpt lat="43.396751" lon="-4.691762">
        <ele>-48.208</ele>
        <time>2021-10-14T18:20:02Z</time>
      </trkpt>
      <trkpt lat="43.396815" lon="-4.691118">
        <ele>-45.640</ele>
        <time>2021-10-14T18:20:04Z</time>
      </trkpt>
      <trkpt lat="43.396870" lon="-4.690794">
        <ele>-44.028</ele>
        <time>2021-10-14T18:20:05Z</time>
      </trkpt>
      <trkpt lat="43.396931" lon="-4.690477">
        <ele>-42.496</ele>
        <time>2021-10-14T18:20:06Z</time>
      </trkpt>
      <trkpt lat="43.396993" lon="-4.690154">
        <ele>-42.013</ele>
        <time>2021-10-14T18:20:07Z</time>
      </trkpt>
      <trkpt lat="43.397053" lon="-4.689813">
        <ele>-40.626</ele>
        <time>2021-10-14T18:20:08Z</time>
      </trkpt>
      <trkpt lat="43.397175" lon="-4.689129">
        <ele>-39.173</ele>
        <time>2021-10-14T18:20:10Z</time>
      </trkpt>
      <trkpt lat="43.397307" lon="-4.688420">
        <ele>-35.755</ele>
        <time>2021-10-14T18:20:12Z</time>
      </trkpt>
      <trkpt lat="43.397371" lon="-4.688054">
        <ele>-36.564</ele>
        <time>2021-10-14T18:20:13Z</time>
      </trkpt>
      <trkpt lat="43.397414" lon="-4.687673">
        <ele>-36.716</ele>
        <time>2021-10-14T18:20:14Z</time>
      </trkpt>
      <trkpt lat="43.397433" lon="-4.686930">
        <ele>-39.576</ele>
        <time>2021-10-14T18:20:16Z</time>
      </trkpt>
      <trkpt lat="43.397419" lon="-4.686559">
        <ele>-39.913</ele>
        <time>2021-10-14T18:20:17Z</time>
      </trkpt>
      <trkpt lat="43.397395" lon="-4.686189">
        <ele>-41.508</ele>
        <time>2021-10-14T18:20:18Z</time>
      </trkpt>
      <trkpt lat="43.397328" lon="-4.685456">
        <ele>-43.499</ele>
        <time>2021-10-14T18:20:20Z</time>
      </trkpt>
      <trkpt lat="43.397221" lon="-4.684732">
        <ele>-44.077</ele>
        <time>2021-10-14T18:20:22Z</time>
      </trkpt>
      <trkpt lat="43.397160" lon="-4.684356">
        <ele>-44.545</ele>
        <time>2021-10-14T18:20:23Z</time>
      </trkpt>
      <trkpt lat="43.397102" lon="-4.683978">
        <ele>-44.592</ele>
        <time>2021-10-14T18:20:24Z</time>
      </trkpt>
      <trkpt lat="43.397051" lon="-4.683598">
        <ele>-44.085</ele>
        <time>2021-10-14T18:20:25Z</time>
      </trkpt>
      <trkpt lat="43.396999" lon="-4.683201">
        <ele>-44.522</ele>
        <time>2021-10-14T18:20:26Z</time>
      </trkpt>
      <trkpt lat="43.396903" lon="-4.682440">
        <ele>-44.144</ele>
        <time>2021-10-14T18:20:28Z</time>
      </trkpt>
      <trkpt lat="43.396856" lon="-4.682055">
        <ele>-44.533</ele>
        <time>2021-10-14T18:20:29Z</time>
      </trkpt>
      <trkpt lat="43.396763" lon="-4.681283">
        <ele>-44.147</ele>
        <time>2021-10-14T18:20:31Z</time>
      </trkpt>
      <trkpt lat="43.396718" lon="-4.680892">
        <ele>-44.629</ele>
        <time>2021-10-14T18:20:32Z</time>
      </trkpt>
      <trkpt lat="43.396650" lon="-4.680166">
        <ele>-47.621</ele>
        <time>2021-10-14T18:20:34Z</time>
      </trkpt>
      <trkpt lat="43.396577" lon="-4.679415">
        <ele>-47.208</ele>
        <time>2021-10-14T18:20:36Z</time>
      </trkpt>
      <trkpt lat="43.396538" lon="-4.679037">
        <ele>-47.972</ele>
        <time>2021-10-14T18:20:37Z</time>
      </trkpt>
      <trkpt lat="43.396495" lon="-4.678671">
        <ele>-47.760</ele>
        <time>2021-10-14T18:20:38Z</time>
      </trkpt>
      <trkpt lat="43.396414" lon="-4.678023">
        <ele>-47.058</ele>
        <time>2021-10-14T18:20:40Z</time>
      </trkpt>
      <trkpt lat="43.396336" lon="-4.677424">
        <ele>-48.145</ele>
        <time>2021-10-14T18:20:42Z</time>
      </trkpt>
      <trkpt lat="43.396260" lon="-4.676875">
        <ele>-48.488</ele>
        <time>2021-10-14T18:20:44Z</time>
      </trkpt>
      <trkpt lat="43.396203" lon="-4.676396">
        <ele>-48.665</ele>
        <time>2021-10-14T18:20:46Z</time>
      </trkpt>
      <trkpt lat="43.396186" lon="-4.675900">
        <ele>-49.187</ele>
        <time>2021-10-14T18:20:48Z</time>
      </trkpt>
      <trkpt lat="43.396254" lon="-4.675361">
        <ele>-48.486</ele>
        <time>2021-10-14T18:20:50Z</time>
      </trkpt>
      <trkpt lat="43.396351" lon="-4.674795">
        <ele>-48.765</ele>
        <time>2021-10-14T18:20:52Z</time>
      </trkpt>
      <trkpt lat="43.396378" lon="-4.674482">
        <ele>-49.568</ele>
        <time>2021-10-14T18:20:53Z</time>
      </trkpt>
      <trkpt lat="43.396376" lon="-4.674157">
        <ele>-48.714</ele>
        <time>2021-10-14T18:20:54Z</time>
      </trkpt>
      <trkpt lat="43.396264" lon="-4.673483">
        <ele>-48.108</ele>
        <time>2021-10-14T18:20:56Z</time>
      </trkpt>
      <trkpt lat="43.396136" lon="-4.672833">
        <ele>-47.074</ele>
        <time>2021-10-14T18:20:58Z</time>
      </trkpt>
      <trkpt lat="43.396084" lon="-4.672172">
        <ele>-47.062</ele>
        <time>2021-10-14T18:21:00Z</time>
      </trkpt>
      <trkpt lat="43.396131" lon="-4.671516">
        <ele>-46.750</ele>
        <time>2021-10-14T18:21:02Z</time>
      </trkpt>
      <trkpt lat="43.396229" lon="-4.670894">
        <ele>-47.287</ele>
        <time>2021-10-14T18:21:04Z</time>
      </trkpt>
      <trkpt lat="43.396279" lon="-4.670566">
        <ele>-44.790</ele>
        <time>2021-10-14T18:21:05Z</time>
      </trkpt>
      <trkpt lat="43.396358" lon="-4.669923">
        <ele>-44.657</ele>
        <time>2021-10-14T18:21:07Z</time>
      </trkpt>
      <trkpt lat="43.396390" lon="-4.669579">
        <ele>-46.039</ele>
        <time>2021-10-14T18:21:08Z</time>
      </trkpt>
      <trkpt lat="43.396424" lon="-4.668904">
        <ele>-44.698</ele>
        <time>2021-10-14T18:21:10Z</time>
      </trkpt>
      <trkpt lat="43.396418" lon="-4.668562">
        <ele>-47.289</ele>
        <time>2021-10-14T18:21:11Z</time>
      </trkpt>
      <trkpt lat="43.396402" lon="-4.668228">
        <ele>-44.506</ele>
        <time>2021-10-14T18:21:12Z</time>
      </trkpt>
      <trkpt lat="43.396379" lon="-4.667904">
        <ele>-44.926</ele>
        <time>2021-10-14T18:21:13Z</time>
      </trkpt>
      <trkpt lat="43.396351" lon="-4.667612">
        <ele>-43.008</ele>
        <time>2021-10-14T18:21:14Z</time>
      </trkpt>
      <trkpt lat="43.396261" lon="-4.667081">
        <ele>-43.036</ele>
        <time>2021-10-14T18:21:16Z</time>
      </trkpt>
      <trkpt lat="43.396188" lon="-4.666809">
        <ele>-40.944</ele>
        <time>2021-10-14T18:21:17Z</time>
      </trkpt>
      <trkpt lat="43.395997" lon="-4.666274">
        <ele>-38.412</ele>
        <time>2021-10-14T18:21:19Z</time>
      </trkpt>
      <trkpt lat="43.395894" lon="-4.665999">
        <ele>-36.689</ele>
        <time>2021-10-14T18:21:20Z</time>
      </trkpt>
      <trkpt lat="43.395715" lon="-4.665483">
        <ele>-32.922</ele>
        <time>2021-10-14T18:21:22Z</time>
      </trkpt>
      <trkpt lat="43.395635" lon="-4.665235">
        <ele>-31.659</ele>
        <time>2021-10-14T18:21:23Z</time>
      </trkpt>
      <trkpt lat="43.395567" lon="-4.664999">
        <ele>-30.221</ele>
        <time>2021-10-14T18:21:24Z</time>
      </trkpt>
      <trkpt lat="43.395466" lon="-4.664501">
        <ele>-27.040</ele>
        <time>2021-10-14T18:21:26Z</time>
      </trkpt>
      <trkpt lat="43.395424" lon="-4.663972">
        <ele>-24.391</ele>
        <time>2021-10-14T18:21:28Z</time>
      </trkpt>
      <trkpt lat="43.395422" lon="-4.663683">
        <ele>-24.581</ele>
        <time>2021-10-14T18:21:29Z</time>
      </trkpt>
      <trkpt lat="43.395422" lon="-4.663379">
        <ele>-24.319</ele>
        <time>2021-10-14T18:21:30Z</time>
      </trkpt>
      <trkpt lat="43.395424" lon="-4.663061">
        <ele>-21.608</ele>
        <time>2021-10-14T18:21:31Z</time>
      </trkpt>
      <trkpt lat="43.395425" lon="-4.662721">
        <ele>-21.877</ele>
        <time>2021-10-14T18:21:32Z</time>
      </trkpt>
      <trkpt lat="43.395426" lon="-4.662048">
        <ele>-21.055</ele>
        <time>2021-10-14T18:21:34Z</time>
      </trkpt>
      <trkpt lat="43.395426" lon="-4.661713">
        <ele>-24.093</ele>
        <time>2021-10-14T18:21:35Z</time>
      </trkpt>
      <trkpt lat="43.395423" lon="-4.661128">
        <ele>-21.560</ele>
        <time>2021-10-14T18:21:37Z</time>
      </trkpt>
      <trkpt lat="43.395421" lon="-4.660871">
        <ele>-21.643</ele>
        <time>2021-10-14T18:21:38Z</time>
      </trkpt>
      <trkpt lat="43.395415" lon="-4.660459">
        <ele>-22.330</ele>
        <time>2021-10-14T18:21:40Z</time>
      </trkpt>
      <trkpt lat="43.395412" lon="-4.660276">
        <ele>-23.072</ele>
        <time>2021-10-14T18:21:41Z</time>
      </trkpt>
      <trkpt lat="43.395407" lon="-4.659909">
        <ele>-23.131</ele>
        <time>2021-10-14T18:21:43Z</time>
      </trkpt>
      <trkpt lat="43.395406" lon="-4.659716">
        <ele>-22.514</ele>
        <time>2021-10-14T18:21:44Z</time>
      </trkpt>
      <trkpt lat="43.395412" lon="-4.659347">
        <ele>-23.854</ele>
        <time>2021-10-14T18:21:46Z</time>
      </trkpt>
      <trkpt lat="43.395428" lon="-4.658990">
        <ele>-23.309</ele>
        <time>2021-10-14T18:21:48Z</time>
      </trkpt>
      <trkpt lat="43.395439" lon="-4.658811">
        <ele>-23.308</ele>
        <time>2021-10-14T18:21:49Z</time>
      </trkpt>
      <trkpt lat="43.395452" lon="-4.658628">
        <ele>-25.039</ele>
        <time>2021-10-14T18:21:50Z</time>
      </trkpt>
      <trkpt lat="43.395482" lon="-4.658261">
        <ele>-25.937</ele>
        <time>2021-10-14T18:21:52Z</time>
      </trkpt>
      <trkpt lat="43.395520" lon="-4.657909">
        <ele>-25.375</ele>
        <time>2021-10-14T18:21:54Z</time>
      </trkpt>
      <trkpt lat="43.395541" lon="-4.657742">
        <ele>-27.312</ele>
        <time>2021-10-14T18:21:55Z</time>
      </trkpt>
      <trkpt lat="43.395563" lon="-4.657575">
        <ele>-26.855</ele>
        <time>2021-10-14T18:21:56Z</time>
      </trkpt>
      <trkpt lat="43.395600" lon="-4.657277">
        <ele>-28.742</ele>
        <time>2021-10-14T18:21:58Z</time>
      </trkpt>
      <trkpt lat="43.395615" lon="-4.657129">
        <ele>-28.674</ele>
        <time>2021-10-14T18:21:59Z</time>
      </trkpt>
      <trkpt lat="43.395634" lon="-4.656847">
        <ele>-30.553</ele>
        <time>2021-10-14T18:22:01Z</time>
      </trkpt>
      <trkpt lat="43.395634" lon="-4.656720">
        <ele>-30.244</ele>
        <time>2021-10-14T18:22:02Z</time>
      </trkpt>
      <trkpt lat="43.395604" lon="-4.656504">
        <ele>-32.105</ele>
        <time>2021-10-14T18:22:04Z</time>
      </trkpt>
      <trkpt lat="43.395554" lon="-4.656287">
        <ele>-32.415</ele>
        <time>2021-10-14T18:22:06Z</time>
      </trkpt>
      <trkpt lat="43.395552" lon="-4.656187">
        <ele>-34.208</ele>
        <time>2021-10-14T18:22:07Z</time>
      </trkpt>
      <trkpt lat="43.395574" lon="-4.656093">
        <ele>-33.452</ele>
        <time>2021-10-14T18:22:08Z</time>
      </trkpt>
      <trkpt lat="43.395679" lon="-4.655937">
        <ele>-35.150</ele>
        <time>2021-10-14T18:22:10Z</time>
      </trkpt>
      <trkpt lat="43.395826" lon="-4.655744">
        <ele>-37.278</ele>
        <time>2021-10-14T18:22:12Z</time>
      </trkpt>
      <trkpt lat="43.395928" lon="-4.655475">
        <ele>-37.685</ele>
        <time>2021-10-14T18:22:14Z</time>
      </trkpt>
      <trkpt lat="43.395977" lon="-4.655184">
        <ele>-40.138</ele>
        <time>2021-10-14T18:22:16Z</time>
      </trkpt>
      <trkpt lat="43.395994" lon="-4.655034">
        <ele>-42.025</ele>
        <time>2021-10-14T18:22:17Z</time>
      </trkpt>
      <trkpt lat="43.396020" lon="-4.654714">
        <ele>-42.527</ele>
        <time>2021-10-14T18:22:19Z</time>
      </trkpt>
      <trkpt lat="43.396033" lon="-4.654526">
        <ele>-45.436</ele>
        <time>2021-10-14T18:22:20Z</time>
      </trkpt>
      <trkpt lat="43.396060" lon="-4.654173">
        <ele>-45.972</ele>
        <time>2021-10-14T18:22:22Z</time>
      </trkpt>
      <trkpt lat="43.396075" lon="-4.654010">
        <ele>-46.513</ele>
        <time>2021-10-14T18:22:23Z</time>
      </trkpt>
      <trkpt lat="43.396087" lon="-4.653854">
        <ele>-49.414</ele>
        <time>2021-10-14T18:22:24Z</time>
      </trkpt>
      <trkpt lat="43.396101" lon="-4.653541">
        <ele>-51.008</ele>
        <time>2021-10-14T18:22:26Z</time>
      </trkpt>
      <trkpt lat="43.396105" lon="-4.653255">
        <ele>-49.175</ele>
        <time>2021-10-14T18:22:28Z</time>
      </trkpt>
      <trkpt lat="43.396109" lon="-4.653132">
        <ele>-49.773</ele>
        <time>2021-10-14T18:22:29Z</time>
      </trkpt>
      <trkpt lat="43.396119" lon="-4.652969">
        <ele>-49.031</ele>
        <time>2021-10-14T18:22:31Z</time>
      </trkpt>
      <trkpt lat="43.396119" lon="-4.652892">
        <ele>-49.078</ele>
        <time>2021-10-14T18:22:32Z</time>
      </trkpt>
      <trkpt lat="43.396112" lon="-4.652724">
        <ele>-46.581</ele>
        <time>2021-10-14T18:22:34Z</time>
      </trkpt>
      <trkpt lat="43.396158" lon="-4.652515">
        <ele>-47.958</ele>
        <time>2021-10-14T18:22:36Z</time>
      </trkpt>
      <trkpt lat="43.396213" lon="-4.652404">
        <ele>-47.560</ele>
        <time>2021-10-14T18:22:37Z</time>
      </trkpt>
      <trkpt lat="43.396265" lon="-4.652287">
        <ele>-46.059</ele>
        <time>2021-10-14T18:22:38Z</time>
      </trkpt>
      <trkpt lat="43.396283" lon="-4.652022">
        <ele>-47.227</ele>
        <time>2021-10-14T18:22:40Z</time>
      </trkpt>
      <trkpt lat="43.396183" lon="-4.651731">
        <ele>-45.068</ele>
        <time>2021-10-14T18:22:42Z</time>
      </trkpt>
      <trkpt lat="43.396113" lon="-4.651592">
        <ele>-44.414</ele>
        <time>2021-10-14T18:22:43Z</time>
      </trkpt>
      <trkpt lat="43.396034" lon="-4.651452">
        <ele>-45.408</ele>
        <time>2021-10-14T18:22:44Z</time>
      </trkpt>
      <trkpt lat="43.395870" lon="-4.651181">
        <ele>-44.790</ele>
        <time>2021-10-14T18:22:46Z</time>
      </trkpt>
      <trkpt lat="43.395787" lon="-4.651026">
        <ele>-45.498</ele>
        <time>2021-10-14T18:22:47Z</time>
      </trkpt>
      <trkpt lat="43.395706" lon="-4.650870">
        <ele>-44.136</ele>
        <time>2021-10-14T18:22:48Z</time>
      </trkpt>
      <trkpt lat="43.395630" lon="-4.650713">
        <ele>-43.963</ele>
        <time>2021-10-14T18:22:49Z</time>
      </trkpt>
      <trkpt lat="43.395556" lon="-4.650554">
        <ele>-43.456</ele>
        <time>2021-10-14T18:22:50Z</time>
      </trkpt>
      <trkpt lat="43.395417" lon="-4.650213">
        <ele>-43.763</ele>
        <time>2021-10-14T18:22:52Z</time>
      </trkpt>
      <trkpt lat="43.395254" lon="-4.649759">
        <ele>-43.535</ele>
        <time>2021-10-14T18:22:54Z</time>
      </trkpt>
      <trkpt lat="43.395164" lon="-4.649515">
        <ele>-43.084</ele>
        <time>2021-10-14T18:22:55Z</time>
      </trkpt>
      <trkpt lat="43.395061" lon="-4.649235">
        <ele>-40.672</ele>
        <time>2021-10-14T18:22:56Z</time>
      </trkpt>
      <trkpt lat="43.394856" lon="-4.648610">
        <ele>-39.513</ele>
        <time>2021-10-14T18:22:58Z</time>
      </trkpt>
      <trkpt lat="43.394759" lon="-4.648262">
        <ele>-39.614</ele>
        <time>2021-10-14T18:22:59Z</time>
      </trkpt>
      <trkpt lat="43.394672" lon="-4.647940">
        <ele>-38.908</ele>
        <time>2021-10-14T18:23:00Z</time>
      </trkpt>
      <trkpt lat="43.394509" lon="-4.647380">
        <ele>-37.425</ele>
        <time>2021-10-14T18:23:02Z</time>
      </trkpt>
      <trkpt lat="43.394388" lon="-4.646889">
        <ele>-35.123</ele>
        <time>2021-10-14T18:23:04Z</time>
      </trkpt>
      <trkpt lat="43.394280" lon="-4.646380">
        <ele>-32.441</ele>
        <time>2021-10-14T18:23:06Z</time>
      </trkpt>
      <trkpt lat="43.394196" lon="-4.645922">
        <ele>-28.548</ele>
        <time>2021-10-14T18:23:08Z</time>
      </trkpt>
      <trkpt lat="43.394134" lon="-4.645523">
        <ele>-25.511</ele>
        <time>2021-10-14T18:23:10Z</time>
      </trkpt>
      <trkpt lat="43.394075" lon="-4.645113">
        <ele>-23.028</ele>
        <time>2021-10-14T18:23:12Z</time>
      </trkpt>
      <trkpt lat="43.394018" lon="-4.644709">
        <ele>-20.370</ele>
        <time>2021-10-14T18:23:14Z</time>
      </trkpt>
      <trkpt lat="43.393974" lon="-4.644314">
        <ele>-21.519</ele>
        <time>2021-10-14T18:23:16Z</time>
      </trkpt>
      <trkpt lat="43.393956" lon="-4.644104">
        <ele>-18.752</ele>
        <time>2021-10-14T18:23:17Z</time>
      </trkpt>
      <trkpt lat="43.393924" lon="-4.643735">
        <ele>-18.753</ele>
        <time>2021-10-14T18:23:19Z</time>
      </trkpt>
      <trkpt lat="43.393913" lon="-4.643575">
        <ele>-17.108</ele>
        <time>2021-10-14T18:23:20Z</time>
      </trkpt>
      <trkpt lat="43.393895" lon="-4.643269">
        <ele>-16.508</ele>
        <time>2021-10-14T18:23:22Z</time>
      </trkpt>
      <trkpt lat="43.393878" lon="-4.642864">
        <ele>-16.233</ele>
        <time>2021-10-14T18:23:24Z</time>
      </trkpt>
      <trkpt lat="43.393859" lon="-4.642334">
        <ele>-18.111</ele>
        <time>2021-10-14T18:23:26Z</time>
      </trkpt>
      <trkpt lat="43.393840" lon="-4.641707">
        <ele>-18.329</ele>
        <time>2021-10-14T18:23:28Z</time>
      </trkpt>
      <trkpt lat="43.393817" lon="-4.640974">
        <ele>-20.026</ele>
        <time>2021-10-14T18:23:30Z</time>
      </trkpt>
      <trkpt lat="43.393785" lon="-4.640142">
        <ele>-22.869</ele>
        <time>2021-10-14T18:23:32Z</time>
      </trkpt>
      <trkpt lat="43.393746" lon="-4.639291">
        <ele>-21.826</ele>
        <time>2021-10-14T18:23:34Z</time>
      </trkpt>
      <trkpt lat="43.393729" lon="-4.638872">
        <ele>-23.888</ele>
        <time>2021-10-14T18:23:35Z</time>
      </trkpt>
      <trkpt lat="43.393714" lon="-4.638468">
        <ele>-23.867</ele>
        <time>2021-10-14T18:23:36Z</time>
      </trkpt>
      <trkpt lat="43.393704" lon="-4.638069">
        <ele>-25.388</ele>
        <time>2021-10-14T18:23:37Z</time>
      </trkpt>
      <trkpt lat="43.393689" lon="-4.637658">
        <ele>-25.024</ele>
        <time>2021-10-14T18:23:38Z</time>
      </trkpt>
      <trkpt lat="43.393665" lon="-4.636895">
        <ele>-28.826</ele>
        <time>2021-10-14T18:23:40Z</time>
      </trkpt>
      <trkpt lat="43.393652" lon="-4.636503">
        <ele>-27.708</ele>
        <time>2021-10-14T18:23:41Z</time>
      </trkpt>
      <trkpt lat="43.393638" lon="-4.636109">
        <ele>-29.166</ele>
        <time>2021-10-14T18:23:42Z</time>
      </trkpt>
      <trkpt lat="43.393617" lon="-4.635716">
        <ele>-27.634</ele>
        <time>2021-10-14T18:23:43Z</time>
      </trkpt>
      <trkpt lat="43.393579" lon="-4.635316">
        <ele>-29.682</ele>
        <time>2021-10-14T18:23:44Z</time>
      </trkpt>
      <trkpt lat="43.393455" lon="-4.634534">
        <ele>-31.399</ele>
        <time>2021-10-14T18:23:46Z</time>
      </trkpt>
      <trkpt lat="43.393228" lon="-4.633716">
        <ele>-30.842</ele>
        <time>2021-10-14T18:23:48Z</time>
      </trkpt>
      <trkpt lat="43.393127" lon="-4.633329">
        <ele>-32.469</ele>
        <time>2021-10-14T18:23:49Z</time>
      </trkpt>
      <trkpt lat="43.393027" lon="-4.632935">
        <ele>-32.411</ele>
        <time>2021-10-14T18:23:50Z</time>
      </trkpt>
      <trkpt lat="43.392832" lon="-4.632163">
        <ele>-34.180</ele>
        <time>2021-10-14T18:23:52Z</time>
      </trkpt>
      <trkpt lat="43.392678" lon="-4.631339">
        <ele>-36.484</ele>
        <time>2021-10-14T18:23:54Z</time>
      </trkpt>
      <trkpt lat="43.392616" lon="-4.630917">
        <ele>-36.607</ele>
        <time>2021-10-14T18:23:55Z</time>
      </trkpt>
      <trkpt lat="43.392563" lon="-4.630478">
        <ele>-36.917</ele>
        <time>2021-10-14T18:23:56Z</time>
      </trkpt>
      <trkpt lat="43.392482" lon="-4.629638">
        <ele>-37.508</ele>
        <time>2021-10-14T18:23:58Z</time>
      </trkpt>
      <trkpt lat="43.392412" lon="-4.628780">
        <ele>-37.666</ele>
        <time>2021-10-14T18:24:00Z</time>
      </trkpt>
      <trkpt lat="43.392325" lon="-4.627930">
        <ele>-37.094</ele>
        <time>2021-10-14T18:24:02Z</time>
      </trkpt>
      <trkpt lat="43.392237" lon="-4.627143">
        <ele>-36.482</ele>
        <time>2021-10-14T18:24:04Z</time>
      </trkpt>
      <trkpt lat="43.392197" lon="-4.626762">
        <ele>-35.439</ele>
        <time>2021-10-14T18:24:05Z</time>
      </trkpt>
      <trkpt lat="43.392165" lon="-4.626405">
        <ele>-35.232</ele>
        <time>2021-10-14T18:24:06Z</time>
      </trkpt>
      <trkpt lat="43.392127" lon="-4.625718">
        <ele>-34.189</ele>
        <time>2021-10-14T18:24:08Z</time>
      </trkpt>
      <trkpt lat="43.392114" lon="-4.625049">
        <ele>-34.081</ele>
        <time>2021-10-14T18:24:10Z</time>
      </trkpt>
      <trkpt lat="43.392114" lon="-4.624714">
        <ele>-33.520</ele>
        <time>2021-10-14T18:24:11Z</time>
      </trkpt>
      <trkpt lat="43.392117" lon="-4.624382">
        <ele>-34.055</ele>
        <time>2021-10-14T18:24:12Z</time>
      </trkpt>
      <trkpt lat="43.392119" lon="-4.623754">
        <ele>-32.707</ele>
        <time>2021-10-14T18:24:14Z</time>
      </trkpt>
      <trkpt lat="43.392124" lon="-4.623186">
        <ele>-33.717</ele>
        <time>2021-10-14T18:24:16Z</time>
      </trkpt>
      <trkpt lat="43.392132" lon="-4.622608">
        <ele>-33.108</ele>
        <time>2021-10-14T18:24:18Z</time>
      </trkpt>
      <trkpt lat="43.392130" lon="-4.622020">
        <ele>-35.013</ele>
        <time>2021-10-14T18:24:20Z</time>
      </trkpt>
      <trkpt lat="43.392126" lon="-4.621441">
        <ele>-35.421</ele>
        <time>2021-10-14T18:24:22Z</time>
      </trkpt>
      <trkpt lat="43.392126" lon="-4.621141">
        <ele>-36.299</ele>
        <time>2021-10-14T18:24:23Z</time>
      </trkpt>
      <trkpt lat="43.392124" lon="-4.620837">
        <ele>-36.996</ele>
        <time>2021-10-14T18:24:24Z</time>
      </trkpt>
      <trkpt lat="43.392124" lon="-4.620218">
        <ele>-37.619</ele>
        <time>2021-10-14T18:24:26Z</time>
      </trkpt>
      <trkpt lat="43.392126" lon="-4.619684">
        <ele>-38.956</ele>
        <time>2021-10-14T18:24:28Z</time>
      </trkpt>
      <trkpt lat="43.392117" lon="-4.619169">
        <ele>-37.488</ele>
        <time>2021-10-14T18:24:30Z</time>
      </trkpt>
      <trkpt lat="43.392106" lon="-4.618908">
        <ele>-38.197</ele>
        <time>2021-10-14T18:24:31Z</time>
      </trkpt>
      <trkpt lat="43.392089" lon="-4.618638">
        <ele>-37.968</ele>
        <time>2021-10-14T18:24:32Z</time>
      </trkpt>
      <trkpt lat="43.392049" lon="-4.618136">
        <ele>-38.042</ele>
        <time>2021-10-14T18:24:34Z</time>
      </trkpt>
      <trkpt lat="43.392036" lon="-4.617895">
        <ele>-37.026</ele>
        <time>2021-10-14T18:24:35Z</time>
      </trkpt>
      <trkpt lat="43.392031" lon="-4.617663">
        <ele>-37.608</ele>
        <time>2021-10-14T18:24:36Z</time>
      </trkpt>
      <trkpt lat="43.392047" lon="-4.617216">
        <ele>-36.674</ele>
        <time>2021-10-14T18:24:38Z</time>
      </trkpt>
      <trkpt lat="43.392095" lon="-4.616846">
        <ele>-36.072</ele>
        <time>2021-10-14T18:24:40Z</time>
      </trkpt>
      <trkpt lat="43.392148" lon="-4.616511">
        <ele>-36.280</ele>
        <time>2021-10-14T18:24:42Z</time>
      </trkpt>
      <trkpt lat="43.392171" lon="-4.616349">
        <ele>-36.427</ele>
        <time>2021-10-14T18:24:43Z</time>
      </trkpt>
      <trkpt lat="43.392191" lon="-4.616169">
        <ele>-36.620</ele>
        <time>2021-10-14T18:24:44Z</time>
      </trkpt>
      <trkpt lat="43.392197" lon="-4.615781">
        <ele>-36.437</ele>
        <time>2021-10-14T18:24:46Z</time>
      </trkpt>
      <trkpt lat="43.392181" lon="-4.615572">
        <ele>-37.779</ele>
        <time>2021-10-14T18:24:47Z</time>
      </trkpt>
      <trkpt lat="43.392156" lon="-4.615355">
        <ele>-37.478</ele>
        <time>2021-10-14T18:24:48Z</time>
      </trkpt>
      <trkpt lat="43.392125" lon="-4.615131">
        <ele>-35.925</ele>
        <time>2021-10-14T18:24:49Z</time>
      </trkpt>
      <trkpt lat="43.392099" lon="-4.614890">
        <ele>-38.726</ele>
        <time>2021-10-14T18:24:50Z</time>
      </trkpt>
      <trkpt lat="43.392078" lon="-4.614385">
        <ele>-38.508</ele>
        <time>2021-10-14T18:24:52Z</time>
      </trkpt>
      <trkpt lat="43.392084" lon="-4.614094">
        <ele>-41.008</ele>
        <time>2021-10-14T18:24:53Z</time>
      </trkpt>
      <trkpt lat="43.392129" lon="-4.613416">
        <ele>-41.010</ele>
        <time>2021-10-14T18:24:55Z</time>
      </trkpt>
      <trkpt lat="43.392172" lon="-4.613014">
        <ele>-43.038</ele>
        <time>2021-10-14T18:24:56Z</time>
      </trkpt>
      <trkpt lat="43.392278" lon="-4.612165">
        <ele>-44.596</ele>
        <time>2021-10-14T18:24:58Z</time>
      </trkpt>
      <trkpt lat="43.392320" lon="-4.611743">
        <ele>-43.943</ele>
        <time>2021-10-14T18:24:59Z</time>
      </trkpt>
      <trkpt lat="43.392351" lon="-4.611345">
        <ele>-45.476</ele>
        <time>2021-10-14T18:25:00Z</time>
      </trkpt>
      <trkpt lat="43.392421" lon="-4.610600">
        <ele>-44.983</ele>
        <time>2021-10-14T18:25:02Z</time>
      </trkpt>
      <trkpt lat="43.392502" lon="-4.609956">
        <ele>-46.215</ele>
        <time>2021-10-14T18:25:04Z</time>
      </trkpt>
      <trkpt lat="43.392616" lon="-4.609341">
        <ele>-46.244</ele>
        <time>2021-10-14T18:25:06Z</time>
      </trkpt>
      <trkpt lat="43.392755" lon="-4.608723">
        <ele>-46.125</ele>
        <time>2021-10-14T18:25:08Z</time>
      </trkpt>
      <trkpt lat="43.392903" lon="-4.608096">
        <ele>-45.426</ele>
        <time>2021-10-14T18:25:10Z</time>
      </trkpt>
      <trkpt lat="43.393068" lon="-4.607411">
        <ele>-44.408</ele>
        <time>2021-10-14T18:25:12Z</time>
      </trkpt>
      <trkpt lat="43.393221" lon="-4.606672">
        <ele>-43.908</ele>
        <time>2021-10-14T18:25:14Z</time>
      </trkpt>
      <trkpt lat="43.393299" lon="-4.605924">
        <ele>-42.150</ele>
        <time>2021-10-14T18:25:16Z</time>
      </trkpt>
      <trkpt lat="43.393302" lon="-4.605136">
        <ele>-42.068</ele>
        <time>2021-10-14T18:25:18Z</time>
      </trkpt>
      <trkpt lat="43.393262" lon="-4.604317">
        <ele>-41.126</ele>
        <time>2021-10-14T18:25:20Z</time>
      </trkpt>
      <trkpt lat="43.393236" lon="-4.603536">
        <ele>-41.783</ele>
        <time>2021-10-14T18:25:22Z</time>
      </trkpt>
      <trkpt lat="43.393235" lon="-4.603147">
        <ele>-40.126</ele>
        <time>2021-10-14T18:25:23Z</time>
      </trkpt>
      <trkpt lat="43.393244" lon="-4.602388">
        <ele>-40.533</ele>
        <time>2021-10-14T18:25:25Z</time>
      </trkpt>
      <trkpt lat="43.393257" lon="-4.602007">
        <ele>-39.525</ele>
        <time>2021-10-14T18:25:26Z</time>
      </trkpt>
      <trkpt lat="43.393305" lon="-4.601305">
        <ele>-35.584</ele>
        <time>2021-10-14T18:25:28Z</time>
      </trkpt>
      <trkpt lat="43.393338" lon="-4.600945">
        <ele>-37.659</ele>
        <time>2021-10-14T18:25:29Z</time>
      </trkpt>
      <trkpt lat="43.393412" lon="-4.600242">
        <ele>-35.403</ele>
        <time>2021-10-14T18:25:31Z</time>
      </trkpt>
      <trkpt lat="43.393460" lon="-4.599877">
        <ele>-34.723</ele>
        <time>2021-10-14T18:25:32Z</time>
      </trkpt>
      <trkpt lat="43.393563" lon="-4.599159">
        <ele>-34.508</ele>
        <time>2021-10-14T18:25:34Z</time>
      </trkpt>
      <trkpt lat="43.393620" lon="-4.598785">
        <ele>-34.783</ele>
        <time>2021-10-14T18:25:35Z</time>
      </trkpt>
      <trkpt lat="43.393682" lon="-4.598414">
        <ele>-35.591</ele>
        <time>2021-10-14T18:25:36Z</time>
      </trkpt>
      <trkpt lat="43.393826" lon="-4.597681">
        <ele>-32.989</ele>
        <time>2021-10-14T18:25:38Z</time>
      </trkpt>
      <trkpt lat="43.393988" lon="-4.596981">
        <ele>-33.976</ele>
        <time>2021-10-14T18:25:40Z</time>
      </trkpt>
      <trkpt lat="43.394081" lon="-4.596626">
        <ele>-33.799</ele>
        <time>2021-10-14T18:25:41Z</time>
      </trkpt>
      <trkpt lat="43.394174" lon="-4.596270">
        <ele>-32.956</ele>
        <time>2021-10-14T18:25:42Z</time>
      </trkpt>
      <trkpt lat="43.394268" lon="-4.595911">
        <ele>-33.228</ele>
        <time>2021-10-14T18:25:43Z</time>
      </trkpt>
      <trkpt lat="43.394365" lon="-4.595543">
        <ele>-32.727</ele>
        <time>2021-10-14T18:25:44Z</time>
      </trkpt>
      <trkpt lat="43.394548" lon="-4.594819">
        <ele>-33.154</ele>
        <time>2021-10-14T18:25:46Z</time>
      </trkpt>
      <trkpt lat="43.394625" lon="-4.594471">
        <ele>-33.256</ele>
        <time>2021-10-14T18:25:47Z</time>
      </trkpt>
      <trkpt lat="43.394695" lon="-4.594135">
        <ele>-34.411</ele>
        <time>2021-10-14T18:25:48Z</time>
      </trkpt>
      <trkpt lat="43.394759" lon="-4.593809">
        <ele>-34.508</ele>
        <time>2021-10-14T18:25:49Z</time>
      </trkpt>
      <trkpt lat="43.394819" lon="-4.593477">
        <ele>-34.533</ele>
        <time>2021-10-14T18:25:50Z</time>
      </trkpt>
      <trkpt lat="43.394932" lon="-4.592791">
        <ele>-34.051</ele>
        <time>2021-10-14T18:25:52Z</time>
      </trkpt>
      <trkpt lat="43.395029" lon="-4.592071">
        <ele>-35.079</ele>
        <time>2021-10-14T18:25:54Z</time>
      </trkpt>
      <trkpt lat="43.395073" lon="-4.591317">
        <ele>-36.716</ele>
        <time>2021-10-14T18:25:56Z</time>
      </trkpt>
      <trkpt lat="43.395056" lon="-4.590556">
        <ele>-39.229</ele>
        <time>2021-10-14T18:25:58Z</time>
      </trkpt>
      <trkpt lat="43.394972" lon="-4.589771">
        <ele>-41.536</ele>
        <time>2021-10-14T18:26:00Z</time>
      </trkpt>
      <trkpt lat="43.394810" lon="-4.588997">
        <ele>-42.128</ele>
        <time>2021-10-14T18:26:02Z</time>
      </trkpt>
      <trkpt lat="43.394579" lon="-4.588273">
        <ele>-42.637</ele>
        <time>2021-10-14T18:26:04Z</time>
      </trkpt>
      <trkpt lat="43.394438" lon="-4.587922">
        <ele>-43.464</ele>
        <time>2021-10-14T18:26:05Z</time>
      </trkpt>
      <trkpt lat="43.394289" lon="-4.587583">
        <ele>-43.906</ele>
        <time>2021-10-14T18:26:06Z</time>
      </trkpt>
      <trkpt lat="43.393999" lon="-4.586923">
        <ele>-43.916</ele>
        <time>2021-10-14T18:26:08Z</time>
      </trkpt>
      <trkpt lat="43.393726" lon="-4.586296">
        <ele>-41.208</ele>
        <time>2021-10-14T18:26:10Z</time>
      </trkpt>
      <trkpt lat="43.393457" lon="-4.585674">
        <ele>-43.554</ele>
        <time>2021-10-14T18:26:12Z</time>
      </trkpt>
      <trkpt lat="43.393322" lon="-4.585361">
        <ele>-44.622</ele>
        <time>2021-10-14T18:26:13Z</time>
      </trkpt>
      <trkpt lat="43.393182" lon="-4.585044">
        <ele>-44.260</ele>
        <time>2021-10-14T18:26:14Z</time>
      </trkpt>
      <trkpt lat="43.392915" lon="-4.584421">
        <ele>-47.097</ele>
        <time>2021-10-14T18:26:16Z</time>
      </trkpt>
      <trkpt lat="43.392779" lon="-4.584104">
        <ele>-49.070</ele>
        <time>2021-10-14T18:26:17Z</time>
      </trkpt>
      <trkpt lat="43.392529" lon="-4.583502">
        <ele>-49.577</ele>
        <time>2021-10-14T18:26:19Z</time>
      </trkpt>
      <trkpt lat="43.392404" lon="-4.583213">
        <ele>-51.369</ele>
        <time>2021-10-14T18:26:20Z</time>
      </trkpt>
      <trkpt lat="43.392165" lon="-4.582679">
        <ele>-54.058</ele>
        <time>2021-10-14T18:26:22Z</time>
      </trkpt>
      <trkpt lat="43.392042" lon="-4.582426">
        <ele>-54.733</ele>
        <time>2021-10-14T18:26:23Z</time>
      </trkpt>
      <trkpt lat="43.391784" lon="-4.581934">
        <ele>-58.323</ele>
        <time>2021-10-14T18:26:25Z</time>
      </trkpt>
      <trkpt lat="43.391645" lon="-4.581693">
        <ele>-60.015</ele>
        <time>2021-10-14T18:26:26Z</time>
      </trkpt>
      <trkpt lat="43.391395" lon="-4.581256">
        <ele>-62.508</ele>
        <time>2021-10-14T18:26:28Z</time>
      </trkpt>
      <trkpt lat="43.391152" lon="-4.580825">
        <ele>-64.711</ele>
        <time>2021-10-14T18:26:30Z</time>
      </trkpt>
      <trkpt lat="43.390912" lon="-4.580407">
        <ele>-67.499</ele>
        <time>2021-10-14T18:26:32Z</time>
      </trkpt>
      <trkpt lat="43.390684" lon="-4.580022">
        <ele>-69.737</ele>
        <time>2021-10-14T18:26:34Z</time>
      </trkpt>
      <trkpt lat="43.390568" lon="-4.579836">
        <ele>-70.764</ele>
        <time>2021-10-14T18:26:35Z</time>
      </trkpt>
      <trkpt lat="43.390322" lon="-4.579518">
        <ele>-70.777</ele>
        <time>2021-10-14T18:26:37Z</time>
      </trkpt>
      <trkpt lat="43.390178" lon="-4.579383">
        <ele>-71.494</ele>
        <time>2021-10-14T18:26:38Z</time>
      </trkpt>
      <trkpt lat="43.389859" lon="-4.579178">
        <ele>-70.446</ele>
        <time>2021-10-14T18:26:40Z</time>
      </trkpt>
      <trkpt lat="43.389694" lon="-4.579096">
        <ele>-68.725</ele>
        <time>2021-10-14T18:26:41Z</time>
      </trkpt>
      <trkpt lat="43.389529" lon="-4.579022">
        <ele>-67.777</ele>
        <time>2021-10-14T18:26:42Z</time>
      </trkpt>
      <trkpt lat="43.389364" lon="-4.578948">
        <ele>-66.761</ele>
        <time>2021-10-14T18:26:43Z</time>
      </trkpt>
      <trkpt lat="43.389197" lon="-4.578870">
        <ele>-65.827</ele>
        <time>2021-10-14T18:26:44Z</time>
      </trkpt>
      <trkpt lat="43.388876" lon="-4.578669">
        <ele>-64.208</ele>
        <time>2021-10-14T18:26:46Z</time>
      </trkpt>
      <trkpt lat="43.388568" lon="-4.578376">
        <ele>-62.735</ele>
        <time>2021-10-14T18:26:48Z</time>
      </trkpt>
      <trkpt lat="43.388261" lon="-4.577977">
        <ele>-60.453</ele>
        <time>2021-10-14T18:26:50Z</time>
      </trkpt>
      <trkpt lat="43.387952" lon="-4.577521">
        <ele>-59.421</ele>
        <time>2021-10-14T18:26:52Z</time>
      </trkpt>
      <trkpt lat="43.387626" lon="-4.577059">
        <ele>-58.228</ele>
        <time>2021-10-14T18:26:54Z</time>
      </trkpt>
      <trkpt lat="43.387293" lon="-4.576604">
        <ele>-57.431</ele>
        <time>2021-10-14T18:26:56Z</time>
      </trkpt>
      <trkpt lat="43.387002" lon="-4.576161">
        <ele>-55.148</ele>
        <time>2021-10-14T18:26:58Z</time>
      </trkpt>
      <trkpt lat="43.386725" lon="-4.575662">
        <ele>-52.930</ele>
        <time>2021-10-14T18:27:00Z</time>
      </trkpt>
      <trkpt lat="43.386480" lon="-4.575123">
        <ele>-50.789</ele>
        <time>2021-10-14T18:27:02Z</time>
      </trkpt>
      <trkpt lat="43.386275" lon="-4.574596">
        <ele>-49.056</ele>
        <time>2021-10-14T18:27:04Z</time>
      </trkpt>
      <trkpt lat="43.386081" lon="-4.574044">
        <ele>-48.059</ele>
        <time>2021-10-14T18:27:06Z</time>
      </trkpt>
      <trkpt lat="43.385984" lon="-4.573760">
        <ele>-46.714</ele>
        <time>2021-10-14T18:27:07Z</time>
      </trkpt>
      <trkpt lat="43.385888" lon="-4.573466">
        <ele>-45.608</ele>
        <time>2021-10-14T18:27:08Z</time>
      </trkpt>
      <trkpt lat="43.385716" lon="-4.572878">
        <ele>-45.653</ele>
        <time>2021-10-14T18:27:10Z</time>
      </trkpt>
      <trkpt lat="43.385631" lon="-4.572568">
        <ele>-45.281</ele>
        <time>2021-10-14T18:27:11Z</time>
      </trkpt>
      <trkpt lat="43.385468" lon="-4.571933">
        <ele>-44.599</ele>
        <time>2021-10-14T18:27:13Z</time>
      </trkpt>
      <trkpt lat="43.385385" lon="-4.571605">
        <ele>-43.556</ele>
        <time>2021-10-14T18:27:14Z</time>
      </trkpt>
      <trkpt lat="43.385222" lon="-4.570969">
        <ele>-41.539</ele>
        <time>2021-10-14T18:27:16Z</time>
      </trkpt>
      <trkpt lat="43.385050" lon="-4.570330">
        <ele>-41.226</ele>
        <time>2021-10-14T18:27:18Z</time>
      </trkpt>
      <trkpt lat="43.384851" lon="-4.569704">
        <ele>-41.558</ele>
        <time>2021-10-14T18:27:20Z</time>
      </trkpt>
      <trkpt lat="43.384641" lon="-4.569100">
        <ele>-40.137</ele>
        <time>2021-10-14T18:27:22Z</time>
      </trkpt>
      <trkpt lat="43.384534" lon="-4.568793">
        <ele>-41.467</ele>
        <time>2021-10-14T18:27:23Z</time>
      </trkpt>
      <trkpt lat="43.384321" lon="-4.568182">
        <ele>-40.581</ele>
        <time>2021-10-14T18:27:25Z</time>
      </trkpt>
      <trkpt lat="43.384213" lon="-4.567866">
        <ele>-40.019</ele>
        <time>2021-10-14T18:27:26Z</time>
      </trkpt>
      <trkpt lat="43.384018" lon="-4.567278">
        <ele>-40.008</ele>
        <time>2021-10-14T18:27:28Z</time>
      </trkpt>
      <trkpt lat="43.383928" lon="-4.567001">
        <ele>-37.674</ele>
        <time>2021-10-14T18:27:29Z</time>
      </trkpt>
      <trkpt lat="43.383853" lon="-4.566767">
        <ele>-39.922</ele>
        <time>2021-10-14T18:27:30Z</time>
      </trkpt>
      <trkpt lat="43.383737" lon="-4.566490">
        <ele>-36.980</ele>
        <time>2021-10-14T18:27:32Z</time>
      </trkpt>
      <trkpt lat="43.383618" lon="-4.566410">
        <ele>-35.987</ele>
        <time>2021-10-14T18:27:34Z</time>
      </trkpt>
      <trkpt lat="43.383538" lon="-4.566407">
        <ele>-35.550</ele>
        <time>2021-10-14T18:27:35Z</time>
      </trkpt>
      <trkpt lat="43.383373" lon="-4.566408">
        <ele>-34.427</ele>
        <time>2021-10-14T18:27:37Z</time>
      </trkpt>
      <trkpt lat="43.383288" lon="-4.566374">
        <ele>-35.459</ele>
        <time>2021-10-14T18:27:38Z</time>
      </trkpt>
      <trkpt lat="43.383148" lon="-4.566202">
        <ele>-36.268</ele>
        <time>2021-10-14T18:27:40Z</time>
      </trkpt>
      <trkpt lat="43.383082" lon="-4.566075">
        <ele>-35.446</ele>
        <time>2021-10-14T18:27:41Z</time>
      </trkpt>
      <trkpt lat="43.382910" lon="-4.565861">
        <ele>-35.488</ele>
        <time>2021-10-14T18:27:43Z</time>
      </trkpt>
      <trkpt lat="43.382808" lon="-4.565771">
        <ele>-35.916</ele>
        <time>2021-10-14T18:27:44Z</time>
      </trkpt>
      <trkpt lat="43.382563" lon="-4.565646">
        <ele>-36.108</ele>
        <time>2021-10-14T18:27:46Z</time>
      </trkpt>
      <trkpt lat="43.382419" lon="-4.565609">
        <ele>-33.952</ele>
        <time>2021-10-14T18:27:47Z</time>
      </trkpt>
      <trkpt lat="43.382172" lon="-4.565609">
        <ele>-33.710</ele>
        <time>2021-10-14T18:27:49Z</time>
      </trkpt>
      <trkpt lat="43.382073" lon="-4.565650">
        <ele>-33.788</ele>
        <time>2021-10-14T18:27:50Z</time>
      </trkpt>
      <trkpt lat="43.381912" lon="-4.565682">
        <ele>-33.415</ele>
        <time>2021-10-14T18:27:52Z</time>
      </trkpt>
      <trkpt lat="43.381845" lon="-4.565638">
        <ele>-35.488</ele>
        <time>2021-10-14T18:27:53Z</time>
      </trkpt>
      <trkpt lat="43.381797" lon="-4.565552">
        <ele>-33.085</ele>
        <time>2021-10-14T18:27:54Z</time>
      </trkpt>
      <trkpt lat="43.381796" lon="-4.565300">
        <ele>-33.677</ele>
        <time>2021-10-14T18:27:56Z</time>
      </trkpt>
      <trkpt lat="43.381931" lon="-4.565111">
        <ele>-34.446</ele>
        <time>2021-10-14T18:27:58Z</time>
      </trkpt>
      <trkpt lat="43.382040" lon="-4.565039">
        <ele>-34.187</ele>
        <time>2021-10-14T18:27:59Z</time>
      </trkpt>
      <trkpt lat="43.382240" lon="-4.564817">
        <ele>-31.942</ele>
        <time>2021-10-14T18:28:01Z</time>
      </trkpt>
      <trkpt lat="43.382310" lon="-4.564634">
        <ele>-31.826</ele>
        <time>2021-10-14T18:28:02Z</time>
      </trkpt>
      <trkpt lat="43.382393" lon="-4.564172">
        <ele>-30.508</ele>
        <time>2021-10-14T18:28:04Z</time>
      </trkpt>
      <trkpt lat="43.382429" lon="-4.563622">
        <ele>-28.086</ele>
        <time>2021-10-14T18:28:06Z</time>
      </trkpt>
      <trkpt lat="43.382419" lon="-4.563321">
        <ele>-27.274</ele>
        <time>2021-10-14T18:28:07Z</time>
      </trkpt>
      <trkpt lat="43.382395" lon="-4.563005">
        <ele>-28.122</ele>
        <time>2021-10-14T18:28:08Z</time>
      </trkpt>
      <trkpt lat="43.382332" lon="-4.562454">
        <ele>-25.179</ele>
        <time>2021-10-14T18:28:10Z</time>
      </trkpt>
      <trkpt lat="43.382304" lon="-4.562202">
        <ele>-24.542</ele>
        <time>2021-10-14T18:28:11Z</time>
      </trkpt>
      <trkpt lat="43.382251" lon="-4.561747">
        <ele>-24.199</ele>
        <time>2021-10-14T18:28:13Z</time>
      </trkpt>
      <trkpt lat="43.382227" lon="-4.561519">
        <ele>-24.051</ele>
        <time>2021-10-14T18:28:14Z</time>
      </trkpt>
      <trkpt lat="43.382177" lon="-4.561069">
        <ele>-22.550</ele>
        <time>2021-10-14T18:28:16Z</time>
      </trkpt>
      <trkpt lat="43.382153" lon="-4.560836">
        <ele>-21.635</ele>
        <time>2021-10-14T18:28:17Z</time>
      </trkpt>
      <trkpt lat="43.382131" lon="-4.560603">
        <ele>-21.386</ele>
        <time>2021-10-14T18:28:18Z</time>
      </trkpt>
      <trkpt lat="43.382086" lon="-4.560144">
        <ele>-19.314</ele>
        <time>2021-10-14T18:28:20Z</time>
      </trkpt>
      <trkpt lat="43.382037" lon="-4.559696">
        <ele>-19.808</ele>
        <time>2021-10-14T18:28:22Z</time>
      </trkpt>
      <trkpt lat="43.382015" lon="-4.559476">
        <ele>-19.331</ele>
        <time>2021-10-14T18:28:23Z</time>
      </trkpt>
      <trkpt lat="43.381973" lon="-4.559055">
        <ele>-19.529</ele>
        <time>2021-10-14T18:28:25Z</time>
      </trkpt>
      <trkpt lat="43.381951" lon="-4.558839">
        <ele>-18.017</ele>
        <time>2021-10-14T18:28:26Z</time>
      </trkpt>
      <trkpt lat="43.381903" lon="-4.558414">
        <ele>-20.314</ele>
        <time>2021-10-14T18:28:28Z</time>
      </trkpt>
      <trkpt lat="43.381870" lon="-4.558186">
        <ele>-21.817</ele>
        <time>2021-10-14T18:28:29Z</time>
      </trkpt>
      <trkpt lat="43.381781" lon="-4.557718">
        <ele>-21.514</ele>
        <time>2021-10-14T18:28:31Z</time>
      </trkpt>
      <trkpt lat="43.381724" lon="-4.557471">
        <ele>-22.316</ele>
        <time>2021-10-14T18:28:32Z</time>
      </trkpt>
      <trkpt lat="43.381594" lon="-4.556983">
        <ele>-26.265</ele>
        <time>2021-10-14T18:28:34Z</time>
      </trkpt>
      <trkpt lat="43.381441" lon="-4.556475">
        <ele>-26.388</ele>
        <time>2021-10-14T18:28:36Z</time>
      </trkpt>
      <trkpt lat="43.381281" lon="-4.555960">
        <ele>-26.424</ele>
        <time>2021-10-14T18:28:38Z</time>
      </trkpt>
      <trkpt lat="43.381129" lon="-4.555499">
        <ele>-25.726</ele>
        <time>2021-10-14T18:28:40Z</time>
      </trkpt>
      <trkpt lat="43.380997" lon="-4.555087">
        <ele>-25.308</ele>
        <time>2021-10-14T18:28:42Z</time>
      </trkpt>
      <trkpt lat="43.380883" lon="-4.554730">
        <ele>-24.176</ele>
        <time>2021-10-14T18:28:44Z</time>
      </trkpt>
      <trkpt lat="43.380779" lon="-4.554390">
        <ele>-23.864</ele>
        <time>2021-10-14T18:28:46Z</time>
      </trkpt>
      <trkpt lat="43.380675" lon="-4.554047">
        <ele>-21.862</ele>
        <time>2021-10-14T18:28:48Z</time>
      </trkpt>
      <trkpt lat="43.380624" lon="-4.553885">
        <ele>-19.099</ele>
        <time>2021-10-14T18:28:49Z</time>
      </trkpt>
      <trkpt lat="43.380575" lon="-4.553730">
        <ele>-19.032</ele>
        <time>2021-10-14T18:28:50Z</time>
      </trkpt>
      <trkpt lat="43.380502" lon="-4.553506">
        <ele>-18.689</ele>
        <time>2021-10-14T18:28:52Z</time>
      </trkpt>
      <trkpt lat="43.380463" lon="-4.553374">
        <ele>-18.561</ele>
        <time>2021-10-14T18:28:53Z</time>
      </trkpt>
      <trkpt lat="43.380373" lon="-4.553065">
        <ele>-18.570</ele>
        <time>2021-10-14T18:28:55Z</time>
      </trkpt>
      <trkpt lat="43.380320" lon="-4.552891">
        <ele>-18.049</ele>
        <time>2021-10-14T18:28:56Z</time>
      </trkpt>
      <trkpt lat="43.380198" lon="-4.552515">
        <ele>-14.102</ele>
        <time>2021-10-14T18:28:58Z</time>
      </trkpt>
      <trkpt lat="43.380130" lon="-4.552303">
        <ele>-13.922</ele>
        <time>2021-10-14T18:28:59Z</time>
      </trkpt>
      <trkpt lat="43.380003" lon="-4.551893">
        <ele>-13.508</ele>
        <time>2021-10-14T18:29:01Z</time>
      </trkpt>
      <trkpt lat="43.379946" lon="-4.551685">
        <ele>-10.752</ele>
        <time>2021-10-14T18:29:02Z</time>
      </trkpt>
      <trkpt lat="43.379843" lon="-4.551263">
        <ele>-10.880</ele>
        <time>2021-10-14T18:29:04Z</time>
      </trkpt>
      <trkpt lat="43.379752" lon="-4.550790">
        <ele>-9.338</ele>
        <time>2021-10-14T18:29:06Z</time>
      </trkpt>
      <trkpt lat="43.379664" lon="-4.550249">
        <ele>-9.135</ele>
        <time>2021-10-14T18:29:08Z</time>
      </trkpt>
      <trkpt lat="43.379562" lon="-4.549660">
        <ele>-10.928</ele>
        <time>2021-10-14T18:29:10Z</time>
      </trkpt>
      <trkpt lat="43.379508" lon="-4.549353">
        <ele>-11.525</ele>
        <time>2021-10-14T18:29:11Z</time>
      </trkpt>
      <trkpt lat="43.379456" lon="-4.549056">
        <ele>-11.787</ele>
        <time>2021-10-14T18:29:12Z</time>
      </trkpt>
      <trkpt lat="43.379347" lon="-4.548488">
        <ele>-12.366</ele>
        <time>2021-10-14T18:29:14Z</time>
      </trkpt>
      <trkpt lat="43.379234" lon="-4.547919">
        <ele>-13.334</ele>
        <time>2021-10-14T18:29:16Z</time>
      </trkpt>
      <trkpt lat="43.379170" lon="-4.547622">
        <ele>-14.055</ele>
        <time>2021-10-14T18:29:17Z</time>
      </trkpt>
      <trkpt lat="43.379034" lon="-4.547016">
        <ele>-16.510</ele>
        <time>2021-10-14T18:29:19Z</time>
      </trkpt>
      <trkpt lat="43.378960" lon="-4.546711">
        <ele>-16.608</ele>
        <time>2021-10-14T18:29:20Z</time>
      </trkpt>
      <trkpt lat="43.378812" lon="-4.546131">
        <ele>-18.551</ele>
        <time>2021-10-14T18:29:22Z</time>
      </trkpt>
      <trkpt lat="43.378649" lon="-4.545557">
        <ele>-20.029</ele>
        <time>2021-10-14T18:29:24Z</time>
      </trkpt>
      <trkpt lat="43.378565" lon="-4.545266">
        <ele>-19.857</ele>
        <time>2021-10-14T18:29:25Z</time>
      </trkpt>
      <trkpt lat="43.378481" lon="-4.544975">
        <ele>-21.084</ele>
        <time>2021-10-14T18:29:26Z</time>
      </trkpt>
      <trkpt lat="43.378336" lon="-4.544437">
        <ele>-22.867</ele>
        <time>2021-10-14T18:29:28Z</time>
      </trkpt>
      <trkpt lat="43.378277" lon="-4.544162">
        <ele>-21.834</ele>
        <time>2021-10-14T18:29:29Z</time>
      </trkpt>
      <trkpt lat="43.378207" lon="-4.543595">
        <ele>-23.396</ele>
        <time>2021-10-14T18:29:31Z</time>
      </trkpt>
      <trkpt lat="43.378184" lon="-4.543293">
        <ele>-23.665</ele>
        <time>2021-10-14T18:29:32Z</time>
      </trkpt>
      <trkpt lat="43.378115" lon="-4.542682">
        <ele>-24.556</ele>
        <time>2021-10-14T18:29:34Z</time>
      </trkpt>
      <trkpt lat="43.377995" lon="-4.542055">
        <ele>-27.059</ele>
        <time>2021-10-14T18:29:36Z</time>
      </trkpt>
      <trkpt lat="43.377930" lon="-4.541739">
        <ele>-26.814</ele>
        <time>2021-10-14T18:29:37Z</time>
      </trkpt>
      <trkpt lat="43.377864" lon="-4.541419">
        <ele>-27.408</ele>
        <time>2021-10-14T18:29:38Z</time>
      </trkpt>
      <trkpt lat="43.377733" lon="-4.540788">
        <ele>-29.073</ele>
        <time>2021-10-14T18:29:40Z</time>
      </trkpt>
      <trkpt lat="43.377593" lon="-4.540133">
        <ele>-30.561</ele>
        <time>2021-10-14T18:29:42Z</time>
      </trkpt>
      <trkpt lat="43.377519" lon="-4.539803">
        <ele>-33.649</ele>
        <time>2021-10-14T18:29:43Z</time>
      </trkpt>
      <trkpt lat="43.377440" lon="-4.539467">
        <ele>-31.466</ele>
        <time>2021-10-14T18:29:44Z</time>
      </trkpt>
      <trkpt lat="43.377291" lon="-4.538826">
        <ele>-33.739</ele>
        <time>2021-10-14T18:29:46Z</time>
      </trkpt>
      <trkpt lat="43.377215" lon="-4.538514">
        <ele>-32.736</ele>
        <time>2021-10-14T18:29:47Z</time>
      </trkpt>
      <trkpt lat="43.377146" lon="-4.538231">
        <ele>-33.168</ele>
        <time>2021-10-14T18:29:48Z</time>
      </trkpt>
      <trkpt lat="43.377013" lon="-4.537697">
        <ele>-33.927</ele>
        <time>2021-10-14T18:29:50Z</time>
      </trkpt>
      <trkpt lat="43.376879" lon="-4.537189">
        <ele>-34.217</ele>
        <time>2021-10-14T18:29:52Z</time>
      </trkpt>
      <trkpt lat="43.376807" lon="-4.536916">
        <ele>-33.687</ele>
        <time>2021-10-14T18:29:53Z</time>
      </trkpt>
      <trkpt lat="43.376731" lon="-4.536633">
        <ele>-33.615</ele>
        <time>2021-10-14T18:29:54Z</time>
      </trkpt>
      <trkpt lat="43.376655" lon="-4.536344">
        <ele>-35.208</ele>
        <time>2021-10-14T18:29:55Z</time>
      </trkpt>
      <trkpt lat="43.376577" lon="-4.536042">
        <ele>-35.419</ele>
        <time>2021-10-14T18:29:56Z</time>
      </trkpt>
      <trkpt lat="43.376437" lon="-4.535461">
        <ele>-36.597</ele>
        <time>2021-10-14T18:29:58Z</time>
      </trkpt>
      <trkpt lat="43.376371" lon="-4.535160">
        <ele>-37.545</ele>
        <time>2021-10-14T18:29:59Z</time>
      </trkpt>
      <trkpt lat="43.376253" lon="-4.534544">
        <ele>-39.212</ele>
        <time>2021-10-14T18:30:01Z</time>
      </trkpt>
      <trkpt lat="43.376193" lon="-4.534204">
        <ele>-40.295</ele>
        <time>2021-10-14T18:30:02Z</time>
      </trkpt>
      <trkpt lat="43.376083" lon="-4.533523">
        <ele>-42.972</ele>
        <time>2021-10-14T18:30:04Z</time>
      </trkpt>
      <trkpt lat="43.375987" lon="-4.532775">
        <ele>-45.544</ele>
        <time>2021-10-14T18:30:06Z</time>
      </trkpt>
      <trkpt lat="43.375950" lon="-4.532390">
        <ele>-47.633</ele>
        <time>2021-10-14T18:30:07Z</time>
      </trkpt>
      <trkpt lat="43.375923" lon="-4.531998">
        <ele>-49.072</ele>
        <time>2021-10-14T18:30:08Z</time>
      </trkpt>
      <trkpt lat="43.375885" lon="-4.531242">
        <ele>-47.213</ele>
        <time>2021-10-14T18:30:10Z</time>
      </trkpt>
      <trkpt lat="43.375865" lon="-4.530870">
        <ele>-48.414</ele>
        <time>2021-10-14T18:30:11Z</time>
      </trkpt>
      <trkpt lat="43.375847" lon="-4.530514">
        <ele>-48.708</ele>
        <time>2021-10-14T18:30:12Z</time>
      </trkpt>
      <trkpt lat="43.375827" lon="-4.529826">
        <ele>-49.645</ele>
        <time>2021-10-14T18:30:14Z</time>
      </trkpt>
      <trkpt lat="43.375802" lon="-4.529165">
        <ele>-51.033</ele>
        <time>2021-10-14T18:30:16Z</time>
      </trkpt>
      <trkpt lat="43.375742" lon="-4.528470">
        <ele>-55.771</ele>
        <time>2021-10-14T18:30:18Z</time>
      </trkpt>
      <trkpt lat="43.375702" lon="-4.527757">
        <ele>-55.918</ele>
        <time>2021-10-14T18:30:20Z</time>
      </trkpt>
      <trkpt lat="43.375754" lon="-4.527042">
        <ele>-59.661</ele>
        <time>2021-10-14T18:30:22Z</time>
      </trkpt>
      <trkpt lat="43.375898" lon="-4.526331">
        <ele>-61.158</ele>
        <time>2021-10-14T18:30:24Z</time>
      </trkpt>
      <trkpt lat="43.376047" lon="-4.525610">
        <ele>-63.320</ele>
        <time>2021-10-14T18:30:26Z</time>
      </trkpt>
      <trkpt lat="43.376138" lon="-4.524945">
        <ele>-65.579</ele>
        <time>2021-10-14T18:30:28Z</time>
      </trkpt>
      <trkpt lat="43.376164" lon="-4.524627">
        <ele>-65.554</ele>
        <time>2021-10-14T18:30:29Z</time>
      </trkpt>
      <trkpt lat="43.376213" lon="-4.524033">
        <ele>-67.756</ele>
        <time>2021-10-14T18:30:31Z</time>
      </trkpt>
      <trkpt lat="43.376247" lon="-4.523746">
        <ele>-66.811</ele>
        <time>2021-10-14T18:30:32Z</time>
      </trkpt>
      <trkpt lat="43.376348" lon="-4.523213">
        <ele>-67.708</ele>
        <time>2021-10-14T18:30:34Z</time>
      </trkpt>
      <trkpt lat="43.376422" lon="-4.522944">
        <ele>-68.993</ele>
        <time>2021-10-14T18:30:35Z</time>
      </trkpt>
      <trkpt lat="43.376621" lon="-4.522411">
        <ele>-68.391</ele>
        <time>2021-10-14T18:30:37Z</time>
      </trkpt>
      <trkpt lat="43.376737" lon="-4.522144">
        <ele>-70.419</ele>
        <time>2021-10-14T18:30:38Z</time>
      </trkpt>
      <trkpt lat="43.376972" lon="-4.521611">
        <ele>-70.096</ele>
        <time>2021-10-14T18:30:40Z</time>
      </trkpt>
      <trkpt lat="43.377072" lon="-4.521348">
        <ele>-71.729</ele>
        <time>2021-10-14T18:30:41Z</time>
      </trkpt>
      <trkpt lat="43.377208" lon="-4.520929">
        <ele>-72.536</ele>
        <time>2021-10-14T18:30:43Z</time>
      </trkpt>
      <trkpt lat="43.377238" lon="-4.520776">
        <ele>-72.538</ele>
        <time>2021-10-14T18:30:44Z</time>
      </trkpt>
      <trkpt lat="43.377226" lon="-4.520510">
        <ele>-74.057</ele>
        <time>2021-10-14T18:30:46Z</time>
      </trkpt>
      <trkpt lat="43.377162" lon="-4.520272">
        <ele>-75.373</ele>
        <time>2021-10-14T18:30:48Z</time>
      </trkpt>
      <trkpt lat="43.377109" lon="-4.520156">
        <ele>-75.485</ele>
        <time>2021-10-14T18:30:49Z</time>
      </trkpt>
      <trkpt lat="43.377055" lon="-4.520048">
        <ele>-77.213</ele>
        <time>2021-10-14T18:30:50Z</time>
      </trkpt>
      <trkpt lat="43.376962" lon="-4.519879">
        <ele>-76.708</ele>
        <time>2021-10-14T18:30:52Z</time>
      </trkpt>
      <trkpt lat="43.376917" lon="-4.519791">
        <ele>-76.735</ele>
        <time>2021-10-14T18:30:53Z</time>
      </trkpt>
      <trkpt lat="43.376818" lon="-4.519591">
        <ele>-78.473</ele>
        <time>2021-10-14T18:30:55Z</time>
      </trkpt>
      <trkpt lat="43.376757" lon="-4.519470">
        <ele>-79.021</ele>
        <time>2021-10-14T18:30:56Z</time>
      </trkpt>
      <trkpt lat="43.376610" lon="-4.519244">
        <ele>-79.718</ele>
        <time>2021-10-14T18:30:58Z</time>
      </trkpt>
      <trkpt lat="43.376526" lon="-4.519144">
        <ele>-79.721</ele>
        <time>2021-10-14T18:30:59Z</time>
      </trkpt>
      <trkpt lat="43.376369" lon="-4.518984">
        <ele>-78.438</ele>
        <time>2021-10-14T18:31:01Z</time>
      </trkpt>
      <trkpt lat="43.376293" lon="-4.518926">
        <ele>-80.730</ele>
        <time>2021-10-14T18:31:02Z</time>
      </trkpt>
      <trkpt lat="43.376146" lon="-4.518864">
        <ele>-78.929</ele>
        <time>2021-10-14T18:31:04Z</time>
      </trkpt>
      <trkpt lat="43.376072" lon="-4.518857">
        <ele>-80.775</ele>
        <time>2021-10-14T18:31:05Z</time>
      </trkpt>
      <trkpt lat="43.375923" lon="-4.518909">
        <ele>-81.428</ele>
        <time>2021-10-14T18:31:07Z</time>
      </trkpt>
      <trkpt lat="43.375835" lon="-4.518954">
        <ele>-80.920</ele>
        <time>2021-10-14T18:31:08Z</time>
      </trkpt>
      <trkpt lat="43.375673" lon="-4.519039">
        <ele>-82.508</ele>
        <time>2021-10-14T18:31:10Z</time>
      </trkpt>
      <trkpt lat="43.375591" lon="-4.519072">
        <ele>-82.035</ele>
        <time>2021-10-14T18:31:11Z</time>
      </trkpt>
      <trkpt lat="43.375510" lon="-4.519101">
        <ele>-80.993</ele>
        <time>2021-10-14T18:31:12Z</time>
      </trkpt>
      <trkpt lat="43.375353" lon="-4.519130">
        <ele>-81.431</ele>
        <time>2021-10-14T18:31:14Z</time>
      </trkpt>
      <trkpt lat="43.375218" lon="-4.519154">
        <ele>-83.968</ele>
        <time>2021-10-14T18:31:16Z</time>
      </trkpt>
      <trkpt lat="43.375088" lon="-4.519163">
        <ele>-80.591</ele>
        <time>2021-10-14T18:31:18Z</time>
      </trkpt>
      <trkpt lat="43.374954" lon="-4.519134">
        <ele>-79.928</ele>
        <time>2021-10-14T18:31:20Z</time>
      </trkpt>
      <trkpt lat="43.374844" lon="-4.519039">
        <ele>-80.280</ele>
        <time>2021-10-14T18:31:22Z</time>
      </trkpt>
      <trkpt lat="43.374802" lon="-4.518969">
        <ele>-79.989</ele>
        <time>2021-10-14T18:31:23Z</time>
      </trkpt>
      <trkpt lat="43.374722" lon="-4.518795">
        <ele>-81.738</ele>
        <time>2021-10-14T18:31:25Z</time>
      </trkpt>
      <trkpt lat="43.374678" lon="-4.518703">
        <ele>-80.770</ele>
        <time>2021-10-14T18:31:26Z</time>
      </trkpt>
      <trkpt lat="43.374599" lon="-4.518546">
        <ele>-82.917</ele>
        <time>2021-10-14T18:31:28Z</time>
      </trkpt>
      <trkpt lat="43.374565" lon="-4.518475">
        <ele>-82.408</ele>
        <time>2021-10-14T18:31:29Z</time>
      </trkpt>
      <trkpt lat="43.374504" lon="-4.518351">
        <ele>-79.251</ele>
        <time>2021-10-14T18:31:31Z</time>
      </trkpt>
      <trkpt lat="43.374476" lon="-4.518291">
        <ele>-81.269</ele>
        <time>2021-10-14T18:31:32Z</time>
      </trkpt>
      <trkpt lat="43.374431" lon="-4.518182">
        <ele>-81.267</ele>
        <time>2021-10-14T18:31:34Z</time>
      </trkpt>
      <trkpt lat="43.374389" lon="-4.518114">
        <ele>-81.294</ele>
        <time>2021-10-14T18:31:36Z</time>
      </trkpt>
      <trkpt lat="43.374333" lon="-4.518071">
        <ele>-81.967</ele>
        <time>2021-10-14T18:31:38Z</time>
      </trkpt>
      <trkpt lat="43.374267" lon="-4.518077">
        <ele>-81.924</ele>
        <time>2021-10-14T18:31:40Z</time>
      </trkpt>
      <trkpt lat="43.374157" lon="-4.518166">
        <ele>-82.956</ele>
        <time>2021-10-14T18:31:42Z</time>
      </trkpt>
      <trkpt lat="43.374104" lon="-4.518219">
        <ele>-82.285</ele>
        <time>2021-10-14T18:31:43Z</time>
      </trkpt>
      <trkpt lat="43.374054" lon="-4.518270">
        <ele>-82.923</ele>
        <time>2021-10-14T18:31:44Z</time>
      </trkpt>
      <trkpt lat="43.373950" lon="-4.518355">
        <ele>-84.583</ele>
        <time>2021-10-14T18:31:46Z</time>
      </trkpt>
      <trkpt lat="43.373829" lon="-4.518454">
        <ele>-83.911</ele>
        <time>2021-10-14T18:31:48Z</time>
      </trkpt>
      <trkpt lat="43.373770" lon="-4.518501">
        <ele>-83.908</ele>
        <time>2021-10-14T18:31:49Z</time>
      </trkpt>
      <trkpt lat="43.373710" lon="-4.518550">
        <ele>-83.010</ele>
        <time>2021-10-14T18:31:50Z</time>
      </trkpt>
      <trkpt lat="43.373572" lon="-4.518659">
        <ele>-82.288</ele>
        <time>2021-10-14T18:31:52Z</time>
      </trkpt>
      <trkpt lat="43.373451" lon="-4.518756">
        <ele>-82.276</ele>
        <time>2021-10-14T18:31:54Z</time>
      </trkpt>
      <trkpt lat="43.373398" lon="-4.518798">
        <ele>-81.273</ele>
        <time>2021-10-14T18:31:55Z</time>
      </trkpt>
      <trkpt lat="43.373345" lon="-4.518844">
        <ele>-81.516</ele>
        <time>2021-10-14T18:31:56Z</time>
      </trkpt>
      <trkpt lat="43.373224" lon="-4.518941">
        <ele>-81.443</ele>
        <time>2021-10-14T18:31:58Z</time>
      </trkpt>
      <trkpt lat="43.373159" lon="-4.518993">
        <ele>-79.215</ele>
        <time>2021-10-14T18:31:59Z</time>
      </trkpt>
      <trkpt lat="43.373068" lon="-4.519068">
        <ele>-79.944</ele>
        <time>2021-10-14T18:32:01Z</time>
      </trkpt>
      <trkpt lat="43.373029" lon="-4.519103">
        <ele>-78.716</ele>
        <time>2021-10-14T18:32:03Z</time>
      </trkpt>
      <trkpt lat="43.372958" lon="-4.519161">
        <ele>-75.376</ele>
        <time>2021-10-14T18:32:05Z</time>
      </trkpt>
      <trkpt lat="43.372840" lon="-4.519271">
        <ele>-77.413</ele>
        <time>2021-10-14T18:32:07Z</time>
      </trkpt>
      <trkpt lat="43.372762" lon="-4.519339">
        <ele>-78.408</ele>
        <time>2021-10-14T18:32:08Z</time>
      </trkpt>
      <trkpt lat="43.372589" lon="-4.519476">
        <ele>-78.529</ele>
        <time>2021-10-14T18:32:10Z</time>
      </trkpt>
      <trkpt lat="43.372496" lon="-4.519558">
        <ele>-76.227</ele>
        <time>2021-10-14T18:32:11Z</time>
      </trkpt>
      <trkpt lat="43.372314" lon="-4.519716">
        <ele>-77.565</ele>
        <time>2021-10-14T18:32:13Z</time>
      </trkpt>
      <trkpt lat="43.372225" lon="-4.519793">
        <ele>-77.952</ele>
        <time>2021-10-14T18:32:14Z</time>
      </trkpt>
      <trkpt lat="43.372062" lon="-4.519940">
        <ele>-77.745</ele>
        <time>2021-10-14T18:32:16Z</time>
      </trkpt>
      <trkpt lat="43.371978" lon="-4.520019">
        <ele>-78.782</ele>
        <time>2021-10-14T18:32:17Z</time>
      </trkpt>
      <trkpt lat="43.371781" lon="-4.520187">
        <ele>-77.764</ele>
        <time>2021-10-14T18:32:19Z</time>
      </trkpt>
      <trkpt lat="43.371665" lon="-4.520278">
        <ele>-77.733</ele>
        <time>2021-10-14T18:32:20Z</time>
      </trkpt>
      <trkpt lat="43.371436" lon="-4.520468">
        <ele>-77.978</ele>
        <time>2021-10-14T18:32:22Z</time>
      </trkpt>
      <trkpt lat="43.371194" lon="-4.520685">
        <ele>-78.533</ele>
        <time>2021-10-14T18:32:24Z</time>
      </trkpt>
      <trkpt lat="43.371061" lon="-4.520805">
        <ele>-78.726</ele>
        <time>2021-10-14T18:32:25Z</time>
      </trkpt>
      <trkpt lat="43.370922" lon="-4.520927">
        <ele>-79.908</ele>
        <time>2021-10-14T18:32:26Z</time>
      </trkpt>
      <trkpt lat="43.370661" lon="-4.521153">
        <ele>-78.955</ele>
        <time>2021-10-14T18:32:28Z</time>
      </trkpt>
      <trkpt lat="43.370374" lon="-4.521395">
        <ele>-79.053</ele>
        <time>2021-10-14T18:32:30Z</time>
      </trkpt>
      <trkpt lat="43.370222" lon="-4.521523">
        <ele>-78.061</ele>
        <time>2021-10-14T18:32:31Z</time>
      </trkpt>
      <trkpt lat="43.370057" lon="-4.521649">
        <ele>-78.558</ele>
        <time>2021-10-14T18:32:32Z</time>
      </trkpt>
      <trkpt lat="43.369755" lon="-4.521849">
        <ele>-79.471</ele>
        <time>2021-10-14T18:32:34Z</time>
      </trkpt>
      <trkpt lat="43.369460" lon="-4.522001">
        <ele>-79.288</ele>
        <time>2021-10-14T18:32:36Z</time>
      </trkpt>
      <trkpt lat="43.369304" lon="-4.522073">
        <ele>-79.460</ele>
        <time>2021-10-14T18:32:37Z</time>
      </trkpt>
      <trkpt lat="43.369136" lon="-4.522138">
        <ele>-79.779</ele>
        <time>2021-10-14T18:32:38Z</time>
      </trkpt>
      <trkpt lat="43.368782" lon="-4.522252">
        <ele>-80.087</ele>
        <time>2021-10-14T18:32:40Z</time>
      </trkpt>
      <trkpt lat="43.368408" lon="-4.522321">
        <ele>-78.742</ele>
        <time>2021-10-14T18:32:42Z</time>
      </trkpt>
      <trkpt lat="43.368236" lon="-4.522321">
        <ele>-80.926</ele>
        <time>2021-10-14T18:32:43Z</time>
      </trkpt>
      <trkpt lat="43.368071" lon="-4.522294">
        <ele>-79.908</ele>
        <time>2021-10-14T18:32:44Z</time>
      </trkpt>
      <trkpt lat="43.367756" lon="-4.522151">
        <ele>-81.276</ele>
        <time>2021-10-14T18:32:46Z</time>
      </trkpt>
      <trkpt lat="43.367470" lon="-4.521887">
        <ele>-80.244</ele>
        <time>2021-10-14T18:32:48Z</time>
      </trkpt>
      <trkpt lat="43.367337" lon="-4.521703">
        <ele>-81.012</ele>
        <time>2021-10-14T18:32:49Z</time>
      </trkpt>
      <trkpt lat="43.367234" lon="-4.521489">
        <ele>-81.299</ele>
        <time>2021-10-14T18:32:50Z</time>
      </trkpt>
      <trkpt lat="43.367106" lon="-4.521073">
        <ele>-82.082</ele>
        <time>2021-10-14T18:32:52Z</time>
      </trkpt>
      <trkpt lat="43.367046" lon="-4.520885">
        <ele>-82.459</ele>
        <time>2021-10-14T18:32:53Z</time>
      </trkpt>
      <trkpt lat="43.366929" lon="-4.520566">
        <ele>-82.951</ele>
        <time>2021-10-14T18:32:55Z</time>
      </trkpt>
      <trkpt lat="43.366863" lon="-4.520433">
        <ele>-82.450</ele>
        <time>2021-10-14T18:32:56Z</time>
      </trkpt>
      <trkpt lat="43.366715" lon="-4.520240">
        <ele>-83.593</ele>
        <time>2021-10-14T18:32:58Z</time>
      </trkpt>
      <trkpt lat="43.366645" lon="-4.520169">
        <ele>-83.965</ele>
        <time>2021-10-14T18:32:59Z</time>
      </trkpt>
      <trkpt lat="43.366585" lon="-4.520121">
        <ele>-83.421</ele>
        <time>2021-10-14T18:33:00Z</time>
      </trkpt>
      <trkpt lat="43.366535" lon="-4.520091">
        <ele>-83.208</ele>
        <time>2021-10-14T18:33:01Z</time>
      </trkpt>
      <trkpt lat="43.366491" lon="-4.520070">
        <ele>-81.557</ele>
        <time>2021-10-14T18:33:02Z</time>
      </trkpt>
      <trkpt lat="43.366432" lon="-4.520054">
        <ele>-82.935</ele>
        <time>2021-10-14T18:33:04Z</time>
      </trkpt>
      <trkpt lat="43.366361" lon="-4.520042">
        <ele>-82.423</ele>
        <time>2021-10-14T18:33:06Z</time>
      </trkpt>
      <trkpt lat="43.366195" lon="-4.520026">
        <ele>-82.440</ele>
        <time>2021-10-14T18:33:08Z</time>
      </trkpt>
      <trkpt lat="43.365959" lon="-4.520079">
        <ele>-82.043</ele>
        <time>2021-10-14T18:33:10Z</time>
      </trkpt>
      <trkpt lat="43.365715" lon="-4.520227">
        <ele>-80.570</ele>
        <time>2021-10-14T18:33:12Z</time>
      </trkpt>
      <trkpt lat="43.365592" lon="-4.520342">
        <ele>-80.442</ele>
        <time>2021-10-14T18:33:13Z</time>
      </trkpt>
      <trkpt lat="43.365459" lon="-4.520490">
        <ele>-78.491</ele>
        <time>2021-10-14T18:33:14Z</time>
      </trkpt>
      <trkpt lat="43.365158" lon="-4.520848">
        <ele>-77.243</ele>
        <time>2021-10-14T18:33:16Z</time>
      </trkpt>
      <trkpt lat="43.364995" lon="-4.521040">
        <ele>-76.264</ele>
        <time>2021-10-14T18:33:17Z</time>
      </trkpt>
      <trkpt lat="43.364828" lon="-4.521237">
        <ele>-75.210</ele>
        <time>2021-10-14T18:33:18Z</time>
      </trkpt>
      <trkpt lat="43.364485" lon="-4.521640">
        <ele>-74.808</ele>
        <time>2021-10-14T18:33:20Z</time>
      </trkpt>
      <trkpt lat="43.364176" lon="-4.522003">
        <ele>-74.742</ele>
        <time>2021-10-14T18:33:22Z</time>
      </trkpt>
      <trkpt lat="43.364037" lon="-4.522168">
        <ele>-73.510</ele>
        <time>2021-10-14T18:33:23Z</time>
      </trkpt>
      <trkpt lat="43.363775" lon="-4.522484">
        <ele>-71.758</ele>
        <time>2021-10-14T18:33:25Z</time>
      </trkpt>
      <trkpt lat="43.363641" lon="-4.522650">
        <ele>-72.585</ele>
        <time>2021-10-14T18:33:26Z</time>
      </trkpt>
      <trkpt lat="43.363368" lon="-4.523017">
        <ele>-70.348</ele>
        <time>2021-10-14T18:33:28Z</time>
      </trkpt>
      <trkpt lat="43.363103" lon="-4.523457">
        <ele>-67.755</ele>
        <time>2021-10-14T18:33:30Z</time>
      </trkpt>
      <trkpt lat="43.362871" lon="-4.523981">
        <ele>-66.237</ele>
        <time>2021-10-14T18:33:32Z</time>
      </trkpt>
      <trkpt lat="43.362705" lon="-4.524554">
        <ele>-64.326</ele>
        <time>2021-10-14T18:33:34Z</time>
      </trkpt>
      <trkpt lat="43.362649" lon="-4.524852">
        <ele>-64.269</ele>
        <time>2021-10-14T18:33:35Z</time>
      </trkpt>
      <trkpt lat="43.362570" lon="-4.525474">
        <ele>-64.304</ele>
        <time>2021-10-14T18:33:37Z</time>
      </trkpt>
      <trkpt lat="43.362537" lon="-4.525812">
        <ele>-61.824</ele>
        <time>2021-10-14T18:33:38Z</time>
      </trkpt>
      <trkpt lat="43.362465" lon="-4.526500">
        <ele>-60.008</ele>
        <time>2021-10-14T18:33:40Z</time>
      </trkpt>
      <trkpt lat="43.362392" lon="-4.527181">
        <ele>-60.374</ele>
        <time>2021-10-14T18:33:42Z</time>
      </trkpt>
      <trkpt lat="43.362356" lon="-4.527517">
        <ele>-59.482</ele>
        <time>2021-10-14T18:33:43Z</time>
      </trkpt>
      <trkpt lat="43.362322" lon="-4.527841">
        <ele>-59.350</ele>
        <time>2021-10-14T18:33:44Z</time>
      </trkpt>
      <trkpt lat="43.362260" lon="-4.528425">
        <ele>-58.637</ele>
        <time>2021-10-14T18:33:46Z</time>
      </trkpt>
      <trkpt lat="43.362198" lon="-4.529010">
        <ele>-59.020</ele>
        <time>2021-10-14T18:33:48Z</time>
      </trkpt>
      <trkpt lat="43.362164" lon="-4.529301">
        <ele>-58.667</ele>
        <time>2021-10-14T18:33:49Z</time>
      </trkpt>
      <trkpt lat="43.362116" lon="-4.529585">
        <ele>-57.769</ele>
        <time>2021-10-14T18:33:50Z</time>
      </trkpt>
      <trkpt lat="43.361957" lon="-4.530108">
        <ele>-58.358</ele>
        <time>2021-10-14T18:33:52Z</time>
      </trkpt>
      <trkpt lat="43.361842" lon="-4.530342">
        <ele>-57.871</ele>
        <time>2021-10-14T18:33:53Z</time>
      </trkpt>
      <trkpt lat="43.361539" lon="-4.530724">
        <ele>-57.241</ele>
        <time>2021-10-14T18:33:55Z</time>
      </trkpt>
      <trkpt lat="43.361354" lon="-4.530864">
        <ele>-56.015</ele>
        <time>2021-10-14T18:33:56Z</time>
      </trkpt>
      <trkpt lat="43.360950" lon="-4.531018">
        <ele>-55.108</ele>
        <time>2021-10-14T18:33:58Z</time>
      </trkpt>
      <trkpt lat="43.360721" lon="-4.531047">
        <ele>-55.975</ele>
        <time>2021-10-14T18:33:59Z</time>
      </trkpt>
      <trkpt lat="43.360485" lon="-4.531030">
        <ele>-55.393</ele>
        <time>2021-10-14T18:34:00Z</time>
      </trkpt>
      <trkpt lat="43.360248" lon="-4.530963">
        <ele>-52.991</ele>
        <time>2021-10-14T18:34:01Z</time>
      </trkpt>
      <trkpt lat="43.360010" lon="-4.530876">
        <ele>-51.818</ele>
        <time>2021-10-14T18:34:02Z</time>
      </trkpt>
      <trkpt lat="43.359564" lon="-4.530738">
        <ele>-49.591</ele>
        <time>2021-10-14T18:34:04Z</time>
      </trkpt>
      <trkpt lat="43.359339" lon="-4.530686">
        <ele>-51.728</ele>
        <time>2021-10-14T18:34:05Z</time>
      </trkpt>
      <trkpt lat="43.359109" lon="-4.530653">
        <ele>-52.670</ele>
        <time>2021-10-14T18:34:06Z</time>
      </trkpt>
      <trkpt lat="43.358636" lon="-4.530699">
        <ele>-51.029</ele>
        <time>2021-10-14T18:34:08Z</time>
      </trkpt>
      <trkpt lat="43.358174" lon="-4.530926">
        <ele>-48.445</ele>
        <time>2021-10-14T18:34:10Z</time>
      </trkpt>
      <trkpt lat="43.357958" lon="-4.531101">
        <ele>-48.147</ele>
        <time>2021-10-14T18:34:11Z</time>
      </trkpt>
      <trkpt lat="43.357556" lon="-4.531516">
        <ele>-47.211</ele>
        <time>2021-10-14T18:34:13Z</time>
      </trkpt>
      <trkpt lat="43.357350" lon="-4.531713">
        <ele>-48.508</ele>
        <time>2021-10-14T18:34:14Z</time>
      </trkpt>
      <trkpt lat="43.356923" lon="-4.532015">
        <ele>-48.092</ele>
        <time>2021-10-14T18:34:16Z</time>
      </trkpt>
      <trkpt lat="43.356451" lon="-4.532162">
        <ele>-44.760</ele>
        <time>2021-10-14T18:34:18Z</time>
      </trkpt>
      <trkpt lat="43.356202" lon="-4.532172">
        <ele>-43.728</ele>
        <time>2021-10-14T18:34:19Z</time>
      </trkpt>
      <trkpt lat="43.355947" lon="-4.532155">
        <ele>-45.095</ele>
        <time>2021-10-14T18:34:20Z</time>
      </trkpt>
      <trkpt lat="43.355443" lon="-4.532121">
        <ele>-44.998</ele>
        <time>2021-10-14T18:34:22Z</time>
      </trkpt>
      <trkpt lat="43.354919" lon="-4.532110">
        <ele>-42.775</ele>
        <time>2021-10-14T18:34:24Z</time>
      </trkpt>
      <trkpt lat="43.354657" lon="-4.532129">
        <ele>-42.117</ele>
        <time>2021-10-14T18:34:25Z</time>
      </trkpt>
      <trkpt lat="43.354393" lon="-4.532179">
        <ele>-41.576</ele>
        <time>2021-10-14T18:34:26Z</time>
      </trkpt>
      <trkpt lat="43.353889" lon="-4.532353">
        <ele>-36.977</ele>
        <time>2021-10-14T18:34:28Z</time>
      </trkpt>
      <trkpt lat="43.353627" lon="-4.532455">
        <ele>-34.961</ele>
        <time>2021-10-14T18:34:29Z</time>
      </trkpt>
      <trkpt lat="43.353102" lon="-4.532670">
        <ele>-32.427</ele>
        <time>2021-10-14T18:34:31Z</time>
      </trkpt>
      <trkpt lat="43.352830" lon="-4.532782">
        <ele>-30.308</ele>
        <time>2021-10-14T18:34:32Z</time>
      </trkpt>
      <trkpt lat="43.352307" lon="-4.533005">
        <ele>-27.095</ele>
        <time>2021-10-14T18:34:34Z</time>
      </trkpt>
      <trkpt lat="43.352037" lon="-4.533115">
        <ele>-24.073</ele>
        <time>2021-10-14T18:34:35Z</time>
      </trkpt>
      <trkpt lat="43.351767" lon="-4.533232">
        <ele>-23.011</ele>
        <time>2021-10-14T18:34:36Z</time>
      </trkpt>
      <trkpt lat="43.351249" lon="-4.533481">
        <ele>-20.348</ele>
        <time>2021-10-14T18:34:38Z</time>
      </trkpt>
      <trkpt lat="43.350777" lon="-4.533735">
        <ele>-14.451</ele>
        <time>2021-10-14T18:34:40Z</time>
      </trkpt>
      <trkpt lat="43.350550" lon="-4.533865">
        <ele>-13.148</ele>
        <time>2021-10-14T18:34:41Z</time>
      </trkpt>
      <trkpt lat="43.350325" lon="-4.534000">
        <ele>-11.960</ele>
        <time>2021-10-14T18:34:42Z</time>
      </trkpt>
      <trkpt lat="43.349865" lon="-4.534260">
        <ele>-8.539</ele>
        <time>2021-10-14T18:34:44Z</time>
      </trkpt>
      <trkpt lat="43.349401" lon="-4.534442">
        <ele>-5.598</ele>
        <time>2021-10-14T18:34:46Z</time>
      </trkpt>
      <trkpt lat="43.348905" lon="-4.534492">
        <ele>-4.515</ele>
        <time>2021-10-14T18:34:48Z</time>
      </trkpt>
      <trkpt lat="43.348652" lon="-4.534479">
        <ele>-2.726</ele>
        <time>2021-10-14T18:34:49Z</time>
      </trkpt>
      <trkpt lat="43.348390" lon="-4.534445">
        <ele>-1.908</ele>
        <time>2021-10-14T18:34:50Z</time>
      </trkpt>
      <trkpt lat="43.347876" lon="-4.534363">
        <ele>-1.567</ele>
        <time>2021-10-14T18:34:52Z</time>
      </trkpt>
      <trkpt lat="43.347351" lon="-4.534275">
        <ele>-2.975</ele>
        <time>2021-10-14T18:34:54Z</time>
      </trkpt>
      <trkpt lat="43.347090" lon="-4.534233">
        <ele>-2.683</ele>
        <time>2021-10-14T18:34:55Z</time>
      </trkpt>
      <trkpt lat="43.346823" lon="-4.534191">
        <ele>-4.230</ele>
        <time>2021-10-14T18:34:56Z</time>
      </trkpt>
      <trkpt lat="43.346310" lon="-4.534110">
        <ele>-5.233</ele>
        <time>2021-10-14T18:34:58Z</time>
      </trkpt>
      <trkpt lat="43.345811" lon="-4.534040">
        <ele>-6.030</ele>
        <time>2021-10-14T18:35:00Z</time>
      </trkpt>
      <trkpt lat="43.345567" lon="-4.534008">
        <ele>-6.242</ele>
        <time>2021-10-14T18:35:01Z</time>
      </trkpt>
      <trkpt lat="43.345325" lon="-4.533986">
        <ele>-6.041</ele>
        <time>2021-10-14T18:35:02Z</time>
      </trkpt>
      <trkpt lat="43.344858" lon="-4.534038">
        <ele>-7.333</ele>
        <time>2021-10-14T18:35:04Z</time>
      </trkpt>
      <trkpt lat="43.344623" lon="-4.534136">
        <ele>-9.023</ele>
        <time>2021-10-14T18:35:05Z</time>
      </trkpt>
      <trkpt lat="43.344393" lon="-4.534281">
        <ele>-10.315</ele>
        <time>2021-10-14T18:35:06Z</time>
      </trkpt>
      <trkpt lat="43.343982" lon="-4.534715">
        <ele>-14.108</ele>
        <time>2021-10-14T18:35:08Z</time>
      </trkpt>
      <trkpt lat="43.343674" lon="-4.535300">
        <ele>-13.591</ele>
        <time>2021-10-14T18:35:10Z</time>
      </trkpt>
      <trkpt lat="43.343545" lon="-4.535626">
        <ele>-15.699</ele>
        <time>2021-10-14T18:35:11Z</time>
      </trkpt>
      <trkpt lat="43.343422" lon="-4.535960">
        <ele>-16.597</ele>
        <time>2021-10-14T18:35:12Z</time>
      </trkpt>
      <trkpt lat="43.343145" lon="-4.536629">
        <ele>-21.054</ele>
        <time>2021-10-14T18:35:14Z</time>
      </trkpt>
      <trkpt lat="43.342831" lon="-4.537236">
        <ele>-22.857</ele>
        <time>2021-10-14T18:35:16Z</time>
      </trkpt>
      <trkpt lat="43.342674" lon="-4.537522">
        <ele>-23.834</ele>
        <time>2021-10-14T18:35:17Z</time>
      </trkpt>
      <trkpt lat="43.342368" lon="-4.538056">
        <ele>-28.386</ele>
        <time>2021-10-14T18:35:19Z</time>
      </trkpt>
      <trkpt lat="43.342221" lon="-4.538311">
        <ele>-27.785</ele>
        <time>2021-10-14T18:35:20Z</time>
      </trkpt>
      <trkpt lat="43.341942" lon="-4.538773">
        <ele>-27.956</ele>
        <time>2021-10-14T18:35:22Z</time>
      </trkpt>
      <trkpt lat="43.341603" lon="-4.539196">
        <ele>-31.759</ele>
        <time>2021-10-14T18:35:24Z</time>
      </trkpt>
      <trkpt lat="43.341404" lon="-4.539371">
        <ele>-31.414</ele>
        <time>2021-10-14T18:35:25Z</time>
      </trkpt>
      <trkpt lat="43.341180" lon="-4.539519">
        <ele>-33.708</ele>
        <time>2021-10-14T18:35:26Z</time>
      </trkpt>
      <trkpt lat="43.340715" lon="-4.539672">
        <ele>-34.293</ele>
        <time>2021-10-14T18:35:28Z</time>
      </trkpt>
      <trkpt lat="43.340198" lon="-4.539616">
        <ele>-35.431</ele>
        <time>2021-10-14T18:35:30Z</time>
      </trkpt>
      <trkpt lat="43.339935" lon="-4.539524">
        <ele>-36.459</ele>
        <time>2021-10-14T18:35:31Z</time>
      </trkpt>
      <trkpt lat="43.339672" lon="-4.539411">
        <ele>-37.216</ele>
        <time>2021-10-14T18:35:32Z</time>
      </trkpt>
      <trkpt lat="43.339220" lon="-4.539183">
        <ele>-37.619</ele>
        <time>2021-10-14T18:35:34Z</time>
      </trkpt>
      <trkpt lat="43.338852" lon="-4.538929">
        <ele>-40.236</ele>
        <time>2021-10-14T18:35:36Z</time>
      </trkpt>
      <trkpt lat="43.338692" lon="-4.538758">
        <ele>-40.998</ele>
        <time>2021-10-14T18:35:37Z</time>
      </trkpt>
      <trkpt lat="43.338539" lon="-4.538538">
        <ele>-41.587</ele>
        <time>2021-10-14T18:35:38Z</time>
      </trkpt>
      <trkpt lat="43.338267" lon="-4.538000">
        <ele>-43.152</ele>
        <time>2021-10-14T18:35:40Z</time>
      </trkpt>
      <trkpt lat="43.337969" lon="-4.537407">
        <ele>-47.553</ele>
        <time>2021-10-14T18:35:42Z</time>
      </trkpt>
      <trkpt lat="43.337630" lon="-4.536908">
        <ele>-50.508</ele>
        <time>2021-10-14T18:35:44Z</time>
      </trkpt>
      <trkpt lat="43.337271" lon="-4.536547">
        <ele>-53.408</ele>
        <time>2021-10-14T18:35:46Z</time>
      </trkpt>
      <trkpt lat="43.336880" lon="-4.536336">
        <ele>-53.513</ele>
        <time>2021-10-14T18:35:48Z</time>
      </trkpt>
      <trkpt lat="43.336686" lon="-4.536259">
        <ele>-54.331</ele>
        <time>2021-10-14T18:35:49Z</time>
      </trkpt>
      <trkpt lat="43.336492" lon="-4.536182">
        <ele>-55.199</ele>
        <time>2021-10-14T18:35:50Z</time>
      </trkpt>
      <trkpt lat="43.336147" lon="-4.536033">
        <ele>-53.726</ele>
        <time>2021-10-14T18:35:52Z</time>
      </trkpt>
      <trkpt lat="43.335822" lon="-4.535899">
        <ele>-56.959</ele>
        <time>2021-10-14T18:35:54Z</time>
      </trkpt>
      <trkpt lat="43.335667" lon="-4.535843">
        <ele>-55.326</ele>
        <time>2021-10-14T18:35:55Z</time>
      </trkpt>
      <trkpt lat="43.335516" lon="-4.535793">
        <ele>-56.098</ele>
        <time>2021-10-14T18:35:56Z</time>
      </trkpt>
      <trkpt lat="43.335218" lon="-4.535751">
        <ele>-57.737</ele>
        <time>2021-10-14T18:35:58Z</time>
      </trkpt>
      <trkpt lat="43.334918" lon="-4.535874">
        <ele>-54.863</ele>
        <time>2021-10-14T18:36:00Z</time>
      </trkpt>
      <trkpt lat="43.334694" lon="-4.536216">
        <ele>-55.044</ele>
        <time>2021-10-14T18:36:02Z</time>
      </trkpt>
      <trkpt lat="43.334589" lon="-4.536682">
        <ele>-55.218</ele>
        <time>2021-10-14T18:36:04Z</time>
      </trkpt>
      <trkpt lat="43.334589" lon="-4.536953">
        <ele>-56.408</ele>
        <time>2021-10-14T18:36:05Z</time>
      </trkpt>
      <trkpt lat="43.334673" lon="-4.537516">
        <ele>-56.284</ele>
        <time>2021-10-14T18:36:07Z</time>
      </trkpt>
      <trkpt lat="43.334721" lon="-4.537812">
        <ele>-54.832</ele>
        <time>2021-10-14T18:36:08Z</time>
      </trkpt>
      <trkpt lat="43.334776" lon="-4.538433">
        <ele>-54.660</ele>
        <time>2021-10-14T18:36:10Z</time>
      </trkpt>
      <trkpt lat="43.334765" lon="-4.538761">
        <ele>-53.887</ele>
        <time>2021-10-14T18:36:11Z</time>
      </trkpt>
      <trkpt lat="43.334635" lon="-4.539395">
        <ele>-53.040</ele>
        <time>2021-10-14T18:36:13Z</time>
      </trkpt>
      <trkpt lat="43.334508" lon="-4.539710">
        <ele>-53.867</ele>
        <time>2021-10-14T18:36:14Z</time>
      </trkpt>
      <trkpt lat="43.334209" lon="-4.540321">
        <ele>-49.069</ele>
        <time>2021-10-14T18:36:16Z</time>
      </trkpt>
      <trkpt lat="43.334041" lon="-4.540628">
        <ele>-49.658</ele>
        <time>2021-10-14T18:36:17Z</time>
      </trkpt>
      <trkpt lat="43.333690" lon="-4.541229">
        <ele>-46.289</ele>
        <time>2021-10-14T18:36:19Z</time>
      </trkpt>
      <trkpt lat="43.333512" lon="-4.541524">
        <ele>-45.406</ele>
        <time>2021-10-14T18:36:20Z</time>
      </trkpt>
      <trkpt lat="43.333179" lon="-4.542098">
        <ele>-42.726</ele>
        <time>2021-10-14T18:36:22Z</time>
      </trkpt>
      <trkpt lat="43.333020" lon="-4.542411">
        <ele>-40.508</ele>
        <time>2021-10-14T18:36:23Z</time>
      </trkpt>
      <trkpt lat="43.332756" lon="-4.543115">
        <ele>-40.566</ele>
        <time>2021-10-14T18:36:25Z</time>
      </trkpt>
      <trkpt lat="43.332641" lon="-4.543505">
        <ele>-40.674</ele>
        <time>2021-10-14T18:36:26Z</time>
      </trkpt>
      <trkpt lat="43.332451" lon="-4.544251">
        <ele>-39.512</ele>
        <time>2021-10-14T18:36:28Z</time>
      </trkpt>
      <trkpt lat="43.332360" lon="-4.544615">
        <ele>-39.549</ele>
        <time>2021-10-14T18:36:29Z</time>
      </trkpt>
      <trkpt lat="43.332277" lon="-4.544963">
        <ele>-37.952</ele>
        <time>2021-10-14T18:36:30Z</time>
      </trkpt>
      <trkpt lat="43.332151" lon="-4.545611">
        <ele>-40.559</ele>
        <time>2021-10-14T18:36:32Z</time>
      </trkpt>
      <trkpt lat="43.332085" lon="-4.546195">
        <ele>-39.121</ele>
        <time>2021-10-14T18:36:34Z</time>
      </trkpt>
      <trkpt lat="43.332052" lon="-4.546483">
        <ele>-38.190</ele>
        <time>2021-10-14T18:36:35Z</time>
      </trkpt>
      <trkpt lat="43.332018" lon="-4.546772">
        <ele>-38.052</ele>
        <time>2021-10-14T18:36:36Z</time>
      </trkpt>
      <trkpt lat="43.331981" lon="-4.547078">
        <ele>-38.553</ele>
        <time>2021-10-14T18:36:37Z</time>
      </trkpt>
      <trkpt lat="43.331942" lon="-4.547401">
        <ele>-37.508</ele>
        <time>2021-10-14T18:36:38Z</time>
      </trkpt>
      <trkpt lat="43.331870" lon="-4.548056">
        <ele>-37.108</ele>
        <time>2021-10-14T18:36:40Z</time>
      </trkpt>
      <trkpt lat="43.331847" lon="-4.548406">
        <ele>-37.463</ele>
        <time>2021-10-14T18:36:41Z</time>
      </trkpt>
      <trkpt lat="43.331820" lon="-4.549117">
        <ele>-37.031</ele>
        <time>2021-10-14T18:36:43Z</time>
      </trkpt>
      <trkpt lat="43.331814" lon="-4.549497">
        <ele>-34.029</ele>
        <time>2021-10-14T18:36:44Z</time>
      </trkpt>
      <trkpt lat="43.331826" lon="-4.550257">
        <ele>-34.096</ele>
        <time>2021-10-14T18:36:46Z</time>
      </trkpt>
      <trkpt lat="43.331834" lon="-4.550624">
        <ele>-33.999</ele>
        <time>2021-10-14T18:36:47Z</time>
      </trkpt>
      <trkpt lat="43.331848" lon="-4.551290">
        <ele>-32.486</ele>
        <time>2021-10-14T18:36:49Z</time>
      </trkpt>
      <trkpt lat="43.331849" lon="-4.551609">
        <ele>-32.918</ele>
        <time>2021-10-14T18:36:50Z</time>
      </trkpt>
      <trkpt lat="43.331816" lon="-4.552182">
        <ele>-32.277</ele>
        <time>2021-10-14T18:36:52Z</time>
      </trkpt>
      <trkpt lat="43.331694" lon="-4.552691">
        <ele>-30.994</ele>
        <time>2021-10-14T18:36:54Z</time>
      </trkpt>
      <trkpt lat="43.331474" lon="-4.553124">
        <ele>-31.457</ele>
        <time>2021-10-14T18:36:56Z</time>
      </trkpt>
      <trkpt lat="43.331171" lon="-4.553457">
        <ele>-30.322</ele>
        <time>2021-10-14T18:36:58Z</time>
      </trkpt>
      <trkpt lat="43.330769" lon="-4.553638">
        <ele>-31.808</ele>
        <time>2021-10-14T18:37:00Z</time>
      </trkpt>
      <trkpt lat="43.330564" lon="-4.553670">
        <ele>-31.077</ele>
        <time>2021-10-14T18:37:01Z</time>
      </trkpt>
      <trkpt lat="43.330369" lon="-4.553675">
        <ele>-29.995</ele>
        <time>2021-10-14T18:37:02Z</time>
      </trkpt>
      <trkpt lat="43.330027" lon="-4.553661">
        <ele>-31.123</ele>
        <time>2021-10-14T18:37:04Z</time>
      </trkpt>
      <trkpt lat="43.329852" lon="-4.553656">
        <ele>-31.230</ele>
        <time>2021-10-14T18:37:05Z</time>
      </trkpt>
      <trkpt lat="43.329493" lon="-4.553650">
        <ele>-34.233</ele>
        <time>2021-10-14T18:37:07Z</time>
      </trkpt>
      <trkpt lat="43.329305" lon="-4.553655">
        <ele>-34.920</ele>
        <time>2021-10-14T18:37:08Z</time>
      </trkpt>
      <trkpt lat="43.328929" lon="-4.553733">
        <ele>-36.912</ele>
        <time>2021-10-14T18:37:10Z</time>
      </trkpt>
      <trkpt lat="43.328546" lon="-4.553960">
        <ele>-37.951</ele>
        <time>2021-10-14T18:37:12Z</time>
      </trkpt>
      <trkpt lat="43.328369" lon="-4.554138">
        <ele>-40.068</ele>
        <time>2021-10-14T18:37:13Z</time>
      </trkpt>
      <trkpt lat="43.328211" lon="-4.554360">
        <ele>-41.542</ele>
        <time>2021-10-14T18:37:14Z</time>
      </trkpt>
      <trkpt lat="43.327967" lon="-4.554836">
        <ele>-42.126</ele>
        <time>2021-10-14T18:37:16Z</time>
      </trkpt>
      <trkpt lat="43.327855" lon="-4.555076">
        <ele>-43.108</ele>
        <time>2021-10-14T18:37:17Z</time>
      </trkpt>
      <trkpt lat="43.327637" lon="-4.555532">
        <ele>-46.994</ele>
        <time>2021-10-14T18:37:19Z</time>
      </trkpt>
      <trkpt lat="43.327516" lon="-4.555776">
        <ele>-47.032</ele>
        <time>2021-10-14T18:37:20Z</time>
      </trkpt>
      <trkpt lat="43.327277" lon="-4.556260">
        <ele>-49.420</ele>
        <time>2021-10-14T18:37:22Z</time>
      </trkpt>
      <trkpt lat="43.327160" lon="-4.556497">
        <ele>-50.427</ele>
        <time>2021-10-14T18:37:23Z</time>
      </trkpt>
      <trkpt lat="43.327050" lon="-4.556720">
        <ele>-50.510</ele>
        <time>2021-10-14T18:37:24Z</time>
      </trkpt>
      <trkpt lat="43.326839" lon="-4.557154">
        <ele>-53.037</ele>
        <time>2021-10-14T18:37:26Z</time>
      </trkpt>
      <trkpt lat="43.326657" lon="-4.557607">
        <ele>-53.389</ele>
        <time>2021-10-14T18:37:28Z</time>
      </trkpt>
      <trkpt lat="43.326577" lon="-4.557866">
        <ele>-55.328</ele>
        <time>2021-10-14T18:37:29Z</time>
      </trkpt>
      <trkpt lat="43.326451" lon="-4.558442">
        <ele>-56.488</ele>
        <time>2021-10-14T18:37:31Z</time>
      </trkpt>
      <trkpt lat="43.326412" lon="-4.558768">
        <ele>-57.124</ele>
        <time>2021-10-14T18:37:32Z</time>
      </trkpt>
      <trkpt lat="43.326400" lon="-4.559444">
        <ele>-58.526</ele>
        <time>2021-10-14T18:37:34Z</time>
      </trkpt>
      <trkpt lat="43.326425" lon="-4.559808">
        <ele>-59.908</ele>
        <time>2021-10-14T18:37:35Z</time>
      </trkpt>
      <trkpt lat="43.326472" lon="-4.560179">
        <ele>-60.696</ele>
        <time>2021-10-14T18:37:36Z</time>
      </trkpt>
      <trkpt lat="43.326533" lon="-4.560555">
        <ele>-60.144</ele>
        <time>2021-10-14T18:37:37Z</time>
      </trkpt>
      <trkpt lat="43.326607" lon="-4.560935">
        <ele>-62.082</ele>
        <time>2021-10-14T18:37:38Z</time>
      </trkpt>
      <trkpt lat="43.326727" lon="-4.561592">
        <ele>-62.799</ele>
        <time>2021-10-14T18:37:40Z</time>
      </trkpt>
      <trkpt lat="43.326826" lon="-4.562201">
        <ele>-63.072</ele>
        <time>2021-10-14T18:37:42Z</time>
      </trkpt>
      <trkpt lat="43.326850" lon="-4.562502">
        <ele>-62.979</ele>
        <time>2021-10-14T18:37:43Z</time>
      </trkpt>
      <trkpt lat="43.326849" lon="-4.562810">
        <ele>-63.361</ele>
        <time>2021-10-14T18:37:44Z</time>
      </trkpt>
      <trkpt lat="43.326757" lon="-4.563408">
        <ele>-63.350</ele>
        <time>2021-10-14T18:37:46Z</time>
      </trkpt>
      <trkpt lat="43.326669" lon="-4.563713">
        <ele>-62.913</ele>
        <time>2021-10-14T18:37:47Z</time>
      </trkpt>
      <trkpt lat="43.326560" lon="-4.564015">
        <ele>-62.543</ele>
        <time>2021-10-14T18:37:48Z</time>
      </trkpt>
      <trkpt lat="43.326346" lon="-4.564652">
        <ele>-64.207</ele>
        <time>2021-10-14T18:37:50Z</time>
      </trkpt>
      <trkpt lat="43.326216" lon="-4.565324">
        <ele>-62.308</ele>
        <time>2021-10-14T18:37:52Z</time>
      </trkpt>
      <trkpt lat="43.326199" lon="-4.566036">
        <ele>-63.079</ele>
        <time>2021-10-14T18:37:54Z</time>
      </trkpt>
      <trkpt lat="43.326240" lon="-4.566394">
        <ele>-61.587</ele>
        <time>2021-10-14T18:37:55Z</time>
      </trkpt>
      <trkpt lat="43.326307" lon="-4.566756">
        <ele>-63.645</ele>
        <time>2021-10-14T18:37:56Z</time>
      </trkpt>
      <trkpt lat="43.326493" lon="-4.567422">
        <ele>-61.652</ele>
        <time>2021-10-14T18:37:58Z</time>
      </trkpt>
      <trkpt lat="43.326586" lon="-4.567759">
        <ele>-62.025</ele>
        <time>2021-10-14T18:37:59Z</time>
      </trkpt>
      <trkpt lat="43.326657" lon="-4.568107">
        <ele>-63.522</ele>
        <time>2021-10-14T18:38:00Z</time>
      </trkpt>
      <trkpt lat="43.326702" lon="-4.568830">
        <ele>-63.484</ele>
        <time>2021-10-14T18:38:02Z</time>
      </trkpt>
      <trkpt lat="43.326620" lon="-4.569540">
        <ele>-64.013</ele>
        <time>2021-10-14T18:38:04Z</time>
      </trkpt>
      <trkpt lat="43.326554" lon="-4.569873">
        <ele>-66.523</ele>
        <time>2021-10-14T18:38:05Z</time>
      </trkpt>
      <trkpt lat="43.326476" lon="-4.570522">
        <ele>-65.483</ele>
        <time>2021-10-14T18:38:07Z</time>
      </trkpt>
      <trkpt lat="43.326483" lon="-4.570862">
        <ele>-67.711</ele>
        <time>2021-10-14T18:38:08Z</time>
      </trkpt>
      <trkpt lat="43.326624" lon="-4.571441">
        <ele>-67.208</ele>
        <time>2021-10-14T18:38:10Z</time>
      </trkpt>
      <trkpt lat="43.326751" lon="-4.571684">
        <ele>-68.340</ele>
        <time>2021-10-14T18:38:11Z</time>
      </trkpt>
      <trkpt lat="43.326901" lon="-4.571909">
        <ele>-68.468</ele>
        <time>2021-10-14T18:38:12Z</time>
      </trkpt>
      <trkpt lat="43.327064" lon="-4.572128">
        <ele>-66.596</ele>
        <time>2021-10-14T18:38:13Z</time>
      </trkpt>
      <trkpt lat="43.327240" lon="-4.572345">
        <ele>-65.723</ele>
        <time>2021-10-14T18:38:14Z</time>
      </trkpt>
      <trkpt lat="43.327545" lon="-4.572744">
        <ele>-65.286</ele>
        <time>2021-10-14T18:38:16Z</time>
      </trkpt>
      <trkpt lat="43.327783" lon="-4.573128">
        <ele>-62.993</ele>
        <time>2021-10-14T18:38:18Z</time>
      </trkpt>
      <trkpt lat="43.327882" lon="-4.573318">
        <ele>-62.355</ele>
        <time>2021-10-14T18:38:19Z</time>
      </trkpt>
      <trkpt lat="43.327974" lon="-4.573519">
        <ele>-62.044</ele>
        <time>2021-10-14T18:38:20Z</time>
      </trkpt>
      <trkpt lat="43.328114" lon="-4.573939">
        <ele>-60.784</ele>
        <time>2021-10-14T18:38:22Z</time>
      </trkpt>
      <trkpt lat="43.328222" lon="-4.574416">
        <ele>-59.307</ele>
        <time>2021-10-14T18:38:24Z</time>
      </trkpt>
      <trkpt lat="43.328263" lon="-4.574677">
        <ele>-58.717</ele>
        <time>2021-10-14T18:38:25Z</time>
      </trkpt>
      <trkpt lat="43.328290" lon="-4.574954">
        <ele>-57.808</ele>
        <time>2021-10-14T18:38:26Z</time>
      </trkpt>
      <trkpt lat="43.328301" lon="-4.575504">
        <ele>-55.036</ele>
        <time>2021-10-14T18:38:28Z</time>
      </trkpt>
      <trkpt lat="43.328278" lon="-4.576043">
        <ele>-53.784</ele>
        <time>2021-10-14T18:38:30Z</time>
      </trkpt>
      <trkpt lat="43.328252" lon="-4.576566">
        <ele>-51.072</ele>
        <time>2021-10-14T18:38:32Z</time>
      </trkpt>
      <trkpt lat="43.328225" lon="-4.577043">
        <ele>-51.449</ele>
        <time>2021-10-14T18:38:34Z</time>
      </trkpt>
      <trkpt lat="43.328211" lon="-4.577256">
        <ele>-50.782</ele>
        <time>2021-10-14T18:38:35Z</time>
      </trkpt>
      <trkpt lat="43.328202" lon="-4.577442">
        <ele>-50.599</ele>
        <time>2021-10-14T18:38:36Z</time>
      </trkpt>
      <trkpt lat="43.328192" lon="-4.577770">
        <ele>-49.781</ele>
        <time>2021-10-14T18:38:38Z</time>
      </trkpt>
      <trkpt lat="43.328186" lon="-4.578062">
        <ele>-50.260</ele>
        <time>2021-10-14T18:38:40Z</time>
      </trkpt>
      <trkpt lat="43.328184" lon="-4.578201">
        <ele>-48.983</ele>
        <time>2021-10-14T18:38:41Z</time>
      </trkpt>
      <trkpt lat="43.328171" lon="-4.578490">
        <ele>-49.925</ele>
        <time>2021-10-14T18:38:43Z</time>
      </trkpt>
      <trkpt lat="43.328161" lon="-4.578655">
        <ele>-49.517</ele>
        <time>2021-10-14T18:38:44Z</time>
      </trkpt>
      <trkpt lat="43.328141" lon="-4.579001">
        <ele>-49.908</ele>
        <time>2021-10-14T18:38:46Z</time>
      </trkpt>
      <trkpt lat="43.328133" lon="-4.579178">
        <ele>-49.446</ele>
        <time>2021-10-14T18:38:47Z</time>
      </trkpt>
      <trkpt lat="43.328120" lon="-4.579486">
        <ele>-49.794</ele>
        <time>2021-10-14T18:38:49Z</time>
      </trkpt>
      <trkpt lat="43.328114" lon="-4.579618">
        <ele>-50.072</ele>
        <time>2021-10-14T18:38:50Z</time>
      </trkpt>
      <trkpt lat="43.328104" lon="-4.579863">
        <ele>-51.359</ele>
        <time>2021-10-14T18:38:52Z</time>
      </trkpt>
      <trkpt lat="43.328093" lon="-4.580104">
        <ele>-52.252</ele>
        <time>2021-10-14T18:38:54Z</time>
      </trkpt>
      <trkpt lat="43.328079" lon="-4.580383">
        <ele>-53.229</ele>
        <time>2021-10-14T18:38:56Z</time>
      </trkpt>
      <trkpt lat="43.328060" lon="-4.580740">
        <ele>-52.121</ele>
        <time>2021-10-14T18:38:58Z</time>
      </trkpt>
      <trkpt lat="43.328017" lon="-4.581153">
        <ele>-53.550</ele>
        <time>2021-10-14T18:39:00Z</time>
      </trkpt>
      <trkpt lat="43.327984" lon="-4.581354">
        <ele>-52.466</ele>
        <time>2021-10-14T18:39:01Z</time>
      </trkpt>
      <trkpt lat="43.327940" lon="-4.581547">
        <ele>-53.929</ele>
        <time>2021-10-14T18:39:02Z</time>
      </trkpt>
      <trkpt lat="43.327829" lon="-4.581866">
        <ele>-53.521</ele>
        <time>2021-10-14T18:39:04Z</time>
      </trkpt>
      <trkpt lat="43.327763" lon="-4.582018">
        <ele>-52.808</ele>
        <time>2021-10-14T18:39:05Z</time>
      </trkpt>
      <trkpt lat="43.327602" lon="-4.582326">
        <ele>-54.264</ele>
        <time>2021-10-14T18:39:07Z</time>
      </trkpt>
      <trkpt lat="43.327512" lon="-4.582495">
        <ele>-55.452</ele>
        <time>2021-10-14T18:39:08Z</time>
      </trkpt>
      <trkpt lat="43.327329" lon="-4.582825">
        <ele>-56.590</ele>
        <time>2021-10-14T18:39:10Z</time>
      </trkpt>
      <trkpt lat="43.327154" lon="-4.583133">
        <ele>-56.417</ele>
        <time>2021-10-14T18:39:12Z</time>
      </trkpt>
      <trkpt lat="43.327071" lon="-4.583273">
        <ele>-56.030</ele>
        <time>2021-10-14T18:39:13Z</time>
      </trkpt>
      <trkpt lat="43.326992" lon="-4.583403">
        <ele>-57.747</ele>
        <time>2021-10-14T18:39:14Z</time>
      </trkpt>
      <trkpt lat="43.326864" lon="-4.583622">
        <ele>-57.479</ele>
        <time>2021-10-14T18:39:16Z</time>
      </trkpt>
      <trkpt lat="43.326807" lon="-4.583727">
        <ele>-57.728</ele>
        <time>2021-10-14T18:39:17Z</time>
      </trkpt>
      <trkpt lat="43.326753" lon="-4.583829">
        <ele>-56.647</ele>
        <time>2021-10-14T18:39:18Z</time>
      </trkpt>
      <trkpt lat="43.326650" lon="-4.584028">
        <ele>-57.329</ele>
        <time>2021-10-14T18:39:20Z</time>
      </trkpt>
      <trkpt lat="43.326551" lon="-4.584210">
        <ele>-57.221</ele>
        <time>2021-10-14T18:39:22Z</time>
      </trkpt>
      <trkpt lat="43.326496" lon="-4.584292">
        <ele>-56.608</ele>
        <time>2021-10-14T18:39:23Z</time>
      </trkpt>
      <trkpt lat="43.326384" lon="-4.584421">
        <ele>-58.892</ele>
        <time>2021-10-14T18:39:25Z</time>
      </trkpt>
      <trkpt lat="43.326335" lon="-4.584482">
        <ele>-58.180</ele>
        <time>2021-10-14T18:39:26Z</time>
      </trkpt>
      <trkpt lat="43.326289" lon="-4.584650">
        <ele>-58.568</ele>
        <time>2021-10-14T18:39:28Z</time>
      </trkpt>
      <trkpt lat="43.326290" lon="-4.584767">
        <ele>-58.415</ele>
        <time>2021-10-14T18:39:29Z</time>
      </trkpt>
      <trkpt lat="43.326307" lon="-4.584895">
        <ele>-59.128</ele>
        <time>2021-10-14T18:39:30Z</time>
      </trkpt>
      <trkpt lat="43.326373" lon="-4.585188">
        <ele>-60.085</ele>
        <time>2021-10-14T18:39:32Z</time>
      </trkpt>
      <trkpt lat="43.326450" lon="-4.585500">
        <ele>-61.537</ele>
        <time>2021-10-14T18:39:34Z</time>
      </trkpt>
      <trkpt lat="43.326527" lon="-4.585828">
        <ele>-60.816</ele>
        <time>2021-10-14T18:39:36Z</time>
      </trkpt>
      <trkpt lat="43.326591" lon="-4.586122">
        <ele>-59.082</ele>
        <time>2021-10-14T18:39:38Z</time>
      </trkpt>
      <trkpt lat="43.326654" lon="-4.586432">
        <ele>-59.343</ele>
        <time>2021-10-14T18:39:40Z</time>
      </trkpt>
      <trkpt lat="43.326729" lon="-4.586798">
        <ele>-58.917</ele>
        <time>2021-10-14T18:39:42Z</time>
      </trkpt>
      <trkpt lat="43.326777" lon="-4.587011">
        <ele>-58.208</ele>
        <time>2021-10-14T18:39:43Z</time>
      </trkpt>
      <trkpt lat="43.326840" lon="-4.587251">
        <ele>-57.786</ele>
        <time>2021-10-14T18:39:44Z</time>
      </trkpt>
      <trkpt lat="43.326986" lon="-4.587755">
        <ele>-57.834</ele>
        <time>2021-10-14T18:39:46Z</time>
      </trkpt>
      <trkpt lat="43.327059" lon="-4.588011">
        <ele>-57.242</ele>
        <time>2021-10-14T18:39:47Z</time>
      </trkpt>
      <trkpt lat="43.327126" lon="-4.588274">
        <ele>-57.889</ele>
        <time>2021-10-14T18:39:48Z</time>
      </trkpt>
      <trkpt lat="43.327191" lon="-4.588545">
        <ele>-57.662</ele>
        <time>2021-10-14T18:39:49Z</time>
      </trkpt>
      <trkpt lat="43.327253" lon="-4.588833">
        <ele>-56.969</ele>
        <time>2021-10-14T18:39:50Z</time>
      </trkpt>
      <trkpt lat="43.327380" lon="-4.589386">
        <ele>-58.271</ele>
        <time>2021-10-14T18:39:52Z</time>
      </trkpt>
      <trkpt lat="43.327459" lon="-4.589929">
        <ele>-59.070</ele>
        <time>2021-10-14T18:39:54Z</time>
      </trkpt>
      <trkpt lat="43.327444" lon="-4.590475">
        <ele>-60.089</ele>
        <time>2021-10-14T18:39:56Z</time>
      </trkpt>
      <trkpt lat="43.327318" lon="-4.591007">
        <ele>-61.606</ele>
        <time>2021-10-14T18:39:58Z</time>
      </trkpt>
      <trkpt lat="43.327191" lon="-4.591265">
        <ele>-62.426</ele>
        <time>2021-10-14T18:39:59Z</time>
      </trkpt>
      <trkpt lat="43.327025" lon="-4.591526">
        <ele>-61.308</ele>
        <time>2021-10-14T18:40:00Z</time>
      </trkpt>
      <trkpt lat="43.326658" lon="-4.592074">
        <ele>-60.146</ele>
        <time>2021-10-14T18:40:02Z</time>
      </trkpt>
      <trkpt lat="43.326337" lon="-4.592602">
        <ele>-60.554</ele>
        <time>2021-10-14T18:40:04Z</time>
      </trkpt>
      <trkpt lat="43.326016" lon="-4.593133">
        <ele>-61.542</ele>
        <time>2021-10-14T18:40:06Z</time>
      </trkpt>
      <trkpt lat="43.325855" lon="-4.593399">
        <ele>-61.039</ele>
        <time>2021-10-14T18:40:07Z</time>
      </trkpt>
      <trkpt lat="43.325690" lon="-4.593665">
        <ele>-60.162</ele>
        <time>2021-10-14T18:40:08Z</time>
      </trkpt>
      <trkpt lat="43.325380" lon="-4.594183">
        <ele>-61.139</ele>
        <time>2021-10-14T18:40:10Z</time>
      </trkpt>
      <trkpt lat="43.325226" lon="-4.594447">
        <ele>-61.161</ele>
        <time>2021-10-14T18:40:11Z</time>
      </trkpt>
      <trkpt lat="43.325073" lon="-4.594709">
        <ele>-60.520</ele>
        <time>2021-10-14T18:40:12Z</time>
      </trkpt>
      <trkpt lat="43.324776" lon="-4.595220">
        <ele>-59.086</ele>
        <time>2021-10-14T18:40:14Z</time>
      </trkpt>
      <trkpt lat="43.324508" lon="-4.595646">
        <ele>-59.060</ele>
        <time>2021-10-14T18:40:16Z</time>
      </trkpt>
      <trkpt lat="43.324355" lon="-4.595818">
        <ele>-58.926</ele>
        <time>2021-10-14T18:40:17Z</time>
      </trkpt>
      <trkpt lat="43.324184" lon="-4.595954">
        <ele>-57.308</ele>
        <time>2021-10-14T18:40:18Z</time>
      </trkpt>
      <trkpt lat="43.323998" lon="-4.596046">
        <ele>-57.546</ele>
        <time>2021-10-14T18:40:19Z</time>
      </trkpt>
      <trkpt lat="43.323793" lon="-4.596095">
        <ele>-56.454</ele>
        <time>2021-10-14T18:40:20Z</time>
      </trkpt>
      <trkpt lat="43.323375" lon="-4.596157">
        <ele>-54.142</ele>
        <time>2021-10-14T18:40:22Z</time>
      </trkpt>
      <trkpt lat="43.322969" lon="-4.596335">
        <ele>-54.399</ele>
        <time>2021-10-14T18:40:24Z</time>
      </trkpt>
      <trkpt lat="43.322793" lon="-4.596481">
        <ele>-52.312</ele>
        <time>2021-10-14T18:40:25Z</time>
      </trkpt>
      <trkpt lat="43.322649" lon="-4.596659">
        <ele>-51.999</ele>
        <time>2021-10-14T18:40:26Z</time>
      </trkpt>
      <trkpt lat="43.322449" lon="-4.597096">
        <ele>-49.741</ele>
        <time>2021-10-14T18:40:28Z</time>
      </trkpt>
      <trkpt lat="43.322332" lon="-4.597630">
        <ele>-48.090</ele>
        <time>2021-10-14T18:40:30Z</time>
      </trkpt>
      <trkpt lat="43.322307" lon="-4.597928">
        <ele>-45.446</ele>
        <time>2021-10-14T18:40:31Z</time>
      </trkpt>
      <trkpt lat="43.322296" lon="-4.598234">
        <ele>-45.088</ele>
        <time>2021-10-14T18:40:32Z</time>
      </trkpt>
      <trkpt lat="43.322282" lon="-4.598798">
        <ele>-44.516</ele>
        <time>2021-10-14T18:40:34Z</time>
      </trkpt>
      <trkpt lat="43.322270" lon="-4.599296">
        <ele>-43.708</ele>
        <time>2021-10-14T18:40:36Z</time>
      </trkpt>
      <trkpt lat="43.322277" lon="-4.599532">
        <ele>-43.132</ele>
        <time>2021-10-14T18:40:37Z</time>
      </trkpt>
      <trkpt lat="43.322301" lon="-4.599760">
        <ele>-41.960</ele>
        <time>2021-10-14T18:40:38Z</time>
      </trkpt>
      <trkpt lat="43.322399" lon="-4.600161">
        <ele>-41.588</ele>
        <time>2021-10-14T18:40:40Z</time>
      </trkpt>
      <trkpt lat="43.322474" lon="-4.600350">
        <ele>-42.655</ele>
        <time>2021-10-14T18:40:41Z</time>
      </trkpt>
      <trkpt lat="43.322667" lon="-4.600721">
        <ele>-43.438</ele>
        <time>2021-10-14T18:40:43Z</time>
      </trkpt>
      <trkpt lat="43.322772" lon="-4.600922">
        <ele>-44.485</ele>
        <time>2021-10-14T18:40:44Z</time>
      </trkpt>
      <trkpt lat="43.322942" lon="-4.601332">
        <ele>-44.667</ele>
        <time>2021-10-14T18:40:46Z</time>
      </trkpt>
      <trkpt lat="43.322995" lon="-4.601551">
        <ele>-47.036</ele>
        <time>2021-10-14T18:40:47Z</time>
      </trkpt>
      <trkpt lat="43.323019" lon="-4.601769">
        <ele>-47.088</ele>
        <time>2021-10-14T18:40:48Z</time>
      </trkpt>
      <trkpt lat="43.323023" lon="-4.602215">
        <ele>-48.024</ele>
        <time>2021-10-14T18:40:50Z</time>
      </trkpt>
      <trkpt lat="43.322965" lon="-4.602694">
        <ele>-47.626</ele>
        <time>2021-10-14T18:40:52Z</time>
      </trkpt>
      <trkpt lat="43.322924" lon="-4.602956">
        <ele>-47.408</ele>
        <time>2021-10-14T18:40:53Z</time>
      </trkpt>
      <trkpt lat="43.322880" lon="-4.603231">
        <ele>-47.546</ele>
        <time>2021-10-14T18:40:54Z</time>
      </trkpt>
      <trkpt lat="43.322788" lon="-4.603810">
        <ele>-49.064</ele>
        <time>2021-10-14T18:40:56Z</time>
      </trkpt>
      <trkpt lat="43.322690" lon="-4.604365">
        <ele>-49.022</ele>
        <time>2021-10-14T18:40:58Z</time>
      </trkpt>
      <trkpt lat="43.322589" lon="-4.604867">
        <ele>-49.759</ele>
        <time>2021-10-14T18:41:00Z</time>
      </trkpt>
      <trkpt lat="43.322543" lon="-4.605103">
        <ele>-49.992</ele>
        <time>2021-10-14T18:41:01Z</time>
      </trkpt>
      <trkpt lat="43.322506" lon="-4.605345">
        <ele>-49.519</ele>
        <time>2021-10-14T18:41:02Z</time>
      </trkpt>
      <trkpt lat="43.322475" lon="-4.605805">
        <ele>-49.061</ele>
        <time>2021-10-14T18:41:04Z</time>
      </trkpt>
      <trkpt lat="43.322513" lon="-4.606269">
        <ele>-48.190</ele>
        <time>2021-10-14T18:41:06Z</time>
      </trkpt>
      <trkpt lat="43.322554" lon="-4.606749">
        <ele>-48.589</ele>
        <time>2021-10-14T18:41:08Z</time>
      </trkpt>
      <trkpt lat="43.322562" lon="-4.607248">
        <ele>-49.006</ele>
        <time>2021-10-14T18:41:10Z</time>
      </trkpt>
      <trkpt lat="43.322552" lon="-4.607513">
        <ele>-48.526</ele>
        <time>2021-10-14T18:41:11Z</time>
      </trkpt>
      <trkpt lat="43.322533" lon="-4.607787">
        <ele>-47.008</ele>
        <time>2021-10-14T18:41:12Z</time>
      </trkpt>
      <trkpt lat="43.322473" lon="-4.608352">
        <ele>-45.926</ele>
        <time>2021-10-14T18:41:14Z</time>
      </trkpt>
      <trkpt lat="43.322363" lon="-4.608892">
        <ele>-45.024</ele>
        <time>2021-10-14T18:41:16Z</time>
      </trkpt>
      <trkpt lat="43.322252" lon="-4.609435">
        <ele>-44.232</ele>
        <time>2021-10-14T18:41:18Z</time>
      </trkpt>
      <trkpt lat="43.322192" lon="-4.609957">
        <ele>-45.799</ele>
        <time>2021-10-14T18:41:20Z</time>
      </trkpt>
      <trkpt lat="43.322122" lon="-4.610448">
        <ele>-46.612</ele>
        <time>2021-10-14T18:41:22Z</time>
      </trkpt>
      <trkpt lat="43.321969" lon="-4.610890">
        <ele>-44.499</ele>
        <time>2021-10-14T18:41:24Z</time>
      </trkpt>
      <trkpt lat="43.321852" lon="-4.611079">
        <ele>-47.471</ele>
        <time>2021-10-14T18:41:25Z</time>
      </trkpt>
      <trkpt lat="43.321705" lon="-4.611234">
        <ele>-45.970</ele>
        <time>2021-10-14T18:41:26Z</time>
      </trkpt>
      <trkpt lat="43.321365" lon="-4.611422">
        <ele>-46.586</ele>
        <time>2021-10-14T18:41:28Z</time>
      </trkpt>
      <trkpt lat="43.321178" lon="-4.611474">
        <ele>-45.560</ele>
        <time>2021-10-14T18:41:29Z</time>
      </trkpt>
      <trkpt lat="43.320986" lon="-4.611491">
        <ele>-44.526</ele>
        <time>2021-10-14T18:41:30Z</time>
      </trkpt>
      <trkpt lat="43.320796" lon="-4.611491">
        <ele>-45.508</ele>
        <time>2021-10-14T18:41:31Z</time>
      </trkpt>
      <trkpt lat="43.320613" lon="-4.611502">
        <ele>-46.486</ele>
        <time>2021-10-14T18:41:32Z</time>
      </trkpt>
      <trkpt lat="43.320283" lon="-4.611624">
        <ele>-46.274</ele>
        <time>2021-10-14T18:41:34Z</time>
      </trkpt>
      <trkpt lat="43.320128" lon="-4.611750">
        <ele>-45.452</ele>
        <time>2021-10-14T18:41:35Z</time>
      </trkpt>
      <trkpt lat="43.319985" lon="-4.611920">
        <ele>-46.019</ele>
        <time>2021-10-14T18:41:36Z</time>
      </trkpt>
      <trkpt lat="43.319847" lon="-4.612131">
        <ele>-46.592</ele>
        <time>2021-10-14T18:41:37Z</time>
      </trkpt>
      <trkpt lat="43.319699" lon="-4.612367">
        <ele>-46.149</ele>
        <time>2021-10-14T18:41:38Z</time>
      </trkpt>
      <trkpt lat="43.319363" lon="-4.612839">
        <ele>-44.671</ele>
        <time>2021-10-14T18:41:40Z</time>
      </trkpt>
      <trkpt lat="43.318990" lon="-4.613289">
        <ele>-42.580</ele>
        <time>2021-10-14T18:41:42Z</time>
      </trkpt>
      <trkpt lat="43.318810" lon="-4.613494">
        <ele>-43.114</ele>
        <time>2021-10-14T18:41:43Z</time>
      </trkpt>
      <trkpt lat="43.318633" lon="-4.613695">
        <ele>-42.554</ele>
        <time>2021-10-14T18:41:44Z</time>
      </trkpt>
      <trkpt lat="43.318311" lon="-4.614068">
        <ele>-40.509</ele>
        <time>2021-10-14T18:41:46Z</time>
      </trkpt>
      <trkpt lat="43.318164" lon="-4.614272">
        <ele>-40.408</ele>
        <time>2021-10-14T18:41:47Z</time>
      </trkpt>
      <trkpt lat="43.318034" lon="-4.614500">
        <ele>-41.299</ele>
        <time>2021-10-14T18:41:48Z</time>
      </trkpt>
      <trkpt lat="43.317827" lon="-4.615007">
        <ele>-38.287</ele>
        <time>2021-10-14T18:41:50Z</time>
      </trkpt>
      <trkpt lat="43.317660" lon="-4.615508">
        <ele>-37.495</ele>
        <time>2021-10-14T18:41:52Z</time>
      </trkpt>
      <trkpt lat="43.317526" lon="-4.615962">
        <ele>-37.942</ele>
        <time>2021-10-14T18:41:54Z</time>
      </trkpt>
      <trkpt lat="43.317490" lon="-4.616186">
        <ele>-36.775</ele>
        <time>2021-10-14T18:41:55Z</time>
      </trkpt>
      <trkpt lat="43.317480" lon="-4.616422">
        <ele>-36.932</ele>
        <time>2021-10-14T18:41:56Z</time>
      </trkpt>
      <trkpt lat="43.317548" lon="-4.616889">
        <ele>-36.484</ele>
        <time>2021-10-14T18:41:58Z</time>
      </trkpt>
      <trkpt lat="43.317592" lon="-4.617135">
        <ele>-36.623</ele>
        <time>2021-10-14T18:41:59Z</time>
      </trkpt>
      <trkpt lat="43.317612" lon="-4.617396">
        <ele>-37.968</ele>
        <time>2021-10-14T18:42:00Z</time>
      </trkpt>
      <trkpt lat="43.317608" lon="-4.617910">
        <ele>-37.542</ele>
        <time>2021-10-14T18:42:02Z</time>
      </trkpt>
      <trkpt lat="43.317630" lon="-4.618375">
        <ele>-36.926</ele>
        <time>2021-10-14T18:42:04Z</time>
      </trkpt>
      <trkpt lat="43.317721" lon="-4.618893">
        <ele>-37.408</ele>
        <time>2021-10-14T18:42:06Z</time>
      </trkpt>
      <trkpt lat="43.317788" lon="-4.619190">
        <ele>-40.444</ele>
        <time>2021-10-14T18:42:07Z</time>
      </trkpt>
      <trkpt lat="43.317902" lon="-4.619521">
        <ele>-42.692</ele>
        <time>2021-10-14T18:42:08Z</time>
      </trkpt>
      <trkpt lat="43.318150" lon="-4.620197">
        <ele>-40.440</ele>
        <time>2021-10-14T18:42:10Z</time>
      </trkpt>
      <trkpt lat="43.318342" lon="-4.620918">
        <ele>-42.057</ele>
        <time>2021-10-14T18:42:12Z</time>
      </trkpt>
      <trkpt lat="43.318502" lon="-4.621571">
        <ele>-43.260</ele>
        <time>2021-10-14T18:42:14Z</time>
      </trkpt>
      <trkpt lat="43.318741" lon="-4.622099">
        <ele>-44.557</ele>
        <time>2021-10-14T18:42:16Z</time>
      </trkpt>
      <trkpt lat="43.318902" lon="-4.622351">
        <ele>-44.269</ele>
        <time>2021-10-14T18:42:17Z</time>
      </trkpt>
      <trkpt lat="43.319230" lon="-4.622887">
        <ele>-45.288</ele>
        <time>2021-10-14T18:42:19Z</time>
      </trkpt>
      <trkpt lat="43.319384" lon="-4.623183">
        <ele>-44.963</ele>
        <time>2021-10-14T18:42:20Z</time>
      </trkpt>
      <trkpt lat="43.319630" lon="-4.623803">
        <ele>-43.244</ele>
        <time>2021-10-14T18:42:22Z</time>
      </trkpt>
      <trkpt lat="43.319797" lon="-4.624380">
        <ele>-46.918</ele>
        <time>2021-10-14T18:42:24Z</time>
      </trkpt>
      <trkpt lat="43.319816" lon="-4.624646">
        <ele>-45.408</ele>
        <time>2021-10-14T18:42:25Z</time>
      </trkpt>
      <trkpt lat="43.319796" lon="-4.624931">
        <ele>-44.594</ele>
        <time>2021-10-14T18:42:26Z</time>
      </trkpt>
      <trkpt lat="43.319732" lon="-4.625543">
        <ele>-46.692</ele>
        <time>2021-10-14T18:42:28Z</time>
      </trkpt>
      <trkpt lat="43.319706" lon="-4.625876">
        <ele>-44.630</ele>
        <time>2021-10-14T18:42:29Z</time>
      </trkpt>
      <trkpt lat="43.319683" lon="-4.626210">
        <ele>-45.157</ele>
        <time>2021-10-14T18:42:30Z</time>
      </trkpt>
      <trkpt lat="43.319625" lon="-4.626820">
        <ele>-44.620</ele>
        <time>2021-10-14T18:42:32Z</time>
      </trkpt>
      <trkpt lat="43.319568" lon="-4.627331">
        <ele>-43.737</ele>
        <time>2021-10-14T18:42:34Z</time>
      </trkpt>
      <trkpt lat="43.319508" lon="-4.627786">
        <ele>-44.519</ele>
        <time>2021-10-14T18:42:36Z</time>
      </trkpt>
      <trkpt lat="43.319510" lon="-4.628255">
        <ele>-41.548</ele>
        <time>2021-10-14T18:42:38Z</time>
      </trkpt>
      <trkpt lat="43.319551" lon="-4.628779">
        <ele>-37.791</ele>
        <time>2021-10-14T18:42:40Z</time>
      </trkpt>
      <trkpt lat="43.319592" lon="-4.629035">
        <ele>-39.181</ele>
        <time>2021-10-14T18:42:41Z</time>
      </trkpt>
      <trkpt lat="43.319752" lon="-4.629544">
        <ele>-36.919</ele>
        <time>2021-10-14T18:42:43Z</time>
      </trkpt>
      <trkpt lat="43.319837" lon="-4.629821">
        <ele>-37.608</ele>
        <time>2021-10-14T18:42:44Z</time>
      </trkpt>
      <trkpt lat="43.319998" lon="-4.630297">
        <ele>-36.487</ele>
        <time>2021-10-14T18:42:46Z</time>
      </trkpt>
      <trkpt lat="43.320087" lon="-4.630514">
        <ele>-35.595</ele>
        <time>2021-10-14T18:42:47Z</time>
      </trkpt>
      <trkpt lat="43.320221" lon="-4.630949">
        <ele>-37.183</ele>
        <time>2021-10-14T18:42:49Z</time>
      </trkpt>
      <trkpt lat="43.320246" lon="-4.631201">
        <ele>-34.410</ele>
        <time>2021-10-14T18:42:50Z</time>
      </trkpt>
      <trkpt lat="43.320243" lon="-4.631794">
        <ele>-32.413</ele>
        <time>2021-10-14T18:42:52Z</time>
      </trkpt>
      <trkpt lat="43.320253" lon="-4.632124">
        <ele>-33.480</ele>
        <time>2021-10-14T18:42:53Z</time>
      </trkpt>
      <trkpt lat="43.320317" lon="-4.632776">
        <ele>-30.262</ele>
        <time>2021-10-14T18:42:55Z</time>
      </trkpt>
      <trkpt lat="43.320373" lon="-4.633111">
        <ele>-30.151</ele>
        <time>2021-10-14T18:42:56Z</time>
      </trkpt>
      <trkpt lat="43.320543" lon="-4.633761">
        <ele>-30.173</ele>
        <time>2021-10-14T18:42:58Z</time>
      </trkpt>
      <trkpt lat="43.320653" lon="-4.634060">
        <ele>-31.185</ele>
        <time>2021-10-14T18:42:59Z</time>
      </trkpt>
      <trkpt lat="43.320904" lon="-4.634576">
        <ele>-33.013</ele>
        <time>2021-10-14T18:43:01Z</time>
      </trkpt>
      <trkpt lat="43.321032" lon="-4.634793">
        <ele>-32.508</ele>
        <time>2021-10-14T18:43:02Z</time>
      </trkpt>
      <trkpt lat="43.321345" lon="-4.635130">
        <ele>-34.925</ele>
        <time>2021-10-14T18:43:04Z</time>
      </trkpt>
      <trkpt lat="43.321536" lon="-4.635353">
        <ele>-32.993</ele>
        <time>2021-10-14T18:43:05Z</time>
      </trkpt>
      <trkpt lat="43.321931" lon="-4.635935">
        <ele>-33.191</ele>
        <time>2021-10-14T18:43:07Z</time>
      </trkpt>
      <trkpt lat="43.322120" lon="-4.636277">
        <ele>-33.528</ele>
        <time>2021-10-14T18:43:08Z</time>
      </trkpt>
      <trkpt lat="43.322424" lon="-4.636922">
        <ele>-32.581</ele>
        <time>2021-10-14T18:43:10Z</time>
      </trkpt>
      <trkpt lat="43.322549" lon="-4.637229">
        <ele>-33.058</ele>
        <time>2021-10-14T18:43:11Z</time>
      </trkpt>
      <trkpt lat="43.322765" lon="-4.637780">
        <ele>-34.740</ele>
        <time>2021-10-14T18:43:13Z</time>
      </trkpt>
      <trkpt lat="43.322881" lon="-4.638022">
        <ele>-34.429</ele>
        <time>2021-10-14T18:43:14Z</time>
      </trkpt>
      <trkpt lat="43.323189" lon="-4.638402">
        <ele>-33.722</ele>
        <time>2021-10-14T18:43:16Z</time>
      </trkpt>
      <trkpt lat="43.323402" lon="-4.638561">
        <ele>-32.762</ele>
        <time>2021-10-14T18:43:17Z</time>
      </trkpt>
      <trkpt lat="43.323641" lon="-4.638712">
        <ele>-31.508</ele>
        <time>2021-10-14T18:43:18Z</time>
      </trkpt>
      <trkpt lat="43.324115" lon="-4.639025">
        <ele>-31.608</ele>
        <time>2021-10-14T18:43:20Z</time>
      </trkpt>
      <trkpt lat="43.324492" lon="-4.639452">
        <ele>-31.780</ele>
        <time>2021-10-14T18:43:22Z</time>
      </trkpt>
      <trkpt lat="43.324661" lon="-4.639746">
        <ele>-32.428</ele>
        <time>2021-10-14T18:43:23Z</time>
      </trkpt>
      <trkpt lat="43.324825" lon="-4.640093">
        <ele>-32.946</ele>
        <time>2021-10-14T18:43:24Z</time>
      </trkpt>
      <trkpt lat="43.324984" lon="-4.640475">
        <ele>-31.693</ele>
        <time>2021-10-14T18:43:25Z</time>
      </trkpt>
      <trkpt lat="43.325149" lon="-4.640886">
        <ele>-32.626</ele>
        <time>2021-10-14T18:43:26Z</time>
      </trkpt>
      <trkpt lat="43.325471" lon="-4.641683">
        <ele>-33.433</ele>
        <time>2021-10-14T18:43:28Z</time>
      </trkpt>
      <trkpt lat="43.325812" lon="-4.642445">
        <ele>-31.015</ele>
        <time>2021-10-14T18:43:30Z</time>
      </trkpt>
      <trkpt lat="43.325995" lon="-4.642813">
        <ele>-31.294</ele>
        <time>2021-10-14T18:43:31Z</time>
      </trkpt>
      <trkpt lat="43.326179" lon="-4.643187">
        <ele>-29.861</ele>
        <time>2021-10-14T18:43:32Z</time>
      </trkpt>
      <trkpt lat="43.326506" lon="-4.643850">
        <ele>-28.321</ele>
        <time>2021-10-14T18:43:34Z</time>
      </trkpt>
      <trkpt lat="43.326651" lon="-4.644147">
        <ele>-28.813</ele>
        <time>2021-10-14T18:43:35Z</time>
      </trkpt>
      <trkpt lat="43.326885" lon="-4.644638">
        <ele>-28.008</ele>
        <time>2021-10-14T18:43:37Z</time>
      </trkpt>
      <trkpt lat="43.326986" lon="-4.644899">
        <ele>-28.254</ele>
        <time>2021-10-14T18:43:38Z</time>
      </trkpt>
      <trkpt lat="43.327143" lon="-4.645413">
        <ele>-28.062</ele>
        <time>2021-10-14T18:43:40Z</time>
      </trkpt>
      <trkpt lat="43.327213" lon="-4.645687">
        <ele>-29.610</ele>
        <time>2021-10-14T18:43:41Z</time>
      </trkpt>
      <trkpt lat="43.327277" lon="-4.645976">
        <ele>-32.447</ele>
        <time>2021-10-14T18:43:42Z</time>
      </trkpt>
      <trkpt lat="43.327383" lon="-4.646610">
        <ele>-30.990</ele>
        <time>2021-10-14T18:43:44Z</time>
      </trkpt>
      <trkpt lat="43.327463" lon="-4.647265">
        <ele>-32.267</ele>
        <time>2021-10-14T18:43:46Z</time>
      </trkpt>
      <trkpt lat="43.327498" lon="-4.647602">
        <ele>-32.469</ele>
        <time>2021-10-14T18:43:47Z</time>
      </trkpt>
      <trkpt lat="43.327570" lon="-4.648297">
        <ele>-32.458</ele>
        <time>2021-10-14T18:43:49Z</time>
      </trkpt>
      <trkpt lat="43.327607" lon="-4.648659">
        <ele>-33.643</ele>
        <time>2021-10-14T18:43:50Z</time>
      </trkpt>
      <trkpt lat="43.327645" lon="-4.649356">
        <ele>-32.464</ele>
        <time>2021-10-14T18:43:52Z</time>
      </trkpt>
      <trkpt lat="43.327640" lon="-4.649708">
        <ele>-31.310</ele>
        <time>2021-10-14T18:43:53Z</time>
      </trkpt>
      <trkpt lat="43.327596" lon="-4.650394">
        <ele>-31.408</ele>
        <time>2021-10-14T18:43:55Z</time>
      </trkpt>
      <trkpt lat="43.327570" lon="-4.650738">
        <ele>-31.122</ele>
        <time>2021-10-14T18:43:56Z</time>
      </trkpt>
      <trkpt lat="43.327552" lon="-4.651378">
        <ele>-30.280</ele>
        <time>2021-10-14T18:43:58Z</time>
      </trkpt>
      <trkpt lat="43.327572" lon="-4.651702">
        <ele>-30.518</ele>
        <time>2021-10-14T18:43:59Z</time>
      </trkpt>
      <trkpt lat="43.327699" lon="-4.652339">
        <ele>-30.015</ele>
        <time>2021-10-14T18:44:01Z</time>
      </trkpt>
      <trkpt lat="43.327801" lon="-4.652644">
        <ele>-30.118</ele>
        <time>2021-10-14T18:44:02Z</time>
      </trkpt>
      <trkpt lat="43.327986" lon="-4.653214">
        <ele>-28.735</ele>
        <time>2021-10-14T18:44:04Z</time>
      </trkpt>
      <trkpt lat="43.328043" lon="-4.653515">
        <ele>-28.117</ele>
        <time>2021-10-14T18:44:05Z</time>
      </trkpt>
      <trkpt lat="43.328046" lon="-4.654108">
        <ele>-27.886</ele>
        <time>2021-10-14T18:44:07Z</time>
      </trkpt>
      <trkpt lat="43.328001" lon="-4.654418">
        <ele>-27.858</ele>
        <time>2021-10-14T18:44:08Z</time>
      </trkpt>
      <trkpt lat="43.327956" lon="-4.655022">
        <ele>-27.352</ele>
        <time>2021-10-14T18:44:10Z</time>
      </trkpt>
      <trkpt lat="43.327983" lon="-4.655325">
        <ele>-28.017</ele>
        <time>2021-10-14T18:44:11Z</time>
      </trkpt>
      <trkpt lat="43.328045" lon="-4.655630">
        <ele>-29.208</ele>
        <time>2021-10-14T18:44:12Z</time>
      </trkpt>
      <trkpt lat="43.328132" lon="-4.655939">
        <ele>-29.383</ele>
        <time>2021-10-14T18:44:13Z</time>
      </trkpt>
      <trkpt lat="43.328232" lon="-4.656253">
        <ele>-28.991</ele>
        <time>2021-10-14T18:44:14Z</time>
      </trkpt>
      <trkpt lat="43.328411" lon="-4.656793">
        <ele>-31.529</ele>
        <time>2021-10-14T18:44:16Z</time>
      </trkpt>
      <trkpt lat="43.328491" lon="-4.657042">
        <ele>-30.766</ele>
        <time>2021-10-14T18:44:17Z</time>
      </trkpt>
      <trkpt lat="43.328689" lon="-4.657485">
        <ele>-32.689</ele>
        <time>2021-10-14T18:44:19Z</time>
      </trkpt>
      <trkpt lat="43.328827" lon="-4.657684">
        <ele>-31.686</ele>
        <time>2021-10-14T18:44:20Z</time>
      </trkpt>
      <trkpt lat="43.329166" lon="-4.658019">
        <ele>-33.098</ele>
        <time>2021-10-14T18:44:22Z</time>
      </trkpt>
      <trkpt lat="43.329470" lon="-4.658390">
        <ele>-32.467</ele>
        <time>2021-10-14T18:44:24Z</time>
      </trkpt>
      <trkpt lat="43.329586" lon="-4.658561">
        <ele>-32.978</ele>
        <time>2021-10-14T18:44:25Z</time>
      </trkpt>
      <trkpt lat="43.329679" lon="-4.658720">
        <ele>-32.233</ele>
        <time>2021-10-14T18:44:26Z</time>
      </trkpt>
      <trkpt lat="43.329792" lon="-4.659030">
        <ele>-33.626</ele>
        <time>2021-10-14T18:44:28Z</time>
      </trkpt>
      <trkpt lat="43.329829" lon="-4.659408">
        <ele>-32.508</ele>
        <time>2021-10-14T18:44:30Z</time>
      </trkpt>
      <trkpt lat="43.329813" lon="-4.659612">
        <ele>-32.995</ele>
        <time>2021-10-14T18:44:31Z</time>
      </trkpt>
      <trkpt lat="43.329776" lon="-4.659827">
        <ele>-32.643</ele>
        <time>2021-10-14T18:44:32Z</time>
      </trkpt>
      <trkpt lat="43.329671" lon="-4.660267">
        <ele>-31.481</ele>
        <time>2021-10-14T18:44:34Z</time>
      </trkpt>
      <trkpt lat="43.329539" lon="-4.660679">
        <ele>-28.018</ele>
        <time>2021-10-14T18:44:36Z</time>
      </trkpt>
      <trkpt lat="43.329377" lon="-4.661013">
        <ele>-29.291</ele>
        <time>2021-10-14T18:44:38Z</time>
      </trkpt>
      <trkpt lat="43.329189" lon="-4.661370">
        <ele>-29.078</ele>
        <time>2021-10-14T18:44:40Z</time>
      </trkpt>
      <trkpt lat="43.329095" lon="-4.661574">
        <ele>-28.040</ele>
        <time>2021-10-14T18:44:41Z</time>
      </trkpt>
      <trkpt lat="43.328972" lon="-4.662024">
        <ele>-27.689</ele>
        <time>2021-10-14T18:44:43Z</time>
      </trkpt>
      <trkpt lat="43.328953" lon="-4.662270">
        <ele>-25.653</ele>
        <time>2021-10-14T18:44:44Z</time>
      </trkpt>
      <trkpt lat="43.328995" lon="-4.662814">
        <ele>-24.604</ele>
        <time>2021-10-14T18:44:46Z</time>
      </trkpt>
      <trkpt lat="43.329030" lon="-4.663112">
        <ele>-22.514</ele>
        <time>2021-10-14T18:44:47Z</time>
      </trkpt>
      <trkpt lat="43.329075" lon="-4.663415">
        <ele>-21.508</ele>
        <time>2021-10-14T18:44:48Z</time>
      </trkpt>
      <trkpt lat="43.329215" lon="-4.664065">
        <ele>-20.653</ele>
        <time>2021-10-14T18:44:50Z</time>
      </trkpt>
      <trkpt lat="43.329338" lon="-4.664719">
        <ele>-21.071</ele>
        <time>2021-10-14T18:44:52Z</time>
      </trkpt>
      <trkpt lat="43.329384" lon="-4.665028">
        <ele>-18.579</ele>
        <time>2021-10-14T18:44:53Z</time>
      </trkpt>
      <trkpt lat="43.329426" lon="-4.665319">
        <ele>-19.016</ele>
        <time>2021-10-14T18:44:54Z</time>
      </trkpt>
      <trkpt lat="43.329451" lon="-4.665855">
        <ele>-18.289</ele>
        <time>2021-10-14T18:44:56Z</time>
      </trkpt>
      <trkpt lat="43.329366" lon="-4.666322">
        <ele>-16.566</ele>
        <time>2021-10-14T18:44:58Z</time>
      </trkpt>
      <trkpt lat="43.329269" lon="-4.666549">
        <ele>-17.098</ele>
        <time>2021-10-14T18:44:59Z</time>
      </trkpt>
      <trkpt lat="43.329128" lon="-4.666770">
        <ele>-14.917</ele>
        <time>2021-10-14T18:45:00Z</time>
      </trkpt>
      <trkpt lat="43.328944" lon="-4.667007">
        <ele>-16.357</ele>
        <time>2021-10-14T18:45:01Z</time>
      </trkpt>
      <trkpt lat="43.328759" lon="-4.667266">
        <ele>-16.800</ele>
        <time>2021-10-14T18:45:02Z</time>
      </trkpt>
      <trkpt lat="43.328509" lon="-4.667807">
        <ele>-18.020</ele>
        <time>2021-10-14T18:45:04Z</time>
      </trkpt>
      <trkpt lat="43.328425" lon="-4.668122">
        <ele>-17.308</ele>
        <time>2021-10-14T18:45:05Z</time>
      </trkpt>
      <trkpt lat="43.328279" lon="-4.668791">
        <ele>-18.723</ele>
        <time>2021-10-14T18:45:07Z</time>
      </trkpt>
      <trkpt lat="43.328200" lon="-4.669129">
        <ele>-19.871</ele>
        <time>2021-10-14T18:45:08Z</time>
      </trkpt>
      <trkpt lat="43.328054" lon="-4.669720">
        <ele>-20.019</ele>
        <time>2021-10-14T18:45:10Z</time>
      </trkpt>
      <trkpt lat="43.327975" lon="-4.670004">
        <ele>-21.366</ele>
        <time>2021-10-14T18:45:11Z</time>
      </trkpt>
      <trkpt lat="43.327884" lon="-4.670289">
        <ele>-20.359</ele>
        <time>2021-10-14T18:45:12Z</time>
      </trkpt>
      <trkpt lat="43.327710" lon="-4.670871">
        <ele>-22.036</ele>
        <time>2021-10-14T18:45:14Z</time>
      </trkpt>
      <trkpt lat="43.327626" lon="-4.671477">
        <ele>-21.378</ele>
        <time>2021-10-14T18:45:16Z</time>
      </trkpt>
      <trkpt lat="43.327579" lon="-4.671777">
        <ele>-23.327</ele>
        <time>2021-10-14T18:45:17Z</time>
      </trkpt>
      <trkpt lat="43.327432" lon="-4.672316">
        <ele>-22.039</ele>
        <time>2021-10-14T18:45:19Z</time>
      </trkpt>
      <trkpt lat="43.327349" lon="-4.672576">
        <ele>-22.801</ele>
        <time>2021-10-14T18:45:20Z</time>
      </trkpt>
      <trkpt lat="43.327186" lon="-4.673046">
        <ele>-22.021</ele>
        <time>2021-10-14T18:45:22Z</time>
      </trkpt>
      <trkpt lat="43.327073" lon="-4.673265">
        <ele>-22.608</ele>
        <time>2021-10-14T18:45:23Z</time>
      </trkpt>
      <trkpt lat="43.326797" lon="-4.673695">
        <ele>-24.381</ele>
        <time>2021-10-14T18:45:25Z</time>
      </trkpt>
      <trkpt lat="43.326668" lon="-4.673928">
        <ele>-23.689</ele>
        <time>2021-10-14T18:45:26Z</time>
      </trkpt>
      <trkpt lat="43.326443" lon="-4.674340">
        <ele>-25.367</ele>
        <time>2021-10-14T18:45:28Z</time>
      </trkpt>
      <trkpt lat="43.326324" lon="-4.674518">
        <ele>-26.674</ele>
        <time>2021-10-14T18:45:29Z</time>
      </trkpt>
      <trkpt lat="43.326200" lon="-4.674676">
        <ele>-27.187</ele>
        <time>2021-10-14T18:45:30Z</time>
      </trkpt>
      <trkpt lat="43.326071" lon="-4.674816">
        <ele>-26.084</ele>
        <time>2021-10-14T18:45:31Z</time>
      </trkpt>
      <trkpt lat="43.325939" lon="-4.674940">
        <ele>-27.996</ele>
        <time>2021-10-14T18:45:32Z</time>
      </trkpt>
      <trkpt lat="43.325711" lon="-4.675147">
        <ele>-28.915</ele>
        <time>2021-10-14T18:45:34Z</time>
      </trkpt>
      <trkpt lat="43.325519" lon="-4.675356">
        <ele>-29.021</ele>
        <time>2021-10-14T18:45:36Z</time>
      </trkpt>
      <trkpt lat="43.325358" lon="-4.675571">
        <ele>-31.241</ele>
        <time>2021-10-14T18:45:38Z</time>
      </trkpt>
      <trkpt lat="43.325180" lon="-4.675769">
        <ele>-29.405</ele>
        <time>2021-10-14T18:45:40Z</time>
      </trkpt>
      <trkpt lat="43.324959" lon="-4.675941">
        <ele>-29.608</ele>
        <time>2021-10-14T18:45:42Z</time>
      </trkpt>
      <trkpt lat="43.324755" lon="-4.676158">
        <ele>-29.840</ele>
        <time>2021-10-14T18:45:44Z</time>
      </trkpt>
      <trkpt lat="43.324640" lon="-4.676477">
        <ele>-29.718</ele>
        <time>2021-10-14T18:45:46Z</time>
      </trkpt>
      <trkpt lat="43.324661" lon="-4.676845">
        <ele>-29.866</ele>
        <time>2021-10-14T18:45:48Z</time>
      </trkpt>
      <trkpt lat="43.324720" lon="-4.677205">
        <ele>-29.283</ele>
        <time>2021-10-14T18:45:50Z</time>
      </trkpt>
      <trkpt lat="43.324723" lon="-4.677498">
        <ele>-28.096</ele>
        <time>2021-10-14T18:45:52Z</time>
      </trkpt>
      <trkpt lat="43.324690" lon="-4.677781">
        <ele>-25.853</ele>
        <time>2021-10-14T18:45:54Z</time>
      </trkpt>
      <trkpt lat="43.324637" lon="-4.678058">
        <ele>-26.215</ele>
        <time>2021-10-14T18:45:56Z</time>
      </trkpt>
      <trkpt lat="43.324566" lon="-4.678316">
        <ele>-24.864</ele>
        <time>2021-10-14T18:45:58Z</time>
      </trkpt>
      <trkpt lat="43.324526" lon="-4.678437">
        <ele>-24.832</ele>
        <time>2021-10-14T18:45:59Z</time>
      </trkpt>
      <trkpt lat="43.324425" lon="-4.678669">
        <ele>-24.892</ele>
        <time>2021-10-14T18:46:01Z</time>
      </trkpt>
      <trkpt lat="43.324358" lon="-4.678780">
        <ele>-24.511</ele>
        <time>2021-10-14T18:46:02Z</time>
      </trkpt>
      <trkpt lat="43.324191" lon="-4.678952">
        <ele>-25.308</ele>
        <time>2021-10-14T18:46:04Z</time>
      </trkpt>
      <trkpt lat="43.323977" lon="-4.679028">
        <ele>-24.631</ele>
        <time>2021-10-14T18:46:06Z</time>
      </trkpt>
      <trkpt lat="43.323870" lon="-4.679030">
        <ele>-25.559</ele>
        <time>2021-10-14T18:46:07Z</time>
      </trkpt>
      <trkpt lat="43.323762" lon="-4.679017">
        <ele>-25.397</ele>
        <time>2021-10-14T18:46:08Z</time>
      </trkpt>
      <trkpt lat="43.323535" lon="-4.678934">
        <ele>-26.284</ele>
        <time>2021-10-14T18:46:10Z</time>
      </trkpt>
      <trkpt lat="43.323418" lon="-4.678854">
        <ele>-25.387</ele>
        <time>2021-10-14T18:46:11Z</time>
      </trkpt>
      <trkpt lat="43.323307" lon="-4.678767">
        <ele>-26.954</ele>
        <time>2021-10-14T18:46:12Z</time>
      </trkpt>
      <trkpt lat="43.323097" lon="-4.678615">
        <ele>-25.846</ele>
        <time>2021-10-14T18:46:14Z</time>
      </trkpt>
      <trkpt lat="43.322879" lon="-4.678503">
        <ele>-27.565</ele>
        <time>2021-10-14T18:46:16Z</time>
      </trkpt>
      <trkpt lat="43.322624" lon="-4.678395">
        <ele>-26.242</ele>
        <time>2021-10-14T18:46:18Z</time>
      </trkpt>
      <trkpt lat="43.322330" lon="-4.678271">
        <ele>-27.422</ele>
        <time>2021-10-14T18:46:20Z</time>
      </trkpt>
      <trkpt lat="43.322014" lon="-4.678170">
        <ele>-26.814</ele>
        <time>2021-10-14T18:46:22Z</time>
      </trkpt>
      <trkpt lat="43.321858" lon="-4.678157">
        <ele>-27.208</ele>
        <time>2021-10-14T18:46:23Z</time>
      </trkpt>
      <trkpt lat="43.321707" lon="-4.678171">
        <ele>-27.122</ele>
        <time>2021-10-14T18:46:24Z</time>
      </trkpt>
      <trkpt lat="43.321396" lon="-4.678152">
        <ele>-26.440</ele>
        <time>2021-10-14T18:46:26Z</time>
      </trkpt>
      <trkpt lat="43.321082" lon="-4.678045">
        <ele>-26.848</ele>
        <time>2021-10-14T18:46:28Z</time>
      </trkpt>
      <trkpt lat="43.320738" lon="-4.678013">
        <ele>-27.675</ele>
        <time>2021-10-14T18:46:30Z</time>
      </trkpt>
      <trkpt lat="43.320413" lon="-4.677997">
        <ele>-27.628</ele>
        <time>2021-10-14T18:46:32Z</time>
      </trkpt>
      <trkpt lat="43.320136" lon="-4.677972">
        <ele>-28.985</ele>
        <time>2021-10-14T18:46:34Z</time>
      </trkpt>
      <trkpt lat="43.319857" lon="-4.677885">
        <ele>-28.137</ele>
        <time>2021-10-14T18:46:36Z</time>
      </trkpt>
      <trkpt lat="43.319717" lon="-4.677813">
        <ele>-28.146</ele>
        <time>2021-10-14T18:46:37Z</time>
      </trkpt>
      <trkpt lat="43.319577" lon="-4.677725">
        <ele>-26.569</ele>
        <time>2021-10-14T18:46:38Z</time>
      </trkpt>
      <trkpt lat="43.319312" lon="-4.677560">
        <ele>-25.904</ele>
        <time>2021-10-14T18:46:40Z</time>
      </trkpt>
      <trkpt lat="43.319046" lon="-4.677469">
        <ele>-27.124</ele>
        <time>2021-10-14T18:46:42Z</time>
      </trkpt>
      <trkpt lat="43.318755" lon="-4.677518">
        <ele>-25.108</ele>
        <time>2021-10-14T18:46:44Z</time>
      </trkpt>
      <trkpt lat="43.318468" lon="-4.677660">
        <ele>-24.074</ele>
        <time>2021-10-14T18:46:46Z</time>
      </trkpt>
      <trkpt lat="43.318172" lon="-4.677797">
        <ele>-26.072</ele>
        <time>2021-10-14T18:46:48Z</time>
      </trkpt>
      <trkpt lat="43.317866" lon="-4.677912">
        <ele>-23.510</ele>
        <time>2021-10-14T18:46:50Z</time>
      </trkpt>
      <trkpt lat="43.317578" lon="-4.678000">
        <ele>-23.577</ele>
        <time>2021-10-14T18:46:52Z</time>
      </trkpt>
      <trkpt lat="43.317329" lon="-4.678076">
        <ele>-22.320</ele>
        <time>2021-10-14T18:46:54Z</time>
      </trkpt>
      <trkpt lat="43.317226" lon="-4.678111">
        <ele>-20.377</ele>
        <time>2021-10-14T18:46:55Z</time>
      </trkpt>
      <trkpt lat="43.317129" lon="-4.678146">
        <ele>-20.519</ele>
        <time>2021-10-14T18:46:56Z</time>
      </trkpt>
      <trkpt lat="43.316951" lon="-4.678231">
        <ele>-22.598</ele>
        <time>2021-10-14T18:46:58Z</time>
      </trkpt>
      <trkpt lat="43.316862" lon="-4.678292">
        <ele>-22.393</ele>
        <time>2021-10-14T18:46:59Z</time>
      </trkpt>
      <trkpt lat="43.316783" lon="-4.678354">
        <ele>-21.665</ele>
        <time>2021-10-14T18:47:00Z</time>
      </trkpt>
      <trkpt lat="43.316683" lon="-4.678450">
        <ele>-23.321</ele>
        <time>2021-10-14T18:47:02Z</time>
      </trkpt>
      <trkpt lat="43.316623" lon="-4.678517">
        <ele>-23.608</ele>
        <time>2021-10-14T18:47:04Z</time>
      </trkpt>
      <trkpt lat="43.316591" lon="-4.678573">
        <ele>-21.057</ele>
        <time>2021-10-14T18:47:05Z</time>
      </trkpt>
      <trkpt lat="43.316554" lon="-4.678659">
        <ele>-21.845</ele>
        <time>2021-10-14T18:47:06Z</time>
      </trkpt>
      <trkpt lat="43.316456" lon="-4.678900">
        <ele>-20.113</ele>
        <time>2021-10-14T18:47:08Z</time>
      </trkpt>
      <trkpt lat="43.316341" lon="-4.679212">
        <ele>-19.590</ele>
        <time>2021-10-14T18:47:10Z</time>
      </trkpt>
      <trkpt lat="43.316274" lon="-4.679386">
        <ele>-19.033</ele>
        <time>2021-10-14T18:47:11Z</time>
      </trkpt>
      <trkpt lat="43.316134" lon="-4.679753">
        <ele>-16.830</ele>
        <time>2021-10-14T18:47:13Z</time>
      </trkpt>
      <trkpt lat="43.316063" lon="-4.679950">
        <ele>-16.652</ele>
        <time>2021-10-14T18:47:14Z</time>
      </trkpt>
      <trkpt lat="43.315922" lon="-4.680332">
        <ele>-11.851</ele>
        <time>2021-10-14T18:47:16Z</time>
      </trkpt>
      <trkpt lat="43.315781" lon="-4.680711">
        <ele>-11.317</ele>
        <time>2021-10-14T18:47:18Z</time>
      </trkpt>
      <trkpt lat="43.315658" lon="-4.681040">
        <ele>-9.787</ele>
        <time>2021-10-14T18:47:20Z</time>
      </trkpt>
      <trkpt lat="43.315560" lon="-4.681346">
        <ele>-6.815</ele>
        <time>2021-10-14T18:47:22Z</time>
      </trkpt>
      <trkpt lat="43.315488" lon="-4.681730">
        <ele>-5.408</ele>
        <time>2021-10-14T18:47:24Z</time>
      </trkpt>
      <trkpt lat="43.315479" lon="-4.681960">
        <ele>-3.729</ele>
        <time>2021-10-14T18:47:25Z</time>
      </trkpt>
      <trkpt lat="43.315493" lon="-4.682223">
        <ele>-3.757</ele>
        <time>2021-10-14T18:47:26Z</time>
      </trkpt>
      <trkpt lat="43.315566" lon="-4.682801">
        <ele>-2.225</ele>
        <time>2021-10-14T18:47:28Z</time>
      </trkpt>
      <trkpt lat="43.315578" lon="-4.683437">
        <ele>-1.372</ele>
        <time>2021-10-14T18:47:30Z</time>
      </trkpt>
      <trkpt lat="43.315536" lon="-4.683767">
        <ele>0.085</ele>
        <time>2021-10-14T18:47:31Z</time>
      </trkpt>
      <trkpt lat="43.315450" lon="-4.684111">
        <ele>0.742</ele>
        <time>2021-10-14T18:47:32Z</time>
      </trkpt>
      <trkpt lat="43.315255" lon="-4.684737">
        <ele>0.984</ele>
        <time>2021-10-14T18:47:34Z</time>
      </trkpt>
      <trkpt lat="43.315137" lon="-4.685350">
        <ele>1.673</ele>
        <time>2021-10-14T18:47:36Z</time>
      </trkpt>
      <trkpt lat="43.315112" lon="-4.685980">
        <ele>1.377</ele>
        <time>2021-10-14T18:47:38Z</time>
      </trkpt>
      <trkpt lat="43.315176" lon="-4.686616">
        <ele>-0.961</ele>
        <time>2021-10-14T18:47:40Z</time>
      </trkpt>
      <trkpt lat="43.315215" lon="-4.687299">
        <ele>0.827</ele>
        <time>2021-10-14T18:47:42Z</time>
      </trkpt>
      <trkpt lat="43.315216" lon="-4.687655">
        <ele>1.508</ele>
        <time>2021-10-14T18:47:43Z</time>
      </trkpt>
      <trkpt lat="43.315211" lon="-4.688018">
        <ele>2.045</ele>
        <time>2021-10-14T18:47:44Z</time>
      </trkpt>
      <trkpt lat="43.315187" lon="-4.688714">
        <ele>1.653</ele>
        <time>2021-10-14T18:47:46Z</time>
      </trkpt>
      <trkpt lat="43.315155" lon="-4.689397">
        <ele>3.361</ele>
        <time>2021-10-14T18:47:48Z</time>
      </trkpt>
      <trkpt lat="43.315146" lon="-4.690032">
        <ele>5.948</ele>
        <time>2021-10-14T18:47:50Z</time>
      </trkpt>
      <trkpt lat="43.315139" lon="-4.690587">
        <ele>8.531</ele>
        <time>2021-10-14T18:47:52Z</time>
      </trkpt>
      <trkpt lat="43.315169" lon="-4.691109">
        <ele>12.248</ele>
        <time>2021-10-14T18:47:54Z</time>
      </trkpt>
      <trkpt lat="43.315211" lon="-4.691375">
        <ele>13.660</ele>
        <time>2021-10-14T18:47:55Z</time>
      </trkpt>
      <trkpt lat="43.315269" lon="-4.691646">
        <ele>14.649</ele>
        <time>2021-10-14T18:47:56Z</time>
      </trkpt>
      <trkpt lat="43.315368" lon="-4.692200">
        <ele>19.018</ele>
        <time>2021-10-14T18:47:58Z</time>
      </trkpt>
      <trkpt lat="43.315437" lon="-4.692821">
        <ele>23.898</ele>
        <time>2021-10-14T18:48:00Z</time>
      </trkpt>
      <trkpt lat="43.315471" lon="-4.693148">
        <ele>25.017</ele>
        <time>2021-10-14T18:48:01Z</time>
      </trkpt>
      <trkpt lat="43.315505" lon="-4.693492">
        <ele>25.908</ele>
        <time>2021-10-14T18:48:02Z</time>
      </trkpt>
      <trkpt lat="43.315554" lon="-4.694158">
        <ele>28.379</ele>
        <time>2021-10-14T18:48:04Z</time>
      </trkpt>
      <trkpt lat="43.315559" lon="-4.694817">
        <ele>30.177</ele>
        <time>2021-10-14T18:48:06Z</time>
      </trkpt>
      <trkpt lat="43.315605" lon="-4.695478">
        <ele>32.645</ele>
        <time>2021-10-14T18:48:08Z</time>
      </trkpt>
      <trkpt lat="43.315667" lon="-4.696134">
        <ele>34.062</ele>
        <time>2021-10-14T18:48:10Z</time>
      </trkpt>
      <trkpt lat="43.315693" lon="-4.696467">
        <ele>33.465</ele>
        <time>2021-10-14T18:48:11Z</time>
      </trkpt>
      <trkpt lat="43.315718" lon="-4.696798">
        <ele>34.312</ele>
        <time>2021-10-14T18:48:12Z</time>
      </trkpt>
      <trkpt lat="43.315739" lon="-4.697125">
        <ele>35.654</ele>
        <time>2021-10-14T18:48:13Z</time>
      </trkpt>
      <trkpt lat="43.315766" lon="-4.697445">
        <ele>36.123</ele>
        <time>2021-10-14T18:48:14Z</time>
      </trkpt>
      <trkpt lat="43.315822" lon="-4.698034">
        <ele>37.236</ele>
        <time>2021-10-14T18:48:16Z</time>
      </trkpt>
      <trkpt lat="43.315834" lon="-4.698619">
        <ele>39.117</ele>
        <time>2021-10-14T18:48:18Z</time>
      </trkpt>
      <trkpt lat="43.315813" lon="-4.698924">
        <ele>41.418</ele>
        <time>2021-10-14T18:48:19Z</time>
      </trkpt>
      <trkpt lat="43.315776" lon="-4.699242">
        <ele>42.708</ele>
        <time>2021-10-14T18:48:20Z</time>
      </trkpt>
      <trkpt lat="43.315696" lon="-4.699838">
        <ele>43.741</ele>
        <time>2021-10-14T18:48:22Z</time>
      </trkpt>
      <trkpt lat="43.315625" lon="-4.700383">
        <ele>44.079</ele>
        <time>2021-10-14T18:48:24Z</time>
      </trkpt>
      <trkpt lat="43.315605" lon="-4.700891">
        <ele>43.567</ele>
        <time>2021-10-14T18:48:26Z</time>
      </trkpt>
      <trkpt lat="43.315704" lon="-4.701420">
        <ele>42.024</ele>
        <time>2021-10-14T18:48:28Z</time>
      </trkpt>
      <trkpt lat="43.315812" lon="-4.701682">
        <ele>42.567</ele>
        <time>2021-10-14T18:48:29Z</time>
      </trkpt>
      <trkpt lat="43.316110" lon="-4.702217">
        <ele>44.694</ele>
        <time>2021-10-14T18:48:31Z</time>
      </trkpt>
      <trkpt lat="43.316253" lon="-4.702539">
        <ele>43.676</ele>
        <time>2021-10-14T18:48:32Z</time>
      </trkpt>
      <trkpt lat="43.316491" lon="-4.703222">
        <ele>43.775</ele>
        <time>2021-10-14T18:48:34Z</time>
      </trkpt>
      <trkpt lat="43.316603" lon="-4.703564">
        <ele>42.986</ele>
        <time>2021-10-14T18:48:35Z</time>
      </trkpt>
      <trkpt lat="43.316793" lon="-4.704186">
        <ele>41.360</ele>
        <time>2021-10-14T18:48:37Z</time>
      </trkpt>
      <trkpt lat="43.316874" lon="-4.704493">
        <ele>41.726</ele>
        <time>2021-10-14T18:48:38Z</time>
      </trkpt>
      <trkpt lat="43.316978" lon="-4.705085">
        <ele>40.208</ele>
        <time>2021-10-14T18:48:40Z</time>
      </trkpt>
      <trkpt lat="43.317027" lon="-4.705393">
        <ele>39.316</ele>
        <time>2021-10-14T18:48:41Z</time>
      </trkpt>
      <trkpt lat="43.317174" lon="-4.705942">
        <ele>35.644</ele>
        <time>2021-10-14T18:48:43Z</time>
      </trkpt>
      <trkpt lat="43.317268" lon="-4.706179">
        <ele>36.732</ele>
        <time>2021-10-14T18:48:44Z</time>
      </trkpt>
      <trkpt lat="43.317425" lon="-4.706599">
        <ele>35.939</ele>
        <time>2021-10-14T18:48:46Z</time>
      </trkpt>
      <trkpt lat="43.317475" lon="-4.706815">
        <ele>34.422</ele>
        <time>2021-10-14T18:48:47Z</time>
      </trkpt>
      <trkpt lat="43.317505" lon="-4.707041">
        <ele>32.749</ele>
        <time>2021-10-14T18:48:48Z</time>
      </trkpt>
      <trkpt lat="43.317523" lon="-4.707279">
        <ele>31.511</ele>
        <time>2021-10-14T18:48:49Z</time>
      </trkpt>
      <trkpt lat="43.317538" lon="-4.707524">
        <ele>30.220</ele>
        <time>2021-10-14T18:48:50Z</time>
      </trkpt>
      <trkpt lat="43.317565" lon="-4.707952">
        <ele>27.923</ele>
        <time>2021-10-14T18:48:52Z</time>
      </trkpt>
      <trkpt lat="43.317577" lon="-4.708154">
        <ele>26.683</ele>
        <time>2021-10-14T18:48:53Z</time>
      </trkpt>
      <trkpt lat="43.317593" lon="-4.708528">
        <ele>25.211</ele>
        <time>2021-10-14T18:48:55Z</time>
      </trkpt>
      <trkpt lat="43.317606" lon="-4.708703">
        <ele>24.808</ele>
        <time>2021-10-14T18:48:56Z</time>
      </trkpt>
      <trkpt lat="43.317678" lon="-4.709004">
        <ele>23.120</ele>
        <time>2021-10-14T18:48:58Z</time>
      </trkpt>
      <trkpt lat="43.317834" lon="-4.709262">
        <ele>22.138</ele>
        <time>2021-10-14T18:49:00Z</time>
      </trkpt>
      <trkpt lat="43.317931" lon="-4.709399">
        <ele>21.296</ele>
        <time>2021-10-14T18:49:01Z</time>
      </trkpt>
      <trkpt lat="43.318027" lon="-4.709551">
        <ele>20.443</ele>
        <time>2021-10-14T18:49:02Z</time>
      </trkpt>
      <trkpt lat="43.318150" lon="-4.709881">
        <ele>16.966</ele>
        <time>2021-10-14T18:49:04Z</time>
      </trkpt>
      <trkpt lat="43.318159" lon="-4.710302">
        <ele>15.493</ele>
        <time>2021-10-14T18:49:06Z</time>
      </trkpt>
      <trkpt lat="43.318127" lon="-4.710546">
        <ele>14.885</ele>
        <time>2021-10-14T18:49:07Z</time>
      </trkpt>
      <trkpt lat="43.318088" lon="-4.710808">
        <ele>13.334</ele>
        <time>2021-10-14T18:49:08Z</time>
      </trkpt>
      <trkpt lat="43.318006" lon="-4.711366">
        <ele>11.969</ele>
        <time>2021-10-14T18:49:10Z</time>
      </trkpt>
      <trkpt lat="43.317973" lon="-4.711651">
        <ele>10.504</ele>
        <time>2021-10-14T18:49:11Z</time>
      </trkpt>
      <trkpt lat="43.317919" lon="-4.712159">
        <ele>6.524</ele>
        <time>2021-10-14T18:49:13Z</time>
      </trkpt>
      <trkpt lat="43.317898" lon="-4.712394">
        <ele>4.808</ele>
        <time>2021-10-14T18:49:14Z</time>
      </trkpt>
      <trkpt lat="43.317856" lon="-4.712793">
        <ele>2.814</ele>
        <time>2021-10-14T18:49:16Z</time>
      </trkpt>
      <trkpt lat="43.317838" lon="-4.712982">
        <ele>2.042</ele>
        <time>2021-10-14T18:49:17Z</time>
      </trkpt>
      <trkpt lat="43.317874" lon="-4.713312">
        <ele>-1.380</ele>
        <time>2021-10-14T18:49:19Z</time>
      </trkpt>
      <trkpt lat="43.317923" lon="-4.713453">
        <ele>-2.967</ele>
        <time>2021-10-14T18:49:20Z</time>
      </trkpt>
      <trkpt lat="43.317981" lon="-4.713700">
        <ele>-4.960</ele>
        <time>2021-10-14T18:49:22Z</time>
      </trkpt>
      <trkpt lat="43.317974" lon="-4.713827">
        <ele>-5.447</ele>
        <time>2021-10-14T18:49:23Z</time>
      </trkpt>
      <trkpt lat="43.317941" lon="-4.713959">
        <ele>-7.229</ele>
        <time>2021-10-14T18:49:24Z</time>
      </trkpt>
      <trkpt lat="43.317878" lon="-4.714092">
        <ele>-7.378</ele>
        <time>2021-10-14T18:49:25Z</time>
      </trkpt>
      <trkpt lat="43.317783" lon="-4.714225">
        <ele>-8.591</ele>
        <time>2021-10-14T18:49:26Z</time>
      </trkpt>
      <trkpt lat="43.317526" lon="-4.714518">
        <ele>-9.381</ele>
        <time>2021-10-14T18:49:28Z</time>
      </trkpt>
      <trkpt lat="43.317374" lon="-4.714692">
        <ele>-7.819</ele>
        <time>2021-10-14T18:49:29Z</time>
      </trkpt>
      <trkpt lat="43.317089" lon="-4.715084">
        <ele>-8.308</ele>
        <time>2021-10-14T18:49:31Z</time>
      </trkpt>
      <trkpt lat="43.316966" lon="-4.715319">
        <ele>-7.057</ele>
        <time>2021-10-14T18:49:32Z</time>
      </trkpt>
      <trkpt lat="43.316769" lon="-4.715824">
        <ele>-8.035</ele>
        <time>2021-10-14T18:49:34Z</time>
      </trkpt>
      <trkpt lat="43.316602" lon="-4.716314">
        <ele>-8.333</ele>
        <time>2021-10-14T18:49:36Z</time>
      </trkpt>
      <trkpt lat="43.316408" lon="-4.716733">
        <ele>-8.170</ele>
        <time>2021-10-14T18:49:38Z</time>
      </trkpt>
      <trkpt lat="43.316129" lon="-4.717013">
        <ele>-7.043</ele>
        <time>2021-10-14T18:49:40Z</time>
      </trkpt>
      <trkpt lat="43.315938" lon="-4.717099">
        <ele>-6.550</ele>
        <time>2021-10-14T18:49:41Z</time>
      </trkpt>
      <trkpt lat="43.315524" lon="-4.717215">
        <ele>-5.462</ele>
        <time>2021-10-14T18:49:43Z</time>
      </trkpt>
      <trkpt lat="43.315330" lon="-4.717296">
        <ele>-5.091</ele>
        <time>2021-10-14T18:49:44Z</time>
      </trkpt>
      <trkpt lat="43.315016" lon="-4.717540">
        <ele>-4.766</ele>
        <time>2021-10-14T18:49:46Z</time>
      </trkpt>
      <trkpt lat="43.314801" lon="-4.717928">
        <ele>-2.229</ele>
        <time>2021-10-14T18:49:48Z</time>
      </trkpt>
      <trkpt lat="43.314728" lon="-4.718434">
        <ele>0.821</ele>
        <time>2021-10-14T18:49:50Z</time>
      </trkpt>
      <trkpt lat="43.314744" lon="-4.718969">
        <ele>2.208</ele>
        <time>2021-10-14T18:49:52Z</time>
      </trkpt>
      <trkpt lat="43.314736" lon="-4.719247">
        <ele>3.144</ele>
        <time>2021-10-14T18:49:53Z</time>
      </trkpt>
      <trkpt lat="43.314705" lon="-4.719528">
        <ele>4.332</ele>
        <time>2021-10-14T18:49:54Z</time>
      </trkpt>
      <trkpt lat="43.314569" lon="-4.720098">
        <ele>7.480</ele>
        <time>2021-10-14T18:49:56Z</time>
      </trkpt>
      <trkpt lat="43.314369" lon="-4.720645">
        <ele>9.647</ele>
        <time>2021-10-14T18:49:58Z</time>
      </trkpt>
      <trkpt lat="43.314251" lon="-4.720920">
        <ele>10.220</ele>
        <time>2021-10-14T18:49:59Z</time>
      </trkpt>
      <trkpt lat="43.314056" lon="-4.721495">
        <ele>12.517</ele>
        <time>2021-10-14T18:50:01Z</time>
      </trkpt>
      <trkpt lat="43.313988" lon="-4.721813">
        <ele>14.639</ele>
        <time>2021-10-14T18:50:02Z</time>
      </trkpt>
      <trkpt lat="43.313894" lon="-4.722452">
        <ele>15.388</ele>
        <time>2021-10-14T18:50:04Z</time>
      </trkpt>
      <trkpt lat="43.313848" lon="-4.722774">
        <ele>16.552</ele>
        <time>2021-10-14T18:50:05Z</time>
      </trkpt>
      <trkpt lat="43.313793" lon="-4.723089">
        <ele>18.453</ele>
        <time>2021-10-14T18:50:06Z</time>
      </trkpt>
      <trkpt lat="43.313724" lon="-4.723399">
        <ele>19.608</ele>
        <time>2021-10-14T18:50:07Z</time>
      </trkpt>
      <trkpt lat="43.313637" lon="-4.723722">
        <ele>21.308</ele>
        <time>2021-10-14T18:50:08Z</time>
      </trkpt>
      <trkpt lat="43.313466" lon="-4.724370">
        <ele>23.983</ele>
        <time>2021-10-14T18:50:10Z</time>
      </trkpt>
      <trkpt lat="43.313289" lon="-4.725019">
        <ele>25.741</ele>
        <time>2021-10-14T18:50:12Z</time>
      </trkpt>
      <trkpt lat="43.313061" lon="-4.725646">
        <ele>27.069</ele>
        <time>2021-10-14T18:50:14Z</time>
      </trkpt>
      <trkpt lat="43.312828" lon="-4.726257">
        <ele>28.596</ele>
        <time>2021-10-14T18:50:16Z</time>
      </trkpt>
      <trkpt lat="43.312726" lon="-4.726577">
        <ele>29.469</ele>
        <time>2021-10-14T18:50:17Z</time>
      </trkpt>
      <trkpt lat="43.312635" lon="-4.726892">
        <ele>30.016</ele>
        <time>2021-10-14T18:50:18Z</time>
      </trkpt>
      <trkpt lat="43.312459" lon="-4.727483">
        <ele>30.848</ele>
        <time>2021-10-14T18:50:20Z</time>
      </trkpt>
      <trkpt lat="43.312257" lon="-4.728004">
        <ele>32.637</ele>
        <time>2021-10-14T18:50:22Z</time>
      </trkpt>
      <trkpt lat="43.312132" lon="-4.728260">
        <ele>33.268</ele>
        <time>2021-10-14T18:50:23Z</time>
      </trkpt>
      <trkpt lat="43.312001" lon="-4.728510">
        <ele>33.042</ele>
        <time>2021-10-14T18:50:24Z</time>
      </trkpt>
      <trkpt lat="43.311751" lon="-4.728999">
        <ele>33.126</ele>
        <time>2021-10-14T18:50:26Z</time>
      </trkpt>
      <trkpt lat="43.311525" lon="-4.729473">
        <ele>31.808</ele>
        <time>2021-10-14T18:50:28Z</time>
      </trkpt>
      <trkpt lat="43.311286" lon="-4.729977">
        <ele>31.664</ele>
        <time>2021-10-14T18:50:30Z</time>
      </trkpt>
      <trkpt lat="43.311189" lon="-4.730252">
        <ele>30.672</ele>
        <time>2021-10-14T18:50:31Z</time>
      </trkpt>
      <trkpt lat="43.311092" lon="-4.730528">
        <ele>30.150</ele>
        <time>2021-10-14T18:50:32Z</time>
      </trkpt>
      <trkpt lat="43.310842" lon="-4.731021">
        <ele>29.237</ele>
        <time>2021-10-14T18:50:34Z</time>
      </trkpt>
      <trkpt lat="43.310702" lon="-4.731266">
        <ele>28.370</ele>
        <time>2021-10-14T18:50:35Z</time>
      </trkpt>
      <trkpt lat="43.310570" lon="-4.731505">
        <ele>27.797</ele>
        <time>2021-10-14T18:50:36Z</time>
      </trkpt>
      <trkpt lat="43.310452" lon="-4.731727">
        <ele>27.189</ele>
        <time>2021-10-14T18:50:37Z</time>
      </trkpt>
      <trkpt lat="43.310340" lon="-4.731933">
        <ele>27.158</ele>
        <time>2021-10-14T18:50:38Z</time>
      </trkpt>
      <trkpt lat="43.310146" lon="-4.732275">
        <ele>27.218</ele>
        <time>2021-10-14T18:50:40Z</time>
      </trkpt>
      <trkpt lat="43.309954" lon="-4.732542">
        <ele>25.998</ele>
        <time>2021-10-14T18:50:42Z</time>
      </trkpt>
      <trkpt lat="43.309841" lon="-4.732633">
        <ele>24.417</ele>
        <time>2021-10-14T18:50:43Z</time>
      </trkpt>
      <trkpt lat="43.309704" lon="-4.732705">
        <ele>23.108</ele>
        <time>2021-10-14T18:50:44Z</time>
      </trkpt>
      <trkpt lat="43.309411" lon="-4.732891">
        <ele>21.059</ele>
        <time>2021-10-14T18:50:46Z</time>
      </trkpt>
      <trkpt lat="43.309073" lon="-4.733228">
        <ele>20.647</ele>
        <time>2021-10-14T18:50:48Z</time>
      </trkpt>
      <trkpt lat="43.308896" lon="-4.733431">
        <ele>20.335</ele>
        <time>2021-10-14T18:50:49Z</time>
      </trkpt>
      <trkpt lat="43.308709" lon="-4.733645">
        <ele>20.672</ele>
        <time>2021-10-14T18:50:50Z</time>
      </trkpt>
      <trkpt lat="43.308389" lon="-4.734034">
        <ele>20.955</ele>
        <time>2021-10-14T18:50:52Z</time>
      </trkpt>
      <trkpt lat="43.308243" lon="-4.734231">
        <ele>21.422</ele>
        <time>2021-10-14T18:50:53Z</time>
      </trkpt>
      <trkpt lat="43.307996" lon="-4.734659">
        <ele>21.844</ele>
        <time>2021-10-14T18:50:55Z</time>
      </trkpt>
      <trkpt lat="43.307897" lon="-4.734893">
        <ele>22.293</ele>
        <time>2021-10-14T18:50:56Z</time>
      </trkpt>
      <trkpt lat="43.307716" lon="-4.735362">
        <ele>22.813</ele>
        <time>2021-10-14T18:50:58Z</time>
      </trkpt>
      <trkpt lat="43.307526" lon="-4.735839">
        <ele>23.843</ele>
        <time>2021-10-14T18:51:00Z</time>
      </trkpt>
      <trkpt lat="43.307346" lon="-4.736311">
        <ele>23.407</ele>
        <time>2021-10-14T18:51:02Z</time>
      </trkpt>
      <trkpt lat="43.307218" lon="-4.736767">
        <ele>23.508</ele>
        <time>2021-10-14T18:51:04Z</time>
      </trkpt>
      <trkpt lat="43.307088" lon="-4.737217">
        <ele>23.329</ele>
        <time>2021-10-14T18:51:06Z</time>
      </trkpt>
      <trkpt lat="43.306898" lon="-4.737679">
        <ele>22.637</ele>
        <time>2021-10-14T18:51:08Z</time>
      </trkpt>
      <trkpt lat="43.306698" lon="-4.738098">
        <ele>22.265</ele>
        <time>2021-10-14T18:51:10Z</time>
      </trkpt>
      <trkpt lat="43.306427" lon="-4.738457">
        <ele>22.252</ele>
        <time>2021-10-14T18:51:12Z</time>
      </trkpt>
      <trkpt lat="43.306269" lon="-4.738603">
        <ele>21.845</ele>
        <time>2021-10-14T18:51:13Z</time>
      </trkpt>
      <trkpt lat="43.306109" lon="-4.738745">
        <ele>20.912</ele>
        <time>2021-10-14T18:51:14Z</time>
      </trkpt>
      <trkpt lat="43.305843" lon="-4.739063">
        <ele>20.524</ele>
        <time>2021-10-14T18:51:16Z</time>
      </trkpt>
      <trkpt lat="43.305732" lon="-4.739266">
        <ele>20.633</ele>
        <time>2021-10-14T18:51:17Z</time>
      </trkpt>
      <trkpt lat="43.305627" lon="-4.739485">
        <ele>20.235</ele>
        <time>2021-10-14T18:51:18Z</time>
      </trkpt>
      <trkpt lat="43.305524" lon="-4.739708">
        <ele>20.686</ele>
        <time>2021-10-14T18:51:19Z</time>
      </trkpt>
      <trkpt lat="43.305423" lon="-4.739932">
        <ele>21.314</ele>
        <time>2021-10-14T18:51:20Z</time>
      </trkpt>
      <trkpt lat="43.305273" lon="-4.740391">
        <ele>21.108</ele>
        <time>2021-10-14T18:51:22Z</time>
      </trkpt>
      <trkpt lat="43.305217" lon="-4.740642">
        <ele>21.991</ele>
        <time>2021-10-14T18:51:23Z</time>
      </trkpt>
      <trkpt lat="43.305119" lon="-4.741149">
        <ele>22.439</ele>
        <time>2021-10-14T18:51:25Z</time>
      </trkpt>
      <trkpt lat="43.305058" lon="-4.741405">
        <ele>22.847</ele>
        <time>2021-10-14T18:51:26Z</time>
      </trkpt>
      <trkpt lat="43.304949" lon="-4.741894">
        <ele>22.414</ele>
        <time>2021-10-14T18:51:28Z</time>
      </trkpt>
      <trkpt lat="43.304864" lon="-4.742374">
        <ele>22.637</ele>
        <time>2021-10-14T18:51:30Z</time>
      </trkpt>
      <trkpt lat="43.304826" lon="-4.742620">
        <ele>23.494</ele>
        <time>2021-10-14T18:51:31Z</time>
      </trkpt>
      <trkpt lat="43.304769" lon="-4.742876">
        <ele>23.766</ele>
        <time>2021-10-14T18:51:32Z</time>
      </trkpt>
      <trkpt lat="43.304596" lon="-4.743367">
        <ele>24.245</ele>
        <time>2021-10-14T18:51:34Z</time>
      </trkpt>
      <trkpt lat="43.304489" lon="-4.743614">
        <ele>24.523</ele>
        <time>2021-10-14T18:51:35Z</time>
      </trkpt>
      <trkpt lat="43.304374" lon="-4.743847">
        <ele>24.683</ele>
        <time>2021-10-14T18:51:36Z</time>
      </trkpt>
      <trkpt lat="43.304128" lon="-4.744283">
        <ele>25.411</ele>
        <time>2021-10-14T18:51:38Z</time>
      </trkpt>
      <trkpt lat="43.303901" lon="-4.744682">
        <ele>27.108</ele>
        <time>2021-10-14T18:51:40Z</time>
      </trkpt>
      <trkpt lat="43.303690" lon="-4.745058">
        <ele>27.710</ele>
        <time>2021-10-14T18:51:42Z</time>
      </trkpt>
      <trkpt lat="43.303414" lon="-4.745368">
        <ele>28.338</ele>
        <time>2021-10-14T18:51:44Z</time>
      </trkpt>
      <trkpt lat="43.303069" lon="-4.745597">
        <ele>30.256</ele>
        <time>2021-10-14T18:51:46Z</time>
      </trkpt>
      <trkpt lat="43.302686" lon="-4.745776">
        <ele>30.723</ele>
        <time>2021-10-14T18:51:48Z</time>
      </trkpt>
      <trkpt lat="43.302487" lon="-4.745832">
        <ele>30.366</ele>
        <time>2021-10-14T18:51:49Z</time>
      </trkpt>
      <trkpt lat="43.302292" lon="-4.745876">
        <ele>29.863</ele>
        <time>2021-10-14T18:51:50Z</time>
      </trkpt>
      <trkpt lat="43.301974" lon="-4.746000">
        <ele>31.235</ele>
        <time>2021-10-14T18:51:52Z</time>
      </trkpt>
      <trkpt lat="43.301702" lon="-4.746196">
        <ele>31.594</ele>
        <time>2021-10-14T18:51:54Z</time>
      </trkpt>
      <trkpt lat="43.301566" lon="-4.746291">
        <ele>32.526</ele>
        <time>2021-10-14T18:51:55Z</time>
      </trkpt>
      <trkpt lat="43.301439" lon="-4.746416">
        <ele>33.447</ele>
        <time>2021-10-14T18:51:56Z</time>
      </trkpt>
      <trkpt lat="43.301264" lon="-4.746741">
        <ele>34.311</ele>
        <time>2021-10-14T18:51:58Z</time>
      </trkpt>
      <trkpt lat="43.301176" lon="-4.746928">
        <ele>35.508</ele>
        <time>2021-10-14T18:51:59Z</time>
      </trkpt>
      <trkpt lat="43.301064" lon="-4.747108">
        <ele>35.610</ele>
        <time>2021-10-14T18:52:00Z</time>
      </trkpt>
      <trkpt lat="43.300763" lon="-4.747414">
        <ele>35.298</ele>
        <time>2021-10-14T18:52:02Z</time>
      </trkpt>
      <trkpt lat="43.300445" lon="-4.747717">
        <ele>34.476</ele>
        <time>2021-10-14T18:52:04Z</time>
      </trkpt>
      <trkpt lat="43.300162" lon="-4.748115">
        <ele>35.073</ele>
        <time>2021-10-14T18:52:06Z</time>
      </trkpt>
      <trkpt lat="43.299883" lon="-4.748511">
        <ele>36.266</ele>
        <time>2021-10-14T18:52:08Z</time>
      </trkpt>
      <trkpt lat="43.299632" lon="-4.748849">
        <ele>37.673</ele>
        <time>2021-10-14T18:52:10Z</time>
      </trkpt>
      <trkpt lat="43.299411" lon="-4.749174">
        <ele>38.715</ele>
        <time>2021-10-14T18:52:12Z</time>
      </trkpt>
      <trkpt lat="43.299185" lon="-4.749538">
        <ele>39.334</ele>
        <time>2021-10-14T18:52:14Z</time>
      </trkpt>
      <trkpt lat="43.298980" lon="-4.749966">
        <ele>39.612</ele>
        <time>2021-10-14T18:52:16Z</time>
      </trkpt>
      <trkpt lat="43.298763" lon="-4.750470">
        <ele>40.532</ele>
        <time>2021-10-14T18:52:18Z</time>
      </trkpt>
      <trkpt lat="43.298650" lon="-4.750740">
        <ele>40.605</ele>
        <time>2021-10-14T18:52:19Z</time>
      </trkpt>
      <trkpt lat="43.298537" lon="-4.751017">
        <ele>40.908</ele>
        <time>2021-10-14T18:52:20Z</time>
      </trkpt>
      <trkpt lat="43.298315" lon="-4.751550">
        <ele>42.659</ele>
        <time>2021-10-14T18:52:22Z</time>
      </trkpt>
      <trkpt lat="43.298199" lon="-4.751804">
        <ele>43.137</ele>
        <time>2021-10-14T18:52:23Z</time>
      </trkpt>
      <trkpt lat="43.297988" lon="-4.752224">
        <ele>44.935</ele>
        <time>2021-10-14T18:52:25Z</time>
      </trkpt>
      <trkpt lat="43.297894" lon="-4.752404">
        <ele>46.182</ele>
        <time>2021-10-14T18:52:26Z</time>
      </trkpt>
      <trkpt lat="43.297681" lon="-4.752687">
        <ele>47.115</ele>
        <time>2021-10-14T18:52:28Z</time>
      </trkpt>
      <trkpt lat="43.297402" lon="-4.752921">
        <ele>47.912</ele>
        <time>2021-10-14T18:52:30Z</time>
      </trkpt>
      <trkpt lat="43.297271" lon="-4.753057">
        <ele>47.914</ele>
        <time>2021-10-14T18:52:31Z</time>
      </trkpt>
      <trkpt lat="43.297146" lon="-4.753205">
        <ele>46.713</ele>
        <time>2021-10-14T18:52:32Z</time>
      </trkpt>
      <trkpt lat="43.296928" lon="-4.753522">
        <ele>46.389</ele>
        <time>2021-10-14T18:52:34Z</time>
      </trkpt>
      <trkpt lat="43.296829" lon="-4.753703">
        <ele>44.906</ele>
        <time>2021-10-14T18:52:35Z</time>
      </trkpt>
      <trkpt lat="43.296748" lon="-4.753897">
        <ele>43.726</ele>
        <time>2021-10-14T18:52:36Z</time>
      </trkpt>
      <trkpt lat="43.296655" lon="-4.754342">
        <ele>40.808</ele>
        <time>2021-10-14T18:52:38Z</time>
      </trkpt>
      <trkpt lat="43.296617" lon="-4.754822">
        <ele>39.436</ele>
        <time>2021-10-14T18:52:40Z</time>
      </trkpt>
      <trkpt lat="43.296609" lon="-4.755076">
        <ele>39.064</ele>
        <time>2021-10-14T18:52:41Z</time>
      </trkpt>
      <trkpt lat="43.296607" lon="-4.755584">
        <ele>38.162</ele>
        <time>2021-10-14T18:52:43Z</time>
      </trkpt>
      <trkpt lat="43.296614" lon="-4.755843">
        <ele>36.189</ele>
        <time>2021-10-14T18:52:44Z</time>
      </trkpt>
      <trkpt lat="43.296661" lon="-4.756339">
        <ele>36.412</ele>
        <time>2021-10-14T18:52:46Z</time>
      </trkpt>
      <trkpt lat="43.296704" lon="-4.756591">
        <ele>36.239</ele>
        <time>2021-10-14T18:52:47Z</time>
      </trkpt>
      <trkpt lat="43.296802" lon="-4.757084">
        <ele>35.261</ele>
        <time>2021-10-14T18:52:49Z</time>
      </trkpt>
      <trkpt lat="43.296845" lon="-4.757341">
        <ele>34.030</ele>
        <time>2021-10-14T18:52:50Z</time>
      </trkpt>
      <trkpt lat="43.296886" lon="-4.757847">
        <ele>34.045</ele>
        <time>2021-10-14T18:52:52Z</time>
      </trkpt>
      <trkpt lat="43.296897" lon="-4.758112">
        <ele>33.547</ele>
        <time>2021-10-14T18:52:53Z</time>
      </trkpt>
      <trkpt lat="43.296911" lon="-4.758380">
        <ele>33.111</ele>
        <time>2021-10-14T18:52:54Z</time>
      </trkpt>
      <trkpt lat="43.296872" lon="-4.758920">
        <ele>33.808</ele>
        <time>2021-10-14T18:52:56Z</time>
      </trkpt>
      <trkpt lat="43.296702" lon="-4.759426">
        <ele>35.152</ele>
        <time>2021-10-14T18:52:58Z</time>
      </trkpt>
      <trkpt lat="43.296505" lon="-4.759974">
        <ele>35.440</ele>
        <time>2021-10-14T18:53:00Z</time>
      </trkpt>
      <trkpt lat="43.296411" lon="-4.760268">
        <ele>34.828</ele>
        <time>2021-10-14T18:53:01Z</time>
      </trkpt>
      <trkpt lat="43.296328" lon="-4.760586">
        <ele>33.515</ele>
        <time>2021-10-14T18:53:02Z</time>
      </trkpt>
      <trkpt lat="43.296257" lon="-4.761229">
        <ele>34.768</ele>
        <time>2021-10-14T18:53:04Z</time>
      </trkpt>
      <trkpt lat="43.296252" lon="-4.761533">
        <ele>33.825</ele>
        <time>2021-10-14T18:53:05Z</time>
      </trkpt>
      <trkpt lat="43.296244" lon="-4.761813">
        <ele>33.377</ele>
        <time>2021-10-14T18:53:06Z</time>
      </trkpt>
      <trkpt lat="43.296218" lon="-4.762334">
        <ele>33.446</ele>
        <time>2021-10-14T18:53:08Z</time>
      </trkpt>
      <trkpt lat="43.296124" lon="-4.762856">
        <ele>32.746</ele>
        <time>2021-10-14T18:53:10Z</time>
      </trkpt>
      <trkpt lat="43.295997" lon="-4.763389">
        <ele>32.388</ele>
        <time>2021-10-14T18:53:12Z</time>
      </trkpt>
      <trkpt lat="43.295874" lon="-4.763903">
        <ele>31.816</ele>
        <time>2021-10-14T18:53:14Z</time>
      </trkpt>
      <trkpt lat="43.295784" lon="-4.764392">
        <ele>30.208</ele>
        <time>2021-10-14T18:53:16Z</time>
      </trkpt>
      <trkpt lat="43.295781" lon="-4.764882">
        <ele>27.852</ele>
        <time>2021-10-14T18:53:18Z</time>
      </trkpt>
      <trkpt lat="43.295826" lon="-4.765111">
        <ele>26.160</ele>
        <time>2021-10-14T18:53:19Z</time>
      </trkpt>
      <trkpt lat="43.295889" lon="-4.765340">
        <ele>25.918</ele>
        <time>2021-10-14T18:53:20Z</time>
      </trkpt>
      <trkpt lat="43.296006" lon="-4.765801">
        <ele>22.755</ele>
        <time>2021-10-14T18:53:22Z</time>
      </trkpt>
      <trkpt lat="43.296052" lon="-4.766067">
        <ele>21.368</ele>
        <time>2021-10-14T18:53:23Z</time>
      </trkpt>
      <trkpt lat="43.296083" lon="-4.766354">
        <ele>19.975</ele>
        <time>2021-10-14T18:53:24Z</time>
      </trkpt>
      <trkpt lat="43.296102" lon="-4.766660">
        <ele>17.617</ele>
        <time>2021-10-14T18:53:25Z</time>
      </trkpt>
      <trkpt lat="43.296117" lon="-4.766988">
        <ele>16.786</ele>
        <time>2021-10-14T18:53:26Z</time>
      </trkpt>
      <trkpt lat="43.296158" lon="-4.767655">
        <ele>14.058</ele>
        <time>2021-10-14T18:53:28Z</time>
      </trkpt>
      <trkpt lat="43.296219" lon="-4.768273">
        <ele>14.452</ele>
        <time>2021-10-14T18:53:30Z</time>
      </trkpt>
      <trkpt lat="43.296242" lon="-4.768544">
        <ele>13.417</ele>
        <time>2021-10-14T18:53:31Z</time>
      </trkpt>
      <trkpt lat="43.296253" lon="-4.768777">
        <ele>12.408</ele>
        <time>2021-10-14T18:53:32Z</time>
      </trkpt>
      <trkpt lat="43.296251" lon="-4.769210">
        <ele>11.693</ele>
        <time>2021-10-14T18:53:34Z</time>
      </trkpt>
      <trkpt lat="43.296198" lon="-4.769693">
        <ele>10.641</ele>
        <time>2021-10-14T18:53:36Z</time>
      </trkpt>
      <trkpt lat="43.296087" lon="-4.770247">
        <ele>10.019</ele>
        <time>2021-10-14T18:53:38Z</time>
      </trkpt>
      <trkpt lat="43.296016" lon="-4.770850">
        <ele>8.516</ele>
        <time>2021-10-14T18:53:40Z</time>
      </trkpt>
      <trkpt lat="43.295988" lon="-4.771169">
        <ele>8.819</ele>
        <time>2021-10-14T18:53:41Z</time>
      </trkpt>
      <trkpt lat="43.295921" lon="-4.771796">
        <ele>8.886</ele>
        <time>2021-10-14T18:53:43Z</time>
      </trkpt>
      <trkpt lat="43.295890" lon="-4.772105">
        <ele>9.978</ele>
        <time>2021-10-14T18:53:44Z</time>
      </trkpt>
      <trkpt lat="43.295831" lon="-4.772673">
        <ele>12.257</ele>
        <time>2021-10-14T18:53:46Z</time>
      </trkpt>
      <trkpt lat="43.295822" lon="-4.772945">
        <ele>13.461</ele>
        <time>2021-10-14T18:53:47Z</time>
      </trkpt>
      <trkpt lat="43.295832" lon="-4.773205">
        <ele>17.321</ele>
        <time>2021-10-14T18:53:48Z</time>
      </trkpt>
      <trkpt lat="43.295911" lon="-4.773726">
        <ele>22.213</ele>
        <time>2021-10-14T18:53:50Z</time>
      </trkpt>
      <trkpt lat="43.296009" lon="-4.774225">
        <ele>27.708</ele>
        <time>2021-10-14T18:53:52Z</time>
      </trkpt>
      <trkpt lat="43.296066" lon="-4.774685">
        <ele>30.964</ele>
        <time>2021-10-14T18:53:54Z</time>
      </trkpt>
      <trkpt lat="43.296019" lon="-4.775141">
        <ele>34.282</ele>
        <time>2021-10-14T18:53:56Z</time>
      </trkpt>
      <trkpt lat="43.295948" lon="-4.775601">
        <ele>37.150</ele>
        <time>2021-10-14T18:53:58Z</time>
      </trkpt>
      <trkpt lat="43.295973" lon="-4.776089">
        <ele>40.247</ele>
        <time>2021-10-14T18:54:00Z</time>
      </trkpt>
      <trkpt lat="43.296118" lon="-4.776554">
        <ele>43.990</ele>
        <time>2021-10-14T18:54:02Z</time>
      </trkpt>
      <trkpt lat="43.296288" lon="-4.777038">
        <ele>44.957</ele>
        <time>2021-10-14T18:54:04Z</time>
      </trkpt>
      <trkpt lat="43.296401" lon="-4.777620">
        <ele>45.449</ele>
        <time>2021-10-14T18:54:06Z</time>
      </trkpt>
      <trkpt lat="43.296470" lon="-4.778252">
        <ele>45.688</ele>
        <time>2021-10-14T18:54:08Z</time>
      </trkpt>
      <trkpt lat="43.296534" lon="-4.778843">
        <ele>45.576</ele>
        <time>2021-10-14T18:54:10Z</time>
      </trkpt>
      <trkpt lat="43.296580" lon="-4.779340">
        <ele>46.590</ele>
        <time>2021-10-14T18:54:12Z</time>
      </trkpt>
      <trkpt lat="43.296599" lon="-4.779578">
        <ele>47.019</ele>
        <time>2021-10-14T18:54:13Z</time>
      </trkpt>
      <trkpt lat="43.296615" lon="-4.779824">
        <ele>47.608</ele>
        <time>2021-10-14T18:54:14Z</time>
      </trkpt>
      <trkpt lat="43.296669" lon="-4.780295">
        <ele>48.265</ele>
        <time>2021-10-14T18:54:16Z</time>
      </trkpt>
      <trkpt lat="43.296784" lon="-4.780791">
        <ele>50.133</ele>
        <time>2021-10-14T18:54:18Z</time>
      </trkpt>
      <trkpt lat="43.296951" lon="-4.781310">
        <ele>51.851</ele>
        <time>2021-10-14T18:54:20Z</time>
      </trkpt>
      <trkpt lat="43.297122" lon="-4.781842">
        <ele>51.618</ele>
        <time>2021-10-14T18:54:22Z</time>
      </trkpt>
      <trkpt lat="43.297201" lon="-4.782130">
        <ele>53.711</ele>
        <time>2021-10-14T18:54:23Z</time>
      </trkpt>
      <trkpt lat="43.297376" lon="-4.782695">
        <ele>55.868</ele>
        <time>2021-10-14T18:54:25Z</time>
      </trkpt>
      <trkpt lat="43.297493" lon="-4.782985">
        <ele>55.570</ele>
        <time>2021-10-14T18:54:26Z</time>
      </trkpt>
      <trkpt lat="43.297747" lon="-4.783486">
        <ele>58.039</ele>
        <time>2021-10-14T18:54:28Z</time>
      </trkpt>
      <trkpt lat="43.298001" lon="-4.783938">
        <ele>59.279</ele>
        <time>2021-10-14T18:54:30Z</time>
      </trkpt>
      <trkpt lat="43.298275" lon="-4.784326">
        <ele>58.005</ele>
        <time>2021-10-14T18:54:32Z</time>
      </trkpt>
      <trkpt lat="43.298543" lon="-4.784628">
        <ele>58.025</ele>
        <time>2021-10-14T18:54:34Z</time>
      </trkpt>
      <trkpt lat="43.298670" lon="-4.784782">
        <ele>57.108</ele>
        <time>2021-10-14T18:54:35Z</time>
      </trkpt>
      <trkpt lat="43.298787" lon="-4.784949">
        <ele>56.625</ele>
        <time>2021-10-14T18:54:36Z</time>
      </trkpt>
      <trkpt lat="43.298887" lon="-4.785134">
        <ele>57.873</ele>
        <time>2021-10-14T18:54:37Z</time>
      </trkpt>
      <trkpt lat="43.298968" lon="-4.785357">
        <ele>57.731</ele>
        <time>2021-10-14T18:54:38Z</time>
      </trkpt>
      <trkpt lat="43.299136" lon="-4.785848">
        <ele>58.458</ele>
        <time>2021-10-14T18:54:40Z</time>
      </trkpt>
      <trkpt lat="43.299363" lon="-4.786331">
        <ele>59.271</ele>
        <time>2021-10-14T18:54:42Z</time>
      </trkpt>
      <trkpt lat="43.299474" lon="-4.786557">
        <ele>58.298</ele>
        <time>2021-10-14T18:54:43Z</time>
      </trkpt>
      <trkpt lat="43.299586" lon="-4.786779">
        <ele>58.230</ele>
        <time>2021-10-14T18:54:44Z</time>
      </trkpt>
      <trkpt lat="43.299796" lon="-4.787189">
        <ele>58.419</ele>
        <time>2021-10-14T18:54:46Z</time>
      </trkpt>
      <trkpt lat="43.299910" lon="-4.787618">
        <ele>56.327</ele>
        <time>2021-10-14T18:54:48Z</time>
      </trkpt>
      <trkpt lat="43.299911" lon="-4.787841">
        <ele>55.568</ele>
        <time>2021-10-14T18:54:49Z</time>
      </trkpt>
      <trkpt lat="43.299870" lon="-4.788082">
        <ele>54.714</ele>
        <time>2021-10-14T18:54:50Z</time>
      </trkpt>
      <trkpt lat="43.299770" lon="-4.788580">
        <ele>53.608</ele>
        <time>2021-10-14T18:54:52Z</time>
      </trkpt>
      <trkpt lat="43.299644" lon="-4.789056">
        <ele>52.690</ele>
        <time>2021-10-14T18:54:54Z</time>
      </trkpt>
      <trkpt lat="43.299545" lon="-4.789265">
        <ele>52.248</ele>
        <time>2021-10-14T18:54:55Z</time>
      </trkpt>
      <trkpt lat="43.299419" lon="-4.789468">
        <ele>50.656</ele>
        <time>2021-10-14T18:54:56Z</time>
      </trkpt>
      <trkpt lat="43.299186" lon="-4.789881">
        <ele>49.483</ele>
        <time>2021-10-14T18:54:58Z</time>
      </trkpt>
      <trkpt lat="43.299104" lon="-4.790124">
        <ele>48.866</ele>
        <time>2021-10-14T18:54:59Z</time>
      </trkpt>
      <trkpt lat="43.298996" lon="-4.790642">
        <ele>46.353</ele>
        <time>2021-10-14T18:55:01Z</time>
      </trkpt>
      <trkpt lat="43.298945" lon="-4.790913">
        <ele>46.385</ele>
        <time>2021-10-14T18:55:02Z</time>
      </trkpt>
      <trkpt lat="43.298834" lon="-4.791440">
        <ele>45.414</ele>
        <time>2021-10-14T18:55:04Z</time>
      </trkpt>
      <trkpt lat="43.298676" lon="-4.791971">
        <ele>45.257</ele>
        <time>2021-10-14T18:55:06Z</time>
      </trkpt>
      <trkpt lat="43.298529" lon="-4.792489">
        <ele>43.900</ele>
        <time>2021-10-14T18:55:08Z</time>
      </trkpt>
      <trkpt lat="43.298442" lon="-4.792943">
        <ele>44.320</ele>
        <time>2021-10-14T18:55:10Z</time>
      </trkpt>
      <trkpt lat="43.298410" lon="-4.793160">
        <ele>43.408</ele>
        <time>2021-10-14T18:55:11Z</time>
      </trkpt>
      <trkpt lat="43.298379" lon="-4.793361">
        <ele>42.963</ele>
        <time>2021-10-14T18:55:12Z</time>
      </trkpt>
      <trkpt lat="43.298323" lon="-4.793718">
        <ele>44.221</ele>
        <time>2021-10-14T18:55:14Z</time>
      </trkpt>
      <trkpt lat="43.298271" lon="-4.794034">
        <ele>44.229</ele>
        <time>2021-10-14T18:55:16Z</time>
      </trkpt>
      <trkpt lat="43.298250" lon="-4.794189">
        <ele>44.296</ele>
        <time>2021-10-14T18:55:17Z</time>
      </trkpt>
      <trkpt lat="43.298203" lon="-4.794481">
        <ele>47.929</ele>
        <time>2021-10-14T18:55:19Z</time>
      </trkpt>
      <trkpt lat="43.298181" lon="-4.794630">
        <ele>48.276</ele>
        <time>2021-10-14T18:55:20Z</time>
      </trkpt>
      <trkpt lat="43.298145" lon="-4.794927">
        <ele>50.738</ele>
        <time>2021-10-14T18:55:22Z</time>
      </trkpt>
      <trkpt lat="43.298130" lon="-4.795088">
        <ele>51.667</ele>
        <time>2021-10-14T18:55:23Z</time>
      </trkpt>
      <trkpt lat="43.298116" lon="-4.795249">
        <ele>53.454</ele>
        <time>2021-10-14T18:55:24Z</time>
      </trkpt>
      <trkpt lat="43.298098" lon="-4.795577">
        <ele>54.556</ele>
        <time>2021-10-14T18:55:26Z</time>
      </trkpt>
      <trkpt lat="43.298092" lon="-4.795881">
        <ele>57.211</ele>
        <time>2021-10-14T18:55:28Z</time>
      </trkpt>
      <trkpt lat="43.298093" lon="-4.796039">
        <ele>57.708</ele>
        <time>2021-10-14T18:55:29Z</time>
      </trkpt>
      <trkpt lat="43.298101" lon="-4.796206">
        <ele>58.223</ele>
        <time>2021-10-14T18:55:30Z</time>
      </trkpt>
      <trkpt lat="43.298115" lon="-4.796384">
        <ele>60.491</ele>
        <time>2021-10-14T18:55:31Z</time>
      </trkpt>
      <trkpt lat="43.298130" lon="-4.796583">
        <ele>60.869</ele>
        <time>2021-10-14T18:55:32Z</time>
      </trkpt>
      <trkpt lat="43.298155" lon="-4.796979">
        <ele>61.496</ele>
        <time>2021-10-14T18:55:34Z</time>
      </trkpt>
      <trkpt lat="43.298166" lon="-4.797178">
        <ele>61.429</ele>
        <time>2021-10-14T18:55:35Z</time>
      </trkpt>
      <trkpt lat="43.298188" lon="-4.797548">
        <ele>62.636</ele>
        <time>2021-10-14T18:55:37Z</time>
      </trkpt>
      <trkpt lat="43.298198" lon="-4.797729">
        <ele>62.498</ele>
        <time>2021-10-14T18:55:38Z</time>
      </trkpt>
      <trkpt lat="43.298218" lon="-4.798081">
        <ele>62.037</ele>
        <time>2021-10-14T18:55:40Z</time>
      </trkpt>
      <trkpt lat="43.298230" lon="-4.798271">
        <ele>61.928</ele>
        <time>2021-10-14T18:55:41Z</time>
      </trkpt>
      <trkpt lat="43.298240" lon="-4.798471">
        <ele>61.589</ele>
        <time>2021-10-14T18:55:42Z</time>
      </trkpt>
      <trkpt lat="43.298251" lon="-4.798672">
        <ele>61.517</ele>
        <time>2021-10-14T18:55:43Z</time>
      </trkpt>
      <trkpt lat="43.298259" lon="-4.798877">
        <ele>62.408</ele>
        <time>2021-10-14T18:55:44Z</time>
      </trkpt>
      <trkpt lat="43.298283" lon="-4.799279">
        <ele>61.670</ele>
        <time>2021-10-14T18:55:46Z</time>
      </trkpt>
      <trkpt lat="43.298303" lon="-4.799484">
        <ele>61.548</ele>
        <time>2021-10-14T18:55:47Z</time>
      </trkpt>
      <trkpt lat="43.298369" lon="-4.799881">
        <ele>59.116</ele>
        <time>2021-10-14T18:55:49Z</time>
      </trkpt>
      <trkpt lat="43.298420" lon="-4.800073">
        <ele>58.573</ele>
        <time>2021-10-14T18:55:50Z</time>
      </trkpt>
      <trkpt lat="43.298529" lon="-4.800404">
        <ele>58.496</ele>
        <time>2021-10-14T18:55:52Z</time>
      </trkpt>
      <trkpt lat="43.298634" lon="-4.800712">
        <ele>58.493</ele>
        <time>2021-10-14T18:55:54Z</time>
      </trkpt>
      <trkpt lat="43.298757" lon="-4.801015">
        <ele>58.235</ele>
        <time>2021-10-14T18:55:56Z</time>
      </trkpt>
      <trkpt lat="43.298897" lon="-4.801275">
        <ele>58.254</ele>
        <time>2021-10-14T18:55:58Z</time>
      </trkpt>
      <trkpt lat="43.298964" lon="-4.801400">
        <ele>58.254</ele>
        <time>2021-10-14T18:55:59Z</time>
      </trkpt>
      <trkpt lat="43.299031" lon="-4.801520">
        <ele>58.456</ele>
        <time>2021-10-14T18:56:00Z</time>
      </trkpt>
      <trkpt lat="43.299172" lon="-4.801770">
        <ele>58.411</ele>
        <time>2021-10-14T18:56:02Z</time>
      </trkpt>
      <trkpt lat="43.299315" lon="-4.802028">
        <ele>59.008</ele>
        <time>2021-10-14T18:56:04Z</time>
      </trkpt>
      <trkpt lat="43.299444" lon="-4.802267">
        <ele>59.013</ele>
        <time>2021-10-14T18:56:06Z</time>
      </trkpt>
      <trkpt lat="43.299506" lon="-4.802375">
        <ele>60.291</ele>
        <time>2021-10-14T18:56:07Z</time>
      </trkpt>
      <trkpt lat="43.299568" lon="-4.802479">
        <ele>60.349</ele>
        <time>2021-10-14T18:56:08Z</time>
      </trkpt>
      <trkpt lat="43.299674" lon="-4.802671">
        <ele>62.386</ele>
        <time>2021-10-14T18:56:10Z</time>
      </trkpt>
      <trkpt lat="43.299778" lon="-4.802869">
        <ele>62.229</ele>
        <time>2021-10-14T18:56:12Z</time>
      </trkpt>
      <trkpt lat="43.299889" lon="-4.803075">
        <ele>61.756</ele>
        <time>2021-10-14T18:56:14Z</time>
      </trkpt>
      <trkpt lat="43.300000" lon="-4.803262">
        <ele>61.048</ele>
        <time>2021-10-14T18:56:16Z</time>
      </trkpt>
      <trkpt lat="43.300056" lon="-4.803363">
        <ele>60.917</ele>
        <time>2021-10-14T18:56:17Z</time>
      </trkpt>
      <trkpt lat="43.300114" lon="-4.803472">
        <ele>60.945</ele>
        <time>2021-10-14T18:56:18Z</time>
      </trkpt>
      <trkpt lat="43.300241" lon="-4.803722">
        <ele>61.147</ele>
        <time>2021-10-14T18:56:20Z</time>
      </trkpt>
      <trkpt lat="43.300366" lon="-4.803982">
        <ele>62.011</ele>
        <time>2021-10-14T18:56:22Z</time>
      </trkpt>
      <trkpt lat="43.300421" lon="-4.804116">
        <ele>62.408</ele>
        <time>2021-10-14T18:56:23Z</time>
      </trkpt>
      <trkpt lat="43.300525" lon="-4.804382">
        <ele>62.742</ele>
        <time>2021-10-14T18:56:25Z</time>
      </trkpt>
      <trkpt lat="43.300572" lon="-4.804527">
        <ele>63.050</ele>
        <time>2021-10-14T18:56:26Z</time>
      </trkpt>
      <trkpt lat="43.300661" lon="-4.804820">
        <ele>61.928</ele>
        <time>2021-10-14T18:56:28Z</time>
      </trkpt>
      <trkpt lat="43.300704" lon="-4.804971">
        <ele>61.275</ele>
        <time>2021-10-14T18:56:29Z</time>
      </trkpt>
      <trkpt lat="43.300780" lon="-4.805277">
        <ele>59.838</ele>
        <time>2021-10-14T18:56:31Z</time>
      </trkpt>
      <trkpt lat="43.300813" lon="-4.805438">
        <ele>59.815</ele>
        <time>2021-10-14T18:56:32Z</time>
      </trkpt>
      <trkpt lat="43.300861" lon="-4.805747">
        <ele>58.727</ele>
        <time>2021-10-14T18:56:34Z</time>
      </trkpt>
      <trkpt lat="43.300876" lon="-4.805910">
        <ele>57.516</ele>
        <time>2021-10-14T18:56:35Z</time>
      </trkpt>
      <trkpt lat="43.300890" lon="-4.806083">
        <ele>57.573</ele>
        <time>2021-10-14T18:56:36Z</time>
      </trkpt>
      <trkpt lat="43.300903" lon="-4.806263">
        <ele>57.185</ele>
        <time>2021-10-14T18:56:37Z</time>
      </trkpt>
      <trkpt lat="43.300909" lon="-4.806452">
        <ele>57.313</ele>
        <time>2021-10-14T18:56:38Z</time>
      </trkpt>
      <trkpt lat="43.300915" lon="-4.806814">
        <ele>56.408</ele>
        <time>2021-10-14T18:56:40Z</time>
      </trkpt>
      <trkpt lat="43.300912" lon="-4.806994">
        <ele>56.035</ele>
        <time>2021-10-14T18:56:41Z</time>
      </trkpt>
      <trkpt lat="43.300888" lon="-4.807331">
        <ele>55.173</ele>
        <time>2021-10-14T18:56:43Z</time>
      </trkpt>
      <trkpt lat="43.300868" lon="-4.807488">
        <ele>55.341</ele>
        <time>2021-10-14T18:56:44Z</time>
      </trkpt>
      <trkpt lat="43.300825" lon="-4.807766">
        <ele>55.338</ele>
        <time>2021-10-14T18:56:46Z</time>
      </trkpt>
      <trkpt lat="43.300804" lon="-4.807896">
        <ele>55.621</ele>
        <time>2021-10-14T18:56:47Z</time>
      </trkpt>
      <trkpt lat="43.300783" lon="-4.808018">
        <ele>55.988</ele>
        <time>2021-10-14T18:56:48Z</time>
      </trkpt>
      <trkpt lat="43.300741" lon="-4.808239">
        <ele>55.890</ele>
        <time>2021-10-14T18:56:50Z</time>
      </trkpt>
      <trkpt lat="43.300704" lon="-4.808433">
        <ele>54.979</ele>
        <time>2021-10-14T18:56:52Z</time>
      </trkpt>
      <trkpt lat="43.300689" lon="-4.808523">
        <ele>54.965</ele>
        <time>2021-10-14T18:56:53Z</time>
      </trkpt>
      <trkpt lat="43.300666" lon="-4.808685">
        <ele>55.568</ele>
        <time>2021-10-14T18:56:55Z</time>
      </trkpt>
      <trkpt lat="43.300656" lon="-4.808761">
        <ele>55.414</ele>
        <time>2021-10-14T18:56:56Z</time>
      </trkpt>
      <trkpt lat="43.300662" lon="-4.808935">
        <ele>55.408</ele>
        <time>2021-10-14T18:56:58Z</time>
      </trkpt>
      <trkpt lat="43.300728" lon="-4.809076">
        <ele>55.454</ele>
        <time>2021-10-14T18:57:00Z</time>
      </trkpt>
      <trkpt lat="43.300785" lon="-4.809118">
        <ele>55.582</ele>
        <time>2021-10-14T18:57:01Z</time>
      </trkpt>
      <trkpt lat="43.300857" lon="-4.809135">
        <ele>55.650</ele>
        <time>2021-10-14T18:57:02Z</time>
      </trkpt>
      <trkpt lat="43.301027" lon="-4.809139">
        <ele>55.817</ele>
        <time>2021-10-14T18:57:04Z</time>
      </trkpt>
      <trkpt lat="43.301114" lon="-4.809141">
        <ele>56.050</ele>
        <time>2021-10-14T18:57:05Z</time>
      </trkpt>
      <trkpt lat="43.301259" lon="-4.809147">
        <ele>56.017</ele>
        <time>2021-10-14T18:57:07Z</time>
      </trkpt>
      <trkpt lat="43.301338" lon="-4.809157">
        <ele>56.089</ele>
        <time>2021-10-14T18:57:08Z</time>
      </trkpt>
      <trkpt lat="43.301467" lon="-4.809225">
        <ele>56.418</ele>
        <time>2021-10-14T18:57:10Z</time>
      </trkpt>
      <trkpt lat="43.301515" lon="-4.809306">
        <ele>56.983</ele>
        <time>2021-10-14T18:57:11Z</time>
      </trkpt>
      <trkpt lat="43.301546" lon="-4.809428">
        <ele>57.025</ele>
        <time>2021-10-14T18:57:12Z</time>
      </trkpt>
      <trkpt lat="43.301569" lon="-4.809736">
        <ele>57.517</ele>
        <time>2021-10-14T18:57:14Z</time>
      </trkpt>
      <trkpt lat="43.301580" lon="-4.810106">
        <ele>58.208</ele>
        <time>2021-10-14T18:57:16Z</time>
      </trkpt>
      <trkpt lat="43.301601" lon="-4.810523">
        <ele>57.886</ele>
        <time>2021-10-14T18:57:18Z</time>
      </trkpt>
      <trkpt lat="43.301621" lon="-4.810901">
        <ele>58.444</ele>
        <time>2021-10-14T18:57:20Z</time>
      </trkpt>
      <trkpt lat="43.301629" lon="-4.811217">
        <ele>58.812</ele>
        <time>2021-10-14T18:57:22Z</time>
      </trkpt>
      <trkpt lat="43.301634" lon="-4.811385">
        <ele>58.859</ele>
        <time>2021-10-14T18:57:23Z</time>
      </trkpt>
      <trkpt lat="43.301637" lon="-4.811560">
        <ele>59.742</ele>
        <time>2021-10-14T18:57:24Z</time>
      </trkpt>
      <trkpt lat="43.301654" lon="-4.811929">
        <ele>59.769</ele>
        <time>2021-10-14T18:57:26Z</time>
      </trkpt>
      <trkpt lat="43.301683" lon="-4.812255">
        <ele>60.271</ele>
        <time>2021-10-14T18:57:28Z</time>
      </trkpt>
      <trkpt lat="43.301706" lon="-4.812537">
        <ele>61.240</ele>
        <time>2021-10-14T18:57:30Z</time>
      </trkpt>
      <trkpt lat="43.301714" lon="-4.812676">
        <ele>61.623</ele>
        <time>2021-10-14T18:57:31Z</time>
      </trkpt>
      <trkpt lat="43.301721" lon="-4.812821">
        <ele>61.783</ele>
        <time>2021-10-14T18:57:32Z</time>
      </trkpt>
      <trkpt lat="43.301740" lon="-4.813106">
        <ele>61.711</ele>
        <time>2021-10-14T18:57:34Z</time>
      </trkpt>
      <trkpt lat="43.301766" lon="-4.813419">
        <ele>61.808</ele>
        <time>2021-10-14T18:57:36Z</time>
      </trkpt>
      <trkpt lat="43.301774" lon="-4.813585">
        <ele>62.390</ele>
        <time>2021-10-14T18:57:37Z</time>
      </trkpt>
      <trkpt lat="43.301783" lon="-4.813761">
        <ele>62.938</ele>
        <time>2021-10-14T18:57:38Z</time>
      </trkpt>
      <trkpt lat="43.301793" lon="-4.814089">
        <ele>62.416</ele>
        <time>2021-10-14T18:57:40Z</time>
      </trkpt>
      <trkpt lat="43.301803" lon="-4.814371">
        <ele>62.633</ele>
        <time>2021-10-14T18:57:42Z</time>
      </trkpt>
      <trkpt lat="43.301814" lon="-4.814607">
        <ele>63.996</ele>
        <time>2021-10-14T18:57:44Z</time>
      </trkpt>
      <trkpt lat="43.301825" lon="-4.814804">
        <ele>64.643</ele>
        <time>2021-10-14T18:57:46Z</time>
      </trkpt>
      <trkpt lat="43.301829" lon="-4.814914">
        <ele>64.885</ele>
        <time>2021-10-14T18:57:47Z</time>
      </trkpt>
      <trkpt lat="43.301843" lon="-4.815153">
        <ele>66.344</ele>
        <time>2021-10-14T18:57:49Z</time>
      </trkpt>
      <trkpt lat="43.301853" lon="-4.815270">
        <ele>66.691</ele>
        <time>2021-10-14T18:57:50Z</time>
      </trkpt>
      <trkpt lat="43.301882" lon="-4.815480">
        <ele>67.681</ele>
        <time>2021-10-14T18:57:52Z</time>
      </trkpt>
      <trkpt lat="43.301952" lon="-4.815643">
        <ele>68.819</ele>
        <time>2021-10-14T18:57:54Z</time>
      </trkpt>
      <trkpt lat="43.302010" lon="-4.815700">
        <ele>69.208</ele>
        <time>2021-10-14T18:57:55Z</time>
      </trkpt>
      <trkpt lat="43.302085" lon="-4.815745">
        <ele>69.797</ele>
        <time>2021-10-14T18:57:56Z</time>
      </trkpt>
      <trkpt lat="43.302244" lon="-4.815801">
        <ele>70.365</ele>
        <time>2021-10-14T18:57:58Z</time>
      </trkpt>
      <trkpt lat="43.302313" lon="-4.815823">
        <ele>70.573</ele>
        <time>2021-10-14T18:57:59Z</time>
      </trkpt>
      <trkpt lat="43.302422" lon="-4.815869">
        <ele>71.350</ele>
        <time>2021-10-14T18:58:01Z</time>
      </trkpt>
      <trkpt lat="43.302470" lon="-4.815898">
        <ele>71.583</ele>
        <time>2021-10-14T18:58:02Z</time>
      </trkpt>
      <trkpt lat="43.302551" lon="-4.816003">
        <ele>71.860</ele>
        <time>2021-10-14T18:58:04Z</time>
      </trkpt>
      <trkpt lat="43.302629" lon="-4.816183">
        <ele>71.912</ele>
        <time>2021-10-14T18:58:06Z</time>
      </trkpt>
      <trkpt lat="43.302656" lon="-4.816301">
        <ele>72.791</ele>
        <time>2021-10-14T18:58:07Z</time>
      </trkpt>
      <trkpt lat="43.302678" lon="-4.816422">
        <ele>72.912</ele>
        <time>2021-10-14T18:58:08Z</time>
      </trkpt>
      <trkpt lat="43.302720" lon="-4.816650">
        <ele>72.732</ele>
        <time>2021-10-14T18:58:10Z</time>
      </trkpt>
      <trkpt lat="43.302745" lon="-4.816772">
        <ele>73.005</ele>
        <time>2021-10-14T18:58:11Z</time>
      </trkpt>
      <trkpt lat="43.302771" lon="-4.816898">
        <ele>72.808</ele>
        <time>2021-10-14T18:58:12Z</time>
      </trkpt>
      <trkpt lat="43.302823" lon="-4.817126">
        <ele>71.689</ele>
        <time>2021-10-14T18:58:14Z</time>
      </trkpt>
      <trkpt lat="43.302867" lon="-4.817310">
        <ele>71.217</ele>
        <time>2021-10-14T18:58:16Z</time>
      </trkpt>
      <trkpt lat="43.302917" lon="-4.817533">
        <ele>70.485</ele>
        <time>2021-10-14T18:58:18Z</time>
      </trkpt>
      <trkpt lat="43.302971" lon="-4.817790">
        <ele>69.882</ele>
        <time>2021-10-14T18:58:20Z</time>
      </trkpt>
      <trkpt lat="43.303024" lon="-4.818039">
        <ele>69.465</ele>
        <time>2021-10-14T18:58:22Z</time>
      </trkpt>
      <trkpt lat="43.303060" lon="-4.818180">
        <ele>69.432</ele>
        <time>2021-10-14T18:58:23Z</time>
      </trkpt>
      <trkpt lat="43.303158" lon="-4.818496">
        <ele>69.874</ele>
        <time>2021-10-14T18:58:25Z</time>
      </trkpt>
      <trkpt lat="43.303220" lon="-4.818668">
        <ele>69.883</ele>
        <time>2021-10-14T18:58:26Z</time>
      </trkpt>
      <trkpt lat="43.303331" lon="-4.818959">
        <ele>70.921</ele>
        <time>2021-10-14T18:58:28Z</time>
      </trkpt>
      <trkpt lat="43.303378" lon="-4.819084">
        <ele>68.741</ele>
        <time>2021-10-14T18:58:29Z</time>
      </trkpt>
      <trkpt lat="43.303469" lon="-4.819323">
        <ele>68.705</ele>
        <time>2021-10-14T18:58:31Z</time>
      </trkpt>
      <trkpt lat="43.303520" lon="-4.819455">
        <ele>69.308</ele>
        <time>2021-10-14T18:58:32Z</time>
      </trkpt>
      <trkpt lat="43.303628" lon="-4.819738">
        <ele>69.760</ele>
        <time>2021-10-14T18:58:34Z</time>
      </trkpt>
      <trkpt lat="43.303689" lon="-4.819903">
        <ele>71.568</ele>
        <time>2021-10-14T18:58:35Z</time>
      </trkpt>
      <trkpt lat="43.303822" lon="-4.820240">
        <ele>70.256</ele>
        <time>2021-10-14T18:58:37Z</time>
      </trkpt>
      <trkpt lat="43.303896" lon="-4.820416">
        <ele>70.523</ele>
        <time>2021-10-14T18:58:38Z</time>
      </trkpt>
      <trkpt lat="43.304035" lon="-4.820775">
        <ele>70.636</ele>
        <time>2021-10-14T18:58:40Z</time>
      </trkpt>
      <trkpt lat="43.304105" lon="-4.820959">
        <ele>70.533</ele>
        <time>2021-10-14T18:58:41Z</time>
      </trkpt>
      <trkpt lat="43.304245" lon="-4.821325">
        <ele>71.365</ele>
        <time>2021-10-14T18:58:43Z</time>
      </trkpt>
      <trkpt lat="43.304310" lon="-4.821493">
        <ele>71.324</ele>
        <time>2021-10-14T18:58:44Z</time>
      </trkpt>
      <trkpt lat="43.304415" lon="-4.821761">
        <ele>70.816</ele>
        <time>2021-10-14T18:58:46Z</time>
      </trkpt>
      <trkpt lat="43.304462" lon="-4.821879">
        <ele>72.176</ele>
        <time>2021-10-14T18:58:47Z</time>
      </trkpt>
      <trkpt lat="43.304560" lon="-4.822129">
        <ele>72.013</ele>
        <time>2021-10-14T18:58:49Z</time>
      </trkpt>
      <trkpt lat="43.304616" lon="-4.822274">
        <ele>72.008</ele>
        <time>2021-10-14T18:58:50Z</time>
      </trkpt>
      <trkpt lat="43.304738" lon="-4.822586">
        <ele>74.099</ele>
        <time>2021-10-14T18:58:52Z</time>
      </trkpt>
      <trkpt lat="43.304888" lon="-4.822963">
        <ele>74.067</ele>
        <time>2021-10-14T18:58:54Z</time>
      </trkpt>
      <trkpt lat="43.304972" lon="-4.823178">
        <ele>74.955</ele>
        <time>2021-10-14T18:58:55Z</time>
      </trkpt>
      <trkpt lat="43.305065" lon="-4.823415">
        <ele>75.432</ele>
        <time>2021-10-14T18:58:56Z</time>
      </trkpt>
      <trkpt lat="43.305258" lon="-4.823901">
        <ele>76.845</ele>
        <time>2021-10-14T18:58:58Z</time>
      </trkpt>
      <trkpt lat="43.305365" lon="-4.824168">
        <ele>77.412</ele>
        <time>2021-10-14T18:58:59Z</time>
      </trkpt>
      <trkpt lat="43.305478" lon="-4.824447">
        <ele>78.154</ele>
        <time>2021-10-14T18:59:00Z</time>
      </trkpt>
      <trkpt lat="43.305600" lon="-4.824735">
        <ele>79.593</ele>
        <time>2021-10-14T18:59:01Z</time>
      </trkpt>
      <trkpt lat="43.305735" lon="-4.825033">
        <ele>80.051</ele>
        <time>2021-10-14T18:59:02Z</time>
      </trkpt>
      <trkpt lat="43.305987" lon="-4.825595">
        <ele>80.401</ele>
        <time>2021-10-14T18:59:04Z</time>
      </trkpt>
      <trkpt lat="43.306109" lon="-4.825869">
        <ele>80.611</ele>
        <time>2021-10-14T18:59:05Z</time>
      </trkpt>
      <trkpt lat="43.306337" lon="-4.826348">
        <ele>80.408</ele>
        <time>2021-10-14T18:59:07Z</time>
      </trkpt>
      <trkpt lat="43.306479" lon="-4.826572">
        <ele>80.443</ele>
        <time>2021-10-14T18:59:08Z</time>
      </trkpt>
      <trkpt lat="43.306812" lon="-4.826928">
        <ele>79.491</ele>
        <time>2021-10-14T18:59:10Z</time>
      </trkpt>
      <trkpt lat="43.307166" lon="-4.827247">
        <ele>77.859</ele>
        <time>2021-10-14T18:59:12Z</time>
      </trkpt>
      <trkpt lat="43.307316" lon="-4.827438">
        <ele>77.556</ele>
        <time>2021-10-14T18:59:13Z</time>
      </trkpt>
      <trkpt lat="43.307446" lon="-4.827670">
        <ele>77.069</ele>
        <time>2021-10-14T18:59:14Z</time>
      </trkpt>
      <trkpt lat="43.307629" lon="-4.828237">
        <ele>76.116</ele>
        <time>2021-10-14T18:59:16Z</time>
      </trkpt>
      <trkpt lat="43.307707" lon="-4.828558">
        <ele>75.898</ele>
        <time>2021-10-14T18:59:17Z</time>
      </trkpt>
      <trkpt lat="43.307834" lon="-4.829200">
        <ele>75.837</ele>
        <time>2021-10-14T18:59:19Z</time>
      </trkpt>
      <trkpt lat="43.307884" lon="-4.829534">
        <ele>75.047</ele>
        <time>2021-10-14T18:59:20Z</time>
      </trkpt>
      <trkpt lat="43.307937" lon="-4.830150">
        <ele>74.429</ele>
        <time>2021-10-14T18:59:22Z</time>
      </trkpt>
      <trkpt lat="43.307926" lon="-4.830440">
        <ele>75.221</ele>
        <time>2021-10-14T18:59:23Z</time>
      </trkpt>
      <trkpt lat="43.307901" lon="-4.830967">
        <ele>75.808</ele>
        <time>2021-10-14T18:59:25Z</time>
      </trkpt>
      <trkpt lat="43.307907" lon="-4.831213">
        <ele>76.572</ele>
        <time>2021-10-14T18:59:26Z</time>
      </trkpt>
      <trkpt lat="43.307940" lon="-4.831593">
        <ele>76.290</ele>
        <time>2021-10-14T18:59:28Z</time>
      </trkpt>
      <trkpt lat="43.307960" lon="-4.831858">
        <ele>76.748</ele>
        <time>2021-10-14T18:59:30Z</time>
      </trkpt>
      <trkpt lat="43.307970" lon="-4.831984">
        <ele>78.365</ele>
        <time>2021-10-14T18:59:31Z</time>
      </trkpt>
      <trkpt lat="43.307981" lon="-4.832117">
        <ele>78.378</ele>
        <time>2021-10-14T18:59:32Z</time>
      </trkpt>
      <trkpt lat="43.308006" lon="-4.832374">
        <ele>78.355</ele>
        <time>2021-10-14T18:59:34Z</time>
      </trkpt>
      <trkpt lat="43.308015" lon="-4.832503">
        <ele>78.737</ele>
        <time>2021-10-14T18:59:35Z</time>
      </trkpt>
      <trkpt lat="43.308024" lon="-4.832623">
        <ele>79.596</ele>
        <time>2021-10-14T18:59:36Z</time>
      </trkpt>
      <trkpt lat="43.308066" lon="-4.832868">
        <ele>79.739</ele>
        <time>2021-10-14T18:59:38Z</time>
      </trkpt>
      <trkpt lat="43.308152" lon="-4.833134">
        <ele>79.901</ele>
        <time>2021-10-14T18:59:40Z</time>
      </trkpt>
      <trkpt lat="43.308205" lon="-4.833271">
        <ele>80.621</ele>
        <time>2021-10-14T18:59:41Z</time>
      </trkpt>
      <trkpt lat="43.308349" lon="-4.833568">
        <ele>81.608</ele>
        <time>2021-10-14T18:59:43Z</time>
      </trkpt>
      <trkpt lat="43.308439" lon="-4.833738">
        <ele>82.321</ele>
        <time>2021-10-14T18:59:44Z</time>
      </trkpt>
      <trkpt lat="43.308624" lon="-4.834074">
        <ele>81.289</ele>
        <time>2021-10-14T18:59:46Z</time>
      </trkpt>
      <trkpt lat="43.308809" lon="-4.834396">
        <ele>82.627</ele>
        <time>2021-10-14T18:59:48Z</time>
      </trkpt>
      <trkpt lat="43.308899" lon="-4.834554">
        <ele>83.434</ele>
        <time>2021-10-14T18:59:49Z</time>
      </trkpt>
      <trkpt lat="43.308988" lon="-4.834715">
        <ele>83.347</ele>
        <time>2021-10-14T18:59:50Z</time>
      </trkpt>
      <trkpt lat="43.309141" lon="-4.834991">
        <ele>84.764</ele>
        <time>2021-10-14T18:59:52Z</time>
      </trkpt>
      <trkpt lat="43.309273" lon="-4.835233">
        <ele>84.756</ele>
        <time>2021-10-14T18:59:54Z</time>
      </trkpt>
      <trkpt lat="43.309381" lon="-4.835428">
        <ele>85.135</ele>
        <time>2021-10-14T18:59:56Z</time>
      </trkpt>
      <trkpt lat="43.309481" lon="-4.835620">
        <ele>85.221</ele>
        <time>2021-10-14T18:59:58Z</time>
      </trkpt>
      <trkpt lat="43.309545" lon="-4.835737">
        <ele>85.641</ele>
        <time>2021-10-14T18:59:59Z</time>
      </trkpt>
      <trkpt lat="43.309685" lon="-4.836002">
        <ele>86.505</ele>
        <time>2021-10-14T19:00:01Z</time>
      </trkpt>
      <trkpt lat="43.309765" lon="-4.836154">
        <ele>88.208</ele>
        <time>2021-10-14T19:00:02Z</time>
      </trkpt>
      <trkpt lat="43.309949" lon="-4.836492">
        <ele>89.290</ele>
        <time>2021-10-14T19:00:04Z</time>
      </trkpt>
      <trkpt lat="43.310062" lon="-4.836700">
        <ele>89.818</ele>
        <time>2021-10-14T19:00:05Z</time>
      </trkpt>
      <trkpt lat="43.310307" lon="-4.837145">
        <ele>91.226</ele>
        <time>2021-10-14T19:00:07Z</time>
      </trkpt>
      <trkpt lat="43.310427" lon="-4.837354">
        <ele>91.333</ele>
        <time>2021-10-14T19:00:08Z</time>
      </trkpt>
      <trkpt lat="43.310692" lon="-4.837727">
        <ele>92.796</ele>
        <time>2021-10-14T19:00:10Z</time>
      </trkpt>
      <trkpt lat="43.310994" lon="-4.838020">
        <ele>92.913</ele>
        <time>2021-10-14T19:00:12Z</time>
      </trkpt>
      <trkpt lat="43.311282" lon="-4.838208">
        <ele>93.785</ele>
        <time>2021-10-14T19:00:14Z</time>
      </trkpt>
      <trkpt lat="43.311525" lon="-4.838355">
        <ele>94.264</ele>
        <time>2021-10-14T19:00:16Z</time>
      </trkpt>
      <trkpt lat="43.311636" lon="-4.838425">
        <ele>94.474</ele>
        <time>2021-10-14T19:00:17Z</time>
      </trkpt>
      <trkpt lat="43.311740" lon="-4.838491">
        <ele>94.656</ele>
        <time>2021-10-14T19:00:18Z</time>
      </trkpt>
      <trkpt lat="43.311841" lon="-4.838554">
        <ele>94.621</ele>
        <time>2021-10-14T19:00:19Z</time>
      </trkpt>
      <trkpt lat="43.311951" lon="-4.838623">
        <ele>95.108</ele>
        <time>2021-10-14T19:00:20Z</time>
      </trkpt>
      <trkpt lat="43.312189" lon="-4.838775">
        <ele>95.895</ele>
        <time>2021-10-14T19:00:22Z</time>
      </trkpt>
      <trkpt lat="43.312316" lon="-4.838854">
        <ele>95.973</ele>
        <time>2021-10-14T19:00:23Z</time>
      </trkpt>
      <trkpt lat="43.312555" lon="-4.839027">
        <ele>96.851</ele>
        <time>2021-10-14T19:00:25Z</time>
      </trkpt>
      <trkpt lat="43.312675" lon="-4.839129">
        <ele>96.888</ele>
        <time>2021-10-14T19:00:26Z</time>
      </trkpt>
      <trkpt lat="43.312880" lon="-4.839392">
        <ele>96.241</ele>
        <time>2021-10-14T19:00:28Z</time>
      </trkpt>
      <trkpt lat="43.313038" lon="-4.839752">
        <ele>96.338</ele>
        <time>2021-10-14T19:00:30Z</time>
      </trkpt>
      <trkpt lat="43.313114" lon="-4.839945">
        <ele>96.360</ele>
        <time>2021-10-14T19:00:31Z</time>
      </trkpt>
      <trkpt lat="43.313202" lon="-4.840154">
        <ele>96.459</ele>
        <time>2021-10-14T19:00:32Z</time>
      </trkpt>
      <trkpt lat="43.313388" lon="-4.840562">
        <ele>95.027</ele>
        <time>2021-10-14T19:00:34Z</time>
      </trkpt>
      <trkpt lat="43.313487" lon="-4.840776">
        <ele>95.368</ele>
        <time>2021-10-14T19:00:35Z</time>
      </trkpt>
      <trkpt lat="43.313651" lon="-4.841230">
        <ele>95.514</ele>
        <time>2021-10-14T19:00:37Z</time>
      </trkpt>
      <trkpt lat="43.313730" lon="-4.841451">
        <ele>94.708</ele>
        <time>2021-10-14T19:00:38Z</time>
      </trkpt>
      <trkpt lat="43.313925" lon="-4.841796">
        <ele>94.680</ele>
        <time>2021-10-14T19:00:40Z</time>
      </trkpt>
      <trkpt lat="43.314225" lon="-4.841986">
        <ele>93.738</ele>
        <time>2021-10-14T19:00:42Z</time>
      </trkpt>
      <trkpt lat="43.314390" lon="-4.842028">
        <ele>94.366</ele>
        <time>2021-10-14T19:00:43Z</time>
      </trkpt>
      <trkpt lat="43.314549" lon="-4.842086">
        <ele>94.363</ele>
        <time>2021-10-14T19:00:44Z</time>
      </trkpt>
      <trkpt lat="43.314812" lon="-4.842320">
        <ele>93.076</ele>
        <time>2021-10-14T19:00:46Z</time>
      </trkpt>
      <trkpt lat="43.314990" lon="-4.842712">
        <ele>94.243</ele>
        <time>2021-10-14T19:00:48Z</time>
      </trkpt>
      <trkpt lat="43.315016" lon="-4.843189">
        <ele>94.845</ele>
        <time>2021-10-14T19:00:50Z</time>
      </trkpt>
      <trkpt lat="43.314909" lon="-4.843695">
        <ele>95.184</ele>
        <time>2021-10-14T19:00:52Z</time>
      </trkpt>
      <trkpt lat="43.314854" lon="-4.844211">
        <ele>92.242</ele>
        <time>2021-10-14T19:00:54Z</time>
      </trkpt>
      <trkpt lat="43.314896" lon="-4.844714">
        <ele>94.322</ele>
        <time>2021-10-14T19:00:56Z</time>
      </trkpt>
      <trkpt lat="43.315015" lon="-4.845121">
        <ele>95.314</ele>
        <time>2021-10-14T19:00:58Z</time>
      </trkpt>
      <trkpt lat="43.315115" lon="-4.845289">
        <ele>95.808</ele>
        <time>2021-10-14T19:00:59Z</time>
      </trkpt>
      <trkpt lat="43.315231" lon="-4.845432">
        <ele>96.762</ele>
        <time>2021-10-14T19:01:00Z</time>
      </trkpt>
      <trkpt lat="43.315358" lon="-4.845545">
        <ele>96.630</ele>
        <time>2021-10-14T19:01:01Z</time>
      </trkpt>
      <trkpt lat="43.315480" lon="-4.845646">
        <ele>95.458</ele>
        <time>2021-10-14T19:01:02Z</time>
      </trkpt>
      <trkpt lat="43.315638" lon="-4.845828">
        <ele>96.145</ele>
        <time>2021-10-14T19:01:04Z</time>
      </trkpt>
      <trkpt lat="43.315724" lon="-4.846054">
        <ele>97.458</ele>
        <time>2021-10-14T19:01:06Z</time>
      </trkpt>
      <trkpt lat="43.315768" lon="-4.846302">
        <ele>97.095</ele>
        <time>2021-10-14T19:01:08Z</time>
      </trkpt>
      <trkpt lat="43.315776" lon="-4.846530">
        <ele>97.157</ele>
        <time>2021-10-14T19:01:10Z</time>
      </trkpt>
      <trkpt lat="43.315767" lon="-4.846634">
        <ele>97.736</ele>
        <time>2021-10-14T19:01:11Z</time>
      </trkpt>
      <trkpt lat="43.315737" lon="-4.846827">
        <ele>99.595</ele>
        <time>2021-10-14T19:01:13Z</time>
      </trkpt>
      <trkpt lat="43.315720" lon="-4.846932">
        <ele>99.949</ele>
        <time>2021-10-14T19:01:14Z</time>
      </trkpt>
      <trkpt lat="43.315688" lon="-4.847175">
        <ele>101.623</ele>
        <time>2021-10-14T19:01:16Z</time>
      </trkpt>
      <trkpt lat="43.315660" lon="-4.847476">
        <ele>103.708</ele>
        <time>2021-10-14T19:01:18Z</time>
      </trkpt>
      <trkpt lat="43.315625" lon="-4.847812">
        <ele>104.797</ele>
        <time>2021-10-14T19:01:20Z</time>
      </trkpt>
      <trkpt lat="43.315597" lon="-4.848175">
        <ele>105.055</ele>
        <time>2021-10-14T19:01:22Z</time>
      </trkpt>
      <trkpt lat="43.315598" lon="-4.848572">
        <ele>106.023</ele>
        <time>2021-10-14T19:01:24Z</time>
      </trkpt>
      <trkpt lat="43.315634" lon="-4.848972">
        <ele>107.930</ele>
        <time>2021-10-14T19:01:26Z</time>
      </trkpt>
      <trkpt lat="43.315665" lon="-4.849318">
        <ele>108.713</ele>
        <time>2021-10-14T19:01:28Z</time>
      </trkpt>
      <trkpt lat="43.315681" lon="-4.849471">
        <ele>108.810</ele>
        <time>2021-10-14T19:01:29Z</time>
      </trkpt>
      <trkpt lat="43.315705" lon="-4.849739">
        <ele>109.652</ele>
        <time>2021-10-14T19:01:31Z</time>
      </trkpt>
      <trkpt lat="43.315715" lon="-4.849867">
        <ele>109.851</ele>
        <time>2021-10-14T19:01:32Z</time>
      </trkpt>
      <trkpt lat="43.315741" lon="-4.850158">
        <ele>110.285</ele>
        <time>2021-10-14T19:01:34Z</time>
      </trkpt>
      <trkpt lat="43.315759" lon="-4.850338">
        <ele>111.289</ele>
        <time>2021-10-14T19:01:35Z</time>
      </trkpt>
      <trkpt lat="43.315778" lon="-4.850539">
        <ele>111.217</ele>
        <time>2021-10-14T19:01:36Z</time>
      </trkpt>
      <trkpt lat="43.315816" lon="-4.850973">
        <ele>114.308</ele>
        <time>2021-10-14T19:01:38Z</time>
      </trkpt>
      <trkpt lat="43.315853" lon="-4.851435">
        <ele>113.826</ele>
        <time>2021-10-14T19:01:40Z</time>
      </trkpt>
      <trkpt lat="43.315893" lon="-4.851973">
        <ele>114.424</ele>
        <time>2021-10-14T19:01:42Z</time>
      </trkpt>
      <trkpt lat="43.315933" lon="-4.852571">
        <ele>113.492</ele>
        <time>2021-10-14T19:01:44Z</time>
      </trkpt>
      <trkpt lat="43.315974" lon="-4.853177">
        <ele>114.079</ele>
        <time>2021-10-14T19:01:46Z</time>
      </trkpt>
      <trkpt lat="43.316004" lon="-4.853492">
        <ele>113.892</ele>
        <time>2021-10-14T19:01:47Z</time>
      </trkpt>
      <trkpt lat="43.316051" lon="-4.853811">
        <ele>113.649</ele>
        <time>2021-10-14T19:01:48Z</time>
      </trkpt>
      <trkpt lat="43.316199" lon="-4.854458">
        <ele>112.851</ele>
        <time>2021-10-14T19:01:50Z</time>
      </trkpt>
      <trkpt lat="43.316379" lon="-4.855096">
        <ele>111.650</ele>
        <time>2021-10-14T19:01:52Z</time>
      </trkpt>
      <trkpt lat="43.316577" lon="-4.855753">
        <ele>110.416</ele>
        <time>2021-10-14T19:01:54Z</time>
      </trkpt>
      <trkpt lat="43.316768" lon="-4.856402">
        <ele>109.876</ele>
        <time>2021-10-14T19:01:56Z</time>
      </trkpt>
      <trkpt lat="43.316926" lon="-4.856971">
        <ele>110.913</ele>
        <time>2021-10-14T19:01:58Z</time>
      </trkpt>
      <trkpt lat="43.317032" lon="-4.857509">
        <ele>111.408</ele>
        <time>2021-10-14T19:02:00Z</time>
      </trkpt>
      <trkpt lat="43.317047" lon="-4.858086">
        <ele>113.859</ele>
        <time>2021-10-14T19:02:02Z</time>
      </trkpt>
      <trkpt lat="43.317005" lon="-4.858654">
        <ele>114.697</ele>
        <time>2021-10-14T19:02:04Z</time>
      </trkpt>
      <trkpt lat="43.316982" lon="-4.858940">
        <ele>115.645</ele>
        <time>2021-10-14T19:02:05Z</time>
      </trkpt>
      <trkpt lat="43.316963" lon="-4.859220">
        <ele>116.152</ele>
        <time>2021-10-14T19:02:06Z</time>
      </trkpt>
      <trkpt lat="43.316941" lon="-4.859493">
        <ele>117.575</ele>
        <time>2021-10-14T19:02:07Z</time>
      </trkpt>
      <trkpt lat="43.316918" lon="-4.859764">
        <ele>118.492</ele>
        <time>2021-10-14T19:02:08Z</time>
      </trkpt>
      <trkpt lat="43.316870" lon="-4.860280">
        <ele>119.974</ele>
        <time>2021-10-14T19:02:10Z</time>
      </trkpt>
      <trkpt lat="43.316830" lon="-4.860531">
        <ele>120.763</ele>
        <time>2021-10-14T19:02:11Z</time>
      </trkpt>
      <trkpt lat="43.316683" lon="-4.861023">
        <ele>122.456</ele>
        <time>2021-10-14T19:02:13Z</time>
      </trkpt>
      <trkpt lat="43.316579" lon="-4.861274">
        <ele>124.059</ele>
        <time>2021-10-14T19:02:14Z</time>
      </trkpt>
      <trkpt lat="43.316414" lon="-4.861760">
        <ele>125.214</ele>
        <time>2021-10-14T19:02:16Z</time>
      </trkpt>
      <trkpt lat="43.316364" lon="-4.862011">
        <ele>126.208</ele>
        <time>2021-10-14T19:02:17Z</time>
      </trkpt>
      <trkpt lat="43.316322" lon="-4.862228">
        <ele>127.383</ele>
        <time>2021-10-14T19:02:18Z</time>
      </trkpt>
      <trkpt lat="43.316174" lon="-4.862606">
        <ele>129.221</ele>
        <time>2021-10-14T19:02:20Z</time>
      </trkpt>
      <trkpt lat="43.315918" lon="-4.862854">
        <ele>130.959</ele>
        <time>2021-10-14T19:02:22Z</time>
      </trkpt>
      <trkpt lat="43.315754" lon="-4.862911">
        <ele>131.156</ele>
        <time>2021-10-14T19:02:23Z</time>
      </trkpt>
      <trkpt lat="43.315585" lon="-4.862951">
        <ele>130.669</ele>
        <time>2021-10-14T19:02:24Z</time>
      </trkpt>
      <trkpt lat="43.315293" lon="-4.863086">
        <ele>131.736</ele>
        <time>2021-10-14T19:02:26Z</time>
      </trkpt>
      <trkpt lat="43.315094" lon="-4.863368">
        <ele>132.788</ele>
        <time>2021-10-14T19:02:28Z</time>
      </trkpt>
      <trkpt lat="43.314986" lon="-4.863805">
        <ele>133.237</ele>
        <time>2021-10-14T19:02:30Z</time>
      </trkpt>
      <trkpt lat="43.314980" lon="-4.864337">
        <ele>134.573</ele>
        <time>2021-10-14T19:02:32Z</time>
      </trkpt>
      <trkpt lat="43.314980" lon="-4.864906">
        <ele>136.485</ele>
        <time>2021-10-14T19:02:34Z</time>
      </trkpt>
      <trkpt lat="43.314973" lon="-4.865201">
        <ele>136.913</ele>
        <time>2021-10-14T19:02:35Z</time>
      </trkpt>
      <trkpt lat="43.314971" lon="-4.865488">
        <ele>137.208</ele>
        <time>2021-10-14T19:02:36Z</time>
      </trkpt>
      <trkpt lat="43.314982" lon="-4.865756">
        <ele>138.595</ele>
        <time>2021-10-14T19:02:37Z</time>
      </trkpt>
      <trkpt lat="43.315021" lon="-4.866014">
        <ele>139.323</ele>
        <time>2021-10-14T19:02:38Z</time>
      </trkpt>
      <trkpt lat="43.315192" lon="-4.866486">
        <ele>141.251</ele>
        <time>2021-10-14T19:02:40Z</time>
      </trkpt>
      <trkpt lat="43.315417" lon="-4.866936">
        <ele>143.318</ele>
        <time>2021-10-14T19:02:42Z</time>
      </trkpt>
      <trkpt lat="43.315555" lon="-4.867433">
        <ele>143.731</ele>
        <time>2021-10-14T19:02:44Z</time>
      </trkpt>
      <trkpt lat="43.315616" lon="-4.867942">
        <ele>145.198</ele>
        <time>2021-10-14T19:02:46Z</time>
      </trkpt>
      <trkpt lat="43.315747" lon="-4.868411">
        <ele>147.160</ele>
        <time>2021-10-14T19:02:48Z</time>
      </trkpt>
      <trkpt lat="43.315964" lon="-4.868828">
        <ele>147.729</ele>
        <time>2021-10-14T19:02:50Z</time>
      </trkpt>
      <trkpt lat="43.316207" lon="-4.869232">
        <ele>148.998</ele>
        <time>2021-10-14T19:02:52Z</time>
      </trkpt>
      <trkpt lat="43.316408" lon="-4.869707">
        <ele>151.215</ele>
        <time>2021-10-14T19:02:54Z</time>
      </trkpt>
      <trkpt lat="43.316577" lon="-4.870234">
        <ele>152.126</ele>
        <time>2021-10-14T19:02:56Z</time>
      </trkpt>
      <trkpt lat="43.316719" lon="-4.870706">
        <ele>154.908</ele>
        <time>2021-10-14T19:02:58Z</time>
      </trkpt>
      <trkpt lat="43.316832" lon="-4.871163">
        <ele>157.157</ele>
        <time>2021-10-14T19:03:00Z</time>
      </trkpt>
      <trkpt lat="43.316892" lon="-4.871611">
        <ele>159.415</ele>
        <time>2021-10-14T19:03:02Z</time>
      </trkpt>
      <trkpt lat="43.316990" lon="-4.871995">
        <ele>162.173</ele>
        <time>2021-10-14T19:03:04Z</time>
      </trkpt>
      <trkpt lat="43.317081" lon="-4.872176">
        <ele>162.880</ele>
        <time>2021-10-14T19:03:05Z</time>
      </trkpt>
      <trkpt lat="43.317346" lon="-4.872466">
        <ele>164.683</ele>
        <time>2021-10-14T19:03:07Z</time>
      </trkpt>
      <trkpt lat="43.317514" lon="-4.872600">
        <ele>166.140</ele>
        <time>2021-10-14T19:03:08Z</time>
      </trkpt>
      <trkpt lat="43.317849" lon="-4.872879">
        <ele>168.892</ele>
        <time>2021-10-14T19:03:10Z</time>
      </trkpt>
      <trkpt lat="43.318195" lon="-4.873147">
        <ele>171.861</ele>
        <time>2021-10-14T19:03:12Z</time>
      </trkpt>
      <trkpt lat="43.318365" lon="-4.873258">
        <ele>172.031</ele>
        <time>2021-10-14T19:03:13Z</time>
      </trkpt>
      <trkpt lat="43.318543" lon="-4.873357">
        <ele>174.061</ele>
        <time>2021-10-14T19:03:14Z</time>
      </trkpt>
      <trkpt lat="43.318890" lon="-4.873429">
        <ele>176.507</ele>
        <time>2021-10-14T19:03:16Z</time>
      </trkpt>
      <trkpt lat="43.319272" lon="-4.873415">
        <ele>178.508</ele>
        <time>2021-10-14T19:03:18Z</time>
      </trkpt>
      <trkpt lat="43.319471" lon="-4.873413">
        <ele>179.681</ele>
        <time>2021-10-14T19:03:19Z</time>
      </trkpt>
      <trkpt lat="43.319676" lon="-4.873408">
        <ele>180.149</ele>
        <time>2021-10-14T19:03:20Z</time>
      </trkpt>
      <trkpt lat="43.320051" lon="-4.873367">
        <ele>182.567</ele>
        <time>2021-10-14T19:03:22Z</time>
      </trkpt>
      <trkpt lat="43.320222" lon="-4.873322">
        <ele>183.124</ele>
        <time>2021-10-14T19:03:23Z</time>
      </trkpt>
      <trkpt lat="43.320377" lon="-4.873266">
        <ele>183.797</ele>
        <time>2021-10-14T19:03:24Z</time>
      </trkpt>
      <trkpt lat="43.320639" lon="-4.873111">
        <ele>187.424</ele>
        <time>2021-10-14T19:03:26Z</time>
      </trkpt>
      <trkpt lat="43.320851" lon="-4.872992">
        <ele>189.176</ele>
        <time>2021-10-14T19:03:28Z</time>
      </trkpt>
      <trkpt lat="43.320948" lon="-4.872974">
        <ele>189.455</ele>
        <time>2021-10-14T19:03:29Z</time>
      </trkpt>
      <trkpt lat="43.321035" lon="-4.872998">
        <ele>190.668</ele>
        <time>2021-10-14T19:03:30Z</time>
      </trkpt>
      <trkpt lat="43.321106" lon="-4.873083">
        <ele>190.842</ele>
        <time>2021-10-14T19:03:31Z</time>
      </trkpt>
      <trkpt lat="43.321155" lon="-4.873223">
        <ele>191.626</ele>
        <time>2021-10-14T19:03:32Z</time>
      </trkpt>
      <trkpt lat="43.321159" lon="-4.873530">
        <ele>193.808</ele>
        <time>2021-10-14T19:03:34Z</time>
      </trkpt>
      <trkpt lat="43.321021" lon="-4.873809">
        <ele>194.124</ele>
        <time>2021-10-14T19:03:36Z</time>
      </trkpt>
      <trkpt lat="43.320751" lon="-4.874052">
        <ele>195.442</ele>
        <time>2021-10-14T19:03:38Z</time>
      </trkpt>
      <trkpt lat="43.320404" lon="-4.874309">
        <ele>196.920</ele>
        <time>2021-10-14T19:03:40Z</time>
      </trkpt>
      <trkpt lat="43.319984" lon="-4.874534">
        <ele>198.847</ele>
        <time>2021-10-14T19:03:42Z</time>
      </trkpt>
      <trkpt lat="43.319755" lon="-4.874641">
        <ele>200.010</ele>
        <time>2021-10-14T19:03:43Z</time>
      </trkpt>
      <trkpt lat="43.319525" lon="-4.874744">
        <ele>201.667</ele>
        <time>2021-10-14T19:03:44Z</time>
      </trkpt>
      <trkpt lat="43.319125" lon="-4.874920">
        <ele>203.659</ele>
        <time>2021-10-14T19:03:46Z</time>
      </trkpt>
      <trkpt lat="43.318786" lon="-4.875024">
        <ele>205.028</ele>
        <time>2021-10-14T19:03:48Z</time>
      </trkpt>
      <trkpt lat="43.318629" lon="-4.875033">
        <ele>205.663</ele>
        <time>2021-10-14T19:03:49Z</time>
      </trkpt>
      <trkpt lat="43.318477" lon="-4.875012">
        <ele>206.044</ele>
        <time>2021-10-14T19:03:50Z</time>
      </trkpt>
      <trkpt lat="43.318234" lon="-4.874916">
        <ele>208.918</ele>
        <time>2021-10-14T19:03:52Z</time>
      </trkpt>
      <trkpt lat="43.318128" lon="-4.874896">
        <ele>209.008</ele>
        <time>2021-10-14T19:03:53Z</time>
      </trkpt>
      <trkpt lat="43.318026" lon="-4.874903">
        <ele>209.194</ele>
        <time>2021-10-14T19:03:54Z</time>
      </trkpt>
      <trkpt lat="43.317847" lon="-4.875024">
        <ele>211.832</ele>
        <time>2021-10-14T19:03:56Z</time>
      </trkpt>
      <trkpt lat="43.317707" lon="-4.875275">
        <ele>214.170</ele>
        <time>2021-10-14T19:03:58Z</time>
      </trkpt>
      <trkpt lat="43.317520" lon="-4.875551">
        <ele>215.717</ele>
        <time>2021-10-14T19:04:00Z</time>
      </trkpt>
      <trkpt lat="43.317301" lon="-4.875742">
        <ele>219.640</ele>
        <time>2021-10-14T19:04:02Z</time>
      </trkpt>
      <trkpt lat="43.317104" lon="-4.875879">
        <ele>220.167</ele>
        <time>2021-10-14T19:04:04Z</time>
      </trkpt>
      <trkpt lat="43.316896" lon="-4.876028">
        <ele>222.189</ele>
        <time>2021-10-14T19:04:06Z</time>
      </trkpt>
      <trkpt lat="43.316686" lon="-4.876237">
        <ele>224.298</ele>
        <time>2021-10-14T19:04:08Z</time>
      </trkpt>
      <trkpt lat="43.316504" lon="-4.876569">
        <ele>227.049</ele>
        <time>2021-10-14T19:04:10Z</time>
      </trkpt>
      <trkpt lat="43.316422" lon="-4.876793">
        <ele>228.502</ele>
        <time>2021-10-14T19:04:11Z</time>
      </trkpt>
      <trkpt lat="43.316345" lon="-4.877045">
        <ele>230.422</ele>
        <time>2021-10-14T19:04:12Z</time>
      </trkpt>
      <trkpt lat="43.316196" lon="-4.877620">
        <ele>234.008</ele>
        <time>2021-10-14T19:04:14Z</time>
      </trkpt>
      <trkpt lat="43.316069" lon="-4.878218">
        <ele>234.952</ele>
        <time>2021-10-14T19:04:16Z</time>
      </trkpt>
      <trkpt lat="43.316002" lon="-4.878519">
        <ele>237.340</ele>
        <time>2021-10-14T19:04:17Z</time>
      </trkpt>
      <trkpt lat="43.315854" lon="-4.879087">
        <ele>237.638</ele>
        <time>2021-10-14T19:04:19Z</time>
      </trkpt>
      <trkpt lat="43.315771" lon="-4.879352">
        <ele>240.235</ele>
        <time>2021-10-14T19:04:20Z</time>
      </trkpt>
      <trkpt lat="43.315634" lon="-4.879827">
        <ele>243.388</ele>
        <time>2021-10-14T19:04:22Z</time>
      </trkpt>
      <trkpt lat="43.315564" lon="-4.880359">
        <ele>247.395</ele>
        <time>2021-10-14T19:04:24Z</time>
      </trkpt>
      <trkpt lat="43.315569" lon="-4.880643">
        <ele>249.177</ele>
        <time>2021-10-14T19:04:25Z</time>
      </trkpt>
      <trkpt lat="43.315602" lon="-4.880944">
        <ele>252.256</ele>
        <time>2021-10-14T19:04:26Z</time>
      </trkpt>
      <trkpt lat="43.315677" lon="-4.881524">
        <ele>255.385</ele>
        <time>2021-10-14T19:04:28Z</time>
      </trkpt>
      <trkpt lat="43.315684" lon="-4.882149">
        <ele>259.089</ele>
        <time>2021-10-14T19:04:30Z</time>
      </trkpt>
      <trkpt lat="43.315689" lon="-4.882765">
        <ele>262.417</ele>
        <time>2021-10-14T19:04:32Z</time>
      </trkpt>
      <trkpt lat="43.315736" lon="-4.883288">
        <ele>266.208</ele>
        <time>2021-10-14T19:04:34Z</time>
      </trkpt>
      <trkpt lat="43.315786" lon="-4.883548">
        <ele>266.726</ele>
        <time>2021-10-14T19:04:35Z</time>
      </trkpt>
      <trkpt lat="43.315856" lon="-4.883804">
        <ele>268.434</ele>
        <time>2021-10-14T19:04:36Z</time>
      </trkpt>
      <trkpt lat="43.316030" lon="-4.884329">
        <ele>271.012</ele>
        <time>2021-10-14T19:04:38Z</time>
      </trkpt>
      <trkpt lat="43.316184" lon="-4.884831">
        <ele>272.349</ele>
        <time>2021-10-14T19:04:40Z</time>
      </trkpt>
      <trkpt lat="43.316247" lon="-4.885085">
        <ele>273.382</ele>
        <time>2021-10-14T19:04:41Z</time>
      </trkpt>
      <trkpt lat="43.316303" lon="-4.885340">
        <ele>275.399</ele>
        <time>2021-10-14T19:04:42Z</time>
      </trkpt>
      <trkpt lat="43.316358" lon="-4.885603">
        <ele>276.471</ele>
        <time>2021-10-14T19:04:43Z</time>
      </trkpt>
      <trkpt lat="43.316427" lon="-4.885887">
        <ele>277.080</ele>
        <time>2021-10-14T19:04:44Z</time>
      </trkpt>
      <trkpt lat="43.316582" lon="-4.886445">
        <ele>280.581</ele>
        <time>2021-10-14T19:04:46Z</time>
      </trkpt>
      <trkpt lat="43.316649" lon="-4.886733">
        <ele>281.461</ele>
        <time>2021-10-14T19:04:47Z</time>
      </trkpt>
      <trkpt lat="43.316689" lon="-4.887015">
        <ele>281.417</ele>
        <time>2021-10-14T19:04:48Z</time>
      </trkpt>
      <trkpt lat="43.316726" lon="-4.887525">
        <ele>284.408</ele>
        <time>2021-10-14T19:04:50Z</time>
      </trkpt>
      <trkpt lat="43.316763" lon="-4.887966">
        <ele>285.616</ele>
        <time>2021-10-14T19:04:52Z</time>
      </trkpt>
      <trkpt lat="43.316812" lon="-4.888391">
        <ele>287.554</ele>
        <time>2021-10-14T19:04:54Z</time>
      </trkpt>
      <trkpt lat="43.316854" lon="-4.888578">
        <ele>288.612</ele>
        <time>2021-10-14T19:04:55Z</time>
      </trkpt>
      <trkpt lat="43.316918" lon="-4.888765">
        <ele>288.969</ele>
        <time>2021-10-14T19:04:56Z</time>
      </trkpt>
      <trkpt lat="43.317111" lon="-4.889104">
        <ele>291.022</ele>
        <time>2021-10-14T19:04:58Z</time>
      </trkpt>
      <trkpt lat="43.317231" lon="-4.889262">
        <ele>292.269</ele>
        <time>2021-10-14T19:04:59Z</time>
      </trkpt>
      <trkpt lat="43.317349" lon="-4.889414">
        <ele>293.251</ele>
        <time>2021-10-14T19:05:00Z</time>
      </trkpt>
      <trkpt lat="43.317601" lon="-4.889705">
        <ele>294.550</ele>
        <time>2021-10-14T19:05:02Z</time>
      </trkpt>
      <trkpt lat="43.317847" lon="-4.890031">
        <ele>296.358</ele>
        <time>2021-10-14T19:05:04Z</time>
      </trkpt>
      <trkpt lat="43.317946" lon="-4.890234">
        <ele>296.252</ele>
        <time>2021-10-14T19:05:05Z</time>
      </trkpt>
      <trkpt lat="43.318114" lon="-4.890777">
        <ele>298.317</ele>
        <time>2021-10-14T19:05:07Z</time>
      </trkpt>
      <trkpt lat="43.318206" lon="-4.891127">
        <ele>298.808</ele>
        <time>2021-10-14T19:05:08Z</time>
      </trkpt>
      <trkpt lat="43.318393" lon="-4.891818">
        <ele>302.213</ele>
        <time>2021-10-14T19:05:10Z</time>
      </trkpt>
      <trkpt lat="43.318484" lon="-4.892136">
        <ele>302.521</ele>
        <time>2021-10-14T19:05:11Z</time>
      </trkpt>
      <trkpt lat="43.318639" lon="-4.892673">
        <ele>304.739</ele>
        <time>2021-10-14T19:05:13Z</time>
      </trkpt>
      <trkpt lat="43.318711" lon="-4.892901">
        <ele>305.726</ele>
        <time>2021-10-14T19:05:14Z</time>
      </trkpt>
      <trkpt lat="43.318844" lon="-4.893304">
        <ele>307.859</ele>
        <time>2021-10-14T19:05:16Z</time>
      </trkpt>
      <trkpt lat="43.318905" lon="-4.893522">
        <ele>309.366</ele>
        <time>2021-10-14T19:05:17Z</time>
      </trkpt>
      <trkpt lat="43.318975" lon="-4.894031">
        <ele>310.128</ele>
        <time>2021-10-14T19:05:19Z</time>
      </trkpt>
      <trkpt lat="43.319001" lon="-4.894319">
        <ele>310.957</ele>
        <time>2021-10-14T19:05:20Z</time>
      </trkpt>
      <trkpt lat="43.319145" lon="-4.894907">
        <ele>312.914</ele>
        <time>2021-10-14T19:05:22Z</time>
      </trkpt>
      <trkpt lat="43.319397" lon="-4.895485">
        <ele>315.654</ele>
        <time>2021-10-14T19:05:24Z</time>
      </trkpt>
      <trkpt lat="43.319521" lon="-4.895742">
        <ele>318.009</ele>
        <time>2021-10-14T19:05:25Z</time>
      </trkpt>
      <trkpt lat="43.319630" lon="-4.896002">
        <ele>320.008</ele>
        <time>2021-10-14T19:05:26Z</time>
      </trkpt>
      <trkpt lat="43.319765" lon="-4.896561">
        <ele>322.819</ele>
        <time>2021-10-14T19:05:28Z</time>
      </trkpt>
      <trkpt lat="43.319777" lon="-4.896888">
        <ele>324.727</ele>
        <time>2021-10-14T19:05:29Z</time>
      </trkpt>
      <trkpt lat="43.319696" lon="-4.897517">
        <ele>327.665</ele>
        <time>2021-10-14T19:05:31Z</time>
      </trkpt>
      <trkpt lat="43.319633" lon="-4.897788">
        <ele>329.862</ele>
        <time>2021-10-14T19:05:32Z</time>
      </trkpt>
      <trkpt lat="43.319544" lon="-4.898310">
        <ele>333.825</ele>
        <time>2021-10-14T19:05:34Z</time>
      </trkpt>
      <trkpt lat="43.319527" lon="-4.898829">
        <ele>337.642</ele>
        <time>2021-10-14T19:05:36Z</time>
      </trkpt>
      <trkpt lat="43.319521" lon="-4.899082">
        <ele>339.024</ele>
        <time>2021-10-14T19:05:37Z</time>
      </trkpt>
      <trkpt lat="43.319503" lon="-4.899341">
        <ele>340.773</ele>
        <time>2021-10-14T19:05:38Z</time>
      </trkpt>
      <trkpt lat="43.319430" lon="-4.899795">
        <ele>345.014</ele>
        <time>2021-10-14T19:05:40Z</time>
      </trkpt>
      <trkpt lat="43.319399" lon="-4.900007">
        <ele>347.054</ele>
        <time>2021-10-14T19:05:41Z</time>
      </trkpt>
      <trkpt lat="43.319422" lon="-4.900431">
        <ele>349.709</ele>
        <time>2021-10-14T19:05:43Z</time>
      </trkpt>
      <trkpt lat="43.319493" lon="-4.900630">
        <ele>350.708</ele>
        <time>2021-10-14T19:05:44Z</time>
      </trkpt>
      <trkpt lat="43.319720" lon="-4.900931">
        <ele>353.029</ele>
        <time>2021-10-14T19:05:46Z</time>
      </trkpt>
      <trkpt lat="43.319866" lon="-4.901021">
        <ele>353.817</ele>
        <time>2021-10-14T19:05:47Z</time>
      </trkpt>
      <trkpt lat="43.320182" lon="-4.901069">
        <ele>356.165</ele>
        <time>2021-10-14T19:05:49Z</time>
      </trkpt>
      <trkpt lat="43.320349" lon="-4.901047">
        <ele>357.882</ele>
        <time>2021-10-14T19:05:50Z</time>
      </trkpt>
      <trkpt lat="43.320690" lon="-4.900913">
        <ele>360.415</ele>
        <time>2021-10-14T19:05:52Z</time>
      </trkpt>
      <trkpt lat="43.320867" lon="-4.900819">
        <ele>362.162</ele>
        <time>2021-10-14T19:05:53Z</time>
      </trkpt>
      <trkpt lat="43.321041" lon="-4.900734">
        <ele>362.254</ele>
        <time>2021-10-14T19:05:54Z</time>
      </trkpt>
      <trkpt lat="43.321212" lon="-4.900681">
        <ele>362.673</ele>
        <time>2021-10-14T19:05:55Z</time>
      </trkpt>
      <trkpt lat="43.321396" lon="-4.900655">
        <ele>362.456</ele>
        <time>2021-10-14T19:05:56Z</time>
      </trkpt>
      <trkpt lat="43.321805" lon="-4.900703">
        <ele>361.459</ele>
        <time>2021-10-14T19:05:58Z</time>
      </trkpt>
      <trkpt lat="43.322290" lon="-4.900798">
        <ele>361.414</ele>
        <time>2021-10-14T19:06:00Z</time>
      </trkpt>
      <trkpt lat="43.322768" lon="-4.900882">
        <ele>359.708</ele>
        <time>2021-10-14T19:06:02Z</time>
      </trkpt>
      <trkpt lat="43.323202" lon="-4.900971">
        <ele>357.023</ele>
        <time>2021-10-14T19:06:04Z</time>
      </trkpt>
      <trkpt lat="43.323415" lon="-4.901026">
        <ele>355.671</ele>
        <time>2021-10-14T19:06:05Z</time>
      </trkpt>
      <trkpt lat="43.323815" lon="-4.901154">
        <ele>354.779</ele>
        <time>2021-10-14T19:06:07Z</time>
      </trkpt>
      <trkpt lat="43.324004" lon="-4.901230">
        <ele>353.126</ele>
        <time>2021-10-14T19:06:08Z</time>
      </trkpt>
      <trkpt lat="43.324333" lon="-4.901395">
        <ele>350.439</ele>
        <time>2021-10-14T19:06:10Z</time>
      </trkpt>
      <trkpt lat="43.324493" lon="-4.901484">
        <ele>349.726</ele>
        <time>2021-10-14T19:06:11Z</time>
      </trkpt>
      <trkpt lat="43.324786" lon="-4.901664">
        <ele>348.018</ele>
        <time>2021-10-14T19:06:13Z</time>
      </trkpt>
      <trkpt lat="43.324925" lon="-4.901763">
        <ele>347.257</ele>
        <time>2021-10-14T19:06:14Z</time>
      </trkpt>
      <trkpt lat="43.325191" lon="-4.901966">
        <ele>347.662</ele>
        <time>2021-10-14T19:06:16Z</time>
      </trkpt>
      <trkpt lat="43.325329" lon="-4.902077">
        <ele>347.983</ele>
        <time>2021-10-14T19:06:17Z</time>
      </trkpt>
      <trkpt lat="43.325479" lon="-4.902203">
        <ele>348.011</ele>
        <time>2021-10-14T19:06:18Z</time>
      </trkpt>
      <trkpt lat="43.325626" lon="-4.902329">
        <ele>347.808</ele>
        <time>2021-10-14T19:06:19Z</time>
      </trkpt>
      <trkpt lat="43.325770" lon="-4.902454">
        <ele>347.684</ele>
        <time>2021-10-14T19:06:20Z</time>
      </trkpt>
      <trkpt lat="43.326032" lon="-4.902670">
        <ele>347.482</ele>
        <time>2021-10-14T19:06:22Z</time>
      </trkpt>
      <trkpt lat="43.326332" lon="-4.902818">
        <ele>347.160</ele>
        <time>2021-10-14T19:06:24Z</time>
      </trkpt>
      <trkpt lat="43.326500" lon="-4.902871">
        <ele>346.737</ele>
        <time>2021-10-14T19:06:25Z</time>
      </trkpt>
      <trkpt lat="43.326679" lon="-4.902923">
        <ele>346.680</ele>
        <time>2021-10-14T19:06:26Z</time>
      </trkpt>
      <trkpt lat="43.327035" lon="-4.903022">
        <ele>345.577</ele>
        <time>2021-10-14T19:06:28Z</time>
      </trkpt>
      <trkpt lat="43.327212" lon="-4.903072">
        <ele>345.169</ele>
        <time>2021-10-14T19:06:29Z</time>
      </trkpt>
      <trkpt lat="43.327515" lon="-4.903157">
        <ele>346.338</ele>
        <time>2021-10-14T19:06:31Z</time>
      </trkpt>
      <trkpt lat="43.327639" lon="-4.903191">
        <ele>346.317</ele>
        <time>2021-10-14T19:06:32Z</time>
      </trkpt>
      <trkpt lat="43.327856" lon="-4.903236">
        <ele>348.287</ele>
        <time>2021-10-14T19:06:34Z</time>
      </trkpt>
      <trkpt lat="43.327973" lon="-4.903248">
        <ele>348.915</ele>
        <time>2021-10-14T19:06:35Z</time>
      </trkpt>
      <trkpt lat="43.328231" lon="-4.903219">
        <ele>350.308</ele>
        <time>2021-10-14T19:06:37Z</time>
      </trkpt>
      <trkpt lat="43.328370" lon="-4.903172">
        <ele>350.799</ele>
        <time>2021-10-14T19:06:38Z</time>
      </trkpt>
      <trkpt lat="43.328648" lon="-4.903062">
        <ele>353.947</ele>
        <time>2021-10-14T19:06:40Z</time>
      </trkpt>
      <trkpt lat="43.328999" lon="-4.903039">
        <ele>355.415</ele>
        <time>2021-10-14T19:06:42Z</time>
      </trkpt>
      <trkpt lat="43.329196" lon="-4.903069">
        <ele>356.052</ele>
        <time>2021-10-14T19:06:43Z</time>
      </trkpt>
      <trkpt lat="43.329406" lon="-4.903124">
        <ele>356.395</ele>
        <time>2021-10-14T19:06:44Z</time>
      </trkpt>
      <trkpt lat="43.329810" lon="-4.903243">
        <ele>358.042</ele>
        <time>2021-10-14T19:06:46Z</time>
      </trkpt>
      <trkpt lat="43.329999" lon="-4.903293">
        <ele>357.994</ele>
        <time>2021-10-14T19:06:47Z</time>
      </trkpt>
      <trkpt lat="43.330330" lon="-4.903385">
        <ele>357.653</ele>
        <time>2021-10-14T19:06:49Z</time>
      </trkpt>
      <trkpt lat="43.330484" lon="-4.903423">
        <ele>358.023</ele>
        <time>2021-10-14T19:06:50Z</time>
      </trkpt>
      <trkpt lat="43.330769" lon="-4.903487">
        <ele>358.483</ele>
        <time>2021-10-14T19:06:52Z</time>
      </trkpt>
      <trkpt lat="43.331053" lon="-4.903525">
        <ele>359.911</ele>
        <time>2021-10-14T19:06:54Z</time>
      </trkpt>
      <trkpt lat="43.331198" lon="-4.903538">
        <ele>360.508</ele>
        <time>2021-10-14T19:06:55Z</time>
      </trkpt>
      <trkpt lat="43.331349" lon="-4.903556">
        <ele>361.770</ele>
        <time>2021-10-14T19:06:56Z</time>
      </trkpt>
      <trkpt lat="43.331663" lon="-4.903603">
        <ele>363.558</ele>
        <time>2021-10-14T19:06:58Z</time>
      </trkpt>
      <trkpt lat="43.331833" lon="-4.903636">
        <ele>363.326</ele>
        <time>2021-10-14T19:06:59Z</time>
      </trkpt>
      <trkpt lat="43.332187" lon="-4.903693">
        <ele>363.183</ele>
        <time>2021-10-14T19:07:01Z</time>
      </trkpt>
      <trkpt lat="43.332368" lon="-4.903707">
        <ele>362.876</ele>
        <time>2021-10-14T19:07:02Z</time>
      </trkpt>
      <trkpt lat="43.332698" lon="-4.903749">
        <ele>361.723</ele>
        <time>2021-10-14T19:07:04Z</time>
      </trkpt>
      <trkpt lat="43.332854" lon="-4.903809">
        <ele>361.245</ele>
        <time>2021-10-14T19:07:05Z</time>
      </trkpt>
      <trkpt lat="43.333136" lon="-4.904056">
        <ele>359.224</ele>
        <time>2021-10-14T19:07:07Z</time>
      </trkpt>
      <trkpt lat="43.333262" lon="-4.904245">
        <ele>359.143</ele>
        <time>2021-10-14T19:07:08Z</time>
      </trkpt>
      <trkpt lat="43.333533" lon="-4.904669">
        <ele>357.964</ele>
        <time>2021-10-14T19:07:10Z</time>
      </trkpt>
      <trkpt lat="43.333679" lon="-4.904890">
        <ele>356.910</ele>
        <time>2021-10-14T19:07:11Z</time>
      </trkpt>
      <trkpt lat="43.333821" lon="-4.905112">
        <ele>355.608</ele>
        <time>2021-10-14T19:07:12Z</time>
      </trkpt>
      <trkpt lat="43.334077" lon="-4.905556">
        <ele>353.582</ele>
        <time>2021-10-14T19:07:14Z</time>
      </trkpt>
      <trkpt lat="43.334302" lon="-4.905983">
        <ele>352.790</ele>
        <time>2021-10-14T19:07:16Z</time>
      </trkpt>
      <trkpt lat="43.334595" lon="-4.906317">
        <ele>351.088</ele>
        <time>2021-10-14T19:07:18Z</time>
      </trkpt>
      <trkpt lat="43.334771" lon="-4.906429">
        <ele>350.455</ele>
        <time>2021-10-14T19:07:19Z</time>
      </trkpt>
      <trkpt lat="43.334950" lon="-4.906529">
        <ele>350.588</ele>
        <time>2021-10-14T19:07:20Z</time>
      </trkpt>
      <trkpt lat="43.335258" lon="-4.906807">
        <ele>348.615</ele>
        <time>2021-10-14T19:07:22Z</time>
      </trkpt>
      <trkpt lat="43.335511" lon="-4.907232">
        <ele>348.817</ele>
        <time>2021-10-14T19:07:24Z</time>
      </trkpt>
      <trkpt lat="43.335697" lon="-4.907771">
        <ele>347.366</ele>
        <time>2021-10-14T19:07:26Z</time>
      </trkpt>
      <trkpt lat="43.335851" lon="-4.908341">
        <ele>343.943</ele>
        <time>2021-10-14T19:07:28Z</time>
      </trkpt>
      <trkpt lat="43.335931" lon="-4.908627">
        <ele>342.864</ele>
        <time>2021-10-14T19:07:29Z</time>
      </trkpt>
      <trkpt lat="43.336069" lon="-4.909148">
        <ele>341.910</ele>
        <time>2021-10-14T19:07:31Z</time>
      </trkpt>
      <trkpt lat="43.336127" lon="-4.909379">
        <ele>339.608</ele>
        <time>2021-10-14T19:07:32Z</time>
      </trkpt>
      <trkpt lat="43.336220" lon="-4.909817">
        <ele>337.752</ele>
        <time>2021-10-14T19:07:34Z</time>
      </trkpt>
      <trkpt lat="43.336274" lon="-4.910292">
        <ele>336.270</ele>
        <time>2021-10-14T19:07:36Z</time>
      </trkpt>
      <trkpt lat="43.336281" lon="-4.910538">
        <ele>334.628</ele>
        <time>2021-10-14T19:07:37Z</time>
      </trkpt>
      <trkpt lat="43.336280" lon="-4.910794">
        <ele>334.375</ele>
        <time>2021-10-14T19:07:38Z</time>
      </trkpt>
      <trkpt lat="43.336278" lon="-4.911327">
        <ele>332.568</ele>
        <time>2021-10-14T19:07:40Z</time>
      </trkpt>
      <trkpt lat="43.336356" lon="-4.911883">
        <ele>329.095</ele>
        <time>2021-10-14T19:07:42Z</time>
      </trkpt>
      <trkpt lat="43.336430" lon="-4.912151">
        <ele>327.997</ele>
        <time>2021-10-14T19:07:43Z</time>
      </trkpt>
      <trkpt lat="43.336530" lon="-4.912410">
        <ele>327.146</ele>
        <time>2021-10-14T19:07:44Z</time>
      </trkpt>
      <trkpt lat="43.336799" lon="-4.912833">
        <ele>324.586</ele>
        <time>2021-10-14T19:07:46Z</time>
      </trkpt>
      <trkpt lat="43.336965" lon="-4.913001">
        <ele>323.860</ele>
        <time>2021-10-14T19:07:47Z</time>
      </trkpt>
      <trkpt lat="43.337303" lon="-4.913250">
        <ele>322.026</ele>
        <time>2021-10-14T19:07:49Z</time>
      </trkpt>
      <trkpt lat="43.337466" lon="-4.913350">
        <ele>320.708</ele>
        <time>2021-10-14T19:07:50Z</time>
      </trkpt>
      <trkpt lat="43.337722" lon="-4.913553">
        <ele>318.756</ele>
        <time>2021-10-14T19:07:52Z</time>
      </trkpt>
      <trkpt lat="43.337922" lon="-4.913791">
        <ele>317.464</ele>
        <time>2021-10-14T19:07:54Z</time>
      </trkpt>
      <trkpt lat="43.338063" lon="-4.914069">
        <ele>315.282</ele>
        <time>2021-10-14T19:07:56Z</time>
      </trkpt>
      <trkpt lat="43.338165" lon="-4.914336">
        <ele>312.989</ele>
        <time>2021-10-14T19:07:58Z</time>
      </trkpt>
      <trkpt lat="43.338222" lon="-4.914463">
        <ele>312.652</ele>
        <time>2021-10-14T19:07:59Z</time>
      </trkpt>
      <trkpt lat="43.338313" lon="-4.914676">
        <ele>311.619</ele>
        <time>2021-10-14T19:08:01Z</time>
      </trkpt>
      <trkpt lat="43.338326" lon="-4.914775">
        <ele>311.071</ele>
        <time>2021-10-14T19:08:02Z</time>
      </trkpt>
      <trkpt lat="43.338263" lon="-4.914941">
        <ele>310.750</ele>
        <time>2021-10-14T19:08:04Z</time>
      </trkpt>
      <trkpt lat="43.338099" lon="-4.915077">
        <ele>310.028</ele>
        <time>2021-10-14T19:08:06Z</time>
      </trkpt>
      <trkpt lat="43.338008" lon="-4.915160">
        <ele>309.289</ele>
        <time>2021-10-14T19:08:07Z</time>
      </trkpt>
      <trkpt lat="43.337920" lon="-4.915272">
        <ele>307.017</ele>
        <time>2021-10-14T19:08:08Z</time>
      </trkpt>
      <trkpt lat="43.337769" lon="-4.915601">
        <ele>304.408</ele>
        <time>2021-10-14T19:08:10Z</time>
      </trkpt>
      <trkpt lat="43.337648" lon="-4.916046">
        <ele>302.350</ele>
        <time>2021-10-14T19:08:12Z</time>
      </trkpt>
      <trkpt lat="43.337573" lon="-4.916544">
        <ele>299.988</ele>
        <time>2021-10-14T19:08:14Z</time>
      </trkpt>
      <trkpt lat="43.337584" lon="-4.917036">
        <ele>297.686</ele>
        <time>2021-10-14T19:08:16Z</time>
      </trkpt>
      <trkpt lat="43.337605" lon="-4.917281">
        <ele>296.783</ele>
        <time>2021-10-14T19:08:17Z</time>
      </trkpt>
      <trkpt lat="43.337617" lon="-4.917519">
        <ele>295.476</ele>
        <time>2021-10-14T19:08:18Z</time>
      </trkpt>
      <trkpt lat="43.337594" lon="-4.918023">
        <ele>292.993</ele>
        <time>2021-10-14T19:08:20Z</time>
      </trkpt>
      <trkpt lat="43.337511" lon="-4.918534">
        <ele>290.855</ele>
        <time>2021-10-14T19:08:22Z</time>
      </trkpt>
      <trkpt lat="43.337456" lon="-4.919082">
        <ele>287.864</ele>
        <time>2021-10-14T19:08:24Z</time>
      </trkpt>
      <trkpt lat="43.337462" lon="-4.919372">
        <ele>287.063</ele>
        <time>2021-10-14T19:08:25Z</time>
      </trkpt>
      <trkpt lat="43.337485" lon="-4.919667">
        <ele>286.244</ele>
        <time>2021-10-14T19:08:26Z</time>
      </trkpt>
      <trkpt lat="43.337547" lon="-4.920225">
        <ele>282.718</ele>
        <time>2021-10-14T19:08:28Z</time>
      </trkpt>
      <trkpt lat="43.337564" lon="-4.920509">
        <ele>282.208</ele>
        <time>2021-10-14T19:08:29Z</time>
      </trkpt>
      <trkpt lat="43.337566" lon="-4.920795">
        <ele>281.384</ele>
        <time>2021-10-14T19:08:30Z</time>
      </trkpt>
      <trkpt lat="43.337568" lon="-4.921398">
        <ele>278.022</ele>
        <time>2021-10-14T19:08:32Z</time>
      </trkpt>
      <trkpt lat="43.337582" lon="-4.921981">
        <ele>276.060</ele>
        <time>2021-10-14T19:08:34Z</time>
      </trkpt>
      <trkpt lat="43.337610" lon="-4.922272">
        <ele>274.247</ele>
        <time>2021-10-14T19:08:35Z</time>
      </trkpt>
      <trkpt lat="43.337663" lon="-4.922552">
        <ele>272.830</ele>
        <time>2021-10-14T19:08:36Z</time>
      </trkpt>
      <trkpt lat="43.337732" lon="-4.922817">
        <ele>271.947</ele>
        <time>2021-10-14T19:08:37Z</time>
      </trkpt>
      <trkpt lat="43.337815" lon="-4.923074">
        <ele>271.059</ele>
        <time>2021-10-14T19:08:38Z</time>
      </trkpt>
      <trkpt lat="43.337987" lon="-4.923545">
        <ele>266.598</ele>
        <time>2021-10-14T19:08:40Z</time>
      </trkpt>
      <trkpt lat="43.338208" lon="-4.923988">
        <ele>264.244</ele>
        <time>2021-10-14T19:08:42Z</time>
      </trkpt>
      <trkpt lat="43.338475" lon="-4.924385">
        <ele>260.505</ele>
        <time>2021-10-14T19:08:44Z</time>
      </trkpt>
      <trkpt lat="43.338690" lon="-4.924772">
        <ele>259.115</ele>
        <time>2021-10-14T19:08:46Z</time>
      </trkpt>
      <trkpt lat="43.338767" lon="-4.924993">
        <ele>257.208</ele>
        <time>2021-10-14T19:08:47Z</time>
      </trkpt>
      <trkpt lat="43.338857" lon="-4.925473">
        <ele>254.882</ele>
        <time>2021-10-14T19:08:49Z</time>
      </trkpt>
      <trkpt lat="43.338875" lon="-4.925726">
        <ele>253.250</ele>
        <time>2021-10-14T19:08:50Z</time>
      </trkpt>
      <trkpt lat="43.338845" lon="-4.926192">
        <ele>249.968</ele>
        <time>2021-10-14T19:08:52Z</time>
      </trkpt>
      <trkpt lat="43.338829" lon="-4.926426">
        <ele>248.015</ele>
        <time>2021-10-14T19:08:53Z</time>
      </trkpt>
      <trkpt lat="43.338887" lon="-4.926897">
        <ele>245.228</ele>
        <time>2021-10-14T19:08:55Z</time>
      </trkpt>
      <trkpt lat="43.338965" lon="-4.927117">
        <ele>242.265</ele>
        <time>2021-10-14T19:08:56Z</time>
      </trkpt>
      <trkpt lat="43.339185" lon="-4.927436">
        <ele>239.897</ele>
        <time>2021-10-14T19:08:58Z</time>
      </trkpt>
      <trkpt lat="43.339438" lon="-4.927749">
        <ele>236.736</ele>
        <time>2021-10-14T19:09:00Z</time>
      </trkpt>
      <trkpt lat="43.339612" lon="-4.928170">
        <ele>232.614</ele>
        <time>2021-10-14T19:09:02Z</time>
      </trkpt>
      <trkpt lat="43.339648" lon="-4.928634">
        <ele>229.754</ele>
        <time>2021-10-14T19:09:04Z</time>
      </trkpt>
      <trkpt lat="43.339640" lon="-4.928864">
        <ele>228.009</ele>
        <time>2021-10-14T19:09:05Z</time>
      </trkpt>
      <trkpt lat="43.339628" lon="-4.929299">
        <ele>225.308</ele>
        <time>2021-10-14T19:09:07Z</time>
      </trkpt>
      <trkpt lat="43.339623" lon="-4.929527">
        <ele>224.649</ele>
        <time>2021-10-14T19:09:08Z</time>
      </trkpt>
      <trkpt lat="43.339616" lon="-4.929970">
        <ele>222.487</ele>
        <time>2021-10-14T19:09:10Z</time>
      </trkpt>
      <trkpt lat="43.339582" lon="-4.930371">
        <ele>221.195</ele>
        <time>2021-10-14T19:09:12Z</time>
      </trkpt>
      <trkpt lat="43.339539" lon="-4.930551">
        <ele>219.882</ele>
        <time>2021-10-14T19:09:13Z</time>
      </trkpt>
      <trkpt lat="43.339472" lon="-4.930721">
        <ele>218.365</ele>
        <time>2021-10-14T19:09:14Z</time>
      </trkpt>
      <trkpt lat="43.339284" lon="-4.931024">
        <ele>216.652</ele>
        <time>2021-10-14T19:09:16Z</time>
      </trkpt>
      <trkpt lat="43.339163" lon="-4.931177">
        <ele>215.584</ele>
        <time>2021-10-14T19:09:17Z</time>
      </trkpt>
      <trkpt lat="43.338879" lon="-4.931442">
        <ele>213.543</ele>
        <time>2021-10-14T19:09:19Z</time>
      </trkpt>
      <trkpt lat="43.338710" lon="-4.931538">
        <ele>212.987</ele>
        <time>2021-10-14T19:09:20Z</time>
      </trkpt>
      <trkpt lat="43.338382" lon="-4.931691">
        <ele>210.842</ele>
        <time>2021-10-14T19:09:22Z</time>
      </trkpt>
      <trkpt lat="43.338103" lon="-4.931959">
        <ele>208.926</ele>
        <time>2021-10-14T19:09:24Z</time>
      </trkpt>
      <trkpt lat="43.337999" lon="-4.932150">
        <ele>208.108</ele>
        <time>2021-10-14T19:09:25Z</time>
      </trkpt>
      <trkpt lat="43.337926" lon="-4.932377">
        <ele>206.866</ele>
        <time>2021-10-14T19:09:26Z</time>
      </trkpt>
      <trkpt lat="43.337892" lon="-4.932862">
        <ele>205.554</ele>
        <time>2021-10-14T19:09:28Z</time>
      </trkpt>
      <trkpt lat="43.337968" lon="-4.933333">
        <ele>202.452</ele>
        <time>2021-10-14T19:09:30Z</time>
      </trkpt>
      <trkpt lat="43.338019" lon="-4.933553">
        <ele>201.669</ele>
        <time>2021-10-14T19:09:31Z</time>
      </trkpt>
      <trkpt lat="43.338058" lon="-4.933780">
        <ele>200.932</ele>
        <time>2021-10-14T19:09:32Z</time>
      </trkpt>
      <trkpt lat="43.338061" lon="-4.934230">
        <ele>200.439</ele>
        <time>2021-10-14T19:09:34Z</time>
      </trkpt>
      <trkpt lat="43.337970" lon="-4.934692">
        <ele>198.881</ele>
        <time>2021-10-14T19:09:36Z</time>
      </trkpt>
      <trkpt lat="43.337762" lon="-4.935130">
        <ele>196.560</ele>
        <time>2021-10-14T19:09:38Z</time>
      </trkpt>
      <trkpt lat="43.337509" lon="-4.935543">
        <ele>195.099</ele>
        <time>2021-10-14T19:09:40Z</time>
      </trkpt>
      <trkpt lat="43.337284" lon="-4.935963">
        <ele>191.807</ele>
        <time>2021-10-14T19:09:42Z</time>
      </trkpt>
      <trkpt lat="43.337195" lon="-4.936205">
        <ele>191.627</ele>
        <time>2021-10-14T19:09:43Z</time>
      </trkpt>
      <trkpt lat="43.337112" lon="-4.936469">
        <ele>191.608</ele>
        <time>2021-10-14T19:09:44Z</time>
      </trkpt>
      <trkpt lat="43.336972" lon="-4.937028">
        <ele>187.837</ele>
        <time>2021-10-14T19:09:46Z</time>
      </trkpt>
      <trkpt lat="43.336840" lon="-4.937588">
        <ele>184.935</ele>
        <time>2021-10-14T19:09:48Z</time>
      </trkpt>
      <trkpt lat="43.336778" lon="-4.937857">
        <ele>184.043</ele>
        <time>2021-10-14T19:09:49Z</time>
      </trkpt>
      <trkpt lat="43.336722" lon="-4.938124">
        <ele>184.170</ele>
        <time>2021-10-14T19:09:50Z</time>
      </trkpt>
      <trkpt lat="43.336642" lon="-4.938617">
        <ele>181.483</ele>
        <time>2021-10-14T19:09:52Z</time>
      </trkpt>
      <trkpt lat="43.336602" lon="-4.939107">
        <ele>180.370</ele>
        <time>2021-10-14T19:09:54Z</time>
      </trkpt>
      <trkpt lat="43.336586" lon="-4.939365">
        <ele>179.792</ele>
        <time>2021-10-14T19:09:55Z</time>
      </trkpt>
      <trkpt lat="43.336569" lon="-4.939634">
        <ele>178.521</ele>
        <time>2021-10-14T19:09:56Z</time>
      </trkpt>
      <trkpt lat="43.336518" lon="-4.940172">
        <ele>179.179</ele>
        <time>2021-10-14T19:09:58Z</time>
      </trkpt>
      <trkpt lat="43.336471" lon="-4.940449">
        <ele>179.405</ele>
        <time>2021-10-14T19:09:59Z</time>
      </trkpt>
      <trkpt lat="43.336405" lon="-4.940720">
        <ele>179.525</ele>
        <time>2021-10-14T19:10:00Z</time>
      </trkpt>
      <trkpt lat="43.336219" lon="-4.941240">
        <ele>179.408</ele>
        <time>2021-10-14T19:10:02Z</time>
      </trkpt>
      <trkpt lat="43.336040" lon="-4.941751">
        <ele>178.825</ele>
        <time>2021-10-14T19:10:04Z</time>
      </trkpt>
      <trkpt lat="43.335914" lon="-4.942303">
        <ele>179.273</ele>
        <time>2021-10-14T19:10:06Z</time>
      </trkpt>
      <trkpt lat="43.335772" lon="-4.942841">
        <ele>179.971</ele>
        <time>2021-10-14T19:10:08Z</time>
      </trkpt>
      <trkpt lat="43.335606" lon="-4.943296">
        <ele>181.128</ele>
        <time>2021-10-14T19:10:10Z</time>
      </trkpt>
      <trkpt lat="43.335417" lon="-4.943712">
        <ele>181.981</ele>
        <time>2021-10-14T19:10:12Z</time>
      </trkpt>
      <trkpt lat="43.335201" lon="-4.944128">
        <ele>182.698</ele>
        <time>2021-10-14T19:10:14Z</time>
      </trkpt>
      <trkpt lat="43.335032" lon="-4.944567">
        <ele>183.560</ele>
        <time>2021-10-14T19:10:16Z</time>
      </trkpt>
      <trkpt lat="43.334988" lon="-4.944808">
        <ele>184.899</ele>
        <time>2021-10-14T19:10:17Z</time>
      </trkpt>
      <trkpt lat="43.335029" lon="-4.945319">
        <ele>187.034</ele>
        <time>2021-10-14T19:10:19Z</time>
      </trkpt>
      <trkpt lat="43.335073" lon="-4.945573">
        <ele>187.255</ele>
        <time>2021-10-14T19:10:20Z</time>
      </trkpt>
      <trkpt lat="43.335101" lon="-4.946031">
        <ele>187.110</ele>
        <time>2021-10-14T19:10:22Z</time>
      </trkpt>
      <trkpt lat="43.335077" lon="-4.946250">
        <ele>187.508</ele>
        <time>2021-10-14T19:10:23Z</time>
      </trkpt>
      <trkpt lat="43.334959" lon="-4.946653">
        <ele>188.491</ele>
        <time>2021-10-14T19:10:25Z</time>
      </trkpt>
      <trkpt lat="43.334868" lon="-4.946838">
        <ele>187.879</ele>
        <time>2021-10-14T19:10:26Z</time>
      </trkpt>
      <trkpt lat="43.334678" lon="-4.947163">
        <ele>187.117</ele>
        <time>2021-10-14T19:10:28Z</time>
      </trkpt>
      <trkpt lat="43.334593" lon="-4.947328">
        <ele>186.264</ele>
        <time>2021-10-14T19:10:29Z</time>
      </trkpt>
      <trkpt lat="43.334458" lon="-4.947644">
        <ele>185.087</ele>
        <time>2021-10-14T19:10:31Z</time>
      </trkpt>
      <trkpt lat="43.334401" lon="-4.947812">
        <ele>184.754</ele>
        <time>2021-10-14T19:10:32Z</time>
      </trkpt>
      <trkpt lat="43.334302" lon="-4.948147">
        <ele>183.056</ele>
        <time>2021-10-14T19:10:34Z</time>
      </trkpt>
      <trkpt lat="43.334260" lon="-4.948329">
        <ele>182.645</ele>
        <time>2021-10-14T19:10:35Z</time>
      </trkpt>
      <trkpt lat="43.334219" lon="-4.948518">
        <ele>182.087</ele>
        <time>2021-10-14T19:10:36Z</time>
      </trkpt>
      <trkpt lat="43.334161" lon="-4.948900">
        <ele>181.242</ele>
        <time>2021-10-14T19:10:38Z</time>
      </trkpt>
      <trkpt lat="43.334130" lon="-4.949261">
        <ele>180.726</ele>
        <time>2021-10-14T19:10:40Z</time>
      </trkpt>
      <trkpt lat="43.334103" lon="-4.949625">
        <ele>179.808</ele>
        <time>2021-10-14T19:10:42Z</time>
      </trkpt>
      <trkpt lat="43.334096" lon="-4.949803">
        <ele>179.876</ele>
        <time>2021-10-14T19:10:43Z</time>
      </trkpt>
      <trkpt lat="43.334090" lon="-4.949984">
        <ele>179.494</ele>
        <time>2021-10-14T19:10:44Z</time>
      </trkpt>
      <trkpt lat="43.334080" lon="-4.950327">
        <ele>179.142</ele>
        <time>2021-10-14T19:10:46Z</time>
      </trkpt>
      <trkpt lat="43.334066" lon="-4.950659">
        <ele>176.769</ele>
        <time>2021-10-14T19:10:48Z</time>
      </trkpt>
      <trkpt lat="43.334058" lon="-4.950822">
        <ele>176.532</ele>
        <time>2021-10-14T19:10:49Z</time>
      </trkpt>
      <trkpt lat="43.334051" lon="-4.950981">
        <ele>175.539</ele>
        <time>2021-10-14T19:10:50Z</time>
      </trkpt>
      <trkpt lat="43.334037" lon="-4.951266">
        <ele>175.311</ele>
        <time>2021-10-14T19:10:52Z</time>
      </trkpt>
      <trkpt lat="43.334031" lon="-4.951390">
        <ele>173.940</ele>
        <time>2021-10-14T19:10:53Z</time>
      </trkpt>
      <trkpt lat="43.334034" lon="-4.951635">
        <ele>173.228</ele>
        <time>2021-10-14T19:10:55Z</time>
      </trkpt>
      <trkpt lat="43.334040" lon="-4.951772">
        <ele>173.189</ele>
        <time>2021-10-14T19:10:56Z</time>
      </trkpt>
      <trkpt lat="43.334072" lon="-4.952029">
        <ele>172.217</ele>
        <time>2021-10-14T19:10:58Z</time>
      </trkpt>
      <trkpt lat="43.334128" lon="-4.952258">
        <ele>171.308</ele>
        <time>2021-10-14T19:11:00Z</time>
      </trkpt>
      <trkpt lat="43.334189" lon="-4.952451">
        <ele>170.080</ele>
        <time>2021-10-14T19:11:02Z</time>
      </trkpt>
      <trkpt lat="43.334238" lon="-4.952580">
        <ele>168.178</ele>
        <time>2021-10-14T19:11:04Z</time>
      </trkpt>
      <trkpt lat="43.334264" lon="-4.952647">
        <ele>167.996</ele>
        <time>2021-10-14T19:11:05Z</time>
      </trkpt>
      <trkpt lat="43.334295" lon="-4.952725">
        <ele>166.833</ele>
        <time>2021-10-14T19:11:06Z</time>
      </trkpt>
      <trkpt lat="43.334329" lon="-4.952814">
        <ele>166.786</ele>
        <time>2021-10-14T19:11:07Z</time>
      </trkpt>
      <trkpt lat="43.334368" lon="-4.952917">
        <ele>166.613</ele>
        <time>2021-10-14T19:11:08Z</time>
      </trkpt>
      <trkpt lat="43.334451" lon="-4.953118">
        <ele>164.575</ele>
        <time>2021-10-14T19:11:10Z</time>
      </trkpt>
      <trkpt lat="43.334492" lon="-4.953217">
        <ele>164.534</ele>
        <time>2021-10-14T19:11:11Z</time>
      </trkpt>
      <trkpt lat="43.334568" lon="-4.953394">
        <ele>163.977</ele>
        <time>2021-10-14T19:11:13Z</time>
      </trkpt>
      <trkpt lat="43.334610" lon="-4.953486">
        <ele>163.561</ele>
        <time>2021-10-14T19:11:14Z</time>
      </trkpt>
      <trkpt lat="43.334697" lon="-4.953695">
        <ele>162.727</ele>
        <time>2021-10-14T19:11:16Z</time>
      </trkpt>
      <trkpt lat="43.334810" lon="-4.953928">
        <ele>162.808</ele>
        <time>2021-10-14T19:11:18Z</time>
      </trkpt>
      <trkpt lat="43.334867" lon="-4.954041">
        <ele>163.495</ele>
        <time>2021-10-14T19:11:19Z</time>
      </trkpt>
      <trkpt lat="43.334922" lon="-4.954152">
        <ele>162.913</ele>
        <time>2021-10-14T19:11:20Z</time>
      </trkpt>
      <trkpt lat="43.335007" lon="-4.954329">
        <ele>163.311</ele>
        <time>2021-10-14T19:11:22Z</time>
      </trkpt>
      <trkpt lat="43.335065" lon="-4.954485">
        <ele>163.918</ele>
        <time>2021-10-14T19:11:24Z</time>
      </trkpt>
      <trkpt lat="43.335108" lon="-4.954660">
        <ele>164.481</ele>
        <time>2021-10-14T19:11:26Z</time>
      </trkpt>
      <trkpt lat="43.335138" lon="-4.954862">
        <ele>164.188</ele>
        <time>2021-10-14T19:11:28Z</time>
      </trkpt>
      <trkpt lat="43.335146" lon="-4.954981">
        <ele>163.720</ele>
        <time>2021-10-14T19:11:29Z</time>
      </trkpt>
      <trkpt lat="43.335150" lon="-4.955092">
        <ele>163.399</ele>
        <time>2021-10-14T19:11:30Z</time>
      </trkpt>
      <trkpt lat="43.335155" lon="-4.955273">
        <ele>162.562</ele>
        <time>2021-10-14T19:11:32Z</time>
      </trkpt>
      <trkpt lat="43.335155" lon="-4.955422">
        <ele>162.383</ele>
        <time>2021-10-14T19:11:34Z</time>
      </trkpt>
      <trkpt lat="43.335154" lon="-4.955502">
        <ele>160.511</ele>
        <time>2021-10-14T19:11:35Z</time>
      </trkpt>
      <trkpt lat="43.335150" lon="-4.955715">
        <ele>159.908</ele>
        <time>2021-10-14T19:11:37Z</time>
      </trkpt>
      <trkpt lat="43.335146" lon="-4.955852">
        <ele>159.544</ele>
        <time>2021-10-14T19:11:38Z</time>
      </trkpt>
      <trkpt lat="43.335137" lon="-4.956128">
        <ele>158.632</ele>
        <time>2021-10-14T19:11:40Z</time>
      </trkpt>
      <trkpt lat="43.335126" lon="-4.956446">
        <ele>157.120</ele>
        <time>2021-10-14T19:11:42Z</time>
      </trkpt>
      <trkpt lat="43.335122" lon="-4.956614">
        <ele>156.137</ele>
        <time>2021-10-14T19:11:43Z</time>
      </trkpt>
      <trkpt lat="43.335118" lon="-4.956790">
        <ele>155.540</ele>
        <time>2021-10-14T19:11:44Z</time>
      </trkpt>
      <trkpt lat="43.335115" lon="-4.957140">
        <ele>154.977</ele>
        <time>2021-10-14T19:11:46Z</time>
      </trkpt>
      <trkpt lat="43.335111" lon="-4.957473">
        <ele>153.629</ele>
        <time>2021-10-14T19:11:48Z</time>
      </trkpt>
      <trkpt lat="43.335106" lon="-4.957828">
        <ele>153.548</ele>
        <time>2021-10-14T19:11:50Z</time>
      </trkpt>
      <trkpt lat="43.335105" lon="-4.958212">
        <ele>152.437</ele>
        <time>2021-10-14T19:11:52Z</time>
      </trkpt>
      <trkpt lat="43.335103" lon="-4.958406">
        <ele>151.449</ele>
        <time>2021-10-14T19:11:53Z</time>
      </trkpt>
      <trkpt lat="43.335095" lon="-4.958782">
        <ele>149.013</ele>
        <time>2021-10-14T19:11:55Z</time>
      </trkpt>
      <trkpt lat="43.335092" lon="-4.958982">
        <ele>148.508</ele>
        <time>2021-10-14T19:11:56Z</time>
      </trkpt>
      <trkpt lat="43.335084" lon="-4.959379">
        <ele>148.431</ele>
        <time>2021-10-14T19:11:58Z</time>
      </trkpt>
      <trkpt lat="43.335079" lon="-4.959585">
        <ele>148.089</ele>
        <time>2021-10-14T19:11:59Z</time>
      </trkpt>
      <trkpt lat="43.335074" lon="-4.959785">
        <ele>147.267</ele>
        <time>2021-10-14T19:12:00Z</time>
      </trkpt>
      <trkpt lat="43.335064" lon="-4.960191">
        <ele>146.134</ele>
        <time>2021-10-14T19:12:02Z</time>
      </trkpt>
      <trkpt lat="43.335058" lon="-4.960581">
        <ele>145.487</ele>
        <time>2021-10-14T19:12:04Z</time>
      </trkpt>
      <trkpt lat="43.335045" lon="-4.960997">
        <ele>143.634</ele>
        <time>2021-10-14T19:12:06Z</time>
      </trkpt>
      <trkpt lat="43.335042" lon="-4.961208">
        <ele>142.916</ele>
        <time>2021-10-14T19:12:07Z</time>
      </trkpt>
      <trkpt lat="43.335039" lon="-4.961425">
        <ele>142.385</ele>
        <time>2021-10-14T19:12:08Z</time>
      </trkpt>
      <trkpt lat="43.335044" lon="-4.961838">
        <ele>141.014</ele>
        <time>2021-10-14T19:12:10Z</time>
      </trkpt>
      <trkpt lat="43.335054" lon="-4.962042">
        <ele>139.654</ele>
        <time>2021-10-14T19:12:11Z</time>
      </trkpt>
      <trkpt lat="43.335073" lon="-4.962239">
        <ele>138.809</ele>
        <time>2021-10-14T19:12:12Z</time>
      </trkpt>
      <trkpt lat="43.335120" lon="-4.962608">
        <ele>138.208</ele>
        <time>2021-10-14T19:12:14Z</time>
      </trkpt>
      <trkpt lat="43.335160" lon="-4.962917">
        <ele>137.539</ele>
        <time>2021-10-14T19:12:16Z</time>
      </trkpt>
      <trkpt lat="43.335176" lon="-4.963055">
        <ele>136.017</ele>
        <time>2021-10-14T19:12:17Z</time>
      </trkpt>
      <trkpt lat="43.335191" lon="-4.963181">
        <ele>135.725</ele>
        <time>2021-10-14T19:12:18Z</time>
      </trkpt>
      <trkpt lat="43.335209" lon="-4.963422">
        <ele>135.192</ele>
        <time>2021-10-14T19:12:20Z</time>
      </trkpt>
      <trkpt lat="43.335204" lon="-4.963639">
        <ele>134.415</ele>
        <time>2021-10-14T19:12:22Z</time>
      </trkpt>
      <trkpt lat="43.335196" lon="-4.963749">
        <ele>134.142</ele>
        <time>2021-10-14T19:12:23Z</time>
      </trkpt>
      <trkpt lat="43.335171" lon="-4.963988">
        <ele>132.794</ele>
        <time>2021-10-14T19:12:25Z</time>
      </trkpt>
      <trkpt lat="43.335155" lon="-4.964112">
        <ele>132.273</ele>
        <time>2021-10-14T19:12:26Z</time>
      </trkpt>
      <trkpt lat="43.335131" lon="-4.964346">
        <ele>131.154</ele>
        <time>2021-10-14T19:12:28Z</time>
      </trkpt>
      <trkpt lat="43.335122" lon="-4.964461">
        <ele>130.856</ele>
        <time>2021-10-14T19:12:29Z</time>
      </trkpt>
      <trkpt lat="43.335113" lon="-4.964567">
        <ele>130.311</ele>
        <time>2021-10-14T19:12:30Z</time>
      </trkpt>
      <trkpt lat="43.335096" lon="-4.964769">
        <ele>129.508</ele>
        <time>2021-10-14T19:12:32Z</time>
      </trkpt>
      <trkpt lat="43.335075" lon="-4.964988">
        <ele>129.643</ele>
        <time>2021-10-14T19:12:34Z</time>
      </trkpt>
      <trkpt lat="43.335055" lon="-4.965204">
        <ele>129.531</ele>
        <time>2021-10-14T19:12:36Z</time>
      </trkpt>
      <trkpt lat="43.335032" lon="-4.965405">
        <ele>129.389</ele>
        <time>2021-10-14T19:12:38Z</time>
      </trkpt>
      <trkpt lat="43.335012" lon="-4.965622">
        <ele>129.016</ele>
        <time>2021-10-14T19:12:40Z</time>
      </trkpt>
      <trkpt lat="43.335000" lon="-4.965736">
        <ele>128.979</ele>
        <time>2021-10-14T19:12:41Z</time>
      </trkpt>
      <trkpt lat="43.334975" lon="-4.965947">
        <ele>128.616</ele>
        <time>2021-10-14T19:12:43Z</time>
      </trkpt>
      <trkpt lat="43.334964" lon="-4.966051">
        <ele>128.478</ele>
        <time>2021-10-14T19:12:44Z</time>
      </trkpt>
      <trkpt lat="43.334954" lon="-4.966243">
        <ele>128.887</ele>
        <time>2021-10-14T19:12:46Z</time>
      </trkpt>
      <trkpt lat="43.334952" lon="-4.966350">
        <ele>128.883</ele>
        <time>2021-10-14T19:12:47Z</time>
      </trkpt>
      <trkpt lat="43.334963" lon="-4.966577">
        <ele>130.325</ele>
        <time>2021-10-14T19:12:49Z</time>
      </trkpt>
      <trkpt lat="43.334974" lon="-4.966689">
        <ele>130.717</ele>
        <time>2021-10-14T19:12:50Z</time>
      </trkpt>
      <trkpt lat="43.335002" lon="-4.966898">
        <ele>131.008</ele>
        <time>2021-10-14T19:12:52Z</time>
      </trkpt>
      <trkpt lat="43.335024" lon="-4.967014">
        <ele>130.736</ele>
        <time>2021-10-14T19:12:53Z</time>
      </trkpt>
      <trkpt lat="43.335058" lon="-4.967250">
        <ele>130.534</ele>
        <time>2021-10-14T19:12:55Z</time>
      </trkpt>
      <trkpt lat="43.335071" lon="-4.967368">
        <ele>130.462</ele>
        <time>2021-10-14T19:12:56Z</time>
      </trkpt>
      <trkpt lat="43.335064" lon="-4.967575">
        <ele>130.339</ele>
        <time>2021-10-14T19:12:58Z</time>
      </trkpt>
      <trkpt lat="43.335044" lon="-4.967671">
        <ele>130.472</ele>
        <time>2021-10-14T19:12:59Z</time>
      </trkpt>
      <trkpt lat="43.334995" lon="-4.967859">
        <ele>130.789</ele>
        <time>2021-10-14T19:13:01Z</time>
      </trkpt>
      <trkpt lat="43.334971" lon="-4.967968">
        <ele>130.611</ele>
        <time>2021-10-14T19:13:02Z</time>
      </trkpt>
      <trkpt lat="43.334940" lon="-4.968191">
        <ele>130.250</ele>
        <time>2021-10-14T19:13:04Z</time>
      </trkpt>
      <trkpt lat="43.334918" lon="-4.968408">
        <ele>130.266</ele>
        <time>2021-10-14T19:13:06Z</time>
      </trkpt>
      <trkpt lat="43.334907" lon="-4.968513">
        <ele>130.129</ele>
        <time>2021-10-14T19:13:07Z</time>
      </trkpt>
      <trkpt lat="43.334898" lon="-4.968615">
        <ele>129.521</ele>
        <time>2021-10-14T19:13:08Z</time>
      </trkpt>
      <trkpt lat="43.334877" lon="-4.968793">
        <ele>129.008</ele>
        <time>2021-10-14T19:13:10Z</time>
      </trkpt>
      <trkpt lat="43.334861" lon="-4.968878">
        <ele>128.614</ele>
        <time>2021-10-14T19:13:11Z</time>
      </trkpt>
      <trkpt lat="43.334826" lon="-4.969046">
        <ele>128.642</ele>
        <time>2021-10-14T19:13:13Z</time>
      </trkpt>
      <trkpt lat="43.334807" lon="-4.969132">
        <ele>128.380</ele>
        <time>2021-10-14T19:13:14Z</time>
      </trkpt>
      <trkpt lat="43.334774" lon="-4.969311">
        <ele>127.867</ele>
        <time>2021-10-14T19:13:16Z</time>
      </trkpt>
      <trkpt lat="43.334759" lon="-4.969411">
        <ele>127.730</ele>
        <time>2021-10-14T19:13:17Z</time>
      </trkpt>
      <trkpt lat="43.334743" lon="-4.969635">
        <ele>126.337</ele>
        <time>2021-10-14T19:13:19Z</time>
      </trkpt>
      <trkpt lat="43.334741" lon="-4.969760">
        <ele>126.389</ele>
        <time>2021-10-14T19:13:20Z</time>
      </trkpt>
      <trkpt lat="43.334762" lon="-4.970002">
        <ele>125.618</ele>
        <time>2021-10-14T19:13:22Z</time>
      </trkpt>
      <trkpt lat="43.334786" lon="-4.970230">
        <ele>124.873</ele>
        <time>2021-10-14T19:13:24Z</time>
      </trkpt>
      <trkpt lat="43.334802" lon="-4.970356">
        <ele>124.585</ele>
        <time>2021-10-14T19:13:25Z</time>
      </trkpt>
      <trkpt lat="43.334821" lon="-4.970500">
        <ele>124.013</ele>
        <time>2021-10-14T19:13:26Z</time>
      </trkpt>
      <trkpt lat="43.334863" lon="-4.970797">
        <ele>123.208</ele>
        <time>2021-10-14T19:13:28Z</time>
      </trkpt>
      <trkpt lat="43.334883" lon="-4.970936">
        <ele>123.285</ele>
        <time>2021-10-14T19:13:29Z</time>
      </trkpt>
      <trkpt lat="43.334903" lon="-4.971067">
        <ele>123.253</ele>
        <time>2021-10-14T19:13:30Z</time>
      </trkpt>
      <trkpt lat="43.334919" lon="-4.971190">
        <ele>123.761</ele>
        <time>2021-10-14T19:13:31Z</time>
      </trkpt>
      <trkpt lat="43.334935" lon="-4.971310">
        <ele>123.748</ele>
        <time>2021-10-14T19:13:32Z</time>
      </trkpt>
      <trkpt lat="43.334966" lon="-4.971539">
        <ele>123.181</ele>
        <time>2021-10-14T19:13:34Z</time>
      </trkpt>
      <trkpt lat="43.335001" lon="-4.971787">
        <ele>123.168</ele>
        <time>2021-10-14T19:13:36Z</time>
      </trkpt>
      <trkpt lat="43.335029" lon="-4.972008">
        <ele>122.540</ele>
        <time>2021-10-14T19:13:38Z</time>
      </trkpt>
      <trkpt lat="43.335048" lon="-4.972177">
        <ele>120.729</ele>
        <time>2021-10-14T19:13:40Z</time>
      </trkpt>
      <trkpt lat="43.335058" lon="-4.972254">
        <ele>120.171</ele>
        <time>2021-10-14T19:13:41Z</time>
      </trkpt>
      <trkpt lat="43.335085" lon="-4.972398">
        <ele>120.141</ele>
        <time>2021-10-14T19:13:43Z</time>
      </trkpt>
      <trkpt lat="43.335104" lon="-4.972474">
        <ele>120.115</ele>
        <time>2021-10-14T19:13:44Z</time>
      </trkpt>
      <trkpt lat="43.335156" lon="-4.972651">
        <ele>119.608</ele>
        <time>2021-10-14T19:13:46Z</time>
      </trkpt>
      <trkpt lat="43.335195" lon="-4.972755">
        <ele>119.695</ele>
        <time>2021-10-14T19:13:47Z</time>
      </trkpt>
      <trkpt lat="43.335299" lon="-4.972979">
        <ele>122.093</ele>
        <time>2021-10-14T19:13:49Z</time>
      </trkpt>
      <trkpt lat="43.335364" lon="-4.973101">
        <ele>122.341</ele>
        <time>2021-10-14T19:13:50Z</time>
      </trkpt>
      <trkpt lat="43.335487" lon="-4.973342">
        <ele>121.748</ele>
        <time>2021-10-14T19:13:52Z</time>
      </trkpt>
      <trkpt lat="43.335548" lon="-4.973459">
        <ele>121.791</ele>
        <time>2021-10-14T19:13:53Z</time>
      </trkpt>
      <trkpt lat="43.335657" lon="-4.973668">
        <ele>122.898</ele>
        <time>2021-10-14T19:13:55Z</time>
      </trkpt>
      <trkpt lat="43.335710" lon="-4.973768">
        <ele>122.890</ele>
        <time>2021-10-14T19:13:56Z</time>
      </trkpt>
      <trkpt lat="43.335813" lon="-4.973956">
        <ele>123.339</ele>
        <time>2021-10-14T19:13:58Z</time>
      </trkpt>
      <trkpt lat="43.335910" lon="-4.974137">
        <ele>123.827</ele>
        <time>2021-10-14T19:14:00Z</time>
      </trkpt>
      <trkpt lat="43.335958" lon="-4.974230">
        <ele>124.368</ele>
        <time>2021-10-14T19:14:01Z</time>
      </trkpt>
      <trkpt lat="43.336005" lon="-4.974326">
        <ele>125.314</ele>
        <time>2021-10-14T19:14:02Z</time>
      </trkpt>
      <trkpt lat="43.336077" lon="-4.974484">
        <ele>125.308</ele>
        <time>2021-10-14T19:14:04Z</time>
      </trkpt>
      <trkpt lat="43.336125" lon="-4.974632">
        <ele>125.660</ele>
        <time>2021-10-14T19:14:06Z</time>
      </trkpt>
      <trkpt lat="43.336142" lon="-4.974707">
        <ele>125.188</ele>
        <time>2021-10-14T19:14:07Z</time>
      </trkpt>
      <trkpt lat="43.336161" lon="-4.974785">
        <ele>124.736</ele>
        <time>2021-10-14T19:14:08Z</time>
      </trkpt>
      <trkpt lat="43.336201" lon="-4.974970">
        <ele>124.523</ele>
        <time>2021-10-14T19:14:10Z</time>
      </trkpt>
      <trkpt lat="43.336243" lon="-4.975195">
        <ele>124.196</ele>
        <time>2021-10-14T19:14:12Z</time>
      </trkpt>
      <trkpt lat="43.336260" lon="-4.975321">
        <ele>123.543</ele>
        <time>2021-10-14T19:14:13Z</time>
      </trkpt>
      <trkpt lat="43.336274" lon="-4.975452">
        <ele>122.915</ele>
        <time>2021-10-14T19:14:14Z</time>
      </trkpt>
      <trkpt lat="43.336296" lon="-4.975691">
        <ele>123.594</ele>
        <time>2021-10-14T19:14:16Z</time>
      </trkpt>
      <trkpt lat="43.336322" lon="-4.975945">
        <ele>123.655</ele>
        <time>2021-10-14T19:14:18Z</time>
      </trkpt>
      <trkpt lat="43.336335" lon="-4.976088">
        <ele>124.207</ele>
        <time>2021-10-14T19:14:19Z</time>
      </trkpt>
      <trkpt lat="43.336347" lon="-4.976238">
        <ele>125.217</ele>
        <time>2021-10-14T19:14:20Z</time>
      </trkpt>
      <trkpt lat="43.336372" lon="-4.976548">
        <ele>125.508</ele>
        <time>2021-10-14T19:14:22Z</time>
      </trkpt>
      <trkpt lat="43.336389" lon="-4.976722">
        <ele>126.063</ele>
        <time>2021-10-14T19:14:23Z</time>
      </trkpt>
      <trkpt lat="43.336431" lon="-4.977104">
        <ele>125.131</ele>
        <time>2021-10-14T19:14:25Z</time>
      </trkpt>
      <trkpt lat="43.336453" lon="-4.977312">
        <ele>125.269</ele>
        <time>2021-10-14T19:14:26Z</time>
      </trkpt>
      <trkpt lat="43.336489" lon="-4.977710">
        <ele>124.596</ele>
        <time>2021-10-14T19:14:28Z</time>
      </trkpt>
      <trkpt lat="43.336514" lon="-4.978053">
        <ele>126.129</ele>
        <time>2021-10-14T19:14:30Z</time>
      </trkpt>
      <trkpt lat="43.336524" lon="-4.978210">
        <ele>125.746</ele>
        <time>2021-10-14T19:14:31Z</time>
      </trkpt>
      <trkpt lat="43.336538" lon="-4.978358">
        <ele>126.428</ele>
        <time>2021-10-14T19:14:32Z</time>
      </trkpt>
      <trkpt lat="43.336563" lon="-4.978619">
        <ele>126.497</ele>
        <time>2021-10-14T19:14:34Z</time>
      </trkpt>
      <trkpt lat="43.336593" lon="-4.978861">
        <ele>125.938</ele>
        <time>2021-10-14T19:14:36Z</time>
      </trkpt>
      <trkpt lat="43.336637" lon="-4.979112">
        <ele>125.370</ele>
        <time>2021-10-14T19:14:38Z</time>
      </trkpt>
      <trkpt lat="43.336679" lon="-4.979390">
        <ele>124.717</ele>
        <time>2021-10-14T19:14:40Z</time>
      </trkpt>
      <trkpt lat="43.336725" lon="-4.979695">
        <ele>124.408</ele>
        <time>2021-10-14T19:14:42Z</time>
      </trkpt>
      <trkpt lat="43.336747" lon="-4.979852">
        <ele>125.491</ele>
        <time>2021-10-14T19:14:43Z</time>
      </trkpt>
      <trkpt lat="43.336768" lon="-4.980011">
        <ele>125.849</ele>
        <time>2021-10-14T19:14:44Z</time>
      </trkpt>
      <trkpt lat="43.336807" lon="-4.980290">
        <ele>125.877</ele>
        <time>2021-10-14T19:14:46Z</time>
      </trkpt>
      <trkpt lat="43.336842" lon="-4.980543">
        <ele>125.234</ele>
        <time>2021-10-14T19:14:48Z</time>
      </trkpt>
      <trkpt lat="43.336857" lon="-4.980660">
        <ele>125.877</ele>
        <time>2021-10-14T19:14:49Z</time>
      </trkpt>
      <trkpt lat="43.336876" lon="-4.980772">
        <ele>126.034</ele>
        <time>2021-10-14T19:14:50Z</time>
      </trkpt>
      <trkpt lat="43.336907" lon="-4.980972">
        <ele>126.256</ele>
        <time>2021-10-14T19:14:52Z</time>
      </trkpt>
      <trkpt lat="43.336940" lon="-4.981195">
        <ele>126.765</ele>
        <time>2021-10-14T19:14:54Z</time>
      </trkpt>
      <trkpt lat="43.336962" lon="-4.981321">
        <ele>127.198</ele>
        <time>2021-10-14T19:14:55Z</time>
      </trkpt>
      <trkpt lat="43.336976" lon="-4.981459">
        <ele>127.515</ele>
        <time>2021-10-14T19:14:56Z</time>
      </trkpt>
      <trkpt lat="43.337005" lon="-4.981732">
        <ele>128.926</ele>
        <time>2021-10-14T19:14:58Z</time>
      </trkpt>
      <trkpt lat="43.337011" lon="-4.981877">
        <ele>129.208</ele>
        <time>2021-10-14T19:14:59Z</time>
      </trkpt>
      <trkpt lat="43.337006" lon="-4.982024">
        <ele>129.737</ele>
        <time>2021-10-14T19:15:00Z</time>
      </trkpt>
      <trkpt lat="43.336985" lon="-4.982335">
        <ele>130.775</ele>
        <time>2021-10-14T19:15:02Z</time>
      </trkpt>
      <trkpt lat="43.336955" lon="-4.982665">
        <ele>131.823</ele>
        <time>2021-10-14T19:15:04Z</time>
      </trkpt>
      <trkpt lat="43.336944" lon="-4.983027">
        <ele>131.640</ele>
        <time>2021-10-14T19:15:06Z</time>
      </trkpt>
      <trkpt lat="43.336947" lon="-4.983210">
        <ele>131.013</ele>
        <time>2021-10-14T19:15:07Z</time>
      </trkpt>
      <trkpt lat="43.336956" lon="-4.983403">
        <ele>131.010</ele>
        <time>2021-10-14T19:15:08Z</time>
      </trkpt>
      <trkpt lat="43.336988" lon="-4.983784">
        <ele>131.292</ele>
        <time>2021-10-14T19:15:10Z</time>
      </trkpt>
      <trkpt lat="43.337010" lon="-4.983975">
        <ele>131.391</ele>
        <time>2021-10-14T19:15:11Z</time>
      </trkpt>
      <trkpt lat="43.337028" lon="-4.984160">
        <ele>130.645</ele>
        <time>2021-10-14T19:15:12Z</time>
      </trkpt>
      <trkpt lat="43.337060" lon="-4.984498">
        <ele>130.647</ele>
        <time>2021-10-14T19:15:14Z</time>
      </trkpt>
      <trkpt lat="43.337099" lon="-4.984845">
        <ele>129.711</ele>
        <time>2021-10-14T19:15:16Z</time>
      </trkpt>
      <trkpt lat="43.337144" lon="-4.985245">
        <ele>128.508</ele>
        <time>2021-10-14T19:15:18Z</time>
      </trkpt>
      <trkpt lat="43.337170" lon="-4.985472">
        <ele>128.062</ele>
        <time>2021-10-14T19:15:19Z</time>
      </trkpt>
      <trkpt lat="43.337198" lon="-4.985714">
        <ele>127.360</ele>
        <time>2021-10-14T19:15:20Z</time>
      </trkpt>
      <trkpt lat="43.337252" lon="-4.986178">
        <ele>125.468</ele>
        <time>2021-10-14T19:15:22Z</time>
      </trkpt>
      <trkpt lat="43.337280" lon="-4.986425">
        <ele>124.065</ele>
        <time>2021-10-14T19:15:23Z</time>
      </trkpt>
      <trkpt lat="43.337335" lon="-4.986934">
        <ele>122.588</ele>
        <time>2021-10-14T19:15:25Z</time>
      </trkpt>
      <trkpt lat="43.337360" lon="-4.987201">
        <ele>122.275</ele>
        <time>2021-10-14T19:15:26Z</time>
      </trkpt>
      <trkpt lat="43.337419" lon="-4.987722">
        <ele>121.847</ele>
        <time>2021-10-14T19:15:28Z</time>
      </trkpt>
      <trkpt lat="43.337486" lon="-4.988261">
        <ele>120.696</ele>
        <time>2021-10-14T19:15:30Z</time>
      </trkpt>
      <trkpt lat="43.337516" lon="-4.988538">
        <ele>120.128</ele>
        <time>2021-10-14T19:15:31Z</time>
      </trkpt>
      <trkpt lat="43.337548" lon="-4.988825">
        <ele>120.489</ele>
        <time>2021-10-14T19:15:32Z</time>
      </trkpt>
      <trkpt lat="43.337608" lon="-4.989382">
        <ele>119.917</ele>
        <time>2021-10-14T19:15:34Z</time>
      </trkpt>
      <trkpt lat="43.337638" lon="-4.989663">
        <ele>119.908</ele>
        <time>2021-10-14T19:15:35Z</time>
      </trkpt>
      <trkpt lat="43.337696" lon="-4.990233">
        <ele>120.050</ele>
        <time>2021-10-14T19:15:37Z</time>
      </trkpt>
      <trkpt lat="43.337726" lon="-4.990524">
        <ele>119.788</ele>
        <time>2021-10-14T19:15:38Z</time>
      </trkpt>
      <trkpt lat="43.337785" lon="-4.991057">
        <ele>118.246</ele>
        <time>2021-10-14T19:15:40Z</time>
      </trkpt>
      <trkpt lat="43.337813" lon="-4.991310">
        <ele>118.383</ele>
        <time>2021-10-14T19:15:41Z</time>
      </trkpt>
      <trkpt lat="43.337870" lon="-4.991817">
        <ele>117.836</ele>
        <time>2021-10-14T19:15:43Z</time>
      </trkpt>
      <trkpt lat="43.337894" lon="-4.992091">
        <ele>117.083</ele>
        <time>2021-10-14T19:15:44Z</time>
      </trkpt>
      <trkpt lat="43.337930" lon="-4.992655">
        <ele>114.865</ele>
        <time>2021-10-14T19:15:46Z</time>
      </trkpt>
      <trkpt lat="43.337936" lon="-4.993260">
        <ele>112.844</ele>
        <time>2021-10-14T19:15:48Z</time>
      </trkpt>
      <trkpt lat="43.337895" lon="-4.993868">
        <ele>109.484</ele>
        <time>2021-10-14T19:15:50Z</time>
      </trkpt>
      <trkpt lat="43.337820" lon="-4.994425">
        <ele>106.007</ele>
        <time>2021-10-14T19:15:52Z</time>
      </trkpt>
      <trkpt lat="43.337719" lon="-4.994942">
        <ele>104.717</ele>
        <time>2021-10-14T19:15:54Z</time>
      </trkpt>
      <trkpt lat="43.337626" lon="-4.995420">
        <ele>103.308</ele>
        <time>2021-10-14T19:15:56Z</time>
      </trkpt>
      <trkpt lat="43.337519" lon="-4.995873">
        <ele>102.066</ele>
        <time>2021-10-14T19:15:58Z</time>
      </trkpt>
      <trkpt lat="43.337410" lon="-4.996346">
        <ele>99.794</ele>
        <time>2021-10-14T19:16:00Z</time>
      </trkpt>
      <trkpt lat="43.337360" lon="-4.996586">
        <ele>100.292</ele>
        <time>2021-10-14T19:16:01Z</time>
      </trkpt>
      <trkpt lat="43.337306" lon="-4.996833">
        <ele>100.139</ele>
        <time>2021-10-14T19:16:02Z</time>
      </trkpt>
      <trkpt lat="43.337223" lon="-4.997325">
        <ele>98.122</ele>
        <time>2021-10-14T19:16:04Z</time>
      </trkpt>
      <trkpt lat="43.337194" lon="-4.997582">
        <ele>97.679</ele>
        <time>2021-10-14T19:16:05Z</time>
      </trkpt>
      <trkpt lat="43.337178" lon="-4.997837">
        <ele>97.331</ele>
        <time>2021-10-14T19:16:06Z</time>
      </trkpt>
      <trkpt lat="43.337175" lon="-4.998087">
        <ele>97.430</ele>
        <time>2021-10-14T19:16:07Z</time>
      </trkpt>
      <trkpt lat="43.337184" lon="-4.998336">
        <ele>97.095</ele>
        <time>2021-10-14T19:16:08Z</time>
      </trkpt>
      <trkpt lat="43.337215" lon="-4.998792">
        <ele>95.249</ele>
        <time>2021-10-14T19:16:10Z</time>
      </trkpt>
      <trkpt lat="43.337230" lon="-4.999015">
        <ele>94.823</ele>
        <time>2021-10-14T19:16:11Z</time>
      </trkpt>
      <trkpt lat="43.337257" lon="-4.999455">
        <ele>94.608</ele>
        <time>2021-10-14T19:16:13Z</time>
      </trkpt>
      <trkpt lat="43.337274" lon="-4.999674">
        <ele>93.837</ele>
        <time>2021-10-14T19:16:14Z</time>
      </trkpt>
      <trkpt lat="43.337324" lon="-5.000082">
        <ele>92.065</ele>
        <time>2021-10-14T19:16:16Z</time>
      </trkpt>
      <trkpt lat="43.337365" lon="-5.000282">
        <ele>91.653</ele>
        <time>2021-10-14T19:16:17Z</time>
      </trkpt>
      <trkpt lat="43.337474" lon="-5.000650">
        <ele>90.280</ele>
        <time>2021-10-14T19:16:19Z</time>
      </trkpt>
      <trkpt lat="43.337531" lon="-5.000827">
        <ele>90.013</ele>
        <time>2021-10-14T19:16:20Z</time>
      </trkpt>
      <trkpt lat="43.337626" lon="-5.001145">
        <ele>89.880</ele>
        <time>2021-10-14T19:16:22Z</time>
      </trkpt>
      <trkpt lat="43.337664" lon="-5.001304">
        <ele>89.542</ele>
        <time>2021-10-14T19:16:23Z</time>
      </trkpt>
      <trkpt lat="43.337689" lon="-5.001469">
        <ele>89.431</ele>
        <time>2021-10-14T19:16:24Z</time>
      </trkpt>
      <trkpt lat="43.337700" lon="-5.001829">
        <ele>89.495</ele>
        <time>2021-10-14T19:16:26Z</time>
      </trkpt>
      <trkpt lat="43.337654" lon="-5.002188">
        <ele>89.549</ele>
        <time>2021-10-14T19:16:28Z</time>
      </trkpt>
      <trkpt lat="43.337622" lon="-5.002360">
        <ele>89.523</ele>
        <time>2021-10-14T19:16:29Z</time>
      </trkpt>
      <trkpt lat="43.337559" lon="-5.002691">
        <ele>90.008</ele>
        <time>2021-10-14T19:16:31Z</time>
      </trkpt>
      <trkpt lat="43.337525" lon="-5.002865">
        <ele>90.047</ele>
        <time>2021-10-14T19:16:32Z</time>
      </trkpt>
      <trkpt lat="43.337466" lon="-5.003199">
        <ele>90.355</ele>
        <time>2021-10-14T19:16:34Z</time>
      </trkpt>
      <trkpt lat="43.337414" lon="-5.003531">
        <ele>90.923</ele>
        <time>2021-10-14T19:16:36Z</time>
      </trkpt>
      <trkpt lat="43.337384" lon="-5.003841">
        <ele>92.720</ele>
        <time>2021-10-14T19:16:38Z</time>
      </trkpt>
      <trkpt lat="43.337383" lon="-5.004146">
        <ele>94.513</ele>
        <time>2021-10-14T19:16:40Z</time>
      </trkpt>
      <trkpt lat="43.337412" lon="-5.004507">
        <ele>97.080</ele>
        <time>2021-10-14T19:16:42Z</time>
      </trkpt>
      <trkpt lat="43.337447" lon="-5.004918">
        <ele>99.482</ele>
        <time>2021-10-14T19:16:44Z</time>
      </trkpt>
      <trkpt lat="43.337493" lon="-5.005306">
        <ele>101.351</ele>
        <time>2021-10-14T19:16:46Z</time>
      </trkpt>
      <trkpt lat="43.337583" lon="-5.005645">
        <ele>103.072</ele>
        <time>2021-10-14T19:16:48Z</time>
      </trkpt>
      <trkpt lat="43.337714" lon="-5.005926">
        <ele>103.113</ele>
        <time>2021-10-14T19:16:50Z</time>
      </trkpt>
      <trkpt lat="43.337869" lon="-5.006160">
        <ele>103.114</ele>
        <time>2021-10-14T19:16:52Z</time>
      </trkpt>
      <trkpt lat="43.337958" lon="-5.006274">
        <ele>103.108</ele>
        <time>2021-10-14T19:16:53Z</time>
      </trkpt>
      <trkpt lat="43.338147" lon="-5.006501">
        <ele>103.185</ele>
        <time>2021-10-14T19:16:55Z</time>
      </trkpt>
      <trkpt lat="43.338242" lon="-5.006617">
        <ele>102.923</ele>
        <time>2021-10-14T19:16:56Z</time>
      </trkpt>
      <trkpt lat="43.338425" lon="-5.006869">
        <ele>100.931</ele>
        <time>2021-10-14T19:16:58Z</time>
      </trkpt>
      <trkpt lat="43.338588" lon="-5.007193">
        <ele>99.948</ele>
        <time>2021-10-14T19:17:00Z</time>
      </trkpt>
      <trkpt lat="43.338655" lon="-5.007371">
        <ele>98.871</ele>
        <time>2021-10-14T19:17:01Z</time>
      </trkpt>
      <trkpt lat="43.338717" lon="-5.007554">
        <ele>98.168</ele>
        <time>2021-10-14T19:17:02Z</time>
      </trkpt>
      <trkpt lat="43.338829" lon="-5.007900">
        <ele>96.890</ele>
        <time>2021-10-14T19:17:04Z</time>
      </trkpt>
      <trkpt lat="43.338927" lon="-5.008249">
        <ele>94.669</ele>
        <time>2021-10-14T19:17:06Z</time>
      </trkpt>
      <trkpt lat="43.338956" lon="-5.008416">
        <ele>93.874</ele>
        <time>2021-10-14T19:17:07Z</time>
      </trkpt>
      <trkpt lat="43.338972" lon="-5.008591">
        <ele>93.756</ele>
        <time>2021-10-14T19:17:08Z</time>
      </trkpt>
      <trkpt lat="43.338973" lon="-5.008946">
        <ele>91.321</ele>
        <time>2021-10-14T19:17:10Z</time>
      </trkpt>
      <trkpt lat="43.338969" lon="-5.009136">
        <ele>90.608</ele>
        <time>2021-10-14T19:17:11Z</time>
      </trkpt>
      <trkpt lat="43.338968" lon="-5.009522">
        <ele>88.895</ele>
        <time>2021-10-14T19:17:13Z</time>
      </trkpt>
      <trkpt lat="43.338986" lon="-5.009731">
        <ele>88.123</ele>
        <time>2021-10-14T19:17:14Z</time>
      </trkpt>
      <trkpt lat="43.339076" lon="-5.010126">
        <ele>85.631</ele>
        <time>2021-10-14T19:17:16Z</time>
      </trkpt>
      <trkpt lat="43.339152" lon="-5.010321">
        <ele>84.248</ele>
        <time>2021-10-14T19:17:17Z</time>
      </trkpt>
      <trkpt lat="43.339369" lon="-5.010665">
        <ele>82.221</ele>
        <time>2021-10-14T19:17:19Z</time>
      </trkpt>
      <trkpt lat="43.339507" lon="-5.010814">
        <ele>81.678</ele>
        <time>2021-10-14T19:17:20Z</time>
      </trkpt>
      <trkpt lat="43.339780" lon="-5.011055">
        <ele>80.260</ele>
        <time>2021-10-14T19:17:22Z</time>
      </trkpt>
      <trkpt lat="43.340035" lon="-5.011315">
        <ele>78.759</ele>
        <time>2021-10-14T19:17:24Z</time>
      </trkpt>
      <trkpt lat="43.340147" lon="-5.011461">
        <ele>78.022</ele>
        <time>2021-10-14T19:17:25Z</time>
      </trkpt>
      <trkpt lat="43.340243" lon="-5.011615">
        <ele>76.762</ele>
        <time>2021-10-14T19:17:26Z</time>
      </trkpt>
      <trkpt lat="43.340373" lon="-5.011902">
        <ele>73.908</ele>
        <time>2021-10-14T19:17:28Z</time>
      </trkpt>
      <trkpt lat="43.340464" lon="-5.012187">
        <ele>72.708</ele>
        <time>2021-10-14T19:17:30Z</time>
      </trkpt>
      <trkpt lat="43.340542" lon="-5.012467">
        <ele>71.610</ele>
        <time>2021-10-14T19:17:32Z</time>
      </trkpt>
      <trkpt lat="43.340610" lon="-5.012731">
        <ele>70.558</ele>
        <time>2021-10-14T19:17:34Z</time>
      </trkpt>
      <trkpt lat="43.340642" lon="-5.012854">
        <ele>70.756</ele>
        <time>2021-10-14T19:17:35Z</time>
      </trkpt>
      <trkpt lat="43.340690" lon="-5.013050">
        <ele>70.663</ele>
        <time>2021-10-14T19:17:37Z</time>
      </trkpt>
      <trkpt lat="43.340704" lon="-5.013128">
        <ele>70.626</ele>
        <time>2021-10-14T19:17:38Z</time>
      </trkpt>
      <trkpt lat="43.340728" lon="-5.013206">
        <ele>70.663</ele>
        <time>2021-10-14T19:17:40Z</time>
      </trkpt>
      <trkpt lat="43.340751" lon="-5.013260">
        <ele>71.515</ele>
        <time>2021-10-14T19:17:42Z</time>
      </trkpt>
      <trkpt lat="43.340774" lon="-5.013324">
        <ele>71.614</ele>
        <time>2021-10-14T19:17:45Z</time>
      </trkpt>
      <trkpt lat="43.340810" lon="-5.013361">
        <ele>71.834</ele>
        <time>2021-10-14T19:17:48Z</time>
      </trkpt>
      <trkpt lat="43.340836" lon="-5.013424">
        <ele>72.555</ele>
        <time>2021-10-14T19:17:50Z</time>
      </trkpt>
      <trkpt lat="43.340871" lon="-5.013484">
        <ele>73.010</ele>
        <time>2021-10-14T19:17:52Z</time>
      </trkpt>
      <trkpt lat="43.340903" lon="-5.013534">
        <ele>73.308</ele>
        <time>2021-10-14T19:17:53Z</time>
      </trkpt>
      <trkpt lat="43.340967" lon="-5.013626">
        <ele>73.621</ele>
        <time>2021-10-14T19:17:55Z</time>
      </trkpt>
      <trkpt lat="43.341002" lon="-5.013675">
        <ele>75.299</ele>
        <time>2021-10-14T19:17:56Z</time>
      </trkpt>
      <trkpt lat="43.341064" lon="-5.013765">
        <ele>75.457</ele>
        <time>2021-10-14T19:17:58Z</time>
      </trkpt>
      <trkpt lat="43.341107" lon="-5.013740">
        <ele>76.564</ele>
        <time>2021-10-14T19:17:59Z</time>
      </trkpt>
      <trkpt lat="43.341147" lon="-5.013777">
        <ele>76.567</ele>
        <time>2021-10-14T19:18:00Z</time>
      </trkpt>
      <trkpt lat="43.341246" lon="-5.013867">
        <ele>75.774</ele>
        <time>2021-10-14T19:18:02Z</time>
      </trkpt>
      <trkpt lat="43.341376" lon="-5.014004">
        <ele>74.516</ele>
        <time>2021-10-14T19:18:04Z</time>
      </trkpt>
      <trkpt lat="43.341518" lon="-5.014150">
        <ele>73.335</ele>
        <time>2021-10-14T19:18:06Z</time>
      </trkpt>
      <trkpt lat="43.341595" lon="-5.014225">
        <ele>72.757</ele>
        <time>2021-10-14T19:18:07Z</time>
      </trkpt>
      <trkpt lat="43.341668" lon="-5.014303">
        <ele>72.400</ele>
        <time>2021-10-14T19:18:08Z</time>
      </trkpt>
      <trkpt lat="43.341801" lon="-5.014439">
        <ele>72.020</ele>
        <time>2021-10-14T19:18:10Z</time>
      </trkpt>
      <trkpt lat="43.341863" lon="-5.014497">
        <ele>71.208</ele>
        <time>2021-10-14T19:18:11Z</time>
      </trkpt>
      <trkpt lat="43.341969" lon="-5.014608">
        <ele>71.223</ele>
        <time>2021-10-14T19:18:13Z</time>
      </trkpt>
      <trkpt lat="43.342018" lon="-5.014667">
        <ele>71.441</ele>
        <time>2021-10-14T19:18:14Z</time>
      </trkpt>
      <trkpt lat="43.342127" lon="-5.014791">
        <ele>71.289</ele>
        <time>2021-10-14T19:18:16Z</time>
      </trkpt>
      <trkpt lat="43.342189" lon="-5.014867">
        <ele>70.736</ele>
        <time>2021-10-14T19:18:17Z</time>
      </trkpt>
      <trkpt lat="43.342306" lon="-5.015019">
        <ele>69.719</ele>
        <time>2021-10-14T19:18:19Z</time>
      </trkpt>
      <trkpt lat="43.342355" lon="-5.015091">
        <ele>69.346</ele>
        <time>2021-10-14T19:18:20Z</time>
      </trkpt>
      <trkpt lat="43.342439" lon="-5.015207">
        <ele>69.458</ele>
        <time>2021-10-14T19:18:22Z</time>
      </trkpt>
      <trkpt lat="43.342485" lon="-5.015265">
        <ele>69.447</ele>
        <time>2021-10-14T19:18:23Z</time>
      </trkpt>
      <trkpt lat="43.342619" lon="-5.015387">
        <ele>69.451</ele>
        <time>2021-10-14T19:18:25Z</time>
      </trkpt>
      <trkpt lat="43.342718" lon="-5.015448">
        <ele>68.601</ele>
        <time>2021-10-14T19:18:26Z</time>
      </trkpt>
      <trkpt lat="43.342913" lon="-5.015531">
        <ele>67.611</ele>
        <time>2021-10-14T19:18:28Z</time>
      </trkpt>
      <trkpt lat="43.343061" lon="-5.015590">
        <ele>67.008</ele>
        <time>2021-10-14T19:18:30Z</time>
      </trkpt>
      <trkpt lat="43.343180" lon="-5.015652">
        <ele>67.393</ele>
        <time>2021-10-14T19:18:32Z</time>
      </trkpt>
      <trkpt lat="43.343278" lon="-5.015702">
        <ele>67.891</ele>
        <time>2021-10-14T19:18:34Z</time>
      </trkpt>
      <trkpt lat="43.343327" lon="-5.015717">
        <ele>67.869</ele>
        <time>2021-10-14T19:18:35Z</time>
      </trkpt>
      <trkpt lat="43.343375" lon="-5.015731">
        <ele>67.616</ele>
        <time>2021-10-14T19:18:36Z</time>
      </trkpt>
      <trkpt lat="43.343425" lon="-5.015753">
        <ele>67.649</ele>
        <time>2021-10-14T19:18:37Z</time>
      </trkpt>
      <trkpt lat="43.343484" lon="-5.015782">
        <ele>67.736</ele>
        <time>2021-10-14T19:18:38Z</time>
      </trkpt>
      <trkpt lat="43.343602" lon="-5.015843">
        <ele>67.628</ele>
        <time>2021-10-14T19:18:40Z</time>
      </trkpt>
      <trkpt lat="43.343659" lon="-5.015873">
        <ele>67.957</ele>
        <time>2021-10-14T19:18:41Z</time>
      </trkpt>
      <trkpt lat="43.343777" lon="-5.015926">
        <ele>68.911</ele>
        <time>2021-10-14T19:18:43Z</time>
      </trkpt>
      <trkpt lat="43.343851" lon="-5.015956">
        <ele>68.921</ele>
        <time>2021-10-14T19:18:44Z</time>
      </trkpt>
      <trkpt lat="43.344000" lon="-5.016027">
        <ele>69.303</ele>
        <time>2021-10-14T19:18:46Z</time>
      </trkpt>
      <trkpt lat="43.344079" lon="-5.016063">
        <ele>69.308</ele>
        <time>2021-10-14T19:18:47Z</time>
      </trkpt>
      <trkpt lat="43.344262" lon="-5.016144">
        <ele>70.489</ele>
        <time>2021-10-14T19:18:49Z</time>
      </trkpt>
      <trkpt lat="43.344375" lon="-5.016196">
        <ele>70.817</ele>
        <time>2021-10-14T19:18:50Z</time>
      </trkpt>
      <trkpt lat="43.344616" lon="-5.016303">
        <ele>69.855</ele>
        <time>2021-10-14T19:18:52Z</time>
      </trkpt>
      <trkpt lat="43.344837" lon="-5.016409">
        <ele>69.982</ele>
        <time>2021-10-14T19:18:54Z</time>
      </trkpt>
      <trkpt lat="43.344935" lon="-5.016459">
        <ele>69.965</ele>
        <time>2021-10-14T19:18:55Z</time>
      </trkpt>
      <trkpt lat="43.345029" lon="-5.016512">
        <ele>69.912</ele>
        <time>2021-10-14T19:18:56Z</time>
      </trkpt>
      <trkpt lat="43.345214" lon="-5.016645">
        <ele>70.114</ele>
        <time>2021-10-14T19:18:58Z</time>
      </trkpt>
      <trkpt lat="43.345315" lon="-5.016742">
        <ele>69.993</ele>
        <time>2021-10-14T19:18:59Z</time>
      </trkpt>
      <trkpt lat="43.345415" lon="-5.016863">
        <ele>69.926</ele>
        <time>2021-10-14T19:19:00Z</time>
      </trkpt>
      <trkpt lat="43.345512" lon="-5.017010">
        <ele>70.647</ele>
        <time>2021-10-14T19:19:01Z</time>
      </trkpt>
      <trkpt lat="43.345605" lon="-5.017163">
        <ele>70.811</ele>
        <time>2021-10-14T19:19:02Z</time>
      </trkpt>
      <trkpt lat="43.345783" lon="-5.017455">
        <ele>70.208</ele>
        <time>2021-10-14T19:19:04Z</time>
      </trkpt>
      <trkpt lat="43.345879" lon="-5.017610">
        <ele>70.590</ele>
        <time>2021-10-14T19:19:05Z</time>
      </trkpt>
      <trkpt lat="43.346067" lon="-5.017900">
        <ele>69.078</ele>
        <time>2021-10-14T19:19:07Z</time>
      </trkpt>
      <trkpt lat="43.346168" lon="-5.018042">
        <ele>68.016</ele>
        <time>2021-10-14T19:19:08Z</time>
      </trkpt>
      <trkpt lat="43.346349" lon="-5.018314">
        <ele>66.933</ele>
        <time>2021-10-14T19:19:10Z</time>
      </trkpt>
      <trkpt lat="43.346440" lon="-5.018471">
        <ele>66.556</ele>
        <time>2021-10-14T19:19:11Z</time>
      </trkpt>
      <trkpt lat="43.346540" lon="-5.018643">
        <ele>65.113</ele>
        <time>2021-10-14T19:19:12Z</time>
      </trkpt>
      <trkpt lat="43.346775" lon="-5.019042">
        <ele>62.845</ele>
        <time>2021-10-14T19:19:14Z</time>
      </trkpt>
      <trkpt lat="43.347044" lon="-5.019492">
        <ele>61.754</ele>
        <time>2021-10-14T19:19:16Z</time>
      </trkpt>
      <trkpt lat="43.347193" lon="-5.019734">
        <ele>60.366</ele>
        <time>2021-10-14T19:19:17Z</time>
      </trkpt>
      <trkpt lat="43.347479" lon="-5.020206">
        <ele>59.429</ele>
        <time>2021-10-14T19:19:19Z</time>
      </trkpt>
      <trkpt lat="43.347606" lon="-5.020417">
        <ele>58.921</ele>
        <time>2021-10-14T19:19:20Z</time>
      </trkpt>
      <trkpt lat="43.347837" lon="-5.020801">
        <ele>59.508</ele>
        <time>2021-10-14T19:19:22Z</time>
      </trkpt>
      <trkpt lat="43.347953" lon="-5.020997">
        <ele>60.164</ele>
        <time>2021-10-14T19:19:23Z</time>
      </trkpt>
      <trkpt lat="43.348175" lon="-5.021374">
        <ele>61.042</ele>
        <time>2021-10-14T19:19:25Z</time>
      </trkpt>
      <trkpt lat="43.348281" lon="-5.021555">
        <ele>60.940</ele>
        <time>2021-10-14T19:19:26Z</time>
      </trkpt>
      <trkpt lat="43.348480" lon="-5.021889">
        <ele>61.617</ele>
        <time>2021-10-14T19:19:28Z</time>
      </trkpt>
      <trkpt lat="43.348567" lon="-5.022062">
        <ele>61.620</ele>
        <time>2021-10-14T19:19:29Z</time>
      </trkpt>
      <trkpt lat="43.348639" lon="-5.022245">
        <ele>61.477</ele>
        <time>2021-10-14T19:19:30Z</time>
      </trkpt>
      <trkpt lat="43.348736" lon="-5.022646">
        <ele>63.499</ele>
        <time>2021-10-14T19:19:32Z</time>
      </trkpt>
      <trkpt lat="43.348756" lon="-5.023055">
        <ele>64.228</ele>
        <time>2021-10-14T19:19:34Z</time>
      </trkpt>
      <trkpt lat="43.348733" lon="-5.023266">
        <ele>64.945</ele>
        <time>2021-10-14T19:19:35Z</time>
      </trkpt>
      <trkpt lat="43.348677" lon="-5.023677">
        <ele>64.947</ele>
        <time>2021-10-14T19:19:37Z</time>
      </trkpt>
      <trkpt lat="43.348649" lon="-5.023879">
        <ele>65.811</ele>
        <time>2021-10-14T19:19:38Z</time>
      </trkpt>
      <trkpt lat="43.348592" lon="-5.024274">
        <ele>65.808</ele>
        <time>2021-10-14T19:19:40Z</time>
      </trkpt>
      <trkpt lat="43.348519" lon="-5.024687">
        <ele>65.682</ele>
        <time>2021-10-14T19:19:42Z</time>
      </trkpt>
      <trkpt lat="43.348418" lon="-5.025091">
        <ele>66.120</ele>
        <time>2021-10-14T19:19:44Z</time>
      </trkpt>
      <trkpt lat="43.348276" lon="-5.025476">
        <ele>66.838</ele>
        <time>2021-10-14T19:19:46Z</time>
      </trkpt>
      <trkpt lat="43.348196" lon="-5.025685">
        <ele>66.995</ele>
        <time>2021-10-14T19:19:47Z</time>
      </trkpt>
      <trkpt lat="43.347999" lon="-5.026158">
        <ele>67.548</ele>
        <time>2021-10-14T19:19:49Z</time>
      </trkpt>
      <trkpt lat="43.347888" lon="-5.026437">
        <ele>67.495</ele>
        <time>2021-10-14T19:19:50Z</time>
      </trkpt>
      <trkpt lat="43.347722" lon="-5.026942">
        <ele>67.417</ele>
        <time>2021-10-14T19:19:52Z</time>
      </trkpt>
      <trkpt lat="43.347650" lon="-5.027170">
        <ele>67.496</ele>
        <time>2021-10-14T19:19:53Z</time>
      </trkpt>
      <trkpt lat="43.347523" lon="-5.027575">
        <ele>66.662</ele>
        <time>2021-10-14T19:19:55Z</time>
      </trkpt>
      <trkpt lat="43.347452" lon="-5.027765">
        <ele>67.483</ele>
        <time>2021-10-14T19:19:56Z</time>
      </trkpt>
      <trkpt lat="43.347333" lon="-5.028136">
        <ele>67.611</ele>
        <time>2021-10-14T19:19:58Z</time>
      </trkpt>
      <trkpt lat="43.347294" lon="-5.028338">
        <ele>66.408</ele>
        <time>2021-10-14T19:19:59Z</time>
      </trkpt>
      <trkpt lat="43.347239" lon="-5.028749">
        <ele>67.294</ele>
        <time>2021-10-14T19:20:01Z</time>
      </trkpt>
      <trkpt lat="43.347217" lon="-5.028958">
        <ele>66.222</ele>
        <time>2021-10-14T19:20:02Z</time>
      </trkpt>
      <trkpt lat="43.347172" lon="-5.029353">
        <ele>64.550</ele>
        <time>2021-10-14T19:20:04Z</time>
      </trkpt>
      <trkpt lat="43.347126" lon="-5.029743">
        <ele>63.297</ele>
        <time>2021-10-14T19:20:06Z</time>
      </trkpt>
      <trkpt lat="43.347069" lon="-5.030159">
        <ele>62.830</ele>
        <time>2021-10-14T19:20:08Z</time>
      </trkpt>
      <trkpt lat="43.347015" lon="-5.030674">
        <ele>63.357</ele>
        <time>2021-10-14T19:20:10Z</time>
      </trkpt>
      <trkpt lat="43.346990" lon="-5.030984">
        <ele>62.019</ele>
        <time>2021-10-14T19:20:11Z</time>
      </trkpt>
      <trkpt lat="43.346929" lon="-5.031639">
        <ele>61.138</ele>
        <time>2021-10-14T19:20:13Z</time>
      </trkpt>
      <trkpt lat="43.346894" lon="-5.031968">
        <ele>61.213</ele>
        <time>2021-10-14T19:20:14Z</time>
      </trkpt>
      <trkpt lat="43.346828" lon="-5.032606">
        <ele>61.343</ele>
        <time>2021-10-14T19:20:16Z</time>
      </trkpt>
      <trkpt lat="43.346794" lon="-5.032938">
        <ele>61.407</ele>
        <time>2021-10-14T19:20:17Z</time>
      </trkpt>
      <trkpt lat="43.346729" lon="-5.033614">
        <ele>61.408</ele>
        <time>2021-10-14T19:20:19Z</time>
      </trkpt>
      <trkpt lat="43.346699" lon="-5.033974">
        <ele>60.539</ele>
        <time>2021-10-14T19:20:20Z</time>
      </trkpt>
      <trkpt lat="43.346641" lon="-5.034713">
        <ele>58.577</ele>
        <time>2021-10-14T19:20:22Z</time>
      </trkpt>
      <trkpt lat="43.346611" lon="-5.035106">
        <ele>58.745</ele>
        <time>2021-10-14T19:20:23Z</time>
      </trkpt>
      <trkpt lat="43.346555" lon="-5.035924">
        <ele>58.572</ele>
        <time>2021-10-14T19:20:25Z</time>
      </trkpt>
      <trkpt lat="43.346529" lon="-5.036366">
        <ele>57.835</ele>
        <time>2021-10-14T19:20:26Z</time>
      </trkpt>
      <trkpt lat="43.346485" lon="-5.037244">
        <ele>55.942</ele>
        <time>2021-10-14T19:20:28Z</time>
      </trkpt>
      <trkpt lat="43.346464" lon="-5.037700">
        <ele>55.134</ele>
        <time>2021-10-14T19:20:29Z</time>
      </trkpt>
      <trkpt lat="43.346445" lon="-5.038160">
        <ele>55.143</ele>
        <time>2021-10-14T19:20:30Z</time>
      </trkpt>
      <trkpt lat="43.346425" lon="-5.038622">
        <ele>54.894</ele>
        <time>2021-10-14T19:20:31Z</time>
      </trkpt>
      <trkpt lat="43.346405" lon="-5.039092">
        <ele>53.857</ele>
        <time>2021-10-14T19:20:32Z</time>
      </trkpt>
      <trkpt lat="43.346367" lon="-5.039975">
        <ele>52.822</ele>
        <time>2021-10-14T19:20:34Z</time>
      </trkpt>
      <trkpt lat="43.346347" lon="-5.040427">
        <ele>52.508</ele>
        <time>2021-10-14T19:20:35Z</time>
      </trkpt>
      <trkpt lat="43.346324" lon="-5.040845">
        <ele>52.247</ele>
        <time>2021-10-14T19:20:36Z</time>
      </trkpt>
      <trkpt lat="43.346304" lon="-5.041247">
        <ele>52.345</ele>
        <time>2021-10-14T19:20:37Z</time>
      </trkpt>
      <trkpt lat="43.346287" lon="-5.041644">
        <ele>51.733</ele>
        <time>2021-10-14T19:20:38Z</time>
      </trkpt>
      <trkpt lat="43.346254" lon="-5.042368">
        <ele>50.610</ele>
        <time>2021-10-14T19:20:40Z</time>
      </trkpt>
      <trkpt lat="43.346217" lon="-5.043060">
        <ele>50.843</ele>
        <time>2021-10-14T19:20:42Z</time>
      </trkpt>
      <trkpt lat="43.346186" lon="-5.043420">
        <ele>51.430</ele>
        <time>2021-10-14T19:20:43Z</time>
      </trkpt>
      <trkpt lat="43.346131" lon="-5.043809">
        <ele>51.072</ele>
        <time>2021-10-14T19:20:44Z</time>
      </trkpt>
      <trkpt lat="43.345958" lon="-5.044530">
        <ele>51.261</ele>
        <time>2021-10-14T19:20:46Z</time>
      </trkpt>
      <trkpt lat="43.345814" lon="-5.044879">
        <ele>50.861</ele>
        <time>2021-10-14T19:20:47Z</time>
      </trkpt>
      <trkpt lat="43.345445" lon="-5.045499">
        <ele>50.321</ele>
        <time>2021-10-14T19:20:49Z</time>
      </trkpt>
      <trkpt lat="43.345273" lon="-5.045789">
        <ele>50.013</ele>
        <time>2021-10-14T19:20:50Z</time>
      </trkpt>
      <trkpt lat="43.344997" lon="-5.046305">
        <ele>50.908</ele>
        <time>2021-10-14T19:20:52Z</time>
      </trkpt>
      <trkpt lat="43.344818" lon="-5.046861">
        <ele>51.364</ele>
        <time>2021-10-14T19:20:54Z</time>
      </trkpt>
      <trkpt lat="43.344783" lon="-5.047182">
        <ele>52.642</ele>
        <time>2021-10-14T19:20:55Z</time>
      </trkpt>
      <trkpt lat="43.344760" lon="-5.047524">
        <ele>53.040</ele>
        <time>2021-10-14T19:20:56Z</time>
      </trkpt>
      <trkpt lat="43.344666" lon="-5.048147">
        <ele>55.247</ele>
        <time>2021-10-14T19:20:58Z</time>
      </trkpt>
      <trkpt lat="43.344463" lon="-5.048721">
        <ele>57.170</ele>
        <time>2021-10-14T19:21:00Z</time>
      </trkpt>
      <trkpt lat="43.344202" lon="-5.049191">
        <ele>59.027</ele>
        <time>2021-10-14T19:21:02Z</time>
      </trkpt>
      <trkpt lat="43.344022" lon="-5.049621">
        <ele>58.939</ele>
        <time>2021-10-14T19:21:04Z</time>
      </trkpt>
      <trkpt lat="43.343986" lon="-5.049876">
        <ele>59.298</ele>
        <time>2021-10-14T19:21:05Z</time>
      </trkpt>
      <trkpt lat="43.344041" lon="-5.050410">
        <ele>58.143</ele>
        <time>2021-10-14T19:21:07Z</time>
      </trkpt>
      <trkpt lat="43.344115" lon="-5.050680">
        <ele>58.264</ele>
        <time>2021-10-14T19:21:08Z</time>
      </trkpt>
      <trkpt lat="43.344395" lon="-5.051124">
        <ele>58.910</ele>
        <time>2021-10-14T19:21:10Z</time>
      </trkpt>
      <trkpt lat="43.344598" lon="-5.051290">
        <ele>59.108</ele>
        <time>2021-10-14T19:21:11Z</time>
      </trkpt>
      <trkpt lat="43.345071" lon="-5.051524">
        <ele>57.692</ele>
        <time>2021-10-14T19:21:13Z</time>
      </trkpt>
      <trkpt lat="43.345313" lon="-5.051631">
        <ele>57.060</ele>
        <time>2021-10-14T19:21:14Z</time>
      </trkpt>
      <trkpt lat="43.345729" lon="-5.051836">
        <ele>53.858</ele>
        <time>2021-10-14T19:21:16Z</time>
      </trkpt>
      <trkpt lat="43.345929" lon="-5.051916">
        <ele>52.045</ele>
        <time>2021-10-14T19:21:17Z</time>
      </trkpt>
      <trkpt lat="43.346136" lon="-5.051971">
        <ele>51.048</ele>
        <time>2021-10-14T19:21:18Z</time>
      </trkpt>
      <trkpt lat="43.346574" lon="-5.052065">
        <ele>48.085</ele>
        <time>2021-10-14T19:21:20Z</time>
      </trkpt>
      <trkpt lat="43.346979" lon="-5.052238">
        <ele>45.127</ele>
        <time>2021-10-14T19:21:22Z</time>
      </trkpt>
      <trkpt lat="43.347162" lon="-5.052372">
        <ele>44.326</ele>
        <time>2021-10-14T19:21:23Z</time>
      </trkpt>
      <trkpt lat="43.347333" lon="-5.052542">
        <ele>43.328</ele>
        <time>2021-10-14T19:21:24Z</time>
      </trkpt>
      <trkpt lat="43.347629" lon="-5.053030">
        <ele>41.189</ele>
        <time>2021-10-14T19:21:26Z</time>
      </trkpt>
      <trkpt lat="43.347855" lon="-5.053641">
        <ele>39.617</ele>
        <time>2021-10-14T19:21:28Z</time>
      </trkpt>
      <trkpt lat="43.347951" lon="-5.053978">
        <ele>38.408</ele>
        <time>2021-10-14T19:21:29Z</time>
      </trkpt>
      <trkpt lat="43.348035" lon="-5.054325">
        <ele>37.650</ele>
        <time>2021-10-14T19:21:30Z</time>
      </trkpt>
      <trkpt lat="43.348103" lon="-5.054675">
        <ele>37.898</ele>
        <time>2021-10-14T19:21:31Z</time>
      </trkpt>
      <trkpt lat="43.348166" lon="-5.055019">
        <ele>36.916</ele>
        <time>2021-10-14T19:21:32Z</time>
      </trkpt>
      <trkpt lat="43.348250" lon="-5.055641">
        <ele>34.443</ele>
        <time>2021-10-14T19:21:34Z</time>
      </trkpt>
      <trkpt lat="43.348235" lon="-5.056275">
        <ele>32.896</ele>
        <time>2021-10-14T19:21:36Z</time>
      </trkpt>
      <trkpt lat="43.348178" lon="-5.056596">
        <ele>32.053</ele>
        <time>2021-10-14T19:21:37Z</time>
      </trkpt>
      <trkpt lat="43.348112" lon="-5.056924">
        <ele>31.885</ele>
        <time>2021-10-14T19:21:38Z</time>
      </trkpt>
      <trkpt lat="43.347989" lon="-5.057545">
        <ele>30.694</ele>
        <time>2021-10-14T19:21:40Z</time>
      </trkpt>
      <trkpt lat="43.347886" lon="-5.058112">
        <ele>30.055</ele>
        <time>2021-10-14T19:21:42Z</time>
      </trkpt>
      <trkpt lat="43.347793" lon="-5.058603">
        <ele>28.707</ele>
        <time>2021-10-14T19:21:44Z</time>
      </trkpt>
      <trkpt lat="43.347689" lon="-5.059027">
        <ele>28.017</ele>
        <time>2021-10-14T19:21:46Z</time>
      </trkpt>
      <trkpt lat="43.347613" lon="-5.059222">
        <ele>28.008</ele>
        <time>2021-10-14T19:21:47Z</time>
      </trkpt>
      <trkpt lat="43.347517" lon="-5.059407">
        <ele>28.123</ele>
        <time>2021-10-14T19:21:48Z</time>
      </trkpt>
      <trkpt lat="43.347299" lon="-5.059747">
        <ele>28.271</ele>
        <time>2021-10-14T19:21:50Z</time>
      </trkpt>
      <trkpt lat="43.347145" lon="-5.060049">
        <ele>29.749</ele>
        <time>2021-10-14T19:21:52Z</time>
      </trkpt>
      <trkpt lat="43.347061" lon="-5.060296">
        <ele>30.316</ele>
        <time>2021-10-14T19:21:54Z</time>
      </trkpt>
      <trkpt lat="43.347039" lon="-5.060389">
        <ele>31.249</ele>
        <time>2021-10-14T19:21:55Z</time>
      </trkpt>
      <trkpt lat="43.347024" lon="-5.060471">
        <ele>31.146</ele>
        <time>2021-10-14T19:21:56Z</time>
      </trkpt>
      <trkpt lat="43.347001" lon="-5.060628">
        <ele>31.328</ele>
        <time>2021-10-14T19:21:58Z</time>
      </trkpt>
      <trkpt lat="43.346993" lon="-5.060795">
        <ele>31.457</ele>
        <time>2021-10-14T19:22:00Z</time>
      </trkpt>
      <trkpt lat="43.346994" lon="-5.060992">
        <ele>31.615</ele>
        <time>2021-10-14T19:22:02Z</time>
      </trkpt>
      <trkpt lat="43.347003" lon="-5.061194">
        <ele>31.265</ele>
        <time>2021-10-14T19:22:04Z</time>
      </trkpt>
      <trkpt lat="43.347035" lon="-5.061459">
        <ele>30.911</ele>
        <time>2021-10-14T19:22:06Z</time>
      </trkpt>
      <trkpt lat="43.347055" lon="-5.061615">
        <ele>29.908</ele>
        <time>2021-10-14T19:22:07Z</time>
      </trkpt>
      <trkpt lat="43.347081" lon="-5.061784">
        <ele>29.469</ele>
        <time>2021-10-14T19:22:08Z</time>
      </trkpt>
      <trkpt lat="43.347132" lon="-5.062101">
        <ele>28.447</ele>
        <time>2021-10-14T19:22:10Z</time>
      </trkpt>
      <trkpt lat="43.347158" lon="-5.062259">
        <ele>28.145</ele>
        <time>2021-10-14T19:22:11Z</time>
      </trkpt>
      <trkpt lat="43.347181" lon="-5.062415">
        <ele>27.772</ele>
        <time>2021-10-14T19:22:12Z</time>
      </trkpt>
      <trkpt lat="43.347232" lon="-5.062743">
        <ele>27.485</ele>
        <time>2021-10-14T19:22:14Z</time>
      </trkpt>
      <trkpt lat="43.347281" lon="-5.063096">
        <ele>26.592</ele>
        <time>2021-10-14T19:22:16Z</time>
      </trkpt>
      <trkpt lat="43.347305" lon="-5.063283">
        <ele>25.674</ele>
        <time>2021-10-14T19:22:17Z</time>
      </trkpt>
      <trkpt lat="43.347358" lon="-5.063644">
        <ele>24.953</ele>
        <time>2021-10-14T19:22:19Z</time>
      </trkpt>
      <trkpt lat="43.347391" lon="-5.063832">
        <ele>25.219</ele>
        <time>2021-10-14T19:22:20Z</time>
      </trkpt>
      <trkpt lat="43.347470" lon="-5.064179">
        <ele>24.209</ele>
        <time>2021-10-14T19:22:22Z</time>
      </trkpt>
      <trkpt lat="43.347517" lon="-5.064344">
        <ele>24.019</ele>
        <time>2021-10-14T19:22:23Z</time>
      </trkpt>
      <trkpt lat="43.347568" lon="-5.064503">
        <ele>23.608</ele>
        <time>2021-10-14T19:22:24Z</time>
      </trkpt>
      <trkpt lat="43.347626" lon="-5.064662">
        <ele>23.219</ele>
        <time>2021-10-14T19:22:25Z</time>
      </trkpt>
      <trkpt lat="43.347686" lon="-5.064828">
        <ele>23.147</ele>
        <time>2021-10-14T19:22:26Z</time>
      </trkpt>
      <trkpt lat="43.347801" lon="-5.065134">
        <ele>22.285</ele>
        <time>2021-10-14T19:22:28Z</time>
      </trkpt>
      <trkpt lat="43.347859" lon="-5.065288">
        <ele>22.072</ele>
        <time>2021-10-14T19:22:29Z</time>
      </trkpt>
      <trkpt lat="43.347918" lon="-5.065439">
        <ele>21.955</ele>
        <time>2021-10-14T19:22:30Z</time>
      </trkpt>
      <trkpt lat="43.347976" lon="-5.065589">
        <ele>21.952</ele>
        <time>2021-10-14T19:22:31Z</time>
      </trkpt>
      <trkpt lat="43.348034" lon="-5.065736">
        <ele>20.864</ele>
        <time>2021-10-14T19:22:32Z</time>
      </trkpt>
      <trkpt lat="43.348135" lon="-5.065991">
        <ele>20.043</ele>
        <time>2021-10-14T19:22:34Z</time>
      </trkpt>
      <trkpt lat="43.348183" lon="-5.066119">
        <ele>19.887</ele>
        <time>2021-10-14T19:22:35Z</time>
      </trkpt>
      <trkpt lat="43.348286" lon="-5.066411">
        <ele>18.242</ele>
        <time>2021-10-14T19:22:37Z</time>
      </trkpt>
      <trkpt lat="43.348342" lon="-5.066589">
        <ele>18.226</ele>
        <time>2021-10-14T19:22:38Z</time>
      </trkpt>
      <trkpt lat="43.348428" lon="-5.066996">
        <ele>18.108</ele>
        <time>2021-10-14T19:22:40Z</time>
      </trkpt>
      <trkpt lat="43.348434" lon="-5.067466">
        <ele>17.446</ele>
        <time>2021-10-14T19:22:42Z</time>
      </trkpt>
      <trkpt lat="43.348395" lon="-5.067708">
        <ele>17.444</ele>
        <time>2021-10-14T19:22:43Z</time>
      </trkpt>
      <trkpt lat="43.348332" lon="-5.067950">
        <ele>16.962</ele>
        <time>2021-10-14T19:22:44Z</time>
      </trkpt>
      <trkpt lat="43.348117" lon="-5.068359">
        <ele>16.149</ele>
        <time>2021-10-14T19:22:46Z</time>
      </trkpt>
      <trkpt lat="43.347791" lon="-5.068655">
        <ele>15.962</ele>
        <time>2021-10-14T19:22:48Z</time>
      </trkpt>
      <trkpt lat="43.347393" lon="-5.068797">
        <ele>16.229</ele>
        <time>2021-10-14T19:22:50Z</time>
      </trkpt>
      <trkpt lat="43.347019" lon="-5.068788">
        <ele>16.531</ele>
        <time>2021-10-14T19:22:52Z</time>
      </trkpt>
      <trkpt lat="43.346844" lon="-5.068766">
        <ele>16.010</ele>
        <time>2021-10-14T19:22:53Z</time>
      </trkpt>
      <trkpt lat="43.346519" lon="-5.068780">
        <ele>15.964</ele>
        <time>2021-10-14T19:22:55Z</time>
      </trkpt>
      <trkpt lat="43.346363" lon="-5.068838">
        <ele>16.106</ele>
        <time>2021-10-14T19:22:56Z</time>
      </trkpt>
      <trkpt lat="43.346085" lon="-5.069032">
        <ele>16.016</ele>
        <time>2021-10-14T19:22:58Z</time>
      </trkpt>
      <trkpt lat="43.345961" lon="-5.069169">
        <ele>15.808</ele>
        <time>2021-10-14T19:22:59Z</time>
      </trkpt>
      <trkpt lat="43.345737" lon="-5.069495">
        <ele>16.314</ele>
        <time>2021-10-14T19:23:01Z</time>
      </trkpt>
      <trkpt lat="43.345630" lon="-5.069684">
        <ele>16.912</ele>
        <time>2021-10-14T19:23:02Z</time>
      </trkpt>
      <trkpt lat="43.345456" lon="-5.070009">
        <ele>15.570</ele>
        <time>2021-10-14T19:23:04Z</time>
      </trkpt>
      <trkpt lat="43.345299" lon="-5.070336">
        <ele>15.737</ele>
        <time>2021-10-14T19:23:06Z</time>
      </trkpt>
      <trkpt lat="43.345232" lon="-5.070525">
        <ele>15.370</ele>
        <time>2021-10-14T19:23:07Z</time>
      </trkpt>
      <trkpt lat="43.345174" lon="-5.070739">
        <ele>15.597</ele>
        <time>2021-10-14T19:23:08Z</time>
      </trkpt>
      <trkpt lat="43.345119" lon="-5.071195">
        <ele>15.189</ele>
        <time>2021-10-14T19:23:10Z</time>
      </trkpt>
      <trkpt lat="43.345154" lon="-5.071678">
        <ele>15.278</ele>
        <time>2021-10-14T19:23:12Z</time>
      </trkpt>
      <trkpt lat="43.345203" lon="-5.071919">
        <ele>15.178</ele>
        <time>2021-10-14T19:23:13Z</time>
      </trkpt>
      <trkpt lat="43.345264" lon="-5.072169">
        <ele>14.733</ele>
        <time>2021-10-14T19:23:14Z</time>
      </trkpt>
      <trkpt lat="43.345395" lon="-5.072665">
        <ele>14.926</ele>
        <time>2021-10-14T19:23:16Z</time>
      </trkpt>
      <trkpt lat="43.345463" lon="-5.072930">
        <ele>15.208</ele>
        <time>2021-10-14T19:23:17Z</time>
      </trkpt>
      <trkpt lat="43.345535" lon="-5.073201">
        <ele>14.955</ele>
        <time>2021-10-14T19:23:18Z</time>
      </trkpt>
      <trkpt lat="43.345609" lon="-5.073474">
        <ele>14.733</ele>
        <time>2021-10-14T19:23:19Z</time>
      </trkpt>
      <trkpt lat="43.345689" lon="-5.073747">
        <ele>15.071</ele>
        <time>2021-10-14T19:23:20Z</time>
      </trkpt>
      <trkpt lat="43.345857" lon="-5.074241">
        <ele>15.018</ele>
        <time>2021-10-14T19:23:22Z</time>
      </trkpt>
      <trkpt lat="43.346037" lon="-5.074714">
        <ele>16.071</ele>
        <time>2021-10-14T19:23:24Z</time>
      </trkpt>
      <trkpt lat="43.346126" lon="-5.074940">
        <ele>15.778</ele>
        <time>2021-10-14T19:23:25Z</time>
      </trkpt>
      <trkpt lat="43.346214" lon="-5.075161">
        <ele>15.540</ele>
        <time>2021-10-14T19:23:26Z</time>
      </trkpt>
      <trkpt lat="43.346368" lon="-5.075538">
        <ele>15.289</ele>
        <time>2021-10-14T19:23:28Z</time>
      </trkpt>
      <trkpt lat="43.346529" lon="-5.075901">
        <ele>15.311</ele>
        <time>2021-10-14T19:23:30Z</time>
      </trkpt>
      <trkpt lat="43.346718" lon="-5.076291">
        <ele>14.421</ele>
        <time>2021-10-14T19:23:32Z</time>
      </trkpt>
      <trkpt lat="43.346925" lon="-5.076674">
        <ele>13.903</ele>
        <time>2021-10-14T19:23:34Z</time>
      </trkpt>
      <trkpt lat="43.347131" lon="-5.077048">
        <ele>13.908</ele>
        <time>2021-10-14T19:23:36Z</time>
      </trkpt>
      <trkpt lat="43.347225" lon="-5.077223">
        <ele>14.069</ele>
        <time>2021-10-14T19:23:37Z</time>
      </trkpt>
      <trkpt lat="43.347324" lon="-5.077416">
        <ele>14.077</ele>
        <time>2021-10-14T19:23:38Z</time>
      </trkpt>
      <trkpt lat="43.347500" lon="-5.077812">
        <ele>14.445</ele>
        <time>2021-10-14T19:23:40Z</time>
      </trkpt>
      <trkpt lat="43.347575" lon="-5.078035">
        <ele>13.982</ele>
        <time>2021-10-14T19:23:41Z</time>
      </trkpt>
      <trkpt lat="43.347684" lon="-5.078505">
        <ele>14.835</ele>
        <time>2021-10-14T19:23:43Z</time>
      </trkpt>
      <trkpt lat="43.347725" lon="-5.078761">
        <ele>15.132</ele>
        <time>2021-10-14T19:23:44Z</time>
      </trkpt>
      <trkpt lat="43.347779" lon="-5.079259">
        <ele>13.624</ele>
        <time>2021-10-14T19:23:46Z</time>
      </trkpt>
      <trkpt lat="43.347804" lon="-5.079515">
        <ele>13.163</ele>
        <time>2021-10-14T19:23:47Z</time>
      </trkpt>
      <trkpt lat="43.347853" lon="-5.080011">
        <ele>12.313</ele>
        <time>2021-10-14T19:23:49Z</time>
      </trkpt>
      <trkpt lat="43.347878" lon="-5.080257">
        <ele>12.343</ele>
        <time>2021-10-14T19:23:50Z</time>
      </trkpt>
      <trkpt lat="43.347924" lon="-5.080724">
        <ele>10.507</ele>
        <time>2021-10-14T19:23:52Z</time>
      </trkpt>
      <trkpt lat="43.347946" lon="-5.080955">
        <ele>10.208</ele>
        <time>2021-10-14T19:23:53Z</time>
      </trkpt>
      <trkpt lat="43.347981" lon="-5.081389">
        <ele>10.229</ele>
        <time>2021-10-14T19:23:55Z</time>
      </trkpt>
      <trkpt lat="43.347991" lon="-5.081604">
        <ele>10.017</ele>
        <time>2021-10-14T19:23:56Z</time>
      </trkpt>
      <trkpt lat="43.347990" lon="-5.082017">
        <ele>10.035</ele>
        <time>2021-10-14T19:23:58Z</time>
      </trkpt>
      <trkpt lat="43.347951" lon="-5.082442">
        <ele>8.452</ele>
        <time>2021-10-14T19:24:00Z</time>
      </trkpt>
      <trkpt lat="43.347926" lon="-5.082646">
        <ele>8.455</ele>
        <time>2021-10-14T19:24:01Z</time>
      </trkpt>
      <trkpt lat="43.347896" lon="-5.082844">
        <ele>7.992</ele>
        <time>2021-10-14T19:24:02Z</time>
      </trkpt>
      <trkpt lat="43.347837" lon="-5.083180">
        <ele>8.444</ele>
        <time>2021-10-14T19:24:04Z</time>
      </trkpt>
      <trkpt lat="43.347810" lon="-5.083336">
        <ele>7.823</ele>
        <time>2021-10-14T19:24:05Z</time>
      </trkpt>
      <trkpt lat="43.347760" lon="-5.083649">
        <ele>7.879</ele>
        <time>2021-10-14T19:24:07Z</time>
      </trkpt>
      <trkpt lat="43.347731" lon="-5.083805">
        <ele>7.405</ele>
        <time>2021-10-14T19:24:08Z</time>
      </trkpt>
      <trkpt lat="43.347678" lon="-5.084099">
        <ele>8.025</ele>
        <time>2021-10-14T19:24:10Z</time>
      </trkpt>
      <trkpt lat="43.347649" lon="-5.084245">
        <ele>8.008</ele>
        <time>2021-10-14T19:24:11Z</time>
      </trkpt>
      <trkpt lat="43.347588" lon="-5.084537">
        <ele>7.055</ele>
        <time>2021-10-14T19:24:13Z</time>
      </trkpt>
      <trkpt lat="43.347553" lon="-5.084693">
        <ele>7.053</ele>
        <time>2021-10-14T19:24:14Z</time>
      </trkpt>
      <trkpt lat="43.347487" lon="-5.084985">
        <ele>6.781</ele>
        <time>2021-10-14T19:24:16Z</time>
      </trkpt>
      <trkpt lat="43.347451" lon="-5.085129">
        <ele>6.718</ele>
        <time>2021-10-14T19:24:17Z</time>
      </trkpt>
      <trkpt lat="43.347374" lon="-5.085411">
        <ele>7.011</ele>
        <time>2021-10-14T19:24:19Z</time>
      </trkpt>
      <trkpt lat="43.347324" lon="-5.085538">
        <ele>7.118</ele>
        <time>2021-10-14T19:24:20Z</time>
      </trkpt>
      <trkpt lat="43.347228" lon="-5.085737">
        <ele>8.660</ele>
        <time>2021-10-14T19:24:22Z</time>
      </trkpt>
      <trkpt lat="43.347186" lon="-5.085831">
        <ele>8.629</ele>
        <time>2021-10-14T19:24:23Z</time>
      </trkpt>
      <trkpt lat="43.347124" lon="-5.086064">
        <ele>9.085</ele>
        <time>2021-10-14T19:24:25Z</time>
      </trkpt>
      <trkpt lat="43.347093" lon="-5.086206">
        <ele>8.989</ele>
        <time>2021-10-14T19:24:26Z</time>
      </trkpt>
      <trkpt lat="43.347025" lon="-5.086479">
        <ele>9.717</ele>
        <time>2021-10-14T19:24:28Z</time>
      </trkpt>
      <trkpt lat="43.346999" lon="-5.086614">
        <ele>10.208</ele>
        <time>2021-10-14T19:24:29Z</time>
      </trkpt>
      <trkpt lat="43.346991" lon="-5.086902">
        <ele>10.386</ele>
        <time>2021-10-14T19:24:31Z</time>
      </trkpt>
      <trkpt lat="43.347016" lon="-5.087060">
        <ele>10.484</ele>
        <time>2021-10-14T19:24:32Z</time>
      </trkpt>
      <trkpt lat="43.347095" lon="-5.087376">
        <ele>10.542</ele>
        <time>2021-10-14T19:24:34Z</time>
      </trkpt>
      <trkpt lat="43.347140" lon="-5.087541">
        <ele>9.979</ele>
        <time>2021-10-14T19:24:35Z</time>
      </trkpt>
      <trkpt lat="43.347236" lon="-5.087842">
        <ele>10.212</ele>
        <time>2021-10-14T19:24:37Z</time>
      </trkpt>
      <trkpt lat="43.347286" lon="-5.087986">
        <ele>10.829</ele>
        <time>2021-10-14T19:24:38Z</time>
      </trkpt>
      <trkpt lat="43.347386" lon="-5.088261">
        <ele>10.871</ele>
        <time>2021-10-14T19:24:40Z</time>
      </trkpt>
      <trkpt lat="43.347498" lon="-5.088538">
        <ele>11.420</ele>
        <time>2021-10-14T19:24:42Z</time>
      </trkpt>
      <trkpt lat="43.347557" lon="-5.088681">
        <ele>11.495</ele>
        <time>2021-10-14T19:24:43Z</time>
      </trkpt>
      <trkpt lat="43.347617" lon="-5.088829">
        <ele>11.249</ele>
        <time>2021-10-14T19:24:44Z</time>
      </trkpt>
      <trkpt lat="43.347733" lon="-5.089120">
        <ele>10.023</ele>
        <time>2021-10-14T19:24:46Z</time>
      </trkpt>
      <trkpt lat="43.347794" lon="-5.089276">
        <ele>9.608</ele>
        <time>2021-10-14T19:24:47Z</time>
      </trkpt>
      <trkpt lat="43.347925" lon="-5.089595">
        <ele>8.977</ele>
        <time>2021-10-14T19:24:49Z</time>
      </trkpt>
      <trkpt lat="43.347997" lon="-5.089769">
        <ele>8.925</ele>
        <time>2021-10-14T19:24:50Z</time>
      </trkpt>
      <trkpt lat="43.348137" lon="-5.090114">
        <ele>7.513</ele>
        <time>2021-10-14T19:24:52Z</time>
      </trkpt>
      <trkpt lat="43.348205" lon="-5.090279">
        <ele>8.080</ele>
        <time>2021-10-14T19:24:53Z</time>
      </trkpt>
      <trkpt lat="43.348272" lon="-5.090440">
        <ele>7.723</ele>
        <time>2021-10-14T19:24:54Z</time>
      </trkpt>
      <trkpt lat="43.348420" lon="-5.090764">
        <ele>7.910</ele>
        <time>2021-10-14T19:24:56Z</time>
      </trkpt>
      <trkpt lat="43.348565" lon="-5.091050">
        <ele>8.842</ele>
        <time>2021-10-14T19:24:58Z</time>
      </trkpt>
      <trkpt lat="43.348701" lon="-5.091311">
        <ele>8.931</ele>
        <time>2021-10-14T19:25:00Z</time>
      </trkpt>
      <trkpt lat="43.348839" lon="-5.091562">
        <ele>9.771</ele>
        <time>2021-10-14T19:25:02Z</time>
      </trkpt>
      <trkpt lat="43.348994" lon="-5.091836">
        <ele>9.941</ele>
        <time>2021-10-14T19:25:04Z</time>
      </trkpt>
      <trkpt lat="43.349172" lon="-5.092158">
        <ele>8.415</ele>
        <time>2021-10-14T19:25:06Z</time>
      </trkpt>
      <trkpt lat="43.349270" lon="-5.092331">
        <ele>7.308</ele>
        <time>2021-10-14T19:25:07Z</time>
      </trkpt>
      <trkpt lat="43.349371" lon="-5.092513">
        <ele>7.095</ele>
        <time>2021-10-14T19:25:08Z</time>
      </trkpt>
      <trkpt lat="43.349576" lon="-5.092886">
        <ele>6.943</ele>
        <time>2021-10-14T19:25:10Z</time>
      </trkpt>
      <trkpt lat="43.349794" lon="-5.093281">
        <ele>6.581</ele>
        <time>2021-10-14T19:25:12Z</time>
      </trkpt>
      <trkpt lat="43.350010" lon="-5.093676">
        <ele>5.938</ele>
        <time>2021-10-14T19:25:14Z</time>
      </trkpt>
      <trkpt lat="43.350206" lon="-5.094040">
        <ele>4.951</ele>
        <time>2021-10-14T19:25:16Z</time>
      </trkpt>
      <trkpt lat="43.350307" lon="-5.094233">
        <ele>4.998</ele>
        <time>2021-10-14T19:25:17Z</time>
      </trkpt>
      <trkpt lat="43.350503" lon="-5.094666">
        <ele>3.270</ele>
        <time>2021-10-14T19:25:19Z</time>
      </trkpt>
      <trkpt lat="43.350588" lon="-5.094915">
        <ele>3.589</ele>
        <time>2021-10-14T19:25:20Z</time>
      </trkpt>
      <trkpt lat="43.350695" lon="-5.095436">
        <ele>3.443</ele>
        <time>2021-10-14T19:25:22Z</time>
      </trkpt>
      <trkpt lat="43.350701" lon="-5.096013">
        <ele>3.464</ele>
        <time>2021-10-14T19:25:24Z</time>
      </trkpt>
      <trkpt lat="43.350598" lon="-5.096619">
        <ele>3.010</ele>
        <time>2021-10-14T19:25:26Z</time>
      </trkpt>
      <trkpt lat="43.350420" lon="-5.097207">
        <ele>4.008</ele>
        <time>2021-10-14T19:25:28Z</time>
      </trkpt>
      <trkpt lat="43.350246" lon="-5.097749">
        <ele>4.442</ele>
        <time>2021-10-14T19:25:30Z</time>
      </trkpt>
      <trkpt lat="43.350173" lon="-5.097997">
        <ele>5.340</ele>
        <time>2021-10-14T19:25:31Z</time>
      </trkpt>
      <trkpt lat="43.350104" lon="-5.098237">
        <ele>5.648</ele>
        <time>2021-10-14T19:25:32Z</time>
      </trkpt>
      <trkpt lat="43.349977" lon="-5.098655">
        <ele>4.545</ele>
        <time>2021-10-14T19:25:34Z</time>
      </trkpt>
      <trkpt lat="43.349866" lon="-5.099072">
        <ele>3.958</ele>
        <time>2021-10-14T19:25:36Z</time>
      </trkpt>
      <trkpt lat="43.349816" lon="-5.099287">
        <ele>4.445</ele>
        <time>2021-10-14T19:25:37Z</time>
      </trkpt>
      <trkpt lat="43.349770" lon="-5.099519">
        <ele>4.457</ele>
        <time>2021-10-14T19:25:38Z</time>
      </trkpt>
      <trkpt lat="43.349697" lon="-5.099984">
        <ele>2.816</ele>
        <time>2021-10-14T19:25:40Z</time>
      </trkpt>
      <trkpt lat="43.349667" lon="-5.100207">
        <ele>2.671</ele>
        <time>2021-10-14T19:25:41Z</time>
      </trkpt>
      <trkpt lat="43.349608" lon="-5.100634">
        <ele>1.941</ele>
        <time>2021-10-14T19:25:43Z</time>
      </trkpt>
      <trkpt lat="43.349577" lon="-5.100855">
        <ele>1.715</ele>
        <time>2021-10-14T19:25:44Z</time>
      </trkpt>
      <trkpt lat="43.349520" lon="-5.101295">
        <ele>1.208</ele>
        <time>2021-10-14T19:25:46Z</time>
      </trkpt>
      <trkpt lat="43.349491" lon="-5.101534">
        <ele>-0.475</ele>
        <time>2021-10-14T19:25:47Z</time>
      </trkpt>
      <trkpt lat="43.349457" lon="-5.102025">
        <ele>0.333</ele>
        <time>2021-10-14T19:25:49Z</time>
      </trkpt>
      <trkpt lat="43.349453" lon="-5.102268">
        <ele>-1.331</ele>
        <time>2021-10-14T19:25:50Z</time>
      </trkpt>
      <trkpt lat="43.349468" lon="-5.102699">
        <ele>0.378</ele>
        <time>2021-10-14T19:25:52Z</time>
      </trkpt>
      <trkpt lat="43.349484" lon="-5.102915">
        <ele>-1.921</ele>
        <time>2021-10-14T19:25:53Z</time>
      </trkpt>
      <trkpt lat="43.349534" lon="-5.103330">
        <ele>-0.988</ele>
        <time>2021-10-14T19:25:55Z</time>
      </trkpt>
      <trkpt lat="43.349564" lon="-5.103543">
        <ele>-0.190</ele>
        <time>2021-10-14T19:25:56Z</time>
      </trkpt>
      <trkpt lat="43.349623" lon="-5.103954">
        <ele>-0.859</ele>
        <time>2021-10-14T19:25:58Z</time>
      </trkpt>
      <trkpt lat="43.349656" lon="-5.104162">
        <ele>0.442</ele>
        <time>2021-10-14T19:25:59Z</time>
      </trkpt>
      <trkpt lat="43.349688" lon="-5.104372">
        <ele>-0.722</ele>
        <time>2021-10-14T19:26:00Z</time>
      </trkpt>
      <trkpt lat="43.349760" lon="-5.104806">
        <ele>1.214</ele>
        <time>2021-10-14T19:26:02Z</time>
      </trkpt>
      <trkpt lat="43.349836" lon="-5.105236">
        <ele>0.908</ele>
        <time>2021-10-14T19:26:04Z</time>
      </trkpt>
      <trkpt lat="43.349876" lon="-5.105468">
        <ele>0.962</ele>
        <time>2021-10-14T19:26:05Z</time>
      </trkpt>
      <trkpt lat="43.349957" lon="-5.105961">
        <ele>1.410</ele>
        <time>2021-10-14T19:26:07Z</time>
      </trkpt>
      <trkpt lat="43.349998" lon="-5.106225">
        <ele>1.278</ele>
        <time>2021-10-14T19:26:08Z</time>
      </trkpt>
      <trkpt lat="43.350082" lon="-5.106723">
        <ele>-0.465</ele>
        <time>2021-10-14T19:26:10Z</time>
      </trkpt>
      <trkpt lat="43.350118" lon="-5.106958">
        <ele>-1.348</ele>
        <time>2021-10-14T19:26:11Z</time>
      </trkpt>
      <trkpt lat="43.350155" lon="-5.107179">
        <ele>-1.975</ele>
        <time>2021-10-14T19:26:12Z</time>
      </trkpt>
      <trkpt lat="43.350223" lon="-5.107592">
        <ele>-1.837</ele>
        <time>2021-10-14T19:26:14Z</time>
      </trkpt>
      <trkpt lat="43.350290" lon="-5.107946">
        <ele>-2.516</ele>
        <time>2021-10-14T19:26:16Z</time>
      </trkpt>
      <trkpt lat="43.350358" lon="-5.108236">
        <ele>-3.066</ele>
        <time>2021-10-14T19:26:18Z</time>
      </trkpt>
      <trkpt lat="43.350392" lon="-5.108363">
        <ele>-3.829</ele>
        <time>2021-10-14T19:26:19Z</time>
      </trkpt>
      <trkpt lat="43.350424" lon="-5.108472">
        <ele>-4.021</ele>
        <time>2021-10-14T19:26:20Z</time>
      </trkpt>
      <trkpt lat="43.350481" lon="-5.108652">
        <ele>-3.508</ele>
        <time>2021-10-14T19:26:22Z</time>
      </trkpt>
      <trkpt lat="43.350538" lon="-5.108817">
        <ele>-3.474</ele>
        <time>2021-10-14T19:26:24Z</time>
      </trkpt>
      <trkpt lat="43.350620" lon="-5.108941">
        <ele>-2.642</ele>
        <time>2021-10-14T19:26:26Z</time>
      </trkpt>
      <trkpt lat="43.350753" lon="-5.108997">
        <ele>-3.350</ele>
        <time>2021-10-14T19:26:28Z</time>
      </trkpt>
      <trkpt lat="43.350836" lon="-5.109003">
        <ele>-2.027</ele>
        <time>2021-10-14T19:26:29Z</time>
      </trkpt>
      <trkpt lat="43.351002" lon="-5.109034">
        <ele>-2.570</ele>
        <time>2021-10-14T19:26:31Z</time>
      </trkpt>
      <trkpt lat="43.351076" lon="-5.109084">
        <ele>-3.567</ele>
        <time>2021-10-14T19:26:32Z</time>
      </trkpt>
      <trkpt lat="43.351156" lon="-5.109285">
        <ele>-2.279</ele>
        <time>2021-10-14T19:26:34Z</time>
      </trkpt>
      <trkpt lat="43.351162" lon="-5.109425">
        <ele>-3.078</ele>
        <time>2021-10-14T19:26:35Z</time>
      </trkpt>
      <trkpt lat="43.351098" lon="-5.109676">
        <ele>-1.824</ele>
        <time>2021-10-14T19:26:37Z</time>
      </trkpt>
      <trkpt lat="43.351027" lon="-5.109757">
        <ele>-1.504</ele>
        <time>2021-10-14T19:26:38Z</time>
      </trkpt>
      <trkpt lat="43.350857" lon="-5.109844">
        <ele>-2.114</ele>
        <time>2021-10-14T19:26:40Z</time>
      </trkpt>
      <trkpt lat="43.350765" lon="-5.109850">
        <ele>-1.508</ele>
        <time>2021-10-14T19:26:41Z</time>
      </trkpt>
      <trkpt lat="43.350675" lon="-5.109853">
        <ele>-1.970</ele>
        <time>2021-10-14T19:26:42Z</time>
      </trkpt>
      <trkpt lat="43.350527" lon="-5.109960">
        <ele>-2.178</ele>
        <time>2021-10-14T19:26:44Z</time>
      </trkpt>
      <trkpt lat="43.350423" lon="-5.110201">
        <ele>-1.716</ele>
        <time>2021-10-14T19:26:46Z</time>
      </trkpt>
      <trkpt lat="43.350384" lon="-5.110370">
        <ele>-2.513</ele>
        <time>2021-10-14T19:26:47Z</time>
      </trkpt>
      <trkpt lat="43.350359" lon="-5.110562">
        <ele>-2.126</ele>
        <time>2021-10-14T19:26:48Z</time>
      </trkpt>
      <trkpt lat="43.350348" lon="-5.110763">
        <ele>-2.713</ele>
        <time>2021-10-14T19:26:49Z</time>
      </trkpt>
      <trkpt lat="43.350353" lon="-5.110971">
        <ele>-2.255</ele>
        <time>2021-10-14T19:26:50Z</time>
      </trkpt>
      <trkpt lat="43.350394" lon="-5.111391">
        <ele>-1.334</ele>
        <time>2021-10-14T19:26:52Z</time>
      </trkpt>
      <trkpt lat="43.350441" lon="-5.111852">
        <ele>-2.055</ele>
        <time>2021-10-14T19:26:54Z</time>
      </trkpt>
      <trkpt lat="43.350479" lon="-5.112324">
        <ele>-3.007</ele>
        <time>2021-10-14T19:26:56Z</time>
      </trkpt>
      <trkpt lat="43.350503" lon="-5.112724">
        <ele>-3.317</ele>
        <time>2021-10-14T19:26:58Z</time>
      </trkpt>
      <trkpt lat="43.350510" lon="-5.112909">
        <ele>-3.508</ele>
        <time>2021-10-14T19:26:59Z</time>
      </trkpt>
      <trkpt lat="43.350512" lon="-5.113248">
        <ele>-4.253</ele>
        <time>2021-10-14T19:27:01Z</time>
      </trkpt>
      <trkpt lat="43.350511" lon="-5.113412">
        <ele>-4.921</ele>
        <time>2021-10-14T19:27:02Z</time>
      </trkpt>
      <trkpt lat="43.350501" lon="-5.113720">
        <ele>-5.459</ele>
        <time>2021-10-14T19:27:04Z</time>
      </trkpt>
      <trkpt lat="43.350491" lon="-5.114050">
        <ele>-4.946</ele>
        <time>2021-10-14T19:27:06Z</time>
      </trkpt>
      <trkpt lat="43.350484" lon="-5.114226">
        <ele>-5.969</ele>
        <time>2021-10-14T19:27:07Z</time>
      </trkpt>
      <trkpt lat="43.350473" lon="-5.114412">
        <ele>-5.786</ele>
        <time>2021-10-14T19:27:08Z</time>
      </trkpt>
      <trkpt lat="43.350455" lon="-5.114785">
        <ele>-4.718</ele>
        <time>2021-10-14T19:27:10Z</time>
      </trkpt>
      <trkpt lat="43.350446" lon="-5.114972">
        <ele>-5.097</ele>
        <time>2021-10-14T19:27:11Z</time>
      </trkpt>
      <trkpt lat="43.350426" lon="-5.115340">
        <ele>-5.048</ele>
        <time>2021-10-14T19:27:13Z</time>
      </trkpt>
      <trkpt lat="43.350414" lon="-5.115538">
        <ele>-7.061</ele>
        <time>2021-10-14T19:27:14Z</time>
      </trkpt>
      <trkpt lat="43.350387" lon="-5.115955">
        <ele>-7.617</ele>
        <time>2021-10-14T19:27:16Z</time>
      </trkpt>
      <trkpt lat="43.350379" lon="-5.116181">
        <ele>-8.308</ele>
        <time>2021-10-14T19:27:17Z</time>
      </trkpt>
      <trkpt lat="43.350377" lon="-5.116632">
        <ele>-7.042</ele>
        <time>2021-10-14T19:27:19Z</time>
      </trkpt>
      <trkpt lat="43.350385" lon="-5.116863">
        <ele>-6.060</ele>
        <time>2021-10-14T19:27:20Z</time>
      </trkpt>
      <trkpt lat="43.350431" lon="-5.117310">
        <ele>-5.428</ele>
        <time>2021-10-14T19:27:22Z</time>
      </trkpt>
      <trkpt lat="43.350462" lon="-5.117534">
        <ele>-6.495</ele>
        <time>2021-10-14T19:27:23Z</time>
      </trkpt>
      <trkpt lat="43.350537" lon="-5.117927">
        <ele>-4.048</ele>
        <time>2021-10-14T19:27:25Z</time>
      </trkpt>
      <trkpt lat="43.350572" lon="-5.118106">
        <ele>-4.795</ele>
        <time>2021-10-14T19:27:26Z</time>
      </trkpt>
      <trkpt lat="43.350629" lon="-5.118429">
        <ele>-4.767</ele>
        <time>2021-10-14T19:27:28Z</time>
      </trkpt>
      <trkpt lat="43.350654" lon="-5.118596">
        <ele>-3.876</ele>
        <time>2021-10-14T19:27:29Z</time>
      </trkpt>
      <trkpt lat="43.350692" lon="-5.118936">
        <ele>-3.883</ele>
        <time>2021-10-14T19:27:31Z</time>
      </trkpt>
      <trkpt lat="43.350708" lon="-5.119098">
        <ele>-2.425</ele>
        <time>2021-10-14T19:27:32Z</time>
      </trkpt>
      <trkpt lat="43.350727" lon="-5.119347">
        <ele>-4.717</ele>
        <time>2021-10-14T19:27:34Z</time>
      </trkpt>
      <trkpt lat="43.350737" lon="-5.119461">
        <ele>-4.708</ele>
        <time>2021-10-14T19:27:35Z</time>
      </trkpt>
      <trkpt lat="43.350754" lon="-5.119669">
        <ele>-4.986</ele>
        <time>2021-10-14T19:27:37Z</time>
      </trkpt>
      <trkpt lat="43.350760" lon="-5.119768">
        <ele>-5.564</ele>
        <time>2021-10-14T19:27:38Z</time>
      </trkpt>
      <trkpt lat="43.350767" lon="-5.119957">
        <ele>-5.722</ele>
        <time>2021-10-14T19:27:40Z</time>
      </trkpt>
      <trkpt lat="43.350773" lon="-5.120056">
        <ele>-6.449</ele>
        <time>2021-10-14T19:27:41Z</time>
      </trkpt>
      <trkpt lat="43.350784" lon="-5.120267">
        <ele>-6.412</ele>
        <time>2021-10-14T19:27:43Z</time>
      </trkpt>
      <trkpt lat="43.350787" lon="-5.120380">
        <ele>-7.239</ele>
        <time>2021-10-14T19:27:44Z</time>
      </trkpt>
      <trkpt lat="43.350795" lon="-5.120577">
        <ele>-8.331</ele>
        <time>2021-10-14T19:27:46Z</time>
      </trkpt>
      <trkpt lat="43.350799" lon="-5.120670">
        <ele>-8.940</ele>
        <time>2021-10-14T19:27:47Z</time>
      </trkpt>
      <trkpt lat="43.350803" lon="-5.120765">
        <ele>-9.337</ele>
        <time>2021-10-14T19:27:48Z</time>
      </trkpt>
      <trkpt lat="43.350808" lon="-5.120979">
        <ele>-8.549</ele>
        <time>2021-10-14T19:27:50Z</time>
      </trkpt>
      <trkpt lat="43.350817" lon="-5.121210">
        <ele>-8.813</ele>
        <time>2021-10-14T19:27:52Z</time>
      </trkpt>
      <trkpt lat="43.350823" lon="-5.121328">
        <ele>-9.708</ele>
        <time>2021-10-14T19:27:53Z</time>
      </trkpt>
      <trkpt lat="43.350826" lon="-5.121439">
        <ele>-9.511</ele>
        <time>2021-10-14T19:27:54Z</time>
      </trkpt>
      <trkpt lat="43.350826" lon="-5.121631">
        <ele>-11.349</ele>
        <time>2021-10-14T19:27:56Z</time>
      </trkpt>
      <trkpt lat="43.350829" lon="-5.121783">
        <ele>-12.277</ele>
        <time>2021-10-14T19:27:58Z</time>
      </trkpt>
      <trkpt lat="43.350830" lon="-5.121862">
        <ele>-11.054</ele>
        <time>2021-10-14T19:27:59Z</time>
      </trkpt>
      <trkpt lat="43.350831" lon="-5.121946">
        <ele>-10.787</ele>
        <time>2021-10-14T19:28:00Z</time>
      </trkpt>
      <trkpt lat="43.350834" lon="-5.122036">
        <ele>-12.074</ele>
        <time>2021-10-14T19:28:01Z</time>
      </trkpt>
      <trkpt lat="43.350834" lon="-5.122136">
        <ele>-10.946</ele>
        <time>2021-10-14T19:28:02Z</time>
      </trkpt>
      <trkpt lat="43.350835" lon="-5.122327">
        <ele>-11.785</ele>
        <time>2021-10-14T19:28:04Z</time>
      </trkpt>
      <trkpt lat="43.350835" lon="-5.122491">
        <ele>-10.866</ele>
        <time>2021-10-14T19:28:06Z</time>
      </trkpt>
      <trkpt lat="43.350835" lon="-5.122649">
        <ele>-10.729</ele>
        <time>2021-10-14T19:28:08Z</time>
      </trkpt>
      <trkpt lat="43.350837" lon="-5.122826">
        <ele>-10.921</ele>
        <time>2021-10-14T19:28:10Z</time>
      </trkpt>
      <trkpt lat="43.350839" lon="-5.122912">
        <ele>-10.308</ele>
        <time>2021-10-14T19:28:11Z</time>
      </trkpt>
      <trkpt lat="43.350844" lon="-5.123003">
        <ele>-10.534</ele>
        <time>2021-10-14T19:28:12Z</time>
      </trkpt>
      <trkpt lat="43.350851" lon="-5.123201">
        <ele>-9.932</ele>
        <time>2021-10-14T19:28:14Z</time>
      </trkpt>
      <trkpt lat="43.350850" lon="-5.123410">
        <ele>-8.530</ele>
        <time>2021-10-14T19:28:16Z</time>
      </trkpt>
      <trkpt lat="43.350851" lon="-5.123600">
        <ele>-7.117</ele>
        <time>2021-10-14T19:28:18Z</time>
      </trkpt>
      <trkpt lat="43.350852" lon="-5.123674">
        <ele>-7.060</ele>
        <time>2021-10-14T19:28:19Z</time>
      </trkpt>
      <trkpt lat="43.350851" lon="-5.123738">
        <ele>-6.257</ele>
        <time>2021-10-14T19:28:20Z</time>
      </trkpt>
      <trkpt lat="43.350855" lon="-5.123824">
        <ele>-6.619</ele>
        <time>2021-10-14T19:28:22Z</time>
      </trkpt>
      <trkpt lat="43.350862" lon="-5.123917">
        <ele>-6.548</ele>
        <time>2021-10-14T19:28:24Z</time>
      </trkpt>
      <trkpt lat="43.350865" lon="-5.123983">
        <ele>-6.697</ele>
        <time>2021-10-14T19:28:25Z</time>
      </trkpt>
      <trkpt lat="43.350870" lon="-5.124064">
        <ele>-6.223</ele>
        <time>2021-10-14T19:28:26Z</time>
      </trkpt>
      <trkpt lat="43.350884" lon="-5.124160">
        <ele>17.825</ele>
        <time>2021-10-14T19:28:27Z</time>
      </trkpt>
      <trkpt lat="43.350917" lon="-5.124215">
        <ele>35.208</ele>
        <time>2021-10-14T19:28:29Z</time>
      </trkpt>
      <trkpt lat="43.350979" lon="-5.124232">
        <ele>41.637</ele>
        <time>2021-10-14T19:28:31Z</time>
      </trkpt>
      <trkpt lat="43.351035" lon="-5.124235">
        <ele>41.695</ele>
        <time>2021-10-14T19:28:32Z</time>
      </trkpt>
      <trkpt lat="43.351188" lon="-5.124197">
        <ele>41.673</ele>
        <time>2021-10-14T19:28:34Z</time>
      </trkpt>
      <trkpt lat="43.351265" lon="-5.124184">
        <ele>41.690</ele>
        <time>2021-10-14T19:28:35Z</time>
      </trkpt>
      <trkpt lat="43.351390" lon="-5.124168">
        <ele>41.553</ele>
        <time>2021-10-14T19:28:37Z</time>
      </trkpt>
      <trkpt lat="43.351444" lon="-5.124164">
        <ele>41.540</ele>
        <time>2021-10-14T19:28:38Z</time>
      </trkpt>
      <trkpt lat="43.351527" lon="-5.124211">
        <ele>41.442</ele>
        <time>2021-10-14T19:28:40Z</time>
      </trkpt>
      <trkpt lat="43.351568" lon="-5.124309">
        <ele>41.421</ele>
        <time>2021-10-14T19:28:42Z</time>
      </trkpt>
      <trkpt lat="43.351587" lon="-5.124391">
        <ele>41.467</ele>
        <time>2021-10-14T19:28:43Z</time>
      </trkpt>
      <trkpt lat="43.351604" lon="-5.124501">
        <ele>41.481</ele>
        <time>2021-10-14T19:28:44Z</time>
      </trkpt>
      <trkpt lat="43.351648" lon="-5.124746">
        <ele>41.419</ele>
        <time>2021-10-14T19:28:46Z</time>
      </trkpt>
      <trkpt lat="43.351673" lon="-5.124863">
        <ele>41.408</ele>
        <time>2021-10-14T19:28:47Z</time>
      </trkpt>
      <trkpt lat="43.351722" lon="-5.125061">
        <ele>41.564</ele>
        <time>2021-10-14T19:28:49Z</time>
      </trkpt>
      <trkpt lat="43.351746" lon="-5.125150">
        <ele>41.512</ele>
        <time>2021-10-14T19:28:50Z</time>
      </trkpt>
      <trkpt lat="43.351790" lon="-5.125302">
        <ele>41.550</ele>
        <time>2021-10-14T19:28:52Z</time>
      </trkpt>
      <trkpt lat="43.351825" lon="-5.125393">
        <ele>41.547</ele>
        <time>2021-10-14T19:28:54Z</time>
      </trkpt>
      <trkpt lat="43.351857" lon="-5.125492">
        <ele>41.570</ele>
        <time>2021-10-14T19:28:57Z</time>
      </trkpt>
      <trkpt lat="43.351880" lon="-5.125567">
        <ele>41.567</ele>
        <time>2021-10-14T19:28:59Z</time>
      </trkpt>
      <trkpt lat="43.351900" lon="-5.125643">
        <ele>41.599</ele>
        <time>2021-10-14T19:29:01Z</time>
      </trkpt>
      <trkpt lat="43.351927" lon="-5.125712">
        <ele>39.948</ele>
        <time>2021-10-14T19:29:04Z</time>
      </trkpt>
      <trkpt lat="43.351952" lon="-5.125775">
        <ele>38.392</ele>
        <time>2021-10-14T19:29:12Z</time>
      </trkpt>
      <trkpt lat="43.351962" lon="-5.125843">
        <ele>38.373</ele>
        <time>2021-10-14T19:29:14Z</time>
      </trkpt>
      <trkpt lat="43.351946" lon="-5.125781">
        <ele>37.420</ele>
        <time>2021-10-14T19:29:56Z</time>
      </trkpt>
      <trkpt lat="43.351917" lon="-5.125715">
        <ele>37.408</ele>
        <time>2021-10-14T19:29:59Z</time>
      </trkpt>
      <trkpt lat="43.351968" lon="-5.125546">
        <ele>63.277</ele>
        <time>2021-10-15T07:05:53Z</time>
      </trkpt>
      <trkpt lat="43.351918" lon="-5.125354">
        <ele>63.261</ele>
        <time>2021-10-15T07:15:11Z</time>
      </trkpt>
      <trkpt lat="43.351994" lon="-5.125445">
        <ele>63.527</ele>
        <time>2021-10-15T07:15:12Z</time>
      </trkpt>
      <trkpt lat="43.351889" lon="-5.125361">
        <ele>63.508</ele>
        <time>2021-10-15T07:15:14Z</time>
      </trkpt>
      <trkpt lat="43.351779" lon="-5.125284">
        <ele>63.595</ele>
        <time>2021-10-15T07:15:16Z</time>
      </trkpt>
      <trkpt lat="43.351728" lon="-5.125216">
        <ele>63.563</ele>
        <time>2021-10-15T07:15:18Z</time>
      </trkpt>
      <trkpt lat="43.351705" lon="-5.125146">
        <ele>63.571</ele>
        <time>2021-10-15T07:15:21Z</time>
      </trkpt>
      <trkpt lat="43.351709" lon="-5.125076">
        <ele>63.585</ele>
        <time>2021-10-15T07:21:08Z</time>
      </trkpt>
      <trkpt lat="43.351696" lon="-5.124997">
        <ele>63.550</ele>
        <time>2021-10-15T07:21:09Z</time>
      </trkpt>
      <trkpt lat="43.351672" lon="-5.124874">
        <ele>63.578</ele>
        <time>2021-10-15T07:21:11Z</time>
      </trkpt>
      <trkpt lat="43.351654" lon="-5.124784">
        <ele>63.591</ele>
        <time>2021-10-15T07:21:13Z</time>
      </trkpt>
      <trkpt lat="43.351640" lon="-5.124712">
        <ele>63.236</ele>
        <time>2021-10-15T07:21:14Z</time>
      </trkpt>
      <trkpt lat="43.351621" lon="-5.124608">
        <ele>63.224</ele>
        <time>2021-10-15T07:21:16Z</time>
      </trkpt>
      <trkpt lat="43.351592" lon="-5.124471">
        <ele>63.204</ele>
        <time>2021-10-15T07:21:18Z</time>
      </trkpt>
      <trkpt lat="43.351571" lon="-5.124405">
        <ele>63.214</ele>
        <time>2021-10-15T07:21:19Z</time>
      </trkpt>
      <trkpt lat="43.351516" lon="-5.124317">
        <ele>63.208</ele>
        <time>2021-10-15T07:21:21Z</time>
      </trkpt>
      <trkpt lat="43.351423" lon="-5.124247">
        <ele>63.240</ele>
        <time>2021-10-15T07:21:23Z</time>
      </trkpt>
      <trkpt lat="43.351310" lon="-5.124239">
        <ele>63.258</ele>
        <time>2021-10-15T07:21:25Z</time>
      </trkpt>
      <trkpt lat="43.351251" lon="-5.124243">
        <ele>63.226</ele>
        <time>2021-10-15T07:21:26Z</time>
      </trkpt>
      <trkpt lat="43.351193" lon="-5.124245">
        <ele>63.260</ele>
        <time>2021-10-15T07:21:27Z</time>
      </trkpt>
      <trkpt lat="43.351139" lon="-5.124250">
        <ele>63.235</ele>
        <time>2021-10-15T07:21:28Z</time>
      </trkpt>
      <trkpt lat="43.351092" lon="-5.124255">
        <ele>63.243</ele>
        <time>2021-10-15T07:21:29Z</time>
      </trkpt>
      <trkpt lat="43.351019" lon="-5.124253">
        <ele>63.286</ele>
        <time>2021-10-15T07:21:31Z</time>
      </trkpt>
      <trkpt lat="43.350967" lon="-5.124251">
        <ele>63.271</ele>
        <time>2021-10-15T07:21:34Z</time>
      </trkpt>
      <trkpt lat="43.350921" lon="-5.124215">
        <ele>63.226</ele>
        <time>2021-10-15T07:21:38Z</time>
      </trkpt>
      <trkpt lat="43.350919" lon="-5.124117">
        <ele>63.247</ele>
        <time>2021-10-15T07:21:40Z</time>
      </trkpt>
      <trkpt lat="43.350912" lon="-5.123875">
        <ele>63.211</ele>
        <time>2021-10-15T07:21:42Z</time>
      </trkpt>
      <trkpt lat="43.350910" lon="-5.123746">
        <ele>63.308</ele>
        <time>2021-10-15T07:21:43Z</time>
      </trkpt>
      <trkpt lat="43.350905" lon="-5.123511">
        <ele>63.440</ele>
        <time>2021-10-15T07:21:45Z</time>
      </trkpt>
      <trkpt lat="43.350901" lon="-5.123387">
        <ele>63.478</ele>
        <time>2021-10-15T07:21:46Z</time>
      </trkpt>
      <trkpt lat="43.350893" lon="-5.123131">
        <ele>63.526</ele>
        <time>2021-10-15T07:21:48Z</time>
      </trkpt>
      <trkpt lat="43.350884" lon="-5.122895">
        <ele>63.580</ele>
        <time>2021-10-15T07:21:50Z</time>
      </trkpt>
      <trkpt lat="43.350884" lon="-5.122789">
        <ele>63.555</ele>
        <time>2021-10-15T07:21:51Z</time>
      </trkpt>
      <trkpt lat="43.350883" lon="-5.122691">
        <ele>63.583</ele>
        <time>2021-10-15T07:21:52Z</time>
      </trkpt>
      <trkpt lat="43.350883" lon="-5.122594">
        <ele>63.586</ele>
        <time>2021-10-15T07:21:53Z</time>
      </trkpt>
      <trkpt lat="43.350878" lon="-5.122390">
        <ele>63.571</ele>
        <time>2021-10-15T07:21:55Z</time>
      </trkpt>
      <trkpt lat="43.350874" lon="-5.122158">
        <ele>63.539</ele>
        <time>2021-10-15T07:21:57Z</time>
      </trkpt>
      <trkpt lat="43.350866" lon="-5.121921">
        <ele>63.501</ele>
        <time>2021-10-15T07:21:59Z</time>
      </trkpt>
      <trkpt lat="43.350860" lon="-5.121803">
        <ele>63.521</ele>
        <time>2021-10-15T07:22:00Z</time>
      </trkpt>
      <trkpt lat="43.350846" lon="-5.121587">
        <ele>63.508</ele>
        <time>2021-10-15T07:22:02Z</time>
      </trkpt>
      <trkpt lat="43.350842" lon="-5.121484">
        <ele>63.511</ele>
        <time>2021-10-15T07:22:03Z</time>
      </trkpt>
      <trkpt lat="43.350836" lon="-5.121292">
        <ele>63.539</ele>
        <time>2021-10-15T07:22:05Z</time>
      </trkpt>
      <trkpt lat="43.350832" lon="-5.121195">
        <ele>63.527</ele>
        <time>2021-10-15T07:22:06Z</time>
      </trkpt>
      <trkpt lat="43.350822" lon="-5.120974">
        <ele>63.561</ele>
        <time>2021-10-15T07:22:08Z</time>
      </trkpt>
      <trkpt lat="43.350817" lon="-5.120848">
        <ele>63.526</ele>
        <time>2021-10-15T07:22:09Z</time>
      </trkpt>
      <trkpt lat="43.350804" lon="-5.120561">
        <ele>63.584</ele>
        <time>2021-10-15T07:22:11Z</time>
      </trkpt>
      <trkpt lat="43.350791" lon="-5.120260">
        <ele>63.597</ele>
        <time>2021-10-15T07:22:13Z</time>
      </trkpt>
      <trkpt lat="43.350774" lon="-5.119957">
        <ele>63.522</ele>
        <time>2021-10-15T07:22:15Z</time>
      </trkpt>
      <trkpt lat="43.350751" lon="-5.119640">
        <ele>13.619</ele>
        <time>2021-10-15T07:22:17Z</time>
      </trkpt>
      <trkpt lat="43.350727" lon="-5.119321">
        <ele>11.709</ele>
        <time>2021-10-15T07:22:19Z</time>
      </trkpt>
      <trkpt lat="43.350706" lon="-5.119020">
        <ele>11.719</ele>
        <time>2021-10-15T07:22:21Z</time>
      </trkpt>
      <trkpt lat="43.350681" lon="-5.118720">
        <ele>14.308</ele>
        <time>2021-10-15T07:22:23Z</time>
      </trkpt>
      <trkpt lat="43.350644" lon="-5.118413">
        <ele>12.389</ele>
        <time>2021-10-15T07:22:25Z</time>
      </trkpt>
      <trkpt lat="43.350619" lon="-5.118256">
        <ele>12.357</ele>
        <time>2021-10-15T07:22:26Z</time>
      </trkpt>
      <trkpt lat="43.350563" lon="-5.117940">
        <ele>13.775</ele>
        <time>2021-10-15T07:22:28Z</time>
      </trkpt>
      <trkpt lat="43.350533" lon="-5.117780">
        <ele>11.669</ele>
        <time>2021-10-15T07:22:29Z</time>
      </trkpt>
      <trkpt lat="43.350500" lon="-5.117614">
        <ele>13.794</ele>
        <time>2021-10-15T07:22:30Z</time>
      </trkpt>
      <trkpt lat="43.350468" lon="-5.117446">
        <ele>11.682</ele>
        <time>2021-10-15T07:22:31Z</time>
      </trkpt>
      <trkpt lat="43.350411" lon="-5.117091">
        <ele>13.085</ele>
        <time>2021-10-15T07:22:33Z</time>
      </trkpt>
      <trkpt lat="43.350372" lon="-5.116707">
        <ele>12.530</ele>
        <time>2021-10-15T07:22:35Z</time>
      </trkpt>
      <trkpt lat="43.350362" lon="-5.116297">
        <ele>14.736</ele>
        <time>2021-10-15T07:22:37Z</time>
      </trkpt>
      <trkpt lat="43.350367" lon="-5.116084">
        <ele>14.317</ele>
        <time>2021-10-15T07:22:38Z</time>
      </trkpt>
      <trkpt lat="43.350390" lon="-5.115673">
        <ele>13.918</ele>
        <time>2021-10-15T07:22:40Z</time>
      </trkpt>
      <trkpt lat="43.350404" lon="-5.115465">
        <ele>14.408</ele>
        <time>2021-10-15T07:22:41Z</time>
      </trkpt>
      <trkpt lat="43.350416" lon="-5.115254">
        <ele>13.921</ele>
        <time>2021-10-15T07:22:42Z</time>
      </trkpt>
      <trkpt lat="43.350427" lon="-5.115041">
        <ele>14.229</ele>
        <time>2021-10-15T07:22:43Z</time>
      </trkpt>
      <trkpt lat="43.350447" lon="-5.114622">
        <ele>14.157</ele>
        <time>2021-10-15T07:22:45Z</time>
      </trkpt>
      <trkpt lat="43.350457" lon="-5.114408">
        <ele>13.421</ele>
        <time>2021-10-15T07:22:46Z</time>
      </trkpt>
      <trkpt lat="43.350472" lon="-5.114008">
        <ele>14.996</ele>
        <time>2021-10-15T07:22:48Z</time>
      </trkpt>
      <trkpt lat="43.350480" lon="-5.113632">
        <ele>15.044</ele>
        <time>2021-10-15T07:22:50Z</time>
      </trkpt>
      <trkpt lat="43.350485" lon="-5.113272">
        <ele>15.087</ele>
        <time>2021-10-15T07:22:52Z</time>
      </trkpt>
      <trkpt lat="43.350481" lon="-5.112910">
        <ele>15.692</ele>
        <time>2021-10-15T07:22:54Z</time>
      </trkpt>
      <trkpt lat="43.350465" lon="-5.112543">
        <ele>15.668</ele>
        <time>2021-10-15T07:22:56Z</time>
      </trkpt>
      <trkpt lat="43.350440" lon="-5.112174">
        <ele>17.342</ele>
        <time>2021-10-15T07:22:58Z</time>
      </trkpt>
      <trkpt lat="43.350413" lon="-5.111810">
        <ele>18.026</ele>
        <time>2021-10-15T07:23:00Z</time>
      </trkpt>
      <trkpt lat="43.350399" lon="-5.111643">
        <ele>17.408</ele>
        <time>2021-10-15T07:23:01Z</time>
      </trkpt>
      <trkpt lat="43.350374" lon="-5.111340">
        <ele>17.164</ele>
        <time>2021-10-15T07:23:03Z</time>
      </trkpt>
      <trkpt lat="43.350361" lon="-5.111183">
        <ele>17.352</ele>
        <time>2021-10-15T07:23:04Z</time>
      </trkpt>
      <trkpt lat="43.350352" lon="-5.111026">
        <ele>16.770</ele>
        <time>2021-10-15T07:23:05Z</time>
      </trkpt>
      <trkpt lat="43.350357" lon="-5.110711">
        <ele>17.274</ele>
        <time>2021-10-15T07:23:07Z</time>
      </trkpt>
      <trkpt lat="43.350374" lon="-5.110536">
        <ele>18.759</ele>
        <time>2021-10-15T07:23:08Z</time>
      </trkpt>
      <trkpt lat="43.350434" lon="-5.110199">
        <ele>18.797</ele>
        <time>2021-10-15T07:23:10Z</time>
      </trkpt>
      <trkpt lat="43.350515" lon="-5.109927">
        <ele>18.740</ele>
        <time>2021-10-15T07:23:12Z</time>
      </trkpt>
      <trkpt lat="43.350575" lon="-5.109693">
        <ele>17.715</ele>
        <time>2021-10-15T07:23:14Z</time>
      </trkpt>
      <trkpt lat="43.350567" lon="-5.109447">
        <ele>18.892</ele>
        <time>2021-10-15T07:23:16Z</time>
      </trkpt>
      <trkpt lat="43.350573" lon="-5.109174">
        <ele>19.873</ele>
        <time>2021-10-15T07:23:18Z</time>
      </trkpt>
      <trkpt lat="43.350576" lon="-5.109043">
        <ele>19.220</ele>
        <time>2021-10-15T07:23:19Z</time>
      </trkpt>
      <trkpt lat="43.350562" lon="-5.108915">
        <ele>20.308</ele>
        <time>2021-10-15T07:23:20Z</time>
      </trkpt>
      <trkpt lat="43.350528" lon="-5.108784">
        <ele>19.827</ele>
        <time>2021-10-15T07:23:21Z</time>
      </trkpt>
      <trkpt lat="43.350434" lon="-5.108496">
        <ele>19.825</ele>
        <time>2021-10-15T07:23:23Z</time>
      </trkpt>
      <trkpt lat="43.350340" lon="-5.108159">
        <ele>20.393</ele>
        <time>2021-10-15T07:23:25Z</time>
      </trkpt>
      <trkpt lat="43.350300" lon="-5.107969">
        <ele>20.197</ele>
        <time>2021-10-15T07:23:26Z</time>
      </trkpt>
      <trkpt lat="43.350262" lon="-5.107772">
        <ele>17.812</ele>
        <time>2021-10-15T07:23:27Z</time>
      </trkpt>
      <trkpt lat="43.350197" lon="-5.107361">
        <ele>18.470</ele>
        <time>2021-10-15T07:23:29Z</time>
      </trkpt>
      <trkpt lat="43.350163" lon="-5.107149">
        <ele>20.633</ele>
        <time>2021-10-15T07:23:30Z</time>
      </trkpt>
      <trkpt lat="43.350096" lon="-5.106728">
        <ele>18.598</ele>
        <time>2021-10-15T07:23:32Z</time>
      </trkpt>
      <trkpt lat="43.350028" lon="-5.106298">
        <ele>20.761</ele>
        <time>2021-10-15T07:23:34Z</time>
      </trkpt>
      <trkpt lat="43.349957" lon="-5.105864">
        <ele>22.221</ele>
        <time>2021-10-15T07:23:36Z</time>
      </trkpt>
      <trkpt lat="43.349885" lon="-5.105451">
        <ele>22.713</ele>
        <time>2021-10-15T07:23:38Z</time>
      </trkpt>
      <trkpt lat="43.349847" lon="-5.105250">
        <ele>23.108</ele>
        <time>2021-10-15T07:23:39Z</time>
      </trkpt>
      <trkpt lat="43.349775" lon="-5.104850">
        <ele>21.664</ele>
        <time>2021-10-15T07:23:41Z</time>
      </trkpt>
      <trkpt lat="43.349738" lon="-5.104646">
        <ele>21.892</ele>
        <time>2021-10-15T07:23:42Z</time>
      </trkpt>
      <trkpt lat="43.349667" lon="-5.104230">
        <ele>22.460</ele>
        <time>2021-10-15T07:23:44Z</time>
      </trkpt>
      <trkpt lat="43.349633" lon="-5.104021">
        <ele>22.544</ele>
        <time>2021-10-15T07:23:45Z</time>
      </trkpt>
      <trkpt lat="43.349562" lon="-5.103599">
        <ele>22.459</ele>
        <time>2021-10-15T07:23:47Z</time>
      </trkpt>
      <trkpt lat="43.349528" lon="-5.103386">
        <ele>20.827</ele>
        <time>2021-10-15T07:23:48Z</time>
      </trkpt>
      <trkpt lat="43.349497" lon="-5.103171">
        <ele>19.520</ele>
        <time>2021-10-15T07:23:49Z</time>
      </trkpt>
      <trkpt lat="43.349449" lon="-5.102733">
        <ele>21.825</ele>
        <time>2021-10-15T07:23:51Z</time>
      </trkpt>
      <trkpt lat="43.349428" lon="-5.102299">
        <ele>20.011</ele>
        <time>2021-10-15T07:23:53Z</time>
      </trkpt>
      <trkpt lat="43.349431" lon="-5.102093">
        <ele>19.921</ele>
        <time>2021-10-15T07:23:54Z</time>
      </trkpt>
      <trkpt lat="43.349442" lon="-5.101891">
        <ele>20.103</ele>
        <time>2021-10-15T07:23:55Z</time>
      </trkpt>
      <trkpt lat="43.349455" lon="-5.101694">
        <ele>20.408</ele>
        <time>2021-10-15T07:23:56Z</time>
      </trkpt>
      <trkpt lat="43.349474" lon="-5.101498">
        <ele>18.999</ele>
        <time>2021-10-15T07:23:57Z</time>
      </trkpt>
      <trkpt lat="43.349497" lon="-5.101303">
        <ele>19.037</ele>
        <time>2021-10-15T07:23:58Z</time>
      </trkpt>
      <trkpt lat="43.349521" lon="-5.101108">
        <ele>21.025</ele>
        <time>2021-10-15T07:23:59Z</time>
      </trkpt>
      <trkpt lat="43.349576" lon="-5.100722">
        <ele>20.469</ele>
        <time>2021-10-15T07:24:01Z</time>
      </trkpt>
      <trkpt lat="43.349631" lon="-5.100326">
        <ele>22.444</ele>
        <time>2021-10-15T07:24:03Z</time>
      </trkpt>
      <trkpt lat="43.349681" lon="-5.099925">
        <ele>22.312</ele>
        <time>2021-10-15T07:24:05Z</time>
      </trkpt>
      <trkpt lat="43.349743" lon="-5.099516">
        <ele>21.545</ele>
        <time>2021-10-15T07:24:07Z</time>
      </trkpt>
      <trkpt lat="43.349820" lon="-5.099109">
        <ele>23.430</ele>
        <time>2021-10-15T07:24:09Z</time>
      </trkpt>
      <trkpt lat="43.349864" lon="-5.098905">
        <ele>24.934</ele>
        <time>2021-10-15T07:24:10Z</time>
      </trkpt>
      <trkpt lat="43.349965" lon="-5.098506">
        <ele>23.855</ele>
        <time>2021-10-15T07:24:12Z</time>
      </trkpt>
      <trkpt lat="43.350020" lon="-5.098313">
        <ele>23.210</ele>
        <time>2021-10-15T07:24:13Z</time>
      </trkpt>
      <trkpt lat="43.350131" lon="-5.097943">
        <ele>23.208</ele>
        <time>2021-10-15T07:24:15Z</time>
      </trkpt>
      <trkpt lat="43.350187" lon="-5.097763">
        <ele>22.731</ele>
        <time>2021-10-15T07:24:16Z</time>
      </trkpt>
      <trkpt lat="43.350242" lon="-5.097588">
        <ele>24.999</ele>
        <time>2021-10-15T07:24:17Z</time>
      </trkpt>
      <trkpt lat="43.350358" lon="-5.097240">
        <ele>26.687</ele>
        <time>2021-10-15T07:24:19Z</time>
      </trkpt>
      <trkpt lat="43.350417" lon="-5.097067">
        <ele>26.451</ele>
        <time>2021-10-15T07:24:20Z</time>
      </trkpt>
      <trkpt lat="43.350475" lon="-5.096893">
        <ele>26.326</ele>
        <time>2021-10-15T07:24:21Z</time>
      </trkpt>
      <trkpt lat="43.350578" lon="-5.096520">
        <ele>26.934</ele>
        <time>2021-10-15T07:24:23Z</time>
      </trkpt>
      <trkpt lat="43.350646" lon="-5.096109">
        <ele>27.957</ele>
        <time>2021-10-15T07:24:25Z</time>
      </trkpt>
      <trkpt lat="43.350666" lon="-5.095897">
        <ele>27.042</ele>
        <time>2021-10-15T07:24:26Z</time>
      </trkpt>
      <trkpt lat="43.350660" lon="-5.095491">
        <ele>26.673</ele>
        <time>2021-10-15T07:24:28Z</time>
      </trkpt>
      <trkpt lat="43.350603" lon="-5.095110">
        <ele>25.585</ele>
        <time>2021-10-15T07:24:30Z</time>
      </trkpt>
      <trkpt lat="43.350559" lon="-5.094925">
        <ele>26.013</ele>
        <time>2021-10-15T07:24:31Z</time>
      </trkpt>
      <trkpt lat="43.350443" lon="-5.094568">
        <ele>24.008</ele>
        <time>2021-10-15T07:24:33Z</time>
      </trkpt>
      <trkpt lat="43.350370" lon="-5.094397">
        <ele>25.555</ele>
        <time>2021-10-15T07:24:34Z</time>
      </trkpt>
      <trkpt lat="43.350206" lon="-5.094066">
        <ele>24.063</ele>
        <time>2021-10-15T07:24:36Z</time>
      </trkpt>
      <trkpt lat="43.350119" lon="-5.093903">
        <ele>25.711</ele>
        <time>2021-10-15T07:24:37Z</time>
      </trkpt>
      <trkpt lat="43.349942" lon="-5.093578">
        <ele>26.545</ele>
        <time>2021-10-15T07:24:39Z</time>
      </trkpt>
      <trkpt lat="43.349761" lon="-5.093245">
        <ele>27.450</ele>
        <time>2021-10-15T07:24:41Z</time>
      </trkpt>
      <trkpt lat="43.349569" lon="-5.092902">
        <ele>25.538</ele>
        <time>2021-10-15T07:24:43Z</time>
      </trkpt>
      <trkpt lat="43.349470" lon="-5.092725">
        <ele>26.121</ele>
        <time>2021-10-15T07:24:44Z</time>
      </trkpt>
      <trkpt lat="43.349369" lon="-5.092546">
        <ele>26.576</ele>
        <time>2021-10-15T07:24:45Z</time>
      </trkpt>
      <trkpt lat="43.349163" lon="-5.092172">
        <ele>29.131</ele>
        <time>2021-10-15T07:24:47Z</time>
      </trkpt>
      <trkpt lat="43.348952" lon="-5.091797">
        <ele>26.661</ele>
        <time>2021-10-15T07:24:49Z</time>
      </trkpt>
      <trkpt lat="43.348749" lon="-5.091436">
        <ele>28.007</ele>
        <time>2021-10-15T07:24:51Z</time>
      </trkpt>
      <trkpt lat="43.348656" lon="-5.091264">
        <ele>27.408</ele>
        <time>2021-10-15T07:24:52Z</time>
      </trkpt>
      <trkpt lat="43.348485" lon="-5.090938">
        <ele>27.151</ele>
        <time>2021-10-15T07:24:54Z</time>
      </trkpt>
      <trkpt lat="43.348319" lon="-5.090613">
        <ele>26.329</ele>
        <time>2021-10-15T07:24:56Z</time>
      </trkpt>
      <trkpt lat="43.348237" lon="-5.090443">
        <ele>27.257</ele>
        <time>2021-10-15T07:24:57Z</time>
      </trkpt>
      <trkpt lat="43.348151" lon="-5.090258">
        <ele>27.851</ele>
        <time>2021-10-15T07:24:58Z</time>
      </trkpt>
      <trkpt lat="43.348064" lon="-5.090068">
        <ele>28.826</ele>
        <time>2021-10-15T07:24:59Z</time>
      </trkpt>
      <trkpt lat="43.347901" lon="-5.089671">
        <ele>28.974</ele>
        <time>2021-10-15T07:25:01Z</time>
      </trkpt>
      <trkpt lat="43.347822" lon="-5.089464">
        <ele>29.027</ele>
        <time>2021-10-15T07:25:02Z</time>
      </trkpt>
      <trkpt lat="43.347744" lon="-5.089262">
        <ele>29.772</ele>
        <time>2021-10-15T07:25:03Z</time>
      </trkpt>
      <trkpt lat="43.347590" lon="-5.088865">
        <ele>29.712</ele>
        <time>2021-10-15T07:25:05Z</time>
      </trkpt>
      <trkpt lat="43.347437" lon="-5.088484">
        <ele>29.332</ele>
        <time>2021-10-15T07:25:07Z</time>
      </trkpt>
      <trkpt lat="43.347303" lon="-5.088144">
        <ele>29.605</ele>
        <time>2021-10-15T07:25:09Z</time>
      </trkpt>
      <trkpt lat="43.347197" lon="-5.087831">
        <ele>29.708</ele>
        <time>2021-10-15T07:25:11Z</time>
      </trkpt>
      <trkpt lat="43.347148" lon="-5.087677">
        <ele>29.729</ele>
        <time>2021-10-15T07:25:12Z</time>
      </trkpt>
      <trkpt lat="43.347065" lon="-5.087384">
        <ele>30.087</ele>
        <time>2021-10-15T07:25:14Z</time>
      </trkpt>
      <trkpt lat="43.346998" lon="-5.087098">
        <ele>30.275</ele>
        <time>2021-10-15T07:25:16Z</time>
      </trkpt>
      <trkpt lat="43.346954" lon="-5.086842">
        <ele>31.489</ele>
        <time>2021-10-15T07:25:18Z</time>
      </trkpt>
      <trkpt lat="43.346906" lon="-5.086618">
        <ele>29.844</ele>
        <time>2021-10-15T07:25:20Z</time>
      </trkpt>
      <trkpt lat="43.346808" lon="-5.086441">
        <ele>29.522</ele>
        <time>2021-10-15T07:25:22Z</time>
      </trkpt>
      <trkpt lat="43.346740" lon="-5.086371">
        <ele>29.375</ele>
        <time>2021-10-15T07:25:23Z</time>
      </trkpt>
      <trkpt lat="43.346670" lon="-5.086298">
        <ele>30.380</ele>
        <time>2021-10-15T07:25:24Z</time>
      </trkpt>
      <trkpt lat="43.346535" lon="-5.086117">
        <ele>30.761</ele>
        <time>2021-10-15T07:25:26Z</time>
      </trkpt>
      <trkpt lat="43.346458" lon="-5.086024">
        <ele>30.421</ele>
        <time>2021-10-15T07:25:27Z</time>
      </trkpt>
      <trkpt lat="43.346264" lon="-5.085880">
        <ele>30.813</ele>
        <time>2021-10-15T07:25:29Z</time>
      </trkpt>
      <trkpt lat="43.346152" lon="-5.085821">
        <ele>30.808</ele>
        <time>2021-10-15T07:25:30Z</time>
      </trkpt>
      <trkpt lat="43.346037" lon="-5.085746">
        <ele>30.234</ele>
        <time>2021-10-15T07:25:31Z</time>
      </trkpt>
      <trkpt lat="43.345798" lon="-5.085535">
        <ele>29.342</ele>
        <time>2021-10-15T07:25:33Z</time>
      </trkpt>
      <trkpt lat="43.345667" lon="-5.085412">
        <ele>29.680</ele>
        <time>2021-10-15T07:25:34Z</time>
      </trkpt>
      <trkpt lat="43.345530" lon="-5.085288">
        <ele>29.784</ele>
        <time>2021-10-15T07:25:35Z</time>
      </trkpt>
      <trkpt lat="43.345393" lon="-5.085164">
        <ele>30.099</ele>
        <time>2021-10-15T07:25:36Z</time>
      </trkpt>
      <trkpt lat="43.345257" lon="-5.085042">
        <ele>30.677</ele>
        <time>2021-10-15T07:25:37Z</time>
      </trkpt>
      <trkpt lat="43.345020" lon="-5.084824">
        <ele>31.190</ele>
        <time>2021-10-15T07:25:39Z</time>
      </trkpt>
      <trkpt lat="43.344817" lon="-5.084604">
        <ele>31.145</ele>
        <time>2021-10-15T07:25:41Z</time>
      </trkpt>
      <trkpt lat="43.344726" lon="-5.084477">
        <ele>30.759</ele>
        <time>2021-10-15T07:25:42Z</time>
      </trkpt>
      <trkpt lat="43.344568" lon="-5.084226">
        <ele>30.503</ele>
        <time>2021-10-15T07:25:44Z</time>
      </trkpt>
      <trkpt lat="43.344494" lon="-5.084119">
        <ele>32.923</ele>
        <time>2021-10-15T07:25:45Z</time>
      </trkpt>
      <trkpt lat="43.344417" lon="-5.084030">
        <ele>32.908</ele>
        <time>2021-10-15T07:25:46Z</time>
      </trkpt>
      <trkpt lat="43.344247" lon="-5.083925">
        <ele>30.793</ele>
        <time>2021-10-15T07:25:48Z</time>
      </trkpt>
      <trkpt lat="43.344150" lon="-5.083884">
        <ele>30.731</ele>
        <time>2021-10-15T07:25:49Z</time>
      </trkpt>
      <trkpt lat="43.343926" lon="-5.083815">
        <ele>31.799</ele>
        <time>2021-10-15T07:25:51Z</time>
      </trkpt>
      <trkpt lat="43.343802" lon="-5.083804">
        <ele>30.553</ele>
        <time>2021-10-15T07:25:52Z</time>
      </trkpt>
      <trkpt lat="43.343540" lon="-5.083839">
        <ele>31.278</ele>
        <time>2021-10-15T07:25:54Z</time>
      </trkpt>
      <trkpt lat="43.343396" lon="-5.083862">
        <ele>31.216</ele>
        <time>2021-10-15T07:25:55Z</time>
      </trkpt>
      <trkpt lat="43.343106" lon="-5.083902">
        <ele>31.219</ele>
        <time>2021-10-15T07:25:57Z</time>
      </trkpt>
      <trkpt lat="43.342828" lon="-5.083941">
        <ele>33.324</ele>
        <time>2021-10-15T07:25:59Z</time>
      </trkpt>
      <trkpt lat="43.342543" lon="-5.083981">
        <ele>33.797</ele>
        <time>2021-10-15T07:26:01Z</time>
      </trkpt>
      <trkpt lat="43.342255" lon="-5.084050">
        <ele>34.123</ele>
        <time>2021-10-15T07:26:03Z</time>
      </trkpt>
      <trkpt lat="43.342113" lon="-5.084100">
        <ele>35.125</ele>
        <time>2021-10-15T07:26:04Z</time>
      </trkpt>
      <trkpt lat="43.341827" lon="-5.084213">
        <ele>36.608</ele>
        <time>2021-10-15T07:26:06Z</time>
      </trkpt>
      <trkpt lat="43.341544" lon="-5.084316">
        <ele>35.887</ele>
        <time>2021-10-15T07:26:08Z</time>
      </trkpt>
      <trkpt lat="43.341399" lon="-5.084368">
        <ele>36.315</ele>
        <time>2021-10-15T07:26:09Z</time>
      </trkpt>
      <trkpt lat="43.341119" lon="-5.084473">
        <ele>36.913</ele>
        <time>2021-10-15T07:26:11Z</time>
      </trkpt>
      <trkpt lat="43.340841" lon="-5.084563">
        <ele>38.887</ele>
        <time>2021-10-15T07:26:13Z</time>
      </trkpt>
      <trkpt lat="43.340560" lon="-5.084611">
        <ele>38.842</ele>
        <time>2021-10-15T07:26:15Z</time>
      </trkpt>
      <trkpt lat="43.340419" lon="-5.084629">
        <ele>39.570</ele>
        <time>2021-10-15T07:26:16Z</time>
      </trkpt>
      <trkpt lat="43.340277" lon="-5.084642">
        <ele>39.693</ele>
        <time>2021-10-15T07:26:17Z</time>
      </trkpt>
      <trkpt lat="43.339985" lon="-5.084651">
        <ele>41.228</ele>
        <time>2021-10-15T07:26:19Z</time>
      </trkpt>
      <trkpt lat="43.339681" lon="-5.084622">
        <ele>41.148</ele>
        <time>2021-10-15T07:26:21Z</time>
      </trkpt>
      <trkpt lat="43.339524" lon="-5.084591">
        <ele>40.861</ele>
        <time>2021-10-15T07:26:22Z</time>
      </trkpt>
      <trkpt lat="43.339365" lon="-5.084557">
        <ele>41.517</ele>
        <time>2021-10-15T07:26:23Z</time>
      </trkpt>
      <trkpt lat="43.339204" lon="-5.084520">
        <ele>41.408</ele>
        <time>2021-10-15T07:26:24Z</time>
      </trkpt>
      <trkpt lat="43.338875" lon="-5.084442">
        <ele>41.332</ele>
        <time>2021-10-15T07:26:26Z</time>
      </trkpt>
      <trkpt lat="43.338531" lon="-5.084369">
        <ele>41.970</ele>
        <time>2021-10-15T07:26:28Z</time>
      </trkpt>
      <trkpt lat="43.338352" lon="-5.084332">
        <ele>41.748</ele>
        <time>2021-10-15T07:26:29Z</time>
      </trkpt>
      <trkpt lat="43.337988" lon="-5.084257">
        <ele>42.742</ele>
        <time>2021-10-15T07:26:31Z</time>
      </trkpt>
      <trkpt lat="43.337804" lon="-5.084221">
        <ele>43.167</ele>
        <time>2021-10-15T07:26:32Z</time>
      </trkpt>
      <trkpt lat="43.337438" lon="-5.084141">
        <ele>43.475</ele>
        <time>2021-10-15T07:26:34Z</time>
      </trkpt>
      <trkpt lat="43.337079" lon="-5.084063">
        <ele>45.798</ele>
        <time>2021-10-15T07:26:36Z</time>
      </trkpt>
      <trkpt lat="43.336760" lon="-5.083999">
        <ele>46.083</ele>
        <time>2021-10-15T07:26:38Z</time>
      </trkpt>
      <trkpt lat="43.336603" lon="-5.083962">
        <ele>46.984</ele>
        <time>2021-10-15T07:26:39Z</time>
      </trkpt>
      <trkpt lat="43.336287" lon="-5.083886">
        <ele>46.907</ele>
        <time>2021-10-15T07:26:41Z</time>
      </trkpt>
      <trkpt lat="43.336126" lon="-5.083847">
        <ele>48.517</ele>
        <time>2021-10-15T07:26:42Z</time>
      </trkpt>
      <trkpt lat="43.335804" lon="-5.083774">
        <ele>48.708</ele>
        <time>2021-10-15T07:26:44Z</time>
      </trkpt>
      <trkpt lat="43.335641" lon="-5.083739">
        <ele>48.236</ele>
        <time>2021-10-15T07:26:45Z</time>
      </trkpt>
      <trkpt lat="43.335477" lon="-5.083707">
        <ele>48.544</ele>
        <time>2021-10-15T07:26:46Z</time>
      </trkpt>
      <trkpt lat="43.335148" lon="-5.083639">
        <ele>48.842</ele>
        <time>2021-10-15T07:26:48Z</time>
      </trkpt>
      <trkpt lat="43.334808" lon="-5.083569">
        <ele>48.916</ele>
        <time>2021-10-15T07:26:50Z</time>
      </trkpt>
      <trkpt lat="43.334459" lon="-5.083496">
        <ele>49.551</ele>
        <time>2021-10-15T07:26:52Z</time>
      </trkpt>
      <trkpt lat="43.334104" lon="-5.083414">
        <ele>50.419</ele>
        <time>2021-10-15T07:26:54Z</time>
      </trkpt>
      <trkpt lat="43.333927" lon="-5.083373">
        <ele>50.782</ele>
        <time>2021-10-15T07:26:55Z</time>
      </trkpt>
      <trkpt lat="43.333750" lon="-5.083328">
        <ele>51.617</ele>
        <time>2021-10-15T07:26:56Z</time>
      </trkpt>
      <trkpt lat="43.333391" lon="-5.083253">
        <ele>52.045</ele>
        <time>2021-10-15T07:26:58Z</time>
      </trkpt>
      <trkpt lat="43.333204" lon="-5.083220">
        <ele>51.847</ele>
        <time>2021-10-15T07:26:59Z</time>
      </trkpt>
      <trkpt lat="43.332832" lon="-5.083142">
        <ele>50.911</ele>
        <time>2021-10-15T07:27:01Z</time>
      </trkpt>
      <trkpt lat="43.332655" lon="-5.083094">
        <ele>51.608</ele>
        <time>2021-10-15T07:27:02Z</time>
      </trkpt>
      <trkpt lat="43.332342" lon="-5.082948">
        <ele>50.932</ele>
        <time>2021-10-15T07:27:04Z</time>
      </trkpt>
      <trkpt lat="43.332195" lon="-5.082845">
        <ele>51.290</ele>
        <time>2021-10-15T07:27:05Z</time>
      </trkpt>
      <trkpt lat="43.331944" lon="-5.082547">
        <ele>51.518</ele>
        <time>2021-10-15T07:27:07Z</time>
      </trkpt>
      <trkpt lat="43.331728" lon="-5.082157">
        <ele>53.012</ele>
        <time>2021-10-15T07:27:09Z</time>
      </trkpt>
      <trkpt lat="43.331625" lon="-5.081947">
        <ele>53.177</ele>
        <time>2021-10-15T07:27:10Z</time>
      </trkpt>
      <trkpt lat="43.331522" lon="-5.081732">
        <ele>53.485</ele>
        <time>2021-10-15T07:27:11Z</time>
      </trkpt>
      <trkpt lat="43.331327" lon="-5.081308">
        <ele>53.998</ele>
        <time>2021-10-15T07:27:13Z</time>
      </trkpt>
      <trkpt lat="43.331234" lon="-5.081125">
        <ele>56.093</ele>
        <time>2021-10-15T07:27:14Z</time>
      </trkpt>
      <trkpt lat="43.331019" lon="-5.080843">
        <ele>55.476</ele>
        <time>2021-10-15T07:27:16Z</time>
      </trkpt>
      <trkpt lat="43.330775" lon="-5.080696">
        <ele>57.490</ele>
        <time>2021-10-15T07:27:18Z</time>
      </trkpt>
      <trkpt lat="43.330520" lon="-5.080675">
        <ele>58.219</ele>
        <time>2021-10-15T07:27:20Z</time>
      </trkpt>
      <trkpt lat="43.330255" lon="-5.080812">
        <ele>58.608</ele>
        <time>2021-10-15T07:27:22Z</time>
      </trkpt>
      <trkpt lat="43.330121" lon="-5.080925">
        <ele>60.215</ele>
        <time>2021-10-15T07:27:23Z</time>
      </trkpt>
      <trkpt lat="43.329989" lon="-5.081046">
        <ele>59.873</ele>
        <time>2021-10-15T07:27:24Z</time>
      </trkpt>
      <trkpt lat="43.329860" lon="-5.081162">
        <ele>59.271</ele>
        <time>2021-10-15T07:27:25Z</time>
      </trkpt>
      <trkpt lat="43.329615" lon="-5.081342">
        <ele>59.395</ele>
        <time>2021-10-15T07:27:27Z</time>
      </trkpt>
      <trkpt lat="43.329374" lon="-5.081400">
        <ele>58.380</ele>
        <time>2021-10-15T07:27:29Z</time>
      </trkpt>
      <trkpt lat="43.329243" lon="-5.081386">
        <ele>58.388</ele>
        <time>2021-10-15T07:27:30Z</time>
      </trkpt>
      <trkpt lat="43.328966" lon="-5.081301">
        <ele>60.071</ele>
        <time>2021-10-15T07:27:32Z</time>
      </trkpt>
      <trkpt lat="43.328824" lon="-5.081230">
        <ele>59.826</ele>
        <time>2021-10-15T07:27:33Z</time>
      </trkpt>
      <trkpt lat="43.328690" lon="-5.081146">
        <ele>59.799</ele>
        <time>2021-10-15T07:27:34Z</time>
      </trkpt>
      <trkpt lat="43.328467" lon="-5.080961">
        <ele>60.507</ele>
        <time>2021-10-15T07:27:36Z</time>
      </trkpt>
      <trkpt lat="43.328377" lon="-5.080841">
        <ele>60.827</ele>
        <time>2021-10-15T07:27:37Z</time>
      </trkpt>
      <trkpt lat="43.328296" lon="-5.080701">
        <ele>62.108</ele>
        <time>2021-10-15T07:27:38Z</time>
      </trkpt>
      <trkpt lat="43.328146" lon="-5.080384">
        <ele>62.577</ele>
        <time>2021-10-15T07:27:40Z</time>
      </trkpt>
      <trkpt lat="43.327970" lon="-5.080053">
        <ele>63.485</ele>
        <time>2021-10-15T07:27:42Z</time>
      </trkpt>
      <trkpt lat="43.327759" lon="-5.079754">
        <ele>63.573</ele>
        <time>2021-10-15T07:27:44Z</time>
      </trkpt>
      <trkpt lat="43.327505" lon="-5.079545">
        <ele>65.127</ele>
        <time>2021-10-15T07:27:46Z</time>
      </trkpt>
      <trkpt lat="43.327363" lon="-5.079474">
        <ele>66.582</ele>
        <time>2021-10-15T07:27:47Z</time>
      </trkpt>
      <trkpt lat="43.327075" lon="-5.079375">
        <ele>66.820</ele>
        <time>2021-10-15T07:27:49Z</time>
      </trkpt>
      <trkpt lat="43.326932" lon="-5.079327">
        <ele>67.773</ele>
        <time>2021-10-15T07:27:50Z</time>
      </trkpt>
      <trkpt lat="43.326790" lon="-5.079286">
        <ele>67.328</ele>
        <time>2021-10-15T07:27:51Z</time>
      </trkpt>
      <trkpt lat="43.326501" lon="-5.079208">
        <ele>67.547</ele>
        <time>2021-10-15T07:27:53Z</time>
      </trkpt>
      <trkpt lat="43.326228" lon="-5.079133">
        <ele>68.729</ele>
        <time>2021-10-15T07:27:55Z</time>
      </trkpt>
      <trkpt lat="43.325956" lon="-5.079077">
        <ele>68.921</ele>
        <time>2021-10-15T07:27:57Z</time>
      </trkpt>
      <trkpt lat="43.325672" lon="-5.079060">
        <ele>68.508</ele>
        <time>2021-10-15T07:27:59Z</time>
      </trkpt>
      <trkpt lat="43.325538" lon="-5.079065">
        <ele>69.552</ele>
        <time>2021-10-15T07:28:00Z</time>
      </trkpt>
      <trkpt lat="43.325340" lon="-5.079252">
        <ele>68.610</ele>
        <time>2021-10-15T07:28:02Z</time>
      </trkpt>
      <trkpt lat="43.325266" lon="-5.079399">
        <ele>66.928</ele>
        <time>2021-10-15T07:28:03Z</time>
      </trkpt>
      <trkpt lat="43.325196" lon="-5.079505">
        <ele>65.812</ele>
        <time>2021-10-15T07:28:04Z</time>
      </trkpt>
      <trkpt lat="43.324979" lon="-5.079435">
        <ele>64.287</ele>
        <time>2021-10-15T07:28:06Z</time>
      </trkpt>
      <trkpt lat="43.324859" lon="-5.079218">
        <ele>64.185</ele>
        <time>2021-10-15T07:28:07Z</time>
      </trkpt>
      <trkpt lat="43.324747" lon="-5.078904">
        <ele>63.178</ele>
        <time>2021-10-15T07:28:08Z</time>
      </trkpt>
      <trkpt lat="43.324573" lon="-5.078434">
        <ele>62.593</ele>
        <time>2021-10-15T07:28:10Z</time>
      </trkpt>
      <trkpt lat="43.324476" lon="-5.078292">
        <ele>62.577</ele>
        <time>2021-10-15T07:28:11Z</time>
      </trkpt>
      <trkpt lat="43.324226" lon="-5.078111">
        <ele>62.661</ele>
        <time>2021-10-15T07:28:13Z</time>
      </trkpt>
      <trkpt lat="43.324082" lon="-5.078032">
        <ele>59.827</ele>
        <time>2021-10-15T07:28:14Z</time>
      </trkpt>
      <trkpt lat="43.323792" lon="-5.077960">
        <ele>58.408</ele>
        <time>2021-10-15T07:28:16Z</time>
      </trkpt>
      <trkpt lat="43.323652" lon="-5.077958">
        <ele>59.045</ele>
        <time>2021-10-15T07:28:17Z</time>
      </trkpt>
      <trkpt lat="43.323525" lon="-5.077954">
        <ele>59.683</ele>
        <time>2021-10-15T07:28:18Z</time>
      </trkpt>
      <trkpt lat="43.323290" lon="-5.077838">
        <ele>59.751</ele>
        <time>2021-10-15T07:28:20Z</time>
      </trkpt>
      <trkpt lat="43.323178" lon="-5.077734">
        <ele>59.835</ele>
        <time>2021-10-15T07:28:21Z</time>
      </trkpt>
      <trkpt lat="43.323065" lon="-5.077615">
        <ele>60.940</ele>
        <time>2021-10-15T07:28:22Z</time>
      </trkpt>
      <trkpt lat="43.322844" lon="-5.077354">
        <ele>62.998</ele>
        <time>2021-10-15T07:28:24Z</time>
      </trkpt>
      <trkpt lat="43.322741" lon="-5.077210">
        <ele>64.541</ele>
        <time>2021-10-15T07:28:25Z</time>
      </trkpt>
      <trkpt lat="43.322647" lon="-5.077061">
        <ele>66.576</ele>
        <time>2021-10-15T07:28:26Z</time>
      </trkpt>
      <trkpt lat="43.322473" lon="-5.076764">
        <ele>67.331</ele>
        <time>2021-10-15T07:28:28Z</time>
      </trkpt>
      <trkpt lat="43.322310" lon="-5.076459">
        <ele>69.461</ele>
        <time>2021-10-15T07:28:30Z</time>
      </trkpt>
      <trkpt lat="43.322193" lon="-5.076302">
        <ele>70.807</ele>
        <time>2021-10-15T07:28:31Z</time>
      </trkpt>
      <trkpt lat="43.321775" lon="-5.076094">
        <ele>73.608</ele>
        <time>2021-10-15T07:28:33Z</time>
      </trkpt>
      <trkpt lat="43.321583" lon="-5.075964">
        <ele>75.771</ele>
        <time>2021-10-15T07:28:34Z</time>
      </trkpt>
      <trkpt lat="43.321234" lon="-5.075684">
        <ele>76.819</ele>
        <time>2021-10-15T07:28:36Z</time>
      </trkpt>
      <trkpt lat="43.321076" lon="-5.075537">
        <ele>78.057</ele>
        <time>2021-10-15T07:28:37Z</time>
      </trkpt>
      <trkpt lat="43.320932" lon="-5.075387">
        <ele>79.281</ele>
        <time>2021-10-15T07:28:38Z</time>
      </trkpt>
      <trkpt lat="43.320649" lon="-5.075085">
        <ele>80.546</ele>
        <time>2021-10-15T07:28:40Z</time>
      </trkpt>
      <trkpt lat="43.320377" lon="-5.074755">
        <ele>81.824</ele>
        <time>2021-10-15T07:28:42Z</time>
      </trkpt>
      <trkpt lat="43.320246" lon="-5.074597">
        <ele>83.137</ele>
        <time>2021-10-15T07:28:43Z</time>
      </trkpt>
      <trkpt lat="43.320124" lon="-5.074455">
        <ele>84.392</ele>
        <time>2021-10-15T07:28:44Z</time>
      </trkpt>
      <trkpt lat="43.319867" lon="-5.074242">
        <ele>85.345</ele>
        <time>2021-10-15T07:28:46Z</time>
      </trkpt>
      <trkpt lat="43.319576" lon="-5.074144">
        <ele>89.047</ele>
        <time>2021-10-15T07:28:48Z</time>
      </trkpt>
      <trkpt lat="43.319249" lon="-5.074117">
        <ele>88.011</ele>
        <time>2021-10-15T07:28:50Z</time>
      </trkpt>
      <trkpt lat="43.318925" lon="-5.074041">
        <ele>89.108</ele>
        <time>2021-10-15T07:28:52Z</time>
      </trkpt>
      <trkpt lat="43.318775" lon="-5.073974">
        <ele>89.282</ele>
        <time>2021-10-15T07:28:53Z</time>
      </trkpt>
      <trkpt lat="43.318633" lon="-5.073901">
        <ele>90.490</ele>
        <time>2021-10-15T07:28:54Z</time>
      </trkpt>
      <trkpt lat="43.318493" lon="-5.073832">
        <ele>91.538</ele>
        <time>2021-10-15T07:28:55Z</time>
      </trkpt>
      <trkpt lat="43.318225" lon="-5.073786">
        <ele>94.332</ele>
        <time>2021-10-15T07:28:57Z</time>
      </trkpt>
      <trkpt lat="43.318090" lon="-5.073810">
        <ele>95.677</ele>
        <time>2021-10-15T07:28:58Z</time>
      </trkpt>
      <trkpt lat="43.317959" lon="-5.073844">
        <ele>96.355</ele>
        <time>2021-10-15T07:28:59Z</time>
      </trkpt>
      <trkpt lat="43.317717" lon="-5.073889">
        <ele>98.488</ele>
        <time>2021-10-15T07:29:01Z</time>
      </trkpt>
      <trkpt lat="43.317496" lon="-5.073858">
        <ele>100.373</ele>
        <time>2021-10-15T07:29:03Z</time>
      </trkpt>
      <trkpt lat="43.317391" lon="-5.073814">
        <ele>102.132</ele>
        <time>2021-10-15T07:29:04Z</time>
      </trkpt>
      <trkpt lat="43.317227" lon="-5.073617">
        <ele>103.492</ele>
        <time>2021-10-15T07:29:06Z</time>
      </trkpt>
      <trkpt lat="43.317122" lon="-5.073267">
        <ele>105.411</ele>
        <time>2021-10-15T07:29:08Z</time>
      </trkpt>
      <trkpt lat="43.317019" lon="-5.072874">
        <ele>105.408</ele>
        <time>2021-10-15T07:29:10Z</time>
      </trkpt>
      <trkpt lat="43.316962" lon="-5.072673">
        <ele>104.821</ele>
        <time>2021-10-15T07:29:11Z</time>
      </trkpt>
      <trkpt lat="43.316905" lon="-5.072478">
        <ele>104.829</ele>
        <time>2021-10-15T07:29:12Z</time>
      </trkpt>
      <trkpt lat="43.316852" lon="-5.072293">
        <ele>105.547</ele>
        <time>2021-10-15T07:29:13Z</time>
      </trkpt>
      <trkpt lat="43.316802" lon="-5.072110">
        <ele>105.371</ele>
        <time>2021-10-15T07:29:14Z</time>
      </trkpt>
      <trkpt lat="43.316690" lon="-5.071769">
        <ele>102.796</ele>
        <time>2021-10-15T07:29:16Z</time>
      </trkpt>
      <trkpt lat="43.316626" lon="-5.071611">
        <ele>102.844</ele>
        <time>2021-10-15T07:29:17Z</time>
      </trkpt>
      <trkpt lat="43.316467" lon="-5.071339">
        <ele>103.417</ele>
        <time>2021-10-15T07:29:19Z</time>
      </trkpt>
      <trkpt lat="43.316367" lon="-5.071221">
        <ele>101.472</ele>
        <time>2021-10-15T07:29:20Z</time>
      </trkpt>
      <trkpt lat="43.316157" lon="-5.070990">
        <ele>102.985</ele>
        <time>2021-10-15T07:29:22Z</time>
      </trkpt>
      <trkpt lat="43.315932" lon="-5.070759">
        <ele>102.789</ele>
        <time>2021-10-15T07:29:24Z</time>
      </trkpt>
      <trkpt lat="43.315713" lon="-5.070523">
        <ele>103.917</ele>
        <time>2021-10-15T07:29:26Z</time>
      </trkpt>
      <trkpt lat="43.315519" lon="-5.070270">
        <ele>102.708</ele>
        <time>2021-10-15T07:29:28Z</time>
      </trkpt>
      <trkpt lat="43.315437" lon="-5.070133">
        <ele>102.326</ele>
        <time>2021-10-15T07:29:29Z</time>
      </trkpt>
      <trkpt lat="43.315304" lon="-5.069818">
        <ele>101.494</ele>
        <time>2021-10-15T07:29:31Z</time>
      </trkpt>
      <trkpt lat="43.315198" lon="-5.069441">
        <ele>100.472</ele>
        <time>2021-10-15T07:29:33Z</time>
      </trkpt>
      <trkpt lat="43.315101" lon="-5.069024">
        <ele>97.316</ele>
        <time>2021-10-15T07:29:35Z</time>
      </trkpt>
      <trkpt lat="43.315050" lon="-5.068812">
        <ele>97.951</ele>
        <time>2021-10-15T07:29:36Z</time>
      </trkpt>
      <trkpt lat="43.314933" lon="-5.068387">
        <ele>97.069</ele>
        <time>2021-10-15T07:29:38Z</time>
      </trkpt>
      <trkpt lat="43.314781" lon="-5.067973">
        <ele>95.412</ele>
        <time>2021-10-15T07:29:40Z</time>
      </trkpt>
      <trkpt lat="43.314578" lon="-5.067587">
        <ele>94.627</ele>
        <time>2021-10-15T07:29:42Z</time>
      </trkpt>
      <trkpt lat="43.314360" lon="-5.067291">
        <ele>94.864</ele>
        <time>2021-10-15T07:29:44Z</time>
      </trkpt>
      <trkpt lat="43.314147" lon="-5.067091">
        <ele>95.806</ele>
        <time>2021-10-15T07:29:46Z</time>
      </trkpt>
      <trkpt lat="43.313994" lon="-5.066890">
        <ele>95.616</ele>
        <time>2021-10-15T07:29:48Z</time>
      </trkpt>
      <trkpt lat="43.313921" lon="-5.066621">
        <ele>97.808</ele>
        <time>2021-10-15T07:29:50Z</time>
      </trkpt>
      <trkpt lat="43.313909" lon="-5.066313">
        <ele>98.644</ele>
        <time>2021-10-15T07:29:52Z</time>
      </trkpt>
      <trkpt lat="43.313911" lon="-5.066151">
        <ele>99.342</ele>
        <time>2021-10-15T07:29:53Z</time>
      </trkpt>
      <trkpt lat="43.313909" lon="-5.065985">
        <ele>99.840</ele>
        <time>2021-10-15T07:29:54Z</time>
      </trkpt>
      <trkpt lat="43.313928" lon="-5.065638">
        <ele>100.874</ele>
        <time>2021-10-15T07:29:56Z</time>
      </trkpt>
      <trkpt lat="43.314012" lon="-5.065267">
        <ele>102.139</ele>
        <time>2021-10-15T07:29:58Z</time>
      </trkpt>
      <trkpt lat="43.314142" lon="-5.064901">
        <ele>103.157</ele>
        <time>2021-10-15T07:30:00Z</time>
      </trkpt>
      <trkpt lat="43.314245" lon="-5.064523">
        <ele>102.980</ele>
        <time>2021-10-15T07:30:02Z</time>
      </trkpt>
      <trkpt lat="43.314277" lon="-5.064145">
        <ele>104.345</ele>
        <time>2021-10-15T07:30:04Z</time>
      </trkpt>
      <trkpt lat="43.314263" lon="-5.063973">
        <ele>104.087</ele>
        <time>2021-10-15T07:30:05Z</time>
      </trkpt>
      <trkpt lat="43.314169" lon="-5.063661">
        <ele>103.442</ele>
        <time>2021-10-15T07:30:07Z</time>
      </trkpt>
      <trkpt lat="43.314096" lon="-5.063513">
        <ele>103.626</ele>
        <time>2021-10-15T07:30:08Z</time>
      </trkpt>
      <trkpt lat="43.313959" lon="-5.063198">
        <ele>105.408</ele>
        <time>2021-10-15T07:30:10Z</time>
      </trkpt>
      <trkpt lat="43.313801" lon="-5.062917">
        <ele>105.486</ele>
        <time>2021-10-15T07:30:12Z</time>
      </trkpt>
      <trkpt lat="43.313586" lon="-5.062699">
        <ele>106.594</ele>
        <time>2021-10-15T07:30:14Z</time>
      </trkpt>
      <trkpt lat="43.313332" lon="-5.062475">
        <ele>108.062</ele>
        <time>2021-10-15T07:30:16Z</time>
      </trkpt>
      <trkpt lat="43.313081" lon="-5.062215">
        <ele>108.516</ele>
        <time>2021-10-15T07:30:18Z</time>
      </trkpt>
      <trkpt lat="43.312861" lon="-5.061915">
        <ele>109.641</ele>
        <time>2021-10-15T07:30:20Z</time>
      </trkpt>
      <trkpt lat="43.312672" lon="-5.061611">
        <ele>112.319</ele>
        <time>2021-10-15T07:30:22Z</time>
      </trkpt>
      <trkpt lat="43.312523" lon="-5.061330">
        <ele>111.812</ele>
        <time>2021-10-15T07:30:24Z</time>
      </trkpt>
      <trkpt lat="43.312416" lon="-5.061062">
        <ele>114.497</ele>
        <time>2021-10-15T07:30:26Z</time>
      </trkpt>
      <trkpt lat="43.312354" lon="-5.060766">
        <ele>114.232</ele>
        <time>2021-10-15T07:30:28Z</time>
      </trkpt>
      <trkpt lat="43.312332" lon="-5.060468">
        <ele>114.292</ele>
        <time>2021-10-15T07:30:30Z</time>
      </trkpt>
      <trkpt lat="43.312365" lon="-5.060199">
        <ele>114.111</ele>
        <time>2021-10-15T07:30:32Z</time>
      </trkpt>
      <trkpt lat="43.312396" lon="-5.060082">
        <ele>114.008</ele>
        <time>2021-10-15T07:30:33Z</time>
      </trkpt>
      <trkpt lat="43.312460" lon="-5.059868">
        <ele>113.631</ele>
        <time>2021-10-15T07:30:35Z</time>
      </trkpt>
      <trkpt lat="43.312537" lon="-5.059654">
        <ele>112.929</ele>
        <time>2021-10-15T07:30:37Z</time>
      </trkpt>
      <trkpt lat="43.312578" lon="-5.059537">
        <ele>112.857</ele>
        <time>2021-10-15T07:30:38Z</time>
      </trkpt>
      <trkpt lat="43.312635" lon="-5.059283">
        <ele>111.891</ele>
        <time>2021-10-15T07:30:40Z</time>
      </trkpt>
      <trkpt lat="43.312632" lon="-5.059034">
        <ele>111.826</ele>
        <time>2021-10-15T07:30:42Z</time>
      </trkpt>
      <trkpt lat="43.312528" lon="-5.058784">
        <ele>113.724</ele>
        <time>2021-10-15T07:30:44Z</time>
      </trkpt>
      <trkpt lat="43.312361" lon="-5.058534">
        <ele>113.727</ele>
        <time>2021-10-15T07:30:46Z</time>
      </trkpt>
      <trkpt lat="43.312265" lon="-5.058402">
        <ele>113.112</ele>
        <time>2021-10-15T07:30:47Z</time>
      </trkpt>
      <trkpt lat="43.312165" lon="-5.058262">
        <ele>113.127</ele>
        <time>2021-10-15T07:30:48Z</time>
      </trkpt>
      <trkpt lat="43.311965" lon="-5.057965">
        <ele>114.468</ele>
        <time>2021-10-15T07:30:50Z</time>
      </trkpt>
      <trkpt lat="43.311811" lon="-5.057686">
        <ele>113.514</ele>
        <time>2021-10-15T07:30:52Z</time>
      </trkpt>
      <trkpt lat="43.311733" lon="-5.057402">
        <ele>115.508</ele>
        <time>2021-10-15T07:30:54Z</time>
      </trkpt>
      <trkpt lat="43.311735" lon="-5.057093">
        <ele>114.380</ele>
        <time>2021-10-15T07:30:56Z</time>
      </trkpt>
      <trkpt lat="43.311729" lon="-5.056935">
        <ele>114.388</ele>
        <time>2021-10-15T07:30:57Z</time>
      </trkpt>
      <trkpt lat="43.311649" lon="-5.056653">
        <ele>114.796</ele>
        <time>2021-10-15T07:30:59Z</time>
      </trkpt>
      <trkpt lat="43.311475" lon="-5.056419">
        <ele>116.320</ele>
        <time>2021-10-15T07:31:01Z</time>
      </trkpt>
      <trkpt lat="43.311372" lon="-5.056314">
        <ele>116.355</ele>
        <time>2021-10-15T07:31:02Z</time>
      </trkpt>
      <trkpt lat="43.311272" lon="-5.056207">
        <ele>116.373</ele>
        <time>2021-10-15T07:31:03Z</time>
      </trkpt>
      <trkpt lat="43.311187" lon="-5.056094">
        <ele>116.796</ele>
        <time>2021-10-15T07:31:04Z</time>
      </trkpt>
      <trkpt lat="43.311085" lon="-5.055848">
        <ele>118.441</ele>
        <time>2021-10-15T07:31:06Z</time>
      </trkpt>
      <trkpt lat="43.311076" lon="-5.055714">
        <ele>119.425</ele>
        <time>2021-10-15T07:31:07Z</time>
      </trkpt>
      <trkpt lat="43.311144" lon="-5.055440">
        <ele>118.626</ele>
        <time>2021-10-15T07:31:09Z</time>
      </trkpt>
      <trkpt lat="43.311214" lon="-5.055308">
        <ele>118.208</ele>
        <time>2021-10-15T07:31:10Z</time>
      </trkpt>
      <trkpt lat="43.311350" lon="-5.055047">
        <ele>118.408</ele>
        <time>2021-10-15T07:31:12Z</time>
      </trkpt>
      <trkpt lat="43.311412" lon="-5.054781">
        <ele>120.310</ele>
        <time>2021-10-15T07:31:14Z</time>
      </trkpt>
      <trkpt lat="43.311359" lon="-5.054495">
        <ele>121.728</ele>
        <time>2021-10-15T07:31:16Z</time>
      </trkpt>
      <trkpt lat="43.311290" lon="-5.054348">
        <ele>122.676</ele>
        <time>2021-10-15T07:31:17Z</time>
      </trkpt>
      <trkpt lat="43.311211" lon="-5.054195">
        <ele>123.360</ele>
        <time>2021-10-15T07:31:18Z</time>
      </trkpt>
      <trkpt lat="43.311043" lon="-5.053874">
        <ele>125.915</ele>
        <time>2021-10-15T07:31:20Z</time>
      </trkpt>
      <trkpt lat="43.310856" lon="-5.053581">
        <ele>128.573</ele>
        <time>2021-10-15T07:31:22Z</time>
      </trkpt>
      <trkpt lat="43.310679" lon="-5.053307">
        <ele>129.716</ele>
        <time>2021-10-15T07:31:24Z</time>
      </trkpt>
      <trkpt lat="43.310552" lon="-5.053047">
        <ele>130.821</ele>
        <time>2021-10-15T07:31:26Z</time>
      </trkpt>
      <trkpt lat="43.310513" lon="-5.052901">
        <ele>131.474</ele>
        <time>2021-10-15T07:31:27Z</time>
      </trkpt>
      <trkpt lat="43.310492" lon="-5.052593">
        <ele>135.856</ele>
        <time>2021-10-15T07:31:29Z</time>
      </trkpt>
      <trkpt lat="43.310481" lon="-5.052277">
        <ele>137.121</ele>
        <time>2021-10-15T07:31:31Z</time>
      </trkpt>
      <trkpt lat="43.310399" lon="-5.051981">
        <ele>140.108</ele>
        <time>2021-10-15T07:31:33Z</time>
      </trkpt>
      <trkpt lat="43.310323" lon="-5.051843">
        <ele>140.715</ele>
        <time>2021-10-15T07:31:34Z</time>
      </trkpt>
      <trkpt lat="43.310110" lon="-5.051637">
        <ele>143.043</ele>
        <time>2021-10-15T07:31:36Z</time>
      </trkpt>
      <trkpt lat="43.309989" lon="-5.051572">
        <ele>143.421</ele>
        <time>2021-10-15T07:31:37Z</time>
      </trkpt>
      <trkpt lat="43.309866" lon="-5.051531">
        <ele>143.535</ele>
        <time>2021-10-15T07:31:38Z</time>
      </trkpt>
      <trkpt lat="43.309637" lon="-5.051460">
        <ele>144.610</ele>
        <time>2021-10-15T07:31:40Z</time>
      </trkpt>
      <trkpt lat="43.309484" lon="-5.051330">
        <ele>146.128</ele>
        <time>2021-10-15T07:31:42Z</time>
      </trkpt>
      <trkpt lat="43.309435" lon="-5.051227">
        <ele>146.111</ele>
        <time>2021-10-15T07:31:43Z</time>
      </trkpt>
      <trkpt lat="43.309390" lon="-5.050940">
        <ele>145.616</ele>
        <time>2021-10-15T07:31:45Z</time>
      </trkpt>
      <trkpt lat="43.309384" lon="-5.050777">
        <ele>147.964</ele>
        <time>2021-10-15T07:31:46Z</time>
      </trkpt>
      <trkpt lat="43.309420" lon="-5.050448">
        <ele>148.806</ele>
        <time>2021-10-15T07:31:48Z</time>
      </trkpt>
      <trkpt lat="43.309470" lon="-5.050153">
        <ele>150.316</ele>
        <time>2021-10-15T07:31:50Z</time>
      </trkpt>
      <trkpt lat="43.309455" lon="-5.049938">
        <ele>152.108</ele>
        <time>2021-10-15T07:31:52Z</time>
      </trkpt>
      <trkpt lat="43.309417" lon="-5.049863">
        <ele>152.354</ele>
        <time>2021-10-15T07:31:53Z</time>
      </trkpt>
      <trkpt lat="43.309309" lon="-5.049798">
        <ele>155.232</ele>
        <time>2021-10-15T07:31:55Z</time>
      </trkpt>
      <trkpt lat="43.309240" lon="-5.049821">
        <ele>155.350</ele>
        <time>2021-10-15T07:31:56Z</time>
      </trkpt>
      <trkpt lat="43.309147" lon="-5.050005">
        <ele>156.794</ele>
        <time>2021-10-15T07:31:58Z</time>
      </trkpt>
      <trkpt lat="43.309125" lon="-5.050160">
        <ele>156.729</ele>
        <time>2021-10-15T07:31:59Z</time>
      </trkpt>
      <trkpt lat="43.309087" lon="-5.050525">
        <ele>158.827</ele>
        <time>2021-10-15T07:32:01Z</time>
      </trkpt>
      <trkpt lat="43.309012" lon="-5.050856">
        <ele>158.990</ele>
        <time>2021-10-15T07:32:03Z</time>
      </trkpt>
      <trkpt lat="43.308855" lon="-5.051133">
        <ele>159.195</ele>
        <time>2021-10-15T07:32:05Z</time>
      </trkpt>
      <trkpt lat="43.308759" lon="-5.051246">
        <ele>160.923</ele>
        <time>2021-10-15T07:32:06Z</time>
      </trkpt>
      <trkpt lat="43.308660" lon="-5.051337">
        <ele>160.983</ele>
        <time>2021-10-15T07:32:07Z</time>
      </trkpt>
      <trkpt lat="43.308443" lon="-5.051443">
        <ele>161.411</ele>
        <time>2021-10-15T07:32:09Z</time>
      </trkpt>
      <trkpt lat="43.308322" lon="-5.051462">
        <ele>161.508</ele>
        <time>2021-10-15T07:32:10Z</time>
      </trkpt>
      <trkpt lat="43.308082" lon="-5.051477">
        <ele>162.660</ele>
        <time>2021-10-15T07:32:12Z</time>
      </trkpt>
      <trkpt lat="43.307877" lon="-5.051488">
        <ele>163.248</ele>
        <time>2021-10-15T07:32:14Z</time>
      </trkpt>
      <trkpt lat="43.307747" lon="-5.051493">
        <ele>166.446</ele>
        <time>2021-10-15T07:32:16Z</time>
      </trkpt>
      <trkpt lat="43.307680" lon="-5.051496">
        <ele>166.380</ele>
        <time>2021-10-15T07:32:18Z</time>
      </trkpt>
      <trkpt lat="43.307577" lon="-5.051462">
        <ele>166.475</ele>
        <time>2021-10-15T07:32:20Z</time>
      </trkpt>
      <trkpt lat="43.307521" lon="-5.051359">
        <ele>166.643</ele>
        <time>2021-10-15T07:32:22Z</time>
      </trkpt>
      <trkpt lat="43.307524" lon="-5.051291">
        <ele>166.616</ele>
        <time>2021-10-15T07:32:23Z</time>
      </trkpt>
      <trkpt lat="43.307593" lon="-5.051152">
        <ele>167.551</ele>
        <time>2021-10-15T07:32:25Z</time>
      </trkpt>
      <trkpt lat="43.307711" lon="-5.051024">
        <ele>168.052</ele>
        <time>2021-10-15T07:32:27Z</time>
      </trkpt>
      <trkpt lat="43.307872" lon="-5.050922">
        <ele>168.953</ele>
        <time>2021-10-15T07:32:29Z</time>
      </trkpt>
      <trkpt lat="43.307946" lon="-5.050866">
        <ele>169.408</ele>
        <time>2021-10-15T07:32:30Z</time>
      </trkpt>
      <trkpt lat="43.308028" lon="-5.050709">
        <ele>170.108</ele>
        <time>2021-10-15T07:32:32Z</time>
      </trkpt>
      <trkpt lat="43.307994" lon="-5.050539">
        <ele>172.523</ele>
        <time>2021-10-15T07:32:34Z</time>
      </trkpt>
      <trkpt lat="43.307936" lon="-5.050476">
        <ele>173.981</ele>
        <time>2021-10-15T07:32:35Z</time>
      </trkpt>
      <trkpt lat="43.307761" lon="-5.050443">
        <ele>174.949</ele>
        <time>2021-10-15T07:32:37Z</time>
      </trkpt>
      <trkpt lat="43.307656" lon="-5.050461">
        <ele>176.473</ele>
        <time>2021-10-15T07:32:38Z</time>
      </trkpt>
      <trkpt lat="43.307425" lon="-5.050493">
        <ele>180.298</ele>
        <time>2021-10-15T07:32:40Z</time>
      </trkpt>
      <trkpt lat="43.307175" lon="-5.050459">
        <ele>181.256</ele>
        <time>2021-10-15T07:32:42Z</time>
      </trkpt>
      <trkpt lat="43.307043" lon="-5.050409">
        <ele>181.989</ele>
        <time>2021-10-15T07:32:43Z</time>
      </trkpt>
      <trkpt lat="43.306922" lon="-5.050334">
        <ele>182.144</ele>
        <time>2021-10-15T07:32:44Z</time>
      </trkpt>
      <trkpt lat="43.306696" lon="-5.050127">
        <ele>183.661</ele>
        <time>2021-10-15T07:32:46Z</time>
      </trkpt>
      <trkpt lat="43.306591" lon="-5.050005">
        <ele>186.721</ele>
        <time>2021-10-15T07:32:47Z</time>
      </trkpt>
      <trkpt lat="43.306395" lon="-5.049808">
        <ele>188.213</ele>
        <time>2021-10-15T07:32:49Z</time>
      </trkpt>
      <trkpt lat="43.306293" lon="-5.049743">
        <ele>188.908</ele>
        <time>2021-10-15T07:32:50Z</time>
      </trkpt>
      <trkpt lat="43.306103" lon="-5.049694">
        <ele>191.784</ele>
        <time>2021-10-15T07:32:52Z</time>
      </trkpt>
      <trkpt lat="43.305940" lon="-5.049658">
        <ele>195.242</ele>
        <time>2021-10-15T07:32:54Z</time>
      </trkpt>
      <trkpt lat="43.305797" lon="-5.049506">
        <ele>196.090</ele>
        <time>2021-10-15T07:32:56Z</time>
      </trkpt>
      <trkpt lat="43.305637" lon="-5.049284">
        <ele>198.354</ele>
        <time>2021-10-15T07:32:58Z</time>
      </trkpt>
      <trkpt lat="43.305550" lon="-5.049166">
        <ele>199.199</ele>
        <time>2021-10-15T07:32:59Z</time>
      </trkpt>
      <trkpt lat="43.305371" lon="-5.048920">
        <ele>201.897</ele>
        <time>2021-10-15T07:33:01Z</time>
      </trkpt>
      <trkpt lat="43.305284" lon="-5.048795">
        <ele>202.870</ele>
        <time>2021-10-15T07:33:02Z</time>
      </trkpt>
      <trkpt lat="43.305108" lon="-5.048570">
        <ele>204.745</ele>
        <time>2021-10-15T07:33:04Z</time>
      </trkpt>
      <trkpt lat="43.304927" lon="-5.048423">
        <ele>206.624</ele>
        <time>2021-10-15T07:33:06Z</time>
      </trkpt>
      <trkpt lat="43.304832" lon="-5.048400">
        <ele>207.404</ele>
        <time>2021-10-15T07:33:07Z</time>
      </trkpt>
      <trkpt lat="43.304734" lon="-5.048422">
        <ele>208.114</ele>
        <time>2021-10-15T07:33:08Z</time>
      </trkpt>
      <trkpt lat="43.304634" lon="-5.048478">
        <ele>209.508</ele>
        <time>2021-10-15T07:33:09Z</time>
      </trkpt>
      <trkpt lat="43.304444" lon="-5.048651">
        <ele>211.020</ele>
        <time>2021-10-15T07:33:11Z</time>
      </trkpt>
      <trkpt lat="43.304371" lon="-5.048757">
        <ele>212.138</ele>
        <time>2021-10-15T07:33:12Z</time>
      </trkpt>
      <trkpt lat="43.304285" lon="-5.049009">
        <ele>213.116</ele>
        <time>2021-10-15T07:33:14Z</time>
      </trkpt>
      <trkpt lat="43.304275" lon="-5.049143">
        <ele>214.080</ele>
        <time>2021-10-15T07:33:15Z</time>
      </trkpt>
      <trkpt lat="43.304312" lon="-5.049420">
        <ele>217.225</ele>
        <time>2021-10-15T07:33:17Z</time>
      </trkpt>
      <trkpt lat="43.304399" lon="-5.049684">
        <ele>220.013</ele>
        <time>2021-10-15T07:33:19Z</time>
      </trkpt>
      <trkpt lat="43.304448" lon="-5.049794">
        <ele>220.866</ele>
        <time>2021-10-15T07:33:20Z</time>
      </trkpt>
      <trkpt lat="43.304576" lon="-5.049958">
        <ele>222.631</ele>
        <time>2021-10-15T07:33:22Z</time>
      </trkpt>
      <trkpt lat="43.304662" lon="-5.049999">
        <ele>222.616</ele>
        <time>2021-10-15T07:33:23Z</time>
      </trkpt>
      <trkpt lat="43.304764" lon="-5.050019">
        <ele>222.776</ele>
        <time>2021-10-15T07:33:24Z</time>
      </trkpt>
      <trkpt lat="43.304872" lon="-5.050036">
        <ele>223.913</ele>
        <time>2021-10-15T07:33:25Z</time>
      </trkpt>
      <trkpt lat="43.304972" lon="-5.050065">
        <ele>224.408</ele>
        <time>2021-10-15T07:33:26Z</time>
      </trkpt>
      <trkpt lat="43.305114" lon="-5.050189">
        <ele>225.349</ele>
        <time>2021-10-15T07:33:28Z</time>
      </trkpt>
      <trkpt lat="43.305155" lon="-5.050277">
        <ele>225.357</ele>
        <time>2021-10-15T07:33:29Z</time>
      </trkpt>
      <trkpt lat="43.305170" lon="-5.050378">
        <ele>225.465</ele>
        <time>2021-10-15T07:33:30Z</time>
      </trkpt>
      <trkpt lat="43.305119" lon="-5.050583">
        <ele>226.099</ele>
        <time>2021-10-15T07:33:32Z</time>
      </trkpt>
      <trkpt lat="43.305060" lon="-5.050669">
        <ele>226.374</ele>
        <time>2021-10-15T07:33:33Z</time>
      </trkpt>
      <trkpt lat="43.304909" lon="-5.050764">
        <ele>226.762</ele>
        <time>2021-10-15T07:33:35Z</time>
      </trkpt>
      <trkpt lat="43.304818" lon="-5.050757">
        <ele>226.935</ele>
        <time>2021-10-15T07:33:36Z</time>
      </trkpt>
      <trkpt lat="43.304719" lon="-5.050717">
        <ele>227.390</ele>
        <time>2021-10-15T07:33:37Z</time>
      </trkpt>
      <trkpt lat="43.304613" lon="-5.050655">
        <ele>229.023</ele>
        <time>2021-10-15T07:33:38Z</time>
      </trkpt>
      <trkpt lat="43.304384" lon="-5.050495">
        <ele>230.483</ele>
        <time>2021-10-15T07:33:40Z</time>
      </trkpt>
      <trkpt lat="43.304268" lon="-5.050408">
        <ele>231.011</ele>
        <time>2021-10-15T07:33:41Z</time>
      </trkpt>
      <trkpt lat="43.304059" lon="-5.050230">
        <ele>233.208</ele>
        <time>2021-10-15T07:33:43Z</time>
      </trkpt>
      <trkpt lat="43.303977" lon="-5.050128">
        <ele>233.640</ele>
        <time>2021-10-15T07:33:44Z</time>
      </trkpt>
      <trkpt lat="43.303849" lon="-5.049897">
        <ele>235.298</ele>
        <time>2021-10-15T07:33:46Z</time>
      </trkpt>
      <trkpt lat="43.303788" lon="-5.049768">
        <ele>235.726</ele>
        <time>2021-10-15T07:33:47Z</time>
      </trkpt>
      <trkpt lat="43.303739" lon="-5.049631">
        <ele>237.410</ele>
        <time>2021-10-15T07:33:48Z</time>
      </trkpt>
      <trkpt lat="43.303666" lon="-5.049339">
        <ele>238.345</ele>
        <time>2021-10-15T07:33:50Z</time>
      </trkpt>
      <trkpt lat="43.303598" lon="-5.049045">
        <ele>243.033</ele>
        <time>2021-10-15T07:33:52Z</time>
      </trkpt>
      <trkpt lat="43.303560" lon="-5.048898">
        <ele>244.926</ele>
        <time>2021-10-15T07:33:53Z</time>
      </trkpt>
      <trkpt lat="43.303480" lon="-5.048622">
        <ele>248.441</ele>
        <time>2021-10-15T07:33:55Z</time>
      </trkpt>
      <trkpt lat="43.303434" lon="-5.048493">
        <ele>249.974</ele>
        <time>2021-10-15T07:33:56Z</time>
      </trkpt>
      <trkpt lat="43.303380" lon="-5.048374">
        <ele>250.256</ele>
        <time>2021-10-15T07:33:57Z</time>
      </trkpt>
      <trkpt lat="43.303319" lon="-5.048264">
        <ele>253.621</ele>
        <time>2021-10-15T07:33:58Z</time>
      </trkpt>
      <trkpt lat="43.303171" lon="-5.048040">
        <ele>255.208</ele>
        <time>2021-10-15T07:34:00Z</time>
      </trkpt>
      <trkpt lat="43.303095" lon="-5.047924">
        <ele>255.415</ele>
        <time>2021-10-15T07:34:01Z</time>
      </trkpt>
      <trkpt lat="43.302975" lon="-5.047669">
        <ele>259.023</ele>
        <time>2021-10-15T07:34:03Z</time>
      </trkpt>
      <trkpt lat="43.302932" lon="-5.047524">
        <ele>259.871</ele>
        <time>2021-10-15T07:34:04Z</time>
      </trkpt>
      <trkpt lat="43.302901" lon="-5.047367">
        <ele>263.035</ele>
        <time>2021-10-15T07:34:05Z</time>
      </trkpt>
      <trkpt lat="43.302860" lon="-5.047064">
        <ele>264.690</ele>
        <time>2021-10-15T07:34:07Z</time>
      </trkpt>
      <trkpt lat="43.302826" lon="-5.046921">
        <ele>266.818</ele>
        <time>2021-10-15T07:34:08Z</time>
      </trkpt>
      <trkpt lat="43.302724" lon="-5.046648">
        <ele>268.961</ele>
        <time>2021-10-15T07:34:10Z</time>
      </trkpt>
      <trkpt lat="43.302667" lon="-5.046508">
        <ele>270.346</ele>
        <time>2021-10-15T07:34:11Z</time>
      </trkpt>
      <trkpt lat="43.302570" lon="-5.046195">
        <ele>271.672</ele>
        <time>2021-10-15T07:34:13Z</time>
      </trkpt>
      <trkpt lat="43.302496" lon="-5.045861">
        <ele>275.813</ele>
        <time>2021-10-15T07:34:15Z</time>
      </trkpt>
      <trkpt lat="43.302421" lon="-5.045511">
        <ele>277.814</ele>
        <time>2021-10-15T07:34:17Z</time>
      </trkpt>
      <trkpt lat="43.302338" lon="-5.045159">
        <ele>282.608</ele>
        <time>2021-10-15T07:34:19Z</time>
      </trkpt>
      <trkpt lat="43.302302" lon="-5.044987">
        <ele>283.175</ele>
        <time>2021-10-15T07:34:20Z</time>
      </trkpt>
      <trkpt lat="43.302259" lon="-5.044658">
        <ele>287.463</ele>
        <time>2021-10-15T07:34:22Z</time>
      </trkpt>
      <trkpt lat="43.302240" lon="-5.044500">
        <ele>288.621</ele>
        <time>2021-10-15T07:34:23Z</time>
      </trkpt>
      <trkpt lat="43.302215" lon="-5.044181">
        <ele>292.485</ele>
        <time>2021-10-15T07:34:25Z</time>
      </trkpt>
      <trkpt lat="43.302204" lon="-5.044013">
        <ele>293.850</ele>
        <time>2021-10-15T07:34:26Z</time>
      </trkpt>
      <trkpt lat="43.302183" lon="-5.043670">
        <ele>295.088</ele>
        <time>2021-10-15T07:34:28Z</time>
      </trkpt>
      <trkpt lat="43.302180" lon="-5.043489">
        <ele>297.761</ele>
        <time>2021-10-15T07:34:29Z</time>
      </trkpt>
      <trkpt lat="43.302173" lon="-5.043309">
        <ele>298.736</ele>
        <time>2021-10-15T07:34:30Z</time>
      </trkpt>
      <trkpt lat="43.302154" lon="-5.042980">
        <ele>301.265</ele>
        <time>2021-10-15T07:34:32Z</time>
      </trkpt>
      <trkpt lat="43.302129" lon="-5.042746">
        <ele>303.468</ele>
        <time>2021-10-15T07:34:34Z</time>
      </trkpt>
      <trkpt lat="43.302127" lon="-5.042656">
        <ele>305.814</ele>
        <time>2021-10-15T07:34:35Z</time>
      </trkpt>
      <trkpt lat="43.302175" lon="-5.042518">
        <ele>307.708</ele>
        <time>2021-10-15T07:34:37Z</time>
      </trkpt>
      <trkpt lat="43.302230" lon="-5.042466">
        <ele>309.124</ele>
        <time>2021-10-15T07:34:38Z</time>
      </trkpt>
      <trkpt lat="43.302378" lon="-5.042392">
        <ele>312.962</ele>
        <time>2021-10-15T07:34:40Z</time>
      </trkpt>
      <trkpt lat="43.302531" lon="-5.042395">
        <ele>315.530</ele>
        <time>2021-10-15T07:34:42Z</time>
      </trkpt>
      <trkpt lat="43.302696" lon="-5.042482">
        <ele>321.254</ele>
        <time>2021-10-15T07:34:44Z</time>
      </trkpt>
      <trkpt lat="43.302884" lon="-5.042632">
        <ele>326.039</ele>
        <time>2021-10-15T07:34:46Z</time>
      </trkpt>
      <trkpt lat="43.302988" lon="-5.042707">
        <ele>327.347</ele>
        <time>2021-10-15T07:34:47Z</time>
      </trkpt>
      <trkpt lat="43.303231" lon="-5.042831">
        <ele>328.460</ele>
        <time>2021-10-15T07:34:49Z</time>
      </trkpt>
      <trkpt lat="43.303360" lon="-5.042883">
        <ele>329.955</ele>
        <time>2021-10-15T07:34:50Z</time>
      </trkpt>
      <trkpt lat="43.303589" lon="-5.042967">
        <ele>333.139</ele>
        <time>2021-10-15T07:34:52Z</time>
      </trkpt>
      <trkpt lat="43.303698" lon="-5.042995">
        <ele>334.701</ele>
        <time>2021-10-15T07:34:53Z</time>
      </trkpt>
      <trkpt lat="43.303802" lon="-5.043020">
        <ele>335.821</ele>
        <time>2021-10-15T07:34:54Z</time>
      </trkpt>
      <trkpt lat="43.303998" lon="-5.043086">
        <ele>336.508</ele>
        <time>2021-10-15T07:34:56Z</time>
      </trkpt>
      <trkpt lat="43.304179" lon="-5.043228">
        <ele>340.241</ele>
        <time>2021-10-15T07:34:58Z</time>
      </trkpt>
      <trkpt lat="43.304381" lon="-5.043434">
        <ele>340.239</ele>
        <time>2021-10-15T07:35:00Z</time>
      </trkpt>
      <trkpt lat="43.304489" lon="-5.043536">
        <ele>340.937</ele>
        <time>2021-10-15T07:35:01Z</time>
      </trkpt>
      <trkpt lat="43.304716" lon="-5.043714">
        <ele>343.381</ele>
        <time>2021-10-15T07:35:03Z</time>
      </trkpt>
      <trkpt lat="43.304947" lon="-5.043869">
        <ele>344.736</ele>
        <time>2021-10-15T07:35:05Z</time>
      </trkpt>
      <trkpt lat="43.305147" lon="-5.043946">
        <ele>346.844</ele>
        <time>2021-10-15T07:35:07Z</time>
      </trkpt>
      <trkpt lat="43.305234" lon="-5.043897">
        <ele>346.817</ele>
        <time>2021-10-15T07:35:08Z</time>
      </trkpt>
      <trkpt lat="43.305358" lon="-5.043703">
        <ele>345.032</ele>
        <time>2021-10-15T07:35:10Z</time>
      </trkpt>
      <trkpt lat="43.305384" lon="-5.043608">
        <ele>344.681</ele>
        <time>2021-10-15T07:35:11Z</time>
      </trkpt>
      <trkpt lat="43.305361" lon="-5.043448">
        <ele>344.661</ele>
        <time>2021-10-15T07:35:13Z</time>
      </trkpt>
      <trkpt lat="43.305324" lon="-5.043406">
        <ele>344.617</ele>
        <time>2021-10-15T07:35:14Z</time>
      </trkpt>
      <trkpt lat="43.305221" lon="-5.043426">
        <ele>344.508</ele>
        <time>2021-10-15T07:35:16Z</time>
      </trkpt>
      <trkpt lat="43.305146" lon="-5.043458">
        <ele>344.576</ele>
        <time>2021-10-15T07:35:17Z</time>
      </trkpt>
      <trkpt lat="43.304960" lon="-5.043539">
        <ele>346.944</ele>
        <time>2021-10-15T07:35:19Z</time>
      </trkpt>
      <trkpt lat="43.304875" lon="-5.043542">
        <ele>348.112</ele>
        <time>2021-10-15T07:35:20Z</time>
      </trkpt>
      <trkpt lat="43.304799" lon="-5.043514">
        <ele>348.386</ele>
        <time>2021-10-15T07:35:21Z</time>
      </trkpt>
      <trkpt lat="43.304652" lon="-5.043352">
        <ele>348.871</ele>
        <time>2021-10-15T07:35:23Z</time>
      </trkpt>
      <trkpt lat="43.304577" lon="-5.043231">
        <ele>349.469</ele>
        <time>2021-10-15T07:35:24Z</time>
      </trkpt>
      <trkpt lat="43.304497" lon="-5.043097">
        <ele>351.452</ele>
        <time>2021-10-15T07:35:25Z</time>
      </trkpt>
      <trkpt lat="43.304322" lon="-5.042817">
        <ele>353.947</ele>
        <time>2021-10-15T07:35:27Z</time>
      </trkpt>
      <trkpt lat="43.304235" lon="-5.042682">
        <ele>354.787</ele>
        <time>2021-10-15T07:35:28Z</time>
      </trkpt>
      <trkpt lat="43.304053" lon="-5.042434">
        <ele>355.542</ele>
        <time>2021-10-15T07:35:30Z</time>
      </trkpt>
      <trkpt lat="43.303958" lon="-5.042311">
        <ele>357.526</ele>
        <time>2021-10-15T07:35:31Z</time>
      </trkpt>
      <trkpt lat="43.303865" lon="-5.042196">
        <ele>358.608</ele>
        <time>2021-10-15T07:35:32Z</time>
      </trkpt>
      <trkpt lat="43.303663" lon="-5.041983">
        <ele>362.216</ele>
        <time>2021-10-15T07:35:34Z</time>
      </trkpt>
      <trkpt lat="43.303553" lon="-5.041870">
        <ele>362.554</ele>
        <time>2021-10-15T07:35:35Z</time>
      </trkpt>
      <trkpt lat="43.303338" lon="-5.041626">
        <ele>367.552</ele>
        <time>2021-10-15T07:35:37Z</time>
      </trkpt>
      <trkpt lat="43.303244" lon="-5.041489">
        <ele>369.716</ele>
        <time>2021-10-15T07:35:38Z</time>
      </trkpt>
      <trkpt lat="43.303074" lon="-5.041180">
        <ele>373.361</ele>
        <time>2021-10-15T07:35:40Z</time>
      </trkpt>
      <trkpt lat="43.302994" lon="-5.041024">
        <ele>373.759</ele>
        <time>2021-10-15T07:35:41Z</time>
      </trkpt>
      <trkpt lat="43.302914" lon="-5.040873">
        <ele>374.952</ele>
        <time>2021-10-15T07:35:42Z</time>
      </trkpt>
      <trkpt lat="43.302833" lon="-5.040722">
        <ele>377.677</ele>
        <time>2021-10-15T07:35:43Z</time>
      </trkpt>
      <trkpt lat="43.302749" lon="-5.040571">
        <ele>379.114</ele>
        <time>2021-10-15T07:35:44Z</time>
      </trkpt>
      <trkpt lat="43.302580" lon="-5.040264">
        <ele>382.654</ele>
        <time>2021-10-15T07:35:46Z</time>
      </trkpt>
      <trkpt lat="43.302494" lon="-5.040111">
        <ele>384.309</ele>
        <time>2021-10-15T07:35:47Z</time>
      </trkpt>
      <trkpt lat="43.302320" lon="-5.039812">
        <ele>387.608</ele>
        <time>2021-10-15T07:35:49Z</time>
      </trkpt>
      <trkpt lat="43.302232" lon="-5.039664">
        <ele>388.549</ele>
        <time>2021-10-15T07:35:50Z</time>
      </trkpt>
      <trkpt lat="43.302056" lon="-5.039408">
        <ele>392.227</ele>
        <time>2021-10-15T07:35:52Z</time>
      </trkpt>
      <trkpt lat="43.301906" lon="-5.039212">
        <ele>394.275</ele>
        <time>2021-10-15T07:35:54Z</time>
      </trkpt>
      <trkpt lat="43.301831" lon="-5.038991">
        <ele>394.739</ele>
        <time>2021-10-15T07:35:56Z</time>
      </trkpt>
      <trkpt lat="43.301835" lon="-5.038718">
        <ele>400.144</ele>
        <time>2021-10-15T07:35:58Z</time>
      </trkpt>
      <trkpt lat="43.301848" lon="-5.038552">
        <ele>400.652</ele>
        <time>2021-10-15T07:35:59Z</time>
      </trkpt>
      <trkpt lat="43.301818" lon="-5.038187">
        <ele>403.655</ele>
        <time>2021-10-15T07:36:01Z</time>
      </trkpt>
      <trkpt lat="43.301767" lon="-5.038011">
        <ele>404.710</ele>
        <time>2021-10-15T07:36:02Z</time>
      </trkpt>
      <trkpt lat="43.301625" lon="-5.037676">
        <ele>408.785</ele>
        <time>2021-10-15T07:36:04Z</time>
      </trkpt>
      <trkpt lat="43.301482" lon="-5.037340">
        <ele>410.689</ele>
        <time>2021-10-15T07:36:06Z</time>
      </trkpt>
      <trkpt lat="43.301415" lon="-5.037171">
        <ele>411.817</ele>
        <time>2021-10-15T07:36:07Z</time>
      </trkpt>
      <trkpt lat="43.301355" lon="-5.037004">
        <ele>413.508</ele>
        <time>2021-10-15T07:36:08Z</time>
      </trkpt>
      <trkpt lat="43.301265" lon="-5.036680">
        <ele>415.666</ele>
        <time>2021-10-15T07:36:10Z</time>
      </trkpt>
      <trkpt lat="43.301237" lon="-5.036543">
        <ele>416.174</ele>
        <time>2021-10-15T07:36:11Z</time>
      </trkpt>
      <trkpt lat="43.301196" lon="-5.036340">
        <ele>420.622</ele>
        <time>2021-10-15T07:36:13Z</time>
      </trkpt>
      <trkpt lat="43.301164" lon="-5.036275">
        <ele>421.096</ele>
        <time>2021-10-15T07:36:14Z</time>
      </trkpt>
      <trkpt lat="43.301067" lon="-5.036229">
        <ele>422.321</ele>
        <time>2021-10-15T07:36:16Z</time>
      </trkpt>
      <trkpt lat="43.300959" lon="-5.036281">
        <ele>423.169</ele>
        <time>2021-10-15T07:36:18Z</time>
      </trkpt>
      <trkpt lat="43.300901" lon="-5.036340">
        <ele>423.922</ele>
        <time>2021-10-15T07:36:19Z</time>
      </trkpt>
      <trkpt lat="43.300838" lon="-5.036428">
        <ele>425.597</ele>
        <time>2021-10-15T07:36:20Z</time>
      </trkpt>
      <trkpt lat="43.300700" lon="-5.036697">
        <ele>428.691</ele>
        <time>2021-10-15T07:36:22Z</time>
      </trkpt>
      <trkpt lat="43.300588" lon="-5.037002">
        <ele>429.081</ele>
        <time>2021-10-15T07:36:24Z</time>
      </trkpt>
      <trkpt lat="43.300556" lon="-5.037154">
        <ele>429.619</ele>
        <time>2021-10-15T07:36:25Z</time>
      </trkpt>
      <trkpt lat="43.300536" lon="-5.037404">
        <ele>430.408</ele>
        <time>2021-10-15T07:36:27Z</time>
      </trkpt>
      <trkpt lat="43.300529" lon="-5.037494">
        <ele>430.657</ele>
        <time>2021-10-15T07:36:28Z</time>
      </trkpt>
      <trkpt lat="43.300477" lon="-5.037597">
        <ele>431.985</ele>
        <time>2021-10-15T07:36:30Z</time>
      </trkpt>
      <trkpt lat="43.300423" lon="-5.037595">
        <ele>432.723</ele>
        <time>2021-10-15T07:36:32Z</time>
      </trkpt>
      <trkpt lat="43.300394" lon="-5.037519">
        <ele>432.737</ele>
        <time>2021-10-15T07:36:34Z</time>
      </trkpt>
      <trkpt lat="43.300430" lon="-5.037360">
        <ele>433.622</ele>
        <time>2021-10-15T07:36:36Z</time>
      </trkpt>
      <trkpt lat="43.300461" lon="-5.037060">
        <ele>438.060</ele>
        <time>2021-10-15T07:36:38Z</time>
      </trkpt>
      <trkpt lat="43.300414" lon="-5.036745">
        <ele>440.883</ele>
        <time>2021-10-15T07:36:40Z</time>
      </trkpt>
      <trkpt lat="43.300359" lon="-5.036590">
        <ele>441.038</ele>
        <time>2021-10-15T07:36:41Z</time>
      </trkpt>
      <trkpt lat="43.300231" lon="-5.036286">
        <ele>442.787</ele>
        <time>2021-10-15T07:36:43Z</time>
      </trkpt>
      <trkpt lat="43.300147" lon="-5.035968">
        <ele>444.242</ele>
        <time>2021-10-15T07:36:45Z</time>
      </trkpt>
      <trkpt lat="43.300123" lon="-5.035809">
        <ele>446.526</ele>
        <time>2021-10-15T07:36:46Z</time>
      </trkpt>
      <trkpt lat="43.300102" lon="-5.035660">
        <ele>447.008</ele>
        <time>2021-10-15T07:36:47Z</time>
      </trkpt>
      <trkpt lat="43.300078" lon="-5.035502">
        <ele>448.276</ele>
        <time>2021-10-15T07:36:48Z</time>
      </trkpt>
      <trkpt lat="43.300018" lon="-5.035138">
        <ele>451.284</ele>
        <time>2021-10-15T07:36:50Z</time>
      </trkpt>
      <trkpt lat="43.299929" lon="-5.034750">
        <ele>454.542</ele>
        <time>2021-10-15T07:36:52Z</time>
      </trkpt>
      <trkpt lat="43.299825" lon="-5.034368">
        <ele>457.726</ele>
        <time>2021-10-15T07:36:54Z</time>
      </trkpt>
      <trkpt lat="43.299770" lon="-5.034182">
        <ele>459.331</ele>
        <time>2021-10-15T07:36:55Z</time>
      </trkpt>
      <trkpt lat="43.299713" lon="-5.034002">
        <ele>460.929</ele>
        <time>2021-10-15T07:36:56Z</time>
      </trkpt>
      <trkpt lat="43.299612" lon="-5.033699">
        <ele>462.352</ele>
        <time>2021-10-15T07:36:58Z</time>
      </trkpt>
      <trkpt lat="43.299568" lon="-5.033569">
        <ele>462.577</ele>
        <time>2021-10-15T07:36:59Z</time>
      </trkpt>
      <trkpt lat="43.299516" lon="-5.033341">
        <ele>467.045</ele>
        <time>2021-10-15T07:37:01Z</time>
      </trkpt>
      <trkpt lat="43.299516" lon="-5.033230">
        <ele>467.247</ele>
        <time>2021-10-15T07:37:02Z</time>
      </trkpt>
      <trkpt lat="43.299585" lon="-5.033033">
        <ele>469.811</ele>
        <time>2021-10-15T07:37:04Z</time>
      </trkpt>
      <trkpt lat="43.299712" lon="-5.032895">
        <ele>471.608</ele>
        <time>2021-10-15T07:37:06Z</time>
      </trkpt>
      <trkpt lat="43.299813" lon="-5.032871">
        <ele>472.472</ele>
        <time>2021-10-15T07:37:07Z</time>
      </trkpt>
      <trkpt lat="43.299928" lon="-5.032879">
        <ele>472.870</ele>
        <time>2021-10-15T07:37:08Z</time>
      </trkpt>
      <trkpt lat="43.300167" lon="-5.032975">
        <ele>474.178</ele>
        <time>2021-10-15T07:37:10Z</time>
      </trkpt>
      <trkpt lat="43.300287" lon="-5.033052">
        <ele>474.152</ele>
        <time>2021-10-15T07:37:11Z</time>
      </trkpt>
      <trkpt lat="43.300409" lon="-5.033137">
        <ele>475.017</ele>
        <time>2021-10-15T07:37:12Z</time>
      </trkpt>
      <trkpt lat="43.300534" lon="-5.033224">
        <ele>476.255</ele>
        <time>2021-10-15T07:37:13Z</time>
      </trkpt>
      <trkpt lat="43.300659" lon="-5.033321">
        <ele>476.098</ele>
        <time>2021-10-15T07:37:14Z</time>
      </trkpt>
      <trkpt lat="43.300899" lon="-5.033507">
        <ele>477.353</ele>
        <time>2021-10-15T07:37:16Z</time>
      </trkpt>
      <trkpt lat="43.301015" lon="-5.033594">
        <ele>477.271</ele>
        <time>2021-10-15T07:37:17Z</time>
      </trkpt>
      <trkpt lat="43.301211" lon="-5.033723">
        <ele>477.041</ele>
        <time>2021-10-15T07:37:19Z</time>
      </trkpt>
      <trkpt lat="43.301311" lon="-5.033792">
        <ele>478.115</ele>
        <time>2021-10-15T07:37:20Z</time>
      </trkpt>
      <trkpt lat="43.301511" lon="-5.033956">
        <ele>477.708</ele>
        <time>2021-10-15T07:37:22Z</time>
      </trkpt>
      <trkpt lat="43.301684" lon="-5.034130">
        <ele>477.355</ele>
        <time>2021-10-15T07:37:24Z</time>
      </trkpt>
      <trkpt lat="43.301792" lon="-5.034292">
        <ele>476.993</ele>
        <time>2021-10-15T07:37:26Z</time>
      </trkpt>
      <trkpt lat="43.301857" lon="-5.034316">
        <ele>476.531</ele>
        <time>2021-10-15T07:37:28Z</time>
      </trkpt>
      <trkpt lat="43.301888" lon="-5.034201">
        <ele>476.045</ele>
        <time>2021-10-15T07:37:30Z</time>
      </trkpt>
      <trkpt lat="43.301848" lon="-5.034032">
        <ele>475.750</ele>
        <time>2021-10-15T07:37:32Z</time>
      </trkpt>
      <trkpt lat="43.301796" lon="-5.033938">
        <ele>475.338</ele>
        <time>2021-10-15T07:37:33Z</time>
      </trkpt>
      <trkpt lat="43.301707" lon="-5.033836">
        <ele>475.531</ele>
        <time>2021-10-15T07:37:34Z</time>
      </trkpt>
      <trkpt lat="43.301504" lon="-5.033610">
        <ele>477.496</ele>
        <time>2021-10-15T07:37:36Z</time>
      </trkpt>
      <trkpt lat="43.301410" lon="-5.033494">
        <ele>479.034</ele>
        <time>2021-10-15T07:37:37Z</time>
      </trkpt>
      <trkpt lat="43.301316" lon="-5.033372">
        <ele>480.155</ele>
        <time>2021-10-15T07:37:38Z</time>
      </trkpt>
      <trkpt lat="43.301129" lon="-5.033116">
        <ele>482.510</ele>
        <time>2021-10-15T07:37:40Z</time>
      </trkpt>
      <trkpt lat="43.301049" lon="-5.032963">
        <ele>485.608</ele>
        <time>2021-10-15T07:37:41Z</time>
      </trkpt>
      <trkpt lat="43.300943" lon="-5.032637">
        <ele>488.321</ele>
        <time>2021-10-15T07:37:43Z</time>
      </trkpt>
      <trkpt lat="43.300903" lon="-5.032470">
        <ele>489.289</ele>
        <time>2021-10-15T07:37:44Z</time>
      </trkpt>
      <trkpt lat="43.300800" lon="-5.032156">
        <ele>493.397</ele>
        <time>2021-10-15T07:37:46Z</time>
      </trkpt>
      <trkpt lat="43.300733" lon="-5.032017">
        <ele>494.111</ele>
        <time>2021-10-15T07:37:47Z</time>
      </trkpt>
      <trkpt lat="43.300629" lon="-5.031785">
        <ele>498.036</ele>
        <time>2021-10-15T07:37:49Z</time>
      </trkpt>
      <trkpt lat="43.300610" lon="-5.031660">
        <ele>499.864</ele>
        <time>2021-10-15T07:37:50Z</time>
      </trkpt>
      <trkpt lat="43.300619" lon="-5.031366">
        <ele>503.667</ele>
        <time>2021-10-15T07:37:52Z</time>
      </trkpt>
      <trkpt lat="43.300570" lon="-5.031048">
        <ele>508.092</ele>
        <time>2021-10-15T07:37:54Z</time>
      </trkpt>
      <trkpt lat="43.300515" lon="-5.030896">
        <ele>508.685</ele>
        <time>2021-10-15T07:37:55Z</time>
      </trkpt>
      <trkpt lat="43.300453" lon="-5.030751">
        <ele>508.789</ele>
        <time>2021-10-15T07:37:56Z</time>
      </trkpt>
      <trkpt lat="43.300340" lon="-5.030510">
        <ele>511.317</ele>
        <time>2021-10-15T07:37:58Z</time>
      </trkpt>
      <trkpt lat="43.300276" lon="-5.030407">
        <ele>511.808</ele>
        <time>2021-10-15T07:37:59Z</time>
      </trkpt>
      <trkpt lat="43.300112" lon="-5.030260">
        <ele>516.736</ele>
        <time>2021-10-15T07:38:01Z</time>
      </trkpt>
      <trkpt lat="43.300014" lon="-5.030228">
        <ele>517.234</ele>
        <time>2021-10-15T07:38:02Z</time>
      </trkpt>
      <trkpt lat="43.299911" lon="-5.030216">
        <ele>519.452</ele>
        <time>2021-10-15T07:38:03Z</time>
      </trkpt>
      <trkpt lat="43.299810" lon="-5.030204">
        <ele>519.726</ele>
        <time>2021-10-15T07:38:04Z</time>
      </trkpt>
      <trkpt lat="43.299636" lon="-5.030112">
        <ele>522.521</ele>
        <time>2021-10-15T07:38:06Z</time>
      </trkpt>
      <trkpt lat="43.299556" lon="-5.030028">
        <ele>523.129</ele>
        <time>2021-10-15T07:38:07Z</time>
      </trkpt>
      <trkpt lat="43.299472" lon="-5.029927">
        <ele>523.832</ele>
        <time>2021-10-15T07:38:08Z</time>
      </trkpt>
      <trkpt lat="43.299290" lon="-5.029704">
        <ele>526.817</ele>
        <time>2021-10-15T07:38:10Z</time>
      </trkpt>
      <trkpt lat="43.299195" lon="-5.029587">
        <ele>526.831</ele>
        <time>2021-10-15T07:38:11Z</time>
      </trkpt>
      <trkpt lat="43.298993" lon="-5.029345">
        <ele>527.861</ele>
        <time>2021-10-15T07:38:13Z</time>
      </trkpt>
      <trkpt lat="43.298886" lon="-5.029212">
        <ele>528.507</ele>
        <time>2021-10-15T07:38:14Z</time>
      </trkpt>
      <trkpt lat="43.298685" lon="-5.028932">
        <ele>529.408</ele>
        <time>2021-10-15T07:38:16Z</time>
      </trkpt>
      <trkpt lat="43.298530" lon="-5.028709">
        <ele>530.191</ele>
        <time>2021-10-15T07:38:18Z</time>
      </trkpt>
      <trkpt lat="43.298470" lon="-5.028654">
        <ele>530.219</ele>
        <time>2021-10-15T07:38:19Z</time>
      </trkpt>
      <trkpt lat="43.298417" lon="-5.028645">
        <ele>531.317</ele>
        <time>2021-10-15T07:38:20Z</time>
      </trkpt>
      <trkpt lat="43.298306" lon="-5.028744">
        <ele>531.691</ele>
        <time>2021-10-15T07:38:22Z</time>
      </trkpt>
      <trkpt lat="43.298251" lon="-5.028849">
        <ele>531.646</ele>
        <time>2021-10-15T07:38:23Z</time>
      </trkpt>
      <trkpt lat="43.298206" lon="-5.028976">
        <ele>532.794</ele>
        <time>2021-10-15T07:38:24Z</time>
      </trkpt>
      <trkpt lat="43.298140" lon="-5.029254">
        <ele>534.437</ele>
        <time>2021-10-15T07:38:26Z</time>
      </trkpt>
      <trkpt lat="43.298041" lon="-5.029451">
        <ele>538.092</ele>
        <time>2021-10-15T07:38:28Z</time>
      </trkpt>
      <trkpt lat="43.297978" lon="-5.029514">
        <ele>538.621</ele>
        <time>2021-10-15T07:38:29Z</time>
      </trkpt>
      <trkpt lat="43.297901" lon="-5.029553">
        <ele>539.441</ele>
        <time>2021-10-15T07:38:30Z</time>
      </trkpt>
      <trkpt lat="43.297808" lon="-5.029561">
        <ele>540.305</ele>
        <time>2021-10-15T07:38:31Z</time>
      </trkpt>
      <trkpt lat="43.297615" lon="-5.029523">
        <ele>541.608</ele>
        <time>2021-10-15T07:38:33Z</time>
      </trkpt>
      <trkpt lat="43.297505" lon="-5.029515">
        <ele>543.890</ele>
        <time>2021-10-15T07:38:34Z</time>
      </trkpt>
      <trkpt lat="43.297392" lon="-5.029539">
        <ele>546.088</ele>
        <time>2021-10-15T07:38:35Z</time>
      </trkpt>
      <trkpt lat="43.297179" lon="-5.029604">
        <ele>549.276</ele>
        <time>2021-10-15T07:38:37Z</time>
      </trkpt>
      <trkpt lat="43.297084" lon="-5.029610">
        <ele>550.840</ele>
        <time>2021-10-15T07:38:38Z</time>
      </trkpt>
      <trkpt lat="43.296930" lon="-5.029546">
        <ele>553.585</ele>
        <time>2021-10-15T07:38:40Z</time>
      </trkpt>
      <trkpt lat="43.296842" lon="-5.029362">
        <ele>554.763</ele>
        <time>2021-10-15T07:38:42Z</time>
      </trkpt>
      <trkpt lat="43.296876" lon="-5.029092">
        <ele>556.566</ele>
        <time>2021-10-15T07:38:44Z</time>
      </trkpt>
      <trkpt lat="43.296988" lon="-5.028772">
        <ele>557.711</ele>
        <time>2021-10-15T07:38:46Z</time>
      </trkpt>
      <trkpt lat="43.297044" lon="-5.028606">
        <ele>558.187</ele>
        <time>2021-10-15T07:38:47Z</time>
      </trkpt>
      <trkpt lat="43.297107" lon="-5.028451">
        <ele>559.342</ele>
        <time>2021-10-15T07:38:48Z</time>
      </trkpt>
      <trkpt lat="43.297247" lon="-5.028191">
        <ele>563.126</ele>
        <time>2021-10-15T07:38:50Z</time>
      </trkpt>
      <trkpt lat="43.297378" lon="-5.027968">
        <ele>566.508</ele>
        <time>2021-10-15T07:38:52Z</time>
      </trkpt>
      <trkpt lat="43.297500" lon="-5.027785">
        <ele>567.926</ele>
        <time>2021-10-15T07:38:54Z</time>
      </trkpt>
      <trkpt lat="43.297545" lon="-5.027699">
        <ele>569.694</ele>
        <time>2021-10-15T07:38:55Z</time>
      </trkpt>
      <trkpt lat="43.297565" lon="-5.027616">
        <ele>570.962</ele>
        <time>2021-10-15T07:38:56Z</time>
      </trkpt>
      <trkpt lat="43.297535" lon="-5.027460">
        <ele>573.296</ele>
        <time>2021-10-15T07:38:58Z</time>
      </trkpt>
      <trkpt lat="43.297493" lon="-5.027374">
        <ele>573.651</ele>
        <time>2021-10-15T07:38:59Z</time>
      </trkpt>
      <trkpt lat="43.297454" lon="-5.027272">
        <ele>574.149</ele>
        <time>2021-10-15T07:39:00Z</time>
      </trkpt>
      <trkpt lat="43.297426" lon="-5.027003">
        <ele>576.642</ele>
        <time>2021-10-15T07:39:02Z</time>
      </trkpt>
      <trkpt lat="43.297426" lon="-5.026842">
        <ele>578.487</ele>
        <time>2021-10-15T07:39:03Z</time>
      </trkpt>
      <trkpt lat="43.297409" lon="-5.026678">
        <ele>580.362</ele>
        <time>2021-10-15T07:39:04Z</time>
      </trkpt>
      <trkpt lat="43.297336" lon="-5.026362">
        <ele>583.283</ele>
        <time>2021-10-15T07:39:06Z</time>
      </trkpt>
      <trkpt lat="43.297285" lon="-5.026036">
        <ele>586.511</ele>
        <time>2021-10-15T07:39:08Z</time>
      </trkpt>
      <trkpt lat="43.297320" lon="-5.025708">
        <ele>589.108</ele>
        <time>2021-10-15T07:39:10Z</time>
      </trkpt>
      <trkpt lat="43.297351" lon="-5.025547">
        <ele>590.774</ele>
        <time>2021-10-15T07:39:11Z</time>
      </trkpt>
      <trkpt lat="43.297434" lon="-5.025236">
        <ele>594.112</ele>
        <time>2021-10-15T07:39:13Z</time>
      </trkpt>
      <trkpt lat="43.297479" lon="-5.025085">
        <ele>594.920</ele>
        <time>2021-10-15T07:39:14Z</time>
      </trkpt>
      <trkpt lat="43.297507" lon="-5.024938">
        <ele>596.064</ele>
        <time>2021-10-15T07:39:15Z</time>
      </trkpt>
      <trkpt lat="43.297492" lon="-5.024658">
        <ele>597.559</ele>
        <time>2021-10-15T07:39:17Z</time>
      </trkpt>
      <trkpt lat="43.297448" lon="-5.024526">
        <ele>598.677</ele>
        <time>2021-10-15T07:39:18Z</time>
      </trkpt>
      <trkpt lat="43.297290" lon="-5.024299">
        <ele>600.810</ele>
        <time>2021-10-15T07:39:20Z</time>
      </trkpt>
      <trkpt lat="43.297086" lon="-5.024083">
        <ele>603.235</ele>
        <time>2021-10-15T07:39:22Z</time>
      </trkpt>
      <trkpt lat="43.296986" lon="-5.023967">
        <ele>604.636</ele>
        <time>2021-10-15T07:39:23Z</time>
      </trkpt>
      <trkpt lat="43.296903" lon="-5.023841">
        <ele>606.317</ele>
        <time>2021-10-15T07:39:24Z</time>
      </trkpt>
      <trkpt lat="43.296799" lon="-5.023593">
        <ele>609.718</ele>
        <time>2021-10-15T07:39:26Z</time>
      </trkpt>
      <trkpt lat="43.296771" lon="-5.023477">
        <ele>610.208</ele>
        <time>2021-10-15T07:39:27Z</time>
      </trkpt>
      <trkpt lat="43.296784" lon="-5.023226">
        <ele>612.971</ele>
        <time>2021-10-15T07:39:29Z</time>
      </trkpt>
      <trkpt lat="43.296817" lon="-5.023094">
        <ele>612.929</ele>
        <time>2021-10-15T07:39:30Z</time>
      </trkpt>
      <trkpt lat="43.296841" lon="-5.022817">
        <ele>614.027</ele>
        <time>2021-10-15T07:39:32Z</time>
      </trkpt>
      <trkpt lat="43.296747" lon="-5.022569">
        <ele>617.851</ele>
        <time>2021-10-15T07:39:34Z</time>
      </trkpt>
      <trkpt lat="43.296677" lon="-5.022455">
        <ele>619.236</ele>
        <time>2021-10-15T07:39:35Z</time>
      </trkpt>
      <trkpt lat="43.296608" lon="-5.022354">
        <ele>620.214</ele>
        <time>2021-10-15T07:39:36Z</time>
      </trkpt>
      <trkpt lat="43.296557" lon="-5.022260">
        <ele>621.527</ele>
        <time>2021-10-15T07:39:37Z</time>
      </trkpt>
      <trkpt lat="43.296527" lon="-5.022157">
        <ele>622.022</ele>
        <time>2021-10-15T07:39:38Z</time>
      </trkpt>
      <trkpt lat="43.296556" lon="-5.021926">
        <ele>623.037</ele>
        <time>2021-10-15T07:39:40Z</time>
      </trkpt>
      <trkpt lat="43.296604" lon="-5.021802">
        <ele>624.449</ele>
        <time>2021-10-15T07:39:41Z</time>
      </trkpt>
      <trkpt lat="43.296646" lon="-5.021672">
        <ele>625.213</ele>
        <time>2021-10-15T07:39:42Z</time>
      </trkpt>
      <trkpt lat="43.296642" lon="-5.021398">
        <ele>626.308</ele>
        <time>2021-10-15T07:39:44Z</time>
      </trkpt>
      <trkpt lat="43.296554" lon="-5.021108">
        <ele>629.561</ele>
        <time>2021-10-15T07:39:46Z</time>
      </trkpt>
      <trkpt lat="43.296504" lon="-5.020949">
        <ele>630.589</ele>
        <time>2021-10-15T07:39:47Z</time>
      </trkpt>
      <trkpt lat="43.296428" lon="-5.020626">
        <ele>631.617</ele>
        <time>2021-10-15T07:39:49Z</time>
      </trkpt>
      <trkpt lat="43.296388" lon="-5.020332">
        <ele>635.831</ele>
        <time>2021-10-15T07:39:51Z</time>
      </trkpt>
      <trkpt lat="43.296372" lon="-5.020196">
        <ele>636.216</ele>
        <time>2021-10-15T07:39:52Z</time>
      </trkpt>
      <trkpt lat="43.296340" lon="-5.019926">
        <ele>639.344</ele>
        <time>2021-10-15T07:39:54Z</time>
      </trkpt>
      <trkpt lat="43.296335" lon="-5.019642">
        <ele>642.137</ele>
        <time>2021-10-15T07:39:56Z</time>
      </trkpt>
      <trkpt lat="43.296329" lon="-5.019378">
        <ele>644.172</ele>
        <time>2021-10-15T07:39:58Z</time>
      </trkpt>
      <trkpt lat="43.296284" lon="-5.019117">
        <ele>648.318</ele>
        <time>2021-10-15T07:40:00Z</time>
      </trkpt>
      <trkpt lat="43.296235" lon="-5.018835">
        <ele>650.398</ele>
        <time>2021-10-15T07:40:02Z</time>
      </trkpt>
      <trkpt lat="43.296205" lon="-5.018686">
        <ele>651.617</ele>
        <time>2021-10-15T07:40:03Z</time>
      </trkpt>
      <trkpt lat="43.296169" lon="-5.018532">
        <ele>652.808</ele>
        <time>2021-10-15T07:40:04Z</time>
      </trkpt>
      <trkpt lat="43.296073" lon="-5.018227">
        <ele>657.199</ele>
        <time>2021-10-15T07:40:06Z</time>
      </trkpt>
      <trkpt lat="43.296020" lon="-5.018070">
        <ele>658.177</ele>
        <time>2021-10-15T07:40:07Z</time>
      </trkpt>
      <trkpt lat="43.295968" lon="-5.017909">
        <ele>659.195</ele>
        <time>2021-10-15T07:40:08Z</time>
      </trkpt>
      <trkpt lat="43.295884" lon="-5.017581">
        <ele>663.269</ele>
        <time>2021-10-15T07:40:10Z</time>
      </trkpt>
      <trkpt lat="43.295833" lon="-5.017234">
        <ele>667.684</ele>
        <time>2021-10-15T07:40:12Z</time>
      </trkpt>
      <trkpt lat="43.295797" lon="-5.016866">
        <ele>670.742</ele>
        <time>2021-10-15T07:40:14Z</time>
      </trkpt>
      <trkpt lat="43.295759" lon="-5.016493">
        <ele>676.425</ele>
        <time>2021-10-15T07:40:16Z</time>
      </trkpt>
      <trkpt lat="43.295704" lon="-5.016123">
        <ele>679.460</ele>
        <time>2021-10-15T07:40:18Z</time>
      </trkpt>
      <trkpt lat="43.295659" lon="-5.015947">
        <ele>681.852</ele>
        <time>2021-10-15T07:40:19Z</time>
      </trkpt>
      <trkpt lat="43.295603" lon="-5.015778">
        <ele>684.553</ele>
        <time>2021-10-15T07:40:20Z</time>
      </trkpt>
      <trkpt lat="43.295467" lon="-5.015466">
        <ele>688.408</ele>
        <time>2021-10-15T07:40:22Z</time>
      </trkpt>
      <trkpt lat="43.295342" lon="-5.015176">
        <ele>689.608</ele>
        <time>2021-10-15T07:40:24Z</time>
      </trkpt>
      <trkpt lat="43.295289" lon="-5.014874">
        <ele>693.763</ele>
        <time>2021-10-15T07:40:26Z</time>
      </trkpt>
      <trkpt lat="43.295236" lon="-5.014573">
        <ele>697.251</ele>
        <time>2021-10-15T07:40:28Z</time>
      </trkpt>
      <trkpt lat="43.295116" lon="-5.014291">
        <ele>702.039</ele>
        <time>2021-10-15T07:40:30Z</time>
      </trkpt>
      <trkpt lat="43.294947" lon="-5.014023">
        <ele>706.673</ele>
        <time>2021-10-15T07:40:32Z</time>
      </trkpt>
      <trkpt lat="43.294789" lon="-5.013738">
        <ele>711.418</ele>
        <time>2021-10-15T07:40:34Z</time>
      </trkpt>
      <trkpt lat="43.294717" lon="-5.013595">
        <ele>715.536</ele>
        <time>2021-10-15T07:40:35Z</time>
      </trkpt>
      <trkpt lat="43.294590" lon="-5.013347">
        <ele>716.829</ele>
        <time>2021-10-15T07:40:37Z</time>
      </trkpt>
      <trkpt lat="43.294529" lon="-5.013238">
        <ele>719.784</ele>
        <time>2021-10-15T07:40:38Z</time>
      </trkpt>
      <trkpt lat="43.294407" lon="-5.013056">
        <ele>722.596</ele>
        <time>2021-10-15T07:40:40Z</time>
      </trkpt>
      <trkpt lat="43.294334" lon="-5.012984">
        <ele>723.531</ele>
        <time>2021-10-15T07:40:41Z</time>
      </trkpt>
      <trkpt lat="43.294164" lon="-5.012879">
        <ele>726.024</ele>
        <time>2021-10-15T07:40:43Z</time>
      </trkpt>
      <trkpt lat="43.294069" lon="-5.012849">
        <ele>727.608</ele>
        <time>2021-10-15T07:40:44Z</time>
      </trkpt>
      <trkpt lat="43.293872" lon="-5.012867">
        <ele>729.427</ele>
        <time>2021-10-15T07:40:46Z</time>
      </trkpt>
      <trkpt lat="43.293779" lon="-5.012921">
        <ele>729.815</ele>
        <time>2021-10-15T07:40:47Z</time>
      </trkpt>
      <trkpt lat="43.293700" lon="-5.013021">
        <ele>730.093</ele>
        <time>2021-10-15T07:40:48Z</time>
      </trkpt>
      <trkpt lat="43.293590" lon="-5.013316">
        <ele>731.277</ele>
        <time>2021-10-15T07:40:50Z</time>
      </trkpt>
      <trkpt lat="43.293511" lon="-5.013634">
        <ele>735.442</ele>
        <time>2021-10-15T07:40:52Z</time>
      </trkpt>
      <trkpt lat="43.293490" lon="-5.013796">
        <ele>736.410</ele>
        <time>2021-10-15T07:40:53Z</time>
      </trkpt>
      <trkpt lat="43.293476" lon="-5.013953">
        <ele>738.773</ele>
        <time>2021-10-15T07:40:54Z</time>
      </trkpt>
      <trkpt lat="43.293457" lon="-5.014100">
        <ele>740.938</ele>
        <time>2021-10-15T07:40:55Z</time>
      </trkpt>
      <trkpt lat="43.293426" lon="-5.014243">
        <ele>741.723</ele>
        <time>2021-10-15T07:40:56Z</time>
      </trkpt>
      <trkpt lat="43.293333" lon="-5.014526">
        <ele>745.783</ele>
        <time>2021-10-15T07:40:58Z</time>
      </trkpt>
      <trkpt lat="43.293276" lon="-5.014679">
        <ele>746.711</ele>
        <time>2021-10-15T07:40:59Z</time>
      </trkpt>
      <trkpt lat="43.293149" lon="-5.015001">
        <ele>749.308</ele>
        <time>2021-10-15T07:41:01Z</time>
      </trkpt>
      <trkpt lat="43.293078" lon="-5.015168">
        <ele>752.150</ele>
        <time>2021-10-15T07:41:02Z</time>
      </trkpt>
      <trkpt lat="43.292909" lon="-5.015478">
        <ele>755.288</ele>
        <time>2021-10-15T07:41:04Z</time>
      </trkpt>
      <trkpt lat="43.292813" lon="-5.015618">
        <ele>756.846</ele>
        <time>2021-10-15T07:41:05Z</time>
      </trkpt>
      <trkpt lat="43.292630" lon="-5.015836">
        <ele>760.560</ele>
        <time>2021-10-15T07:41:07Z</time>
      </trkpt>
      <trkpt lat="43.292558" lon="-5.015925">
        <ele>761.295</ele>
        <time>2021-10-15T07:41:08Z</time>
      </trkpt>
      <trkpt lat="43.292474" lon="-5.016087">
        <ele>763.933</ele>
        <time>2021-10-15T07:41:10Z</time>
      </trkpt>
      <trkpt lat="43.292437" lon="-5.016149">
        <ele>764.086</ele>
        <time>2021-10-15T07:41:11Z</time>
      </trkpt>
      <trkpt lat="43.292393" lon="-5.016187">
        <ele>764.671</ele>
        <time>2021-10-15T07:41:12Z</time>
      </trkpt>
      <trkpt lat="43.292255" lon="-5.016189">
        <ele>766.069</ele>
        <time>2021-10-15T07:41:14Z</time>
      </trkpt>
      <trkpt lat="43.292061" lon="-5.016141">
        <ele>768.104</ele>
        <time>2021-10-15T07:41:16Z</time>
      </trkpt>
      <trkpt lat="43.291858" lon="-5.016135">
        <ele>769.724</ele>
        <time>2021-10-15T07:41:18Z</time>
      </trkpt>
      <trkpt lat="43.291656" lon="-5.016039">
        <ele>771.908</ele>
        <time>2021-10-15T07:41:20Z</time>
      </trkpt>
      <trkpt lat="43.291450" lon="-5.015877">
        <ele>773.234</ele>
        <time>2021-10-15T07:41:22Z</time>
      </trkpt>
      <trkpt lat="43.291338" lon="-5.015800">
        <ele>774.452</ele>
        <time>2021-10-15T07:41:23Z</time>
      </trkpt>
      <trkpt lat="43.291221" lon="-5.015743">
        <ele>776.560</ele>
        <time>2021-10-15T07:41:24Z</time>
      </trkpt>
      <trkpt lat="43.290990" lon="-5.015713">
        <ele>778.384</ele>
        <time>2021-10-15T07:41:26Z</time>
      </trkpt>
      <trkpt lat="43.290798" lon="-5.015746">
        <ele>780.839</ele>
        <time>2021-10-15T07:41:28Z</time>
      </trkpt>
      <trkpt lat="43.290658" lon="-5.015727">
        <ele>782.437</ele>
        <time>2021-10-15T07:41:30Z</time>
      </trkpt>
      <trkpt lat="43.290600" lon="-5.015672">
        <ele>782.970</ele>
        <time>2021-10-15T07:41:31Z</time>
      </trkpt>
      <trkpt lat="43.290544" lon="-5.015579">
        <ele>783.975</ele>
        <time>2021-10-15T07:41:32Z</time>
      </trkpt>
      <trkpt lat="43.290490" lon="-5.015451">
        <ele>784.949</ele>
        <time>2021-10-15T07:41:33Z</time>
      </trkpt>
      <trkpt lat="43.290440" lon="-5.015300">
        <ele>785.802</ele>
        <time>2021-10-15T07:41:34Z</time>
      </trkpt>
      <trkpt lat="43.290391" lon="-5.015135">
        <ele>788.322</ele>
        <time>2021-10-15T07:41:35Z</time>
      </trkpt>
      <trkpt lat="43.290301" lon="-5.014794">
        <ele>792.008</ele>
        <time>2021-10-15T07:41:37Z</time>
      </trkpt>
      <trkpt lat="43.290252" lon="-5.014629">
        <ele>793.422</ele>
        <time>2021-10-15T07:41:38Z</time>
      </trkpt>
      <trkpt lat="43.290146" lon="-5.014393">
        <ele>797.540</ele>
        <time>2021-10-15T07:41:40Z</time>
      </trkpt>
      <trkpt lat="43.290028" lon="-5.014230">
        <ele>800.468</ele>
        <time>2021-10-15T07:41:42Z</time>
      </trkpt>
      <trkpt lat="43.289868" lon="-5.014202">
        <ele>801.782</ele>
        <time>2021-10-15T07:41:44Z</time>
      </trkpt>
      <trkpt lat="43.289778" lon="-5.014225">
        <ele>802.787</ele>
        <time>2021-10-15T07:41:45Z</time>
      </trkpt>
      <trkpt lat="43.289580" lon="-5.014233">
        <ele>804.195</ele>
        <time>2021-10-15T07:41:47Z</time>
      </trkpt>
      <trkpt lat="43.289492" lon="-5.014220">
        <ele>805.338</ele>
        <time>2021-10-15T07:41:48Z</time>
      </trkpt>
      <trkpt lat="43.289420" lon="-5.014201">
        <ele>806.433</ele>
        <time>2021-10-15T07:41:49Z</time>
      </trkpt>
      <trkpt lat="43.289360" lon="-5.014163">
        <ele>806.644</ele>
        <time>2021-10-15T07:41:50Z</time>
      </trkpt>
      <trkpt lat="43.289296" lon="-5.014006">
        <ele>809.305</ele>
        <time>2021-10-15T07:41:52Z</time>
      </trkpt>
      <trkpt lat="43.289299" lon="-5.013897">
        <ele>809.915</ele>
        <time>2021-10-15T07:41:53Z</time>
      </trkpt>
      <trkpt lat="43.289324" lon="-5.013783">
        <ele>811.108</ele>
        <time>2021-10-15T07:41:54Z</time>
      </trkpt>
      <trkpt lat="43.289360" lon="-5.013672">
        <ele>812.822</ele>
        <time>2021-10-15T07:41:55Z</time>
      </trkpt>
      <trkpt lat="43.289387" lon="-5.013565">
        <ele>814.210</ele>
        <time>2021-10-15T07:41:56Z</time>
      </trkpt>
      <trkpt lat="43.289385" lon="-5.013344">
        <ele>816.338</ele>
        <time>2021-10-15T07:41:58Z</time>
      </trkpt>
      <trkpt lat="43.289351" lon="-5.013239">
        <ele>817.572</ele>
        <time>2021-10-15T07:41:59Z</time>
      </trkpt>
      <trkpt lat="43.289315" lon="-5.013042">
        <ele>819.937</ele>
        <time>2021-10-15T07:42:01Z</time>
      </trkpt>
      <trkpt lat="43.289386" lon="-5.012869">
        <ele>821.495</ele>
        <time>2021-10-15T07:42:03Z</time>
      </trkpt>
      <trkpt lat="43.289534" lon="-5.012790">
        <ele>824.678</ele>
        <time>2021-10-15T07:42:05Z</time>
      </trkpt>
      <trkpt lat="43.289700" lon="-5.012849">
        <ele>827.193</ele>
        <time>2021-10-15T07:42:07Z</time>
      </trkpt>
      <trkpt lat="43.289781" lon="-5.012927">
        <ele>829.468</ele>
        <time>2021-10-15T07:42:08Z</time>
      </trkpt>
      <trkpt lat="43.289936" lon="-5.013098">
        <ele>833.642</ele>
        <time>2021-10-15T07:42:10Z</time>
      </trkpt>
      <trkpt lat="43.290078" lon="-5.013236">
        <ele>835.026</ele>
        <time>2021-10-15T07:42:12Z</time>
      </trkpt>
      <trkpt lat="43.290134" lon="-5.013284">
        <ele>835.608</ele>
        <time>2021-10-15T07:42:13Z</time>
      </trkpt>
      <trkpt lat="43.290227" lon="-5.013315">
        <ele>836.114</ele>
        <time>2021-10-15T07:42:15Z</time>
      </trkpt>
      <trkpt lat="43.290315" lon="-5.013228">
        <ele>836.232</ele>
        <time>2021-10-15T07:42:17Z</time>
      </trkpt>
      <trkpt lat="43.290334" lon="-5.013141">
        <ele>836.620</ele>
        <time>2021-10-15T07:42:18Z</time>
      </trkpt>
      <trkpt lat="43.290334" lon="-5.013036">
        <ele>838.594</ele>
        <time>2021-10-15T07:42:19Z</time>
      </trkpt>
      <trkpt lat="43.290323" lon="-5.012915">
        <ele>839.569</ele>
        <time>2021-10-15T07:42:20Z</time>
      </trkpt>
      <trkpt lat="43.290332" lon="-5.012660">
        <ele>840.287</ele>
        <time>2021-10-15T07:42:22Z</time>
      </trkpt>
      <trkpt lat="43.290389" lon="-5.012422">
        <ele>841.120</ele>
        <time>2021-10-15T07:42:24Z</time>
      </trkpt>
      <trkpt lat="43.290389" lon="-5.012161">
        <ele>841.795</ele>
        <time>2021-10-15T07:42:26Z</time>
      </trkpt>
      <trkpt lat="43.290297" lon="-5.011909">
        <ele>842.355</ele>
        <time>2021-10-15T07:42:28Z</time>
      </trkpt>
      <trkpt lat="43.290178" lon="-5.011652">
        <ele>843.307</ele>
        <time>2021-10-15T07:42:30Z</time>
      </trkpt>
      <trkpt lat="43.290107" lon="-5.011399">
        <ele>843.417</ele>
        <time>2021-10-15T07:42:32Z</time>
      </trkpt>
      <trkpt lat="43.290101" lon="-5.011263">
        <ele>843.508</ele>
        <time>2021-10-15T07:42:33Z</time>
      </trkpt>
      <trkpt lat="43.290103" lon="-5.011124">
        <ele>843.473</ele>
        <time>2021-10-15T07:42:34Z</time>
      </trkpt>
      <trkpt lat="43.290136" lon="-5.010872">
        <ele>843.891</ele>
        <time>2021-10-15T07:42:36Z</time>
      </trkpt>
      <trkpt lat="43.290186" lon="-5.010759">
        <ele>844.199</ele>
        <time>2021-10-15T07:42:37Z</time>
      </trkpt>
      <trkpt lat="43.290259" lon="-5.010655">
        <ele>844.163</ele>
        <time>2021-10-15T07:42:38Z</time>
      </trkpt>
      <trkpt lat="43.290402" lon="-5.010438">
        <ele>844.488</ele>
        <time>2021-10-15T07:42:40Z</time>
      </trkpt>
      <trkpt lat="43.290452" lon="-5.010311">
        <ele>844.756</ele>
        <time>2021-10-15T07:42:41Z</time>
      </trkpt>
      <trkpt lat="43.290477" lon="-5.010178">
        <ele>845.329</ele>
        <time>2021-10-15T07:42:42Z</time>
      </trkpt>
      <trkpt lat="43.290481" lon="-5.010050">
        <ele>844.794</ele>
        <time>2021-10-15T07:42:43Z</time>
      </trkpt>
      <trkpt lat="43.290486" lon="-5.009933">
        <ele>845.354</ele>
        <time>2021-10-15T07:42:44Z</time>
      </trkpt>
      <trkpt lat="43.290569" lon="-5.009758">
        <ele>845.556</ele>
        <time>2021-10-15T07:42:46Z</time>
      </trkpt>
      <trkpt lat="43.290645" lon="-5.009709">
        <ele>845.511</ele>
        <time>2021-10-15T07:42:47Z</time>
      </trkpt>
      <trkpt lat="43.290829" lon="-5.009687">
        <ele>844.708</ele>
        <time>2021-10-15T07:42:49Z</time>
      </trkpt>
      <trkpt lat="43.290918" lon="-5.009660">
        <ele>843.833</ele>
        <time>2021-10-15T07:42:50Z</time>
      </trkpt>
      <trkpt lat="43.291055" lon="-5.009504">
        <ele>842.661</ele>
        <time>2021-10-15T07:42:52Z</time>
      </trkpt>
      <trkpt lat="43.291103" lon="-5.009383">
        <ele>841.759</ele>
        <time>2021-10-15T07:42:53Z</time>
      </trkpt>
      <trkpt lat="43.291115" lon="-5.009135">
        <ele>841.083</ele>
        <time>2021-10-15T07:42:55Z</time>
      </trkpt>
      <trkpt lat="43.291078" lon="-5.009036">
        <ele>841.078</ele>
        <time>2021-10-15T07:42:56Z</time>
      </trkpt>
      <trkpt lat="43.290992" lon="-5.008834">
        <ele>841.056</ele>
        <time>2021-10-15T07:42:58Z</time>
      </trkpt>
      <trkpt lat="43.290961" lon="-5.008580">
        <ele>841.439</ele>
        <time>2021-10-15T07:43:00Z</time>
      </trkpt>
      <trkpt lat="43.291039" lon="-5.008328">
        <ele>843.574</ele>
        <time>2021-10-15T07:43:02Z</time>
      </trkpt>
      <trkpt lat="43.291157" lon="-5.008095">
        <ele>845.598</ele>
        <time>2021-10-15T07:43:04Z</time>
      </trkpt>
      <trkpt lat="43.291245" lon="-5.007872">
        <ele>848.815</ele>
        <time>2021-10-15T07:43:06Z</time>
      </trkpt>
      <trkpt lat="43.291263" lon="-5.007756">
        <ele>849.726</ele>
        <time>2021-10-15T07:43:07Z</time>
      </trkpt>
      <trkpt lat="43.291259" lon="-5.007640">
        <ele>849.808</ele>
        <time>2021-10-15T07:43:08Z</time>
      </trkpt>
      <trkpt lat="43.291192" lon="-5.007424">
        <ele>849.897</ele>
        <time>2021-10-15T07:43:10Z</time>
      </trkpt>
      <trkpt lat="43.291145" lon="-5.007316">
        <ele>850.535</ele>
        <time>2021-10-15T07:43:11Z</time>
      </trkpt>
      <trkpt lat="43.291099" lon="-5.007209">
        <ele>851.673</ele>
        <time>2021-10-15T07:43:12Z</time>
      </trkpt>
      <trkpt lat="43.290959" lon="-5.007039">
        <ele>853.727</ele>
        <time>2021-10-15T07:43:14Z</time>
      </trkpt>
      <trkpt lat="43.290758" lon="-5.006979">
        <ele>857.412</ele>
        <time>2021-10-15T07:43:16Z</time>
      </trkpt>
      <trkpt lat="43.290648" lon="-5.006970">
        <ele>859.360</ele>
        <time>2021-10-15T07:43:17Z</time>
      </trkpt>
      <trkpt lat="43.290539" lon="-5.006958">
        <ele>859.623</ele>
        <time>2021-10-15T07:43:18Z</time>
      </trkpt>
      <trkpt lat="43.290354" lon="-5.006926">
        <ele>862.178</ele>
        <time>2021-10-15T07:43:20Z</time>
      </trkpt>
      <trkpt lat="43.290226" lon="-5.006837">
        <ele>864.039</ele>
        <time>2021-10-15T07:43:22Z</time>
      </trkpt>
      <trkpt lat="43.290191" lon="-5.006757">
        <ele>864.801</ele>
        <time>2021-10-15T07:43:23Z</time>
      </trkpt>
      <trkpt lat="43.290182" lon="-5.006656">
        <ele>866.421</ele>
        <time>2021-10-15T07:43:24Z</time>
      </trkpt>
      <trkpt lat="43.290186" lon="-5.006538">
        <ele>868.908</ele>
        <time>2021-10-15T07:43:25Z</time>
      </trkpt>
      <trkpt lat="43.290170" lon="-5.006269">
        <ele>871.341</ele>
        <time>2021-10-15T07:43:27Z</time>
      </trkpt>
      <trkpt lat="43.290148" lon="-5.006121">
        <ele>873.669</ele>
        <time>2021-10-15T07:43:28Z</time>
      </trkpt>
      <trkpt lat="43.290123" lon="-5.005966">
        <ele>875.817</ele>
        <time>2021-10-15T07:43:29Z</time>
      </trkpt>
      <trkpt lat="43.290069" lon="-5.005651">
        <ele>877.321</ele>
        <time>2021-10-15T07:43:31Z</time>
      </trkpt>
      <trkpt lat="43.290044" lon="-5.005507">
        <ele>880.286</ele>
        <time>2021-10-15T07:43:32Z</time>
      </trkpt>
      <trkpt lat="43.290021" lon="-5.005377">
        <ele>881.594</ele>
        <time>2021-10-15T07:43:33Z</time>
      </trkpt>
      <trkpt lat="43.289952" lon="-5.005133">
        <ele>884.097</ele>
        <time>2021-10-15T07:43:35Z</time>
      </trkpt>
      <trkpt lat="43.289894" lon="-5.005021">
        <ele>884.172</ele>
        <time>2021-10-15T07:43:36Z</time>
      </trkpt>
      <trkpt lat="43.289720" lon="-5.004840">
        <ele>887.938</ele>
        <time>2021-10-15T07:43:38Z</time>
      </trkpt>
      <trkpt lat="43.289484" lon="-5.004721">
        <ele>890.370</ele>
        <time>2021-10-15T07:43:40Z</time>
      </trkpt>
      <trkpt lat="43.289345" lon="-5.004684">
        <ele>891.017</ele>
        <time>2021-10-15T07:43:41Z</time>
      </trkpt>
      <trkpt lat="43.289055" lon="-5.004646">
        <ele>894.608</ele>
        <time>2021-10-15T07:43:43Z</time>
      </trkpt>
      <trkpt lat="43.288909" lon="-5.004630">
        <ele>895.251</ele>
        <time>2021-10-15T07:43:44Z</time>
      </trkpt>
      <trkpt lat="43.288662" lon="-5.004593">
        <ele>896.239</ele>
        <time>2021-10-15T07:43:46Z</time>
      </trkpt>
      <trkpt lat="43.288564" lon="-5.004585">
        <ele>896.427</ele>
        <time>2021-10-15T07:43:47Z</time>
      </trkpt>
      <trkpt lat="43.288389" lon="-5.004645">
        <ele>896.971</ele>
        <time>2021-10-15T07:43:49Z</time>
      </trkpt>
      <trkpt lat="43.288307" lon="-5.004728">
        <ele>898.096</ele>
        <time>2021-10-15T07:43:50Z</time>
      </trkpt>
      <trkpt lat="43.288188" lon="-5.004995">
        <ele>897.754</ele>
        <time>2021-10-15T07:43:52Z</time>
      </trkpt>
      <trkpt lat="43.288162" lon="-5.005158">
        <ele>897.717</ele>
        <time>2021-10-15T07:43:53Z</time>
      </trkpt>
      <trkpt lat="43.288190" lon="-5.005491">
        <ele>899.242</ele>
        <time>2021-10-15T07:43:55Z</time>
      </trkpt>
      <trkpt lat="43.288213" lon="-5.005637">
        <ele>901.391</ele>
        <time>2021-10-15T07:43:56Z</time>
      </trkpt>
      <trkpt lat="43.288238" lon="-5.005860">
        <ele>903.481</ele>
        <time>2021-10-15T07:43:58Z</time>
      </trkpt>
      <trkpt lat="43.288225" lon="-5.005951">
        <ele>904.719</ele>
        <time>2021-10-15T07:43:59Z</time>
      </trkpt>
      <trkpt lat="43.288129" lon="-5.006101">
        <ele>906.908</ele>
        <time>2021-10-15T07:44:01Z</time>
      </trkpt>
      <trkpt lat="43.287964" lon="-5.006237">
        <ele>908.167</ele>
        <time>2021-10-15T07:44:03Z</time>
      </trkpt>
      <trkpt lat="43.287766" lon="-5.006403">
        <ele>910.315</ele>
        <time>2021-10-15T07:44:05Z</time>
      </trkpt>
      <trkpt lat="43.287674" lon="-5.006502">
        <ele>911.343</ele>
        <time>2021-10-15T07:44:06Z</time>
      </trkpt>
      <trkpt lat="43.287505" lon="-5.006651">
        <ele>915.037</ele>
        <time>2021-10-15T07:44:08Z</time>
      </trkpt>
      <trkpt lat="43.287311" lon="-5.006706">
        <ele>916.232</ele>
        <time>2021-10-15T07:44:10Z</time>
      </trkpt>
      <trkpt lat="43.287208" lon="-5.006728">
        <ele>918.090</ele>
        <time>2021-10-15T07:44:11Z</time>
      </trkpt>
      <trkpt lat="43.287006" lon="-5.006769">
        <ele>918.963</ele>
        <time>2021-10-15T07:44:13Z</time>
      </trkpt>
      <trkpt lat="43.286908" lon="-5.006796">
        <ele>920.848</ele>
        <time>2021-10-15T07:44:14Z</time>
      </trkpt>
      <trkpt lat="43.286740" lon="-5.006857">
        <ele>921.152</ele>
        <time>2021-10-15T07:44:16Z</time>
      </trkpt>
      <trkpt lat="43.286676" lon="-5.006916">
        <ele>921.853</ele>
        <time>2021-10-15T07:44:17Z</time>
      </trkpt>
      <trkpt lat="43.286600" lon="-5.007126">
        <ele>922.808</ele>
        <time>2021-10-15T07:44:19Z</time>
      </trkpt>
      <trkpt lat="43.286590" lon="-5.007256">
        <ele>922.908</ele>
        <time>2021-10-15T07:44:20Z</time>
      </trkpt>
      <trkpt lat="43.286606" lon="-5.007500">
        <ele>924.583</ele>
        <time>2021-10-15T07:44:22Z</time>
      </trkpt>
      <trkpt lat="43.286627" lon="-5.007602">
        <ele>925.331</ele>
        <time>2021-10-15T07:44:23Z</time>
      </trkpt>
      <trkpt lat="43.286612" lon="-5.007774">
        <ele>925.699</ele>
        <time>2021-10-15T07:44:25Z</time>
      </trkpt>
      <trkpt lat="43.286561" lon="-5.007845">
        <ele>925.953</ele>
        <time>2021-10-15T07:44:26Z</time>
      </trkpt>
      <trkpt lat="43.286397" lon="-5.007911">
        <ele>926.588</ele>
        <time>2021-10-15T07:44:28Z</time>
      </trkpt>
      <trkpt lat="43.286167" lon="-5.007915">
        <ele>927.276</ele>
        <time>2021-10-15T07:44:30Z</time>
      </trkpt>
      <trkpt lat="43.286050" lon="-5.007937">
        <ele>928.189</ele>
        <time>2021-10-15T07:44:31Z</time>
      </trkpt>
      <trkpt lat="43.285853" lon="-5.008059">
        <ele>930.224</ele>
        <time>2021-10-15T07:44:33Z</time>
      </trkpt>
      <trkpt lat="43.285740" lon="-5.008233">
        <ele>932.355</ele>
        <time>2021-10-15T07:44:35Z</time>
      </trkpt>
      <trkpt lat="43.285725" lon="-5.008341">
        <ele>934.207</ele>
        <time>2021-10-15T07:44:36Z</time>
      </trkpt>
      <trkpt lat="43.285714" lon="-5.008445">
        <ele>934.817</ele>
        <time>2021-10-15T07:44:37Z</time>
      </trkpt>
      <trkpt lat="43.285692" lon="-5.008539">
        <ele>936.508</ele>
        <time>2021-10-15T07:44:38Z</time>
      </trkpt>
      <trkpt lat="43.285605" lon="-5.008658">
        <ele>938.123</ele>
        <time>2021-10-15T07:44:40Z</time>
      </trkpt>
      <trkpt lat="43.285550" lon="-5.008670">
        <ele>939.461</ele>
        <time>2021-10-15T07:44:41Z</time>
      </trkpt>
      <trkpt lat="43.285406" lon="-5.008588">
        <ele>941.969</ele>
        <time>2021-10-15T07:44:43Z</time>
      </trkpt>
      <trkpt lat="43.285326" lon="-5.008538">
        <ele>942.383</ele>
        <time>2021-10-15T07:44:44Z</time>
      </trkpt>
      <trkpt lat="43.285170" lon="-5.008519">
        <ele>943.598</ele>
        <time>2021-10-15T07:44:46Z</time>
      </trkpt>
      <trkpt lat="43.285093" lon="-5.008556">
        <ele>944.856</ele>
        <time>2021-10-15T07:44:47Z</time>
      </trkpt>
      <trkpt lat="43.284972" lon="-5.008686">
        <ele>946.579</ele>
        <time>2021-10-15T07:44:49Z</time>
      </trkpt>
      <trkpt lat="43.284924" lon="-5.008734">
        <ele>946.854</ele>
        <time>2021-10-15T07:44:50Z</time>
      </trkpt>
      <trkpt lat="43.284793" lon="-5.008745">
        <ele>946.879</ele>
        <time>2021-10-15T07:44:52Z</time>
      </trkpt>
      <trkpt lat="43.284708" lon="-5.008700">
        <ele>947.005</ele>
        <time>2021-10-15T07:44:53Z</time>
      </trkpt>
      <trkpt lat="43.284520" lon="-5.008533">
        <ele>949.625</ele>
        <time>2021-10-15T07:44:55Z</time>
      </trkpt>
      <trkpt lat="43.284421" lon="-5.008411">
        <ele>949.408</ele>
        <time>2021-10-15T07:44:56Z</time>
      </trkpt>
      <trkpt lat="43.284235" lon="-5.008193">
        <ele>949.415</ele>
        <time>2021-10-15T07:44:58Z</time>
      </trkpt>
      <trkpt lat="43.284148" lon="-5.008106">
        <ele>949.983</ele>
        <time>2021-10-15T07:44:59Z</time>
      </trkpt>
      <trkpt lat="43.284083" lon="-5.008005">
        <ele>949.981</ele>
        <time>2021-10-15T07:45:00Z</time>
      </trkpt>
      <trkpt lat="43.284012" lon="-5.007746">
        <ele>948.445</ele>
        <time>2021-10-15T07:45:02Z</time>
      </trkpt>
      <trkpt lat="43.283976" lon="-5.007603">
        <ele>948.730</ele>
        <time>2021-10-15T07:45:03Z</time>
      </trkpt>
      <trkpt lat="43.283837" lon="-5.007322">
        <ele>949.478</ele>
        <time>2021-10-15T07:45:05Z</time>
      </trkpt>
      <trkpt lat="43.283746" lon="-5.007183">
        <ele>950.251</ele>
        <time>2021-10-15T07:45:06Z</time>
      </trkpt>
      <trkpt lat="43.283666" lon="-5.007031">
        <ele>950.836</ele>
        <time>2021-10-15T07:45:07Z</time>
      </trkpt>
      <trkpt lat="43.283598" lon="-5.006867">
        <ele>951.779</ele>
        <time>2021-10-15T07:45:08Z</time>
      </trkpt>
      <trkpt lat="43.283494" lon="-5.006560">
        <ele>952.405</ele>
        <time>2021-10-15T07:45:10Z</time>
      </trkpt>
      <trkpt lat="43.283402" lon="-5.006280">
        <ele>952.025</ele>
        <time>2021-10-15T07:45:12Z</time>
      </trkpt>
      <trkpt lat="43.283310" lon="-5.005980">
        <ele>950.708</ele>
        <time>2021-10-15T07:45:14Z</time>
      </trkpt>
      <trkpt lat="43.283234" lon="-5.005656">
        <ele>947.555</ele>
        <time>2021-10-15T07:45:16Z</time>
      </trkpt>
      <trkpt lat="43.283202" lon="-5.005486">
        <ele>946.253</ele>
        <time>2021-10-15T07:45:17Z</time>
      </trkpt>
      <trkpt lat="43.283141" lon="-5.005142">
        <ele>945.131</ele>
        <time>2021-10-15T07:45:19Z</time>
      </trkpt>
      <trkpt lat="43.283103" lon="-5.004971">
        <ele>943.275</ele>
        <time>2021-10-15T07:45:20Z</time>
      </trkpt>
      <trkpt lat="43.282998" lon="-5.004643">
        <ele>939.120</ele>
        <time>2021-10-15T07:45:22Z</time>
      </trkpt>
      <trkpt lat="43.282883" lon="-5.004361">
        <ele>936.778</ele>
        <time>2021-10-15T07:45:24Z</time>
      </trkpt>
      <trkpt lat="43.282838" lon="-5.004226">
        <ele>934.381</ele>
        <time>2021-10-15T07:45:25Z</time>
      </trkpt>
      <trkpt lat="43.282793" lon="-5.003976">
        <ele>932.036</ele>
        <time>2021-10-15T07:45:27Z</time>
      </trkpt>
      <trkpt lat="43.282817" lon="-5.003736">
        <ele>930.674</ele>
        <time>2021-10-15T07:45:29Z</time>
      </trkpt>
      <trkpt lat="43.282852" lon="-5.003637">
        <ele>930.456</ele>
        <time>2021-10-15T07:45:30Z</time>
      </trkpt>
      <trkpt lat="43.282888" lon="-5.003557">
        <ele>929.721</ele>
        <time>2021-10-15T07:45:31Z</time>
      </trkpt>
      <trkpt lat="43.282918" lon="-5.003488">
        <ele>928.508</ele>
        <time>2021-10-15T07:45:32Z</time>
      </trkpt>
      <trkpt lat="43.282911" lon="-5.003378">
        <ele>927.255</ele>
        <time>2021-10-15T07:45:34Z</time>
      </trkpt>
      <trkpt lat="43.282833" lon="-5.003316">
        <ele>926.113</ele>
        <time>2021-10-15T07:45:36Z</time>
      </trkpt>
      <trkpt lat="43.282770" lon="-5.003332">
        <ele>925.861</ele>
        <time>2021-10-15T07:45:37Z</time>
      </trkpt>
      <trkpt lat="43.282705" lon="-5.003384">
        <ele>925.155</ele>
        <time>2021-10-15T07:45:38Z</time>
      </trkpt>
      <trkpt lat="43.282590" lon="-5.003534">
        <ele>921.750</ele>
        <time>2021-10-15T07:45:40Z</time>
      </trkpt>
      <trkpt lat="43.282437" lon="-5.003642">
        <ele>920.438</ele>
        <time>2021-10-15T07:45:42Z</time>
      </trkpt>
      <trkpt lat="43.282240" lon="-5.003624">
        <ele>919.281</ele>
        <time>2021-10-15T07:45:44Z</time>
      </trkpt>
      <trkpt lat="43.282034" lon="-5.003616">
        <ele>919.886</ele>
        <time>2021-10-15T07:45:46Z</time>
      </trkpt>
      <trkpt lat="43.281836" lon="-5.003671">
        <ele>923.056</ele>
        <time>2021-10-15T07:45:48Z</time>
      </trkpt>
      <trkpt lat="43.281745" lon="-5.003683">
        <ele>923.159</ele>
        <time>2021-10-15T07:45:49Z</time>
      </trkpt>
      <trkpt lat="43.281657" lon="-5.003672">
        <ele>923.614</ele>
        <time>2021-10-15T07:45:50Z</time>
      </trkpt>
      <trkpt lat="43.281488" lon="-5.003586">
        <ele>925.408</ele>
        <time>2021-10-15T07:45:52Z</time>
      </trkpt>
      <trkpt lat="43.281415" lon="-5.003509">
        <ele>925.943</ele>
        <time>2021-10-15T07:45:53Z</time>
      </trkpt>
      <trkpt lat="43.281356" lon="-5.003408">
        <ele>926.921</ele>
        <time>2021-10-15T07:45:54Z</time>
      </trkpt>
      <trkpt lat="43.281308" lon="-5.003294">
        <ele>928.379</ele>
        <time>2021-10-15T07:45:55Z</time>
      </trkpt>
      <trkpt lat="43.281257" lon="-5.003171">
        <ele>929.833</ele>
        <time>2021-10-15T07:45:56Z</time>
      </trkpt>
      <trkpt lat="43.281131" lon="-5.002920">
        <ele>932.688</ele>
        <time>2021-10-15T07:45:58Z</time>
      </trkpt>
      <trkpt lat="43.281052" lon="-5.002807">
        <ele>932.986</ele>
        <time>2021-10-15T07:45:59Z</time>
      </trkpt>
      <trkpt lat="43.280865" lon="-5.002670">
        <ele>935.939</ele>
        <time>2021-10-15T07:46:01Z</time>
      </trkpt>
      <trkpt lat="43.280757" lon="-5.002660">
        <ele>936.034</ele>
        <time>2021-10-15T07:46:02Z</time>
      </trkpt>
      <trkpt lat="43.280545" lon="-5.002740">
        <ele>940.293</ele>
        <time>2021-10-15T07:46:04Z</time>
      </trkpt>
      <trkpt lat="43.280338" lon="-5.002790">
        <ele>941.065</ele>
        <time>2021-10-15T07:46:06Z</time>
      </trkpt>
      <trkpt lat="43.280134" lon="-5.002761">
        <ele>943.021</ele>
        <time>2021-10-15T07:46:08Z</time>
      </trkpt>
      <trkpt lat="43.279929" lon="-5.002742">
        <ele>946.008</ele>
        <time>2021-10-15T07:46:10Z</time>
      </trkpt>
      <trkpt lat="43.279827" lon="-5.002779">
        <ele>946.427</ele>
        <time>2021-10-15T07:46:11Z</time>
      </trkpt>
      <trkpt lat="43.279642" lon="-5.002938">
        <ele>948.175</ele>
        <time>2021-10-15T07:46:13Z</time>
      </trkpt>
      <trkpt lat="43.279556" lon="-5.003022">
        <ele>949.193</ele>
        <time>2021-10-15T07:46:14Z</time>
      </trkpt>
      <trkpt lat="43.279365" lon="-5.003099">
        <ele>952.027</ele>
        <time>2021-10-15T07:46:16Z</time>
      </trkpt>
      <trkpt lat="43.279256" lon="-5.003109">
        <ele>953.252</ele>
        <time>2021-10-15T07:46:17Z</time>
      </trkpt>
      <trkpt lat="43.279141" lon="-5.003132">
        <ele>954.630</ele>
        <time>2021-10-15T07:46:18Z</time>
      </trkpt>
      <trkpt lat="43.278882" lon="-5.003241">
        <ele>957.573</ele>
        <time>2021-10-15T07:46:20Z</time>
      </trkpt>
      <trkpt lat="43.278653" lon="-5.003384">
        <ele>961.358</ele>
        <time>2021-10-15T07:46:22Z</time>
      </trkpt>
      <trkpt lat="43.278556" lon="-5.003465">
        <ele>961.791</ele>
        <time>2021-10-15T07:46:23Z</time>
      </trkpt>
      <trkpt lat="43.278466" lon="-5.003560">
        <ele>963.681</ele>
        <time>2021-10-15T07:46:24Z</time>
      </trkpt>
      <trkpt lat="43.278382" lon="-5.003667">
        <ele>965.019</ele>
        <time>2021-10-15T07:46:25Z</time>
      </trkpt>
      <trkpt lat="43.278297" lon="-5.003775">
        <ele>967.608</ele>
        <time>2021-10-15T07:46:26Z</time>
      </trkpt>
      <trkpt lat="43.278170" lon="-5.003933">
        <ele>968.127</ele>
        <time>2021-10-15T07:46:28Z</time>
      </trkpt>
      <trkpt lat="43.278031" lon="-5.004021">
        <ele>969.765</ele>
        <time>2021-10-15T07:46:30Z</time>
      </trkpt>
      <trkpt lat="43.277935" lon="-5.004035">
        <ele>970.773</ele>
        <time>2021-10-15T07:46:31Z</time>
      </trkpt>
      <trkpt lat="43.277833" lon="-5.004033">
        <ele>971.747</ele>
        <time>2021-10-15T07:46:32Z</time>
      </trkpt>
      <trkpt lat="43.277641" lon="-5.004039">
        <ele>974.712</ele>
        <time>2021-10-15T07:46:34Z</time>
      </trkpt>
      <trkpt lat="43.277557" lon="-5.004077">
        <ele>975.260</ele>
        <time>2021-10-15T07:46:35Z</time>
      </trkpt>
      <trkpt lat="43.277435" lon="-5.004237">
        <ele>978.183</ele>
        <time>2021-10-15T07:46:37Z</time>
      </trkpt>
      <trkpt lat="43.277403" lon="-5.004360">
        <ele>978.718</ele>
        <time>2021-10-15T07:46:38Z</time>
      </trkpt>
      <trkpt lat="43.277344" lon="-5.004626">
        <ele>980.533</ele>
        <time>2021-10-15T07:46:40Z</time>
      </trkpt>
      <trkpt lat="43.277301" lon="-5.004761">
        <ele>981.923</ele>
        <time>2021-10-15T07:46:41Z</time>
      </trkpt>
      <trkpt lat="43.277178" lon="-5.005031">
        <ele>984.115</ele>
        <time>2021-10-15T07:46:43Z</time>
      </trkpt>
      <trkpt lat="43.277107" lon="-5.005165">
        <ele>984.608</ele>
        <time>2021-10-15T07:46:44Z</time>
      </trkpt>
      <trkpt lat="43.276976" lon="-5.005374">
        <ele>987.571</ele>
        <time>2021-10-15T07:46:46Z</time>
      </trkpt>
      <trkpt lat="43.276852" lon="-5.005491">
        <ele>990.049</ele>
        <time>2021-10-15T07:46:48Z</time>
      </trkpt>
      <trkpt lat="43.276697" lon="-5.005513">
        <ele>991.757</ele>
        <time>2021-10-15T07:46:50Z</time>
      </trkpt>
      <trkpt lat="43.276515" lon="-5.005447">
        <ele>994.611</ele>
        <time>2021-10-15T07:46:52Z</time>
      </trkpt>
      <trkpt lat="43.276428" lon="-5.005405">
        <ele>995.676</ele>
        <time>2021-10-15T07:46:53Z</time>
      </trkpt>
      <trkpt lat="43.276286" lon="-5.005290">
        <ele>997.644</ele>
        <time>2021-10-15T07:46:55Z</time>
      </trkpt>
      <trkpt lat="43.276232" lon="-5.005199">
        <ele>997.867</ele>
        <time>2021-10-15T07:46:56Z</time>
      </trkpt>
      <trkpt lat="43.276145" lon="-5.004987">
        <ele>999.632</ele>
        <time>2021-10-15T07:46:58Z</time>
      </trkpt>
      <trkpt lat="43.276098" lon="-5.004871">
        <ele>1000.862</ele>
        <time>2021-10-15T07:46:59Z</time>
      </trkpt>
      <trkpt lat="43.276039" lon="-5.004757">
        <ele>1004.483</ele>
        <time>2021-10-15T07:47:00Z</time>
      </trkpt>
      <trkpt lat="43.275907" lon="-5.004512">
        <ele>1006.111</ele>
        <time>2021-10-15T07:47:02Z</time>
      </trkpt>
      <trkpt lat="43.275785" lon="-5.004241">
        <ele>1009.408</ele>
        <time>2021-10-15T07:47:04Z</time>
      </trkpt>
      <trkpt lat="43.275734" lon="-5.004102">
        <ele>1010.344</ele>
        <time>2021-10-15T07:47:05Z</time>
      </trkpt>
      <trkpt lat="43.275690" lon="-5.003960">
        <ele>1010.992</ele>
        <time>2021-10-15T07:47:06Z</time>
      </trkpt>
      <trkpt lat="43.275651" lon="-5.003813">
        <ele>1013.250</ele>
        <time>2021-10-15T07:47:07Z</time>
      </trkpt>
      <trkpt lat="43.275615" lon="-5.003663">
        <ele>1014.484</ele>
        <time>2021-10-15T07:47:08Z</time>
      </trkpt>
      <trkpt lat="43.275548" lon="-5.003364">
        <ele>1016.919</ele>
        <time>2021-10-15T07:47:10Z</time>
      </trkpt>
      <trkpt lat="43.275493" lon="-5.003057">
        <ele>1019.317</ele>
        <time>2021-10-15T07:47:12Z</time>
      </trkpt>
      <trkpt lat="43.275476" lon="-5.002906">
        <ele>1021.090</ele>
        <time>2021-10-15T07:47:13Z</time>
      </trkpt>
      <trkpt lat="43.275471" lon="-5.002758">
        <ele>1021.165</ele>
        <time>2021-10-15T07:47:14Z</time>
      </trkpt>
      <trkpt lat="43.275514" lon="-5.002474">
        <ele>1022.776</ele>
        <time>2021-10-15T07:47:16Z</time>
      </trkpt>
      <trkpt lat="43.275556" lon="-5.002339">
        <ele>1024.590</ele>
        <time>2021-10-15T07:47:17Z</time>
      </trkpt>
      <trkpt lat="43.275644" lon="-5.002078">
        <ele>1026.619</ele>
        <time>2021-10-15T07:47:19Z</time>
      </trkpt>
      <trkpt lat="43.275682" lon="-5.001946">
        <ele>1027.508</ele>
        <time>2021-10-15T07:47:20Z</time>
      </trkpt>
      <trkpt lat="43.275727" lon="-5.001666">
        <ele>1029.315</ele>
        <time>2021-10-15T07:47:22Z</time>
      </trkpt>
      <trkpt lat="43.275700" lon="-5.001363">
        <ele>1029.853</ele>
        <time>2021-10-15T07:47:24Z</time>
      </trkpt>
      <trkpt lat="43.275670" lon="-5.001207">
        <ele>1031.361</ele>
        <time>2021-10-15T07:47:25Z</time>
      </trkpt>
      <trkpt lat="43.275636" lon="-5.001051">
        <ele>1031.485</ele>
        <time>2021-10-15T07:47:26Z</time>
      </trkpt>
      <trkpt lat="43.275574" lon="-5.000757">
        <ele>1033.790</ele>
        <time>2021-10-15T07:47:28Z</time>
      </trkpt>
      <trkpt lat="43.275526" lon="-5.000455">
        <ele>1035.868</ele>
        <time>2021-10-15T07:47:30Z</time>
      </trkpt>
      <trkpt lat="43.275520" lon="-5.000142">
        <ele>1038.011</ele>
        <time>2021-10-15T07:47:32Z</time>
      </trkpt>
      <trkpt lat="43.275534" lon="-4.999991">
        <ele>1038.386</ele>
        <time>2021-10-15T07:47:33Z</time>
      </trkpt>
      <trkpt lat="43.275579" lon="-4.999705">
        <ele>1040.429</ele>
        <time>2021-10-15T07:47:35Z</time>
      </trkpt>
      <trkpt lat="43.275602" lon="-4.999557">
        <ele>1041.100</ele>
        <time>2021-10-15T07:47:36Z</time>
      </trkpt>
      <trkpt lat="43.275626" lon="-4.999283">
        <ele>1043.120</ele>
        <time>2021-10-15T07:47:38Z</time>
      </trkpt>
      <trkpt lat="43.275626" lon="-4.999056">
        <ele>1044.108</ele>
        <time>2021-10-15T07:47:40Z</time>
      </trkpt>
      <trkpt lat="43.275624" lon="-4.998938">
        <ele>1044.590</ele>
        <time>2021-10-15T07:47:41Z</time>
      </trkpt>
      <trkpt lat="43.275622" lon="-4.998700">
        <ele>1044.658</ele>
        <time>2021-10-15T07:47:43Z</time>
      </trkpt>
      <trkpt lat="43.275623" lon="-4.998598">
        <ele>1044.766</ele>
        <time>2021-10-15T07:47:44Z</time>
      </trkpt>
      <trkpt lat="43.275633" lon="-4.998432">
        <ele>1045.230</ele>
        <time>2021-10-15T07:47:46Z</time>
      </trkpt>
      <trkpt lat="43.275640" lon="-4.998344">
        <ele>1045.475</ele>
        <time>2021-10-15T07:47:47Z</time>
      </trkpt>
      <trkpt lat="43.275660" lon="-4.998148">
        <ele>1045.963</ele>
        <time>2021-10-15T07:47:49Z</time>
      </trkpt>
      <trkpt lat="43.275680" lon="-4.998046">
        <ele>1046.086</ele>
        <time>2021-10-15T07:47:50Z</time>
      </trkpt>
      <trkpt lat="43.275769" lon="-4.997868">
        <ele>1046.031</ele>
        <time>2021-10-15T07:47:52Z</time>
      </trkpt>
      <trkpt lat="43.275837" lon="-4.997802">
        <ele>1046.192</ele>
        <time>2021-10-15T07:47:53Z</time>
      </trkpt>
      <trkpt lat="43.275920" lon="-4.997749">
        <ele>1046.373</ele>
        <time>2021-10-15T07:47:54Z</time>
      </trkpt>
      <trkpt lat="43.276006" lon="-4.997691">
        <ele>1046.320</ele>
        <time>2021-10-15T07:47:55Z</time>
      </trkpt>
      <trkpt lat="43.276135" lon="-4.997518">
        <ele>1046.908</ele>
        <time>2021-10-15T07:47:57Z</time>
      </trkpt>
      <trkpt lat="43.276193" lon="-4.997285">
        <ele>1047.497</ele>
        <time>2021-10-15T07:47:59Z</time>
      </trkpt>
      <trkpt lat="43.276210" lon="-4.997156">
        <ele>1047.385</ele>
        <time>2021-10-15T07:48:00Z</time>
      </trkpt>
      <trkpt lat="43.276224" lon="-4.997025">
        <ele>1048.043</ele>
        <time>2021-10-15T07:48:01Z</time>
      </trkpt>
      <trkpt lat="43.276237" lon="-4.996890">
        <ele>1048.017</ele>
        <time>2021-10-15T07:48:02Z</time>
      </trkpt>
      <trkpt lat="43.276263" lon="-4.996613">
        <ele>1049.382</ele>
        <time>2021-10-15T07:48:04Z</time>
      </trkpt>
      <trkpt lat="43.276269" lon="-4.996469">
        <ele>1048.410</ele>
        <time>2021-10-15T07:48:05Z</time>
      </trkpt>
      <trkpt lat="43.276245" lon="-4.996184">
        <ele>1048.413</ele>
        <time>2021-10-15T07:48:07Z</time>
      </trkpt>
      <trkpt lat="43.276208" lon="-4.996045">
        <ele>1049.518</ele>
        <time>2021-10-15T07:48:08Z</time>
      </trkpt>
      <trkpt lat="43.276102" lon="-4.995784">
        <ele>1049.193</ele>
        <time>2021-10-15T07:48:10Z</time>
      </trkpt>
      <trkpt lat="43.276042" lon="-4.995657">
        <ele>1049.165</ele>
        <time>2021-10-15T07:48:11Z</time>
      </trkpt>
      <trkpt lat="43.275914" lon="-4.995435">
        <ele>1050.621</ele>
        <time>2021-10-15T07:48:13Z</time>
      </trkpt>
      <trkpt lat="43.275844" lon="-4.995343">
        <ele>1051.408</ele>
        <time>2021-10-15T07:48:14Z</time>
      </trkpt>
      <trkpt lat="43.275686" lon="-4.995202">
        <ele>1053.017</ele>
        <time>2021-10-15T07:48:16Z</time>
      </trkpt>
      <trkpt lat="43.275498" lon="-4.995135">
        <ele>1053.195</ele>
        <time>2021-10-15T07:48:18Z</time>
      </trkpt>
      <trkpt lat="43.275402" lon="-4.995123">
        <ele>1054.383</ele>
        <time>2021-10-15T07:48:19Z</time>
      </trkpt>
      <trkpt lat="43.275306" lon="-4.995125">
        <ele>1054.757</ele>
        <time>2021-10-15T07:48:20Z</time>
      </trkpt>
      <trkpt lat="43.275116" lon="-4.995123">
        <ele>1055.992</ele>
        <time>2021-10-15T07:48:22Z</time>
      </trkpt>
      <trkpt lat="43.275023" lon="-4.995119">
        <ele>1055.950</ele>
        <time>2021-10-15T07:48:23Z</time>
      </trkpt>
      <trkpt lat="43.274932" lon="-4.995120">
        <ele>1055.963</ele>
        <time>2021-10-15T07:48:24Z</time>
      </trkpt>
      <trkpt lat="43.274759" lon="-4.995143">
        <ele>1056.598</ele>
        <time>2021-10-15T07:48:26Z</time>
      </trkpt>
      <trkpt lat="43.274609" lon="-4.995187">
        <ele>1056.163</ele>
        <time>2021-10-15T07:48:28Z</time>
      </trkpt>
      <trkpt lat="43.274552" lon="-4.995215">
        <ele>1056.144</ele>
        <time>2021-10-15T07:48:29Z</time>
      </trkpt>
      <trkpt lat="43.274464" lon="-4.995240">
        <ele>1055.918</ele>
        <time>2021-10-15T07:48:31Z</time>
      </trkpt>
      <trkpt lat="43.274392" lon="-4.995163">
        <ele>1054.608</ele>
        <time>2021-10-15T07:48:33Z</time>
      </trkpt>
      <trkpt lat="43.274374" lon="-4.995085">
        <ele>1053.824</ele>
        <time>2021-10-15T07:48:34Z</time>
      </trkpt>
      <trkpt lat="43.274398" lon="-4.994878">
        <ele>1052.772</ele>
        <time>2021-10-15T07:48:36Z</time>
      </trkpt>
      <trkpt lat="43.274427" lon="-4.994756">
        <ele>1052.550</ele>
        <time>2021-10-15T07:48:37Z</time>
      </trkpt>
      <trkpt lat="43.274452" lon="-4.994625">
        <ele>1049.834</ele>
        <time>2021-10-15T07:48:38Z</time>
      </trkpt>
      <trkpt lat="43.274469" lon="-4.994369">
        <ele>1047.849</ele>
        <time>2021-10-15T07:48:40Z</time>
      </trkpt>
      <trkpt lat="43.274453" lon="-4.994242">
        <ele>1047.387</ele>
        <time>2021-10-15T07:48:41Z</time>
      </trkpt>
      <trkpt lat="43.274426" lon="-4.994117">
        <ele>1047.280</ele>
        <time>2021-10-15T07:48:42Z</time>
      </trkpt>
      <trkpt lat="43.274348" lon="-4.993867">
        <ele>1046.395</ele>
        <time>2021-10-15T07:48:44Z</time>
      </trkpt>
      <trkpt lat="43.274281" lon="-4.993641">
        <ele>1045.638</ele>
        <time>2021-10-15T07:48:46Z</time>
      </trkpt>
      <trkpt lat="43.274264" lon="-4.993548">
        <ele>1045.370</ele>
        <time>2021-10-15T07:48:47Z</time>
      </trkpt>
      <trkpt lat="43.274255" lon="-4.993455">
        <ele>1044.917</ele>
        <time>2021-10-15T07:48:48Z</time>
      </trkpt>
      <trkpt lat="43.274247" lon="-4.993357">
        <ele>1044.508</ele>
        <time>2021-10-15T07:48:49Z</time>
      </trkpt>
      <trkpt lat="43.274222" lon="-4.993167">
        <ele>1043.761</ele>
        <time>2021-10-15T07:48:51Z</time>
      </trkpt>
      <trkpt lat="43.274178" lon="-4.992991">
        <ele>1043.529</ele>
        <time>2021-10-15T07:48:53Z</time>
      </trkpt>
      <trkpt lat="43.274150" lon="-4.992904">
        <ele>1042.897</ele>
        <time>2021-10-15T07:48:54Z</time>
      </trkpt>
      <trkpt lat="43.274122" lon="-4.992814">
        <ele>1042.691</ele>
        <time>2021-10-15T07:48:55Z</time>
      </trkpt>
      <trkpt lat="43.274068" lon="-4.992626">
        <ele>1041.416</ele>
        <time>2021-10-15T07:48:57Z</time>
      </trkpt>
      <trkpt lat="43.274041" lon="-4.992530">
        <ele>1040.394</ele>
        <time>2021-10-15T07:48:58Z</time>
      </trkpt>
      <trkpt lat="43.274014" lon="-4.992437">
        <ele>1039.587</ele>
        <time>2021-10-15T07:48:59Z</time>
      </trkpt>
      <trkpt lat="43.273976" lon="-4.992264">
        <ele>1038.132</ele>
        <time>2021-10-15T07:49:01Z</time>
      </trkpt>
      <trkpt lat="43.273959" lon="-4.992179">
        <ele>1037.631</ele>
        <time>2021-10-15T07:49:02Z</time>
      </trkpt>
      <trkpt lat="43.273941" lon="-4.992090">
        <ele>1037.561</ele>
        <time>2021-10-15T07:49:03Z</time>
      </trkpt>
      <trkpt lat="43.273903" lon="-4.991907">
        <ele>1035.107</ele>
        <time>2021-10-15T07:49:05Z</time>
      </trkpt>
      <trkpt lat="43.273884" lon="-4.991812">
        <ele>1034.308</ele>
        <time>2021-10-15T07:49:06Z</time>
      </trkpt>
      <trkpt lat="43.273867" lon="-4.991714">
        <ele>1033.661</ele>
        <time>2021-10-15T07:49:07Z</time>
      </trkpt>
      <trkpt lat="43.273853" lon="-4.991615">
        <ele>1032.619</ele>
        <time>2021-10-15T07:49:08Z</time>
      </trkpt>
      <trkpt lat="43.273833" lon="-4.991406">
        <ele>1030.637</ele>
        <time>2021-10-15T07:49:10Z</time>
      </trkpt>
      <trkpt lat="43.273809" lon="-4.991170">
        <ele>1029.751</ele>
        <time>2021-10-15T07:49:12Z</time>
      </trkpt>
      <trkpt lat="43.273780" lon="-4.990912">
        <ele>1027.826</ele>
        <time>2021-10-15T07:49:14Z</time>
      </trkpt>
      <trkpt lat="43.273762" lon="-4.990644">
        <ele>1026.064</ele>
        <time>2021-10-15T07:49:16Z</time>
      </trkpt>
      <trkpt lat="43.273753" lon="-4.990387">
        <ele>1024.127</ele>
        <time>2021-10-15T07:49:18Z</time>
      </trkpt>
      <trkpt lat="43.273743" lon="-4.990148">
        <ele>1021.542</ele>
        <time>2021-10-15T07:49:20Z</time>
      </trkpt>
      <trkpt lat="43.273740" lon="-4.989932">
        <ele>1021.549</ele>
        <time>2021-10-15T07:49:22Z</time>
      </trkpt>
      <trkpt lat="43.273743" lon="-4.989832">
        <ele>1021.102</ele>
        <time>2021-10-15T07:49:23Z</time>
      </trkpt>
      <trkpt lat="43.273760" lon="-4.989641">
        <ele>1020.122</ele>
        <time>2021-10-15T07:49:25Z</time>
      </trkpt>
      <trkpt lat="43.273780" lon="-4.989545">
        <ele>1019.508</ele>
        <time>2021-10-15T07:49:26Z</time>
      </trkpt>
      <trkpt lat="43.273829" lon="-4.989367">
        <ele>1017.672</ele>
        <time>2021-10-15T07:49:28Z</time>
      </trkpt>
      <trkpt lat="43.273853" lon="-4.989280">
        <ele>1017.110</ele>
        <time>2021-10-15T07:49:29Z</time>
      </trkpt>
      <trkpt lat="43.273875" lon="-4.989199">
        <ele>1016.878</ele>
        <time>2021-10-15T07:49:30Z</time>
      </trkpt>
      <trkpt lat="43.273912" lon="-4.989035">
        <ele>1015.822</ele>
        <time>2021-10-15T07:49:32Z</time>
      </trkpt>
      <trkpt lat="43.273933" lon="-4.988890">
        <ele>1015.327</ele>
        <time>2021-10-15T07:49:34Z</time>
      </trkpt>
      <trkpt lat="43.273929" lon="-4.988820">
        <ele>1014.595</ele>
        <time>2021-10-15T07:49:35Z</time>
      </trkpt>
      <trkpt lat="43.273894" lon="-4.988689">
        <ele>1014.078</ele>
        <time>2021-10-15T07:49:37Z</time>
      </trkpt>
      <trkpt lat="43.273874" lon="-4.988633">
        <ele>1013.833</ele>
        <time>2021-10-15T07:49:38Z</time>
      </trkpt>
      <trkpt lat="43.273845" lon="-4.988573">
        <ele>1012.958</ele>
        <time>2021-10-15T07:49:40Z</time>
      </trkpt>
      <trkpt lat="43.273821" lon="-4.988508">
        <ele>1012.852</ele>
        <time>2021-10-15T07:49:42Z</time>
      </trkpt>
      <trkpt lat="43.273801" lon="-4.988447">
        <ele>1012.717</ele>
        <time>2021-10-15T07:49:45Z</time>
      </trkpt>
      <trkpt lat="43.273792" lon="-4.988358">
        <ele>1012.708</ele>
        <time>2021-10-15T07:50:08Z</time>
      </trkpt>
      <trkpt lat="43.273839" lon="-4.988232">
        <ele>1012.773</ele>
        <time>2021-10-15T07:50:10Z</time>
      </trkpt>
      <trkpt lat="43.273877" lon="-4.988156">
        <ele>1012.711</ele>
        <time>2021-10-15T07:50:11Z</time>
      </trkpt>
      <trkpt lat="43.273912" lon="-4.988072">
        <ele>1012.869</ele>
        <time>2021-10-15T07:50:12Z</time>
      </trkpt>
      <trkpt lat="43.273944" lon="-4.987987">
        <ele>1012.973</ele>
        <time>2021-10-15T07:50:13Z</time>
      </trkpt>
      <trkpt lat="43.273972" lon="-4.987910">
        <ele>1012.998</ele>
        <time>2021-10-15T07:50:14Z</time>
      </trkpt>
      <trkpt lat="43.274024" lon="-4.987782">
        <ele>1012.426</ele>
        <time>2021-10-15T07:50:16Z</time>
      </trkpt>
      <trkpt lat="43.274072" lon="-4.987647">
        <ele>1011.329</ele>
        <time>2021-10-15T07:50:18Z</time>
      </trkpt>
      <trkpt lat="43.274098" lon="-4.987559">
        <ele>1011.064</ele>
        <time>2021-10-15T07:50:19Z</time>
      </trkpt>
      <trkpt lat="43.274124" lon="-4.987455">
        <ele>1010.451</ele>
        <time>2021-10-15T07:50:20Z</time>
      </trkpt>
      <trkpt lat="43.274169" lon="-4.987217">
        <ele>1009.101</ele>
        <time>2021-10-15T07:50:22Z</time>
      </trkpt>
      <trkpt lat="43.274221" lon="-4.986986">
        <ele>1006.811</ele>
        <time>2021-10-15T07:50:24Z</time>
      </trkpt>
      <trkpt lat="43.274290" lon="-4.986765">
        <ele>1004.408</ele>
        <time>2021-10-15T07:50:26Z</time>
      </trkpt>
      <trkpt lat="43.274395" lon="-4.986577">
        <ele>1001.983</ele>
        <time>2021-10-15T07:50:28Z</time>
      </trkpt>
      <trkpt lat="43.274458" lon="-4.986495">
        <ele>1001.291</ele>
        <time>2021-10-15T07:50:29Z</time>
      </trkpt>
      <trkpt lat="43.274590" lon="-4.986350">
        <ele>998.619</ele>
        <time>2021-10-15T07:50:31Z</time>
      </trkpt>
      <trkpt lat="43.274657" lon="-4.986285">
        <ele>997.923</ele>
        <time>2021-10-15T07:50:32Z</time>
      </trkpt>
      <trkpt lat="43.274788" lon="-4.986164">
        <ele>995.878</ele>
        <time>2021-10-15T07:50:34Z</time>
      </trkpt>
      <trkpt lat="43.274914" lon="-4.986058">
        <ele>993.216</ele>
        <time>2021-10-15T07:50:36Z</time>
      </trkpt>
      <trkpt lat="43.274971" lon="-4.986007">
        <ele>991.849</ele>
        <time>2021-10-15T07:50:37Z</time>
      </trkpt>
      <trkpt lat="43.275028" lon="-4.985964">
        <ele>990.934</ele>
        <time>2021-10-15T07:50:38Z</time>
      </trkpt>
      <trkpt lat="43.275128" lon="-4.985908">
        <ele>990.187</ele>
        <time>2021-10-15T07:50:40Z</time>
      </trkpt>
      <trkpt lat="43.275180" lon="-4.985888">
        <ele>990.042</ele>
        <time>2021-10-15T07:50:41Z</time>
      </trkpt>
      <trkpt lat="43.275235" lon="-4.985870">
        <ele>988.326</ele>
        <time>2021-10-15T07:50:42Z</time>
      </trkpt>
      <trkpt lat="43.275351" lon="-4.985851">
        <ele>986.308</ele>
        <time>2021-10-15T07:50:44Z</time>
      </trkpt>
      <trkpt lat="43.275467" lon="-4.985890">
        <ele>984.536</ele>
        <time>2021-10-15T07:50:46Z</time>
      </trkpt>
      <trkpt lat="43.275560" lon="-4.985979">
        <ele>984.184</ele>
        <time>2021-10-15T07:50:48Z</time>
      </trkpt>
      <trkpt lat="43.275638" lon="-4.986076">
        <ele>982.272</ele>
        <time>2021-10-15T07:50:50Z</time>
      </trkpt>
      <trkpt lat="43.275698" lon="-4.986143">
        <ele>981.626</ele>
        <time>2021-10-15T07:50:52Z</time>
      </trkpt>
      <trkpt lat="43.275775" lon="-4.986156">
        <ele>979.621</ele>
        <time>2021-10-15T07:50:54Z</time>
      </trkpt>
      <trkpt lat="43.275835" lon="-4.986100">
        <ele>979.369</ele>
        <time>2021-10-15T07:50:56Z</time>
      </trkpt>
      <trkpt lat="43.275888" lon="-4.986001">
        <ele>978.972</ele>
        <time>2021-10-15T07:50:58Z</time>
      </trkpt>
      <trkpt lat="43.275919" lon="-4.985948">
        <ele>978.767</ele>
        <time>2021-10-15T07:50:59Z</time>
      </trkpt>
      <trkpt lat="43.275983" lon="-4.985849">
        <ele>978.733</ele>
        <time>2021-10-15T07:51:01Z</time>
      </trkpt>
      <trkpt lat="43.276020" lon="-4.985800">
        <ele>979.023</ele>
        <time>2021-10-15T07:51:02Z</time>
      </trkpt>
      <trkpt lat="43.276059" lon="-4.985748">
        <ele>979.015</ele>
        <time>2021-10-15T07:51:03Z</time>
      </trkpt>
      <trkpt lat="43.276136" lon="-4.985650">
        <ele>978.908</ele>
        <time>2021-10-15T07:51:05Z</time>
      </trkpt>
      <trkpt lat="43.276188" lon="-4.985595">
        <ele>979.331</ele>
        <time>2021-10-15T07:51:06Z</time>
      </trkpt>
      <trkpt lat="43.276236" lon="-4.985576">
        <ele>978.789</ele>
        <time>2021-10-15T07:51:08Z</time>
      </trkpt>
      <trkpt lat="43.276297" lon="-4.985563">
        <ele>979.037</ele>
        <time>2021-10-15T07:51:09Z</time>
      </trkpt>
      <trkpt lat="43.276361" lon="-4.985557">
        <ele>979.191</ele>
        <time>2021-10-15T07:51:11Z</time>
      </trkpt>
      <trkpt lat="43.276406" lon="-4.985550">
        <ele>979.066</ele>
        <time>2021-10-15T07:51:12Z</time>
      </trkpt>
      <trkpt lat="43.276451" lon="-4.985542">
        <ele>978.984</ele>
        <time>2021-10-15T07:51:14Z</time>
      </trkpt>
      <trkpt lat="43.276499" lon="-4.985535">
        <ele>978.787</ele>
        <time>2021-10-15T07:51:15Z</time>
      </trkpt>
      <trkpt lat="43.276557" lon="-4.985540">
        <ele>978.192</ele>
        <time>2021-10-15T07:51:16Z</time>
      </trkpt>
      <trkpt lat="43.276606" lon="-4.985542">
        <ele>978.043</ele>
        <time>2021-10-15T07:51:17Z</time>
      </trkpt>
      <trkpt lat="43.276657" lon="-4.985536">
        <ele>978.164</ele>
        <time>2021-10-15T07:51:18Z</time>
      </trkpt>
      <trkpt lat="43.276706" lon="-4.985526">
        <ele>977.910</ele>
        <time>2021-10-15T07:51:20Z</time>
      </trkpt>
      <trkpt lat="43.276758" lon="-4.985522">
        <ele>977.908</ele>
        <time>2021-10-15T07:51:21Z</time>
      </trkpt>
      <trkpt lat="43.276816" lon="-4.985513">
        <ele>978.182</ele>
        <time>2021-10-15T07:51:23Z</time>
      </trkpt>
      <trkpt lat="43.276903" lon="-4.985497">
        <ele>978.190</ele>
        <time>2021-10-15T07:51:25Z</time>
      </trkpt>
      <trkpt lat="43.276970" lon="-4.985478">
        <ele>978.198</ele>
        <time>2021-10-15T07:51:26Z</time>
      </trkpt>
      <trkpt lat="43.277025" lon="-4.985474">
        <ele>978.042</ele>
        <time>2021-10-15T07:51:28Z</time>
      </trkpt>
      <trkpt lat="43.277071" lon="-4.985463">
        <ele>977.517</ele>
        <time>2021-10-15T07:51:30Z</time>
      </trkpt>
      <trkpt lat="43.277117" lon="-4.985437">
        <ele>977.335</ele>
        <time>2021-10-15T07:51:34Z</time>
      </trkpt>
      <trkpt lat="43.277113" lon="-4.985509">
        <ele>976.678</ele>
        <time>2021-10-15T07:52:24Z</time>
      </trkpt>
      <trkpt lat="43.277062" lon="-4.985505">
        <ele>976.643</ele>
        <time>2021-10-15T07:52:26Z</time>
      </trkpt>
      <trkpt lat="43.276968" lon="-4.985504">
        <ele>976.632</ele>
        <time>2021-10-15T07:52:28Z</time>
      </trkpt>
      <trkpt lat="43.276844" lon="-4.985512">
        <ele>976.592</ele>
        <time>2021-10-15T07:52:30Z</time>
      </trkpt>
      <trkpt lat="43.276719" lon="-4.985515">
        <ele>977.011</ele>
        <time>2021-10-15T07:52:32Z</time>
      </trkpt>
      <trkpt lat="43.276655" lon="-4.985520">
        <ele>977.408</ele>
        <time>2021-10-15T07:52:33Z</time>
      </trkpt>
      <trkpt lat="43.276591" lon="-4.985528">
        <ele>977.611</ele>
        <time>2021-10-15T07:52:34Z</time>
      </trkpt>
      <trkpt lat="43.276457" lon="-4.985550">
        <ele>978.489</ele>
        <time>2021-10-15T07:52:36Z</time>
      </trkpt>
      <trkpt lat="43.276385" lon="-4.985554">
        <ele>978.617</ele>
        <time>2021-10-15T07:52:37Z</time>
      </trkpt>
      <trkpt lat="43.276316" lon="-4.985558">
        <ele>978.941</ele>
        <time>2021-10-15T07:52:38Z</time>
      </trkpt>
      <trkpt lat="43.276200" lon="-4.985591">
        <ele>979.656</ele>
        <time>2021-10-15T07:52:40Z</time>
      </trkpt>
      <trkpt lat="43.276091" lon="-4.985682">
        <ele>980.034</ele>
        <time>2021-10-15T07:52:42Z</time>
      </trkpt>
      <trkpt lat="43.276000" lon="-4.985799">
        <ele>980.027</ele>
        <time>2021-10-15T07:52:44Z</time>
      </trkpt>
      <trkpt lat="43.275961" lon="-4.985873">
        <ele>980.132</ele>
        <time>2021-10-15T07:52:46Z</time>
      </trkpt>
      <trkpt lat="43.275934" lon="-4.985929">
        <ele>980.868</ele>
        <time>2021-10-15T07:52:48Z</time>
      </trkpt>
      <trkpt lat="43.275905" lon="-4.985980">
        <ele>980.942</ele>
        <time>2021-10-15T07:52:50Z</time>
      </trkpt>
      <trkpt lat="43.275839" lon="-4.986069">
        <ele>981.326</ele>
        <time>2021-10-15T07:52:52Z</time>
      </trkpt>
      <trkpt lat="43.275781" lon="-4.986175">
        <ele>981.308</ele>
        <time>2021-10-15T07:52:54Z</time>
      </trkpt>
      <trkpt lat="43.275782" lon="-4.986250">
        <ele>981.174</ele>
        <time>2021-10-15T07:52:56Z</time>
      </trkpt>
      <trkpt lat="43.275824" lon="-4.986327">
        <ele>980.612</ele>
        <time>2021-10-15T07:52:58Z</time>
      </trkpt>
      <trkpt lat="43.275933" lon="-4.986405">
        <ele>979.490</ele>
        <time>2021-10-15T07:53:00Z</time>
      </trkpt>
      <trkpt lat="43.276009" lon="-4.986434">
        <ele>979.124</ele>
        <time>2021-10-15T07:53:01Z</time>
      </trkpt>
      <trkpt lat="43.276095" lon="-4.986454">
        <ele>977.849</ele>
        <time>2021-10-15T07:53:02Z</time>
      </trkpt>
      <trkpt lat="43.276268" lon="-4.986435">
        <ele>975.237</ele>
        <time>2021-10-15T07:53:04Z</time>
      </trkpt>
      <trkpt lat="43.276414" lon="-4.986390">
        <ele>974.050</ele>
        <time>2021-10-15T07:53:06Z</time>
      </trkpt>
      <trkpt lat="43.276504" lon="-4.986310">
        <ele>973.065</ele>
        <time>2021-10-15T07:53:08Z</time>
      </trkpt>
      <trkpt lat="43.276573" lon="-4.986255">
        <ele>972.112</ele>
        <time>2021-10-15T07:53:10Z</time>
      </trkpt>
      <trkpt lat="43.276666" lon="-4.986246">
        <ele>971.532</ele>
        <time>2021-10-15T07:53:12Z</time>
      </trkpt>
      <trkpt lat="43.276731" lon="-4.986242">
        <ele>971.305</ele>
        <time>2021-10-15T07:53:13Z</time>
      </trkpt>
      <trkpt lat="43.276803" lon="-4.986241">
        <ele>970.808</ele>
        <time>2021-10-15T07:53:14Z</time>
      </trkpt>
      <trkpt lat="43.276942" lon="-4.986235">
        <ele>968.679</ele>
        <time>2021-10-15T07:53:16Z</time>
      </trkpt>
      <trkpt lat="43.277049" lon="-4.986223">
        <ele>967.417</ele>
        <time>2021-10-15T07:53:18Z</time>
      </trkpt>
      <trkpt lat="43.277112" lon="-4.986217">
        <ele>967.445</ele>
        <time>2021-10-15T07:53:20Z</time>
      </trkpt>
      <trkpt lat="43.277179" lon="-4.986211">
        <ele>967.759</ele>
        <time>2021-10-15T07:53:22Z</time>
      </trkpt>
      <trkpt lat="43.277232" lon="-4.986212">
        <ele>968.034</ele>
        <time>2021-10-15T07:53:24Z</time>
      </trkpt>
      <trkpt lat="43.277277" lon="-4.986177">
        <ele>968.152</ele>
        <time>2021-10-15T07:53:27Z</time>
      </trkpt>
      <trkpt lat="43.277276" lon="-4.986108">
        <ele>967.925</ele>
        <time>2021-10-15T07:53:41Z</time>
      </trkpt>
      <trkpt lat="43.277239" lon="-4.986041">
        <ele>967.930</ele>
        <time>2021-10-15T07:53:43Z</time>
      </trkpt>
      <trkpt lat="43.277179" lon="-4.986031">
        <ele>967.989</ele>
        <time>2021-10-15T07:53:45Z</time>
      </trkpt>
      <trkpt lat="43.277097" lon="-4.986038">
        <ele>967.806</ele>
        <time>2021-10-15T07:53:47Z</time>
      </trkpt>
      <trkpt lat="43.276992" lon="-4.986055">
        <ele>968.026</ele>
        <time>2021-10-15T07:53:49Z</time>
      </trkpt>
      <trkpt lat="43.276913" lon="-4.986064">
        <ele>968.208</ele>
        <time>2021-10-15T07:53:50Z</time>
      </trkpt>
      <trkpt lat="43.276754" lon="-4.986065">
        <ele>968.416</ele>
        <time>2021-10-15T07:53:52Z</time>
      </trkpt>
      <trkpt lat="43.276684" lon="-4.986065">
        <ele>968.624</ele>
        <time>2021-10-15T07:53:53Z</time>
      </trkpt>
      <trkpt lat="43.276618" lon="-4.986067">
        <ele>969.262</ele>
        <time>2021-10-15T07:53:54Z</time>
      </trkpt>
      <trkpt lat="43.276560" lon="-4.986073">
        <ele>969.616</ele>
        <time>2021-10-15T07:53:55Z</time>
      </trkpt>
      <trkpt lat="43.276514" lon="-4.986086">
        <ele>969.861</ele>
        <time>2021-10-15T07:53:56Z</time>
      </trkpt>
      <trkpt lat="43.276477" lon="-4.986149">
        <ele>970.119</ele>
        <time>2021-10-15T07:53:58Z</time>
      </trkpt>
      <trkpt lat="43.276472" lon="-4.986283">
        <ele>970.782</ele>
        <time>2021-10-15T07:54:00Z</time>
      </trkpt>
      <trkpt lat="43.276408" lon="-4.986407">
        <ele>971.257</ele>
        <time>2021-10-15T07:54:02Z</time>
      </trkpt>
      <trkpt lat="43.276284" lon="-4.986436">
        <ele>971.815</ele>
        <time>2021-10-15T07:54:04Z</time>
      </trkpt>
      <trkpt lat="43.276201" lon="-4.986429">
        <ele>971.965</ele>
        <time>2021-10-15T07:54:05Z</time>
      </trkpt>
      <trkpt lat="43.276110" lon="-4.986424">
        <ele>972.011</ele>
        <time>2021-10-15T07:54:06Z</time>
      </trkpt>
      <trkpt lat="43.276018" lon="-4.986416">
        <ele>972.708</ele>
        <time>2021-10-15T07:54:07Z</time>
      </trkpt>
      <trkpt lat="43.275854" lon="-4.986353">
        <ele>974.639</ele>
        <time>2021-10-15T07:54:09Z</time>
      </trkpt>
      <trkpt lat="43.275713" lon="-4.986204">
        <ele>975.517</ele>
        <time>2021-10-15T07:54:11Z</time>
      </trkpt>
      <trkpt lat="43.275576" lon="-4.986028">
        <ele>977.635</ele>
        <time>2021-10-15T07:54:13Z</time>
      </trkpt>
      <trkpt lat="43.275515" lon="-4.985964">
        <ele>978.089</ele>
        <time>2021-10-15T07:54:14Z</time>
      </trkpt>
      <trkpt lat="43.275363" lon="-4.985871">
        <ele>980.264</ele>
        <time>2021-10-15T07:54:16Z</time>
      </trkpt>
      <trkpt lat="43.275173" lon="-4.985875">
        <ele>983.982</ele>
        <time>2021-10-15T07:54:18Z</time>
      </trkpt>
      <trkpt lat="43.275071" lon="-4.985919">
        <ele>987.215</ele>
        <time>2021-10-15T07:54:19Z</time>
      </trkpt>
      <trkpt lat="43.274962" lon="-4.985995">
        <ele>987.670</ele>
        <time>2021-10-15T07:54:20Z</time>
      </trkpt>
      <trkpt lat="43.274726" lon="-4.986227">
        <ele>992.011</ele>
        <time>2021-10-15T07:54:22Z</time>
      </trkpt>
      <trkpt lat="43.274599" lon="-4.986365">
        <ele>995.521</ele>
        <time>2021-10-15T07:54:23Z</time>
      </trkpt>
      <trkpt lat="43.274485" lon="-4.986491">
        <ele>998.003</ele>
        <time>2021-10-15T07:54:24Z</time>
      </trkpt>
      <trkpt lat="43.274316" lon="-4.986739">
        <ele>1000.508</ele>
        <time>2021-10-15T07:54:26Z</time>
      </trkpt>
      <trkpt lat="43.274228" lon="-4.987037">
        <ele>1003.849</ele>
        <time>2021-10-15T07:54:28Z</time>
      </trkpt>
      <trkpt lat="43.274167" lon="-4.987374">
        <ele>1007.027</ele>
        <time>2021-10-15T07:54:30Z</time>
      </trkpt>
      <trkpt lat="43.274130" lon="-4.987537">
        <ele>1008.215</ele>
        <time>2021-10-15T07:54:31Z</time>
      </trkpt>
      <trkpt lat="43.274087" lon="-4.987690">
        <ele>1008.359</ele>
        <time>2021-10-15T07:54:32Z</time>
      </trkpt>
      <trkpt lat="43.273997" lon="-4.987943">
        <ele>1010.084</ele>
        <time>2021-10-15T07:54:34Z</time>
      </trkpt>
      <trkpt lat="43.273958" lon="-4.988025">
        <ele>1011.282</ele>
        <time>2021-10-15T07:54:35Z</time>
      </trkpt>
      <trkpt lat="43.273895" lon="-4.988153">
        <ele>1011.375</ele>
        <time>2021-10-15T07:54:37Z</time>
      </trkpt>
      <trkpt lat="43.273860" lon="-4.988235">
        <ele>1011.750</ele>
        <time>2021-10-15T07:54:39Z</time>
      </trkpt>
      <trkpt lat="43.273835" lon="-4.988307">
        <ele>1013.171</ele>
        <time>2021-10-15T07:54:42Z</time>
      </trkpt>
      <trkpt lat="43.273828" lon="-4.988387">
        <ele>1013.241</ele>
        <time>2021-10-15T07:54:44Z</time>
      </trkpt>
      <trkpt lat="43.273844" lon="-4.988469">
        <ele>1013.215</ele>
        <time>2021-10-15T07:54:46Z</time>
      </trkpt>
      <trkpt lat="43.273863" lon="-4.988534">
        <ele>1013.208</ele>
        <time>2021-10-15T07:54:47Z</time>
      </trkpt>
      <trkpt lat="43.273889" lon="-4.988608">
        <ele>1013.235</ele>
        <time>2021-10-15T07:54:48Z</time>
      </trkpt>
      <trkpt lat="43.273935" lon="-4.988772">
        <ele>1013.343</ele>
        <time>2021-10-15T07:54:50Z</time>
      </trkpt>
      <trkpt lat="43.273945" lon="-4.988973">
        <ele>1013.331</ele>
        <time>2021-10-15T07:54:52Z</time>
      </trkpt>
      <trkpt lat="43.273930" lon="-4.989085">
        <ele>1013.075</ele>
        <time>2021-10-15T07:54:53Z</time>
      </trkpt>
      <trkpt lat="43.273905" lon="-4.989199">
        <ele>1012.960</ele>
        <time>2021-10-15T07:54:54Z</time>
      </trkpt>
      <trkpt lat="43.273872" lon="-4.989316">
        <ele>1013.148</ele>
        <time>2021-10-15T07:54:55Z</time>
      </trkpt>
      <trkpt lat="43.273838" lon="-4.989433">
        <ele>1013.161</ele>
        <time>2021-10-15T07:54:56Z</time>
      </trkpt>
      <trkpt lat="43.273797" lon="-4.989668">
        <ele>1014.336</ele>
        <time>2021-10-15T07:54:58Z</time>
      </trkpt>
      <trkpt lat="43.273784" lon="-4.989801">
        <ele>1015.077</ele>
        <time>2021-10-15T07:54:59Z</time>
      </trkpt>
      <trkpt lat="43.273783" lon="-4.990083">
        <ele>1016.861</ele>
        <time>2021-10-15T07:55:01Z</time>
      </trkpt>
      <trkpt lat="43.273788" lon="-4.990234">
        <ele>1017.127</ele>
        <time>2021-10-15T07:55:02Z</time>
      </trkpt>
      <trkpt lat="43.273801" lon="-4.990548">
        <ele>1018.908</ele>
        <time>2021-10-15T07:55:04Z</time>
      </trkpt>
      <trkpt lat="43.273820" lon="-4.990854">
        <ele>1019.565</ele>
        <time>2021-10-15T07:55:06Z</time>
      </trkpt>
      <trkpt lat="43.273837" lon="-4.991010">
        <ele>1020.583</ele>
        <time>2021-10-15T07:55:07Z</time>
      </trkpt>
      <trkpt lat="43.273856" lon="-4.991176">
        <ele>1021.411</ele>
        <time>2021-10-15T07:55:08Z</time>
      </trkpt>
      <trkpt lat="43.273897" lon="-4.991517">
        <ele>1023.535</ele>
        <time>2021-10-15T07:55:10Z</time>
      </trkpt>
      <trkpt lat="43.273920" lon="-4.991680">
        <ele>1025.840</ele>
        <time>2021-10-15T07:55:11Z</time>
      </trkpt>
      <trkpt lat="43.273945" lon="-4.991834">
        <ele>1026.248</ele>
        <time>2021-10-15T07:55:12Z</time>
      </trkpt>
      <trkpt lat="43.274001" lon="-4.992109">
        <ele>1028.391</ele>
        <time>2021-10-15T07:55:14Z</time>
      </trkpt>
      <trkpt lat="43.274056" lon="-4.992361">
        <ele>1030.036</ele>
        <time>2021-10-15T07:55:16Z</time>
      </trkpt>
      <trkpt lat="43.274090" lon="-4.992496">
        <ele>1032.065</ele>
        <time>2021-10-15T07:55:17Z</time>
      </trkpt>
      <trkpt lat="43.274164" lon="-4.992774">
        <ele>1034.068</ele>
        <time>2021-10-15T07:55:19Z</time>
      </trkpt>
      <trkpt lat="43.274208" lon="-4.992918">
        <ele>1034.714</ele>
        <time>2021-10-15T07:55:20Z</time>
      </trkpt>
      <trkpt lat="43.274291" lon="-4.993205">
        <ele>1036.708</ele>
        <time>2021-10-15T07:55:22Z</time>
      </trkpt>
      <trkpt lat="43.274335" lon="-4.993489">
        <ele>1038.914</ele>
        <time>2021-10-15T07:55:24Z</time>
      </trkpt>
      <trkpt lat="43.274349" lon="-4.993788">
        <ele>1041.072</ele>
        <time>2021-10-15T07:55:26Z</time>
      </trkpt>
      <trkpt lat="43.274377" lon="-4.993937">
        <ele>1043.180</ele>
        <time>2021-10-15T07:55:27Z</time>
      </trkpt>
      <trkpt lat="43.274418" lon="-4.994079">
        <ele>1043.514</ele>
        <time>2021-10-15T07:55:28Z</time>
      </trkpt>
      <trkpt lat="43.274460" lon="-4.994215">
        <ele>1044.969</ele>
        <time>2021-10-15T07:55:29Z</time>
      </trkpt>
      <trkpt lat="43.274503" lon="-4.994481">
        <ele>1047.697</ele>
        <time>2021-10-15T07:55:31Z</time>
      </trkpt>
      <trkpt lat="43.274496" lon="-4.994613">
        <ele>1049.130</ele>
        <time>2021-10-15T07:55:32Z</time>
      </trkpt>
      <trkpt lat="43.274444" lon="-4.994864">
        <ele>1051.525</ele>
        <time>2021-10-15T07:55:34Z</time>
      </trkpt>
      <trkpt lat="43.274406" lon="-4.995037">
        <ele>1053.097</ele>
        <time>2021-10-15T07:55:36Z</time>
      </trkpt>
      <trkpt lat="43.274409" lon="-4.995107">
        <ele>1054.323</ele>
        <time>2021-10-15T07:55:38Z</time>
      </trkpt>
      <trkpt lat="43.274435" lon="-4.995186">
        <ele>1054.825</ele>
        <time>2021-10-15T07:55:41Z</time>
      </trkpt>
      <trkpt lat="43.274445" lon="-4.995251">
        <ele>1054.908</ele>
        <time>2021-10-15T07:55:44Z</time>
      </trkpt>
      <trkpt lat="43.274422" lon="-4.995182">
        <ele>1053.677</ele>
        <time>2021-10-15T07:58:43Z</time>
      </trkpt>
      <trkpt lat="43.274389" lon="-4.995125">
        <ele>1053.655</ele>
        <time>2021-10-15T07:58:46Z</time>
      </trkpt>
      <trkpt lat="43.274401" lon="-4.995015">
        <ele>1053.513</ele>
        <time>2021-10-15T07:59:06Z</time>
      </trkpt>
      <trkpt lat="43.274425" lon="-4.994880">
        <ele>1052.967</ele>
        <time>2021-10-15T07:59:08Z</time>
      </trkpt>
      <trkpt lat="43.274454" lon="-4.994683">
        <ele>1052.952</ele>
        <time>2021-10-15T07:59:10Z</time>
      </trkpt>
      <trkpt lat="43.274474" lon="-4.994460">
        <ele>1048.460</ele>
        <time>2021-10-15T07:59:12Z</time>
      </trkpt>
      <trkpt lat="43.274465" lon="-4.994351">
        <ele>1048.173</ele>
        <time>2021-10-15T07:59:13Z</time>
      </trkpt>
      <trkpt lat="43.274442" lon="-4.994247">
        <ele>1047.758</ele>
        <time>2021-10-15T07:59:14Z</time>
      </trkpt>
      <trkpt lat="43.274376" lon="-4.994032">
        <ele>1046.255</ele>
        <time>2021-10-15T07:59:16Z</time>
      </trkpt>
      <trkpt lat="43.274320" lon="-4.993762">
        <ele>1045.407</ele>
        <time>2021-10-15T07:59:18Z</time>
      </trkpt>
      <trkpt lat="43.274304" lon="-4.993614">
        <ele>1044.717</ele>
        <time>2021-10-15T07:59:19Z</time>
      </trkpt>
      <trkpt lat="43.274291" lon="-4.993465">
        <ele>1043.108</ele>
        <time>2021-10-15T07:59:20Z</time>
      </trkpt>
      <trkpt lat="43.274252" lon="-4.993176">
        <ele>1041.193</ele>
        <time>2021-10-15T07:59:22Z</time>
      </trkpt>
      <trkpt lat="43.274218" lon="-4.993035">
        <ele>1040.791</ele>
        <time>2021-10-15T07:59:23Z</time>
      </trkpt>
      <trkpt lat="43.274127" lon="-4.992746">
        <ele>1038.789</ele>
        <time>2021-10-15T07:59:25Z</time>
      </trkpt>
      <trkpt lat="43.274078" lon="-4.992585">
        <ele>1037.543</ele>
        <time>2021-10-15T07:59:26Z</time>
      </trkpt>
      <trkpt lat="43.273997" lon="-4.992266">
        <ele>1036.168</ele>
        <time>2021-10-15T07:59:28Z</time>
      </trkpt>
      <trkpt lat="43.273922" lon="-4.991922">
        <ele>1034.596</ele>
        <time>2021-10-15T07:59:30Z</time>
      </trkpt>
      <trkpt lat="43.273888" lon="-4.991732">
        <ele>1033.659</ele>
        <time>2021-10-15T07:59:31Z</time>
      </trkpt>
      <trkpt lat="43.273835" lon="-4.991323">
        <ele>1030.414</ele>
        <time>2021-10-15T07:59:33Z</time>
      </trkpt>
      <trkpt lat="43.273815" lon="-4.991108">
        <ele>1028.814</ele>
        <time>2021-10-15T07:59:34Z</time>
      </trkpt>
      <trkpt lat="43.273795" lon="-4.990898">
        <ele>1027.154</ele>
        <time>2021-10-15T07:59:35Z</time>
      </trkpt>
      <trkpt lat="43.273763" lon="-4.990496">
        <ele>1024.609</ele>
        <time>2021-10-15T07:59:37Z</time>
      </trkpt>
      <trkpt lat="43.273756" lon="-4.990303">
        <ele>1023.608</ele>
        <time>2021-10-15T07:59:38Z</time>
      </trkpt>
      <trkpt lat="43.273747" lon="-4.989938">
        <ele>1022.619</ele>
        <time>2021-10-15T07:59:40Z</time>
      </trkpt>
      <trkpt lat="43.273769" lon="-4.989602">
        <ele>1021.557</ele>
        <time>2021-10-15T07:59:42Z</time>
      </trkpt>
      <trkpt lat="43.273852" lon="-4.989298">
        <ele>1019.225</ele>
        <time>2021-10-15T07:59:44Z</time>
      </trkpt>
      <trkpt lat="43.273892" lon="-4.989159">
        <ele>1017.969</ele>
        <time>2021-10-15T07:59:45Z</time>
      </trkpt>
      <trkpt lat="43.273926" lon="-4.988923">
        <ele>1017.514</ele>
        <time>2021-10-15T07:59:47Z</time>
      </trkpt>
      <trkpt lat="43.273917" lon="-4.988813">
        <ele>1016.772</ele>
        <time>2021-10-15T07:59:48Z</time>
      </trkpt>
      <trkpt lat="43.273896" lon="-4.988708">
        <ele>1016.625</ele>
        <time>2021-10-15T07:59:49Z</time>
      </trkpt>
      <trkpt lat="43.273837" lon="-4.988518">
        <ele>1016.010</ele>
        <time>2021-10-15T07:59:51Z</time>
      </trkpt>
      <trkpt lat="43.273806" lon="-4.988438">
        <ele>1015.127</ele>
        <time>2021-10-15T07:59:52Z</time>
      </trkpt>
      <trkpt lat="43.273739" lon="-4.988303">
        <ele>1014.668</ele>
        <time>2021-10-15T07:59:54Z</time>
      </trkpt>
      <trkpt lat="43.273691" lon="-4.988241">
        <ele>1014.614</ele>
        <time>2021-10-15T07:59:55Z</time>
      </trkpt>
      <trkpt lat="43.273633" lon="-4.988184">
        <ele>1014.608</ele>
        <time>2021-10-15T07:59:56Z</time>
      </trkpt>
      <trkpt lat="43.273493" lon="-4.988097">
        <ele>1014.760</ele>
        <time>2021-10-15T07:59:58Z</time>
      </trkpt>
      <trkpt lat="43.273325" lon="-4.988019">
        <ele>1017.038</ele>
        <time>2021-10-15T08:00:00Z</time>
      </trkpt>
      <trkpt lat="43.273132" lon="-4.987958">
        <ele>1018.926</ele>
        <time>2021-10-15T08:00:02Z</time>
      </trkpt>
      <trkpt lat="43.272927" lon="-4.987903">
        <ele>1020.780</ele>
        <time>2021-10-15T08:00:04Z</time>
      </trkpt>
      <trkpt lat="43.272719" lon="-4.987863">
        <ele>1022.685</ele>
        <time>2021-10-15T08:00:06Z</time>
      </trkpt>
      <trkpt lat="43.272543" lon="-4.987827">
        <ele>1023.983</ele>
        <time>2021-10-15T08:00:08Z</time>
      </trkpt>
      <trkpt lat="43.272384" lon="-4.987769">
        <ele>1025.176</ele>
        <time>2021-10-15T08:00:10Z</time>
      </trkpt>
      <trkpt lat="43.272311" lon="-4.987736">
        <ele>1025.961</ele>
        <time>2021-10-15T08:00:11Z</time>
      </trkpt>
      <trkpt lat="43.272234" lon="-4.987692">
        <ele>1026.776</ele>
        <time>2021-10-15T08:00:12Z</time>
      </trkpt>
      <trkpt lat="43.272155" lon="-4.987637">
        <ele>1028.090</ele>
        <time>2021-10-15T08:00:13Z</time>
      </trkpt>
      <trkpt lat="43.272016" lon="-4.987505">
        <ele>1028.819</ele>
        <time>2021-10-15T08:00:15Z</time>
      </trkpt>
      <trkpt lat="43.271946" lon="-4.987335">
        <ele>1030.308</ele>
        <time>2021-10-15T08:00:17Z</time>
      </trkpt>
      <trkpt lat="43.271951" lon="-4.987118">
        <ele>1031.315</ele>
        <time>2021-10-15T08:00:19Z</time>
      </trkpt>
      <trkpt lat="43.271969" lon="-4.986994">
        <ele>1032.013</ele>
        <time>2021-10-15T08:00:20Z</time>
      </trkpt>
      <trkpt lat="43.272021" lon="-4.986739">
        <ele>1034.751</ele>
        <time>2021-10-15T08:00:22Z</time>
      </trkpt>
      <trkpt lat="43.272130" lon="-4.986521">
        <ele>1037.135</ele>
        <time>2021-10-15T08:00:24Z</time>
      </trkpt>
      <trkpt lat="43.272208" lon="-4.986435">
        <ele>1037.240</ele>
        <time>2021-10-15T08:00:25Z</time>
      </trkpt>
      <trkpt lat="43.272397" lon="-4.986279">
        <ele>1037.838</ele>
        <time>2021-10-15T08:00:27Z</time>
      </trkpt>
      <trkpt lat="43.272496" lon="-4.986192">
        <ele>1038.271</ele>
        <time>2021-10-15T08:00:28Z</time>
      </trkpt>
      <trkpt lat="43.272691" lon="-4.986031">
        <ele>1039.376</ele>
        <time>2021-10-15T08:00:30Z</time>
      </trkpt>
      <trkpt lat="43.272785" lon="-4.985964">
        <ele>1039.347</ele>
        <time>2021-10-15T08:00:31Z</time>
      </trkpt>
      <trkpt lat="43.272973" lon="-4.985867">
        <ele>1040.029</ele>
        <time>2021-10-15T08:00:33Z</time>
      </trkpt>
      <trkpt lat="43.273064" lon="-4.985835">
        <ele>1040.121</ele>
        <time>2021-10-15T08:00:34Z</time>
      </trkpt>
      <trkpt lat="43.273235" lon="-4.985785">
        <ele>1041.708</ele>
        <time>2021-10-15T08:00:36Z</time>
      </trkpt>
      <trkpt lat="43.273312" lon="-4.985747">
        <ele>1042.362</ele>
        <time>2021-10-15T08:00:37Z</time>
      </trkpt>
      <trkpt lat="43.273388" lon="-4.985693">
        <ele>1042.630</ele>
        <time>2021-10-15T08:00:38Z</time>
      </trkpt>
      <trkpt lat="43.273467" lon="-4.985629">
        <ele>1043.228</ele>
        <time>2021-10-15T08:00:39Z</time>
      </trkpt>
      <trkpt lat="43.273629" lon="-4.985473">
        <ele>1042.692</ele>
        <time>2021-10-15T08:00:41Z</time>
      </trkpt>
      <trkpt lat="43.273706" lon="-4.985390">
        <ele>1042.687</ele>
        <time>2021-10-15T08:00:42Z</time>
      </trkpt>
      <trkpt lat="43.273780" lon="-4.985315">
        <ele>1042.375</ele>
        <time>2021-10-15T08:00:43Z</time>
      </trkpt>
      <trkpt lat="43.273856" lon="-4.985240">
        <ele>1040.378</ele>
        <time>2021-10-15T08:00:44Z</time>
      </trkpt>
      <trkpt lat="43.274010" lon="-4.985107">
        <ele>1040.693</ele>
        <time>2021-10-15T08:00:46Z</time>
      </trkpt>
      <trkpt lat="43.274088" lon="-4.985045">
        <ele>1042.545</ele>
        <time>2021-10-15T08:00:47Z</time>
      </trkpt>
      <trkpt lat="43.274241" lon="-4.984922">
        <ele>1044.847</ele>
        <time>2021-10-15T08:00:49Z</time>
      </trkpt>
      <trkpt lat="43.274360" lon="-4.984777">
        <ele>1046.011</ele>
        <time>2021-10-15T08:00:51Z</time>
      </trkpt>
      <trkpt lat="43.274445" lon="-4.984590">
        <ele>1047.408</ele>
        <time>2021-10-15T08:00:53Z</time>
      </trkpt>
      <trkpt lat="43.274535" lon="-4.984408">
        <ele>1048.912</ele>
        <time>2021-10-15T08:00:55Z</time>
      </trkpt>
      <trkpt lat="43.274678" lon="-4.984294">
        <ele>1052.030</ele>
        <time>2021-10-15T08:00:57Z</time>
      </trkpt>
      <trkpt lat="43.274853" lon="-4.984217">
        <ele>1053.548</ele>
        <time>2021-10-15T08:00:59Z</time>
      </trkpt>
      <trkpt lat="43.275040" lon="-4.984105">
        <ele>1055.192</ele>
        <time>2021-10-15T08:01:01Z</time>
      </trkpt>
      <trkpt lat="43.275223" lon="-4.983983">
        <ele>1056.667</ele>
        <time>2021-10-15T08:01:03Z</time>
      </trkpt>
      <trkpt lat="43.275306" lon="-4.983927">
        <ele>1057.535</ele>
        <time>2021-10-15T08:01:04Z</time>
      </trkpt>
      <trkpt lat="43.275379" lon="-4.983874">
        <ele>1058.548</ele>
        <time>2021-10-15T08:01:05Z</time>
      </trkpt>
      <trkpt lat="43.275473" lon="-4.983776">
        <ele>1058.933</ele>
        <time>2021-10-15T08:01:07Z</time>
      </trkpt>
      <trkpt lat="43.275495" lon="-4.983714">
        <ele>1059.583</ele>
        <time>2021-10-15T08:01:08Z</time>
      </trkpt>
      <trkpt lat="43.275498" lon="-4.983567">
        <ele>1060.125</ele>
        <time>2021-10-15T08:01:10Z</time>
      </trkpt>
      <trkpt lat="43.275430" lon="-4.983441">
        <ele>1059.817</ele>
        <time>2021-10-15T08:01:12Z</time>
      </trkpt>
      <trkpt lat="43.275315" lon="-4.983337">
        <ele>1059.508</ele>
        <time>2021-10-15T08:01:14Z</time>
      </trkpt>
      <trkpt lat="43.275242" lon="-4.983291">
        <ele>1059.476</ele>
        <time>2021-10-15T08:01:15Z</time>
      </trkpt>
      <trkpt lat="43.275066" lon="-4.983188">
        <ele>1059.234</ele>
        <time>2021-10-15T08:01:17Z</time>
      </trkpt>
      <trkpt lat="43.274884" lon="-4.983046">
        <ele>1059.542</ele>
        <time>2021-10-15T08:01:19Z</time>
      </trkpt>
      <trkpt lat="43.274806" lon="-4.982963">
        <ele>1059.686</ele>
        <time>2021-10-15T08:01:20Z</time>
      </trkpt>
      <trkpt lat="43.274638" lon="-4.982819">
        <ele>1061.241</ele>
        <time>2021-10-15T08:01:22Z</time>
      </trkpt>
      <trkpt lat="43.274446" lon="-4.982694">
        <ele>1061.519</ele>
        <time>2021-10-15T08:01:24Z</time>
      </trkpt>
      <trkpt lat="43.274350" lon="-4.982631">
        <ele>1062.662</ele>
        <time>2021-10-15T08:01:25Z</time>
      </trkpt>
      <trkpt lat="43.274257" lon="-4.982564">
        <ele>1062.087</ele>
        <time>2021-10-15T08:01:26Z</time>
      </trkpt>
      <trkpt lat="43.274108" lon="-4.982394">
        <ele>1062.086</ele>
        <time>2021-10-15T08:01:28Z</time>
      </trkpt>
      <trkpt lat="43.274048" lon="-4.982287">
        <ele>1062.560</ele>
        <time>2021-10-15T08:01:29Z</time>
      </trkpt>
      <trkpt lat="43.274001" lon="-4.982173">
        <ele>1062.526</ele>
        <time>2021-10-15T08:01:30Z</time>
      </trkpt>
      <trkpt lat="43.273933" lon="-4.981945">
        <ele>1063.908</ele>
        <time>2021-10-15T08:01:32Z</time>
      </trkpt>
      <trkpt lat="43.273859" lon="-4.981775">
        <ele>1064.586</ele>
        <time>2021-10-15T08:01:34Z</time>
      </trkpt>
      <trkpt lat="43.273800" lon="-4.981711">
        <ele>1065.264</ele>
        <time>2021-10-15T08:01:35Z</time>
      </trkpt>
      <trkpt lat="43.273650" lon="-4.981652">
        <ele>1065.492</ele>
        <time>2021-10-15T08:01:37Z</time>
      </trkpt>
      <trkpt lat="43.273577" lon="-4.981666">
        <ele>1065.736</ele>
        <time>2021-10-15T08:01:38Z</time>
      </trkpt>
      <trkpt lat="43.273452" lon="-4.981774">
        <ele>1066.271</ele>
        <time>2021-10-15T08:01:40Z</time>
      </trkpt>
      <trkpt lat="43.273388" lon="-4.981852">
        <ele>1066.259</ele>
        <time>2021-10-15T08:01:41Z</time>
      </trkpt>
      <trkpt lat="43.273241" lon="-4.982007">
        <ele>1066.522</ele>
        <time>2021-10-15T08:01:43Z</time>
      </trkpt>
      <trkpt lat="43.273099" lon="-4.982132">
        <ele>1067.077</ele>
        <time>2021-10-15T08:01:45Z</time>
      </trkpt>
      <trkpt lat="43.272972" lon="-4.982242">
        <ele>1066.989</ele>
        <time>2021-10-15T08:01:47Z</time>
      </trkpt>
      <trkpt lat="43.272839" lon="-4.982355">
        <ele>1066.406</ele>
        <time>2021-10-15T08:01:49Z</time>
      </trkpt>
      <trkpt lat="43.272700" lon="-4.982464">
        <ele>1066.426</ele>
        <time>2021-10-15T08:01:51Z</time>
      </trkpt>
      <trkpt lat="43.272558" lon="-4.982549">
        <ele>1066.008</ele>
        <time>2021-10-15T08:01:53Z</time>
      </trkpt>
      <trkpt lat="43.272424" lon="-4.982604">
        <ele>1065.876</ele>
        <time>2021-10-15T08:01:55Z</time>
      </trkpt>
      <trkpt lat="43.272361" lon="-4.982623">
        <ele>1065.864</ele>
        <time>2021-10-15T08:01:56Z</time>
      </trkpt>
      <trkpt lat="43.272261" lon="-4.982655">
        <ele>1066.442</ele>
        <time>2021-10-15T08:01:58Z</time>
      </trkpt>
      <trkpt lat="43.272171" lon="-4.982683">
        <ele>1066.636</ele>
        <time>2021-10-15T08:02:00Z</time>
      </trkpt>
      <trkpt lat="43.272080" lon="-4.982704">
        <ele>1066.561</ele>
        <time>2021-10-15T08:02:02Z</time>
      </trkpt>
      <trkpt lat="43.272022" lon="-4.982710">
        <ele>1066.319</ele>
        <time>2021-10-15T08:02:04Z</time>
      </trkpt>
      <trkpt lat="43.271955" lon="-4.982715">
        <ele>1066.392</ele>
        <time>2021-10-15T08:02:06Z</time>
      </trkpt>
      <trkpt lat="43.271906" lon="-4.982722">
        <ele>1066.487</ele>
        <time>2021-10-15T08:02:08Z</time>
      </trkpt>
      <trkpt lat="43.271853" lon="-4.982726">
        <ele>1066.529</ele>
        <time>2021-10-15T08:02:10Z</time>
      </trkpt>
      <trkpt lat="43.271790" lon="-4.982718">
        <ele>1066.100</ele>
        <time>2021-10-15T08:02:13Z</time>
      </trkpt>
      <trkpt lat="43.271747" lon="-4.982686">
        <ele>1065.820</ele>
        <time>2021-10-15T08:02:16Z</time>
      </trkpt>
      <trkpt lat="43.271725" lon="-4.982632">
        <ele>1065.608</ele>
        <time>2021-10-15T08:02:19Z</time>
      </trkpt>
      <trkpt lat="43.271760" lon="-4.982587">
        <ele>1064.830</ele>
        <time>2021-10-15T08:02:30Z</time>
      </trkpt>
      <trkpt lat="43.271726" lon="-4.982506">
        <ele>1087.488</ele>
        <time>2021-10-15T09:27:27Z</time>
      </trkpt>
      <trkpt lat="43.271723" lon="-4.982584">
        <ele>1068.886</ele>
        <time>2021-10-15T09:33:33Z</time>
      </trkpt>
      <trkpt lat="43.271735" lon="-4.982646">
        <ele>1068.870</ele>
        <time>2021-10-15T09:33:36Z</time>
      </trkpt>
      <trkpt lat="43.271768" lon="-4.982690">
        <ele>1068.835</ele>
        <time>2021-10-15T09:33:38Z</time>
      </trkpt>
      <trkpt lat="43.271855" lon="-4.982710">
        <ele>1068.873</ele>
        <time>2021-10-15T09:33:40Z</time>
      </trkpt>
      <trkpt lat="43.271929" lon="-4.982697">
        <ele>1068.856</ele>
        <time>2021-10-15T09:33:41Z</time>
      </trkpt>
      <trkpt lat="43.271992" lon="-4.982682">
        <ele>1068.991</ele>
        <time>2021-10-15T09:33:42Z</time>
      </trkpt>
      <trkpt lat="43.272046" lon="-4.982669">
        <ele>1068.951</ele>
        <time>2021-10-15T09:33:43Z</time>
      </trkpt>
      <trkpt lat="43.272103" lon="-4.982661">
        <ele>1068.901</ele>
        <time>2021-10-15T09:33:44Z</time>
      </trkpt>
      <trkpt lat="43.272211" lon="-4.982651">
        <ele>1068.911</ele>
        <time>2021-10-15T09:33:46Z</time>
      </trkpt>
      <trkpt lat="43.272262" lon="-4.982640">
        <ele>1068.908</ele>
        <time>2021-10-15T09:33:47Z</time>
      </trkpt>
      <trkpt lat="43.272318" lon="-4.982622">
        <ele>1068.943</ele>
        <time>2021-10-15T09:33:48Z</time>
      </trkpt>
      <trkpt lat="43.272451" lon="-4.982575">
        <ele>1068.961</ele>
        <time>2021-10-15T09:33:50Z</time>
      </trkpt>
      <trkpt lat="43.272589" lon="-4.982516">
        <ele>1069.079</ele>
        <time>2021-10-15T09:33:52Z</time>
      </trkpt>
      <trkpt lat="43.272655" lon="-4.982479">
        <ele>1069.063</ele>
        <time>2021-10-15T09:33:53Z</time>
      </trkpt>
      <trkpt lat="43.272796" lon="-4.982390">
        <ele>1069.038</ele>
        <time>2021-10-15T09:33:55Z</time>
      </trkpt>
      <trkpt lat="43.272871" lon="-4.982335">
        <ele>1069.066</ele>
        <time>2021-10-15T09:33:56Z</time>
      </trkpt>
      <trkpt lat="43.273021" lon="-4.982207">
        <ele>1069.139</ele>
        <time>2021-10-15T09:33:58Z</time>
      </trkpt>
      <trkpt lat="43.273101" lon="-4.982138">
        <ele>1069.164</ele>
        <time>2021-10-15T09:33:59Z</time>
      </trkpt>
      <trkpt lat="43.273185" lon="-4.982063">
        <ele>1069.196</ele>
        <time>2021-10-15T09:34:00Z</time>
      </trkpt>
      <trkpt lat="43.273365" lon="-4.981892">
        <ele>1069.031</ele>
        <time>2021-10-15T09:34:02Z</time>
      </trkpt>
      <trkpt lat="43.273534" lon="-4.981733">
        <ele>1069.024</ele>
        <time>2021-10-15T09:34:04Z</time>
      </trkpt>
      <trkpt lat="43.273677" lon="-4.981662">
        <ele>1069.008</ele>
        <time>2021-10-15T09:34:06Z</time>
      </trkpt>
      <trkpt lat="43.273802" lon="-4.981686">
        <ele>1069.187</ele>
        <time>2021-10-15T09:34:08Z</time>
      </trkpt>
      <trkpt lat="43.273903" lon="-4.981785">
        <ele>1069.175</ele>
        <time>2021-10-15T09:34:10Z</time>
      </trkpt>
      <trkpt lat="43.273979" lon="-4.981958">
        <ele>1069.143</ele>
        <time>2021-10-15T09:34:12Z</time>
      </trkpt>
      <trkpt lat="43.274010" lon="-4.982062">
        <ele>1069.127</ele>
        <time>2021-10-15T09:34:13Z</time>
      </trkpt>
      <trkpt lat="43.274044" lon="-4.982177">
        <ele>1069.182</ele>
        <time>2021-10-15T09:34:14Z</time>
      </trkpt>
      <trkpt lat="43.274135" lon="-4.982398">
        <ele>1069.160</ele>
        <time>2021-10-15T09:34:16Z</time>
      </trkpt>
      <trkpt lat="43.274199" lon="-4.982502">
        <ele>1069.123</ele>
        <time>2021-10-15T09:34:17Z</time>
      </trkpt>
      <trkpt lat="43.274279" lon="-4.982586">
        <ele>1069.158</ele>
        <time>2021-10-15T09:34:18Z</time>
      </trkpt>
      <trkpt lat="43.274468" lon="-4.982715">
        <ele>1069.197</ele>
        <time>2021-10-15T09:34:20Z</time>
      </trkpt>
      <trkpt lat="43.274663" lon="-4.982842">
        <ele>1069.123</ele>
        <time>2021-10-15T09:34:22Z</time>
      </trkpt>
      <trkpt lat="43.274856" lon="-4.983007">
        <ele>1066.925</ele>
        <time>2021-10-15T09:34:24Z</time>
      </trkpt>
      <trkpt lat="43.274936" lon="-4.983096">
        <ele>1066.908</ele>
        <time>2021-10-15T09:34:25Z</time>
      </trkpt>
      <trkpt lat="43.275017" lon="-4.983172">
        <ele>1066.947</ele>
        <time>2021-10-15T09:34:26Z</time>
      </trkpt>
      <trkpt lat="43.275197" lon="-4.983279">
        <ele>1066.375</ele>
        <time>2021-10-15T09:34:28Z</time>
      </trkpt>
      <trkpt lat="43.275288" lon="-4.983334">
        <ele>1066.093</ele>
        <time>2021-10-15T09:34:29Z</time>
      </trkpt>
      <trkpt lat="43.275432" lon="-4.983436">
        <ele>1064.987</ele>
        <time>2021-10-15T09:34:31Z</time>
      </trkpt>
      <trkpt lat="43.275482" lon="-4.983489">
        <ele>1064.842</ele>
        <time>2021-10-15T09:34:32Z</time>
      </trkpt>
      <trkpt lat="43.275528" lon="-4.983623">
        <ele>1063.940</ele>
        <time>2021-10-15T09:34:34Z</time>
      </trkpt>
      <trkpt lat="43.275522" lon="-4.983698">
        <ele>1063.533</ele>
        <time>2021-10-15T09:34:35Z</time>
      </trkpt>
      <trkpt lat="43.275457" lon="-4.983833">
        <ele>1063.168</ele>
        <time>2021-10-15T09:34:37Z</time>
      </trkpt>
      <trkpt lat="43.275404" lon="-4.983890">
        <ele>1062.919</ele>
        <time>2021-10-15T09:34:38Z</time>
      </trkpt>
      <trkpt lat="43.275271" lon="-4.983981">
        <ele>1062.509</ele>
        <time>2021-10-15T09:34:40Z</time>
      </trkpt>
      <trkpt lat="43.275196" lon="-4.984028">
        <ele>1062.219</ele>
        <time>2021-10-15T09:34:41Z</time>
      </trkpt>
      <trkpt lat="43.275042" lon="-4.984141">
        <ele>1061.308</ele>
        <time>2021-10-15T09:34:43Z</time>
      </trkpt>
      <trkpt lat="43.274955" lon="-4.984194">
        <ele>1061.039</ele>
        <time>2021-10-15T09:34:44Z</time>
      </trkpt>
      <trkpt lat="43.274778" lon="-4.984288">
        <ele>1061.057</ele>
        <time>2021-10-15T09:34:46Z</time>
      </trkpt>
      <trkpt lat="43.274693" lon="-4.984331">
        <ele>1059.515</ele>
        <time>2021-10-15T09:34:47Z</time>
      </trkpt>
      <trkpt lat="43.274541" lon="-4.984422">
        <ele>1059.629</ele>
        <time>2021-10-15T09:34:49Z</time>
      </trkpt>
      <trkpt lat="43.274477" lon="-4.984483">
        <ele>1059.594</ele>
        <time>2021-10-15T09:34:50Z</time>
      </trkpt>
      <trkpt lat="43.274402" lon="-4.984653">
        <ele>1059.022</ele>
        <time>2021-10-15T09:34:52Z</time>
      </trkpt>
      <trkpt lat="43.274373" lon="-4.984753">
        <ele>1058.795</ele>
        <time>2021-10-15T09:34:53Z</time>
      </trkpt>
      <trkpt lat="43.274328" lon="-4.984843">
        <ele>1058.490</ele>
        <time>2021-10-15T09:34:54Z</time>
      </trkpt>
      <trkpt lat="43.274268" lon="-4.984922">
        <ele>1057.927</ele>
        <time>2021-10-15T09:34:55Z</time>
      </trkpt>
      <trkpt lat="43.274198" lon="-4.984993">
        <ele>1057.368</ele>
        <time>2021-10-15T09:34:56Z</time>
      </trkpt>
      <trkpt lat="43.274050" lon="-4.985106">
        <ele>1055.814</ele>
        <time>2021-10-15T09:34:58Z</time>
      </trkpt>
      <trkpt lat="43.273969" lon="-4.985166">
        <ele>1055.508</ele>
        <time>2021-10-15T09:34:59Z</time>
      </trkpt>
      <trkpt lat="43.273800" lon="-4.985292">
        <ele>1054.910</ele>
        <time>2021-10-15T09:35:01Z</time>
      </trkpt>
      <trkpt lat="43.273717" lon="-4.985363">
        <ele>1054.688</ele>
        <time>2021-10-15T09:35:02Z</time>
      </trkpt>
      <trkpt lat="43.273561" lon="-4.985512">
        <ele>1051.796</ele>
        <time>2021-10-15T09:35:04Z</time>
      </trkpt>
      <trkpt lat="43.273489" lon="-4.985580">
        <ele>1051.580</ele>
        <time>2021-10-15T09:35:05Z</time>
      </trkpt>
      <trkpt lat="43.273350" lon="-4.985704">
        <ele>1051.075</ele>
        <time>2021-10-15T09:35:07Z</time>
      </trkpt>
      <trkpt lat="43.273282" lon="-4.985758">
        <ele>1050.433</ele>
        <time>2021-10-15T09:35:08Z</time>
      </trkpt>
      <trkpt lat="43.273147" lon="-4.985823">
        <ele>1049.666</ele>
        <time>2021-10-15T09:35:10Z</time>
      </trkpt>
      <trkpt lat="43.273003" lon="-4.985868">
        <ele>1048.931</ele>
        <time>2021-10-15T09:35:12Z</time>
      </trkpt>
      <trkpt lat="43.272916" lon="-4.985894">
        <ele>1048.742</ele>
        <time>2021-10-15T09:35:13Z</time>
      </trkpt>
      <trkpt lat="43.272824" lon="-4.985934">
        <ele>1048.022</ele>
        <time>2021-10-15T09:35:14Z</time>
      </trkpt>
      <trkpt lat="43.272660" lon="-4.986036">
        <ele>1046.714</ele>
        <time>2021-10-15T09:35:16Z</time>
      </trkpt>
      <trkpt lat="43.272586" lon="-4.986103">
        <ele>1046.208</ele>
        <time>2021-10-15T09:35:17Z</time>
      </trkpt>
      <trkpt lat="43.272513" lon="-4.986174">
        <ele>1046.042</ele>
        <time>2021-10-15T09:35:18Z</time>
      </trkpt>
      <trkpt lat="43.272360" lon="-4.986321">
        <ele>1044.760</ele>
        <time>2021-10-15T09:35:20Z</time>
      </trkpt>
      <trkpt lat="43.272195" lon="-4.986484">
        <ele>1043.818</ele>
        <time>2021-10-15T09:35:22Z</time>
      </trkpt>
      <trkpt lat="43.272065" lon="-4.986642">
        <ele>1042.022</ele>
        <time>2021-10-15T09:35:24Z</time>
      </trkpt>
      <trkpt lat="43.272014" lon="-4.986745">
        <ele>1041.827</ele>
        <time>2021-10-15T09:35:25Z</time>
      </trkpt>
      <trkpt lat="43.271975" lon="-4.986874">
        <ele>1041.275</ele>
        <time>2021-10-15T09:35:26Z</time>
      </trkpt>
      <trkpt lat="43.271946" lon="-4.987128">
        <ele>1039.678</ele>
        <time>2021-10-15T09:35:28Z</time>
      </trkpt>
      <trkpt lat="43.271972" lon="-4.987351">
        <ele>1038.093</ele>
        <time>2021-10-15T09:35:30Z</time>
      </trkpt>
      <trkpt lat="43.272075" lon="-4.987556">
        <ele>1036.066</ele>
        <time>2021-10-15T09:35:32Z</time>
      </trkpt>
      <trkpt lat="43.272241" lon="-4.987678">
        <ele>1034.029</ele>
        <time>2021-10-15T09:35:34Z</time>
      </trkpt>
      <trkpt lat="43.272442" lon="-4.987778">
        <ele>1032.121</ele>
        <time>2021-10-15T09:35:36Z</time>
      </trkpt>
      <trkpt lat="43.272552" lon="-4.987823">
        <ele>1030.708</ele>
        <time>2021-10-15T09:35:37Z</time>
      </trkpt>
      <trkpt lat="43.272668" lon="-4.987858">
        <ele>1029.994</ele>
        <time>2021-10-15T09:35:38Z</time>
      </trkpt>
      <trkpt lat="43.272885" lon="-4.987904">
        <ele>1028.182</ele>
        <time>2021-10-15T09:35:40Z</time>
      </trkpt>
      <trkpt lat="43.273081" lon="-4.987954">
        <ele>1025.780</ele>
        <time>2021-10-15T09:35:42Z</time>
      </trkpt>
      <trkpt lat="43.273233" lon="-4.987996">
        <ele>1023.024</ele>
        <time>2021-10-15T09:35:44Z</time>
      </trkpt>
      <trkpt lat="43.273352" lon="-4.988035">
        <ele>1022.379</ele>
        <time>2021-10-15T09:35:46Z</time>
      </trkpt>
      <trkpt lat="43.273410" lon="-4.988056">
        <ele>1021.997</ele>
        <time>2021-10-15T09:35:47Z</time>
      </trkpt>
      <trkpt lat="43.273519" lon="-4.988107">
        <ele>1021.030</ele>
        <time>2021-10-15T09:35:49Z</time>
      </trkpt>
      <trkpt lat="43.273571" lon="-4.988138">
        <ele>1020.235</ele>
        <time>2021-10-15T09:35:50Z</time>
      </trkpt>
      <trkpt lat="43.273629" lon="-4.988180">
        <ele>1019.461</ele>
        <time>2021-10-15T09:35:52Z</time>
      </trkpt>
      <trkpt lat="43.273668" lon="-4.988212">
        <ele>1018.421</ele>
        <time>2021-10-15T09:35:54Z</time>
      </trkpt>
      <trkpt lat="43.273706" lon="-4.988245">
        <ele>1017.413</ele>
        <time>2021-10-15T09:36:03Z</time>
      </trkpt>
      <trkpt lat="43.273765" lon="-4.988339">
        <ele>1017.108</ele>
        <time>2021-10-15T09:36:05Z</time>
      </trkpt>
      <trkpt lat="43.273803" lon="-4.988417">
        <ele>1017.054</ele>
        <time>2021-10-15T09:36:06Z</time>
      </trkpt>
      <trkpt lat="43.273873" lon="-4.988599">
        <ele>1016.442</ele>
        <time>2021-10-15T09:36:08Z</time>
      </trkpt>
      <trkpt lat="43.273926" lon="-4.988778">
        <ele>1016.360</ele>
        <time>2021-10-15T09:36:10Z</time>
      </trkpt>
      <trkpt lat="43.273937" lon="-4.988872">
        <ele>1016.314</ele>
        <time>2021-10-15T09:36:11Z</time>
      </trkpt>
      <trkpt lat="43.273933" lon="-4.988958">
        <ele>1016.549</ele>
        <time>2021-10-15T09:36:12Z</time>
      </trkpt>
      <trkpt lat="43.273923" lon="-4.989035">
        <ele>1016.577</ele>
        <time>2021-10-15T09:36:13Z</time>
      </trkpt>
      <trkpt lat="43.273910" lon="-4.989116">
        <ele>1016.540</ele>
        <time>2021-10-15T09:36:14Z</time>
      </trkpt>
      <trkpt lat="43.273877" lon="-4.989271">
        <ele>1017.255</ele>
        <time>2021-10-15T09:36:16Z</time>
      </trkpt>
      <trkpt lat="43.273859" lon="-4.989343">
        <ele>1017.633</ele>
        <time>2021-10-15T09:36:17Z</time>
      </trkpt>
      <trkpt lat="43.273827" lon="-4.989484">
        <ele>1018.623</ele>
        <time>2021-10-15T09:36:19Z</time>
      </trkpt>
      <trkpt lat="43.273812" lon="-4.989555">
        <ele>1018.915</ele>
        <time>2021-10-15T09:36:20Z</time>
      </trkpt>
      <trkpt lat="43.273790" lon="-4.989708">
        <ele>1019.408</ele>
        <time>2021-10-15T09:36:22Z</time>
      </trkpt>
      <trkpt lat="43.273787" lon="-4.989797">
        <ele>1020.181</ele>
        <time>2021-10-15T09:36:23Z</time>
      </trkpt>
      <trkpt lat="43.273789" lon="-4.989993">
        <ele>1020.719</ele>
        <time>2021-10-15T09:36:25Z</time>
      </trkpt>
      <trkpt lat="43.273791" lon="-4.990093">
        <ele>1020.967</ele>
        <time>2021-10-15T09:36:26Z</time>
      </trkpt>
      <trkpt lat="43.273794" lon="-4.990296">
        <ele>1021.861</ele>
        <time>2021-10-15T09:36:28Z</time>
      </trkpt>
      <trkpt lat="43.273800" lon="-4.990406">
        <ele>1022.316</ele>
        <time>2021-10-15T09:36:29Z</time>
      </trkpt>
      <trkpt lat="43.273816" lon="-4.990640">
        <ele>1023.374</ele>
        <time>2021-10-15T09:36:31Z</time>
      </trkpt>
      <trkpt lat="43.273824" lon="-4.990765">
        <ele>1023.947</ele>
        <time>2021-10-15T09:36:32Z</time>
      </trkpt>
      <trkpt lat="43.273846" lon="-4.991005">
        <ele>1024.822</ele>
        <time>2021-10-15T09:36:34Z</time>
      </trkpt>
      <trkpt lat="43.273868" lon="-4.991207">
        <ele>1025.845</ele>
        <time>2021-10-15T09:36:36Z</time>
      </trkpt>
      <trkpt lat="43.273884" lon="-4.991390">
        <ele>1026.547</ele>
        <time>2021-10-15T09:36:38Z</time>
      </trkpt>
      <trkpt lat="43.273907" lon="-4.991574">
        <ele>1026.911</ele>
        <time>2021-10-15T09:36:40Z</time>
      </trkpt>
      <trkpt lat="43.273921" lon="-4.991670">
        <ele>1027.908</ele>
        <time>2021-10-15T09:36:41Z</time>
      </trkpt>
      <trkpt lat="43.273953" lon="-4.991853">
        <ele>1028.812</ele>
        <time>2021-10-15T09:36:43Z</time>
      </trkpt>
      <trkpt lat="43.273972" lon="-4.991942">
        <ele>1029.940</ele>
        <time>2021-10-15T09:36:44Z</time>
      </trkpt>
      <trkpt lat="43.274007" lon="-4.992110">
        <ele>1031.168</ele>
        <time>2021-10-15T09:36:46Z</time>
      </trkpt>
      <trkpt lat="43.274049" lon="-4.992297">
        <ele>1032.032</ele>
        <time>2021-10-15T09:36:48Z</time>
      </trkpt>
      <trkpt lat="43.274072" lon="-4.992387">
        <ele>1032.587</ele>
        <time>2021-10-15T09:36:49Z</time>
      </trkpt>
      <trkpt lat="43.274096" lon="-4.992469">
        <ele>1032.825</ele>
        <time>2021-10-15T09:36:50Z</time>
      </trkpt>
      <trkpt lat="43.274137" lon="-4.992625">
        <ele>1033.638</ele>
        <time>2021-10-15T09:36:52Z</time>
      </trkpt>
      <trkpt lat="43.274190" lon="-4.992796">
        <ele>1034.483</ele>
        <time>2021-10-15T09:36:54Z</time>
      </trkpt>
      <trkpt lat="43.274241" lon="-4.992974">
        <ele>1036.548</ele>
        <time>2021-10-15T09:36:56Z</time>
      </trkpt>
      <trkpt lat="43.274289" lon="-4.993138">
        <ele>1038.961</ele>
        <time>2021-10-15T09:36:58Z</time>
      </trkpt>
      <trkpt lat="43.274322" lon="-4.993310">
        <ele>1039.417</ele>
        <time>2021-10-15T09:37:00Z</time>
      </trkpt>
      <trkpt lat="43.274329" lon="-4.993505">
        <ele>1040.708</ele>
        <time>2021-10-15T09:37:02Z</time>
      </trkpt>
      <trkpt lat="43.274335" lon="-4.993703">
        <ele>1043.192</ele>
        <time>2021-10-15T09:37:04Z</time>
      </trkpt>
      <trkpt lat="43.274353" lon="-4.993796">
        <ele>1043.540</ele>
        <time>2021-10-15T09:37:05Z</time>
      </trkpt>
      <trkpt lat="43.274400" lon="-4.993981">
        <ele>1045.368</ele>
        <time>2021-10-15T09:37:07Z</time>
      </trkpt>
      <trkpt lat="43.274425" lon="-4.994079">
        <ele>1046.192</ele>
        <time>2021-10-15T09:37:08Z</time>
      </trkpt>
      <trkpt lat="43.274469" lon="-4.994281">
        <ele>1047.647</ele>
        <time>2021-10-15T09:37:10Z</time>
      </trkpt>
      <trkpt lat="43.274487" lon="-4.994380">
        <ele>1048.425</ele>
        <time>2021-10-15T09:37:11Z</time>
      </trkpt>
      <trkpt lat="43.274488" lon="-4.994572">
        <ele>1050.748</ele>
        <time>2021-10-15T09:37:13Z</time>
      </trkpt>
      <trkpt lat="43.274469" lon="-4.994664">
        <ele>1051.593</ele>
        <time>2021-10-15T09:37:14Z</time>
      </trkpt>
      <trkpt lat="43.274427" lon="-4.994837">
        <ele>1053.361</ele>
        <time>2021-10-15T09:37:16Z</time>
      </trkpt>
      <trkpt lat="43.274401" lon="-4.995021">
        <ele>1055.221</ele>
        <time>2021-10-15T09:37:18Z</time>
      </trkpt>
      <trkpt lat="43.274438" lon="-4.995187">
        <ele>1056.813</ele>
        <time>2021-10-15T09:37:20Z</time>
      </trkpt>
      <trkpt lat="43.274549" lon="-4.995239">
        <ele>1058.408</ele>
        <time>2021-10-15T09:37:22Z</time>
      </trkpt>
      <trkpt lat="43.274622" lon="-4.995211">
        <ele>1058.884</ele>
        <time>2021-10-15T09:37:23Z</time>
      </trkpt>
      <trkpt lat="43.274798" lon="-4.995132">
        <ele>1060.232</ele>
        <time>2021-10-15T09:37:25Z</time>
      </trkpt>
      <trkpt lat="43.274910" lon="-4.995112">
        <ele>1060.380</ele>
        <time>2021-10-15T09:37:26Z</time>
      </trkpt>
      <trkpt lat="43.275116" lon="-4.995103">
        <ele>1060.194</ele>
        <time>2021-10-15T09:37:28Z</time>
      </trkpt>
      <trkpt lat="43.275284" lon="-4.995099">
        <ele>1059.799</ele>
        <time>2021-10-15T09:37:30Z</time>
      </trkpt>
      <trkpt lat="43.275352" lon="-4.995099">
        <ele>1059.767</ele>
        <time>2021-10-15T09:37:31Z</time>
      </trkpt>
      <trkpt lat="43.275415" lon="-4.995098">
        <ele>1059.510</ele>
        <time>2021-10-15T09:37:32Z</time>
      </trkpt>
      <trkpt lat="43.275538" lon="-4.995102">
        <ele>1059.395</ele>
        <time>2021-10-15T09:37:34Z</time>
      </trkpt>
      <trkpt lat="43.275605" lon="-4.995116">
        <ele>1059.247</ele>
        <time>2021-10-15T09:37:35Z</time>
      </trkpt>
      <trkpt lat="43.275671" lon="-4.995146">
        <ele>1058.229</ele>
        <time>2021-10-15T09:37:36Z</time>
      </trkpt>
      <trkpt lat="43.275735" lon="-4.995192">
        <ele>1057.821</ele>
        <time>2021-10-15T09:37:37Z</time>
      </trkpt>
      <trkpt lat="43.275800" lon="-4.995245">
        <ele>1055.308</ele>
        <time>2021-10-15T09:37:38Z</time>
      </trkpt>
      <trkpt lat="43.275916" lon="-4.995371">
        <ele>1053.852</ele>
        <time>2021-10-15T09:37:40Z</time>
      </trkpt>
      <trkpt lat="43.275979" lon="-4.995456">
        <ele>1053.110</ele>
        <time>2021-10-15T09:37:41Z</time>
      </trkpt>
      <trkpt lat="43.276106" lon="-4.995697">
        <ele>1052.198</ele>
        <time>2021-10-15T09:37:43Z</time>
      </trkpt>
      <trkpt lat="43.276165" lon="-4.995847">
        <ele>1051.442</ele>
        <time>2021-10-15T09:37:44Z</time>
      </trkpt>
      <trkpt lat="43.276262" lon="-4.996131">
        <ele>1050.677</ele>
        <time>2021-10-15T09:37:46Z</time>
      </trkpt>
      <trkpt lat="43.276299" lon="-4.996405">
        <ele>1050.095</ele>
        <time>2021-10-15T09:37:48Z</time>
      </trkpt>
      <trkpt lat="43.276292" lon="-4.996541">
        <ele>1049.348</ele>
        <time>2021-10-15T09:37:49Z</time>
      </trkpt>
      <trkpt lat="43.276276" lon="-4.996686">
        <ele>1049.073</ele>
        <time>2021-10-15T09:37:50Z</time>
      </trkpt>
      <trkpt lat="43.276245" lon="-4.996984">
        <ele>1049.212</ele>
        <time>2021-10-15T09:37:52Z</time>
      </trkpt>
      <trkpt lat="43.276210" lon="-4.997292">
        <ele>1049.732</ele>
        <time>2021-10-15T09:37:54Z</time>
      </trkpt>
      <trkpt lat="43.276130" lon="-4.997548">
        <ele>1049.705</ele>
        <time>2021-10-15T09:37:56Z</time>
      </trkpt>
      <trkpt lat="43.275973" lon="-4.997732">
        <ele>1050.508</ele>
        <time>2021-10-15T09:37:58Z</time>
      </trkpt>
      <trkpt lat="43.275779" lon="-4.997878">
        <ele>1049.029</ele>
        <time>2021-10-15T09:38:00Z</time>
      </trkpt>
      <trkpt lat="43.275652" lon="-4.998094">
        <ele>1048.087</ele>
        <time>2021-10-15T09:38:02Z</time>
      </trkpt>
      <trkpt lat="43.275624" lon="-4.998362">
        <ele>1047.065</ele>
        <time>2021-10-15T09:38:04Z</time>
      </trkpt>
      <trkpt lat="43.275623" lon="-4.998511">
        <ele>1046.629</ele>
        <time>2021-10-15T09:38:05Z</time>
      </trkpt>
      <trkpt lat="43.275618" lon="-4.998831">
        <ele>1046.224</ele>
        <time>2021-10-15T09:38:07Z</time>
      </trkpt>
      <trkpt lat="43.275620" lon="-4.999005">
        <ele>1046.152</ele>
        <time>2021-10-15T09:38:08Z</time>
      </trkpt>
      <trkpt lat="43.275611" lon="-4.999328">
        <ele>1045.795</ele>
        <time>2021-10-15T09:38:10Z</time>
      </trkpt>
      <trkpt lat="43.275596" lon="-4.999494">
        <ele>1045.720</ele>
        <time>2021-10-15T09:38:11Z</time>
      </trkpt>
      <trkpt lat="43.275553" lon="-4.999808">
        <ele>1044.346</ele>
        <time>2021-10-15T09:38:13Z</time>
      </trkpt>
      <trkpt lat="43.275533" lon="-4.999968">
        <ele>1043.288</ele>
        <time>2021-10-15T09:38:14Z</time>
      </trkpt>
      <trkpt lat="43.275514" lon="-5.000291">
        <ele>1042.016</ele>
        <time>2021-10-15T09:38:16Z</time>
      </trkpt>
      <trkpt lat="43.275521" lon="-5.000458">
        <ele>1040.608</ele>
        <time>2021-10-15T09:38:17Z</time>
      </trkpt>
      <trkpt lat="43.275574" lon="-5.000775">
        <ele>1038.052</ele>
        <time>2021-10-15T09:38:19Z</time>
      </trkpt>
      <trkpt lat="43.275609" lon="-5.000934">
        <ele>1037.810</ele>
        <time>2021-10-15T09:38:20Z</time>
      </trkpt>
      <trkpt lat="43.275669" lon="-5.001235">
        <ele>1035.518</ele>
        <time>2021-10-15T09:38:22Z</time>
      </trkpt>
      <trkpt lat="43.275721" lon="-5.001538">
        <ele>1034.332</ele>
        <time>2021-10-15T09:38:24Z</time>
      </trkpt>
      <trkpt lat="43.275733" lon="-5.001686">
        <ele>1032.657</ele>
        <time>2021-10-15T09:38:25Z</time>
      </trkpt>
      <trkpt lat="43.275727" lon="-5.001837">
        <ele>1032.415</ele>
        <time>2021-10-15T09:38:26Z</time>
      </trkpt>
      <trkpt lat="43.275658" lon="-5.002106">
        <ele>1030.918</ele>
        <time>2021-10-15T09:38:28Z</time>
      </trkpt>
      <trkpt lat="43.275612" lon="-5.002240">
        <ele>1030.243</ele>
        <time>2021-10-15T09:38:29Z</time>
      </trkpt>
      <trkpt lat="43.275533" lon="-5.002510">
        <ele>1027.079</ele>
        <time>2021-10-15T09:38:31Z</time>
      </trkpt>
      <trkpt lat="43.275505" lon="-5.002651">
        <ele>1026.105</ele>
        <time>2021-10-15T09:38:32Z</time>
      </trkpt>
      <trkpt lat="43.275480" lon="-5.002933">
        <ele>1024.925</ele>
        <time>2021-10-15T09:38:34Z</time>
      </trkpt>
      <trkpt lat="43.275492" lon="-5.003079">
        <ele>1023.908</ele>
        <time>2021-10-15T09:38:35Z</time>
      </trkpt>
      <trkpt lat="43.275549" lon="-5.003359">
        <ele>1020.245</ele>
        <time>2021-10-15T09:38:37Z</time>
      </trkpt>
      <trkpt lat="43.275583" lon="-5.003499">
        <ele>1019.933</ele>
        <time>2021-10-15T09:38:38Z</time>
      </trkpt>
      <trkpt lat="43.275649" lon="-5.003754">
        <ele>1018.481</ele>
        <time>2021-10-15T09:38:40Z</time>
      </trkpt>
      <trkpt lat="43.275682" lon="-5.003878">
        <ele>1017.775</ele>
        <time>2021-10-15T09:38:41Z</time>
      </trkpt>
      <trkpt lat="43.275714" lon="-5.003995">
        <ele>1016.530</ele>
        <time>2021-10-15T09:38:42Z</time>
      </trkpt>
      <trkpt lat="43.275748" lon="-5.004113">
        <ele>1015.228</ele>
        <time>2021-10-15T09:38:43Z</time>
      </trkpt>
      <trkpt lat="43.275790" lon="-5.004232">
        <ele>1014.811</ele>
        <time>2021-10-15T09:38:44Z</time>
      </trkpt>
      <trkpt lat="43.275885" lon="-5.004453">
        <ele>1013.536</ele>
        <time>2021-10-15T09:38:46Z</time>
      </trkpt>
      <trkpt lat="43.275991" lon="-5.004665">
        <ele>1012.641</ele>
        <time>2021-10-15T09:38:48Z</time>
      </trkpt>
      <trkpt lat="43.276095" lon="-5.004869">
        <ele>1011.481</ele>
        <time>2021-10-15T09:38:50Z</time>
      </trkpt>
      <trkpt lat="43.276189" lon="-5.005058">
        <ele>1010.909</ele>
        <time>2021-10-15T09:38:52Z</time>
      </trkpt>
      <trkpt lat="43.276232" lon="-5.005161">
        <ele>1009.908</ele>
        <time>2021-10-15T09:38:53Z</time>
      </trkpt>
      <trkpt lat="43.276346" lon="-5.005322">
        <ele>1007.672</ele>
        <time>2021-10-15T09:38:55Z</time>
      </trkpt>
      <trkpt lat="43.276426" lon="-5.005375">
        <ele>1007.010</ele>
        <time>2021-10-15T09:38:56Z</time>
      </trkpt>
      <trkpt lat="43.276599" lon="-5.005437">
        <ele>1004.938</ele>
        <time>2021-10-15T09:38:58Z</time>
      </trkpt>
      <trkpt lat="43.276687" lon="-5.005459">
        <ele>1003.922</ele>
        <time>2021-10-15T09:38:59Z</time>
      </trkpt>
      <trkpt lat="43.276842" lon="-5.005457">
        <ele>1002.167</ele>
        <time>2021-10-15T09:39:01Z</time>
      </trkpt>
      <trkpt lat="43.276908" lon="-5.005415">
        <ele>1001.525</ele>
        <time>2021-10-15T09:39:02Z</time>
      </trkpt>
      <trkpt lat="43.277021" lon="-5.005249">
        <ele>999.078</ele>
        <time>2021-10-15T09:39:04Z</time>
      </trkpt>
      <trkpt lat="43.277136" lon="-5.005066">
        <ele>997.193</ele>
        <time>2021-10-15T09:39:06Z</time>
      </trkpt>
      <trkpt lat="43.277243" lon="-5.004854">
        <ele>995.091</ele>
        <time>2021-10-15T09:39:08Z</time>
      </trkpt>
      <trkpt lat="43.277345" lon="-5.004619">
        <ele>992.581</ele>
        <time>2021-10-15T09:39:10Z</time>
      </trkpt>
      <trkpt lat="43.277392" lon="-5.004482">
        <ele>991.619</ele>
        <time>2021-10-15T09:39:11Z</time>
      </trkpt>
      <trkpt lat="43.277433" lon="-5.004340">
        <ele>989.608</ele>
        <time>2021-10-15T09:39:12Z</time>
      </trkpt>
      <trkpt lat="43.277509" lon="-5.004091">
        <ele>987.547</ele>
        <time>2021-10-15T09:39:14Z</time>
      </trkpt>
      <trkpt lat="43.277639" lon="-5.003954">
        <ele>985.345</ele>
        <time>2021-10-15T09:39:16Z</time>
      </trkpt>
      <trkpt lat="43.277832" lon="-5.003949">
        <ele>982.623</ele>
        <time>2021-10-15T09:39:18Z</time>
      </trkpt>
      <trkpt lat="43.277935" lon="-5.003964">
        <ele>979.937</ele>
        <time>2021-10-15T09:39:19Z</time>
      </trkpt>
      <trkpt lat="43.278033" lon="-5.003957">
        <ele>978.762</ele>
        <time>2021-10-15T09:39:20Z</time>
      </trkpt>
      <trkpt lat="43.278201" lon="-5.003866">
        <ele>976.280</ele>
        <time>2021-10-15T09:39:22Z</time>
      </trkpt>
      <trkpt lat="43.278277" lon="-5.003784">
        <ele>974.133</ele>
        <time>2021-10-15T09:39:23Z</time>
      </trkpt>
      <trkpt lat="43.278345" lon="-5.003693">
        <ele>973.868</ele>
        <time>2021-10-15T09:39:24Z</time>
      </trkpt>
      <trkpt lat="43.278493" lon="-5.003511">
        <ele>971.851</ele>
        <time>2021-10-15T09:39:26Z</time>
      </trkpt>
      <trkpt lat="43.278637" lon="-5.003362">
        <ele>969.101</ele>
        <time>2021-10-15T09:39:28Z</time>
      </trkpt>
      <trkpt lat="43.278799" lon="-5.003261">
        <ele>967.311</ele>
        <time>2021-10-15T09:39:30Z</time>
      </trkpt>
      <trkpt lat="43.278975" lon="-5.003184">
        <ele>966.008</ele>
        <time>2021-10-15T09:39:32Z</time>
      </trkpt>
      <trkpt lat="43.279153" lon="-5.003125">
        <ele>964.153</ele>
        <time>2021-10-15T09:39:34Z</time>
      </trkpt>
      <trkpt lat="43.279336" lon="-5.003087">
        <ele>962.441</ele>
        <time>2021-10-15T09:39:36Z</time>
      </trkpt>
      <trkpt lat="43.279523" lon="-5.003056">
        <ele>959.759</ele>
        <time>2021-10-15T09:39:38Z</time>
      </trkpt>
      <trkpt lat="43.279682" lon="-5.002949">
        <ele>958.983</ele>
        <time>2021-10-15T09:39:40Z</time>
      </trkpt>
      <trkpt lat="43.279839" lon="-5.002817">
        <ele>957.628</ele>
        <time>2021-10-15T09:39:42Z</time>
      </trkpt>
      <trkpt lat="43.279929" lon="-5.002764">
        <ele>956.066</ele>
        <time>2021-10-15T09:39:43Z</time>
      </trkpt>
      <trkpt lat="43.280037" lon="-5.002745">
        <ele>953.919</ele>
        <time>2021-10-15T09:39:44Z</time>
      </trkpt>
      <trkpt lat="43.280257" lon="-5.002786">
        <ele>951.484</ele>
        <time>2021-10-15T09:39:46Z</time>
      </trkpt>
      <trkpt lat="43.280491" lon="-5.002786">
        <ele>947.747</ele>
        <time>2021-10-15T09:39:48Z</time>
      </trkpt>
      <trkpt lat="43.280729" lon="-5.002726">
        <ele>945.829</ele>
        <time>2021-10-15T09:39:50Z</time>
      </trkpt>
      <trkpt lat="43.280941" lon="-5.002706">
        <ele>942.521</ele>
        <time>2021-10-15T09:39:52Z</time>
      </trkpt>
      <trkpt lat="43.281123" lon="-5.002834">
        <ele>941.908</ele>
        <time>2021-10-15T09:39:54Z</time>
      </trkpt>
      <trkpt lat="43.281196" lon="-5.002947">
        <ele>941.682</ele>
        <time>2021-10-15T09:39:55Z</time>
      </trkpt>
      <trkpt lat="43.281260" lon="-5.003079">
        <ele>939.210</ele>
        <time>2021-10-15T09:39:56Z</time>
      </trkpt>
      <trkpt lat="43.281372" lon="-5.003347">
        <ele>937.368</ele>
        <time>2021-10-15T09:39:58Z</time>
      </trkpt>
      <trkpt lat="43.281481" lon="-5.003567">
        <ele>934.642</ele>
        <time>2021-10-15T09:40:00Z</time>
      </trkpt>
      <trkpt lat="43.281640" lon="-5.003677">
        <ele>932.957</ele>
        <time>2021-10-15T09:40:02Z</time>
      </trkpt>
      <trkpt lat="43.281838" lon="-5.003667">
        <ele>929.785</ele>
        <time>2021-10-15T09:40:04Z</time>
      </trkpt>
      <trkpt lat="43.282052" lon="-5.003599">
        <ele>926.798</ele>
        <time>2021-10-15T09:40:06Z</time>
      </trkpt>
      <trkpt lat="43.282280" lon="-5.003591">
        <ele>923.453</ele>
        <time>2021-10-15T09:40:08Z</time>
      </trkpt>
      <trkpt lat="43.282504" lon="-5.003625">
        <ele>922.837</ele>
        <time>2021-10-15T09:40:10Z</time>
      </trkpt>
      <trkpt lat="43.282684" lon="-5.003544">
        <ele>922.349</ele>
        <time>2021-10-15T09:40:12Z</time>
      </trkpt>
      <trkpt lat="43.282739" lon="-5.003455">
        <ele>922.713</ele>
        <time>2021-10-15T09:40:13Z</time>
      </trkpt>
      <trkpt lat="43.282795" lon="-5.003382">
        <ele>923.208</ele>
        <time>2021-10-15T09:40:14Z</time>
      </trkpt>
      <trkpt lat="43.282889" lon="-5.003346">
        <ele>924.031</ele>
        <time>2021-10-15T09:40:16Z</time>
      </trkpt>
      <trkpt lat="43.282932" lon="-5.003413">
        <ele>925.299</ele>
        <time>2021-10-15T09:40:18Z</time>
      </trkpt>
      <trkpt lat="43.282932" lon="-5.003569">
        <ele>925.927</ele>
        <time>2021-10-15T09:40:20Z</time>
      </trkpt>
      <trkpt lat="43.282871" lon="-5.003793">
        <ele>926.221</ele>
        <time>2021-10-15T09:40:22Z</time>
      </trkpt>
      <trkpt lat="43.282852" lon="-5.004086">
        <ele>930.156</ele>
        <time>2021-10-15T09:40:24Z</time>
      </trkpt>
      <trkpt lat="43.282934" lon="-5.004437">
        <ele>933.764</ele>
        <time>2021-10-15T09:40:26Z</time>
      </trkpt>
      <trkpt lat="43.283083" lon="-5.004761">
        <ele>939.017</ele>
        <time>2021-10-15T09:40:28Z</time>
      </trkpt>
      <trkpt lat="43.283204" lon="-5.005096">
        <ele>943.572</ele>
        <time>2021-10-15T09:40:30Z</time>
      </trkpt>
      <trkpt lat="43.283233" lon="-5.005267">
        <ele>945.079</ele>
        <time>2021-10-15T09:40:31Z</time>
      </trkpt>
      <trkpt lat="43.283252" lon="-5.005423">
        <ele>945.805</ele>
        <time>2021-10-15T09:40:32Z</time>
      </trkpt>
      <trkpt lat="43.283298" lon="-5.005708">
        <ele>946.925</ele>
        <time>2021-10-15T09:40:34Z</time>
      </trkpt>
      <trkpt lat="43.283326" lon="-5.005860">
        <ele>948.908</ele>
        <time>2021-10-15T09:40:35Z</time>
      </trkpt>
      <trkpt lat="43.283367" lon="-5.006016">
        <ele>950.755</ele>
        <time>2021-10-15T09:40:36Z</time>
      </trkpt>
      <trkpt lat="43.283414" lon="-5.006174">
        <ele>951.463</ele>
        <time>2021-10-15T09:40:37Z</time>
      </trkpt>
      <trkpt lat="43.283464" lon="-5.006333">
        <ele>954.691</ele>
        <time>2021-10-15T09:40:38Z</time>
      </trkpt>
      <trkpt lat="43.283562" lon="-5.006659">
        <ele>955.975</ele>
        <time>2021-10-15T09:40:40Z</time>
      </trkpt>
      <trkpt lat="43.283618" lon="-5.006833">
        <ele>955.920</ele>
        <time>2021-10-15T09:40:41Z</time>
      </trkpt>
      <trkpt lat="43.283745" lon="-5.007160">
        <ele>955.978</ele>
        <time>2021-10-15T09:40:43Z</time>
      </trkpt>
      <trkpt lat="43.283818" lon="-5.007299">
        <ele>955.621</ele>
        <time>2021-10-15T09:40:44Z</time>
      </trkpt>
      <trkpt lat="43.283969" lon="-5.007542">
        <ele>955.846</ele>
        <time>2021-10-15T09:40:46Z</time>
      </trkpt>
      <trkpt lat="43.284028" lon="-5.007694">
        <ele>955.678</ele>
        <time>2021-10-15T09:40:47Z</time>
      </trkpt>
      <trkpt lat="43.284074" lon="-5.007857">
        <ele>955.633</ele>
        <time>2021-10-15T09:40:48Z</time>
      </trkpt>
      <trkpt lat="43.284154" lon="-5.008119">
        <ele>954.426</ele>
        <time>2021-10-15T09:40:50Z</time>
      </trkpt>
      <trkpt lat="43.284275" lon="-5.008261">
        <ele>955.008</ele>
        <time>2021-10-15T09:40:52Z</time>
      </trkpt>
      <trkpt lat="43.284423" lon="-5.008407">
        <ele>954.995</ele>
        <time>2021-10-15T09:40:54Z</time>
      </trkpt>
      <trkpt lat="43.284494" lon="-5.008506">
        <ele>954.783</ele>
        <time>2021-10-15T09:40:55Z</time>
      </trkpt>
      <trkpt lat="43.284576" lon="-5.008602">
        <ele>954.651</ele>
        <time>2021-10-15T09:40:56Z</time>
      </trkpt>
      <trkpt lat="43.284752" lon="-5.008738">
        <ele>954.425</ele>
        <time>2021-10-15T09:40:58Z</time>
      </trkpt>
      <trkpt lat="43.284919" lon="-5.008766">
        <ele>954.330</ele>
        <time>2021-10-15T09:41:00Z</time>
      </trkpt>
      <trkpt lat="43.285063" lon="-5.008645">
        <ele>954.028</ele>
        <time>2021-10-15T09:41:02Z</time>
      </trkpt>
      <trkpt lat="43.285200" lon="-5.008521">
        <ele>953.041</ele>
        <time>2021-10-15T09:41:04Z</time>
      </trkpt>
      <trkpt lat="43.285361" lon="-5.008517">
        <ele>951.816</ele>
        <time>2021-10-15T09:41:06Z</time>
      </trkpt>
      <trkpt lat="43.285450" lon="-5.008543">
        <ele>951.053</ele>
        <time>2021-10-15T09:41:07Z</time>
      </trkpt>
      <trkpt lat="43.285535" lon="-5.008564">
        <ele>950.204</ele>
        <time>2021-10-15T09:41:08Z</time>
      </trkpt>
      <trkpt lat="43.285674" lon="-5.008516">
        <ele>947.514</ele>
        <time>2021-10-15T09:41:10Z</time>
      </trkpt>
      <trkpt lat="43.285724" lon="-5.008446">
        <ele>945.808</ele>
        <time>2021-10-15T09:41:11Z</time>
      </trkpt>
      <trkpt lat="43.285780" lon="-5.008230">
        <ele>944.133</ele>
        <time>2021-10-15T09:41:13Z</time>
      </trkpt>
      <trkpt lat="43.285824" lon="-5.008128">
        <ele>942.431</ele>
        <time>2021-10-15T09:41:14Z</time>
      </trkpt>
      <trkpt lat="43.285961" lon="-5.007978">
        <ele>940.519</ele>
        <time>2021-10-15T09:41:16Z</time>
      </trkpt>
      <trkpt lat="43.286050" lon="-5.007926">
        <ele>939.233</ele>
        <time>2021-10-15T09:41:17Z</time>
      </trkpt>
      <trkpt lat="43.286147" lon="-5.007890">
        <ele>937.028</ele>
        <time>2021-10-15T09:41:18Z</time>
      </trkpt>
      <trkpt lat="43.286249" lon="-5.007874">
        <ele>935.946</ele>
        <time>2021-10-15T09:41:19Z</time>
      </trkpt>
      <trkpt lat="43.286347" lon="-5.007871">
        <ele>933.499</ele>
        <time>2021-10-15T09:41:20Z</time>
      </trkpt>
      <trkpt lat="43.286495" lon="-5.007822">
        <ele>931.084</ele>
        <time>2021-10-15T09:41:22Z</time>
      </trkpt>
      <trkpt lat="43.286550" lon="-5.007762">
        <ele>930.776</ele>
        <time>2021-10-15T09:41:23Z</time>
      </trkpt>
      <trkpt lat="43.286588" lon="-5.007688">
        <ele>930.490</ele>
        <time>2021-10-15T09:41:24Z</time>
      </trkpt>
      <trkpt lat="43.286596" lon="-5.007484">
        <ele>929.919</ele>
        <time>2021-10-15T09:41:26Z</time>
      </trkpt>
      <trkpt lat="43.286586" lon="-5.007272">
        <ele>930.108</ele>
        <time>2021-10-15T09:41:28Z</time>
      </trkpt>
      <trkpt lat="43.286596" lon="-5.007165">
        <ele>929.665</ele>
        <time>2021-10-15T09:41:29Z</time>
      </trkpt>
      <trkpt lat="43.286647" lon="-5.006966">
        <ele>929.263</ele>
        <time>2021-10-15T09:41:31Z</time>
      </trkpt>
      <trkpt lat="43.286699" lon="-5.006888">
        <ele>928.941</ele>
        <time>2021-10-15T09:41:32Z</time>
      </trkpt>
      <trkpt lat="43.286833" lon="-5.006799">
        <ele>928.065</ele>
        <time>2021-10-15T09:41:34Z</time>
      </trkpt>
      <trkpt lat="43.286914" lon="-5.006775">
        <ele>927.860</ele>
        <time>2021-10-15T09:41:35Z</time>
      </trkpt>
      <trkpt lat="43.286997" lon="-5.006754">
        <ele>927.558</ele>
        <time>2021-10-15T09:41:36Z</time>
      </trkpt>
      <trkpt lat="43.287176" lon="-5.006709">
        <ele>926.151</ele>
        <time>2021-10-15T09:41:38Z</time>
      </trkpt>
      <trkpt lat="43.287364" lon="-5.006655">
        <ele>922.816</ele>
        <time>2021-10-15T09:41:40Z</time>
      </trkpt>
      <trkpt lat="43.287461" lon="-5.006625">
        <ele>921.872</ele>
        <time>2021-10-15T09:41:41Z</time>
      </trkpt>
      <trkpt lat="43.287554" lon="-5.006585">
        <ele>920.913</ele>
        <time>2021-10-15T09:41:42Z</time>
      </trkpt>
      <trkpt lat="43.287637" lon="-5.006518">
        <ele>919.014</ele>
        <time>2021-10-15T09:41:43Z</time>
      </trkpt>
      <trkpt lat="43.287703" lon="-5.006439">
        <ele>918.208</ele>
        <time>2021-10-15T09:41:44Z</time>
      </trkpt>
      <trkpt lat="43.287787" lon="-5.006337">
        <ele>917.195</ele>
        <time>2021-10-15T09:41:46Z</time>
      </trkpt>
      <trkpt lat="43.287833" lon="-5.006300">
        <ele>916.633</ele>
        <time>2021-10-15T09:41:47Z</time>
      </trkpt>
      <trkpt lat="43.287936" lon="-5.006222">
        <ele>916.421</ele>
        <time>2021-10-15T09:41:49Z</time>
      </trkpt>
      <trkpt lat="43.287991" lon="-5.006180">
        <ele>916.445</ele>
        <time>2021-10-15T09:41:50Z</time>
      </trkpt>
      <trkpt lat="43.288085" lon="-5.006106">
        <ele>913.660</ele>
        <time>2021-10-15T09:41:52Z</time>
      </trkpt>
      <trkpt lat="43.288165" lon="-5.006022">
        <ele>911.978</ele>
        <time>2021-10-15T09:41:54Z</time>
      </trkpt>
      <trkpt lat="43.288190" lon="-5.005968">
        <ele>911.091</ele>
        <time>2021-10-15T09:41:55Z</time>
      </trkpt>
      <trkpt lat="43.288206" lon="-5.005881">
        <ele>910.036</ele>
        <time>2021-10-15T09:41:57Z</time>
      </trkpt>
      <trkpt lat="43.288213" lon="-5.005807">
        <ele>909.919</ele>
        <time>2021-10-15T09:41:58Z</time>
      </trkpt>
      <trkpt lat="43.288207" lon="-5.005617">
        <ele>908.309</ele>
        <time>2021-10-15T09:42:00Z</time>
      </trkpt>
      <trkpt lat="43.288203" lon="-5.005512">
        <ele>907.919</ele>
        <time>2021-10-15T09:42:01Z</time>
      </trkpt>
      <trkpt lat="43.288199" lon="-5.005408">
        <ele>907.408</ele>
        <time>2021-10-15T09:42:02Z</time>
      </trkpt>
      <trkpt lat="43.288193" lon="-5.005209">
        <ele>903.979</ele>
        <time>2021-10-15T09:42:04Z</time>
      </trkpt>
      <trkpt lat="43.288192" lon="-5.005104">
        <ele>903.417</ele>
        <time>2021-10-15T09:42:05Z</time>
      </trkpt>
      <trkpt lat="43.288222" lon="-5.004892">
        <ele>901.555</ele>
        <time>2021-10-15T09:42:07Z</time>
      </trkpt>
      <trkpt lat="43.288262" lon="-5.004789">
        <ele>900.559</ele>
        <time>2021-10-15T09:42:08Z</time>
      </trkpt>
      <trkpt lat="43.288392" lon="-5.004623">
        <ele>899.214</ele>
        <time>2021-10-15T09:42:10Z</time>
      </trkpt>
      <trkpt lat="43.288484" lon="-5.004572">
        <ele>898.352</ele>
        <time>2021-10-15T09:42:11Z</time>
      </trkpt>
      <trkpt lat="43.288586" lon="-5.004558">
        <ele>896.445</ele>
        <time>2021-10-15T09:42:12Z</time>
      </trkpt>
      <trkpt lat="43.288799" lon="-5.004594">
        <ele>896.060</ele>
        <time>2021-10-15T09:42:14Z</time>
      </trkpt>
      <trkpt lat="43.288998" lon="-5.004624">
        <ele>894.837</ele>
        <time>2021-10-15T09:42:16Z</time>
      </trkpt>
      <trkpt lat="43.289098" lon="-5.004636">
        <ele>894.649</ele>
        <time>2021-10-15T09:42:17Z</time>
      </trkpt>
      <trkpt lat="43.289304" lon="-5.004657">
        <ele>892.713</ele>
        <time>2021-10-15T09:42:19Z</time>
      </trkpt>
      <trkpt lat="43.289416" lon="-5.004677">
        <ele>892.308</ele>
        <time>2021-10-15T09:42:20Z</time>
      </trkpt>
      <trkpt lat="43.289633" lon="-5.004773">
        <ele>890.011</ele>
        <time>2021-10-15T09:42:22Z</time>
      </trkpt>
      <trkpt lat="43.289740" lon="-5.004851">
        <ele>889.969</ele>
        <time>2021-10-15T09:42:23Z</time>
      </trkpt>
      <trkpt lat="43.289920" lon="-5.005045">
        <ele>887.377</ele>
        <time>2021-10-15T09:42:25Z</time>
      </trkpt>
      <trkpt lat="43.289985" lon="-5.005182">
        <ele>886.421</ele>
        <time>2021-10-15T09:42:26Z</time>
      </trkpt>
      <trkpt lat="43.290059" lon="-5.005488">
        <ele>884.696</ele>
        <time>2021-10-15T09:42:28Z</time>
      </trkpt>
      <trkpt lat="43.290089" lon="-5.005653">
        <ele>882.984</ele>
        <time>2021-10-15T09:42:29Z</time>
      </trkpt>
      <trkpt lat="43.290117" lon="-5.005820">
        <ele>880.937</ele>
        <time>2021-10-15T09:42:30Z</time>
      </trkpt>
      <trkpt lat="43.290144" lon="-5.005989">
        <ele>879.982</ele>
        <time>2021-10-15T09:42:31Z</time>
      </trkpt>
      <trkpt lat="43.290169" lon="-5.006159">
        <ele>879.588</ele>
        <time>2021-10-15T09:42:32Z</time>
      </trkpt>
      <trkpt lat="43.290196" lon="-5.006449">
        <ele>876.224</ele>
        <time>2021-10-15T09:42:34Z</time>
      </trkpt>
      <trkpt lat="43.290214" lon="-5.006680">
        <ele>874.026</ele>
        <time>2021-10-15T09:42:36Z</time>
      </trkpt>
      <trkpt lat="43.290282" lon="-5.006857">
        <ele>872.008</ele>
        <time>2021-10-15T09:42:38Z</time>
      </trkpt>
      <trkpt lat="43.290432" lon="-5.006955">
        <ele>868.726</ele>
        <time>2021-10-15T09:42:40Z</time>
      </trkpt>
      <trkpt lat="43.290526" lon="-5.006974">
        <ele>867.754</ele>
        <time>2021-10-15T09:42:41Z</time>
      </trkpt>
      <trkpt lat="43.290623" lon="-5.006992">
        <ele>866.812</ele>
        <time>2021-10-15T09:42:42Z</time>
      </trkpt>
      <trkpt lat="43.290823" lon="-5.007022">
        <ele>862.926</ele>
        <time>2021-10-15T09:42:44Z</time>
      </trkpt>
      <trkpt lat="43.290996" lon="-5.007101">
        <ele>861.081</ele>
        <time>2021-10-15T09:42:46Z</time>
      </trkpt>
      <trkpt lat="43.291126" lon="-5.007300">
        <ele>858.179</ele>
        <time>2021-10-15T09:42:48Z</time>
      </trkpt>
      <trkpt lat="43.291172" lon="-5.007426">
        <ele>856.122</ele>
        <time>2021-10-15T09:42:49Z</time>
      </trkpt>
      <trkpt lat="43.291216" lon="-5.007552">
        <ele>853.967</ele>
        <time>2021-10-15T09:42:50Z</time>
      </trkpt>
      <trkpt lat="43.291273" lon="-5.007777">
        <ele>853.148</ele>
        <time>2021-10-15T09:42:52Z</time>
      </trkpt>
      <trkpt lat="43.291245" lon="-5.008017">
        <ele>851.361</ele>
        <time>2021-10-15T09:42:54Z</time>
      </trkpt>
      <trkpt lat="43.291196" lon="-5.008127">
        <ele>850.417</ele>
        <time>2021-10-15T09:42:55Z</time>
      </trkpt>
      <trkpt lat="43.291137" lon="-5.008231">
        <ele>848.908</ele>
        <time>2021-10-15T09:42:56Z</time>
      </trkpt>
      <trkpt lat="43.291032" lon="-5.008437">
        <ele>847.282</ele>
        <time>2021-10-15T09:42:58Z</time>
      </trkpt>
      <trkpt lat="43.290970" lon="-5.008652">
        <ele>844.470</ele>
        <time>2021-10-15T09:43:00Z</time>
      </trkpt>
      <trkpt lat="43.290967" lon="-5.008761">
        <ele>844.288</ele>
        <time>2021-10-15T09:43:01Z</time>
      </trkpt>
      <trkpt lat="43.290981" lon="-5.008869">
        <ele>843.752</ele>
        <time>2021-10-15T09:43:02Z</time>
      </trkpt>
      <trkpt lat="43.291029" lon="-5.009041">
        <ele>842.947</ele>
        <time>2021-10-15T09:43:04Z</time>
      </trkpt>
      <trkpt lat="43.291082" lon="-5.009163">
        <ele>842.655</ele>
        <time>2021-10-15T09:43:06Z</time>
      </trkpt>
      <trkpt lat="43.291107" lon="-5.009235">
        <ele>842.698</ele>
        <time>2021-10-15T09:43:08Z</time>
      </trkpt>
      <trkpt lat="43.291111" lon="-5.009343">
        <ele>842.893</ele>
        <time>2021-10-15T09:43:10Z</time>
      </trkpt>
      <trkpt lat="43.291087" lon="-5.009441">
        <ele>843.287</ele>
        <time>2021-10-15T09:43:12Z</time>
      </trkpt>
      <trkpt lat="43.291057" lon="-5.009507">
        <ele>843.342</ele>
        <time>2021-10-15T09:43:13Z</time>
      </trkpt>
      <trkpt lat="43.291015" lon="-5.009581">
        <ele>843.526</ele>
        <time>2021-10-15T09:43:14Z</time>
      </trkpt>
      <trkpt lat="43.290889" lon="-5.009715">
        <ele>843.708</ele>
        <time>2021-10-15T09:43:16Z</time>
      </trkpt>
      <trkpt lat="43.290798" lon="-5.009748">
        <ele>844.676</ele>
        <time>2021-10-15T09:43:17Z</time>
      </trkpt>
      <trkpt lat="43.290700" lon="-5.009765">
        <ele>845.014</ele>
        <time>2021-10-15T09:43:18Z</time>
      </trkpt>
      <trkpt lat="43.290541" lon="-5.009836">
        <ele>845.212</ele>
        <time>2021-10-15T09:43:20Z</time>
      </trkpt>
      <trkpt lat="43.290478" lon="-5.010005">
        <ele>844.876</ele>
        <time>2021-10-15T09:43:22Z</time>
      </trkpt>
      <trkpt lat="43.290470" lon="-5.010119">
        <ele>844.641</ele>
        <time>2021-10-15T09:43:23Z</time>
      </trkpt>
      <trkpt lat="43.290463" lon="-5.010242">
        <ele>844.659</ele>
        <time>2021-10-15T09:43:24Z</time>
      </trkpt>
      <trkpt lat="43.290401" lon="-5.010497">
        <ele>845.282</ele>
        <time>2021-10-15T09:43:26Z</time>
      </trkpt>
      <trkpt lat="43.290261" lon="-5.010731">
        <ele>845.787</ele>
        <time>2021-10-15T09:43:28Z</time>
      </trkpt>
      <trkpt lat="43.290149" lon="-5.010964">
        <ele>845.382</ele>
        <time>2021-10-15T09:43:30Z</time>
      </trkpt>
      <trkpt lat="43.290133" lon="-5.011214">
        <ele>845.343</ele>
        <time>2021-10-15T09:43:32Z</time>
      </trkpt>
      <trkpt lat="43.290141" lon="-5.011481">
        <ele>845.117</ele>
        <time>2021-10-15T09:43:34Z</time>
      </trkpt>
      <trkpt lat="43.290171" lon="-5.011620">
        <ele>845.008</ele>
        <time>2021-10-15T09:43:35Z</time>
      </trkpt>
      <trkpt lat="43.290224" lon="-5.011752">
        <ele>844.676</ele>
        <time>2021-10-15T09:43:36Z</time>
      </trkpt>
      <trkpt lat="43.290330" lon="-5.011983">
        <ele>844.524</ele>
        <time>2021-10-15T09:43:38Z</time>
      </trkpt>
      <trkpt lat="43.290398" lon="-5.012193">
        <ele>844.432</ele>
        <time>2021-10-15T09:43:40Z</time>
      </trkpt>
      <trkpt lat="43.290413" lon="-5.012301">
        <ele>844.666</ele>
        <time>2021-10-15T09:43:41Z</time>
      </trkpt>
      <trkpt lat="43.290379" lon="-5.012535">
        <ele>845.491</ele>
        <time>2021-10-15T09:43:43Z</time>
      </trkpt>
      <trkpt lat="43.290341" lon="-5.012664">
        <ele>845.469</ele>
        <time>2021-10-15T09:43:44Z</time>
      </trkpt>
      <trkpt lat="43.290298" lon="-5.012916">
        <ele>844.572</ele>
        <time>2021-10-15T09:43:46Z</time>
      </trkpt>
      <trkpt lat="43.290307" lon="-5.013035">
        <ele>843.957</ele>
        <time>2021-10-15T09:43:47Z</time>
      </trkpt>
      <trkpt lat="43.290318" lon="-5.013137">
        <ele>843.999</ele>
        <time>2021-10-15T09:43:48Z</time>
      </trkpt>
      <trkpt lat="43.290304" lon="-5.013285">
        <ele>843.107</ele>
        <time>2021-10-15T09:43:50Z</time>
      </trkpt>
      <trkpt lat="43.290216" lon="-5.013351">
        <ele>842.727</ele>
        <time>2021-10-15T09:43:52Z</time>
      </trkpt>
      <trkpt lat="43.290153" lon="-5.013334">
        <ele>842.308</ele>
        <time>2021-10-15T09:43:53Z</time>
      </trkpt>
      <trkpt lat="43.290012" lon="-5.013213">
        <ele>841.437</ele>
        <time>2021-10-15T09:43:55Z</time>
      </trkpt>
      <trkpt lat="43.289938" lon="-5.013136">
        <ele>839.985</ele>
        <time>2021-10-15T09:43:56Z</time>
      </trkpt>
      <trkpt lat="43.289804" lon="-5.012993">
        <ele>837.183</ele>
        <time>2021-10-15T09:43:58Z</time>
      </trkpt>
      <trkpt lat="43.289734" lon="-5.012923">
        <ele>835.637</ele>
        <time>2021-10-15T09:43:59Z</time>
      </trkpt>
      <trkpt lat="43.289662" lon="-5.012859">
        <ele>834.742</ele>
        <time>2021-10-15T09:44:00Z</time>
      </trkpt>
      <trkpt lat="43.289495" lon="-5.012805">
        <ele>831.970</ele>
        <time>2021-10-15T09:44:02Z</time>
      </trkpt>
      <trkpt lat="43.289347" lon="-5.012915">
        <ele>828.893</ele>
        <time>2021-10-15T09:44:04Z</time>
      </trkpt>
      <trkpt lat="43.289299" lon="-5.013150">
        <ele>826.858</ele>
        <time>2021-10-15T09:44:06Z</time>
      </trkpt>
      <trkpt lat="43.289371" lon="-5.013389">
        <ele>822.526</ele>
        <time>2021-10-15T09:44:08Z</time>
      </trkpt>
      <trkpt lat="43.289404" lon="-5.013611">
        <ele>819.547</ele>
        <time>2021-10-15T09:44:10Z</time>
      </trkpt>
      <trkpt lat="43.289384" lon="-5.013723">
        <ele>819.111</ele>
        <time>2021-10-15T09:44:11Z</time>
      </trkpt>
      <trkpt lat="43.289350" lon="-5.013830">
        <ele>818.008</ele>
        <time>2021-10-15T09:44:12Z</time>
      </trkpt>
      <trkpt lat="43.289335" lon="-5.014051">
        <ele>814.530</ele>
        <time>2021-10-15T09:44:14Z</time>
      </trkpt>
      <trkpt lat="43.289430" lon="-5.014202">
        <ele>811.678</ele>
        <time>2021-10-15T09:44:16Z</time>
      </trkpt>
      <trkpt lat="43.289517" lon="-5.014234">
        <ele>810.426</ele>
        <time>2021-10-15T09:44:17Z</time>
      </trkpt>
      <trkpt lat="43.289616" lon="-5.014239">
        <ele>809.220</ele>
        <time>2021-10-15T09:44:18Z</time>
      </trkpt>
      <trkpt lat="43.289811" lon="-5.014216">
        <ele>806.075</ele>
        <time>2021-10-15T09:44:20Z</time>
      </trkpt>
      <trkpt lat="43.289992" lon="-5.014226">
        <ele>804.523</ele>
        <time>2021-10-15T09:44:22Z</time>
      </trkpt>
      <trkpt lat="43.290079" lon="-5.014272">
        <ele>803.176</ele>
        <time>2021-10-15T09:44:23Z</time>
      </trkpt>
      <trkpt lat="43.290224" lon="-5.014461">
        <ele>801.271</ele>
        <time>2021-10-15T09:44:25Z</time>
      </trkpt>
      <trkpt lat="43.290282" lon="-5.014593">
        <ele>800.778</ele>
        <time>2021-10-15T09:44:26Z</time>
      </trkpt>
      <trkpt lat="43.290353" lon="-5.014878">
        <ele>797.533</ele>
        <time>2021-10-15T09:44:28Z</time>
      </trkpt>
      <trkpt lat="43.290384" lon="-5.015024">
        <ele>796.526</ele>
        <time>2021-10-15T09:44:29Z</time>
      </trkpt>
      <trkpt lat="43.290418" lon="-5.015168">
        <ele>795.508</ele>
        <time>2021-10-15T09:44:30Z</time>
      </trkpt>
      <trkpt lat="43.290504" lon="-5.015447">
        <ele>792.995</ele>
        <time>2021-10-15T09:44:32Z</time>
      </trkpt>
      <trkpt lat="43.290618" lon="-5.015671">
        <ele>790.133</ele>
        <time>2021-10-15T09:44:34Z</time>
      </trkpt>
      <trkpt lat="43.290772" lon="-5.015773">
        <ele>787.881</ele>
        <time>2021-10-15T09:44:36Z</time>
      </trkpt>
      <trkpt lat="43.290867" lon="-5.015767">
        <ele>787.145</ele>
        <time>2021-10-15T09:44:37Z</time>
      </trkpt>
      <trkpt lat="43.290974" lon="-5.015747">
        <ele>786.220</ele>
        <time>2021-10-15T09:44:38Z</time>
      </trkpt>
      <trkpt lat="43.291199" lon="-5.015751">
        <ele>784.228</ele>
        <time>2021-10-15T09:44:40Z</time>
      </trkpt>
      <trkpt lat="43.291428" lon="-5.015852">
        <ele>782.291</ele>
        <time>2021-10-15T09:44:42Z</time>
      </trkpt>
      <trkpt lat="43.291630" lon="-5.016003">
        <ele>780.876</ele>
        <time>2021-10-15T09:44:44Z</time>
      </trkpt>
      <trkpt lat="43.291825" lon="-5.016118">
        <ele>778.877</ele>
        <time>2021-10-15T09:44:46Z</time>
      </trkpt>
      <trkpt lat="43.292037" lon="-5.016139">
        <ele>776.061</ele>
        <time>2021-10-15T09:44:48Z</time>
      </trkpt>
      <trkpt lat="43.292250" lon="-5.016155">
        <ele>773.527</ele>
        <time>2021-10-15T09:44:50Z</time>
      </trkpt>
      <trkpt lat="43.292402" lon="-5.016148">
        <ele>771.608</ele>
        <time>2021-10-15T09:44:52Z</time>
      </trkpt>
      <trkpt lat="43.292503" lon="-5.016019">
        <ele>769.415</ele>
        <time>2021-10-15T09:44:54Z</time>
      </trkpt>
      <trkpt lat="43.292608" lon="-5.015833">
        <ele>767.693</ele>
        <time>2021-10-15T09:44:56Z</time>
      </trkpt>
      <trkpt lat="43.292763" lon="-5.015645">
        <ele>764.361</ele>
        <time>2021-10-15T09:44:58Z</time>
      </trkpt>
      <trkpt lat="43.292843" lon="-5.015528">
        <ele>762.635</ele>
        <time>2021-10-15T09:44:59Z</time>
      </trkpt>
      <trkpt lat="43.293000" lon="-5.015256">
        <ele>759.190</ele>
        <time>2021-10-15T09:45:01Z</time>
      </trkpt>
      <trkpt lat="43.293077" lon="-5.015108">
        <ele>757.798</ele>
        <time>2021-10-15T09:45:02Z</time>
      </trkpt>
      <trkpt lat="43.293204" lon="-5.014810">
        <ele>754.511</ele>
        <time>2021-10-15T09:45:04Z</time>
      </trkpt>
      <trkpt lat="43.293266" lon="-5.014652">
        <ele>754.296</ele>
        <time>2021-10-15T09:45:05Z</time>
      </trkpt>
      <trkpt lat="43.293381" lon="-5.014336">
        <ele>751.067</ele>
        <time>2021-10-15T09:45:07Z</time>
      </trkpt>
      <trkpt lat="43.293427" lon="-5.014171">
        <ele>749.281</ele>
        <time>2021-10-15T09:45:08Z</time>
      </trkpt>
      <trkpt lat="43.293495" lon="-5.013845">
        <ele>746.219</ele>
        <time>2021-10-15T09:45:10Z</time>
      </trkpt>
      <trkpt lat="43.293521" lon="-5.013690">
        <ele>745.908</ele>
        <time>2021-10-15T09:45:11Z</time>
      </trkpt>
      <trkpt lat="43.293584" lon="-5.013414">
        <ele>743.964</ele>
        <time>2021-10-15T09:45:13Z</time>
      </trkpt>
      <trkpt lat="43.293633" lon="-5.013286">
        <ele>742.172</ele>
        <time>2021-10-15T09:45:14Z</time>
      </trkpt>
      <trkpt lat="43.293750" lon="-5.013062">
        <ele>739.290</ele>
        <time>2021-10-15T09:45:16Z</time>
      </trkpt>
      <trkpt lat="43.293876" lon="-5.012881">
        <ele>735.464</ele>
        <time>2021-10-15T09:45:18Z</time>
      </trkpt>
      <trkpt lat="43.294044" lon="-5.012802">
        <ele>734.789</ele>
        <time>2021-10-15T09:45:20Z</time>
      </trkpt>
      <trkpt lat="43.294224" lon="-5.012861">
        <ele>731.647</ele>
        <time>2021-10-15T09:45:22Z</time>
      </trkpt>
      <trkpt lat="43.294313" lon="-5.012924">
        <ele>730.720</ele>
        <time>2021-10-15T09:45:23Z</time>
      </trkpt>
      <trkpt lat="43.294477" lon="-5.013075">
        <ele>728.675</ele>
        <time>2021-10-15T09:45:25Z</time>
      </trkpt>
      <trkpt lat="43.294546" lon="-5.013180">
        <ele>727.186</ele>
        <time>2021-10-15T09:45:26Z</time>
      </trkpt>
      <trkpt lat="43.294665" lon="-5.013411">
        <ele>725.660</ele>
        <time>2021-10-15T09:45:28Z</time>
      </trkpt>
      <trkpt lat="43.294725" lon="-5.013535">
        <ele>723.526</ele>
        <time>2021-10-15T09:45:29Z</time>
      </trkpt>
      <trkpt lat="43.294845" lon="-5.013791">
        <ele>720.508</ele>
        <time>2021-10-15T09:45:31Z</time>
      </trkpt>
      <trkpt lat="43.294911" lon="-5.013923">
        <ele>718.686</ele>
        <time>2021-10-15T09:45:32Z</time>
      </trkpt>
      <trkpt lat="43.295043" lon="-5.014161">
        <ele>714.944</ele>
        <time>2021-10-15T09:45:34Z</time>
      </trkpt>
      <trkpt lat="43.295184" lon="-5.014365">
        <ele>712.172</ele>
        <time>2021-10-15T09:45:36Z</time>
      </trkpt>
      <trkpt lat="43.295289" lon="-5.014581">
        <ele>708.616</ele>
        <time>2021-10-15T09:45:38Z</time>
      </trkpt>
      <trkpt lat="43.295338" lon="-5.014808">
        <ele>707.661</ele>
        <time>2021-10-15T09:45:40Z</time>
      </trkpt>
      <trkpt lat="43.295346" lon="-5.014926">
        <ele>707.059</ele>
        <time>2021-10-15T09:45:41Z</time>
      </trkpt>
      <trkpt lat="43.295372" lon="-5.015149">
        <ele>704.652</ele>
        <time>2021-10-15T09:45:43Z</time>
      </trkpt>
      <trkpt lat="43.295396" lon="-5.015259">
        <ele>703.077</ele>
        <time>2021-10-15T09:45:44Z</time>
      </trkpt>
      <trkpt lat="43.295464" lon="-5.015469">
        <ele>699.124</ele>
        <time>2021-10-15T09:45:46Z</time>
      </trkpt>
      <trkpt lat="43.295516" lon="-5.015578">
        <ele>697.704</ele>
        <time>2021-10-15T09:45:47Z</time>
      </trkpt>
      <trkpt lat="43.295620" lon="-5.015807">
        <ele>693.614</ele>
        <time>2021-10-15T09:45:49Z</time>
      </trkpt>
      <trkpt lat="43.295667" lon="-5.015935">
        <ele>690.708</ele>
        <time>2021-10-15T09:45:50Z</time>
      </trkpt>
      <trkpt lat="43.295735" lon="-5.016202">
        <ele>688.480</ele>
        <time>2021-10-15T09:45:52Z</time>
      </trkpt>
      <trkpt lat="43.295762" lon="-5.016345">
        <ele>687.568</ele>
        <time>2021-10-15T09:45:53Z</time>
      </trkpt>
      <trkpt lat="43.295795" lon="-5.016643">
        <ele>685.356</ele>
        <time>2021-10-15T09:45:55Z</time>
      </trkpt>
      <trkpt lat="43.295811" lon="-5.016795">
        <ele>682.250</ele>
        <time>2021-10-15T09:45:56Z</time>
      </trkpt>
      <trkpt lat="43.295843" lon="-5.017076">
        <ele>679.755</ele>
        <time>2021-10-15T09:45:58Z</time>
      </trkpt>
      <trkpt lat="43.295877" lon="-5.017362">
        <ele>674.253</ele>
        <time>2021-10-15T09:46:00Z</time>
      </trkpt>
      <trkpt lat="43.295895" lon="-5.017501">
        <ele>673.196</ele>
        <time>2021-10-15T09:46:01Z</time>
      </trkpt>
      <trkpt lat="43.295918" lon="-5.017634">
        <ele>671.791</ele>
        <time>2021-10-15T09:46:02Z</time>
      </trkpt>
      <trkpt lat="43.295951" lon="-5.017768">
        <ele>670.735</ele>
        <time>2021-10-15T09:46:03Z</time>
      </trkpt>
      <trkpt lat="43.296041" lon="-5.018034">
        <ele>667.386</ele>
        <time>2021-10-15T09:46:05Z</time>
      </trkpt>
      <trkpt lat="43.296134" lon="-5.018305">
        <ele>662.714</ele>
        <time>2021-10-15T09:46:07Z</time>
      </trkpt>
      <trkpt lat="43.296178" lon="-5.018447">
        <ele>662.008</ele>
        <time>2021-10-15T09:46:08Z</time>
      </trkpt>
      <trkpt lat="43.296243" lon="-5.018731">
        <ele>658.131</ele>
        <time>2021-10-15T09:46:10Z</time>
      </trkpt>
      <trkpt lat="43.296295" lon="-5.019058">
        <ele>654.199</ele>
        <time>2021-10-15T09:46:12Z</time>
      </trkpt>
      <trkpt lat="43.296352" lon="-5.019409">
        <ele>650.077</ele>
        <time>2021-10-15T09:46:14Z</time>
      </trkpt>
      <trkpt lat="43.296378" lon="-5.019782">
        <ele>645.691</ele>
        <time>2021-10-15T09:46:16Z</time>
      </trkpt>
      <trkpt lat="43.296407" lon="-5.020190">
        <ele>640.326</ele>
        <time>2021-10-15T09:46:18Z</time>
      </trkpt>
      <trkpt lat="43.296433" lon="-5.020399">
        <ele>638.114</ele>
        <time>2021-10-15T09:46:19Z</time>
      </trkpt>
      <trkpt lat="43.296464" lon="-5.020612">
        <ele>636.917</ele>
        <time>2021-10-15T09:46:20Z</time>
      </trkpt>
      <trkpt lat="43.296543" lon="-5.021006">
        <ele>633.352</ele>
        <time>2021-10-15T09:46:22Z</time>
      </trkpt>
      <trkpt lat="43.296640" lon="-5.021376">
        <ele>630.179</ele>
        <time>2021-10-15T09:46:24Z</time>
      </trkpt>
      <trkpt lat="43.296679" lon="-5.021686">
        <ele>627.805</ele>
        <time>2021-10-15T09:46:26Z</time>
      </trkpt>
      <trkpt lat="43.296632" lon="-5.021941">
        <ele>626.525</ele>
        <time>2021-10-15T09:46:28Z</time>
      </trkpt>
      <trkpt lat="43.296580" lon="-5.022170">
        <ele>624.508</ele>
        <time>2021-10-15T09:46:30Z</time>
      </trkpt>
      <trkpt lat="43.296601" lon="-5.022284">
        <ele>622.915</ele>
        <time>2021-10-15T09:46:31Z</time>
      </trkpt>
      <trkpt lat="43.296654" lon="-5.022390">
        <ele>621.973</ele>
        <time>2021-10-15T09:46:32Z</time>
      </trkpt>
      <trkpt lat="43.296793" lon="-5.022601">
        <ele>620.161</ele>
        <time>2021-10-15T09:46:34Z</time>
      </trkpt>
      <trkpt lat="43.296896" lon="-5.022850">
        <ele>618.015</ele>
        <time>2021-10-15T09:46:36Z</time>
      </trkpt>
      <trkpt lat="43.296908" lon="-5.022992">
        <ele>617.940</ele>
        <time>2021-10-15T09:46:37Z</time>
      </trkpt>
      <trkpt lat="43.296887" lon="-5.023139">
        <ele>616.388</ele>
        <time>2021-10-15T09:46:38Z</time>
      </trkpt>
      <trkpt lat="43.296804" lon="-5.023412">
        <ele>614.911</ele>
        <time>2021-10-15T09:46:40Z</time>
      </trkpt>
      <trkpt lat="43.296808" lon="-5.023689">
        <ele>612.216</ele>
        <time>2021-10-15T09:46:42Z</time>
      </trkpt>
      <trkpt lat="43.296869" lon="-5.023827">
        <ele>610.819</ele>
        <time>2021-10-15T09:46:43Z</time>
      </trkpt>
      <trkpt lat="43.296949" lon="-5.023957">
        <ele>610.309</ele>
        <time>2021-10-15T09:46:44Z</time>
      </trkpt>
      <trkpt lat="43.297135" lon="-5.024157">
        <ele>607.419</ele>
        <time>2021-10-15T09:46:46Z</time>
      </trkpt>
      <trkpt lat="43.297234" lon="-5.024245">
        <ele>606.608</ele>
        <time>2021-10-15T09:46:47Z</time>
      </trkpt>
      <trkpt lat="43.297406" lon="-5.024430">
        <ele>603.089</ele>
        <time>2021-10-15T09:46:49Z</time>
      </trkpt>
      <trkpt lat="43.297475" lon="-5.024543">
        <ele>601.867</ele>
        <time>2021-10-15T09:46:50Z</time>
      </trkpt>
      <trkpt lat="43.297548" lon="-5.024799">
        <ele>598.715</ele>
        <time>2021-10-15T09:46:52Z</time>
      </trkpt>
      <trkpt lat="43.297525" lon="-5.025083">
        <ele>596.069</ele>
        <time>2021-10-15T09:46:54Z</time>
      </trkpt>
      <trkpt lat="43.297481" lon="-5.025227">
        <ele>594.914</ele>
        <time>2021-10-15T09:46:55Z</time>
      </trkpt>
      <trkpt lat="43.297433" lon="-5.025369">
        <ele>594.642</ele>
        <time>2021-10-15T09:46:56Z</time>
      </trkpt>
      <trkpt lat="43.297361" lon="-5.025660">
        <ele>592.285</ele>
        <time>2021-10-15T09:46:58Z</time>
      </trkpt>
      <trkpt lat="43.297328" lon="-5.025813">
        <ele>591.340</ele>
        <time>2021-10-15T09:46:59Z</time>
      </trkpt>
      <trkpt lat="43.297305" lon="-5.025971">
        <ele>590.169</ele>
        <time>2021-10-15T09:47:00Z</time>
      </trkpt>
      <trkpt lat="43.297320" lon="-5.026310">
        <ele>589.504</ele>
        <time>2021-10-15T09:47:02Z</time>
      </trkpt>
      <trkpt lat="43.297395" lon="-5.026649">
        <ele>587.124</ele>
        <time>2021-10-15T09:47:04Z</time>
      </trkpt>
      <trkpt lat="43.297410" lon="-5.026824">
        <ele>586.308</ele>
        <time>2021-10-15T09:47:05Z</time>
      </trkpt>
      <trkpt lat="43.297407" lon="-5.026999">
        <ele>584.574</ele>
        <time>2021-10-15T09:47:06Z</time>
      </trkpt>
      <trkpt lat="43.297407" lon="-5.027172">
        <ele>584.132</ele>
        <time>2021-10-15T09:47:07Z</time>
      </trkpt>
      <trkpt lat="43.297425" lon="-5.027337">
        <ele>581.660</ele>
        <time>2021-10-15T09:47:08Z</time>
      </trkpt>
      <trkpt lat="43.297508" lon="-5.027569">
        <ele>578.494</ele>
        <time>2021-10-15T09:47:10Z</time>
      </trkpt>
      <trkpt lat="43.297537" lon="-5.027657">
        <ele>577.589</ele>
        <time>2021-10-15T09:47:11Z</time>
      </trkpt>
      <trkpt lat="43.297523" lon="-5.027847">
        <ele>576.417</ele>
        <time>2021-10-15T09:47:13Z</time>
      </trkpt>
      <trkpt lat="43.297475" lon="-5.027963">
        <ele>574.960</ele>
        <time>2021-10-15T09:47:14Z</time>
      </trkpt>
      <trkpt lat="43.297306" lon="-5.028210">
        <ele>572.945</ele>
        <time>2021-10-15T09:47:16Z</time>
      </trkpt>
      <trkpt lat="43.297140" lon="-5.028461">
        <ele>570.787</ele>
        <time>2021-10-15T09:47:18Z</time>
      </trkpt>
      <trkpt lat="43.297022" lon="-5.028735">
        <ele>569.842</ele>
        <time>2021-10-15T09:47:20Z</time>
      </trkpt>
      <trkpt lat="43.296938" lon="-5.029026">
        <ele>568.726</ele>
        <time>2021-10-15T09:47:22Z</time>
      </trkpt>
      <trkpt lat="43.296908" lon="-5.029170">
        <ele>567.208</ele>
        <time>2021-10-15T09:47:23Z</time>
      </trkpt>
      <trkpt lat="43.296903" lon="-5.029416">
        <ele>565.046</ele>
        <time>2021-10-15T09:47:25Z</time>
      </trkpt>
      <trkpt lat="43.296940" lon="-5.029522">
        <ele>563.894</ele>
        <time>2021-10-15T09:47:26Z</time>
      </trkpt>
      <trkpt lat="43.297096" lon="-5.029633">
        <ele>562.352</ele>
        <time>2021-10-15T09:47:28Z</time>
      </trkpt>
      <trkpt lat="43.297328" lon="-5.029585">
        <ele>559.896</ele>
        <time>2021-10-15T09:47:30Z</time>
      </trkpt>
      <trkpt lat="43.297566" lon="-5.029475">
        <ele>556.841</ele>
        <time>2021-10-15T09:47:32Z</time>
      </trkpt>
      <trkpt lat="43.297795" lon="-5.029441">
        <ele>554.579</ele>
        <time>2021-10-15T09:47:34Z</time>
      </trkpt>
      <trkpt lat="43.297901" lon="-5.029464">
        <ele>553.212</ele>
        <time>2021-10-15T09:47:35Z</time>
      </trkpt>
      <trkpt lat="43.298086" lon="-5.029464">
        <ele>549.497</ele>
        <time>2021-10-15T09:47:37Z</time>
      </trkpt>
      <trkpt lat="43.298168" lon="-5.029419">
        <ele>548.413</ele>
        <time>2021-10-15T09:47:38Z</time>
      </trkpt>
      <trkpt lat="43.298253" lon="-5.029223">
        <ele>547.843</ele>
        <time>2021-10-15T09:47:40Z</time>
      </trkpt>
      <trkpt lat="43.298273" lon="-5.029088">
        <ele>547.507</ele>
        <time>2021-10-15T09:47:41Z</time>
      </trkpt>
      <trkpt lat="43.298357" lon="-5.028864">
        <ele>547.008</ele>
        <time>2021-10-15T09:47:43Z</time>
      </trkpt>
      <trkpt lat="43.298427" lon="-5.028792">
        <ele>546.989</ele>
        <time>2021-10-15T09:47:44Z</time>
      </trkpt>
      <trkpt lat="43.298579" lon="-5.028770">
        <ele>545.017</ele>
        <time>2021-10-15T09:47:46Z</time>
      </trkpt>
      <trkpt lat="43.298729" lon="-5.028913">
        <ele>543.335</ele>
        <time>2021-10-15T09:47:48Z</time>
      </trkpt>
      <trkpt lat="43.298891" lon="-5.029147">
        <ele>542.499</ele>
        <time>2021-10-15T09:47:50Z</time>
      </trkpt>
      <trkpt lat="43.299093" lon="-5.029412">
        <ele>539.234</ele>
        <time>2021-10-15T09:47:52Z</time>
      </trkpt>
      <trkpt lat="43.299303" lon="-5.029666">
        <ele>534.022</ele>
        <time>2021-10-15T09:47:54Z</time>
      </trkpt>
      <trkpt lat="43.299407" lon="-5.029786">
        <ele>532.765</ele>
        <time>2021-10-15T09:47:55Z</time>
      </trkpt>
      <trkpt lat="43.299514" lon="-5.029906">
        <ele>531.110</ele>
        <time>2021-10-15T09:47:56Z</time>
      </trkpt>
      <trkpt lat="43.299716" lon="-5.030122">
        <ele>529.124</ele>
        <time>2021-10-15T09:47:58Z</time>
      </trkpt>
      <trkpt lat="43.299820" lon="-5.030198">
        <ele>526.304</ele>
        <time>2021-10-15T09:47:59Z</time>
      </trkpt>
      <trkpt lat="43.300047" lon="-5.030256">
        <ele>523.014</ele>
        <time>2021-10-15T09:48:01Z</time>
      </trkpt>
      <trkpt lat="43.300161" lon="-5.030298">
        <ele>520.608</ele>
        <time>2021-10-15T09:48:02Z</time>
      </trkpt>
      <trkpt lat="43.300355" lon="-5.030453">
        <ele>519.040</ele>
        <time>2021-10-15T09:48:04Z</time>
      </trkpt>
      <trkpt lat="43.300446" lon="-5.030556">
        <ele>516.928</ele>
        <time>2021-10-15T09:48:05Z</time>
      </trkpt>
      <trkpt lat="43.300522" lon="-5.030679">
        <ele>516.136</ele>
        <time>2021-10-15T09:48:06Z</time>
      </trkpt>
      <trkpt lat="43.300629" lon="-5.030993">
        <ele>513.270</ele>
        <time>2021-10-15T09:48:08Z</time>
      </trkpt>
      <trkpt lat="43.300684" lon="-5.031343">
        <ele>510.325</ele>
        <time>2021-10-15T09:48:10Z</time>
      </trkpt>
      <trkpt lat="43.300684" lon="-5.031515">
        <ele>509.413</ele>
        <time>2021-10-15T09:48:11Z</time>
      </trkpt>
      <trkpt lat="43.300673" lon="-5.031674">
        <ele>508.836</ele>
        <time>2021-10-15T09:48:12Z</time>
      </trkpt>
      <trkpt lat="43.300701" lon="-5.031957">
        <ele>506.391</ele>
        <time>2021-10-15T09:48:14Z</time>
      </trkpt>
      <trkpt lat="43.300803" lon="-5.032197">
        <ele>503.842</ele>
        <time>2021-10-15T09:48:16Z</time>
      </trkpt>
      <trkpt lat="43.300860" lon="-5.032327">
        <ele>502.222</ele>
        <time>2021-10-15T09:48:17Z</time>
      </trkpt>
      <trkpt lat="43.300903" lon="-5.032470">
        <ele>502.214</ele>
        <time>2021-10-15T09:48:18Z</time>
      </trkpt>
      <trkpt lat="43.300939" lon="-5.032622">
        <ele>500.908</ele>
        <time>2021-10-15T09:48:19Z</time>
      </trkpt>
      <trkpt lat="43.300979" lon="-5.032783">
        <ele>499.012</ele>
        <time>2021-10-15T09:48:20Z</time>
      </trkpt>
      <trkpt lat="43.301091" lon="-5.033075">
        <ele>494.840</ele>
        <time>2021-10-15T09:48:22Z</time>
      </trkpt>
      <trkpt lat="43.301167" lon="-5.033212">
        <ele>493.288</ele>
        <time>2021-10-15T09:48:23Z</time>
      </trkpt>
      <trkpt lat="43.301254" lon="-5.033334">
        <ele>490.522</ele>
        <time>2021-10-15T09:48:24Z</time>
      </trkpt>
      <trkpt lat="43.301345" lon="-5.033451">
        <ele>490.137</ele>
        <time>2021-10-15T09:48:25Z</time>
      </trkpt>
      <trkpt lat="43.301440" lon="-5.033566">
        <ele>488.845</ele>
        <time>2021-10-15T09:48:26Z</time>
      </trkpt>
      <trkpt lat="43.301623" lon="-5.033773">
        <ele>484.478</ele>
        <time>2021-10-15T09:48:28Z</time>
      </trkpt>
      <trkpt lat="43.301711" lon="-5.033873">
        <ele>483.893</ele>
        <time>2021-10-15T09:48:29Z</time>
      </trkpt>
      <trkpt lat="43.301788" lon="-5.033962">
        <ele>481.438</ele>
        <time>2021-10-15T09:48:30Z</time>
      </trkpt>
      <trkpt lat="43.301893" lon="-5.034115">
        <ele>480.070</ele>
        <time>2021-10-15T09:48:32Z</time>
      </trkpt>
      <trkpt lat="43.301893" lon="-5.034241">
        <ele>479.817</ele>
        <time>2021-10-15T09:48:34Z</time>
      </trkpt>
      <trkpt lat="43.301806" lon="-5.034272">
        <ele>477.808</ele>
        <time>2021-10-15T09:48:36Z</time>
      </trkpt>
      <trkpt lat="43.301741" lon="-5.034246">
        <ele>477.161</ele>
        <time>2021-10-15T09:48:37Z</time>
      </trkpt>
      <trkpt lat="43.301659" lon="-5.034154">
        <ele>476.019</ele>
        <time>2021-10-15T09:48:38Z</time>
      </trkpt>
      <trkpt lat="43.301440" lon="-5.033899">
        <ele>473.557</ele>
        <time>2021-10-15T09:48:40Z</time>
      </trkpt>
      <trkpt lat="43.301305" lon="-5.033789">
        <ele>473.851</ele>
        <time>2021-10-15T09:48:41Z</time>
      </trkpt>
      <trkpt lat="43.301022" lon="-5.033591">
        <ele>473.036</ele>
        <time>2021-10-15T09:48:43Z</time>
      </trkpt>
      <trkpt lat="43.300893" lon="-5.033496">
        <ele>473.314</ele>
        <time>2021-10-15T09:48:44Z</time>
      </trkpt>
      <trkpt lat="43.300668" lon="-5.033333">
        <ele>473.067</ele>
        <time>2021-10-15T09:48:46Z</time>
      </trkpt>
      <trkpt lat="43.300450" lon="-5.033190">
        <ele>473.242</ele>
        <time>2021-10-15T09:48:48Z</time>
      </trkpt>
      <trkpt lat="43.300238" lon="-5.033069">
        <ele>473.426</ele>
        <time>2021-10-15T09:48:50Z</time>
      </trkpt>
      <trkpt lat="43.300042" lon="-5.032965">
        <ele>473.447</ele>
        <time>2021-10-15T09:48:52Z</time>
      </trkpt>
      <trkpt lat="43.299940" lon="-5.032924">
        <ele>473.111</ele>
        <time>2021-10-15T09:48:53Z</time>
      </trkpt>
      <trkpt lat="43.299727" lon="-5.032933">
        <ele>472.208</ele>
        <time>2021-10-15T09:48:55Z</time>
      </trkpt>
      <trkpt lat="43.299623" lon="-5.032996">
        <ele>472.050</ele>
        <time>2021-10-15T09:48:56Z</time>
      </trkpt>
      <trkpt lat="43.299491" lon="-5.033214">
        <ele>471.328</ele>
        <time>2021-10-15T09:48:58Z</time>
      </trkpt>
      <trkpt lat="43.299500" lon="-5.033497">
        <ele>469.736</ele>
        <time>2021-10-15T09:49:00Z</time>
      </trkpt>
      <trkpt lat="43.299545" lon="-5.033664">
        <ele>468.720</ele>
        <time>2021-10-15T09:49:01Z</time>
      </trkpt>
      <trkpt lat="43.299610" lon="-5.033859">
        <ele>468.425</ele>
        <time>2021-10-15T09:49:02Z</time>
      </trkpt>
      <trkpt lat="43.299737" lon="-5.034263">
        <ele>464.833</ele>
        <time>2021-10-15T09:49:04Z</time>
      </trkpt>
      <trkpt lat="43.299854" lon="-5.034637">
        <ele>461.096</ele>
        <time>2021-10-15T09:49:06Z</time>
      </trkpt>
      <trkpt lat="43.299908" lon="-5.034820">
        <ele>459.141</ele>
        <time>2021-10-15T09:49:07Z</time>
      </trkpt>
      <trkpt lat="43.299959" lon="-5.035001">
        <ele>457.956</ele>
        <time>2021-10-15T09:49:08Z</time>
      </trkpt>
      <trkpt lat="43.300036" lon="-5.035372">
        <ele>453.859</ele>
        <time>2021-10-15T09:49:10Z</time>
      </trkpt>
      <trkpt lat="43.300063" lon="-5.035583">
        <ele>452.714</ele>
        <time>2021-10-15T09:49:11Z</time>
      </trkpt>
      <trkpt lat="43.300115" lon="-5.036007">
        <ele>450.508</ele>
        <time>2021-10-15T09:49:13Z</time>
      </trkpt>
      <trkpt lat="43.300152" lon="-5.036208">
        <ele>449.353</ele>
        <time>2021-10-15T09:49:14Z</time>
      </trkpt>
      <trkpt lat="43.300252" lon="-5.036557">
        <ele>446.821</ele>
        <time>2021-10-15T09:49:16Z</time>
      </trkpt>
      <trkpt lat="43.300320" lon="-5.036726">
        <ele>446.539</ele>
        <time>2021-10-15T09:49:17Z</time>
      </trkpt>
      <trkpt lat="43.300419" lon="-5.037048">
        <ele>445.533</ele>
        <time>2021-10-15T09:49:19Z</time>
      </trkpt>
      <trkpt lat="43.300439" lon="-5.037186">
        <ele>445.438</ele>
        <time>2021-10-15T09:49:20Z</time>
      </trkpt>
      <trkpt lat="43.300420" lon="-5.037401">
        <ele>443.496</ele>
        <time>2021-10-15T09:49:22Z</time>
      </trkpt>
      <trkpt lat="43.300403" lon="-5.037490">
        <ele>443.479</ele>
        <time>2021-10-15T09:49:23Z</time>
      </trkpt>
      <trkpt lat="43.300400" lon="-5.037563">
        <ele>443.284</ele>
        <time>2021-10-15T09:49:24Z</time>
      </trkpt>
      <trkpt lat="43.300437" lon="-5.037624">
        <ele>442.388</ele>
        <time>2021-10-15T09:49:26Z</time>
      </trkpt>
      <trkpt lat="43.300494" lon="-5.037572">
        <ele>441.524</ele>
        <time>2021-10-15T09:49:28Z</time>
      </trkpt>
      <trkpt lat="43.300525" lon="-5.037347">
        <ele>440.526</ele>
        <time>2021-10-15T09:49:30Z</time>
      </trkpt>
      <trkpt lat="43.300562" lon="-5.037062">
        <ele>439.308</ele>
        <time>2021-10-15T09:49:32Z</time>
      </trkpt>
      <trkpt lat="43.300637" lon="-5.036812">
        <ele>438.856</ele>
        <time>2021-10-15T09:49:34Z</time>
      </trkpt>
      <trkpt lat="43.300698" lon="-5.036686">
        <ele>437.044</ele>
        <time>2021-10-15T09:49:35Z</time>
      </trkpt>
      <trkpt lat="43.300768" lon="-5.036569">
        <ele>437.082</ele>
        <time>2021-10-15T09:49:36Z</time>
      </trkpt>
      <trkpt lat="43.300836" lon="-5.036460">
        <ele>436.426</ele>
        <time>2021-10-15T09:49:37Z</time>
      </trkpt>
      <trkpt lat="43.300903" lon="-5.036364">
        <ele>436.481</ele>
        <time>2021-10-15T09:49:38Z</time>
      </trkpt>
      <trkpt lat="43.301044" lon="-5.036233">
        <ele>434.419</ele>
        <time>2021-10-15T09:49:40Z</time>
      </trkpt>
      <trkpt lat="43.301175" lon="-5.036213">
        <ele>434.322</ele>
        <time>2021-10-15T09:49:42Z</time>
      </trkpt>
      <trkpt lat="43.301223" lon="-5.036270">
        <ele>434.357</ele>
        <time>2021-10-15T09:49:43Z</time>
      </trkpt>
      <trkpt lat="43.301261" lon="-5.036377">
        <ele>433.842</ele>
        <time>2021-10-15T09:49:44Z</time>
      </trkpt>
      <trkpt lat="43.301317" lon="-5.036737">
        <ele>433.122</ele>
        <time>2021-10-15T09:49:46Z</time>
      </trkpt>
      <trkpt lat="43.301365" lon="-5.036949">
        <ele>431.514</ele>
        <time>2021-10-15T09:49:47Z</time>
      </trkpt>
      <trkpt lat="43.301489" lon="-5.037338">
        <ele>426.708</ele>
        <time>2021-10-15T09:49:49Z</time>
      </trkpt>
      <trkpt lat="43.301561" lon="-5.037509">
        <ele>424.982</ele>
        <time>2021-10-15T09:49:50Z</time>
      </trkpt>
      <trkpt lat="43.301702" lon="-5.037835">
        <ele>420.750</ele>
        <time>2021-10-15T09:49:52Z</time>
      </trkpt>
      <trkpt lat="43.301767" lon="-5.038008">
        <ele>418.268</ele>
        <time>2021-10-15T09:49:53Z</time>
      </trkpt>
      <trkpt lat="43.301853" lon="-5.038353">
        <ele>413.332</ele>
        <time>2021-10-15T09:49:55Z</time>
      </trkpt>
      <trkpt lat="43.301871" lon="-5.038535">
        <ele>412.727</ele>
        <time>2021-10-15T09:49:56Z</time>
      </trkpt>
      <trkpt lat="43.301862" lon="-5.038873">
        <ele>409.465</ele>
        <time>2021-10-15T09:49:58Z</time>
      </trkpt>
      <trkpt lat="43.301886" lon="-5.039175">
        <ele>407.618</ele>
        <time>2021-10-15T09:50:00Z</time>
      </trkpt>
      <trkpt lat="43.301931" lon="-5.039316">
        <ele>406.673</ele>
        <time>2021-10-15T09:50:01Z</time>
      </trkpt>
      <trkpt lat="43.301998" lon="-5.039452">
        <ele>404.566</ele>
        <time>2021-10-15T09:50:02Z</time>
      </trkpt>
      <trkpt lat="43.302188" lon="-5.039714">
        <ele>400.729</ele>
        <time>2021-10-15T09:50:04Z</time>
      </trkpt>
      <trkpt lat="43.302436" lon="-5.040056">
        <ele>397.421</ele>
        <time>2021-10-15T09:50:06Z</time>
      </trkpt>
      <trkpt lat="43.302566" lon="-5.040264">
        <ele>395.808</ele>
        <time>2021-10-15T09:50:07Z</time>
      </trkpt>
      <trkpt lat="43.302691" lon="-5.040485">
        <ele>393.854</ele>
        <time>2021-10-15T09:50:08Z</time>
      </trkpt>
      <trkpt lat="43.302918" lon="-5.040900">
        <ele>390.222</ele>
        <time>2021-10-15T09:50:10Z</time>
      </trkpt>
      <trkpt lat="43.303145" lon="-5.041290">
        <ele>384.910</ele>
        <time>2021-10-15T09:50:12Z</time>
      </trkpt>
      <trkpt lat="43.303392" lon="-5.041655">
        <ele>380.964</ele>
        <time>2021-10-15T09:50:14Z</time>
      </trkpt>
      <trkpt lat="43.303681" lon="-5.041955">
        <ele>377.029</ele>
        <time>2021-10-15T09:50:16Z</time>
      </trkpt>
      <trkpt lat="43.303978" lon="-5.042263">
        <ele>373.657</ele>
        <time>2021-10-15T09:50:18Z</time>
      </trkpt>
      <trkpt lat="43.304113" lon="-5.042434">
        <ele>371.480</ele>
        <time>2021-10-15T09:50:19Z</time>
      </trkpt>
      <trkpt lat="43.304241" lon="-5.042611">
        <ele>369.215</ele>
        <time>2021-10-15T09:50:20Z</time>
      </trkpt>
      <trkpt lat="43.304456" lon="-5.042940">
        <ele>366.441</ele>
        <time>2021-10-15T09:50:22Z</time>
      </trkpt>
      <trkpt lat="43.304551" lon="-5.043091">
        <ele>364.781</ele>
        <time>2021-10-15T09:50:23Z</time>
      </trkpt>
      <trkpt lat="43.304712" lon="-5.043345">
        <ele>361.909</ele>
        <time>2021-10-15T09:50:25Z</time>
      </trkpt>
      <trkpt lat="43.304791" lon="-5.043453">
        <ele>361.508</ele>
        <time>2021-10-15T09:50:26Z</time>
      </trkpt>
      <trkpt lat="43.304932" lon="-5.043602">
        <ele>358.492</ele>
        <time>2021-10-15T09:50:28Z</time>
      </trkpt>
      <trkpt lat="43.305094" lon="-5.043647">
        <ele>356.770</ele>
        <time>2021-10-15T09:50:30Z</time>
      </trkpt>
      <trkpt lat="43.305176" lon="-5.043608">
        <ele>355.678</ele>
        <time>2021-10-15T09:50:31Z</time>
      </trkpt>
      <trkpt lat="43.305246" lon="-5.043564">
        <ele>354.782</ele>
        <time>2021-10-15T09:50:32Z</time>
      </trkpt>
      <trkpt lat="43.305351" lon="-5.043553">
        <ele>353.337</ele>
        <time>2021-10-15T09:50:34Z</time>
      </trkpt>
      <trkpt lat="43.305360" lon="-5.043668">
        <ele>351.375</ele>
        <time>2021-10-15T09:50:36Z</time>
      </trkpt>
      <trkpt lat="43.305218" lon="-5.043830">
        <ele>350.688</ele>
        <time>2021-10-15T09:50:38Z</time>
      </trkpt>
      <trkpt lat="43.305024" lon="-5.043896">
        <ele>349.463</ele>
        <time>2021-10-15T09:50:40Z</time>
      </trkpt>
      <trkpt lat="43.304914" lon="-5.043870">
        <ele>349.134</ele>
        <time>2021-10-15T09:50:41Z</time>
      </trkpt>
      <trkpt lat="43.304792" lon="-5.043812">
        <ele>347.955</ele>
        <time>2021-10-15T09:50:42Z</time>
      </trkpt>
      <trkpt lat="43.304512" lon="-5.043592">
        <ele>345.610</ele>
        <time>2021-10-15T09:50:44Z</time>
      </trkpt>
      <trkpt lat="43.304267" lon="-5.043318">
        <ele>343.208</ele>
        <time>2021-10-15T09:50:46Z</time>
      </trkpt>
      <trkpt lat="43.304157" lon="-5.043191">
        <ele>341.361</ele>
        <time>2021-10-15T09:50:47Z</time>
      </trkpt>
      <trkpt lat="43.304043" lon="-5.043089">
        <ele>340.689</ele>
        <time>2021-10-15T09:50:48Z</time>
      </trkpt>
      <trkpt lat="43.303796" lon="-5.042965">
        <ele>338.417</ele>
        <time>2021-10-15T09:50:50Z</time>
      </trkpt>
      <trkpt lat="43.303535" lon="-5.042907">
        <ele>335.311</ele>
        <time>2021-10-15T09:50:52Z</time>
      </trkpt>
      <trkpt lat="43.303266" lon="-5.042835">
        <ele>333.236</ele>
        <time>2021-10-15T09:50:54Z</time>
      </trkpt>
      <trkpt lat="43.303134" lon="-5.042787">
        <ele>331.514</ele>
        <time>2021-10-15T09:50:55Z</time>
      </trkpt>
      <trkpt lat="43.303002" lon="-5.042721">
        <ele>329.877</ele>
        <time>2021-10-15T09:50:56Z</time>
      </trkpt>
      <trkpt lat="43.302758" lon="-5.042568">
        <ele>327.682</ele>
        <time>2021-10-15T09:50:58Z</time>
      </trkpt>
      <trkpt lat="43.302542" lon="-5.042420">
        <ele>324.993</ele>
        <time>2021-10-15T09:51:00Z</time>
      </trkpt>
      <trkpt lat="43.302349" lon="-5.042402">
        <ele>321.465</ele>
        <time>2021-10-15T09:51:02Z</time>
      </trkpt>
      <trkpt lat="43.302189" lon="-5.042485">
        <ele>320.021</ele>
        <time>2021-10-15T09:51:04Z</time>
      </trkpt>
      <trkpt lat="43.302109" lon="-5.042671">
        <ele>319.008</ele>
        <time>2021-10-15T09:51:06Z</time>
      </trkpt>
      <trkpt lat="43.302096" lon="-5.042802">
        <ele>317.677</ele>
        <time>2021-10-15T09:51:07Z</time>
      </trkpt>
      <trkpt lat="43.302104" lon="-5.042958">
        <ele>316.315</ele>
        <time>2021-10-15T09:51:08Z</time>
      </trkpt>
      <trkpt lat="43.302135" lon="-5.043314">
        <ele>314.393</ele>
        <time>2021-10-15T09:51:10Z</time>
      </trkpt>
      <trkpt lat="43.302158" lon="-5.043534">
        <ele>311.787</ele>
        <time>2021-10-15T09:51:11Z</time>
      </trkpt>
      <trkpt lat="43.302200" lon="-5.043977">
        <ele>307.382</ele>
        <time>2021-10-15T09:51:13Z</time>
      </trkpt>
      <trkpt lat="43.302223" lon="-5.044191">
        <ele>305.250</ele>
        <time>2021-10-15T09:51:14Z</time>
      </trkpt>
      <trkpt lat="43.302270" lon="-5.044589">
        <ele>301.283</ele>
        <time>2021-10-15T09:51:16Z</time>
      </trkpt>
      <trkpt lat="43.302302" lon="-5.044780">
        <ele>299.088</ele>
        <time>2021-10-15T09:51:17Z</time>
      </trkpt>
      <trkpt lat="43.302333" lon="-5.044967">
        <ele>297.135</ele>
        <time>2021-10-15T09:51:18Z</time>
      </trkpt>
      <trkpt lat="43.302404" lon="-5.045338">
        <ele>296.186</ele>
        <time>2021-10-15T09:51:20Z</time>
      </trkpt>
      <trkpt lat="43.302501" lon="-5.045669">
        <ele>293.014</ele>
        <time>2021-10-15T09:51:22Z</time>
      </trkpt>
      <trkpt lat="43.302547" lon="-5.045836">
        <ele>291.508</ele>
        <time>2021-10-15T09:51:23Z</time>
      </trkpt>
      <trkpt lat="43.302594" lon="-5.046001">
        <ele>291.451</ele>
        <time>2021-10-15T09:51:24Z</time>
      </trkpt>
      <trkpt lat="43.302688" lon="-5.046331">
        <ele>289.979</ele>
        <time>2021-10-15T09:51:26Z</time>
      </trkpt>
      <trkpt lat="43.302789" lon="-5.046649">
        <ele>288.237</ele>
        <time>2021-10-15T09:51:28Z</time>
      </trkpt>
      <trkpt lat="43.302917" lon="-5.046947">
        <ele>284.731</ele>
        <time>2021-10-15T09:51:30Z</time>
      </trkpt>
      <trkpt lat="43.303003" lon="-5.047256">
        <ele>282.056</ele>
        <time>2021-10-15T09:51:32Z</time>
      </trkpt>
      <trkpt lat="43.303036" lon="-5.047594">
        <ele>279.994</ele>
        <time>2021-10-15T09:51:34Z</time>
      </trkpt>
      <trkpt lat="43.303070" lon="-5.047760">
        <ele>278.157</ele>
        <time>2021-10-15T09:51:35Z</time>
      </trkpt>
      <trkpt lat="43.303187" lon="-5.048052">
        <ele>274.542</ele>
        <time>2021-10-15T09:51:37Z</time>
      </trkpt>
      <trkpt lat="43.303267" lon="-5.048187">
        <ele>273.969</ele>
        <time>2021-10-15T09:51:38Z</time>
      </trkpt>
      <trkpt lat="43.303424" lon="-5.048444">
        <ele>269.104</ele>
        <time>2021-10-15T09:51:40Z</time>
      </trkpt>
      <trkpt lat="43.303494" lon="-5.048584">
        <ele>268.224</ele>
        <time>2021-10-15T09:51:41Z</time>
      </trkpt>
      <trkpt lat="43.303554" lon="-5.048730">
        <ele>264.708</ele>
        <time>2021-10-15T09:51:42Z</time>
      </trkpt>
      <trkpt lat="43.303639" lon="-5.049063">
        <ele>261.284</ele>
        <time>2021-10-15T09:51:44Z</time>
      </trkpt>
      <trkpt lat="43.303701" lon="-5.049405">
        <ele>256.562</ele>
        <time>2021-10-15T09:51:46Z</time>
      </trkpt>
      <trkpt lat="43.303739" lon="-5.049578">
        <ele>254.140</ele>
        <time>2021-10-15T09:51:47Z</time>
      </trkpt>
      <trkpt lat="43.303787" lon="-5.049745">
        <ele>250.964</ele>
        <time>2021-10-15T09:51:48Z</time>
      </trkpt>
      <trkpt lat="43.303908" lon="-5.050062">
        <ele>246.459</ele>
        <time>2021-10-15T09:51:50Z</time>
      </trkpt>
      <trkpt lat="43.304064" lon="-5.050307">
        <ele>243.627</ele>
        <time>2021-10-15T09:51:52Z</time>
      </trkpt>
      <trkpt lat="43.304163" lon="-5.050401">
        <ele>242.430</ele>
        <time>2021-10-15T09:51:53Z</time>
      </trkpt>
      <trkpt lat="43.304274" lon="-5.050479">
        <ele>240.855</ele>
        <time>2021-10-15T09:51:54Z</time>
      </trkpt>
      <trkpt lat="43.304390" lon="-5.050549">
        <ele>239.735</ele>
        <time>2021-10-15T09:51:55Z</time>
      </trkpt>
      <trkpt lat="43.304504" lon="-5.050610">
        <ele>238.386</ele>
        <time>2021-10-15T09:51:56Z</time>
      </trkpt>
      <trkpt lat="43.304698" lon="-5.050692">
        <ele>236.214</ele>
        <time>2021-10-15T09:51:58Z</time>
      </trkpt>
      <trkpt lat="43.304857" lon="-5.050734">
        <ele>234.308</ele>
        <time>2021-10-15T09:52:00Z</time>
      </trkpt>
      <trkpt lat="43.304998" lon="-5.050686">
        <ele>233.691</ele>
        <time>2021-10-15T09:52:02Z</time>
      </trkpt>
      <trkpt lat="43.305102" lon="-5.050509">
        <ele>231.729</ele>
        <time>2021-10-15T09:52:04Z</time>
      </trkpt>
      <trkpt lat="43.305133" lon="-5.050286">
        <ele>231.297</ele>
        <time>2021-10-15T09:52:06Z</time>
      </trkpt>
      <trkpt lat="43.305051" lon="-5.050087">
        <ele>229.241</ele>
        <time>2021-10-15T09:52:08Z</time>
      </trkpt>
      <trkpt lat="43.304830" lon="-5.049992">
        <ele>226.846</ele>
        <time>2021-10-15T09:52:10Z</time>
      </trkpt>
      <trkpt lat="43.304687" lon="-5.049954">
        <ele>225.944</ele>
        <time>2021-10-15T09:52:11Z</time>
      </trkpt>
      <trkpt lat="43.304461" lon="-5.049829">
        <ele>223.537</ele>
        <time>2021-10-15T09:52:13Z</time>
      </trkpt>
      <trkpt lat="43.304379" lon="-5.049728">
        <ele>223.082</ele>
        <time>2021-10-15T09:52:14Z</time>
      </trkpt>
      <trkpt lat="43.304266" lon="-5.049483">
        <ele>221.949</ele>
        <time>2021-10-15T09:52:16Z</time>
      </trkpt>
      <trkpt lat="43.304230" lon="-5.049181">
        <ele>219.902</ele>
        <time>2021-10-15T09:52:18Z</time>
      </trkpt>
      <trkpt lat="43.304283" lon="-5.048875">
        <ele>218.222</ele>
        <time>2021-10-15T09:52:20Z</time>
      </trkpt>
      <trkpt lat="43.304431" lon="-5.048636">
        <ele>216.908</ele>
        <time>2021-10-15T09:52:22Z</time>
      </trkpt>
      <trkpt lat="43.304533" lon="-5.048548">
        <ele>215.632</ele>
        <time>2021-10-15T09:52:23Z</time>
      </trkpt>
      <trkpt lat="43.304746" lon="-5.048408">
        <ele>214.550</ele>
        <time>2021-10-15T09:52:25Z</time>
      </trkpt>
      <trkpt lat="43.304859" lon="-5.048377">
        <ele>213.278</ele>
        <time>2021-10-15T09:52:26Z</time>
      </trkpt>
      <trkpt lat="43.305086" lon="-5.048452">
        <ele>213.212</ele>
        <time>2021-10-15T09:52:28Z</time>
      </trkpt>
      <trkpt lat="43.305197" lon="-5.048559">
        <ele>211.357</ele>
        <time>2021-10-15T09:52:29Z</time>
      </trkpt>
      <trkpt lat="43.305298" lon="-5.048695">
        <ele>211.175</ele>
        <time>2021-10-15T09:52:30Z</time>
      </trkpt>
      <trkpt lat="43.305391" lon="-5.048835">
        <ele>209.918</ele>
        <time>2021-10-15T09:52:31Z</time>
      </trkpt>
      <trkpt lat="43.305484" lon="-5.048976">
        <ele>208.733</ele>
        <time>2021-10-15T09:52:32Z</time>
      </trkpt>
      <trkpt lat="43.305664" lon="-5.049240">
        <ele>206.836</ele>
        <time>2021-10-15T09:52:34Z</time>
      </trkpt>
      <trkpt lat="43.305749" lon="-5.049360">
        <ele>205.017</ele>
        <time>2021-10-15T09:52:35Z</time>
      </trkpt>
      <trkpt lat="43.305833" lon="-5.049471">
        <ele>203.718</ele>
        <time>2021-10-15T09:52:36Z</time>
      </trkpt>
      <trkpt lat="43.306008" lon="-5.049647">
        <ele>202.008</ele>
        <time>2021-10-15T09:52:38Z</time>
      </trkpt>
      <trkpt lat="43.306209" lon="-5.049706">
        <ele>198.421</ele>
        <time>2021-10-15T09:52:40Z</time>
      </trkpt>
      <trkpt lat="43.306435" lon="-5.049787">
        <ele>196.669</ele>
        <time>2021-10-15T09:52:42Z</time>
      </trkpt>
      <trkpt lat="43.306652" lon="-5.049976">
        <ele>193.667</ele>
        <time>2021-10-15T09:52:44Z</time>
      </trkpt>
      <trkpt lat="43.306845" lon="-5.050191">
        <ele>192.271</ele>
        <time>2021-10-15T09:52:46Z</time>
      </trkpt>
      <trkpt lat="43.307052" lon="-5.050361">
        <ele>189.836</ele>
        <time>2021-10-15T09:52:48Z</time>
      </trkpt>
      <trkpt lat="43.307279" lon="-5.050449">
        <ele>187.244</ele>
        <time>2021-10-15T09:52:50Z</time>
      </trkpt>
      <trkpt lat="43.307501" lon="-5.050465">
        <ele>184.517</ele>
        <time>2021-10-15T09:52:52Z</time>
      </trkpt>
      <trkpt lat="43.307607" lon="-5.050450">
        <ele>184.032</ele>
        <time>2021-10-15T09:52:53Z</time>
      </trkpt>
      <trkpt lat="43.307789" lon="-5.050411">
        <ele>180.891</ele>
        <time>2021-10-15T09:52:55Z</time>
      </trkpt>
      <trkpt lat="43.307872" lon="-5.050416">
        <ele>180.381</ele>
        <time>2021-10-15T09:52:56Z</time>
      </trkpt>
      <trkpt lat="43.307999" lon="-5.050518">
        <ele>180.019</ele>
        <time>2021-10-15T09:52:58Z</time>
      </trkpt>
      <trkpt lat="43.308055" lon="-5.050724">
        <ele>179.208</ele>
        <time>2021-10-15T09:53:00Z</time>
      </trkpt>
      <trkpt lat="43.308004" lon="-5.050913">
        <ele>177.427</ele>
        <time>2021-10-15T09:53:02Z</time>
      </trkpt>
      <trkpt lat="43.307890" lon="-5.050987">
        <ele>174.955</ele>
        <time>2021-10-15T09:53:04Z</time>
      </trkpt>
      <trkpt lat="43.307793" lon="-5.051037">
        <ele>172.813</ele>
        <time>2021-10-15T09:53:06Z</time>
      </trkpt>
      <trkpt lat="43.307725" lon="-5.051108">
        <ele>170.737</ele>
        <time>2021-10-15T09:53:08Z</time>
      </trkpt>
      <trkpt lat="43.307706" lon="-5.051186">
        <ele>170.412</ele>
        <time>2021-10-15T09:53:10Z</time>
      </trkpt>
      <trkpt lat="43.307719" lon="-5.051284">
        <ele>194.630</ele>
        <time>2021-10-15T09:53:21Z</time>
      </trkpt>
      <trkpt lat="43.307693" lon="-5.051398">
        <ele>223.593</ele>
        <time>2021-10-15T09:53:23Z</time>
      </trkpt>
      <trkpt lat="43.307659" lon="-5.051457">
        <ele>237.898</ele>
        <time>2021-10-15T09:53:24Z</time>
      </trkpt>
      <trkpt lat="43.307557" lon="-5.051551">
        <ele>237.839</ele>
        <time>2021-10-15T09:53:26Z</time>
      </trkpt>
      <trkpt lat="43.307466" lon="-5.051694">
        <ele>237.901</ele>
        <time>2021-10-15T09:53:28Z</time>
      </trkpt>
      <trkpt lat="43.307437" lon="-5.051894">
        <ele>237.921</ele>
        <time>2021-10-15T09:53:30Z</time>
      </trkpt>
      <trkpt lat="43.307446" lon="-5.052010">
        <ele>237.908</ele>
        <time>2021-10-15T09:53:31Z</time>
      </trkpt>
      <trkpt lat="43.307458" lon="-5.052133">
        <ele>237.971</ele>
        <time>2021-10-15T09:53:32Z</time>
      </trkpt>
      <trkpt lat="43.307475" lon="-5.052337">
        <ele>237.839</ele>
        <time>2021-10-15T09:53:34Z</time>
      </trkpt>
      <trkpt lat="43.307473" lon="-5.052542">
        <ele>237.847</ele>
        <time>2021-10-15T09:53:36Z</time>
      </trkpt>
      <trkpt lat="43.307470" lon="-5.052636">
        <ele>237.891</ele>
        <time>2021-10-15T09:53:37Z</time>
      </trkpt>
      <trkpt lat="43.307461" lon="-5.052720">
        <ele>237.876</ele>
        <time>2021-10-15T09:53:38Z</time>
      </trkpt>
      <trkpt lat="43.307444" lon="-5.052807">
        <ele>237.854</ele>
        <time>2021-10-15T09:53:40Z</time>
      </trkpt>
      <trkpt lat="43.307424" lon="-5.052892">
        <ele>237.897</ele>
        <time>2021-10-15T09:53:42Z</time>
      </trkpt>
      <trkpt lat="43.307398" lon="-5.052975">
        <ele>237.862</ele>
        <time>2021-10-15T09:53:44Z</time>
      </trkpt>
      <trkpt lat="43.307370" lon="-5.053084">
        <ele>237.888</ele>
        <time>2021-10-15T09:53:46Z</time>
      </trkpt>
      <trkpt lat="43.307352" lon="-5.053170">
        <ele>237.824</ele>
        <time>2021-10-15T09:53:48Z</time>
      </trkpt>
      <trkpt lat="43.307351" lon="-5.053262">
        <ele>237.826</ele>
        <time>2021-10-15T09:53:49Z</time>
      </trkpt>
      <trkpt lat="43.307363" lon="-5.053333">
        <ele>237.808</ele>
        <time>2021-10-15T09:53:50Z</time>
      </trkpt>
      <trkpt lat="43.307420" lon="-5.053462">
        <ele>237.836</ele>
        <time>2021-10-15T09:53:52Z</time>
      </trkpt>
      <trkpt lat="43.307501" lon="-5.053583">
        <ele>237.734</ele>
        <time>2021-10-15T09:53:54Z</time>
      </trkpt>
      <trkpt lat="43.307601" lon="-5.053705">
        <ele>237.792</ele>
        <time>2021-10-15T09:53:56Z</time>
      </trkpt>
      <trkpt lat="43.307698" lon="-5.053817">
        <ele>237.756</ele>
        <time>2021-10-15T09:53:58Z</time>
      </trkpt>
      <trkpt lat="43.307796" lon="-5.053932">
        <ele>237.771</ele>
        <time>2021-10-15T09:54:00Z</time>
      </trkpt>
      <trkpt lat="43.307829" lon="-5.053988">
        <ele>237.759</ele>
        <time>2021-10-15T09:54:01Z</time>
      </trkpt>
      <trkpt lat="43.307856" lon="-5.054051">
        <ele>237.752</ele>
        <time>2021-10-15T09:54:02Z</time>
      </trkpt>
      <trkpt lat="43.307895" lon="-5.054187">
        <ele>237.727</ele>
        <time>2021-10-15T09:54:04Z</time>
      </trkpt>
      <trkpt lat="43.307913" lon="-5.054256">
        <ele>237.718</ele>
        <time>2021-10-15T09:54:05Z</time>
      </trkpt>
      <trkpt lat="43.307963" lon="-5.054358">
        <ele>237.798</ele>
        <time>2021-10-15T09:54:07Z</time>
      </trkpt>
      <trkpt lat="43.308022" lon="-5.054392">
        <ele>237.717</ele>
        <time>2021-10-15T09:54:09Z</time>
      </trkpt>
      <trkpt lat="43.308147" lon="-5.054357">
        <ele>237.708</ele>
        <time>2021-10-15T09:54:11Z</time>
      </trkpt>
      <trkpt lat="43.308227" lon="-5.054305">
        <ele>237.759</ele>
        <time>2021-10-15T09:54:12Z</time>
      </trkpt>
      <trkpt lat="43.308298" lon="-5.054241">
        <ele>237.757</ele>
        <time>2021-10-15T09:54:13Z</time>
      </trkpt>
      <trkpt lat="43.308357" lon="-5.054164">
        <ele>237.745</ele>
        <time>2021-10-15T09:54:14Z</time>
      </trkpt>
      <trkpt lat="43.308429" lon="-5.053993">
        <ele>237.799</ele>
        <time>2021-10-15T09:54:16Z</time>
      </trkpt>
      <trkpt lat="43.308452" lon="-5.053901">
        <ele>237.764</ele>
        <time>2021-10-15T09:54:17Z</time>
      </trkpt>
      <trkpt lat="43.308472" lon="-5.053808">
        <ele>237.732</ele>
        <time>2021-10-15T09:54:18Z</time>
      </trkpt>
      <trkpt lat="43.308524" lon="-5.053646">
        <ele>221.525</ele>
        <time>2021-10-15T09:54:20Z</time>
      </trkpt>
      <trkpt lat="43.308603" lon="-5.053600">
        <ele>204.380</ele>
        <time>2021-10-15T09:54:22Z</time>
      </trkpt>
      <trkpt lat="43.308659" lon="-5.053671">
        <ele>204.726</ele>
        <time>2021-10-15T09:54:24Z</time>
      </trkpt>
      <trkpt lat="43.308663" lon="-5.053753">
        <ele>204.747</ele>
        <time>2021-10-15T09:54:25Z</time>
      </trkpt>
      <trkpt lat="43.308640" lon="-5.053860">
        <ele>205.211</ele>
        <time>2021-10-15T09:54:26Z</time>
      </trkpt>
      <trkpt lat="43.308559" lon="-5.054064">
        <ele>206.008</ele>
        <time>2021-10-15T09:54:28Z</time>
      </trkpt>
      <trkpt lat="43.308477" lon="-5.054266">
        <ele>207.350</ele>
        <time>2021-10-15T09:54:30Z</time>
      </trkpt>
      <trkpt lat="43.308400" lon="-5.054462">
        <ele>208.658</ele>
        <time>2021-10-15T09:54:32Z</time>
      </trkpt>
      <trkpt lat="43.308324" lon="-5.054645">
        <ele>208.736</ele>
        <time>2021-10-15T09:54:34Z</time>
      </trkpt>
      <trkpt lat="43.308228" lon="-5.054791">
        <ele>208.360</ele>
        <time>2021-10-15T09:54:36Z</time>
      </trkpt>
      <trkpt lat="43.308124" lon="-5.054891">
        <ele>208.095</ele>
        <time>2021-10-15T09:54:38Z</time>
      </trkpt>
      <trkpt lat="43.308074" lon="-5.054969">
        <ele>208.013</ele>
        <time>2021-10-15T09:54:40Z</time>
      </trkpt>
      <trkpt lat="43.308089" lon="-5.055041">
        <ele>207.436</ele>
        <time>2021-10-15T09:54:43Z</time>
      </trkpt>
      <trkpt lat="43.308139" lon="-5.055031">
        <ele>207.681</ele>
        <time>2021-10-15T09:54:46Z</time>
      </trkpt>
      <trkpt lat="43.308119" lon="-5.055094">
        <ele>207.738</ele>
        <time>2021-10-15T09:56:19Z</time>
      </trkpt>
      <trkpt lat="43.308115" lon="-5.055168">
        <ele>207.770</ele>
        <time>2021-10-15T09:56:21Z</time>
      </trkpt>
      <trkpt lat="43.308086" lon="-5.055226">
        <ele>207.717</ele>
        <time>2021-10-15T09:56:24Z</time>
      </trkpt>
      <trkpt lat="43.308116" lon="-5.055128">
        <ele>207.508</ele>
        <time>2021-10-15T09:59:35Z</time>
      </trkpt>
      <trkpt lat="43.308149" lon="-5.055049">
        <ele>229.731</ele>
        <time>2021-10-15T10:15:36Z</time>
      </trkpt>
      <trkpt lat="43.308096" lon="-5.055090">
        <ele>238.249</ele>
        <time>2021-10-15T10:16:02Z</time>
      </trkpt>
      <trkpt lat="43.308096" lon="-5.055250">
        <ele>238.277</ele>
        <time>2021-10-15T10:16:04Z</time>
      </trkpt>
      <trkpt lat="43.308131" lon="-5.055307">
        <ele>238.281</ele>
        <time>2021-10-15T10:16:05Z</time>
      </trkpt>
      <trkpt lat="43.308176" lon="-5.055357">
        <ele>238.376</ele>
        <time>2021-10-15T10:16:06Z</time>
      </trkpt>
      <trkpt lat="43.308272" lon="-5.055412">
        <ele>255.684</ele>
        <time>2021-10-15T10:16:08Z</time>
      </trkpt>
      <trkpt lat="43.308337" lon="-5.055394">
        <ele>255.677</ele>
        <time>2021-10-15T10:16:10Z</time>
      </trkpt>
      <trkpt lat="43.308378" lon="-5.055366">
        <ele>255.692</ele>
        <time>2021-10-15T10:16:21Z</time>
      </trkpt>
      <trkpt lat="43.308417" lon="-5.055312">
        <ele>255.637</ele>
        <time>2021-10-15T10:16:24Z</time>
      </trkpt>
      <trkpt lat="43.308421" lon="-5.055234">
        <ele>255.649</ele>
        <time>2021-10-15T10:16:29Z</time>
      </trkpt>
      <trkpt lat="43.308471" lon="-5.055298">
        <ele>256.313</ele>
        <time>2021-10-15T10:16:52Z</time>
      </trkpt>
      <trkpt lat="43.308489" lon="-5.055355">
        <ele>256.308</ele>
        <time>2021-10-15T10:16:55Z</time>
      </trkpt>
      <trkpt lat="43.308491" lon="-5.055460">
        <ele>256.471</ele>
        <time>2021-10-15T10:20:51Z</time>
      </trkpt>
      <trkpt lat="43.308461" lon="-5.055542">
        <ele>256.419</ele>
        <time>2021-10-15T10:20:53Z</time>
      </trkpt>
      <trkpt lat="43.308407" lon="-5.055597">
        <ele>256.487</ele>
        <time>2021-10-15T10:20:55Z</time>
      </trkpt>
      <trkpt lat="43.308342" lon="-5.055588">
        <ele>256.471</ele>
        <time>2021-10-15T10:20:57Z</time>
      </trkpt>
      <trkpt lat="43.308252" lon="-5.055528">
        <ele>256.466</ele>
        <time>2021-10-15T10:20:59Z</time>
      </trkpt>
      <trkpt lat="43.308197" lon="-5.055479">
        <ele>256.414</ele>
        <time>2021-10-15T10:21:00Z</time>
      </trkpt>
      <trkpt lat="43.308147" lon="-5.055425">
        <ele>256.417</ele>
        <time>2021-10-15T10:21:01Z</time>
      </trkpt>
      <trkpt lat="43.308103" lon="-5.055377">
        <ele>256.492</ele>
        <time>2021-10-15T10:21:02Z</time>
      </trkpt>
      <trkpt lat="43.308052" lon="-5.055296">
        <ele>256.494</ele>
        <time>2021-10-15T10:21:04Z</time>
      </trkpt>
      <trkpt lat="43.308026" lon="-5.055168">
        <ele>256.457</ele>
        <time>2021-10-15T10:21:06Z</time>
      </trkpt>
      <trkpt lat="43.308049" lon="-5.055026">
        <ele>256.422</ele>
        <time>2021-10-15T10:21:08Z</time>
      </trkpt>
      <trkpt lat="43.308121" lon="-5.054921">
        <ele>256.408</ele>
        <time>2021-10-15T10:21:10Z</time>
      </trkpt>
      <trkpt lat="43.308163" lon="-5.054888">
        <ele>256.417</ele>
        <time>2021-10-15T10:21:11Z</time>
      </trkpt>
      <trkpt lat="43.308233" lon="-5.054832">
        <ele>256.495</ele>
        <time>2021-10-15T10:21:13Z</time>
      </trkpt>
      <trkpt lat="43.308275" lon="-5.054793">
        <ele>256.483</ele>
        <time>2021-10-15T10:21:14Z</time>
      </trkpt>
      <trkpt lat="43.308364" lon="-5.054706">
        <ele>256.487</ele>
        <time>2021-10-15T10:21:16Z</time>
      </trkpt>
      <trkpt lat="43.308400" lon="-5.054654">
        <ele>256.442</ele>
        <time>2021-10-15T10:21:17Z</time>
      </trkpt>
      <trkpt lat="43.308425" lon="-5.054571">
        <ele>256.330</ele>
        <time>2021-10-15T10:21:19Z</time>
      </trkpt>
      <trkpt lat="43.308461" lon="-5.054473">
        <ele>256.353</ele>
        <time>2021-10-15T10:21:21Z</time>
      </trkpt>
      <trkpt lat="43.308494" lon="-5.054371">
        <ele>256.328</ele>
        <time>2021-10-15T10:21:23Z</time>
      </trkpt>
      <trkpt lat="43.308519" lon="-5.054310">
        <ele>256.322</ele>
        <time>2021-10-15T10:21:24Z</time>
      </trkpt>
      <trkpt lat="43.308547" lon="-5.054245">
        <ele>256.362</ele>
        <time>2021-10-15T10:21:25Z</time>
      </trkpt>
      <trkpt lat="43.308574" lon="-5.054176">
        <ele>256.308</ele>
        <time>2021-10-15T10:21:26Z</time>
      </trkpt>
      <trkpt lat="43.308623" lon="-5.054059">
        <ele>256.308</ele>
        <time>2021-10-15T10:21:28Z</time>
      </trkpt>
      <trkpt lat="43.308645" lon="-5.054004">
        <ele>256.370</ele>
        <time>2021-10-15T10:21:29Z</time>
      </trkpt>
      <trkpt lat="43.308668" lon="-5.053899">
        <ele>256.448</ele>
        <time>2021-10-15T10:21:31Z</time>
      </trkpt>
      <trkpt lat="43.308682" lon="-5.053799">
        <ele>256.496</ele>
        <time>2021-10-15T10:21:33Z</time>
      </trkpt>
      <trkpt lat="43.308647" lon="-5.053721">
        <ele>256.460</ele>
        <time>2021-10-15T10:21:35Z</time>
      </trkpt>
      <trkpt lat="43.308573" lon="-5.053748">
        <ele>256.445</ele>
        <time>2021-10-15T10:21:37Z</time>
      </trkpt>
      <trkpt lat="43.308537" lon="-5.053804">
        <ele>256.483</ele>
        <time>2021-10-15T10:21:38Z</time>
      </trkpt>
      <trkpt lat="43.308510" lon="-5.053926">
        <ele>256.416</ele>
        <time>2021-10-15T10:21:40Z</time>
      </trkpt>
      <trkpt lat="43.308475" lon="-5.054044">
        <ele>256.431</ele>
        <time>2021-10-15T10:21:42Z</time>
      </trkpt>
      <trkpt lat="43.308429" lon="-5.054186">
        <ele>256.463</ele>
        <time>2021-10-15T10:21:44Z</time>
      </trkpt>
      <trkpt lat="43.308349" lon="-5.054281">
        <ele>225.944</ele>
        <time>2021-10-15T10:21:46Z</time>
      </trkpt>
      <trkpt lat="43.308308" lon="-5.054313">
        <ele>210.218</ele>
        <time>2021-10-15T10:21:47Z</time>
      </trkpt>
      <trkpt lat="43.308225" lon="-5.054351">
        <ele>195.208</ele>
        <time>2021-10-15T10:21:49Z</time>
      </trkpt>
      <trkpt lat="43.308149" lon="-5.054399">
        <ele>195.224</ele>
        <time>2021-10-15T10:21:51Z</time>
      </trkpt>
      <trkpt lat="43.308077" lon="-5.054440">
        <ele>195.192</ele>
        <time>2021-10-15T10:21:53Z</time>
      </trkpt>
      <trkpt lat="43.308003" lon="-5.054432">
        <ele>194.780</ele>
        <time>2021-10-15T10:21:55Z</time>
      </trkpt>
      <trkpt lat="43.307961" lon="-5.054396">
        <ele>194.574</ele>
        <time>2021-10-15T10:21:56Z</time>
      </trkpt>
      <trkpt lat="43.307906" lon="-5.054272">
        <ele>194.139</ele>
        <time>2021-10-15T10:21:58Z</time>
      </trkpt>
      <trkpt lat="43.307864" lon="-5.054080">
        <ele>194.317</ele>
        <time>2021-10-15T10:22:00Z</time>
      </trkpt>
      <trkpt lat="43.307819" lon="-5.053936">
        <ele>194.940</ele>
        <time>2021-10-15T10:22:02Z</time>
      </trkpt>
      <trkpt lat="43.307752" lon="-5.053845">
        <ele>194.985</ele>
        <time>2021-10-15T10:22:04Z</time>
      </trkpt>
      <trkpt lat="43.307673" lon="-5.053755">
        <ele>195.063</ele>
        <time>2021-10-15T10:22:06Z</time>
      </trkpt>
      <trkpt lat="43.307632" lon="-5.053709">
        <ele>195.044</ele>
        <time>2021-10-15T10:22:07Z</time>
      </trkpt>
      <trkpt lat="43.307591" lon="-5.053658">
        <ele>195.018</ele>
        <time>2021-10-15T10:22:08Z</time>
      </trkpt>
      <trkpt lat="43.307510" lon="-5.053540">
        <ele>195.308</ele>
        <time>2021-10-15T10:22:10Z</time>
      </trkpt>
      <trkpt lat="43.307471" lon="-5.053479">
        <ele>195.794</ele>
        <time>2021-10-15T10:22:11Z</time>
      </trkpt>
      <trkpt lat="43.307436" lon="-5.053420">
        <ele>195.982</ele>
        <time>2021-10-15T10:22:12Z</time>
      </trkpt>
      <trkpt lat="43.307380" lon="-5.053297">
        <ele>195.770</ele>
        <time>2021-10-15T10:22:14Z</time>
      </trkpt>
      <trkpt lat="43.307380" lon="-5.053162">
        <ele>194.414</ele>
        <time>2021-10-15T10:22:16Z</time>
      </trkpt>
      <trkpt lat="43.307402" lon="-5.053086">
        <ele>194.039</ele>
        <time>2021-10-15T10:22:17Z</time>
      </trkpt>
      <trkpt lat="43.307431" lon="-5.053004">
        <ele>193.587</ele>
        <time>2021-10-15T10:22:18Z</time>
      </trkpt>
      <trkpt lat="43.307491" lon="-5.052839">
        <ele>193.280</ele>
        <time>2021-10-15T10:22:20Z</time>
      </trkpt>
      <trkpt lat="43.307542" lon="-5.052674">
        <ele>192.195</ele>
        <time>2021-10-15T10:22:22Z</time>
      </trkpt>
      <trkpt lat="43.307578" lon="-5.052505">
        <ele>190.543</ele>
        <time>2021-10-15T10:22:24Z</time>
      </trkpt>
      <trkpt lat="43.307588" lon="-5.052419">
        <ele>190.564</ele>
        <time>2021-10-15T10:22:25Z</time>
      </trkpt>
      <trkpt lat="43.307595" lon="-5.052331">
        <ele>190.510</ele>
        <time>2021-10-15T10:22:26Z</time>
      </trkpt>
      <trkpt lat="43.307593" lon="-5.052170">
        <ele>190.508</ele>
        <time>2021-10-15T10:22:28Z</time>
      </trkpt>
      <trkpt lat="43.307586" lon="-5.052105">
        <ele>190.542</ele>
        <time>2021-10-15T10:22:29Z</time>
      </trkpt>
      <trkpt lat="43.307571" lon="-5.051985">
        <ele>190.020</ele>
        <time>2021-10-15T10:22:31Z</time>
      </trkpt>
      <trkpt lat="43.307567" lon="-5.051918">
        <ele>189.938</ele>
        <time>2021-10-15T10:22:32Z</time>
      </trkpt>
      <trkpt lat="43.307572" lon="-5.051780">
        <ele>189.312</ele>
        <time>2021-10-15T10:22:34Z</time>
      </trkpt>
      <trkpt lat="43.307592" lon="-5.051619">
        <ele>188.187</ele>
        <time>2021-10-15T10:22:36Z</time>
      </trkpt>
      <trkpt lat="43.307619" lon="-5.051472">
        <ele>187.255</ele>
        <time>2021-10-15T10:22:38Z</time>
      </trkpt>
      <trkpt lat="43.307648" lon="-5.051354">
        <ele>186.568</ele>
        <time>2021-10-15T10:22:40Z</time>
      </trkpt>
      <trkpt lat="43.307678" lon="-5.051290">
        <ele>185.573</ele>
        <time>2021-10-15T10:22:42Z</time>
      </trkpt>
      <trkpt lat="43.307734" lon="-5.051268">
        <ele>183.174</ele>
        <time>2021-10-15T10:22:44Z</time>
      </trkpt>
      <trkpt lat="43.307821" lon="-5.051344">
        <ele>182.256</ele>
        <time>2021-10-15T10:22:46Z</time>
      </trkpt>
      <trkpt lat="43.307870" lon="-5.051386">
        <ele>180.521</ele>
        <time>2021-10-15T10:22:47Z</time>
      </trkpt>
      <trkpt lat="43.307928" lon="-5.051410">
        <ele>177.808</ele>
        <time>2021-10-15T10:22:48Z</time>
      </trkpt>
      <trkpt lat="43.308083" lon="-5.051426">
        <ele>171.285</ele>
        <time>2021-10-15T10:22:50Z</time>
      </trkpt>
      <trkpt lat="43.308267" lon="-5.051418">
        <ele>167.733</ele>
        <time>2021-10-15T10:22:52Z</time>
      </trkpt>
      <trkpt lat="43.308450" lon="-5.051383">
        <ele>164.821</ele>
        <time>2021-10-15T10:22:54Z</time>
      </trkpt>
      <trkpt lat="43.308629" lon="-5.051281">
        <ele>162.825</ele>
        <time>2021-10-15T10:22:56Z</time>
      </trkpt>
      <trkpt lat="43.308796" lon="-5.051098">
        <ele>161.420</ele>
        <time>2021-10-15T10:22:58Z</time>
      </trkpt>
      <trkpt lat="43.308953" lon="-5.050840">
        <ele>160.868</ele>
        <time>2021-10-15T10:23:00Z</time>
      </trkpt>
      <trkpt lat="43.309006" lon="-5.050696">
        <ele>160.471</ele>
        <time>2021-10-15T10:23:01Z</time>
      </trkpt>
      <trkpt lat="43.309040" lon="-5.050538">
        <ele>159.676</ele>
        <time>2021-10-15T10:23:02Z</time>
      </trkpt>
      <trkpt lat="43.309080" lon="-5.050238">
        <ele>158.278</ele>
        <time>2021-10-15T10:23:04Z</time>
      </trkpt>
      <trkpt lat="43.309145" lon="-5.049990">
        <ele>158.233</ele>
        <time>2021-10-15T10:23:06Z</time>
      </trkpt>
      <trkpt lat="43.309189" lon="-5.049890">
        <ele>157.326</ele>
        <time>2021-10-15T10:23:07Z</time>
      </trkpt>
      <trkpt lat="43.309243" lon="-5.049804">
        <ele>157.308</ele>
        <time>2021-10-15T10:23:08Z</time>
      </trkpt>
      <trkpt lat="43.309363" lon="-5.049705">
        <ele>157.445</ele>
        <time>2021-10-15T10:23:10Z</time>
      </trkpt>
      <trkpt lat="43.309422" lon="-5.049704">
        <ele>157.773</ele>
        <time>2021-10-15T10:23:11Z</time>
      </trkpt>
      <trkpt lat="43.309480" lon="-5.049744">
        <ele>157.711</ele>
        <time>2021-10-15T10:23:12Z</time>
      </trkpt>
      <trkpt lat="43.309554" lon="-5.049942">
        <ele>157.575</ele>
        <time>2021-10-15T10:23:14Z</time>
      </trkpt>
      <trkpt lat="43.309516" lon="-5.050294">
        <ele>158.480</ele>
        <time>2021-10-15T10:23:16Z</time>
      </trkpt>
      <trkpt lat="43.309456" lon="-5.050663">
        <ele>159.858</ele>
        <time>2021-10-15T10:23:18Z</time>
      </trkpt>
      <trkpt lat="43.309490" lon="-5.050985">
        <ele>159.221</ele>
        <time>2021-10-15T10:23:20Z</time>
      </trkpt>
      <trkpt lat="43.309570" lon="-5.051250">
        <ele>157.776</ele>
        <time>2021-10-15T10:23:22Z</time>
      </trkpt>
      <trkpt lat="43.309633" lon="-5.051356">
        <ele>154.519</ele>
        <time>2021-10-15T10:23:23Z</time>
      </trkpt>
      <trkpt lat="43.309788" lon="-5.051478">
        <ele>152.309</ele>
        <time>2021-10-15T10:23:25Z</time>
      </trkpt>
      <trkpt lat="43.309876" lon="-5.051513">
        <ele>149.919</ele>
        <time>2021-10-15T10:23:26Z</time>
      </trkpt>
      <trkpt lat="43.310042" lon="-5.051581">
        <ele>147.408</ele>
        <time>2021-10-15T10:23:28Z</time>
      </trkpt>
      <trkpt lat="43.310216" lon="-5.051678">
        <ele>145.359</ele>
        <time>2021-10-15T10:23:30Z</time>
      </trkpt>
      <trkpt lat="43.310297" lon="-5.051741">
        <ele>144.557</ele>
        <time>2021-10-15T10:23:31Z</time>
      </trkpt>
      <trkpt lat="43.310374" lon="-5.051822">
        <ele>143.615</ele>
        <time>2021-10-15T10:23:32Z</time>
      </trkpt>
      <trkpt lat="43.310486" lon="-5.052014">
        <ele>140.749</ele>
        <time>2021-10-15T10:23:34Z</time>
      </trkpt>
      <trkpt lat="43.310526" lon="-5.052135">
        <ele>140.784</ele>
        <time>2021-10-15T10:23:35Z</time>
      </trkpt>
      <trkpt lat="43.310559" lon="-5.052408">
        <ele>139.992</ele>
        <time>2021-10-15T10:23:37Z</time>
      </trkpt>
      <trkpt lat="43.310552" lon="-5.052558">
        <ele>139.995</ele>
        <time>2021-10-15T10:23:38Z</time>
      </trkpt>
      <trkpt lat="43.310547" lon="-5.052823">
        <ele>140.420</ele>
        <time>2021-10-15T10:23:40Z</time>
      </trkpt>
      <trkpt lat="43.310569" lon="-5.052962">
        <ele>140.491</ele>
        <time>2021-10-15T10:23:41Z</time>
      </trkpt>
      <trkpt lat="43.310679" lon="-5.053238">
        <ele>137.581</ele>
        <time>2021-10-15T10:23:43Z</time>
      </trkpt>
      <trkpt lat="43.310765" lon="-5.053385">
        <ele>136.819</ele>
        <time>2021-10-15T10:23:44Z</time>
      </trkpt>
      <trkpt lat="43.310958" lon="-5.053692">
        <ele>135.408</ele>
        <time>2021-10-15T10:23:46Z</time>
      </trkpt>
      <trkpt lat="43.311147" lon="-5.054021">
        <ele>132.457</ele>
        <time>2021-10-15T10:23:48Z</time>
      </trkpt>
      <trkpt lat="43.311225" lon="-5.054185">
        <ele>131.965</ele>
        <time>2021-10-15T10:23:49Z</time>
      </trkpt>
      <trkpt lat="43.311294" lon="-5.054355">
        <ele>131.853</ele>
        <time>2021-10-15T10:23:50Z</time>
      </trkpt>
      <trkpt lat="43.311396" lon="-5.054652">
        <ele>131.497</ele>
        <time>2021-10-15T10:23:52Z</time>
      </trkpt>
      <trkpt lat="43.311445" lon="-5.054933">
        <ele>131.112</ele>
        <time>2021-10-15T10:23:54Z</time>
      </trkpt>
      <trkpt lat="43.311393" lon="-5.055201">
        <ele>131.080</ele>
        <time>2021-10-15T10:23:56Z</time>
      </trkpt>
      <trkpt lat="43.311247" lon="-5.055435">
        <ele>131.413</ele>
        <time>2021-10-15T10:23:58Z</time>
      </trkpt>
      <trkpt lat="43.311173" lon="-5.055560">
        <ele>131.478</ele>
        <time>2021-10-15T10:23:59Z</time>
      </trkpt>
      <trkpt lat="43.311108" lon="-5.055824">
        <ele>132.287</ele>
        <time>2021-10-15T10:24:01Z</time>
      </trkpt>
      <trkpt lat="43.311116" lon="-5.055946">
        <ele>132.142</ele>
        <time>2021-10-15T10:24:02Z</time>
      </trkpt>
      <trkpt lat="43.311208" lon="-5.056174">
        <ele>132.026</ele>
        <time>2021-10-15T10:24:04Z</time>
      </trkpt>
      <trkpt lat="43.311287" lon="-5.056288">
        <ele>131.708</ele>
        <time>2021-10-15T10:24:05Z</time>
      </trkpt>
      <trkpt lat="43.311388" lon="-5.056393">
        <ele>131.776</ele>
        <time>2021-10-15T10:24:06Z</time>
      </trkpt>
      <trkpt lat="43.311589" lon="-5.056592">
        <ele>131.934</ele>
        <time>2021-10-15T10:24:08Z</time>
      </trkpt>
      <trkpt lat="43.311723" lon="-5.056792">
        <ele>131.092</ele>
        <time>2021-10-15T10:24:10Z</time>
      </trkpt>
      <trkpt lat="43.311795" lon="-5.057023">
        <ele>129.916</ele>
        <time>2021-10-15T10:24:12Z</time>
      </trkpt>
      <trkpt lat="43.311819" lon="-5.057139">
        <ele>129.531</ele>
        <time>2021-10-15T10:24:13Z</time>
      </trkpt>
      <trkpt lat="43.311826" lon="-5.057258">
        <ele>129.069</ele>
        <time>2021-10-15T10:24:14Z</time>
      </trkpt>
      <trkpt lat="43.311815" lon="-5.057486">
        <ele>128.662</ele>
        <time>2021-10-15T10:24:16Z</time>
      </trkpt>
      <trkpt lat="43.311830" lon="-5.057609">
        <ele>128.557</ele>
        <time>2021-10-15T10:24:17Z</time>
      </trkpt>
      <trkpt lat="43.311869" lon="-5.057739">
        <ele>128.242</ele>
        <time>2021-10-15T10:24:18Z</time>
      </trkpt>
      <trkpt lat="43.312005" lon="-5.057990">
        <ele>127.922</ele>
        <time>2021-10-15T10:24:20Z</time>
      </trkpt>
      <trkpt lat="43.312159" lon="-5.058234">
        <ele>127.914</ele>
        <time>2021-10-15T10:24:22Z</time>
      </trkpt>
      <trkpt lat="43.312319" lon="-5.058470">
        <ele>124.708</ele>
        <time>2021-10-15T10:24:24Z</time>
      </trkpt>
      <trkpt lat="43.312396" lon="-5.058577">
        <ele>124.442</ele>
        <time>2021-10-15T10:24:25Z</time>
      </trkpt>
      <trkpt lat="43.312468" lon="-5.058678">
        <ele>122.950</ele>
        <time>2021-10-15T10:24:26Z</time>
      </trkpt>
      <trkpt lat="43.312588" lon="-5.058872">
        <ele>122.028</ele>
        <time>2021-10-15T10:24:28Z</time>
      </trkpt>
      <trkpt lat="43.312654" lon="-5.059107">
        <ele>120.342</ele>
        <time>2021-10-15T10:24:30Z</time>
      </trkpt>
      <trkpt lat="43.312662" lon="-5.059234">
        <ele>118.547</ele>
        <time>2021-10-15T10:24:31Z</time>
      </trkpt>
      <trkpt lat="43.312652" lon="-5.059360">
        <ele>117.435</ele>
        <time>2021-10-15T10:24:32Z</time>
      </trkpt>
      <trkpt lat="43.312596" lon="-5.059547">
        <ele>116.638</ele>
        <time>2021-10-15T10:24:34Z</time>
      </trkpt>
      <trkpt lat="43.312563" lon="-5.059694">
        <ele>114.323</ele>
        <time>2021-10-15T10:24:36Z</time>
      </trkpt>
      <trkpt lat="43.312561" lon="-5.059765">
        <ele>114.244</ele>
        <time>2021-10-15T10:24:37Z</time>
      </trkpt>
      <trkpt lat="43.312553" lon="-5.059840">
        <ele>113.205</ele>
        <time>2021-10-15T10:24:38Z</time>
      </trkpt>
      <trkpt lat="43.312492" lon="-5.059988">
        <ele>111.015</ele>
        <time>2021-10-15T10:24:40Z</time>
      </trkpt>
      <trkpt lat="43.312388" lon="-5.060157">
        <ele>110.708</ele>
        <time>2021-10-15T10:24:42Z</time>
      </trkpt>
      <trkpt lat="43.312354" lon="-5.060264">
        <ele>109.682</ele>
        <time>2021-10-15T10:24:43Z</time>
      </trkpt>
      <trkpt lat="43.312334" lon="-5.060388">
        <ele>108.930</ele>
        <time>2021-10-15T10:24:44Z</time>
      </trkpt>
      <trkpt lat="43.312331" lon="-5.060648">
        <ele>108.628</ele>
        <time>2021-10-15T10:24:46Z</time>
      </trkpt>
      <trkpt lat="43.312343" lon="-5.060787">
        <ele>106.912</ele>
        <time>2021-10-15T10:24:47Z</time>
      </trkpt>
      <trkpt lat="43.312399" lon="-5.061055">
        <ele>106.967</ele>
        <time>2021-10-15T10:24:49Z</time>
      </trkpt>
      <trkpt lat="43.312449" lon="-5.061180">
        <ele>107.075</ele>
        <time>2021-10-15T10:24:50Z</time>
      </trkpt>
      <trkpt lat="43.312556" lon="-5.061398">
        <ele>107.088</ele>
        <time>2021-10-15T10:24:52Z</time>
      </trkpt>
      <trkpt lat="43.312616" lon="-5.061506">
        <ele>107.353</ele>
        <time>2021-10-15T10:24:53Z</time>
      </trkpt>
      <trkpt lat="43.312744" lon="-5.061737">
        <ele>107.691</ele>
        <time>2021-10-15T10:24:55Z</time>
      </trkpt>
      <trkpt lat="43.312811" lon="-5.061856">
        <ele>107.681</ele>
        <time>2021-10-15T10:24:56Z</time>
      </trkpt>
      <trkpt lat="43.312944" lon="-5.062071">
        <ele>107.019</ele>
        <time>2021-10-15T10:24:58Z</time>
      </trkpt>
      <trkpt lat="43.313019" lon="-5.062173">
        <ele>106.008</ele>
        <time>2021-10-15T10:24:59Z</time>
      </trkpt>
      <trkpt lat="43.313182" lon="-5.062357">
        <ele>105.527</ele>
        <time>2021-10-15T10:25:01Z</time>
      </trkpt>
      <trkpt lat="43.313271" lon="-5.062449">
        <ele>105.525</ele>
        <time>2021-10-15T10:25:02Z</time>
      </trkpt>
      <trkpt lat="43.313433" lon="-5.062596">
        <ele>105.183</ele>
        <time>2021-10-15T10:25:04Z</time>
      </trkpt>
      <trkpt lat="43.313589" lon="-5.062730">
        <ele>104.397</ele>
        <time>2021-10-15T10:25:06Z</time>
      </trkpt>
      <trkpt lat="43.313670" lon="-5.062800">
        <ele>104.372</ele>
        <time>2021-10-15T10:25:07Z</time>
      </trkpt>
      <trkpt lat="43.313753" lon="-5.062874">
        <ele>104.610</ele>
        <time>2021-10-15T10:25:08Z</time>
      </trkpt>
      <trkpt lat="43.313898" lon="-5.063053">
        <ele>105.753</ele>
        <time>2021-10-15T10:25:10Z</time>
      </trkpt>
      <trkpt lat="43.314013" lon="-5.063287">
        <ele>105.058</ele>
        <time>2021-10-15T10:25:12Z</time>
      </trkpt>
      <trkpt lat="43.314107" lon="-5.063508">
        <ele>104.965</ele>
        <time>2021-10-15T10:25:14Z</time>
      </trkpt>
      <trkpt lat="43.314194" lon="-5.063710">
        <ele>105.668</ele>
        <time>2021-10-15T10:25:16Z</time>
      </trkpt>
      <trkpt lat="43.314277" lon="-5.063932">
        <ele>104.714</ele>
        <time>2021-10-15T10:25:18Z</time>
      </trkpt>
      <trkpt lat="43.314317" lon="-5.064215">
        <ele>104.708</ele>
        <time>2021-10-15T10:25:20Z</time>
      </trkpt>
      <trkpt lat="43.314284" lon="-5.064534">
        <ele>104.084</ele>
        <time>2021-10-15T10:25:22Z</time>
      </trkpt>
      <trkpt lat="43.314249" lon="-5.064688">
        <ele>103.542</ele>
        <time>2021-10-15T10:25:23Z</time>
      </trkpt>
      <trkpt lat="43.314163" lon="-5.064961">
        <ele>101.940</ele>
        <time>2021-10-15T10:25:25Z</time>
      </trkpt>
      <trkpt lat="43.314110" lon="-5.065086">
        <ele>100.824</ele>
        <time>2021-10-15T10:25:26Z</time>
      </trkpt>
      <trkpt lat="43.314008" lon="-5.065334">
        <ele>99.679</ele>
        <time>2021-10-15T10:25:28Z</time>
      </trkpt>
      <trkpt lat="43.313937" lon="-5.065634">
        <ele>98.877</ele>
        <time>2021-10-15T10:25:30Z</time>
      </trkpt>
      <trkpt lat="43.313911" lon="-5.065972">
        <ele>98.320</ele>
        <time>2021-10-15T10:25:32Z</time>
      </trkpt>
      <trkpt lat="43.313926" lon="-5.066289">
        <ele>97.415</ele>
        <time>2021-10-15T10:25:34Z</time>
      </trkpt>
      <trkpt lat="43.313935" lon="-5.066440">
        <ele>97.352</ele>
        <time>2021-10-15T10:25:35Z</time>
      </trkpt>
      <trkpt lat="43.313960" lon="-5.066720">
        <ele>96.453</ele>
        <time>2021-10-15T10:25:37Z</time>
      </trkpt>
      <trkpt lat="43.313990" lon="-5.066845">
        <ele>96.008</ele>
        <time>2021-10-15T10:25:38Z</time>
      </trkpt>
      <trkpt lat="43.314094" lon="-5.067048">
        <ele>95.608</ele>
        <time>2021-10-15T10:25:40Z</time>
      </trkpt>
      <trkpt lat="43.314251" lon="-5.067211">
        <ele>96.173</ele>
        <time>2021-10-15T10:25:42Z</time>
      </trkpt>
      <trkpt lat="43.314430" lon="-5.067368">
        <ele>96.121</ele>
        <time>2021-10-15T10:25:44Z</time>
      </trkpt>
      <trkpt lat="43.314585" lon="-5.067578">
        <ele>95.659</ele>
        <time>2021-10-15T10:25:46Z</time>
      </trkpt>
      <trkpt lat="43.314725" lon="-5.067821">
        <ele>95.673</ele>
        <time>2021-10-15T10:25:48Z</time>
      </trkpt>
      <trkpt lat="43.314791" lon="-5.067944">
        <ele>96.438</ele>
        <time>2021-10-15T10:25:49Z</time>
      </trkpt>
      <trkpt lat="43.314852" lon="-5.068071">
        <ele>96.496</ele>
        <time>2021-10-15T10:25:50Z</time>
      </trkpt>
      <trkpt lat="43.314949" lon="-5.068325">
        <ele>94.859</ele>
        <time>2021-10-15T10:25:52Z</time>
      </trkpt>
      <trkpt lat="43.314994" lon="-5.068461">
        <ele>94.714</ele>
        <time>2021-10-15T10:25:53Z</time>
      </trkpt>
      <trkpt lat="43.315035" lon="-5.068600">
        <ele>94.727</ele>
        <time>2021-10-15T10:25:54Z</time>
      </trkpt>
      <trkpt lat="43.315109" lon="-5.068905">
        <ele>93.568</ele>
        <time>2021-10-15T10:25:56Z</time>
      </trkpt>
      <trkpt lat="43.315182" lon="-5.069223">
        <ele>93.214</ele>
        <time>2021-10-15T10:25:58Z</time>
      </trkpt>
      <trkpt lat="43.315270" lon="-5.069567">
        <ele>92.408</ele>
        <time>2021-10-15T10:26:00Z</time>
      </trkpt>
      <trkpt lat="43.315379" lon="-5.069924">
        <ele>91.370</ele>
        <time>2021-10-15T10:26:02Z</time>
      </trkpt>
      <trkpt lat="43.315513" lon="-5.070223">
        <ele>90.088</ele>
        <time>2021-10-15T10:26:04Z</time>
      </trkpt>
      <trkpt lat="43.315591" lon="-5.070352">
        <ele>90.046</ele>
        <time>2021-10-15T10:26:05Z</time>
      </trkpt>
      <trkpt lat="43.315676" lon="-5.070469">
        <ele>90.810</ele>
        <time>2021-10-15T10:26:06Z</time>
      </trkpt>
      <trkpt lat="43.315772" lon="-5.070577">
        <ele>90.875</ele>
        <time>2021-10-15T10:26:07Z</time>
      </trkpt>
      <trkpt lat="43.315875" lon="-5.070685">
        <ele>90.063</ele>
        <time>2021-10-15T10:26:08Z</time>
      </trkpt>
      <trkpt lat="43.316060" lon="-5.070878">
        <ele>90.066</ele>
        <time>2021-10-15T10:26:10Z</time>
      </trkpt>
      <trkpt lat="43.316149" lon="-5.070971">
        <ele>89.681</ele>
        <time>2021-10-15T10:26:11Z</time>
      </trkpt>
      <trkpt lat="43.316330" lon="-5.071157">
        <ele>89.644</ele>
        <time>2021-10-15T10:26:13Z</time>
      </trkpt>
      <trkpt lat="43.316427" lon="-5.071258">
        <ele>89.305</ele>
        <time>2021-10-15T10:26:14Z</time>
      </trkpt>
      <trkpt lat="43.316601" lon="-5.071502">
        <ele>89.515</ele>
        <time>2021-10-15T10:26:16Z</time>
      </trkpt>
      <trkpt lat="43.316752" lon="-5.071807">
        <ele>89.108</ele>
        <time>2021-10-15T10:26:18Z</time>
      </trkpt>
      <trkpt lat="43.316812" lon="-5.071973">
        <ele>89.172</ele>
        <time>2021-10-15T10:26:19Z</time>
      </trkpt>
      <trkpt lat="43.316866" lon="-5.072140">
        <ele>88.660</ele>
        <time>2021-10-15T10:26:20Z</time>
      </trkpt>
      <trkpt lat="43.316964" lon="-5.072460">
        <ele>87.018</ele>
        <time>2021-10-15T10:26:22Z</time>
      </trkpt>
      <trkpt lat="43.317060" lon="-5.072777">
        <ele>86.312</ele>
        <time>2021-10-15T10:26:24Z</time>
      </trkpt>
      <trkpt lat="43.317156" lon="-5.073087">
        <ele>85.527</ele>
        <time>2021-10-15T10:26:26Z</time>
      </trkpt>
      <trkpt lat="43.317247" lon="-5.073374">
        <ele>85.685</ele>
        <time>2021-10-15T10:26:28Z</time>
      </trkpt>
      <trkpt lat="43.317292" lon="-5.073511">
        <ele>85.628</ele>
        <time>2021-10-15T10:26:29Z</time>
      </trkpt>
      <trkpt lat="43.317386" lon="-5.073746">
        <ele>84.993</ele>
        <time>2021-10-15T10:26:31Z</time>
      </trkpt>
      <trkpt lat="43.317453" lon="-5.073850">
        <ele>83.723</ele>
        <time>2021-10-15T10:26:32Z</time>
      </trkpt>
      <trkpt lat="43.317634" lon="-5.073985">
        <ele>83.783</ele>
        <time>2021-10-15T10:26:34Z</time>
      </trkpt>
      <trkpt lat="43.317748" lon="-5.074007">
        <ele>83.211</ele>
        <time>2021-10-15T10:26:35Z</time>
      </trkpt>
      <trkpt lat="43.317867" lon="-5.073989">
        <ele>82.908</ele>
        <time>2021-10-15T10:26:36Z</time>
      </trkpt>
      <trkpt lat="43.317982" lon="-5.073940">
        <ele>82.930</ele>
        <time>2021-10-15T10:26:37Z</time>
      </trkpt>
      <trkpt lat="43.318097" lon="-5.073881">
        <ele>82.978</ele>
        <time>2021-10-15T10:26:38Z</time>
      </trkpt>
      <trkpt lat="43.318323" lon="-5.073803">
        <ele>82.916</ele>
        <time>2021-10-15T10:26:40Z</time>
      </trkpt>
      <trkpt lat="43.318445" lon="-5.073803">
        <ele>83.240</ele>
        <time>2021-10-15T10:26:41Z</time>
      </trkpt>
      <trkpt lat="43.318572" lon="-5.073835">
        <ele>83.325</ele>
        <time>2021-10-15T10:26:42Z</time>
      </trkpt>
      <trkpt lat="43.318700" lon="-5.073896">
        <ele>83.423</ele>
        <time>2021-10-15T10:26:43Z</time>
      </trkpt>
      <trkpt lat="43.318826" lon="-5.073963">
        <ele>84.256</ele>
        <time>2021-10-15T10:26:44Z</time>
      </trkpt>
      <trkpt lat="43.319047" lon="-5.074067">
        <ele>85.161</ele>
        <time>2021-10-15T10:26:46Z</time>
      </trkpt>
      <trkpt lat="43.319153" lon="-5.074102">
        <ele>84.858</ele>
        <time>2021-10-15T10:26:47Z</time>
      </trkpt>
      <trkpt lat="43.319368" lon="-5.074123">
        <ele>84.852</ele>
        <time>2021-10-15T10:26:49Z</time>
      </trkpt>
      <trkpt lat="43.319487" lon="-5.074138">
        <ele>85.217</ele>
        <time>2021-10-15T10:26:50Z</time>
      </trkpt>
      <trkpt lat="43.319719" lon="-5.074187">
        <ele>85.408</ele>
        <time>2021-10-15T10:26:52Z</time>
      </trkpt>
      <trkpt lat="43.319834" lon="-5.074223">
        <ele>85.513</ele>
        <time>2021-10-15T10:26:53Z</time>
      </trkpt>
      <trkpt lat="43.320051" lon="-5.074350">
        <ele>85.781</ele>
        <time>2021-10-15T10:26:55Z</time>
      </trkpt>
      <trkpt lat="43.320156" lon="-5.074455">
        <ele>85.779</ele>
        <time>2021-10-15T10:26:56Z</time>
      </trkpt>
      <trkpt lat="43.320348" lon="-5.074718">
        <ele>84.273</ele>
        <time>2021-10-15T10:26:58Z</time>
      </trkpt>
      <trkpt lat="43.320442" lon="-5.074845">
        <ele>83.428</ele>
        <time>2021-10-15T10:26:59Z</time>
      </trkpt>
      <trkpt lat="43.320639" lon="-5.075081">
        <ele>82.626</ele>
        <time>2021-10-15T10:27:01Z</time>
      </trkpt>
      <trkpt lat="43.320751" lon="-5.075192">
        <ele>81.859</ele>
        <time>2021-10-15T10:27:02Z</time>
      </trkpt>
      <trkpt lat="43.320986" lon="-5.075440">
        <ele>80.654</ele>
        <time>2021-10-15T10:27:04Z</time>
      </trkpt>
      <trkpt lat="43.321130" lon="-5.075607">
        <ele>80.179</ele>
        <time>2021-10-15T10:27:05Z</time>
      </trkpt>
      <trkpt lat="43.321297" lon="-5.075774">
        <ele>79.405</ele>
        <time>2021-10-15T10:27:06Z</time>
      </trkpt>
      <trkpt lat="43.321481" lon="-5.075935">
        <ele>79.525</ele>
        <time>2021-10-15T10:27:07Z</time>
      </trkpt>
      <trkpt lat="43.321676" lon="-5.076114">
        <ele>78.908</ele>
        <time>2021-10-15T10:27:08Z</time>
      </trkpt>
      <trkpt lat="43.322046" lon="-5.076487">
        <ele>77.845</ele>
        <time>2021-10-15T10:27:10Z</time>
      </trkpt>
      <trkpt lat="43.322223" lon="-5.076672">
        <ele>76.733</ele>
        <time>2021-10-15T10:27:11Z</time>
      </trkpt>
      <trkpt lat="43.322544" lon="-5.076994">
        <ele>75.271</ele>
        <time>2021-10-15T10:27:13Z</time>
      </trkpt>
      <trkpt lat="43.322698" lon="-5.077150">
        <ele>74.555</ele>
        <time>2021-10-15T10:27:14Z</time>
      </trkpt>
      <trkpt lat="43.322998" lon="-5.077456">
        <ele>73.640</ele>
        <time>2021-10-15T10:27:16Z</time>
      </trkpt>
      <trkpt lat="43.323149" lon="-5.077611">
        <ele>73.688</ele>
        <time>2021-10-15T10:27:17Z</time>
      </trkpt>
      <trkpt lat="43.323428" lon="-5.077881">
        <ele>72.651</ele>
        <time>2021-10-15T10:27:19Z</time>
      </trkpt>
      <trkpt lat="43.323580" lon="-5.077971">
        <ele>72.246</ele>
        <time>2021-10-15T10:27:20Z</time>
      </trkpt>
      <trkpt lat="43.323896" lon="-5.078033">
        <ele>71.085</ele>
        <time>2021-10-15T10:27:22Z</time>
      </trkpt>
      <trkpt lat="43.324059" lon="-5.078039">
        <ele>70.089</ele>
        <time>2021-10-15T10:27:23Z</time>
      </trkpt>
      <trkpt lat="43.324366" lon="-5.078135">
        <ele>69.517</ele>
        <time>2021-10-15T10:27:25Z</time>
      </trkpt>
      <trkpt lat="43.324513" lon="-5.078249">
        <ele>69.508</ele>
        <time>2021-10-15T10:27:26Z</time>
      </trkpt>
      <trkpt lat="43.324759" lon="-5.078587">
        <ele>68.216</ele>
        <time>2021-10-15T10:27:28Z</time>
      </trkpt>
      <trkpt lat="43.324999" lon="-5.078954">
        <ele>67.394</ele>
        <time>2021-10-15T10:27:30Z</time>
      </trkpt>
      <trkpt lat="43.325126" lon="-5.079082">
        <ele>66.182</ele>
        <time>2021-10-15T10:27:31Z</time>
      </trkpt>
      <trkpt lat="43.325255" lon="-5.079161">
        <ele>65.246</ele>
        <time>2021-10-15T10:27:32Z</time>
      </trkpt>
      <trkpt lat="43.325518" lon="-5.079147">
        <ele>64.641</ele>
        <time>2021-10-15T10:27:34Z</time>
      </trkpt>
      <trkpt lat="43.325815" lon="-5.079055">
        <ele>62.749</ele>
        <time>2021-10-15T10:27:36Z</time>
      </trkpt>
      <trkpt lat="43.325973" lon="-5.079029">
        <ele>62.012</ele>
        <time>2021-10-15T10:27:37Z</time>
      </trkpt>
      <trkpt lat="43.326138" lon="-5.079036">
        <ele>61.237</ele>
        <time>2021-10-15T10:27:38Z</time>
      </trkpt>
      <trkpt lat="43.326489" lon="-5.079110">
        <ele>60.434</ele>
        <time>2021-10-15T10:27:40Z</time>
      </trkpt>
      <trkpt lat="43.326885" lon="-5.079229">
        <ele>61.255</ele>
        <time>2021-10-15T10:27:42Z</time>
      </trkpt>
      <trkpt lat="43.327079" lon="-5.079296">
        <ele>61.110</ele>
        <time>2021-10-15T10:27:43Z</time>
      </trkpt>
      <trkpt lat="43.327265" lon="-5.079364">
        <ele>60.508</ele>
        <time>2021-10-15T10:27:44Z</time>
      </trkpt>
      <trkpt lat="43.327605" lon="-5.079516">
        <ele>61.021</ele>
        <time>2021-10-15T10:27:46Z</time>
      </trkpt>
      <trkpt lat="43.327908" lon="-5.079776">
        <ele>62.019</ele>
        <time>2021-10-15T10:27:48Z</time>
      </trkpt>
      <trkpt lat="43.328152" lon="-5.080187">
        <ele>62.947</ele>
        <time>2021-10-15T10:27:50Z</time>
      </trkpt>
      <trkpt lat="43.328359" lon="-5.080656">
        <ele>63.441</ele>
        <time>2021-10-15T10:27:52Z</time>
      </trkpt>
      <trkpt lat="43.328627" lon="-5.081027">
        <ele>62.346</ele>
        <time>2021-10-15T10:27:54Z</time>
      </trkpt>
      <trkpt lat="43.328787" lon="-5.081159">
        <ele>61.964</ele>
        <time>2021-10-15T10:27:55Z</time>
      </trkpt>
      <trkpt lat="43.328964" lon="-5.081260">
        <ele>61.857</ele>
        <time>2021-10-15T10:27:56Z</time>
      </trkpt>
      <trkpt lat="43.329316" lon="-5.081363">
        <ele>59.522</ele>
        <time>2021-10-15T10:27:58Z</time>
      </trkpt>
      <trkpt lat="43.329646" lon="-5.081337">
        <ele>58.249</ele>
        <time>2021-10-15T10:28:00Z</time>
      </trkpt>
      <trkpt lat="43.329804" lon="-5.081258">
        <ele>57.002</ele>
        <time>2021-10-15T10:28:01Z</time>
      </trkpt>
      <trkpt lat="43.329957" lon="-5.081138">
        <ele>57.022</ele>
        <time>2021-10-15T10:28:02Z</time>
      </trkpt>
      <trkpt lat="43.330238" lon="-5.080885">
        <ele>55.208</ele>
        <time>2021-10-15T10:28:04Z</time>
      </trkpt>
      <trkpt lat="43.330378" lon="-5.080781">
        <ele>54.032</ele>
        <time>2021-10-15T10:28:05Z</time>
      </trkpt>
      <trkpt lat="43.330657" lon="-5.080664">
        <ele>53.090</ele>
        <time>2021-10-15T10:28:07Z</time>
      </trkpt>
      <trkpt lat="43.330794" lon="-5.080658">
        <ele>51.818</ele>
        <time>2021-10-15T10:28:08Z</time>
      </trkpt>
      <trkpt lat="43.331064" lon="-5.080765">
        <ele>51.762</ele>
        <time>2021-10-15T10:28:10Z</time>
      </trkpt>
      <trkpt lat="43.331196" lon="-5.080879">
        <ele>51.517</ele>
        <time>2021-10-15T10:28:11Z</time>
      </trkpt>
      <trkpt lat="43.331422" lon="-5.081216">
        <ele>52.325</ele>
        <time>2021-10-15T10:28:13Z</time>
      </trkpt>
      <trkpt lat="43.331518" lon="-5.081446">
        <ele>51.718</ele>
        <time>2021-10-15T10:28:14Z</time>
      </trkpt>
      <trkpt lat="43.331690" lon="-5.081872">
        <ele>51.773</ele>
        <time>2021-10-15T10:28:16Z</time>
      </trkpt>
      <trkpt lat="43.331861" lon="-5.082232">
        <ele>52.377</ele>
        <time>2021-10-15T10:28:18Z</time>
      </trkpt>
      <trkpt lat="43.331946" lon="-5.082398">
        <ele>52.461</ele>
        <time>2021-10-15T10:28:19Z</time>
      </trkpt>
      <trkpt lat="43.332034" lon="-5.082555">
        <ele>52.627</ele>
        <time>2021-10-15T10:28:20Z</time>
      </trkpt>
      <trkpt lat="43.332224" lon="-5.082804">
        <ele>53.508</ele>
        <time>2021-10-15T10:28:22Z</time>
      </trkpt>
      <trkpt lat="43.332334" lon="-5.082905">
        <ele>53.925</ele>
        <time>2021-10-15T10:28:23Z</time>
      </trkpt>
      <trkpt lat="43.332598" lon="-5.083071">
        <ele>57.223</ele>
        <time>2021-10-15T10:28:25Z</time>
      </trkpt>
      <trkpt lat="43.332751" lon="-5.083129">
        <ele>58.031</ele>
        <time>2021-10-15T10:28:26Z</time>
      </trkpt>
      <trkpt lat="43.333069" lon="-5.083174">
        <ele>59.925</ele>
        <time>2021-10-15T10:28:28Z</time>
      </trkpt>
      <trkpt lat="43.333419" lon="-5.083235">
        <ele>60.340</ele>
        <time>2021-10-15T10:28:30Z</time>
      </trkpt>
      <trkpt lat="43.333767" lon="-5.083306">
        <ele>60.238</ele>
        <time>2021-10-15T10:28:32Z</time>
      </trkpt>
      <trkpt lat="43.334101" lon="-5.083369">
        <ele>58.671</ele>
        <time>2021-10-15T10:28:34Z</time>
      </trkpt>
      <trkpt lat="43.334445" lon="-5.083437">
        <ele>56.666</ele>
        <time>2021-10-15T10:28:36Z</time>
      </trkpt>
      <trkpt lat="43.334811" lon="-5.083512">
        <ele>55.314</ele>
        <time>2021-10-15T10:28:38Z</time>
      </trkpt>
      <trkpt lat="43.335175" lon="-5.083590">
        <ele>53.954</ele>
        <time>2021-10-15T10:28:40Z</time>
      </trkpt>
      <trkpt lat="43.335538" lon="-5.083667">
        <ele>51.909</ele>
        <time>2021-10-15T10:28:42Z</time>
      </trkpt>
      <trkpt lat="43.335720" lon="-5.083707">
        <ele>51.408</ele>
        <time>2021-10-15T10:28:43Z</time>
      </trkpt>
      <trkpt lat="43.335904" lon="-5.083747">
        <ele>50.869</ele>
        <time>2021-10-15T10:28:44Z</time>
      </trkpt>
      <trkpt lat="43.336253" lon="-5.083817">
        <ele>50.357</ele>
        <time>2021-10-15T10:28:46Z</time>
      </trkpt>
      <trkpt lat="43.336424" lon="-5.083852">
        <ele>50.515</ele>
        <time>2021-10-15T10:28:47Z</time>
      </trkpt>
      <trkpt lat="43.336588" lon="-5.083887">
        <ele>49.689</ele>
        <time>2021-10-15T10:28:48Z</time>
      </trkpt>
      <trkpt lat="43.336913" lon="-5.083958">
        <ele>49.194</ele>
        <time>2021-10-15T10:28:50Z</time>
      </trkpt>
      <trkpt lat="43.337229" lon="-5.084025">
        <ele>48.422</ele>
        <time>2021-10-15T10:28:52Z</time>
      </trkpt>
      <trkpt lat="43.337558" lon="-5.084099">
        <ele>48.125</ele>
        <time>2021-10-15T10:28:54Z</time>
      </trkpt>
      <trkpt lat="43.337899" lon="-5.084178">
        <ele>46.830</ele>
        <time>2021-10-15T10:28:56Z</time>
      </trkpt>
      <trkpt lat="43.338229" lon="-5.084253">
        <ele>45.812</ele>
        <time>2021-10-15T10:28:58Z</time>
      </trkpt>
      <trkpt lat="43.338401" lon="-5.084299">
        <ele>46.132</ele>
        <time>2021-10-15T10:28:59Z</time>
      </trkpt>
      <trkpt lat="43.338795" lon="-5.084408">
        <ele>45.805</ele>
        <time>2021-10-15T10:29:01Z</time>
      </trkpt>
      <trkpt lat="43.339025" lon="-5.084449">
        <ele>45.508</ele>
        <time>2021-10-15T10:29:02Z</time>
      </trkpt>
      <trkpt lat="43.339447" lon="-5.084521">
        <ele>45.669</ele>
        <time>2021-10-15T10:29:04Z</time>
      </trkpt>
      <trkpt lat="43.339646" lon="-5.084563">
        <ele>45.457</ele>
        <time>2021-10-15T10:29:05Z</time>
      </trkpt>
      <trkpt lat="43.339843" lon="-5.084594">
        <ele>45.675</ele>
        <time>2021-10-15T10:29:06Z</time>
      </trkpt>
      <trkpt lat="43.340039" lon="-5.084612">
        <ele>45.219</ele>
        <time>2021-10-15T10:29:07Z</time>
      </trkpt>
      <trkpt lat="43.340238" lon="-5.084611">
        <ele>44.884</ele>
        <time>2021-10-15T10:29:08Z</time>
      </trkpt>
      <trkpt lat="43.340617" lon="-5.084577">
        <ele>44.422</ele>
        <time>2021-10-15T10:29:10Z</time>
      </trkpt>
      <trkpt lat="43.340808" lon="-5.084547">
        <ele>44.165</ele>
        <time>2021-10-15T10:29:11Z</time>
      </trkpt>
      <trkpt lat="43.340994" lon="-5.084498">
        <ele>43.740</ele>
        <time>2021-10-15T10:29:12Z</time>
      </trkpt>
      <trkpt lat="43.341365" lon="-5.084356">
        <ele>42.562</ele>
        <time>2021-10-15T10:29:14Z</time>
      </trkpt>
      <trkpt lat="43.341735" lon="-5.084208">
        <ele>41.283</ele>
        <time>2021-10-15T10:29:16Z</time>
      </trkpt>
      <trkpt lat="43.341926" lon="-5.084138">
        <ele>39.911</ele>
        <time>2021-10-15T10:29:17Z</time>
      </trkpt>
      <trkpt lat="43.342292" lon="-5.084016">
        <ele>38.408</ele>
        <time>2021-10-15T10:29:19Z</time>
      </trkpt>
      <trkpt lat="43.342487" lon="-5.083967">
        <ele>37.924</ele>
        <time>2021-10-15T10:29:20Z</time>
      </trkpt>
      <trkpt lat="43.342877" lon="-5.083891">
        <ele>37.132</ele>
        <time>2021-10-15T10:29:22Z</time>
      </trkpt>
      <trkpt lat="43.343264" lon="-5.083819">
        <ele>36.250</ele>
        <time>2021-10-15T10:29:24Z</time>
      </trkpt>
      <trkpt lat="43.343616" lon="-5.083768">
        <ele>34.644</ele>
        <time>2021-10-15T10:29:26Z</time>
      </trkpt>
      <trkpt lat="43.343939" lon="-5.083732">
        <ele>33.789</ele>
        <time>2021-10-15T10:29:28Z</time>
      </trkpt>
      <trkpt lat="43.344087" lon="-5.083750">
        <ele>32.227</ele>
        <time>2021-10-15T10:29:29Z</time>
      </trkpt>
      <trkpt lat="43.344343" lon="-5.083900">
        <ele>30.550</ele>
        <time>2021-10-15T10:29:31Z</time>
      </trkpt>
      <trkpt lat="43.344470" lon="-5.084012">
        <ele>30.035</ele>
        <time>2021-10-15T10:29:32Z</time>
      </trkpt>
      <trkpt lat="43.344684" lon="-5.084278">
        <ele>28.465</ele>
        <time>2021-10-15T10:29:34Z</time>
      </trkpt>
      <trkpt lat="43.344773" lon="-5.084427">
        <ele>28.568</ele>
        <time>2021-10-15T10:29:35Z</time>
      </trkpt>
      <trkpt lat="43.344865" lon="-5.084574">
        <ele>28.714</ele>
        <time>2021-10-15T10:29:36Z</time>
      </trkpt>
      <trkpt lat="43.345091" lon="-5.084856">
        <ele>28.108</ele>
        <time>2021-10-15T10:29:38Z</time>
      </trkpt>
      <trkpt lat="43.345339" lon="-5.085081">
        <ele>29.114</ele>
        <time>2021-10-15T10:29:40Z</time>
      </trkpt>
      <trkpt lat="43.345460" lon="-5.085185">
        <ele>29.532</ele>
        <time>2021-10-15T10:29:41Z</time>
      </trkpt>
      <trkpt lat="43.345682" lon="-5.085371">
        <ele>30.950</ele>
        <time>2021-10-15T10:29:43Z</time>
      </trkpt>
      <trkpt lat="43.345784" lon="-5.085461">
        <ele>31.224</ele>
        <time>2021-10-15T10:29:44Z</time>
      </trkpt>
      <trkpt lat="43.345959" lon="-5.085621">
        <ele>31.229</ele>
        <time>2021-10-15T10:29:46Z</time>
      </trkpt>
      <trkpt lat="43.346037" lon="-5.085690">
        <ele>31.417</ele>
        <time>2021-10-15T10:29:47Z</time>
      </trkpt>
      <trkpt lat="43.346173" lon="-5.085786">
        <ele>33.040</ele>
        <time>2021-10-15T10:29:49Z</time>
      </trkpt>
      <trkpt lat="43.346236" lon="-5.085816">
        <ele>33.195</ele>
        <time>2021-10-15T10:29:50Z</time>
      </trkpt>
      <trkpt lat="43.346365" lon="-5.085870">
        <ele>32.796</ele>
        <time>2021-10-15T10:29:52Z</time>
      </trkpt>
      <trkpt lat="43.346488" lon="-5.085910">
        <ele>31.831</ele>
        <time>2021-10-15T10:29:54Z</time>
      </trkpt>
      <trkpt lat="43.346554" lon="-5.085924">
        <ele>31.324</ele>
        <time>2021-10-15T10:29:56Z</time>
      </trkpt>
      <trkpt lat="43.346637" lon="-5.085880">
        <ele>30.508</ele>
        <time>2021-10-15T10:29:58Z</time>
      </trkpt>
      <trkpt lat="43.346774" lon="-5.085776">
        <ele>30.187</ele>
        <time>2021-10-15T10:30:00Z</time>
      </trkpt>
      <trkpt lat="43.346935" lon="-5.085729">
        <ele>29.125</ele>
        <time>2021-10-15T10:30:02Z</time>
      </trkpt>
      <trkpt lat="43.347068" lon="-5.085820">
        <ele>28.833</ele>
        <time>2021-10-15T10:30:04Z</time>
      </trkpt>
      <trkpt lat="43.347116" lon="-5.085916">
        <ele>28.897</ele>
        <time>2021-10-15T10:30:05Z</time>
      </trkpt>
      <trkpt lat="43.347136" lon="-5.086154">
        <ele>29.112</ele>
        <time>2021-10-15T10:30:07Z</time>
      </trkpt>
      <trkpt lat="43.347102" lon="-5.086301">
        <ele>29.430</ele>
        <time>2021-10-15T10:30:08Z</time>
      </trkpt>
      <trkpt lat="43.347025" lon="-5.086594">
        <ele>29.453</ele>
        <time>2021-10-15T10:30:10Z</time>
      </trkpt>
      <trkpt lat="43.347018" lon="-5.086900">
        <ele>29.238</ele>
        <time>2021-10-15T10:30:12Z</time>
      </trkpt>
      <trkpt lat="43.347044" lon="-5.087066">
        <ele>29.016</ele>
        <time>2021-10-15T10:30:13Z</time>
      </trkpt>
      <trkpt lat="43.347086" lon="-5.087234">
        <ele>29.076</ele>
        <time>2021-10-15T10:30:14Z</time>
      </trkpt>
      <trkpt lat="43.347174" lon="-5.087559">
        <ele>29.113</ele>
        <time>2021-10-15T10:30:16Z</time>
      </trkpt>
      <trkpt lat="43.347224" lon="-5.087723">
        <ele>29.108</ele>
        <time>2021-10-15T10:30:17Z</time>
      </trkpt>
      <trkpt lat="43.347331" lon="-5.088036">
        <ele>28.739</ele>
        <time>2021-10-15T10:30:19Z</time>
      </trkpt>
      <trkpt lat="43.347390" lon="-5.088196">
        <ele>28.527</ele>
        <time>2021-10-15T10:30:20Z</time>
      </trkpt>
      <trkpt lat="43.347511" lon="-5.088498">
        <ele>28.445</ele>
        <time>2021-10-15T10:30:22Z</time>
      </trkpt>
      <trkpt lat="43.347646" lon="-5.088829">
        <ele>28.369</ele>
        <time>2021-10-15T10:30:24Z</time>
      </trkpt>
      <trkpt lat="43.347784" lon="-5.089169">
        <ele>27.694</ele>
        <time>2021-10-15T10:30:26Z</time>
      </trkpt>
      <trkpt lat="43.347910" lon="-5.089467">
        <ele>26.872</ele>
        <time>2021-10-15T10:30:28Z</time>
      </trkpt>
      <trkpt lat="43.347972" lon="-5.089615">
        <ele>26.815</ele>
        <time>2021-10-15T10:30:29Z</time>
      </trkpt>
      <trkpt lat="43.348032" lon="-5.089766">
        <ele>26.680</ele>
        <time>2021-10-15T10:30:30Z</time>
      </trkpt>
      <trkpt lat="43.348093" lon="-5.089920">
        <ele>26.648</ele>
        <time>2021-10-15T10:30:31Z</time>
      </trkpt>
      <trkpt lat="43.348160" lon="-5.090081">
        <ele>26.661</ele>
        <time>2021-10-15T10:30:32Z</time>
      </trkpt>
      <trkpt lat="43.348294" lon="-5.090414">
        <ele>27.517</ele>
        <time>2021-10-15T10:30:34Z</time>
      </trkpt>
      <trkpt lat="43.348456" lon="-5.090754">
        <ele>28.208</ele>
        <time>2021-10-15T10:30:36Z</time>
      </trkpt>
      <trkpt lat="43.348542" lon="-5.090937">
        <ele>28.992</ele>
        <time>2021-10-15T10:30:37Z</time>
      </trkpt>
      <trkpt lat="43.348636" lon="-5.091130">
        <ele>29.570</ele>
        <time>2021-10-15T10:30:38Z</time>
      </trkpt>
      <trkpt lat="43.348825" lon="-5.091487">
        <ele>30.188</ele>
        <time>2021-10-15T10:30:40Z</time>
      </trkpt>
      <trkpt lat="43.348923" lon="-5.091667">
        <ele>29.692</ele>
        <time>2021-10-15T10:30:41Z</time>
      </trkpt>
      <trkpt lat="43.349118" lon="-5.092020">
        <ele>29.447</ele>
        <time>2021-10-15T10:30:43Z</time>
      </trkpt>
      <trkpt lat="43.349219" lon="-5.092199">
        <ele>28.865</ele>
        <time>2021-10-15T10:30:44Z</time>
      </trkpt>
      <trkpt lat="43.349409" lon="-5.092542">
        <ele>27.628</ele>
        <time>2021-10-15T10:30:46Z</time>
      </trkpt>
      <trkpt lat="43.349503" lon="-5.092715">
        <ele>26.853</ele>
        <time>2021-10-15T10:30:47Z</time>
      </trkpt>
      <trkpt lat="43.349597" lon="-5.092882">
        <ele>27.171</ele>
        <time>2021-10-15T10:30:48Z</time>
      </trkpt>
      <trkpt lat="43.349781" lon="-5.093212">
        <ele>26.641</ele>
        <time>2021-10-15T10:30:50Z</time>
      </trkpt>
      <trkpt lat="43.349965" lon="-5.093542">
        <ele>26.115</ele>
        <time>2021-10-15T10:30:52Z</time>
      </trkpt>
      <trkpt lat="43.350059" lon="-5.093716">
        <ele>26.308</ele>
        <time>2021-10-15T10:30:53Z</time>
      </trkpt>
      <trkpt lat="43.350155" lon="-5.093893">
        <ele>25.845</ele>
        <time>2021-10-15T10:30:54Z</time>
      </trkpt>
      <trkpt lat="43.350345" lon="-5.094253">
        <ele>24.643</ele>
        <time>2021-10-15T10:30:56Z</time>
      </trkpt>
      <trkpt lat="43.350513" lon="-5.094604">
        <ele>24.651</ele>
        <time>2021-10-15T10:30:58Z</time>
      </trkpt>
      <trkpt lat="43.350587" lon="-5.094801">
        <ele>24.465</ele>
        <time>2021-10-15T10:30:59Z</time>
      </trkpt>
      <trkpt lat="43.350648" lon="-5.095007">
        <ele>23.850</ele>
        <time>2021-10-15T10:31:00Z</time>
      </trkpt>
      <trkpt lat="43.350723" lon="-5.095441">
        <ele>23.738</ele>
        <time>2021-10-15T10:31:02Z</time>
      </trkpt>
      <trkpt lat="43.350730" lon="-5.095898">
        <ele>23.151</ele>
        <time>2021-10-15T10:31:04Z</time>
      </trkpt>
      <trkpt lat="43.350655" lon="-5.096405">
        <ele>23.396</ele>
        <time>2021-10-15T10:31:06Z</time>
      </trkpt>
      <trkpt lat="43.350514" lon="-5.096934">
        <ele>23.432</ele>
        <time>2021-10-15T10:31:08Z</time>
      </trkpt>
      <trkpt lat="43.350342" lon="-5.097429">
        <ele>23.292</ele>
        <time>2021-10-15T10:31:10Z</time>
      </trkpt>
      <trkpt lat="43.350266" lon="-5.097679">
        <ele>23.511</ele>
        <time>2021-10-15T10:31:11Z</time>
      </trkpt>
      <trkpt lat="43.350123" lon="-5.098151">
        <ele>24.208</ele>
        <time>2021-10-15T10:31:13Z</time>
      </trkpt>
      <trkpt lat="43.350044" lon="-5.098394">
        <ele>23.581</ele>
        <time>2021-10-15T10:31:14Z</time>
      </trkpt>
      <trkpt lat="43.349896" lon="-5.098907">
        <ele>22.059</ele>
        <time>2021-10-15T10:31:16Z</time>
      </trkpt>
      <trkpt lat="43.349826" lon="-5.099191">
        <ele>21.367</ele>
        <time>2021-10-15T10:31:17Z</time>
      </trkpt>
      <trkpt lat="43.349693" lon="-5.099856">
        <ele>20.391</ele>
        <time>2021-10-15T10:31:19Z</time>
      </trkpt>
      <trkpt lat="43.349645" lon="-5.100231">
        <ele>19.666</ele>
        <time>2021-10-15T10:31:20Z</time>
      </trkpt>
      <trkpt lat="43.349574" lon="-5.100915">
        <ele>18.054</ele>
        <time>2021-10-15T10:31:22Z</time>
      </trkpt>
      <trkpt lat="43.349538" lon="-5.101220">
        <ele>17.457</ele>
        <time>2021-10-15T10:31:23Z</time>
      </trkpt>
      <trkpt lat="43.349504" lon="-5.101512">
        <ele>16.912</ele>
        <time>2021-10-15T10:31:24Z</time>
      </trkpt>
      <trkpt lat="43.349477" lon="-5.101799">
        <ele>17.027</ele>
        <time>2021-10-15T10:31:25Z</time>
      </trkpt>
      <trkpt lat="43.349465" lon="-5.102096">
        <ele>16.868</ele>
        <time>2021-10-15T10:31:26Z</time>
      </trkpt>
      <trkpt lat="43.349476" lon="-5.102656">
        <ele>16.314</ele>
        <time>2021-10-15T10:31:28Z</time>
      </trkpt>
      <trkpt lat="43.349497" lon="-5.102942">
        <ele>16.708</ele>
        <time>2021-10-15T10:31:29Z</time>
      </trkpt>
      <trkpt lat="43.349566" lon="-5.103529">
        <ele>18.290</ele>
        <time>2021-10-15T10:31:31Z</time>
      </trkpt>
      <trkpt lat="43.349611" lon="-5.103848">
        <ele>19.388</ele>
        <time>2021-10-15T10:31:32Z</time>
      </trkpt>
      <trkpt lat="43.349711" lon="-5.104439">
        <ele>20.426</ele>
        <time>2021-10-15T10:31:34Z</time>
      </trkpt>
      <trkpt lat="43.349807" lon="-5.105019">
        <ele>21.630</ele>
        <time>2021-10-15T10:31:36Z</time>
      </trkpt>
      <trkpt lat="43.349853" lon="-5.105331">
        <ele>22.815</ele>
        <time>2021-10-15T10:31:37Z</time>
      </trkpt>
      <trkpt lat="43.349899" lon="-5.105663">
        <ele>23.253</ele>
        <time>2021-10-15T10:31:38Z</time>
      </trkpt>
      <trkpt lat="43.350014" lon="-5.106309">
        <ele>24.076</ele>
        <time>2021-10-15T10:31:40Z</time>
      </trkpt>
      <trkpt lat="43.350073" lon="-5.106611">
        <ele>24.551</ele>
        <time>2021-10-15T10:31:41Z</time>
      </trkpt>
      <trkpt lat="43.350123" lon="-5.106892">
        <ele>24.748</ele>
        <time>2021-10-15T10:31:42Z</time>
      </trkpt>
      <trkpt lat="43.350204" lon="-5.107377">
        <ele>25.161</ele>
        <time>2021-10-15T10:31:44Z</time>
      </trkpt>
      <trkpt lat="43.350271" lon="-5.107748">
        <ele>24.417</ele>
        <time>2021-10-15T10:31:46Z</time>
      </trkpt>
      <trkpt lat="43.350341" lon="-5.108063">
        <ele>24.508</ele>
        <time>2021-10-15T10:31:48Z</time>
      </trkpt>
      <trkpt lat="43.350427" lon="-5.108372">
        <ele>25.322</ele>
        <time>2021-10-15T10:31:50Z</time>
      </trkpt>
      <trkpt lat="43.350510" lon="-5.108644">
        <ele>25.050</ele>
        <time>2021-10-15T10:31:52Z</time>
      </trkpt>
      <trkpt lat="43.350584" lon="-5.108852">
        <ele>24.628</ele>
        <time>2021-10-15T10:31:54Z</time>
      </trkpt>
      <trkpt lat="43.350695" lon="-5.108996">
        <ele>24.192</ele>
        <time>2021-10-15T10:31:56Z</time>
      </trkpt>
      <trkpt lat="43.350865" lon="-5.109034">
        <ele>23.097</ele>
        <time>2021-10-15T10:31:58Z</time>
      </trkpt>
      <trkpt lat="43.350957" lon="-5.109063">
        <ele>22.765</ele>
        <time>2021-10-15T10:31:59Z</time>
      </trkpt>
      <trkpt lat="43.351097" lon="-5.109181">
        <ele>20.968</ele>
        <time>2021-10-15T10:32:01Z</time>
      </trkpt>
      <trkpt lat="43.351139" lon="-5.109286">
        <ele>20.933</ele>
        <time>2021-10-15T10:32:02Z</time>
      </trkpt>
      <trkpt lat="43.351131" lon="-5.109550">
        <ele>19.977</ele>
        <time>2021-10-15T10:32:04Z</time>
      </trkpt>
      <trkpt lat="43.351094" lon="-5.109679">
        <ele>19.161</ele>
        <time>2021-10-15T10:32:05Z</time>
      </trkpt>
      <trkpt lat="43.350977" lon="-5.109839">
        <ele>18.127</ele>
        <time>2021-10-15T10:32:07Z</time>
      </trkpt>
      <trkpt lat="43.350886" lon="-5.109857">
        <ele>18.108</ele>
        <time>2021-10-15T10:32:08Z</time>
      </trkpt>
      <trkpt lat="43.350685" lon="-5.109867">
        <ele>17.045</ele>
        <time>2021-10-15T10:32:10Z</time>
      </trkpt>
      <trkpt lat="43.350599" lon="-5.109910">
        <ele>16.573</ele>
        <time>2021-10-15T10:32:11Z</time>
      </trkpt>
      <trkpt lat="43.350490" lon="-5.110078">
        <ele>14.861</ele>
        <time>2021-10-15T10:32:13Z</time>
      </trkpt>
      <trkpt lat="43.350457" lon="-5.110201">
        <ele>14.625</ele>
        <time>2021-10-15T10:32:14Z</time>
      </trkpt>
      <trkpt lat="43.350399" lon="-5.110499">
        <ele>13.990</ele>
        <time>2021-10-15T10:32:16Z</time>
      </trkpt>
      <trkpt lat="43.350379" lon="-5.110847">
        <ele>12.778</ele>
        <time>2021-10-15T10:32:18Z</time>
      </trkpt>
      <trkpt lat="43.350407" lon="-5.111237">
        <ele>11.731</ele>
        <time>2021-10-15T10:32:20Z</time>
      </trkpt>
      <trkpt lat="43.350447" lon="-5.111603">
        <ele>10.566</ele>
        <time>2021-10-15T10:32:22Z</time>
      </trkpt>
      <trkpt lat="43.350463" lon="-5.111782">
        <ele>10.617</ele>
        <time>2021-10-15T10:32:23Z</time>
      </trkpt>
      <trkpt lat="43.350491" lon="-5.112122">
        <ele>9.787</ele>
        <time>2021-10-15T10:32:25Z</time>
      </trkpt>
      <trkpt lat="43.350499" lon="-5.112282">
        <ele>9.715</ele>
        <time>2021-10-15T10:32:26Z</time>
      </trkpt>
      <trkpt lat="43.350508" lon="-5.112556">
        <ele>9.908</ele>
        <time>2021-10-15T10:32:28Z</time>
      </trkpt>
      <trkpt lat="43.350514" lon="-5.112797">
        <ele>8.949</ele>
        <time>2021-10-15T10:32:30Z</time>
      </trkpt>
      <trkpt lat="43.350514" lon="-5.112908">
        <ele>9.487</ele>
        <time>2021-10-15T10:32:31Z</time>
      </trkpt>
      <trkpt lat="43.350512" lon="-5.113032">
        <ele>9.375</ele>
        <time>2021-10-15T10:32:32Z</time>
      </trkpt>
      <trkpt lat="43.350504" lon="-5.113343">
        <ele>10.359</ele>
        <time>2021-10-15T10:32:34Z</time>
      </trkpt>
      <trkpt lat="43.350489" lon="-5.113764">
        <ele>11.334</ele>
        <time>2021-10-15T10:32:36Z</time>
      </trkpt>
      <trkpt lat="43.350479" lon="-5.114005">
        <ele>11.562</ele>
        <time>2021-10-15T10:32:37Z</time>
      </trkpt>
      <trkpt lat="43.350471" lon="-5.114239">
        <ele>11.895</ele>
        <time>2021-10-15T10:32:38Z</time>
      </trkpt>
      <trkpt lat="43.350454" lon="-5.114690">
        <ele>11.590</ele>
        <time>2021-10-15T10:32:40Z</time>
      </trkpt>
      <trkpt lat="43.350442" lon="-5.114914">
        <ele>10.783</ele>
        <time>2021-10-15T10:32:41Z</time>
      </trkpt>
      <trkpt lat="43.350421" lon="-5.115290">
        <ele>11.225</ele>
        <time>2021-10-15T10:32:43Z</time>
      </trkpt>
      <trkpt lat="43.350414" lon="-5.115442">
        <ele>11.617</ele>
        <time>2021-10-15T10:32:44Z</time>
      </trkpt>
      <trkpt lat="43.350405" lon="-5.115708">
        <ele>11.808</ele>
        <time>2021-10-15T10:32:46Z</time>
      </trkpt>
      <trkpt lat="43.350395" lon="-5.115975">
        <ele>11.316</ele>
        <time>2021-10-15T10:32:48Z</time>
      </trkpt>
      <trkpt lat="43.350386" lon="-5.116258">
        <ele>11.394</ele>
        <time>2021-10-15T10:32:50Z</time>
      </trkpt>
      <trkpt lat="43.350382" lon="-5.116554">
        <ele>9.682</ele>
        <time>2021-10-15T10:32:52Z</time>
      </trkpt>
      <trkpt lat="43.350389" lon="-5.116697">
        <ele>9.686</ele>
        <time>2021-10-15T10:32:53Z</time>
      </trkpt>
      <trkpt lat="43.350404" lon="-5.116852">
        <ele>9.611</ele>
        <time>2021-10-15T10:32:54Z</time>
      </trkpt>
      <trkpt lat="43.350427" lon="-5.117024">
        <ele>10.249</ele>
        <time>2021-10-15T10:32:55Z</time>
      </trkpt>
      <trkpt lat="43.350458" lon="-5.117218">
        <ele>10.292</ele>
        <time>2021-10-15T10:32:56Z</time>
      </trkpt>
      <trkpt lat="43.350523" lon="-5.117585">
        <ele>11.337</ele>
        <time>2021-10-15T10:32:58Z</time>
      </trkpt>
      <trkpt lat="43.350557" lon="-5.117768">
        <ele>10.564</ele>
        <time>2021-10-15T10:32:59Z</time>
      </trkpt>
      <trkpt lat="43.350623" lon="-5.118121">
        <ele>10.506</ele>
        <time>2021-10-15T10:33:01Z</time>
      </trkpt>
      <trkpt lat="43.350653" lon="-5.118292">
        <ele>10.216</ele>
        <time>2021-10-15T10:33:02Z</time>
      </trkpt>
      <trkpt lat="43.350697" lon="-5.118588">
        <ele>9.608</ele>
        <time>2021-10-15T10:33:04Z</time>
      </trkpt>
      <trkpt lat="43.350715" lon="-5.118734">
        <ele>8.814</ele>
        <time>2021-10-15T10:33:05Z</time>
      </trkpt>
      <trkpt lat="43.350732" lon="-5.119021">
        <ele>7.832</ele>
        <time>2021-10-15T10:33:07Z</time>
      </trkpt>
      <trkpt lat="43.350742" lon="-5.119161">
        <ele>7.230</ele>
        <time>2021-10-15T10:33:08Z</time>
      </trkpt>
      <trkpt lat="43.350755" lon="-5.119414">
        <ele>5.984</ele>
        <time>2021-10-15T10:33:10Z</time>
      </trkpt>
      <trkpt lat="43.350766" lon="-5.119657">
        <ele>5.659</ele>
        <time>2021-10-15T10:33:12Z</time>
      </trkpt>
      <trkpt lat="43.350774" lon="-5.119866">
        <ele>4.957</ele>
        <time>2021-10-15T10:33:14Z</time>
      </trkpt>
      <trkpt lat="43.350778" lon="-5.119994">
        <ele>4.830</ele>
        <time>2021-10-15T10:33:16Z</time>
      </trkpt>
      <trkpt lat="43.350782" lon="-5.120068">
        <ele>4.775</ele>
        <time>2021-10-15T10:33:17Z</time>
      </trkpt>
      <trkpt lat="43.350790" lon="-5.120232">
        <ele>4.775</ele>
        <time>2021-10-15T10:33:19Z</time>
      </trkpt>
      <trkpt lat="43.350793" lon="-5.120322">
        <ele>4.628</ele>
        <time>2021-10-15T10:33:20Z</time>
      </trkpt>
      <trkpt lat="43.350797" lon="-5.120535">
        <ele>4.320</ele>
        <time>2021-10-15T10:33:22Z</time>
      </trkpt>
      <trkpt lat="43.350799" lon="-5.120671">
        <ele>4.008</ele>
        <time>2021-10-15T10:33:23Z</time>
      </trkpt>
      <trkpt lat="43.350805" lon="-5.120803">
        <ele>4.545</ele>
        <time>2021-10-15T10:33:24Z</time>
      </trkpt>
      <trkpt lat="43.350824" lon="-5.121082">
        <ele>4.933</ele>
        <time>2021-10-15T10:33:26Z</time>
      </trkpt>
      <trkpt lat="43.350836" lon="-5.121365">
        <ele>4.281</ele>
        <time>2021-10-15T10:33:28Z</time>
      </trkpt>
      <trkpt lat="43.350840" lon="-5.121626">
        <ele>3.995</ele>
        <time>2021-10-15T10:33:30Z</time>
      </trkpt>
      <trkpt lat="43.350842" lon="-5.121748">
        <ele>3.940</ele>
        <time>2021-10-15T10:33:31Z</time>
      </trkpt>
      <trkpt lat="43.350846" lon="-5.121870">
        <ele>3.778</ele>
        <time>2021-10-15T10:33:32Z</time>
      </trkpt>
      <trkpt lat="43.350850" lon="-5.122120">
        <ele>3.661</ele>
        <time>2021-10-15T10:33:34Z</time>
      </trkpt>
      <trkpt lat="43.350852" lon="-5.122252">
        <ele>3.316</ele>
        <time>2021-10-15T10:33:35Z</time>
      </trkpt>
      <trkpt lat="43.350855" lon="-5.122384">
        <ele>3.144</ele>
        <time>2021-10-15T10:33:36Z</time>
      </trkpt>
      <trkpt lat="43.350856" lon="-5.122653">
        <ele>3.105</ele>
        <time>2021-10-15T10:33:38Z</time>
      </trkpt>
      <trkpt lat="43.350858" lon="-5.122908">
        <ele>3.415</ele>
        <time>2021-10-15T10:33:40Z</time>
      </trkpt>
      <trkpt lat="43.350859" lon="-5.123034">
        <ele>3.408</ele>
        <time>2021-10-15T10:33:41Z</time>
      </trkpt>
      <trkpt lat="43.350865" lon="-5.123289">
        <ele>3.362</ele>
        <time>2021-10-15T10:33:43Z</time>
      </trkpt>
      <trkpt lat="43.350867" lon="-5.123422">
        <ele>3.830</ele>
        <time>2021-10-15T10:33:44Z</time>
      </trkpt>
      <trkpt lat="43.350871" lon="-5.123669">
        <ele>3.528</ele>
        <time>2021-10-15T10:33:46Z</time>
      </trkpt>
      <trkpt lat="43.350873" lon="-5.123785">
        <ele>3.532</ele>
        <time>2021-10-15T10:33:47Z</time>
      </trkpt>
      <trkpt lat="43.350873" lon="-5.123987">
        <ele>4.027</ele>
        <time>2021-10-15T10:33:49Z</time>
      </trkpt>
      <trkpt lat="43.350873" lon="-5.124085">
        <ele>4.435</ele>
        <time>2021-10-15T10:33:50Z</time>
      </trkpt>
      <trkpt lat="43.350877" lon="-5.124286">
        <ele>5.768</ele>
        <time>2021-10-15T10:33:52Z</time>
      </trkpt>
      <trkpt lat="43.350884" lon="-5.124503">
        <ele>6.753</ele>
        <time>2021-10-15T10:33:54Z</time>
      </trkpt>
      <trkpt lat="43.350891" lon="-5.124617">
        <ele>7.312</ele>
        <time>2021-10-15T10:33:55Z</time>
      </trkpt>
      <trkpt lat="43.350899" lon="-5.124734">
        <ele>8.032</ele>
        <time>2021-10-15T10:33:56Z</time>
      </trkpt>
      <trkpt lat="43.350913" lon="-5.124942">
        <ele>10.105</ele>
        <time>2021-10-15T10:33:58Z</time>
      </trkpt>
      <trkpt lat="43.350919" lon="-5.125046">
        <ele>10.608</ele>
        <time>2021-10-15T10:33:59Z</time>
      </trkpt>
      <trkpt lat="43.350926" lon="-5.125142">
        <ele>11.579</ele>
        <time>2021-10-15T10:34:00Z</time>
      </trkpt>
      <trkpt lat="43.350944" lon="-5.125315">
        <ele>12.877</ele>
        <time>2021-10-15T10:34:02Z</time>
      </trkpt>
      <trkpt lat="43.350960" lon="-5.125458">
        <ele>13.785</ele>
        <time>2021-10-15T10:34:04Z</time>
      </trkpt>
      <trkpt lat="43.350966" lon="-5.125521">
        <ele>14.729</ele>
        <time>2021-10-15T10:34:05Z</time>
      </trkpt>
      <trkpt lat="43.350978" lon="-5.125604">
        <ele>14.754</ele>
        <time>2021-10-15T10:34:07Z</time>
      </trkpt>
      <trkpt lat="43.350989" lon="-5.125681">
        <ele>14.752</ele>
        <time>2021-10-15T10:34:09Z</time>
      </trkpt>
      <trkpt lat="43.350997" lon="-5.125782">
        <ele>14.135</ele>
        <time>2021-10-15T10:34:11Z</time>
      </trkpt>
      <trkpt lat="43.351003" lon="-5.125848">
        <ele>14.130</ele>
        <time>2021-10-15T10:34:12Z</time>
      </trkpt>
      <trkpt lat="43.351010" lon="-5.125958">
        <ele>14.125</ele>
        <time>2021-10-15T10:34:14Z</time>
      </trkpt>
      <trkpt lat="43.351029" lon="-5.126145">
        <ele>13.926</ele>
        <time>2021-10-15T10:34:16Z</time>
      </trkpt>
      <trkpt lat="43.351039" lon="-5.126329">
        <ele>13.808</ele>
        <time>2021-10-15T10:34:18Z</time>
      </trkpt>
      <trkpt lat="43.351050" lon="-5.126546">
        <ele>13.208</ele>
        <time>2021-10-15T10:34:20Z</time>
      </trkpt>
      <trkpt lat="43.351069" lon="-5.126780">
        <ele>12.550</ele>
        <time>2021-10-15T10:34:22Z</time>
      </trkpt>
      <trkpt lat="43.351080" lon="-5.126900">
        <ele>12.018</ele>
        <time>2021-10-15T10:34:23Z</time>
      </trkpt>
      <trkpt lat="43.351098" lon="-5.127125">
        <ele>9.796</ele>
        <time>2021-10-15T10:34:25Z</time>
      </trkpt>
      <trkpt lat="43.351105" lon="-5.127252">
        <ele>8.760</ele>
        <time>2021-10-15T10:34:26Z</time>
      </trkpt>
      <trkpt lat="43.351114" lon="-5.127510">
        <ele>8.555</ele>
        <time>2021-10-15T10:34:28Z</time>
      </trkpt>
      <trkpt lat="43.351121" lon="-5.127776">
        <ele>7.153</ele>
        <time>2021-10-15T10:34:30Z</time>
      </trkpt>
      <trkpt lat="43.351114" lon="-5.127906">
        <ele>4.316</ele>
        <time>2021-10-15T10:34:31Z</time>
      </trkpt>
      <trkpt lat="43.351102" lon="-5.128038">
        <ele>3.871</ele>
        <time>2021-10-15T10:34:32Z</time>
      </trkpt>
      <trkpt lat="43.351074" lon="-5.128267">
        <ele>2.953</ele>
        <time>2021-10-15T10:34:34Z</time>
      </trkpt>
      <trkpt lat="43.351046" lon="-5.128500">
        <ele>2.404</ele>
        <time>2021-10-15T10:34:36Z</time>
      </trkpt>
      <trkpt lat="43.351014" lon="-5.128736">
        <ele>1.614</ele>
        <time>2021-10-15T10:34:38Z</time>
      </trkpt>
      <trkpt lat="43.350983" lon="-5.128967">
        <ele>1.708</ele>
        <time>2021-10-15T10:34:40Z</time>
      </trkpt>
      <trkpt lat="43.350967" lon="-5.129087">
        <ele>1.783</ele>
        <time>2021-10-15T10:34:41Z</time>
      </trkpt>
      <trkpt lat="43.350932" lon="-5.129314">
        <ele>1.141</ele>
        <time>2021-10-15T10:34:43Z</time>
      </trkpt>
      <trkpt lat="43.350919" lon="-5.129425">
        <ele>0.579</ele>
        <time>2021-10-15T10:34:44Z</time>
      </trkpt>
      <trkpt lat="43.350898" lon="-5.129625">
        <ele>0.853</ele>
        <time>2021-10-15T10:34:46Z</time>
      </trkpt>
      <trkpt lat="43.350888" lon="-5.129715">
        <ele>0.318</ele>
        <time>2021-10-15T10:34:47Z</time>
      </trkpt>
      <trkpt lat="43.350876" lon="-5.129794">
        <ele>0.496</ele>
        <time>2021-10-15T10:34:48Z</time>
      </trkpt>
      <trkpt lat="43.350856" lon="-5.129934">
        <ele>-0.249</ele>
        <time>2021-10-15T10:34:50Z</time>
      </trkpt>
      <trkpt lat="43.350844" lon="-5.130060">
        <ele>0.144</ele>
        <time>2021-10-15T10:34:52Z</time>
      </trkpt>
      <trkpt lat="43.350838" lon="-5.130154">
        <ele>0.539</ele>
        <time>2021-10-15T10:34:54Z</time>
      </trkpt>
      <trkpt lat="43.350833" lon="-5.130241">
        <ele>1.301</ele>
        <time>2021-10-15T10:34:56Z</time>
      </trkpt>
      <trkpt lat="43.350825" lon="-5.130347">
        <ele>1.821</ele>
        <time>2021-10-15T10:34:58Z</time>
      </trkpt>
      <trkpt lat="43.350822" lon="-5.130426">
        <ele>1.808</ele>
        <time>2021-10-15T10:34:59Z</time>
      </trkpt>
      <trkpt lat="43.350818" lon="-5.130504">
        <ele>1.841</ele>
        <time>2021-10-15T10:35:00Z</time>
      </trkpt>
      <trkpt lat="43.350813" lon="-5.130576">
        <ele>1.859</ele>
        <time>2021-10-15T10:35:01Z</time>
      </trkpt>
      <trkpt lat="43.350807" lon="-5.130646">
        <ele>1.887</ele>
        <time>2021-10-15T10:35:02Z</time>
      </trkpt>
      <trkpt lat="43.350793" lon="-5.130767">
        <ele>1.841</ele>
        <time>2021-10-15T10:35:04Z</time>
      </trkpt>
      <trkpt lat="43.350779" lon="-5.130922">
        <ele>1.976</ele>
        <time>2021-10-15T10:35:06Z</time>
      </trkpt>
      <trkpt lat="43.350771" lon="-5.130998">
        <ele>1.924</ele>
        <time>2021-10-15T10:35:07Z</time>
      </trkpt>
      <trkpt lat="43.350759" lon="-5.131063">
        <ele>2.087</ele>
        <time>2021-10-15T10:35:08Z</time>
      </trkpt>
      <trkpt lat="43.350719" lon="-5.131130">
        <ele>2.232</ele>
        <time>2021-10-15T10:35:10Z</time>
      </trkpt>
      <trkpt lat="43.350643" lon="-5.131140">
        <ele>2.429</ele>
        <time>2021-10-15T10:35:12Z</time>
      </trkpt>
      <trkpt lat="43.350511" lon="-5.131066">
        <ele>3.500</ele>
        <time>2021-10-15T10:35:14Z</time>
      </trkpt>
      <trkpt lat="43.350341" lon="-5.130952">
        <ele>6.220</ele>
        <time>2021-10-15T10:35:16Z</time>
      </trkpt>
      <trkpt lat="43.350159" lon="-5.130848">
        <ele>6.208</ele>
        <time>2021-10-15T10:35:18Z</time>
      </trkpt>
      <trkpt lat="43.350069" lon="-5.130811">
        <ele>6.210</ele>
        <time>2021-10-15T10:35:19Z</time>
      </trkpt>
      <trkpt lat="43.349984" lon="-5.130788">
        <ele>7.588</ele>
        <time>2021-10-15T10:35:20Z</time>
      </trkpt>
      <trkpt lat="43.349810" lon="-5.130786">
        <ele>7.926</ele>
        <time>2021-10-15T10:35:22Z</time>
      </trkpt>
      <trkpt lat="43.349612" lon="-5.130804">
        <ele>9.710</ele>
        <time>2021-10-15T10:35:24Z</time>
      </trkpt>
      <trkpt lat="43.349396" lon="-5.130833">
        <ele>9.735</ele>
        <time>2021-10-15T10:35:26Z</time>
      </trkpt>
      <trkpt lat="43.349195" lon="-5.130860">
        <ele>11.293</ele>
        <time>2021-10-15T10:35:28Z</time>
      </trkpt>
      <trkpt lat="43.349102" lon="-5.130873">
        <ele>11.246</ele>
        <time>2021-10-15T10:35:29Z</time>
      </trkpt>
      <trkpt lat="43.348914" lon="-5.130901">
        <ele>11.481</ele>
        <time>2021-10-15T10:35:31Z</time>
      </trkpt>
      <trkpt lat="43.348809" lon="-5.130916">
        <ele>11.568</ele>
        <time>2021-10-15T10:35:32Z</time>
      </trkpt>
      <trkpt lat="43.348602" lon="-5.130947">
        <ele>11.842</ele>
        <time>2021-10-15T10:35:34Z</time>
      </trkpt>
      <trkpt lat="43.348495" lon="-5.130964">
        <ele>12.626</ele>
        <time>2021-10-15T10:35:35Z</time>
      </trkpt>
      <trkpt lat="43.348287" lon="-5.131001">
        <ele>13.208</ele>
        <time>2021-10-15T10:35:37Z</time>
      </trkpt>
      <trkpt lat="43.348184" lon="-5.131018">
        <ele>13.284</ele>
        <time>2021-10-15T10:35:38Z</time>
      </trkpt>
      <trkpt lat="43.348007" lon="-5.131046">
        <ele>13.362</ele>
        <time>2021-10-15T10:35:40Z</time>
      </trkpt>
      <trkpt lat="43.347819" lon="-5.131076">
        <ele>13.310</ele>
        <time>2021-10-15T10:35:42Z</time>
      </trkpt>
      <trkpt lat="43.347720" lon="-5.131092">
        <ele>13.384</ele>
        <time>2021-10-15T10:35:43Z</time>
      </trkpt>
      <trkpt lat="43.347614" lon="-5.131111">
        <ele>13.329</ele>
        <time>2021-10-15T10:35:44Z</time>
      </trkpt>
      <trkpt lat="43.347401" lon="-5.131143">
        <ele>14.837</ele>
        <time>2021-10-15T10:35:46Z</time>
      </trkpt>
      <trkpt lat="43.347287" lon="-5.131162">
        <ele>14.880</ele>
        <time>2021-10-15T10:35:47Z</time>
      </trkpt>
      <trkpt lat="43.347167" lon="-5.131183">
        <ele>15.165</ele>
        <time>2021-10-15T10:35:48Z</time>
      </trkpt>
      <trkpt lat="43.346921" lon="-5.131217">
        <ele>16.924</ele>
        <time>2021-10-15T10:35:50Z</time>
      </trkpt>
      <trkpt lat="43.346704" lon="-5.131239">
        <ele>18.104</ele>
        <time>2021-10-15T10:35:52Z</time>
      </trkpt>
      <trkpt lat="43.346598" lon="-5.131250">
        <ele>18.114</ele>
        <time>2021-10-15T10:35:53Z</time>
      </trkpt>
      <trkpt lat="43.346494" lon="-5.131263">
        <ele>19.108</ele>
        <time>2021-10-15T10:35:54Z</time>
      </trkpt>
      <trkpt lat="43.346261" lon="-5.131296">
        <ele>19.690</ele>
        <time>2021-10-15T10:35:56Z</time>
      </trkpt>
      <trkpt lat="43.346019" lon="-5.131328">
        <ele>19.928</ele>
        <time>2021-10-15T10:35:58Z</time>
      </trkpt>
      <trkpt lat="43.345756" lon="-5.131393">
        <ele>19.466</ele>
        <time>2021-10-15T10:36:00Z</time>
      </trkpt>
      <trkpt lat="43.345486" lon="-5.131444">
        <ele>19.480</ele>
        <time>2021-10-15T10:36:02Z</time>
      </trkpt>
      <trkpt lat="43.345220" lon="-5.131480">
        <ele>18.875</ele>
        <time>2021-10-15T10:36:04Z</time>
      </trkpt>
      <trkpt lat="43.345072" lon="-5.131499">
        <ele>18.123</ele>
        <time>2021-10-15T10:36:05Z</time>
      </trkpt>
      <trkpt lat="43.344773" lon="-5.131543">
        <ele>17.446</ele>
        <time>2021-10-15T10:36:07Z</time>
      </trkpt>
      <trkpt lat="43.344613" lon="-5.131568">
        <ele>17.131</ele>
        <time>2021-10-15T10:36:08Z</time>
      </trkpt>
      <trkpt lat="43.344300" lon="-5.131622">
        <ele>15.677</ele>
        <time>2021-10-15T10:36:10Z</time>
      </trkpt>
      <trkpt lat="43.343981" lon="-5.131685">
        <ele>14.461</ele>
        <time>2021-10-15T10:36:12Z</time>
      </trkpt>
      <trkpt lat="43.343636" lon="-5.131732">
        <ele>13.427</ele>
        <time>2021-10-15T10:36:14Z</time>
      </trkpt>
      <trkpt lat="43.343278" lon="-5.131777">
        <ele>13.308</ele>
        <time>2021-10-15T10:36:16Z</time>
      </trkpt>
      <trkpt lat="43.342850" lon="-5.131835">
        <ele>13.555</ele>
        <time>2021-10-15T10:36:18Z</time>
      </trkpt>
      <trkpt lat="43.342630" lon="-5.131866">
        <ele>13.753</ele>
        <time>2021-10-15T10:36:19Z</time>
      </trkpt>
      <trkpt lat="43.342411" lon="-5.131901">
        <ele>13.591</ele>
        <time>2021-10-15T10:36:20Z</time>
      </trkpt>
      <trkpt lat="43.341990" lon="-5.131965">
        <ele>13.795</ele>
        <time>2021-10-15T10:36:22Z</time>
      </trkpt>
      <trkpt lat="43.341771" lon="-5.131993">
        <ele>13.750</ele>
        <time>2021-10-15T10:36:23Z</time>
      </trkpt>
      <trkpt lat="43.341336" lon="-5.132056">
        <ele>14.088</ele>
        <time>2021-10-15T10:36:25Z</time>
      </trkpt>
      <trkpt lat="43.341111" lon="-5.132088">
        <ele>13.731</ele>
        <time>2021-10-15T10:36:26Z</time>
      </trkpt>
      <trkpt lat="43.340683" lon="-5.132162">
        <ele>13.256</ele>
        <time>2021-10-15T10:36:28Z</time>
      </trkpt>
      <trkpt lat="43.340253" lon="-5.132276">
        <ele>13.567</ele>
        <time>2021-10-15T10:36:30Z</time>
      </trkpt>
      <trkpt lat="43.339814" lon="-5.132404">
        <ele>13.481</ele>
        <time>2021-10-15T10:36:32Z</time>
      </trkpt>
      <trkpt lat="43.339390" lon="-5.132533">
        <ele>13.819</ele>
        <time>2021-10-15T10:36:34Z</time>
      </trkpt>
      <trkpt lat="43.339174" lon="-5.132593">
        <ele>13.608</ele>
        <time>2021-10-15T10:36:35Z</time>
      </trkpt>
      <trkpt lat="43.338746" lon="-5.132716">
        <ele>12.384</ele>
        <time>2021-10-15T10:36:37Z</time>
      </trkpt>
      <trkpt lat="43.338525" lon="-5.132780">
        <ele>12.172</ele>
        <time>2021-10-15T10:36:38Z</time>
      </trkpt>
      <trkpt lat="43.338105" lon="-5.132900">
        <ele>12.010</ele>
        <time>2021-10-15T10:36:40Z</time>
      </trkpt>
      <trkpt lat="43.337675" lon="-5.133024">
        <ele>12.174</ele>
        <time>2021-10-15T10:36:42Z</time>
      </trkpt>
      <trkpt lat="43.337462" lon="-5.133085">
        <ele>12.279</ele>
        <time>2021-10-15T10:36:43Z</time>
      </trkpt>
      <trkpt lat="43.337246" lon="-5.133147">
        <ele>12.187</ele>
        <time>2021-10-15T10:36:44Z</time>
      </trkpt>
      <trkpt lat="43.336828" lon="-5.133273">
        <ele>13.270</ele>
        <time>2021-10-15T10:36:46Z</time>
      </trkpt>
      <trkpt lat="43.336612" lon="-5.133338">
        <ele>13.315</ele>
        <time>2021-10-15T10:36:47Z</time>
      </trkpt>
      <trkpt lat="43.336394" lon="-5.133398">
        <ele>13.739</ele>
        <time>2021-10-15T10:36:48Z</time>
      </trkpt>
      <trkpt lat="43.335951" lon="-5.133510">
        <ele>15.501</ele>
        <time>2021-10-15T10:36:50Z</time>
      </trkpt>
      <trkpt lat="43.335533" lon="-5.133623">
        <ele>15.821</ele>
        <time>2021-10-15T10:36:52Z</time>
      </trkpt>
      <trkpt lat="43.335102" lon="-5.133746">
        <ele>16.608</ele>
        <time>2021-10-15T10:36:54Z</time>
      </trkpt>
      <trkpt lat="43.334680" lon="-5.133906">
        <ele>18.241</ele>
        <time>2021-10-15T10:36:56Z</time>
      </trkpt>
      <trkpt lat="43.334294" lon="-5.134130">
        <ele>19.689</ele>
        <time>2021-10-15T10:36:58Z</time>
      </trkpt>
      <trkpt lat="43.333903" lon="-5.134437">
        <ele>19.657</ele>
        <time>2021-10-15T10:37:00Z</time>
      </trkpt>
      <trkpt lat="43.333701" lon="-5.134607">
        <ele>20.231</ele>
        <time>2021-10-15T10:37:01Z</time>
      </trkpt>
      <trkpt lat="43.333490" lon="-5.134783">
        <ele>20.456</ele>
        <time>2021-10-15T10:37:02Z</time>
      </trkpt>
      <trkpt lat="43.333090" lon="-5.135115">
        <ele>20.654</ele>
        <time>2021-10-15T10:37:04Z</time>
      </trkpt>
      <trkpt lat="43.332887" lon="-5.135281">
        <ele>20.737</ele>
        <time>2021-10-15T10:37:05Z</time>
      </trkpt>
      <trkpt lat="43.332493" lon="-5.135602">
        <ele>20.922</ele>
        <time>2021-10-15T10:37:07Z</time>
      </trkpt>
      <trkpt lat="43.332292" lon="-5.135764">
        <ele>20.822</ele>
        <time>2021-10-15T10:37:08Z</time>
      </trkpt>
      <trkpt lat="43.331908" lon="-5.136070">
        <ele>20.262</ele>
        <time>2021-10-15T10:37:10Z</time>
      </trkpt>
      <trkpt lat="43.331524" lon="-5.136372">
        <ele>20.008</ele>
        <time>2021-10-15T10:37:12Z</time>
      </trkpt>
      <trkpt lat="43.331164" lon="-5.136656">
        <ele>20.508</ele>
        <time>2021-10-15T10:37:14Z</time>
      </trkpt>
      <trkpt lat="43.330824" lon="-5.136929">
        <ele>20.840</ele>
        <time>2021-10-15T10:37:16Z</time>
      </trkpt>
      <trkpt lat="43.330483" lon="-5.137203">
        <ele>21.878</ele>
        <time>2021-10-15T10:37:18Z</time>
      </trkpt>
      <trkpt lat="43.330173" lon="-5.137452">
        <ele>22.826</ele>
        <time>2021-10-15T10:37:20Z</time>
      </trkpt>
      <trkpt lat="43.329884" lon="-5.137687">
        <ele>24.170</ele>
        <time>2021-10-15T10:37:22Z</time>
      </trkpt>
      <trkpt lat="43.329731" lon="-5.137806">
        <ele>24.175</ele>
        <time>2021-10-15T10:37:23Z</time>
      </trkpt>
      <trkpt lat="43.329578" lon="-5.137929">
        <ele>24.843</ele>
        <time>2021-10-15T10:37:24Z</time>
      </trkpt>
      <trkpt lat="43.329261" lon="-5.138183">
        <ele>24.776</ele>
        <time>2021-10-15T10:37:26Z</time>
      </trkpt>
      <trkpt lat="43.328954" lon="-5.138389">
        <ele>25.671</ele>
        <time>2021-10-15T10:37:28Z</time>
      </trkpt>
      <trkpt lat="43.328783" lon="-5.138463">
        <ele>26.177</ele>
        <time>2021-10-15T10:37:29Z</time>
      </trkpt>
      <trkpt lat="43.328608" lon="-5.138517">
        <ele>26.461</ele>
        <time>2021-10-15T10:37:30Z</time>
      </trkpt>
      <trkpt lat="43.328429" lon="-5.138560">
        <ele>26.427</ele>
        <time>2021-10-15T10:37:31Z</time>
      </trkpt>
      <trkpt lat="43.328247" lon="-5.138605">
        <ele>26.308</ele>
        <time>2021-10-15T10:37:32Z</time>
      </trkpt>
      <trkpt lat="43.327904" lon="-5.138711">
        <ele>26.925</ele>
        <time>2021-10-15T10:37:34Z</time>
      </trkpt>
      <trkpt lat="43.327555" lon="-5.138833">
        <ele>27.293</ele>
        <time>2021-10-15T10:37:36Z</time>
      </trkpt>
      <trkpt lat="43.327201" lon="-5.138954">
        <ele>27.861</ele>
        <time>2021-10-15T10:37:38Z</time>
      </trkpt>
      <trkpt lat="43.326858" lon="-5.139053">
        <ele>28.825</ele>
        <time>2021-10-15T10:37:40Z</time>
      </trkpt>
      <trkpt lat="43.326680" lon="-5.139095">
        <ele>29.860</ele>
        <time>2021-10-15T10:37:41Z</time>
      </trkpt>
      <trkpt lat="43.326317" lon="-5.139130">
        <ele>31.198</ele>
        <time>2021-10-15T10:37:43Z</time>
      </trkpt>
      <trkpt lat="43.326130" lon="-5.139108">
        <ele>31.631</ele>
        <time>2021-10-15T10:37:44Z</time>
      </trkpt>
      <trkpt lat="43.325766" lon="-5.138996">
        <ele>32.286</ele>
        <time>2021-10-15T10:37:46Z</time>
      </trkpt>
      <trkpt lat="43.325582" lon="-5.138936">
        <ele>33.539</ele>
        <time>2021-10-15T10:37:47Z</time>
      </trkpt>
      <trkpt lat="43.325399" lon="-5.138883">
        <ele>34.401</ele>
        <time>2021-10-15T10:37:48Z</time>
      </trkpt>
      <trkpt lat="43.325073" lon="-5.138748">
        <ele>35.521</ele>
        <time>2021-10-15T10:37:50Z</time>
      </trkpt>
      <trkpt lat="43.324823" lon="-5.138504">
        <ele>35.908</ele>
        <time>2021-10-15T10:37:52Z</time>
      </trkpt>
      <trkpt lat="43.324712" lon="-5.138333">
        <ele>36.211</ele>
        <time>2021-10-15T10:37:53Z</time>
      </trkpt>
      <trkpt lat="43.324544" lon="-5.137933">
        <ele>36.799</ele>
        <time>2021-10-15T10:37:55Z</time>
      </trkpt>
      <trkpt lat="43.324483" lon="-5.137699">
        <ele>36.267</ele>
        <time>2021-10-15T10:37:56Z</time>
      </trkpt>
      <trkpt lat="43.324434" lon="-5.137227">
        <ele>36.421</ele>
        <time>2021-10-15T10:37:58Z</time>
      </trkpt>
      <trkpt lat="43.324450" lon="-5.136977">
        <ele>35.986</ele>
        <time>2021-10-15T10:37:59Z</time>
      </trkpt>
      <trkpt lat="43.324527" lon="-5.136476">
        <ele>35.664</ele>
        <time>2021-10-15T10:38:01Z</time>
      </trkpt>
      <trkpt lat="43.324557" lon="-5.136214">
        <ele>35.377</ele>
        <time>2021-10-15T10:38:02Z</time>
      </trkpt>
      <trkpt lat="43.324579" lon="-5.135708">
        <ele>35.612</ele>
        <time>2021-10-15T10:38:04Z</time>
      </trkpt>
      <trkpt lat="43.324591" lon="-5.135190">
        <ele>34.781</ele>
        <time>2021-10-15T10:38:06Z</time>
      </trkpt>
      <trkpt lat="43.324611" lon="-5.134938">
        <ele>34.761</ele>
        <time>2021-10-15T10:38:07Z</time>
      </trkpt>
      <trkpt lat="43.324647" lon="-5.134675">
        <ele>34.117</ele>
        <time>2021-10-15T10:38:08Z</time>
      </trkpt>
      <trkpt lat="43.324749" lon="-5.134170">
        <ele>32.808</ele>
        <time>2021-10-15T10:38:10Z</time>
      </trkpt>
      <trkpt lat="43.324888" lon="-5.133656">
        <ele>31.266</ele>
        <time>2021-10-15T10:38:12Z</time>
      </trkpt>
      <trkpt lat="43.324965" lon="-5.133400">
        <ele>30.364</ele>
        <time>2021-10-15T10:38:13Z</time>
      </trkpt>
      <trkpt lat="43.325043" lon="-5.133151">
        <ele>30.072</ele>
        <time>2021-10-15T10:38:14Z</time>
      </trkpt>
      <trkpt lat="43.325195" lon="-5.132712">
        <ele>29.056</ele>
        <time>2021-10-15T10:38:16Z</time>
      </trkpt>
      <trkpt lat="43.325313" lon="-5.132290">
        <ele>28.791</ele>
        <time>2021-10-15T10:38:18Z</time>
      </trkpt>
      <trkpt lat="43.325358" lon="-5.131835">
        <ele>27.699</ele>
        <time>2021-10-15T10:38:20Z</time>
      </trkpt>
      <trkpt lat="43.325281" lon="-5.131388">
        <ele>26.882</ele>
        <time>2021-10-15T10:38:22Z</time>
      </trkpt>
      <trkpt lat="43.325187" lon="-5.131172">
        <ele>26.857</ele>
        <time>2021-10-15T10:38:23Z</time>
      </trkpt>
      <trkpt lat="43.324902" lon="-5.130805">
        <ele>26.152</ele>
        <time>2021-10-15T10:38:25Z</time>
      </trkpt>
      <trkpt lat="43.324722" lon="-5.130673">
        <ele>25.853</ele>
        <time>2021-10-15T10:38:26Z</time>
      </trkpt>
      <trkpt lat="43.324326" lon="-5.130548">
        <ele>26.308</ele>
        <time>2021-10-15T10:38:28Z</time>
      </trkpt>
      <trkpt lat="43.324118" lon="-5.130558">
        <ele>25.608</ele>
        <time>2021-10-15T10:38:29Z</time>
      </trkpt>
      <trkpt lat="43.323718" lon="-5.130727">
        <ele>24.813</ele>
        <time>2021-10-15T10:38:31Z</time>
      </trkpt>
      <trkpt lat="43.323519" lon="-5.130879">
        <ele>23.921</ele>
        <time>2021-10-15T10:38:32Z</time>
      </trkpt>
      <trkpt lat="43.323126" lon="-5.131256">
        <ele>24.659</ele>
        <time>2021-10-15T10:38:34Z</time>
      </trkpt>
      <trkpt lat="43.322910" lon="-5.131461">
        <ele>24.943</ele>
        <time>2021-10-15T10:38:35Z</time>
      </trkpt>
      <trkpt lat="43.322697" lon="-5.131651">
        <ele>25.998</ele>
        <time>2021-10-15T10:38:36Z</time>
      </trkpt>
      <trkpt lat="43.322268" lon="-5.132020">
        <ele>26.386</ele>
        <time>2021-10-15T10:38:38Z</time>
      </trkpt>
      <trkpt lat="43.321863" lon="-5.132361">
        <ele>27.919</ele>
        <time>2021-10-15T10:38:40Z</time>
      </trkpt>
      <trkpt lat="43.321497" lon="-5.132661">
        <ele>29.084</ele>
        <time>2021-10-15T10:38:42Z</time>
      </trkpt>
      <trkpt lat="43.321323" lon="-5.132806">
        <ele>30.239</ele>
        <time>2021-10-15T10:38:43Z</time>
      </trkpt>
      <trkpt lat="43.321153" lon="-5.132944">
        <ele>31.401</ele>
        <time>2021-10-15T10:38:44Z</time>
      </trkpt>
      <trkpt lat="43.320848" lon="-5.133179">
        <ele>34.121</ele>
        <time>2021-10-15T10:38:46Z</time>
      </trkpt>
      <trkpt lat="43.320701" lon="-5.133289">
        <ele>35.808</ele>
        <time>2021-10-15T10:38:47Z</time>
      </trkpt>
      <trkpt lat="43.320414" lon="-5.133508">
        <ele>38.091</ele>
        <time>2021-10-15T10:38:49Z</time>
      </trkpt>
      <trkpt lat="43.320266" lon="-5.133620">
        <ele>38.699</ele>
        <time>2021-10-15T10:38:50Z</time>
      </trkpt>
      <trkpt lat="43.319983" lon="-5.133817">
        <ele>40.057</ele>
        <time>2021-10-15T10:38:52Z</time>
      </trkpt>
      <trkpt lat="43.319707" lon="-5.133919">
        <ele>41.331</ele>
        <time>2021-10-15T10:38:54Z</time>
      </trkpt>
      <trkpt lat="43.319575" lon="-5.133904">
        <ele>41.236</ele>
        <time>2021-10-15T10:38:55Z</time>
      </trkpt>
      <trkpt lat="43.319442" lon="-5.133839">
        <ele>41.144</ele>
        <time>2021-10-15T10:38:56Z</time>
      </trkpt>
      <trkpt lat="43.319231" lon="-5.133568">
        <ele>40.617</ele>
        <time>2021-10-15T10:38:58Z</time>
      </trkpt>
      <trkpt lat="43.319151" lon="-5.133363">
        <ele>40.552</ele>
        <time>2021-10-15T10:38:59Z</time>
      </trkpt>
      <trkpt lat="43.319091" lon="-5.133124">
        <ele>39.984</ele>
        <time>2021-10-15T10:39:00Z</time>
      </trkpt>
      <trkpt lat="43.319045" lon="-5.132872">
        <ele>38.807</ele>
        <time>2021-10-15T10:39:01Z</time>
      </trkpt>
      <trkpt lat="43.318997" lon="-5.132610">
        <ele>39.117</ele>
        <time>2021-10-15T10:39:02Z</time>
      </trkpt>
      <trkpt lat="43.318893" lon="-5.132115">
        <ele>38.508</ele>
        <time>2021-10-15T10:39:04Z</time>
      </trkpt>
      <trkpt lat="43.318838" lon="-5.131865">
        <ele>39.576</ele>
        <time>2021-10-15T10:39:05Z</time>
      </trkpt>
      <trkpt lat="43.318784" lon="-5.131614">
        <ele>40.274</ele>
        <time>2021-10-15T10:39:06Z</time>
      </trkpt>
      <trkpt lat="43.318683" lon="-5.131164">
        <ele>40.832</ele>
        <time>2021-10-15T10:39:08Z</time>
      </trkpt>
      <trkpt lat="43.318574" lon="-5.130771">
        <ele>41.776</ele>
        <time>2021-10-15T10:39:10Z</time>
      </trkpt>
      <trkpt lat="43.318411" lon="-5.130398">
        <ele>43.281</ele>
        <time>2021-10-15T10:39:12Z</time>
      </trkpt>
      <trkpt lat="43.318161" lon="-5.130083">
        <ele>45.379</ele>
        <time>2021-10-15T10:39:14Z</time>
      </trkpt>
      <trkpt lat="43.317845" lon="-5.129880">
        <ele>45.322</ele>
        <time>2021-10-15T10:39:16Z</time>
      </trkpt>
      <trkpt lat="43.317666" lon="-5.129816">
        <ele>45.077</ele>
        <time>2021-10-15T10:39:17Z</time>
      </trkpt>
      <trkpt lat="43.317306" lon="-5.129761">
        <ele>44.092</ele>
        <time>2021-10-15T10:39:19Z</time>
      </trkpt>
      <trkpt lat="43.317117" lon="-5.129767">
        <ele>44.473</ele>
        <time>2021-10-15T10:39:20Z</time>
      </trkpt>
      <trkpt lat="43.316744" lon="-5.129831">
        <ele>43.920</ele>
        <time>2021-10-15T10:39:22Z</time>
      </trkpt>
      <trkpt lat="43.316358" lon="-5.129897">
        <ele>43.908</ele>
        <time>2021-10-15T10:39:24Z</time>
      </trkpt>
      <trkpt lat="43.315954" lon="-5.129961">
        <ele>43.617</ele>
        <time>2021-10-15T10:39:26Z</time>
      </trkpt>
      <trkpt lat="43.315564" lon="-5.129997">
        <ele>44.345</ele>
        <time>2021-10-15T10:39:28Z</time>
      </trkpt>
      <trkpt lat="43.315359" lon="-5.130015">
        <ele>44.353</ele>
        <time>2021-10-15T10:39:29Z</time>
      </trkpt>
      <trkpt lat="43.314943" lon="-5.130061">
        <ele>45.357</ele>
        <time>2021-10-15T10:39:31Z</time>
      </trkpt>
      <trkpt lat="43.314724" lon="-5.130085">
        <ele>45.642</ele>
        <time>2021-10-15T10:39:32Z</time>
      </trkpt>
      <trkpt lat="43.314307" lon="-5.130125">
        <ele>45.340</ele>
        <time>2021-10-15T10:39:34Z</time>
      </trkpt>
      <trkpt lat="43.314089" lon="-5.130145">
        <ele>45.483</ele>
        <time>2021-10-15T10:39:35Z</time>
      </trkpt>
      <trkpt lat="43.313871" lon="-5.130164">
        <ele>45.468</ele>
        <time>2021-10-15T10:39:36Z</time>
      </trkpt>
      <trkpt lat="43.313463" lon="-5.130200">
        <ele>47.262</ele>
        <time>2021-10-15T10:39:38Z</time>
      </trkpt>
      <trkpt lat="43.313097" lon="-5.130229">
        <ele>48.583</ele>
        <time>2021-10-15T10:39:40Z</time>
      </trkpt>
      <trkpt lat="43.312726" lon="-5.130261">
        <ele>49.611</ele>
        <time>2021-10-15T10:39:42Z</time>
      </trkpt>
      <trkpt lat="43.312341" lon="-5.130299">
        <ele>51.108</ele>
        <time>2021-10-15T10:39:44Z</time>
      </trkpt>
      <trkpt lat="43.311957" lon="-5.130338">
        <ele>53.134</ele>
        <time>2021-10-15T10:39:46Z</time>
      </trkpt>
      <trkpt lat="43.311556" lon="-5.130382">
        <ele>53.872</ele>
        <time>2021-10-15T10:39:48Z</time>
      </trkpt>
      <trkpt lat="43.311132" lon="-5.130417">
        <ele>54.310</ele>
        <time>2021-10-15T10:39:50Z</time>
      </trkpt>
      <trkpt lat="43.310699" lon="-5.130402">
        <ele>54.134</ele>
        <time>2021-10-15T10:39:52Z</time>
      </trkpt>
      <trkpt lat="43.310232" lon="-5.130329">
        <ele>53.429</ele>
        <time>2021-10-15T10:39:54Z</time>
      </trkpt>
      <trkpt lat="43.309752" lon="-5.130230">
        <ele>52.487</ele>
        <time>2021-10-15T10:39:56Z</time>
      </trkpt>
      <trkpt lat="43.309285" lon="-5.130139">
        <ele>51.540</ele>
        <time>2021-10-15T10:39:58Z</time>
      </trkpt>
      <trkpt lat="43.309039" lon="-5.130108">
        <ele>50.715</ele>
        <time>2021-10-15T10:39:59Z</time>
      </trkpt>
      <trkpt lat="43.308794" lon="-5.130104">
        <ele>50.291</ele>
        <time>2021-10-15T10:40:00Z</time>
      </trkpt>
      <trkpt lat="43.308316" lon="-5.130172">
        <ele>50.381</ele>
        <time>2021-10-15T10:40:02Z</time>
      </trkpt>
      <trkpt lat="43.307891" lon="-5.130286">
        <ele>48.119</ele>
        <time>2021-10-15T10:40:04Z</time>
      </trkpt>
      <trkpt lat="43.307475" lon="-5.130401">
        <ele>47.808</ele>
        <time>2021-10-15T10:40:06Z</time>
      </trkpt>
      <trkpt lat="43.307066" lon="-5.130486">
        <ele>47.367</ele>
        <time>2021-10-15T10:40:08Z</time>
      </trkpt>
      <trkpt lat="43.306711" lon="-5.130538">
        <ele>46.575</ele>
        <time>2021-10-15T10:40:10Z</time>
      </trkpt>
      <trkpt lat="43.306546" lon="-5.130572">
        <ele>46.513</ele>
        <time>2021-10-15T10:40:11Z</time>
      </trkpt>
      <trkpt lat="43.306251" lon="-5.130706">
        <ele>46.757</ele>
        <time>2021-10-15T10:40:13Z</time>
      </trkpt>
      <trkpt lat="43.306111" lon="-5.130801">
        <ele>47.182</ele>
        <time>2021-10-15T10:40:14Z</time>
      </trkpt>
      <trkpt lat="43.305851" lon="-5.130946">
        <ele>45.710</ele>
        <time>2021-10-15T10:40:16Z</time>
      </trkpt>
      <trkpt lat="43.305598" lon="-5.131024">
        <ele>46.293</ele>
        <time>2021-10-15T10:40:18Z</time>
      </trkpt>
      <trkpt lat="43.305368" lon="-5.131087">
        <ele>44.718</ele>
        <time>2021-10-15T10:40:20Z</time>
      </trkpt>
      <trkpt lat="43.305162" lon="-5.131165">
        <ele>43.674</ele>
        <time>2021-10-15T10:40:22Z</time>
      </trkpt>
      <trkpt lat="43.305052" lon="-5.131227">
        <ele>43.456</ele>
        <time>2021-10-15T10:40:23Z</time>
      </trkpt>
      <trkpt lat="43.304944" lon="-5.131307">
        <ele>43.421</ele>
        <time>2021-10-15T10:40:24Z</time>
      </trkpt>
      <trkpt lat="43.304728" lon="-5.131496">
        <ele>43.408</ele>
        <time>2021-10-15T10:40:26Z</time>
      </trkpt>
      <trkpt lat="43.304525" lon="-5.131702">
        <ele>42.755</ele>
        <time>2021-10-15T10:40:28Z</time>
      </trkpt>
      <trkpt lat="43.304424" lon="-5.131827">
        <ele>42.733</ele>
        <time>2021-10-15T10:40:29Z</time>
      </trkpt>
      <trkpt lat="43.304332" lon="-5.131977">
        <ele>42.881</ele>
        <time>2021-10-15T10:40:30Z</time>
      </trkpt>
      <trkpt lat="43.304167" lon="-5.132306">
        <ele>42.035</ele>
        <time>2021-10-15T10:40:32Z</time>
      </trkpt>
      <trkpt lat="43.304021" lon="-5.132554">
        <ele>43.280</ele>
        <time>2021-10-15T10:40:34Z</time>
      </trkpt>
      <trkpt lat="43.303852" lon="-5.132739">
        <ele>44.188</ele>
        <time>2021-10-15T10:40:36Z</time>
      </trkpt>
      <trkpt lat="43.303624" lon="-5.132853">
        <ele>44.781</ele>
        <time>2021-10-15T10:40:38Z</time>
      </trkpt>
      <trkpt lat="43.303361" lon="-5.132843">
        <ele>45.516</ele>
        <time>2021-10-15T10:40:40Z</time>
      </trkpt>
      <trkpt lat="43.303227" lon="-5.132779">
        <ele>45.661</ele>
        <time>2021-10-15T10:40:41Z</time>
      </trkpt>
      <trkpt lat="43.303112" lon="-5.132682">
        <ele>45.421</ele>
        <time>2021-10-15T10:40:42Z</time>
      </trkpt>
      <trkpt lat="43.302966" lon="-5.132462">
        <ele>45.513</ele>
        <time>2021-10-15T10:40:44Z</time>
      </trkpt>
      <trkpt lat="43.302880" lon="-5.132222">
        <ele>46.108</ele>
        <time>2021-10-15T10:40:46Z</time>
      </trkpt>
      <trkpt lat="43.302822" lon="-5.131980">
        <ele>46.174</ele>
        <time>2021-10-15T10:40:48Z</time>
      </trkpt>
      <trkpt lat="43.302798" lon="-5.131839">
        <ele>46.292</ele>
        <time>2021-10-15T10:40:49Z</time>
      </trkpt>
      <trkpt lat="43.302773" lon="-5.131678">
        <ele>46.240</ele>
        <time>2021-10-15T10:40:50Z</time>
      </trkpt>
      <trkpt lat="43.302721" lon="-5.131338">
        <ele>46.534</ele>
        <time>2021-10-15T10:40:52Z</time>
      </trkpt>
      <trkpt lat="43.302626" lon="-5.131023">
        <ele>46.579</ele>
        <time>2021-10-15T10:40:54Z</time>
      </trkpt>
      <trkpt lat="43.302440" lon="-5.130749">
        <ele>47.587</ele>
        <time>2021-10-15T10:40:56Z</time>
      </trkpt>
      <trkpt lat="43.302166" lon="-5.130580">
        <ele>48.430</ele>
        <time>2021-10-15T10:40:58Z</time>
      </trkpt>
      <trkpt lat="43.301876" lon="-5.130571">
        <ele>49.535</ele>
        <time>2021-10-15T10:41:00Z</time>
      </trkpt>
      <trkpt lat="43.301579" lon="-5.130714">
        <ele>50.369</ele>
        <time>2021-10-15T10:41:02Z</time>
      </trkpt>
      <trkpt lat="43.301283" lon="-5.130967">
        <ele>50.404</ele>
        <time>2021-10-15T10:41:04Z</time>
      </trkpt>
      <trkpt lat="43.301117" lon="-5.131129">
        <ele>51.024</ele>
        <time>2021-10-15T10:41:05Z</time>
      </trkpt>
      <trkpt lat="43.300767" lon="-5.131463">
        <ele>51.208</ele>
        <time>2021-10-15T10:41:07Z</time>
      </trkpt>
      <trkpt lat="43.300591" lon="-5.131626">
        <ele>52.364</ele>
        <time>2021-10-15T10:41:08Z</time>
      </trkpt>
      <trkpt lat="43.300300" lon="-5.131894">
        <ele>52.322</ele>
        <time>2021-10-15T10:41:10Z</time>
      </trkpt>
      <trkpt lat="43.300155" lon="-5.132028">
        <ele>52.520</ele>
        <time>2021-10-15T10:41:11Z</time>
      </trkpt>
      <trkpt lat="43.299874" lon="-5.132292">
        <ele>53.244</ele>
        <time>2021-10-15T10:41:13Z</time>
      </trkpt>
      <trkpt lat="43.299728" lon="-5.132403">
        <ele>53.519</ele>
        <time>2021-10-15T10:41:14Z</time>
      </trkpt>
      <trkpt lat="43.299423" lon="-5.132546">
        <ele>53.837</ele>
        <time>2021-10-15T10:41:16Z</time>
      </trkpt>
      <trkpt lat="43.299246" lon="-5.132582">
        <ele>54.270</ele>
        <time>2021-10-15T10:41:17Z</time>
      </trkpt>
      <trkpt lat="43.298864" lon="-5.132552">
        <ele>52.835</ele>
        <time>2021-10-15T10:41:19Z</time>
      </trkpt>
      <trkpt lat="43.298661" lon="-5.132494">
        <ele>53.366</ele>
        <time>2021-10-15T10:41:20Z</time>
      </trkpt>
      <trkpt lat="43.298284" lon="-5.132384">
        <ele>53.129</ele>
        <time>2021-10-15T10:41:22Z</time>
      </trkpt>
      <trkpt lat="43.298087" lon="-5.132358">
        <ele>52.921</ele>
        <time>2021-10-15T10:41:23Z</time>
      </trkpt>
      <trkpt lat="43.297888" lon="-5.132365">
        <ele>52.508</ele>
        <time>2021-10-15T10:41:24Z</time>
      </trkpt>
      <trkpt lat="43.297475" lon="-5.132448">
        <ele>53.224</ele>
        <time>2021-10-15T10:41:26Z</time>
      </trkpt>
      <trkpt lat="43.297065" lon="-5.132538">
        <ele>53.062</ele>
        <time>2021-10-15T10:41:28Z</time>
      </trkpt>
      <trkpt lat="43.296850" lon="-5.132574">
        <ele>52.460</ele>
        <time>2021-10-15T10:41:29Z</time>
      </trkpt>
      <trkpt lat="43.296442" lon="-5.132648">
        <ele>52.184</ele>
        <time>2021-10-15T10:41:31Z</time>
      </trkpt>
      <trkpt lat="43.296246" lon="-5.132706">
        <ele>51.769</ele>
        <time>2021-10-15T10:41:32Z</time>
      </trkpt>
      <trkpt lat="43.295951" lon="-5.132905">
        <ele>51.557</ele>
        <time>2021-10-15T10:41:34Z</time>
      </trkpt>
      <trkpt lat="43.295831" lon="-5.133068">
        <ele>51.220</ele>
        <time>2021-10-15T10:41:35Z</time>
      </trkpt>
      <trkpt lat="43.295659" lon="-5.133477">
        <ele>50.275</ele>
        <time>2021-10-15T10:41:37Z</time>
      </trkpt>
      <trkpt lat="43.295596" lon="-5.133732">
        <ele>49.799</ele>
        <time>2021-10-15T10:41:38Z</time>
      </trkpt>
      <trkpt lat="43.295492" lon="-5.134259">
        <ele>48.907</ele>
        <time>2021-10-15T10:41:40Z</time>
      </trkpt>
      <trkpt lat="43.295361" lon="-5.134831">
        <ele>48.827</ele>
        <time>2021-10-15T10:41:42Z</time>
      </trkpt>
      <trkpt lat="43.295291" lon="-5.135122">
        <ele>48.808</ele>
        <time>2021-10-15T10:41:43Z</time>
      </trkpt>
      <trkpt lat="43.295222" lon="-5.135416">
        <ele>49.017</ele>
        <time>2021-10-15T10:41:44Z</time>
      </trkpt>
      <trkpt lat="43.295086" lon="-5.135966">
        <ele>49.615</ele>
        <time>2021-10-15T10:41:46Z</time>
      </trkpt>
      <trkpt lat="43.295008" lon="-5.136247">
        <ele>50.083</ele>
        <time>2021-10-15T10:41:47Z</time>
      </trkpt>
      <trkpt lat="43.294810" lon="-5.136782">
        <ele>50.997</ele>
        <time>2021-10-15T10:41:49Z</time>
      </trkpt>
      <trkpt lat="43.294688" lon="-5.137027">
        <ele>52.162</ele>
        <time>2021-10-15T10:41:50Z</time>
      </trkpt>
      <trkpt lat="43.294465" lon="-5.137388">
        <ele>51.920</ele>
        <time>2021-10-15T10:41:52Z</time>
      </trkpt>
      <trkpt lat="43.294207" lon="-5.137641">
        <ele>54.663</ele>
        <time>2021-10-15T10:41:54Z</time>
      </trkpt>
      <trkpt lat="43.293909" lon="-5.137743">
        <ele>56.128</ele>
        <time>2021-10-15T10:41:56Z</time>
      </trkpt>
      <trkpt lat="43.293579" lon="-5.137723">
        <ele>58.213</ele>
        <time>2021-10-15T10:41:58Z</time>
      </trkpt>
      <trkpt lat="43.293219" lon="-5.137543">
        <ele>60.743</ele>
        <time>2021-10-15T10:42:00Z</time>
      </trkpt>
      <trkpt lat="43.292874" lon="-5.137223">
        <ele>63.307</ele>
        <time>2021-10-15T10:42:02Z</time>
      </trkpt>
      <trkpt lat="43.292572" lon="-5.136893">
        <ele>63.708</ele>
        <time>2021-10-15T10:42:04Z</time>
      </trkpt>
      <trkpt lat="43.292433" lon="-5.136739">
        <ele>64.589</ele>
        <time>2021-10-15T10:42:05Z</time>
      </trkpt>
      <trkpt lat="43.292210" lon="-5.136359">
        <ele>65.177</ele>
        <time>2021-10-15T10:42:07Z</time>
      </trkpt>
      <trkpt lat="43.292128" lon="-5.136115">
        <ele>65.745</ele>
        <time>2021-10-15T10:42:08Z</time>
      </trkpt>
      <trkpt lat="43.292010" lon="-5.135579">
        <ele>65.979</ele>
        <time>2021-10-15T10:42:10Z</time>
      </trkpt>
      <trkpt lat="43.291899" lon="-5.135040">
        <ele>66.114</ele>
        <time>2021-10-15T10:42:12Z</time>
      </trkpt>
      <trkpt lat="43.291757" lon="-5.134568">
        <ele>67.632</ele>
        <time>2021-10-15T10:42:14Z</time>
      </trkpt>
      <trkpt lat="43.291533" lon="-5.134236">
        <ele>68.025</ele>
        <time>2021-10-15T10:42:16Z</time>
      </trkpt>
      <trkpt lat="43.291204" lon="-5.134053">
        <ele>69.380</ele>
        <time>2021-10-15T10:42:18Z</time>
      </trkpt>
      <trkpt lat="43.291005" lon="-5.134000">
        <ele>69.426</ele>
        <time>2021-10-15T10:42:19Z</time>
      </trkpt>
      <trkpt lat="43.290786" lon="-5.133950">
        <ele>69.547</ele>
        <time>2021-10-15T10:42:20Z</time>
      </trkpt>
      <trkpt lat="43.290362" lon="-5.133855">
        <ele>69.611</ele>
        <time>2021-10-15T10:42:22Z</time>
      </trkpt>
      <trkpt lat="43.289962" lon="-5.133864">
        <ele>69.408</ele>
        <time>2021-10-15T10:42:24Z</time>
      </trkpt>
      <trkpt lat="43.289763" lon="-5.133918">
        <ele>68.970</ele>
        <time>2021-10-15T10:42:25Z</time>
      </trkpt>
      <trkpt lat="43.289556" lon="-5.133988">
        <ele>68.688</ele>
        <time>2021-10-15T10:42:26Z</time>
      </trkpt>
      <trkpt lat="43.289121" lon="-5.134119">
        <ele>68.786</ele>
        <time>2021-10-15T10:42:28Z</time>
      </trkpt>
      <trkpt lat="43.288884" lon="-5.134187">
        <ele>68.660</ele>
        <time>2021-10-15T10:42:29Z</time>
      </trkpt>
      <trkpt lat="43.288641" lon="-5.134256">
        <ele>68.455</ele>
        <time>2021-10-15T10:42:30Z</time>
      </trkpt>
      <trkpt lat="43.288157" lon="-5.134382">
        <ele>67.653</ele>
        <time>2021-10-15T10:42:32Z</time>
      </trkpt>
      <trkpt lat="43.287695" lon="-5.134463">
        <ele>67.686</ele>
        <time>2021-10-15T10:42:34Z</time>
      </trkpt>
      <trkpt lat="43.287453" lon="-5.134470">
        <ele>66.881</ele>
        <time>2021-10-15T10:42:35Z</time>
      </trkpt>
      <trkpt lat="43.286982" lon="-5.134393">
        <ele>66.592</ele>
        <time>2021-10-15T10:42:37Z</time>
      </trkpt>
      <trkpt lat="43.286761" lon="-5.134336">
        <ele>66.973</ele>
        <time>2021-10-15T10:42:38Z</time>
      </trkpt>
      <trkpt lat="43.286378" lon="-5.134264">
        <ele>66.320</ele>
        <time>2021-10-15T10:42:40Z</time>
      </trkpt>
      <trkpt lat="43.286019" lon="-5.134274">
        <ele>67.808</ele>
        <time>2021-10-15T10:42:42Z</time>
      </trkpt>
      <trkpt lat="43.285842" lon="-5.134341">
        <ele>68.537</ele>
        <time>2021-10-15T10:42:43Z</time>
      </trkpt>
      <trkpt lat="43.285670" lon="-5.134464">
        <ele>69.495</ele>
        <time>2021-10-15T10:42:44Z</time>
      </trkpt>
      <trkpt lat="43.285357" lon="-5.134803">
        <ele>71.283</ele>
        <time>2021-10-15T10:42:46Z</time>
      </trkpt>
      <trkpt lat="43.285181" lon="-5.134996">
        <ele>71.287</ele>
        <time>2021-10-15T10:42:47Z</time>
      </trkpt>
      <trkpt lat="43.284776" lon="-5.135403">
        <ele>70.782</ele>
        <time>2021-10-15T10:42:49Z</time>
      </trkpt>
      <trkpt lat="43.284563" lon="-5.135601">
        <ele>70.910</ele>
        <time>2021-10-15T10:42:50Z</time>
      </trkpt>
      <trkpt lat="43.284188" lon="-5.135927">
        <ele>70.073</ele>
        <time>2021-10-15T10:42:52Z</time>
      </trkpt>
      <trkpt lat="43.283843" lon="-5.136273">
        <ele>69.828</ele>
        <time>2021-10-15T10:42:54Z</time>
      </trkpt>
      <trkpt lat="43.283679" lon="-5.136457">
        <ele>70.327</ele>
        <time>2021-10-15T10:42:55Z</time>
      </trkpt>
      <trkpt lat="43.283505" lon="-5.136642">
        <ele>70.868</ele>
        <time>2021-10-15T10:42:56Z</time>
      </trkpt>
      <trkpt lat="43.283166" lon="-5.136973">
        <ele>70.714</ele>
        <time>2021-10-15T10:42:58Z</time>
      </trkpt>
      <trkpt lat="43.282825" lon="-5.137296">
        <ele>71.408</ele>
        <time>2021-10-15T10:43:00Z</time>
      </trkpt>
      <trkpt lat="43.282514" lon="-5.137595">
        <ele>72.430</ele>
        <time>2021-10-15T10:43:02Z</time>
      </trkpt>
      <trkpt lat="43.282223" lon="-5.137828">
        <ele>72.228</ele>
        <time>2021-10-15T10:43:04Z</time>
      </trkpt>
      <trkpt lat="43.282057" lon="-5.137910">
        <ele>73.166</ele>
        <time>2021-10-15T10:43:05Z</time>
      </trkpt>
      <trkpt lat="43.281707" lon="-5.137968">
        <ele>72.980</ele>
        <time>2021-10-15T10:43:07Z</time>
      </trkpt>
      <trkpt lat="43.281511" lon="-5.137925">
        <ele>73.125</ele>
        <time>2021-10-15T10:43:08Z</time>
      </trkpt>
      <trkpt lat="43.281111" lon="-5.137682">
        <ele>74.313</ele>
        <time>2021-10-15T10:43:10Z</time>
      </trkpt>
      <trkpt lat="43.280715" lon="-5.137260">
        <ele>74.796</ele>
        <time>2021-10-15T10:43:12Z</time>
      </trkpt>
      <trkpt lat="43.280290" lon="-5.136800">
        <ele>74.811</ele>
        <time>2021-10-15T10:43:14Z</time>
      </trkpt>
      <trkpt lat="43.279888" lon="-5.136380">
        <ele>74.646</ele>
        <time>2021-10-15T10:43:16Z</time>
      </trkpt>
      <trkpt lat="43.279699" lon="-5.136187">
        <ele>74.488</ele>
        <time>2021-10-15T10:43:17Z</time>
      </trkpt>
      <trkpt lat="43.279343" lon="-5.135829">
        <ele>74.416</ele>
        <time>2021-10-15T10:43:19Z</time>
      </trkpt>
      <trkpt lat="43.279180" lon="-5.135667">
        <ele>75.108</ele>
        <time>2021-10-15T10:43:20Z</time>
      </trkpt>
      <trkpt lat="43.278879" lon="-5.135422">
        <ele>74.222</ele>
        <time>2021-10-15T10:43:22Z</time>
      </trkpt>
      <trkpt lat="43.278540" lon="-5.135309">
        <ele>75.650</ele>
        <time>2021-10-15T10:43:24Z</time>
      </trkpt>
      <trkpt lat="43.278372" lon="-5.135286">
        <ele>76.068</ele>
        <time>2021-10-15T10:43:25Z</time>
      </trkpt>
      <trkpt lat="43.278202" lon="-5.135295">
        <ele>75.822</ele>
        <time>2021-10-15T10:43:26Z</time>
      </trkpt>
      <trkpt lat="43.277906" lon="-5.135438">
        <ele>76.197</ele>
        <time>2021-10-15T10:43:28Z</time>
      </trkpt>
      <trkpt lat="43.277779" lon="-5.135564">
        <ele>76.155</ele>
        <time>2021-10-15T10:43:29Z</time>
      </trkpt>
      <trkpt lat="43.277621" lon="-5.135924">
        <ele>75.588</ele>
        <time>2021-10-15T10:43:31Z</time>
      </trkpt>
      <trkpt lat="43.277571" lon="-5.136152">
        <ele>75.023</ele>
        <time>2021-10-15T10:43:32Z</time>
      </trkpt>
      <trkpt lat="43.277447" lon="-5.136598">
        <ele>74.195</ele>
        <time>2021-10-15T10:43:34Z</time>
      </trkpt>
      <trkpt lat="43.277373" lon="-5.136814">
        <ele>74.549</ele>
        <time>2021-10-15T10:43:35Z</time>
      </trkpt>
      <trkpt lat="43.277292" lon="-5.137219">
        <ele>71.823</ele>
        <time>2021-10-15T10:43:37Z</time>
      </trkpt>
      <trkpt lat="43.277264" lon="-5.137391">
        <ele>71.508</ele>
        <time>2021-10-15T10:43:38Z</time>
      </trkpt>
      <trkpt lat="43.277155" lon="-5.137622">
        <ele>72.177</ele>
        <time>2021-10-15T10:43:40Z</time>
      </trkpt>
      <trkpt lat="43.277055" lon="-5.137706">
        <ele>72.125</ele>
        <time>2021-10-15T10:43:41Z</time>
      </trkpt>
      <trkpt lat="43.276812" lon="-5.137872">
        <ele>72.153</ele>
        <time>2021-10-15T10:43:43Z</time>
      </trkpt>
      <trkpt lat="43.276718" lon="-5.138000">
        <ele>72.327</ele>
        <time>2021-10-15T10:43:44Z</time>
      </trkpt>
      <trkpt lat="43.276608" lon="-5.138351">
        <ele>73.532</ele>
        <time>2021-10-15T10:43:46Z</time>
      </trkpt>
      <trkpt lat="43.276536" lon="-5.138837">
        <ele>75.360</ele>
        <time>2021-10-15T10:43:48Z</time>
      </trkpt>
      <trkpt lat="43.276511" lon="-5.139110">
        <ele>75.833</ele>
        <time>2021-10-15T10:43:49Z</time>
      </trkpt>
      <trkpt lat="43.276497" lon="-5.139379">
        <ele>76.198</ele>
        <time>2021-10-15T10:43:50Z</time>
      </trkpt>
      <trkpt lat="43.276518" lon="-5.139889">
        <ele>76.243</ele>
        <time>2021-10-15T10:43:52Z</time>
      </trkpt>
      <trkpt lat="43.276536" lon="-5.140125">
        <ele>76.264</ele>
        <time>2021-10-15T10:43:53Z</time>
      </trkpt>
      <trkpt lat="43.276507" lon="-5.140553">
        <ele>77.510</ele>
        <time>2021-10-15T10:43:55Z</time>
      </trkpt>
      <trkpt lat="43.276450" lon="-5.140755">
        <ele>78.008</ele>
        <time>2021-10-15T10:43:56Z</time>
      </trkpt>
      <trkpt lat="43.276301" lon="-5.141022">
        <ele>78.652</ele>
        <time>2021-10-15T10:43:58Z</time>
      </trkpt>
      <trkpt lat="43.276200" lon="-5.141116">
        <ele>78.340</ele>
        <time>2021-10-15T10:43:59Z</time>
      </trkpt>
      <trkpt lat="43.275938" lon="-5.141211">
        <ele>79.098</ele>
        <time>2021-10-15T10:44:01Z</time>
      </trkpt>
      <trkpt lat="43.275791" lon="-5.141211">
        <ele>80.092</ele>
        <time>2021-10-15T10:44:02Z</time>
      </trkpt>
      <trkpt lat="43.275486" lon="-5.141090">
        <ele>78.727</ele>
        <time>2021-10-15T10:44:04Z</time>
      </trkpt>
      <trkpt lat="43.275159" lon="-5.140985">
        <ele>80.885</ele>
        <time>2021-10-15T10:44:06Z</time>
      </trkpt>
      <trkpt lat="43.274877" lon="-5.141010">
        <ele>81.798</ele>
        <time>2021-10-15T10:44:08Z</time>
      </trkpt>
      <trkpt lat="43.274623" lon="-5.141117">
        <ele>84.093</ele>
        <time>2021-10-15T10:44:10Z</time>
      </trkpt>
      <trkpt lat="43.274487" lon="-5.141185">
        <ele>83.989</ele>
        <time>2021-10-15T10:44:11Z</time>
      </trkpt>
      <trkpt lat="43.274216" lon="-5.141294">
        <ele>86.106</ele>
        <time>2021-10-15T10:44:13Z</time>
      </trkpt>
      <trkpt lat="43.274073" lon="-5.141334">
        <ele>87.326</ele>
        <time>2021-10-15T10:44:14Z</time>
      </trkpt>
      <trkpt lat="43.273828" lon="-5.141411">
        <ele>89.608</ele>
        <time>2021-10-15T10:44:16Z</time>
      </trkpt>
      <trkpt lat="43.273646" lon="-5.141593">
        <ele>90.886</ele>
        <time>2021-10-15T10:44:18Z</time>
      </trkpt>
      <trkpt lat="43.273530" lon="-5.141871">
        <ele>92.044</ele>
        <time>2021-10-15T10:44:20Z</time>
      </trkpt>
      <trkpt lat="43.273433" lon="-5.142105">
        <ele>92.942</ele>
        <time>2021-10-15T10:44:22Z</time>
      </trkpt>
      <trkpt lat="43.273324" lon="-5.142334">
        <ele>92.316</ele>
        <time>2021-10-15T10:44:24Z</time>
      </trkpt>
      <trkpt lat="43.273252" lon="-5.142468">
        <ele>92.351</ele>
        <time>2021-10-15T10:44:25Z</time>
      </trkpt>
      <trkpt lat="43.273184" lon="-5.142629">
        <ele>92.389</ele>
        <time>2021-10-15T10:44:26Z</time>
      </trkpt>
      <trkpt lat="43.273061" lon="-5.142936">
        <ele>93.622</ele>
        <time>2021-10-15T10:44:28Z</time>
      </trkpt>
      <trkpt lat="43.272979" lon="-5.143061">
        <ele>93.637</ele>
        <time>2021-10-15T10:44:29Z</time>
      </trkpt>
      <trkpt lat="43.272762" lon="-5.143218">
        <ele>91.633</ele>
        <time>2021-10-15T10:44:31Z</time>
      </trkpt>
      <trkpt lat="43.272625" lon="-5.143226">
        <ele>91.623</ele>
        <time>2021-10-15T10:44:32Z</time>
      </trkpt>
      <trkpt lat="43.272377" lon="-5.143078">
        <ele>91.615</ele>
        <time>2021-10-15T10:44:34Z</time>
      </trkpt>
      <trkpt lat="43.272269" lon="-5.142931">
        <ele>90.108</ele>
        <time>2021-10-15T10:44:35Z</time>
      </trkpt>
      <trkpt lat="43.272166" lon="-5.142747">
        <ele>89.691</ele>
        <time>2021-10-15T10:44:36Z</time>
      </trkpt>
      <trkpt lat="43.272055" lon="-5.142555">
        <ele>89.669</ele>
        <time>2021-10-15T10:44:37Z</time>
      </trkpt>
      <trkpt lat="43.271933" lon="-5.142368">
        <ele>89.277</ele>
        <time>2021-10-15T10:44:38Z</time>
      </trkpt>
      <trkpt lat="43.271744" lon="-5.142046">
        <ele>87.851</ele>
        <time>2021-10-15T10:44:40Z</time>
      </trkpt>
      <trkpt lat="43.271686" lon="-5.141886">
        <ele>88.356</ele>
        <time>2021-10-15T10:44:41Z</time>
      </trkpt>
      <trkpt lat="43.271681" lon="-5.141551">
        <ele>87.694</ele>
        <time>2021-10-15T10:44:43Z</time>
      </trkpt>
      <trkpt lat="43.271732" lon="-5.141375">
        <ele>87.647</ele>
        <time>2021-10-15T10:44:44Z</time>
      </trkpt>
      <trkpt lat="43.271821" lon="-5.141056">
        <ele>87.292</ele>
        <time>2021-10-15T10:44:46Z</time>
      </trkpt>
      <trkpt lat="43.271774" lon="-5.140812">
        <ele>87.638</ele>
        <time>2021-10-15T10:44:48Z</time>
      </trkpt>
      <trkpt lat="43.271697" lon="-5.140711">
        <ele>88.170</ele>
        <time>2021-10-15T10:44:49Z</time>
      </trkpt>
      <trkpt lat="43.271588" lon="-5.140616">
        <ele>88.117</ele>
        <time>2021-10-15T10:44:50Z</time>
      </trkpt>
      <trkpt lat="43.271323" lon="-5.140400">
        <ele>87.908</ele>
        <time>2021-10-15T10:44:52Z</time>
      </trkpt>
      <trkpt lat="43.271171" lon="-5.140272">
        <ele>88.061</ele>
        <time>2021-10-15T10:44:53Z</time>
      </trkpt>
      <trkpt lat="43.270856" lon="-5.139987">
        <ele>87.839</ele>
        <time>2021-10-15T10:44:55Z</time>
      </trkpt>
      <trkpt lat="43.270687" lon="-5.139835">
        <ele>88.097</ele>
        <time>2021-10-15T10:44:56Z</time>
      </trkpt>
      <trkpt lat="43.270361" lon="-5.139562">
        <ele>87.431</ele>
        <time>2021-10-15T10:44:58Z</time>
      </trkpt>
      <trkpt lat="43.270198" lon="-5.139422">
        <ele>87.636</ele>
        <time>2021-10-15T10:44:59Z</time>
      </trkpt>
      <trkpt lat="43.269882" lon="-5.139137">
        <ele>87.684</ele>
        <time>2021-10-15T10:45:01Z</time>
      </trkpt>
      <trkpt lat="43.269736" lon="-5.138999">
        <ele>87.317</ele>
        <time>2021-10-15T10:45:02Z</time>
      </trkpt>
      <trkpt lat="43.269503" lon="-5.138709">
        <ele>87.532</ele>
        <time>2021-10-15T10:45:04Z</time>
      </trkpt>
      <trkpt lat="43.269397" lon="-5.138531">
        <ele>87.483</ele>
        <time>2021-10-15T10:45:05Z</time>
      </trkpt>
      <trkpt lat="43.269300" lon="-5.138333">
        <ele>87.625</ele>
        <time>2021-10-15T10:45:06Z</time>
      </trkpt>
      <trkpt lat="43.269134" lon="-5.137877">
        <ele>86.417</ele>
        <time>2021-10-15T10:45:08Z</time>
      </trkpt>
      <trkpt lat="43.268982" lon="-5.137400">
        <ele>86.708</ele>
        <time>2021-10-15T10:45:10Z</time>
      </trkpt>
      <trkpt lat="43.268821" lon="-5.136899">
        <ele>86.116</ele>
        <time>2021-10-15T10:45:12Z</time>
      </trkpt>
      <trkpt lat="43.268658" lon="-5.136430">
        <ele>85.354</ele>
        <time>2021-10-15T10:45:14Z</time>
      </trkpt>
      <trkpt lat="43.268532" lon="-5.136071">
        <ele>84.882</ele>
        <time>2021-10-15T10:45:16Z</time>
      </trkpt>
      <trkpt lat="43.268495" lon="-5.135902">
        <ele>84.196</ele>
        <time>2021-10-15T10:45:17Z</time>
      </trkpt>
      <trkpt lat="43.268511" lon="-5.135558">
        <ele>83.591</ele>
        <time>2021-10-15T10:45:19Z</time>
      </trkpt>
      <trkpt lat="43.268570" lon="-5.135373">
        <ele>83.349</ele>
        <time>2021-10-15T10:45:20Z</time>
      </trkpt>
      <trkpt lat="43.268732" lon="-5.134983">
        <ele>81.952</ele>
        <time>2021-10-15T10:45:22Z</time>
      </trkpt>
      <trkpt lat="43.268800" lon="-5.134793">
        <ele>80.837</ele>
        <time>2021-10-15T10:45:23Z</time>
      </trkpt>
      <trkpt lat="43.268850" lon="-5.134613">
        <ele>80.241</ele>
        <time>2021-10-15T10:45:24Z</time>
      </trkpt>
      <trkpt lat="43.268868" lon="-5.134266">
        <ele>80.681</ele>
        <time>2021-10-15T10:45:26Z</time>
      </trkpt>
      <trkpt lat="43.268760" lon="-5.133961">
        <ele>79.809</ele>
        <time>2021-10-15T10:45:28Z</time>
      </trkpt>
      <trkpt lat="43.268658" lon="-5.133821">
        <ele>79.408</ele>
        <time>2021-10-15T10:45:29Z</time>
      </trkpt>
      <trkpt lat="43.268395" lon="-5.133553">
        <ele>78.882</ele>
        <time>2021-10-15T10:45:31Z</time>
      </trkpt>
      <trkpt lat="43.268236" lon="-5.133392">
        <ele>79.310</ele>
        <time>2021-10-15T10:45:32Z</time>
      </trkpt>
      <trkpt lat="43.267949" lon="-5.133079">
        <ele>80.468</ele>
        <time>2021-10-15T10:45:34Z</time>
      </trkpt>
      <trkpt lat="43.267820" lon="-5.132927">
        <ele>81.342</ele>
        <time>2021-10-15T10:45:35Z</time>
      </trkpt>
      <trkpt lat="43.267589" lon="-5.132588">
        <ele>83.057</ele>
        <time>2021-10-15T10:45:37Z</time>
      </trkpt>
      <trkpt lat="43.267492" lon="-5.132396">
        <ele>83.235</ele>
        <time>2021-10-15T10:45:38Z</time>
      </trkpt>
      <trkpt lat="43.267305" lon="-5.132073">
        <ele>84.328</ele>
        <time>2021-10-15T10:45:40Z</time>
      </trkpt>
      <trkpt lat="43.267049" lon="-5.131863">
        <ele>85.273</ele>
        <time>2021-10-15T10:45:42Z</time>
      </trkpt>
      <trkpt lat="43.266894" lon="-5.131779">
        <ele>85.665</ele>
        <time>2021-10-15T10:45:43Z</time>
      </trkpt>
      <trkpt lat="43.266726" lon="-5.131698">
        <ele>86.468</ele>
        <time>2021-10-15T10:45:44Z</time>
      </trkpt>
      <trkpt lat="43.266426" lon="-5.131549">
        <ele>87.914</ele>
        <time>2021-10-15T10:45:46Z</time>
      </trkpt>
      <trkpt lat="43.266292" lon="-5.131470">
        <ele>88.708</ele>
        <time>2021-10-15T10:45:47Z</time>
      </trkpt>
      <trkpt lat="43.266068" lon="-5.131279">
        <ele>91.214</ele>
        <time>2021-10-15T10:45:49Z</time>
      </trkpt>
      <trkpt lat="43.265975" lon="-5.131148">
        <ele>91.772</ele>
        <time>2021-10-15T10:45:50Z</time>
      </trkpt>
      <trkpt lat="43.265854" lon="-5.130855">
        <ele>92.960</ele>
        <time>2021-10-15T10:45:52Z</time>
      </trkpt>
      <trkpt lat="43.265834" lon="-5.130699">
        <ele>92.954</ele>
        <time>2021-10-15T10:45:53Z</time>
      </trkpt>
      <trkpt lat="43.265897" lon="-5.130379">
        <ele>94.429</ele>
        <time>2021-10-15T10:45:55Z</time>
      </trkpt>
      <trkpt lat="43.265975" lon="-5.130208">
        <ele>94.497</ele>
        <time>2021-10-15T10:45:56Z</time>
      </trkpt>
      <trkpt lat="43.266130" lon="-5.129870">
        <ele>96.290</ele>
        <time>2021-10-15T10:45:58Z</time>
      </trkpt>
      <trkpt lat="43.266196" lon="-5.129475">
        <ele>97.715</ele>
        <time>2021-10-15T10:46:00Z</time>
      </trkpt>
      <trkpt lat="43.266165" lon="-5.129003">
        <ele>97.474</ele>
        <time>2021-10-15T10:46:02Z</time>
      </trkpt>
      <trkpt lat="43.266095" lon="-5.128481">
        <ele>98.756</ele>
        <time>2021-10-15T10:46:04Z</time>
      </trkpt>
      <trkpt lat="43.266054" lon="-5.128226">
        <ele>97.921</ele>
        <time>2021-10-15T10:46:05Z</time>
      </trkpt>
      <trkpt lat="43.265945" lon="-5.127775">
        <ele>97.408</ele>
        <time>2021-10-15T10:46:07Z</time>
      </trkpt>
      <trkpt lat="43.265884" lon="-5.127569">
        <ele>97.545</ele>
        <time>2021-10-15T10:46:08Z</time>
      </trkpt>
      <trkpt lat="43.265759" lon="-5.127211">
        <ele>98.753</ele>
        <time>2021-10-15T10:46:10Z</time>
      </trkpt>
      <trkpt lat="43.265612" lon="-5.126908">
        <ele>98.941</ele>
        <time>2021-10-15T10:46:12Z</time>
      </trkpt>
      <trkpt lat="43.265521" lon="-5.126784">
        <ele>98.745</ele>
        <time>2021-10-15T10:46:13Z</time>
      </trkpt>
      <trkpt lat="43.265410" lon="-5.126698">
        <ele>98.740</ele>
        <time>2021-10-15T10:46:14Z</time>
      </trkpt>
      <trkpt lat="43.265142" lon="-5.126632">
        <ele>98.288</ele>
        <time>2021-10-15T10:46:16Z</time>
      </trkpt>
      <trkpt lat="43.264980" lon="-5.126608">
        <ele>98.221</ele>
        <time>2021-10-15T10:46:17Z</time>
      </trkpt>
      <trkpt lat="43.264800" lon="-5.126572">
        <ele>98.236</ele>
        <time>2021-10-15T10:46:18Z</time>
      </trkpt>
      <trkpt lat="43.264601" lon="-5.126533">
        <ele>98.396</ele>
        <time>2021-10-15T10:46:19Z</time>
      </trkpt>
      <trkpt lat="43.264393" lon="-5.126506">
        <ele>98.031</ele>
        <time>2021-10-15T10:46:20Z</time>
      </trkpt>
      <trkpt lat="43.263994" lon="-5.126503">
        <ele>97.524</ele>
        <time>2021-10-15T10:46:22Z</time>
      </trkpt>
      <trkpt lat="43.263812" lon="-5.126512">
        <ele>97.908</ele>
        <time>2021-10-15T10:46:23Z</time>
      </trkpt>
      <trkpt lat="43.263518" lon="-5.126508">
        <ele>97.137</ele>
        <time>2021-10-15T10:46:25Z</time>
      </trkpt>
      <trkpt lat="43.263389" lon="-5.126465">
        <ele>97.195</ele>
        <time>2021-10-15T10:46:26Z</time>
      </trkpt>
      <trkpt lat="43.263195" lon="-5.126275">
        <ele>96.783</ele>
        <time>2021-10-15T10:46:28Z</time>
      </trkpt>
      <trkpt lat="43.263082" lon="-5.125938">
        <ele>96.617</ele>
        <time>2021-10-15T10:46:30Z</time>
      </trkpt>
      <trkpt lat="43.263064" lon="-5.125727">
        <ele>95.862</ele>
        <time>2021-10-15T10:46:31Z</time>
      </trkpt>
      <trkpt lat="43.263060" lon="-5.125505">
        <ele>94.560</ele>
        <time>2021-10-15T10:46:32Z</time>
      </trkpt>
      <trkpt lat="43.263067" lon="-5.125041">
        <ele>91.983</ele>
        <time>2021-10-15T10:46:34Z</time>
      </trkpt>
      <trkpt lat="43.263052" lon="-5.124798">
        <ele>90.688</ele>
        <time>2021-10-15T10:46:35Z</time>
      </trkpt>
      <trkpt lat="43.263024" lon="-5.124564">
        <ele>89.179</ele>
        <time>2021-10-15T10:46:36Z</time>
      </trkpt>
      <trkpt lat="43.262917" lon="-5.124131">
        <ele>86.905</ele>
        <time>2021-10-15T10:46:38Z</time>
      </trkpt>
      <trkpt lat="43.262699" lon="-5.123767">
        <ele>86.725</ele>
        <time>2021-10-15T10:46:40Z</time>
      </trkpt>
      <trkpt lat="43.262549" lon="-5.123576">
        <ele>87.008</ele>
        <time>2021-10-15T10:46:41Z</time>
      </trkpt>
      <trkpt lat="43.262370" lon="-5.123375">
        <ele>86.675</ele>
        <time>2021-10-15T10:46:42Z</time>
      </trkpt>
      <trkpt lat="43.261966" lon="-5.122939">
        <ele>88.793</ele>
        <time>2021-10-15T10:46:44Z</time>
      </trkpt>
      <trkpt lat="43.261586" lon="-5.122492">
        <ele>90.891</ele>
        <time>2021-10-15T10:46:46Z</time>
      </trkpt>
      <trkpt lat="43.261406" lon="-5.122240">
        <ele>92.245</ele>
        <time>2021-10-15T10:46:47Z</time>
      </trkpt>
      <trkpt lat="43.261105" lon="-5.121768">
        <ele>93.310</ele>
        <time>2021-10-15T10:46:49Z</time>
      </trkpt>
      <trkpt lat="43.260968" lon="-5.121548">
        <ele>94.628</ele>
        <time>2021-10-15T10:46:50Z</time>
      </trkpt>
      <trkpt lat="43.260720" lon="-5.121169">
        <ele>97.411</ele>
        <time>2021-10-15T10:46:52Z</time>
      </trkpt>
      <trkpt lat="43.260589" lon="-5.120977">
        <ele>98.156</ele>
        <time>2021-10-15T10:46:53Z</time>
      </trkpt>
      <trkpt lat="43.260455" lon="-5.120787">
        <ele>99.543</ele>
        <time>2021-10-15T10:46:54Z</time>
      </trkpt>
      <trkpt lat="43.260178" lon="-5.120413">
        <ele>101.464</ele>
        <time>2021-10-15T10:46:56Z</time>
      </trkpt>
      <trkpt lat="43.259906" lon="-5.120089">
        <ele>102.810</ele>
        <time>2021-10-15T10:46:58Z</time>
      </trkpt>
      <trkpt lat="43.259646" lon="-5.119790">
        <ele>104.708</ele>
        <time>2021-10-15T10:47:00Z</time>
      </trkpt>
      <trkpt lat="43.259416" lon="-5.119455">
        <ele>106.792</ele>
        <time>2021-10-15T10:47:02Z</time>
      </trkpt>
      <trkpt lat="43.259254" lon="-5.119076">
        <ele>106.930</ele>
        <time>2021-10-15T10:47:04Z</time>
      </trkpt>
      <trkpt lat="43.259191" lon="-5.118867">
        <ele>107.588</ele>
        <time>2021-10-15T10:47:05Z</time>
      </trkpt>
      <trkpt lat="43.259119" lon="-5.118425">
        <ele>108.072</ele>
        <time>2021-10-15T10:47:07Z</time>
      </trkpt>
      <trkpt lat="43.259123" lon="-5.118182">
        <ele>108.497</ele>
        <time>2021-10-15T10:47:08Z</time>
      </trkpt>
      <trkpt lat="43.259206" lon="-5.117742">
        <ele>110.045</ele>
        <time>2021-10-15T10:47:10Z</time>
      </trkpt>
      <trkpt lat="43.259289" lon="-5.117538">
        <ele>110.998</ele>
        <time>2021-10-15T10:47:11Z</time>
      </trkpt>
      <trkpt lat="43.259529" lon="-5.117184">
        <ele>112.063</ele>
        <time>2021-10-15T10:47:13Z</time>
      </trkpt>
      <trkpt lat="43.259654" lon="-5.117026">
        <ele>112.063</ele>
        <time>2021-10-15T10:47:14Z</time>
      </trkpt>
      <trkpt lat="43.259810" lon="-5.116725">
        <ele>113.544</ele>
        <time>2021-10-15T10:47:16Z</time>
      </trkpt>
      <trkpt lat="43.259834" lon="-5.116383">
        <ele>112.818</ele>
        <time>2021-10-15T10:47:18Z</time>
      </trkpt>
      <trkpt lat="43.259809" lon="-5.116197">
        <ele>112.908</ele>
        <time>2021-10-15T10:47:19Z</time>
      </trkpt>
      <trkpt lat="43.259747" lon="-5.116014">
        <ele>112.994</ele>
        <time>2021-10-15T10:47:20Z</time>
      </trkpt>
      <trkpt lat="43.259536" lon="-5.115757">
        <ele>113.542</ele>
        <time>2021-10-15T10:47:22Z</time>
      </trkpt>
      <trkpt lat="43.259392" lon="-5.115684">
        <ele>114.160</ele>
        <time>2021-10-15T10:47:23Z</time>
      </trkpt>
      <trkpt lat="43.259229" lon="-5.115640">
        <ele>115.024</ele>
        <time>2021-10-15T10:47:24Z</time>
      </trkpt>
      <trkpt lat="43.258851" lon="-5.115595">
        <ele>114.699</ele>
        <time>2021-10-15T10:47:26Z</time>
      </trkpt>
      <trkpt lat="43.258438" lon="-5.115576">
        <ele>115.127</ele>
        <time>2021-10-15T10:47:28Z</time>
      </trkpt>
      <trkpt lat="43.258238" lon="-5.115575">
        <ele>115.390</ele>
        <time>2021-10-15T10:47:29Z</time>
      </trkpt>
      <trkpt lat="43.257876" lon="-5.115626">
        <ele>115.985</ele>
        <time>2021-10-15T10:47:31Z</time>
      </trkpt>
      <trkpt lat="43.257702" lon="-5.115695">
        <ele>115.863</ele>
        <time>2021-10-15T10:47:32Z</time>
      </trkpt>
      <trkpt lat="43.257385" lon="-5.115824">
        <ele>116.844</ele>
        <time>2021-10-15T10:47:34Z</time>
      </trkpt>
      <trkpt lat="43.257093" lon="-5.115853">
        <ele>116.418</ele>
        <time>2021-10-15T10:47:36Z</time>
      </trkpt>
      <trkpt lat="43.256968" lon="-5.115834">
        <ele>117.208</ele>
        <time>2021-10-15T10:47:37Z</time>
      </trkpt>
      <trkpt lat="43.256850" lon="-5.115783">
        <ele>116.574</ele>
        <time>2021-10-15T10:47:38Z</time>
      </trkpt>
      <trkpt lat="43.256670" lon="-5.115562">
        <ele>115.242</ele>
        <time>2021-10-15T10:47:40Z</time>
      </trkpt>
      <trkpt lat="43.256594" lon="-5.115401">
        <ele>115.290</ele>
        <time>2021-10-15T10:47:41Z</time>
      </trkpt>
      <trkpt lat="43.256425" lon="-5.114998">
        <ele>114.094</ele>
        <time>2021-10-15T10:47:43Z</time>
      </trkpt>
      <trkpt lat="43.256335" lon="-5.114778">
        <ele>113.299</ele>
        <time>2021-10-15T10:47:44Z</time>
      </trkpt>
      <trkpt lat="43.256194" lon="-5.114428">
        <ele>112.317</ele>
        <time>2021-10-15T10:47:46Z</time>
      </trkpt>
      <trkpt lat="43.256045" lon="-5.114214">
        <ele>112.750</ele>
        <time>2021-10-15T10:47:48Z</time>
      </trkpt>
      <trkpt lat="43.255849" lon="-5.114161">
        <ele>113.775</ele>
        <time>2021-10-15T10:47:50Z</time>
      </trkpt>
      <trkpt lat="43.255677" lon="-5.114070">
        <ele>115.647</ele>
        <time>2021-10-15T10:47:52Z</time>
      </trkpt>
      <trkpt lat="43.255610" lon="-5.113974">
        <ele>115.629</ele>
        <time>2021-10-15T10:47:53Z</time>
      </trkpt>
      <trkpt lat="43.255477" lon="-5.113704">
        <ele>116.121</ele>
        <time>2021-10-15T10:47:55Z</time>
      </trkpt>
      <trkpt lat="43.255405" lon="-5.113538">
        <ele>116.108</ele>
        <time>2021-10-15T10:47:56Z</time>
      </trkpt>
      <trkpt lat="43.255288" lon="-5.113220">
        <ele>118.222</ele>
        <time>2021-10-15T10:47:58Z</time>
      </trkpt>
      <trkpt lat="43.255243" lon="-5.113060">
        <ele>117.970</ele>
        <time>2021-10-15T10:47:59Z</time>
      </trkpt>
      <trkpt lat="43.255205" lon="-5.112910">
        <ele>118.578</ele>
        <time>2021-10-15T10:48:00Z</time>
      </trkpt>
      <trkpt lat="43.255143" lon="-5.112626">
        <ele>120.072</ele>
        <time>2021-10-15T10:48:02Z</time>
      </trkpt>
      <trkpt lat="43.255099" lon="-5.112356">
        <ele>120.577</ele>
        <time>2021-10-15T10:48:04Z</time>
      </trkpt>
      <trkpt lat="43.254990" lon="-5.112131">
        <ele>122.965</ele>
        <time>2021-10-15T10:48:06Z</time>
      </trkpt>
      <trkpt lat="43.254912" lon="-5.112044">
        <ele>123.598</ele>
        <time>2021-10-15T10:48:07Z</time>
      </trkpt>
      <trkpt lat="43.254830" lon="-5.111960">
        <ele>124.933</ele>
        <time>2021-10-15T10:48:08Z</time>
      </trkpt>
      <trkpt lat="43.254715" lon="-5.111746">
        <ele>126.457</ele>
        <time>2021-10-15T10:48:10Z</time>
      </trkpt>
      <trkpt lat="43.254621" lon="-5.111509">
        <ele>127.000</ele>
        <time>2021-10-15T10:48:12Z</time>
      </trkpt>
      <trkpt lat="43.254555" lon="-5.111410">
        <ele>128.320</ele>
        <time>2021-10-15T10:48:13Z</time>
      </trkpt>
      <trkpt lat="43.254483" lon="-5.111309">
        <ele>129.308</ele>
        <time>2021-10-15T10:48:14Z</time>
      </trkpt>
      <trkpt lat="43.254356" lon="-5.111084">
        <ele>131.533</ele>
        <time>2021-10-15T10:48:16Z</time>
      </trkpt>
      <trkpt lat="43.254226" lon="-5.110847">
        <ele>131.791</ele>
        <time>2021-10-15T10:48:18Z</time>
      </trkpt>
      <trkpt lat="43.254155" lon="-5.110728">
        <ele>131.699</ele>
        <time>2021-10-15T10:48:19Z</time>
      </trkpt>
      <trkpt lat="43.254080" lon="-5.110614">
        <ele>131.433</ele>
        <time>2021-10-15T10:48:20Z</time>
      </trkpt>
      <trkpt lat="43.253934" lon="-5.110420">
        <ele>131.118</ele>
        <time>2021-10-15T10:48:22Z</time>
      </trkpt>
      <trkpt lat="43.253793" lon="-5.110271">
        <ele>131.496</ele>
        <time>2021-10-15T10:48:24Z</time>
      </trkpt>
      <trkpt lat="43.253634" lon="-5.110149">
        <ele>132.039</ele>
        <time>2021-10-15T10:48:26Z</time>
      </trkpt>
      <trkpt lat="43.253478" lon="-5.110061">
        <ele>131.924</ele>
        <time>2021-10-15T10:48:28Z</time>
      </trkpt>
      <trkpt lat="43.253400" lon="-5.110043">
        <ele>131.657</ele>
        <time>2021-10-15T10:48:29Z</time>
      </trkpt>
      <trkpt lat="43.253236" lon="-5.109985">
        <ele>130.300</ele>
        <time>2021-10-15T10:48:31Z</time>
      </trkpt>
      <trkpt lat="43.253150" lon="-5.109952">
        <ele>129.420</ele>
        <time>2021-10-15T10:48:32Z</time>
      </trkpt>
      <trkpt lat="43.252997" lon="-5.109935">
        <ele>128.508</ele>
        <time>2021-10-15T10:48:34Z</time>
      </trkpt>
      <trkpt lat="43.252919" lon="-5.109935">
        <ele>128.673</ele>
        <time>2021-10-15T10:48:35Z</time>
      </trkpt>
      <trkpt lat="43.252836" lon="-5.109926">
        <ele>128.651</ele>
        <time>2021-10-15T10:48:36Z</time>
      </trkpt>
      <trkpt lat="43.252687" lon="-5.109876">
        <ele>127.689</ele>
        <time>2021-10-15T10:48:38Z</time>
      </trkpt>
      <trkpt lat="43.252551" lon="-5.109784">
        <ele>123.963</ele>
        <time>2021-10-15T10:48:40Z</time>
      </trkpt>
      <trkpt lat="43.252496" lon="-5.109699">
        <ele>123.778</ele>
        <time>2021-10-15T10:48:41Z</time>
      </trkpt>
      <trkpt lat="43.252452" lon="-5.109594">
        <ele>123.726</ele>
        <time>2021-10-15T10:48:42Z</time>
      </trkpt>
      <trkpt lat="43.252348" lon="-5.109353">
        <ele>122.069</ele>
        <time>2021-10-15T10:48:44Z</time>
      </trkpt>
      <trkpt lat="43.252221" lon="-5.109134">
        <ele>122.364</ele>
        <time>2021-10-15T10:48:46Z</time>
      </trkpt>
      <trkpt lat="43.252135" lon="-5.108896">
        <ele>121.138</ele>
        <time>2021-10-15T10:48:48Z</time>
      </trkpt>
      <trkpt lat="43.252071" lon="-5.108646">
        <ele>120.970</ele>
        <time>2021-10-15T10:48:50Z</time>
      </trkpt>
      <trkpt lat="43.251985" lon="-5.108433">
        <ele>120.817</ele>
        <time>2021-10-15T10:48:52Z</time>
      </trkpt>
      <trkpt lat="43.251849" lon="-5.108299">
        <ele>121.508</ele>
        <time>2021-10-15T10:48:54Z</time>
      </trkpt>
      <trkpt lat="43.251678" lon="-5.108235">
        <ele>123.491</ele>
        <time>2021-10-15T10:48:56Z</time>
      </trkpt>
      <trkpt lat="43.251491" lon="-5.108284">
        <ele>124.349</ele>
        <time>2021-10-15T10:48:58Z</time>
      </trkpt>
      <trkpt lat="43.251322" lon="-5.108427">
        <ele>126.697</ele>
        <time>2021-10-15T10:49:00Z</time>
      </trkpt>
      <trkpt lat="43.251156" lon="-5.108582">
        <ele>127.191</ele>
        <time>2021-10-15T10:49:02Z</time>
      </trkpt>
      <trkpt lat="43.250984" lon="-5.108715">
        <ele>127.156</ele>
        <time>2021-10-15T10:49:04Z</time>
      </trkpt>
      <trkpt lat="43.250896" lon="-5.108769">
        <ele>128.494</ele>
        <time>2021-10-15T10:49:05Z</time>
      </trkpt>
      <trkpt lat="43.250718" lon="-5.108798">
        <ele>127.997</ele>
        <time>2021-10-15T10:49:07Z</time>
      </trkpt>
      <trkpt lat="43.250626" lon="-5.108770">
        <ele>127.962</ele>
        <time>2021-10-15T10:49:08Z</time>
      </trkpt>
      <trkpt lat="43.250467" lon="-5.108633">
        <ele>128.655</ele>
        <time>2021-10-15T10:49:10Z</time>
      </trkpt>
      <trkpt lat="43.250395" lon="-5.108534">
        <ele>128.507</ele>
        <time>2021-10-15T10:49:11Z</time>
      </trkpt>
      <trkpt lat="43.250260" lon="-5.108344">
        <ele>128.517</ele>
        <time>2021-10-15T10:49:13Z</time>
      </trkpt>
      <trkpt lat="43.250190" lon="-5.108257">
        <ele>128.708</ele>
        <time>2021-10-15T10:49:14Z</time>
      </trkpt>
      <trkpt lat="43.250053" lon="-5.108089">
        <ele>129.243</ele>
        <time>2021-10-15T10:49:16Z</time>
      </trkpt>
      <trkpt lat="43.249907" lon="-5.107921">
        <ele>129.071</ele>
        <time>2021-10-15T10:49:18Z</time>
      </trkpt>
      <trkpt lat="43.249833" lon="-5.107838">
        <ele>128.429</ele>
        <time>2021-10-15T10:49:19Z</time>
      </trkpt>
      <trkpt lat="43.249756" lon="-5.107755">
        <ele>129.083</ele>
        <time>2021-10-15T10:49:20Z</time>
      </trkpt>
      <trkpt lat="43.249607" lon="-5.107595">
        <ele>129.718</ele>
        <time>2021-10-15T10:49:22Z</time>
      </trkpt>
      <trkpt lat="43.249457" lon="-5.107437">
        <ele>129.766</ele>
        <time>2021-10-15T10:49:24Z</time>
      </trkpt>
      <trkpt lat="43.249300" lon="-5.107296">
        <ele>129.439</ele>
        <time>2021-10-15T10:49:26Z</time>
      </trkpt>
      <trkpt lat="43.249133" lon="-5.107170">
        <ele>129.814</ele>
        <time>2021-10-15T10:49:28Z</time>
      </trkpt>
      <trkpt lat="43.249046" lon="-5.107122">
        <ele>129.911</ele>
        <time>2021-10-15T10:49:29Z</time>
      </trkpt>
      <trkpt lat="43.248873" lon="-5.107059">
        <ele>128.921</ele>
        <time>2021-10-15T10:49:31Z</time>
      </trkpt>
      <trkpt lat="43.248773" lon="-5.107034">
        <ele>128.403</ele>
        <time>2021-10-15T10:49:32Z</time>
      </trkpt>
      <trkpt lat="43.248565" lon="-5.106990">
        <ele>128.408</ele>
        <time>2021-10-15T10:49:34Z</time>
      </trkpt>
      <trkpt lat="43.248465" lon="-5.106973">
        <ele>129.299</ele>
        <time>2021-10-15T10:49:35Z</time>
      </trkpt>
      <trkpt lat="43.248274" lon="-5.106944">
        <ele>128.237</ele>
        <time>2021-10-15T10:49:37Z</time>
      </trkpt>
      <trkpt lat="43.248184" lon="-5.106933">
        <ele>128.285</ele>
        <time>2021-10-15T10:49:38Z</time>
      </trkpt>
      <trkpt lat="43.248019" lon="-5.106912">
        <ele>128.369</ele>
        <time>2021-10-15T10:49:40Z</time>
      </trkpt>
      <trkpt lat="43.247928" lon="-5.106909">
        <ele>128.724</ele>
        <time>2021-10-15T10:49:41Z</time>
      </trkpt>
      <trkpt lat="43.247744" lon="-5.106909">
        <ele>129.212</ele>
        <time>2021-10-15T10:49:43Z</time>
      </trkpt>
      <trkpt lat="43.247649" lon="-5.106917">
        <ele>129.265</ele>
        <time>2021-10-15T10:49:44Z</time>
      </trkpt>
      <trkpt lat="43.247470" lon="-5.106903">
        <ele>128.490</ele>
        <time>2021-10-15T10:49:46Z</time>
      </trkpt>
      <trkpt lat="43.247382" lon="-5.106877">
        <ele>128.493</ele>
        <time>2021-10-15T10:49:47Z</time>
      </trkpt>
      <trkpt lat="43.247297" lon="-5.106841">
        <ele>128.665</ele>
        <time>2021-10-15T10:49:48Z</time>
      </trkpt>
      <trkpt lat="43.247211" lon="-5.106803">
        <ele>128.821</ele>
        <time>2021-10-15T10:49:49Z</time>
      </trkpt>
      <trkpt lat="43.247124" lon="-5.106764">
        <ele>128.808</ele>
        <time>2021-10-15T10:49:50Z</time>
      </trkpt>
      <trkpt lat="43.246981" lon="-5.106702">
        <ele>129.017</ele>
        <time>2021-10-15T10:49:52Z</time>
      </trkpt>
      <trkpt lat="43.246919" lon="-5.106674">
        <ele>129.695</ele>
        <time>2021-10-15T10:49:53Z</time>
      </trkpt>
      <trkpt lat="43.246778" lon="-5.106624">
        <ele>128.643</ele>
        <time>2021-10-15T10:49:55Z</time>
      </trkpt>
      <trkpt lat="43.246690" lon="-5.106601">
        <ele>128.637</ele>
        <time>2021-10-15T10:49:56Z</time>
      </trkpt>
      <trkpt lat="43.246515" lon="-5.106578">
        <ele>128.052</ele>
        <time>2021-10-15T10:49:58Z</time>
      </trkpt>
      <trkpt lat="43.246420" lon="-5.106568">
        <ele>128.270</ele>
        <time>2021-10-15T10:49:59Z</time>
      </trkpt>
      <trkpt lat="43.246250" lon="-5.106550">
        <ele>128.563</ele>
        <time>2021-10-15T10:50:01Z</time>
      </trkpt>
      <trkpt lat="43.246173" lon="-5.106543">
        <ele>129.178</ele>
        <time>2021-10-15T10:50:02Z</time>
      </trkpt>
      <trkpt lat="43.246066" lon="-5.106545">
        <ele>129.763</ele>
        <time>2021-10-15T10:50:04Z</time>
      </trkpt>
      <trkpt lat="43.246021" lon="-5.106553">
        <ele>144.844</ele>
        <time>2021-10-15T10:50:27Z</time>
      </trkpt>
      <trkpt lat="43.245955" lon="-5.106535">
        <ele>167.418</ele>
        <time>2021-10-15T10:52:02Z</time>
      </trkpt>
      <trkpt lat="43.245836" lon="-5.106516">
        <ele>187.108</ele>
        <time>2021-10-15T10:52:04Z</time>
      </trkpt>
      <trkpt lat="43.245756" lon="-5.106512">
        <ele>187.174</ele>
        <time>2021-10-15T10:52:05Z</time>
      </trkpt>
      <trkpt lat="43.245585" lon="-5.106510">
        <ele>187.362</ele>
        <time>2021-10-15T10:52:07Z</time>
      </trkpt>
      <trkpt lat="43.245489" lon="-5.106505">
        <ele>187.320</ele>
        <time>2021-10-15T10:52:08Z</time>
      </trkpt>
      <trkpt lat="43.245324" lon="-5.106463">
        <ele>187.364</ele>
        <time>2021-10-15T10:52:10Z</time>
      </trkpt>
      <trkpt lat="43.245259" lon="-5.106409">
        <ele>187.319</ele>
        <time>2021-10-15T10:52:11Z</time>
      </trkpt>
      <trkpt lat="43.245138" lon="-5.106223">
        <ele>187.387</ele>
        <time>2021-10-15T10:52:13Z</time>
      </trkpt>
      <trkpt lat="43.245074" lon="-5.106099">
        <ele>187.350</ele>
        <time>2021-10-15T10:52:14Z</time>
      </trkpt>
      <trkpt lat="43.244923" lon="-5.105851">
        <ele>187.355</ele>
        <time>2021-10-15T10:52:16Z</time>
      </trkpt>
      <trkpt lat="43.244835" lon="-5.105730">
        <ele>187.399</ele>
        <time>2021-10-15T10:52:17Z</time>
      </trkpt>
      <trkpt lat="43.244695" lon="-5.105529">
        <ele>187.307</ele>
        <time>2021-10-15T10:52:19Z</time>
      </trkpt>
      <trkpt lat="43.244641" lon="-5.105450">
        <ele>187.327</ele>
        <time>2021-10-15T10:52:20Z</time>
      </trkpt>
      <trkpt lat="43.244538" lon="-5.105316">
        <ele>187.308</ele>
        <time>2021-10-15T10:52:22Z</time>
      </trkpt>
      <trkpt lat="43.244481" lon="-5.105237">
        <ele>187.347</ele>
        <time>2021-10-15T10:52:23Z</time>
      </trkpt>
      <trkpt lat="43.244423" lon="-5.105142">
        <ele>187.365</ele>
        <time>2021-10-15T10:52:24Z</time>
      </trkpt>
      <trkpt lat="43.244301" lon="-5.104928">
        <ele>187.353</ele>
        <time>2021-10-15T10:52:26Z</time>
      </trkpt>
      <trkpt lat="43.244194" lon="-5.104721">
        <ele>187.327</ele>
        <time>2021-10-15T10:52:28Z</time>
      </trkpt>
      <trkpt lat="43.244062" lon="-5.104515">
        <ele>187.342</ele>
        <time>2021-10-15T10:52:30Z</time>
      </trkpt>
      <trkpt lat="43.243888" lon="-5.104323">
        <ele>187.270</ele>
        <time>2021-10-15T10:52:32Z</time>
      </trkpt>
      <trkpt lat="43.243700" lon="-5.104125">
        <ele>187.283</ele>
        <time>2021-10-15T10:52:34Z</time>
      </trkpt>
      <trkpt lat="43.243545" lon="-5.103890">
        <ele>187.288</ele>
        <time>2021-10-15T10:52:36Z</time>
      </trkpt>
      <trkpt lat="43.243468" lon="-5.103554">
        <ele>187.241</ele>
        <time>2021-10-15T10:52:38Z</time>
      </trkpt>
      <trkpt lat="43.243445" lon="-5.103147">
        <ele>187.281</ele>
        <time>2021-10-15T10:52:40Z</time>
      </trkpt>
      <trkpt lat="43.243416" lon="-5.102767">
        <ele>187.309</ele>
        <time>2021-10-15T10:52:42Z</time>
      </trkpt>
      <trkpt lat="43.243324" lon="-5.102452">
        <ele>187.308</ele>
        <time>2021-10-15T10:52:44Z</time>
      </trkpt>
      <trkpt lat="43.243138" lon="-5.102198">
        <ele>187.342</ele>
        <time>2021-10-15T10:52:46Z</time>
      </trkpt>
      <trkpt lat="43.243021" lon="-5.102066">
        <ele>187.370</ele>
        <time>2021-10-15T10:52:47Z</time>
      </trkpt>
      <trkpt lat="43.242902" lon="-5.101929">
        <ele>187.368</ele>
        <time>2021-10-15T10:52:48Z</time>
      </trkpt>
      <trkpt lat="43.242684" lon="-5.101694">
        <ele>187.362</ele>
        <time>2021-10-15T10:52:50Z</time>
      </trkpt>
      <trkpt lat="43.242470" lon="-5.101599">
        <ele>187.237</ele>
        <time>2021-10-15T10:52:52Z</time>
      </trkpt>
      <trkpt lat="43.242288" lon="-5.101517">
        <ele>187.245</ele>
        <time>2021-10-15T10:52:54Z</time>
      </trkpt>
      <trkpt lat="43.242223" lon="-5.101414">
        <ele>187.268</ele>
        <time>2021-10-15T10:52:55Z</time>
      </trkpt>
      <trkpt lat="43.242175" lon="-5.101266">
        <ele>187.213</ele>
        <time>2021-10-15T10:52:56Z</time>
      </trkpt>
      <trkpt lat="43.242104" lon="-5.100889">
        <ele>187.264</ele>
        <time>2021-10-15T10:52:58Z</time>
      </trkpt>
      <trkpt lat="43.242072" lon="-5.100482">
        <ele>139.706</ele>
        <time>2021-10-15T10:53:00Z</time>
      </trkpt>
      <trkpt lat="43.242089" lon="-5.100299">
        <ele>139.516</ele>
        <time>2021-10-15T10:53:01Z</time>
      </trkpt>
      <trkpt lat="43.242134" lon="-5.100123">
        <ele>138.608</ele>
        <time>2021-10-15T10:53:02Z</time>
      </trkpt>
      <trkpt lat="43.242279" lon="-5.099808">
        <ele>141.224</ele>
        <time>2021-10-15T10:53:04Z</time>
      </trkpt>
      <trkpt lat="43.242371" lon="-5.099470">
        <ele>140.462</ele>
        <time>2021-10-15T10:53:06Z</time>
      </trkpt>
      <trkpt lat="43.242327" lon="-5.099118">
        <ele>141.340</ele>
        <time>2021-10-15T10:53:08Z</time>
      </trkpt>
      <trkpt lat="43.242141" lon="-5.098836">
        <ele>143.584</ele>
        <time>2021-10-15T10:53:10Z</time>
      </trkpt>
      <trkpt lat="43.242012" lon="-5.098695">
        <ele>145.189</ele>
        <time>2021-10-15T10:53:11Z</time>
      </trkpt>
      <trkpt lat="43.241872" lon="-5.098544">
        <ele>145.937</ele>
        <time>2021-10-15T10:53:12Z</time>
      </trkpt>
      <trkpt lat="43.241559" lon="-5.098189">
        <ele>147.440</ele>
        <time>2021-10-15T10:53:14Z</time>
      </trkpt>
      <trkpt lat="43.241253" lon="-5.097820">
        <ele>149.575</ele>
        <time>2021-10-15T10:53:16Z</time>
      </trkpt>
      <trkpt lat="43.240958" lon="-5.097454">
        <ele>150.417</ele>
        <time>2021-10-15T10:53:18Z</time>
      </trkpt>
      <trkpt lat="43.240669" lon="-5.097101">
        <ele>150.687</ele>
        <time>2021-10-15T10:53:20Z</time>
      </trkpt>
      <trkpt lat="43.240432" lon="-5.096802">
        <ele>151.915</ele>
        <time>2021-10-15T10:53:22Z</time>
      </trkpt>
      <trkpt lat="43.240321" lon="-5.096658">
        <ele>152.208</ele>
        <time>2021-10-15T10:53:23Z</time>
      </trkpt>
      <trkpt lat="43.240154" lon="-5.096349">
        <ele>152.939</ele>
        <time>2021-10-15T10:53:25Z</time>
      </trkpt>
      <trkpt lat="43.240102" lon="-5.096160">
        <ele>153.067</ele>
        <time>2021-10-15T10:53:26Z</time>
      </trkpt>
      <trkpt lat="43.240058" lon="-5.095765">
        <ele>154.875</ele>
        <time>2021-10-15T10:53:28Z</time>
      </trkpt>
      <trkpt lat="43.239981" lon="-5.095391">
        <ele>154.659</ele>
        <time>2021-10-15T10:53:30Z</time>
      </trkpt>
      <trkpt lat="43.239807" lon="-5.095027">
        <ele>155.234</ele>
        <time>2021-10-15T10:53:32Z</time>
      </trkpt>
      <trkpt lat="43.239598" lon="-5.094649">
        <ele>155.862</ele>
        <time>2021-10-15T10:53:34Z</time>
      </trkpt>
      <trkpt lat="43.239493" lon="-5.094464">
        <ele>155.995</ele>
        <time>2021-10-15T10:53:35Z</time>
      </trkpt>
      <trkpt lat="43.239288" lon="-5.094125">
        <ele>157.370</ele>
        <time>2021-10-15T10:53:37Z</time>
      </trkpt>
      <trkpt lat="43.239184" lon="-5.093968">
        <ele>157.462</ele>
        <time>2021-10-15T10:53:38Z</time>
      </trkpt>
      <trkpt lat="43.238949" lon="-5.093715">
        <ele>157.183</ele>
        <time>2021-10-15T10:53:40Z</time>
      </trkpt>
      <trkpt lat="43.238806" lon="-5.093613">
        <ele>157.811</ele>
        <time>2021-10-15T10:53:41Z</time>
      </trkpt>
      <trkpt lat="43.238648" lon="-5.093520">
        <ele>157.908</ele>
        <time>2021-10-15T10:53:42Z</time>
      </trkpt>
      <trkpt lat="43.238481" lon="-5.093431">
        <ele>157.944</ele>
        <time>2021-10-15T10:53:43Z</time>
      </trkpt>
      <trkpt lat="43.238308" lon="-5.093337">
        <ele>158.652</ele>
        <time>2021-10-15T10:53:44Z</time>
      </trkpt>
      <trkpt lat="43.237970" lon="-5.093135">
        <ele>157.890</ele>
        <time>2021-10-15T10:53:46Z</time>
      </trkpt>
      <trkpt lat="43.237659" lon="-5.092878">
        <ele>160.884</ele>
        <time>2021-10-15T10:53:48Z</time>
      </trkpt>
      <trkpt lat="43.237513" lon="-5.092728">
        <ele>160.789</ele>
        <time>2021-10-15T10:53:49Z</time>
      </trkpt>
      <trkpt lat="43.237367" lon="-5.092574">
        <ele>160.367</ele>
        <time>2021-10-15T10:53:50Z</time>
      </trkpt>
      <trkpt lat="43.237114" lon="-5.092321">
        <ele>160.560</ele>
        <time>2021-10-15T10:53:52Z</time>
      </trkpt>
      <trkpt lat="43.236988" lon="-5.092228">
        <ele>160.195</ele>
        <time>2021-10-15T10:53:53Z</time>
      </trkpt>
      <trkpt lat="43.236850" lon="-5.092168">
        <ele>160.197</ele>
        <time>2021-10-15T10:53:54Z</time>
      </trkpt>
      <trkpt lat="43.236700" lon="-5.092138">
        <ele>160.123</ele>
        <time>2021-10-15T10:53:55Z</time>
      </trkpt>
      <trkpt lat="43.236539" lon="-5.092117">
        <ele>160.625</ele>
        <time>2021-10-15T10:53:56Z</time>
      </trkpt>
      <trkpt lat="43.236247" lon="-5.092026">
        <ele>160.608</ele>
        <time>2021-10-15T10:53:58Z</time>
      </trkpt>
      <trkpt lat="43.235985" lon="-5.091802">
        <ele>161.317</ele>
        <time>2021-10-15T10:54:00Z</time>
      </trkpt>
      <trkpt lat="43.235878" lon="-5.091660">
        <ele>161.365</ele>
        <time>2021-10-15T10:54:01Z</time>
      </trkpt>
      <trkpt lat="43.235779" lon="-5.091528">
        <ele>161.723</ele>
        <time>2021-10-15T10:54:02Z</time>
      </trkpt>
      <trkpt lat="43.235561" lon="-5.091408">
        <ele>163.967</ele>
        <time>2021-10-15T10:54:04Z</time>
      </trkpt>
      <trkpt lat="43.235430" lon="-5.091404">
        <ele>164.032</ele>
        <time>2021-10-15T10:54:05Z</time>
      </trkpt>
      <trkpt lat="43.235152" lon="-5.091375">
        <ele>164.450</ele>
        <time>2021-10-15T10:54:07Z</time>
      </trkpt>
      <trkpt lat="43.235003" lon="-5.091344">
        <ele>165.443</ele>
        <time>2021-10-15T10:54:08Z</time>
      </trkpt>
      <trkpt lat="43.234733" lon="-5.091334">
        <ele>166.618</ele>
        <time>2021-10-15T10:54:10Z</time>
      </trkpt>
      <trkpt lat="43.234482" lon="-5.091423">
        <ele>167.434</ele>
        <time>2021-10-15T10:54:12Z</time>
      </trkpt>
      <trkpt lat="43.234362" lon="-5.091500">
        <ele>168.255</ele>
        <time>2021-10-15T10:54:13Z</time>
      </trkpt>
      <trkpt lat="43.234241" lon="-5.091599">
        <ele>170.710</ele>
        <time>2021-10-15T10:54:14Z</time>
      </trkpt>
      <trkpt lat="43.234020" lon="-5.091836">
        <ele>174.408</ele>
        <time>2021-10-15T10:54:16Z</time>
      </trkpt>
      <trkpt lat="43.233770" lon="-5.092143">
        <ele>176.611</ele>
        <time>2021-10-15T10:54:18Z</time>
      </trkpt>
      <trkpt lat="43.233520" lon="-5.092442">
        <ele>177.929</ele>
        <time>2021-10-15T10:54:20Z</time>
      </trkpt>
      <trkpt lat="43.233317" lon="-5.092688">
        <ele>178.247</ele>
        <time>2021-10-15T10:54:22Z</time>
      </trkpt>
      <trkpt lat="43.233222" lon="-5.092793">
        <ele>179.861</ele>
        <time>2021-10-15T10:54:23Z</time>
      </trkpt>
      <trkpt lat="43.233126" lon="-5.092866">
        <ele>180.076</ele>
        <time>2021-10-15T10:54:24Z</time>
      </trkpt>
      <trkpt lat="43.232905" lon="-5.092896">
        <ele>180.014</ele>
        <time>2021-10-15T10:54:26Z</time>
      </trkpt>
      <trkpt lat="43.232679" lon="-5.092800">
        <ele>181.957</ele>
        <time>2021-10-15T10:54:28Z</time>
      </trkpt>
      <trkpt lat="43.232426" lon="-5.092679">
        <ele>181.542</ele>
        <time>2021-10-15T10:54:30Z</time>
      </trkpt>
      <trkpt lat="43.232289" lon="-5.092644">
        <ele>181.585</ele>
        <time>2021-10-15T10:54:31Z</time>
      </trkpt>
      <trkpt lat="43.232142" lon="-5.092646">
        <ele>181.989</ele>
        <time>2021-10-15T10:54:32Z</time>
      </trkpt>
      <trkpt lat="43.231881" lon="-5.092729">
        <ele>183.117</ele>
        <time>2021-10-15T10:54:34Z</time>
      </trkpt>
      <trkpt lat="43.231611" lon="-5.092751">
        <ele>182.008</ele>
        <time>2021-10-15T10:54:36Z</time>
      </trkpt>
      <trkpt lat="43.231489" lon="-5.092766">
        <ele>182.426</ele>
        <time>2021-10-15T10:54:37Z</time>
      </trkpt>
      <trkpt lat="43.231376" lon="-5.092799">
        <ele>182.514</ele>
        <time>2021-10-15T10:54:38Z</time>
      </trkpt>
      <trkpt lat="43.231191" lon="-5.092822">
        <ele>182.162</ele>
        <time>2021-10-15T10:54:40Z</time>
      </trkpt>
      <trkpt lat="43.231043" lon="-5.092695">
        <ele>181.816</ele>
        <time>2021-10-15T10:54:42Z</time>
      </trkpt>
      <trkpt lat="43.230991" lon="-5.092583">
        <ele>181.941</ele>
        <time>2021-10-15T10:54:43Z</time>
      </trkpt>
      <trkpt lat="43.230942" lon="-5.092452">
        <ele>181.519</ele>
        <time>2021-10-15T10:54:44Z</time>
      </trkpt>
      <trkpt lat="43.230914" lon="-5.092157">
        <ele>182.372</ele>
        <time>2021-10-15T10:54:46Z</time>
      </trkpt>
      <trkpt lat="43.230925" lon="-5.092000">
        <ele>182.537</ele>
        <time>2021-10-15T10:54:47Z</time>
      </trkpt>
      <trkpt lat="43.230887" lon="-5.091769">
        <ele>183.223</ele>
        <time>2021-10-15T10:54:49Z</time>
      </trkpt>
      <trkpt lat="43.230825" lon="-5.091698">
        <ele>183.283</ele>
        <time>2021-10-15T10:54:50Z</time>
      </trkpt>
      <trkpt lat="43.230638" lon="-5.091607">
        <ele>183.411</ele>
        <time>2021-10-15T10:54:52Z</time>
      </trkpt>
      <trkpt lat="43.230511" lon="-5.091563">
        <ele>183.308</ele>
        <time>2021-10-15T10:54:53Z</time>
      </trkpt>
      <trkpt lat="43.230373" lon="-5.091529">
        <ele>183.660</ele>
        <time>2021-10-15T10:54:54Z</time>
      </trkpt>
      <trkpt lat="43.230094" lon="-5.091543">
        <ele>183.538</ele>
        <time>2021-10-15T10:54:56Z</time>
      </trkpt>
      <trkpt lat="43.229851" lon="-5.091688">
        <ele>182.516</ele>
        <time>2021-10-15T10:54:58Z</time>
      </trkpt>
      <trkpt lat="43.229659" lon="-5.091831">
        <ele>182.270</ele>
        <time>2021-10-15T10:55:00Z</time>
      </trkpt>
      <trkpt lat="43.229516" lon="-5.091913">
        <ele>184.025</ele>
        <time>2021-10-15T10:55:02Z</time>
      </trkpt>
      <trkpt lat="43.229367" lon="-5.091882">
        <ele>184.813</ele>
        <time>2021-10-15T10:55:04Z</time>
      </trkpt>
      <trkpt lat="43.229275" lon="-5.091822">
        <ele>184.816</ele>
        <time>2021-10-15T10:55:05Z</time>
      </trkpt>
      <trkpt lat="43.229092" lon="-5.091666">
        <ele>184.421</ele>
        <time>2021-10-15T10:55:07Z</time>
      </trkpt>
      <trkpt lat="43.228993" lon="-5.091581">
        <ele>184.255</ele>
        <time>2021-10-15T10:55:08Z</time>
      </trkpt>
      <trkpt lat="43.228793" lon="-5.091461">
        <ele>183.807</ele>
        <time>2021-10-15T10:55:10Z</time>
      </trkpt>
      <trkpt lat="43.228683" lon="-5.091433">
        <ele>183.817</ele>
        <time>2021-10-15T10:55:11Z</time>
      </trkpt>
      <trkpt lat="43.228467" lon="-5.091384">
        <ele>185.208</ele>
        <time>2021-10-15T10:55:13Z</time>
      </trkpt>
      <trkpt lat="43.228364" lon="-5.091335">
        <ele>187.083</ele>
        <time>2021-10-15T10:55:14Z</time>
      </trkpt>
      <trkpt lat="43.228163" lon="-5.091169">
        <ele>187.091</ele>
        <time>2021-10-15T10:55:16Z</time>
      </trkpt>
      <trkpt lat="43.227965" lon="-5.091003">
        <ele>188.289</ele>
        <time>2021-10-15T10:55:18Z</time>
      </trkpt>
      <trkpt lat="43.227740" lon="-5.090944">
        <ele>186.533</ele>
        <time>2021-10-15T10:55:20Z</time>
      </trkpt>
      <trkpt lat="43.227519" lon="-5.091060">
        <ele>188.488</ele>
        <time>2021-10-15T10:55:22Z</time>
      </trkpt>
      <trkpt lat="43.227328" lon="-5.091246">
        <ele>188.486</ele>
        <time>2021-10-15T10:55:24Z</time>
      </trkpt>
      <trkpt lat="43.227224" lon="-5.091307">
        <ele>188.589</ele>
        <time>2021-10-15T10:55:25Z</time>
      </trkpt>
      <trkpt lat="43.227106" lon="-5.091360">
        <ele>188.524</ele>
        <time>2021-10-15T10:55:26Z</time>
      </trkpt>
      <trkpt lat="43.226881" lon="-5.091444">
        <ele>187.551</ele>
        <time>2021-10-15T10:55:28Z</time>
      </trkpt>
      <trkpt lat="43.226771" lon="-5.091468">
        <ele>187.401</ele>
        <time>2021-10-15T10:55:29Z</time>
      </trkpt>
      <trkpt lat="43.226667" lon="-5.091485">
        <ele>186.211</ele>
        <time>2021-10-15T10:55:30Z</time>
      </trkpt>
      <trkpt lat="43.226575" lon="-5.091510">
        <ele>185.808</ele>
        <time>2021-10-15T10:55:31Z</time>
      </trkpt>
      <trkpt lat="43.226486" lon="-5.091543">
        <ele>185.843</ele>
        <time>2021-10-15T10:55:32Z</time>
      </trkpt>
      <trkpt lat="43.226319" lon="-5.091594">
        <ele>185.461</ele>
        <time>2021-10-15T10:55:34Z</time>
      </trkpt>
      <trkpt lat="43.226228" lon="-5.091601">
        <ele>185.679</ele>
        <time>2021-10-15T10:55:35Z</time>
      </trkpt>
      <trkpt lat="43.226134" lon="-5.091594">
        <ele>185.653</ele>
        <time>2021-10-15T10:55:36Z</time>
      </trkpt>
      <trkpt lat="43.225936" lon="-5.091555">
        <ele>186.548</ele>
        <time>2021-10-15T10:55:38Z</time>
      </trkpt>
      <trkpt lat="43.225727" lon="-5.091476">
        <ele>186.486</ele>
        <time>2021-10-15T10:55:40Z</time>
      </trkpt>
      <trkpt lat="43.225496" lon="-5.091423">
        <ele>186.499</ele>
        <time>2021-10-15T10:55:42Z</time>
      </trkpt>
      <trkpt lat="43.225270" lon="-5.091471">
        <ele>186.964</ele>
        <time>2021-10-15T10:55:44Z</time>
      </trkpt>
      <trkpt lat="43.225088" lon="-5.091427">
        <ele>190.045</ele>
        <time>2021-10-15T10:55:46Z</time>
      </trkpt>
      <trkpt lat="43.225010" lon="-5.091366">
        <ele>190.547</ele>
        <time>2021-10-15T10:55:47Z</time>
      </trkpt>
      <trkpt lat="43.224865" lon="-5.091218">
        <ele>191.011</ele>
        <time>2021-10-15T10:55:49Z</time>
      </trkpt>
      <trkpt lat="43.224794" lon="-5.091162">
        <ele>192.708</ele>
        <time>2021-10-15T10:55:50Z</time>
      </trkpt>
      <trkpt lat="43.224656" lon="-5.091116">
        <ele>193.182</ele>
        <time>2021-10-15T10:55:52Z</time>
      </trkpt>
      <trkpt lat="43.224575" lon="-5.091120">
        <ele>193.690</ele>
        <time>2021-10-15T10:55:53Z</time>
      </trkpt>
      <trkpt lat="43.224485" lon="-5.091144">
        <ele>194.158</ele>
        <time>2021-10-15T10:55:54Z</time>
      </trkpt>
      <trkpt lat="43.224393" lon="-5.091192">
        <ele>194.462</ele>
        <time>2021-10-15T10:55:55Z</time>
      </trkpt>
      <trkpt lat="43.224305" lon="-5.091262">
        <ele>196.077</ele>
        <time>2021-10-15T10:55:56Z</time>
      </trkpt>
      <trkpt lat="43.224156" lon="-5.091452">
        <ele>195.945</ele>
        <time>2021-10-15T10:55:58Z</time>
      </trkpt>
      <trkpt lat="43.223984" lon="-5.091723">
        <ele>197.028</ele>
        <time>2021-10-15T10:56:00Z</time>
      </trkpt>
      <trkpt lat="43.223878" lon="-5.091879">
        <ele>197.093</ele>
        <time>2021-10-15T10:56:01Z</time>
      </trkpt>
      <trkpt lat="43.223757" lon="-5.092043">
        <ele>195.146</ele>
        <time>2021-10-15T10:56:02Z</time>
      </trkpt>
      <trkpt lat="43.223540" lon="-5.092340">
        <ele>194.588</ele>
        <time>2021-10-15T10:56:04Z</time>
      </trkpt>
      <trkpt lat="43.223408" lon="-5.092473">
        <ele>193.516</ele>
        <time>2021-10-15T10:56:05Z</time>
      </trkpt>
      <trkpt lat="43.223157" lon="-5.092670">
        <ele>191.608</ele>
        <time>2021-10-15T10:56:07Z</time>
      </trkpt>
      <trkpt lat="43.223033" lon="-5.092748">
        <ele>190.412</ele>
        <time>2021-10-15T10:56:08Z</time>
      </trkpt>
      <trkpt lat="43.222863" lon="-5.092736">
        <ele>189.640</ele>
        <time>2021-10-15T10:56:10Z</time>
      </trkpt>
      <trkpt lat="43.222736" lon="-5.092560">
        <ele>189.358</ele>
        <time>2021-10-15T10:56:12Z</time>
      </trkpt>
      <trkpt lat="43.222648" lon="-5.092482">
        <ele>189.422</ele>
        <time>2021-10-15T10:56:13Z</time>
      </trkpt>
      <trkpt lat="43.222545" lon="-5.092385">
        <ele>189.537</ele>
        <time>2021-10-15T10:56:14Z</time>
      </trkpt>
      <trkpt lat="43.222345" lon="-5.092165">
        <ele>186.285</ele>
        <time>2021-10-15T10:56:16Z</time>
      </trkpt>
      <trkpt lat="43.222247" lon="-5.092063">
        <ele>185.458</ele>
        <time>2021-10-15T10:56:17Z</time>
      </trkpt>
      <trkpt lat="43.222155" lon="-5.091992">
        <ele>186.293</ele>
        <time>2021-10-15T10:56:18Z</time>
      </trkpt>
      <trkpt lat="43.221999" lon="-5.091981">
        <ele>184.797</ele>
        <time>2021-10-15T10:56:20Z</time>
      </trkpt>
      <trkpt lat="43.221855" lon="-5.092057">
        <ele>184.023</ele>
        <time>2021-10-15T10:56:22Z</time>
      </trkpt>
      <trkpt lat="43.221761" lon="-5.092091">
        <ele>182.225</ele>
        <time>2021-10-15T10:56:23Z</time>
      </trkpt>
      <trkpt lat="43.221535" lon="-5.092115">
        <ele>179.608</ele>
        <time>2021-10-15T10:56:25Z</time>
      </trkpt>
      <trkpt lat="43.221411" lon="-5.092131">
        <ele>178.997</ele>
        <time>2021-10-15T10:56:26Z</time>
      </trkpt>
      <trkpt lat="43.221166" lon="-5.092138">
        <ele>179.585</ele>
        <time>2021-10-15T10:56:28Z</time>
      </trkpt>
      <trkpt lat="43.220918" lon="-5.092092">
        <ele>181.633</ele>
        <time>2021-10-15T10:56:30Z</time>
      </trkpt>
      <trkpt lat="43.220688" lon="-5.092000">
        <ele>183.437</ele>
        <time>2021-10-15T10:56:32Z</time>
      </trkpt>
      <trkpt lat="43.220454" lon="-5.091896">
        <ele>185.062</ele>
        <time>2021-10-15T10:56:34Z</time>
      </trkpt>
      <trkpt lat="43.220326" lon="-5.091849">
        <ele>185.470</ele>
        <time>2021-10-15T10:56:35Z</time>
      </trkpt>
      <trkpt lat="43.220065" lon="-5.091802">
        <ele>191.093</ele>
        <time>2021-10-15T10:56:37Z</time>
      </trkpt>
      <trkpt lat="43.219952" lon="-5.091828">
        <ele>193.028</ele>
        <time>2021-10-15T10:56:38Z</time>
      </trkpt>
      <trkpt lat="43.219715" lon="-5.091940">
        <ele>193.065</ele>
        <time>2021-10-15T10:56:40Z</time>
      </trkpt>
      <trkpt lat="43.219588" lon="-5.092001">
        <ele>195.168</ele>
        <time>2021-10-15T10:56:41Z</time>
      </trkpt>
      <trkpt lat="43.219333" lon="-5.092051">
        <ele>197.214</ele>
        <time>2021-10-15T10:56:43Z</time>
      </trkpt>
      <trkpt lat="43.219188" lon="-5.092030">
        <ele>201.708</ele>
        <time>2021-10-15T10:56:44Z</time>
      </trkpt>
      <trkpt lat="43.218896" lon="-5.091930">
        <ele>206.014</ele>
        <time>2021-10-15T10:56:46Z</time>
      </trkpt>
      <trkpt lat="43.218748" lon="-5.091863">
        <ele>208.292</ele>
        <time>2021-10-15T10:56:47Z</time>
      </trkpt>
      <trkpt lat="43.218606" lon="-5.091797">
        <ele>209.120</ele>
        <time>2021-10-15T10:56:48Z</time>
      </trkpt>
      <trkpt lat="43.218343" lon="-5.091680">
        <ele>210.234</ele>
        <time>2021-10-15T10:56:50Z</time>
      </trkpt>
      <trkpt lat="43.218115" lon="-5.091593">
        <ele>211.449</ele>
        <time>2021-10-15T10:56:52Z</time>
      </trkpt>
      <trkpt lat="43.218010" lon="-5.091561">
        <ele>211.447</ele>
        <time>2021-10-15T10:56:53Z</time>
      </trkpt>
      <trkpt lat="43.217905" lon="-5.091552">
        <ele>213.260</ele>
        <time>2021-10-15T10:56:54Z</time>
      </trkpt>
      <trkpt lat="43.217687" lon="-5.091614">
        <ele>214.895</ele>
        <time>2021-10-15T10:56:56Z</time>
      </trkpt>
      <trkpt lat="43.217475" lon="-5.091630">
        <ele>215.732</ele>
        <time>2021-10-15T10:56:58Z</time>
      </trkpt>
      <trkpt lat="43.217366" lon="-5.091625">
        <ele>215.992</ele>
        <time>2021-10-15T10:56:59Z</time>
      </trkpt>
      <trkpt lat="43.217172" lon="-5.091735">
        <ele>216.911</ele>
        <time>2021-10-15T10:57:01Z</time>
      </trkpt>
      <trkpt lat="43.217078" lon="-5.091844">
        <ele>217.508</ele>
        <time>2021-10-15T10:57:02Z</time>
      </trkpt>
      <trkpt lat="43.216909" lon="-5.092042">
        <ele>220.661</ele>
        <time>2021-10-15T10:57:04Z</time>
      </trkpt>
      <trkpt lat="43.216710" lon="-5.092157">
        <ele>221.719</ele>
        <time>2021-10-15T10:57:06Z</time>
      </trkpt>
      <trkpt lat="43.216592" lon="-5.092169">
        <ele>223.097</ele>
        <time>2021-10-15T10:57:07Z</time>
      </trkpt>
      <trkpt lat="43.216468" lon="-5.092155">
        <ele>224.451</ele>
        <time>2021-10-15T10:57:08Z</time>
      </trkpt>
      <trkpt lat="43.216235" lon="-5.092073">
        <ele>223.976</ele>
        <time>2021-10-15T10:57:10Z</time>
      </trkpt>
      <trkpt lat="43.216134" lon="-5.092019">
        <ele>223.924</ele>
        <time>2021-10-15T10:57:11Z</time>
      </trkpt>
      <trkpt lat="43.215985" lon="-5.091872">
        <ele>222.867</ele>
        <time>2021-10-15T10:57:13Z</time>
      </trkpt>
      <trkpt lat="43.215932" lon="-5.091764">
        <ele>222.742</ele>
        <time>2021-10-15T10:57:14Z</time>
      </trkpt>
      <trkpt lat="43.215850" lon="-5.091491">
        <ele>221.267</ele>
        <time>2021-10-15T10:57:16Z</time>
      </trkpt>
      <trkpt lat="43.215752" lon="-5.091266">
        <ele>223.481</ele>
        <time>2021-10-15T10:57:18Z</time>
      </trkpt>
      <trkpt lat="43.215614" lon="-5.091173">
        <ele>222.019</ele>
        <time>2021-10-15T10:57:20Z</time>
      </trkpt>
      <trkpt lat="43.215512" lon="-5.091244">
        <ele>223.108</ele>
        <time>2021-10-15T10:57:22Z</time>
      </trkpt>
      <trkpt lat="43.215469" lon="-5.091420">
        <ele>223.114</ele>
        <time>2021-10-15T10:57:24Z</time>
      </trkpt>
      <trkpt lat="43.215392" lon="-5.091589">
        <ele>223.472</ele>
        <time>2021-10-15T10:57:26Z</time>
      </trkpt>
      <trkpt lat="43.215242" lon="-5.091659">
        <ele>222.790</ele>
        <time>2021-10-15T10:57:28Z</time>
      </trkpt>
      <trkpt lat="43.215145" lon="-5.091655">
        <ele>222.554</ele>
        <time>2021-10-15T10:57:29Z</time>
      </trkpt>
      <trkpt lat="43.214912" lon="-5.091634">
        <ele>222.439</ele>
        <time>2021-10-15T10:57:31Z</time>
      </trkpt>
      <trkpt lat="43.214770" lon="-5.091643">
        <ele>222.437</ele>
        <time>2021-10-15T10:57:32Z</time>
      </trkpt>
      <trkpt lat="43.214483" lon="-5.091677">
        <ele>222.710</ele>
        <time>2021-10-15T10:57:34Z</time>
      </trkpt>
      <trkpt lat="43.214333" lon="-5.091689">
        <ele>223.985</ele>
        <time>2021-10-15T10:57:35Z</time>
      </trkpt>
      <trkpt lat="43.214053" lon="-5.091710">
        <ele>225.049</ele>
        <time>2021-10-15T10:57:37Z</time>
      </trkpt>
      <trkpt lat="43.213927" lon="-5.091732">
        <ele>224.602</ele>
        <time>2021-10-15T10:57:38Z</time>
      </trkpt>
      <trkpt lat="43.213702" lon="-5.091819">
        <ele>225.022</ele>
        <time>2021-10-15T10:57:40Z</time>
      </trkpt>
      <trkpt lat="43.213481" lon="-5.091944">
        <ele>226.008</ele>
        <time>2021-10-15T10:57:42Z</time>
      </trkpt>
      <trkpt lat="43.213255" lon="-5.092110">
        <ele>226.342</ele>
        <time>2021-10-15T10:57:44Z</time>
      </trkpt>
      <trkpt lat="43.213030" lon="-5.092298">
        <ele>227.320</ele>
        <time>2021-10-15T10:57:46Z</time>
      </trkpt>
      <trkpt lat="43.212807" lon="-5.092450">
        <ele>229.118</ele>
        <time>2021-10-15T10:57:48Z</time>
      </trkpt>
      <trkpt lat="43.212700" lon="-5.092501">
        <ele>228.492</ele>
        <time>2021-10-15T10:57:49Z</time>
      </trkpt>
      <trkpt lat="43.212601" lon="-5.092558">
        <ele>229.017</ele>
        <time>2021-10-15T10:57:50Z</time>
      </trkpt>
      <trkpt lat="43.212419" lon="-5.092685">
        <ele>229.385</ele>
        <time>2021-10-15T10:57:52Z</time>
      </trkpt>
      <trkpt lat="43.212231" lon="-5.092768">
        <ele>231.588</ele>
        <time>2021-10-15T10:57:54Z</time>
      </trkpt>
      <trkpt lat="43.212032" lon="-5.092703">
        <ele>233.143</ele>
        <time>2021-10-15T10:57:56Z</time>
      </trkpt>
      <trkpt lat="43.211832" lon="-5.092533">
        <ele>233.877</ele>
        <time>2021-10-15T10:57:58Z</time>
      </trkpt>
      <trkpt lat="43.211587" lon="-5.092315">
        <ele>234.761</ele>
        <time>2021-10-15T10:58:00Z</time>
      </trkpt>
      <trkpt lat="43.211459" lon="-5.092204">
        <ele>234.927</ele>
        <time>2021-10-15T10:58:01Z</time>
      </trkpt>
      <trkpt lat="43.211335" lon="-5.092106">
        <ele>235.808</ele>
        <time>2021-10-15T10:58:02Z</time>
      </trkpt>
      <trkpt lat="43.211127" lon="-5.091998">
        <ele>236.545</ele>
        <time>2021-10-15T10:58:04Z</time>
      </trkpt>
      <trkpt lat="43.210977" lon="-5.091861">
        <ele>235.893</ele>
        <time>2021-10-15T10:58:06Z</time>
      </trkpt>
      <trkpt lat="43.210919" lon="-5.091609">
        <ele>235.221</ele>
        <time>2021-10-15T10:58:08Z</time>
      </trkpt>
      <trkpt lat="43.210824" lon="-5.091289">
        <ele>236.175</ele>
        <time>2021-10-15T10:58:10Z</time>
      </trkpt>
      <trkpt lat="43.210746" lon="-5.091153">
        <ele>236.550</ele>
        <time>2021-10-15T10:58:11Z</time>
      </trkpt>
      <trkpt lat="43.210602" lon="-5.090940">
        <ele>237.768</ele>
        <time>2021-10-15T10:58:13Z</time>
      </trkpt>
      <trkpt lat="43.210536" lon="-5.090853">
        <ele>237.711</ele>
        <time>2021-10-15T10:58:14Z</time>
      </trkpt>
      <trkpt lat="43.210413" lon="-5.090707">
        <ele>239.256</ele>
        <time>2021-10-15T10:58:16Z</time>
      </trkpt>
      <trkpt lat="43.210303" lon="-5.090594">
        <ele>239.473</ele>
        <time>2021-10-15T10:58:18Z</time>
      </trkpt>
      <trkpt lat="43.210250" lon="-5.090549">
        <ele>239.485</ele>
        <time>2021-10-15T10:58:19Z</time>
      </trkpt>
      <trkpt lat="43.210195" lon="-5.090517">
        <ele>239.513</ele>
        <time>2021-10-15T10:58:20Z</time>
      </trkpt>
      <trkpt lat="43.210090" lon="-5.090503">
        <ele>239.508</ele>
        <time>2021-10-15T10:58:22Z</time>
      </trkpt>
      <trkpt lat="43.210045" lon="-5.090507">
        <ele>239.545</ele>
        <time>2021-10-15T10:58:23Z</time>
      </trkpt>
      <trkpt lat="43.209974" lon="-5.090527">
        <ele>240.073</ele>
        <time>2021-10-15T10:58:25Z</time>
      </trkpt>
      <trkpt lat="43.209915" lon="-5.090536">
        <ele>239.991</ele>
        <time>2021-10-15T10:58:27Z</time>
      </trkpt>
      <trkpt lat="43.209857" lon="-5.090529">
        <ele>239.715</ele>
        <time>2021-10-15T10:58:31Z</time>
      </trkpt>
      <trkpt lat="43.209812" lon="-5.090517">
        <ele>239.160</ele>
        <time>2021-10-15T10:58:37Z</time>
      </trkpt>
      <trkpt lat="43.209761" lon="-5.090528">
        <ele>238.798</ele>
        <time>2021-10-15T10:58:40Z</time>
      </trkpt>
      <trkpt lat="43.209713" lon="-5.090519">
        <ele>238.721</ele>
        <time>2021-10-15T10:58:54Z</time>
      </trkpt>
      <trkpt lat="43.209760" lon="-5.090567">
        <ele>238.566</ele>
        <time>2021-10-15T11:00:06Z</time>
      </trkpt>
      <trkpt lat="43.209768" lon="-5.090660">
        <ele>238.557</ele>
        <time>2021-10-15T11:00:09Z</time>
      </trkpt>
      <trkpt lat="43.209742" lon="-5.090713">
        <ele>238.400</ele>
        <time>2021-10-15T11:00:11Z</time>
      </trkpt>
      <trkpt lat="43.209709" lon="-5.090760">
        <ele>238.320</ele>
        <time>2021-10-15T11:00:14Z</time>
      </trkpt>
      <trkpt lat="43.209674" lon="-5.090800">
        <ele>237.208</ele>
        <time>2021-10-15T11:00:17Z</time>
      </trkpt>
      <trkpt lat="43.209641" lon="-5.090849">
        <ele>236.733</ele>
        <time>2021-10-15T11:00:37Z</time>
      </trkpt>
      <trkpt lat="43.209579" lon="-5.090899">
        <ele>260.721</ele>
        <time>2021-10-15T11:00:53Z</time>
      </trkpt>
      <trkpt lat="43.209478" lon="-5.090972">
        <ele>287.179</ele>
        <time>2021-10-15T11:00:55Z</time>
      </trkpt>
      <trkpt lat="43.209405" lon="-5.091004">
        <ele>287.153</ele>
        <time>2021-10-15T11:00:56Z</time>
      </trkpt>
      <trkpt lat="43.209270" lon="-5.091016">
        <ele>287.288</ele>
        <time>2021-10-15T11:00:58Z</time>
      </trkpt>
      <trkpt lat="43.209211" lon="-5.091005">
        <ele>287.276</ele>
        <time>2021-10-15T11:00:59Z</time>
      </trkpt>
      <trkpt lat="43.209107" lon="-5.090968">
        <ele>287.259</ele>
        <time>2021-10-15T11:01:01Z</time>
      </trkpt>
      <trkpt lat="43.209054" lon="-5.090942">
        <ele>287.224</ele>
        <time>2021-10-15T11:01:02Z</time>
      </trkpt>
      <trkpt lat="43.208947" lon="-5.090880">
        <ele>287.235</ele>
        <time>2021-10-15T11:01:04Z</time>
      </trkpt>
      <trkpt lat="43.208832" lon="-5.090813">
        <ele>287.286</ele>
        <time>2021-10-15T11:01:06Z</time>
      </trkpt>
      <trkpt lat="43.208694" lon="-5.090773">
        <ele>287.214</ele>
        <time>2021-10-15T11:01:08Z</time>
      </trkpt>
      <trkpt lat="43.208543" lon="-5.090834">
        <ele>287.208</ele>
        <time>2021-10-15T11:01:10Z</time>
      </trkpt>
      <trkpt lat="43.208468" lon="-5.090915">
        <ele>287.231</ele>
        <time>2021-10-15T11:01:11Z</time>
      </trkpt>
      <trkpt lat="43.208392" lon="-5.091025">
        <ele>287.229</ele>
        <time>2021-10-15T11:01:12Z</time>
      </trkpt>
      <trkpt lat="43.208314" lon="-5.091145">
        <ele>287.287</ele>
        <time>2021-10-15T11:01:13Z</time>
      </trkpt>
      <trkpt lat="43.208227" lon="-5.091270">
        <ele>287.251</ele>
        <time>2021-10-15T11:01:14Z</time>
      </trkpt>
      <trkpt lat="43.208020" lon="-5.091469">
        <ele>287.246</ele>
        <time>2021-10-15T11:01:16Z</time>
      </trkpt>
      <trkpt lat="43.207899" lon="-5.091527">
        <ele>287.214</ele>
        <time>2021-10-15T11:01:17Z</time>
      </trkpt>
      <trkpt lat="43.207655" lon="-5.091578">
        <ele>287.237</ele>
        <time>2021-10-15T11:01:19Z</time>
      </trkpt>
      <trkpt lat="43.207543" lon="-5.091592">
        <ele>287.212</ele>
        <time>2021-10-15T11:01:20Z</time>
      </trkpt>
      <trkpt lat="43.207352" lon="-5.091556">
        <ele>287.362</ele>
        <time>2021-10-15T11:01:22Z</time>
      </trkpt>
      <trkpt lat="43.207173" lon="-5.091491">
        <ele>287.383</ele>
        <time>2021-10-15T11:01:24Z</time>
      </trkpt>
      <trkpt lat="43.207016" lon="-5.091397">
        <ele>287.211</ele>
        <time>2021-10-15T11:01:26Z</time>
      </trkpt>
      <trkpt lat="43.206894" lon="-5.091202">
        <ele>287.208</ele>
        <time>2021-10-15T11:01:28Z</time>
      </trkpt>
      <trkpt lat="43.206819" lon="-5.091100">
        <ele>287.244</ele>
        <time>2021-10-15T11:01:29Z</time>
      </trkpt>
      <trkpt lat="43.206633" lon="-5.091000">
        <ele>287.252</ele>
        <time>2021-10-15T11:01:31Z</time>
      </trkpt>
      <trkpt lat="43.206535" lon="-5.090990">
        <ele>287.250</ele>
        <time>2021-10-15T11:01:32Z</time>
      </trkpt>
      <trkpt lat="43.206375" lon="-5.090901">
        <ele>287.214</ele>
        <time>2021-10-15T11:01:34Z</time>
      </trkpt>
      <trkpt lat="43.206304" lon="-5.090801">
        <ele>287.229</ele>
        <time>2021-10-15T11:01:35Z</time>
      </trkpt>
      <trkpt lat="43.206226" lon="-5.090668">
        <ele>287.227</ele>
        <time>2021-10-15T11:01:36Z</time>
      </trkpt>
      <trkpt lat="43.206138" lon="-5.090513">
        <ele>287.220</ele>
        <time>2021-10-15T11:01:37Z</time>
      </trkpt>
      <trkpt lat="43.206042" lon="-5.090334">
        <ele>287.285</ele>
        <time>2021-10-15T11:01:38Z</time>
      </trkpt>
      <trkpt lat="43.205905" lon="-5.090013">
        <ele>287.252</ele>
        <time>2021-10-15T11:01:40Z</time>
      </trkpt>
      <trkpt lat="43.205856" lon="-5.089860">
        <ele>287.253</ele>
        <time>2021-10-15T11:01:41Z</time>
      </trkpt>
      <trkpt lat="43.205774" lon="-5.089588">
        <ele>287.208</ele>
        <time>2021-10-15T11:01:43Z</time>
      </trkpt>
      <trkpt lat="43.205723" lon="-5.089483">
        <ele>287.208</ele>
        <time>2021-10-15T11:01:44Z</time>
      </trkpt>
      <trkpt lat="43.205583" lon="-5.089366">
        <ele>287.223</ele>
        <time>2021-10-15T11:01:46Z</time>
      </trkpt>
      <trkpt lat="43.205485" lon="-5.089339">
        <ele>287.231</ele>
        <time>2021-10-15T11:01:47Z</time>
      </trkpt>
      <trkpt lat="43.205371" lon="-5.089327">
        <ele>287.259</ele>
        <time>2021-10-15T11:01:48Z</time>
      </trkpt>
      <trkpt lat="43.205071" lon="-5.089319">
        <ele>249.333</ele>
        <time>2021-10-15T11:01:50Z</time>
      </trkpt>
      <trkpt lat="43.204726" lon="-5.089256">
        <ele>248.968</ele>
        <time>2021-10-15T11:01:52Z</time>
      </trkpt>
      <trkpt lat="43.204567" lon="-5.089182">
        <ele>249.086</ele>
        <time>2021-10-15T11:01:53Z</time>
      </trkpt>
      <trkpt lat="43.204275" lon="-5.088958">
        <ele>249.279</ele>
        <time>2021-10-15T11:01:55Z</time>
      </trkpt>
      <trkpt lat="43.204140" lon="-5.088824">
        <ele>248.944</ele>
        <time>2021-10-15T11:01:56Z</time>
      </trkpt>
      <trkpt lat="43.203920" lon="-5.088594">
        <ele>248.792</ele>
        <time>2021-10-15T11:01:58Z</time>
      </trkpt>
      <trkpt lat="43.203821" lon="-5.088504">
        <ele>247.373</ele>
        <time>2021-10-15T11:01:59Z</time>
      </trkpt>
      <trkpt lat="43.203605" lon="-5.088407">
        <ele>246.620</ele>
        <time>2021-10-15T11:02:01Z</time>
      </trkpt>
      <trkpt lat="43.203481" lon="-5.088393">
        <ele>247.108</ele>
        <time>2021-10-15T11:02:02Z</time>
      </trkpt>
      <trkpt lat="43.203236" lon="-5.088364">
        <ele>247.157</ele>
        <time>2021-10-15T11:02:04Z</time>
      </trkpt>
      <trkpt lat="43.203115" lon="-5.088328">
        <ele>246.985</ele>
        <time>2021-10-15T11:02:05Z</time>
      </trkpt>
      <trkpt lat="43.202865" lon="-5.088305">
        <ele>246.943</ele>
        <time>2021-10-15T11:02:07Z</time>
      </trkpt>
      <trkpt lat="43.202725" lon="-5.088328">
        <ele>247.077</ele>
        <time>2021-10-15T11:02:08Z</time>
      </trkpt>
      <trkpt lat="43.202467" lon="-5.088385">
        <ele>247.052</ele>
        <time>2021-10-15T11:02:10Z</time>
      </trkpt>
      <trkpt lat="43.202255" lon="-5.088410">
        <ele>247.670</ele>
        <time>2021-10-15T11:02:12Z</time>
      </trkpt>
      <trkpt lat="43.202093" lon="-5.088331">
        <ele>247.973</ele>
        <time>2021-10-15T11:02:14Z</time>
      </trkpt>
      <trkpt lat="43.201986" lon="-5.088216">
        <ele>248.958</ele>
        <time>2021-10-15T11:02:16Z</time>
      </trkpt>
      <trkpt lat="43.201917" lon="-5.088173">
        <ele>249.494</ele>
        <time>2021-10-15T11:02:17Z</time>
      </trkpt>
      <trkpt lat="43.201734" lon="-5.088104">
        <ele>250.457</ele>
        <time>2021-10-15T11:02:19Z</time>
      </trkpt>
      <trkpt lat="43.201633" lon="-5.088043">
        <ele>251.222</ele>
        <time>2021-10-15T11:02:20Z</time>
      </trkpt>
      <trkpt lat="43.201455" lon="-5.087852">
        <ele>251.508</ele>
        <time>2021-10-15T11:02:22Z</time>
      </trkpt>
      <trkpt lat="43.201362" lon="-5.087765">
        <ele>251.597</ele>
        <time>2021-10-15T11:02:23Z</time>
      </trkpt>
      <trkpt lat="43.201140" lon="-5.087667">
        <ele>252.525</ele>
        <time>2021-10-15T11:02:25Z</time>
      </trkpt>
      <trkpt lat="43.201016" lon="-5.087626">
        <ele>252.533</ele>
        <time>2021-10-15T11:02:26Z</time>
      </trkpt>
      <trkpt lat="43.200786" lon="-5.087510">
        <ele>253.027</ele>
        <time>2021-10-15T11:02:28Z</time>
      </trkpt>
      <trkpt lat="43.200525" lon="-5.087400">
        <ele>255.452</ele>
        <time>2021-10-15T11:02:30Z</time>
      </trkpt>
      <trkpt lat="43.200382" lon="-5.087364">
        <ele>257.230</ele>
        <time>2021-10-15T11:02:31Z</time>
      </trkpt>
      <trkpt lat="43.200235" lon="-5.087331">
        <ele>257.943</ele>
        <time>2021-10-15T11:02:32Z</time>
      </trkpt>
      <trkpt lat="43.199985" lon="-5.087257">
        <ele>259.428</ele>
        <time>2021-10-15T11:02:34Z</time>
      </trkpt>
      <trkpt lat="43.199877" lon="-5.087183">
        <ele>260.045</ele>
        <time>2021-10-15T11:02:35Z</time>
      </trkpt>
      <trkpt lat="43.199776" lon="-5.087083">
        <ele>260.347</ele>
        <time>2021-10-15T11:02:36Z</time>
      </trkpt>
      <trkpt lat="43.199679" lon="-5.086967">
        <ele>261.011</ele>
        <time>2021-10-15T11:02:37Z</time>
      </trkpt>
      <trkpt lat="43.199584" lon="-5.086853">
        <ele>261.008</ele>
        <time>2021-10-15T11:02:38Z</time>
      </trkpt>
      <trkpt lat="43.199384" lon="-5.086668">
        <ele>261.372</ele>
        <time>2021-10-15T11:02:40Z</time>
      </trkpt>
      <trkpt lat="43.199258" lon="-5.086592">
        <ele>261.320</ele>
        <time>2021-10-15T11:02:41Z</time>
      </trkpt>
      <trkpt lat="43.199117" lon="-5.086531">
        <ele>261.318</ele>
        <time>2021-10-15T11:02:42Z</time>
      </trkpt>
      <trkpt lat="43.198971" lon="-5.086481">
        <ele>260.292</ele>
        <time>2021-10-15T11:02:43Z</time>
      </trkpt>
      <trkpt lat="43.198817" lon="-5.086439">
        <ele>259.157</ele>
        <time>2021-10-15T11:02:44Z</time>
      </trkpt>
      <trkpt lat="43.198511" lon="-5.086401">
        <ele>260.145</ele>
        <time>2021-10-15T11:02:46Z</time>
      </trkpt>
      <trkpt lat="43.198363" lon="-5.086392">
        <ele>261.348</ele>
        <time>2021-10-15T11:02:47Z</time>
      </trkpt>
      <trkpt lat="43.198225" lon="-5.086365">
        <ele>261.693</ele>
        <time>2021-10-15T11:02:48Z</time>
      </trkpt>
      <trkpt lat="43.197983" lon="-5.086227">
        <ele>262.362</ele>
        <time>2021-10-15T11:02:50Z</time>
      </trkpt>
      <trkpt lat="43.197786" lon="-5.085987">
        <ele>265.083</ele>
        <time>2021-10-15T11:02:52Z</time>
      </trkpt>
      <trkpt lat="43.197698" lon="-5.085833">
        <ele>266.111</ele>
        <time>2021-10-15T11:02:53Z</time>
      </trkpt>
      <trkpt lat="43.197617" lon="-5.085656">
        <ele>266.708</ele>
        <time>2021-10-15T11:02:54Z</time>
      </trkpt>
      <trkpt lat="43.197486" lon="-5.085284">
        <ele>266.424</ele>
        <time>2021-10-15T11:02:56Z</time>
      </trkpt>
      <trkpt lat="43.197339" lon="-5.084961">
        <ele>267.482</ele>
        <time>2021-10-15T11:02:58Z</time>
      </trkpt>
      <trkpt lat="43.197261" lon="-5.084812">
        <ele>268.350</ele>
        <time>2021-10-15T11:02:59Z</time>
      </trkpt>
      <trkpt lat="43.197115" lon="-5.084569">
        <ele>268.714</ele>
        <time>2021-10-15T11:03:01Z</time>
      </trkpt>
      <trkpt lat="43.197033" lon="-5.084490">
        <ele>269.599</ele>
        <time>2021-10-15T11:03:02Z</time>
      </trkpt>
      <trkpt lat="43.196842" lon="-5.084419">
        <ele>272.027</ele>
        <time>2021-10-15T11:03:04Z</time>
      </trkpt>
      <trkpt lat="43.196625" lon="-5.084324">
        <ele>273.860</ele>
        <time>2021-10-15T11:03:06Z</time>
      </trkpt>
      <trkpt lat="43.196390" lon="-5.084297">
        <ele>276.095</ele>
        <time>2021-10-15T11:03:08Z</time>
      </trkpt>
      <trkpt lat="43.196148" lon="-5.084370">
        <ele>276.686</ele>
        <time>2021-10-15T11:03:10Z</time>
      </trkpt>
      <trkpt lat="43.195937" lon="-5.084418">
        <ele>278.660</ele>
        <time>2021-10-15T11:03:12Z</time>
      </trkpt>
      <trkpt lat="43.195784" lon="-5.084319">
        <ele>280.426</ele>
        <time>2021-10-15T11:03:14Z</time>
      </trkpt>
      <trkpt lat="43.195672" lon="-5.084087">
        <ele>282.008</ele>
        <time>2021-10-15T11:03:16Z</time>
      </trkpt>
      <trkpt lat="43.195623" lon="-5.083968">
        <ele>282.086</ele>
        <time>2021-10-15T11:03:17Z</time>
      </trkpt>
      <trkpt lat="43.195489" lon="-5.083813">
        <ele>282.264</ele>
        <time>2021-10-15T11:03:19Z</time>
      </trkpt>
      <trkpt lat="43.195398" lon="-5.083768">
        <ele>284.382</ele>
        <time>2021-10-15T11:03:20Z</time>
      </trkpt>
      <trkpt lat="43.195158" lon="-5.083665">
        <ele>285.926</ele>
        <time>2021-10-15T11:03:22Z</time>
      </trkpt>
      <trkpt lat="43.194987" lon="-5.083588">
        <ele>285.641</ele>
        <time>2021-10-15T11:03:23Z</time>
      </trkpt>
      <trkpt lat="43.194808" lon="-5.083503">
        <ele>286.479</ele>
        <time>2021-10-15T11:03:24Z</time>
      </trkpt>
      <trkpt lat="43.194470" lon="-5.083365">
        <ele>287.262</ele>
        <time>2021-10-15T11:03:26Z</time>
      </trkpt>
      <trkpt lat="43.194197" lon="-5.083245">
        <ele>288.547</ele>
        <time>2021-10-15T11:03:28Z</time>
      </trkpt>
      <trkpt lat="43.194080" lon="-5.083146">
        <ele>288.975</ele>
        <time>2021-10-15T11:03:29Z</time>
      </trkpt>
      <trkpt lat="43.193917" lon="-5.082910">
        <ele>288.528</ele>
        <time>2021-10-15T11:03:31Z</time>
      </trkpt>
      <trkpt lat="43.193849" lon="-5.082783">
        <ele>290.120</ele>
        <time>2021-10-15T11:03:32Z</time>
      </trkpt>
      <trkpt lat="43.193704" lon="-5.082604">
        <ele>292.008</ele>
        <time>2021-10-15T11:03:34Z</time>
      </trkpt>
      <trkpt lat="43.193602" lon="-5.082546">
        <ele>292.365</ele>
        <time>2021-10-15T11:03:35Z</time>
      </trkpt>
      <trkpt lat="43.193495" lon="-5.082502">
        <ele>292.623</ele>
        <time>2021-10-15T11:03:36Z</time>
      </trkpt>
      <trkpt lat="43.193277" lon="-5.082372">
        <ele>294.941</ele>
        <time>2021-10-15T11:03:38Z</time>
      </trkpt>
      <trkpt lat="43.193054" lon="-5.082157">
        <ele>295.545</ele>
        <time>2021-10-15T11:03:40Z</time>
      </trkpt>
      <trkpt lat="43.192940" lon="-5.082031">
        <ele>297.540</ele>
        <time>2021-10-15T11:03:41Z</time>
      </trkpt>
      <trkpt lat="43.192829" lon="-5.081901">
        <ele>297.828</ele>
        <time>2021-10-15T11:03:42Z</time>
      </trkpt>
      <trkpt lat="43.192649" lon="-5.081684">
        <ele>297.481</ele>
        <time>2021-10-15T11:03:44Z</time>
      </trkpt>
      <trkpt lat="43.192550" lon="-5.081530">
        <ele>298.136</ele>
        <time>2021-10-15T11:03:46Z</time>
      </trkpt>
      <trkpt lat="43.192531" lon="-5.081456">
        <ele>298.883</ele>
        <time>2021-10-15T11:03:47Z</time>
      </trkpt>
      <trkpt lat="43.192533" lon="-5.081380">
        <ele>299.625</ele>
        <time>2021-10-15T11:03:48Z</time>
      </trkpt>
      <trkpt lat="43.192581" lon="-5.081221">
        <ele>299.517</ele>
        <time>2021-10-15T11:03:50Z</time>
      </trkpt>
      <trkpt lat="43.192579" lon="-5.081061">
        <ele>298.308</ele>
        <time>2021-10-15T11:03:52Z</time>
      </trkpt>
      <trkpt lat="43.192525" lon="-5.080984">
        <ele>298.056</ele>
        <time>2021-10-15T11:03:53Z</time>
      </trkpt>
      <trkpt lat="43.192438" lon="-5.080916">
        <ele>297.484</ele>
        <time>2021-10-15T11:03:54Z</time>
      </trkpt>
      <trkpt lat="43.192196" lon="-5.080798">
        <ele>295.762</ele>
        <time>2021-10-15T11:03:56Z</time>
      </trkpt>
      <trkpt lat="43.191934" lon="-5.080740">
        <ele>291.686</ele>
        <time>2021-10-15T11:03:58Z</time>
      </trkpt>
      <trkpt lat="43.191790" lon="-5.080734">
        <ele>291.541</ele>
        <time>2021-10-15T11:03:59Z</time>
      </trkpt>
      <trkpt lat="43.191481" lon="-5.080759">
        <ele>288.889</ele>
        <time>2021-10-15T11:04:01Z</time>
      </trkpt>
      <trkpt lat="43.191315" lon="-5.080772">
        <ele>287.722</ele>
        <time>2021-10-15T11:04:02Z</time>
      </trkpt>
      <trkpt lat="43.191020" lon="-5.080757">
        <ele>285.927</ele>
        <time>2021-10-15T11:04:04Z</time>
      </trkpt>
      <trkpt lat="43.190880" lon="-5.080718">
        <ele>283.687</ele>
        <time>2021-10-15T11:04:05Z</time>
      </trkpt>
      <trkpt lat="43.190747" lon="-5.080652">
        <ele>282.942</ele>
        <time>2021-10-15T11:04:06Z</time>
      </trkpt>
      <trkpt lat="43.190488" lon="-5.080517">
        <ele>280.126</ele>
        <time>2021-10-15T11:04:08Z</time>
      </trkpt>
      <trkpt lat="43.190237" lon="-5.080475">
        <ele>278.808</ele>
        <time>2021-10-15T11:04:10Z</time>
      </trkpt>
      <trkpt lat="43.190114" lon="-5.080448">
        <ele>279.476</ele>
        <time>2021-10-15T11:04:11Z</time>
      </trkpt>
      <trkpt lat="43.189898" lon="-5.080298">
        <ele>278.424</ele>
        <time>2021-10-15T11:04:13Z</time>
      </trkpt>
      <trkpt lat="43.189794" lon="-5.080176">
        <ele>278.222</ele>
        <time>2021-10-15T11:04:14Z</time>
      </trkpt>
      <trkpt lat="43.189570" lon="-5.080003">
        <ele>276.886</ele>
        <time>2021-10-15T11:04:16Z</time>
      </trkpt>
      <trkpt lat="43.189445" lon="-5.079955">
        <ele>276.871</ele>
        <time>2021-10-15T11:04:17Z</time>
      </trkpt>
      <trkpt lat="43.189315" lon="-5.079904">
        <ele>276.739</ele>
        <time>2021-10-15T11:04:18Z</time>
      </trkpt>
      <trkpt lat="43.189078" lon="-5.079761">
        <ele>277.512</ele>
        <time>2021-10-15T11:04:20Z</time>
      </trkpt>
      <trkpt lat="43.188877" lon="-5.079721">
        <ele>278.277</ele>
        <time>2021-10-15T11:04:22Z</time>
      </trkpt>
      <trkpt lat="43.188702" lon="-5.079651">
        <ele>277.848</ele>
        <time>2021-10-15T11:04:24Z</time>
      </trkpt>
      <trkpt lat="43.188620" lon="-5.079565">
        <ele>277.861</ele>
        <time>2021-10-15T11:04:25Z</time>
      </trkpt>
      <trkpt lat="43.188544" lon="-5.079446">
        <ele>277.817</ele>
        <time>2021-10-15T11:04:26Z</time>
      </trkpt>
      <trkpt lat="43.188404" lon="-5.079236">
        <ele>275.508</ele>
        <time>2021-10-15T11:04:28Z</time>
      </trkpt>
      <trkpt lat="43.188322" lon="-5.079005">
        <ele>274.722</ele>
        <time>2021-10-15T11:04:30Z</time>
      </trkpt>
      <trkpt lat="43.188317" lon="-5.078869">
        <ele>274.710</ele>
        <time>2021-10-15T11:04:31Z</time>
      </trkpt>
      <trkpt lat="43.188304" lon="-5.078742">
        <ele>274.798</ele>
        <time>2021-10-15T11:04:32Z</time>
      </trkpt>
      <trkpt lat="43.188213" lon="-5.078584">
        <ele>275.552</ele>
        <time>2021-10-15T11:04:34Z</time>
      </trkpt>
      <trkpt lat="43.188069" lon="-5.078438">
        <ele>275.677</ele>
        <time>2021-10-15T11:04:36Z</time>
      </trkpt>
      <trkpt lat="43.187934" lon="-5.078174">
        <ele>276.085</ele>
        <time>2021-10-15T11:04:38Z</time>
      </trkpt>
      <trkpt lat="43.187869" lon="-5.077873">
        <ele>277.358</ele>
        <time>2021-10-15T11:04:40Z</time>
      </trkpt>
      <trkpt lat="43.187829" lon="-5.077752">
        <ele>276.923</ele>
        <time>2021-10-15T11:04:41Z</time>
      </trkpt>
      <trkpt lat="43.187734" lon="-5.077628">
        <ele>277.915</ele>
        <time>2021-10-15T11:04:43Z</time>
      </trkpt>
      <trkpt lat="43.187683" lon="-5.077606">
        <ele>278.165</ele>
        <time>2021-10-15T11:04:44Z</time>
      </trkpt>
      <trkpt lat="43.187560" lon="-5.077613">
        <ele>277.911</ele>
        <time>2021-10-15T11:04:46Z</time>
      </trkpt>
      <trkpt lat="43.187496" lon="-5.077637">
        <ele>276.708</ele>
        <time>2021-10-15T11:04:47Z</time>
      </trkpt>
      <trkpt lat="43.187359" lon="-5.077678">
        <ele>276.439</ele>
        <time>2021-10-15T11:04:49Z</time>
      </trkpt>
      <trkpt lat="43.187279" lon="-5.077673">
        <ele>277.267</ele>
        <time>2021-10-15T11:04:50Z</time>
      </trkpt>
      <trkpt lat="43.187127" lon="-5.077560">
        <ele>277.435</ele>
        <time>2021-10-15T11:04:52Z</time>
      </trkpt>
      <trkpt lat="43.186981" lon="-5.077316">
        <ele>278.759</ele>
        <time>2021-10-15T11:04:54Z</time>
      </trkpt>
      <trkpt lat="43.186831" lon="-5.077025">
        <ele>278.994</ele>
        <time>2021-10-15T11:04:56Z</time>
      </trkpt>
      <trkpt lat="43.186681" lon="-5.076752">
        <ele>277.952</ele>
        <time>2021-10-15T11:04:58Z</time>
      </trkpt>
      <trkpt lat="43.186536" lon="-5.076478">
        <ele>279.615</ele>
        <time>2021-10-15T11:05:00Z</time>
      </trkpt>
      <trkpt lat="43.186404" lon="-5.076232">
        <ele>279.770</ele>
        <time>2021-10-15T11:05:02Z</time>
      </trkpt>
      <trkpt lat="43.186260" lon="-5.076063">
        <ele>279.441</ele>
        <time>2021-10-15T11:05:04Z</time>
      </trkpt>
      <trkpt lat="43.186160" lon="-5.076017">
        <ele>279.381</ele>
        <time>2021-10-15T11:05:05Z</time>
      </trkpt>
      <trkpt lat="43.185918" lon="-5.076014">
        <ele>280.209</ele>
        <time>2021-10-15T11:05:07Z</time>
      </trkpt>
      <trkpt lat="43.185795" lon="-5.076058">
        <ele>280.308</ele>
        <time>2021-10-15T11:05:08Z</time>
      </trkpt>
      <trkpt lat="43.185604" lon="-5.076200">
        <ele>280.962</ele>
        <time>2021-10-15T11:05:10Z</time>
      </trkpt>
      <trkpt lat="43.185534" lon="-5.076286">
        <ele>281.370</ele>
        <time>2021-10-15T11:05:11Z</time>
      </trkpt>
      <trkpt lat="43.185413" lon="-5.076411">
        <ele>284.758</ele>
        <time>2021-10-15T11:05:13Z</time>
      </trkpt>
      <trkpt lat="43.185352" lon="-5.076447">
        <ele>285.772</ele>
        <time>2021-10-15T11:05:14Z</time>
      </trkpt>
      <trkpt lat="43.185229" lon="-5.076479">
        <ele>287.827</ele>
        <time>2021-10-15T11:05:16Z</time>
      </trkpt>
      <trkpt lat="43.185161" lon="-5.076495">
        <ele>288.625</ele>
        <time>2021-10-15T11:05:17Z</time>
      </trkpt>
      <trkpt lat="43.185091" lon="-5.076525">
        <ele>288.998</ele>
        <time>2021-10-15T11:05:18Z</time>
      </trkpt>
      <trkpt lat="43.184961" lon="-5.076632">
        <ele>290.453</ele>
        <time>2021-10-15T11:05:20Z</time>
      </trkpt>
      <trkpt lat="43.184839" lon="-5.076697">
        <ele>292.764</ele>
        <time>2021-10-15T11:05:22Z</time>
      </trkpt>
      <trkpt lat="43.184703" lon="-5.076668">
        <ele>293.906</ele>
        <time>2021-10-15T11:05:24Z</time>
      </trkpt>
      <trkpt lat="43.184631" lon="-5.076619">
        <ele>294.216</ele>
        <time>2021-10-15T11:05:25Z</time>
      </trkpt>
      <trkpt lat="43.184553" lon="-5.076547">
        <ele>294.308</ele>
        <time>2021-10-15T11:05:26Z</time>
      </trkpt>
      <trkpt lat="43.184408" lon="-5.076366">
        <ele>294.744</ele>
        <time>2021-10-15T11:05:28Z</time>
      </trkpt>
      <trkpt lat="43.184336" lon="-5.076259">
        <ele>295.552</ele>
        <time>2021-10-15T11:05:29Z</time>
      </trkpt>
      <trkpt lat="43.184215" lon="-5.076043">
        <ele>296.770</ele>
        <time>2021-10-15T11:05:31Z</time>
      </trkpt>
      <trkpt lat="43.184161" lon="-5.075946">
        <ele>299.354</ele>
        <time>2021-10-15T11:05:32Z</time>
      </trkpt>
      <trkpt lat="43.184056" lon="-5.075806">
        <ele>299.219</ele>
        <time>2021-10-15T11:05:34Z</time>
      </trkpt>
      <trkpt lat="43.184001" lon="-5.075756">
        <ele>299.537</ele>
        <time>2021-10-15T11:05:35Z</time>
      </trkpt>
      <trkpt lat="43.183849" lon="-5.075652">
        <ele>300.070</ele>
        <time>2021-10-15T11:05:37Z</time>
      </trkpt>
      <trkpt lat="43.183755" lon="-5.075605">
        <ele>300.655</ele>
        <time>2021-10-15T11:05:38Z</time>
      </trkpt>
      <trkpt lat="43.183535" lon="-5.075587">
        <ele>300.649</ele>
        <time>2021-10-15T11:05:40Z</time>
      </trkpt>
      <trkpt lat="43.183263" lon="-5.075632">
        <ele>300.502</ele>
        <time>2021-10-15T11:05:42Z</time>
      </trkpt>
      <trkpt lat="43.182947" lon="-5.075693">
        <ele>302.122</ele>
        <time>2021-10-15T11:05:44Z</time>
      </trkpt>
      <trkpt lat="43.182667" lon="-5.075773">
        <ele>302.408</ele>
        <time>2021-10-15T11:05:46Z</time>
      </trkpt>
      <trkpt lat="43.182550" lon="-5.075814">
        <ele>302.932</ele>
        <time>2021-10-15T11:05:47Z</time>
      </trkpt>
      <trkpt lat="43.182348" lon="-5.075866">
        <ele>303.040</ele>
        <time>2021-10-15T11:05:49Z</time>
      </trkpt>
      <trkpt lat="43.182251" lon="-5.075864">
        <ele>303.298</ele>
        <time>2021-10-15T11:05:50Z</time>
      </trkpt>
      <trkpt lat="43.182056" lon="-5.075823">
        <ele>305.132</ele>
        <time>2021-10-15T11:05:52Z</time>
      </trkpt>
      <trkpt lat="43.181852" lon="-5.075816">
        <ele>304.657</ele>
        <time>2021-10-15T11:05:54Z</time>
      </trkpt>
      <trkpt lat="43.181660" lon="-5.075931">
        <ele>305.065</ele>
        <time>2021-10-15T11:05:56Z</time>
      </trkpt>
      <trkpt lat="43.181452" lon="-5.076070">
        <ele>306.068</ele>
        <time>2021-10-15T11:05:58Z</time>
      </trkpt>
      <trkpt lat="43.181236" lon="-5.076150">
        <ele>305.613</ele>
        <time>2021-10-15T11:06:00Z</time>
      </trkpt>
      <trkpt lat="43.181138" lon="-5.076161">
        <ele>302.275</ele>
        <time>2021-10-15T11:06:01Z</time>
      </trkpt>
      <trkpt lat="43.181047" lon="-5.076144">
        <ele>301.928</ele>
        <time>2021-10-15T11:06:02Z</time>
      </trkpt>
      <trkpt lat="43.180858" lon="-5.076125">
        <ele>302.120</ele>
        <time>2021-10-15T11:06:04Z</time>
      </trkpt>
      <trkpt lat="43.180652" lon="-5.076229">
        <ele>302.408</ele>
        <time>2021-10-15T11:06:06Z</time>
      </trkpt>
      <trkpt lat="43.180393" lon="-5.076353">
        <ele>301.735</ele>
        <time>2021-10-15T11:06:08Z</time>
      </trkpt>
      <trkpt lat="43.180157" lon="-5.076450">
        <ele>302.453</ele>
        <time>2021-10-15T11:06:10Z</time>
      </trkpt>
      <trkpt lat="43.180053" lon="-5.076494">
        <ele>302.691</ele>
        <time>2021-10-15T11:06:11Z</time>
      </trkpt>
      <trkpt lat="43.179875" lon="-5.076627">
        <ele>301.175</ele>
        <time>2021-10-15T11:06:13Z</time>
      </trkpt>
      <trkpt lat="43.179792" lon="-5.076734">
        <ele>301.160</ele>
        <time>2021-10-15T11:06:14Z</time>
      </trkpt>
      <trkpt lat="43.179622" lon="-5.076964">
        <ele>301.768</ele>
        <time>2021-10-15T11:06:16Z</time>
      </trkpt>
      <trkpt lat="43.179408" lon="-5.077114">
        <ele>303.421</ele>
        <time>2021-10-15T11:06:18Z</time>
      </trkpt>
      <trkpt lat="43.179170" lon="-5.077159">
        <ele>306.416</ele>
        <time>2021-10-15T11:06:20Z</time>
      </trkpt>
      <trkpt lat="43.178966" lon="-5.077113">
        <ele>308.495</ele>
        <time>2021-10-15T11:06:22Z</time>
      </trkpt>
      <trkpt lat="43.178810" lon="-5.076970">
        <ele>310.849</ele>
        <time>2021-10-15T11:06:24Z</time>
      </trkpt>
      <trkpt lat="43.178734" lon="-5.076890">
        <ele>311.523</ele>
        <time>2021-10-15T11:06:25Z</time>
      </trkpt>
      <trkpt lat="43.178640" lon="-5.076823">
        <ele>311.608</ele>
        <time>2021-10-15T11:06:26Z</time>
      </trkpt>
      <trkpt lat="43.178431" lon="-5.076760">
        <ele>313.727</ele>
        <time>2021-10-15T11:06:28Z</time>
      </trkpt>
      <trkpt lat="43.178194" lon="-5.076816">
        <ele>313.765</ele>
        <time>2021-10-15T11:06:30Z</time>
      </trkpt>
      <trkpt lat="43.178078" lon="-5.076837">
        <ele>313.753</ele>
        <time>2021-10-15T11:06:31Z</time>
      </trkpt>
      <trkpt lat="43.177965" lon="-5.076836">
        <ele>316.657</ele>
        <time>2021-10-15T11:06:32Z</time>
      </trkpt>
      <trkpt lat="43.177762" lon="-5.076865">
        <ele>317.692</ele>
        <time>2021-10-15T11:06:34Z</time>
      </trkpt>
      <trkpt lat="43.177651" lon="-5.076998">
        <ele>320.420</ele>
        <time>2021-10-15T11:06:36Z</time>
      </trkpt>
      <trkpt lat="43.177619" lon="-5.077106">
        <ele>321.083</ele>
        <time>2021-10-15T11:06:37Z</time>
      </trkpt>
      <trkpt lat="43.177574" lon="-5.077213">
        <ele>321.618</ele>
        <time>2021-10-15T11:06:38Z</time>
      </trkpt>
      <trkpt lat="43.177414" lon="-5.077339">
        <ele>322.623</ele>
        <time>2021-10-15T11:06:40Z</time>
      </trkpt>
      <trkpt lat="43.177309" lon="-5.077373">
        <ele>323.983</ele>
        <time>2021-10-15T11:06:41Z</time>
      </trkpt>
      <trkpt lat="43.177190" lon="-5.077405">
        <ele>323.911</ele>
        <time>2021-10-15T11:06:42Z</time>
      </trkpt>
      <trkpt lat="43.177061" lon="-5.077430">
        <ele>323.508</ele>
        <time>2021-10-15T11:06:43Z</time>
      </trkpt>
      <trkpt lat="43.176922" lon="-5.077453">
        <ele>323.490</ele>
        <time>2021-10-15T11:06:44Z</time>
      </trkpt>
      <trkpt lat="43.176677" lon="-5.077543">
        <ele>323.898</ele>
        <time>2021-10-15T11:06:46Z</time>
      </trkpt>
      <trkpt lat="43.176561" lon="-5.077587">
        <ele>323.976</ele>
        <time>2021-10-15T11:06:47Z</time>
      </trkpt>
      <trkpt lat="43.176338" lon="-5.077608">
        <ele>323.930</ele>
        <time>2021-10-15T11:06:49Z</time>
      </trkpt>
      <trkpt lat="43.176233" lon="-5.077585">
        <ele>323.835</ele>
        <time>2021-10-15T11:06:50Z</time>
      </trkpt>
      <trkpt lat="43.176056" lon="-5.077609">
        <ele>325.293</ele>
        <time>2021-10-15T11:06:52Z</time>
      </trkpt>
      <trkpt lat="43.175973" lon="-5.077674">
        <ele>325.296</ele>
        <time>2021-10-15T11:06:53Z</time>
      </trkpt>
      <trkpt lat="43.175783" lon="-5.077796">
        <ele>326.531</ele>
        <time>2021-10-15T11:06:55Z</time>
      </trkpt>
      <trkpt lat="43.175674" lon="-5.077812">
        <ele>327.988</ele>
        <time>2021-10-15T11:06:56Z</time>
      </trkpt>
      <trkpt lat="43.175480" lon="-5.077756">
        <ele>328.624</ele>
        <time>2021-10-15T11:06:58Z</time>
      </trkpt>
      <trkpt lat="43.175403" lon="-5.077695">
        <ele>328.626</ele>
        <time>2021-10-15T11:06:59Z</time>
      </trkpt>
      <trkpt lat="43.175299" lon="-5.077520">
        <ele>330.708</ele>
        <time>2021-10-15T11:07:01Z</time>
      </trkpt>
      <trkpt lat="43.175269" lon="-5.077412">
        <ele>330.516</ele>
        <time>2021-10-15T11:07:02Z</time>
      </trkpt>
      <trkpt lat="43.175214" lon="-5.077209">
        <ele>330.474</ele>
        <time>2021-10-15T11:07:04Z</time>
      </trkpt>
      <trkpt lat="43.175178" lon="-5.077131">
        <ele>331.882</ele>
        <time>2021-10-15T11:07:05Z</time>
      </trkpt>
      <trkpt lat="43.175121" lon="-5.077078">
        <ele>333.056</ele>
        <time>2021-10-15T11:07:06Z</time>
      </trkpt>
      <trkpt lat="43.174969" lon="-5.077055">
        <ele>334.341</ele>
        <time>2021-10-15T11:07:08Z</time>
      </trkpt>
      <trkpt lat="43.174804" lon="-5.077090">
        <ele>335.689</ele>
        <time>2021-10-15T11:07:10Z</time>
      </trkpt>
      <trkpt lat="43.174712" lon="-5.077123">
        <ele>336.272</ele>
        <time>2021-10-15T11:07:11Z</time>
      </trkpt>
      <trkpt lat="43.174518" lon="-5.077200">
        <ele>338.757</ele>
        <time>2021-10-15T11:07:13Z</time>
      </trkpt>
      <trkpt lat="43.174405" lon="-5.077245">
        <ele>339.015</ele>
        <time>2021-10-15T11:07:14Z</time>
      </trkpt>
      <trkpt lat="43.174160" lon="-5.077359">
        <ele>338.965</ele>
        <time>2021-10-15T11:07:16Z</time>
      </trkpt>
      <trkpt lat="43.174029" lon="-5.077428">
        <ele>338.911</ele>
        <time>2021-10-15T11:07:17Z</time>
      </trkpt>
      <trkpt lat="43.173787" lon="-5.077565">
        <ele>342.908</ele>
        <time>2021-10-15T11:07:19Z</time>
      </trkpt>
      <trkpt lat="43.173679" lon="-5.077624">
        <ele>343.519</ele>
        <time>2021-10-15T11:07:20Z</time>
      </trkpt>
      <trkpt lat="43.173507" lon="-5.077705">
        <ele>345.367</ele>
        <time>2021-10-15T11:07:22Z</time>
      </trkpt>
      <trkpt lat="43.173335" lon="-5.077673">
        <ele>345.715</ele>
        <time>2021-10-15T11:07:24Z</time>
      </trkpt>
      <trkpt lat="43.173256" lon="-5.077606">
        <ele>346.899</ele>
        <time>2021-10-15T11:07:25Z</time>
      </trkpt>
      <trkpt lat="43.173176" lon="-5.077502">
        <ele>347.854</ele>
        <time>2021-10-15T11:07:26Z</time>
      </trkpt>
      <trkpt lat="43.173019" lon="-5.077267">
        <ele>349.222</ele>
        <time>2021-10-15T11:07:28Z</time>
      </trkpt>
      <trkpt lat="43.172929" lon="-5.077129">
        <ele>351.895</ele>
        <time>2021-10-15T11:07:29Z</time>
      </trkpt>
      <trkpt lat="43.172749" lon="-5.076858">
        <ele>353.620</ele>
        <time>2021-10-15T11:07:31Z</time>
      </trkpt>
      <trkpt lat="43.172656" lon="-5.076729">
        <ele>353.087</ele>
        <time>2021-10-15T11:07:32Z</time>
      </trkpt>
      <trkpt lat="43.172498" lon="-5.076493">
        <ele>354.342</ele>
        <time>2021-10-15T11:07:34Z</time>
      </trkpt>
      <trkpt lat="43.172429" lon="-5.076366">
        <ele>355.426</ele>
        <time>2021-10-15T11:07:35Z</time>
      </trkpt>
      <trkpt lat="43.172308" lon="-5.076122">
        <ele>357.608</ele>
        <time>2021-10-15T11:07:37Z</time>
      </trkpt>
      <trkpt lat="43.172249" lon="-5.076012">
        <ele>357.776</ele>
        <time>2021-10-15T11:07:38Z</time>
      </trkpt>
      <trkpt lat="43.172141" lon="-5.075860">
        <ele>357.754</ele>
        <time>2021-10-15T11:07:40Z</time>
      </trkpt>
      <trkpt lat="43.172046" lon="-5.075793">
        <ele>361.762</ele>
        <time>2021-10-15T11:07:42Z</time>
      </trkpt>
      <trkpt lat="43.171988" lon="-5.075765">
        <ele>362.396</ele>
        <time>2021-10-15T11:07:43Z</time>
      </trkpt>
      <trkpt lat="43.171756" lon="-5.075686">
        <ele>364.171</ele>
        <time>2021-10-15T11:07:45Z</time>
      </trkpt>
      <trkpt lat="43.171490" lon="-5.075633">
        <ele>368.389</ele>
        <time>2021-10-15T11:07:47Z</time>
      </trkpt>
      <trkpt lat="43.171373" lon="-5.075627">
        <ele>368.222</ele>
        <time>2021-10-15T11:07:48Z</time>
      </trkpt>
      <trkpt lat="43.171217" lon="-5.075665">
        <ele>366.467</ele>
        <time>2021-10-15T11:07:50Z</time>
      </trkpt>
      <trkpt lat="43.171125" lon="-5.075718">
        <ele>366.063</ele>
        <time>2021-10-15T11:07:52Z</time>
      </trkpt>
      <trkpt lat="43.171034" lon="-5.075755">
        <ele>365.344</ele>
        <time>2021-10-15T11:07:54Z</time>
      </trkpt>
      <trkpt lat="43.170905" lon="-5.075772">
        <ele>363.618</ele>
        <time>2021-10-15T11:07:56Z</time>
      </trkpt>
      <trkpt lat="43.170814" lon="-5.075774">
        <ele>362.908</ele>
        <time>2021-10-15T11:07:58Z</time>
      </trkpt>
      <trkpt lat="43.170729" lon="-5.075756">
        <ele>352.694</ele>
        <time>2021-10-15T11:08:13Z</time>
      </trkpt>
      <trkpt lat="43.170642" lon="-5.075737">
        <ele>352.462</ele>
        <time>2021-10-15T11:08:14Z</time>
      </trkpt>
      <trkpt lat="43.170430" lon="-5.075629">
        <ele>349.580</ele>
        <time>2021-10-15T11:08:16Z</time>
      </trkpt>
      <trkpt lat="43.170331" lon="-5.075538">
        <ele>347.994</ele>
        <time>2021-10-15T11:08:17Z</time>
      </trkpt>
      <trkpt lat="43.170130" lon="-5.075342">
        <ele>346.559</ele>
        <time>2021-10-15T11:08:19Z</time>
      </trkpt>
      <trkpt lat="43.170022" lon="-5.075254">
        <ele>346.047</ele>
        <time>2021-10-15T11:08:20Z</time>
      </trkpt>
      <trkpt lat="43.169817" lon="-5.075148">
        <ele>344.020</ele>
        <time>2021-10-15T11:08:22Z</time>
      </trkpt>
      <trkpt lat="43.169602" lon="-5.075135">
        <ele>342.785</ele>
        <time>2021-10-15T11:08:24Z</time>
      </trkpt>
      <trkpt lat="43.169492" lon="-5.075163">
        <ele>339.629</ele>
        <time>2021-10-15T11:08:25Z</time>
      </trkpt>
      <trkpt lat="43.169376" lon="-5.075217">
        <ele>339.600</ele>
        <time>2021-10-15T11:08:26Z</time>
      </trkpt>
      <trkpt lat="43.169162" lon="-5.075337">
        <ele>339.720</ele>
        <time>2021-10-15T11:08:28Z</time>
      </trkpt>
      <trkpt lat="43.168938" lon="-5.075430">
        <ele>339.708</ele>
        <time>2021-10-15T11:08:30Z</time>
      </trkpt>
      <trkpt lat="43.168825" lon="-5.075468">
        <ele>337.720</ele>
        <time>2021-10-15T11:08:31Z</time>
      </trkpt>
      <trkpt lat="43.168707" lon="-5.075499">
        <ele>338.128</ele>
        <time>2021-10-15T11:08:32Z</time>
      </trkpt>
      <trkpt lat="43.168492" lon="-5.075515">
        <ele>337.826</ele>
        <time>2021-10-15T11:08:34Z</time>
      </trkpt>
      <trkpt lat="43.168269" lon="-5.075489">
        <ele>337.970</ele>
        <time>2021-10-15T11:08:36Z</time>
      </trkpt>
      <trkpt lat="43.168038" lon="-5.075445">
        <ele>337.965</ele>
        <time>2021-10-15T11:08:38Z</time>
      </trkpt>
      <trkpt lat="43.167811" lon="-5.075354">
        <ele>338.593</ele>
        <time>2021-10-15T11:08:40Z</time>
      </trkpt>
      <trkpt lat="43.167704" lon="-5.075270">
        <ele>338.546</ele>
        <time>2021-10-15T11:08:41Z</time>
      </trkpt>
      <trkpt lat="43.167599" lon="-5.075170">
        <ele>339.061</ele>
        <time>2021-10-15T11:08:42Z</time>
      </trkpt>
      <trkpt lat="43.167486" lon="-5.075079">
        <ele>340.596</ele>
        <time>2021-10-15T11:08:43Z</time>
      </trkpt>
      <trkpt lat="43.167358" lon="-5.075001">
        <ele>340.531</ele>
        <time>2021-10-15T11:08:44Z</time>
      </trkpt>
      <trkpt lat="43.167100" lon="-5.074908">
        <ele>340.624</ele>
        <time>2021-10-15T11:08:46Z</time>
      </trkpt>
      <trkpt lat="43.166830" lon="-5.074893">
        <ele>344.608</ele>
        <time>2021-10-15T11:08:48Z</time>
      </trkpt>
      <trkpt lat="43.166592" lon="-5.074966">
        <ele>344.147</ele>
        <time>2021-10-15T11:08:50Z</time>
      </trkpt>
      <trkpt lat="43.166413" lon="-5.075109">
        <ele>342.695</ele>
        <time>2021-10-15T11:08:52Z</time>
      </trkpt>
      <trkpt lat="43.166294" lon="-5.075319">
        <ele>345.293</ele>
        <time>2021-10-15T11:08:54Z</time>
      </trkpt>
      <trkpt lat="43.166262" lon="-5.075453">
        <ele>346.137</ele>
        <time>2021-10-15T11:08:55Z</time>
      </trkpt>
      <trkpt lat="43.166235" lon="-5.075611">
        <ele>347.292</ele>
        <time>2021-10-15T11:08:56Z</time>
      </trkpt>
      <trkpt lat="43.166171" lon="-5.075928">
        <ele>348.630</ele>
        <time>2021-10-15T11:08:58Z</time>
      </trkpt>
      <trkpt lat="43.166141" lon="-5.076205">
        <ele>350.283</ele>
        <time>2021-10-15T11:09:00Z</time>
      </trkpt>
      <trkpt lat="43.166214" lon="-5.076426">
        <ele>351.948</ele>
        <time>2021-10-15T11:09:02Z</time>
      </trkpt>
      <trkpt lat="43.166261" lon="-5.076665">
        <ele>352.339</ele>
        <time>2021-10-15T11:09:04Z</time>
      </trkpt>
      <trkpt lat="43.166238" lon="-5.076800">
        <ele>353.001</ele>
        <time>2021-10-15T11:09:05Z</time>
      </trkpt>
      <trkpt lat="43.166188" lon="-5.076928">
        <ele>353.621</ele>
        <time>2021-10-15T11:09:06Z</time>
      </trkpt>
      <trkpt lat="43.165987" lon="-5.077099">
        <ele>353.608</ele>
        <time>2021-10-15T11:09:08Z</time>
      </trkpt>
      <trkpt lat="43.165709" lon="-5.077149">
        <ele>353.411</ele>
        <time>2021-10-15T11:09:10Z</time>
      </trkpt>
      <trkpt lat="43.165385" lon="-5.077186">
        <ele>352.239</ele>
        <time>2021-10-15T11:09:12Z</time>
      </trkpt>
      <trkpt lat="43.165212" lon="-5.077203">
        <ele>353.117</ele>
        <time>2021-10-15T11:09:13Z</time>
      </trkpt>
      <trkpt lat="43.165031" lon="-5.077220">
        <ele>354.051</ele>
        <time>2021-10-15T11:09:14Z</time>
      </trkpt>
      <trkpt lat="43.164695" lon="-5.077246">
        <ele>354.696</ele>
        <time>2021-10-15T11:09:16Z</time>
      </trkpt>
      <trkpt lat="43.164405" lon="-5.077234">
        <ele>356.564</ele>
        <time>2021-10-15T11:09:18Z</time>
      </trkpt>
      <trkpt lat="43.164273" lon="-5.077189">
        <ele>357.997</ele>
        <time>2021-10-15T11:09:19Z</time>
      </trkpt>
      <trkpt lat="43.164142" lon="-5.077137">
        <ele>358.392</ele>
        <time>2021-10-15T11:09:20Z</time>
      </trkpt>
      <trkpt lat="43.163875" lon="-5.077098">
        <ele>360.816</ele>
        <time>2021-10-15T11:09:22Z</time>
      </trkpt>
      <trkpt lat="43.163564" lon="-5.077123">
        <ele>362.276</ele>
        <time>2021-10-15T11:09:24Z</time>
      </trkpt>
      <trkpt lat="43.163200" lon="-5.077175">
        <ele>364.013</ele>
        <time>2021-10-15T11:09:26Z</time>
      </trkpt>
      <trkpt lat="43.162864" lon="-5.077261">
        <ele>366.108</ele>
        <time>2021-10-15T11:09:28Z</time>
      </trkpt>
      <trkpt lat="43.162699" lon="-5.077321">
        <ele>365.519</ele>
        <time>2021-10-15T11:09:29Z</time>
      </trkpt>
      <trkpt lat="43.162375" lon="-5.077440">
        <ele>371.037</ele>
        <time>2021-10-15T11:09:31Z</time>
      </trkpt>
      <trkpt lat="43.162217" lon="-5.077498">
        <ele>372.555</ele>
        <time>2021-10-15T11:09:32Z</time>
      </trkpt>
      <trkpt lat="43.161953" lon="-5.077618">
        <ele>373.999</ele>
        <time>2021-10-15T11:09:34Z</time>
      </trkpt>
      <trkpt lat="43.161829" lon="-5.077698">
        <ele>375.584</ele>
        <time>2021-10-15T11:09:35Z</time>
      </trkpt>
      <trkpt lat="43.161582" lon="-5.077839">
        <ele>375.912</ele>
        <time>2021-10-15T11:09:37Z</time>
      </trkpt>
      <trkpt lat="43.161437" lon="-5.077867">
        <ele>376.215</ele>
        <time>2021-10-15T11:09:38Z</time>
      </trkpt>
      <trkpt lat="43.161137" lon="-5.077853">
        <ele>378.630</ele>
        <time>2021-10-15T11:09:40Z</time>
      </trkpt>
      <trkpt lat="43.160819" lon="-5.077848">
        <ele>379.657</ele>
        <time>2021-10-15T11:09:42Z</time>
      </trkpt>
      <trkpt lat="43.160530" lon="-5.077849">
        <ele>382.400</ele>
        <time>2021-10-15T11:09:44Z</time>
      </trkpt>
      <trkpt lat="43.160297" lon="-5.077769">
        <ele>383.820</ele>
        <time>2021-10-15T11:09:46Z</time>
      </trkpt>
      <trkpt lat="43.160188" lon="-5.077690">
        <ele>383.608</ele>
        <time>2021-10-15T11:09:47Z</time>
      </trkpt>
      <trkpt lat="43.159973" lon="-5.077622">
        <ele>384.533</ele>
        <time>2021-10-15T11:09:49Z</time>
      </trkpt>
      <trkpt lat="43.159858" lon="-5.077650">
        <ele>386.661</ele>
        <time>2021-10-15T11:09:50Z</time>
      </trkpt>
      <trkpt lat="43.159608" lon="-5.077765">
        <ele>388.069</ele>
        <time>2021-10-15T11:09:52Z</time>
      </trkpt>
      <trkpt lat="43.159459" lon="-5.077833">
        <ele>389.433</ele>
        <time>2021-10-15T11:09:53Z</time>
      </trkpt>
      <trkpt lat="43.159137" lon="-5.077947">
        <ele>391.348</ele>
        <time>2021-10-15T11:09:55Z</time>
      </trkpt>
      <trkpt lat="43.158970" lon="-5.077980">
        <ele>391.826</ele>
        <time>2021-10-15T11:09:56Z</time>
      </trkpt>
      <trkpt lat="43.158691" lon="-5.077950">
        <ele>391.329</ele>
        <time>2021-10-15T11:09:58Z</time>
      </trkpt>
      <trkpt lat="43.158561" lon="-5.077918">
        <ele>391.284</ele>
        <time>2021-10-15T11:09:59Z</time>
      </trkpt>
      <trkpt lat="43.158327" lon="-5.077929">
        <ele>391.211</ele>
        <time>2021-10-15T11:10:01Z</time>
      </trkpt>
      <trkpt lat="43.158223" lon="-5.077951">
        <ele>391.221</ele>
        <time>2021-10-15T11:10:02Z</time>
      </trkpt>
      <trkpt lat="43.158047" lon="-5.077891">
        <ele>391.503</ele>
        <time>2021-10-15T11:10:04Z</time>
      </trkpt>
      <trkpt lat="43.157958" lon="-5.077818">
        <ele>390.908</ele>
        <time>2021-10-15T11:10:05Z</time>
      </trkpt>
      <trkpt lat="43.157766" lon="-5.077651">
        <ele>391.889</ele>
        <time>2021-10-15T11:10:07Z</time>
      </trkpt>
      <trkpt lat="43.157678" lon="-5.077519">
        <ele>392.127</ele>
        <time>2021-10-15T11:10:08Z</time>
      </trkpt>
      <trkpt lat="43.157497" lon="-5.077236">
        <ele>392.175</ele>
        <time>2021-10-15T11:10:10Z</time>
      </trkpt>
      <trkpt lat="43.157253" lon="-5.076989">
        <ele>393.219</ele>
        <time>2021-10-15T11:10:12Z</time>
      </trkpt>
      <trkpt lat="43.157110" lon="-5.076892">
        <ele>392.114</ele>
        <time>2021-10-15T11:10:13Z</time>
      </trkpt>
      <trkpt lat="43.156957" lon="-5.076820">
        <ele>391.632</ele>
        <time>2021-10-15T11:10:14Z</time>
      </trkpt>
      <trkpt lat="43.156693" lon="-5.076785">
        <ele>392.085</ele>
        <time>2021-10-15T11:10:16Z</time>
      </trkpt>
      <trkpt lat="43.156483" lon="-5.076865">
        <ele>391.760</ele>
        <time>2021-10-15T11:10:18Z</time>
      </trkpt>
      <trkpt lat="43.156282" lon="-5.076871">
        <ele>391.746</ele>
        <time>2021-10-15T11:10:20Z</time>
      </trkpt>
      <trkpt lat="43.156107" lon="-5.076734">
        <ele>391.288</ele>
        <time>2021-10-15T11:10:22Z</time>
      </trkpt>
      <trkpt lat="43.156051" lon="-5.076624">
        <ele>391.016</ele>
        <time>2021-10-15T11:10:23Z</time>
      </trkpt>
      <trkpt lat="43.156030" lon="-5.076342">
        <ele>391.008</ele>
        <time>2021-10-15T11:10:25Z</time>
      </trkpt>
      <trkpt lat="43.156042" lon="-5.076189">
        <ele>391.262</ele>
        <time>2021-10-15T11:10:26Z</time>
      </trkpt>
      <trkpt lat="43.155998" lon="-5.075939">
        <ele>391.930</ele>
        <time>2021-10-15T11:10:28Z</time>
      </trkpt>
      <trkpt lat="43.155968" lon="-5.075814">
        <ele>392.468</ele>
        <time>2021-10-15T11:10:29Z</time>
      </trkpt>
      <trkpt lat="43.155935" lon="-5.075528">
        <ele>392.512</ele>
        <time>2021-10-15T11:10:31Z</time>
      </trkpt>
      <trkpt lat="43.155898" lon="-5.075421">
        <ele>392.717</ele>
        <time>2021-10-15T11:10:32Z</time>
      </trkpt>
      <trkpt lat="43.155779" lon="-5.075340">
        <ele>393.365</ele>
        <time>2021-10-15T11:10:34Z</time>
      </trkpt>
      <trkpt lat="43.155703" lon="-5.075342">
        <ele>393.638</ele>
        <time>2021-10-15T11:10:35Z</time>
      </trkpt>
      <trkpt lat="43.155534" lon="-5.075289">
        <ele>393.783</ele>
        <time>2021-10-15T11:10:37Z</time>
      </trkpt>
      <trkpt lat="43.155456" lon="-5.075206">
        <ele>393.798</ele>
        <time>2021-10-15T11:10:38Z</time>
      </trkpt>
      <trkpt lat="43.155313" lon="-5.074992">
        <ele>393.515</ele>
        <time>2021-10-15T11:10:40Z</time>
      </trkpt>
      <trkpt lat="43.155158" lon="-5.074898">
        <ele>391.726</ele>
        <time>2021-10-15T11:10:42Z</time>
      </trkpt>
      <trkpt lat="43.155077" lon="-5.074891">
        <ele>392.008</ele>
        <time>2021-10-15T11:10:43Z</time>
      </trkpt>
      <trkpt lat="43.154993" lon="-5.074864">
        <ele>391.997</ele>
        <time>2021-10-15T11:10:44Z</time>
      </trkpt>
      <trkpt lat="43.154852" lon="-5.074697">
        <ele>392.065</ele>
        <time>2021-10-15T11:10:46Z</time>
      </trkpt>
      <trkpt lat="43.154806" lon="-5.074585">
        <ele>392.043</ele>
        <time>2021-10-15T11:10:47Z</time>
      </trkpt>
      <trkpt lat="43.154719" lon="-5.074445">
        <ele>391.997</ele>
        <time>2021-10-15T11:10:49Z</time>
      </trkpt>
      <trkpt lat="43.154666" lon="-5.074433">
        <ele>391.212</ele>
        <time>2021-10-15T11:10:50Z</time>
      </trkpt>
      <trkpt lat="43.154558" lon="-5.074470">
        <ele>391.250</ele>
        <time>2021-10-15T11:10:52Z</time>
      </trkpt>
      <trkpt lat="43.154428" lon="-5.074415">
        <ele>391.983</ele>
        <time>2021-10-15T11:10:54Z</time>
      </trkpt>
      <trkpt lat="43.154345" lon="-5.074318">
        <ele>392.148</ele>
        <time>2021-10-15T11:10:55Z</time>
      </trkpt>
      <trkpt lat="43.154267" lon="-5.074182">
        <ele>392.075</ele>
        <time>2021-10-15T11:10:56Z</time>
      </trkpt>
      <trkpt lat="43.154142" lon="-5.073846">
        <ele>390.628</ele>
        <time>2021-10-15T11:10:58Z</time>
      </trkpt>
      <trkpt lat="43.154110" lon="-5.073641">
        <ele>390.820</ele>
        <time>2021-10-15T11:10:59Z</time>
      </trkpt>
      <trkpt lat="43.154100" lon="-5.073424">
        <ele>390.408</ele>
        <time>2021-10-15T11:11:00Z</time>
      </trkpt>
      <trkpt lat="43.154083" lon="-5.073005">
        <ele>389.775</ele>
        <time>2021-10-15T11:11:02Z</time>
      </trkpt>
      <trkpt lat="43.154121" lon="-5.072617">
        <ele>388.593</ele>
        <time>2021-10-15T11:11:04Z</time>
      </trkpt>
      <trkpt lat="43.154117" lon="-5.072288">
        <ele>388.051</ele>
        <time>2021-10-15T11:11:06Z</time>
      </trkpt>
      <trkpt lat="43.154069" lon="-5.072122">
        <ele>388.745</ele>
        <time>2021-10-15T11:11:07Z</time>
      </trkpt>
      <trkpt lat="43.153995" lon="-5.071953">
        <ele>388.230</ele>
        <time>2021-10-15T11:11:08Z</time>
      </trkpt>
      <trkpt lat="43.153791" lon="-5.071651">
        <ele>388.358</ele>
        <time>2021-10-15T11:11:10Z</time>
      </trkpt>
      <trkpt lat="43.153529" lon="-5.071412">
        <ele>388.771</ele>
        <time>2021-10-15T11:11:12Z</time>
      </trkpt>
      <trkpt lat="43.153391" lon="-5.071319">
        <ele>389.466</ele>
        <time>2021-10-15T11:11:13Z</time>
      </trkpt>
      <trkpt lat="43.153259" lon="-5.071236">
        <ele>390.228</ele>
        <time>2021-10-15T11:11:14Z</time>
      </trkpt>
      <trkpt lat="43.153034" lon="-5.071139">
        <ele>391.389</ele>
        <time>2021-10-15T11:11:16Z</time>
      </trkpt>
      <trkpt lat="43.152921" lon="-5.071140">
        <ele>392.017</ele>
        <time>2021-10-15T11:11:17Z</time>
      </trkpt>
      <trkpt lat="43.152815" lon="-5.071162">
        <ele>392.008</ele>
        <time>2021-10-15T11:11:18Z</time>
      </trkpt>
      <trkpt lat="43.152631" lon="-5.071129">
        <ele>394.050</ele>
        <time>2021-10-15T11:11:20Z</time>
      </trkpt>
      <trkpt lat="43.152437" lon="-5.071014">
        <ele>395.058</ele>
        <time>2021-10-15T11:11:22Z</time>
      </trkpt>
      <trkpt lat="43.152325" lon="-5.070971">
        <ele>395.016</ele>
        <time>2021-10-15T11:11:23Z</time>
      </trkpt>
      <trkpt lat="43.152107" lon="-5.070876">
        <ele>395.250</ele>
        <time>2021-10-15T11:11:25Z</time>
      </trkpt>
      <trkpt lat="43.152012" lon="-5.070788">
        <ele>395.455</ele>
        <time>2021-10-15T11:11:26Z</time>
      </trkpt>
      <trkpt lat="43.151865" lon="-5.070591">
        <ele>397.573</ele>
        <time>2021-10-15T11:11:28Z</time>
      </trkpt>
      <trkpt lat="43.151690" lon="-5.070486">
        <ele>397.736</ele>
        <time>2021-10-15T11:11:30Z</time>
      </trkpt>
      <trkpt lat="43.151596" lon="-5.070442">
        <ele>398.961</ele>
        <time>2021-10-15T11:11:31Z</time>
      </trkpt>
      <trkpt lat="43.151501" lon="-5.070360">
        <ele>399.269</ele>
        <time>2021-10-15T11:11:32Z</time>
      </trkpt>
      <trkpt lat="43.151314" lon="-5.070156">
        <ele>399.204</ele>
        <time>2021-10-15T11:11:34Z</time>
      </trkpt>
      <trkpt lat="43.151074" lon="-5.070009">
        <ele>400.224</ele>
        <time>2021-10-15T11:11:36Z</time>
      </trkpt>
      <trkpt lat="43.150953" lon="-5.069926">
        <ele>401.108</ele>
        <time>2021-10-15T11:11:37Z</time>
      </trkpt>
      <trkpt lat="43.150830" lon="-5.069811">
        <ele>403.034</ele>
        <time>2021-10-15T11:11:38Z</time>
      </trkpt>
      <trkpt lat="43.150615" lon="-5.069605">
        <ele>403.312</ele>
        <time>2021-10-15T11:11:40Z</time>
      </trkpt>
      <trkpt lat="43.150506" lon="-5.069535">
        <ele>403.260</ele>
        <time>2021-10-15T11:11:41Z</time>
      </trkpt>
      <trkpt lat="43.150266" lon="-5.069455">
        <ele>405.034</ele>
        <time>2021-10-15T11:11:43Z</time>
      </trkpt>
      <trkpt lat="43.150130" lon="-5.069423">
        <ele>405.539</ele>
        <time>2021-10-15T11:11:44Z</time>
      </trkpt>
      <trkpt lat="43.149885" lon="-5.069359">
        <ele>406.427</ele>
        <time>2021-10-15T11:11:46Z</time>
      </trkpt>
      <trkpt lat="43.149775" lon="-5.069328">
        <ele>406.420</ele>
        <time>2021-10-15T11:11:47Z</time>
      </trkpt>
      <trkpt lat="43.149592" lon="-5.069186">
        <ele>407.815</ele>
        <time>2021-10-15T11:11:49Z</time>
      </trkpt>
      <trkpt lat="43.149527" lon="-5.069056">
        <ele>407.981</ele>
        <time>2021-10-15T11:11:50Z</time>
      </trkpt>
      <trkpt lat="43.149401" lon="-5.068757">
        <ele>409.561</ele>
        <time>2021-10-15T11:11:52Z</time>
      </trkpt>
      <trkpt lat="43.149318" lon="-5.068602">
        <ele>410.417</ele>
        <time>2021-10-15T11:11:53Z</time>
      </trkpt>
      <trkpt lat="43.149238" lon="-5.068450">
        <ele>411.408</ele>
        <time>2021-10-15T11:11:54Z</time>
      </trkpt>
      <trkpt lat="43.149168" lon="-5.068309">
        <ele>411.376</ele>
        <time>2021-10-15T11:11:55Z</time>
      </trkpt>
      <trkpt lat="43.149101" lon="-5.068184">
        <ele>412.034</ele>
        <time>2021-10-15T11:11:56Z</time>
      </trkpt>
      <trkpt lat="43.148946" lon="-5.068035">
        <ele>414.252</ele>
        <time>2021-10-15T11:11:58Z</time>
      </trkpt>
      <trkpt lat="43.148845" lon="-5.068001">
        <ele>414.996</ele>
        <time>2021-10-15T11:11:59Z</time>
      </trkpt>
      <trkpt lat="43.148648" lon="-5.067873">
        <ele>416.851</ele>
        <time>2021-10-15T11:12:01Z</time>
      </trkpt>
      <trkpt lat="43.148558" lon="-5.067759">
        <ele>417.259</ele>
        <time>2021-10-15T11:12:02Z</time>
      </trkpt>
      <trkpt lat="43.148335" lon="-5.067505">
        <ele>417.292</ele>
        <time>2021-10-15T11:12:04Z</time>
      </trkpt>
      <trkpt lat="43.148062" lon="-5.067268">
        <ele>418.647</ele>
        <time>2021-10-15T11:12:06Z</time>
      </trkpt>
      <trkpt lat="43.147923" lon="-5.067133">
        <ele>419.349</ele>
        <time>2021-10-15T11:12:07Z</time>
      </trkpt>
      <trkpt lat="43.147781" lon="-5.066987">
        <ele>419.602</ele>
        <time>2021-10-15T11:12:08Z</time>
      </trkpt>
      <trkpt lat="43.147533" lon="-5.066703">
        <ele>420.722</ele>
        <time>2021-10-15T11:12:10Z</time>
      </trkpt>
      <trkpt lat="43.147342" lon="-5.066440">
        <ele>422.408</ele>
        <time>2021-10-15T11:12:12Z</time>
      </trkpt>
      <trkpt lat="43.147197" lon="-5.066182">
        <ele>423.662</ele>
        <time>2021-10-15T11:12:14Z</time>
      </trkpt>
      <trkpt lat="43.147076" lon="-5.065937">
        <ele>424.690</ele>
        <time>2021-10-15T11:12:16Z</time>
      </trkpt>
      <trkpt lat="43.147000" lon="-5.065857">
        <ele>425.468</ele>
        <time>2021-10-15T11:12:17Z</time>
      </trkpt>
      <trkpt lat="43.146915" lon="-5.065808">
        <ele>426.622</ele>
        <time>2021-10-15T11:12:18Z</time>
      </trkpt>
      <trkpt lat="43.146830" lon="-5.065770">
        <ele>426.687</ele>
        <time>2021-10-15T11:12:19Z</time>
      </trkpt>
      <trkpt lat="43.146748" lon="-5.065706">
        <ele>426.495</ele>
        <time>2021-10-15T11:12:20Z</time>
      </trkpt>
      <trkpt lat="43.146608" lon="-5.065505">
        <ele>429.918</ele>
        <time>2021-10-15T11:12:22Z</time>
      </trkpt>
      <trkpt lat="43.146475" lon="-5.065229">
        <ele>431.683</ele>
        <time>2021-10-15T11:12:24Z</time>
      </trkpt>
      <trkpt lat="43.146426" lon="-5.065062">
        <ele>431.923</ele>
        <time>2021-10-15T11:12:25Z</time>
      </trkpt>
      <trkpt lat="43.146374" lon="-5.064872">
        <ele>432.883</ele>
        <time>2021-10-15T11:12:26Z</time>
      </trkpt>
      <trkpt lat="43.146254" lon="-5.064510">
        <ele>433.611</ele>
        <time>2021-10-15T11:12:28Z</time>
      </trkpt>
      <trkpt lat="43.146138" lon="-5.064130">
        <ele>434.108</ele>
        <time>2021-10-15T11:12:30Z</time>
      </trkpt>
      <trkpt lat="43.146108" lon="-5.063924">
        <ele>434.170</ele>
        <time>2021-10-15T11:12:31Z</time>
      </trkpt>
      <trkpt lat="43.146099" lon="-5.063696">
        <ele>433.728</ele>
        <time>2021-10-15T11:12:32Z</time>
      </trkpt>
      <trkpt lat="43.146107" lon="-5.063231">
        <ele>437.076</ele>
        <time>2021-10-15T11:12:34Z</time>
      </trkpt>
      <trkpt lat="43.146120" lon="-5.062759">
        <ele>435.570</ele>
        <time>2021-10-15T11:12:36Z</time>
      </trkpt>
      <trkpt lat="43.146135" lon="-5.062530">
        <ele>437.215</ele>
        <time>2021-10-15T11:12:37Z</time>
      </trkpt>
      <trkpt lat="43.146157" lon="-5.062304">
        <ele>437.243</ele>
        <time>2021-10-15T11:12:38Z</time>
      </trkpt>
      <trkpt lat="43.146213" lon="-5.061864">
        <ele>436.556</ele>
        <time>2021-10-15T11:12:40Z</time>
      </trkpt>
      <trkpt lat="43.146265" lon="-5.061439">
        <ele>436.491</ele>
        <time>2021-10-15T11:12:42Z</time>
      </trkpt>
      <trkpt lat="43.146293" lon="-5.061248">
        <ele>437.941</ele>
        <time>2021-10-15T11:12:43Z</time>
      </trkpt>
      <trkpt lat="43.146331" lon="-5.061081">
        <ele>438.281</ele>
        <time>2021-10-15T11:12:44Z</time>
      </trkpt>
      <trkpt lat="43.146438" lon="-5.060869">
        <ele>437.109</ele>
        <time>2021-10-15T11:12:46Z</time>
      </trkpt>
      <trkpt lat="43.146499" lon="-5.060768">
        <ele>436.908</ele>
        <time>2021-10-15T11:12:47Z</time>
      </trkpt>
      <trkpt lat="43.146598" lon="-5.060558">
        <ele>437.342</ele>
        <time>2021-10-15T11:12:49Z</time>
      </trkpt>
      <trkpt lat="43.146635" lon="-5.060425">
        <ele>437.470</ele>
        <time>2021-10-15T11:12:50Z</time>
      </trkpt>
      <trkpt lat="43.146726" lon="-5.060184">
        <ele>438.648</ele>
        <time>2021-10-15T11:12:52Z</time>
      </trkpt>
      <trkpt lat="43.146883" lon="-5.059969">
        <ele>441.662</ele>
        <time>2021-10-15T11:12:54Z</time>
      </trkpt>
      <trkpt lat="43.147100" lon="-5.059747">
        <ele>441.677</ele>
        <time>2021-10-15T11:12:56Z</time>
      </trkpt>
      <trkpt lat="43.147274" lon="-5.059505">
        <ele>444.275</ele>
        <time>2021-10-15T11:12:58Z</time>
      </trkpt>
      <trkpt lat="43.147349" lon="-5.059161">
        <ele>444.568</ele>
        <time>2021-10-15T11:13:00Z</time>
      </trkpt>
      <trkpt lat="43.147346" lon="-5.058968">
        <ele>446.413</ele>
        <time>2021-10-15T11:13:01Z</time>
      </trkpt>
      <trkpt lat="43.147325" lon="-5.058775">
        <ele>447.071</ele>
        <time>2021-10-15T11:13:02Z</time>
      </trkpt>
      <trkpt lat="43.147302" lon="-5.058441">
        <ele>448.941</ele>
        <time>2021-10-15T11:13:04Z</time>
      </trkpt>
      <trkpt lat="43.147338" lon="-5.058155">
        <ele>449.915</ele>
        <time>2021-10-15T11:13:06Z</time>
      </trkpt>
      <trkpt lat="43.147482" lon="-5.057920">
        <ele>454.108</ele>
        <time>2021-10-15T11:13:08Z</time>
      </trkpt>
      <trkpt lat="43.147718" lon="-5.057727">
        <ele>458.445</ele>
        <time>2021-10-15T11:13:10Z</time>
      </trkpt>
      <trkpt lat="43.147921" lon="-5.057546">
        <ele>463.123</ele>
        <time>2021-10-15T11:13:12Z</time>
      </trkpt>
      <trkpt lat="43.148011" lon="-5.057317">
        <ele>465.941</ele>
        <time>2021-10-15T11:13:14Z</time>
      </trkpt>
      <trkpt lat="43.147975" lon="-5.057097">
        <ele>470.715</ele>
        <time>2021-10-15T11:13:16Z</time>
      </trkpt>
      <trkpt lat="43.147926" lon="-5.057022">
        <ele>471.520</ele>
        <time>2021-10-15T11:13:17Z</time>
      </trkpt>
      <trkpt lat="43.147776" lon="-5.056988">
        <ele>475.378</ele>
        <time>2021-10-15T11:13:19Z</time>
      </trkpt>
      <trkpt lat="43.147673" lon="-5.057026">
        <ele>476.721</ele>
        <time>2021-10-15T11:13:20Z</time>
      </trkpt>
      <trkpt lat="43.147442" lon="-5.057177">
        <ele>480.366</ele>
        <time>2021-10-15T11:13:22Z</time>
      </trkpt>
      <trkpt lat="43.147176" lon="-5.057323">
        <ele>484.115</ele>
        <time>2021-10-15T11:13:24Z</time>
      </trkpt>
      <trkpt lat="43.146962" lon="-5.057507">
        <ele>486.965</ele>
        <time>2021-10-15T11:13:26Z</time>
      </trkpt>
      <trkpt lat="43.146841" lon="-5.057709">
        <ele>488.011</ele>
        <time>2021-10-15T11:13:28Z</time>
      </trkpt>
      <trkpt lat="43.146790" lon="-5.057822">
        <ele>488.608</ele>
        <time>2021-10-15T11:13:29Z</time>
      </trkpt>
      <trkpt lat="43.146743" lon="-5.057943">
        <ele>489.639</ele>
        <time>2021-10-15T11:13:30Z</time>
      </trkpt>
      <trkpt lat="43.146668" lon="-5.058189">
        <ele>493.577</ele>
        <time>2021-10-15T11:13:32Z</time>
      </trkpt>
      <trkpt lat="43.146649" lon="-5.058421">
        <ele>496.295</ele>
        <time>2021-10-15T11:13:34Z</time>
      </trkpt>
      <trkpt lat="43.146675" lon="-5.058537">
        <ele>496.239</ele>
        <time>2021-10-15T11:13:35Z</time>
      </trkpt>
      <trkpt lat="43.146715" lon="-5.058645">
        <ele>496.354</ele>
        <time>2021-10-15T11:13:36Z</time>
      </trkpt>
      <trkpt lat="43.146723" lon="-5.058853">
        <ele>498.092</ele>
        <time>2021-10-15T11:13:38Z</time>
      </trkpt>
      <trkpt lat="43.146593" lon="-5.058952">
        <ele>500.475</ele>
        <time>2021-10-15T11:13:40Z</time>
      </trkpt>
      <trkpt lat="43.146476" lon="-5.058947">
        <ele>501.150</ele>
        <time>2021-10-15T11:13:41Z</time>
      </trkpt>
      <trkpt lat="43.146341" lon="-5.058922">
        <ele>502.194</ele>
        <time>2021-10-15T11:13:42Z</time>
      </trkpt>
      <trkpt lat="43.146191" lon="-5.058899">
        <ele>503.157</ele>
        <time>2021-10-15T11:13:43Z</time>
      </trkpt>
      <trkpt lat="43.146032" lon="-5.058884">
        <ele>503.322</ele>
        <time>2021-10-15T11:13:44Z</time>
      </trkpt>
      <trkpt lat="43.145753" lon="-5.058883">
        <ele>505.108</ele>
        <time>2021-10-15T11:13:46Z</time>
      </trkpt>
      <trkpt lat="43.145621" lon="-5.058882">
        <ele>505.947</ele>
        <time>2021-10-15T11:13:47Z</time>
      </trkpt>
      <trkpt lat="43.145356" lon="-5.058814">
        <ele>507.775</ele>
        <time>2021-10-15T11:13:49Z</time>
      </trkpt>
      <trkpt lat="43.145223" lon="-5.058756">
        <ele>509.043</ele>
        <time>2021-10-15T11:13:50Z</time>
      </trkpt>
      <trkpt lat="43.144966" lon="-5.058652">
        <ele>512.497</ele>
        <time>2021-10-15T11:13:52Z</time>
      </trkpt>
      <trkpt lat="43.144719" lon="-5.058546">
        <ele>514.532</ele>
        <time>2021-10-15T11:13:54Z</time>
      </trkpt>
      <trkpt lat="43.144540" lon="-5.058395">
        <ele>515.180</ele>
        <time>2021-10-15T11:13:56Z</time>
      </trkpt>
      <trkpt lat="43.144476" lon="-5.058202">
        <ele>515.193</ele>
        <time>2021-10-15T11:13:58Z</time>
      </trkpt>
      <trkpt lat="43.144493" lon="-5.058098">
        <ele>515.648</ele>
        <time>2021-10-15T11:13:59Z</time>
      </trkpt>
      <trkpt lat="43.144597" lon="-5.057903">
        <ele>517.239</ele>
        <time>2021-10-15T11:14:01Z</time>
      </trkpt>
      <trkpt lat="43.144649" lon="-5.057793">
        <ele>517.901</ele>
        <time>2021-10-15T11:14:02Z</time>
      </trkpt>
      <trkpt lat="43.144686" lon="-5.057505">
        <ele>519.721</ele>
        <time>2021-10-15T11:14:04Z</time>
      </trkpt>
      <trkpt lat="43.144597" lon="-5.057214">
        <ele>520.308</ele>
        <time>2021-10-15T11:14:06Z</time>
      </trkpt>
      <trkpt lat="43.144519" lon="-5.057053">
        <ele>520.331</ele>
        <time>2021-10-15T11:14:07Z</time>
      </trkpt>
      <trkpt lat="43.144426" lon="-5.056877">
        <ele>521.199</ele>
        <time>2021-10-15T11:14:08Z</time>
      </trkpt>
      <trkpt lat="43.144212" lon="-5.056570">
        <ele>521.337</ele>
        <time>2021-10-15T11:14:10Z</time>
      </trkpt>
      <trkpt lat="43.144101" lon="-5.056418">
        <ele>522.851</ele>
        <time>2021-10-15T11:14:11Z</time>
      </trkpt>
      <trkpt lat="43.143998" lon="-5.056247">
        <ele>523.626</ele>
        <time>2021-10-15T11:14:12Z</time>
      </trkpt>
      <trkpt lat="43.143844" lon="-5.055890">
        <ele>525.894</ele>
        <time>2021-10-15T11:14:14Z</time>
      </trkpt>
      <trkpt lat="43.143815" lon="-5.055535">
        <ele>527.957</ele>
        <time>2021-10-15T11:14:16Z</time>
      </trkpt>
      <trkpt lat="43.143793" lon="-5.055173">
        <ele>528.712</ele>
        <time>2021-10-15T11:14:18Z</time>
      </trkpt>
      <trkpt lat="43.143767" lon="-5.054997">
        <ele>530.183</ele>
        <time>2021-10-15T11:14:19Z</time>
      </trkpt>
      <trkpt lat="43.143753" lon="-5.054815">
        <ele>532.725</ele>
        <time>2021-10-15T11:14:20Z</time>
      </trkpt>
      <trkpt lat="43.143799" lon="-5.054455">
        <ele>533.917</ele>
        <time>2021-10-15T11:14:22Z</time>
      </trkpt>
      <trkpt lat="43.143851" lon="-5.054077">
        <ele>535.408</ele>
        <time>2021-10-15T11:14:24Z</time>
      </trkpt>
      <trkpt lat="43.143860" lon="-5.053695">
        <ele>537.696</ele>
        <time>2021-10-15T11:14:26Z</time>
      </trkpt>
      <trkpt lat="43.143920" lon="-5.053325">
        <ele>539.684</ele>
        <time>2021-10-15T11:14:28Z</time>
      </trkpt>
      <trkpt lat="43.143964" lon="-5.053134">
        <ele>539.132</ele>
        <time>2021-10-15T11:14:29Z</time>
      </trkpt>
      <trkpt lat="43.144037" lon="-5.052786">
        <ele>542.916</ele>
        <time>2021-10-15T11:14:31Z</time>
      </trkpt>
      <trkpt lat="43.144054" lon="-5.052628">
        <ele>542.721</ele>
        <time>2021-10-15T11:14:32Z</time>
      </trkpt>
      <trkpt lat="43.144017" lon="-5.052336">
        <ele>542.649</ele>
        <time>2021-10-15T11:14:34Z</time>
      </trkpt>
      <trkpt lat="43.143894" lon="-5.052137">
        <ele>544.442</ele>
        <time>2021-10-15T11:14:36Z</time>
      </trkpt>
      <trkpt lat="43.143679" lon="-5.052052">
        <ele>546.457</ele>
        <time>2021-10-15T11:14:38Z</time>
      </trkpt>
      <trkpt lat="43.143396" lon="-5.052063">
        <ele>547.366</ele>
        <time>2021-10-15T11:14:40Z</time>
      </trkpt>
      <trkpt lat="43.143228" lon="-5.052082">
        <ele>548.029</ele>
        <time>2021-10-15T11:14:41Z</time>
      </trkpt>
      <trkpt lat="43.143053" lon="-5.052096">
        <ele>547.921</ele>
        <time>2021-10-15T11:14:42Z</time>
      </trkpt>
      <trkpt lat="43.142714" lon="-5.052138">
        <ele>549.708</ele>
        <time>2021-10-15T11:14:44Z</time>
      </trkpt>
      <trkpt lat="43.142420" lon="-5.052308">
        <ele>550.034</ele>
        <time>2021-10-15T11:14:46Z</time>
      </trkpt>
      <trkpt lat="43.142151" lon="-5.052523">
        <ele>550.932</ele>
        <time>2021-10-15T11:14:48Z</time>
      </trkpt>
      <trkpt lat="43.141905" lon="-5.052617">
        <ele>551.750</ele>
        <time>2021-10-15T11:14:50Z</time>
      </trkpt>
      <trkpt lat="43.141724" lon="-5.052566">
        <ele>552.464</ele>
        <time>2021-10-15T11:14:52Z</time>
      </trkpt>
      <trkpt lat="43.141581" lon="-5.052389">
        <ele>552.689</ele>
        <time>2021-10-15T11:14:54Z</time>
      </trkpt>
      <trkpt lat="43.141403" lon="-5.052070">
        <ele>553.397</ele>
        <time>2021-10-15T11:14:56Z</time>
      </trkpt>
      <trkpt lat="43.141218" lon="-5.051699">
        <ele>554.630</ele>
        <time>2021-10-15T11:14:58Z</time>
      </trkpt>
      <trkpt lat="43.141136" lon="-5.051534">
        <ele>554.625</ele>
        <time>2021-10-15T11:14:59Z</time>
      </trkpt>
      <trkpt lat="43.141029" lon="-5.051253">
        <ele>556.066</ele>
        <time>2021-10-15T11:15:01Z</time>
      </trkpt>
      <trkpt lat="43.141017" lon="-5.051109">
        <ele>555.929</ele>
        <time>2021-10-15T11:15:02Z</time>
      </trkpt>
      <trkpt lat="43.141094" lon="-5.050845">
        <ele>556.421</ele>
        <time>2021-10-15T11:15:04Z</time>
      </trkpt>
      <trkpt lat="43.141287" lon="-5.050562">
        <ele>557.208</ele>
        <time>2021-10-15T11:15:06Z</time>
      </trkpt>
      <trkpt lat="43.141426" lon="-5.050418">
        <ele>557.034</ele>
        <time>2021-10-15T11:15:07Z</time>
      </trkpt>
      <trkpt lat="43.141556" lon="-5.050283">
        <ele>557.152</ele>
        <time>2021-10-15T11:15:08Z</time>
      </trkpt>
      <trkpt lat="43.141716" lon="-5.049999">
        <ele>558.030</ele>
        <time>2021-10-15T11:15:10Z</time>
      </trkpt>
      <trkpt lat="43.141732" lon="-5.049683">
        <ele>558.934</ele>
        <time>2021-10-15T11:15:12Z</time>
      </trkpt>
      <trkpt lat="43.141600" lon="-5.049458">
        <ele>560.589</ele>
        <time>2021-10-15T11:15:14Z</time>
      </trkpt>
      <trkpt lat="43.141396" lon="-5.049376">
        <ele>562.767</ele>
        <time>2021-10-15T11:15:16Z</time>
      </trkpt>
      <trkpt lat="43.141239" lon="-5.049235">
        <ele>567.740</ele>
        <time>2021-10-15T11:15:18Z</time>
      </trkpt>
      <trkpt lat="43.141231" lon="-5.049048">
        <ele>568.195</ele>
        <time>2021-10-15T11:15:20Z</time>
      </trkpt>
      <trkpt lat="43.141365" lon="-5.048884">
        <ele>570.779</ele>
        <time>2021-10-15T11:15:22Z</time>
      </trkpt>
      <trkpt lat="43.141472" lon="-5.048804">
        <ele>572.105</ele>
        <time>2021-10-15T11:15:23Z</time>
      </trkpt>
      <trkpt lat="43.141617" lon="-5.048601">
        <ele>574.125</ele>
        <time>2021-10-15T11:15:25Z</time>
      </trkpt>
      <trkpt lat="43.141637" lon="-5.048468">
        <ele>575.708</ele>
        <time>2021-10-15T11:15:26Z</time>
      </trkpt>
      <trkpt lat="43.141557" lon="-5.048258">
        <ele>576.935</ele>
        <time>2021-10-15T11:15:28Z</time>
      </trkpt>
      <trkpt lat="43.141461" lon="-5.048145">
        <ele>577.233</ele>
        <time>2021-10-15T11:15:29Z</time>
      </trkpt>
      <trkpt lat="43.141226" lon="-5.047943">
        <ele>579.461</ele>
        <time>2021-10-15T11:15:31Z</time>
      </trkpt>
      <trkpt lat="43.141116" lon="-5.047830">
        <ele>579.975</ele>
        <time>2021-10-15T11:15:32Z</time>
      </trkpt>
      <trkpt lat="43.140887" lon="-5.047692">
        <ele>580.660</ele>
        <time>2021-10-15T11:15:34Z</time>
      </trkpt>
      <trkpt lat="43.140610" lon="-5.047738">
        <ele>581.958</ele>
        <time>2021-10-15T11:15:36Z</time>
      </trkpt>
      <trkpt lat="43.140462" lon="-5.047781">
        <ele>583.661</ele>
        <time>2021-10-15T11:15:37Z</time>
      </trkpt>
      <trkpt lat="43.140314" lon="-5.047815">
        <ele>584.476</ele>
        <time>2021-10-15T11:15:38Z</time>
      </trkpt>
      <trkpt lat="43.140072" lon="-5.047829">
        <ele>585.865</ele>
        <time>2021-10-15T11:15:40Z</time>
      </trkpt>
      <trkpt lat="43.139955" lon="-5.047778">
        <ele>586.568</ele>
        <time>2021-10-15T11:15:41Z</time>
      </trkpt>
      <trkpt lat="43.139742" lon="-5.047556">
        <ele>587.614</ele>
        <time>2021-10-15T11:15:43Z</time>
      </trkpt>
      <trkpt lat="43.139642" lon="-5.047422">
        <ele>588.508</ele>
        <time>2021-10-15T11:15:44Z</time>
      </trkpt>
      <trkpt lat="43.139495" lon="-5.047198">
        <ele>590.664</ele>
        <time>2021-10-15T11:15:46Z</time>
      </trkpt>
      <trkpt lat="43.139455" lon="-5.047062">
        <ele>590.762</ele>
        <time>2021-10-15T11:15:47Z</time>
      </trkpt>
      <trkpt lat="43.139445" lon="-5.046898">
        <ele>590.810</ele>
        <time>2021-10-15T11:15:48Z</time>
      </trkpt>
      <trkpt lat="43.139458" lon="-5.046710">
        <ele>592.334</ele>
        <time>2021-10-15T11:15:49Z</time>
      </trkpt>
      <trkpt lat="43.139483" lon="-5.046492">
        <ele>593.079</ele>
        <time>2021-10-15T11:15:50Z</time>
      </trkpt>
      <trkpt lat="43.139523" lon="-5.046013">
        <ele>595.217</ele>
        <time>2021-10-15T11:15:52Z</time>
      </trkpt>
      <trkpt lat="43.139542" lon="-5.045513">
        <ele>597.840</ele>
        <time>2021-10-15T11:15:54Z</time>
      </trkpt>
      <trkpt lat="43.139577" lon="-5.045136">
        <ele>600.325</ele>
        <time>2021-10-15T11:15:56Z</time>
      </trkpt>
      <trkpt lat="43.139675" lon="-5.044896">
        <ele>600.022</ele>
        <time>2021-10-15T11:15:58Z</time>
      </trkpt>
      <trkpt lat="43.139768" lon="-5.044813">
        <ele>600.962</ele>
        <time>2021-10-15T11:15:59Z</time>
      </trkpt>
      <trkpt lat="43.139881" lon="-5.044745">
        <ele>604.308</ele>
        <time>2021-10-15T11:16:00Z</time>
      </trkpt>
      <trkpt lat="43.140082" lon="-5.044519">
        <ele>604.908</ele>
        <time>2021-10-15T11:16:02Z</time>
      </trkpt>
      <trkpt lat="43.140227" lon="-5.044193">
        <ele>607.770</ele>
        <time>2021-10-15T11:16:04Z</time>
      </trkpt>
      <trkpt lat="43.140321" lon="-5.044026">
        <ele>610.158</ele>
        <time>2021-10-15T11:16:05Z</time>
      </trkpt>
      <trkpt lat="43.140505" lon="-5.043722">
        <ele>610.686</ele>
        <time>2021-10-15T11:16:07Z</time>
      </trkpt>
      <trkpt lat="43.140556" lon="-5.043541">
        <ele>611.860</ele>
        <time>2021-10-15T11:16:08Z</time>
      </trkpt>
      <trkpt lat="43.140624" lon="-5.043185">
        <ele>613.495</ele>
        <time>2021-10-15T11:16:10Z</time>
      </trkpt>
      <trkpt lat="43.140680" lon="-5.043048">
        <ele>612.883</ele>
        <time>2021-10-15T11:16:11Z</time>
      </trkpt>
      <trkpt lat="43.140788" lon="-5.042822">
        <ele>615.876</ele>
        <time>2021-10-15T11:16:13Z</time>
      </trkpt>
      <trkpt lat="43.140802" lon="-5.042686">
        <ele>615.831</ele>
        <time>2021-10-15T11:16:14Z</time>
      </trkpt>
      <trkpt lat="43.140808" lon="-5.042448">
        <ele>617.076</ele>
        <time>2021-10-15T11:16:16Z</time>
      </trkpt>
      <trkpt lat="43.140852" lon="-5.042344">
        <ele>617.190</ele>
        <time>2021-10-15T11:16:17Z</time>
      </trkpt>
      <trkpt lat="43.141004" lon="-5.042186">
        <ele>618.319</ele>
        <time>2021-10-15T11:16:19Z</time>
      </trkpt>
      <trkpt lat="43.141102" lon="-5.042104">
        <ele>619.808</ele>
        <time>2021-10-15T11:16:20Z</time>
      </trkpt>
      <trkpt lat="43.141316" lon="-5.041917">
        <ele>620.745</ele>
        <time>2021-10-15T11:16:22Z</time>
      </trkpt>
      <trkpt lat="43.141560" lon="-5.041745">
        <ele>623.083</ele>
        <time>2021-10-15T11:16:24Z</time>
      </trkpt>
      <trkpt lat="43.141798" lon="-5.041652">
        <ele>625.261</ele>
        <time>2021-10-15T11:16:26Z</time>
      </trkpt>
      <trkpt lat="43.141956" lon="-5.041485">
        <ele>627.665</ele>
        <time>2021-10-15T11:16:28Z</time>
      </trkpt>
      <trkpt lat="43.142009" lon="-5.041363">
        <ele>627.740</ele>
        <time>2021-10-15T11:16:29Z</time>
      </trkpt>
      <trkpt lat="43.142130" lon="-5.041061">
        <ele>630.038</ele>
        <time>2021-10-15T11:16:31Z</time>
      </trkpt>
      <trkpt lat="43.142239" lon="-5.040909">
        <ele>630.981</ele>
        <time>2021-10-15T11:16:32Z</time>
      </trkpt>
      <trkpt lat="43.142481" lon="-5.040616">
        <ele>633.026</ele>
        <time>2021-10-15T11:16:34Z</time>
      </trkpt>
      <trkpt lat="43.142648" lon="-5.040179">
        <ele>634.015</ele>
        <time>2021-10-15T11:16:36Z</time>
      </trkpt>
      <trkpt lat="43.142712" lon="-5.039930">
        <ele>635.365</ele>
        <time>2021-10-15T11:16:37Z</time>
      </trkpt>
      <trkpt lat="43.142777" lon="-5.039677">
        <ele>637.411</ele>
        <time>2021-10-15T11:16:38Z</time>
      </trkpt>
      <trkpt lat="43.142882" lon="-5.039243">
        <ele>639.608</ele>
        <time>2021-10-15T11:16:40Z</time>
      </trkpt>
      <trkpt lat="43.142946" lon="-5.038881">
        <ele>641.289</ele>
        <time>2021-10-15T11:16:42Z</time>
      </trkpt>
      <trkpt lat="43.142938" lon="-5.038529">
        <ele>642.327</ele>
        <time>2021-10-15T11:16:44Z</time>
      </trkpt>
      <trkpt lat="43.142903" lon="-5.038226">
        <ele>644.325</ele>
        <time>2021-10-15T11:16:46Z</time>
      </trkpt>
      <trkpt lat="43.142899" lon="-5.038100">
        <ele>645.529</ele>
        <time>2021-10-15T11:16:47Z</time>
      </trkpt>
      <trkpt lat="43.142913" lon="-5.037985">
        <ele>645.974</ele>
        <time>2021-10-15T11:16:48Z</time>
      </trkpt>
      <trkpt lat="43.143014" lon="-5.037782">
        <ele>647.562</ele>
        <time>2021-10-15T11:16:50Z</time>
      </trkpt>
      <trkpt lat="43.143198" lon="-5.037651">
        <ele>649.145</ele>
        <time>2021-10-15T11:16:52Z</time>
      </trkpt>
      <trkpt lat="43.143279" lon="-5.037599">
        <ele>649.690</ele>
        <time>2021-10-15T11:16:53Z</time>
      </trkpt>
      <trkpt lat="43.143335" lon="-5.037536">
        <ele>651.178</ele>
        <time>2021-10-15T11:16:54Z</time>
      </trkpt>
      <trkpt lat="43.143350" lon="-5.037375">
        <ele>652.933</ele>
        <time>2021-10-15T11:16:56Z</time>
      </trkpt>
      <trkpt lat="43.143259" lon="-5.037251">
        <ele>653.226</ele>
        <time>2021-10-15T11:16:58Z</time>
      </trkpt>
      <trkpt lat="43.143084" lon="-5.037235">
        <ele>653.808</ele>
        <time>2021-10-15T11:17:00Z</time>
      </trkpt>
      <trkpt lat="43.142978" lon="-5.037251">
        <ele>654.735</ele>
        <time>2021-10-15T11:17:01Z</time>
      </trkpt>
      <trkpt lat="43.142871" lon="-5.037248">
        <ele>655.443</ele>
        <time>2021-10-15T11:17:02Z</time>
      </trkpt>
      <trkpt lat="43.142713" lon="-5.037126">
        <ele>655.911</ele>
        <time>2021-10-15T11:17:04Z</time>
      </trkpt>
      <trkpt lat="43.142681" lon="-5.037029">
        <ele>656.795</ele>
        <time>2021-10-15T11:17:05Z</time>
      </trkpt>
      <trkpt lat="43.142673" lon="-5.036917">
        <ele>656.530</ele>
        <time>2021-10-15T11:17:06Z</time>
      </trkpt>
      <trkpt lat="43.142675" lon="-5.036785">
        <ele>656.728</ele>
        <time>2021-10-15T11:17:07Z</time>
      </trkpt>
      <trkpt lat="43.142681" lon="-5.036630">
        <ele>656.751</ele>
        <time>2021-10-15T11:17:08Z</time>
      </trkpt>
      <trkpt lat="43.142673" lon="-5.036387">
        <ele>657.516</ele>
        <time>2021-10-15T11:17:10Z</time>
      </trkpt>
      <trkpt lat="43.142595" lon="-5.036255">
        <ele>657.178</ele>
        <time>2021-10-15T11:17:12Z</time>
      </trkpt>
      <trkpt lat="43.142526" lon="-5.036234">
        <ele>657.433</ele>
        <time>2021-10-15T11:17:13Z</time>
      </trkpt>
      <trkpt lat="43.142436" lon="-5.036249">
        <ele>658.626</ele>
        <time>2021-10-15T11:17:14Z</time>
      </trkpt>
      <trkpt lat="43.142249" lon="-5.036404">
        <ele>660.708</ele>
        <time>2021-10-15T11:17:16Z</time>
      </trkpt>
      <trkpt lat="43.142036" lon="-5.036635">
        <ele>662.035</ele>
        <time>2021-10-15T11:17:18Z</time>
      </trkpt>
      <trkpt lat="43.141770" lon="-5.036843">
        <ele>661.983</ele>
        <time>2021-10-15T11:17:20Z</time>
      </trkpt>
      <trkpt lat="43.141567" lon="-5.037054">
        <ele>664.391</ele>
        <time>2021-10-15T11:17:22Z</time>
      </trkpt>
      <trkpt lat="43.141480" lon="-5.037341">
        <ele>665.615</ele>
        <time>2021-10-15T11:17:24Z</time>
      </trkpt>
      <trkpt lat="43.141479" lon="-5.037511">
        <ele>666.030</ele>
        <time>2021-10-15T11:17:25Z</time>
      </trkpt>
      <trkpt lat="43.141499" lon="-5.037712">
        <ele>666.578</ele>
        <time>2021-10-15T11:17:26Z</time>
      </trkpt>
      <trkpt lat="43.141539" lon="-5.038080">
        <ele>666.651</ele>
        <time>2021-10-15T11:17:28Z</time>
      </trkpt>
      <trkpt lat="43.141514" lon="-5.038398">
        <ele>665.716</ele>
        <time>2021-10-15T11:17:30Z</time>
      </trkpt>
      <trkpt lat="43.141373" lon="-5.038660">
        <ele>667.588</ele>
        <time>2021-10-15T11:17:32Z</time>
      </trkpt>
      <trkpt lat="43.141198" lon="-5.038748">
        <ele>669.124</ele>
        <time>2021-10-15T11:17:34Z</time>
      </trkpt>
      <trkpt lat="43.141119" lon="-5.038727">
        <ele>671.426</ele>
        <time>2021-10-15T11:17:35Z</time>
      </trkpt>
      <trkpt lat="43.140976" lon="-5.038535">
        <ele>672.508</ele>
        <time>2021-10-15T11:17:37Z</time>
      </trkpt>
      <trkpt lat="43.140912" lon="-5.038386">
        <ele>673.816</ele>
        <time>2021-10-15T11:17:38Z</time>
      </trkpt>
      <trkpt lat="43.140779" lon="-5.038096">
        <ele>677.374</ele>
        <time>2021-10-15T11:17:40Z</time>
      </trkpt>
      <trkpt lat="43.140602" lon="-5.037934">
        <ele>677.492</ele>
        <time>2021-10-15T11:17:42Z</time>
      </trkpt>
      <trkpt lat="43.140497" lon="-5.037893">
        <ele>677.446</ele>
        <time>2021-10-15T11:17:43Z</time>
      </trkpt>
      <trkpt lat="43.140375" lon="-5.037859">
        <ele>677.691</ele>
        <time>2021-10-15T11:17:44Z</time>
      </trkpt>
      <trkpt lat="43.140097" lon="-5.037820">
        <ele>679.189</ele>
        <time>2021-10-15T11:17:46Z</time>
      </trkpt>
      <trkpt lat="43.139848" lon="-5.037868">
        <ele>679.592</ele>
        <time>2021-10-15T11:17:48Z</time>
      </trkpt>
      <trkpt lat="43.139755" lon="-5.037912">
        <ele>679.677</ele>
        <time>2021-10-15T11:17:49Z</time>
      </trkpt>
      <trkpt lat="43.139663" lon="-5.037933">
        <ele>680.419</ele>
        <time>2021-10-15T11:17:50Z</time>
      </trkpt>
      <trkpt lat="43.139466" lon="-5.037843">
        <ele>682.209</ele>
        <time>2021-10-15T11:17:52Z</time>
      </trkpt>
      <trkpt lat="43.139358" lon="-5.037746">
        <ele>683.219</ele>
        <time>2021-10-15T11:17:53Z</time>
      </trkpt>
      <trkpt lat="43.139247" lon="-5.037634">
        <ele>683.208</ele>
        <time>2021-10-15T11:17:54Z</time>
      </trkpt>
      <trkpt lat="43.139000" lon="-5.037433">
        <ele>684.939</ele>
        <time>2021-10-15T11:17:56Z</time>
      </trkpt>
      <trkpt lat="43.138783" lon="-5.037344">
        <ele>685.627</ele>
        <time>2021-10-15T11:17:58Z</time>
      </trkpt>
      <trkpt lat="43.138576" lon="-5.037452">
        <ele>687.855</ele>
        <time>2021-10-15T11:18:00Z</time>
      </trkpt>
      <trkpt lat="43.138483" lon="-5.037587">
        <ele>688.179</ele>
        <time>2021-10-15T11:18:01Z</time>
      </trkpt>
      <trkpt lat="43.138396" lon="-5.037765">
        <ele>688.134</ele>
        <time>2021-10-15T11:18:02Z</time>
      </trkpt>
      <trkpt lat="43.138244" lon="-5.038150">
        <ele>688.952</ele>
        <time>2021-10-15T11:18:04Z</time>
      </trkpt>
      <trkpt lat="43.138171" lon="-5.038316">
        <ele>689.375</ele>
        <time>2021-10-15T11:18:05Z</time>
      </trkpt>
      <trkpt lat="43.138095" lon="-5.038464">
        <ele>689.130</ele>
        <time>2021-10-15T11:18:06Z</time>
      </trkpt>
      <trkpt lat="43.137916" lon="-5.038686">
        <ele>688.898</ele>
        <time>2021-10-15T11:18:08Z</time>
      </trkpt>
      <trkpt lat="43.137695" lon="-5.038767">
        <ele>689.615</ele>
        <time>2021-10-15T11:18:10Z</time>
      </trkpt>
      <trkpt lat="43.137577" lon="-5.038748">
        <ele>689.926</ele>
        <time>2021-10-15T11:18:11Z</time>
      </trkpt>
      <trkpt lat="43.137340" lon="-5.038622">
        <ele>690.308</ele>
        <time>2021-10-15T11:18:13Z</time>
      </trkpt>
      <trkpt lat="43.137215" lon="-5.038545">
        <ele>690.357</ele>
        <time>2021-10-15T11:18:14Z</time>
      </trkpt>
      <trkpt lat="43.136958" lon="-5.038405">
        <ele>691.365</ele>
        <time>2021-10-15T11:18:16Z</time>
      </trkpt>
      <trkpt lat="43.136822" lon="-5.038334">
        <ele>692.353</ele>
        <time>2021-10-15T11:18:17Z</time>
      </trkpt>
      <trkpt lat="43.136572" lon="-5.038188">
        <ele>693.427</ele>
        <time>2021-10-15T11:18:19Z</time>
      </trkpt>
      <trkpt lat="43.136452" lon="-5.038098">
        <ele>694.612</ele>
        <time>2021-10-15T11:18:20Z</time>
      </trkpt>
      <trkpt lat="43.136256" lon="-5.037892">
        <ele>695.350</ele>
        <time>2021-10-15T11:18:22Z</time>
      </trkpt>
      <trkpt lat="43.136091" lon="-5.037710">
        <ele>696.493</ele>
        <time>2021-10-15T11:18:24Z</time>
      </trkpt>
      <trkpt lat="43.136007" lon="-5.037645">
        <ele>698.588</ele>
        <time>2021-10-15T11:18:25Z</time>
      </trkpt>
      <trkpt lat="43.135916" lon="-5.037597">
        <ele>698.824</ele>
        <time>2021-10-15T11:18:26Z</time>
      </trkpt>
      <trkpt lat="43.135710" lon="-5.037546">
        <ele>699.304</ele>
        <time>2021-10-15T11:18:28Z</time>
      </trkpt>
      <trkpt lat="43.135469" lon="-5.037548">
        <ele>699.914</ele>
        <time>2021-10-15T11:18:30Z</time>
      </trkpt>
      <trkpt lat="43.135222" lon="-5.037599">
        <ele>701.408</ele>
        <time>2021-10-15T11:18:32Z</time>
      </trkpt>
      <trkpt lat="43.134989" lon="-5.037717">
        <ele>701.470</ele>
        <time>2021-10-15T11:18:34Z</time>
      </trkpt>
      <trkpt lat="43.134761" lon="-5.037866">
        <ele>702.398</ele>
        <time>2021-10-15T11:18:36Z</time>
      </trkpt>
      <trkpt lat="43.134516" lon="-5.037974">
        <ele>702.376</ele>
        <time>2021-10-15T11:18:38Z</time>
      </trkpt>
      <trkpt lat="43.134251" lon="-5.037971">
        <ele>702.740</ele>
        <time>2021-10-15T11:18:40Z</time>
      </trkpt>
      <trkpt lat="43.133960" lon="-5.037931">
        <ele>703.625</ele>
        <time>2021-10-15T11:18:42Z</time>
      </trkpt>
      <trkpt lat="43.133806" lon="-5.037916">
        <ele>704.033</ele>
        <time>2021-10-15T11:18:43Z</time>
      </trkpt>
      <trkpt lat="43.133652" lon="-5.037910">
        <ele>704.946</ele>
        <time>2021-10-15T11:18:44Z</time>
      </trkpt>
      <trkpt lat="43.133370" lon="-5.037981">
        <ele>707.031</ele>
        <time>2021-10-15T11:18:46Z</time>
      </trkpt>
      <trkpt lat="43.133241" lon="-5.038058">
        <ele>707.965</ele>
        <time>2021-10-15T11:18:47Z</time>
      </trkpt>
      <trkpt lat="43.133130" lon="-5.038150">
        <ele>709.268</ele>
        <time>2021-10-15T11:18:48Z</time>
      </trkpt>
      <trkpt lat="43.133029" lon="-5.038251">
        <ele>710.114</ele>
        <time>2021-10-15T11:18:49Z</time>
      </trkpt>
      <trkpt lat="43.132923" lon="-5.038339">
        <ele>710.108</ele>
        <time>2021-10-15T11:18:50Z</time>
      </trkpt>
      <trkpt lat="43.132691" lon="-5.038397">
        <ele>712.714</ele>
        <time>2021-10-15T11:18:52Z</time>
      </trkpt>
      <trkpt lat="43.132572" lon="-5.038371">
        <ele>713.142</ele>
        <time>2021-10-15T11:18:53Z</time>
      </trkpt>
      <trkpt lat="43.132460" lon="-5.038302">
        <ele>714.130</ele>
        <time>2021-10-15T11:18:54Z</time>
      </trkpt>
      <trkpt lat="43.132362" lon="-5.038182">
        <ele>714.514</ele>
        <time>2021-10-15T11:18:55Z</time>
      </trkpt>
      <trkpt lat="43.132295" lon="-5.038015">
        <ele>715.189</ele>
        <time>2021-10-15T11:18:56Z</time>
      </trkpt>
      <trkpt lat="43.132278" lon="-5.037619">
        <ele>716.587</ele>
        <time>2021-10-15T11:18:58Z</time>
      </trkpt>
      <trkpt lat="43.132296" lon="-5.037412">
        <ele>717.620</ele>
        <time>2021-10-15T11:18:59Z</time>
      </trkpt>
      <trkpt lat="43.132289" lon="-5.037072">
        <ele>717.945</ele>
        <time>2021-10-15T11:19:01Z</time>
      </trkpt>
      <trkpt lat="43.132248" lon="-5.036921">
        <ele>718.329</ele>
        <time>2021-10-15T11:19:02Z</time>
      </trkpt>
      <trkpt lat="43.132078" lon="-5.036711">
        <ele>719.200</ele>
        <time>2021-10-15T11:19:04Z</time>
      </trkpt>
      <trkpt lat="43.131801" lon="-5.036585">
        <ele>720.020</ele>
        <time>2021-10-15T11:19:06Z</time>
      </trkpt>
      <trkpt lat="43.131632" lon="-5.036525">
        <ele>720.608</ele>
        <time>2021-10-15T11:19:07Z</time>
      </trkpt>
      <trkpt lat="43.131454" lon="-5.036462">
        <ele>720.920</ele>
        <time>2021-10-15T11:19:08Z</time>
      </trkpt>
      <trkpt lat="43.131147" lon="-5.036376">
        <ele>723.468</ele>
        <time>2021-10-15T11:19:10Z</time>
      </trkpt>
      <trkpt lat="43.130913" lon="-5.036285">
        <ele>725.176</ele>
        <time>2021-10-15T11:19:12Z</time>
      </trkpt>
      <trkpt lat="43.130786" lon="-5.036070">
        <ele>725.960</ele>
        <time>2021-10-15T11:19:14Z</time>
      </trkpt>
      <trkpt lat="43.130758" lon="-5.035733">
        <ele>727.125</ele>
        <time>2021-10-15T11:19:16Z</time>
      </trkpt>
      <trkpt lat="43.130746" lon="-5.035549">
        <ele>727.973</ele>
        <time>2021-10-15T11:19:17Z</time>
      </trkpt>
      <trkpt lat="43.130715" lon="-5.035215">
        <ele>728.876</ele>
        <time>2021-10-15T11:19:19Z</time>
      </trkpt>
      <trkpt lat="43.130688" lon="-5.035075">
        <ele>729.691</ele>
        <time>2021-10-15T11:19:20Z</time>
      </trkpt>
      <trkpt lat="43.130581" lon="-5.034877">
        <ele>730.598</ele>
        <time>2021-10-15T11:19:22Z</time>
      </trkpt>
      <trkpt lat="43.130389" lon="-5.034790">
        <ele>733.515</ele>
        <time>2021-10-15T11:19:24Z</time>
      </trkpt>
      <trkpt lat="43.130127" lon="-5.034825">
        <ele>735.826</ele>
        <time>2021-10-15T11:19:26Z</time>
      </trkpt>
      <trkpt lat="43.129891" lon="-5.034854">
        <ele>737.008</ele>
        <time>2021-10-15T11:19:28Z</time>
      </trkpt>
      <trkpt lat="43.129781" lon="-5.034812">
        <ele>737.397</ele>
        <time>2021-10-15T11:19:29Z</time>
      </trkpt>
      <trkpt lat="43.129683" lon="-5.034725">
        <ele>737.385</ele>
        <time>2021-10-15T11:19:30Z</time>
      </trkpt>
      <trkpt lat="43.129558" lon="-5.034449">
        <ele>737.823</ele>
        <time>2021-10-15T11:19:32Z</time>
      </trkpt>
      <trkpt lat="43.129515" lon="-5.034104">
        <ele>739.447</ele>
        <time>2021-10-15T11:19:34Z</time>
      </trkpt>
      <trkpt lat="43.129502" lon="-5.033903">
        <ele>739.272</ele>
        <time>2021-10-15T11:19:35Z</time>
      </trkpt>
      <trkpt lat="43.129490" lon="-5.033691">
        <ele>739.850</ele>
        <time>2021-10-15T11:19:36Z</time>
      </trkpt>
      <trkpt lat="43.129470" lon="-5.033268">
        <ele>741.473</ele>
        <time>2021-10-15T11:19:38Z</time>
      </trkpt>
      <trkpt lat="43.129445" lon="-5.032915">
        <ele>743.578</ele>
        <time>2021-10-15T11:19:40Z</time>
      </trkpt>
      <trkpt lat="43.129472" lon="-5.032652">
        <ele>745.393</ele>
        <time>2021-10-15T11:19:42Z</time>
      </trkpt>
      <trkpt lat="43.129523" lon="-5.032549">
        <ele>745.765</ele>
        <time>2021-10-15T11:19:43Z</time>
      </trkpt>
      <trkpt lat="43.129596" lon="-5.032461">
        <ele>746.421</ele>
        <time>2021-10-15T11:19:44Z</time>
      </trkpt>
      <trkpt lat="43.129746" lon="-5.032335">
        <ele>750.008</ele>
        <time>2021-10-15T11:19:46Z</time>
      </trkpt>
      <trkpt lat="43.129839" lon="-5.032180">
        <ele>750.087</ele>
        <time>2021-10-15T11:19:48Z</time>
      </trkpt>
      <trkpt lat="43.129846" lon="-5.032086">
        <ele>750.815</ele>
        <time>2021-10-15T11:19:49Z</time>
      </trkpt>
      <trkpt lat="43.129836" lon="-5.031951">
        <ele>752.643</ele>
        <time>2021-10-15T11:19:50Z</time>
      </trkpt>
      <trkpt lat="43.129808" lon="-5.031612">
        <ele>754.167</ele>
        <time>2021-10-15T11:19:52Z</time>
      </trkpt>
      <trkpt lat="43.129790" lon="-5.031435">
        <ele>755.662</ele>
        <time>2021-10-15T11:19:53Z</time>
      </trkpt>
      <trkpt lat="43.129699" lon="-5.031148">
        <ele>757.150</ele>
        <time>2021-10-15T11:19:55Z</time>
      </trkpt>
      <trkpt lat="43.129615" lon="-5.031060">
        <ele>757.113</ele>
        <time>2021-10-15T11:19:56Z</time>
      </trkpt>
      <trkpt lat="43.129407" lon="-5.030968">
        <ele>757.728</ele>
        <time>2021-10-15T11:19:58Z</time>
      </trkpt>
      <trkpt lat="43.129232" lon="-5.030823">
        <ele>759.077</ele>
        <time>2021-10-15T11:20:00Z</time>
      </trkpt>
      <trkpt lat="43.129181" lon="-5.030712">
        <ele>759.061</ele>
        <time>2021-10-15T11:20:01Z</time>
      </trkpt>
      <trkpt lat="43.129142" lon="-5.030580">
        <ele>759.027</ele>
        <time>2021-10-15T11:20:02Z</time>
      </trkpt>
      <trkpt lat="43.129068" lon="-5.030281">
        <ele>760.208</ele>
        <time>2021-10-15T11:20:04Z</time>
      </trkpt>
      <trkpt lat="43.129011" lon="-5.029909">
        <ele>759.915</ele>
        <time>2021-10-15T11:20:06Z</time>
      </trkpt>
      <trkpt lat="43.129000" lon="-5.029722">
        <ele>759.663</ele>
        <time>2021-10-15T11:20:07Z</time>
      </trkpt>
      <trkpt lat="43.129008" lon="-5.029526">
        <ele>759.871</ele>
        <time>2021-10-15T11:20:08Z</time>
      </trkpt>
      <trkpt lat="43.129039" lon="-5.029157">
        <ele>761.655</ele>
        <time>2021-10-15T11:20:10Z</time>
      </trkpt>
      <trkpt lat="43.129049" lon="-5.028966">
        <ele>761.950</ele>
        <time>2021-10-15T11:20:11Z</time>
      </trkpt>
      <trkpt lat="43.129066" lon="-5.028584">
        <ele>761.848</ele>
        <time>2021-10-15T11:20:13Z</time>
      </trkpt>
      <trkpt lat="43.129072" lon="-5.028405">
        <ele>762.391</ele>
        <time>2021-10-15T11:20:14Z</time>
      </trkpt>
      <trkpt lat="43.129069" lon="-5.028094">
        <ele>762.256</ele>
        <time>2021-10-15T11:20:16Z</time>
      </trkpt>
      <trkpt lat="43.129110" lon="-5.027803">
        <ele>761.956</ele>
        <time>2021-10-15T11:20:18Z</time>
      </trkpt>
      <trkpt lat="43.129197" lon="-5.027475">
        <ele>760.359</ele>
        <time>2021-10-15T11:20:20Z</time>
      </trkpt>
      <trkpt lat="43.129259" lon="-5.027140">
        <ele>762.414</ele>
        <time>2021-10-15T11:20:22Z</time>
      </trkpt>
      <trkpt lat="43.129227" lon="-5.026823">
        <ele>763.708</ele>
        <time>2021-10-15T11:20:24Z</time>
      </trkpt>
      <trkpt lat="43.129178" lon="-5.026677">
        <ele>763.853</ele>
        <time>2021-10-15T11:20:25Z</time>
      </trkpt>
      <trkpt lat="43.129097" lon="-5.026542">
        <ele>764.611</ele>
        <time>2021-10-15T11:20:26Z</time>
      </trkpt>
      <trkpt lat="43.128839" lon="-5.026344">
        <ele>765.219</ele>
        <time>2021-10-15T11:20:28Z</time>
      </trkpt>
      <trkpt lat="43.128518" lon="-5.026159">
        <ele>767.383</ele>
        <time>2021-10-15T11:20:30Z</time>
      </trkpt>
      <trkpt lat="43.128201" lon="-5.026047">
        <ele>768.598</ele>
        <time>2021-10-15T11:20:32Z</time>
      </trkpt>
      <trkpt lat="43.127880" lon="-5.025973">
        <ele>769.146</ele>
        <time>2021-10-15T11:20:34Z</time>
      </trkpt>
      <trkpt lat="43.127715" lon="-5.025910">
        <ele>770.679</ele>
        <time>2021-10-15T11:20:35Z</time>
      </trkpt>
      <trkpt lat="43.127416" lon="-5.025708">
        <ele>772.144</ele>
        <time>2021-10-15T11:20:37Z</time>
      </trkpt>
      <trkpt lat="43.127278" lon="-5.025569">
        <ele>773.088</ele>
        <time>2021-10-15T11:20:38Z</time>
      </trkpt>
      <trkpt lat="43.127062" lon="-5.025262">
        <ele>775.324</ele>
        <time>2021-10-15T11:20:40Z</time>
      </trkpt>
      <trkpt lat="43.126859" lon="-5.025028">
        <ele>778.226</ele>
        <time>2021-10-15T11:20:42Z</time>
      </trkpt>
      <trkpt lat="43.126778" lon="-5.024924">
        <ele>779.108</ele>
        <time>2021-10-15T11:20:43Z</time>
      </trkpt>
      <trkpt lat="43.126719" lon="-5.024792">
        <ele>779.226</ele>
        <time>2021-10-15T11:20:44Z</time>
      </trkpt>
      <trkpt lat="43.126692" lon="-5.024460">
        <ele>781.794</ele>
        <time>2021-10-15T11:20:46Z</time>
      </trkpt>
      <trkpt lat="43.126713" lon="-5.024255">
        <ele>783.142</ele>
        <time>2021-10-15T11:20:47Z</time>
      </trkpt>
      <trkpt lat="43.126759" lon="-5.023834">
        <ele>785.246</ele>
        <time>2021-10-15T11:20:49Z</time>
      </trkpt>
      <trkpt lat="43.126779" lon="-5.023612">
        <ele>786.231</ele>
        <time>2021-10-15T11:20:50Z</time>
      </trkpt>
      <trkpt lat="43.126802" lon="-5.023234">
        <ele>788.259</ele>
        <time>2021-10-15T11:20:52Z</time>
      </trkpt>
      <trkpt lat="43.126787" lon="-5.023068">
        <ele>789.052</ele>
        <time>2021-10-15T11:20:53Z</time>
      </trkpt>
      <trkpt lat="43.126656" lon="-5.022795">
        <ele>791.587</ele>
        <time>2021-10-15T11:20:55Z</time>
      </trkpt>
      <trkpt lat="43.126560" lon="-5.022671">
        <ele>792.295</ele>
        <time>2021-10-15T11:20:56Z</time>
      </trkpt>
      <trkpt lat="43.126349" lon="-5.022375">
        <ele>794.149</ele>
        <time>2021-10-15T11:20:58Z</time>
      </trkpt>
      <trkpt lat="43.126109" lon="-5.022033">
        <ele>794.123</ele>
        <time>2021-10-15T11:21:00Z</time>
      </trkpt>
      <trkpt lat="43.125862" lon="-5.021688">
        <ele>792.908</ele>
        <time>2021-10-15T11:21:02Z</time>
      </trkpt>
      <trkpt lat="43.125616" lon="-5.021323">
        <ele>791.087</ele>
        <time>2021-10-15T11:21:04Z</time>
      </trkpt>
      <trkpt lat="43.125487" lon="-5.021121">
        <ele>791.115</ele>
        <time>2021-10-15T11:21:05Z</time>
      </trkpt>
      <trkpt lat="43.125362" lon="-5.020922">
        <ele>791.493</ele>
        <time>2021-10-15T11:21:06Z</time>
      </trkpt>
      <trkpt lat="43.125107" lon="-5.020534">
        <ele>793.297</ele>
        <time>2021-10-15T11:21:08Z</time>
      </trkpt>
      <trkpt lat="43.124892" lon="-5.020199">
        <ele>795.512</ele>
        <time>2021-10-15T11:21:10Z</time>
      </trkpt>
      <trkpt lat="43.124738" lon="-5.019832">
        <ele>799.440</ele>
        <time>2021-10-15T11:21:12Z</time>
      </trkpt>
      <trkpt lat="43.124651" lon="-5.019414">
        <ele>801.713</ele>
        <time>2021-10-15T11:21:14Z</time>
      </trkpt>
      <trkpt lat="43.124544" lon="-5.018929">
        <ele>805.238</ele>
        <time>2021-10-15T11:21:16Z</time>
      </trkpt>
      <trkpt lat="43.124488" lon="-5.018668">
        <ele>806.636</ele>
        <time>2021-10-15T11:21:17Z</time>
      </trkpt>
      <trkpt lat="43.124432" lon="-5.018427">
        <ele>808.617</ele>
        <time>2021-10-15T11:21:18Z</time>
      </trkpt>
      <trkpt lat="43.124309" lon="-5.018020">
        <ele>810.818</ele>
        <time>2021-10-15T11:21:20Z</time>
      </trkpt>
      <trkpt lat="43.124199" lon="-5.017662">
        <ele>812.808</ele>
        <time>2021-10-15T11:21:22Z</time>
      </trkpt>
      <trkpt lat="43.124165" lon="-5.017284">
        <ele>815.711</ele>
        <time>2021-10-15T11:21:24Z</time>
      </trkpt>
      <trkpt lat="43.124191" lon="-5.017078">
        <ele>816.899</ele>
        <time>2021-10-15T11:21:25Z</time>
      </trkpt>
      <trkpt lat="43.124241" lon="-5.016855">
        <ele>817.877</ele>
        <time>2021-10-15T11:21:26Z</time>
      </trkpt>
      <trkpt lat="43.124363" lon="-5.016370">
        <ele>820.361</ele>
        <time>2021-10-15T11:21:28Z</time>
      </trkpt>
      <trkpt lat="43.124426" lon="-5.016070">
        <ele>821.536</ele>
        <time>2021-10-15T11:21:29Z</time>
      </trkpt>
      <trkpt lat="43.124491" lon="-5.015740">
        <ele>822.494</ele>
        <time>2021-10-15T11:21:30Z</time>
      </trkpt>
      <trkpt lat="43.124632" lon="-5.015022">
        <ele>825.287</ele>
        <time>2021-10-15T11:21:32Z</time>
      </trkpt>
      <trkpt lat="43.124757" lon="-5.014401">
        <ele>826.212</ele>
        <time>2021-10-15T11:21:34Z</time>
      </trkpt>
      <trkpt lat="43.124810" lon="-5.014121">
        <ele>826.985</ele>
        <time>2021-10-15T11:21:35Z</time>
      </trkpt>
      <trkpt lat="43.124858" lon="-5.013858">
        <ele>827.289</ele>
        <time>2021-10-15T11:21:36Z</time>
      </trkpt>
      <trkpt lat="43.124940" lon="-5.013375">
        <ele>828.717</ele>
        <time>2021-10-15T11:21:38Z</time>
      </trkpt>
      <trkpt lat="43.125019" lon="-5.012941">
        <ele>831.508</ele>
        <time>2021-10-15T11:21:40Z</time>
      </trkpt>
      <trkpt lat="43.125053" lon="-5.012746">
        <ele>832.266</ele>
        <time>2021-10-15T11:21:41Z</time>
      </trkpt>
      <trkpt lat="43.125119" lon="-5.012410">
        <ele>833.824</ele>
        <time>2021-10-15T11:21:43Z</time>
      </trkpt>
      <trkpt lat="43.125148" lon="-5.012261">
        <ele>834.162</ele>
        <time>2021-10-15T11:21:44Z</time>
      </trkpt>
      <trkpt lat="43.125193" lon="-5.011981">
        <ele>835.956</ele>
        <time>2021-10-15T11:21:46Z</time>
      </trkpt>
      <trkpt lat="43.125160" lon="-5.011681">
        <ele>837.111</ele>
        <time>2021-10-15T11:21:48Z</time>
      </trkpt>
      <trkpt lat="43.125093" lon="-5.011519">
        <ele>839.269</ele>
        <time>2021-10-15T11:21:49Z</time>
      </trkpt>
      <trkpt lat="43.125001" lon="-5.011344">
        <ele>839.372</ele>
        <time>2021-10-15T11:21:50Z</time>
      </trkpt>
      <trkpt lat="43.124790" lon="-5.010969">
        <ele>840.567</ele>
        <time>2021-10-15T11:21:52Z</time>
      </trkpt>
      <trkpt lat="43.124569" lon="-5.010583">
        <ele>842.092</ele>
        <time>2021-10-15T11:21:54Z</time>
      </trkpt>
      <trkpt lat="43.124462" lon="-5.010403">
        <ele>843.273</ele>
        <time>2021-10-15T11:21:55Z</time>
      </trkpt>
      <trkpt lat="43.124359" lon="-5.010207">
        <ele>843.820</ele>
        <time>2021-10-15T11:21:56Z</time>
      </trkpt>
      <trkpt lat="43.124170" lon="-5.009827">
        <ele>846.008</ele>
        <time>2021-10-15T11:21:58Z</time>
      </trkpt>
      <trkpt lat="43.124072" lon="-5.009655">
        <ele>846.937</ele>
        <time>2021-10-15T11:21:59Z</time>
      </trkpt>
      <trkpt lat="43.123972" lon="-5.009490">
        <ele>848.535</ele>
        <time>2021-10-15T11:22:00Z</time>
      </trkpt>
      <trkpt lat="43.123814" lon="-5.009134">
        <ele>849.853</ele>
        <time>2021-10-15T11:22:02Z</time>
      </trkpt>
      <trkpt lat="43.123694" lon="-5.008806">
        <ele>852.677</ele>
        <time>2021-10-15T11:22:04Z</time>
      </trkpt>
      <trkpt lat="43.123639" lon="-5.008682">
        <ele>853.672</ele>
        <time>2021-10-15T11:22:05Z</time>
      </trkpt>
      <trkpt lat="43.123586" lon="-5.008588">
        <ele>855.030</ele>
        <time>2021-10-15T11:22:06Z</time>
      </trkpt>
      <trkpt lat="43.123466" lon="-5.008496">
        <ele>855.293</ele>
        <time>2021-10-15T11:22:08Z</time>
      </trkpt>
      <trkpt lat="43.123324" lon="-5.008502">
        <ele>856.868</ele>
        <time>2021-10-15T11:22:10Z</time>
      </trkpt>
      <trkpt lat="43.123225" lon="-5.008651">
        <ele>857.754</ele>
        <time>2021-10-15T11:22:12Z</time>
      </trkpt>
      <trkpt lat="43.123215" lon="-5.008861">
        <ele>860.756</ele>
        <time>2021-10-15T11:22:14Z</time>
      </trkpt>
      <trkpt lat="43.123256" lon="-5.009088">
        <ele>862.211</ele>
        <time>2021-10-15T11:22:16Z</time>
      </trkpt>
      <trkpt lat="43.123287" lon="-5.009208">
        <ele>863.108</ele>
        <time>2021-10-15T11:22:17Z</time>
      </trkpt>
      <trkpt lat="43.123352" lon="-5.009474">
        <ele>863.283</ele>
        <time>2021-10-15T11:22:19Z</time>
      </trkpt>
      <trkpt lat="43.123388" lon="-5.009629">
        <ele>863.521</ele>
        <time>2021-10-15T11:22:20Z</time>
      </trkpt>
      <trkpt lat="43.123469" lon="-5.009976">
        <ele>863.549</ele>
        <time>2021-10-15T11:22:22Z</time>
      </trkpt>
      <trkpt lat="43.123514" lon="-5.010165">
        <ele>863.773</ele>
        <time>2021-10-15T11:22:23Z</time>
      </trkpt>
      <trkpt lat="43.123551" lon="-5.010344">
        <ele>865.048</ele>
        <time>2021-10-15T11:22:24Z</time>
      </trkpt>
      <trkpt lat="43.123577" lon="-5.010653">
        <ele>865.616</ele>
        <time>2021-10-15T11:22:26Z</time>
      </trkpt>
      <trkpt lat="43.123515" lon="-5.010951">
        <ele>867.979</ele>
        <time>2021-10-15T11:22:28Z</time>
      </trkpt>
      <trkpt lat="43.123400" lon="-5.011325">
        <ele>869.754</ele>
        <time>2021-10-15T11:22:30Z</time>
      </trkpt>
      <trkpt lat="43.123336" lon="-5.011528">
        <ele>872.483</ele>
        <time>2021-10-15T11:22:31Z</time>
      </trkpt>
      <trkpt lat="43.123281" lon="-5.011711">
        <ele>872.425</ele>
        <time>2021-10-15T11:22:32Z</time>
      </trkpt>
      <trkpt lat="43.123230" lon="-5.012052">
        <ele>874.417</ele>
        <time>2021-10-15T11:22:34Z</time>
      </trkpt>
      <trkpt lat="43.123238" lon="-5.012230">
        <ele>875.808</ele>
        <time>2021-10-15T11:22:35Z</time>
      </trkpt>
      <trkpt lat="43.123269" lon="-5.012392">
        <ele>876.456</ele>
        <time>2021-10-15T11:22:36Z</time>
      </trkpt>
      <trkpt lat="43.123305" lon="-5.012663">
        <ele>878.774</ele>
        <time>2021-10-15T11:22:38Z</time>
      </trkpt>
      <trkpt lat="43.123229" lon="-5.012887">
        <ele>880.972</ele>
        <time>2021-10-15T11:22:40Z</time>
      </trkpt>
      <trkpt lat="43.123027" lon="-5.013107">
        <ele>880.966</ele>
        <time>2021-10-15T11:22:42Z</time>
      </trkpt>
      <trkpt lat="43.122891" lon="-5.013208">
        <ele>881.231</ele>
        <time>2021-10-15T11:22:43Z</time>
      </trkpt>
      <trkpt lat="43.122746" lon="-5.013315">
        <ele>880.639</ele>
        <time>2021-10-15T11:22:44Z</time>
      </trkpt>
      <trkpt lat="43.122495" lon="-5.013518">
        <ele>881.112</ele>
        <time>2021-10-15T11:22:46Z</time>
      </trkpt>
      <trkpt lat="43.122263" lon="-5.013653">
        <ele>880.797</ele>
        <time>2021-10-15T11:22:48Z</time>
      </trkpt>
      <trkpt lat="43.122135" lon="-5.013676">
        <ele>880.535</ele>
        <time>2021-10-15T11:22:49Z</time>
      </trkpt>
      <trkpt lat="43.121997" lon="-5.013664">
        <ele>880.586</ele>
        <time>2021-10-15T11:22:50Z</time>
      </trkpt>
      <trkpt lat="43.121720" lon="-5.013583">
        <ele>880.714</ele>
        <time>2021-10-15T11:22:52Z</time>
      </trkpt>
      <trkpt lat="43.121438" lon="-5.013477">
        <ele>883.608</ele>
        <time>2021-10-15T11:22:54Z</time>
      </trkpt>
      <trkpt lat="43.121304" lon="-5.013422">
        <ele>884.121</ele>
        <time>2021-10-15T11:22:55Z</time>
      </trkpt>
      <trkpt lat="43.121179" lon="-5.013374">
        <ele>884.879</ele>
        <time>2021-10-15T11:22:56Z</time>
      </trkpt>
      <trkpt lat="43.120965" lon="-5.013324">
        <ele>886.387</ele>
        <time>2021-10-15T11:22:58Z</time>
      </trkpt>
      <trkpt lat="43.120804" lon="-5.013351">
        <ele>888.261</ele>
        <time>2021-10-15T11:23:00Z</time>
      </trkpt>
      <trkpt lat="43.120721" lon="-5.013475">
        <ele>889.766</ele>
        <time>2021-10-15T11:23:02Z</time>
      </trkpt>
      <trkpt lat="43.120780" lon="-5.013688">
        <ele>891.264</ele>
        <time>2021-10-15T11:23:04Z</time>
      </trkpt>
      <trkpt lat="43.120855" lon="-5.013802">
        <ele>891.757</ele>
        <time>2021-10-15T11:23:05Z</time>
      </trkpt>
      <trkpt lat="43.120949" lon="-5.013919">
        <ele>892.612</ele>
        <time>2021-10-15T11:23:06Z</time>
      </trkpt>
      <trkpt lat="43.121132" lon="-5.014187">
        <ele>892.743</ele>
        <time>2021-10-15T11:23:08Z</time>
      </trkpt>
      <trkpt lat="43.121225" lon="-5.014455">
        <ele>892.964</ele>
        <time>2021-10-15T11:23:10Z</time>
      </trkpt>
      <trkpt lat="43.121216" lon="-5.014694">
        <ele>892.010</ele>
        <time>2021-10-15T11:23:12Z</time>
      </trkpt>
      <trkpt lat="43.121126" lon="-5.014947">
        <ele>894.308</ele>
        <time>2021-10-15T11:23:14Z</time>
      </trkpt>
      <trkpt lat="43.121041" lon="-5.015267">
        <ele>893.842</ele>
        <time>2021-10-15T11:23:16Z</time>
      </trkpt>
      <trkpt lat="43.121021" lon="-5.015595">
        <ele>893.510</ele>
        <time>2021-10-15T11:23:18Z</time>
      </trkpt>
      <trkpt lat="43.121048" lon="-5.015747">
        <ele>894.078</ele>
        <time>2021-10-15T11:23:19Z</time>
      </trkpt>
      <trkpt lat="43.121093" lon="-5.015897">
        <ele>894.012</ele>
        <time>2021-10-15T11:23:20Z</time>
      </trkpt>
      <trkpt lat="43.121176" lon="-5.016206">
        <ele>893.957</ele>
        <time>2021-10-15T11:23:22Z</time>
      </trkpt>
      <trkpt lat="43.121212" lon="-5.016367">
        <ele>894.195</ele>
        <time>2021-10-15T11:23:23Z</time>
      </trkpt>
      <trkpt lat="43.121245" lon="-5.016639">
        <ele>894.188</ele>
        <time>2021-10-15T11:23:25Z</time>
      </trkpt>
      <trkpt lat="43.121234" lon="-5.016752">
        <ele>894.813</ele>
        <time>2021-10-15T11:23:26Z</time>
      </trkpt>
      <trkpt lat="43.121122" lon="-5.016881">
        <ele>896.235</ele>
        <time>2021-10-15T11:23:28Z</time>
      </trkpt>
      <trkpt lat="43.121033" lon="-5.016915">
        <ele>896.686</ele>
        <time>2021-10-15T11:23:29Z</time>
      </trkpt>
      <trkpt lat="43.120793" lon="-5.016943">
        <ele>897.414</ele>
        <time>2021-10-15T11:23:31Z</time>
      </trkpt>
      <trkpt lat="43.120636" lon="-5.016944">
        <ele>898.708</ele>
        <time>2021-10-15T11:23:32Z</time>
      </trkpt>
      <trkpt lat="43.120309" lon="-5.016969">
        <ele>900.561</ele>
        <time>2021-10-15T11:23:34Z</time>
      </trkpt>
      <trkpt lat="43.120002" lon="-5.017052">
        <ele>902.449</ele>
        <time>2021-10-15T11:23:36Z</time>
      </trkpt>
      <trkpt lat="43.119732" lon="-5.017203">
        <ele>903.587</ele>
        <time>2021-10-15T11:23:38Z</time>
      </trkpt>
      <trkpt lat="43.119534" lon="-5.017394">
        <ele>904.631</ele>
        <time>2021-10-15T11:23:40Z</time>
      </trkpt>
      <trkpt lat="43.119427" lon="-5.017627">
        <ele>906.736</ele>
        <time>2021-10-15T11:23:42Z</time>
      </trkpt>
      <trkpt lat="43.119420" lon="-5.017747">
        <ele>906.844</ele>
        <time>2021-10-15T11:23:43Z</time>
      </trkpt>
      <trkpt lat="43.119443" lon="-5.017872">
        <ele>907.877</ele>
        <time>2021-10-15T11:23:44Z</time>
      </trkpt>
      <trkpt lat="43.119553" lon="-5.018154">
        <ele>908.542</ele>
        <time>2021-10-15T11:23:46Z</time>
      </trkpt>
      <trkpt lat="43.119651" lon="-5.018500">
        <ele>908.417</ele>
        <time>2021-10-15T11:23:48Z</time>
      </trkpt>
      <trkpt lat="43.119679" lon="-5.018669">
        <ele>908.387</ele>
        <time>2021-10-15T11:23:49Z</time>
      </trkpt>
      <trkpt lat="43.119714" lon="-5.018827">
        <ele>908.315</ele>
        <time>2021-10-15T11:23:50Z</time>
      </trkpt>
      <trkpt lat="43.119839" lon="-5.019094">
        <ele>910.008</ele>
        <time>2021-10-15T11:23:52Z</time>
      </trkpt>
      <trkpt lat="43.119923" lon="-5.019212">
        <ele>910.869</ele>
        <time>2021-10-15T11:23:53Z</time>
      </trkpt>
      <trkpt lat="43.120010" lon="-5.019332">
        <ele>911.847</ele>
        <time>2021-10-15T11:23:54Z</time>
      </trkpt>
      <trkpt lat="43.120139" lon="-5.019642">
        <ele>911.375</ele>
        <time>2021-10-15T11:23:56Z</time>
      </trkpt>
      <trkpt lat="43.120189" lon="-5.019976">
        <ele>913.989</ele>
        <time>2021-10-15T11:23:58Z</time>
      </trkpt>
      <trkpt lat="43.120183" lon="-5.020146">
        <ele>913.984</ele>
        <time>2021-10-15T11:23:59Z</time>
      </trkpt>
      <trkpt lat="43.120147" lon="-5.020314">
        <ele>914.362</ele>
        <time>2021-10-15T11:24:00Z</time>
      </trkpt>
      <trkpt lat="43.120019" lon="-5.020628">
        <ele>915.565</ele>
        <time>2021-10-15T11:24:02Z</time>
      </trkpt>
      <trkpt lat="43.119830" lon="-5.020853">
        <ele>917.840</ele>
        <time>2021-10-15T11:24:04Z</time>
      </trkpt>
      <trkpt lat="43.119714" lon="-5.020928">
        <ele>918.171</ele>
        <time>2021-10-15T11:24:05Z</time>
      </trkpt>
      <trkpt lat="43.119446" lon="-5.020998">
        <ele>919.941</ele>
        <time>2021-10-15T11:24:07Z</time>
      </trkpt>
      <trkpt lat="43.119295" lon="-5.021028">
        <ele>920.815</ele>
        <time>2021-10-15T11:24:08Z</time>
      </trkpt>
      <trkpt lat="43.119005" lon="-5.021107">
        <ele>921.308</ele>
        <time>2021-10-15T11:24:10Z</time>
      </trkpt>
      <trkpt lat="43.118875" lon="-5.021161">
        <ele>922.025</ele>
        <time>2021-10-15T11:24:11Z</time>
      </trkpt>
      <trkpt lat="43.118684" lon="-5.021320">
        <ele>922.843</ele>
        <time>2021-10-15T11:24:13Z</time>
      </trkpt>
      <trkpt lat="43.118635" lon="-5.021427">
        <ele>923.971</ele>
        <time>2021-10-15T11:24:14Z</time>
      </trkpt>
      <trkpt lat="43.118640" lon="-5.021658">
        <ele>925.755</ele>
        <time>2021-10-15T11:24:16Z</time>
      </trkpt>
      <trkpt lat="43.118683" lon="-5.021772">
        <ele>926.130</ele>
        <time>2021-10-15T11:24:17Z</time>
      </trkpt>
      <trkpt lat="43.118825" lon="-5.022018">
        <ele>927.268</ele>
        <time>2021-10-15T11:24:19Z</time>
      </trkpt>
      <trkpt lat="43.118887" lon="-5.022162">
        <ele>927.761</ele>
        <time>2021-10-15T11:24:20Z</time>
      </trkpt>
      <trkpt lat="43.118956" lon="-5.022478">
        <ele>928.076</ele>
        <time>2021-10-15T11:24:22Z</time>
      </trkpt>
      <trkpt lat="43.118974" lon="-5.022643">
        <ele>929.116</ele>
        <time>2021-10-15T11:24:23Z</time>
      </trkpt>
      <trkpt lat="43.118981" lon="-5.022908">
        <ele>930.076</ele>
        <time>2021-10-15T11:24:25Z</time>
      </trkpt>
      <trkpt lat="43.118962" lon="-5.023016">
        <ele>929.813</ele>
        <time>2021-10-15T11:24:26Z</time>
      </trkpt>
      <trkpt lat="43.118855" lon="-5.023122">
        <ele>930.508</ele>
        <time>2021-10-15T11:24:28Z</time>
      </trkpt>
      <trkpt lat="43.118763" lon="-5.023132">
        <ele>931.059</ele>
        <time>2021-10-15T11:24:29Z</time>
      </trkpt>
      <trkpt lat="43.118534" lon="-5.023111">
        <ele>932.367</ele>
        <time>2021-10-15T11:24:31Z</time>
      </trkpt>
      <trkpt lat="43.118421" lon="-5.023087">
        <ele>933.495</ele>
        <time>2021-10-15T11:24:32Z</time>
      </trkpt>
      <trkpt lat="43.118210" lon="-5.023006">
        <ele>934.849</ele>
        <time>2021-10-15T11:24:34Z</time>
      </trkpt>
      <trkpt lat="43.118105" lon="-5.022951">
        <ele>935.594</ele>
        <time>2021-10-15T11:24:35Z</time>
      </trkpt>
      <trkpt lat="43.117887" lon="-5.022837">
        <ele>936.262</ele>
        <time>2021-10-15T11:24:37Z</time>
      </trkpt>
      <trkpt lat="43.117762" lon="-5.022794">
        <ele>937.535</ele>
        <time>2021-10-15T11:24:38Z</time>
      </trkpt>
      <trkpt lat="43.117507" lon="-5.022731">
        <ele>939.130</ele>
        <time>2021-10-15T11:24:40Z</time>
      </trkpt>
      <trkpt lat="43.117224" lon="-5.022680">
        <ele>941.638</ele>
        <time>2021-10-15T11:24:42Z</time>
      </trkpt>
      <trkpt lat="43.117080" lon="-5.022680">
        <ele>941.770</ele>
        <time>2021-10-15T11:24:43Z</time>
      </trkpt>
      <trkpt lat="43.116937" lon="-5.022724">
        <ele>943.517</ele>
        <time>2021-10-15T11:24:44Z</time>
      </trkpt>
      <trkpt lat="43.116702" lon="-5.022914">
        <ele>947.208</ele>
        <time>2021-10-15T11:24:46Z</time>
      </trkpt>
      <trkpt lat="43.116608" lon="-5.023011">
        <ele>948.531</ele>
        <time>2021-10-15T11:24:47Z</time>
      </trkpt>
      <trkpt lat="43.116405" lon="-5.023103">
        <ele>950.189</ele>
        <time>2021-10-15T11:24:49Z</time>
      </trkpt>
      <trkpt lat="43.116292" lon="-5.023080">
        <ele>951.537</ele>
        <time>2021-10-15T11:24:50Z</time>
      </trkpt>
      <trkpt lat="43.116046" lon="-5.022945">
        <ele>951.711</ele>
        <time>2021-10-15T11:24:52Z</time>
      </trkpt>
      <trkpt lat="43.115788" lon="-5.022868">
        <ele>954.326</ele>
        <time>2021-10-15T11:24:54Z</time>
      </trkpt>
      <trkpt lat="43.115657" lon="-5.022891">
        <ele>954.354</ele>
        <time>2021-10-15T11:24:55Z</time>
      </trkpt>
      <trkpt lat="43.115513" lon="-5.022957">
        <ele>955.157</ele>
        <time>2021-10-15T11:24:56Z</time>
      </trkpt>
      <trkpt lat="43.115221" lon="-5.023119">
        <ele>956.842</ele>
        <time>2021-10-15T11:24:58Z</time>
      </trkpt>
      <trkpt lat="43.114919" lon="-5.023191">
        <ele>957.173</ele>
        <time>2021-10-15T11:25:00Z</time>
      </trkpt>
      <trkpt lat="43.114757" lon="-5.023179">
        <ele>958.085</ele>
        <time>2021-10-15T11:25:01Z</time>
      </trkpt>
      <trkpt lat="43.114579" lon="-5.023151">
        <ele>959.513</ele>
        <time>2021-10-15T11:25:02Z</time>
      </trkpt>
      <trkpt lat="43.114204" lon="-5.023085">
        <ele>960.908</ele>
        <time>2021-10-15T11:25:04Z</time>
      </trkpt>
      <trkpt lat="43.113994" lon="-5.023051">
        <ele>962.685</ele>
        <time>2021-10-15T11:25:05Z</time>
      </trkpt>
      <trkpt lat="43.113779" lon="-5.023018">
        <ele>963.843</ele>
        <time>2021-10-15T11:25:06Z</time>
      </trkpt>
      <trkpt lat="43.113562" lon="-5.022990">
        <ele>964.461</ele>
        <time>2021-10-15T11:25:07Z</time>
      </trkpt>
      <trkpt lat="43.113352" lon="-5.022963">
        <ele>965.215</ele>
        <time>2021-10-15T11:25:08Z</time>
      </trkpt>
      <trkpt lat="43.112995" lon="-5.022920">
        <ele>967.640</ele>
        <time>2021-10-15T11:25:10Z</time>
      </trkpt>
      <trkpt lat="43.112708" lon="-5.022883">
        <ele>969.898</ele>
        <time>2021-10-15T11:25:12Z</time>
      </trkpt>
      <trkpt lat="43.112583" lon="-5.022863">
        <ele>971.181</ele>
        <time>2021-10-15T11:25:13Z</time>
      </trkpt>
      <trkpt lat="43.112457" lon="-5.022832">
        <ele>971.496</ele>
        <time>2021-10-15T11:25:14Z</time>
      </trkpt>
      <trkpt lat="43.112217" lon="-5.022668">
        <ele>973.776</ele>
        <time>2021-10-15T11:25:16Z</time>
      </trkpt>
      <trkpt lat="43.112099" lon="-5.022519">
        <ele>974.390</ele>
        <time>2021-10-15T11:25:17Z</time>
      </trkpt>
      <trkpt lat="43.111986" lon="-5.022348">
        <ele>975.019</ele>
        <time>2021-10-15T11:25:18Z</time>
      </trkpt>
      <trkpt lat="43.111756" lon="-5.022000">
        <ele>975.208</ele>
        <time>2021-10-15T11:25:20Z</time>
      </trkpt>
      <trkpt lat="43.111560" lon="-5.021609">
        <ele>974.415</ele>
        <time>2021-10-15T11:25:22Z</time>
      </trkpt>
      <trkpt lat="43.111471" lon="-5.021376">
        <ele>973.833</ele>
        <time>2021-10-15T11:25:23Z</time>
      </trkpt>
      <trkpt lat="43.111278" lon="-5.020869">
        <ele>973.881</ele>
        <time>2021-10-15T11:25:25Z</time>
      </trkpt>
      <trkpt lat="43.111174" lon="-5.020600">
        <ele>973.525</ele>
        <time>2021-10-15T11:25:26Z</time>
      </trkpt>
      <trkpt lat="43.110976" lon="-5.020077">
        <ele>974.860</ele>
        <time>2021-10-15T11:25:28Z</time>
      </trkpt>
      <trkpt lat="43.110782" lon="-5.019565">
        <ele>978.388</ele>
        <time>2021-10-15T11:25:30Z</time>
      </trkpt>
      <trkpt lat="43.110686" lon="-5.019317">
        <ele>980.791</ele>
        <time>2021-10-15T11:25:31Z</time>
      </trkpt>
      <trkpt lat="43.110587" lon="-5.019073">
        <ele>982.636</ele>
        <time>2021-10-15T11:25:32Z</time>
      </trkpt>
      <trkpt lat="43.110417" lon="-5.018668">
        <ele>985.179</ele>
        <time>2021-10-15T11:25:34Z</time>
      </trkpt>
      <trkpt lat="43.110252" lon="-5.018403">
        <ele>988.105</ele>
        <time>2021-10-15T11:25:36Z</time>
      </trkpt>
      <trkpt lat="43.110152" lon="-5.018308">
        <ele>988.525</ele>
        <time>2021-10-15T11:25:37Z</time>
      </trkpt>
      <trkpt lat="43.110036" lon="-5.018218">
        <ele>990.108</ele>
        <time>2021-10-15T11:25:38Z</time>
      </trkpt>
      <trkpt lat="43.109774" lon="-5.018023">
        <ele>992.125</ele>
        <time>2021-10-15T11:25:40Z</time>
      </trkpt>
      <trkpt lat="43.109630" lon="-5.017916">
        <ele>993.033</ele>
        <time>2021-10-15T11:25:41Z</time>
      </trkpt>
      <trkpt lat="43.109485" lon="-5.017815">
        <ele>994.081</ele>
        <time>2021-10-15T11:25:42Z</time>
      </trkpt>
      <trkpt lat="43.109183" lon="-5.017645">
        <ele>993.685</ele>
        <time>2021-10-15T11:25:44Z</time>
      </trkpt>
      <trkpt lat="43.108942" lon="-5.017497">
        <ele>994.970</ele>
        <time>2021-10-15T11:25:46Z</time>
      </trkpt>
      <trkpt lat="43.108783" lon="-5.017284">
        <ele>995.298</ele>
        <time>2021-10-15T11:25:48Z</time>
      </trkpt>
      <trkpt lat="43.108679" lon="-5.016956">
        <ele>994.761</ele>
        <time>2021-10-15T11:25:50Z</time>
      </trkpt>
      <trkpt lat="43.108661" lon="-5.016594">
        <ele>996.036</ele>
        <time>2021-10-15T11:25:52Z</time>
      </trkpt>
      <trkpt lat="43.108686" lon="-5.016420">
        <ele>996.442</ele>
        <time>2021-10-15T11:25:53Z</time>
      </trkpt>
      <trkpt lat="43.108812" lon="-5.016125">
        <ele>997.522</ele>
        <time>2021-10-15T11:25:55Z</time>
      </trkpt>
      <trkpt lat="43.108909" lon="-5.016000">
        <ele>997.514</ele>
        <time>2021-10-15T11:25:56Z</time>
      </trkpt>
      <trkpt lat="43.109056" lon="-5.015718">
        <ele>1000.308</ele>
        <time>2021-10-15T11:25:58Z</time>
      </trkpt>
      <trkpt lat="43.109086" lon="-5.015558">
        <ele>1000.432</ele>
        <time>2021-10-15T11:25:59Z</time>
      </trkpt>
      <trkpt lat="43.109082" lon="-5.015397">
        <ele>1001.630</ele>
        <time>2021-10-15T11:26:00Z</time>
      </trkpt>
      <trkpt lat="43.108977" lon="-5.015119">
        <ele>1004.418</ele>
        <time>2021-10-15T11:26:02Z</time>
      </trkpt>
      <trkpt lat="43.108784" lon="-5.014891">
        <ele>1005.412</ele>
        <time>2021-10-15T11:26:04Z</time>
      </trkpt>
      <trkpt lat="43.108660" lon="-5.014793">
        <ele>1006.997</ele>
        <time>2021-10-15T11:26:05Z</time>
      </trkpt>
      <trkpt lat="43.108443" lon="-5.014567">
        <ele>1010.185</ele>
        <time>2021-10-15T11:26:07Z</time>
      </trkpt>
      <trkpt lat="43.108372" lon="-5.014421">
        <ele>1010.568</ele>
        <time>2021-10-15T11:26:08Z</time>
      </trkpt>
      <trkpt lat="43.108284" lon="-5.014100">
        <ele>1011.883</ele>
        <time>2021-10-15T11:26:10Z</time>
      </trkpt>
      <trkpt lat="43.108268" lon="-5.013927">
        <ele>1013.083</ele>
        <time>2021-10-15T11:26:11Z</time>
      </trkpt>
      <trkpt lat="43.108275" lon="-5.013751">
        <ele>1014.125</ele>
        <time>2021-10-15T11:26:12Z</time>
      </trkpt>
      <trkpt lat="43.108348" lon="-5.013427">
        <ele>1016.317</ele>
        <time>2021-10-15T11:26:14Z</time>
      </trkpt>
      <trkpt lat="43.108485" lon="-5.013165">
        <ele>1018.408</ele>
        <time>2021-10-15T11:26:16Z</time>
      </trkpt>
      <trkpt lat="43.108571" lon="-5.013033">
        <ele>1018.526</ele>
        <time>2021-10-15T11:26:17Z</time>
      </trkpt>
      <trkpt lat="43.108649" lon="-5.012905">
        <ele>1019.784</ele>
        <time>2021-10-15T11:26:18Z</time>
      </trkpt>
      <trkpt lat="43.108755" lon="-5.012674">
        <ele>1021.162</ele>
        <time>2021-10-15T11:26:20Z</time>
      </trkpt>
      <trkpt lat="43.108754" lon="-5.012485">
        <ele>1023.046</ele>
        <time>2021-10-15T11:26:22Z</time>
      </trkpt>
      <trkpt lat="43.108651" lon="-5.012392">
        <ele>1025.551</ele>
        <time>2021-10-15T11:26:24Z</time>
      </trkpt>
      <trkpt lat="43.108492" lon="-5.012408">
        <ele>1026.519</ele>
        <time>2021-10-15T11:26:26Z</time>
      </trkpt>
      <trkpt lat="43.108307" lon="-5.012541">
        <ele>1026.682</ele>
        <time>2021-10-15T11:26:28Z</time>
      </trkpt>
      <trkpt lat="43.108193" lon="-5.012596">
        <ele>1025.577</ele>
        <time>2021-10-15T11:26:29Z</time>
      </trkpt>
      <trkpt lat="43.108084" lon="-5.012643">
        <ele>1025.554</ele>
        <time>2021-10-15T11:26:30Z</time>
      </trkpt>
      <trkpt lat="43.107926" lon="-5.012786">
        <ele>1026.056</ele>
        <time>2021-10-15T11:26:32Z</time>
      </trkpt>
      <trkpt lat="43.107868" lon="-5.013015">
        <ele>1026.011</ele>
        <time>2021-10-15T11:26:34Z</time>
      </trkpt>
      <trkpt lat="43.107866" lon="-5.013172">
        <ele>1027.508</ele>
        <time>2021-10-15T11:26:35Z</time>
      </trkpt>
      <trkpt lat="43.107839" lon="-5.013531">
        <ele>1027.263</ele>
        <time>2021-10-15T11:26:37Z</time>
      </trkpt>
      <trkpt lat="43.107795" lon="-5.013700">
        <ele>1026.561</ele>
        <time>2021-10-15T11:26:38Z</time>
      </trkpt>
      <trkpt lat="43.107696" lon="-5.014001">
        <ele>1027.139</ele>
        <time>2021-10-15T11:26:40Z</time>
      </trkpt>
      <trkpt lat="43.107680" lon="-5.014160">
        <ele>1027.853</ele>
        <time>2021-10-15T11:26:41Z</time>
      </trkpt>
      <trkpt lat="43.107705" lon="-5.014498">
        <ele>1027.848</ele>
        <time>2021-10-15T11:26:43Z</time>
      </trkpt>
      <trkpt lat="43.107741" lon="-5.014679">
        <ele>1028.126</ele>
        <time>2021-10-15T11:26:44Z</time>
      </trkpt>
      <trkpt lat="43.107785" lon="-5.015051">
        <ele>1029.999</ele>
        <time>2021-10-15T11:26:46Z</time>
      </trkpt>
      <trkpt lat="43.107724" lon="-5.015416">
        <ele>1030.354</ele>
        <time>2021-10-15T11:26:48Z</time>
      </trkpt>
      <trkpt lat="43.107663" lon="-5.015572">
        <ele>1031.515</ele>
        <time>2021-10-15T11:26:49Z</time>
      </trkpt>
      <trkpt lat="43.107586" lon="-5.015686">
        <ele>1032.465</ele>
        <time>2021-10-15T11:26:50Z</time>
      </trkpt>
      <trkpt lat="43.107379" lon="-5.015778">
        <ele>1033.311</ele>
        <time>2021-10-15T11:26:52Z</time>
      </trkpt>
      <trkpt lat="43.107253" lon="-5.015765">
        <ele>1033.908</ele>
        <time>2021-10-15T11:26:53Z</time>
      </trkpt>
      <trkpt lat="43.106957" lon="-5.015638">
        <ele>1037.549</ele>
        <time>2021-10-15T11:26:55Z</time>
      </trkpt>
      <trkpt lat="43.106791" lon="-5.015559">
        <ele>1038.337</ele>
        <time>2021-10-15T11:26:56Z</time>
      </trkpt>
      <trkpt lat="43.106508" lon="-5.015441">
        <ele>1040.555</ele>
        <time>2021-10-15T11:26:58Z</time>
      </trkpt>
      <trkpt lat="43.106283" lon="-5.015359">
        <ele>1042.199</ele>
        <time>2021-10-15T11:27:00Z</time>
      </trkpt>
      <trkpt lat="43.106178" lon="-5.015347">
        <ele>1042.414</ele>
        <time>2021-10-15T11:27:01Z</time>
      </trkpt>
      <trkpt lat="43.106072" lon="-5.015363">
        <ele>1044.252</ele>
        <time>2021-10-15T11:27:02Z</time>
      </trkpt>
      <trkpt lat="43.105879" lon="-5.015493">
        <ele>1045.775</ele>
        <time>2021-10-15T11:27:04Z</time>
      </trkpt>
      <trkpt lat="43.105793" lon="-5.015639">
        <ele>1047.240</ele>
        <time>2021-10-15T11:27:05Z</time>
      </trkpt>
      <trkpt lat="43.105691" lon="-5.016039">
        <ele>1048.157</ele>
        <time>2021-10-15T11:27:07Z</time>
      </trkpt>
      <trkpt lat="43.105666" lon="-5.016224">
        <ele>1049.300</ele>
        <time>2021-10-15T11:27:08Z</time>
      </trkpt>
      <trkpt lat="43.105690" lon="-5.016525">
        <ele>1050.120</ele>
        <time>2021-10-15T11:27:10Z</time>
      </trkpt>
      <trkpt lat="43.105743" lon="-5.016641">
        <ele>1049.808</ele>
        <time>2021-10-15T11:27:11Z</time>
      </trkpt>
      <trkpt lat="43.105930" lon="-5.016832">
        <ele>1049.943</ele>
        <time>2021-10-15T11:27:13Z</time>
      </trkpt>
      <trkpt lat="43.106065" lon="-5.016926">
        <ele>1050.891</ele>
        <time>2021-10-15T11:27:14Z</time>
      </trkpt>
      <trkpt lat="43.106352" lon="-5.017149">
        <ele>1051.699</ele>
        <time>2021-10-15T11:27:16Z</time>
      </trkpt>
      <trkpt lat="43.106632" lon="-5.017399">
        <ele>1053.063</ele>
        <time>2021-10-15T11:27:18Z</time>
      </trkpt>
      <trkpt lat="43.106804" lon="-5.017606">
        <ele>1052.428</ele>
        <time>2021-10-15T11:27:20Z</time>
      </trkpt>
      <trkpt lat="43.106860" lon="-5.017826">
        <ele>1052.856</ele>
        <time>2021-10-15T11:27:22Z</time>
      </trkpt>
      <trkpt lat="43.106854" lon="-5.017967">
        <ele>1053.689</ele>
        <time>2021-10-15T11:27:23Z</time>
      </trkpt>
      <trkpt lat="43.106854" lon="-5.018296">
        <ele>1055.484</ele>
        <time>2021-10-15T11:27:25Z</time>
      </trkpt>
      <trkpt lat="43.106897" lon="-5.018462">
        <ele>1056.133</ele>
        <time>2021-10-15T11:27:26Z</time>
      </trkpt>
      <trkpt lat="43.107066" lon="-5.018718">
        <ele>1057.523</ele>
        <time>2021-10-15T11:27:28Z</time>
      </trkpt>
      <trkpt lat="43.107158" lon="-5.018834">
        <ele>1058.715</ele>
        <time>2021-10-15T11:27:29Z</time>
      </trkpt>
      <trkpt lat="43.107265" lon="-5.019082">
        <ele>1060.708</ele>
        <time>2021-10-15T11:27:31Z</time>
      </trkpt>
      <trkpt lat="43.107268" lon="-5.019223">
        <ele>1062.871</ele>
        <time>2021-10-15T11:27:32Z</time>
      </trkpt>
      <trkpt lat="43.107158" lon="-5.019517">
        <ele>1065.159</ele>
        <time>2021-10-15T11:27:34Z</time>
      </trkpt>
      <trkpt lat="43.107065" lon="-5.019684">
        <ele>1065.367</ele>
        <time>2021-10-15T11:27:35Z</time>
      </trkpt>
      <trkpt lat="43.106877" lon="-5.020028">
        <ele>1068.891</ele>
        <time>2021-10-15T11:27:37Z</time>
      </trkpt>
      <trkpt lat="43.106817" lon="-5.020193">
        <ele>1069.116</ele>
        <time>2021-10-15T11:27:38Z</time>
      </trkpt>
      <trkpt lat="43.106808" lon="-5.020514">
        <ele>1072.654</ele>
        <time>2021-10-15T11:27:40Z</time>
      </trkpt>
      <trkpt lat="43.106843" lon="-5.020694">
        <ele>1072.857</ele>
        <time>2021-10-15T11:27:41Z</time>
      </trkpt>
      <trkpt lat="43.106888" lon="-5.020902">
        <ele>1074.442</ele>
        <time>2021-10-15T11:27:42Z</time>
      </trkpt>
      <trkpt lat="43.106958" lon="-5.021358">
        <ele>1076.939</ele>
        <time>2021-10-15T11:27:44Z</time>
      </trkpt>
      <trkpt lat="43.106957" lon="-5.021802">
        <ele>1079.901</ele>
        <time>2021-10-15T11:27:46Z</time>
      </trkpt>
      <trkpt lat="43.106922" lon="-5.022006">
        <ele>1080.821</ele>
        <time>2021-10-15T11:27:47Z</time>
      </trkpt>
      <trkpt lat="43.106782" lon="-5.022353">
        <ele>1083.108</ele>
        <time>2021-10-15T11:27:49Z</time>
      </trkpt>
      <trkpt lat="43.106686" lon="-5.022497">
        <ele>1084.071</ele>
        <time>2021-10-15T11:27:50Z</time>
      </trkpt>
      <trkpt lat="43.106529" lon="-5.022776">
        <ele>1084.939</ele>
        <time>2021-10-15T11:27:52Z</time>
      </trkpt>
      <trkpt lat="43.106496" lon="-5.023130">
        <ele>1084.717</ele>
        <time>2021-10-15T11:27:54Z</time>
      </trkpt>
      <trkpt lat="43.106541" lon="-5.023331">
        <ele>1084.741</ele>
        <time>2021-10-15T11:27:55Z</time>
      </trkpt>
      <trkpt lat="43.106606" lon="-5.023552">
        <ele>1084.686</ele>
        <time>2021-10-15T11:27:56Z</time>
      </trkpt>
      <trkpt lat="43.106727" lon="-5.024012">
        <ele>1084.434</ele>
        <time>2021-10-15T11:27:58Z</time>
      </trkpt>
      <trkpt lat="43.106783" lon="-5.024253">
        <ele>1084.877</ele>
        <time>2021-10-15T11:27:59Z</time>
      </trkpt>
      <trkpt lat="43.106865" lon="-5.024766">
        <ele>1083.642</ele>
        <time>2021-10-15T11:28:01Z</time>
      </trkpt>
      <trkpt lat="43.106898" lon="-5.025019">
        <ele>1083.384</ele>
        <time>2021-10-15T11:28:02Z</time>
      </trkpt>
      <trkpt lat="43.106932" lon="-5.025431">
        <ele>1083.707</ele>
        <time>2021-10-15T11:28:04Z</time>
      </trkpt>
      <trkpt lat="43.106911" lon="-5.025801">
        <ele>1083.217</ele>
        <time>2021-10-15T11:28:06Z</time>
      </trkpt>
      <trkpt lat="43.106787" lon="-5.026217">
        <ele>1083.908</ele>
        <time>2021-10-15T11:28:08Z</time>
      </trkpt>
      <trkpt lat="43.106614" lon="-5.026649">
        <ele>1085.146</ele>
        <time>2021-10-15T11:28:10Z</time>
      </trkpt>
      <trkpt lat="43.106521" lon="-5.026862">
        <ele>1085.484</ele>
        <time>2021-10-15T11:28:11Z</time>
      </trkpt>
      <trkpt lat="43.106315" lon="-5.027193">
        <ele>1086.342</ele>
        <time>2021-10-15T11:28:13Z</time>
      </trkpt>
      <trkpt lat="43.106189" lon="-5.027292">
        <ele>1086.276</ele>
        <time>2021-10-15T11:28:14Z</time>
      </trkpt>
      <trkpt lat="43.105918" lon="-5.027390">
        <ele>1088.111</ele>
        <time>2021-10-15T11:28:16Z</time>
      </trkpt>
      <trkpt lat="43.105576" lon="-5.027422">
        <ele>1089.179</ele>
        <time>2021-10-15T11:28:18Z</time>
      </trkpt>
      <trkpt lat="43.105207" lon="-5.027450">
        <ele>1092.772</ele>
        <time>2021-10-15T11:28:20Z</time>
      </trkpt>
      <trkpt lat="43.104908" lon="-5.027481">
        <ele>1094.517</ele>
        <time>2021-10-15T11:28:22Z</time>
      </trkpt>
      <trkpt lat="43.104792" lon="-5.027514">
        <ele>1097.027</ele>
        <time>2021-10-15T11:28:23Z</time>
      </trkpt>
      <trkpt lat="43.104652" lon="-5.027667">
        <ele>1100.268</ele>
        <time>2021-10-15T11:28:25Z</time>
      </trkpt>
      <trkpt lat="43.104630" lon="-5.027796">
        <ele>1102.114</ele>
        <time>2021-10-15T11:28:26Z</time>
      </trkpt>
      <trkpt lat="43.104675" lon="-5.028101">
        <ele>1107.508</ele>
        <time>2021-10-15T11:28:28Z</time>
      </trkpt>
      <trkpt lat="43.104749" lon="-5.028478">
        <ele>1110.990</ele>
        <time>2021-10-15T11:28:30Z</time>
      </trkpt>
      <trkpt lat="43.104752" lon="-5.028822">
        <ele>1115.918</ele>
        <time>2021-10-15T11:28:32Z</time>
      </trkpt>
      <trkpt lat="43.104648" lon="-5.029109">
        <ele>1118.826</ele>
        <time>2021-10-15T11:28:34Z</time>
      </trkpt>
      <trkpt lat="43.104546" lon="-5.029243">
        <ele>1120.970</ele>
        <time>2021-10-15T11:28:35Z</time>
      </trkpt>
      <trkpt lat="43.104310" lon="-5.029503">
        <ele>1123.955</ele>
        <time>2021-10-15T11:28:37Z</time>
      </trkpt>
      <trkpt lat="43.104195" lon="-5.029622">
        <ele>1124.683</ele>
        <time>2021-10-15T11:28:38Z</time>
      </trkpt>
      <trkpt lat="43.104017" lon="-5.029829">
        <ele>1126.446</ele>
        <time>2021-10-15T11:28:40Z</time>
      </trkpt>
      <trkpt lat="43.103927" lon="-5.030052">
        <ele>1129.561</ele>
        <time>2021-10-15T11:28:42Z</time>
      </trkpt>
      <trkpt lat="43.103937" lon="-5.030281">
        <ele>1133.074</ele>
        <time>2021-10-15T11:28:44Z</time>
      </trkpt>
      <trkpt lat="43.104040" lon="-5.030488">
        <ele>1133.156</ele>
        <time>2021-10-15T11:28:46Z</time>
      </trkpt>
      <trkpt lat="43.104302" lon="-5.030694">
        <ele>1135.421</ele>
        <time>2021-10-15T11:28:48Z</time>
      </trkpt>
      <trkpt lat="43.104481" lon="-5.030819">
        <ele>1135.608</ele>
        <time>2021-10-15T11:28:49Z</time>
      </trkpt>
      <trkpt lat="43.104671" lon="-5.030964">
        <ele>1135.315</ele>
        <time>2021-10-15T11:28:50Z</time>
      </trkpt>
      <trkpt lat="43.105011" lon="-5.031255">
        <ele>1136.263</ele>
        <time>2021-10-15T11:28:52Z</time>
      </trkpt>
      <trkpt lat="43.105155" lon="-5.031386">
        <ele>1136.691</ele>
        <time>2021-10-15T11:28:53Z</time>
      </trkpt>
      <trkpt lat="43.105280" lon="-5.031510">
        <ele>1136.915</ele>
        <time>2021-10-15T11:28:54Z</time>
      </trkpt>
      <trkpt lat="43.105474" lon="-5.031758">
        <ele>1138.530</ele>
        <time>2021-10-15T11:28:56Z</time>
      </trkpt>
      <trkpt lat="43.105575" lon="-5.032067">
        <ele>1139.818</ele>
        <time>2021-10-15T11:28:58Z</time>
      </trkpt>
      <trkpt lat="43.105599" lon="-5.032262">
        <ele>1140.221</ele>
        <time>2021-10-15T11:28:59Z</time>
      </trkpt>
      <trkpt lat="43.105644" lon="-5.032648">
        <ele>1142.736</ele>
        <time>2021-10-15T11:29:01Z</time>
      </trkpt>
      <trkpt lat="43.105689" lon="-5.032807">
        <ele>1143.682</ele>
        <time>2021-10-15T11:29:02Z</time>
      </trkpt>
      <trkpt lat="43.105838" lon="-5.033012">
        <ele>1144.243</ele>
        <time>2021-10-15T11:29:04Z</time>
      </trkpt>
      <trkpt lat="43.105945" lon="-5.033067">
        <ele>1144.217</ele>
        <time>2021-10-15T11:29:05Z</time>
      </trkpt>
      <trkpt lat="43.106069" lon="-5.033078">
        <ele>1145.808</ele>
        <time>2021-10-15T11:29:06Z</time>
      </trkpt>
      <trkpt lat="43.106208" lon="-5.033047">
        <ele>1145.866</ele>
        <time>2021-10-15T11:29:07Z</time>
      </trkpt>
      <trkpt lat="43.106340" lon="-5.032996">
        <ele>1146.374</ele>
        <time>2021-10-15T11:29:08Z</time>
      </trkpt>
      <trkpt lat="43.106520" lon="-5.032957">
        <ele>1146.612</ele>
        <time>2021-10-15T11:29:10Z</time>
      </trkpt>
      <trkpt lat="43.106576" lon="-5.032985">
        <ele>1146.376</ele>
        <time>2021-10-15T11:29:11Z</time>
      </trkpt>
      <trkpt lat="43.106622" lon="-5.033128">
        <ele>1146.761</ele>
        <time>2021-10-15T11:29:13Z</time>
      </trkpt>
      <trkpt lat="43.106606" lon="-5.033219">
        <ele>1146.619</ele>
        <time>2021-10-15T11:29:14Z</time>
      </trkpt>
      <trkpt lat="43.106486" lon="-5.033343">
        <ele>1146.712</ele>
        <time>2021-10-15T11:29:16Z</time>
      </trkpt>
      <trkpt lat="43.106399" lon="-5.033361">
        <ele>1146.837</ele>
        <time>2021-10-15T11:29:17Z</time>
      </trkpt>
      <trkpt lat="43.106178" lon="-5.033299">
        <ele>1147.679</ele>
        <time>2021-10-15T11:29:19Z</time>
      </trkpt>
      <trkpt lat="43.106056" lon="-5.033239">
        <ele>1147.605</ele>
        <time>2021-10-15T11:29:20Z</time>
      </trkpt>
      <trkpt lat="43.105837" lon="-5.033221">
        <ele>1148.025</ele>
        <time>2021-10-15T11:29:22Z</time>
      </trkpt>
      <trkpt lat="43.105735" lon="-5.033248">
        <ele>1148.208</ele>
        <time>2021-10-15T11:29:23Z</time>
      </trkpt>
      <trkpt lat="43.105640" lon="-5.033270">
        <ele>1148.925</ele>
        <time>2021-10-15T11:29:24Z</time>
      </trkpt>
      <trkpt lat="43.105465" lon="-5.033223">
        <ele>1149.943</ele>
        <time>2021-10-15T11:29:26Z</time>
      </trkpt>
      <trkpt lat="43.105319" lon="-5.033023">
        <ele>1150.591</ele>
        <time>2021-10-15T11:29:28Z</time>
      </trkpt>
      <trkpt lat="43.105266" lon="-5.032850">
        <ele>1150.615</ele>
        <time>2021-10-15T11:29:29Z</time>
      </trkpt>
      <trkpt lat="43.105206" lon="-5.032640">
        <ele>1150.880</ele>
        <time>2021-10-15T11:29:30Z</time>
      </trkpt>
      <trkpt lat="43.105039" lon="-5.032246">
        <ele>1152.148</ele>
        <time>2021-10-15T11:29:32Z</time>
      </trkpt>
      <trkpt lat="43.104795" lon="-5.031974">
        <ele>1154.761</ele>
        <time>2021-10-15T11:29:34Z</time>
      </trkpt>
      <trkpt lat="43.104628" lon="-5.031840">
        <ele>1155.756</ele>
        <time>2021-10-15T11:29:35Z</time>
      </trkpt>
      <trkpt lat="43.104278" lon="-5.031557">
        <ele>1157.626</ele>
        <time>2021-10-15T11:29:37Z</time>
      </trkpt>
      <trkpt lat="43.104123" lon="-5.031425">
        <ele>1158.947</ele>
        <time>2021-10-15T11:29:38Z</time>
      </trkpt>
      <trkpt lat="43.103868" lon="-5.031200">
        <ele>1160.211</ele>
        <time>2021-10-15T11:29:40Z</time>
      </trkpt>
      <trkpt lat="43.103746" lon="-5.031086">
        <ele>1162.208</ele>
        <time>2021-10-15T11:29:41Z</time>
      </trkpt>
      <trkpt lat="43.103495" lon="-5.030869">
        <ele>1164.560</ele>
        <time>2021-10-15T11:29:43Z</time>
      </trkpt>
      <trkpt lat="43.103349" lon="-5.030774">
        <ele>1166.048</ele>
        <time>2021-10-15T11:29:44Z</time>
      </trkpt>
      <trkpt lat="43.103077" lon="-5.030679">
        <ele>1167.736</ele>
        <time>2021-10-15T11:29:46Z</time>
      </trkpt>
      <trkpt lat="43.102944" lon="-5.030653">
        <ele>1169.580</ele>
        <time>2021-10-15T11:29:47Z</time>
      </trkpt>
      <trkpt lat="43.102819" lon="-5.030626">
        <ele>1171.585</ele>
        <time>2021-10-15T11:29:48Z</time>
      </trkpt>
      <trkpt lat="43.102722" lon="-5.030583">
        <ele>1172.413</ele>
        <time>2021-10-15T11:29:49Z</time>
      </trkpt>
      <trkpt lat="43.102649" lon="-5.030518">
        <ele>1173.326</ele>
        <time>2021-10-15T11:29:50Z</time>
      </trkpt>
      <trkpt lat="43.102590" lon="-5.030314">
        <ele>1173.711</ele>
        <time>2021-10-15T11:29:52Z</time>
      </trkpt>
      <trkpt lat="43.102603" lon="-5.030168">
        <ele>1174.041</ele>
        <time>2021-10-15T11:29:53Z</time>
      </trkpt>
      <trkpt lat="43.102713" lon="-5.029891">
        <ele>1174.881</ele>
        <time>2021-10-15T11:29:55Z</time>
      </trkpt>
      <trkpt lat="43.102821" lon="-5.029796">
        <ele>1176.209</ele>
        <time>2021-10-15T11:29:56Z</time>
      </trkpt>
      <trkpt lat="43.103088" lon="-5.029668">
        <ele>1176.808</ele>
        <time>2021-10-15T11:29:58Z</time>
      </trkpt>
      <trkpt lat="43.103247" lon="-5.029595">
        <ele>1177.832</ele>
        <time>2021-10-15T11:29:59Z</time>
      </trkpt>
      <trkpt lat="43.103540" lon="-5.029390">
        <ele>1179.040</ele>
        <time>2021-10-15T11:30:01Z</time>
      </trkpt>
      <trkpt lat="43.103650" lon="-5.029253">
        <ele>1178.668</ele>
        <time>2021-10-15T11:30:02Z</time>
      </trkpt>
      <trkpt lat="43.103766" lon="-5.028912">
        <ele>1179.052</ele>
        <time>2021-10-15T11:30:04Z</time>
      </trkpt>
      <trkpt lat="43.103759" lon="-5.028501">
        <ele>1178.167</ele>
        <time>2021-10-15T11:30:06Z</time>
      </trkpt>
      <trkpt lat="43.103728" lon="-5.028287">
        <ele>1178.265</ele>
        <time>2021-10-15T11:30:07Z</time>
      </trkpt>
      <trkpt lat="43.103701" lon="-5.028068">
        <ele>1179.328</ele>
        <time>2021-10-15T11:30:08Z</time>
      </trkpt>
      <trkpt lat="43.103674" lon="-5.027688">
        <ele>1180.983</ele>
        <time>2021-10-15T11:30:10Z</time>
      </trkpt>
      <trkpt lat="43.103740" lon="-5.027355">
        <ele>1181.949</ele>
        <time>2021-10-15T11:30:12Z</time>
      </trkpt>
      <trkpt lat="43.103891" lon="-5.026990">
        <ele>1183.802</ele>
        <time>2021-10-15T11:30:14Z</time>
      </trkpt>
      <trkpt lat="43.104074" lon="-5.026617">
        <ele>1186.822</ele>
        <time>2021-10-15T11:30:16Z</time>
      </trkpt>
      <trkpt lat="43.104183" lon="-5.026441">
        <ele>1187.608</ele>
        <time>2021-10-15T11:30:17Z</time>
      </trkpt>
      <trkpt lat="43.104307" lon="-5.026279">
        <ele>1188.822</ele>
        <time>2021-10-15T11:30:18Z</time>
      </trkpt>
      <trkpt lat="43.104440" lon="-5.026135">
        <ele>1190.550</ele>
        <time>2021-10-15T11:30:19Z</time>
      </trkpt>
      <trkpt lat="43.104574" lon="-5.026011">
        <ele>1191.998</ele>
        <time>2021-10-15T11:30:20Z</time>
      </trkpt>
      <trkpt lat="43.104806" lon="-5.025816">
        <ele>1193.952</ele>
        <time>2021-10-15T11:30:22Z</time>
      </trkpt>
      <trkpt lat="43.104972" lon="-5.025581">
        <ele>1195.727</ele>
        <time>2021-10-15T11:30:24Z</time>
      </trkpt>
      <trkpt lat="43.105012" lon="-5.025429">
        <ele>1197.625</ele>
        <time>2021-10-15T11:30:25Z</time>
      </trkpt>
      <trkpt lat="43.105023" lon="-5.025260">
        <ele>1197.988</ele>
        <time>2021-10-15T11:30:26Z</time>
      </trkpt>
      <trkpt lat="43.105006" lon="-5.024907">
        <ele>1200.543</ele>
        <time>2021-10-15T11:30:28Z</time>
      </trkpt>
      <trkpt lat="43.104956" lon="-5.024618">
        <ele>1202.086</ele>
        <time>2021-10-15T11:30:30Z</time>
      </trkpt>
      <trkpt lat="43.104824" lon="-5.024480">
        <ele>1203.060</ele>
        <time>2021-10-15T11:30:32Z</time>
      </trkpt>
      <trkpt lat="43.104586" lon="-5.024471">
        <ele>1205.926</ele>
        <time>2021-10-15T11:30:34Z</time>
      </trkpt>
      <trkpt lat="43.104432" lon="-5.024484">
        <ele>1206.408</ele>
        <time>2021-10-15T11:30:35Z</time>
      </trkpt>
      <trkpt lat="43.104113" lon="-5.024478">
        <ele>1208.316</ele>
        <time>2021-10-15T11:30:37Z</time>
      </trkpt>
      <trkpt lat="43.103967" lon="-5.024468">
        <ele>1209.444</ele>
        <time>2021-10-15T11:30:38Z</time>
      </trkpt>
      <trkpt lat="43.103722" lon="-5.024415">
        <ele>1211.752</ele>
        <time>2021-10-15T11:30:40Z</time>
      </trkpt>
      <trkpt lat="43.103493" lon="-5.024249">
        <ele>1214.986</ele>
        <time>2021-10-15T11:30:42Z</time>
      </trkpt>
      <trkpt lat="43.103374" lon="-5.024111">
        <ele>1216.281</ele>
        <time>2021-10-15T11:30:43Z</time>
      </trkpt>
      <trkpt lat="43.103250" lon="-5.023944">
        <ele>1217.039</ele>
        <time>2021-10-15T11:30:44Z</time>
      </trkpt>
      <trkpt lat="43.102997" lon="-5.023609">
        <ele>1219.272</ele>
        <time>2021-10-15T11:30:46Z</time>
      </trkpt>
      <trkpt lat="43.102762" lon="-5.023274">
        <ele>1219.577</ele>
        <time>2021-10-15T11:30:48Z</time>
      </trkpt>
      <trkpt lat="43.102605" lon="-5.022969">
        <ele>1220.766</ele>
        <time>2021-10-15T11:30:50Z</time>
      </trkpt>
      <trkpt lat="43.102507" lon="-5.022578">
        <ele>1220.729</ele>
        <time>2021-10-15T11:30:52Z</time>
      </trkpt>
      <trkpt lat="43.102461" lon="-5.022365">
        <ele>1220.721</ele>
        <time>2021-10-15T11:30:53Z</time>
      </trkpt>
      <trkpt lat="43.102424" lon="-5.022157">
        <ele>1221.008</ele>
        <time>2021-10-15T11:30:54Z</time>
      </trkpt>
      <trkpt lat="43.102376" lon="-5.021769">
        <ele>1222.184</ele>
        <time>2021-10-15T11:30:56Z</time>
      </trkpt>
      <trkpt lat="43.102270" lon="-5.021416">
        <ele>1220.752</ele>
        <time>2021-10-15T11:30:58Z</time>
      </trkpt>
      <trkpt lat="43.102105" lon="-5.021183">
        <ele>1222.550</ele>
        <time>2021-10-15T11:31:00Z</time>
      </trkpt>
      <trkpt lat="43.101995" lon="-5.021131">
        <ele>1222.564</ele>
        <time>2021-10-15T11:31:01Z</time>
      </trkpt>
      <trkpt lat="43.101864" lon="-5.021118">
        <ele>1222.769</ele>
        <time>2021-10-15T11:31:02Z</time>
      </trkpt>
      <trkpt lat="43.101587" lon="-5.021186">
        <ele>1223.617</ele>
        <time>2021-10-15T11:31:04Z</time>
      </trkpt>
      <trkpt lat="43.101452" lon="-5.021248">
        <ele>1223.980</ele>
        <time>2021-10-15T11:31:05Z</time>
      </trkpt>
      <trkpt lat="43.101330" lon="-5.021323">
        <ele>1224.175</ele>
        <time>2021-10-15T11:31:06Z</time>
      </trkpt>
      <trkpt lat="43.101120" lon="-5.021429">
        <ele>1225.374</ele>
        <time>2021-10-15T11:31:08Z</time>
      </trkpt>
      <trkpt lat="43.100934" lon="-5.021380">
        <ele>1225.656</ele>
        <time>2021-10-15T11:31:10Z</time>
      </trkpt>
      <trkpt lat="43.100847" lon="-5.021250">
        <ele>1225.921</ele>
        <time>2021-10-15T11:31:11Z</time>
      </trkpt>
      <trkpt lat="43.100673" lon="-5.020832">
        <ele>1227.408</ele>
        <time>2021-10-15T11:31:13Z</time>
      </trkpt>
      <trkpt lat="43.100584" lon="-5.020607">
        <ele>1227.495</ele>
        <time>2021-10-15T11:31:14Z</time>
      </trkpt>
      <trkpt lat="43.100447" lon="-5.020184">
        <ele>1229.083</ele>
        <time>2021-10-15T11:31:16Z</time>
      </trkpt>
      <trkpt lat="43.100354" lon="-5.019826">
        <ele>1230.871</ele>
        <time>2021-10-15T11:31:18Z</time>
      </trkpt>
      <trkpt lat="43.100262" lon="-5.019525">
        <ele>1232.995</ele>
        <time>2021-10-15T11:31:20Z</time>
      </trkpt>
      <trkpt lat="43.100161" lon="-5.019281">
        <ele>1235.030</ele>
        <time>2021-10-15T11:31:22Z</time>
      </trkpt>
      <trkpt lat="43.100065" lon="-5.019084">
        <ele>1236.338</ele>
        <time>2021-10-15T11:31:24Z</time>
      </trkpt>
      <trkpt lat="43.099993" lon="-5.018947">
        <ele>1237.071</ele>
        <time>2021-10-15T11:31:26Z</time>
      </trkpt>
      <trkpt lat="43.099969" lon="-5.018872">
        <ele>1238.096</ele>
        <time>2021-10-15T11:31:28Z</time>
      </trkpt>
      <trkpt lat="43.099982" lon="-5.018799">
        <ele>1240.556</ele>
        <time>2021-10-15T11:31:31Z</time>
      </trkpt>
      <trkpt lat="43.100026" lon="-5.018773">
        <ele>1240.959</ele>
        <time>2021-10-15T11:31:51Z</time>
      </trkpt>
      <trkpt lat="43.100052" lon="-5.018839">
        <ele>1240.914</ele>
        <time>2021-10-15T11:32:08Z</time>
      </trkpt>
      <trkpt lat="43.099981" lon="-5.018859">
        <ele>1240.308</ele>
        <time>2021-10-15T12:22:16Z</time>
      </trkpt>
      <trkpt lat="43.099914" lon="-5.018858">
        <ele>1240.353</ele>
        <time>2021-10-15T12:22:19Z</time>
      </trkpt>
      <trkpt lat="43.099867" lon="-5.018834">
        <ele>1240.371</ele>
        <time>2021-10-15T12:22:21Z</time>
      </trkpt>
      <trkpt lat="43.099812" lon="-5.018762">
        <ele>1240.319</ele>
        <time>2021-10-15T12:22:24Z</time>
      </trkpt>
      <trkpt lat="43.099745" lon="-5.018687">
        <ele>1234.693</ele>
        <time>2021-10-15T12:22:26Z</time>
      </trkpt>
      <trkpt lat="43.099681" lon="-5.018623">
        <ele>1234.078</ele>
        <time>2021-10-15T12:22:28Z</time>
      </trkpt>
      <trkpt lat="43.099572" lon="-5.018530">
        <ele>1233.426</ele>
        <time>2021-10-15T12:22:30Z</time>
      </trkpt>
      <trkpt lat="43.099505" lon="-5.018472">
        <ele>1232.469</ele>
        <time>2021-10-15T12:22:31Z</time>
      </trkpt>
      <trkpt lat="43.099432" lon="-5.018416">
        <ele>1231.284</ele>
        <time>2021-10-15T12:22:32Z</time>
      </trkpt>
      <trkpt lat="43.099298" lon="-5.018303">
        <ele>1229.444</ele>
        <time>2021-10-15T12:22:34Z</time>
      </trkpt>
      <trkpt lat="43.099168" lon="-5.018190">
        <ele>1228.305</ele>
        <time>2021-10-15T12:22:36Z</time>
      </trkpt>
      <trkpt lat="43.099111" lon="-5.018131">
        <ele>1227.615</ele>
        <time>2021-10-15T12:22:37Z</time>
      </trkpt>
      <trkpt lat="43.099053" lon="-5.018074">
        <ele>1225.808</ele>
        <time>2021-10-15T12:22:38Z</time>
      </trkpt>
      <trkpt lat="43.098934" lon="-5.017910">
        <ele>1225.052</ele>
        <time>2021-10-15T12:22:40Z</time>
      </trkpt>
      <trkpt lat="43.098843" lon="-5.017668">
        <ele>1225.280</ele>
        <time>2021-10-15T12:22:42Z</time>
      </trkpt>
      <trkpt lat="43.098826" lon="-5.017522">
        <ele>1225.988</ele>
        <time>2021-10-15T12:22:43Z</time>
      </trkpt>
      <trkpt lat="43.098836" lon="-5.017361">
        <ele>1224.532</ele>
        <time>2021-10-15T12:22:44Z</time>
      </trkpt>
      <trkpt lat="43.098921" lon="-5.017037">
        <ele>1224.597</ele>
        <time>2021-10-15T12:22:46Z</time>
      </trkpt>
      <trkpt lat="43.098976" lon="-5.016861">
        <ele>1222.015</ele>
        <time>2021-10-15T12:22:47Z</time>
      </trkpt>
      <trkpt lat="43.099080" lon="-5.016485">
        <ele>1220.858</ele>
        <time>2021-10-15T12:22:49Z</time>
      </trkpt>
      <trkpt lat="43.099133" lon="-5.016284">
        <ele>1218.683</ele>
        <time>2021-10-15T12:22:50Z</time>
      </trkpt>
      <trkpt lat="43.099215" lon="-5.015867">
        <ele>1217.236</ele>
        <time>2021-10-15T12:22:52Z</time>
      </trkpt>
      <trkpt lat="43.099257" lon="-5.015420">
        <ele>1215.417</ele>
        <time>2021-10-15T12:22:54Z</time>
      </trkpt>
      <trkpt lat="43.099286" lon="-5.015209">
        <ele>1214.118</ele>
        <time>2021-10-15T12:22:55Z</time>
      </trkpt>
      <trkpt lat="43.099332" lon="-5.015011">
        <ele>1212.508</ele>
        <time>2021-10-15T12:22:56Z</time>
      </trkpt>
      <trkpt lat="43.099440" lon="-5.014688">
        <ele>1210.351</ele>
        <time>2021-10-15T12:22:58Z</time>
      </trkpt>
      <trkpt lat="43.099490" lon="-5.014525">
        <ele>1209.769</ele>
        <time>2021-10-15T12:22:59Z</time>
      </trkpt>
      <trkpt lat="43.099532" lon="-5.014202">
        <ele>1207.757</ele>
        <time>2021-10-15T12:23:01Z</time>
      </trkpt>
      <trkpt lat="43.099524" lon="-5.014045">
        <ele>1208.021</ele>
        <time>2021-10-15T12:23:02Z</time>
      </trkpt>
      <trkpt lat="43.099440" lon="-5.013778">
        <ele>1205.876</ele>
        <time>2021-10-15T12:23:04Z</time>
      </trkpt>
      <trkpt lat="43.099241" lon="-5.013564">
        <ele>1203.854</ele>
        <time>2021-10-15T12:23:06Z</time>
      </trkpt>
      <trkpt lat="43.099109" lon="-5.013504">
        <ele>1202.037</ele>
        <time>2021-10-15T12:23:07Z</time>
      </trkpt>
      <trkpt lat="43.098968" lon="-5.013490">
        <ele>1201.322</ele>
        <time>2021-10-15T12:23:08Z</time>
      </trkpt>
      <trkpt lat="43.098695" lon="-5.013608">
        <ele>1199.423</ele>
        <time>2021-10-15T12:23:10Z</time>
      </trkpt>
      <trkpt lat="43.098443" lon="-5.013925">
        <ele>1197.483</ele>
        <time>2021-10-15T12:23:12Z</time>
      </trkpt>
      <trkpt lat="43.098340" lon="-5.014158">
        <ele>1196.311</ele>
        <time>2021-10-15T12:23:13Z</time>
      </trkpt>
      <trkpt lat="43.098248" lon="-5.014409">
        <ele>1196.608</ele>
        <time>2021-10-15T12:23:14Z</time>
      </trkpt>
      <trkpt lat="43.098058" lon="-5.014862">
        <ele>1195.470</ele>
        <time>2021-10-15T12:23:16Z</time>
      </trkpt>
      <trkpt lat="43.097945" lon="-5.015083">
        <ele>1194.638</ele>
        <time>2021-10-15T12:23:17Z</time>
      </trkpt>
      <trkpt lat="43.097710" lon="-5.015503">
        <ele>1192.936</ele>
        <time>2021-10-15T12:23:19Z</time>
      </trkpt>
      <trkpt lat="43.097589" lon="-5.015705">
        <ele>1191.890</ele>
        <time>2021-10-15T12:23:20Z</time>
      </trkpt>
      <trkpt lat="43.097363" lon="-5.016084">
        <ele>1193.815</ele>
        <time>2021-10-15T12:23:22Z</time>
      </trkpt>
      <trkpt lat="43.097255" lon="-5.016259">
        <ele>1193.563</ele>
        <time>2021-10-15T12:23:23Z</time>
      </trkpt>
      <trkpt lat="43.097154" lon="-5.016431">
        <ele>1193.416</ele>
        <time>2021-10-15T12:23:24Z</time>
      </trkpt>
      <trkpt lat="43.096936" lon="-5.016770">
        <ele>1193.021</ele>
        <time>2021-10-15T12:23:26Z</time>
      </trkpt>
      <trkpt lat="43.096720" lon="-5.017106">
        <ele>1194.178</ele>
        <time>2021-10-15T12:23:28Z</time>
      </trkpt>
      <trkpt lat="43.096607" lon="-5.017286">
        <ele>1192.833</ele>
        <time>2021-10-15T12:23:29Z</time>
      </trkpt>
      <trkpt lat="43.096381" lon="-5.017653">
        <ele>1192.826</ele>
        <time>2021-10-15T12:23:31Z</time>
      </trkpt>
      <trkpt lat="43.096266" lon="-5.017843">
        <ele>1191.608</ele>
        <time>2021-10-15T12:23:32Z</time>
      </trkpt>
      <trkpt lat="43.096047" lon="-5.018183">
        <ele>1191.195</ele>
        <time>2021-10-15T12:23:34Z</time>
      </trkpt>
      <trkpt lat="43.095936" lon="-5.018349">
        <ele>1190.193</ele>
        <time>2021-10-15T12:23:35Z</time>
      </trkpt>
      <trkpt lat="43.095697" lon="-5.018663">
        <ele>1187.921</ele>
        <time>2021-10-15T12:23:37Z</time>
      </trkpt>
      <trkpt lat="43.095563" lon="-5.018818">
        <ele>1187.765</ele>
        <time>2021-10-15T12:23:38Z</time>
      </trkpt>
      <trkpt lat="43.095278" lon="-5.019086">
        <ele>1188.190</ele>
        <time>2021-10-15T12:23:40Z</time>
      </trkpt>
      <trkpt lat="43.094956" lon="-5.019315">
        <ele>1184.628</ele>
        <time>2021-10-15T12:23:42Z</time>
      </trkpt>
      <trkpt lat="43.094787" lon="-5.019412">
        <ele>1185.131</ele>
        <time>2021-10-15T12:23:43Z</time>
      </trkpt>
      <trkpt lat="43.094611" lon="-5.019499">
        <ele>1184.996</ele>
        <time>2021-10-15T12:23:44Z</time>
      </trkpt>
      <trkpt lat="43.094269" lon="-5.019646">
        <ele>1184.424</ele>
        <time>2021-10-15T12:23:46Z</time>
      </trkpt>
      <trkpt lat="43.094093" lon="-5.019727">
        <ele>1183.304</ele>
        <time>2021-10-15T12:23:47Z</time>
      </trkpt>
      <trkpt lat="43.093757" lon="-5.019895">
        <ele>1183.214</ele>
        <time>2021-10-15T12:23:49Z</time>
      </trkpt>
      <trkpt lat="43.093600" lon="-5.019986">
        <ele>1183.308</ele>
        <time>2021-10-15T12:23:50Z</time>
      </trkpt>
      <trkpt lat="43.093317" lon="-5.020149">
        <ele>1182.520</ele>
        <time>2021-10-15T12:23:52Z</time>
      </trkpt>
      <trkpt lat="43.093017" lon="-5.020263">
        <ele>1183.698</ele>
        <time>2021-10-15T12:23:54Z</time>
      </trkpt>
      <trkpt lat="43.092850" lon="-5.020271">
        <ele>1184.826</ele>
        <time>2021-10-15T12:23:55Z</time>
      </trkpt>
      <trkpt lat="43.092670" lon="-5.020239">
        <ele>1185.730</ele>
        <time>2021-10-15T12:23:56Z</time>
      </trkpt>
      <trkpt lat="43.092338" lon="-5.020102">
        <ele>1185.565</ele>
        <time>2021-10-15T12:23:58Z</time>
      </trkpt>
      <trkpt lat="43.092056" lon="-5.019850">
        <ele>1186.013</ele>
        <time>2021-10-15T12:24:00Z</time>
      </trkpt>
      <trkpt lat="43.091791" lon="-5.019456">
        <ele>1185.576</ele>
        <time>2021-10-15T12:24:02Z</time>
      </trkpt>
      <trkpt lat="43.091466" lon="-5.019101">
        <ele>1184.861</ele>
        <time>2021-10-15T12:24:04Z</time>
      </trkpt>
      <trkpt lat="43.091284" lon="-5.018976">
        <ele>1184.545</ele>
        <time>2021-10-15T12:24:05Z</time>
      </trkpt>
      <trkpt lat="43.090931" lon="-5.018686">
        <ele>1182.747</ele>
        <time>2021-10-15T12:24:07Z</time>
      </trkpt>
      <trkpt lat="43.090767" lon="-5.018470">
        <ele>1182.311</ele>
        <time>2021-10-15T12:24:08Z</time>
      </trkpt>
      <trkpt lat="43.090455" lon="-5.017983">
        <ele>1178.808</ele>
        <time>2021-10-15T12:24:10Z</time>
      </trkpt>
      <trkpt lat="43.090106" lon="-5.017538">
        <ele>1175.892</ele>
        <time>2021-10-15T12:24:12Z</time>
      </trkpt>
      <trkpt lat="43.089757" lon="-5.017141">
        <ele>1173.270</ele>
        <time>2021-10-15T12:24:14Z</time>
      </trkpt>
      <trkpt lat="43.089394" lon="-5.016798">
        <ele>1171.268</ele>
        <time>2021-10-15T12:24:16Z</time>
      </trkpt>
      <trkpt lat="43.088973" lon="-5.016553">
        <ele>1169.692</ele>
        <time>2021-10-15T12:24:18Z</time>
      </trkpt>
      <trkpt lat="43.088764" lon="-5.016473">
        <ele>1168.647</ele>
        <time>2021-10-15T12:24:19Z</time>
      </trkpt>
      <trkpt lat="43.088558" lon="-5.016422">
        <ele>1167.195</ele>
        <time>2021-10-15T12:24:20Z</time>
      </trkpt>
      <trkpt lat="43.088183" lon="-5.016377">
        <ele>1165.558</ele>
        <time>2021-10-15T12:24:22Z</time>
      </trkpt>
      <trkpt lat="43.087992" lon="-5.016382">
        <ele>1164.083</ele>
        <time>2021-10-15T12:24:23Z</time>
      </trkpt>
      <trkpt lat="43.087613" lon="-5.016511">
        <ele>1163.142</ele>
        <time>2021-10-15T12:24:25Z</time>
      </trkpt>
      <trkpt lat="43.087438" lon="-5.016647">
        <ele>1162.722</ele>
        <time>2021-10-15T12:24:26Z</time>
      </trkpt>
      <trkpt lat="43.087133" lon="-5.017002">
        <ele>1159.914</ele>
        <time>2021-10-15T12:24:28Z</time>
      </trkpt>
      <trkpt lat="43.086982" lon="-5.017197">
        <ele>1159.008</ele>
        <time>2021-10-15T12:24:29Z</time>
      </trkpt>
      <trkpt lat="43.086670" lon="-5.017596">
        <ele>1155.582</ele>
        <time>2021-10-15T12:24:31Z</time>
      </trkpt>
      <trkpt lat="43.086506" lon="-5.017798">
        <ele>1154.610</ele>
        <time>2021-10-15T12:24:32Z</time>
      </trkpt>
      <trkpt lat="43.086204" lon="-5.018179">
        <ele>1151.148</ele>
        <time>2021-10-15T12:24:34Z</time>
      </trkpt>
      <trkpt lat="43.085886" lon="-5.018556">
        <ele>1149.642</ele>
        <time>2021-10-15T12:24:36Z</time>
      </trkpt>
      <trkpt lat="43.085588" lon="-5.018889">
        <ele>1149.357</ele>
        <time>2021-10-15T12:24:38Z</time>
      </trkpt>
      <trkpt lat="43.085240" lon="-5.019089">
        <ele>1148.925</ele>
        <time>2021-10-15T12:24:40Z</time>
      </trkpt>
      <trkpt lat="43.085022" lon="-5.019140">
        <ele>1147.318</ele>
        <time>2021-10-15T12:24:41Z</time>
      </trkpt>
      <trkpt lat="43.084578" lon="-5.019178">
        <ele>1145.893</ele>
        <time>2021-10-15T12:24:43Z</time>
      </trkpt>
      <trkpt lat="43.084366" lon="-5.019181">
        <ele>1144.758</ele>
        <time>2021-10-15T12:24:44Z</time>
      </trkpt>
      <trkpt lat="43.083949" lon="-5.019137">
        <ele>1143.652</ele>
        <time>2021-10-15T12:24:46Z</time>
      </trkpt>
      <trkpt lat="43.083734" lon="-5.019134">
        <ele>1142.217</ele>
        <time>2021-10-15T12:24:47Z</time>
      </trkpt>
      <trkpt lat="43.083510" lon="-5.019167">
        <ele>1141.608</ele>
        <time>2021-10-15T12:24:48Z</time>
      </trkpt>
      <trkpt lat="43.083055" lon="-5.019299">
        <ele>1141.213</ele>
        <time>2021-10-15T12:24:50Z</time>
      </trkpt>
      <trkpt lat="43.082620" lon="-5.019510">
        <ele>1139.841</ele>
        <time>2021-10-15T12:24:52Z</time>
      </trkpt>
      <trkpt lat="43.082406" lon="-5.019651">
        <ele>1139.139</ele>
        <time>2021-10-15T12:24:53Z</time>
      </trkpt>
      <trkpt lat="43.082196" lon="-5.019806">
        <ele>1138.113</ele>
        <time>2021-10-15T12:24:54Z</time>
      </trkpt>
      <trkpt lat="43.081990" lon="-5.019961">
        <ele>1137.458</ele>
        <time>2021-10-15T12:24:55Z</time>
      </trkpt>
      <trkpt lat="43.081777" lon="-5.020117">
        <ele>1136.956</ele>
        <time>2021-10-15T12:24:56Z</time>
      </trkpt>
      <trkpt lat="43.081393" lon="-5.020397">
        <ele>1136.539</ele>
        <time>2021-10-15T12:24:58Z</time>
      </trkpt>
      <trkpt lat="43.081050" lon="-5.020658">
        <ele>1134.754</ele>
        <time>2021-10-15T12:25:00Z</time>
      </trkpt>
      <trkpt lat="43.080756" lon="-5.020828">
        <ele>1133.987</ele>
        <time>2021-10-15T12:25:02Z</time>
      </trkpt>
      <trkpt lat="43.080473" lon="-5.020825">
        <ele>1133.142</ele>
        <time>2021-10-15T12:25:04Z</time>
      </trkpt>
      <trkpt lat="43.080155" lon="-5.020680">
        <ele>1134.626</ele>
        <time>2021-10-15T12:25:06Z</time>
      </trkpt>
      <trkpt lat="43.079983" lon="-5.020601">
        <ele>1134.508</ele>
        <time>2021-10-15T12:25:07Z</time>
      </trkpt>
      <trkpt lat="43.079798" lon="-5.020523">
        <ele>1134.926</ele>
        <time>2021-10-15T12:25:08Z</time>
      </trkpt>
      <trkpt lat="43.079424" lon="-5.020373">
        <ele>1134.194</ele>
        <time>2021-10-15T12:25:10Z</time>
      </trkpt>
      <trkpt lat="43.079017" lon="-5.020238">
        <ele>1132.472</ele>
        <time>2021-10-15T12:25:12Z</time>
      </trkpt>
      <trkpt lat="43.078614" lon="-5.020131">
        <ele>1133.786</ele>
        <time>2021-10-15T12:25:14Z</time>
      </trkpt>
      <trkpt lat="43.078217" lon="-5.020031">
        <ele>1131.971</ele>
        <time>2021-10-15T12:25:16Z</time>
      </trkpt>
      <trkpt lat="43.077812" lon="-5.019863">
        <ele>1132.059</ele>
        <time>2021-10-15T12:25:18Z</time>
      </trkpt>
      <trkpt lat="43.077607" lon="-5.019754">
        <ele>1131.682</ele>
        <time>2021-10-15T12:25:19Z</time>
      </trkpt>
      <trkpt lat="43.077227" lon="-5.019544">
        <ele>1130.577</ele>
        <time>2021-10-15T12:25:21Z</time>
      </trkpt>
      <trkpt lat="43.076876" lon="-5.019347">
        <ele>1129.821</ele>
        <time>2021-10-15T12:25:23Z</time>
      </trkpt>
      <trkpt lat="43.076560" lon="-5.019145">
        <ele>1131.141</ele>
        <time>2021-10-15T12:25:25Z</time>
      </trkpt>
      <trkpt lat="43.076402" lon="-5.019024">
        <ele>1130.605</ele>
        <time>2021-10-15T12:25:26Z</time>
      </trkpt>
      <trkpt lat="43.076115" lon="-5.018753">
        <ele>1131.108</ele>
        <time>2021-10-15T12:25:28Z</time>
      </trkpt>
      <trkpt lat="43.075972" lon="-5.018600">
        <ele>1130.760</ele>
        <time>2021-10-15T12:25:29Z</time>
      </trkpt>
      <trkpt lat="43.075825" lon="-5.018447">
        <ele>1130.278</ele>
        <time>2021-10-15T12:25:30Z</time>
      </trkpt>
      <trkpt lat="43.075664" lon="-5.018305">
        <ele>1130.796</ele>
        <time>2021-10-15T12:25:31Z</time>
      </trkpt>
      <trkpt lat="43.075482" lon="-5.018185">
        <ele>1131.330</ele>
        <time>2021-10-15T12:25:32Z</time>
      </trkpt>
      <trkpt lat="43.075101" lon="-5.018079">
        <ele>1132.065</ele>
        <time>2021-10-15T12:25:34Z</time>
      </trkpt>
      <trkpt lat="43.074901" lon="-5.018071">
        <ele>1132.223</ele>
        <time>2021-10-15T12:25:35Z</time>
      </trkpt>
      <trkpt lat="43.074502" lon="-5.018156">
        <ele>1133.496</ele>
        <time>2021-10-15T12:25:37Z</time>
      </trkpt>
      <trkpt lat="43.074311" lon="-5.018260">
        <ele>1134.491</ele>
        <time>2021-10-15T12:25:38Z</time>
      </trkpt>
      <trkpt lat="43.073956" lon="-5.018530">
        <ele>1132.862</ele>
        <time>2021-10-15T12:25:40Z</time>
      </trkpt>
      <trkpt lat="43.073778" lon="-5.018680">
        <ele>1131.483</ele>
        <time>2021-10-15T12:25:41Z</time>
      </trkpt>
      <trkpt lat="43.073414" lon="-5.018981">
        <ele>1130.211</ele>
        <time>2021-10-15T12:25:43Z</time>
      </trkpt>
      <trkpt lat="43.073224" lon="-5.019136">
        <ele>1129.708</ele>
        <time>2021-10-15T12:25:44Z</time>
      </trkpt>
      <trkpt lat="43.072850" lon="-5.019449">
        <ele>1128.894</ele>
        <time>2021-10-15T12:25:46Z</time>
      </trkpt>
      <trkpt lat="43.072482" lon="-5.019797">
        <ele>1125.372</ele>
        <time>2021-10-15T12:25:48Z</time>
      </trkpt>
      <trkpt lat="43.072142" lon="-5.020151">
        <ele>1124.810</ele>
        <time>2021-10-15T12:25:50Z</time>
      </trkpt>
      <trkpt lat="43.071803" lon="-5.020447">
        <ele>1120.944</ele>
        <time>2021-10-15T12:25:52Z</time>
      </trkpt>
      <trkpt lat="43.071442" lon="-5.020685">
        <ele>1118.579</ele>
        <time>2021-10-15T12:25:54Z</time>
      </trkpt>
      <trkpt lat="43.071263" lon="-5.020778">
        <ele>1117.247</ele>
        <time>2021-10-15T12:25:55Z</time>
      </trkpt>
      <trkpt lat="43.071078" lon="-5.020863">
        <ele>1116.660</ele>
        <time>2021-10-15T12:25:56Z</time>
      </trkpt>
      <trkpt lat="43.070698" lon="-5.020978">
        <ele>1114.815</ele>
        <time>2021-10-15T12:25:58Z</time>
      </trkpt>
      <trkpt lat="43.070477" lon="-5.021009">
        <ele>1113.564</ele>
        <time>2021-10-15T12:25:59Z</time>
      </trkpt>
      <trkpt lat="43.069991" lon="-5.021051">
        <ele>1111.906</ele>
        <time>2021-10-15T12:26:01Z</time>
      </trkpt>
      <trkpt lat="43.069735" lon="-5.021055">
        <ele>1111.416</ele>
        <time>2021-10-15T12:26:02Z</time>
      </trkpt>
      <trkpt lat="43.069229" lon="-5.021025">
        <ele>1108.108</ele>
        <time>2021-10-15T12:26:04Z</time>
      </trkpt>
      <trkpt lat="43.068745" lon="-5.020991">
        <ele>1106.974</ele>
        <time>2021-10-15T12:26:06Z</time>
      </trkpt>
      <trkpt lat="43.068511" lon="-5.020971">
        <ele>1105.922</ele>
        <time>2021-10-15T12:26:07Z</time>
      </trkpt>
      <trkpt lat="43.068287" lon="-5.020956">
        <ele>1105.270</ele>
        <time>2021-10-15T12:26:08Z</time>
      </trkpt>
      <trkpt lat="43.067870" lon="-5.020948">
        <ele>1104.514</ele>
        <time>2021-10-15T12:26:10Z</time>
      </trkpt>
      <trkpt lat="43.067654" lon="-5.020977">
        <ele>1103.619</ele>
        <time>2021-10-15T12:26:11Z</time>
      </trkpt>
      <trkpt lat="43.067436" lon="-5.021012">
        <ele>1102.487</ele>
        <time>2021-10-15T12:26:12Z</time>
      </trkpt>
      <trkpt lat="43.066978" lon="-5.021012">
        <ele>1100.470</ele>
        <time>2021-10-15T12:26:14Z</time>
      </trkpt>
      <trkpt lat="43.066522" lon="-5.020904">
        <ele>1100.515</ele>
        <time>2021-10-15T12:26:16Z</time>
      </trkpt>
      <trkpt lat="43.066065" lon="-5.020762">
        <ele>1099.189</ele>
        <time>2021-10-15T12:26:18Z</time>
      </trkpt>
      <trkpt lat="43.065604" lon="-5.020610">
        <ele>1101.606</ele>
        <time>2021-10-15T12:26:20Z</time>
      </trkpt>
      <trkpt lat="43.065156" lon="-5.020409">
        <ele>1100.026</ele>
        <time>2021-10-15T12:26:22Z</time>
      </trkpt>
      <trkpt lat="43.064711" lon="-5.020183">
        <ele>1101.408</ele>
        <time>2021-10-15T12:26:24Z</time>
      </trkpt>
      <trkpt lat="43.064493" lon="-5.020075">
        <ele>1102.786</ele>
        <time>2021-10-15T12:26:25Z</time>
      </trkpt>
      <trkpt lat="43.064266" lon="-5.019963">
        <ele>1102.924</ele>
        <time>2021-10-15T12:26:26Z</time>
      </trkpt>
      <trkpt lat="43.063806" lon="-5.019733">
        <ele>1102.952</ele>
        <time>2021-10-15T12:26:28Z</time>
      </trkpt>
      <trkpt lat="43.063331" lon="-5.019494">
        <ele>1103.436</ele>
        <time>2021-10-15T12:26:30Z</time>
      </trkpt>
      <trkpt lat="43.062869" lon="-5.019255">
        <ele>1104.111</ele>
        <time>2021-10-15T12:26:32Z</time>
      </trkpt>
      <trkpt lat="43.062439" lon="-5.019057">
        <ele>1104.269</ele>
        <time>2021-10-15T12:26:34Z</time>
      </trkpt>
      <trkpt lat="43.062209" lon="-5.018993">
        <ele>1104.892</ele>
        <time>2021-10-15T12:26:35Z</time>
      </trkpt>
      <trkpt lat="43.061753" lon="-5.018936">
        <ele>1104.627</ele>
        <time>2021-10-15T12:26:37Z</time>
      </trkpt>
      <trkpt lat="43.061519" lon="-5.018915">
        <ele>1104.812</ele>
        <time>2021-10-15T12:26:38Z</time>
      </trkpt>
      <trkpt lat="43.061056" lon="-5.018868">
        <ele>1106.632</ele>
        <time>2021-10-15T12:26:40Z</time>
      </trkpt>
      <trkpt lat="43.060825" lon="-5.018843">
        <ele>1104.605</ele>
        <time>2021-10-15T12:26:41Z</time>
      </trkpt>
      <trkpt lat="43.060384" lon="-5.018746">
        <ele>1103.408</ele>
        <time>2021-10-15T12:26:43Z</time>
      </trkpt>
      <trkpt lat="43.060163" lon="-5.018648">
        <ele>1103.159</ele>
        <time>2021-10-15T12:26:44Z</time>
      </trkpt>
      <trkpt lat="43.059733" lon="-5.018371">
        <ele>1101.687</ele>
        <time>2021-10-15T12:26:46Z</time>
      </trkpt>
      <trkpt lat="43.059300" lon="-5.018037">
        <ele>1099.965</ele>
        <time>2021-10-15T12:26:48Z</time>
      </trkpt>
      <trkpt lat="43.058846" lon="-5.017687">
        <ele>1097.899</ele>
        <time>2021-10-15T12:26:50Z</time>
      </trkpt>
      <trkpt lat="43.058395" lon="-5.017348">
        <ele>1095.954</ele>
        <time>2021-10-15T12:26:52Z</time>
      </trkpt>
      <trkpt lat="43.057937" lon="-5.017004">
        <ele>1093.612</ele>
        <time>2021-10-15T12:26:54Z</time>
      </trkpt>
      <trkpt lat="43.057482" lon="-5.016657">
        <ele>1092.585</ele>
        <time>2021-10-15T12:26:56Z</time>
      </trkpt>
      <trkpt lat="43.057044" lon="-5.016339">
        <ele>1091.290</ele>
        <time>2021-10-15T12:26:58Z</time>
      </trkpt>
      <trkpt lat="43.056822" lon="-5.016178">
        <ele>1090.468</ele>
        <time>2021-10-15T12:26:59Z</time>
      </trkpt>
      <trkpt lat="43.056385" lon="-5.015855">
        <ele>1088.842</ele>
        <time>2021-10-15T12:27:01Z</time>
      </trkpt>
      <trkpt lat="43.056172" lon="-5.015689">
        <ele>1087.026</ele>
        <time>2021-10-15T12:27:02Z</time>
      </trkpt>
      <trkpt lat="43.055777" lon="-5.015388">
        <ele>1086.708</ele>
        <time>2021-10-15T12:27:04Z</time>
      </trkpt>
      <trkpt lat="43.055584" lon="-5.015244">
        <ele>1084.444</ele>
        <time>2021-10-15T12:27:05Z</time>
      </trkpt>
      <trkpt lat="43.055205" lon="-5.014961">
        <ele>1084.182</ele>
        <time>2021-10-15T12:27:07Z</time>
      </trkpt>
      <trkpt lat="43.055007" lon="-5.014813">
        <ele>1081.920</ele>
        <time>2021-10-15T12:27:08Z</time>
      </trkpt>
      <trkpt lat="43.054612" lon="-5.014521">
        <ele>1078.454</ele>
        <time>2021-10-15T12:27:10Z</time>
      </trkpt>
      <trkpt lat="43.054204" lon="-5.014209">
        <ele>1077.029</ele>
        <time>2021-10-15T12:27:12Z</time>
      </trkpt>
      <trkpt lat="43.053993" lon="-5.014055">
        <ele>1075.587</ele>
        <time>2021-10-15T12:27:13Z</time>
      </trkpt>
      <trkpt lat="43.053778" lon="-5.013898">
        <ele>1074.930</ele>
        <time>2021-10-15T12:27:14Z</time>
      </trkpt>
      <trkpt lat="43.053353" lon="-5.013587">
        <ele>1075.435</ele>
        <time>2021-10-15T12:27:16Z</time>
      </trkpt>
      <trkpt lat="43.052910" lon="-5.013263">
        <ele>1074.213</ele>
        <time>2021-10-15T12:27:18Z</time>
      </trkpt>
      <trkpt lat="43.052689" lon="-5.013100">
        <ele>1074.043</ele>
        <time>2021-10-15T12:27:19Z</time>
      </trkpt>
      <trkpt lat="43.052461" lon="-5.012932">
        <ele>1072.607</ele>
        <time>2021-10-15T12:27:20Z</time>
      </trkpt>
      <trkpt lat="43.052035" lon="-5.012618">
        <ele>1070.908</ele>
        <time>2021-10-15T12:27:22Z</time>
      </trkpt>
      <trkpt lat="43.051626" lon="-5.012316">
        <ele>1070.219</ele>
        <time>2021-10-15T12:27:24Z</time>
      </trkpt>
      <trkpt lat="43.051220" lon="-5.012018">
        <ele>1069.137</ele>
        <time>2021-10-15T12:27:26Z</time>
      </trkpt>
      <trkpt lat="43.050826" lon="-5.011735">
        <ele>1068.875</ele>
        <time>2021-10-15T12:27:28Z</time>
      </trkpt>
      <trkpt lat="43.050628" lon="-5.011589">
        <ele>1069.229</ele>
        <time>2021-10-15T12:27:29Z</time>
      </trkpt>
      <trkpt lat="43.050247" lon="-5.011309">
        <ele>1068.154</ele>
        <time>2021-10-15T12:27:31Z</time>
      </trkpt>
      <trkpt lat="43.050056" lon="-5.011162">
        <ele>1067.052</ele>
        <time>2021-10-15T12:27:32Z</time>
      </trkpt>
      <trkpt lat="43.049682" lon="-5.010886">
        <ele>1067.645</ele>
        <time>2021-10-15T12:27:34Z</time>
      </trkpt>
      <trkpt lat="43.049481" lon="-5.010736">
        <ele>1065.510</ele>
        <time>2021-10-15T12:27:35Z</time>
      </trkpt>
      <trkpt lat="43.049274" lon="-5.010582">
        <ele>1065.242</ele>
        <time>2021-10-15T12:27:36Z</time>
      </trkpt>
      <trkpt lat="43.048840" lon="-5.010258">
        <ele>1065.322</ele>
        <time>2021-10-15T12:27:38Z</time>
      </trkpt>
      <trkpt lat="43.048408" lon="-5.009937">
        <ele>1062.614</ele>
        <time>2021-10-15T12:27:40Z</time>
      </trkpt>
      <trkpt lat="43.047967" lon="-5.009603">
        <ele>1061.608</ele>
        <time>2021-10-15T12:27:42Z</time>
      </trkpt>
      <trkpt lat="43.047743" lon="-5.009434">
        <ele>1060.552</ele>
        <time>2021-10-15T12:27:43Z</time>
      </trkpt>
      <trkpt lat="43.047514" lon="-5.009278">
        <ele>1060.480</ele>
        <time>2021-10-15T12:27:44Z</time>
      </trkpt>
      <trkpt lat="43.047047" lon="-5.009046">
        <ele>1059.828</ele>
        <time>2021-10-15T12:27:46Z</time>
      </trkpt>
      <trkpt lat="43.046559" lon="-5.008922">
        <ele>1058.962</ele>
        <time>2021-10-15T12:27:48Z</time>
      </trkpt>
      <trkpt lat="43.046085" lon="-5.008850">
        <ele>1057.857</ele>
        <time>2021-10-15T12:27:50Z</time>
      </trkpt>
      <trkpt lat="43.045637" lon="-5.008769">
        <ele>1058.645</ele>
        <time>2021-10-15T12:27:52Z</time>
      </trkpt>
      <trkpt lat="43.045201" lon="-5.008631">
        <ele>1057.188</ele>
        <time>2021-10-15T12:27:54Z</time>
      </trkpt>
      <trkpt lat="43.044802" lon="-5.008414">
        <ele>1057.133</ele>
        <time>2021-10-15T12:27:56Z</time>
      </trkpt>
      <trkpt lat="43.044453" lon="-5.008081">
        <ele>1057.665</ele>
        <time>2021-10-15T12:27:58Z</time>
      </trkpt>
      <trkpt lat="43.044287" lon="-5.007883">
        <ele>1057.968</ele>
        <time>2021-10-15T12:27:59Z</time>
      </trkpt>
      <trkpt lat="43.043967" lon="-5.007561">
        <ele>1056.314</ele>
        <time>2021-10-15T12:28:01Z</time>
      </trkpt>
      <trkpt lat="43.043812" lon="-5.007467">
        <ele>1057.108</ele>
        <time>2021-10-15T12:28:02Z</time>
      </trkpt>
      <trkpt lat="43.043599" lon="-5.007454">
        <ele>1055.284</ele>
        <time>2021-10-15T12:28:04Z</time>
      </trkpt>
      <trkpt lat="43.043537" lon="-5.007535">
        <ele>1054.622</ele>
        <time>2021-10-15T12:28:05Z</time>
      </trkpt>
      <trkpt lat="43.043481" lon="-5.007650">
        <ele>1055.880</ele>
        <time>2021-10-15T12:28:06Z</time>
      </trkpt>
      <trkpt lat="43.043329" lon="-5.007960">
        <ele>1055.894</ele>
        <time>2021-10-15T12:28:08Z</time>
      </trkpt>
      <trkpt lat="43.043096" lon="-5.008326">
        <ele>1054.819</ele>
        <time>2021-10-15T12:28:10Z</time>
      </trkpt>
      <trkpt lat="43.042832" lon="-5.008770">
        <ele>1053.617</ele>
        <time>2021-10-15T12:28:12Z</time>
      </trkpt>
      <trkpt lat="43.042536" lon="-5.009236">
        <ele>1053.660</ele>
        <time>2021-10-15T12:28:14Z</time>
      </trkpt>
      <trkpt lat="43.042182" lon="-5.009652">
        <ele>1052.725</ele>
        <time>2021-10-15T12:28:16Z</time>
      </trkpt>
      <trkpt lat="43.041971" lon="-5.009847">
        <ele>1052.528</ele>
        <time>2021-10-15T12:28:17Z</time>
      </trkpt>
      <trkpt lat="43.041726" lon="-5.010029">
        <ele>1052.589</ele>
        <time>2021-10-15T12:28:18Z</time>
      </trkpt>
      <trkpt lat="43.041158" lon="-5.010336">
        <ele>1050.617</ele>
        <time>2021-10-15T12:28:20Z</time>
      </trkpt>
      <trkpt lat="43.040627" lon="-5.010612">
        <ele>1049.208</ele>
        <time>2021-10-15T12:28:22Z</time>
      </trkpt>
      <trkpt lat="43.040377" lon="-5.010745">
        <ele>1048.490</ele>
        <time>2021-10-15T12:28:23Z</time>
      </trkpt>
      <trkpt lat="43.039916" lon="-5.010972">
        <ele>1048.218</ele>
        <time>2021-10-15T12:28:25Z</time>
      </trkpt>
      <trkpt lat="43.039681" lon="-5.011051">
        <ele>1049.226</ele>
        <time>2021-10-15T12:28:26Z</time>
      </trkpt>
      <trkpt lat="43.039217" lon="-5.011114">
        <ele>1048.720</ele>
        <time>2021-10-15T12:28:28Z</time>
      </trkpt>
      <trkpt lat="43.038774" lon="-5.011163">
        <ele>1049.465</ele>
        <time>2021-10-15T12:28:30Z</time>
      </trkpt>
      <trkpt lat="43.038569" lon="-5.011203">
        <ele>1049.323</ele>
        <time>2021-10-15T12:28:31Z</time>
      </trkpt>
      <trkpt lat="43.038363" lon="-5.011256">
        <ele>1049.096</ele>
        <time>2021-10-15T12:28:32Z</time>
      </trkpt>
      <trkpt lat="43.037972" lon="-5.011357">
        <ele>1047.991</ele>
        <time>2021-10-15T12:28:34Z</time>
      </trkpt>
      <trkpt lat="43.037777" lon="-5.011411">
        <ele>1047.978</ele>
        <time>2021-10-15T12:28:35Z</time>
      </trkpt>
      <trkpt lat="43.037582" lon="-5.011470">
        <ele>1047.833</ele>
        <time>2021-10-15T12:28:36Z</time>
      </trkpt>
      <trkpt lat="43.037192" lon="-5.011621">
        <ele>1046.826</ele>
        <time>2021-10-15T12:28:38Z</time>
      </trkpt>
      <trkpt lat="43.036810" lon="-5.011817">
        <ele>1046.608</ele>
        <time>2021-10-15T12:28:40Z</time>
      </trkpt>
      <trkpt lat="43.036434" lon="-5.012044">
        <ele>1047.315</ele>
        <time>2021-10-15T12:28:42Z</time>
      </trkpt>
      <trkpt lat="43.036109" lon="-5.012290">
        <ele>1049.383</ele>
        <time>2021-10-15T12:28:44Z</time>
      </trkpt>
      <trkpt lat="43.035809" lon="-5.012559">
        <ele>1048.531</ele>
        <time>2021-10-15T12:28:46Z</time>
      </trkpt>
      <trkpt lat="43.035490" lon="-5.012835">
        <ele>1048.485</ele>
        <time>2021-10-15T12:28:48Z</time>
      </trkpt>
      <trkpt lat="43.035169" lon="-5.013106">
        <ele>1050.160</ele>
        <time>2021-10-15T12:28:50Z</time>
      </trkpt>
      <trkpt lat="43.034884" lon="-5.013350">
        <ele>1048.418</ele>
        <time>2021-10-15T12:28:52Z</time>
      </trkpt>
      <trkpt lat="43.034741" lon="-5.013466">
        <ele>1048.171</ele>
        <time>2021-10-15T12:28:53Z</time>
      </trkpt>
      <trkpt lat="43.034595" lon="-5.013581">
        <ele>1047.796</ele>
        <time>2021-10-15T12:28:54Z</time>
      </trkpt>
      <trkpt lat="43.034446" lon="-5.013700">
        <ele>1048.126</ele>
        <time>2021-10-15T12:28:55Z</time>
      </trkpt>
      <trkpt lat="43.034297" lon="-5.013826">
        <ele>1047.747</ele>
        <time>2021-10-15T12:28:56Z</time>
      </trkpt>
      <trkpt lat="43.033993" lon="-5.014069">
        <ele>1047.111</ele>
        <time>2021-10-15T12:28:58Z</time>
      </trkpt>
      <trkpt lat="43.033809" lon="-5.014169">
        <ele>1048.108</ele>
        <time>2021-10-15T12:28:59Z</time>
      </trkpt>
      <trkpt lat="43.033599" lon="-5.014241">
        <ele>1047.560</ele>
        <time>2021-10-15T12:29:00Z</time>
      </trkpt>
      <trkpt lat="43.033121" lon="-5.014351">
        <ele>1045.998</ele>
        <time>2021-10-15T12:29:02Z</time>
      </trkpt>
      <trkpt lat="43.032621" lon="-5.014498">
        <ele>1045.436</ele>
        <time>2021-10-15T12:29:04Z</time>
      </trkpt>
      <trkpt lat="43.032163" lon="-5.014662">
        <ele>1046.010</ele>
        <time>2021-10-15T12:29:06Z</time>
      </trkpt>
      <trkpt lat="43.031959" lon="-5.014745">
        <ele>1046.755</ele>
        <time>2021-10-15T12:29:07Z</time>
      </trkpt>
      <trkpt lat="43.031761" lon="-5.014836">
        <ele>1046.333</ele>
        <time>2021-10-15T12:29:08Z</time>
      </trkpt>
      <trkpt lat="43.031385" lon="-5.015063">
        <ele>1049.356</ele>
        <time>2021-10-15T12:29:10Z</time>
      </trkpt>
      <trkpt lat="43.031198" lon="-5.015201">
        <ele>1049.571</ele>
        <time>2021-10-15T12:29:11Z</time>
      </trkpt>
      <trkpt lat="43.030828" lon="-5.015491">
        <ele>1051.566</ele>
        <time>2021-10-15T12:29:13Z</time>
      </trkpt>
      <trkpt lat="43.030647" lon="-5.015643">
        <ele>1051.229</ele>
        <time>2021-10-15T12:29:14Z</time>
      </trkpt>
      <trkpt lat="43.030319" lon="-5.015978">
        <ele>1054.521</ele>
        <time>2021-10-15T12:29:16Z</time>
      </trkpt>
      <trkpt lat="43.030161" lon="-5.016168">
        <ele>1054.508</ele>
        <time>2021-10-15T12:29:17Z</time>
      </trkpt>
      <trkpt lat="43.029864" lon="-5.016561">
        <ele>1053.854</ele>
        <time>2021-10-15T12:29:19Z</time>
      </trkpt>
      <trkpt lat="43.029709" lon="-5.016761">
        <ele>1054.152</ele>
        <time>2021-10-15T12:29:20Z</time>
      </trkpt>
      <trkpt lat="43.029407" lon="-5.017154">
        <ele>1054.810</ele>
        <time>2021-10-15T12:29:22Z</time>
      </trkpt>
      <trkpt lat="43.029255" lon="-5.017351">
        <ele>1054.764</ele>
        <time>2021-10-15T12:29:23Z</time>
      </trkpt>
      <trkpt lat="43.028975" lon="-5.017722">
        <ele>1056.369</ele>
        <time>2021-10-15T12:29:25Z</time>
      </trkpt>
      <trkpt lat="43.028842" lon="-5.017894">
        <ele>1056.827</ele>
        <time>2021-10-15T12:29:26Z</time>
      </trkpt>
      <trkpt lat="43.028577" lon="-5.018202">
        <ele>1057.330</ele>
        <time>2021-10-15T12:29:28Z</time>
      </trkpt>
      <trkpt lat="43.028419" lon="-5.018345">
        <ele>1058.195</ele>
        <time>2021-10-15T12:29:29Z</time>
      </trkpt>
      <trkpt lat="43.028031" lon="-5.018537">
        <ele>1059.016</ele>
        <time>2021-10-15T12:29:31Z</time>
      </trkpt>
      <trkpt lat="43.027814" lon="-5.018613">
        <ele>1060.276</ele>
        <time>2021-10-15T12:29:32Z</time>
      </trkpt>
      <trkpt lat="43.027382" lon="-5.018751">
        <ele>1060.813</ele>
        <time>2021-10-15T12:29:34Z</time>
      </trkpt>
      <trkpt lat="43.027161" lon="-5.018828">
        <ele>1061.808</ele>
        <time>2021-10-15T12:29:35Z</time>
      </trkpt>
      <trkpt lat="43.026946" lon="-5.018894">
        <ele>1062.479</ele>
        <time>2021-10-15T12:29:36Z</time>
      </trkpt>
      <trkpt lat="43.026517" lon="-5.018914">
        <ele>1063.527</ele>
        <time>2021-10-15T12:29:38Z</time>
      </trkpt>
      <trkpt lat="43.026076" lon="-5.018792">
        <ele>1064.195</ele>
        <time>2021-10-15T12:29:40Z</time>
      </trkpt>
      <trkpt lat="43.025841" lon="-5.018774">
        <ele>1064.199</ele>
        <time>2021-10-15T12:29:41Z</time>
      </trkpt>
      <trkpt lat="43.025354" lon="-5.018860">
        <ele>1064.344</ele>
        <time>2021-10-15T12:29:43Z</time>
      </trkpt>
      <trkpt lat="43.025118" lon="-5.018963">
        <ele>1065.432</ele>
        <time>2021-10-15T12:29:44Z</time>
      </trkpt>
      <trkpt lat="43.024697" lon="-5.019115">
        <ele>1065.415</ele>
        <time>2021-10-15T12:29:46Z</time>
      </trkpt>
      <trkpt lat="43.024271" lon="-5.019119">
        <ele>1065.510</ele>
        <time>2021-10-15T12:29:48Z</time>
      </trkpt>
      <trkpt lat="43.023815" lon="-5.019163">
        <ele>1065.257</ele>
        <time>2021-10-15T12:29:50Z</time>
      </trkpt>
      <trkpt lat="43.023386" lon="-5.019289">
        <ele>1064.000</ele>
        <time>2021-10-15T12:29:52Z</time>
      </trkpt>
      <trkpt lat="43.023159" lon="-5.019325">
        <ele>1063.620</ele>
        <time>2021-10-15T12:29:53Z</time>
      </trkpt>
      <trkpt lat="43.022936" lon="-5.019348">
        <ele>1063.908</ele>
        <time>2021-10-15T12:29:54Z</time>
      </trkpt>
      <trkpt lat="43.022514" lon="-5.019469">
        <ele>1060.973</ele>
        <time>2021-10-15T12:29:56Z</time>
      </trkpt>
      <trkpt lat="43.022140" lon="-5.019695">
        <ele>1059.531</ele>
        <time>2021-10-15T12:29:58Z</time>
      </trkpt>
      <trkpt lat="43.021927" lon="-5.019784">
        <ele>1058.679</ele>
        <time>2021-10-15T12:29:59Z</time>
      </trkpt>
      <trkpt lat="43.021690" lon="-5.019838">
        <ele>1057.623</ele>
        <time>2021-10-15T12:30:00Z</time>
      </trkpt>
      <trkpt lat="43.021427" lon="-5.019854">
        <ele>1056.238</ele>
        <time>2021-10-15T12:30:01Z</time>
      </trkpt>
      <trkpt lat="43.021148" lon="-5.019851">
        <ele>1054.316</ele>
        <time>2021-10-15T12:30:02Z</time>
      </trkpt>
      <trkpt lat="43.020633" lon="-5.019834">
        <ele>1052.219</ele>
        <time>2021-10-15T12:30:04Z</time>
      </trkpt>
      <trkpt lat="43.020161" lon="-5.019840">
        <ele>1050.734</ele>
        <time>2021-10-15T12:30:06Z</time>
      </trkpt>
      <trkpt lat="43.019940" lon="-5.019843">
        <ele>1050.344</ele>
        <time>2021-10-15T12:30:07Z</time>
      </trkpt>
      <trkpt lat="43.019728" lon="-5.019844">
        <ele>1049.305</ele>
        <time>2021-10-15T12:30:08Z</time>
      </trkpt>
      <trkpt lat="43.019328" lon="-5.019847">
        <ele>1049.315</ele>
        <time>2021-10-15T12:30:10Z</time>
      </trkpt>
      <trkpt lat="43.019127" lon="-5.019850">
        <ele>1049.308</ele>
        <time>2021-10-15T12:30:11Z</time>
      </trkpt>
      <trkpt lat="43.018704" lon="-5.019872">
        <ele>1049.382</ele>
        <time>2021-10-15T12:30:13Z</time>
      </trkpt>
      <trkpt lat="43.018483" lon="-5.019899">
        <ele>1048.890</ele>
        <time>2021-10-15T12:30:14Z</time>
      </trkpt>
      <trkpt lat="43.018058" lon="-5.019990">
        <ele>1050.178</ele>
        <time>2021-10-15T12:30:16Z</time>
      </trkpt>
      <trkpt lat="43.017857" lon="-5.020054">
        <ele>1049.552</ele>
        <time>2021-10-15T12:30:17Z</time>
      </trkpt>
      <trkpt lat="43.017470" lon="-5.020193">
        <ele>1047.987</ele>
        <time>2021-10-15T12:30:19Z</time>
      </trkpt>
      <trkpt lat="43.017287" lon="-5.020255">
        <ele>1047.725</ele>
        <time>2021-10-15T12:30:20Z</time>
      </trkpt>
      <trkpt lat="43.016928" lon="-5.020301">
        <ele>1047.598</ele>
        <time>2021-10-15T12:30:22Z</time>
      </trkpt>
      <trkpt lat="43.016539" lon="-5.020227">
        <ele>1045.853</ele>
        <time>2021-10-15T12:30:24Z</time>
      </trkpt>
      <trkpt lat="43.016116" lon="-5.020280">
        <ele>1046.517</ele>
        <time>2021-10-15T12:30:26Z</time>
      </trkpt>
      <trkpt lat="43.015687" lon="-5.020532">
        <ele>1046.587</ele>
        <time>2021-10-15T12:30:28Z</time>
      </trkpt>
      <trkpt lat="43.015479" lon="-5.020677">
        <ele>1047.315</ele>
        <time>2021-10-15T12:30:29Z</time>
      </trkpt>
      <trkpt lat="43.015104" lon="-5.020923">
        <ele>1047.708</ele>
        <time>2021-10-15T12:30:31Z</time>
      </trkpt>
      <trkpt lat="43.014917" lon="-5.021045">
        <ele>1047.879</ele>
        <time>2021-10-15T12:30:32Z</time>
      </trkpt>
      <trkpt lat="43.014534" lon="-5.021277">
        <ele>1050.157</ele>
        <time>2021-10-15T12:30:34Z</time>
      </trkpt>
      <trkpt lat="43.014113" lon="-5.021429">
        <ele>1049.955</ele>
        <time>2021-10-15T12:30:36Z</time>
      </trkpt>
      <trkpt lat="43.013902" lon="-5.021428">
        <ele>1050.339</ele>
        <time>2021-10-15T12:30:37Z</time>
      </trkpt>
      <trkpt lat="43.013703" lon="-5.021383">
        <ele>1050.454</ele>
        <time>2021-10-15T12:30:38Z</time>
      </trkpt>
      <trkpt lat="43.013358" lon="-5.021282">
        <ele>1051.162</ele>
        <time>2021-10-15T12:30:40Z</time>
      </trkpt>
      <trkpt lat="43.013198" lon="-5.021253">
        <ele>1050.975</ele>
        <time>2021-10-15T12:30:41Z</time>
      </trkpt>
      <trkpt lat="43.012897" lon="-5.021199">
        <ele>1051.010</ele>
        <time>2021-10-15T12:30:43Z</time>
      </trkpt>
      <trkpt lat="43.012742" lon="-5.021162">
        <ele>1051.288</ele>
        <time>2021-10-15T12:30:44Z</time>
      </trkpt>
      <trkpt lat="43.012414" lon="-5.021095">
        <ele>1050.624</ele>
        <time>2021-10-15T12:30:46Z</time>
      </trkpt>
      <trkpt lat="43.012234" lon="-5.021069">
        <ele>1050.426</ele>
        <time>2021-10-15T12:30:47Z</time>
      </trkpt>
      <trkpt lat="43.011854" lon="-5.021012">
        <ele>1049.908</ele>
        <time>2021-10-15T12:30:49Z</time>
      </trkpt>
      <trkpt lat="43.011660" lon="-5.020973">
        <ele>1049.576</ele>
        <time>2021-10-15T12:30:50Z</time>
      </trkpt>
      <trkpt lat="43.011303" lon="-5.020805">
        <ele>1049.634</ele>
        <time>2021-10-15T12:30:52Z</time>
      </trkpt>
      <trkpt lat="43.011131" lon="-5.020663">
        <ele>1049.242</ele>
        <time>2021-10-15T12:30:53Z</time>
      </trkpt>
      <trkpt lat="43.010830" lon="-5.020283">
        <ele>1050.016</ele>
        <time>2021-10-15T12:30:55Z</time>
      </trkpt>
      <trkpt lat="43.010711" lon="-5.020048">
        <ele>1049.641</ele>
        <time>2021-10-15T12:30:56Z</time>
      </trkpt>
      <trkpt lat="43.010533" lon="-5.019483">
        <ele>1050.129</ele>
        <time>2021-10-15T12:30:58Z</time>
      </trkpt>
      <trkpt lat="43.010441" lon="-5.019158">
        <ele>1050.782</ele>
        <time>2021-10-15T12:30:59Z</time>
      </trkpt>
      <trkpt lat="43.010334" lon="-5.018810">
        <ele>1050.547</ele>
        <time>2021-10-15T12:31:00Z</time>
      </trkpt>
      <trkpt lat="43.010217" lon="-5.018444">
        <ele>1050.784</ele>
        <time>2021-10-15T12:31:01Z</time>
      </trkpt>
      <trkpt lat="43.010093" lon="-5.018065">
        <ele>1050.207</ele>
        <time>2021-10-15T12:31:02Z</time>
      </trkpt>
      <trkpt lat="43.009867" lon="-5.017370">
        <ele>1050.417</ele>
        <time>2021-10-15T12:31:04Z</time>
      </trkpt>
      <trkpt lat="43.009759" lon="-5.017047">
        <ele>1051.208</ele>
        <time>2021-10-15T12:31:05Z</time>
      </trkpt>
      <trkpt lat="43.009656" lon="-5.016742">
        <ele>1049.816</ele>
        <time>2021-10-15T12:31:06Z</time>
      </trkpt>
      <trkpt lat="43.009558" lon="-5.016455">
        <ele>1049.634</ele>
        <time>2021-10-15T12:31:07Z</time>
      </trkpt>
      <trkpt lat="43.009463" lon="-5.016176">
        <ele>1050.162</ele>
        <time>2021-10-15T12:31:08Z</time>
      </trkpt>
      <trkpt lat="43.009294" lon="-5.015642">
        <ele>1050.576</ele>
        <time>2021-10-15T12:31:10Z</time>
      </trkpt>
      <trkpt lat="43.009233" lon="-5.015354">
        <ele>1051.191</ele>
        <time>2021-10-15T12:31:11Z</time>
      </trkpt>
      <trkpt lat="43.009172" lon="-5.014821">
        <ele>1052.499</ele>
        <time>2021-10-15T12:31:13Z</time>
      </trkpt>
      <trkpt lat="43.009161" lon="-5.014575">
        <ele>1052.012</ele>
        <time>2021-10-15T12:31:14Z</time>
      </trkpt>
      <trkpt lat="43.009146" lon="-5.014136">
        <ele>1052.617</ele>
        <time>2021-10-15T12:31:16Z</time>
      </trkpt>
      <trkpt lat="43.009121" lon="-5.013724">
        <ele>1052.935</ele>
        <time>2021-10-15T12:31:18Z</time>
      </trkpt>
      <trkpt lat="43.009110" lon="-5.013531">
        <ele>1052.886</ele>
        <time>2021-10-15T12:31:19Z</time>
      </trkpt>
      <trkpt lat="43.009102" lon="-5.013334">
        <ele>1051.914</ele>
        <time>2021-10-15T12:31:20Z</time>
      </trkpt>
      <trkpt lat="43.009093" lon="-5.012917">
        <ele>1052.408</ele>
        <time>2021-10-15T12:31:22Z</time>
      </trkpt>
      <trkpt lat="43.009080" lon="-5.012484">
        <ele>1051.231</ele>
        <time>2021-10-15T12:31:24Z</time>
      </trkpt>
      <trkpt lat="43.009068" lon="-5.012273">
        <ele>1049.519</ele>
        <time>2021-10-15T12:31:25Z</time>
      </trkpt>
      <trkpt lat="43.009043" lon="-5.012057">
        <ele>1050.257</ele>
        <time>2021-10-15T12:31:26Z</time>
      </trkpt>
      <trkpt lat="43.008962" lon="-5.011644">
        <ele>1051.531</ele>
        <time>2021-10-15T12:31:28Z</time>
      </trkpt>
      <trkpt lat="43.008837" lon="-5.011200">
        <ele>1050.876</ele>
        <time>2021-10-15T12:31:30Z</time>
      </trkpt>
      <trkpt lat="43.008758" lon="-5.010965">
        <ele>1050.854</ele>
        <time>2021-10-15T12:31:31Z</time>
      </trkpt>
      <trkpt lat="43.008668" lon="-5.010714">
        <ele>1050.357</ele>
        <time>2021-10-15T12:31:32Z</time>
      </trkpt>
      <trkpt lat="43.008481" lon="-5.010211">
        <ele>1050.412</ele>
        <time>2021-10-15T12:31:34Z</time>
      </trkpt>
      <trkpt lat="43.008256" lon="-5.009686">
        <ele>1050.067</ele>
        <time>2021-10-15T12:31:36Z</time>
      </trkpt>
      <trkpt lat="43.008030" lon="-5.009142">
        <ele>1049.381</ele>
        <time>2021-10-15T12:31:38Z</time>
      </trkpt>
      <trkpt lat="43.007802" lon="-5.008634">
        <ele>1049.119</ele>
        <time>2021-10-15T12:31:40Z</time>
      </trkpt>
      <trkpt lat="43.007693" lon="-5.008390">
        <ele>1049.408</ele>
        <time>2021-10-15T12:31:41Z</time>
      </trkpt>
      <trkpt lat="43.007493" lon="-5.007931">
        <ele>1049.824</ele>
        <time>2021-10-15T12:31:43Z</time>
      </trkpt>
      <trkpt lat="43.007392" lon="-5.007695">
        <ele>1050.142</ele>
        <time>2021-10-15T12:31:44Z</time>
      </trkpt>
      <trkpt lat="43.007204" lon="-5.007178">
        <ele>1050.770</ele>
        <time>2021-10-15T12:31:46Z</time>
      </trkpt>
      <trkpt lat="43.007113" lon="-5.006886">
        <ele>1050.774</ele>
        <time>2021-10-15T12:31:47Z</time>
      </trkpt>
      <trkpt lat="43.006965" lon="-5.006281">
        <ele>1051.039</ele>
        <time>2021-10-15T12:31:49Z</time>
      </trkpt>
      <trkpt lat="43.006909" lon="-5.005991">
        <ele>1051.217</ele>
        <time>2021-10-15T12:31:50Z</time>
      </trkpt>
      <trkpt lat="43.006821" lon="-5.005457">
        <ele>1052.180</ele>
        <time>2021-10-15T12:31:52Z</time>
      </trkpt>
      <trkpt lat="43.006781" lon="-5.005192">
        <ele>1051.215</ele>
        <time>2021-10-15T12:31:53Z</time>
      </trkpt>
      <trkpt lat="43.006665" lon="-5.004653">
        <ele>1052.454</ele>
        <time>2021-10-15T12:31:55Z</time>
      </trkpt>
      <trkpt lat="43.006573" lon="-5.004387">
        <ele>1052.256</ele>
        <time>2021-10-15T12:31:56Z</time>
      </trkpt>
      <trkpt lat="43.006316" lon="-5.003942">
        <ele>1051.511</ele>
        <time>2021-10-15T12:31:58Z</time>
      </trkpt>
      <trkpt lat="43.005947" lon="-5.003601">
        <ele>1052.208</ele>
        <time>2021-10-15T12:32:00Z</time>
      </trkpt>
      <trkpt lat="43.005731" lon="-5.003491">
        <ele>1050.933</ele>
        <time>2021-10-15T12:32:01Z</time>
      </trkpt>
      <trkpt lat="43.005491" lon="-5.003423">
        <ele>1049.571</ele>
        <time>2021-10-15T12:32:02Z</time>
      </trkpt>
      <trkpt lat="43.004986" lon="-5.003423">
        <ele>1050.059</ele>
        <time>2021-10-15T12:32:04Z</time>
      </trkpt>
      <trkpt lat="43.004729" lon="-5.003495">
        <ele>1050.593</ele>
        <time>2021-10-15T12:32:05Z</time>
      </trkpt>
      <trkpt lat="43.004484" lon="-5.003580">
        <ele>1051.288</ele>
        <time>2021-10-15T12:32:06Z</time>
      </trkpt>
      <trkpt lat="43.004251" lon="-5.003651">
        <ele>1050.636</ele>
        <time>2021-10-15T12:32:07Z</time>
      </trkpt>
      <trkpt lat="43.004031" lon="-5.003711">
        <ele>1051.519</ele>
        <time>2021-10-15T12:32:08Z</time>
      </trkpt>
      <trkpt lat="43.003642" lon="-5.003712">
        <ele>1052.324</ele>
        <time>2021-10-15T12:32:10Z</time>
      </trkpt>
      <trkpt lat="43.003468" lon="-5.003659">
        <ele>1054.353</ele>
        <time>2021-10-15T12:32:11Z</time>
      </trkpt>
      <trkpt lat="43.003178" lon="-5.003483">
        <ele>1055.604</ele>
        <time>2021-10-15T12:32:13Z</time>
      </trkpt>
      <trkpt lat="43.003046" lon="-5.003377">
        <ele>1056.614</ele>
        <time>2021-10-15T12:32:14Z</time>
      </trkpt>
      <trkpt lat="43.002803" lon="-5.003147">
        <ele>1058.608</ele>
        <time>2021-10-15T12:32:16Z</time>
      </trkpt>
      <trkpt lat="43.002683" lon="-5.003027">
        <ele>1059.233</ele>
        <time>2021-10-15T12:32:17Z</time>
      </trkpt>
      <trkpt lat="43.002569" lon="-5.002914">
        <ele>1059.751</ele>
        <time>2021-10-15T12:32:18Z</time>
      </trkpt>
      <trkpt lat="43.002346" lon="-5.002706">
        <ele>1061.549</ele>
        <time>2021-10-15T12:32:20Z</time>
      </trkpt>
      <trkpt lat="43.002096" lon="-5.002571">
        <ele>1063.313</ele>
        <time>2021-10-15T12:32:22Z</time>
      </trkpt>
      <trkpt lat="43.001955" lon="-5.002538">
        <ele>1064.438</ele>
        <time>2021-10-15T12:32:23Z</time>
      </trkpt>
      <trkpt lat="43.001680" lon="-5.002464">
        <ele>1066.296</ele>
        <time>2021-10-15T12:32:25Z</time>
      </trkpt>
      <trkpt lat="43.001539" lon="-5.002391">
        <ele>1066.289</ele>
        <time>2021-10-15T12:32:26Z</time>
      </trkpt>
      <trkpt lat="43.001331" lon="-5.002182">
        <ele>1068.714</ele>
        <time>2021-10-15T12:32:28Z</time>
      </trkpt>
      <trkpt lat="43.001250" lon="-5.002035">
        <ele>1068.816</ele>
        <time>2021-10-15T12:32:29Z</time>
      </trkpt>
      <trkpt lat="43.001180" lon="-5.001849">
        <ele>1069.876</ele>
        <time>2021-10-15T12:32:30Z</time>
      </trkpt>
      <trkpt lat="43.001109" lon="-5.001638">
        <ele>1069.013</ele>
        <time>2021-10-15T12:32:31Z</time>
      </trkpt>
      <trkpt lat="43.001019" lon="-5.001421">
        <ele>1068.208</ele>
        <time>2021-10-15T12:32:32Z</time>
      </trkpt>
      <trkpt lat="43.000801" lon="-5.001090">
        <ele>1069.979</ele>
        <time>2021-10-15T12:32:34Z</time>
      </trkpt>
      <trkpt lat="43.000522" lon="-5.000930">
        <ele>1068.897</ele>
        <time>2021-10-15T12:32:36Z</time>
      </trkpt>
      <trkpt lat="43.000192" lon="-5.000996">
        <ele>1067.015</ele>
        <time>2021-10-15T12:32:38Z</time>
      </trkpt>
      <trkpt lat="42.999899" lon="-5.001144">
        <ele>1068.299</ele>
        <time>2021-10-15T12:32:40Z</time>
      </trkpt>
      <trkpt lat="42.999757" lon="-5.001190">
        <ele>1067.994</ele>
        <time>2021-10-15T12:32:41Z</time>
      </trkpt>
      <trkpt lat="42.999474" lon="-5.001178">
        <ele>1068.072</ele>
        <time>2021-10-15T12:32:43Z</time>
      </trkpt>
      <trkpt lat="42.999340" lon="-5.001122">
        <ele>1067.425</ele>
        <time>2021-10-15T12:32:44Z</time>
      </trkpt>
      <trkpt lat="42.999105" lon="-5.000934">
        <ele>1069.240</ele>
        <time>2021-10-15T12:32:46Z</time>
      </trkpt>
      <trkpt lat="42.998999" lon="-5.000790">
        <ele>1069.564</ele>
        <time>2021-10-15T12:32:47Z</time>
      </trkpt>
      <trkpt lat="42.998904" lon="-5.000617">
        <ele>1069.006</ele>
        <time>2021-10-15T12:32:48Z</time>
      </trkpt>
      <trkpt lat="42.998829" lon="-5.000418">
        <ele>1069.416</ele>
        <time>2021-10-15T12:32:49Z</time>
      </trkpt>
      <trkpt lat="42.998774" lon="-5.000190">
        <ele>1070.708</ele>
        <time>2021-10-15T12:32:50Z</time>
      </trkpt>
      <trkpt lat="42.998680" lon="-4.999716">
        <ele>1069.124</ele>
        <time>2021-10-15T12:32:52Z</time>
      </trkpt>
      <trkpt lat="42.998520" lon="-4.999328">
        <ele>1067.052</ele>
        <time>2021-10-15T12:32:54Z</time>
      </trkpt>
      <trkpt lat="42.998288" lon="-4.999073">
        <ele>1066.550</ele>
        <time>2021-10-15T12:32:56Z</time>
      </trkpt>
      <trkpt lat="42.997986" lon="-4.999050">
        <ele>1066.494</ele>
        <time>2021-10-15T12:32:58Z</time>
      </trkpt>
      <trkpt lat="42.997636" lon="-4.999263">
        <ele>1066.869</ele>
        <time>2021-10-15T12:33:00Z</time>
      </trkpt>
      <trkpt lat="42.997485" lon="-4.999421">
        <ele>1065.887</ele>
        <time>2021-10-15T12:33:01Z</time>
      </trkpt>
      <trkpt lat="42.997339" lon="-4.999587">
        <ele>1064.860</ele>
        <time>2021-10-15T12:33:02Z</time>
      </trkpt>
      <trkpt lat="42.997059" lon="-4.999885">
        <ele>1063.895</ele>
        <time>2021-10-15T12:33:04Z</time>
      </trkpt>
      <trkpt lat="42.996928" lon="-5.000018">
        <ele>1063.459</ele>
        <time>2021-10-15T12:33:05Z</time>
      </trkpt>
      <trkpt lat="42.996705" lon="-5.000234">
        <ele>1063.303</ele>
        <time>2021-10-15T12:33:07Z</time>
      </trkpt>
      <trkpt lat="42.996587" lon="-5.000325">
        <ele>1062.323</ele>
        <time>2021-10-15T12:33:08Z</time>
      </trkpt>
      <trkpt lat="42.996317" lon="-5.000446">
        <ele>1063.908</ele>
        <time>2021-10-15T12:33:10Z</time>
      </trkpt>
      <trkpt lat="42.995995" lon="-5.000454">
        <ele>1064.013</ele>
        <time>2021-10-15T12:33:12Z</time>
      </trkpt>
      <trkpt lat="42.995821" lon="-5.000404">
        <ele>1063.571</ele>
        <time>2021-10-15T12:33:13Z</time>
      </trkpt>
      <trkpt lat="42.995642" lon="-5.000329">
        <ele>1063.659</ele>
        <time>2021-10-15T12:33:14Z</time>
      </trkpt>
      <trkpt lat="42.995301" lon="-5.000173">
        <ele>1063.983</ele>
        <time>2021-10-15T12:33:16Z</time>
      </trkpt>
      <trkpt lat="42.995143" lon="-5.000101">
        <ele>1063.638</ele>
        <time>2021-10-15T12:33:17Z</time>
      </trkpt>
      <trkpt lat="42.994853" lon="-4.999957">
        <ele>1063.926</ele>
        <time>2021-10-15T12:33:19Z</time>
      </trkpt>
      <trkpt lat="42.994716" lon="-4.999868">
        <ele>1063.479</ele>
        <time>2021-10-15T12:33:20Z</time>
      </trkpt>
      <trkpt lat="42.994468" lon="-4.999630">
        <ele>1063.454</ele>
        <time>2021-10-15T12:33:22Z</time>
      </trkpt>
      <trkpt lat="42.994354" lon="-4.999478">
        <ele>1063.596</ele>
        <time>2021-10-15T12:33:23Z</time>
      </trkpt>
      <trkpt lat="42.994176" lon="-4.999140">
        <ele>1064.031</ele>
        <time>2021-10-15T12:33:25Z</time>
      </trkpt>
      <trkpt lat="42.994101" lon="-4.998942">
        <ele>1064.124</ele>
        <time>2021-10-15T12:33:26Z</time>
      </trkpt>
      <trkpt lat="42.994002" lon="-4.998496">
        <ele>1064.208</ele>
        <time>2021-10-15T12:33:28Z</time>
      </trkpt>
      <trkpt lat="42.993984" lon="-4.997969">
        <ele>1062.867</ele>
        <time>2021-10-15T12:33:30Z</time>
      </trkpt>
      <trkpt lat="42.994082" lon="-4.997367">
        <ele>1062.725</ele>
        <time>2021-10-15T12:33:32Z</time>
      </trkpt>
      <trkpt lat="42.994330" lon="-4.996795">
        <ele>1062.443</ele>
        <time>2021-10-15T12:33:34Z</time>
      </trkpt>
      <trkpt lat="42.994515" lon="-4.996542">
        <ele>1061.727</ele>
        <time>2021-10-15T12:33:35Z</time>
      </trkpt>
      <trkpt lat="42.994713" lon="-4.996310">
        <ele>1061.712</ele>
        <time>2021-10-15T12:33:36Z</time>
      </trkpt>
      <trkpt lat="42.995069" lon="-4.995829">
        <ele>1061.690</ele>
        <time>2021-10-15T12:33:38Z</time>
      </trkpt>
      <trkpt lat="42.995339" lon="-4.995271">
        <ele>1060.213</ele>
        <time>2021-10-15T12:33:40Z</time>
      </trkpt>
      <trkpt lat="42.995437" lon="-4.995004">
        <ele>1059.738</ele>
        <time>2021-10-15T12:33:41Z</time>
      </trkpt>
      <trkpt lat="42.995533" lon="-4.994541">
        <ele>1057.488</ele>
        <time>2021-10-15T12:33:43Z</time>
      </trkpt>
      <trkpt lat="42.995523" lon="-4.994322">
        <ele>1056.724</ele>
        <time>2021-10-15T12:33:44Z</time>
      </trkpt>
      <trkpt lat="42.995362" lon="-4.993926">
        <ele>1056.726</ele>
        <time>2021-10-15T12:33:46Z</time>
      </trkpt>
      <trkpt lat="42.995219" lon="-4.993752">
        <ele>1055.908</ele>
        <time>2021-10-15T12:33:47Z</time>
      </trkpt>
      <trkpt lat="42.994866" lon="-4.993559">
        <ele>1056.746</ele>
        <time>2021-10-15T12:33:49Z</time>
      </trkpt>
      <trkpt lat="42.994667" lon="-4.993557">
        <ele>1056.084</ele>
        <time>2021-10-15T12:33:50Z</time>
      </trkpt>
      <trkpt lat="42.994255" lon="-4.993752">
        <ele>1055.292</ele>
        <time>2021-10-15T12:33:52Z</time>
      </trkpt>
      <trkpt lat="42.993887" lon="-4.994158">
        <ele>1055.086</ele>
        <time>2021-10-15T12:33:54Z</time>
      </trkpt>
      <trkpt lat="42.993452" lon="-4.994447">
        <ele>1056.541</ele>
        <time>2021-10-15T12:33:56Z</time>
      </trkpt>
      <trkpt lat="42.992947" lon="-4.994540">
        <ele>1057.079</ele>
        <time>2021-10-15T12:33:58Z</time>
      </trkpt>
      <trkpt lat="42.992442" lon="-4.994706">
        <ele>1059.562</ele>
        <time>2021-10-15T12:34:00Z</time>
      </trkpt>
      <trkpt lat="42.992226" lon="-4.994865">
        <ele>1060.667</ele>
        <time>2021-10-15T12:34:01Z</time>
      </trkpt>
      <trkpt lat="42.992013" lon="-4.995020">
        <ele>1062.032</ele>
        <time>2021-10-15T12:34:02Z</time>
      </trkpt>
      <trkpt lat="42.991550" lon="-4.995160">
        <ele>1064.192</ele>
        <time>2021-10-15T12:34:04Z</time>
      </trkpt>
      <trkpt lat="42.991011" lon="-4.995187">
        <ele>1069.111</ele>
        <time>2021-10-15T12:34:06Z</time>
      </trkpt>
      <trkpt lat="42.990571" lon="-4.995144">
        <ele>1069.408</ele>
        <time>2021-10-15T12:34:08Z</time>
      </trkpt>
      <trkpt lat="42.990268" lon="-4.994974">
        <ele>1071.041</ele>
        <time>2021-10-15T12:34:10Z</time>
      </trkpt>
      <trkpt lat="42.990139" lon="-4.994816">
        <ele>1071.749</ele>
        <time>2021-10-15T12:34:11Z</time>
      </trkpt>
      <trkpt lat="42.990029" lon="-4.994607">
        <ele>1072.817</ele>
        <time>2021-10-15T12:34:12Z</time>
      </trkpt>
      <trkpt lat="42.989925" lon="-4.994346">
        <ele>1073.121</ele>
        <time>2021-10-15T12:34:13Z</time>
      </trkpt>
      <trkpt lat="42.989804" lon="-4.994063">
        <ele>1072.736</ele>
        <time>2021-10-15T12:34:14Z</time>
      </trkpt>
      <trkpt lat="42.989521" lon="-4.993596">
        <ele>1073.424</ele>
        <time>2021-10-15T12:34:16Z</time>
      </trkpt>
      <trkpt lat="42.989310" lon="-4.993107">
        <ele>1072.417</ele>
        <time>2021-10-15T12:34:18Z</time>
      </trkpt>
      <trkpt lat="42.989212" lon="-4.992463">
        <ele>1072.712</ele>
        <time>2021-10-15T12:34:20Z</time>
      </trkpt>
      <trkpt lat="42.989161" lon="-4.991829">
        <ele>1071.383</ele>
        <time>2021-10-15T12:34:22Z</time>
      </trkpt>
      <trkpt lat="42.989124" lon="-4.991545">
        <ele>1069.825</ele>
        <time>2021-10-15T12:34:23Z</time>
      </trkpt>
      <trkpt lat="42.989005" lon="-4.991066">
        <ele>1068.317</ele>
        <time>2021-10-15T12:34:25Z</time>
      </trkpt>
      <trkpt lat="42.988900" lon="-4.990872">
        <ele>1067.608</ele>
        <time>2021-10-15T12:34:26Z</time>
      </trkpt>
      <trkpt lat="42.988577" lon="-4.990675">
        <ele>1066.996</ele>
        <time>2021-10-15T12:34:28Z</time>
      </trkpt>
      <trkpt lat="42.988358" lon="-4.990683">
        <ele>1065.634</ele>
        <time>2021-10-15T12:34:29Z</time>
      </trkpt>
      <trkpt lat="42.987950" lon="-4.990941">
        <ele>1066.332</ele>
        <time>2021-10-15T12:34:31Z</time>
      </trkpt>
      <trkpt lat="42.987792" lon="-4.991163">
        <ele>1065.536</ele>
        <time>2021-10-15T12:34:32Z</time>
      </trkpt>
      <trkpt lat="42.987595" lon="-4.991682">
        <ele>1063.111</ele>
        <time>2021-10-15T12:34:34Z</time>
      </trkpt>
      <trkpt lat="42.987554" lon="-4.992301">
        <ele>1060.649</ele>
        <time>2021-10-15T12:34:36Z</time>
      </trkpt>
      <trkpt lat="42.987520" lon="-4.992872">
        <ele>1059.872</ele>
        <time>2021-10-15T12:34:38Z</time>
      </trkpt>
      <trkpt lat="42.987343" lon="-4.993307">
        <ele>1058.567</ele>
        <time>2021-10-15T12:34:40Z</time>
      </trkpt>
      <trkpt lat="42.987033" lon="-4.993709">
        <ele>1058.589</ele>
        <time>2021-10-15T12:34:42Z</time>
      </trkpt>
      <trkpt lat="42.986799" lon="-4.994217">
        <ele>1057.606</ele>
        <time>2021-10-15T12:34:44Z</time>
      </trkpt>
      <trkpt lat="42.986667" lon="-4.994732">
        <ele>1059.026</ele>
        <time>2021-10-15T12:34:46Z</time>
      </trkpt>
      <trkpt lat="42.986464" lon="-4.995073">
        <ele>1060.608</ele>
        <time>2021-10-15T12:34:48Z</time>
      </trkpt>
      <trkpt lat="42.986139" lon="-4.995203">
        <ele>1064.076</ele>
        <time>2021-10-15T12:34:50Z</time>
      </trkpt>
      <trkpt lat="42.985743" lon="-4.995185">
        <ele>1064.324</ele>
        <time>2021-10-15T12:34:52Z</time>
      </trkpt>
      <trkpt lat="42.985357" lon="-4.995290">
        <ele>1066.172</ele>
        <time>2021-10-15T12:34:54Z</time>
      </trkpt>
      <trkpt lat="42.985025" lon="-4.995588">
        <ele>1068.086</ele>
        <time>2021-10-15T12:34:56Z</time>
      </trkpt>
      <trkpt lat="42.984700" lon="-4.995843">
        <ele>1071.371</ele>
        <time>2021-10-15T12:34:58Z</time>
      </trkpt>
      <trkpt lat="42.984509" lon="-4.995927">
        <ele>1073.279</ele>
        <time>2021-10-15T12:34:59Z</time>
      </trkpt>
      <trkpt lat="42.984100" lon="-4.995963">
        <ele>1076.052</ele>
        <time>2021-10-15T12:35:01Z</time>
      </trkpt>
      <trkpt lat="42.983889" lon="-4.995918">
        <ele>1078.557</ele>
        <time>2021-10-15T12:35:02Z</time>
      </trkpt>
      <trkpt lat="42.983506" lon="-4.995682">
        <ele>1081.881</ele>
        <time>2021-10-15T12:35:04Z</time>
      </trkpt>
      <trkpt lat="42.983331" lon="-4.995489">
        <ele>1082.061</ele>
        <time>2021-10-15T12:35:05Z</time>
      </trkpt>
      <trkpt lat="42.983015" lon="-4.995012">
        <ele>1084.617</ele>
        <time>2021-10-15T12:35:07Z</time>
      </trkpt>
      <trkpt lat="42.982838" lon="-4.994797">
        <ele>1085.208</ele>
        <time>2021-10-15T12:35:08Z</time>
      </trkpt>
      <trkpt lat="42.982453" lon="-4.994498">
        <ele>1089.556</ele>
        <time>2021-10-15T12:35:10Z</time>
      </trkpt>
      <trkpt lat="42.982230" lon="-4.994415">
        <ele>1091.164</ele>
        <time>2021-10-15T12:35:11Z</time>
      </trkpt>
      <trkpt lat="42.981806" lon="-4.994261">
        <ele>1093.342</ele>
        <time>2021-10-15T12:35:13Z</time>
      </trkpt>
      <trkpt lat="42.981609" lon="-4.994129">
        <ele>1094.926</ele>
        <time>2021-10-15T12:35:14Z</time>
      </trkpt>
      <trkpt lat="42.981254" lon="-4.993799">
        <ele>1098.171</ele>
        <time>2021-10-15T12:35:16Z</time>
      </trkpt>
      <trkpt lat="42.981082" lon="-4.993613">
        <ele>1100.269</ele>
        <time>2021-10-15T12:35:17Z</time>
      </trkpt>
      <trkpt lat="42.980740" lon="-4.993311">
        <ele>1103.182</ele>
        <time>2021-10-15T12:35:19Z</time>
      </trkpt>
      <trkpt lat="42.980560" lon="-4.993246">
        <ele>1105.767</ele>
        <time>2021-10-15T12:35:20Z</time>
      </trkpt>
      <trkpt lat="42.980209" lon="-4.993328">
        <ele>1108.237</ele>
        <time>2021-10-15T12:35:22Z</time>
      </trkpt>
      <trkpt lat="42.980049" lon="-4.993470">
        <ele>1109.249</ele>
        <time>2021-10-15T12:35:23Z</time>
      </trkpt>
      <trkpt lat="42.979803" lon="-4.993888">
        <ele>1110.213</ele>
        <time>2021-10-15T12:35:25Z</time>
      </trkpt>
      <trkpt lat="42.979723" lon="-4.994143">
        <ele>1109.108</ele>
        <time>2021-10-15T12:35:26Z</time>
      </trkpt>
      <trkpt lat="42.979693" lon="-4.994736">
        <ele>1109.061</ele>
        <time>2021-10-15T12:35:28Z</time>
      </trkpt>
      <trkpt lat="42.979693" lon="-4.995013">
        <ele>1108.369</ele>
        <time>2021-10-15T12:35:29Z</time>
      </trkpt>
      <trkpt lat="42.979632" lon="-4.995481">
        <ele>1109.097</ele>
        <time>2021-10-15T12:35:31Z</time>
      </trkpt>
      <trkpt lat="42.979553" lon="-4.995688">
        <ele>1109.311</ele>
        <time>2021-10-15T12:35:32Z</time>
      </trkpt>
      <trkpt lat="42.979296" lon="-4.996010">
        <ele>1107.956</ele>
        <time>2021-10-15T12:35:34Z</time>
      </trkpt>
      <trkpt lat="42.979131" lon="-4.996150">
        <ele>1108.624</ele>
        <time>2021-10-15T12:35:35Z</time>
      </trkpt>
      <trkpt lat="42.978962" lon="-4.996303">
        <ele>1108.127</ele>
        <time>2021-10-15T12:35:36Z</time>
      </trkpt>
      <trkpt lat="42.978691" lon="-4.996707">
        <ele>1108.542</ele>
        <time>2021-10-15T12:35:38Z</time>
      </trkpt>
      <trkpt lat="42.978637" lon="-4.997187">
        <ele>1107.055</ele>
        <time>2021-10-15T12:35:40Z</time>
      </trkpt>
      <trkpt lat="42.978763" lon="-4.997688">
        <ele>1105.807</ele>
        <time>2021-10-15T12:35:42Z</time>
      </trkpt>
      <trkpt lat="42.979009" lon="-4.998128">
        <ele>1106.817</ele>
        <time>2021-10-15T12:35:44Z</time>
      </trkpt>
      <trkpt lat="42.979209" lon="-4.998526">
        <ele>1106.208</ele>
        <time>2021-10-15T12:35:46Z</time>
      </trkpt>
      <trkpt lat="42.979273" lon="-4.998743">
        <ele>1106.643</ele>
        <time>2021-10-15T12:35:47Z</time>
      </trkpt>
      <trkpt lat="42.979305" lon="-4.998973">
        <ele>1106.541</ele>
        <time>2021-10-15T12:35:48Z</time>
      </trkpt>
      <trkpt lat="42.979241" lon="-4.999451">
        <ele>1107.279</ele>
        <time>2021-10-15T12:35:50Z</time>
      </trkpt>
      <trkpt lat="42.979010" lon="-4.999885">
        <ele>1105.673</ele>
        <time>2021-10-15T12:35:52Z</time>
      </trkpt>
      <trkpt lat="42.978890" lon="-5.000110">
        <ele>1104.728</ele>
        <time>2021-10-15T12:35:53Z</time>
      </trkpt>
      <trkpt lat="42.978773" lon="-5.000571">
        <ele>1102.336</ele>
        <time>2021-10-15T12:35:55Z</time>
      </trkpt>
      <trkpt lat="42.978774" lon="-5.000822">
        <ele>1102.499</ele>
        <time>2021-10-15T12:35:56Z</time>
      </trkpt>
      <trkpt lat="42.978776" lon="-5.001298">
        <ele>1102.054</ele>
        <time>2021-10-15T12:35:58Z</time>
      </trkpt>
      <trkpt lat="42.978730" lon="-5.001530">
        <ele>1100.943</ele>
        <time>2021-10-15T12:35:59Z</time>
      </trkpt>
      <trkpt lat="42.978649" lon="-5.001745">
        <ele>1100.064</ele>
        <time>2021-10-15T12:36:00Z</time>
      </trkpt>
      <trkpt lat="42.978546" lon="-5.001924">
        <ele>1098.410</ele>
        <time>2021-10-15T12:36:01Z</time>
      </trkpt>
      <trkpt lat="42.978440" lon="-5.002067">
        <ele>1097.708</ele>
        <time>2021-10-15T12:36:02Z</time>
      </trkpt>
      <trkpt lat="42.978261" lon="-5.002262">
        <ele>1096.562</ele>
        <time>2021-10-15T12:36:04Z</time>
      </trkpt>
      <trkpt lat="42.978182" lon="-5.002351">
        <ele>1096.020</ele>
        <time>2021-10-15T12:36:05Z</time>
      </trkpt>
      <trkpt lat="42.978053" lon="-5.002502">
        <ele>1094.948</ele>
        <time>2021-10-15T12:36:07Z</time>
      </trkpt>
      <trkpt lat="42.978003" lon="-5.002570">
        <ele>1093.092</ele>
        <time>2021-10-15T12:36:08Z</time>
      </trkpt>
      <trkpt lat="42.977922" lon="-5.002675">
        <ele>1092.927</ele>
        <time>2021-10-15T12:36:10Z</time>
      </trkpt>
      <trkpt lat="42.977865" lon="-5.002744">
        <ele>1093.035</ele>
        <time>2021-10-15T12:36:12Z</time>
      </trkpt>
      <trkpt lat="42.977816" lon="-5.002790">
        <ele>1092.668</ele>
        <time>2021-10-15T12:36:14Z</time>
      </trkpt>
      <trkpt lat="42.977774" lon="-5.002813">
        <ele>1107.713</ele>
        <time>2021-10-15T12:36:37Z</time>
      </trkpt>
      <trkpt lat="42.977697" lon="-5.002792">
        <ele>1133.986</ele>
        <time>2021-10-15T12:36:39Z</time>
      </trkpt>
      <trkpt lat="42.977654" lon="-5.002725">
        <ele>1134.260</ele>
        <time>2021-10-15T12:36:40Z</time>
      </trkpt>
      <trkpt lat="42.977582" lon="-5.002513">
        <ele>1137.426</ele>
        <time>2021-10-15T12:36:42Z</time>
      </trkpt>
      <trkpt lat="42.977506" lon="-5.002313">
        <ele>1134.108</ele>
        <time>2021-10-15T12:36:44Z</time>
      </trkpt>
      <trkpt lat="42.977396" lon="-5.002083">
        <ele>1134.196</ele>
        <time>2021-10-15T12:36:46Z</time>
      </trkpt>
      <trkpt lat="42.977314" lon="-5.001952">
        <ele>1134.154</ele>
        <time>2021-10-15T12:36:47Z</time>
      </trkpt>
      <trkpt lat="42.977112" lon="-5.001696">
        <ele>1134.272</ele>
        <time>2021-10-15T12:36:49Z</time>
      </trkpt>
      <trkpt lat="42.977006" lon="-5.001579">
        <ele>1134.256</ele>
        <time>2021-10-15T12:36:50Z</time>
      </trkpt>
      <trkpt lat="42.976816" lon="-5.001363">
        <ele>1134.211</ele>
        <time>2021-10-15T12:36:52Z</time>
      </trkpt>
      <trkpt lat="42.976642" lon="-5.001156">
        <ele>1134.169</ele>
        <time>2021-10-15T12:36:54Z</time>
      </trkpt>
      <trkpt lat="42.976457" lon="-5.000946">
        <ele>1134.112</ele>
        <time>2021-10-15T12:36:56Z</time>
      </trkpt>
      <trkpt lat="42.976245" lon="-5.000689">
        <ele>1134.257</ele>
        <time>2021-10-15T12:36:58Z</time>
      </trkpt>
      <trkpt lat="42.976057" lon="-5.000422">
        <ele>1134.251</ele>
        <time>2021-10-15T12:37:00Z</time>
      </trkpt>
      <trkpt lat="42.975891" lon="-5.000080">
        <ele>1134.201</ele>
        <time>2021-10-15T12:37:02Z</time>
      </trkpt>
      <trkpt lat="42.975693" lon="-4.999717">
        <ele>1134.211</ele>
        <time>2021-10-15T12:37:04Z</time>
      </trkpt>
      <trkpt lat="42.975556" lon="-4.999558">
        <ele>1134.208</ele>
        <time>2021-10-15T12:37:05Z</time>
      </trkpt>
      <trkpt lat="42.975216" lon="-4.999379">
        <ele>1134.213</ele>
        <time>2021-10-15T12:37:07Z</time>
      </trkpt>
      <trkpt lat="42.975023" lon="-4.999376">
        <ele>1134.271</ele>
        <time>2021-10-15T12:37:08Z</time>
      </trkpt>
      <trkpt lat="42.974643" lon="-4.999457">
        <ele>1134.269</ele>
        <time>2021-10-15T12:37:10Z</time>
      </trkpt>
      <trkpt lat="42.974454" lon="-4.999483">
        <ele>1134.273</ele>
        <time>2021-10-15T12:37:11Z</time>
      </trkpt>
      <trkpt lat="42.974260" lon="-4.999466">
        <ele>1134.158</ele>
        <time>2021-10-15T12:37:12Z</time>
      </trkpt>
      <trkpt lat="42.973843" lon="-4.999310">
        <ele>1134.066</ele>
        <time>2021-10-15T12:37:14Z</time>
      </trkpt>
      <trkpt lat="42.973454" lon="-4.998956">
        <ele>1134.099</ele>
        <time>2021-10-15T12:37:16Z</time>
      </trkpt>
      <trkpt lat="42.973295" lon="-4.998691">
        <ele>1134.074</ele>
        <time>2021-10-15T12:37:17Z</time>
      </trkpt>
      <trkpt lat="42.973044" lon="-4.998051">
        <ele>1134.043</ele>
        <time>2021-10-15T12:37:19Z</time>
      </trkpt>
      <trkpt lat="42.972964" lon="-4.997697">
        <ele>1134.064</ele>
        <time>2021-10-15T12:37:20Z</time>
      </trkpt>
      <trkpt lat="42.972847" lon="-4.997055">
        <ele>1134.010</ele>
        <time>2021-10-15T12:37:22Z</time>
      </trkpt>
      <trkpt lat="42.972782" lon="-4.996749">
        <ele>1134.008</ele>
        <time>2021-10-15T12:37:23Z</time>
      </trkpt>
      <trkpt lat="42.972584" lon="-4.996222">
        <ele>1134.072</ele>
        <time>2021-10-15T12:37:25Z</time>
      </trkpt>
      <trkpt lat="42.972453" lon="-4.995999">
        <ele>1134.020</ele>
        <time>2021-10-15T12:37:26Z</time>
      </trkpt>
      <trkpt lat="42.972108" lon="-4.995737">
        <ele>1134.018</ele>
        <time>2021-10-15T12:37:28Z</time>
      </trkpt>
      <trkpt lat="42.971894" lon="-4.995684">
        <ele>1134.032</ele>
        <time>2021-10-15T12:37:29Z</time>
      </trkpt>
      <trkpt lat="42.971688" lon="-4.995648">
        <ele>1134.047</ele>
        <time>2021-10-15T12:37:30Z</time>
      </trkpt>
      <trkpt lat="42.971339" lon="-4.995477">
        <ele>1133.935</ele>
        <time>2021-10-15T12:37:32Z</time>
      </trkpt>
      <trkpt lat="42.971088" lon="-4.995085">
        <ele>1133.958</ele>
        <time>2021-10-15T12:37:34Z</time>
      </trkpt>
      <trkpt lat="42.970967" lon="-4.994816">
        <ele>1133.983</ele>
        <time>2021-10-15T12:37:35Z</time>
      </trkpt>
      <trkpt lat="42.970843" lon="-4.994540">
        <ele>1090.935</ele>
        <time>2021-10-15T12:37:36Z</time>
      </trkpt>
      <trkpt lat="42.970630" lon="-4.994010">
        <ele>1047.886</ele>
        <time>2021-10-15T12:37:38Z</time>
      </trkpt>
      <trkpt lat="42.970492" lon="-4.993448">
        <ele>1046.114</ele>
        <time>2021-10-15T12:37:40Z</time>
      </trkpt>
      <trkpt lat="42.970437" lon="-4.993156">
        <ele>1046.408</ele>
        <time>2021-10-15T12:37:41Z</time>
      </trkpt>
      <trkpt lat="42.970325" lon="-4.992592">
        <ele>1045.291</ele>
        <time>2021-10-15T12:37:43Z</time>
      </trkpt>
      <trkpt lat="42.970265" lon="-4.992306">
        <ele>1045.169</ele>
        <time>2021-10-15T12:37:44Z</time>
      </trkpt>
      <trkpt lat="42.970154" lon="-4.991785">
        <ele>1046.817</ele>
        <time>2021-10-15T12:37:46Z</time>
      </trkpt>
      <trkpt lat="42.970103" lon="-4.991539">
        <ele>1046.721</ele>
        <time>2021-10-15T12:37:47Z</time>
      </trkpt>
      <trkpt lat="42.970003" lon="-4.991078">
        <ele>1047.466</ele>
        <time>2021-10-15T12:37:49Z</time>
      </trkpt>
      <trkpt lat="42.969956" lon="-4.990846">
        <ele>1047.484</ele>
        <time>2021-10-15T12:37:50Z</time>
      </trkpt>
      <trkpt lat="42.969862" lon="-4.990387">
        <ele>1047.857</ele>
        <time>2021-10-15T12:37:52Z</time>
      </trkpt>
      <trkpt lat="42.969814" lon="-4.990148">
        <ele>1048.012</ele>
        <time>2021-10-15T12:37:53Z</time>
      </trkpt>
      <trkpt lat="42.969765" lon="-4.989906">
        <ele>1047.333</ele>
        <time>2021-10-15T12:37:54Z</time>
      </trkpt>
      <trkpt lat="42.969658" lon="-4.989397">
        <ele>1046.423</ele>
        <time>2021-10-15T12:37:56Z</time>
      </trkpt>
      <trkpt lat="42.969544" lon="-4.988878">
        <ele>1046.415</ele>
        <time>2021-10-15T12:37:58Z</time>
      </trkpt>
      <trkpt lat="42.969486" lon="-4.988610">
        <ele>1045.908</ele>
        <time>2021-10-15T12:37:59Z</time>
      </trkpt>
      <trkpt lat="42.969385" lon="-4.988120">
        <ele>1045.911</ele>
        <time>2021-10-15T12:38:01Z</time>
      </trkpt>
      <trkpt lat="42.969349" lon="-4.987880">
        <ele>1045.029</ele>
        <time>2021-10-15T12:38:02Z</time>
      </trkpt>
      <trkpt lat="42.969365" lon="-4.987409">
        <ele>1044.587</ele>
        <time>2021-10-15T12:38:04Z</time>
      </trkpt>
      <trkpt lat="42.969422" lon="-4.987172">
        <ele>1044.321</ele>
        <time>2021-10-15T12:38:05Z</time>
      </trkpt>
      <trkpt lat="42.969522" lon="-4.986971">
        <ele>1044.186</ele>
        <time>2021-10-15T12:38:06Z</time>
      </trkpt>
      <trkpt lat="42.969668" lon="-4.986825">
        <ele>1045.094</ele>
        <time>2021-10-15T12:38:07Z</time>
      </trkpt>
      <trkpt lat="42.969856" lon="-4.986725">
        <ele>1045.877</ele>
        <time>2021-10-15T12:38:08Z</time>
      </trkpt>
      <trkpt lat="42.970258" lon="-4.986549">
        <ele>1045.162</ele>
        <time>2021-10-15T12:38:10Z</time>
      </trkpt>
      <trkpt lat="42.970616" lon="-4.986239">
        <ele>1045.739</ele>
        <time>2021-10-15T12:38:12Z</time>
      </trkpt>
      <trkpt lat="42.970835" lon="-4.985818">
        <ele>1046.501</ele>
        <time>2021-10-15T12:38:14Z</time>
      </trkpt>
      <trkpt lat="42.970901" lon="-4.985373">
        <ele>1047.121</ele>
        <time>2021-10-15T12:38:16Z</time>
      </trkpt>
      <trkpt lat="42.970885" lon="-4.985159">
        <ele>1047.908</ele>
        <time>2021-10-15T12:38:17Z</time>
      </trkpt>
      <trkpt lat="42.970849" lon="-4.984947">
        <ele>1048.731</ele>
        <time>2021-10-15T12:38:18Z</time>
      </trkpt>
      <trkpt lat="42.970694" lon="-4.984521">
        <ele>1048.499</ele>
        <time>2021-10-15T12:38:20Z</time>
      </trkpt>
      <trkpt lat="42.970422" lon="-4.984176">
        <ele>1048.177</ele>
        <time>2021-10-15T12:38:22Z</time>
      </trkpt>
      <trkpt lat="42.970064" lon="-4.983962">
        <ele>1048.011</ele>
        <time>2021-10-15T12:38:24Z</time>
      </trkpt>
      <trkpt lat="42.969861" lon="-4.983909">
        <ele>1047.966</ele>
        <time>2021-10-15T12:38:25Z</time>
      </trkpt>
      <trkpt lat="42.969647" lon="-4.983890">
        <ele>1048.214</ele>
        <time>2021-10-15T12:38:26Z</time>
      </trkpt>
      <trkpt lat="42.969266" lon="-4.983846">
        <ele>1047.947</ele>
        <time>2021-10-15T12:38:28Z</time>
      </trkpt>
      <trkpt lat="42.969082" lon="-4.983765">
        <ele>1047.642</ele>
        <time>2021-10-15T12:38:29Z</time>
      </trkpt>
      <trkpt lat="42.968820" lon="-4.983433">
        <ele>1047.295</ele>
        <time>2021-10-15T12:38:31Z</time>
      </trkpt>
      <trkpt lat="42.968736" lon="-4.983188">
        <ele>1047.649</ele>
        <time>2021-10-15T12:38:32Z</time>
      </trkpt>
      <trkpt lat="42.968635" lon="-4.982607">
        <ele>1049.023</ele>
        <time>2021-10-15T12:38:34Z</time>
      </trkpt>
      <trkpt lat="42.968596" lon="-4.982273">
        <ele>1049.308</ele>
        <time>2021-10-15T12:38:35Z</time>
      </trkpt>
      <trkpt lat="42.968519" lon="-4.981670">
        <ele>1049.067</ele>
        <time>2021-10-15T12:38:37Z</time>
      </trkpt>
      <trkpt lat="42.968505" lon="-4.981389">
        <ele>1049.415</ele>
        <time>2021-10-15T12:38:38Z</time>
      </trkpt>
      <trkpt lat="42.968607" lon="-4.980860">
        <ele>1049.423</ele>
        <time>2021-10-15T12:38:40Z</time>
      </trkpt>
      <trkpt lat="42.968722" lon="-4.980611">
        <ele>1049.427</ele>
        <time>2021-10-15T12:38:41Z</time>
      </trkpt>
      <trkpt lat="42.968838" lon="-4.980360">
        <ele>1050.032</ele>
        <time>2021-10-15T12:38:42Z</time>
      </trkpt>
      <trkpt lat="42.968933" lon="-4.979848">
        <ele>1050.730</ele>
        <time>2021-10-15T12:38:44Z</time>
      </trkpt>
      <trkpt lat="42.968832" lon="-4.979357">
        <ele>1052.873</ele>
        <time>2021-10-15T12:38:46Z</time>
      </trkpt>
      <trkpt lat="42.968730" lon="-4.979104">
        <ele>1053.428</ele>
        <time>2021-10-15T12:38:47Z</time>
      </trkpt>
      <trkpt lat="42.968608" lon="-4.978547">
        <ele>1055.319</ele>
        <time>2021-10-15T12:38:49Z</time>
      </trkpt>
      <trkpt lat="42.968579" lon="-4.978244">
        <ele>1056.509</ele>
        <time>2021-10-15T12:38:50Z</time>
      </trkpt>
      <trkpt lat="42.968474" lon="-4.977700">
        <ele>1058.119</ele>
        <time>2021-10-15T12:38:52Z</time>
      </trkpt>
      <trkpt lat="42.968403" lon="-4.977450">
        <ele>1059.608</ele>
        <time>2021-10-15T12:38:53Z</time>
      </trkpt>
      <trkpt lat="42.968353" lon="-4.976963">
        <ele>1060.149</ele>
        <time>2021-10-15T12:38:55Z</time>
      </trkpt>
      <trkpt lat="42.968381" lon="-4.976717">
        <ele>1060.857</ele>
        <time>2021-10-15T12:38:56Z</time>
      </trkpt>
      <trkpt lat="42.968593" lon="-4.976274">
        <ele>1063.335</ele>
        <time>2021-10-15T12:38:58Z</time>
      </trkpt>
      <trkpt lat="42.968779" lon="-4.976066">
        <ele>1063.499</ele>
        <time>2021-10-15T12:38:59Z</time>
      </trkpt>
      <trkpt lat="42.968990" lon="-4.975837">
        <ele>1063.684</ele>
        <time>2021-10-15T12:39:00Z</time>
      </trkpt>
      <trkpt lat="42.969357" lon="-4.975273">
        <ele>1065.312</ele>
        <time>2021-10-15T12:39:02Z</time>
      </trkpt>
      <trkpt lat="42.969568" lon="-4.974666">
        <ele>1065.365</ele>
        <time>2021-10-15T12:39:04Z</time>
      </trkpt>
      <trkpt lat="42.969729" lon="-4.974114">
        <ele>1064.440</ele>
        <time>2021-10-15T12:39:06Z</time>
      </trkpt>
      <trkpt lat="42.969806" lon="-4.973872">
        <ele>1064.071</ele>
        <time>2021-10-15T12:39:07Z</time>
      </trkpt>
      <trkpt lat="42.969887" lon="-4.973655">
        <ele>1063.841</ele>
        <time>2021-10-15T12:39:08Z</time>
      </trkpt>
      <trkpt lat="42.970070" lon="-4.973277">
        <ele>1061.215</ele>
        <time>2021-10-15T12:39:10Z</time>
      </trkpt>
      <trkpt lat="42.970268" lon="-4.972906">
        <ele>1060.508</ele>
        <time>2021-10-15T12:39:12Z</time>
      </trkpt>
      <trkpt lat="42.970504" lon="-4.972535">
        <ele>1061.255</ele>
        <time>2021-10-15T12:39:14Z</time>
      </trkpt>
      <trkpt lat="42.970759" lon="-4.972147">
        <ele>1060.233</ele>
        <time>2021-10-15T12:39:16Z</time>
      </trkpt>
      <trkpt lat="42.970910" lon="-4.971718">
        <ele>1059.161</ele>
        <time>2021-10-15T12:39:18Z</time>
      </trkpt>
      <trkpt lat="42.970917" lon="-4.971225">
        <ele>1058.455</ele>
        <time>2021-10-15T12:39:20Z</time>
      </trkpt>
      <trkpt lat="42.970957" lon="-4.970718">
        <ele>1056.480</ele>
        <time>2021-10-15T12:39:22Z</time>
      </trkpt>
      <trkpt lat="42.971023" lon="-4.970478">
        <ele>1055.838</ele>
        <time>2021-10-15T12:39:23Z</time>
      </trkpt>
      <trkpt lat="42.971099" lon="-4.970253">
        <ele>1055.681</ele>
        <time>2021-10-15T12:39:24Z</time>
      </trkpt>
      <trkpt lat="42.971158" lon="-4.970024">
        <ele>1054.936</ele>
        <time>2021-10-15T12:39:25Z</time>
      </trkpt>
      <trkpt lat="42.971189" lon="-4.969794">
        <ele>1053.738</ele>
        <time>2021-10-15T12:39:26Z</time>
      </trkpt>
      <trkpt lat="42.971210" lon="-4.969364">
        <ele>1053.870</ele>
        <time>2021-10-15T12:39:28Z</time>
      </trkpt>
      <trkpt lat="42.971291" lon="-4.968983">
        <ele>1053.517</ele>
        <time>2021-10-15T12:39:30Z</time>
      </trkpt>
      <trkpt lat="42.971375" lon="-4.968819">
        <ele>1053.008</ele>
        <time>2021-10-15T12:39:31Z</time>
      </trkpt>
      <trkpt lat="42.971482" lon="-4.968672">
        <ele>1052.941</ele>
        <time>2021-10-15T12:39:32Z</time>
      </trkpt>
      <trkpt lat="42.971748" lon="-4.968462">
        <ele>1053.489</ele>
        <time>2021-10-15T12:39:34Z</time>
      </trkpt>
      <trkpt lat="42.971898" lon="-4.968364">
        <ele>1052.447</ele>
        <time>2021-10-15T12:39:35Z</time>
      </trkpt>
      <trkpt lat="42.972029" lon="-4.968245">
        <ele>1051.981</ele>
        <time>2021-10-15T12:39:36Z</time>
      </trkpt>
      <trkpt lat="42.972232" lon="-4.967921">
        <ele>1051.346</ele>
        <time>2021-10-15T12:39:38Z</time>
      </trkpt>
      <trkpt lat="42.972373" lon="-4.967552">
        <ele>1051.034</ele>
        <time>2021-10-15T12:39:40Z</time>
      </trkpt>
      <trkpt lat="42.972561" lon="-4.967245">
        <ele>1049.787</ele>
        <time>2021-10-15T12:39:42Z</time>
      </trkpt>
      <trkpt lat="42.972674" lon="-4.967132">
        <ele>1049.812</ele>
        <time>2021-10-15T12:39:43Z</time>
      </trkpt>
      <trkpt lat="42.972793" lon="-4.967032">
        <ele>1049.479</ele>
        <time>2021-10-15T12:39:44Z</time>
      </trkpt>
      <trkpt lat="42.972985" lon="-4.966774">
        <ele>1048.605</ele>
        <time>2021-10-15T12:39:46Z</time>
      </trkpt>
      <trkpt lat="42.973058" lon="-4.966594">
        <ele>1048.725</ele>
        <time>2021-10-15T12:39:47Z</time>
      </trkpt>
      <trkpt lat="42.973111" lon="-4.966389">
        <ele>1048.908</ele>
        <time>2021-10-15T12:39:48Z</time>
      </trkpt>
      <trkpt lat="42.973174" lon="-4.965936">
        <ele>1049.875</ele>
        <time>2021-10-15T12:39:50Z</time>
      </trkpt>
      <trkpt lat="42.973296" lon="-4.965529">
        <ele>1050.543</ele>
        <time>2021-10-15T12:39:52Z</time>
      </trkpt>
      <trkpt lat="42.973397" lon="-4.965330">
        <ele>1051.541</ele>
        <time>2021-10-15T12:39:53Z</time>
      </trkpt>
      <trkpt lat="42.973632" lon="-4.964888">
        <ele>1051.665</ele>
        <time>2021-10-15T12:39:55Z</time>
      </trkpt>
      <trkpt lat="42.973748" lon="-4.964640">
        <ele>1052.270</ele>
        <time>2021-10-15T12:39:56Z</time>
      </trkpt>
      <trkpt lat="42.973897" lon="-4.964213">
        <ele>1053.238</ele>
        <time>2021-10-15T12:39:58Z</time>
      </trkpt>
      <trkpt lat="42.973950" lon="-4.964038">
        <ele>1053.681</ele>
        <time>2021-10-15T12:39:59Z</time>
      </trkpt>
      <trkpt lat="42.973980" lon="-4.963900">
        <ele>1054.326</ele>
        <time>2021-10-15T12:40:00Z</time>
      </trkpt>
      <trkpt lat="42.974011" lon="-4.963652">
        <ele>1054.843</ele>
        <time>2021-10-15T12:40:02Z</time>
      </trkpt>
      <trkpt lat="42.974058" lon="-4.963314">
        <ele>1056.364</ele>
        <time>2021-10-15T12:40:04Z</time>
      </trkpt>
      <trkpt lat="42.974058" lon="-4.963093">
        <ele>1056.910</ele>
        <time>2021-10-15T12:40:05Z</time>
      </trkpt>
      <trkpt lat="42.973978" lon="-4.962558">
        <ele>1058.608</ele>
        <time>2021-10-15T12:40:07Z</time>
      </trkpt>
      <trkpt lat="42.973912" lon="-4.962263">
        <ele>1058.772</ele>
        <time>2021-10-15T12:40:08Z</time>
      </trkpt>
      <trkpt lat="42.973805" lon="-4.961746">
        <ele>1059.820</ele>
        <time>2021-10-15T12:40:10Z</time>
      </trkpt>
      <trkpt lat="42.973807" lon="-4.961204">
        <ele>1058.118</ele>
        <time>2021-10-15T12:40:12Z</time>
      </trkpt>
      <trkpt lat="42.973859" lon="-4.960918">
        <ele>1058.362</ele>
        <time>2021-10-15T12:40:13Z</time>
      </trkpt>
      <trkpt lat="42.973958" lon="-4.960619">
        <ele>1058.167</ele>
        <time>2021-10-15T12:40:14Z</time>
      </trkpt>
      <trkpt lat="42.974195" lon="-4.959954">
        <ele>1055.925</ele>
        <time>2021-10-15T12:40:16Z</time>
      </trkpt>
      <trkpt lat="42.974389" lon="-4.959173">
        <ele>1054.858</ele>
        <time>2021-10-15T12:40:18Z</time>
      </trkpt>
      <trkpt lat="42.974467" lon="-4.958750">
        <ele>1053.663</ele>
        <time>2021-10-15T12:40:19Z</time>
      </trkpt>
      <trkpt lat="42.974531" lon="-4.958318">
        <ele>1051.837</ele>
        <time>2021-10-15T12:40:20Z</time>
      </trkpt>
      <trkpt lat="42.974595" lon="-4.957455">
        <ele>1049.549</ele>
        <time>2021-10-15T12:40:22Z</time>
      </trkpt>
      <trkpt lat="42.974689" lon="-4.956610">
        <ele>1047.913</ele>
        <time>2021-10-15T12:40:24Z</time>
      </trkpt>
      <trkpt lat="42.974819" lon="-4.955761">
        <ele>1047.708</ele>
        <time>2021-10-15T12:40:26Z</time>
      </trkpt>
      <trkpt lat="42.974832" lon="-4.954899">
        <ele>1047.681</ele>
        <time>2021-10-15T12:40:28Z</time>
      </trkpt>
      <trkpt lat="42.974819" lon="-4.954437">
        <ele>1047.719</ele>
        <time>2021-10-15T12:40:29Z</time>
      </trkpt>
      <trkpt lat="42.974809" lon="-4.953968">
        <ele>1047.997</ele>
        <time>2021-10-15T12:40:30Z</time>
      </trkpt>
      <trkpt lat="42.974799" lon="-4.953489">
        <ele>1048.291</ele>
        <time>2021-10-15T12:40:31Z</time>
      </trkpt>
      <trkpt lat="42.974789" lon="-4.953001">
        <ele>1047.986</ele>
        <time>2021-10-15T12:40:32Z</time>
      </trkpt>
      <trkpt lat="42.974760" lon="-4.952073">
        <ele>1047.854</ele>
        <time>2021-10-15T12:40:34Z</time>
      </trkpt>
      <trkpt lat="42.974736" lon="-4.951631">
        <ele>1047.467</ele>
        <time>2021-10-15T12:40:35Z</time>
      </trkpt>
      <trkpt lat="42.974651" lon="-4.950825">
        <ele>1047.012</ele>
        <time>2021-10-15T12:40:37Z</time>
      </trkpt>
      <trkpt lat="42.974583" lon="-4.950436">
        <ele>1046.933</ele>
        <time>2021-10-15T12:40:38Z</time>
      </trkpt>
      <trkpt lat="42.974398" lon="-4.949690">
        <ele>1047.123</ele>
        <time>2021-10-15T12:40:40Z</time>
      </trkpt>
      <trkpt lat="42.974289" lon="-4.949315">
        <ele>1047.515</ele>
        <time>2021-10-15T12:40:41Z</time>
      </trkpt>
      <trkpt lat="42.974089" lon="-4.948609">
        <ele>1050.408</ele>
        <time>2021-10-15T12:40:43Z</time>
      </trkpt>
      <trkpt lat="42.974007" lon="-4.948263">
        <ele>1050.531</ele>
        <time>2021-10-15T12:40:44Z</time>
      </trkpt>
      <trkpt lat="42.973879" lon="-4.947566">
        <ele>1049.889</ele>
        <time>2021-10-15T12:40:46Z</time>
      </trkpt>
      <trkpt lat="42.973826" lon="-4.947193">
        <ele>1049.947</ele>
        <time>2021-10-15T12:40:47Z</time>
      </trkpt>
      <trkpt lat="42.973780" lon="-4.946814">
        <ele>1050.541</ele>
        <time>2021-10-15T12:40:48Z</time>
      </trkpt>
      <trkpt lat="42.973717" lon="-4.946027">
        <ele>1050.866</ele>
        <time>2021-10-15T12:40:50Z</time>
      </trkpt>
      <trkpt lat="42.973648" lon="-4.945253">
        <ele>1049.434</ele>
        <time>2021-10-15T12:40:52Z</time>
      </trkpt>
      <trkpt lat="42.973507" lon="-4.944464">
        <ele>1049.337</ele>
        <time>2021-10-15T12:40:54Z</time>
      </trkpt>
      <trkpt lat="42.973402" lon="-4.944071">
        <ele>1049.822</ele>
        <time>2021-10-15T12:40:55Z</time>
      </trkpt>
      <trkpt lat="42.973271" lon="-4.943676">
        <ele>1050.556</ele>
        <time>2021-10-15T12:40:56Z</time>
      </trkpt>
      <trkpt lat="42.972976" lon="-4.942976">
        <ele>1050.959</ele>
        <time>2021-10-15T12:40:58Z</time>
      </trkpt>
      <trkpt lat="42.972669" lon="-4.942351">
        <ele>1050.614</ele>
        <time>2021-10-15T12:41:00Z</time>
      </trkpt>
      <trkpt lat="42.972526" lon="-4.942062">
        <ele>1050.508</ele>
        <time>2021-10-15T12:41:01Z</time>
      </trkpt>
      <trkpt lat="42.972394" lon="-4.941783">
        <ele>1050.953</ele>
        <time>2021-10-15T12:41:02Z</time>
      </trkpt>
      <trkpt lat="42.972149" lon="-4.941271">
        <ele>1052.221</ele>
        <time>2021-10-15T12:41:04Z</time>
      </trkpt>
      <trkpt lat="42.971915" lon="-4.940812">
        <ele>1050.529</ele>
        <time>2021-10-15T12:41:06Z</time>
      </trkpt>
      <trkpt lat="42.971821" lon="-4.940580">
        <ele>1050.893</ele>
        <time>2021-10-15T12:41:07Z</time>
      </trkpt>
      <trkpt lat="42.971746" lon="-4.940321">
        <ele>1051.018</ele>
        <time>2021-10-15T12:41:08Z</time>
      </trkpt>
      <trkpt lat="42.971675" lon="-4.939731">
        <ele>1050.226</ele>
        <time>2021-10-15T12:41:10Z</time>
      </trkpt>
      <trkpt lat="42.971680" lon="-4.939399">
        <ele>1050.519</ele>
        <time>2021-10-15T12:41:11Z</time>
      </trkpt>
      <trkpt lat="42.971738" lon="-4.938684">
        <ele>1049.744</ele>
        <time>2021-10-15T12:41:13Z</time>
      </trkpt>
      <trkpt lat="42.971769" lon="-4.938312">
        <ele>1049.796</ele>
        <time>2021-10-15T12:41:14Z</time>
      </trkpt>
      <trkpt lat="42.971828" lon="-4.937598">
        <ele>1049.831</ele>
        <time>2021-10-15T12:41:16Z</time>
      </trkpt>
      <trkpt lat="42.971872" lon="-4.936942">
        <ele>1049.324</ele>
        <time>2021-10-15T12:41:18Z</time>
      </trkpt>
      <trkpt lat="42.971895" lon="-4.936634">
        <ele>1048.908</ele>
        <time>2021-10-15T12:41:19Z</time>
      </trkpt>
      <trkpt lat="42.971923" lon="-4.936320">
        <ele>1047.587</ele>
        <time>2021-10-15T12:41:20Z</time>
      </trkpt>
      <trkpt lat="42.971988" lon="-4.935684">
        <ele>1048.535</ele>
        <time>2021-10-15T12:41:22Z</time>
      </trkpt>
      <trkpt lat="42.972031" lon="-4.935352">
        <ele>1048.633</ele>
        <time>2021-10-15T12:41:23Z</time>
      </trkpt>
      <trkpt lat="42.972082" lon="-4.935003">
        <ele>1048.327</ele>
        <time>2021-10-15T12:41:24Z</time>
      </trkpt>
      <trkpt lat="42.972145" lon="-4.934636">
        <ele>1048.292</ele>
        <time>2021-10-15T12:41:25Z</time>
      </trkpt>
      <trkpt lat="42.972209" lon="-4.934252">
        <ele>1048.580</ele>
        <time>2021-10-15T12:41:26Z</time>
      </trkpt>
      <trkpt lat="42.972330" lon="-4.933531">
        <ele>1048.963</ele>
        <time>2021-10-15T12:41:28Z</time>
      </trkpt>
      <trkpt lat="42.972388" lon="-4.933196">
        <ele>1048.588</ele>
        <time>2021-10-15T12:41:29Z</time>
      </trkpt>
      <trkpt lat="42.972494" lon="-4.932578">
        <ele>1049.022</ele>
        <time>2021-10-15T12:41:31Z</time>
      </trkpt>
      <trkpt lat="42.972545" lon="-4.932285">
        <ele>1049.362</ele>
        <time>2021-10-15T12:41:32Z</time>
      </trkpt>
      <trkpt lat="42.972638" lon="-4.931755">
        <ele>1048.708</ele>
        <time>2021-10-15T12:41:34Z</time>
      </trkpt>
      <trkpt lat="42.972686" lon="-4.931499">
        <ele>1048.408</ele>
        <time>2021-10-15T12:41:35Z</time>
      </trkpt>
      <trkpt lat="42.972734" lon="-4.931240">
        <ele>1048.530</ele>
        <time>2021-10-15T12:41:36Z</time>
      </trkpt>
      <trkpt lat="42.972827" lon="-4.930714">
        <ele>1047.538</ele>
        <time>2021-10-15T12:41:38Z</time>
      </trkpt>
      <trkpt lat="42.972909" lon="-4.930209">
        <ele>1047.686</ele>
        <time>2021-10-15T12:41:40Z</time>
      </trkpt>
      <trkpt lat="42.972999" lon="-4.929697">
        <ele>1047.470</ele>
        <time>2021-10-15T12:41:42Z</time>
      </trkpt>
      <trkpt lat="42.973043" lon="-4.929454">
        <ele>1047.155</ele>
        <time>2021-10-15T12:41:43Z</time>
      </trkpt>
      <trkpt lat="42.973083" lon="-4.929220">
        <ele>1046.773</ele>
        <time>2021-10-15T12:41:44Z</time>
      </trkpt>
      <trkpt lat="42.973159" lon="-4.928798">
        <ele>1045.976</ele>
        <time>2021-10-15T12:41:46Z</time>
      </trkpt>
      <trkpt lat="42.973194" lon="-4.928591">
        <ele>1045.661</ele>
        <time>2021-10-15T12:41:47Z</time>
      </trkpt>
      <trkpt lat="42.973229" lon="-4.928392">
        <ele>1045.134</ele>
        <time>2021-10-15T12:41:48Z</time>
      </trkpt>
      <trkpt lat="42.973297" lon="-4.928016">
        <ele>1046.055</ele>
        <time>2021-10-15T12:41:50Z</time>
      </trkpt>
      <trkpt lat="42.973359" lon="-4.927645">
        <ele>1045.410</ele>
        <time>2021-10-15T12:41:52Z</time>
      </trkpt>
      <trkpt lat="42.973391" lon="-4.927447">
        <ele>1046.208</ele>
        <time>2021-10-15T12:41:53Z</time>
      </trkpt>
      <trkpt lat="42.973463" lon="-4.927036">
        <ele>1046.511</ele>
        <time>2021-10-15T12:41:55Z</time>
      </trkpt>
      <trkpt lat="42.973500" lon="-4.926829">
        <ele>1046.529</ele>
        <time>2021-10-15T12:41:56Z</time>
      </trkpt>
      <trkpt lat="42.973567" lon="-4.926451">
        <ele>1047.747</ele>
        <time>2021-10-15T12:41:58Z</time>
      </trkpt>
      <trkpt lat="42.973630" lon="-4.926093">
        <ele>1048.231</ele>
        <time>2021-10-15T12:42:00Z</time>
      </trkpt>
      <trkpt lat="42.973694" lon="-4.925747">
        <ele>1048.356</ele>
        <time>2021-10-15T12:42:02Z</time>
      </trkpt>
      <trkpt lat="42.973742" lon="-4.925502">
        <ele>1048.684</ele>
        <time>2021-10-15T12:42:04Z</time>
      </trkpt>
      <trkpt lat="42.973757" lon="-4.925413">
        <ele>1049.237</ele>
        <time>2021-10-15T12:42:05Z</time>
      </trkpt>
      <trkpt lat="42.973738" lon="-4.925247">
        <ele>1049.582</ele>
        <time>2021-10-15T12:42:07Z</time>
      </trkpt>
      <trkpt lat="42.973693" lon="-4.925174">
        <ele>1049.372</ele>
        <time>2021-10-15T12:42:08Z</time>
      </trkpt>
      <trkpt lat="42.973558" lon="-4.925078">
        <ele>1049.513</ele>
        <time>2021-10-15T12:42:10Z</time>
      </trkpt>
      <trkpt lat="42.973409" lon="-4.925016">
        <ele>1050.414</ele>
        <time>2021-10-15T12:42:12Z</time>
      </trkpt>
      <trkpt lat="42.973336" lon="-4.924988">
        <ele>1050.208</ele>
        <time>2021-10-15T12:42:13Z</time>
      </trkpt>
      <trkpt lat="42.973264" lon="-4.924962">
        <ele>1050.175</ele>
        <time>2021-10-15T12:42:14Z</time>
      </trkpt>
      <trkpt lat="42.973140" lon="-4.924903">
        <ele>1050.733</ele>
        <time>2021-10-15T12:42:16Z</time>
      </trkpt>
      <trkpt lat="42.973085" lon="-4.924870">
        <ele>1051.061</ele>
        <time>2021-10-15T12:42:17Z</time>
      </trkpt>
      <trkpt lat="42.973031" lon="-4.924833">
        <ele>1050.695</ele>
        <time>2021-10-15T12:42:18Z</time>
      </trkpt>
      <trkpt lat="42.972914" lon="-4.924713">
        <ele>1050.990</ele>
        <time>2021-10-15T12:42:20Z</time>
      </trkpt>
      <trkpt lat="42.972786" lon="-4.924533">
        <ele>1051.238</ele>
        <time>2021-10-15T12:42:22Z</time>
      </trkpt>
      <trkpt lat="42.972637" lon="-4.924315">
        <ele>1052.691</ele>
        <time>2021-10-15T12:42:24Z</time>
      </trkpt>
      <trkpt lat="42.972471" lon="-4.924154">
        <ele>1054.296</ele>
        <time>2021-10-15T12:42:26Z</time>
      </trkpt>
      <trkpt lat="42.972291" lon="-4.924119">
        <ele>1054.564</ele>
        <time>2021-10-15T12:42:28Z</time>
      </trkpt>
      <trkpt lat="42.972075" lon="-4.924133">
        <ele>1054.206</ele>
        <time>2021-10-15T12:42:30Z</time>
      </trkpt>
      <trkpt lat="42.971809" lon="-4.924086">
        <ele>1054.216</ele>
        <time>2021-10-15T12:42:32Z</time>
      </trkpt>
      <trkpt lat="42.971555" lon="-4.923989">
        <ele>1053.308</ele>
        <time>2021-10-15T12:42:34Z</time>
      </trkpt>
      <trkpt lat="42.971283" lon="-4.923839">
        <ele>1053.434</ele>
        <time>2021-10-15T12:42:36Z</time>
      </trkpt>
      <trkpt lat="42.971020" lon="-4.923630">
        <ele>1052.952</ele>
        <time>2021-10-15T12:42:38Z</time>
      </trkpt>
      <trkpt lat="42.970754" lon="-4.923417">
        <ele>1052.960</ele>
        <time>2021-10-15T12:42:40Z</time>
      </trkpt>
      <trkpt lat="42.970498" lon="-4.923215">
        <ele>1051.434</ele>
        <time>2021-10-15T12:42:42Z</time>
      </trkpt>
      <trkpt lat="42.970272" lon="-4.923113">
        <ele>1051.119</ele>
        <time>2021-10-15T12:42:44Z</time>
      </trkpt>
      <trkpt lat="42.970049" lon="-4.923115">
        <ele>1050.287</ele>
        <time>2021-10-15T12:42:46Z</time>
      </trkpt>
      <trkpt lat="42.969921" lon="-4.923140">
        <ele>1050.670</ele>
        <time>2021-10-15T12:42:47Z</time>
      </trkpt>
      <trkpt lat="42.969628" lon="-4.923233">
        <ele>1050.785</ele>
        <time>2021-10-15T12:42:49Z</time>
      </trkpt>
      <trkpt lat="42.969451" lon="-4.923289">
        <ele>1050.239</ele>
        <time>2021-10-15T12:42:50Z</time>
      </trkpt>
      <trkpt lat="42.969037" lon="-4.923401">
        <ele>1049.101</ele>
        <time>2021-10-15T12:42:52Z</time>
      </trkpt>
      <trkpt lat="42.968801" lon="-4.923439">
        <ele>1049.121</ele>
        <time>2021-10-15T12:42:53Z</time>
      </trkpt>
      <trkpt lat="42.968351" lon="-4.923458">
        <ele>1048.208</ele>
        <time>2021-10-15T12:42:55Z</time>
      </trkpt>
      <trkpt lat="42.968137" lon="-4.923452">
        <ele>1048.131</ele>
        <time>2021-10-15T12:42:56Z</time>
      </trkpt>
      <trkpt lat="42.967746" lon="-4.923379">
        <ele>1047.269</ele>
        <time>2021-10-15T12:42:58Z</time>
      </trkpt>
      <trkpt lat="42.967537" lon="-4.923279">
        <ele>1047.587</ele>
        <time>2021-10-15T12:42:59Z</time>
      </trkpt>
      <trkpt lat="42.967098" lon="-4.922945">
        <ele>1047.021</ele>
        <time>2021-10-15T12:43:01Z</time>
      </trkpt>
      <trkpt lat="42.966881" lon="-4.922713">
        <ele>1047.156</ele>
        <time>2021-10-15T12:43:02Z</time>
      </trkpt>
      <trkpt lat="42.966516" lon="-4.922166">
        <ele>1048.554</ele>
        <time>2021-10-15T12:43:04Z</time>
      </trkpt>
      <trkpt lat="42.966171" lon="-4.921639">
        <ele>1050.167</ele>
        <time>2021-10-15T12:43:06Z</time>
      </trkpt>
      <trkpt lat="42.965996" lon="-4.921421">
        <ele>1049.532</ele>
        <time>2021-10-15T12:43:07Z</time>
      </trkpt>
      <trkpt lat="42.965798" lon="-4.921229">
        <ele>1050.071</ele>
        <time>2021-10-15T12:43:08Z</time>
      </trkpt>
      <trkpt lat="42.965349" lon="-4.921026">
        <ele>1051.741</ele>
        <time>2021-10-15T12:43:10Z</time>
      </trkpt>
      <trkpt lat="42.965091" lon="-4.920989">
        <ele>1051.915</ele>
        <time>2021-10-15T12:43:11Z</time>
      </trkpt>
      <trkpt lat="42.964820" lon="-4.920991">
        <ele>1052.308</ele>
        <time>2021-10-15T12:43:12Z</time>
      </trkpt>
      <trkpt lat="42.964542" lon="-4.921015">
        <ele>1052.855</ele>
        <time>2021-10-15T12:43:13Z</time>
      </trkpt>
      <trkpt lat="42.964256" lon="-4.921041">
        <ele>1053.933</ele>
        <time>2021-10-15T12:43:14Z</time>
      </trkpt>
      <trkpt lat="42.963694" lon="-4.921106">
        <ele>1054.591</ele>
        <time>2021-10-15T12:43:16Z</time>
      </trkpt>
      <trkpt lat="42.963413" lon="-4.921139">
        <ele>1054.345</ele>
        <time>2021-10-15T12:43:17Z</time>
      </trkpt>
      <trkpt lat="42.963138" lon="-4.921172">
        <ele>1055.380</ele>
        <time>2021-10-15T12:43:18Z</time>
      </trkpt>
      <trkpt lat="42.962871" lon="-4.921219">
        <ele>1055.978</ele>
        <time>2021-10-15T12:43:19Z</time>
      </trkpt>
      <trkpt lat="42.962628" lon="-4.921282">
        <ele>1056.131</ele>
        <time>2021-10-15T12:43:20Z</time>
      </trkpt>
      <trkpt lat="42.962179" lon="-4.921405">
        <ele>1058.556</ele>
        <time>2021-10-15T12:43:22Z</time>
      </trkpt>
      <trkpt lat="42.961939" lon="-4.921457">
        <ele>1058.757</ele>
        <time>2021-10-15T12:43:23Z</time>
      </trkpt>
      <trkpt lat="42.961693" lon="-4.921507">
        <ele>1058.100</ele>
        <time>2021-10-15T12:43:24Z</time>
      </trkpt>
      <trkpt lat="42.961448" lon="-4.921551">
        <ele>1059.620</ele>
        <time>2021-10-15T12:43:25Z</time>
      </trkpt>
      <trkpt lat="42.961208" lon="-4.921588">
        <ele>1061.108</ele>
        <time>2021-10-15T12:43:26Z</time>
      </trkpt>
      <trkpt lat="42.960804" lon="-4.921636">
        <ele>1061.313</ele>
        <time>2021-10-15T12:43:28Z</time>
      </trkpt>
      <trkpt lat="42.960449" lon="-4.921615">
        <ele>1063.941</ele>
        <time>2021-10-15T12:43:30Z</time>
      </trkpt>
      <trkpt lat="42.960075" lon="-4.921416">
        <ele>1065.899</ele>
        <time>2021-10-15T12:43:32Z</time>
      </trkpt>
      <trkpt lat="42.959650" lon="-4.921080">
        <ele>1068.623</ele>
        <time>2021-10-15T12:43:34Z</time>
      </trkpt>
      <trkpt lat="42.959409" lon="-4.920921">
        <ele>1069.778</ele>
        <time>2021-10-15T12:43:35Z</time>
      </trkpt>
      <trkpt lat="42.959152" lon="-4.920795">
        <ele>1070.656</ele>
        <time>2021-10-15T12:43:36Z</time>
      </trkpt>
      <trkpt lat="42.958605" lon="-4.920598">
        <ele>1074.239</ele>
        <time>2021-10-15T12:43:38Z</time>
      </trkpt>
      <trkpt lat="42.958064" lon="-4.920475">
        <ele>1073.184</ele>
        <time>2021-10-15T12:43:40Z</time>
      </trkpt>
      <trkpt lat="42.957525" lon="-4.920363">
        <ele>1074.824</ele>
        <time>2021-10-15T12:43:42Z</time>
      </trkpt>
      <trkpt lat="42.957004" lon="-4.920247">
        <ele>1075.904</ele>
        <time>2021-10-15T12:43:44Z</time>
      </trkpt>
      <trkpt lat="42.956537" lon="-4.920192">
        <ele>1076.914</ele>
        <time>2021-10-15T12:43:46Z</time>
      </trkpt>
      <trkpt lat="42.956116" lon="-4.920302">
        <ele>1079.008</ele>
        <time>2021-10-15T12:43:48Z</time>
      </trkpt>
      <trkpt lat="42.955918" lon="-4.920395">
        <ele>1079.710</ele>
        <time>2021-10-15T12:43:49Z</time>
      </trkpt>
      <trkpt lat="42.955710" lon="-4.920466">
        <ele>1080.268</ele>
        <time>2021-10-15T12:43:50Z</time>
      </trkpt>
      <trkpt lat="42.955276" lon="-4.920464">
        <ele>1080.056</ele>
        <time>2021-10-15T12:43:52Z</time>
      </trkpt>
      <trkpt lat="42.954832" lon="-4.920331">
        <ele>1079.860</ele>
        <time>2021-10-15T12:43:54Z</time>
      </trkpt>
      <trkpt lat="42.954415" lon="-4.920171">
        <ele>1080.545</ele>
        <time>2021-10-15T12:43:56Z</time>
      </trkpt>
      <trkpt lat="42.954044" lon="-4.920093">
        <ele>1080.623</ele>
        <time>2021-10-15T12:43:58Z</time>
      </trkpt>
      <trkpt lat="42.953696" lon="-4.920151">
        <ele>1080.656</ele>
        <time>2021-10-15T12:44:00Z</time>
      </trkpt>
      <trkpt lat="42.953356" lon="-4.920152">
        <ele>1080.321</ele>
        <time>2021-10-15T12:44:02Z</time>
      </trkpt>
      <trkpt lat="42.952992" lon="-4.919961">
        <ele>1082.577</ele>
        <time>2021-10-15T12:44:04Z</time>
      </trkpt>
      <trkpt lat="42.952782" lon="-4.919810">
        <ele>1082.661</ele>
        <time>2021-10-15T12:44:05Z</time>
      </trkpt>
      <trkpt lat="42.952350" lon="-4.919562">
        <ele>1083.027</ele>
        <time>2021-10-15T12:44:07Z</time>
      </trkpt>
      <trkpt lat="42.952127" lon="-4.919485">
        <ele>1082.908</ele>
        <time>2021-10-15T12:44:08Z</time>
      </trkpt>
      <trkpt lat="42.951693" lon="-4.919352">
        <ele>1084.645</ele>
        <time>2021-10-15T12:44:10Z</time>
      </trkpt>
      <trkpt lat="42.951211" lon="-4.919198">
        <ele>1083.373</ele>
        <time>2021-10-15T12:44:12Z</time>
      </trkpt>
      <trkpt lat="42.950714" lon="-4.918940">
        <ele>1084.551</ele>
        <time>2021-10-15T12:44:14Z</time>
      </trkpt>
      <trkpt lat="42.950225" lon="-4.918566">
        <ele>1084.825</ele>
        <time>2021-10-15T12:44:16Z</time>
      </trkpt>
      <trkpt lat="42.949980" lon="-4.918367">
        <ele>1084.630</ele>
        <time>2021-10-15T12:44:17Z</time>
      </trkpt>
      <trkpt lat="42.949736" lon="-4.918175">
        <ele>1084.828</ele>
        <time>2021-10-15T12:44:18Z</time>
      </trkpt>
      <trkpt lat="42.949242" lon="-4.917843">
        <ele>1085.591</ele>
        <time>2021-10-15T12:44:20Z</time>
      </trkpt>
      <trkpt lat="42.948785" lon="-4.917650">
        <ele>1085.966</ele>
        <time>2021-10-15T12:44:22Z</time>
      </trkpt>
      <trkpt lat="42.948346" lon="-4.917586">
        <ele>1087.031</ele>
        <time>2021-10-15T12:44:24Z</time>
      </trkpt>
      <trkpt lat="42.947929" lon="-4.917565">
        <ele>1085.461</ele>
        <time>2021-10-15T12:44:26Z</time>
      </trkpt>
      <trkpt lat="42.947543" lon="-4.917448">
        <ele>1085.607</ele>
        <time>2021-10-15T12:44:28Z</time>
      </trkpt>
      <trkpt lat="42.947328" lon="-4.917316">
        <ele>1085.008</ele>
        <time>2021-10-15T12:44:29Z</time>
      </trkpt>
      <trkpt lat="42.947092" lon="-4.917140">
        <ele>1085.661</ele>
        <time>2021-10-15T12:44:30Z</time>
      </trkpt>
      <trkpt lat="42.946601" lon="-4.916739">
        <ele>1084.749</ele>
        <time>2021-10-15T12:44:32Z</time>
      </trkpt>
      <trkpt lat="42.946183" lon="-4.916353">
        <ele>1085.747</ele>
        <time>2021-10-15T12:44:34Z</time>
      </trkpt>
      <trkpt lat="42.945984" lon="-4.916131">
        <ele>1086.671</ele>
        <time>2021-10-15T12:44:35Z</time>
      </trkpt>
      <trkpt lat="42.945581" lon="-4.915709">
        <ele>1086.776</ele>
        <time>2021-10-15T12:44:37Z</time>
      </trkpt>
      <trkpt lat="42.945351" lon="-4.915517">
        <ele>1086.424</ele>
        <time>2021-10-15T12:44:38Z</time>
      </trkpt>
      <trkpt lat="42.944877" lon="-4.915237">
        <ele>1086.547</ele>
        <time>2021-10-15T12:44:40Z</time>
      </trkpt>
      <trkpt lat="42.944409" lon="-4.914918">
        <ele>1087.472</ele>
        <time>2021-10-15T12:44:42Z</time>
      </trkpt>
      <trkpt lat="42.943998" lon="-4.914589">
        <ele>1086.568</ele>
        <time>2021-10-15T12:44:44Z</time>
      </trkpt>
      <trkpt lat="42.943592" lon="-4.914312">
        <ele>1087.642</ele>
        <time>2021-10-15T12:44:46Z</time>
      </trkpt>
      <trkpt lat="42.943369" lon="-4.914197">
        <ele>1087.026</ele>
        <time>2021-10-15T12:44:47Z</time>
      </trkpt>
      <trkpt lat="42.942901" lon="-4.914057">
        <ele>1086.408</ele>
        <time>2021-10-15T12:44:49Z</time>
      </trkpt>
      <trkpt lat="42.942654" lon="-4.914027">
        <ele>1086.854</ele>
        <time>2021-10-15T12:44:50Z</time>
      </trkpt>
      <trkpt lat="42.942205" lon="-4.914010">
        <ele>1087.252</ele>
        <time>2021-10-15T12:44:52Z</time>
      </trkpt>
      <trkpt lat="42.942001" lon="-4.914009">
        <ele>1087.020</ele>
        <time>2021-10-15T12:44:53Z</time>
      </trkpt>
      <trkpt lat="42.941811" lon="-4.914012">
        <ele>1087.774</ele>
        <time>2021-10-15T12:44:54Z</time>
      </trkpt>
      <trkpt lat="42.941448" lon="-4.914015">
        <ele>1087.059</ele>
        <time>2021-10-15T12:44:56Z</time>
      </trkpt>
      <trkpt lat="42.941096" lon="-4.914032">
        <ele>1087.057</ele>
        <time>2021-10-15T12:44:58Z</time>
      </trkpt>
      <trkpt lat="42.940723" lon="-4.914074">
        <ele>1087.020</ele>
        <time>2021-10-15T12:45:00Z</time>
      </trkpt>
      <trkpt lat="42.940528" lon="-4.914103">
        <ele>1087.545</ele>
        <time>2021-10-15T12:45:01Z</time>
      </trkpt>
      <trkpt lat="42.940330" lon="-4.914140">
        <ele>1088.284</ele>
        <time>2021-10-15T12:45:02Z</time>
      </trkpt>
      <trkpt lat="42.939967" lon="-4.914200">
        <ele>1088.107</ele>
        <time>2021-10-15T12:45:04Z</time>
      </trkpt>
      <trkpt lat="42.939621" lon="-4.914230">
        <ele>1089.117</ele>
        <time>2021-10-15T12:45:06Z</time>
      </trkpt>
      <trkpt lat="42.939273" lon="-4.914187">
        <ele>1088.408</ele>
        <time>2021-10-15T12:45:08Z</time>
      </trkpt>
      <trkpt lat="42.938958" lon="-4.914039">
        <ele>1088.666</ele>
        <time>2021-10-15T12:45:10Z</time>
      </trkpt>
      <trkpt lat="42.938712" lon="-4.913834">
        <ele>1088.664</ele>
        <time>2021-10-15T12:45:12Z</time>
      </trkpt>
      <trkpt lat="42.938516" lon="-4.913567">
        <ele>1088.882</ele>
        <time>2021-10-15T12:45:14Z</time>
      </trkpt>
      <trkpt lat="42.938408" lon="-4.913245">
        <ele>1089.016</ele>
        <time>2021-10-15T12:45:16Z</time>
      </trkpt>
      <trkpt lat="42.938384" lon="-4.913056">
        <ele>1089.451</ele>
        <time>2021-10-15T12:45:17Z</time>
      </trkpt>
      <trkpt lat="42.938386" lon="-4.912846">
        <ele>1089.539</ele>
        <time>2021-10-15T12:45:18Z</time>
      </trkpt>
      <trkpt lat="42.938408" lon="-4.912613">
        <ele>1089.162</ele>
        <time>2021-10-15T12:45:19Z</time>
      </trkpt>
      <trkpt lat="42.938435" lon="-4.912356">
        <ele>1089.587</ele>
        <time>2021-10-15T12:45:20Z</time>
      </trkpt>
      <trkpt lat="42.938469" lon="-4.911767">
        <ele>1089.465</ele>
        <time>2021-10-15T12:45:22Z</time>
      </trkpt>
      <trkpt lat="42.938490" lon="-4.911453">
        <ele>1087.968</ele>
        <time>2021-10-15T12:45:23Z</time>
      </trkpt>
      <trkpt lat="42.938579" lon="-4.910831">
        <ele>1087.714</ele>
        <time>2021-10-15T12:45:25Z</time>
      </trkpt>
      <trkpt lat="42.938669" lon="-4.910519">
        <ele>1088.008</ele>
        <time>2021-10-15T12:45:26Z</time>
      </trkpt>
      <trkpt lat="42.938922" lon="-4.909953">
        <ele>1088.744</ele>
        <time>2021-10-15T12:45:28Z</time>
      </trkpt>
      <trkpt lat="42.939249" lon="-4.909357">
        <ele>1090.972</ele>
        <time>2021-10-15T12:45:30Z</time>
      </trkpt>
      <trkpt lat="42.939591" lon="-4.908730">
        <ele>1091.180</ele>
        <time>2021-10-15T12:45:32Z</time>
      </trkpt>
      <trkpt lat="42.939903" lon="-4.908108">
        <ele>1093.574</ele>
        <time>2021-10-15T12:45:34Z</time>
      </trkpt>
      <trkpt lat="42.940048" lon="-4.907779">
        <ele>1094.459</ele>
        <time>2021-10-15T12:45:35Z</time>
      </trkpt>
      <trkpt lat="42.940260" lon="-4.907082">
        <ele>1098.447</ele>
        <time>2021-10-15T12:45:37Z</time>
      </trkpt>
      <trkpt lat="42.940318" lon="-4.906707">
        <ele>1099.820</ele>
        <time>2021-10-15T12:45:38Z</time>
      </trkpt>
      <trkpt lat="42.940343" lon="-4.905986">
        <ele>1101.725</ele>
        <time>2021-10-15T12:45:40Z</time>
      </trkpt>
      <trkpt lat="42.940355" lon="-4.905635">
        <ele>1101.998</ele>
        <time>2021-10-15T12:45:41Z</time>
      </trkpt>
      <trkpt lat="42.940362" lon="-4.904950">
        <ele>1104.815</ele>
        <time>2021-10-15T12:45:43Z</time>
      </trkpt>
      <trkpt lat="42.940349" lon="-4.904606">
        <ele>1105.226</ele>
        <time>2021-10-15T12:45:44Z</time>
      </trkpt>
      <trkpt lat="42.940279" lon="-4.903932">
        <ele>1107.208</ele>
        <time>2021-10-15T12:45:46Z</time>
      </trkpt>
      <trkpt lat="42.940228" lon="-4.903602">
        <ele>1108.257</ele>
        <time>2021-10-15T12:45:47Z</time>
      </trkpt>
      <trkpt lat="42.940170" lon="-4.903293">
        <ele>1108.075</ele>
        <time>2021-10-15T12:45:48Z</time>
      </trkpt>
      <trkpt lat="42.940094" lon="-4.902998">
        <ele>1108.073</ele>
        <time>2021-10-15T12:45:49Z</time>
      </trkpt>
      <trkpt lat="42.939990" lon="-4.902712">
        <ele>1108.037</ele>
        <time>2021-10-15T12:45:50Z</time>
      </trkpt>
      <trkpt lat="42.939739" lon="-4.902229">
        <ele>1109.162</ele>
        <time>2021-10-15T12:45:52Z</time>
      </trkpt>
      <trkpt lat="42.939489" lon="-4.901744">
        <ele>1109.740</ele>
        <time>2021-10-15T12:45:54Z</time>
      </trkpt>
      <trkpt lat="42.939387" lon="-4.901463">
        <ele>1110.283</ele>
        <time>2021-10-15T12:45:55Z</time>
      </trkpt>
      <trkpt lat="42.939294" lon="-4.901157">
        <ele>1110.198</ele>
        <time>2021-10-15T12:45:56Z</time>
      </trkpt>
      <trkpt lat="42.939127" lon="-4.900549">
        <ele>1110.853</ele>
        <time>2021-10-15T12:45:58Z</time>
      </trkpt>
      <trkpt lat="42.939039" lon="-4.900236">
        <ele>1111.504</ele>
        <time>2021-10-15T12:45:59Z</time>
      </trkpt>
      <trkpt lat="42.938952" lon="-4.899922">
        <ele>1111.614</ele>
        <time>2021-10-15T12:46:00Z</time>
      </trkpt>
      <trkpt lat="42.938766" lon="-4.899337">
        <ele>1111.208</ele>
        <time>2021-10-15T12:46:02Z</time>
      </trkpt>
      <trkpt lat="42.938514" lon="-4.898843">
        <ele>1111.673</ele>
        <time>2021-10-15T12:46:04Z</time>
      </trkpt>
      <trkpt lat="42.938162" lon="-4.898428">
        <ele>1112.961</ele>
        <time>2021-10-15T12:46:06Z</time>
      </trkpt>
      <trkpt lat="42.937968" lon="-4.898276">
        <ele>1112.429</ele>
        <time>2021-10-15T12:46:07Z</time>
      </trkpt>
      <trkpt lat="42.937781" lon="-4.898141">
        <ele>1113.393</ele>
        <time>2021-10-15T12:46:08Z</time>
      </trkpt>
      <trkpt lat="42.937462" lon="-4.897869">
        <ele>1112.728</ele>
        <time>2021-10-15T12:46:10Z</time>
      </trkpt>
      <trkpt lat="42.937323" lon="-4.897716">
        <ele>1113.026</ele>
        <time>2021-10-15T12:46:11Z</time>
      </trkpt>
      <trkpt lat="42.937085" lon="-4.897406">
        <ele>1112.459</ele>
        <time>2021-10-15T12:46:13Z</time>
      </trkpt>
      <trkpt lat="42.936976" lon="-4.897257">
        <ele>1112.184</ele>
        <time>2021-10-15T12:46:14Z</time>
      </trkpt>
      <trkpt lat="42.936787" lon="-4.896983">
        <ele>1112.761</ele>
        <time>2021-10-15T12:46:16Z</time>
      </trkpt>
      <trkpt lat="42.936706" lon="-4.896843">
        <ele>1112.721</ele>
        <time>2021-10-15T12:46:17Z</time>
      </trkpt>
      <trkpt lat="42.936576" lon="-4.896553">
        <ele>1112.313</ele>
        <time>2021-10-15T12:46:19Z</time>
      </trkpt>
      <trkpt lat="42.936521" lon="-4.896396">
        <ele>1112.108</ele>
        <time>2021-10-15T12:46:20Z</time>
      </trkpt>
      <trkpt lat="42.936413" lon="-4.896067">
        <ele>1114.024</ele>
        <time>2021-10-15T12:46:22Z</time>
      </trkpt>
      <trkpt lat="42.936292" lon="-4.895715">
        <ele>1114.442</ele>
        <time>2021-10-15T12:46:24Z</time>
      </trkpt>
      <trkpt lat="42.936226" lon="-4.895525">
        <ele>1115.490</ele>
        <time>2021-10-15T12:46:25Z</time>
      </trkpt>
      <trkpt lat="42.936155" lon="-4.895324">
        <ele>1113.974</ele>
        <time>2021-10-15T12:46:26Z</time>
      </trkpt>
      <trkpt lat="42.936000" lon="-4.894953">
        <ele>1113.429</ele>
        <time>2021-10-15T12:46:28Z</time>
      </trkpt>
      <trkpt lat="42.935904" lon="-4.894777">
        <ele>1113.817</ele>
        <time>2021-10-15T12:46:29Z</time>
      </trkpt>
      <trkpt lat="42.935662" lon="-4.894464">
        <ele>1112.480</ele>
        <time>2021-10-15T12:46:31Z</time>
      </trkpt>
      <trkpt lat="42.935510" lon="-4.894325">
        <ele>1113.155</ele>
        <time>2021-10-15T12:46:32Z</time>
      </trkpt>
      <trkpt lat="42.935165" lon="-4.894087">
        <ele>1113.983</ele>
        <time>2021-10-15T12:46:34Z</time>
      </trkpt>
      <trkpt lat="42.934971" lon="-4.893962">
        <ele>1115.025</ele>
        <time>2021-10-15T12:46:35Z</time>
      </trkpt>
      <trkpt lat="42.934560" lon="-4.893682">
        <ele>1115.017</ele>
        <time>2021-10-15T12:46:37Z</time>
      </trkpt>
      <trkpt lat="42.934343" lon="-4.893515">
        <ele>1115.008</ele>
        <time>2021-10-15T12:46:38Z</time>
      </trkpt>
      <trkpt lat="42.933942" lon="-4.893142">
        <ele>1118.146</ele>
        <time>2021-10-15T12:46:40Z</time>
      </trkpt>
      <trkpt lat="42.933751" lon="-4.892927">
        <ele>1118.764</ele>
        <time>2021-10-15T12:46:41Z</time>
      </trkpt>
      <trkpt lat="42.933573" lon="-4.892713">
        <ele>1119.582</ele>
        <time>2021-10-15T12:46:42Z</time>
      </trkpt>
      <trkpt lat="42.933408" lon="-4.892516">
        <ele>1120.996</ele>
        <time>2021-10-15T12:46:43Z</time>
      </trkpt>
      <trkpt lat="42.933248" lon="-4.892328">
        <ele>1120.861</ele>
        <time>2021-10-15T12:46:44Z</time>
      </trkpt>
      <trkpt lat="42.932930" lon="-4.891970">
        <ele>1120.099</ele>
        <time>2021-10-15T12:46:46Z</time>
      </trkpt>
      <trkpt lat="42.932755" lon="-4.891791">
        <ele>1120.692</ele>
        <time>2021-10-15T12:46:47Z</time>
      </trkpt>
      <trkpt lat="42.932372" lon="-4.891535">
        <ele>1121.637</ele>
        <time>2021-10-15T12:46:49Z</time>
      </trkpt>
      <trkpt lat="42.932143" lon="-4.891469">
        <ele>1122.768</ele>
        <time>2021-10-15T12:46:50Z</time>
      </trkpt>
      <trkpt lat="42.931649" lon="-4.891472">
        <ele>1125.342</ele>
        <time>2021-10-15T12:46:52Z</time>
      </trkpt>
      <trkpt lat="42.931186" lon="-4.891597">
        <ele>1126.126</ele>
        <time>2021-10-15T12:46:54Z</time>
      </trkpt>
      <trkpt lat="42.930959" lon="-4.891645">
        <ele>1127.308</ele>
        <time>2021-10-15T12:46:55Z</time>
      </trkpt>
      <trkpt lat="42.930733" lon="-4.891679">
        <ele>1129.054</ele>
        <time>2021-10-15T12:46:56Z</time>
      </trkpt>
      <trkpt lat="42.930344" lon="-4.891693">
        <ele>1129.652</ele>
        <time>2021-10-15T12:46:58Z</time>
      </trkpt>
      <trkpt lat="42.929942" lon="-4.891584">
        <ele>1130.280</ele>
        <time>2021-10-15T12:47:00Z</time>
      </trkpt>
      <trkpt lat="42.929731" lon="-4.891455">
        <ele>1131.074</ele>
        <time>2021-10-15T12:47:01Z</time>
      </trkpt>
      <trkpt lat="42.929518" lon="-4.891277">
        <ele>1132.149</ele>
        <time>2021-10-15T12:47:02Z</time>
      </trkpt>
      <trkpt lat="42.929130" lon="-4.890908">
        <ele>1131.977</ele>
        <time>2021-10-15T12:47:04Z</time>
      </trkpt>
      <trkpt lat="42.928950" lon="-4.890741">
        <ele>1132.320</ele>
        <time>2021-10-15T12:47:05Z</time>
      </trkpt>
      <trkpt lat="42.928774" lon="-4.890586">
        <ele>1132.575</ele>
        <time>2021-10-15T12:47:06Z</time>
      </trkpt>
      <trkpt lat="42.928455" lon="-4.890263">
        <ele>1132.081</ele>
        <time>2021-10-15T12:47:08Z</time>
      </trkpt>
      <trkpt lat="42.928202" lon="-4.889860">
        <ele>1133.161</ele>
        <time>2021-10-15T12:47:10Z</time>
      </trkpt>
      <trkpt lat="42.928013" lon="-4.889334">
        <ele>1133.017</ele>
        <time>2021-10-15T12:47:12Z</time>
      </trkpt>
      <trkpt lat="42.927926" lon="-4.889053">
        <ele>1134.808</ele>
        <time>2021-10-15T12:47:13Z</time>
      </trkpt>
      <trkpt lat="42.927839" lon="-4.888781">
        <ele>1136.556</ele>
        <time>2021-10-15T12:47:14Z</time>
      </trkpt>
      <trkpt lat="42.927692" lon="-4.888245">
        <ele>1137.464</ele>
        <time>2021-10-15T12:47:16Z</time>
      </trkpt>
      <trkpt lat="42.927591" lon="-4.887650">
        <ele>1138.732</ele>
        <time>2021-10-15T12:47:18Z</time>
      </trkpt>
      <trkpt lat="42.927483" lon="-4.887065">
        <ele>1141.196</ele>
        <time>2021-10-15T12:47:20Z</time>
      </trkpt>
      <trkpt lat="42.927333" lon="-4.886583">
        <ele>1144.871</ele>
        <time>2021-10-15T12:47:22Z</time>
      </trkpt>
      <trkpt lat="42.927216" lon="-4.886091">
        <ele>1147.149</ele>
        <time>2021-10-15T12:47:24Z</time>
      </trkpt>
      <trkpt lat="42.927199" lon="-4.885818">
        <ele>1148.912</ele>
        <time>2021-10-15T12:47:25Z</time>
      </trkpt>
      <trkpt lat="42.927212" lon="-4.885519">
        <ele>1150.037</ele>
        <time>2021-10-15T12:47:26Z</time>
      </trkpt>
      <trkpt lat="42.927273" lon="-4.884934">
        <ele>1150.914</ele>
        <time>2021-10-15T12:47:28Z</time>
      </trkpt>
      <trkpt lat="42.927412" lon="-4.884353">
        <ele>1152.954</ele>
        <time>2021-10-15T12:47:30Z</time>
      </trkpt>
      <trkpt lat="42.927580" lon="-4.883798">
        <ele>1154.309</ele>
        <time>2021-10-15T12:47:32Z</time>
      </trkpt>
      <trkpt lat="42.927680" lon="-4.883264">
        <ele>1154.808</ele>
        <time>2021-10-15T12:47:34Z</time>
      </trkpt>
      <trkpt lat="42.927658" lon="-4.882705">
        <ele>1156.239</ele>
        <time>2021-10-15T12:47:36Z</time>
      </trkpt>
      <trkpt lat="42.927494" lon="-4.882158">
        <ele>1157.347</ele>
        <time>2021-10-15T12:47:38Z</time>
      </trkpt>
      <trkpt lat="42.927301" lon="-4.881589">
        <ele>1161.345</ele>
        <time>2021-10-15T12:47:40Z</time>
      </trkpt>
      <trkpt lat="42.927163" lon="-4.881011">
        <ele>1163.949</ele>
        <time>2021-10-15T12:47:42Z</time>
      </trkpt>
      <trkpt lat="42.927103" lon="-4.880739">
        <ele>1165.914</ele>
        <time>2021-10-15T12:47:43Z</time>
      </trkpt>
      <trkpt lat="42.927014" lon="-4.880458">
        <ele>1167.422</ele>
        <time>2021-10-15T12:47:44Z</time>
      </trkpt>
      <trkpt lat="42.926785" lon="-4.879920">
        <ele>1170.215</ele>
        <time>2021-10-15T12:47:46Z</time>
      </trkpt>
      <trkpt lat="42.926570" lon="-4.879404">
        <ele>1174.440</ele>
        <time>2021-10-15T12:47:48Z</time>
      </trkpt>
      <trkpt lat="42.926384" lon="-4.878918">
        <ele>1176.237</ele>
        <time>2021-10-15T12:47:50Z</time>
      </trkpt>
      <trkpt lat="42.926266" lon="-4.878501">
        <ele>1179.749</ele>
        <time>2021-10-15T12:47:52Z</time>
      </trkpt>
      <trkpt lat="42.926247" lon="-4.878102">
        <ele>1182.513</ele>
        <time>2021-10-15T12:47:54Z</time>
      </trkpt>
      <trkpt lat="42.926290" lon="-4.877901">
        <ele>1183.008</ele>
        <time>2021-10-15T12:47:55Z</time>
      </trkpt>
      <trkpt lat="42.926381" lon="-4.877714">
        <ele>1184.981</ele>
        <time>2021-10-15T12:47:56Z</time>
      </trkpt>
      <trkpt lat="42.926590" lon="-4.877400">
        <ele>1187.749</ele>
        <time>2021-10-15T12:47:58Z</time>
      </trkpt>
      <trkpt lat="42.926642" lon="-4.877224">
        <ele>1188.537</ele>
        <time>2021-10-15T12:47:59Z</time>
      </trkpt>
      <trkpt lat="42.926643" lon="-4.877042">
        <ele>1189.451</ele>
        <time>2021-10-15T12:48:00Z</time>
      </trkpt>
      <trkpt lat="42.926541" lon="-4.876681">
        <ele>1189.946</ele>
        <time>2021-10-15T12:48:02Z</time>
      </trkpt>
      <trkpt lat="42.926281" lon="-4.876446">
        <ele>1194.094</ele>
        <time>2021-10-15T12:48:04Z</time>
      </trkpt>
      <trkpt lat="42.926135" lon="-4.876344">
        <ele>1195.477</ele>
        <time>2021-10-15T12:48:05Z</time>
      </trkpt>
      <trkpt lat="42.925933" lon="-4.876032">
        <ele>1197.872</ele>
        <time>2021-10-15T12:48:07Z</time>
      </trkpt>
      <trkpt lat="42.925898" lon="-4.875793">
        <ele>1199.863</ele>
        <time>2021-10-15T12:48:08Z</time>
      </trkpt>
      <trkpt lat="42.925906" lon="-4.875303">
        <ele>1200.744</ele>
        <time>2021-10-15T12:48:10Z</time>
      </trkpt>
      <trkpt lat="42.925779" lon="-4.874855">
        <ele>1203.318</ele>
        <time>2021-10-15T12:48:12Z</time>
      </trkpt>
      <trkpt lat="42.925686" lon="-4.874632">
        <ele>1204.208</ele>
        <time>2021-10-15T12:48:13Z</time>
      </trkpt>
      <trkpt lat="42.925623" lon="-4.874386">
        <ele>1204.984</ele>
        <time>2021-10-15T12:48:14Z</time>
      </trkpt>
      <trkpt lat="42.925628" lon="-4.873842">
        <ele>1207.982</ele>
        <time>2021-10-15T12:48:16Z</time>
      </trkpt>
      <trkpt lat="42.925702" lon="-4.873553">
        <ele>1209.470</ele>
        <time>2021-10-15T12:48:17Z</time>
      </trkpt>
      <trkpt lat="42.925953" lon="-4.872995">
        <ele>1212.744</ele>
        <time>2021-10-15T12:48:19Z</time>
      </trkpt>
      <trkpt lat="42.926097" lon="-4.872739">
        <ele>1214.899</ele>
        <time>2021-10-15T12:48:20Z</time>
      </trkpt>
      <trkpt lat="42.926341" lon="-4.872332">
        <ele>1216.957</ele>
        <time>2021-10-15T12:48:22Z</time>
      </trkpt>
      <trkpt lat="42.926426" lon="-4.872152">
        <ele>1218.740</ele>
        <time>2021-10-15T12:48:23Z</time>
      </trkpt>
      <trkpt lat="42.926478" lon="-4.871790">
        <ele>1222.785</ele>
        <time>2021-10-15T12:48:25Z</time>
      </trkpt>
      <trkpt lat="42.926446" lon="-4.871611">
        <ele>1224.051</ele>
        <time>2021-10-15T12:48:26Z</time>
      </trkpt>
      <trkpt lat="42.926244" lon="-4.871338">
        <ele>1228.301</ele>
        <time>2021-10-15T12:48:28Z</time>
      </trkpt>
      <trkpt lat="42.926116" lon="-4.871233">
        <ele>1229.511</ele>
        <time>2021-10-15T12:48:29Z</time>
      </trkpt>
      <trkpt lat="42.925931" lon="-4.870962">
        <ele>1231.408</ele>
        <time>2021-10-15T12:48:31Z</time>
      </trkpt>
      <trkpt lat="42.925883" lon="-4.870769">
        <ele>1232.753</ele>
        <time>2021-10-15T12:48:32Z</time>
      </trkpt>
      <trkpt lat="42.925896" lon="-4.870268">
        <ele>1236.041</ele>
        <time>2021-10-15T12:48:34Z</time>
      </trkpt>
      <trkpt lat="42.925788" lon="-4.869724">
        <ele>1240.699</ele>
        <time>2021-10-15T12:48:36Z</time>
      </trkpt>
      <trkpt lat="42.925573" lon="-4.869299">
        <ele>1243.663</ele>
        <time>2021-10-15T12:48:38Z</time>
      </trkpt>
      <trkpt lat="42.925330" lon="-4.869107">
        <ele>1245.538</ele>
        <time>2021-10-15T12:48:40Z</time>
      </trkpt>
      <trkpt lat="42.925183" lon="-4.869125">
        <ele>1246.686</ele>
        <time>2021-10-15T12:48:41Z</time>
      </trkpt>
      <trkpt lat="42.924920" lon="-4.869342">
        <ele>1248.829</ele>
        <time>2021-10-15T12:48:43Z</time>
      </trkpt>
      <trkpt lat="42.924797" lon="-4.869453">
        <ele>1249.034</ele>
        <time>2021-10-15T12:48:44Z</time>
      </trkpt>
      <trkpt lat="42.924564" lon="-4.869521">
        <ele>1251.083</ele>
        <time>2021-10-15T12:48:46Z</time>
      </trkpt>
      <trkpt lat="42.924441" lon="-4.869455">
        <ele>1251.825</ele>
        <time>2021-10-15T12:48:47Z</time>
      </trkpt>
      <trkpt lat="42.924255" lon="-4.869135">
        <ele>1251.917</ele>
        <time>2021-10-15T12:48:49Z</time>
      </trkpt>
      <trkpt lat="42.924216" lon="-4.868909">
        <ele>1252.308</ele>
        <time>2021-10-15T12:48:50Z</time>
      </trkpt>
      <trkpt lat="42.924200" lon="-4.868429">
        <ele>1253.016</ele>
        <time>2021-10-15T12:48:52Z</time>
      </trkpt>
      <trkpt lat="42.924139" lon="-4.868206">
        <ele>1254.094</ele>
        <time>2021-10-15T12:48:53Z</time>
      </trkpt>
      <trkpt lat="42.924028" lon="-4.867993">
        <ele>1255.412</ele>
        <time>2021-10-15T12:48:54Z</time>
      </trkpt>
      <trkpt lat="42.923879" lon="-4.867782">
        <ele>1256.466</ele>
        <time>2021-10-15T12:48:55Z</time>
      </trkpt>
      <trkpt lat="42.923707" lon="-4.867556">
        <ele>1256.881</ele>
        <time>2021-10-15T12:48:56Z</time>
      </trkpt>
      <trkpt lat="42.923426" lon="-4.867084">
        <ele>1258.629</ele>
        <time>2021-10-15T12:48:58Z</time>
      </trkpt>
      <trkpt lat="42.923332" lon="-4.866839">
        <ele>1259.932</ele>
        <time>2021-10-15T12:48:59Z</time>
      </trkpt>
      <trkpt lat="42.923251" lon="-4.866383">
        <ele>1262.377</ele>
        <time>2021-10-15T12:49:01Z</time>
      </trkpt>
      <trkpt lat="42.923217" lon="-4.866176">
        <ele>1262.136</ele>
        <time>2021-10-15T12:49:02Z</time>
      </trkpt>
      <trkpt lat="42.923045" lon="-4.865838">
        <ele>1265.217</ele>
        <time>2021-10-15T12:49:04Z</time>
      </trkpt>
      <trkpt lat="42.922726" lon="-4.865684">
        <ele>1268.218</ele>
        <time>2021-10-15T12:49:06Z</time>
      </trkpt>
      <trkpt lat="42.922508" lon="-4.865668">
        <ele>1269.608</ele>
        <time>2021-10-15T12:49:07Z</time>
      </trkpt>
      <trkpt lat="42.922272" lon="-4.865642">
        <ele>1271.161</ele>
        <time>2021-10-15T12:49:08Z</time>
      </trkpt>
      <trkpt lat="42.921831" lon="-4.865574">
        <ele>1272.359</ele>
        <time>2021-10-15T12:49:10Z</time>
      </trkpt>
      <trkpt lat="42.921639" lon="-4.865543">
        <ele>1273.747</ele>
        <time>2021-10-15T12:49:11Z</time>
      </trkpt>
      <trkpt lat="42.921310" lon="-4.865534">
        <ele>1274.521</ele>
        <time>2021-10-15T12:49:13Z</time>
      </trkpt>
      <trkpt lat="42.921146" lon="-4.865577">
        <ele>1275.556</ele>
        <time>2021-10-15T12:49:14Z</time>
      </trkpt>
      <trkpt lat="42.920816" lon="-4.865784">
        <ele>1275.834</ele>
        <time>2021-10-15T12:49:16Z</time>
      </trkpt>
      <trkpt lat="42.920648" lon="-4.865957">
        <ele>1276.517</ele>
        <time>2021-10-15T12:49:17Z</time>
      </trkpt>
      <trkpt lat="42.920317" lon="-4.866334">
        <ele>1276.622</ele>
        <time>2021-10-15T12:49:19Z</time>
      </trkpt>
      <trkpt lat="42.920162" lon="-4.866508">
        <ele>1276.616</ele>
        <time>2021-10-15T12:49:20Z</time>
      </trkpt>
      <trkpt lat="42.919889" lon="-4.866801">
        <ele>1276.576</ele>
        <time>2021-10-15T12:49:22Z</time>
      </trkpt>
      <trkpt lat="42.919762" lon="-4.866935">
        <ele>1275.813</ele>
        <time>2021-10-15T12:49:23Z</time>
      </trkpt>
      <trkpt lat="42.919639" lon="-4.867063">
        <ele>1274.808</ele>
        <time>2021-10-15T12:49:24Z</time>
      </trkpt>
      <trkpt lat="42.919513" lon="-4.867187">
        <ele>1274.519</ele>
        <time>2021-10-15T12:49:25Z</time>
      </trkpt>
      <trkpt lat="42.919375" lon="-4.867308">
        <ele>1273.657</ele>
        <time>2021-10-15T12:49:26Z</time>
      </trkpt>
      <trkpt lat="42.919057" lon="-4.867482">
        <ele>1272.175</ele>
        <time>2021-10-15T12:49:28Z</time>
      </trkpt>
      <trkpt lat="42.918680" lon="-4.867607">
        <ele>1269.249</ele>
        <time>2021-10-15T12:49:30Z</time>
      </trkpt>
      <trkpt lat="42.918485" lon="-4.867677">
        <ele>1267.624</ele>
        <time>2021-10-15T12:49:31Z</time>
      </trkpt>
      <trkpt lat="42.918295" lon="-4.867768">
        <ele>1266.462</ele>
        <time>2021-10-15T12:49:32Z</time>
      </trkpt>
      <trkpt lat="42.917990" lon="-4.868035">
        <ele>1263.365</ele>
        <time>2021-10-15T12:49:34Z</time>
      </trkpt>
      <trkpt lat="42.917870" lon="-4.868206">
        <ele>1263.270</ele>
        <time>2021-10-15T12:49:35Z</time>
      </trkpt>
      <trkpt lat="42.917632" lon="-4.868476">
        <ele>1261.415</ele>
        <time>2021-10-15T12:49:37Z</time>
      </trkpt>
      <trkpt lat="42.917475" lon="-4.868533">
        <ele>1259.765</ele>
        <time>2021-10-15T12:49:38Z</time>
      </trkpt>
      <trkpt lat="42.917071" lon="-4.868491">
        <ele>1257.611</ele>
        <time>2021-10-15T12:49:40Z</time>
      </trkpt>
      <trkpt lat="42.916849" lon="-4.868476">
        <ele>1256.708</ele>
        <time>2021-10-15T12:49:41Z</time>
      </trkpt>
      <trkpt lat="42.916632" lon="-4.868495">
        <ele>1255.429</ele>
        <time>2021-10-15T12:49:42Z</time>
      </trkpt>
      <trkpt lat="42.916338" lon="-4.868687">
        <ele>1254.447</ele>
        <time>2021-10-15T12:49:44Z</time>
      </trkpt>
      <trkpt lat="42.916228" lon="-4.868998">
        <ele>1253.765</ele>
        <time>2021-10-15T12:49:46Z</time>
      </trkpt>
      <trkpt lat="42.916187" lon="-4.869213">
        <ele>1253.399</ele>
        <time>2021-10-15T12:49:47Z</time>
      </trkpt>
      <trkpt lat="42.916137" lon="-4.869459">
        <ele>1253.144</ele>
        <time>2021-10-15T12:49:48Z</time>
      </trkpt>
      <trkpt lat="42.915941" lon="-4.869999">
        <ele>1252.032</ele>
        <time>2021-10-15T12:49:50Z</time>
      </trkpt>
      <trkpt lat="42.915648" lon="-4.870513">
        <ele>1250.275</ele>
        <time>2021-10-15T12:49:52Z</time>
      </trkpt>
      <trkpt lat="42.915466" lon="-4.870770">
        <ele>1249.650</ele>
        <time>2021-10-15T12:49:53Z</time>
      </trkpt>
      <trkpt lat="42.915279" lon="-4.871016">
        <ele>1249.774</ele>
        <time>2021-10-15T12:49:54Z</time>
      </trkpt>
      <trkpt lat="42.914878" lon="-4.871412">
        <ele>1248.656</ele>
        <time>2021-10-15T12:49:56Z</time>
      </trkpt>
      <trkpt lat="42.914451" lon="-4.871681">
        <ele>1249.121</ele>
        <time>2021-10-15T12:49:58Z</time>
      </trkpt>
      <trkpt lat="42.914237" lon="-4.871834">
        <ele>1248.508</ele>
        <time>2021-10-15T12:49:59Z</time>
      </trkpt>
      <trkpt lat="42.913839" lon="-4.872239">
        <ele>1248.335</ele>
        <time>2021-10-15T12:50:01Z</time>
      </trkpt>
      <trkpt lat="42.913641" lon="-4.872524">
        <ele>1248.443</ele>
        <time>2021-10-15T12:50:02Z</time>
      </trkpt>
      <trkpt lat="42.913323" lon="-4.873150">
        <ele>1247.461</ele>
        <time>2021-10-15T12:50:04Z</time>
      </trkpt>
      <trkpt lat="42.913180" lon="-4.873453">
        <ele>1247.045</ele>
        <time>2021-10-15T12:50:05Z</time>
      </trkpt>
      <trkpt lat="42.912913" lon="-4.873986">
        <ele>1247.630</ele>
        <time>2021-10-15T12:50:07Z</time>
      </trkpt>
      <trkpt lat="42.912774" lon="-4.874223">
        <ele>1247.158</ele>
        <time>2021-10-15T12:50:08Z</time>
      </trkpt>
      <trkpt lat="42.912454" lon="-4.874642">
        <ele>1247.511</ele>
        <time>2021-10-15T12:50:10Z</time>
      </trkpt>
      <trkpt lat="42.912262" lon="-4.874831">
        <ele>1247.526</ele>
        <time>2021-10-15T12:50:11Z</time>
      </trkpt>
      <trkpt lat="42.911822" lon="-4.875132">
        <ele>1247.585</ele>
        <time>2021-10-15T12:50:13Z</time>
      </trkpt>
      <trkpt lat="42.911579" lon="-4.875241">
        <ele>1247.589</ele>
        <time>2021-10-15T12:50:14Z</time>
      </trkpt>
      <trkpt lat="42.911124" lon="-4.875343">
        <ele>1245.817</ele>
        <time>2021-10-15T12:50:16Z</time>
      </trkpt>
      <trkpt lat="42.910904" lon="-4.875341">
        <ele>1244.908</ele>
        <time>2021-10-15T12:50:17Z</time>
      </trkpt>
      <trkpt lat="42.910688" lon="-4.875316">
        <ele>1244.586</ele>
        <time>2021-10-15T12:50:18Z</time>
      </trkpt>
      <trkpt lat="42.910247" lon="-4.875203">
        <ele>1243.934</ele>
        <time>2021-10-15T12:50:20Z</time>
      </trkpt>
      <trkpt lat="42.909824" lon="-4.874972">
        <ele>1243.142</ele>
        <time>2021-10-15T12:50:22Z</time>
      </trkpt>
      <trkpt lat="42.909435" lon="-4.874631">
        <ele>1242.526</ele>
        <time>2021-10-15T12:50:24Z</time>
      </trkpt>
      <trkpt lat="42.909269" lon="-4.874433">
        <ele>1242.291</ele>
        <time>2021-10-15T12:50:25Z</time>
      </trkpt>
      <trkpt lat="42.909115" lon="-4.874214">
        <ele>1241.529</ele>
        <time>2021-10-15T12:50:26Z</time>
      </trkpt>
      <trkpt lat="42.908849" lon="-4.873733">
        <ele>1241.652</ele>
        <time>2021-10-15T12:50:28Z</time>
      </trkpt>
      <trkpt lat="42.908738" lon="-4.873465">
        <ele>1240.817</ele>
        <time>2021-10-15T12:50:29Z</time>
      </trkpt>
      <trkpt lat="42.908563" lon="-4.872942">
        <ele>1239.314</ele>
        <time>2021-10-15T12:50:31Z</time>
      </trkpt>
      <trkpt lat="42.908479" lon="-4.872689">
        <ele>1238.954</ele>
        <time>2021-10-15T12:50:32Z</time>
      </trkpt>
      <trkpt lat="42.908302" lon="-4.872281">
        <ele>1238.609</ele>
        <time>2021-10-15T12:50:34Z</time>
      </trkpt>
      <trkpt lat="42.908190" lon="-4.872098">
        <ele>1237.708</ele>
        <time>2021-10-15T12:50:35Z</time>
      </trkpt>
      <trkpt lat="42.907926" lon="-4.871835">
        <ele>1237.079</ele>
        <time>2021-10-15T12:50:37Z</time>
      </trkpt>
      <trkpt lat="42.907788" lon="-4.871770">
        <ele>1237.437</ele>
        <time>2021-10-15T12:50:38Z</time>
      </trkpt>
      <trkpt lat="42.907533" lon="-4.871798">
        <ele>1238.065</ele>
        <time>2021-10-15T12:50:40Z</time>
      </trkpt>
      <trkpt lat="42.907351" lon="-4.872075">
        <ele>1237.519</ele>
        <time>2021-10-15T12:50:42Z</time>
      </trkpt>
      <trkpt lat="42.907249" lon="-4.872595">
        <ele>1240.144</ele>
        <time>2021-10-15T12:50:44Z</time>
      </trkpt>
      <trkpt lat="42.907060" lon="-4.873176">
        <ele>1239.712</ele>
        <time>2021-10-15T12:50:46Z</time>
      </trkpt>
      <trkpt lat="42.906902" lon="-4.873470">
        <ele>1239.295</ele>
        <time>2021-10-15T12:50:47Z</time>
      </trkpt>
      <trkpt lat="42.906459" lon="-4.874044">
        <ele>1239.060</ele>
        <time>2021-10-15T12:50:49Z</time>
      </trkpt>
      <trkpt lat="42.906213" lon="-4.874346">
        <ele>1238.076</ele>
        <time>2021-10-15T12:50:50Z</time>
      </trkpt>
      <trkpt lat="42.905773" lon="-4.874882">
        <ele>1237.090</ele>
        <time>2021-10-15T12:50:52Z</time>
      </trkpt>
      <trkpt lat="42.905363" lon="-4.875396">
        <ele>1236.519</ele>
        <time>2021-10-15T12:50:54Z</time>
      </trkpt>
      <trkpt lat="42.904964" lon="-4.875920">
        <ele>1235.108</ele>
        <time>2021-10-15T12:50:56Z</time>
      </trkpt>
      <trkpt lat="42.904620" lon="-4.876364">
        <ele>1232.965</ele>
        <time>2021-10-15T12:50:58Z</time>
      </trkpt>
      <trkpt lat="42.904458" lon="-4.876597">
        <ele>1232.563</ele>
        <time>2021-10-15T12:50:59Z</time>
      </trkpt>
      <trkpt lat="42.904238" lon="-4.877135">
        <ele>1231.961</ele>
        <time>2021-10-15T12:51:01Z</time>
      </trkpt>
      <trkpt lat="42.904183" lon="-4.877456">
        <ele>1231.975</ele>
        <time>2021-10-15T12:51:02Z</time>
      </trkpt>
      <trkpt lat="42.904152" lon="-4.878150">
        <ele>1230.860</ele>
        <time>2021-10-15T12:51:04Z</time>
      </trkpt>
      <trkpt lat="42.904136" lon="-4.878516">
        <ele>1231.598</ele>
        <time>2021-10-15T12:51:05Z</time>
      </trkpt>
      <trkpt lat="42.904052" lon="-4.879196">
        <ele>1231.751</ele>
        <time>2021-10-15T12:51:07Z</time>
      </trkpt>
      <trkpt lat="42.903965" lon="-4.879525">
        <ele>1231.556</ele>
        <time>2021-10-15T12:51:08Z</time>
      </trkpt>
      <trkpt lat="42.903702" lon="-4.880165">
        <ele>1231.748</ele>
        <time>2021-10-15T12:51:10Z</time>
      </trkpt>
      <trkpt lat="42.903369" lon="-4.880750">
        <ele>1231.461</ele>
        <time>2021-10-15T12:51:12Z</time>
      </trkpt>
      <trkpt lat="42.903080" lon="-4.881285">
        <ele>1231.217</ele>
        <time>2021-10-15T12:51:14Z</time>
      </trkpt>
      <trkpt lat="42.902852" lon="-4.881805">
        <ele>1230.908</ele>
        <time>2021-10-15T12:51:16Z</time>
      </trkpt>
      <trkpt lat="42.902665" lon="-4.882367">
        <ele>1231.932</ele>
        <time>2021-10-15T12:51:18Z</time>
      </trkpt>
      <trkpt lat="42.902556" lon="-4.882642">
        <ele>1231.790</ele>
        <time>2021-10-15T12:51:19Z</time>
      </trkpt>
      <trkpt lat="42.902418" lon="-4.882905">
        <ele>1231.528</ele>
        <time>2021-10-15T12:51:20Z</time>
      </trkpt>
      <trkpt lat="42.902062" lon="-4.883331">
        <ele>1232.642</ele>
        <time>2021-10-15T12:51:22Z</time>
      </trkpt>
      <trkpt lat="42.901840" lon="-4.883513">
        <ele>1232.137</ele>
        <time>2021-10-15T12:51:23Z</time>
      </trkpt>
      <trkpt lat="42.901378" lon="-4.883861">
        <ele>1232.055</ele>
        <time>2021-10-15T12:51:25Z</time>
      </trkpt>
      <trkpt lat="42.901150" lon="-4.884037">
        <ele>1231.078</ele>
        <time>2021-10-15T12:51:26Z</time>
      </trkpt>
      <trkpt lat="42.900724" lon="-4.884370">
        <ele>1229.393</ele>
        <time>2021-10-15T12:51:28Z</time>
      </trkpt>
      <trkpt lat="42.900276" lon="-4.884700">
        <ele>1228.588</ele>
        <time>2021-10-15T12:51:30Z</time>
      </trkpt>
      <trkpt lat="42.900042" lon="-4.884853">
        <ele>1227.924</ele>
        <time>2021-10-15T12:51:31Z</time>
      </trkpt>
      <trkpt lat="42.899819" lon="-4.884984">
        <ele>1227.626</ele>
        <time>2021-10-15T12:51:32Z</time>
      </trkpt>
      <trkpt lat="42.899437" lon="-4.885184">
        <ele>1227.308</ele>
        <time>2021-10-15T12:51:34Z</time>
      </trkpt>
      <trkpt lat="42.899266" lon="-4.885268">
        <ele>1225.916</ele>
        <time>2021-10-15T12:51:35Z</time>
      </trkpt>
      <trkpt lat="42.899108" lon="-4.885348">
        <ele>1225.314</ele>
        <time>2021-10-15T12:51:36Z</time>
      </trkpt>
      <trkpt lat="42.898955" lon="-4.885425">
        <ele>1224.792</ele>
        <time>2021-10-15T12:51:37Z</time>
      </trkpt>
      <trkpt lat="42.898804" lon="-4.885497">
        <ele>1224.276</ele>
        <time>2021-10-15T12:51:38Z</time>
      </trkpt>
      <trkpt lat="42.898525" lon="-4.885632">
        <ele>1223.151</ele>
        <time>2021-10-15T12:51:40Z</time>
      </trkpt>
      <trkpt lat="42.898256" lon="-4.885781">
        <ele>1221.949</ele>
        <time>2021-10-15T12:51:42Z</time>
      </trkpt>
      <trkpt lat="42.897998" lon="-4.885996">
        <ele>1221.172</ele>
        <time>2021-10-15T12:51:44Z</time>
      </trkpt>
      <trkpt lat="42.897782" lon="-4.886284">
        <ele>1219.757</ele>
        <time>2021-10-15T12:51:46Z</time>
      </trkpt>
      <trkpt lat="42.897696" lon="-4.886462">
        <ele>1220.145</ele>
        <time>2021-10-15T12:51:47Z</time>
      </trkpt>
      <trkpt lat="42.897524" lon="-4.886802">
        <ele>1219.947</ele>
        <time>2021-10-15T12:51:49Z</time>
      </trkpt>
      <trkpt lat="42.897434" lon="-4.886957">
        <ele>1219.711</ele>
        <time>2021-10-15T12:51:50Z</time>
      </trkpt>
      <trkpt lat="42.897270" lon="-4.887237">
        <ele>1218.608</ele>
        <time>2021-10-15T12:51:52Z</time>
      </trkpt>
      <trkpt lat="42.897164" lon="-4.887536">
        <ele>1218.992</ele>
        <time>2021-10-15T12:51:54Z</time>
      </trkpt>
      <trkpt lat="42.897134" lon="-4.887688">
        <ele>1218.910</ele>
        <time>2021-10-15T12:51:55Z</time>
      </trkpt>
      <trkpt lat="42.897100" lon="-4.887828">
        <ele>1218.388</ele>
        <time>2021-10-15T12:51:56Z</time>
      </trkpt>
      <trkpt lat="42.896978" lon="-4.888029">
        <ele>1216.692</ele>
        <time>2021-10-15T12:51:58Z</time>
      </trkpt>
      <trkpt lat="42.896850" lon="-4.888066">
        <ele>1216.347</ele>
        <time>2021-10-15T12:51:59Z</time>
      </trkpt>
      <trkpt lat="42.896685" lon="-4.888068">
        <ele>1214.825</ele>
        <time>2021-10-15T12:52:00Z</time>
      </trkpt>
      <trkpt lat="42.896258" lon="-4.888011">
        <ele>1214.618</ele>
        <time>2021-10-15T12:52:02Z</time>
      </trkpt>
      <trkpt lat="42.895791" lon="-4.887943">
        <ele>1212.543</ele>
        <time>2021-10-15T12:52:04Z</time>
      </trkpt>
      <trkpt lat="42.895570" lon="-4.887911">
        <ele>1212.233</ele>
        <time>2021-10-15T12:52:05Z</time>
      </trkpt>
      <trkpt lat="42.895362" lon="-4.887882">
        <ele>1211.923</ele>
        <time>2021-10-15T12:52:06Z</time>
      </trkpt>
      <trkpt lat="42.894977" lon="-4.887839">
        <ele>1211.115</ele>
        <time>2021-10-15T12:52:08Z</time>
      </trkpt>
      <trkpt lat="42.894621" lon="-4.887793">
        <ele>1210.708</ele>
        <time>2021-10-15T12:52:10Z</time>
      </trkpt>
      <trkpt lat="42.894432" lon="-4.887772">
        <ele>1210.371</ele>
        <time>2021-10-15T12:52:11Z</time>
      </trkpt>
      <trkpt lat="42.894035" lon="-4.887727">
        <ele>1208.849</ele>
        <time>2021-10-15T12:52:13Z</time>
      </trkpt>
      <trkpt lat="42.893821" lon="-4.887703">
        <ele>1208.797</ele>
        <time>2021-10-15T12:52:14Z</time>
      </trkpt>
      <trkpt lat="42.893388" lon="-4.887649">
        <ele>1208.071</ele>
        <time>2021-10-15T12:52:16Z</time>
      </trkpt>
      <trkpt lat="42.893152" lon="-4.887619">
        <ele>1207.666</ele>
        <time>2021-10-15T12:52:17Z</time>
      </trkpt>
      <trkpt lat="42.892667" lon="-4.887578">
        <ele>1206.984</ele>
        <time>2021-10-15T12:52:19Z</time>
      </trkpt>
      <trkpt lat="42.892418" lon="-4.887584">
        <ele>1206.257</ele>
        <time>2021-10-15T12:52:20Z</time>
      </trkpt>
      <trkpt lat="42.891945" lon="-4.887643">
        <ele>1204.122</ele>
        <time>2021-10-15T12:52:22Z</time>
      </trkpt>
      <trkpt lat="42.891709" lon="-4.887681">
        <ele>1203.952</ele>
        <time>2021-10-15T12:52:23Z</time>
      </trkpt>
      <trkpt lat="42.891476" lon="-4.887733">
        <ele>1203.553</ele>
        <time>2021-10-15T12:52:24Z</time>
      </trkpt>
      <trkpt lat="42.891249" lon="-4.887809">
        <ele>1202.408</ele>
        <time>2021-10-15T12:52:25Z</time>
      </trkpt>
      <trkpt lat="42.891022" lon="-4.887911">
        <ele>1201.108</ele>
        <time>2021-10-15T12:52:26Z</time>
      </trkpt>
      <trkpt lat="42.890586" lon="-4.888115">
        <ele>1201.633</ele>
        <time>2021-10-15T12:52:28Z</time>
      </trkpt>
      <trkpt lat="42.890129" lon="-4.888298">
        <ele>1200.561</ele>
        <time>2021-10-15T12:52:30Z</time>
      </trkpt>
      <trkpt lat="42.889656" lon="-4.888388">
        <ele>1199.549</ele>
        <time>2021-10-15T12:52:32Z</time>
      </trkpt>
      <trkpt lat="42.889185" lon="-4.888318">
        <ele>1199.323</ele>
        <time>2021-10-15T12:52:34Z</time>
      </trkpt>
      <trkpt lat="42.888711" lon="-4.888100">
        <ele>1199.038</ele>
        <time>2021-10-15T12:52:36Z</time>
      </trkpt>
      <trkpt lat="42.888477" lon="-4.887979">
        <ele>1199.046</ele>
        <time>2021-10-15T12:52:37Z</time>
      </trkpt>
      <trkpt lat="42.888251" lon="-4.887865">
        <ele>1198.929</ele>
        <time>2021-10-15T12:52:38Z</time>
      </trkpt>
      <trkpt lat="42.887849" lon="-4.887671">
        <ele>1198.594</ele>
        <time>2021-10-15T12:52:40Z</time>
      </trkpt>
      <trkpt lat="42.887660" lon="-4.887574">
        <ele>1197.987</ele>
        <time>2021-10-15T12:52:41Z</time>
      </trkpt>
      <trkpt lat="42.887480" lon="-4.887473">
        <ele>1197.142</ele>
        <time>2021-10-15T12:52:42Z</time>
      </trkpt>
      <trkpt lat="42.887156" lon="-4.887204">
        <ele>1196.526</ele>
        <time>2021-10-15T12:52:44Z</time>
      </trkpt>
      <trkpt lat="42.886860" lon="-4.886859">
        <ele>1195.908</ele>
        <time>2021-10-15T12:52:46Z</time>
      </trkpt>
      <trkpt lat="42.886528" lon="-4.886508">
        <ele>1196.246</ele>
        <time>2021-10-15T12:52:48Z</time>
      </trkpt>
      <trkpt lat="42.886338" lon="-4.886363">
        <ele>1194.874</ele>
        <time>2021-10-15T12:52:49Z</time>
      </trkpt>
      <trkpt lat="42.886131" lon="-4.886231">
        <ele>1194.122</ele>
        <time>2021-10-15T12:52:50Z</time>
      </trkpt>
      <trkpt lat="42.885713" lon="-4.885999">
        <ele>1194.446</ele>
        <time>2021-10-15T12:52:52Z</time>
      </trkpt>
      <trkpt lat="42.885497" lon="-4.885919">
        <ele>1193.361</ele>
        <time>2021-10-15T12:52:53Z</time>
      </trkpt>
      <trkpt lat="42.885276" lon="-4.885865">
        <ele>1192.919</ele>
        <time>2021-10-15T12:52:54Z</time>
      </trkpt>
      <trkpt lat="42.885044" lon="-4.885829">
        <ele>1192.992</ele>
        <time>2021-10-15T12:52:55Z</time>
      </trkpt>
      <trkpt lat="42.884798" lon="-4.885800">
        <ele>1192.447</ele>
        <time>2021-10-15T12:52:56Z</time>
      </trkpt>
      <trkpt lat="42.884317" lon="-4.885737">
        <ele>1191.655</ele>
        <time>2021-10-15T12:52:58Z</time>
      </trkpt>
      <trkpt lat="42.883822" lon="-4.885633">
        <ele>1192.607</ele>
        <time>2021-10-15T12:53:00Z</time>
      </trkpt>
      <trkpt lat="42.883334" lon="-4.885472">
        <ele>1193.617</ele>
        <time>2021-10-15T12:53:02Z</time>
      </trkpt>
      <trkpt lat="42.882881" lon="-4.885276">
        <ele>1193.808</ele>
        <time>2021-10-15T12:53:04Z</time>
      </trkpt>
      <trkpt lat="42.882649" lon="-4.885166">
        <ele>1194.463</ele>
        <time>2021-10-15T12:53:05Z</time>
      </trkpt>
      <trkpt lat="42.882416" lon="-4.885056">
        <ele>1193.961</ele>
        <time>2021-10-15T12:53:06Z</time>
      </trkpt>
      <trkpt lat="42.882182" lon="-4.884947">
        <ele>1193.329</ele>
        <time>2021-10-15T12:53:07Z</time>
      </trkpt>
      <trkpt lat="42.881952" lon="-4.884843">
        <ele>1193.633</ele>
        <time>2021-10-15T12:53:08Z</time>
      </trkpt>
      <trkpt lat="42.881505" lon="-4.884675">
        <ele>1192.288</ele>
        <time>2021-10-15T12:53:10Z</time>
      </trkpt>
      <trkpt lat="42.881050" lon="-4.884604">
        <ele>1192.356</ele>
        <time>2021-10-15T12:53:12Z</time>
      </trkpt>
      <trkpt lat="42.880585" lon="-4.884567">
        <ele>1191.029</ele>
        <time>2021-10-15T12:53:14Z</time>
      </trkpt>
      <trkpt lat="42.880116" lon="-4.884523">
        <ele>1191.374</ele>
        <time>2021-10-15T12:53:16Z</time>
      </trkpt>
      <trkpt lat="42.879871" lon="-4.884498">
        <ele>1191.293</ele>
        <time>2021-10-15T12:53:17Z</time>
      </trkpt>
      <trkpt lat="42.879627" lon="-4.884470">
        <ele>1191.365</ele>
        <time>2021-10-15T12:53:18Z</time>
      </trkpt>
      <trkpt lat="42.879148" lon="-4.884359">
        <ele>1190.321</ele>
        <time>2021-10-15T12:53:20Z</time>
      </trkpt>
      <trkpt lat="42.878709" lon="-4.884185">
        <ele>1190.708</ele>
        <time>2021-10-15T12:53:22Z</time>
      </trkpt>
      <trkpt lat="42.878310" lon="-4.883999">
        <ele>1190.667</ele>
        <time>2021-10-15T12:53:24Z</time>
      </trkpt>
      <trkpt lat="42.878126" lon="-4.883912">
        <ele>1191.375</ele>
        <time>2021-10-15T12:53:25Z</time>
      </trkpt>
      <trkpt lat="42.877945" lon="-4.883818">
        <ele>1191.993</ele>
        <time>2021-10-15T12:53:26Z</time>
      </trkpt>
      <trkpt lat="42.877603" lon="-4.883593">
        <ele>1193.817</ele>
        <time>2021-10-15T12:53:28Z</time>
      </trkpt>
      <trkpt lat="42.877422" lon="-4.883478">
        <ele>1194.172</ele>
        <time>2021-10-15T12:53:29Z</time>
      </trkpt>
      <trkpt lat="42.877039" lon="-4.883288">
        <ele>1196.610</ele>
        <time>2021-10-15T12:53:31Z</time>
      </trkpt>
      <trkpt lat="42.876839" lon="-4.883204">
        <ele>1196.643</ele>
        <time>2021-10-15T12:53:32Z</time>
      </trkpt>
      <trkpt lat="42.876452" lon="-4.883010">
        <ele>1197.068</ele>
        <time>2021-10-15T12:53:34Z</time>
      </trkpt>
      <trkpt lat="42.876087" lon="-4.882705">
        <ele>1196.933</ele>
        <time>2021-10-15T12:53:36Z</time>
      </trkpt>
      <trkpt lat="42.875780" lon="-4.882254">
        <ele>1198.523</ele>
        <time>2021-10-15T12:53:38Z</time>
      </trkpt>
      <trkpt lat="42.875515" lon="-4.881678">
        <ele>1199.815</ele>
        <time>2021-10-15T12:53:40Z</time>
      </trkpt>
      <trkpt lat="42.875228" lon="-4.881067">
        <ele>1200.908</ele>
        <time>2021-10-15T12:53:42Z</time>
      </trkpt>
      <trkpt lat="42.875074" lon="-4.880759">
        <ele>1201.031</ele>
        <time>2021-10-15T12:53:43Z</time>
      </trkpt>
      <trkpt lat="42.874926" lon="-4.880452">
        <ele>1200.429</ele>
        <time>2021-10-15T12:53:44Z</time>
      </trkpt>
      <trkpt lat="42.874660" lon="-4.879904">
        <ele>1198.917</ele>
        <time>2021-10-15T12:53:46Z</time>
      </trkpt>
      <trkpt lat="42.874536" lon="-4.879650">
        <ele>1198.331</ele>
        <time>2021-10-15T12:53:47Z</time>
      </trkpt>
      <trkpt lat="42.874321" lon="-4.879222">
        <ele>1198.046</ele>
        <time>2021-10-15T12:53:49Z</time>
      </trkpt>
      <trkpt lat="42.874227" lon="-4.879036">
        <ele>1198.044</ele>
        <time>2021-10-15T12:53:50Z</time>
      </trkpt>
      <trkpt lat="42.874061" lon="-4.878708">
        <ele>1196.237</ele>
        <time>2021-10-15T12:53:52Z</time>
      </trkpt>
      <trkpt lat="42.873878" lon="-4.878343">
        <ele>1194.762</ele>
        <time>2021-10-15T12:53:54Z</time>
      </trkpt>
      <trkpt lat="42.873666" lon="-4.877921">
        <ele>1194.533</ele>
        <time>2021-10-15T12:53:56Z</time>
      </trkpt>
      <trkpt lat="42.873446" lon="-4.877477">
        <ele>1195.223</ele>
        <time>2021-10-15T12:53:58Z</time>
      </trkpt>
      <trkpt lat="42.873334" lon="-4.877245">
        <ele>1194.815</ele>
        <time>2021-10-15T12:53:59Z</time>
      </trkpt>
      <trkpt lat="42.873127" lon="-4.876769">
        <ele>1194.908</ele>
        <time>2021-10-15T12:54:01Z</time>
      </trkpt>
      <trkpt lat="42.873051" lon="-4.876518">
        <ele>1196.451</ele>
        <time>2021-10-15T12:54:02Z</time>
      </trkpt>
      <trkpt lat="42.872956" lon="-4.876009">
        <ele>1196.779</ele>
        <time>2021-10-15T12:54:04Z</time>
      </trkpt>
      <trkpt lat="42.872929" lon="-4.875754">
        <ele>1197.697</ele>
        <time>2021-10-15T12:54:05Z</time>
      </trkpt>
      <trkpt lat="42.872898" lon="-4.875244">
        <ele>1196.771</ele>
        <time>2021-10-15T12:54:07Z</time>
      </trkpt>
      <trkpt lat="42.872865" lon="-4.874984">
        <ele>1197.526</ele>
        <time>2021-10-15T12:54:08Z</time>
      </trkpt>
      <trkpt lat="42.872724" lon="-4.874499">
        <ele>1198.984</ele>
        <time>2021-10-15T12:54:10Z</time>
      </trkpt>
      <trkpt lat="42.872463" lon="-4.874033">
        <ele>1198.467</ele>
        <time>2021-10-15T12:54:12Z</time>
      </trkpt>
      <trkpt lat="42.872298" lon="-4.873792">
        <ele>1198.752</ele>
        <time>2021-10-15T12:54:13Z</time>
      </trkpt>
      <trkpt lat="42.872126" lon="-4.873544">
        <ele>1199.227</ele>
        <time>2021-10-15T12:54:14Z</time>
      </trkpt>
      <trkpt lat="42.871799" lon="-4.873022">
        <ele>1199.768</ele>
        <time>2021-10-15T12:54:16Z</time>
      </trkpt>
      <trkpt lat="42.871535" lon="-4.872380">
        <ele>1200.014</ele>
        <time>2021-10-15T12:54:18Z</time>
      </trkpt>
      <trkpt lat="42.871441" lon="-4.872008">
        <ele>1200.908</ele>
        <time>2021-10-15T12:54:19Z</time>
      </trkpt>
      <trkpt lat="42.871353" lon="-4.871617">
        <ele>1200.630</ele>
        <time>2021-10-15T12:54:20Z</time>
      </trkpt>
      <trkpt lat="42.871181" lon="-4.870839">
        <ele>1201.468</ele>
        <time>2021-10-15T12:54:22Z</time>
      </trkpt>
      <trkpt lat="42.871104" lon="-4.870452">
        <ele>1201.486</ele>
        <time>2021-10-15T12:54:23Z</time>
      </trkpt>
      <trkpt lat="42.871032" lon="-4.870067">
        <ele>1201.220</ele>
        <time>2021-10-15T12:54:24Z</time>
      </trkpt>
      <trkpt lat="42.870894" lon="-4.869304">
        <ele>1200.795</ele>
        <time>2021-10-15T12:54:26Z</time>
      </trkpt>
      <trkpt lat="42.870736" lon="-4.868591">
        <ele>1200.743</ele>
        <time>2021-10-15T12:54:28Z</time>
      </trkpt>
      <trkpt lat="42.870526" lon="-4.867900">
        <ele>1203.256</ele>
        <time>2021-10-15T12:54:30Z</time>
      </trkpt>
      <trkpt lat="42.870301" lon="-4.867252">
        <ele>1204.121</ele>
        <time>2021-10-15T12:54:32Z</time>
      </trkpt>
      <trkpt lat="42.870099" lon="-4.866670">
        <ele>1206.641</ele>
        <time>2021-10-15T12:54:34Z</time>
      </trkpt>
      <trkpt lat="42.869907" lon="-4.866103">
        <ele>1206.881</ele>
        <time>2021-10-15T12:54:36Z</time>
      </trkpt>
      <trkpt lat="42.869719" lon="-4.865538">
        <ele>1207.709</ele>
        <time>2021-10-15T12:54:38Z</time>
      </trkpt>
      <trkpt lat="42.869537" lon="-4.864956">
        <ele>1208.108</ele>
        <time>2021-10-15T12:54:40Z</time>
      </trkpt>
      <trkpt lat="42.869454" lon="-4.864650">
        <ele>1208.282</ele>
        <time>2021-10-15T12:54:41Z</time>
      </trkpt>
      <trkpt lat="42.869379" lon="-4.864355">
        <ele>1208.880</ele>
        <time>2021-10-15T12:54:42Z</time>
      </trkpt>
      <trkpt lat="42.869265" lon="-4.863797">
        <ele>1209.858</ele>
        <time>2021-10-15T12:54:44Z</time>
      </trkpt>
      <trkpt lat="42.869215" lon="-4.863237">
        <ele>1210.932</ele>
        <time>2021-10-15T12:54:46Z</time>
      </trkpt>
      <trkpt lat="42.869227" lon="-4.862940">
        <ele>1211.167</ele>
        <time>2021-10-15T12:54:47Z</time>
      </trkpt>
      <trkpt lat="42.869346" lon="-4.862358">
        <ele>1210.935</ele>
        <time>2021-10-15T12:54:49Z</time>
      </trkpt>
      <trkpt lat="42.869453" lon="-4.862090">
        <ele>1210.948</ele>
        <time>2021-10-15T12:54:50Z</time>
      </trkpt>
      <trkpt lat="42.869678" lon="-4.861658">
        <ele>1211.963</ele>
        <time>2021-10-15T12:54:52Z</time>
      </trkpt>
      <trkpt lat="42.869822" lon="-4.861244">
        <ele>1212.675</ele>
        <time>2021-10-15T12:54:54Z</time>
      </trkpt>
      <trkpt lat="42.869822" lon="-4.860802">
        <ele>1212.928</ele>
        <time>2021-10-15T12:54:56Z</time>
      </trkpt>
      <trkpt lat="42.869677" lon="-4.860443">
        <ele>1213.020</ele>
        <time>2021-10-15T12:54:58Z</time>
      </trkpt>
      <trkpt lat="42.869562" lon="-4.860295">
        <ele>1213.208</ele>
        <time>2021-10-15T12:54:59Z</time>
      </trkpt>
      <trkpt lat="42.869415" lon="-4.860189">
        <ele>1213.075</ele>
        <time>2021-10-15T12:55:00Z</time>
      </trkpt>
      <trkpt lat="42.869235" lon="-4.860133">
        <ele>1211.823</ele>
        <time>2021-10-15T12:55:01Z</time>
      </trkpt>
      <trkpt lat="42.869025" lon="-4.860115">
        <ele>1211.281</ele>
        <time>2021-10-15T12:55:02Z</time>
      </trkpt>
      <trkpt lat="42.868571" lon="-4.860077">
        <ele>1210.475</ele>
        <time>2021-10-15T12:55:04Z</time>
      </trkpt>
      <trkpt lat="42.868338" lon="-4.860004">
        <ele>1209.260</ele>
        <time>2021-10-15T12:55:05Z</time>
      </trkpt>
      <trkpt lat="42.867884" lon="-4.859726">
        <ele>1208.338</ele>
        <time>2021-10-15T12:55:07Z</time>
      </trkpt>
      <trkpt lat="42.867659" lon="-4.859529">
        <ele>1206.891</ele>
        <time>2021-10-15T12:55:08Z</time>
      </trkpt>
      <trkpt lat="42.867245" lon="-4.859073">
        <ele>1203.866</ele>
        <time>2021-10-15T12:55:10Z</time>
      </trkpt>
      <trkpt lat="42.867068" lon="-4.858821">
        <ele>1202.154</ele>
        <time>2021-10-15T12:55:11Z</time>
      </trkpt>
      <trkpt lat="42.866790" lon="-4.858238">
        <ele>1198.656</ele>
        <time>2021-10-15T12:55:13Z</time>
      </trkpt>
      <trkpt lat="42.866668" lon="-4.857916">
        <ele>1197.411</ele>
        <time>2021-10-15T12:55:14Z</time>
      </trkpt>
      <trkpt lat="42.866432" lon="-4.857255">
        <ele>1193.008</ele>
        <time>2021-10-15T12:55:16Z</time>
      </trkpt>
      <trkpt lat="42.866176" lon="-4.856630">
        <ele>1190.033</ele>
        <time>2021-10-15T12:55:18Z</time>
      </trkpt>
      <trkpt lat="42.866042" lon="-4.856373">
        <ele>1188.031</ele>
        <time>2021-10-15T12:55:19Z</time>
      </trkpt>
      <trkpt lat="42.865905" lon="-4.856163">
        <ele>1186.519</ele>
        <time>2021-10-15T12:55:20Z</time>
      </trkpt>
      <trkpt lat="42.865595" lon="-4.855854">
        <ele>1183.123</ele>
        <time>2021-10-15T12:55:22Z</time>
      </trkpt>
      <trkpt lat="42.865395" lon="-4.855736">
        <ele>1181.928</ele>
        <time>2021-10-15T12:55:23Z</time>
      </trkpt>
      <trkpt lat="42.865172" lon="-4.855633">
        <ele>1180.966</ele>
        <time>2021-10-15T12:55:24Z</time>
      </trkpt>
      <trkpt lat="42.864683" lon="-4.855406">
        <ele>1177.079</ele>
        <time>2021-10-15T12:55:26Z</time>
      </trkpt>
      <trkpt lat="42.864182" lon="-4.855161">
        <ele>1173.524</ele>
        <time>2021-10-15T12:55:28Z</time>
      </trkpt>
      <trkpt lat="42.863923" lon="-4.855029">
        <ele>1171.478</ele>
        <time>2021-10-15T12:55:29Z</time>
      </trkpt>
      <trkpt lat="42.863414" lon="-4.854772">
        <ele>1167.733</ele>
        <time>2021-10-15T12:55:31Z</time>
      </trkpt>
      <trkpt lat="42.863156" lon="-4.854661">
        <ele>1166.126</ele>
        <time>2021-10-15T12:55:32Z</time>
      </trkpt>
      <trkpt lat="42.862655" lon="-4.854490">
        <ele>1163.508</ele>
        <time>2021-10-15T12:55:34Z</time>
      </trkpt>
      <trkpt lat="42.862146" lon="-4.854321">
        <ele>1160.045</ele>
        <time>2021-10-15T12:55:36Z</time>
      </trkpt>
      <trkpt lat="42.861893" lon="-4.854227">
        <ele>1157.983</ele>
        <time>2021-10-15T12:55:37Z</time>
      </trkpt>
      <trkpt lat="42.861639" lon="-4.854125">
        <ele>1156.731</ele>
        <time>2021-10-15T12:55:38Z</time>
      </trkpt>
      <trkpt lat="42.861158" lon="-4.853902">
        <ele>1154.575</ele>
        <time>2021-10-15T12:55:40Z</time>
      </trkpt>
      <trkpt lat="42.860703" lon="-4.853685">
        <ele>1152.530</ele>
        <time>2021-10-15T12:55:42Z</time>
      </trkpt>
      <trkpt lat="42.860247" lon="-4.853576">
        <ele>1150.058</ele>
        <time>2021-10-15T12:55:44Z</time>
      </trkpt>
      <trkpt lat="42.859775" lon="-4.853541">
        <ele>1149.111</ele>
        <time>2021-10-15T12:55:46Z</time>
      </trkpt>
      <trkpt lat="42.859274" lon="-4.853504">
        <ele>1145.556</ele>
        <time>2021-10-15T12:55:48Z</time>
      </trkpt>
      <trkpt lat="42.859021" lon="-4.853499">
        <ele>1144.248</ele>
        <time>2021-10-15T12:55:49Z</time>
      </trkpt>
      <trkpt lat="42.858758" lon="-4.853504">
        <ele>1141.961</ele>
        <time>2021-10-15T12:55:50Z</time>
      </trkpt>
      <trkpt lat="42.858240" lon="-4.853517">
        <ele>1139.417</ele>
        <time>2021-10-15T12:55:52Z</time>
      </trkpt>
      <trkpt lat="42.857973" lon="-4.853513">
        <ele>1138.008</ele>
        <time>2021-10-15T12:55:53Z</time>
      </trkpt>
      <trkpt lat="42.857441" lon="-4.853439">
        <ele>1134.172</ele>
        <time>2021-10-15T12:55:55Z</time>
      </trkpt>
      <trkpt lat="42.857180" lon="-4.853373">
        <ele>1133.570</ele>
        <time>2021-10-15T12:55:56Z</time>
      </trkpt>
      <trkpt lat="42.856704" lon="-4.853174">
        <ele>1131.118</ele>
        <time>2021-10-15T12:55:58Z</time>
      </trkpt>
      <trkpt lat="42.856467" lon="-4.853022">
        <ele>1130.442</ele>
        <time>2021-10-15T12:55:59Z</time>
      </trkpt>
      <trkpt lat="42.855980" lon="-4.852708">
        <ele>1126.657</ele>
        <time>2021-10-15T12:56:01Z</time>
      </trkpt>
      <trkpt lat="42.855718" lon="-4.852568">
        <ele>1126.135</ele>
        <time>2021-10-15T12:56:02Z</time>
      </trkpt>
      <trkpt lat="42.855190" lon="-4.852356">
        <ele>1123.168</ele>
        <time>2021-10-15T12:56:04Z</time>
      </trkpt>
      <trkpt lat="42.854633" lon="-4.852216">
        <ele>1120.023</ele>
        <time>2021-10-15T12:56:06Z</time>
      </trkpt>
      <trkpt lat="42.854352" lon="-4.852173">
        <ele>1118.718</ele>
        <time>2021-10-15T12:56:07Z</time>
      </trkpt>
      <trkpt lat="42.854067" lon="-4.852146">
        <ele>1117.698</ele>
        <time>2021-10-15T12:56:08Z</time>
      </trkpt>
      <trkpt lat="42.853509" lon="-4.852176">
        <ele>1114.317</ele>
        <time>2021-10-15T12:56:10Z</time>
      </trkpt>
      <trkpt lat="42.853227" lon="-4.852218">
        <ele>1112.608</ele>
        <time>2021-10-15T12:56:11Z</time>
      </trkpt>
      <trkpt lat="42.852676" lon="-4.852379">
        <ele>1109.039</ele>
        <time>2021-10-15T12:56:13Z</time>
      </trkpt>
      <trkpt lat="42.852406" lon="-4.852511">
        <ele>1107.577</ele>
        <time>2021-10-15T12:56:14Z</time>
      </trkpt>
      <trkpt lat="42.851882" lon="-4.852835">
        <ele>1103.715</ele>
        <time>2021-10-15T12:56:16Z</time>
      </trkpt>
      <trkpt lat="42.851327" lon="-4.853117">
        <ele>1100.599</ele>
        <time>2021-10-15T12:56:18Z</time>
      </trkpt>
      <trkpt lat="42.851034" lon="-4.853203">
        <ele>1099.344</ele>
        <time>2021-10-15T12:56:19Z</time>
      </trkpt>
      <trkpt lat="42.850731" lon="-4.853245">
        <ele>1097.212</ele>
        <time>2021-10-15T12:56:20Z</time>
      </trkpt>
      <trkpt lat="42.850147" lon="-4.853248">
        <ele>1093.835</ele>
        <time>2021-10-15T12:56:22Z</time>
      </trkpt>
      <trkpt lat="42.849620" lon="-4.853227">
        <ele>1094.130</ele>
        <time>2021-10-15T12:56:24Z</time>
      </trkpt>
      <trkpt lat="42.849131" lon="-4.853268">
        <ele>1093.739</ele>
        <time>2021-10-15T12:56:26Z</time>
      </trkpt>
      <trkpt lat="42.848654" lon="-4.853493">
        <ele>1094.001</ele>
        <time>2021-10-15T12:56:28Z</time>
      </trkpt>
      <trkpt lat="42.848399" lon="-4.853642">
        <ele>1093.621</ele>
        <time>2021-10-15T12:56:29Z</time>
      </trkpt>
      <trkpt lat="42.847865" lon="-4.853907">
        <ele>1092.408</ele>
        <time>2021-10-15T12:56:31Z</time>
      </trkpt>
      <trkpt lat="42.847588" lon="-4.854030">
        <ele>1091.221</ele>
        <time>2021-10-15T12:56:32Z</time>
      </trkpt>
      <trkpt lat="42.847058" lon="-4.854282">
        <ele>1090.699</ele>
        <time>2021-10-15T12:56:34Z</time>
      </trkpt>
      <trkpt lat="42.846532" lon="-4.854508">
        <ele>1088.927</ele>
        <time>2021-10-15T12:56:36Z</time>
      </trkpt>
      <trkpt lat="42.846035" lon="-4.854663">
        <ele>1086.861</ele>
        <time>2021-10-15T12:56:38Z</time>
      </trkpt>
      <trkpt lat="42.845559" lon="-4.854739">
        <ele>1085.386</ele>
        <time>2021-10-15T12:56:40Z</time>
      </trkpt>
      <trkpt lat="42.845076" lon="-4.854692">
        <ele>1085.014</ele>
        <time>2021-10-15T12:56:42Z</time>
      </trkpt>
      <trkpt lat="42.844565" lon="-4.854684">
        <ele>1084.527</ele>
        <time>2021-10-15T12:56:44Z</time>
      </trkpt>
      <trkpt lat="42.844078" lon="-4.854762">
        <ele>1083.742</ele>
        <time>2021-10-15T12:56:46Z</time>
      </trkpt>
      <trkpt lat="42.843839" lon="-4.854826">
        <ele>1083.092</ele>
        <time>2021-10-15T12:56:47Z</time>
      </trkpt>
      <trkpt lat="42.843607" lon="-4.854915">
        <ele>1082.373</ele>
        <time>2021-10-15T12:56:48Z</time>
      </trkpt>
      <trkpt lat="42.843182" lon="-4.855232">
        <ele>1080.920</ele>
        <time>2021-10-15T12:56:50Z</time>
      </trkpt>
      <trkpt lat="42.842881" lon="-4.855747">
        <ele>1080.608</ele>
        <time>2021-10-15T12:56:52Z</time>
      </trkpt>
      <trkpt lat="42.842773" lon="-4.856032">
        <ele>1080.947</ele>
        <time>2021-10-15T12:56:53Z</time>
      </trkpt>
      <trkpt lat="42.842552" lon="-4.856564">
        <ele>1080.185</ele>
        <time>2021-10-15T12:56:55Z</time>
      </trkpt>
      <trkpt lat="42.842413" lon="-4.856801">
        <ele>1079.663</ele>
        <time>2021-10-15T12:56:56Z</time>
      </trkpt>
      <trkpt lat="42.842065" lon="-4.857093">
        <ele>1078.857</ele>
        <time>2021-10-15T12:56:58Z</time>
      </trkpt>
      <trkpt lat="42.841829" lon="-4.857133">
        <ele>1077.812</ele>
        <time>2021-10-15T12:56:59Z</time>
      </trkpt>
      <trkpt lat="42.841328" lon="-4.857145">
        <ele>1078.550</ele>
        <time>2021-10-15T12:57:01Z</time>
      </trkpt>
      <trkpt lat="42.841089" lon="-4.857135">
        <ele>1078.233</ele>
        <time>2021-10-15T12:57:02Z</time>
      </trkpt>
      <trkpt lat="42.840626" lon="-4.857022">
        <ele>1078.198</ele>
        <time>2021-10-15T12:57:04Z</time>
      </trkpt>
      <trkpt lat="42.840380" lon="-4.856938">
        <ele>1078.283</ele>
        <time>2021-10-15T12:57:05Z</time>
      </trkpt>
      <trkpt lat="42.840130" lon="-4.856839">
        <ele>1078.325</ele>
        <time>2021-10-15T12:57:06Z</time>
      </trkpt>
      <trkpt lat="42.839871" lon="-4.856732">
        <ele>1078.717</ele>
        <time>2021-10-15T12:57:07Z</time>
      </trkpt>
      <trkpt lat="42.839603" lon="-4.856623">
        <ele>1078.508</ele>
        <time>2021-10-15T12:57:08Z</time>
      </trkpt>
      <trkpt lat="42.839058" lon="-4.856396">
        <ele>1077.686</ele>
        <time>2021-10-15T12:57:10Z</time>
      </trkpt>
      <trkpt lat="42.838763" lon="-4.856276">
        <ele>1077.194</ele>
        <time>2021-10-15T12:57:11Z</time>
      </trkpt>
      <trkpt lat="42.838185" lon="-4.856076">
        <ele>1077.862</ele>
        <time>2021-10-15T12:57:13Z</time>
      </trkpt>
      <trkpt lat="42.837900" lon="-4.855990">
        <ele>1077.986</ele>
        <time>2021-10-15T12:57:14Z</time>
      </trkpt>
      <trkpt lat="42.837363" lon="-4.855801">
        <ele>1076.671</ele>
        <time>2021-10-15T12:57:16Z</time>
      </trkpt>
      <trkpt lat="42.837092" lon="-4.855698">
        <ele>1076.329</ele>
        <time>2021-10-15T12:57:17Z</time>
      </trkpt>
      <trkpt lat="42.836566" lon="-4.855507">
        <ele>1074.482</ele>
        <time>2021-10-15T12:57:19Z</time>
      </trkpt>
      <trkpt lat="42.836305" lon="-4.855414">
        <ele>1074.517</ele>
        <time>2021-10-15T12:57:20Z</time>
      </trkpt>
      <trkpt lat="42.835802" lon="-4.855233">
        <ele>1073.911</ele>
        <time>2021-10-15T12:57:22Z</time>
      </trkpt>
      <trkpt lat="42.835279" lon="-4.855046">
        <ele>1073.621</ele>
        <time>2021-10-15T12:57:24Z</time>
      </trkpt>
      <trkpt lat="42.835012" lon="-4.854950">
        <ele>1074.303</ele>
        <time>2021-10-15T12:57:25Z</time>
      </trkpt>
      <trkpt lat="42.834733" lon="-4.854844">
        <ele>1073.508</ele>
        <time>2021-10-15T12:57:26Z</time>
      </trkpt>
      <trkpt lat="42.834205" lon="-4.854644">
        <ele>1072.669</ele>
        <time>2021-10-15T12:57:28Z</time>
      </trkpt>
      <trkpt lat="42.833942" lon="-4.854547">
        <ele>1072.497</ele>
        <time>2021-10-15T12:57:29Z</time>
      </trkpt>
      <trkpt lat="42.833463" lon="-4.854378">
        <ele>1071.875</ele>
        <time>2021-10-15T12:57:31Z</time>
      </trkpt>
      <trkpt lat="42.833222" lon="-4.854287">
        <ele>1072.229</ele>
        <time>2021-10-15T12:57:32Z</time>
      </trkpt>
      <trkpt lat="42.832768" lon="-4.854124">
        <ele>1071.354</ele>
        <time>2021-10-15T12:57:34Z</time>
      </trkpt>
      <trkpt lat="42.832549" lon="-4.854047">
        <ele>1070.782</ele>
        <time>2021-10-15T12:57:35Z</time>
      </trkpt>
      <trkpt lat="42.832138" lon="-4.853863">
        <ele>1070.455</ele>
        <time>2021-10-15T12:57:37Z</time>
      </trkpt>
      <trkpt lat="42.831931" lon="-4.853720">
        <ele>1069.660</ele>
        <time>2021-10-15T12:57:38Z</time>
      </trkpt>
      <trkpt lat="42.831567" lon="-4.853307">
        <ele>1069.143</ele>
        <time>2021-10-15T12:57:40Z</time>
      </trkpt>
      <trkpt lat="42.831239" lon="-4.852742">
        <ele>1068.764</ele>
        <time>2021-10-15T12:57:42Z</time>
      </trkpt>
      <trkpt lat="42.830874" lon="-4.852212">
        <ele>1069.110</ele>
        <time>2021-10-15T12:57:44Z</time>
      </trkpt>
      <trkpt lat="42.830485" lon="-4.851778">
        <ele>1068.908</ele>
        <time>2021-10-15T12:57:46Z</time>
      </trkpt>
      <trkpt lat="42.830286" lon="-4.851587">
        <ele>1069.092</ele>
        <time>2021-10-15T12:57:47Z</time>
      </trkpt>
      <trkpt lat="42.829918" lon="-4.851253">
        <ele>1069.010</ele>
        <time>2021-10-15T12:57:49Z</time>
      </trkpt>
      <trkpt lat="42.829755" lon="-4.851088">
        <ele>1068.928</ele>
        <time>2021-10-15T12:57:50Z</time>
      </trkpt>
      <trkpt lat="42.829490" lon="-4.850691">
        <ele>1068.872</ele>
        <time>2021-10-15T12:57:52Z</time>
      </trkpt>
      <trkpt lat="42.829396" lon="-4.850453">
        <ele>1068.887</ele>
        <time>2021-10-15T12:57:53Z</time>
      </trkpt>
      <trkpt lat="42.829256" lon="-4.850035">
        <ele>1068.155</ele>
        <time>2021-10-15T12:57:55Z</time>
      </trkpt>
      <trkpt lat="42.829184" lon="-4.849865">
        <ele>1067.568</ele>
        <time>2021-10-15T12:57:56Z</time>
      </trkpt>
      <trkpt lat="42.829011" lon="-4.849616">
        <ele>1067.283</ele>
        <time>2021-10-15T12:57:58Z</time>
      </trkpt>
      <trkpt lat="42.828782" lon="-4.849450">
        <ele>1067.168</ele>
        <time>2021-10-15T12:58:00Z</time>
      </trkpt>
      <trkpt lat="42.828525" lon="-4.849333">
        <ele>1066.042</ele>
        <time>2021-10-15T12:58:02Z</time>
      </trkpt>
      <trkpt lat="42.828252" lon="-4.849277">
        <ele>1062.926</ele>
        <time>2021-10-15T12:58:04Z</time>
      </trkpt>
      <trkpt lat="42.828103" lon="-4.849258">
        <ele>1062.308</ele>
        <time>2021-10-15T12:58:05Z</time>
      </trkpt>
      <trkpt lat="42.827947" lon="-4.849236">
        <ele>1061.114</ele>
        <time>2021-10-15T12:58:06Z</time>
      </trkpt>
      <trkpt lat="42.827640" lon="-4.849179">
        <ele>1061.042</ele>
        <time>2021-10-15T12:58:08Z</time>
      </trkpt>
      <trkpt lat="42.827366" lon="-4.849110">
        <ele>1060.960</ele>
        <time>2021-10-15T12:58:10Z</time>
      </trkpt>
      <trkpt lat="42.827242" lon="-4.849073">
        <ele>1060.274</ele>
        <time>2021-10-15T12:58:11Z</time>
      </trkpt>
      <trkpt lat="42.827127" lon="-4.849036">
        <ele>1060.499</ele>
        <time>2021-10-15T12:58:12Z</time>
      </trkpt>
      <trkpt lat="42.827011" lon="-4.848992">
        <ele>1060.447</ele>
        <time>2021-10-15T12:58:13Z</time>
      </trkpt>
      <trkpt lat="42.826889" lon="-4.848946">
        <ele>1061.120</ele>
        <time>2021-10-15T12:58:14Z</time>
      </trkpt>
      <trkpt lat="42.826649" lon="-4.848855">
        <ele>1061.125</ele>
        <time>2021-10-15T12:58:16Z</time>
      </trkpt>
      <trkpt lat="42.826436" lon="-4.848751">
        <ele>1062.966</ele>
        <time>2021-10-15T12:58:18Z</time>
      </trkpt>
      <trkpt lat="42.826340" lon="-4.848692">
        <ele>1062.529</ele>
        <time>2021-10-15T12:58:19Z</time>
      </trkpt>
      <trkpt lat="42.826257" lon="-4.848618">
        <ele>1062.521</ele>
        <time>2021-10-15T12:58:20Z</time>
      </trkpt>
      <trkpt lat="42.826153" lon="-4.848428">
        <ele>1063.208</ele>
        <time>2021-10-15T12:58:22Z</time>
      </trkpt>
      <trkpt lat="42.826128" lon="-4.848310">
        <ele>1063.574</ele>
        <time>2021-10-15T12:58:23Z</time>
      </trkpt>
      <trkpt lat="42.826108" lon="-4.848180">
        <ele>1063.762</ele>
        <time>2021-10-15T12:58:24Z</time>
      </trkpt>
      <trkpt lat="42.826088" lon="-4.848050">
        <ele>1063.960</ele>
        <time>2021-10-15T12:58:25Z</time>
      </trkpt>
      <trkpt lat="42.826063" lon="-4.847919">
        <ele>1063.924</ele>
        <time>2021-10-15T12:58:26Z</time>
      </trkpt>
      <trkpt lat="42.826007" lon="-4.847697">
        <ele>1063.739</ele>
        <time>2021-10-15T12:58:28Z</time>
      </trkpt>
      <trkpt lat="42.825969" lon="-4.847598">
        <ele>1063.147</ele>
        <time>2021-10-15T12:58:29Z</time>
      </trkpt>
      <trkpt lat="42.825868" lon="-4.847439">
        <ele>1063.050</ele>
        <time>2021-10-15T12:58:31Z</time>
      </trkpt>
      <trkpt lat="42.825796" lon="-4.847387">
        <ele>1063.015</ele>
        <time>2021-10-15T12:58:32Z</time>
      </trkpt>
      <trkpt lat="42.825615" lon="-4.847373">
        <ele>1061.949</ele>
        <time>2021-10-15T12:58:34Z</time>
      </trkpt>
      <trkpt lat="42.825500" lon="-4.847404">
        <ele>1061.702</ele>
        <time>2021-10-15T12:58:35Z</time>
      </trkpt>
      <trkpt lat="42.825225" lon="-4.847518">
        <ele>1060.522</ele>
        <time>2021-10-15T12:58:37Z</time>
      </trkpt>
      <trkpt lat="42.825069" lon="-4.847586">
        <ele>1060.908</ele>
        <time>2021-10-15T12:58:38Z</time>
      </trkpt>
      <trkpt lat="42.824766" lon="-4.847706">
        <ele>1060.482</ele>
        <time>2021-10-15T12:58:40Z</time>
      </trkpt>
      <trkpt lat="42.824502" lon="-4.847812">
        <ele>1060.130</ele>
        <time>2021-10-15T12:58:42Z</time>
      </trkpt>
      <trkpt lat="42.824249" lon="-4.847900">
        <ele>1060.448</ele>
        <time>2021-10-15T12:58:44Z</time>
      </trkpt>
      <trkpt lat="42.823990" lon="-4.847988">
        <ele>1060.782</ele>
        <time>2021-10-15T12:58:46Z</time>
      </trkpt>
      <trkpt lat="42.823710" lon="-4.848092">
        <ele>1060.827</ele>
        <time>2021-10-15T12:58:48Z</time>
      </trkpt>
      <trkpt lat="42.823389" lon="-4.848209">
        <ele>1060.685</ele>
        <time>2021-10-15T12:58:50Z</time>
      </trkpt>
      <trkpt lat="42.823071" lon="-4.848330">
        <ele>1059.448</ele>
        <time>2021-10-15T12:58:52Z</time>
      </trkpt>
      <trkpt lat="42.822911" lon="-4.848392">
        <ele>1059.873</ele>
        <time>2021-10-15T12:58:53Z</time>
      </trkpt>
      <trkpt lat="42.822604" lon="-4.848511">
        <ele>1059.851</ele>
        <time>2021-10-15T12:58:55Z</time>
      </trkpt>
      <trkpt lat="42.822457" lon="-4.848565">
        <ele>1060.501</ele>
        <time>2021-10-15T12:58:56Z</time>
      </trkpt>
      <trkpt lat="42.822165" lon="-4.848669">
        <ele>1059.311</ele>
        <time>2021-10-15T12:58:58Z</time>
      </trkpt>
      <trkpt lat="42.822014" lon="-4.848725">
        <ele>1059.208</ele>
        <time>2021-10-15T12:58:59Z</time>
      </trkpt>
      <trkpt lat="42.821707" lon="-4.848847">
        <ele>1059.513</ele>
        <time>2021-10-15T12:59:01Z</time>
      </trkpt>
      <trkpt lat="42.821542" lon="-4.848909">
        <ele>1060.581</ele>
        <time>2021-10-15T12:59:02Z</time>
      </trkpt>
      <trkpt lat="42.821220" lon="-4.849037">
        <ele>1061.049</ele>
        <time>2021-10-15T12:59:04Z</time>
      </trkpt>
      <trkpt lat="42.821057" lon="-4.849102">
        <ele>1061.463</ele>
        <time>2021-10-15T12:59:05Z</time>
      </trkpt>
      <trkpt lat="42.820896" lon="-4.849174">
        <ele>1062.618</ele>
        <time>2021-10-15T12:59:06Z</time>
      </trkpt>
      <trkpt lat="42.820735" lon="-4.849261">
        <ele>1062.966</ele>
        <time>2021-10-15T12:59:07Z</time>
      </trkpt>
      <trkpt lat="42.820576" lon="-4.849366">
        <ele>1062.479</ele>
        <time>2021-10-15T12:59:08Z</time>
      </trkpt>
      <trkpt lat="42.820277" lon="-4.849607">
        <ele>1065.034</ele>
        <time>2021-10-15T12:59:10Z</time>
      </trkpt>
      <trkpt lat="42.819995" lon="-4.849916">
        <ele>1065.615</ele>
        <time>2021-10-15T12:59:12Z</time>
      </trkpt>
      <trkpt lat="42.819850" lon="-4.850099">
        <ele>1066.565</ele>
        <time>2021-10-15T12:59:13Z</time>
      </trkpt>
      <trkpt lat="42.819698" lon="-4.850299">
        <ele>1067.711</ele>
        <time>2021-10-15T12:59:14Z</time>
      </trkpt>
      <trkpt lat="42.819391" lon="-4.850685">
        <ele>1070.208</ele>
        <time>2021-10-15T12:59:16Z</time>
      </trkpt>
      <trkpt lat="42.819222" lon="-4.850861">
        <ele>1071.299</ele>
        <time>2021-10-15T12:59:17Z</time>
      </trkpt>
      <trkpt lat="42.818855" lon="-4.851109">
        <ele>1071.777</ele>
        <time>2021-10-15T12:59:19Z</time>
      </trkpt>
      <trkpt lat="42.818656" lon="-4.851165">
        <ele>1072.865</ele>
        <time>2021-10-15T12:59:20Z</time>
      </trkpt>
      <trkpt lat="42.818254" lon="-4.851089">
        <ele>1074.919</ele>
        <time>2021-10-15T12:59:22Z</time>
      </trkpt>
      <trkpt lat="42.818056" lon="-4.850962">
        <ele>1076.724</ele>
        <time>2021-10-15T12:59:23Z</time>
      </trkpt>
      <trkpt lat="42.817873" lon="-4.850800">
        <ele>1078.122</ele>
        <time>2021-10-15T12:59:24Z</time>
      </trkpt>
      <trkpt lat="42.817709" lon="-4.850624">
        <ele>1078.785</ele>
        <time>2021-10-15T12:59:25Z</time>
      </trkpt>
      <trkpt lat="42.817557" lon="-4.850452">
        <ele>1079.580</ele>
        <time>2021-10-15T12:59:26Z</time>
      </trkpt>
      <trkpt lat="42.817289" lon="-4.850154">
        <ele>1081.493</ele>
        <time>2021-10-15T12:59:28Z</time>
      </trkpt>
      <trkpt lat="42.817152" lon="-4.850013">
        <ele>1081.565</ele>
        <time>2021-10-15T12:59:29Z</time>
      </trkpt>
      <trkpt lat="42.816884" lon="-4.849740">
        <ele>1083.321</ele>
        <time>2021-10-15T12:59:31Z</time>
      </trkpt>
      <trkpt lat="42.816748" lon="-4.849594">
        <ele>1084.208</ele>
        <time>2021-10-15T12:59:32Z</time>
      </trkpt>
      <trkpt lat="42.816481" lon="-4.849340">
        <ele>1085.777</ele>
        <time>2021-10-15T12:59:34Z</time>
      </trkpt>
      <trkpt lat="42.816183" lon="-4.849156">
        <ele>1086.595</ele>
        <time>2021-10-15T12:59:36Z</time>
      </trkpt>
      <trkpt lat="42.815852" lon="-4.849073">
        <ele>1087.933</ele>
        <time>2021-10-15T12:59:38Z</time>
      </trkpt>
      <trkpt lat="42.815511" lon="-4.849101">
        <ele>1089.067</ele>
        <time>2021-10-15T12:59:40Z</time>
      </trkpt>
      <trkpt lat="42.815330" lon="-4.849137">
        <ele>1089.352</ele>
        <time>2021-10-15T12:59:41Z</time>
      </trkpt>
      <trkpt lat="42.815143" lon="-4.849174">
        <ele>1089.370</ele>
        <time>2021-10-15T12:59:42Z</time>
      </trkpt>
      <trkpt lat="42.814747" lon="-4.849246">
        <ele>1088.013</ele>
        <time>2021-10-15T12:59:44Z</time>
      </trkpt>
      <trkpt lat="42.814356" lon="-4.849308">
        <ele>1087.948</ele>
        <time>2021-10-15T12:59:46Z</time>
      </trkpt>
      <trkpt lat="42.813996" lon="-4.849372">
        <ele>1087.868</ele>
        <time>2021-10-15T12:59:48Z</time>
      </trkpt>
      <trkpt lat="42.813821" lon="-4.849403">
        <ele>1087.842</ele>
        <time>2021-10-15T12:59:49Z</time>
      </trkpt>
      <trkpt lat="42.813646" lon="-4.849435">
        <ele>1088.026</ele>
        <time>2021-10-15T12:59:50Z</time>
      </trkpt>
      <trkpt lat="42.813311" lon="-4.849497">
        <ele>1086.608</ele>
        <time>2021-10-15T12:59:52Z</time>
      </trkpt>
      <trkpt lat="42.813144" lon="-4.849527">
        <ele>1087.084</ele>
        <time>2021-10-15T12:59:53Z</time>
      </trkpt>
      <trkpt lat="42.812851" lon="-4.849576">
        <ele>1087.252</ele>
        <time>2021-10-15T12:59:55Z</time>
      </trkpt>
      <trkpt lat="42.812730" lon="-4.849599">
        <ele>1087.780</ele>
        <time>2021-10-15T12:59:56Z</time>
      </trkpt>
      <trkpt lat="42.812539" lon="-4.849632">
        <ele>1087.014</ele>
        <time>2021-10-15T12:59:58Z</time>
      </trkpt>
      <trkpt lat="42.812453" lon="-4.849648">
        <ele>1087.029</ele>
        <time>2021-10-15T12:59:59Z</time>
      </trkpt>
      <trkpt lat="42.812374" lon="-4.849661">
        <ele>1087.227</ele>
        <time>2021-10-15T13:00:00Z</time>
      </trkpt>
      <trkpt lat="42.812226" lon="-4.849681">
        <ele>1087.540</ele>
        <time>2021-10-15T13:00:02Z</time>
      </trkpt>
      <trkpt lat="42.812104" lon="-4.849697">
        <ele>1087.465</ele>
        <time>2021-10-15T13:00:04Z</time>
      </trkpt>
      <trkpt lat="42.812049" lon="-4.849714">
        <ele>1086.648</ele>
        <time>2021-10-15T13:00:05Z</time>
      </trkpt>
      <trkpt lat="42.811955" lon="-4.849754">
        <ele>1086.161</ele>
        <time>2021-10-15T13:00:07Z</time>
      </trkpt>
      <trkpt lat="42.811901" lon="-4.849799">
        <ele>1086.217</ele>
        <time>2021-10-15T13:00:09Z</time>
      </trkpt>
      <trkpt lat="42.811856" lon="-4.849852">
        <ele>1087.808</ele>
        <time>2021-10-15T13:00:48Z</time>
      </trkpt>
      <trkpt lat="42.811793" lon="-4.849910">
        <ele>1087.862</ele>
        <time>2021-10-15T13:00:50Z</time>
      </trkpt>
      <trkpt lat="42.811766" lon="-4.849960">
        <ele>1087.880</ele>
        <time>2021-10-15T13:00:52Z</time>
      </trkpt>
      <trkpt lat="42.811726" lon="-4.850000">
        <ele>1087.878</ele>
        <time>2021-10-15T13:00:55Z</time>
      </trkpt>
      <trkpt lat="42.811667" lon="-4.849996">
        <ele>1087.752</ele>
        <time>2021-10-15T13:01:32Z</time>
      </trkpt>
      <trkpt lat="42.811589" lon="-4.849967">
        <ele>1087.777</ele>
        <time>2021-10-15T13:01:34Z</time>
      </trkpt>
      <trkpt lat="42.811519" lon="-4.849915">
        <ele>1087.755</ele>
        <time>2021-10-15T13:01:36Z</time>
      </trkpt>
      <trkpt lat="42.811470" lon="-4.849872">
        <ele>1087.848</ele>
        <time>2021-10-15T13:01:37Z</time>
      </trkpt>
      <trkpt lat="42.811404" lon="-4.849830">
        <ele>1088.173</ele>
        <time>2021-10-15T13:01:38Z</time>
      </trkpt>
      <trkpt lat="42.811232" lon="-4.849750">
        <ele>1087.865</ele>
        <time>2021-10-15T13:01:40Z</time>
      </trkpt>
      <trkpt lat="42.811143" lon="-4.849709">
        <ele>1086.868</ele>
        <time>2021-10-15T13:01:41Z</time>
      </trkpt>
      <trkpt lat="42.810953" lon="-4.849595">
        <ele>1086.414</ele>
        <time>2021-10-15T13:01:43Z</time>
      </trkpt>
      <trkpt lat="42.810842" lon="-4.849515">
        <ele>1085.508</ele>
        <time>2021-10-15T13:01:44Z</time>
      </trkpt>
      <trkpt lat="42.810599" lon="-4.849323">
        <ele>1083.934</ele>
        <time>2021-10-15T13:01:46Z</time>
      </trkpt>
      <trkpt lat="42.810329" lon="-4.849088">
        <ele>1081.522</ele>
        <time>2021-10-15T13:01:48Z</time>
      </trkpt>
      <trkpt lat="42.810063" lon="-4.848855">
        <ele>1080.460</ele>
        <time>2021-10-15T13:01:50Z</time>
      </trkpt>
      <trkpt lat="42.809788" lon="-4.848620">
        <ele>1078.454</ele>
        <time>2021-10-15T13:01:52Z</time>
      </trkpt>
      <trkpt lat="42.809493" lon="-4.848367">
        <ele>1076.749</ele>
        <time>2021-10-15T13:01:54Z</time>
      </trkpt>
      <trkpt lat="42.809175" lon="-4.848135">
        <ele>1076.647</ele>
        <time>2021-10-15T13:01:56Z</time>
      </trkpt>
      <trkpt lat="42.808857" lon="-4.847983">
        <ele>1076.050</ele>
        <time>2021-10-15T13:01:58Z</time>
      </trkpt>
      <trkpt lat="42.808683" lon="-4.847925">
        <ele>1074.515</ele>
        <time>2021-10-15T13:01:59Z</time>
      </trkpt>
      <trkpt lat="42.808506" lon="-4.847894">
        <ele>1073.514</ele>
        <time>2021-10-15T13:02:00Z</time>
      </trkpt>
      <trkpt lat="42.808120" lon="-4.847884">
        <ele>1072.454</ele>
        <time>2021-10-15T13:02:02Z</time>
      </trkpt>
      <trkpt lat="42.807725" lon="-4.847976">
        <ele>1067.809</ele>
        <time>2021-10-15T13:02:04Z</time>
      </trkpt>
      <trkpt lat="42.807523" lon="-4.848066">
        <ele>1066.308</ele>
        <time>2021-10-15T13:02:05Z</time>
      </trkpt>
      <trkpt lat="42.807122" lon="-4.848325">
        <ele>1063.589</ele>
        <time>2021-10-15T13:02:07Z</time>
      </trkpt>
      <trkpt lat="42.806928" lon="-4.848484">
        <ele>1062.437</ele>
        <time>2021-10-15T13:02:08Z</time>
      </trkpt>
      <trkpt lat="42.806550" lon="-4.848791">
        <ele>1059.495</ele>
        <time>2021-10-15T13:02:10Z</time>
      </trkpt>
      <trkpt lat="42.806130" lon="-4.849032">
        <ele>1057.739</ele>
        <time>2021-10-15T13:02:12Z</time>
      </trkpt>
      <trkpt lat="42.805664" lon="-4.849165">
        <ele>1054.964</ele>
        <time>2021-10-15T13:02:14Z</time>
      </trkpt>
      <trkpt lat="42.805182" lon="-4.849195">
        <ele>1052.792</ele>
        <time>2021-10-15T13:02:16Z</time>
      </trkpt>
      <trkpt lat="42.804649" lon="-4.849218">
        <ele>1051.825</ele>
        <time>2021-10-15T13:02:18Z</time>
      </trkpt>
      <trkpt lat="42.804092" lon="-4.849244">
        <ele>1050.190</ele>
        <time>2021-10-15T13:02:20Z</time>
      </trkpt>
      <trkpt lat="42.803564" lon="-4.849259">
        <ele>1049.324</ele>
        <time>2021-10-15T13:02:22Z</time>
      </trkpt>
      <trkpt lat="42.803298" lon="-4.849268">
        <ele>1049.404</ele>
        <time>2021-10-15T13:02:23Z</time>
      </trkpt>
      <trkpt lat="42.802774" lon="-4.849291">
        <ele>1050.614</ele>
        <time>2021-10-15T13:02:25Z</time>
      </trkpt>
      <trkpt lat="42.802516" lon="-4.849304">
        <ele>1050.408</ele>
        <time>2021-10-15T13:02:26Z</time>
      </trkpt>
      <trkpt lat="42.802049" lon="-4.849306">
        <ele>1051.270</ele>
        <time>2021-10-15T13:02:28Z</time>
      </trkpt>
      <trkpt lat="42.801588" lon="-4.849244">
        <ele>1052.038</ele>
        <time>2021-10-15T13:02:30Z</time>
      </trkpt>
      <trkpt lat="42.801358" lon="-4.849189">
        <ele>1051.836</ele>
        <time>2021-10-15T13:02:31Z</time>
      </trkpt>
      <trkpt lat="42.801128" lon="-4.849124">
        <ele>1051.250</ele>
        <time>2021-10-15T13:02:32Z</time>
      </trkpt>
      <trkpt lat="42.800675" lon="-4.848971">
        <ele>1050.615</ele>
        <time>2021-10-15T13:02:34Z</time>
      </trkpt>
      <trkpt lat="42.800206" lon="-4.848776">
        <ele>1050.043</ele>
        <time>2021-10-15T13:02:36Z</time>
      </trkpt>
      <trkpt lat="42.799967" lon="-4.848677">
        <ele>1048.916</ele>
        <time>2021-10-15T13:02:37Z</time>
      </trkpt>
      <trkpt lat="42.799724" lon="-4.848577">
        <ele>1047.421</ele>
        <time>2021-10-15T13:02:38Z</time>
      </trkpt>
      <trkpt lat="42.799251" lon="-4.848382">
        <ele>1045.234</ele>
        <time>2021-10-15T13:02:40Z</time>
      </trkpt>
      <trkpt lat="42.799014" lon="-4.848277">
        <ele>1044.455</ele>
        <time>2021-10-15T13:02:41Z</time>
      </trkpt>
      <trkpt lat="42.798556" lon="-4.848066">
        <ele>1042.910</ele>
        <time>2021-10-15T13:02:43Z</time>
      </trkpt>
      <trkpt lat="42.798340" lon="-4.847960">
        <ele>1041.808</ele>
        <time>2021-10-15T13:02:44Z</time>
      </trkpt>
      <trkpt lat="42.797992" lon="-4.847759">
        <ele>1039.941</ele>
        <time>2021-10-15T13:02:46Z</time>
      </trkpt>
      <trkpt lat="42.797842" lon="-4.847662">
        <ele>1039.539</ele>
        <time>2021-10-15T13:02:47Z</time>
      </trkpt>
      <trkpt lat="42.797700" lon="-4.847568">
        <ele>1039.317</ele>
        <time>2021-10-15T13:02:48Z</time>
      </trkpt>
      <trkpt lat="42.797410" lon="-4.847404">
        <ele>1039.321</ele>
        <time>2021-10-15T13:02:50Z</time>
      </trkpt>
      <trkpt lat="42.797107" lon="-4.847251">
        <ele>1040.036</ele>
        <time>2021-10-15T13:02:52Z</time>
      </trkpt>
      <trkpt lat="42.796947" lon="-4.847171">
        <ele>1039.734</ele>
        <time>2021-10-15T13:02:53Z</time>
      </trkpt>
      <trkpt lat="42.796615" lon="-4.847014">
        <ele>1039.637</ele>
        <time>2021-10-15T13:02:55Z</time>
      </trkpt>
      <trkpt lat="42.796438" lon="-4.846934">
        <ele>1039.582</ele>
        <time>2021-10-15T13:02:56Z</time>
      </trkpt>
      <trkpt lat="42.796088" lon="-4.846779">
        <ele>1038.356</ele>
        <time>2021-10-15T13:02:58Z</time>
      </trkpt>
      <trkpt lat="42.795909" lon="-4.846698">
        <ele>1038.559</ele>
        <time>2021-10-15T13:02:59Z</time>
      </trkpt>
      <trkpt lat="42.795567" lon="-4.846556">
        <ele>1037.814</ele>
        <time>2021-10-15T13:03:01Z</time>
      </trkpt>
      <trkpt lat="42.795404" lon="-4.846484">
        <ele>1037.708</ele>
        <time>2021-10-15T13:03:02Z</time>
      </trkpt>
      <trkpt lat="42.795104" lon="-4.846351">
        <ele>1038.073</ele>
        <time>2021-10-15T13:03:04Z</time>
      </trkpt>
      <trkpt lat="42.794949" lon="-4.846286">
        <ele>1038.331</ele>
        <time>2021-10-15T13:03:05Z</time>
      </trkpt>
      <trkpt lat="42.794795" lon="-4.846223">
        <ele>1038.919</ele>
        <time>2021-10-15T13:03:06Z</time>
      </trkpt>
      <trkpt lat="42.794648" lon="-4.846157">
        <ele>1039.223</ele>
        <time>2021-10-15T13:03:07Z</time>
      </trkpt>
      <trkpt lat="42.794508" lon="-4.846086">
        <ele>1039.778</ele>
        <time>2021-10-15T13:03:08Z</time>
      </trkpt>
      <trkpt lat="42.794266" lon="-4.845956">
        <ele>1039.696</ele>
        <time>2021-10-15T13:03:10Z</time>
      </trkpt>
      <trkpt lat="42.794024" lon="-4.845815">
        <ele>1039.969</ele>
        <time>2021-10-15T13:03:12Z</time>
      </trkpt>
      <trkpt lat="42.793796" lon="-4.845681">
        <ele>1041.474</ele>
        <time>2021-10-15T13:03:14Z</time>
      </trkpt>
      <trkpt lat="42.793561" lon="-4.845542">
        <ele>1042.764</ele>
        <time>2021-10-15T13:03:16Z</time>
      </trkpt>
      <trkpt lat="42.793431" lon="-4.845468">
        <ele>1043.006</ele>
        <time>2021-10-15T13:03:17Z</time>
      </trkpt>
      <trkpt lat="42.793294" lon="-4.845391">
        <ele>1044.016</ele>
        <time>2021-10-15T13:03:18Z</time>
      </trkpt>
      <trkpt lat="42.793149" lon="-4.845310">
        <ele>1044.408</ele>
        <time>2021-10-15T13:03:19Z</time>
      </trkpt>
      <trkpt lat="42.792998" lon="-4.845227">
        <ele>1044.394</ele>
        <time>2021-10-15T13:03:20Z</time>
      </trkpt>
      <trkpt lat="42.792705" lon="-4.845061">
        <ele>1045.132</ele>
        <time>2021-10-15T13:03:22Z</time>
      </trkpt>
      <trkpt lat="42.792559" lon="-4.844980">
        <ele>1045.480</ele>
        <time>2021-10-15T13:03:23Z</time>
      </trkpt>
      <trkpt lat="42.792417" lon="-4.844902">
        <ele>1045.714</ele>
        <time>2021-10-15T13:03:24Z</time>
      </trkpt>
      <trkpt lat="42.792151" lon="-4.844759">
        <ele>1047.799</ele>
        <time>2021-10-15T13:03:26Z</time>
      </trkpt>
      <trkpt lat="42.791929" lon="-4.844637">
        <ele>1047.817</ele>
        <time>2021-10-15T13:03:28Z</time>
      </trkpt>
      <trkpt lat="42.791745" lon="-4.844539">
        <ele>1048.170</ele>
        <time>2021-10-15T13:03:30Z</time>
      </trkpt>
      <trkpt lat="42.791660" lon="-4.844498">
        <ele>1048.255</ele>
        <time>2021-10-15T13:03:31Z</time>
      </trkpt>
      <trkpt lat="42.791578" lon="-4.844457">
        <ele>1048.394</ele>
        <time>2021-10-15T13:03:32Z</time>
      </trkpt>
      <trkpt lat="42.791430" lon="-4.844387">
        <ele>1047.957</ele>
        <time>2021-10-15T13:03:34Z</time>
      </trkpt>
      <trkpt lat="42.791353" lon="-4.844353">
        <ele>1047.522</ele>
        <time>2021-10-15T13:03:35Z</time>
      </trkpt>
      <trkpt lat="42.791271" lon="-4.844315">
        <ele>1047.508</ele>
        <time>2021-10-15T13:03:36Z</time>
      </trkpt>
      <trkpt lat="42.791080" lon="-4.844232">
        <ele>1048.537</ele>
        <time>2021-10-15T13:03:38Z</time>
      </trkpt>
      <trkpt lat="42.790903" lon="-4.844149">
        <ele>1049.035</ele>
        <time>2021-10-15T13:03:40Z</time>
      </trkpt>
      <trkpt lat="42.790822" lon="-4.844109">
        <ele>1048.983</ele>
        <time>2021-10-15T13:03:41Z</time>
      </trkpt>
      <trkpt lat="42.790755" lon="-4.844077">
        <ele>1048.617</ele>
        <time>2021-10-15T13:03:42Z</time>
      </trkpt>
      <trkpt lat="42.790671" lon="-4.844036">
        <ele>1048.212</ele>
        <time>2021-10-15T13:03:44Z</time>
      </trkpt>
      <trkpt lat="42.790622" lon="-4.844016">
        <ele>1047.710</ele>
        <time>2021-10-15T13:03:47Z</time>
      </trkpt>
      <trkpt lat="42.790564" lon="-4.843986">
        <ele>1047.743</ele>
        <time>2021-10-15T13:03:50Z</time>
      </trkpt>
      <trkpt lat="42.790523" lon="-4.843955">
        <ele>1048.638</ele>
        <time>2021-10-15T13:03:53Z</time>
      </trkpt>
      <trkpt lat="42.790463" lon="-4.843921">
        <ele>1070.244</ele>
        <time>2021-10-15T13:03:55Z</time>
      </trkpt>
      <trkpt lat="42.790393" lon="-4.843898">
        <ele>1094.105</ele>
        <time>2021-10-15T13:03:57Z</time>
      </trkpt>
      <trkpt lat="42.790339" lon="-4.843877">
        <ele>1096.015</ele>
        <time>2021-10-15T13:03:58Z</time>
      </trkpt>
      <trkpt lat="42.790237" lon="-4.843833">
        <ele>1096.008</ele>
        <time>2021-10-15T13:04:00Z</time>
      </trkpt>
      <trkpt lat="42.790118" lon="-4.843773">
        <ele>1096.172</ele>
        <time>2021-10-15T13:04:02Z</time>
      </trkpt>
      <trkpt lat="42.789989" lon="-4.843720">
        <ele>1096.190</ele>
        <time>2021-10-15T13:04:04Z</time>
      </trkpt>
      <trkpt lat="42.789889" lon="-4.843683">
        <ele>1096.118</ele>
        <time>2021-10-15T13:04:06Z</time>
      </trkpt>
      <trkpt lat="42.789830" lon="-4.843670">
        <ele>1096.172</ele>
        <time>2021-10-15T13:04:07Z</time>
      </trkpt>
      <trkpt lat="42.789763" lon="-4.843670">
        <ele>1096.147</ele>
        <time>2021-10-15T13:04:10Z</time>
      </trkpt>
      <trkpt lat="42.789711" lon="-4.843649">
        <ele>1096.125</ele>
        <time>2021-10-15T13:04:13Z</time>
      </trkpt>
      <trkpt lat="42.789651" lon="-4.843607">
        <ele>1096.118</ele>
        <time>2021-10-15T13:04:24Z</time>
      </trkpt>
      <trkpt lat="42.789544" lon="-4.843628">
        <ele>1096.123</ele>
        <time>2021-10-15T13:04:26Z</time>
      </trkpt>
      <trkpt lat="42.789350" lon="-4.843646">
        <ele>1094.927</ele>
        <time>2021-10-15T13:04:28Z</time>
      </trkpt>
      <trkpt lat="42.789155" lon="-4.843680">
        <ele>1095.068</ele>
        <time>2021-10-15T13:04:30Z</time>
      </trkpt>
      <trkpt lat="42.788990" lon="-4.843754">
        <ele>1095.014</ele>
        <time>2021-10-15T13:04:32Z</time>
      </trkpt>
      <trkpt lat="42.788851" lon="-4.843849">
        <ele>1095.008</ele>
        <time>2021-10-15T13:04:34Z</time>
      </trkpt>
      <trkpt lat="42.788726" lon="-4.843928">
        <ele>1095.130</ele>
        <time>2021-10-15T13:04:36Z</time>
      </trkpt>
      <trkpt lat="42.788663" lon="-4.843974">
        <ele>1095.148</ele>
        <time>2021-10-15T13:04:37Z</time>
      </trkpt>
      <trkpt lat="42.788595" lon="-4.844017">
        <ele>1095.176</ele>
        <time>2021-10-15T13:04:38Z</time>
      </trkpt>
      <trkpt lat="42.788474" lon="-4.844072">
        <ele>1095.140</ele>
        <time>2021-10-15T13:04:40Z</time>
      </trkpt>
      <trkpt lat="42.788429" lon="-4.844088">
        <ele>1095.125</ele>
        <time>2021-10-15T13:04:41Z</time>
      </trkpt>
      <trkpt lat="42.788366" lon="-4.844095">
        <ele>1095.173</ele>
        <time>2021-10-15T13:04:43Z</time>
      </trkpt>
      <trkpt lat="42.788294" lon="-4.844083">
        <ele>1095.166</ele>
        <time>2021-10-15T13:04:45Z</time>
      </trkpt>
      <trkpt lat="42.788199" lon="-4.844036">
        <ele>1095.161</ele>
        <time>2021-10-15T13:04:47Z</time>
      </trkpt>
      <trkpt lat="42.788137" lon="-4.843993">
        <ele>1095.159</ele>
        <time>2021-10-15T13:04:48Z</time>
      </trkpt>
      <trkpt lat="42.788070" lon="-4.843944">
        <ele>1095.103</ele>
        <time>2021-10-15T13:04:49Z</time>
      </trkpt>
      <trkpt lat="42.788005" lon="-4.843891">
        <ele>1095.123</ele>
        <time>2021-10-15T13:04:50Z</time>
      </trkpt>
      <trkpt lat="42.787867" lon="-4.843775">
        <ele>1095.108</ele>
        <time>2021-10-15T13:04:52Z</time>
      </trkpt>
      <trkpt lat="42.787784" lon="-4.843720">
        <ele>1095.183</ele>
        <time>2021-10-15T13:04:53Z</time>
      </trkpt>
      <trkpt lat="42.787618" lon="-4.843636">
        <ele>1095.121</ele>
        <time>2021-10-15T13:04:55Z</time>
      </trkpt>
      <trkpt lat="42.787537" lon="-4.843607">
        <ele>1095.199</ele>
        <time>2021-10-15T13:04:56Z</time>
      </trkpt>
      <trkpt lat="42.787374" lon="-4.843571">
        <ele>1095.123</ele>
        <time>2021-10-15T13:04:58Z</time>
      </trkpt>
      <trkpt lat="42.787180" lon="-4.843543">
        <ele>1095.028</ele>
        <time>2021-10-15T13:05:00Z</time>
      </trkpt>
      <trkpt lat="42.786957" lon="-4.843527">
        <ele>1095.016</ele>
        <time>2021-10-15T13:05:02Z</time>
      </trkpt>
      <trkpt lat="42.786727" lon="-4.843530">
        <ele>1095.079</ele>
        <time>2021-10-15T13:05:04Z</time>
      </trkpt>
      <trkpt lat="42.786491" lon="-4.843559">
        <ele>1095.084</ele>
        <time>2021-10-15T13:05:06Z</time>
      </trkpt>
      <trkpt lat="42.786367" lon="-4.843577">
        <ele>1095.012</ele>
        <time>2021-10-15T13:05:07Z</time>
      </trkpt>
      <trkpt lat="42.786240" lon="-4.843594">
        <ele>1095.032</ele>
        <time>2021-10-15T13:05:08Z</time>
      </trkpt>
      <trkpt lat="42.785975" lon="-4.843633">
        <ele>1095.005</ele>
        <time>2021-10-15T13:05:10Z</time>
      </trkpt>
      <trkpt lat="42.785824" lon="-4.843647">
        <ele>1095.008</ele>
        <time>2021-10-15T13:05:11Z</time>
      </trkpt>
      <trkpt lat="42.785489" lon="-4.843687">
        <ele>1095.149</ele>
        <time>2021-10-15T13:05:13Z</time>
      </trkpt>
      <trkpt lat="42.785303" lon="-4.843722">
        <ele>1095.177</ele>
        <time>2021-10-15T13:05:14Z</time>
      </trkpt>
      <trkpt lat="42.784912" lon="-4.843839">
        <ele>1095.135</ele>
        <time>2021-10-15T13:05:16Z</time>
      </trkpt>
      <trkpt lat="42.784703" lon="-4.843939">
        <ele>1095.129</ele>
        <time>2021-10-15T13:05:17Z</time>
      </trkpt>
      <trkpt lat="42.784489" lon="-4.844055">
        <ele>1095.154</ele>
        <time>2021-10-15T13:05:18Z</time>
      </trkpt>
      <trkpt lat="42.784278" lon="-4.844169">
        <ele>1095.172</ele>
        <time>2021-10-15T13:05:19Z</time>
      </trkpt>
      <trkpt lat="42.784059" lon="-4.844270">
        <ele>1095.135</ele>
        <time>2021-10-15T13:05:20Z</time>
      </trkpt>
      <trkpt lat="42.783632" lon="-4.844452">
        <ele>1042.710</ele>
        <time>2021-10-15T13:05:22Z</time>
      </trkpt>
      <trkpt lat="42.783436" lon="-4.844580">
        <ele>1043.759</ele>
        <time>2021-10-15T13:05:23Z</time>
      </trkpt>
      <trkpt lat="42.783048" lon="-4.844805">
        <ele>1045.303</ele>
        <time>2021-10-15T13:05:25Z</time>
      </trkpt>
      <trkpt lat="42.782832" lon="-4.844894">
        <ele>1046.023</ele>
        <time>2021-10-15T13:05:26Z</time>
      </trkpt>
      <trkpt lat="42.782411" lon="-4.845061">
        <ele>1048.708</ele>
        <time>2021-10-15T13:05:28Z</time>
      </trkpt>
      <trkpt lat="42.782211" lon="-4.845124">
        <ele>1049.453</ele>
        <time>2021-10-15T13:05:29Z</time>
      </trkpt>
      <trkpt lat="42.781893" lon="-4.845262">
        <ele>1051.771</ele>
        <time>2021-10-15T13:05:31Z</time>
      </trkpt>
      <trkpt lat="42.781768" lon="-4.845370">
        <ele>1053.059</ele>
        <time>2021-10-15T13:05:32Z</time>
      </trkpt>
      <trkpt lat="42.781503" lon="-4.845553">
        <ele>1054.633</ele>
        <time>2021-10-15T13:05:34Z</time>
      </trkpt>
      <trkpt lat="42.781151" lon="-4.845590">
        <ele>1055.998</ele>
        <time>2021-10-15T13:05:36Z</time>
      </trkpt>
      <trkpt lat="42.780734" lon="-4.845564">
        <ele>1057.496</ele>
        <time>2021-10-15T13:05:38Z</time>
      </trkpt>
      <trkpt lat="42.780303" lon="-4.845561">
        <ele>1060.499</ele>
        <time>2021-10-15T13:05:40Z</time>
      </trkpt>
      <trkpt lat="42.779865" lon="-4.845543">
        <ele>1062.864</ele>
        <time>2021-10-15T13:05:42Z</time>
      </trkpt>
      <trkpt lat="42.779650" lon="-4.845522">
        <ele>1064.368</ele>
        <time>2021-10-15T13:05:43Z</time>
      </trkpt>
      <trkpt lat="42.779436" lon="-4.845492">
        <ele>1065.842</ele>
        <time>2021-10-15T13:05:44Z</time>
      </trkpt>
      <trkpt lat="42.779024" lon="-4.845444">
        <ele>1069.326</ele>
        <time>2021-10-15T13:05:46Z</time>
      </trkpt>
      <trkpt lat="42.778818" lon="-4.845433">
        <ele>1070.308</ele>
        <time>2021-10-15T13:05:47Z</time>
      </trkpt>
      <trkpt lat="42.778398" lon="-4.845408">
        <ele>1072.524</ele>
        <time>2021-10-15T13:05:49Z</time>
      </trkpt>
      <trkpt lat="42.778178" lon="-4.845396">
        <ele>1074.112</ele>
        <time>2021-10-15T13:05:50Z</time>
      </trkpt>
      <trkpt lat="42.777746" lon="-4.845373">
        <ele>1079.780</ele>
        <time>2021-10-15T13:05:52Z</time>
      </trkpt>
      <trkpt lat="42.777300" lon="-4.845344">
        <ele>1082.894</ele>
        <time>2021-10-15T13:05:54Z</time>
      </trkpt>
      <trkpt lat="42.777089" lon="-4.845326">
        <ele>1084.389</ele>
        <time>2021-10-15T13:05:55Z</time>
      </trkpt>
      <trkpt lat="42.776888" lon="-4.845299">
        <ele>1085.567</ele>
        <time>2021-10-15T13:05:56Z</time>
      </trkpt>
      <trkpt lat="42.776552" lon="-4.845232">
        <ele>1088.530</ele>
        <time>2021-10-15T13:05:58Z</time>
      </trkpt>
      <trkpt lat="42.776411" lon="-4.845194">
        <ele>1088.765</ele>
        <time>2021-10-15T13:05:59Z</time>
      </trkpt>
      <trkpt lat="42.776195" lon="-4.845107">
        <ele>1089.782</ele>
        <time>2021-10-15T13:06:01Z</time>
      </trkpt>
      <trkpt lat="42.776104" lon="-4.845066">
        <ele>1090.343</ele>
        <time>2021-10-15T13:06:02Z</time>
      </trkpt>
      <trkpt lat="42.775949" lon="-4.844995">
        <ele>1090.217</ele>
        <time>2021-10-15T13:06:04Z</time>
      </trkpt>
      <trkpt lat="42.775879" lon="-4.844964">
        <ele>1090.308</ele>
        <time>2021-10-15T13:06:05Z</time>
      </trkpt>
      <trkpt lat="42.775812" lon="-4.844935">
        <ele>1091.036</ele>
        <time>2021-10-15T13:06:06Z</time>
      </trkpt>
      <trkpt lat="42.775672" lon="-4.844896">
        <ele>1091.384</ele>
        <time>2021-10-15T13:06:08Z</time>
      </trkpt>
      <trkpt lat="42.775510" lon="-4.844917">
        <ele>1090.472</ele>
        <time>2021-10-15T13:06:10Z</time>
      </trkpt>
      <trkpt lat="42.775324" lon="-4.844894">
        <ele>1090.036</ele>
        <time>2021-10-15T13:06:12Z</time>
      </trkpt>
      <trkpt lat="42.775227" lon="-4.844828">
        <ele>1090.661</ele>
        <time>2021-10-15T13:06:13Z</time>
      </trkpt>
      <trkpt lat="42.775127" lon="-4.844730">
        <ele>1090.689</ele>
        <time>2021-10-15T13:06:14Z</time>
      </trkpt>
      <trkpt lat="42.774898" lon="-4.844536">
        <ele>1088.682</ele>
        <time>2021-10-15T13:06:16Z</time>
      </trkpt>
      <trkpt lat="42.774757" lon="-4.844469">
        <ele>1088.617</ele>
        <time>2021-10-15T13:06:17Z</time>
      </trkpt>
      <trkpt lat="42.774610" lon="-4.844415">
        <ele>1087.887</ele>
        <time>2021-10-15T13:06:18Z</time>
      </trkpt>
      <trkpt lat="42.774313" lon="-4.844316">
        <ele>1085.742</ele>
        <time>2021-10-15T13:06:20Z</time>
      </trkpt>
      <trkpt lat="42.774050" lon="-4.844234">
        <ele>1084.426</ele>
        <time>2021-10-15T13:06:22Z</time>
      </trkpt>
      <trkpt lat="42.773924" lon="-4.844201">
        <ele>1084.508</ele>
        <time>2021-10-15T13:06:23Z</time>
      </trkpt>
      <trkpt lat="42.773690" lon="-4.844147">
        <ele>1084.946</ele>
        <time>2021-10-15T13:06:25Z</time>
      </trkpt>
      <trkpt lat="42.773574" lon="-4.844123">
        <ele>1084.754</ele>
        <time>2021-10-15T13:06:26Z</time>
      </trkpt>
      <trkpt lat="42.773337" lon="-4.844072">
        <ele>1083.942</ele>
        <time>2021-10-15T13:06:28Z</time>
      </trkpt>
      <trkpt lat="42.773193" lon="-4.844049">
        <ele>1082.946</ele>
        <time>2021-10-15T13:06:29Z</time>
      </trkpt>
      <trkpt lat="42.772864" lon="-4.844002">
        <ele>1082.081</ele>
        <time>2021-10-15T13:06:31Z</time>
      </trkpt>
      <trkpt lat="42.772677" lon="-4.843975">
        <ele>1082.179</ele>
        <time>2021-10-15T13:06:32Z</time>
      </trkpt>
      <trkpt lat="42.772261" lon="-4.843905">
        <ele>1080.142</ele>
        <time>2021-10-15T13:06:34Z</time>
      </trkpt>
      <trkpt lat="42.771767" lon="-4.843792">
        <ele>1079.677</ele>
        <time>2021-10-15T13:06:36Z</time>
      </trkpt>
      <trkpt lat="42.771493" lon="-4.843722">
        <ele>1079.181</ele>
        <time>2021-10-15T13:06:37Z</time>
      </trkpt>
      <trkpt lat="42.771209" lon="-4.843650">
        <ele>1078.361</ele>
        <time>2021-10-15T13:06:38Z</time>
      </trkpt>
      <trkpt lat="42.770666" lon="-4.843501">
        <ele>1076.117</ele>
        <time>2021-10-15T13:06:40Z</time>
      </trkpt>
      <trkpt lat="42.770128" lon="-4.843347">
        <ele>1074.508</ele>
        <time>2021-10-15T13:06:42Z</time>
      </trkpt>
      <trkpt lat="42.769598" lon="-4.843167">
        <ele>1072.166</ele>
        <time>2021-10-15T13:06:44Z</time>
      </trkpt>
      <trkpt lat="42.769092" lon="-4.842920">
        <ele>1071.194</ele>
        <time>2021-10-15T13:06:46Z</time>
      </trkpt>
      <trkpt lat="42.768839" lon="-4.842765">
        <ele>1070.762</ele>
        <time>2021-10-15T13:06:47Z</time>
      </trkpt>
      <trkpt lat="42.768589" lon="-4.842597">
        <ele>1070.466</ele>
        <time>2021-10-15T13:06:48Z</time>
      </trkpt>
      <trkpt lat="42.768095" lon="-4.842248">
        <ele>1070.291</ele>
        <time>2021-10-15T13:06:50Z</time>
      </trkpt>
      <trkpt lat="42.767610" lon="-4.841901">
        <ele>1070.419</ele>
        <time>2021-10-15T13:06:52Z</time>
      </trkpt>
      <trkpt lat="42.767364" lon="-4.841730">
        <ele>1070.472</ele>
        <time>2021-10-15T13:06:53Z</time>
      </trkpt>
      <trkpt lat="42.767121" lon="-4.841562">
        <ele>1070.227</ele>
        <time>2021-10-15T13:06:54Z</time>
      </trkpt>
      <trkpt lat="42.766637" lon="-4.841219">
        <ele>1069.086</ele>
        <time>2021-10-15T13:06:56Z</time>
      </trkpt>
      <trkpt lat="42.766164" lon="-4.840892">
        <ele>1066.460</ele>
        <time>2021-10-15T13:06:58Z</time>
      </trkpt>
      <trkpt lat="42.765924" lon="-4.840735">
        <ele>1065.626</ele>
        <time>2021-10-15T13:06:59Z</time>
      </trkpt>
      <trkpt lat="42.765421" lon="-4.840496">
        <ele>1063.608</ele>
        <time>2021-10-15T13:07:01Z</time>
      </trkpt>
      <trkpt lat="42.765153" lon="-4.840410">
        <ele>1062.826</ele>
        <time>2021-10-15T13:07:02Z</time>
      </trkpt>
      <trkpt lat="42.764654" lon="-4.840293">
        <ele>1061.954</ele>
        <time>2021-10-15T13:07:04Z</time>
      </trkpt>
      <trkpt lat="42.764220" lon="-4.840186">
        <ele>1061.552</ele>
        <time>2021-10-15T13:07:06Z</time>
      </trkpt>
      <trkpt lat="42.763826" lon="-4.840090">
        <ele>1062.226</ele>
        <time>2021-10-15T13:07:08Z</time>
      </trkpt>
      <trkpt lat="42.763431" lon="-4.839993">
        <ele>1061.011</ele>
        <time>2021-10-15T13:07:10Z</time>
      </trkpt>
      <trkpt lat="42.763224" lon="-4.839940">
        <ele>1060.479</ele>
        <time>2021-10-15T13:07:11Z</time>
      </trkpt>
      <trkpt lat="42.763012" lon="-4.839885">
        <ele>1060.532</ele>
        <time>2021-10-15T13:07:12Z</time>
      </trkpt>
      <trkpt lat="42.762785" lon="-4.839827">
        <ele>1060.647</ele>
        <time>2021-10-15T13:07:13Z</time>
      </trkpt>
      <trkpt lat="42.762546" lon="-4.839766">
        <ele>1060.234</ele>
        <time>2021-10-15T13:07:14Z</time>
      </trkpt>
      <trkpt lat="42.762095" lon="-4.839651">
        <ele>1060.355</ele>
        <time>2021-10-15T13:07:16Z</time>
      </trkpt>
      <trkpt lat="42.761682" lon="-4.839544">
        <ele>1061.010</ele>
        <time>2021-10-15T13:07:18Z</time>
      </trkpt>
      <trkpt lat="42.761483" lon="-4.839491">
        <ele>1060.808</ele>
        <time>2021-10-15T13:07:19Z</time>
      </trkpt>
      <trkpt lat="42.761282" lon="-4.839438">
        <ele>1060.031</ele>
        <time>2021-10-15T13:07:20Z</time>
      </trkpt>
      <trkpt lat="42.760888" lon="-4.839336">
        <ele>1059.559</ele>
        <time>2021-10-15T13:07:22Z</time>
      </trkpt>
      <trkpt lat="42.760681" lon="-4.839283">
        <ele>1059.687</ele>
        <time>2021-10-15T13:07:23Z</time>
      </trkpt>
      <trkpt lat="42.760254" lon="-4.839175">
        <ele>1059.171</ele>
        <time>2021-10-15T13:07:25Z</time>
      </trkpt>
      <trkpt lat="42.760027" lon="-4.839118">
        <ele>1059.046</ele>
        <time>2021-10-15T13:07:26Z</time>
      </trkpt>
      <trkpt lat="42.759598" lon="-4.839005">
        <ele>1058.444</ele>
        <time>2021-10-15T13:07:28Z</time>
      </trkpt>
      <trkpt lat="42.759381" lon="-4.838947">
        <ele>1057.837</ele>
        <time>2021-10-15T13:07:29Z</time>
      </trkpt>
      <trkpt lat="42.758943" lon="-4.838833">
        <ele>1056.752</ele>
        <time>2021-10-15T13:07:31Z</time>
      </trkpt>
      <trkpt lat="42.758718" lon="-4.838776">
        <ele>1056.084</ele>
        <time>2021-10-15T13:07:32Z</time>
      </trkpt>
      <trkpt lat="42.758289" lon="-4.838667">
        <ele>1055.907</ele>
        <time>2021-10-15T13:07:34Z</time>
      </trkpt>
      <trkpt lat="42.758070" lon="-4.838617">
        <ele>1056.017</ele>
        <time>2021-10-15T13:07:35Z</time>
      </trkpt>
      <trkpt lat="42.757630" lon="-4.838527">
        <ele>1055.508</ele>
        <time>2021-10-15T13:07:37Z</time>
      </trkpt>
      <trkpt lat="42.757402" lon="-4.838489">
        <ele>1055.236</ele>
        <time>2021-10-15T13:07:38Z</time>
      </trkpt>
      <trkpt lat="42.756954" lon="-4.838421">
        <ele>1054.294</ele>
        <time>2021-10-15T13:07:40Z</time>
      </trkpt>
      <trkpt lat="42.756480" lon="-4.838350">
        <ele>1053.972</ele>
        <time>2021-10-15T13:07:42Z</time>
      </trkpt>
      <trkpt lat="42.756237" lon="-4.838313">
        <ele>1054.026</ele>
        <time>2021-10-15T13:07:43Z</time>
      </trkpt>
      <trkpt lat="42.755987" lon="-4.838276">
        <ele>1053.851</ele>
        <time>2021-10-15T13:07:44Z</time>
      </trkpt>
      <trkpt lat="42.755491" lon="-4.838202">
        <ele>1053.059</ele>
        <time>2021-10-15T13:07:46Z</time>
      </trkpt>
      <trkpt lat="42.755241" lon="-4.838164">
        <ele>1052.462</ele>
        <time>2021-10-15T13:07:47Z</time>
      </trkpt>
      <trkpt lat="42.755000" lon="-4.838125">
        <ele>1051.857</ele>
        <time>2021-10-15T13:07:48Z</time>
      </trkpt>
      <trkpt lat="42.754537" lon="-4.838022">
        <ele>1051.331</ele>
        <time>2021-10-15T13:07:50Z</time>
      </trkpt>
      <trkpt lat="42.754074" lon="-4.837832">
        <ele>1050.561</ele>
        <time>2021-10-15T13:07:52Z</time>
      </trkpt>
      <trkpt lat="42.753601" lon="-4.837506">
        <ele>1049.407</ele>
        <time>2021-10-15T13:07:54Z</time>
      </trkpt>
      <trkpt lat="42.753363" lon="-4.837308">
        <ele>1048.508</ele>
        <time>2021-10-15T13:07:55Z</time>
      </trkpt>
      <trkpt lat="42.753116" lon="-4.837100">
        <ele>1047.971</ele>
        <time>2021-10-15T13:07:56Z</time>
      </trkpt>
      <trkpt lat="42.752639" lon="-4.836724">
        <ele>1046.829</ele>
        <time>2021-10-15T13:07:58Z</time>
      </trkpt>
      <trkpt lat="42.752393" lon="-4.836526">
        <ele>1046.157</ele>
        <time>2021-10-15T13:07:59Z</time>
      </trkpt>
      <trkpt lat="42.751901" lon="-4.836129">
        <ele>1045.841</ele>
        <time>2021-10-15T13:08:01Z</time>
      </trkpt>
      <trkpt lat="42.751649" lon="-4.835927">
        <ele>1045.386</ele>
        <time>2021-10-15T13:08:02Z</time>
      </trkpt>
      <trkpt lat="42.751195" lon="-4.835567">
        <ele>1043.734</ele>
        <time>2021-10-15T13:08:04Z</time>
      </trkpt>
      <trkpt lat="42.750975" lon="-4.835393">
        <ele>1043.257</ele>
        <time>2021-10-15T13:08:05Z</time>
      </trkpt>
      <trkpt lat="42.750758" lon="-4.835220">
        <ele>1042.882</ele>
        <time>2021-10-15T13:08:06Z</time>
      </trkpt>
      <trkpt lat="42.750307" lon="-4.834860">
        <ele>1039.579</ele>
        <time>2021-10-15T13:08:08Z</time>
      </trkpt>
      <trkpt lat="42.749843" lon="-4.834499">
        <ele>1037.905</ele>
        <time>2021-10-15T13:08:10Z</time>
      </trkpt>
      <trkpt lat="42.749602" lon="-4.834305">
        <ele>1036.825</ele>
        <time>2021-10-15T13:08:11Z</time>
      </trkpt>
      <trkpt lat="42.749119" lon="-4.833919">
        <ele>1033.708</ele>
        <time>2021-10-15T13:08:13Z</time>
      </trkpt>
      <trkpt lat="42.748875" lon="-4.833733">
        <ele>1032.825</ele>
        <time>2021-10-15T13:08:14Z</time>
      </trkpt>
      <trkpt lat="42.748399" lon="-4.833404">
        <ele>1029.413</ele>
        <time>2021-10-15T13:08:16Z</time>
      </trkpt>
      <trkpt lat="42.748153" lon="-4.833265">
        <ele>1028.861</ele>
        <time>2021-10-15T13:08:17Z</time>
      </trkpt>
      <trkpt lat="42.747653" lon="-4.833021">
        <ele>1027.785</ele>
        <time>2021-10-15T13:08:19Z</time>
      </trkpt>
      <trkpt lat="42.747393" lon="-4.832892">
        <ele>1027.460</ele>
        <time>2021-10-15T13:08:20Z</time>
      </trkpt>
      <trkpt lat="42.746864" lon="-4.832634">
        <ele>1026.518</ele>
        <time>2021-10-15T13:08:22Z</time>
      </trkpt>
      <trkpt lat="42.746578" lon="-4.832497">
        <ele>1026.581</ele>
        <time>2021-10-15T13:08:23Z</time>
      </trkpt>
      <trkpt lat="42.746281" lon="-4.832355">
        <ele>1026.126</ele>
        <time>2021-10-15T13:08:24Z</time>
      </trkpt>
      <trkpt lat="42.745979" lon="-4.832211">
        <ele>1025.582</ele>
        <time>2021-10-15T13:08:25Z</time>
      </trkpt>
      <trkpt lat="42.745667" lon="-4.832062">
        <ele>1024.143</ele>
        <time>2021-10-15T13:08:26Z</time>
      </trkpt>
      <trkpt lat="42.745058" lon="-4.831771">
        <ele>1023.017</ele>
        <time>2021-10-15T13:08:28Z</time>
      </trkpt>
      <trkpt lat="42.744746" lon="-4.831623">
        <ele>1022.908</ele>
        <time>2021-10-15T13:08:29Z</time>
      </trkpt>
      <trkpt lat="42.744439" lon="-4.831477">
        <ele>1022.826</ele>
        <time>2021-10-15T13:08:30Z</time>
      </trkpt>
      <trkpt lat="42.743835" lon="-4.831191">
        <ele>1021.364</ele>
        <time>2021-10-15T13:08:32Z</time>
      </trkpt>
      <trkpt lat="42.743256" lon="-4.830916">
        <ele>1019.682</ele>
        <time>2021-10-15T13:08:34Z</time>
      </trkpt>
      <trkpt lat="42.742967" lon="-4.830778">
        <ele>1019.026</ele>
        <time>2021-10-15T13:08:35Z</time>
      </trkpt>
      <trkpt lat="42.742678" lon="-4.830639">
        <ele>1018.621</ele>
        <time>2021-10-15T13:08:36Z</time>
      </trkpt>
      <trkpt lat="42.742103" lon="-4.830362">
        <ele>1017.789</ele>
        <time>2021-10-15T13:08:38Z</time>
      </trkpt>
      <trkpt lat="42.741539" lon="-4.830092">
        <ele>1018.092</ele>
        <time>2021-10-15T13:08:40Z</time>
      </trkpt>
      <trkpt lat="42.740971" lon="-4.829824">
        <ele>1018.187</ele>
        <time>2021-10-15T13:08:42Z</time>
      </trkpt>
      <trkpt lat="42.740685" lon="-4.829689">
        <ele>1018.054</ele>
        <time>2021-10-15T13:08:43Z</time>
      </trkpt>
      <trkpt lat="42.740395" lon="-4.829557">
        <ele>1018.256</ele>
        <time>2021-10-15T13:08:44Z</time>
      </trkpt>
      <trkpt lat="42.739837" lon="-4.829290">
        <ele>1018.111</ele>
        <time>2021-10-15T13:08:46Z</time>
      </trkpt>
      <trkpt lat="42.739274" lon="-4.829013">
        <ele>1018.608</ele>
        <time>2021-10-15T13:08:48Z</time>
      </trkpt>
      <trkpt lat="42.738992" lon="-4.828867">
        <ele>1018.473</ele>
        <time>2021-10-15T13:08:49Z</time>
      </trkpt>
      <trkpt lat="42.738710" lon="-4.828712">
        <ele>1018.241</ele>
        <time>2021-10-15T13:08:50Z</time>
      </trkpt>
      <trkpt lat="42.738174" lon="-4.828368">
        <ele>1018.689</ele>
        <time>2021-10-15T13:08:52Z</time>
      </trkpt>
      <trkpt lat="42.737651" lon="-4.827992">
        <ele>1017.393</ele>
        <time>2021-10-15T13:08:54Z</time>
      </trkpt>
      <trkpt lat="42.737389" lon="-4.827805">
        <ele>1016.588</ele>
        <time>2021-10-15T13:08:55Z</time>
      </trkpt>
      <trkpt lat="42.737118" lon="-4.827613">
        <ele>1016.246</ele>
        <time>2021-10-15T13:08:56Z</time>
      </trkpt>
      <trkpt lat="42.736594" lon="-4.827243">
        <ele>1016.789</ele>
        <time>2021-10-15T13:08:58Z</time>
      </trkpt>
      <trkpt lat="42.736322" lon="-4.827051">
        <ele>1016.564</ele>
        <time>2021-10-15T13:08:59Z</time>
      </trkpt>
      <trkpt lat="42.736044" lon="-4.826853">
        <ele>1016.417</ele>
        <time>2021-10-15T13:09:00Z</time>
      </trkpt>
      <trkpt lat="42.735469" lon="-4.826443">
        <ele>1017.087</ele>
        <time>2021-10-15T13:09:02Z</time>
      </trkpt>
      <trkpt lat="42.734921" lon="-4.826054">
        <ele>1017.315</ele>
        <time>2021-10-15T13:09:04Z</time>
      </trkpt>
      <trkpt lat="42.734647" lon="-4.825869">
        <ele>1018.208</ele>
        <time>2021-10-15T13:09:05Z</time>
      </trkpt>
      <trkpt lat="42.734096" lon="-4.825538">
        <ele>1020.569</ele>
        <time>2021-10-15T13:09:07Z</time>
      </trkpt>
      <trkpt lat="42.733807" lon="-4.825388">
        <ele>1021.337</ele>
        <time>2021-10-15T13:09:08Z</time>
      </trkpt>
      <trkpt lat="42.733239" lon="-4.825106">
        <ele>1023.545</ele>
        <time>2021-10-15T13:09:10Z</time>
      </trkpt>
      <trkpt lat="42.732662" lon="-4.824817">
        <ele>1026.179</ele>
        <time>2021-10-15T13:09:12Z</time>
      </trkpt>
      <trkpt lat="42.732377" lon="-4.824676">
        <ele>1027.394</ele>
        <time>2021-10-15T13:09:13Z</time>
      </trkpt>
      <trkpt lat="42.732087" lon="-4.824539">
        <ele>1028.682</ele>
        <time>2021-10-15T13:09:14Z</time>
      </trkpt>
      <trkpt lat="42.731517" lon="-4.824266">
        <ele>1030.735</ele>
        <time>2021-10-15T13:09:16Z</time>
      </trkpt>
      <trkpt lat="42.731233" lon="-4.824130">
        <ele>1032.290</ele>
        <time>2021-10-15T13:09:17Z</time>
      </trkpt>
      <trkpt lat="42.730957" lon="-4.823997">
        <ele>1033.417</ele>
        <time>2021-10-15T13:09:18Z</time>
      </trkpt>
      <trkpt lat="42.730452" lon="-4.823741">
        <ele>1034.887</ele>
        <time>2021-10-15T13:09:20Z</time>
      </trkpt>
      <trkpt lat="42.729957" lon="-4.823499">
        <ele>1034.815</ele>
        <time>2021-10-15T13:09:22Z</time>
      </trkpt>
      <trkpt lat="42.729700" lon="-4.823376">
        <ele>1034.708</ele>
        <time>2021-10-15T13:09:23Z</time>
      </trkpt>
      <trkpt lat="42.729181" lon="-4.823137">
        <ele>1035.469</ele>
        <time>2021-10-15T13:09:25Z</time>
      </trkpt>
      <trkpt lat="42.728912" lon="-4.823031">
        <ele>1035.537</ele>
        <time>2021-10-15T13:09:26Z</time>
      </trkpt>
      <trkpt lat="42.728397" lon="-4.822863">
        <ele>1036.125</ele>
        <time>2021-10-15T13:09:28Z</time>
      </trkpt>
      <trkpt lat="42.728134" lon="-4.822797">
        <ele>1037.219</ele>
        <time>2021-10-15T13:09:29Z</time>
      </trkpt>
      <trkpt lat="42.727642" lon="-4.822685">
        <ele>1038.814</ele>
        <time>2021-10-15T13:09:31Z</time>
      </trkpt>
      <trkpt lat="42.727408" lon="-4.822627">
        <ele>1040.162</ele>
        <time>2021-10-15T13:09:32Z</time>
      </trkpt>
      <trkpt lat="42.726977" lon="-4.822500">
        <ele>1042.345</ele>
        <time>2021-10-15T13:09:34Z</time>
      </trkpt>
      <trkpt lat="42.726762" lon="-4.822424">
        <ele>1043.140</ele>
        <time>2021-10-15T13:09:35Z</time>
      </trkpt>
      <trkpt lat="42.726552" lon="-4.822334">
        <ele>1043.897</ele>
        <time>2021-10-15T13:09:36Z</time>
      </trkpt>
      <trkpt lat="42.726347" lon="-4.822237">
        <ele>1044.823</ele>
        <time>2021-10-15T13:09:37Z</time>
      </trkpt>
      <trkpt lat="42.726141" lon="-4.822132">
        <ele>1046.225</ele>
        <time>2021-10-15T13:09:38Z</time>
      </trkpt>
      <trkpt lat="42.725737" lon="-4.821914">
        <ele>1048.208</ele>
        <time>2021-10-15T13:09:40Z</time>
      </trkpt>
      <trkpt lat="42.725533" lon="-4.821804">
        <ele>1049.147</ele>
        <time>2021-10-15T13:09:41Z</time>
      </trkpt>
      <trkpt lat="42.725119" lon="-4.821572">
        <ele>1051.575</ele>
        <time>2021-10-15T13:09:43Z</time>
      </trkpt>
      <trkpt lat="42.724902" lon="-4.821454">
        <ele>1052.713</ele>
        <time>2021-10-15T13:09:44Z</time>
      </trkpt>
      <trkpt lat="42.724463" lon="-4.821219">
        <ele>1055.057</ele>
        <time>2021-10-15T13:09:46Z</time>
      </trkpt>
      <trkpt lat="42.724230" lon="-4.821100">
        <ele>1056.742</ele>
        <time>2021-10-15T13:09:47Z</time>
      </trkpt>
      <trkpt lat="42.723737" lon="-4.820858">
        <ele>1059.390</ele>
        <time>2021-10-15T13:09:49Z</time>
      </trkpt>
      <trkpt lat="42.723471" lon="-4.820737">
        <ele>1061.063</ele>
        <time>2021-10-15T13:09:50Z</time>
      </trkpt>
      <trkpt lat="42.722937" lon="-4.820482">
        <ele>1062.638</ele>
        <time>2021-10-15T13:09:52Z</time>
      </trkpt>
      <trkpt lat="42.722389" lon="-4.820193">
        <ele>1064.427</ele>
        <time>2021-10-15T13:09:54Z</time>
      </trkpt>
      <trkpt lat="42.722106" lon="-4.820041">
        <ele>1065.868</ele>
        <time>2021-10-15T13:09:55Z</time>
      </trkpt>
      <trkpt lat="42.721818" lon="-4.819886">
        <ele>1066.914</ele>
        <time>2021-10-15T13:09:56Z</time>
      </trkpt>
      <trkpt lat="42.721266" lon="-4.819588">
        <ele>1067.908</ele>
        <time>2021-10-15T13:09:58Z</time>
      </trkpt>
      <trkpt lat="42.720710" lon="-4.819274">
        <ele>1069.850</ele>
        <time>2021-10-15T13:10:00Z</time>
      </trkpt>
      <trkpt lat="42.720162" lon="-4.818977">
        <ele>1072.088</ele>
        <time>2021-10-15T13:10:02Z</time>
      </trkpt>
      <trkpt lat="42.719649" lon="-4.818693">
        <ele>1073.886</ele>
        <time>2021-10-15T13:10:04Z</time>
      </trkpt>
      <trkpt lat="42.719172" lon="-4.818439">
        <ele>1073.830</ele>
        <time>2021-10-15T13:10:06Z</time>
      </trkpt>
      <trkpt lat="42.718704" lon="-4.818197">
        <ele>1073.735</ele>
        <time>2021-10-15T13:10:08Z</time>
      </trkpt>
      <trkpt lat="42.718228" lon="-4.817945">
        <ele>1073.493</ele>
        <time>2021-10-15T13:10:10Z</time>
      </trkpt>
      <trkpt lat="42.717730" lon="-4.817671">
        <ele>1074.196</ele>
        <time>2021-10-15T13:10:12Z</time>
      </trkpt>
      <trkpt lat="42.717219" lon="-4.817387">
        <ele>1073.041</ele>
        <time>2021-10-15T13:10:14Z</time>
      </trkpt>
      <trkpt lat="42.716710" lon="-4.817114">
        <ele>1072.879</ele>
        <time>2021-10-15T13:10:16Z</time>
      </trkpt>
      <trkpt lat="42.716448" lon="-4.816974">
        <ele>1073.005</ele>
        <time>2021-10-15T13:10:17Z</time>
      </trkpt>
      <trkpt lat="42.715923" lon="-4.816702">
        <ele>1072.125</ele>
        <time>2021-10-15T13:10:19Z</time>
      </trkpt>
      <trkpt lat="42.715648" lon="-4.816569">
        <ele>1071.708</ele>
        <time>2021-10-15T13:10:20Z</time>
      </trkpt>
      <trkpt lat="42.715102" lon="-4.816330">
        <ele>1071.265</ele>
        <time>2021-10-15T13:10:22Z</time>
      </trkpt>
      <trkpt lat="42.714535" lon="-4.816094">
        <ele>1070.363</ele>
        <time>2021-10-15T13:10:24Z</time>
      </trkpt>
      <trkpt lat="42.714245" lon="-4.815974">
        <ele>1069.961</ele>
        <time>2021-10-15T13:10:25Z</time>
      </trkpt>
      <trkpt lat="42.713939" lon="-4.815854">
        <ele>1069.895</ele>
        <time>2021-10-15T13:10:26Z</time>
      </trkpt>
      <trkpt lat="42.713341" lon="-4.815620">
        <ele>1070.120</ele>
        <time>2021-10-15T13:10:28Z</time>
      </trkpt>
      <trkpt lat="42.712727" lon="-4.815378">
        <ele>1069.328</ele>
        <time>2021-10-15T13:10:30Z</time>
      </trkpt>
      <trkpt lat="42.712420" lon="-4.815257">
        <ele>1069.151</ele>
        <time>2021-10-15T13:10:31Z</time>
      </trkpt>
      <trkpt lat="42.712114" lon="-4.815135">
        <ele>1069.026</ele>
        <time>2021-10-15T13:10:32Z</time>
      </trkpt>
      <trkpt lat="42.711520" lon="-4.814900">
        <ele>1068.628</ele>
        <time>2021-10-15T13:10:34Z</time>
      </trkpt>
      <trkpt lat="42.710929" lon="-4.814667">
        <ele>1067.689</ele>
        <time>2021-10-15T13:10:36Z</time>
      </trkpt>
      <trkpt lat="42.710633" lon="-4.814551">
        <ele>1067.117</ele>
        <time>2021-10-15T13:10:37Z</time>
      </trkpt>
      <trkpt lat="42.710335" lon="-4.814433">
        <ele>1066.308</ele>
        <time>2021-10-15T13:10:38Z</time>
      </trkpt>
      <trkpt lat="42.709752" lon="-4.814200">
        <ele>1065.570</ele>
        <time>2021-10-15T13:10:40Z</time>
      </trkpt>
      <trkpt lat="42.709154" lon="-4.813961">
        <ele>1064.858</ele>
        <time>2021-10-15T13:10:42Z</time>
      </trkpt>
      <trkpt lat="42.708543" lon="-4.813721">
        <ele>1063.956</ele>
        <time>2021-10-15T13:10:44Z</time>
      </trkpt>
      <trkpt lat="42.707948" lon="-4.813477">
        <ele>1063.440</ele>
        <time>2021-10-15T13:10:46Z</time>
      </trkpt>
      <trkpt lat="42.707647" lon="-4.813356">
        <ele>1062.785</ele>
        <time>2021-10-15T13:10:47Z</time>
      </trkpt>
      <trkpt lat="42.707347" lon="-4.813235">
        <ele>1062.893</ele>
        <time>2021-10-15T13:10:48Z</time>
      </trkpt>
      <trkpt lat="42.706729" lon="-4.812989">
        <ele>1062.376</ele>
        <time>2021-10-15T13:10:50Z</time>
      </trkpt>
      <trkpt lat="42.706092" lon="-4.812722">
        <ele>1061.731</ele>
        <time>2021-10-15T13:10:52Z</time>
      </trkpt>
      <trkpt lat="42.705447" lon="-4.812451">
        <ele>1061.289</ele>
        <time>2021-10-15T13:10:54Z</time>
      </trkpt>
      <trkpt lat="42.705131" lon="-4.812326">
        <ele>1060.906</ele>
        <time>2021-10-15T13:10:55Z</time>
      </trkpt>
      <trkpt lat="42.704819" lon="-4.812209">
        <ele>1060.926</ele>
        <time>2021-10-15T13:10:56Z</time>
      </trkpt>
      <trkpt lat="42.704239" lon="-4.812005">
        <ele>1060.108</ele>
        <time>2021-10-15T13:10:58Z</time>
      </trkpt>
      <trkpt lat="42.703942" lon="-4.811901">
        <ele>1059.416</ele>
        <time>2021-10-15T13:10:59Z</time>
      </trkpt>
      <trkpt lat="42.703652" lon="-4.811791">
        <ele>1058.474</ele>
        <time>2021-10-15T13:11:00Z</time>
      </trkpt>
      <trkpt lat="42.703372" lon="-4.811677">
        <ele>1058.062</ele>
        <time>2021-10-15T13:11:01Z</time>
      </trkpt>
      <trkpt lat="42.703096" lon="-4.811566">
        <ele>1058.036</ele>
        <time>2021-10-15T13:11:02Z</time>
      </trkpt>
      <trkpt lat="42.702587" lon="-4.811364">
        <ele>1056.921</ele>
        <time>2021-10-15T13:11:04Z</time>
      </trkpt>
      <trkpt lat="42.702080" lon="-4.811159">
        <ele>1056.769</ele>
        <time>2021-10-15T13:11:06Z</time>
      </trkpt>
      <trkpt lat="42.701822" lon="-4.811055">
        <ele>1055.922</ele>
        <time>2021-10-15T13:11:07Z</time>
      </trkpt>
      <trkpt lat="42.701559" lon="-4.810950">
        <ele>1055.447</ele>
        <time>2021-10-15T13:11:08Z</time>
      </trkpt>
      <trkpt lat="42.701032" lon="-4.810741">
        <ele>1054.744</ele>
        <time>2021-10-15T13:11:10Z</time>
      </trkpt>
      <trkpt lat="42.700760" lon="-4.810634">
        <ele>1054.405</ele>
        <time>2021-10-15T13:11:11Z</time>
      </trkpt>
      <trkpt lat="42.700487" lon="-4.810532">
        <ele>1054.015</ele>
        <time>2021-10-15T13:11:12Z</time>
      </trkpt>
      <trkpt lat="42.699933" lon="-4.810320">
        <ele>1053.808</ele>
        <time>2021-10-15T13:11:14Z</time>
      </trkpt>
      <trkpt lat="42.699385" lon="-4.810098">
        <ele>1053.452</ele>
        <time>2021-10-15T13:11:16Z</time>
      </trkpt>
      <trkpt lat="42.699104" lon="-4.809986">
        <ele>1053.270</ele>
        <time>2021-10-15T13:11:17Z</time>
      </trkpt>
      <trkpt lat="42.698821" lon="-4.809873">
        <ele>1052.698</ele>
        <time>2021-10-15T13:11:18Z</time>
      </trkpt>
      <trkpt lat="42.698533" lon="-4.809760">
        <ele>1052.472</ele>
        <time>2021-10-15T13:11:19Z</time>
      </trkpt>
      <trkpt lat="42.698238" lon="-4.809644">
        <ele>1052.177</ele>
        <time>2021-10-15T13:11:20Z</time>
      </trkpt>
      <trkpt lat="42.697652" lon="-4.809408">
        <ele>1051.015</ele>
        <time>2021-10-15T13:11:22Z</time>
      </trkpt>
      <trkpt lat="42.697353" lon="-4.809287">
        <ele>1050.858</ele>
        <time>2021-10-15T13:11:23Z</time>
      </trkpt>
      <trkpt lat="42.696780" lon="-4.809056">
        <ele>1050.683</ele>
        <time>2021-10-15T13:11:25Z</time>
      </trkpt>
      <trkpt lat="42.696491" lon="-4.808941">
        <ele>1050.437</ele>
        <time>2021-10-15T13:11:26Z</time>
      </trkpt>
      <trkpt lat="42.695952" lon="-4.808733">
        <ele>1050.849</ele>
        <time>2021-10-15T13:11:28Z</time>
      </trkpt>
      <trkpt lat="42.695675" lon="-4.808625">
        <ele>1050.613</ele>
        <time>2021-10-15T13:11:29Z</time>
      </trkpt>
      <trkpt lat="42.695400" lon="-4.808521">
        <ele>1050.708</ele>
        <time>2021-10-15T13:11:30Z</time>
      </trkpt>
      <trkpt lat="42.694851" lon="-4.808306">
        <ele>1049.921</ele>
        <time>2021-10-15T13:11:32Z</time>
      </trkpt>
      <trkpt lat="42.694327" lon="-4.808096">
        <ele>1049.739</ele>
        <time>2021-10-15T13:11:34Z</time>
      </trkpt>
      <trkpt lat="42.694059" lon="-4.807990">
        <ele>1049.227</ele>
        <time>2021-10-15T13:11:35Z</time>
      </trkpt>
      <trkpt lat="42.693795" lon="-4.807886">
        <ele>1048.711</ele>
        <time>2021-10-15T13:11:36Z</time>
      </trkpt>
      <trkpt lat="42.693266" lon="-4.807681">
        <ele>1047.726</ele>
        <time>2021-10-15T13:11:38Z</time>
      </trkpt>
      <trkpt lat="42.692732" lon="-4.807469">
        <ele>1047.624</ele>
        <time>2021-10-15T13:11:40Z</time>
      </trkpt>
      <trkpt lat="42.692458" lon="-4.807359">
        <ele>1047.227</ele>
        <time>2021-10-15T13:11:41Z</time>
      </trkpt>
      <trkpt lat="42.692188" lon="-4.807250">
        <ele>1047.092</ele>
        <time>2021-10-15T13:11:42Z</time>
      </trkpt>
      <trkpt lat="42.691921" lon="-4.807143">
        <ele>1046.857</ele>
        <time>2021-10-15T13:11:43Z</time>
      </trkpt>
      <trkpt lat="42.691654" lon="-4.807035">
        <ele>1046.900</ele>
        <time>2021-10-15T13:11:44Z</time>
      </trkpt>
      <trkpt lat="42.691134" lon="-4.806834">
        <ele>1045.920</ele>
        <time>2021-10-15T13:11:46Z</time>
      </trkpt>
      <trkpt lat="42.690871" lon="-4.806736">
        <ele>1045.808</ele>
        <time>2021-10-15T13:11:47Z</time>
      </trkpt>
      <trkpt lat="42.690351" lon="-4.806539">
        <ele>1045.013</ele>
        <time>2021-10-15T13:11:49Z</time>
      </trkpt>
      <trkpt lat="42.690092" lon="-4.806433">
        <ele>1045.091</ele>
        <time>2021-10-15T13:11:50Z</time>
      </trkpt>
      <trkpt lat="42.689580" lon="-4.806218">
        <ele>1044.359</ele>
        <time>2021-10-15T13:11:52Z</time>
      </trkpt>
      <trkpt lat="42.689052" lon="-4.806008">
        <ele>1043.683</ele>
        <time>2021-10-15T13:11:54Z</time>
      </trkpt>
      <trkpt lat="42.688512" lon="-4.805797">
        <ele>1042.598</ele>
        <time>2021-10-15T13:11:56Z</time>
      </trkpt>
      <trkpt lat="42.687987" lon="-4.805585">
        <ele>1042.696</ele>
        <time>2021-10-15T13:11:58Z</time>
      </trkpt>
      <trkpt lat="42.687715" lon="-4.805476">
        <ele>1042.049</ele>
        <time>2021-10-15T13:11:59Z</time>
      </trkpt>
      <trkpt lat="42.687176" lon="-4.805267">
        <ele>1041.554</ele>
        <time>2021-10-15T13:12:01Z</time>
      </trkpt>
      <trkpt lat="42.686900" lon="-4.805160">
        <ele>1041.352</ele>
        <time>2021-10-15T13:12:02Z</time>
      </trkpt>
      <trkpt lat="42.686361" lon="-4.804945">
        <ele>1040.253</ele>
        <time>2021-10-15T13:12:04Z</time>
      </trkpt>
      <trkpt lat="42.686085" lon="-4.804836">
        <ele>1040.408</ele>
        <time>2021-10-15T13:12:05Z</time>
      </trkpt>
      <trkpt lat="42.685539" lon="-4.804619">
        <ele>1039.608</ele>
        <time>2021-10-15T13:12:07Z</time>
      </trkpt>
      <trkpt lat="42.685264" lon="-4.804509">
        <ele>1039.133</ele>
        <time>2021-10-15T13:12:08Z</time>
      </trkpt>
      <trkpt lat="42.684726" lon="-4.804303">
        <ele>1038.771</ele>
        <time>2021-10-15T13:12:10Z</time>
      </trkpt>
      <trkpt lat="42.684454" lon="-4.804200">
        <ele>1039.029</ele>
        <time>2021-10-15T13:12:11Z</time>
      </trkpt>
      <trkpt lat="42.684184" lon="-4.804091">
        <ele>1038.813</ele>
        <time>2021-10-15T13:12:12Z</time>
      </trkpt>
      <trkpt lat="42.683914" lon="-4.803982">
        <ele>1038.918</ele>
        <time>2021-10-15T13:12:13Z</time>
      </trkpt>
      <trkpt lat="42.683641" lon="-4.803872">
        <ele>1039.116</ele>
        <time>2021-10-15T13:12:14Z</time>
      </trkpt>
      <trkpt lat="42.683097" lon="-4.803654">
        <ele>1038.719</ele>
        <time>2021-10-15T13:12:16Z</time>
      </trkpt>
      <trkpt lat="42.682555" lon="-4.803440">
        <ele>1039.094</ele>
        <time>2021-10-15T13:12:18Z</time>
      </trkpt>
      <trkpt lat="42.682284" lon="-4.803336">
        <ele>1038.955</ele>
        <time>2021-10-15T13:12:19Z</time>
      </trkpt>
      <trkpt lat="42.682014" lon="-4.803224">
        <ele>1038.807</ele>
        <time>2021-10-15T13:12:20Z</time>
      </trkpt>
      <trkpt lat="42.681491" lon="-4.802983">
        <ele>1038.817</ele>
        <time>2021-10-15T13:12:22Z</time>
      </trkpt>
      <trkpt lat="42.680968" lon="-4.802710">
        <ele>1039.108</ele>
        <time>2021-10-15T13:12:24Z</time>
      </trkpt>
      <trkpt lat="42.680709" lon="-4.802569">
        <ele>1039.233</ele>
        <time>2021-10-15T13:12:25Z</time>
      </trkpt>
      <trkpt lat="42.680446" lon="-4.802421">
        <ele>1039.191</ele>
        <time>2021-10-15T13:12:26Z</time>
      </trkpt>
      <trkpt lat="42.679933" lon="-4.802138">
        <ele>1039.619</ele>
        <time>2021-10-15T13:12:28Z</time>
      </trkpt>
      <trkpt lat="42.679671" lon="-4.801992">
        <ele>1039.013</ele>
        <time>2021-10-15T13:12:29Z</time>
      </trkpt>
      <trkpt lat="42.679408" lon="-4.801845">
        <ele>1038.458</ele>
        <time>2021-10-15T13:12:30Z</time>
      </trkpt>
      <trkpt lat="42.678875" lon="-4.801551">
        <ele>1037.246</ele>
        <time>2021-10-15T13:12:32Z</time>
      </trkpt>
      <trkpt lat="42.678358" lon="-4.801267">
        <ele>1036.799</ele>
        <time>2021-10-15T13:12:34Z</time>
      </trkpt>
      <trkpt lat="42.678094" lon="-4.801121">
        <ele>1036.494</ele>
        <time>2021-10-15T13:12:35Z</time>
      </trkpt>
      <trkpt lat="42.677579" lon="-4.800838">
        <ele>1036.157</ele>
        <time>2021-10-15T13:12:37Z</time>
      </trkpt>
      <trkpt lat="42.677313" lon="-4.800699">
        <ele>1035.900</ele>
        <time>2021-10-15T13:12:38Z</time>
      </trkpt>
      <trkpt lat="42.676807" lon="-4.800429">
        <ele>1035.020</ele>
        <time>2021-10-15T13:12:40Z</time>
      </trkpt>
      <trkpt lat="42.676551" lon="-4.800286">
        <ele>1034.808</ele>
        <time>2021-10-15T13:12:41Z</time>
      </trkpt>
      <trkpt lat="42.676040" lon="-4.800003">
        <ele>1034.473</ele>
        <time>2021-10-15T13:12:43Z</time>
      </trkpt>
      <trkpt lat="42.675779" lon="-4.799864">
        <ele>1034.231</ele>
        <time>2021-10-15T13:12:44Z</time>
      </trkpt>
      <trkpt lat="42.675265" lon="-4.799583">
        <ele>1032.859</ele>
        <time>2021-10-15T13:12:46Z</time>
      </trkpt>
      <trkpt lat="42.675007" lon="-4.799439">
        <ele>1032.623</ele>
        <time>2021-10-15T13:12:47Z</time>
      </trkpt>
      <trkpt lat="42.674517" lon="-4.799166">
        <ele>1031.998</ele>
        <time>2021-10-15T13:12:49Z</time>
      </trkpt>
      <trkpt lat="42.674272" lon="-4.799036">
        <ele>1031.596</ele>
        <time>2021-10-15T13:12:50Z</time>
      </trkpt>
      <trkpt lat="42.673787" lon="-4.798777">
        <ele>1029.559</ele>
        <time>2021-10-15T13:12:52Z</time>
      </trkpt>
      <trkpt lat="42.673537" lon="-4.798642">
        <ele>1029.534</ele>
        <time>2021-10-15T13:12:53Z</time>
      </trkpt>
      <trkpt lat="42.673057" lon="-4.798374">
        <ele>1029.573</ele>
        <time>2021-10-15T13:12:55Z</time>
      </trkpt>
      <trkpt lat="42.672834" lon="-4.798252">
        <ele>1030.085</ele>
        <time>2021-10-15T13:12:56Z</time>
      </trkpt>
      <trkpt lat="42.672448" lon="-4.798046">
        <ele>1029.613</ele>
        <time>2021-10-15T13:12:58Z</time>
      </trkpt>
      <trkpt lat="42.672099" lon="-4.797857">
        <ele>1029.408</ele>
        <time>2021-10-15T13:13:00Z</time>
      </trkpt>
      <trkpt lat="42.671936" lon="-4.797767">
        <ele>1030.195</ele>
        <time>2021-10-15T13:13:01Z</time>
      </trkpt>
      <trkpt lat="42.671781" lon="-4.797678">
        <ele>1030.153</ele>
        <time>2021-10-15T13:13:02Z</time>
      </trkpt>
      <trkpt lat="42.671490" lon="-4.797509">
        <ele>1029.841</ele>
        <time>2021-10-15T13:13:04Z</time>
      </trkpt>
      <trkpt lat="42.671344" lon="-4.797425">
        <ele>1030.255</ele>
        <time>2021-10-15T13:13:05Z</time>
      </trkpt>
      <trkpt lat="42.671049" lon="-4.797262">
        <ele>1030.910</ele>
        <time>2021-10-15T13:13:07Z</time>
      </trkpt>
      <trkpt lat="42.670896" lon="-4.797181">
        <ele>1031.068</ele>
        <time>2021-10-15T13:13:08Z</time>
      </trkpt>
      <trkpt lat="42.670592" lon="-4.797021">
        <ele>1031.661</ele>
        <time>2021-10-15T13:13:10Z</time>
      </trkpt>
      <trkpt lat="42.670435" lon="-4.796934">
        <ele>1031.576</ele>
        <time>2021-10-15T13:13:11Z</time>
      </trkpt>
      <trkpt lat="42.670276" lon="-4.796846">
        <ele>1031.889</ele>
        <time>2021-10-15T13:13:12Z</time>
      </trkpt>
      <trkpt lat="42.669954" lon="-4.796668">
        <ele>1030.906</ele>
        <time>2021-10-15T13:13:14Z</time>
      </trkpt>
      <trkpt lat="42.669601" lon="-4.796472">
        <ele>1031.426</ele>
        <time>2021-10-15T13:13:16Z</time>
      </trkpt>
      <trkpt lat="42.669404" lon="-4.796361">
        <ele>1031.608</ele>
        <time>2021-10-15T13:13:17Z</time>
      </trkpt>
      <trkpt lat="42.669195" lon="-4.796243">
        <ele>1032.246</ele>
        <time>2021-10-15T13:13:18Z</time>
      </trkpt>
      <trkpt lat="42.668746" lon="-4.795992">
        <ele>1032.014</ele>
        <time>2021-10-15T13:13:20Z</time>
      </trkpt>
      <trkpt lat="42.668267" lon="-4.795735">
        <ele>1031.692</ele>
        <time>2021-10-15T13:13:22Z</time>
      </trkpt>
      <trkpt lat="42.668021" lon="-4.795604">
        <ele>1031.296</ele>
        <time>2021-10-15T13:13:23Z</time>
      </trkpt>
      <trkpt lat="42.667768" lon="-4.795469">
        <ele>1031.391</ele>
        <time>2021-10-15T13:13:24Z</time>
      </trkpt>
      <trkpt lat="42.667245" lon="-4.795181">
        <ele>1030.649</ele>
        <time>2021-10-15T13:13:26Z</time>
      </trkpt>
      <trkpt lat="42.666728" lon="-4.794892">
        <ele>1029.222</ele>
        <time>2021-10-15T13:13:28Z</time>
      </trkpt>
      <trkpt lat="42.666466" lon="-4.794745">
        <ele>1029.487</ele>
        <time>2021-10-15T13:13:29Z</time>
      </trkpt>
      <trkpt lat="42.665944" lon="-4.794453">
        <ele>1029.016</ele>
        <time>2021-10-15T13:13:31Z</time>
      </trkpt>
      <trkpt lat="42.665676" lon="-4.794308">
        <ele>1028.576</ele>
        <time>2021-10-15T13:13:32Z</time>
      </trkpt>
      <trkpt lat="42.665164" lon="-4.794036">
        <ele>1028.313</ele>
        <time>2021-10-15T13:13:34Z</time>
      </trkpt>
      <trkpt lat="42.664901" lon="-4.793894">
        <ele>1027.808</ele>
        <time>2021-10-15T13:13:35Z</time>
      </trkpt>
      <trkpt lat="42.664640" lon="-4.793749">
        <ele>1027.519</ele>
        <time>2021-10-15T13:13:36Z</time>
      </trkpt>
      <trkpt lat="42.664092" lon="-4.793454">
        <ele>1027.427</ele>
        <time>2021-10-15T13:13:38Z</time>
      </trkpt>
      <trkpt lat="42.663525" lon="-4.793143">
        <ele>1028.215</ele>
        <time>2021-10-15T13:13:40Z</time>
      </trkpt>
      <trkpt lat="42.663225" lon="-4.792976">
        <ele>1028.039</ele>
        <time>2021-10-15T13:13:41Z</time>
      </trkpt>
      <trkpt lat="42.662600" lon="-4.792638">
        <ele>1027.774</ele>
        <time>2021-10-15T13:13:43Z</time>
      </trkpt>
      <trkpt lat="42.662274" lon="-4.792461">
        <ele>1027.852</ele>
        <time>2021-10-15T13:13:44Z</time>
      </trkpt>
      <trkpt lat="42.661630" lon="-4.792103">
        <ele>1026.955</ele>
        <time>2021-10-15T13:13:46Z</time>
      </trkpt>
      <trkpt lat="42.660981" lon="-4.791752">
        <ele>1025.820</ele>
        <time>2021-10-15T13:13:48Z</time>
      </trkpt>
      <trkpt lat="42.660655" lon="-4.791575">
        <ele>1024.924</ele>
        <time>2021-10-15T13:13:49Z</time>
      </trkpt>
      <trkpt lat="42.660335" lon="-4.791401">
        <ele>1024.404</ele>
        <time>2021-10-15T13:13:50Z</time>
      </trkpt>
      <trkpt lat="42.659718" lon="-4.791060">
        <ele>1024.214</ele>
        <time>2021-10-15T13:13:52Z</time>
      </trkpt>
      <trkpt lat="42.659411" lon="-4.790889">
        <ele>1023.608</ele>
        <time>2021-10-15T13:13:53Z</time>
      </trkpt>
      <trkpt lat="42.658811" lon="-4.790562">
        <ele>1022.640</ele>
        <time>2021-10-15T13:13:55Z</time>
      </trkpt>
      <trkpt lat="42.658504" lon="-4.790395">
        <ele>1022.938</ele>
        <time>2021-10-15T13:13:56Z</time>
      </trkpt>
      <trkpt lat="42.657930" lon="-4.790072">
        <ele>1021.656</ele>
        <time>2021-10-15T13:13:58Z</time>
      </trkpt>
      <trkpt lat="42.657335" lon="-4.789751">
        <ele>1020.610</ele>
        <time>2021-10-15T13:14:00Z</time>
      </trkpt>
      <trkpt lat="42.657039" lon="-4.789591">
        <ele>1020.575</ele>
        <time>2021-10-15T13:14:01Z</time>
      </trkpt>
      <trkpt lat="42.656741" lon="-4.789425">
        <ele>1020.493</ele>
        <time>2021-10-15T13:14:02Z</time>
      </trkpt>
      <trkpt lat="42.656176" lon="-4.789113">
        <ele>1020.286</ele>
        <time>2021-10-15T13:14:04Z</time>
      </trkpt>
      <trkpt lat="42.655900" lon="-4.788965">
        <ele>1020.241</ele>
        <time>2021-10-15T13:14:05Z</time>
      </trkpt>
      <trkpt lat="42.655385" lon="-4.788679">
        <ele>1020.159</ele>
        <time>2021-10-15T13:14:07Z</time>
      </trkpt>
      <trkpt lat="42.655127" lon="-4.788537">
        <ele>1020.003</ele>
        <time>2021-10-15T13:14:08Z</time>
      </trkpt>
      <trkpt lat="42.654637" lon="-4.788278">
        <ele>1019.323</ele>
        <time>2021-10-15T13:14:10Z</time>
      </trkpt>
      <trkpt lat="42.654170" lon="-4.788028">
        <ele>1019.608</ele>
        <time>2021-10-15T13:14:12Z</time>
      </trkpt>
      <trkpt lat="42.653936" lon="-4.787902">
        <ele>1019.423</ele>
        <time>2021-10-15T13:14:13Z</time>
      </trkpt>
      <trkpt lat="42.653700" lon="-4.787769">
        <ele>1019.511</ele>
        <time>2021-10-15T13:14:14Z</time>
      </trkpt>
      <trkpt lat="42.653235" lon="-4.787506">
        <ele>1019.369</ele>
        <time>2021-10-15T13:14:16Z</time>
      </trkpt>
      <trkpt lat="42.652772" lon="-4.787253">
        <ele>1019.183</ele>
        <time>2021-10-15T13:14:18Z</time>
      </trkpt>
      <trkpt lat="42.652337" lon="-4.787011">
        <ele>1019.548</ele>
        <time>2021-10-15T13:14:20Z</time>
      </trkpt>
      <trkpt lat="42.651940" lon="-4.786794">
        <ele>1019.056</ele>
        <time>2021-10-15T13:14:22Z</time>
      </trkpt>
      <trkpt lat="42.651539" lon="-4.786580">
        <ele>1018.349</ele>
        <time>2021-10-15T13:14:24Z</time>
      </trkpt>
      <trkpt lat="42.651334" lon="-4.786471">
        <ele>1018.034</ele>
        <time>2021-10-15T13:14:25Z</time>
      </trkpt>
      <trkpt lat="42.651122" lon="-4.786358">
        <ele>1017.962</ele>
        <time>2021-10-15T13:14:26Z</time>
      </trkpt>
      <trkpt lat="42.650713" lon="-4.786142">
        <ele>1017.483</ele>
        <time>2021-10-15T13:14:28Z</time>
      </trkpt>
      <trkpt lat="42.650499" lon="-4.786030">
        <ele>1017.311</ele>
        <time>2021-10-15T13:14:29Z</time>
      </trkpt>
      <trkpt lat="42.650286" lon="-4.785913">
        <ele>1016.808</ele>
        <time>2021-10-15T13:14:30Z</time>
      </trkpt>
      <trkpt lat="42.650072" lon="-4.785791">
        <ele>1016.294</ele>
        <time>2021-10-15T13:14:31Z</time>
      </trkpt>
      <trkpt lat="42.649849" lon="-4.785665">
        <ele>1016.142</ele>
        <time>2021-10-15T13:14:32Z</time>
      </trkpt>
      <trkpt lat="42.649420" lon="-4.785431">
        <ele>1015.760</ele>
        <time>2021-10-15T13:14:34Z</time>
      </trkpt>
      <trkpt lat="42.649021" lon="-4.785214">
        <ele>1015.374</ele>
        <time>2021-10-15T13:14:36Z</time>
      </trkpt>
      <trkpt lat="42.648631" lon="-4.784994">
        <ele>1015.549</ele>
        <time>2021-10-15T13:14:38Z</time>
      </trkpt>
      <trkpt lat="42.648227" lon="-4.784769">
        <ele>1014.697</ele>
        <time>2021-10-15T13:14:40Z</time>
      </trkpt>
      <trkpt lat="42.648020" lon="-4.784655">
        <ele>1014.180</ele>
        <time>2021-10-15T13:14:41Z</time>
      </trkpt>
      <trkpt lat="42.647815" lon="-4.784542">
        <ele>1014.435</ele>
        <time>2021-10-15T13:14:42Z</time>
      </trkpt>
      <trkpt lat="42.647413" lon="-4.784325">
        <ele>1013.824</ele>
        <time>2021-10-15T13:14:44Z</time>
      </trkpt>
      <trkpt lat="42.647018" lon="-4.784109">
        <ele>1014.004</ele>
        <time>2021-10-15T13:14:46Z</time>
      </trkpt>
      <trkpt lat="42.646819" lon="-4.784002">
        <ele>1013.714</ele>
        <time>2021-10-15T13:14:47Z</time>
      </trkpt>
      <trkpt lat="42.646623" lon="-4.783892">
        <ele>1013.508</ele>
        <time>2021-10-15T13:14:48Z</time>
      </trkpt>
      <trkpt lat="42.646429" lon="-4.783784">
        <ele>1013.460</ele>
        <time>2021-10-15T13:14:49Z</time>
      </trkpt>
      <trkpt lat="42.646237" lon="-4.783678">
        <ele>1013.178</ele>
        <time>2021-10-15T13:14:50Z</time>
      </trkpt>
      <trkpt lat="42.645853" lon="-4.783473">
        <ele>1013.316</ele>
        <time>2021-10-15T13:14:52Z</time>
      </trkpt>
      <trkpt lat="42.645659" lon="-4.783369">
        <ele>1012.930</ele>
        <time>2021-10-15T13:14:53Z</time>
      </trkpt>
      <trkpt lat="42.645272" lon="-4.783156">
        <ele>1012.635</ele>
        <time>2021-10-15T13:14:55Z</time>
      </trkpt>
      <trkpt lat="42.645075" lon="-4.783047">
        <ele>1012.563</ele>
        <time>2021-10-15T13:14:56Z</time>
      </trkpt>
      <trkpt lat="42.644695" lon="-4.782844">
        <ele>1012.486</ele>
        <time>2021-10-15T13:14:58Z</time>
      </trkpt>
      <trkpt lat="42.644501" lon="-4.782739">
        <ele>1012.531</ele>
        <time>2021-10-15T13:14:59Z</time>
      </trkpt>
      <trkpt lat="42.644112" lon="-4.782522">
        <ele>1012.245</ele>
        <time>2021-10-15T13:15:01Z</time>
      </trkpt>
      <trkpt lat="42.643914" lon="-4.782413">
        <ele>1011.947</ele>
        <time>2021-10-15T13:15:02Z</time>
      </trkpt>
      <trkpt lat="42.643528" lon="-4.782202">
        <ele>1011.511</ele>
        <time>2021-10-15T13:15:04Z</time>
      </trkpt>
      <trkpt lat="42.643329" lon="-4.782097">
        <ele>1011.008</ele>
        <time>2021-10-15T13:15:05Z</time>
      </trkpt>
      <trkpt lat="42.643129" lon="-4.781990">
        <ele>1010.672</ele>
        <time>2021-10-15T13:15:06Z</time>
      </trkpt>
      <trkpt lat="42.642928" lon="-4.781882">
        <ele>1010.040</ele>
        <time>2021-10-15T13:15:07Z</time>
      </trkpt>
      <trkpt lat="42.642726" lon="-4.781774">
        <ele>1009.538</ele>
        <time>2021-10-15T13:15:08Z</time>
      </trkpt>
      <trkpt lat="42.642326" lon="-4.781554">
        <ele>1009.442</ele>
        <time>2021-10-15T13:15:10Z</time>
      </trkpt>
      <trkpt lat="42.641912" lon="-4.781326">
        <ele>1009.557</ele>
        <time>2021-10-15T13:15:12Z</time>
      </trkpt>
      <trkpt lat="42.641700" lon="-4.781211">
        <ele>1008.815</ele>
        <time>2021-10-15T13:15:13Z</time>
      </trkpt>
      <trkpt lat="42.641484" lon="-4.781090">
        <ele>1008.948</ele>
        <time>2021-10-15T13:15:14Z</time>
      </trkpt>
      <trkpt lat="42.641071" lon="-4.780866">
        <ele>1008.473</ele>
        <time>2021-10-15T13:15:16Z</time>
      </trkpt>
      <trkpt lat="42.640662" lon="-4.780650">
        <ele>1009.293</ele>
        <time>2021-10-15T13:15:18Z</time>
      </trkpt>
      <trkpt lat="42.640256" lon="-4.780424">
        <ele>1010.165</ele>
        <time>2021-10-15T13:15:20Z</time>
      </trkpt>
      <trkpt lat="42.639864" lon="-4.780204">
        <ele>1010.521</ele>
        <time>2021-10-15T13:15:22Z</time>
      </trkpt>
      <trkpt lat="42.639665" lon="-4.780094">
        <ele>1011.008</ele>
        <time>2021-10-15T13:15:23Z</time>
      </trkpt>
      <trkpt lat="42.639269" lon="-4.779879">
        <ele>1011.377</ele>
        <time>2021-10-15T13:15:25Z</time>
      </trkpt>
      <trkpt lat="42.639067" lon="-4.779769">
        <ele>1010.785</ele>
        <time>2021-10-15T13:15:26Z</time>
      </trkpt>
      <trkpt lat="42.638677" lon="-4.779561">
        <ele>1010.893</ele>
        <time>2021-10-15T13:15:28Z</time>
      </trkpt>
      <trkpt lat="42.638268" lon="-4.779333">
        <ele>1010.317</ele>
        <time>2021-10-15T13:15:30Z</time>
      </trkpt>
      <trkpt lat="42.638047" lon="-4.779209">
        <ele>1009.852</ele>
        <time>2021-10-15T13:15:31Z</time>
      </trkpt>
      <trkpt lat="42.637814" lon="-4.779078">
        <ele>1009.020</ele>
        <time>2021-10-15T13:15:32Z</time>
      </trkpt>
      <trkpt lat="42.637353" lon="-4.778830">
        <ele>1008.043</ele>
        <time>2021-10-15T13:15:34Z</time>
      </trkpt>
      <trkpt lat="42.636880" lon="-4.778578">
        <ele>1008.248</ele>
        <time>2021-10-15T13:15:36Z</time>
      </trkpt>
      <trkpt lat="42.636406" lon="-4.778321">
        <ele>1007.615</ele>
        <time>2021-10-15T13:15:38Z</time>
      </trkpt>
      <trkpt lat="42.635938" lon="-4.778061">
        <ele>1007.065</ele>
        <time>2021-10-15T13:15:40Z</time>
      </trkpt>
      <trkpt lat="42.635462" lon="-4.777800">
        <ele>1006.211</ele>
        <time>2021-10-15T13:15:42Z</time>
      </trkpt>
      <trkpt lat="42.635219" lon="-4.777669">
        <ele>1006.608</ele>
        <time>2021-10-15T13:15:43Z</time>
      </trkpt>
      <trkpt lat="42.634971" lon="-4.777535">
        <ele>1006.229</ele>
        <time>2021-10-15T13:15:44Z</time>
      </trkpt>
      <trkpt lat="42.634485" lon="-4.777263">
        <ele>1006.487</ele>
        <time>2021-10-15T13:15:46Z</time>
      </trkpt>
      <trkpt lat="42.634235" lon="-4.777120">
        <ele>1006.985</ele>
        <time>2021-10-15T13:15:47Z</time>
      </trkpt>
      <trkpt lat="42.633980" lon="-4.776976">
        <ele>1006.919</ele>
        <time>2021-10-15T13:15:48Z</time>
      </trkpt>
      <trkpt lat="42.633456" lon="-4.776688">
        <ele>1006.334</ele>
        <time>2021-10-15T13:15:50Z</time>
      </trkpt>
      <trkpt lat="42.632931" lon="-4.776405">
        <ele>1005.832</ele>
        <time>2021-10-15T13:15:52Z</time>
      </trkpt>
      <trkpt lat="42.632662" lon="-4.776259">
        <ele>1005.585</ele>
        <time>2021-10-15T13:15:53Z</time>
      </trkpt>
      <trkpt lat="42.632127" lon="-4.775964">
        <ele>1005.740</ele>
        <time>2021-10-15T13:15:55Z</time>
      </trkpt>
      <trkpt lat="42.631851" lon="-4.775810">
        <ele>1005.437</ele>
        <time>2021-10-15T13:15:56Z</time>
      </trkpt>
      <trkpt lat="42.631301" lon="-4.775503">
        <ele>1005.349</ele>
        <time>2021-10-15T13:15:58Z</time>
      </trkpt>
      <trkpt lat="42.630752" lon="-4.775200">
        <ele>1005.113</ele>
        <time>2021-10-15T13:16:00Z</time>
      </trkpt>
      <trkpt lat="42.630477" lon="-4.775053">
        <ele>1005.208</ele>
        <time>2021-10-15T13:16:01Z</time>
      </trkpt>
      <trkpt lat="42.630202" lon="-4.774906">
        <ele>1004.861</ele>
        <time>2021-10-15T13:16:02Z</time>
      </trkpt>
      <trkpt lat="42.629675" lon="-4.774616">
        <ele>1004.669</ele>
        <time>2021-10-15T13:16:04Z</time>
      </trkpt>
      <trkpt lat="42.629410" lon="-4.774467">
        <ele>1004.587</ele>
        <time>2021-10-15T13:16:05Z</time>
      </trkpt>
      <trkpt lat="42.628891" lon="-4.774184">
        <ele>1003.941</ele>
        <time>2021-10-15T13:16:07Z</time>
      </trkpt>
      <trkpt lat="42.628641" lon="-4.774051">
        <ele>1003.986</ele>
        <time>2021-10-15T13:16:08Z</time>
      </trkpt>
      <trkpt lat="42.628157" lon="-4.773794">
        <ele>1003.024</ele>
        <time>2021-10-15T13:16:10Z</time>
      </trkpt>
      <trkpt lat="42.627907" lon="-4.773655">
        <ele>1002.457</ele>
        <time>2021-10-15T13:16:11Z</time>
      </trkpt>
      <trkpt lat="42.627400" lon="-4.773370">
        <ele>1002.082</ele>
        <time>2021-10-15T13:16:13Z</time>
      </trkpt>
      <trkpt lat="42.627132" lon="-4.773220">
        <ele>1001.856</ele>
        <time>2021-10-15T13:16:14Z</time>
      </trkpt>
      <trkpt lat="42.626599" lon="-4.772932">
        <ele>1001.059</ele>
        <time>2021-10-15T13:16:16Z</time>
      </trkpt>
      <trkpt lat="42.626325" lon="-4.772785">
        <ele>1000.814</ele>
        <time>2021-10-15T13:16:17Z</time>
      </trkpt>
      <trkpt lat="42.625778" lon="-4.772492">
        <ele>1000.208</ele>
        <time>2021-10-15T13:16:19Z</time>
      </trkpt>
      <trkpt lat="42.625506" lon="-4.772345">
        <ele>1000.163</ele>
        <time>2021-10-15T13:16:20Z</time>
      </trkpt>
      <trkpt lat="42.624998" lon="-4.772063">
        <ele>999.911</ele>
        <time>2021-10-15T13:16:22Z</time>
      </trkpt>
      <trkpt lat="42.624754" lon="-4.771927">
        <ele>999.649</ele>
        <time>2021-10-15T13:16:23Z</time>
      </trkpt>
      <trkpt lat="42.624509" lon="-4.771795">
        <ele>999.463</ele>
        <time>2021-10-15T13:16:24Z</time>
      </trkpt>
      <trkpt lat="42.624260" lon="-4.771655">
        <ele>999.038</ele>
        <time>2021-10-15T13:16:25Z</time>
      </trkpt>
      <trkpt lat="42.623999" lon="-4.771510">
        <ele>998.656</ele>
        <time>2021-10-15T13:16:26Z</time>
      </trkpt>
      <trkpt lat="42.623472" lon="-4.771230">
        <ele>998.279</ele>
        <time>2021-10-15T13:16:28Z</time>
      </trkpt>
      <trkpt lat="42.623205" lon="-4.771090">
        <ele>997.874</ele>
        <time>2021-10-15T13:16:29Z</time>
      </trkpt>
      <trkpt lat="42.622942" lon="-4.770959">
        <ele>997.483</ele>
        <time>2021-10-15T13:16:30Z</time>
      </trkpt>
      <trkpt lat="42.622700" lon="-4.770840">
        <ele>997.125</ele>
        <time>2021-10-15T13:16:31Z</time>
      </trkpt>
      <trkpt lat="42.622472" lon="-4.770732">
        <ele>996.517</ele>
        <time>2021-10-15T13:16:32Z</time>
      </trkpt>
      <trkpt lat="42.622106" lon="-4.770559">
        <ele>996.308</ele>
        <time>2021-10-15T13:16:34Z</time>
      </trkpt>
      <trkpt lat="42.621745" lon="-4.770395">
        <ele>995.956</ele>
        <time>2021-10-15T13:16:36Z</time>
      </trkpt>
      <trkpt lat="42.621344" lon="-4.770208">
        <ele>995.624</ele>
        <time>2021-10-15T13:16:38Z</time>
      </trkpt>
      <trkpt lat="42.620910" lon="-4.770006">
        <ele>995.572</ele>
        <time>2021-10-15T13:16:40Z</time>
      </trkpt>
      <trkpt lat="42.620682" lon="-4.769902">
        <ele>995.436</ele>
        <time>2021-10-15T13:16:41Z</time>
      </trkpt>
      <trkpt lat="42.620223" lon="-4.769688">
        <ele>994.981</ele>
        <time>2021-10-15T13:16:43Z</time>
      </trkpt>
      <trkpt lat="42.619987" lon="-4.769576">
        <ele>995.099</ele>
        <time>2021-10-15T13:16:44Z</time>
      </trkpt>
      <trkpt lat="42.619531" lon="-4.769360">
        <ele>994.682</ele>
        <time>2021-10-15T13:16:46Z</time>
      </trkpt>
      <trkpt lat="42.619085" lon="-4.769151">
        <ele>994.497</ele>
        <time>2021-10-15T13:16:48Z</time>
      </trkpt>
      <trkpt lat="42.618864" lon="-4.769048">
        <ele>993.955</ele>
        <time>2021-10-15T13:16:49Z</time>
      </trkpt>
      <trkpt lat="42.618637" lon="-4.768946">
        <ele>993.607</ele>
        <time>2021-10-15T13:16:50Z</time>
      </trkpt>
      <trkpt lat="42.618165" lon="-4.768722">
        <ele>993.617</ele>
        <time>2021-10-15T13:16:52Z</time>
      </trkpt>
      <trkpt lat="42.617916" lon="-4.768605">
        <ele>993.608</ele>
        <time>2021-10-15T13:16:53Z</time>
      </trkpt>
      <trkpt lat="42.617667" lon="-4.768493">
        <ele>993.893</ele>
        <time>2021-10-15T13:16:54Z</time>
      </trkpt>
      <trkpt lat="42.617171" lon="-4.768260">
        <ele>993.451</ele>
        <time>2021-10-15T13:16:56Z</time>
      </trkpt>
      <trkpt lat="42.616695" lon="-4.768033">
        <ele>993.189</ele>
        <time>2021-10-15T13:16:58Z</time>
      </trkpt>
      <trkpt lat="42.616216" lon="-4.767805">
        <ele>993.143</ele>
        <time>2021-10-15T13:17:00Z</time>
      </trkpt>
      <trkpt lat="42.615725" lon="-4.767582">
        <ele>993.148</ele>
        <time>2021-10-15T13:17:02Z</time>
      </trkpt>
      <trkpt lat="42.615231" lon="-4.767351">
        <ele>992.566</ele>
        <time>2021-10-15T13:17:04Z</time>
      </trkpt>
      <trkpt lat="42.614975" lon="-4.767226">
        <ele>992.629</ele>
        <time>2021-10-15T13:17:05Z</time>
      </trkpt>
      <trkpt lat="42.614454" lon="-4.766976">
        <ele>992.014</ele>
        <time>2021-10-15T13:17:07Z</time>
      </trkpt>
      <trkpt lat="42.614180" lon="-4.766845">
        <ele>991.656</ele>
        <time>2021-10-15T13:17:08Z</time>
      </trkpt>
      <trkpt lat="42.613641" lon="-4.766588">
        <ele>991.259</ele>
        <time>2021-10-15T13:17:10Z</time>
      </trkpt>
      <trkpt lat="42.613120" lon="-4.766353">
        <ele>990.614</ele>
        <time>2021-10-15T13:17:12Z</time>
      </trkpt>
      <trkpt lat="42.612879" lon="-4.766246">
        <ele>990.508</ele>
        <time>2021-10-15T13:17:13Z</time>
      </trkpt>
      <trkpt lat="42.612643" lon="-4.766148">
        <ele>990.293</ele>
        <time>2021-10-15T13:17:14Z</time>
      </trkpt>
      <trkpt lat="42.612157" lon="-4.765956">
        <ele>990.431</ele>
        <time>2021-10-15T13:17:16Z</time>
      </trkpt>
      <trkpt lat="42.611886" lon="-4.765847">
        <ele>990.299</ele>
        <time>2021-10-15T13:17:17Z</time>
      </trkpt>
      <trkpt lat="42.611308" lon="-4.765665">
        <ele>989.313</ele>
        <time>2021-10-15T13:17:19Z</time>
      </trkpt>
      <trkpt lat="42.610995" lon="-4.765609">
        <ele>989.278</ele>
        <time>2021-10-15T13:17:20Z</time>
      </trkpt>
      <trkpt lat="42.610361" lon="-4.765493">
        <ele>989.146</ele>
        <time>2021-10-15T13:17:22Z</time>
      </trkpt>
      <trkpt lat="42.610034" lon="-4.765427">
        <ele>988.459</ele>
        <time>2021-10-15T13:17:23Z</time>
      </trkpt>
      <trkpt lat="42.609707" lon="-4.765361">
        <ele>987.834</ele>
        <time>2021-10-15T13:17:24Z</time>
      </trkpt>
      <trkpt lat="42.609044" lon="-4.765224">
        <ele>987.614</ele>
        <time>2021-10-15T13:17:26Z</time>
      </trkpt>
      <trkpt lat="42.608409" lon="-4.765090">
        <ele>986.254</ele>
        <time>2021-10-15T13:17:28Z</time>
      </trkpt>
      <trkpt lat="42.608084" lon="-4.765014">
        <ele>986.009</ele>
        <time>2021-10-15T13:17:29Z</time>
      </trkpt>
      <trkpt lat="42.607761" lon="-4.764940">
        <ele>986.108</ele>
        <time>2021-10-15T13:17:30Z</time>
      </trkpt>
      <trkpt lat="42.607122" lon="-4.764796">
        <ele>985.449</ele>
        <time>2021-10-15T13:17:32Z</time>
      </trkpt>
      <trkpt lat="42.606543" lon="-4.764677">
        <ele>984.837</ele>
        <time>2021-10-15T13:17:34Z</time>
      </trkpt>
      <trkpt lat="42.605973" lon="-4.764557">
        <ele>984.365</ele>
        <time>2021-10-15T13:17:36Z</time>
      </trkpt>
      <trkpt lat="42.605689" lon="-4.764498">
        <ele>984.069</ele>
        <time>2021-10-15T13:17:37Z</time>
      </trkpt>
      <trkpt lat="42.605399" lon="-4.764438">
        <ele>983.554</ele>
        <time>2021-10-15T13:17:38Z</time>
      </trkpt>
      <trkpt lat="42.604830" lon="-4.764320">
        <ele>983.352</ele>
        <time>2021-10-15T13:17:40Z</time>
      </trkpt>
      <trkpt lat="42.604543" lon="-4.764255">
        <ele>982.855</ele>
        <time>2021-10-15T13:17:41Z</time>
      </trkpt>
      <trkpt lat="42.603977" lon="-4.764135">
        <ele>982.170</ele>
        <time>2021-10-15T13:17:43Z</time>
      </trkpt>
      <trkpt lat="42.603692" lon="-4.764076">
        <ele>981.576</ele>
        <time>2021-10-15T13:17:44Z</time>
      </trkpt>
      <trkpt lat="42.603143" lon="-4.763955">
        <ele>980.090</ele>
        <time>2021-10-15T13:17:46Z</time>
      </trkpt>
      <trkpt lat="42.602596" lon="-4.763835">
        <ele>979.719</ele>
        <time>2021-10-15T13:17:48Z</time>
      </trkpt>
      <trkpt lat="42.602325" lon="-4.763781">
        <ele>978.808</ele>
        <time>2021-10-15T13:17:49Z</time>
      </trkpt>
      <trkpt lat="42.602054" lon="-4.763725">
        <ele>978.565</ele>
        <time>2021-10-15T13:17:50Z</time>
      </trkpt>
      <trkpt lat="42.601519" lon="-4.763608">
        <ele>979.083</ele>
        <time>2021-10-15T13:17:52Z</time>
      </trkpt>
      <trkpt lat="42.600981" lon="-4.763493">
        <ele>979.381</ele>
        <time>2021-10-15T13:17:54Z</time>
      </trkpt>
      <trkpt lat="42.600699" lon="-4.763434">
        <ele>979.445</ele>
        <time>2021-10-15T13:17:55Z</time>
      </trkpt>
      <trkpt lat="42.600409" lon="-4.763372">
        <ele>979.120</ele>
        <time>2021-10-15T13:17:56Z</time>
      </trkpt>
      <trkpt lat="42.599848" lon="-4.763260">
        <ele>979.168</ele>
        <time>2021-10-15T13:17:58Z</time>
      </trkpt>
      <trkpt lat="42.599281" lon="-4.763137">
        <ele>978.671</ele>
        <time>2021-10-15T13:18:00Z</time>
      </trkpt>
      <trkpt lat="42.598711" lon="-4.763016">
        <ele>978.446</ele>
        <time>2021-10-15T13:18:02Z</time>
      </trkpt>
      <trkpt lat="42.598157" lon="-4.762896">
        <ele>978.556</ele>
        <time>2021-10-15T13:18:04Z</time>
      </trkpt>
      <trkpt lat="42.597594" lon="-4.762770">
        <ele>978.259</ele>
        <time>2021-10-15T13:18:06Z</time>
      </trkpt>
      <trkpt lat="42.597022" lon="-4.762653">
        <ele>978.814</ele>
        <time>2021-10-15T13:18:08Z</time>
      </trkpt>
      <trkpt lat="42.596459" lon="-4.762535">
        <ele>978.508</ele>
        <time>2021-10-15T13:18:10Z</time>
      </trkpt>
      <trkpt lat="42.596183" lon="-4.762471">
        <ele>978.493</ele>
        <time>2021-10-15T13:18:11Z</time>
      </trkpt>
      <trkpt lat="42.595648" lon="-4.762349">
        <ele>977.311</ele>
        <time>2021-10-15T13:18:13Z</time>
      </trkpt>
      <trkpt lat="42.595379" lon="-4.762288">
        <ele>977.479</ele>
        <time>2021-10-15T13:18:14Z</time>
      </trkpt>
      <trkpt lat="42.594853" lon="-4.762173">
        <ele>976.943</ele>
        <time>2021-10-15T13:18:16Z</time>
      </trkpt>
      <trkpt lat="42.594308" lon="-4.762056">
        <ele>975.758</ele>
        <time>2021-10-15T13:18:18Z</time>
      </trkpt>
      <trkpt lat="42.593750" lon="-4.761937">
        <ele>975.386</ele>
        <time>2021-10-15T13:18:20Z</time>
      </trkpt>
      <trkpt lat="42.593181" lon="-4.761815">
        <ele>976.039</ele>
        <time>2021-10-15T13:18:22Z</time>
      </trkpt>
      <trkpt lat="42.592895" lon="-4.761758">
        <ele>975.864</ele>
        <time>2021-10-15T13:18:23Z</time>
      </trkpt>
      <trkpt lat="42.592610" lon="-4.761700">
        <ele>975.322</ele>
        <time>2021-10-15T13:18:24Z</time>
      </trkpt>
      <trkpt lat="42.592034" lon="-4.761571">
        <ele>974.562</ele>
        <time>2021-10-15T13:18:26Z</time>
      </trkpt>
      <trkpt lat="42.591482" lon="-4.761453">
        <ele>974.208</ele>
        <time>2021-10-15T13:18:28Z</time>
      </trkpt>
      <trkpt lat="42.590928" lon="-4.761331">
        <ele>974.008</ele>
        <time>2021-10-15T13:18:30Z</time>
      </trkpt>
      <trkpt lat="42.590376" lon="-4.761222">
        <ele>973.160</ele>
        <time>2021-10-15T13:18:32Z</time>
      </trkpt>
      <trkpt lat="42.589836" lon="-4.761104">
        <ele>972.678</ele>
        <time>2021-10-15T13:18:34Z</time>
      </trkpt>
      <trkpt lat="42.589287" lon="-4.760977">
        <ele>971.676</ele>
        <time>2021-10-15T13:18:36Z</time>
      </trkpt>
      <trkpt lat="42.588726" lon="-4.760851">
        <ele>971.920</ele>
        <time>2021-10-15T13:18:38Z</time>
      </trkpt>
      <trkpt lat="42.588167" lon="-4.760737">
        <ele>971.325</ele>
        <time>2021-10-15T13:18:40Z</time>
      </trkpt>
      <trkpt lat="42.587596" lon="-4.760619">
        <ele>971.443</ele>
        <time>2021-10-15T13:18:42Z</time>
      </trkpt>
      <trkpt lat="42.587321" lon="-4.760557">
        <ele>970.896</ele>
        <time>2021-10-15T13:18:43Z</time>
      </trkpt>
      <trkpt lat="42.587050" lon="-4.760497">
        <ele>969.961</ele>
        <time>2021-10-15T13:18:44Z</time>
      </trkpt>
      <trkpt lat="42.586508" lon="-4.760380">
        <ele>970.449</ele>
        <time>2021-10-15T13:18:46Z</time>
      </trkpt>
      <trkpt lat="42.585944" lon="-4.760268">
        <ele>970.102</ele>
        <time>2021-10-15T13:18:48Z</time>
      </trkpt>
      <trkpt lat="42.585378" lon="-4.760144">
        <ele>969.422</ele>
        <time>2021-10-15T13:18:50Z</time>
      </trkpt>
      <trkpt lat="42.584818" lon="-4.760021">
        <ele>969.308</ele>
        <time>2021-10-15T13:18:52Z</time>
      </trkpt>
      <trkpt lat="42.584262" lon="-4.759900">
        <ele>968.852</ele>
        <time>2021-10-15T13:18:54Z</time>
      </trkpt>
      <trkpt lat="42.583984" lon="-4.759840">
        <ele>969.290</ele>
        <time>2021-10-15T13:18:55Z</time>
      </trkpt>
      <trkpt lat="42.583700" lon="-4.759779">
        <ele>969.618</ele>
        <time>2021-10-15T13:18:56Z</time>
      </trkpt>
      <trkpt lat="42.583150" lon="-4.759659">
        <ele>968.752</ele>
        <time>2021-10-15T13:18:58Z</time>
      </trkpt>
      <trkpt lat="42.582866" lon="-4.759597">
        <ele>968.547</ele>
        <time>2021-10-15T13:18:59Z</time>
      </trkpt>
      <trkpt lat="42.582295" lon="-4.759481">
        <ele>968.055</ele>
        <time>2021-10-15T13:19:01Z</time>
      </trkpt>
      <trkpt lat="42.582008" lon="-4.759421">
        <ele>968.258</ele>
        <time>2021-10-15T13:19:02Z</time>
      </trkpt>
      <trkpt lat="42.581438" lon="-4.759292">
        <ele>968.223</ele>
        <time>2021-10-15T13:19:04Z</time>
      </trkpt>
      <trkpt lat="42.581155" lon="-4.759235">
        <ele>968.439</ele>
        <time>2021-10-15T13:19:05Z</time>
      </trkpt>
      <trkpt lat="42.580597" lon="-4.759119">
        <ele>968.001</ele>
        <time>2021-10-15T13:19:07Z</time>
      </trkpt>
      <trkpt lat="42.580319" lon="-4.759060">
        <ele>967.721</ele>
        <time>2021-10-15T13:19:08Z</time>
      </trkpt>
      <trkpt lat="42.579776" lon="-4.758939">
        <ele>967.808</ele>
        <time>2021-10-15T13:19:10Z</time>
      </trkpt>
      <trkpt lat="42.579225" lon="-4.758814">
        <ele>967.111</ele>
        <time>2021-10-15T13:19:12Z</time>
      </trkpt>
      <trkpt lat="42.578945" lon="-4.758751">
        <ele>967.369</ele>
        <time>2021-10-15T13:19:13Z</time>
      </trkpt>
      <trkpt lat="42.578661" lon="-4.758688">
        <ele>967.627</ele>
        <time>2021-10-15T13:19:14Z</time>
      </trkpt>
      <trkpt lat="42.578098" lon="-4.758572">
        <ele>967.541</ele>
        <time>2021-10-15T13:19:16Z</time>
      </trkpt>
      <trkpt lat="42.577809" lon="-4.758512">
        <ele>967.086</ele>
        <time>2021-10-15T13:19:17Z</time>
      </trkpt>
      <trkpt lat="42.577228" lon="-4.758391">
        <ele>966.734</ele>
        <time>2021-10-15T13:19:19Z</time>
      </trkpt>
      <trkpt lat="42.576930" lon="-4.758328">
        <ele>966.057</ele>
        <time>2021-10-15T13:19:20Z</time>
      </trkpt>
      <trkpt lat="42.576342" lon="-4.758200">
        <ele>965.372</ele>
        <time>2021-10-15T13:19:22Z</time>
      </trkpt>
      <trkpt lat="42.576041" lon="-4.758133">
        <ele>965.271</ele>
        <time>2021-10-15T13:19:23Z</time>
      </trkpt>
      <trkpt lat="42.575442" lon="-4.758006">
        <ele>964.841</ele>
        <time>2021-10-15T13:19:25Z</time>
      </trkpt>
      <trkpt lat="42.575134" lon="-4.757943">
        <ele>965.115</ele>
        <time>2021-10-15T13:19:26Z</time>
      </trkpt>
      <trkpt lat="42.574552" lon="-4.757823">
        <ele>963.908</ele>
        <time>2021-10-15T13:19:28Z</time>
      </trkpt>
      <trkpt lat="42.574258" lon="-4.757761">
        <ele>964.265</ele>
        <time>2021-10-15T13:19:29Z</time>
      </trkpt>
      <trkpt lat="42.573687" lon="-4.757633">
        <ele>964.813</ele>
        <time>2021-10-15T13:19:31Z</time>
      </trkpt>
      <trkpt lat="42.573391" lon="-4.757565">
        <ele>964.091</ele>
        <time>2021-10-15T13:19:32Z</time>
      </trkpt>
      <trkpt lat="42.572827" lon="-4.757439">
        <ele>964.055</ele>
        <time>2021-10-15T13:19:34Z</time>
      </trkpt>
      <trkpt lat="42.572260" lon="-4.757303">
        <ele>963.620</ele>
        <time>2021-10-15T13:19:36Z</time>
      </trkpt>
      <trkpt lat="42.571974" lon="-4.757228">
        <ele>963.378</ele>
        <time>2021-10-15T13:19:37Z</time>
      </trkpt>
      <trkpt lat="42.571687" lon="-4.757139">
        <ele>963.181</ele>
        <time>2021-10-15T13:19:38Z</time>
      </trkpt>
      <trkpt lat="42.571128" lon="-4.756956">
        <ele>962.746</ele>
        <time>2021-10-15T13:19:40Z</time>
      </trkpt>
      <trkpt lat="42.570569" lon="-4.756774">
        <ele>961.635</ele>
        <time>2021-10-15T13:19:42Z</time>
      </trkpt>
      <trkpt lat="42.570022" lon="-4.756608">
        <ele>960.486</ele>
        <time>2021-10-15T13:19:44Z</time>
      </trkpt>
      <trkpt lat="42.569488" lon="-4.756447">
        <ele>960.014</ele>
        <time>2021-10-15T13:19:46Z</time>
      </trkpt>
      <trkpt lat="42.569216" lon="-4.756359">
        <ele>959.808</ele>
        <time>2021-10-15T13:19:47Z</time>
      </trkpt>
      <trkpt lat="42.568675" lon="-4.756180">
        <ele>959.161</ele>
        <time>2021-10-15T13:19:49Z</time>
      </trkpt>
      <trkpt lat="42.568408" lon="-4.756075">
        <ele>959.169</ele>
        <time>2021-10-15T13:19:50Z</time>
      </trkpt>
      <trkpt lat="42.567892" lon="-4.755827">
        <ele>958.797</ele>
        <time>2021-10-15T13:19:52Z</time>
      </trkpt>
      <trkpt lat="42.567383" lon="-4.755510">
        <ele>957.651</ele>
        <time>2021-10-15T13:19:54Z</time>
      </trkpt>
      <trkpt lat="42.566877" lon="-4.755134">
        <ele>956.596</ele>
        <time>2021-10-15T13:19:56Z</time>
      </trkpt>
      <trkpt lat="42.566405" lon="-4.754728">
        <ele>955.124</ele>
        <time>2021-10-15T13:19:58Z</time>
      </trkpt>
      <trkpt lat="42.566169" lon="-4.754520">
        <ele>954.837</ele>
        <time>2021-10-15T13:19:59Z</time>
      </trkpt>
      <trkpt lat="42.565730" lon="-4.754125">
        <ele>953.832</ele>
        <time>2021-10-15T13:20:01Z</time>
      </trkpt>
      <trkpt lat="42.565519" lon="-4.753935">
        <ele>952.438</ele>
        <time>2021-10-15T13:20:02Z</time>
      </trkpt>
      <trkpt lat="42.565121" lon="-4.753584">
        <ele>952.070</ele>
        <time>2021-10-15T13:20:04Z</time>
      </trkpt>
      <trkpt lat="42.564720" lon="-4.753254">
        <ele>951.517</ele>
        <time>2021-10-15T13:20:06Z</time>
      </trkpt>
      <trkpt lat="42.564288" lon="-4.752960">
        <ele>950.708</ele>
        <time>2021-10-15T13:20:08Z</time>
      </trkpt>
      <trkpt lat="42.563817" lon="-4.752726">
        <ele>949.411</ele>
        <time>2021-10-15T13:20:10Z</time>
      </trkpt>
      <trkpt lat="42.563303" lon="-4.752555">
        <ele>947.799</ele>
        <time>2021-10-15T13:20:12Z</time>
      </trkpt>
      <trkpt lat="42.563034" lon="-4.752489">
        <ele>947.347</ele>
        <time>2021-10-15T13:20:13Z</time>
      </trkpt>
      <trkpt lat="42.562758" lon="-4.752431">
        <ele>946.831</ele>
        <time>2021-10-15T13:20:14Z</time>
      </trkpt>
      <trkpt lat="42.562216" lon="-4.752295">
        <ele>945.066</ele>
        <time>2021-10-15T13:20:16Z</time>
      </trkpt>
      <trkpt lat="42.561678" lon="-4.752089">
        <ele>942.284</ele>
        <time>2021-10-15T13:20:18Z</time>
      </trkpt>
      <trkpt lat="42.561157" lon="-4.751773">
        <ele>941.967</ele>
        <time>2021-10-15T13:20:20Z</time>
      </trkpt>
      <trkpt lat="42.560673" lon="-4.751339">
        <ele>940.642</ele>
        <time>2021-10-15T13:20:22Z</time>
      </trkpt>
      <trkpt lat="42.560223" lon="-4.750823">
        <ele>939.841</ele>
        <time>2021-10-15T13:20:24Z</time>
      </trkpt>
      <trkpt lat="42.559825" lon="-4.750200">
        <ele>938.081</ele>
        <time>2021-10-15T13:20:26Z</time>
      </trkpt>
      <trkpt lat="42.559495" lon="-4.749506">
        <ele>936.909</ele>
        <time>2021-10-15T13:20:28Z</time>
      </trkpt>
      <trkpt lat="42.559168" lon="-4.748758">
        <ele>933.808</ele>
        <time>2021-10-15T13:20:30Z</time>
      </trkpt>
      <trkpt lat="42.558998" lon="-4.748397">
        <ele>933.122</ele>
        <time>2021-10-15T13:20:31Z</time>
      </trkpt>
      <trkpt lat="42.558828" lon="-4.748036">
        <ele>932.730</ele>
        <time>2021-10-15T13:20:32Z</time>
      </trkpt>
      <trkpt lat="42.558517" lon="-4.747358">
        <ele>931.418</ele>
        <time>2021-10-15T13:20:34Z</time>
      </trkpt>
      <trkpt lat="42.558374" lon="-4.747028">
        <ele>931.122</ele>
        <time>2021-10-15T13:20:35Z</time>
      </trkpt>
      <trkpt lat="42.558104" lon="-4.746369">
        <ele>929.797</ele>
        <time>2021-10-15T13:20:37Z</time>
      </trkpt>
      <trkpt lat="42.557970" lon="-4.746030">
        <ele>929.125</ele>
        <time>2021-10-15T13:20:38Z</time>
      </trkpt>
      <trkpt lat="42.557713" lon="-4.745358">
        <ele>928.088</ele>
        <time>2021-10-15T13:20:40Z</time>
      </trkpt>
      <trkpt lat="42.557452" lon="-4.744665">
        <ele>927.013</ele>
        <time>2021-10-15T13:20:42Z</time>
      </trkpt>
      <trkpt lat="42.557202" lon="-4.743953">
        <ele>925.958</ele>
        <time>2021-10-15T13:20:44Z</time>
      </trkpt>
      <trkpt lat="42.556974" lon="-4.743270">
        <ele>924.752</ele>
        <time>2021-10-15T13:20:46Z</time>
      </trkpt>
      <trkpt lat="42.556757" lon="-4.742631">
        <ele>923.717</ele>
        <time>2021-10-15T13:20:48Z</time>
      </trkpt>
      <trkpt lat="42.556648" lon="-4.742312">
        <ele>923.308</ele>
        <time>2021-10-15T13:20:49Z</time>
      </trkpt>
      <trkpt lat="42.556538" lon="-4.741988">
        <ele>922.943</ele>
        <time>2021-10-15T13:20:50Z</time>
      </trkpt>
      <trkpt lat="42.556320" lon="-4.741333">
        <ele>923.021</ele>
        <time>2021-10-15T13:20:52Z</time>
      </trkpt>
      <trkpt lat="42.556213" lon="-4.740996">
        <ele>923.159</ele>
        <time>2021-10-15T13:20:53Z</time>
      </trkpt>
      <trkpt lat="42.556101" lon="-4.740650">
        <ele>922.783</ele>
        <time>2021-10-15T13:20:54Z</time>
      </trkpt>
      <trkpt lat="42.555867" lon="-4.739957">
        <ele>920.858</ele>
        <time>2021-10-15T13:20:56Z</time>
      </trkpt>
      <trkpt lat="42.555632" lon="-4.739262">
        <ele>918.016</ele>
        <time>2021-10-15T13:20:58Z</time>
      </trkpt>
      <trkpt lat="42.555393" lon="-4.738555">
        <ele>914.119</ele>
        <time>2021-10-15T13:21:00Z</time>
      </trkpt>
      <trkpt lat="42.555270" lon="-4.738190">
        <ele>912.044</ele>
        <time>2021-10-15T13:21:01Z</time>
      </trkpt>
      <trkpt lat="42.555144" lon="-4.737816">
        <ele>910.019</ele>
        <time>2021-10-15T13:21:02Z</time>
      </trkpt>
      <trkpt lat="42.554896" lon="-4.737086">
        <ele>907.309</ele>
        <time>2021-10-15T13:21:04Z</time>
      </trkpt>
      <trkpt lat="42.554643" lon="-4.736361">
        <ele>904.819</ele>
        <time>2021-10-15T13:21:06Z</time>
      </trkpt>
      <trkpt lat="42.554513" lon="-4.736021">
        <ele>903.908</ele>
        <time>2021-10-15T13:21:07Z</time>
      </trkpt>
      <trkpt lat="42.554374" lon="-4.735710">
        <ele>903.219</ele>
        <time>2021-10-15T13:21:08Z</time>
      </trkpt>
      <trkpt lat="42.554080" lon="-4.735180">
        <ele>902.957</ele>
        <time>2021-10-15T13:21:10Z</time>
      </trkpt>
      <trkpt lat="42.553776" lon="-4.734733">
        <ele>902.065</ele>
        <time>2021-10-15T13:21:12Z</time>
      </trkpt>
      <trkpt lat="42.553473" lon="-4.734343">
        <ele>901.639</ele>
        <time>2021-10-15T13:21:14Z</time>
      </trkpt>
      <trkpt lat="42.553180" lon="-4.734013">
        <ele>902.034</ele>
        <time>2021-10-15T13:21:16Z</time>
      </trkpt>
      <trkpt lat="42.552862" lon="-4.733721">
        <ele>901.752</ele>
        <time>2021-10-15T13:21:18Z</time>
      </trkpt>
      <trkpt lat="42.552694" lon="-4.733589">
        <ele>901.555</ele>
        <time>2021-10-15T13:21:19Z</time>
      </trkpt>
      <trkpt lat="42.552521" lon="-4.733462">
        <ele>900.940</ele>
        <time>2021-10-15T13:21:20Z</time>
      </trkpt>
      <trkpt lat="42.552178" lon="-4.733230">
        <ele>900.374</ele>
        <time>2021-10-15T13:21:22Z</time>
      </trkpt>
      <trkpt lat="42.552000" lon="-4.733127">
        <ele>900.756</ele>
        <time>2021-10-15T13:21:23Z</time>
      </trkpt>
      <trkpt lat="42.551637" lon="-4.732977">
        <ele>901.721</ele>
        <time>2021-10-15T13:21:25Z</time>
      </trkpt>
      <trkpt lat="42.551446" lon="-4.732911">
        <ele>901.808</ele>
        <time>2021-10-15T13:21:26Z</time>
      </trkpt>
      <trkpt lat="42.551070" lon="-4.732802">
        <ele>901.425</ele>
        <time>2021-10-15T13:21:28Z</time>
      </trkpt>
      <trkpt lat="42.550684" lon="-4.732711">
        <ele>901.893</ele>
        <time>2021-10-15T13:21:30Z</time>
      </trkpt>
      <trkpt lat="42.550293" lon="-4.732673">
        <ele>902.281</ele>
        <time>2021-10-15T13:21:32Z</time>
      </trkpt>
      <trkpt lat="42.550104" lon="-4.732668">
        <ele>902.085</ele>
        <time>2021-10-15T13:21:33Z</time>
      </trkpt>
      <trkpt lat="42.549751" lon="-4.732674">
        <ele>901.350</ele>
        <time>2021-10-15T13:21:35Z</time>
      </trkpt>
      <trkpt lat="42.549414" lon="-4.732716">
        <ele>901.288</ele>
        <time>2021-10-15T13:21:37Z</time>
      </trkpt>
      <trkpt lat="42.549242" lon="-4.732750">
        <ele>901.731</ele>
        <time>2021-10-15T13:21:38Z</time>
      </trkpt>
      <trkpt lat="42.548890" lon="-4.732824">
        <ele>901.476</ele>
        <time>2021-10-15T13:21:40Z</time>
      </trkpt>
      <trkpt lat="42.548703" lon="-4.732869">
        <ele>901.199</ele>
        <time>2021-10-15T13:21:41Z</time>
      </trkpt>
      <trkpt lat="42.548312" lon="-4.733005">
        <ele>900.407</ele>
        <time>2021-10-15T13:21:43Z</time>
      </trkpt>
      <trkpt lat="42.548102" lon="-4.733090">
        <ele>899.927</ele>
        <time>2021-10-15T13:21:44Z</time>
      </trkpt>
      <trkpt lat="42.547651" lon="-4.733261">
        <ele>899.108</ele>
        <time>2021-10-15T13:21:46Z</time>
      </trkpt>
      <trkpt lat="42.547160" lon="-4.733456">
        <ele>898.457</ele>
        <time>2021-10-15T13:21:48Z</time>
      </trkpt>
      <trkpt lat="42.546904" lon="-4.733550">
        <ele>898.365</ele>
        <time>2021-10-15T13:21:49Z</time>
      </trkpt>
      <trkpt lat="42.546647" lon="-4.733634">
        <ele>898.313</ele>
        <time>2021-10-15T13:21:50Z</time>
      </trkpt>
      <trkpt lat="42.546127" lon="-4.733753">
        <ele>897.477</ele>
        <time>2021-10-15T13:21:52Z</time>
      </trkpt>
      <trkpt lat="42.545588" lon="-4.733864">
        <ele>896.912</ele>
        <time>2021-10-15T13:21:54Z</time>
      </trkpt>
      <trkpt lat="42.545027" lon="-4.733989">
        <ele>895.450</ele>
        <time>2021-10-15T13:21:56Z</time>
      </trkpt>
      <trkpt lat="42.544508" lon="-4.734106">
        <ele>894.393</ele>
        <time>2021-10-15T13:21:58Z</time>
      </trkpt>
      <trkpt lat="42.544256" lon="-4.734161">
        <ele>893.698</ele>
        <time>2021-10-15T13:21:59Z</time>
      </trkpt>
      <trkpt lat="42.543784" lon="-4.734260">
        <ele>893.325</ele>
        <time>2021-10-15T13:22:01Z</time>
      </trkpt>
      <trkpt lat="42.543547" lon="-4.734311">
        <ele>893.026</ele>
        <time>2021-10-15T13:22:02Z</time>
      </trkpt>
      <trkpt lat="42.543081" lon="-4.734412">
        <ele>892.108</ele>
        <time>2021-10-15T13:22:04Z</time>
      </trkpt>
      <trkpt lat="42.542840" lon="-4.734465">
        <ele>891.808</ele>
        <time>2021-10-15T13:22:05Z</time>
      </trkpt>
      <trkpt lat="42.542352" lon="-4.734574">
        <ele>891.280</ele>
        <time>2021-10-15T13:22:07Z</time>
      </trkpt>
      <trkpt lat="42.542102" lon="-4.734631">
        <ele>891.068</ele>
        <time>2021-10-15T13:22:08Z</time>
      </trkpt>
      <trkpt lat="42.541609" lon="-4.734740">
        <ele>890.326</ele>
        <time>2021-10-15T13:22:10Z</time>
      </trkpt>
      <trkpt lat="42.541370" lon="-4.734793">
        <ele>889.430</ele>
        <time>2021-10-15T13:22:11Z</time>
      </trkpt>
      <trkpt lat="42.541141" lon="-4.734842">
        <ele>888.735</ele>
        <time>2021-10-15T13:22:12Z</time>
      </trkpt>
      <trkpt lat="42.540920" lon="-4.734886">
        <ele>888.583</ele>
        <time>2021-10-15T13:22:13Z</time>
      </trkpt>
      <trkpt lat="42.540698" lon="-4.734932">
        <ele>888.346</ele>
        <time>2021-10-15T13:22:14Z</time>
      </trkpt>
      <trkpt lat="42.540272" lon="-4.735032">
        <ele>888.851</ele>
        <time>2021-10-15T13:22:16Z</time>
      </trkpt>
      <trkpt lat="42.540066" lon="-4.735080">
        <ele>888.188</ele>
        <time>2021-10-15T13:22:17Z</time>
      </trkpt>
      <trkpt lat="42.539677" lon="-4.735167">
        <ele>888.224</ele>
        <time>2021-10-15T13:22:19Z</time>
      </trkpt>
      <trkpt lat="42.539491" lon="-4.735207">
        <ele>887.626</ele>
        <time>2021-10-15T13:22:20Z</time>
      </trkpt>
      <trkpt lat="42.539132" lon="-4.735284">
        <ele>886.408</ele>
        <time>2021-10-15T13:22:22Z</time>
      </trkpt>
      <trkpt lat="42.538945" lon="-4.735327">
        <ele>885.716</ele>
        <time>2021-10-15T13:22:23Z</time>
      </trkpt>
      <trkpt lat="42.538754" lon="-4.735371">
        <ele>885.274</ele>
        <time>2021-10-15T13:22:24Z</time>
      </trkpt>
      <trkpt lat="42.538355" lon="-4.735462">
        <ele>883.732</ele>
        <time>2021-10-15T13:22:26Z</time>
      </trkpt>
      <trkpt lat="42.537955" lon="-4.735551">
        <ele>882.426</ele>
        <time>2021-10-15T13:22:28Z</time>
      </trkpt>
      <trkpt lat="42.537541" lon="-4.735643">
        <ele>881.841</ele>
        <time>2021-10-15T13:22:30Z</time>
      </trkpt>
      <trkpt lat="42.537113" lon="-4.735743">
        <ele>879.649</ele>
        <time>2021-10-15T13:22:32Z</time>
      </trkpt>
      <trkpt lat="42.536678" lon="-4.735851">
        <ele>877.862</ele>
        <time>2021-10-15T13:22:34Z</time>
      </trkpt>
      <trkpt lat="42.536222" lon="-4.735948">
        <ele>876.577</ele>
        <time>2021-10-15T13:22:36Z</time>
      </trkpt>
      <trkpt lat="42.535746" lon="-4.736037">
        <ele>875.854</ele>
        <time>2021-10-15T13:22:38Z</time>
      </trkpt>
      <trkpt lat="42.535288" lon="-4.736100">
        <ele>874.656</ele>
        <time>2021-10-15T13:22:40Z</time>
      </trkpt>
      <trkpt lat="42.535073" lon="-4.736121">
        <ele>874.411</ele>
        <time>2021-10-15T13:22:41Z</time>
      </trkpt>
      <trkpt lat="42.534663" lon="-4.736137">
        <ele>874.208</ele>
        <time>2021-10-15T13:22:43Z</time>
      </trkpt>
      <trkpt lat="42.534454" lon="-4.736132">
        <ele>873.753</ele>
        <time>2021-10-15T13:22:44Z</time>
      </trkpt>
      <trkpt lat="42.534037" lon="-4.736109">
        <ele>873.851</ele>
        <time>2021-10-15T13:22:46Z</time>
      </trkpt>
      <trkpt lat="42.533623" lon="-4.736067">
        <ele>873.969</ele>
        <time>2021-10-15T13:22:48Z</time>
      </trkpt>
      <trkpt lat="42.533229" lon="-4.736001">
        <ele>873.673</ele>
        <time>2021-10-15T13:22:50Z</time>
      </trkpt>
      <trkpt lat="42.532846" lon="-4.735912">
        <ele>872.828</ele>
        <time>2021-10-15T13:22:52Z</time>
      </trkpt>
      <trkpt lat="42.532653" lon="-4.735855">
        <ele>872.466</ele>
        <time>2021-10-15T13:22:53Z</time>
      </trkpt>
      <trkpt lat="42.532276" lon="-4.735726">
        <ele>872.729</ele>
        <time>2021-10-15T13:22:55Z</time>
      </trkpt>
      <trkpt lat="42.532074" lon="-4.735647">
        <ele>872.544</ele>
        <time>2021-10-15T13:22:56Z</time>
      </trkpt>
      <trkpt lat="42.531687" lon="-4.735474">
        <ele>872.615</ele>
        <time>2021-10-15T13:22:58Z</time>
      </trkpt>
      <trkpt lat="42.531281" lon="-4.735270">
        <ele>872.665</ele>
        <time>2021-10-15T13:23:00Z</time>
      </trkpt>
      <trkpt lat="42.531077" lon="-4.735156">
        <ele>872.311</ele>
        <time>2021-10-15T13:23:01Z</time>
      </trkpt>
      <trkpt lat="42.530883" lon="-4.735038">
        <ele>872.008</ele>
        <time>2021-10-15T13:23:02Z</time>
      </trkpt>
      <trkpt lat="42.530510" lon="-4.734796">
        <ele>871.929</ele>
        <time>2021-10-15T13:23:04Z</time>
      </trkpt>
      <trkpt lat="42.530128" lon="-4.734540">
        <ele>871.457</ele>
        <time>2021-10-15T13:23:06Z</time>
      </trkpt>
      <trkpt lat="42.529945" lon="-4.734416">
        <ele>870.465</ele>
        <time>2021-10-15T13:23:07Z</time>
      </trkpt>
      <trkpt lat="42.529767" lon="-4.734297">
        <ele>869.779</ele>
        <time>2021-10-15T13:23:08Z</time>
      </trkpt>
      <trkpt lat="42.529433" lon="-4.734067">
        <ele>868.764</ele>
        <time>2021-10-15T13:23:10Z</time>
      </trkpt>
      <trkpt lat="42.529265" lon="-4.733953">
        <ele>868.162</ele>
        <time>2021-10-15T13:23:11Z</time>
      </trkpt>
      <trkpt lat="42.529094" lon="-4.733835">
        <ele>867.445</ele>
        <time>2021-10-15T13:23:12Z</time>
      </trkpt>
      <trkpt lat="42.528918" lon="-4.733710">
        <ele>867.040</ele>
        <time>2021-10-15T13:23:13Z</time>
      </trkpt>
      <trkpt lat="42.528740" lon="-4.733585">
        <ele>866.461</ele>
        <time>2021-10-15T13:23:14Z</time>
      </trkpt>
      <trkpt lat="42.528380" lon="-4.733337">
        <ele>866.521</ele>
        <time>2021-10-15T13:23:16Z</time>
      </trkpt>
      <trkpt lat="42.528199" lon="-4.733214">
        <ele>866.213</ele>
        <time>2021-10-15T13:23:17Z</time>
      </trkpt>
      <trkpt lat="42.527853" lon="-4.732982">
        <ele>865.608</ele>
        <time>2021-10-15T13:23:19Z</time>
      </trkpt>
      <trkpt lat="42.527684" lon="-4.732870">
        <ele>866.284</ele>
        <time>2021-10-15T13:23:20Z</time>
      </trkpt>
      <trkpt lat="42.527360" lon="-4.732655">
        <ele>866.272</ele>
        <time>2021-10-15T13:23:22Z</time>
      </trkpt>
      <trkpt lat="42.527039" lon="-4.732438">
        <ele>866.950</ele>
        <time>2021-10-15T13:23:24Z</time>
      </trkpt>
      <trkpt lat="42.526882" lon="-4.732327">
        <ele>867.184</ele>
        <time>2021-10-15T13:23:25Z</time>
      </trkpt>
      <trkpt lat="42.526724" lon="-4.732219">
        <ele>866.919</ele>
        <time>2021-10-15T13:23:26Z</time>
      </trkpt>
      <trkpt lat="42.526430" lon="-4.732013">
        <ele>867.897</ele>
        <time>2021-10-15T13:23:28Z</time>
      </trkpt>
      <trkpt lat="42.526286" lon="-4.731919">
        <ele>868.590</ele>
        <time>2021-10-15T13:23:29Z</time>
      </trkpt>
      <trkpt lat="42.526151" lon="-4.731834">
        <ele>869.475</ele>
        <time>2021-10-15T13:23:30Z</time>
      </trkpt>
      <trkpt lat="42.525908" lon="-4.731717">
        <ele>870.391</ele>
        <time>2021-10-15T13:23:32Z</time>
      </trkpt>
      <trkpt lat="42.525675" lon="-4.731678">
        <ele>871.181</ele>
        <time>2021-10-15T13:23:34Z</time>
      </trkpt>
      <trkpt lat="42.525442" lon="-4.731727">
        <ele>870.819</ele>
        <time>2021-10-15T13:23:36Z</time>
      </trkpt>
      <trkpt lat="42.525328" lon="-4.731784">
        <ele>870.408</ele>
        <time>2021-10-15T13:23:37Z</time>
      </trkpt>
      <trkpt lat="42.525210" lon="-4.731853">
        <ele>869.917</ele>
        <time>2021-10-15T13:23:38Z</time>
      </trkpt>
      <trkpt lat="42.524985" lon="-4.732005">
        <ele>868.655</ele>
        <time>2021-10-15T13:23:40Z</time>
      </trkpt>
      <trkpt lat="42.524773" lon="-4.732150">
        <ele>867.763</ele>
        <time>2021-10-15T13:23:42Z</time>
      </trkpt>
      <trkpt lat="42.524575" lon="-4.732286">
        <ele>867.717</ele>
        <time>2021-10-15T13:23:44Z</time>
      </trkpt>
      <trkpt lat="42.524392" lon="-4.732401">
        <ele>867.412</ele>
        <time>2021-10-15T13:23:46Z</time>
      </trkpt>
      <trkpt lat="42.524311" lon="-4.732452">
        <ele>867.040</ele>
        <time>2021-10-15T13:23:47Z</time>
      </trkpt>
      <trkpt lat="42.524157" lon="-4.732550">
        <ele>866.873</ele>
        <time>2021-10-15T13:23:49Z</time>
      </trkpt>
      <trkpt lat="42.524083" lon="-4.732601">
        <ele>866.458</ele>
        <time>2021-10-15T13:23:50Z</time>
      </trkpt>
      <trkpt lat="42.523928" lon="-4.732697">
        <ele>865.834</ele>
        <time>2021-10-15T13:23:52Z</time>
      </trkpt>
      <trkpt lat="42.523843" lon="-4.732749">
        <ele>865.655</ele>
        <time>2021-10-15T13:23:53Z</time>
      </trkpt>
      <trkpt lat="42.523671" lon="-4.732856">
        <ele>864.610</ele>
        <time>2021-10-15T13:23:55Z</time>
      </trkpt>
      <trkpt lat="42.523580" lon="-4.732913">
        <ele>864.408</ele>
        <time>2021-10-15T13:23:56Z</time>
      </trkpt>
      <trkpt lat="42.523403" lon="-4.733035">
        <ele>864.451</ele>
        <time>2021-10-15T13:23:58Z</time>
      </trkpt>
      <trkpt lat="42.523196" lon="-4.733166">
        <ele>863.989</ele>
        <time>2021-10-15T13:24:00Z</time>
      </trkpt>
      <trkpt lat="42.522965" lon="-4.733313">
        <ele>864.897</ele>
        <time>2021-10-15T13:24:02Z</time>
      </trkpt>
      <trkpt lat="42.522751" lon="-4.733452">
        <ele>864.911</ele>
        <time>2021-10-15T13:24:04Z</time>
      </trkpt>
      <trkpt lat="42.522561" lon="-4.733577">
        <ele>864.926</ele>
        <time>2021-10-15T13:24:06Z</time>
      </trkpt>
      <trkpt lat="42.522472" lon="-4.733633">
        <ele>864.994</ele>
        <time>2021-10-15T13:24:07Z</time>
      </trkpt>
      <trkpt lat="42.522387" lon="-4.733689">
        <ele>864.757</ele>
        <time>2021-10-15T13:24:08Z</time>
      </trkpt>
      <trkpt lat="42.522230" lon="-4.733798">
        <ele>864.392</ele>
        <time>2021-10-15T13:24:10Z</time>
      </trkpt>
      <trkpt lat="42.522151" lon="-4.733851">
        <ele>863.978</ele>
        <time>2021-10-15T13:24:11Z</time>
      </trkpt>
      <trkpt lat="42.522067" lon="-4.733909">
        <ele>863.833</ele>
        <time>2021-10-15T13:24:12Z</time>
      </trkpt>
      <trkpt lat="42.521878" lon="-4.734037">
        <ele>863.426</ele>
        <time>2021-10-15T13:24:14Z</time>
      </trkpt>
      <trkpt lat="42.521664" lon="-4.734179">
        <ele>863.408</ele>
        <time>2021-10-15T13:24:16Z</time>
      </trkpt>
      <trkpt lat="42.521451" lon="-4.734320">
        <ele>862.135</ele>
        <time>2021-10-15T13:24:18Z</time>
      </trkpt>
      <trkpt lat="42.521350" lon="-4.734384">
        <ele>862.123</ele>
        <time>2021-10-15T13:24:19Z</time>
      </trkpt>
      <trkpt lat="42.521251" lon="-4.734450">
        <ele>862.731</ele>
        <time>2021-10-15T13:24:20Z</time>
      </trkpt>
      <trkpt lat="42.521040" lon="-4.734594">
        <ele>862.135</ele>
        <time>2021-10-15T13:24:22Z</time>
      </trkpt>
      <trkpt lat="42.520794" lon="-4.734750">
        <ele>861.320</ele>
        <time>2021-10-15T13:24:24Z</time>
      </trkpt>
      <trkpt lat="42.520660" lon="-4.734831">
        <ele>859.538</ele>
        <time>2021-10-15T13:24:25Z</time>
      </trkpt>
      <trkpt lat="42.520520" lon="-4.734919">
        <ele>858.691</ele>
        <time>2021-10-15T13:24:26Z</time>
      </trkpt>
      <trkpt lat="42.520265" lon="-4.735085">
        <ele>856.466</ele>
        <time>2021-10-15T13:24:28Z</time>
      </trkpt>
      <trkpt lat="42.520032" lon="-4.735240">
        <ele>854.652</ele>
        <time>2021-10-15T13:24:30Z</time>
      </trkpt>
      <trkpt lat="42.519918" lon="-4.735312">
        <ele>853.953</ele>
        <time>2021-10-15T13:24:31Z</time>
      </trkpt>
      <trkpt lat="42.519803" lon="-4.735380">
        <ele>853.708</ele>
        <time>2021-10-15T13:24:32Z</time>
      </trkpt>
      <trkpt lat="42.519593" lon="-4.735511">
        <ele>852.308</ele>
        <time>2021-10-15T13:24:34Z</time>
      </trkpt>
      <trkpt lat="42.519394" lon="-4.735640">
        <ele>851.593</ele>
        <time>2021-10-15T13:24:36Z</time>
      </trkpt>
      <trkpt lat="42.519296" lon="-4.735704">
        <ele>851.431</ele>
        <time>2021-10-15T13:24:37Z</time>
      </trkpt>
      <trkpt lat="42.519202" lon="-4.735768">
        <ele>850.369</ele>
        <time>2021-10-15T13:24:38Z</time>
      </trkpt>
      <trkpt lat="42.519023" lon="-4.735887">
        <ele>849.583</ele>
        <time>2021-10-15T13:24:40Z</time>
      </trkpt>
      <trkpt lat="42.518936" lon="-4.735944">
        <ele>848.798</ele>
        <time>2021-10-15T13:24:41Z</time>
      </trkpt>
      <trkpt lat="42.518771" lon="-4.736058">
        <ele>849.346</ele>
        <time>2021-10-15T13:24:43Z</time>
      </trkpt>
      <trkpt lat="42.518683" lon="-4.736119">
        <ele>849.369</ele>
        <time>2021-10-15T13:24:44Z</time>
      </trkpt>
      <trkpt lat="42.518505" lon="-4.736252">
        <ele>848.144</ele>
        <time>2021-10-15T13:24:46Z</time>
      </trkpt>
      <trkpt lat="42.518314" lon="-4.736378">
        <ele>848.296</ele>
        <time>2021-10-15T13:24:48Z</time>
      </trkpt>
      <trkpt lat="42.518112" lon="-4.736501">
        <ele>848.331</ele>
        <time>2021-10-15T13:24:50Z</time>
      </trkpt>
      <trkpt lat="42.517904" lon="-4.736631">
        <ele>849.324</ele>
        <time>2021-10-15T13:24:52Z</time>
      </trkpt>
      <trkpt lat="42.517795" lon="-4.736700">
        <ele>849.408</ele>
        <time>2021-10-15T13:24:53Z</time>
      </trkpt>
      <trkpt lat="42.517685" lon="-4.736770">
        <ele>849.397</ele>
        <time>2021-10-15T13:24:54Z</time>
      </trkpt>
      <trkpt lat="42.517463" lon="-4.736907">
        <ele>849.455</ele>
        <time>2021-10-15T13:24:56Z</time>
      </trkpt>
      <trkpt lat="42.517245" lon="-4.737043">
        <ele>849.433</ele>
        <time>2021-10-15T13:24:58Z</time>
      </trkpt>
      <trkpt lat="42.517139" lon="-4.737112">
        <ele>849.597</ele>
        <time>2021-10-15T13:24:59Z</time>
      </trkpt>
      <trkpt lat="42.516930" lon="-4.737253">
        <ele>849.352</ele>
        <time>2021-10-15T13:25:01Z</time>
      </trkpt>
      <trkpt lat="42.516819" lon="-4.737329">
        <ele>848.760</ele>
        <time>2021-10-15T13:25:02Z</time>
      </trkpt>
      <trkpt lat="42.516598" lon="-4.737479">
        <ele>847.313</ele>
        <time>2021-10-15T13:25:04Z</time>
      </trkpt>
      <trkpt lat="42.516483" lon="-4.737559">
        <ele>847.178</ele>
        <time>2021-10-15T13:25:05Z</time>
      </trkpt>
      <trkpt lat="42.516373" lon="-4.737640">
        <ele>846.791</ele>
        <time>2021-10-15T13:25:06Z</time>
      </trkpt>
      <trkpt lat="42.516168" lon="-4.737788">
        <ele>846.781</ele>
        <time>2021-10-15T13:25:08Z</time>
      </trkpt>
      <trkpt lat="42.515957" lon="-4.737939">
        <ele>846.319</ele>
        <time>2021-10-15T13:25:10Z</time>
      </trkpt>
      <trkpt lat="42.515844" lon="-4.738022">
        <ele>845.908</ele>
        <time>2021-10-15T13:25:11Z</time>
      </trkpt>
      <trkpt lat="42.515605" lon="-4.738195">
        <ele>845.957</ele>
        <time>2021-10-15T13:25:13Z</time>
      </trkpt>
      <trkpt lat="42.515478" lon="-4.738285">
        <ele>844.945</ele>
        <time>2021-10-15T13:25:14Z</time>
      </trkpt>
      <trkpt lat="42.515229" lon="-4.738464">
        <ele>845.463</ele>
        <time>2021-10-15T13:25:16Z</time>
      </trkpt>
      <trkpt lat="42.515101" lon="-4.738556">
        <ele>845.137</ele>
        <time>2021-10-15T13:25:17Z</time>
      </trkpt>
      <trkpt lat="42.514842" lon="-4.738737">
        <ele>844.532</ele>
        <time>2021-10-15T13:25:19Z</time>
      </trkpt>
      <trkpt lat="42.514712" lon="-4.738829">
        <ele>844.650</ele>
        <time>2021-10-15T13:25:20Z</time>
      </trkpt>
      <trkpt lat="42.514468" lon="-4.739004">
        <ele>844.683</ele>
        <time>2021-10-15T13:25:22Z</time>
      </trkpt>
      <trkpt lat="42.514248" lon="-4.739161">
        <ele>844.458</ele>
        <time>2021-10-15T13:25:24Z</time>
      </trkpt>
      <trkpt lat="42.514142" lon="-4.739239">
        <ele>844.239</ele>
        <time>2021-10-15T13:25:25Z</time>
      </trkpt>
      <trkpt lat="42.514030" lon="-4.739319">
        <ele>844.201</ele>
        <time>2021-10-15T13:25:26Z</time>
      </trkpt>
      <trkpt lat="42.513818" lon="-4.739464">
        <ele>844.721</ele>
        <time>2021-10-15T13:25:28Z</time>
      </trkpt>
      <trkpt lat="42.513713" lon="-4.739530">
        <ele>844.708</ele>
        <time>2021-10-15T13:25:29Z</time>
      </trkpt>
      <trkpt lat="42.513518" lon="-4.739634">
        <ele>845.131</ele>
        <time>2021-10-15T13:25:31Z</time>
      </trkpt>
      <trkpt lat="42.513425" lon="-4.739674">
        <ele>845.159</ele>
        <time>2021-10-15T13:25:32Z</time>
      </trkpt>
      <trkpt lat="42.513264" lon="-4.739764">
        <ele>845.477</ele>
        <time>2021-10-15T13:25:34Z</time>
      </trkpt>
      <trkpt lat="42.513182" lon="-4.739834">
        <ele>845.481</ele>
        <time>2021-10-15T13:25:35Z</time>
      </trkpt>
      <trkpt lat="42.513096" lon="-4.739917">
        <ele>845.436</ele>
        <time>2021-10-15T13:25:36Z</time>
      </trkpt>
      <trkpt lat="42.512898" lon="-4.740108">
        <ele>844.474</ele>
        <time>2021-10-15T13:25:38Z</time>
      </trkpt>
      <trkpt lat="42.512673" lon="-4.740311">
        <ele>844.147</ele>
        <time>2021-10-15T13:25:40Z</time>
      </trkpt>
      <trkpt lat="42.512541" lon="-4.740410">
        <ele>843.972</ele>
        <time>2021-10-15T13:25:41Z</time>
      </trkpt>
      <trkpt lat="42.512248" lon="-4.740614">
        <ele>842.565</ele>
        <time>2021-10-15T13:25:43Z</time>
      </trkpt>
      <trkpt lat="42.512093" lon="-4.740720">
        <ele>842.268</ele>
        <time>2021-10-15T13:25:44Z</time>
      </trkpt>
      <trkpt lat="42.511812" lon="-4.740917">
        <ele>843.014</ele>
        <time>2021-10-15T13:25:46Z</time>
      </trkpt>
      <trkpt lat="42.511535" lon="-4.741115">
        <ele>843.308</ele>
        <time>2021-10-15T13:25:48Z</time>
      </trkpt>
      <trkpt lat="42.511386" lon="-4.741218">
        <ele>843.014</ele>
        <time>2021-10-15T13:25:49Z</time>
      </trkpt>
      <trkpt lat="42.511233" lon="-4.741323">
        <ele>842.862</ele>
        <time>2021-10-15T13:25:50Z</time>
      </trkpt>
      <trkpt lat="42.510915" lon="-4.741545">
        <ele>843.120</ele>
        <time>2021-10-15T13:25:52Z</time>
      </trkpt>
      <trkpt lat="42.510741" lon="-4.741664">
        <ele>843.214</ele>
        <time>2021-10-15T13:25:53Z</time>
      </trkpt>
      <trkpt lat="42.510564" lon="-4.741786">
        <ele>843.039</ele>
        <time>2021-10-15T13:25:54Z</time>
      </trkpt>
      <trkpt lat="42.510214" lon="-4.742031">
        <ele>843.227</ele>
        <time>2021-10-15T13:25:56Z</time>
      </trkpt>
      <trkpt lat="42.509891" lon="-4.742250">
        <ele>842.630</ele>
        <time>2021-10-15T13:25:58Z</time>
      </trkpt>
      <trkpt lat="42.509716" lon="-4.742367">
        <ele>842.465</ele>
        <time>2021-10-15T13:25:59Z</time>
      </trkpt>
      <trkpt lat="42.509357" lon="-4.742617">
        <ele>842.765</ele>
        <time>2021-10-15T13:26:01Z</time>
      </trkpt>
      <trkpt lat="42.509169" lon="-4.742750">
        <ele>842.468</ele>
        <time>2021-10-15T13:26:02Z</time>
      </trkpt>
      <trkpt lat="42.508804" lon="-4.743008">
        <ele>842.114</ele>
        <time>2021-10-15T13:26:04Z</time>
      </trkpt>
      <trkpt lat="42.508621" lon="-4.743138">
        <ele>841.308</ele>
        <time>2021-10-15T13:26:05Z</time>
      </trkpt>
      <trkpt lat="42.508250" lon="-4.743406">
        <ele>841.014</ele>
        <time>2021-10-15T13:26:07Z</time>
      </trkpt>
      <trkpt lat="42.508057" lon="-4.743542">
        <ele>841.192</ele>
        <time>2021-10-15T13:26:08Z</time>
      </trkpt>
      <trkpt lat="42.507672" lon="-4.743811">
        <ele>841.710</ele>
        <time>2021-10-15T13:26:10Z</time>
      </trkpt>
      <trkpt lat="42.507475" lon="-4.743948">
        <ele>841.614</ele>
        <time>2021-10-15T13:26:11Z</time>
      </trkpt>
      <trkpt lat="42.507080" lon="-4.744224">
        <ele>841.579</ele>
        <time>2021-10-15T13:26:13Z</time>
      </trkpt>
      <trkpt lat="42.506877" lon="-4.744367">
        <ele>841.177</ele>
        <time>2021-10-15T13:26:14Z</time>
      </trkpt>
      <trkpt lat="42.506481" lon="-4.744656">
        <ele>840.640</ele>
        <time>2021-10-15T13:26:16Z</time>
      </trkpt>
      <trkpt lat="42.506089" lon="-4.744956">
        <ele>840.615</ele>
        <time>2021-10-15T13:26:18Z</time>
      </trkpt>
      <trkpt lat="42.505717" lon="-4.745275">
        <ele>841.548</ele>
        <time>2021-10-15T13:26:20Z</time>
      </trkpt>
      <trkpt lat="42.505377" lon="-4.745582">
        <ele>841.261</ele>
        <time>2021-10-15T13:26:22Z</time>
      </trkpt>
      <trkpt lat="42.505216" lon="-4.745738">
        <ele>842.317</ele>
        <time>2021-10-15T13:26:23Z</time>
      </trkpt>
      <trkpt lat="42.504914" lon="-4.746044">
        <ele>843.308</ele>
        <time>2021-10-15T13:26:25Z</time>
      </trkpt>
      <trkpt lat="42.504767" lon="-4.746200">
        <ele>843.562</ele>
        <time>2021-10-15T13:26:26Z</time>
      </trkpt>
      <trkpt lat="42.504491" lon="-4.746500">
        <ele>843.450</ele>
        <time>2021-10-15T13:26:28Z</time>
      </trkpt>
      <trkpt lat="42.504349" lon="-4.746653">
        <ele>843.768</ele>
        <time>2021-10-15T13:26:29Z</time>
      </trkpt>
      <trkpt lat="42.504049" lon="-4.746955">
        <ele>843.552</ele>
        <time>2021-10-15T13:26:31Z</time>
      </trkpt>
      <trkpt lat="42.503887" lon="-4.747104">
        <ele>843.087</ele>
        <time>2021-10-15T13:26:32Z</time>
      </trkpt>
      <trkpt lat="42.503566" lon="-4.747393">
        <ele>842.475</ele>
        <time>2021-10-15T13:26:34Z</time>
      </trkpt>
      <trkpt lat="42.503393" lon="-4.747538">
        <ele>841.998</ele>
        <time>2021-10-15T13:26:35Z</time>
      </trkpt>
      <trkpt lat="42.503036" lon="-4.747817">
        <ele>841.673</ele>
        <time>2021-10-15T13:26:37Z</time>
      </trkpt>
      <trkpt lat="42.502853" lon="-4.747958">
        <ele>841.145</ele>
        <time>2021-10-15T13:26:38Z</time>
      </trkpt>
      <trkpt lat="42.502482" lon="-4.748226">
        <ele>841.347</ele>
        <time>2021-10-15T13:26:40Z</time>
      </trkpt>
      <trkpt lat="42.502099" lon="-4.748474">
        <ele>840.711</ele>
        <time>2021-10-15T13:26:42Z</time>
      </trkpt>
      <trkpt lat="42.501725" lon="-4.748720">
        <ele>840.208</ele>
        <time>2021-10-15T13:26:44Z</time>
      </trkpt>
      <trkpt lat="42.501370" lon="-4.748958">
        <ele>840.352</ele>
        <time>2021-10-15T13:26:46Z</time>
      </trkpt>
      <trkpt lat="42.501192" lon="-4.749073">
        <ele>839.910</ele>
        <time>2021-10-15T13:26:47Z</time>
      </trkpt>
      <trkpt lat="42.500834" lon="-4.749305">
        <ele>839.058</ele>
        <time>2021-10-15T13:26:49Z</time>
      </trkpt>
      <trkpt lat="42.500651" lon="-4.749424">
        <ele>838.812</ele>
        <time>2021-10-15T13:26:50Z</time>
      </trkpt>
      <trkpt lat="42.500295" lon="-4.749666">
        <ele>837.977</ele>
        <time>2021-10-15T13:26:52Z</time>
      </trkpt>
      <trkpt lat="42.500113" lon="-4.749790">
        <ele>837.975</ele>
        <time>2021-10-15T13:26:53Z</time>
      </trkpt>
      <trkpt lat="42.499752" lon="-4.750035">
        <ele>837.598</ele>
        <time>2021-10-15T13:26:55Z</time>
      </trkpt>
      <trkpt lat="42.499562" lon="-4.750159">
        <ele>837.573</ele>
        <time>2021-10-15T13:26:56Z</time>
      </trkpt>
      <trkpt lat="42.499200" lon="-4.750389">
        <ele>837.264</ele>
        <time>2021-10-15T13:26:58Z</time>
      </trkpt>
      <trkpt lat="42.499016" lon="-4.750513">
        <ele>837.206</ele>
        <time>2021-10-15T13:26:59Z</time>
      </trkpt>
      <trkpt lat="42.498833" lon="-4.750637">
        <ele>837.216</ele>
        <time>2021-10-15T13:27:00Z</time>
      </trkpt>
      <trkpt lat="42.498650" lon="-4.750760">
        <ele>836.908</ele>
        <time>2021-10-15T13:27:01Z</time>
      </trkpt>
      <trkpt lat="42.498463" lon="-4.750886">
        <ele>836.824</ele>
        <time>2021-10-15T13:27:02Z</time>
      </trkpt>
      <trkpt lat="42.498105" lon="-4.751123">
        <ele>837.162</ele>
        <time>2021-10-15T13:27:04Z</time>
      </trkpt>
      <trkpt lat="42.497736" lon="-4.751362">
        <ele>837.560</ele>
        <time>2021-10-15T13:27:06Z</time>
      </trkpt>
      <trkpt lat="42.497552" lon="-4.751485">
        <ele>837.074</ele>
        <time>2021-10-15T13:27:07Z</time>
      </trkpt>
      <trkpt lat="42.497368" lon="-4.751608">
        <ele>837.069</ele>
        <time>2021-10-15T13:27:08Z</time>
      </trkpt>
      <trkpt lat="42.497002" lon="-4.751848">
        <ele>837.077</ele>
        <time>2021-10-15T13:27:10Z</time>
      </trkpt>
      <trkpt lat="42.496822" lon="-4.751965">
        <ele>837.470</ele>
        <time>2021-10-15T13:27:11Z</time>
      </trkpt>
      <trkpt lat="42.496470" lon="-4.752214">
        <ele>837.845</ele>
        <time>2021-10-15T13:27:13Z</time>
      </trkpt>
      <trkpt lat="42.496293" lon="-4.752356">
        <ele>837.798</ele>
        <time>2021-10-15T13:27:14Z</time>
      </trkpt>
      <trkpt lat="42.495956" lon="-4.752700">
        <ele>838.015</ele>
        <time>2021-10-15T13:27:16Z</time>
      </trkpt>
      <trkpt lat="42.495786" lon="-4.752896">
        <ele>838.226</ele>
        <time>2021-10-15T13:27:17Z</time>
      </trkpt>
      <trkpt lat="42.495611" lon="-4.753091">
        <ele>838.408</ele>
        <time>2021-10-15T13:27:18Z</time>
      </trkpt>
      <trkpt lat="42.495231" lon="-4.753464">
        <ele>838.637</ele>
        <time>2021-10-15T13:27:20Z</time>
      </trkpt>
      <trkpt lat="42.494841" lon="-4.753816">
        <ele>838.725</ele>
        <time>2021-10-15T13:27:22Z</time>
      </trkpt>
      <trkpt lat="42.494644" lon="-4.753999">
        <ele>838.253</ele>
        <time>2021-10-15T13:27:23Z</time>
      </trkpt>
      <trkpt lat="42.494446" lon="-4.754182">
        <ele>837.837</ele>
        <time>2021-10-15T13:27:24Z</time>
      </trkpt>
      <trkpt lat="42.494045" lon="-4.754546">
        <ele>837.712</ele>
        <time>2021-10-15T13:27:26Z</time>
      </trkpt>
      <trkpt lat="42.493675" lon="-4.754875">
        <ele>837.980</ele>
        <time>2021-10-15T13:27:28Z</time>
      </trkpt>
      <trkpt lat="42.493492" lon="-4.755032">
        <ele>837.623</ele>
        <time>2021-10-15T13:27:29Z</time>
      </trkpt>
      <trkpt lat="42.493129" lon="-4.755339">
        <ele>838.168</ele>
        <time>2021-10-15T13:27:31Z</time>
      </trkpt>
      <trkpt lat="42.492935" lon="-4.755493">
        <ele>838.149</ele>
        <time>2021-10-15T13:27:32Z</time>
      </trkpt>
      <trkpt lat="42.492527" lon="-4.755815">
        <ele>837.702</ele>
        <time>2021-10-15T13:27:34Z</time>
      </trkpt>
      <trkpt lat="42.492301" lon="-4.755993">
        <ele>837.422</ele>
        <time>2021-10-15T13:27:35Z</time>
      </trkpt>
      <trkpt lat="42.491823" lon="-4.756370">
        <ele>836.808</ele>
        <time>2021-10-15T13:27:37Z</time>
      </trkpt>
      <trkpt lat="42.491569" lon="-4.756564">
        <ele>837.142</ele>
        <time>2021-10-15T13:27:38Z</time>
      </trkpt>
      <trkpt lat="42.491064" lon="-4.756952">
        <ele>838.340</ele>
        <time>2021-10-15T13:27:40Z</time>
      </trkpt>
      <trkpt lat="42.490807" lon="-4.757149">
        <ele>838.138</ele>
        <time>2021-10-15T13:27:41Z</time>
      </trkpt>
      <trkpt lat="42.490553" lon="-4.757345">
        <ele>837.572</ele>
        <time>2021-10-15T13:27:42Z</time>
      </trkpt>
      <trkpt lat="42.490046" lon="-4.757737">
        <ele>837.677</ele>
        <time>2021-10-15T13:27:44Z</time>
      </trkpt>
      <trkpt lat="42.489554" lon="-4.758120">
        <ele>837.085</ele>
        <time>2021-10-15T13:27:46Z</time>
      </trkpt>
      <trkpt lat="42.489301" lon="-4.758317">
        <ele>837.358</ele>
        <time>2021-10-15T13:27:47Z</time>
      </trkpt>
      <trkpt lat="42.488814" lon="-4.758695">
        <ele>836.913</ele>
        <time>2021-10-15T13:27:49Z</time>
      </trkpt>
      <trkpt lat="42.488565" lon="-4.758886">
        <ele>837.337</ele>
        <time>2021-10-15T13:27:50Z</time>
      </trkpt>
      <trkpt lat="42.488082" lon="-4.759259">
        <ele>837.349</ele>
        <time>2021-10-15T13:27:52Z</time>
      </trkpt>
      <trkpt lat="42.487596" lon="-4.759646">
        <ele>836.913</ele>
        <time>2021-10-15T13:27:54Z</time>
      </trkpt>
      <trkpt lat="42.487100" lon="-4.760028">
        <ele>837.008</ele>
        <time>2021-10-15T13:27:56Z</time>
      </trkpt>
      <trkpt lat="42.486615" lon="-4.760403">
        <ele>837.031</ele>
        <time>2021-10-15T13:27:58Z</time>
      </trkpt>
      <trkpt lat="42.486366" lon="-4.760596">
        <ele>836.859</ele>
        <time>2021-10-15T13:27:59Z</time>
      </trkpt>
      <trkpt lat="42.485867" lon="-4.760981">
        <ele>836.557</ele>
        <time>2021-10-15T13:28:01Z</time>
      </trkpt>
      <trkpt lat="42.485615" lon="-4.761176">
        <ele>836.341</ele>
        <time>2021-10-15T13:28:02Z</time>
      </trkpt>
      <trkpt lat="42.485119" lon="-4.761557">
        <ele>837.126</ele>
        <time>2021-10-15T13:28:04Z</time>
      </trkpt>
      <trkpt lat="42.484866" lon="-4.761750">
        <ele>836.724</ele>
        <time>2021-10-15T13:28:05Z</time>
      </trkpt>
      <trkpt lat="42.484363" lon="-4.762134">
        <ele>837.697</ele>
        <time>2021-10-15T13:28:07Z</time>
      </trkpt>
      <trkpt lat="42.483867" lon="-4.762515">
        <ele>837.672</ele>
        <time>2021-10-15T13:28:09Z</time>
      </trkpt>
      <trkpt lat="42.483371" lon="-4.762902">
        <ele>837.066</ele>
        <time>2021-10-15T13:28:11Z</time>
      </trkpt>
      <trkpt lat="42.483126" lon="-4.763092">
        <ele>836.929</ele>
        <time>2021-10-15T13:28:12Z</time>
      </trkpt>
      <trkpt lat="42.482637" lon="-4.763468">
        <ele>836.321</ele>
        <time>2021-10-15T13:28:14Z</time>
      </trkpt>
      <trkpt lat="42.482152" lon="-4.763838">
        <ele>836.108</ele>
        <time>2021-10-15T13:28:16Z</time>
      </trkpt>
      <trkpt lat="42.481909" lon="-4.764024">
        <ele>836.134</ele>
        <time>2021-10-15T13:28:17Z</time>
      </trkpt>
      <trkpt lat="42.481424" lon="-4.764395">
        <ele>836.482</ele>
        <time>2021-10-15T13:28:19Z</time>
      </trkpt>
      <trkpt lat="42.481183" lon="-4.764582">
        <ele>836.310</ele>
        <time>2021-10-15T13:28:20Z</time>
      </trkpt>
      <trkpt lat="42.480708" lon="-4.764950">
        <ele>836.174</ele>
        <time>2021-10-15T13:28:22Z</time>
      </trkpt>
      <trkpt lat="42.480244" lon="-4.765310">
        <ele>835.949</ele>
        <time>2021-10-15T13:28:24Z</time>
      </trkpt>
      <trkpt lat="42.480012" lon="-4.765488">
        <ele>835.827</ele>
        <time>2021-10-15T13:28:25Z</time>
      </trkpt>
      <trkpt lat="42.479776" lon="-4.765670">
        <ele>835.740</ele>
        <time>2021-10-15T13:28:26Z</time>
      </trkpt>
      <trkpt lat="42.479319" lon="-4.766021">
        <ele>835.795</ele>
        <time>2021-10-15T13:28:28Z</time>
      </trkpt>
      <trkpt lat="42.479083" lon="-4.766203">
        <ele>835.861</ele>
        <time>2021-10-15T13:28:29Z</time>
      </trkpt>
      <trkpt lat="42.478604" lon="-4.766571">
        <ele>835.721</ele>
        <time>2021-10-15T13:28:31Z</time>
      </trkpt>
      <trkpt lat="42.478347" lon="-4.766770">
        <ele>836.013</ele>
        <time>2021-10-15T13:28:32Z</time>
      </trkpt>
      <trkpt lat="42.477859" lon="-4.767149">
        <ele>836.608</ele>
        <time>2021-10-15T13:28:34Z</time>
      </trkpt>
      <trkpt lat="42.477609" lon="-4.767341">
        <ele>836.454</ele>
        <time>2021-10-15T13:28:35Z</time>
      </trkpt>
      <trkpt lat="42.477360" lon="-4.767532">
        <ele>836.152</ele>
        <time>2021-10-15T13:28:36Z</time>
      </trkpt>
      <trkpt lat="42.476858" lon="-4.767914">
        <ele>836.140</ele>
        <time>2021-10-15T13:28:38Z</time>
      </trkpt>
      <trkpt lat="42.476391" lon="-4.768255">
        <ele>836.424</ele>
        <time>2021-10-15T13:28:40Z</time>
      </trkpt>
      <trkpt lat="42.476169" lon="-4.768414">
        <ele>836.669</ele>
        <time>2021-10-15T13:28:41Z</time>
      </trkpt>
      <trkpt lat="42.475753" lon="-4.768701">
        <ele>836.977</ele>
        <time>2021-10-15T13:28:43Z</time>
      </trkpt>
      <trkpt lat="42.475556" lon="-4.768839">
        <ele>836.960</ele>
        <time>2021-10-15T13:28:44Z</time>
      </trkpt>
      <trkpt lat="42.475195" lon="-4.769091">
        <ele>836.855</ele>
        <time>2021-10-15T13:28:46Z</time>
      </trkpt>
      <trkpt lat="42.475018" lon="-4.769212">
        <ele>836.216</ele>
        <time>2021-10-15T13:28:47Z</time>
      </trkpt>
      <trkpt lat="42.474669" lon="-4.769457">
        <ele>835.676</ele>
        <time>2021-10-15T13:28:49Z</time>
      </trkpt>
      <trkpt lat="42.474483" lon="-4.769585">
        <ele>835.213</ele>
        <time>2021-10-15T13:28:50Z</time>
      </trkpt>
      <trkpt lat="42.474117" lon="-4.769841">
        <ele>835.908</ele>
        <time>2021-10-15T13:28:52Z</time>
      </trkpt>
      <trkpt lat="42.473931" lon="-4.769978">
        <ele>835.759</ele>
        <time>2021-10-15T13:28:53Z</time>
      </trkpt>
      <trkpt lat="42.473547" lon="-4.770255">
        <ele>836.017</ele>
        <time>2021-10-15T13:28:55Z</time>
      </trkpt>
      <trkpt lat="42.473341" lon="-4.770396">
        <ele>835.985</ele>
        <time>2021-10-15T13:28:56Z</time>
      </trkpt>
      <trkpt lat="42.472941" lon="-4.770667">
        <ele>835.759</ele>
        <time>2021-10-15T13:28:58Z</time>
      </trkpt>
      <trkpt lat="42.472542" lon="-4.770957">
        <ele>836.154</ele>
        <time>2021-10-15T13:29:00Z</time>
      </trkpt>
      <trkpt lat="42.472151" lon="-4.771236">
        <ele>836.732</ele>
        <time>2021-10-15T13:29:02Z</time>
      </trkpt>
      <trkpt lat="42.471773" lon="-4.771502">
        <ele>836.385</ele>
        <time>2021-10-15T13:29:04Z</time>
      </trkpt>
      <trkpt lat="42.471576" lon="-4.771644">
        <ele>836.220</ele>
        <time>2021-10-15T13:29:05Z</time>
      </trkpt>
      <trkpt lat="42.471374" lon="-4.771783">
        <ele>835.727</ele>
        <time>2021-10-15T13:29:06Z</time>
      </trkpt>
      <trkpt lat="42.471173" lon="-4.771923">
        <ele>835.468</ele>
        <time>2021-10-15T13:29:07Z</time>
      </trkpt>
      <trkpt lat="42.470969" lon="-4.772065">
        <ele>835.214</ele>
        <time>2021-10-15T13:29:08Z</time>
      </trkpt>
      <trkpt lat="42.470563" lon="-4.772349">
        <ele>835.208</ele>
        <time>2021-10-15T13:29:10Z</time>
      </trkpt>
      <trkpt lat="42.470154" lon="-4.772638">
        <ele>834.740</ele>
        <time>2021-10-15T13:29:12Z</time>
      </trkpt>
      <trkpt lat="42.469945" lon="-4.772790">
        <ele>834.818</ele>
        <time>2021-10-15T13:29:13Z</time>
      </trkpt>
      <trkpt lat="42.469734" lon="-4.772937">
        <ele>835.236</ele>
        <time>2021-10-15T13:29:14Z</time>
      </trkpt>
      <trkpt lat="42.469310" lon="-4.773234">
        <ele>835.320</ele>
        <time>2021-10-15T13:29:16Z</time>
      </trkpt>
      <trkpt lat="42.469093" lon="-4.773386">
        <ele>835.675</ele>
        <time>2021-10-15T13:29:17Z</time>
      </trkpt>
      <trkpt lat="42.468653" lon="-4.773703">
        <ele>836.443</ele>
        <time>2021-10-15T13:29:19Z</time>
      </trkpt>
      <trkpt lat="42.468423" lon="-4.773866">
        <ele>836.536</ele>
        <time>2021-10-15T13:29:20Z</time>
      </trkpt>
      <trkpt lat="42.467969" lon="-4.774191">
        <ele>836.491</ele>
        <time>2021-10-15T13:29:22Z</time>
      </trkpt>
      <trkpt lat="42.467735" lon="-4.774357">
        <ele>836.746</ele>
        <time>2021-10-15T13:29:23Z</time>
      </trkpt>
      <trkpt lat="42.467261" lon="-4.774686">
        <ele>836.888</ele>
        <time>2021-10-15T13:29:25Z</time>
      </trkpt>
      <trkpt lat="42.467016" lon="-4.774855">
        <ele>836.016</ele>
        <time>2021-10-15T13:29:26Z</time>
      </trkpt>
      <trkpt lat="42.466543" lon="-4.775188">
        <ele>836.908</ele>
        <time>2021-10-15T13:29:28Z</time>
      </trkpt>
      <trkpt lat="42.466299" lon="-4.775361">
        <ele>836.782</ele>
        <time>2021-10-15T13:29:29Z</time>
      </trkpt>
      <trkpt lat="42.465809" lon="-4.775705">
        <ele>837.140</ele>
        <time>2021-10-15T13:29:31Z</time>
      </trkpt>
      <trkpt lat="42.465553" lon="-4.775884">
        <ele>836.658</ele>
        <time>2021-10-15T13:29:32Z</time>
      </trkpt>
      <trkpt lat="42.465066" lon="-4.776231">
        <ele>836.662</ele>
        <time>2021-10-15T13:29:34Z</time>
      </trkpt>
      <trkpt lat="42.464814" lon="-4.776419">
        <ele>836.467</ele>
        <time>2021-10-15T13:29:35Z</time>
      </trkpt>
      <trkpt lat="42.464565" lon="-4.776603">
        <ele>836.545</ele>
        <time>2021-10-15T13:29:36Z</time>
      </trkpt>
      <trkpt lat="42.464069" lon="-4.776957">
        <ele>836.848</ele>
        <time>2021-10-15T13:29:38Z</time>
      </trkpt>
      <trkpt lat="42.463599" lon="-4.777290">
        <ele>836.153</ele>
        <time>2021-10-15T13:29:40Z</time>
      </trkpt>
      <trkpt lat="42.463140" lon="-4.777602">
        <ele>836.423</ele>
        <time>2021-10-15T13:29:42Z</time>
      </trkpt>
      <trkpt lat="42.462904" lon="-4.777768">
        <ele>836.783</ele>
        <time>2021-10-15T13:29:43Z</time>
      </trkpt>
      <trkpt lat="42.462669" lon="-4.777933">
        <ele>836.511</ele>
        <time>2021-10-15T13:29:44Z</time>
      </trkpt>
      <trkpt lat="42.462203" lon="-4.778262">
        <ele>837.008</ele>
        <time>2021-10-15T13:29:46Z</time>
      </trkpt>
      <trkpt lat="42.461731" lon="-4.778600">
        <ele>837.320</ele>
        <time>2021-10-15T13:29:48Z</time>
      </trkpt>
      <trkpt lat="42.461487" lon="-4.778776">
        <ele>837.148</ele>
        <time>2021-10-15T13:29:49Z</time>
      </trkpt>
      <trkpt lat="42.461239" lon="-4.778950">
        <ele>836.526</ele>
        <time>2021-10-15T13:29:50Z</time>
      </trkpt>
      <trkpt lat="42.460743" lon="-4.779300">
        <ele>837.130</ele>
        <time>2021-10-15T13:29:52Z</time>
      </trkpt>
      <trkpt lat="42.460245" lon="-4.779650">
        <ele>836.545</ele>
        <time>2021-10-15T13:29:54Z</time>
      </trkpt>
      <trkpt lat="42.459745" lon="-4.780002">
        <ele>836.893</ele>
        <time>2021-10-15T13:29:56Z</time>
      </trkpt>
      <trkpt lat="42.459268" lon="-4.780340">
        <ele>836.896</ele>
        <time>2021-10-15T13:29:58Z</time>
      </trkpt>
      <trkpt lat="42.459024" lon="-4.780514">
        <ele>836.721</ele>
        <time>2021-10-15T13:29:59Z</time>
      </trkpt>
      <trkpt lat="42.458548" lon="-4.780856">
        <ele>836.432</ele>
        <time>2021-10-15T13:30:01Z</time>
      </trkpt>
      <trkpt lat="42.458305" lon="-4.781028">
        <ele>836.492</ele>
        <time>2021-10-15T13:30:02Z</time>
      </trkpt>
      <trkpt lat="42.457849" lon="-4.781351">
        <ele>836.911</ele>
        <time>2021-10-15T13:30:04Z</time>
      </trkpt>
      <trkpt lat="42.457620" lon="-4.781514">
        <ele>837.308</ele>
        <time>2021-10-15T13:30:05Z</time>
      </trkpt>
      <trkpt lat="42.457175" lon="-4.781830">
        <ele>836.781</ele>
        <time>2021-10-15T13:30:07Z</time>
      </trkpt>
      <trkpt lat="42.456954" lon="-4.781990">
        <ele>836.839</ele>
        <time>2021-10-15T13:30:08Z</time>
      </trkpt>
      <trkpt lat="42.456515" lon="-4.782296">
        <ele>836.747</ele>
        <time>2021-10-15T13:30:10Z</time>
      </trkpt>
      <trkpt lat="42.456079" lon="-4.782602">
        <ele>837.251</ele>
        <time>2021-10-15T13:30:12Z</time>
      </trkpt>
      <trkpt lat="42.455863" lon="-4.782753">
        <ele>836.766</ele>
        <time>2021-10-15T13:30:13Z</time>
      </trkpt>
      <trkpt lat="42.455653" lon="-4.782905">
        <ele>836.464</ele>
        <time>2021-10-15T13:30:14Z</time>
      </trkpt>
      <trkpt lat="42.455239" lon="-4.783188">
        <ele>836.017</ele>
        <time>2021-10-15T13:30:16Z</time>
      </trkpt>
      <trkpt lat="42.455036" lon="-4.783329">
        <ele>836.562</ele>
        <time>2021-10-15T13:30:17Z</time>
      </trkpt>
      <trkpt lat="42.454640" lon="-4.783613">
        <ele>836.982</ele>
        <time>2021-10-15T13:30:19Z</time>
      </trkpt>
      <trkpt lat="42.454435" lon="-4.783755">
        <ele>837.143</ele>
        <time>2021-10-15T13:30:20Z</time>
      </trkpt>
      <trkpt lat="42.454030" lon="-4.784039">
        <ele>837.817</ele>
        <time>2021-10-15T13:30:22Z</time>
      </trkpt>
      <trkpt lat="42.453615" lon="-4.784342">
        <ele>837.608</ele>
        <time>2021-10-15T13:30:24Z</time>
      </trkpt>
      <trkpt lat="42.453178" lon="-4.784646">
        <ele>837.236</ele>
        <time>2021-10-15T13:30:26Z</time>
      </trkpt>
      <trkpt lat="42.452741" lon="-4.784952">
        <ele>836.944</ele>
        <time>2021-10-15T13:30:28Z</time>
      </trkpt>
      <trkpt lat="42.452517" lon="-4.785115">
        <ele>836.872</ele>
        <time>2021-10-15T13:30:29Z</time>
      </trkpt>
      <trkpt lat="42.452066" lon="-4.785434">
        <ele>837.236</ele>
        <time>2021-10-15T13:30:31Z</time>
      </trkpt>
      <trkpt lat="42.451832" lon="-4.785599">
        <ele>837.441</ele>
        <time>2021-10-15T13:30:32Z</time>
      </trkpt>
      <trkpt lat="42.451379" lon="-4.785922">
        <ele>838.329</ele>
        <time>2021-10-15T13:30:34Z</time>
      </trkpt>
      <trkpt lat="42.451136" lon="-4.786093">
        <ele>839.262</ele>
        <time>2021-10-15T13:30:35Z</time>
      </trkpt>
      <trkpt lat="42.450891" lon="-4.786265">
        <ele>839.677</ele>
        <time>2021-10-15T13:30:36Z</time>
      </trkpt>
      <trkpt lat="42.450393" lon="-4.786618">
        <ele>840.851</ele>
        <time>2021-10-15T13:30:38Z</time>
      </trkpt>
      <trkpt lat="42.449882" lon="-4.786976">
        <ele>841.901</ele>
        <time>2021-10-15T13:30:40Z</time>
      </trkpt>
      <trkpt lat="42.449617" lon="-4.787162">
        <ele>842.711</ele>
        <time>2021-10-15T13:30:41Z</time>
      </trkpt>
      <trkpt lat="42.449078" lon="-4.787544">
        <ele>844.108</ele>
        <time>2021-10-15T13:30:43Z</time>
      </trkpt>
      <trkpt lat="42.448796" lon="-4.787742">
        <ele>844.463</ele>
        <time>2021-10-15T13:30:44Z</time>
      </trkpt>
      <trkpt lat="42.448234" lon="-4.788135">
        <ele>845.571</ele>
        <time>2021-10-15T13:30:46Z</time>
      </trkpt>
      <trkpt lat="42.447946" lon="-4.788338">
        <ele>846.659</ele>
        <time>2021-10-15T13:30:47Z</time>
      </trkpt>
      <trkpt lat="42.447656" lon="-4.788543">
        <ele>846.983</ele>
        <time>2021-10-15T13:30:48Z</time>
      </trkpt>
      <trkpt lat="42.447363" lon="-4.788748">
        <ele>847.618</ele>
        <time>2021-10-15T13:30:49Z</time>
      </trkpt>
      <trkpt lat="42.447067" lon="-4.788954">
        <ele>848.196</ele>
        <time>2021-10-15T13:30:50Z</time>
      </trkpt>
      <trkpt lat="42.446494" lon="-4.789357">
        <ele>849.459</ele>
        <time>2021-10-15T13:30:52Z</time>
      </trkpt>
      <trkpt lat="42.445928" lon="-4.789759">
        <ele>850.184</ele>
        <time>2021-10-15T13:30:54Z</time>
      </trkpt>
      <trkpt lat="42.445648" lon="-4.789959">
        <ele>850.777</ele>
        <time>2021-10-15T13:30:55Z</time>
      </trkpt>
      <trkpt lat="42.445362" lon="-4.790164">
        <ele>851.661</ele>
        <time>2021-10-15T13:30:56Z</time>
      </trkpt>
      <trkpt lat="42.444820" lon="-4.790558">
        <ele>852.827</ele>
        <time>2021-10-15T13:30:58Z</time>
      </trkpt>
      <trkpt lat="42.444271" lon="-4.790945">
        <ele>853.208</ele>
        <time>2021-10-15T13:31:00Z</time>
      </trkpt>
      <trkpt lat="42.443723" lon="-4.791333">
        <ele>854.785</ele>
        <time>2021-10-15T13:31:02Z</time>
      </trkpt>
      <trkpt lat="42.443195" lon="-4.791699">
        <ele>854.793</ele>
        <time>2021-10-15T13:31:04Z</time>
      </trkpt>
      <trkpt lat="42.442664" lon="-4.792073">
        <ele>854.511</ele>
        <time>2021-10-15T13:31:06Z</time>
      </trkpt>
      <trkpt lat="42.442403" lon="-4.792258">
        <ele>854.625</ele>
        <time>2021-10-15T13:31:07Z</time>
      </trkpt>
      <trkpt lat="42.442145" lon="-4.792441">
        <ele>855.140</ele>
        <time>2021-10-15T13:31:08Z</time>
      </trkpt>
      <trkpt lat="42.441639" lon="-4.792797">
        <ele>854.228</ele>
        <time>2021-10-15T13:31:10Z</time>
      </trkpt>
      <trkpt lat="42.441137" lon="-4.793148">
        <ele>854.681</ele>
        <time>2021-10-15T13:31:12Z</time>
      </trkpt>
      <trkpt lat="42.440883" lon="-4.793326">
        <ele>854.216</ele>
        <time>2021-10-15T13:31:13Z</time>
      </trkpt>
      <trkpt lat="42.440627" lon="-4.793507">
        <ele>854.549</ele>
        <time>2021-10-15T13:31:14Z</time>
      </trkpt>
      <trkpt lat="42.440118" lon="-4.793878">
        <ele>855.102</ele>
        <time>2021-10-15T13:31:16Z</time>
      </trkpt>
      <trkpt lat="42.439860" lon="-4.794064">
        <ele>855.222</ele>
        <time>2021-10-15T13:31:17Z</time>
      </trkpt>
      <trkpt lat="42.439336" lon="-4.794430">
        <ele>855.608</ele>
        <time>2021-10-15T13:31:19Z</time>
      </trkpt>
      <trkpt lat="42.439068" lon="-4.794618">
        <ele>855.972</ele>
        <time>2021-10-15T13:31:20Z</time>
      </trkpt>
      <trkpt lat="42.438548" lon="-4.794984">
        <ele>856.260</ele>
        <time>2021-10-15T13:31:22Z</time>
      </trkpt>
      <trkpt lat="42.438285" lon="-4.795171">
        <ele>856.458</ele>
        <time>2021-10-15T13:31:23Z</time>
      </trkpt>
      <trkpt lat="42.438023" lon="-4.795357">
        <ele>857.432</ele>
        <time>2021-10-15T13:31:24Z</time>
      </trkpt>
      <trkpt lat="42.437497" lon="-4.795748">
        <ele>858.457</ele>
        <time>2021-10-15T13:31:26Z</time>
      </trkpt>
      <trkpt lat="42.437005" lon="-4.796158">
        <ele>859.335</ele>
        <time>2021-10-15T13:31:28Z</time>
      </trkpt>
      <trkpt lat="42.436758" lon="-4.796382">
        <ele>859.468</ele>
        <time>2021-10-15T13:31:29Z</time>
      </trkpt>
      <trkpt lat="42.436266" lon="-4.796852">
        <ele>859.743</ele>
        <time>2021-10-15T13:31:31Z</time>
      </trkpt>
      <trkpt lat="42.436015" lon="-4.797097">
        <ele>860.916</ele>
        <time>2021-10-15T13:31:32Z</time>
      </trkpt>
      <trkpt lat="42.435768" lon="-4.797348">
        <ele>860.976</ele>
        <time>2021-10-15T13:31:33Z</time>
      </trkpt>
      <trkpt lat="42.435271" lon="-4.797857">
        <ele>860.313</ele>
        <time>2021-10-15T13:31:35Z</time>
      </trkpt>
      <trkpt lat="42.434775" lon="-4.798372">
        <ele>860.308</ele>
        <time>2021-10-15T13:31:37Z</time>
      </trkpt>
      <trkpt lat="42.434525" lon="-4.798630">
        <ele>860.399</ele>
        <time>2021-10-15T13:31:38Z</time>
      </trkpt>
      <trkpt lat="42.434035" lon="-4.799124">
        <ele>860.087</ele>
        <time>2021-10-15T13:31:40Z</time>
      </trkpt>
      <trkpt lat="42.433793" lon="-4.799376">
        <ele>859.835</ele>
        <time>2021-10-15T13:31:41Z</time>
      </trkpt>
      <trkpt lat="42.433307" lon="-4.799876">
        <ele>860.139</ele>
        <time>2021-10-15T13:31:43Z</time>
      </trkpt>
      <trkpt lat="42.433057" lon="-4.800126">
        <ele>860.214</ele>
        <time>2021-10-15T13:31:44Z</time>
      </trkpt>
      <trkpt lat="42.432574" lon="-4.800618">
        <ele>860.292</ele>
        <time>2021-10-15T13:31:46Z</time>
      </trkpt>
      <trkpt lat="42.432331" lon="-4.800870">
        <ele>859.685</ele>
        <time>2021-10-15T13:31:47Z</time>
      </trkpt>
      <trkpt lat="42.431845" lon="-4.801374">
        <ele>859.550</ele>
        <time>2021-10-15T13:31:49Z</time>
      </trkpt>
      <trkpt lat="42.431602" lon="-4.801627">
        <ele>858.857</ele>
        <time>2021-10-15T13:31:50Z</time>
      </trkpt>
      <trkpt lat="42.431145" lon="-4.802101">
        <ele>858.500</ele>
        <time>2021-10-15T13:31:52Z</time>
      </trkpt>
      <trkpt lat="42.430934" lon="-4.802319">
        <ele>858.320</ele>
        <time>2021-10-15T13:31:53Z</time>
      </trkpt>
      <trkpt lat="42.430557" lon="-4.802703">
        <ele>858.208</ele>
        <time>2021-10-15T13:31:55Z</time>
      </trkpt>
      <trkpt lat="42.430373" lon="-4.802891">
        <ele>858.033</ele>
        <time>2021-10-15T13:31:56Z</time>
      </trkpt>
      <trkpt lat="42.430007" lon="-4.803265">
        <ele>858.841</ele>
        <time>2021-10-15T13:31:58Z</time>
      </trkpt>
      <trkpt lat="42.429621" lon="-4.803659">
        <ele>857.929</ele>
        <time>2021-10-15T13:32:00Z</time>
      </trkpt>
      <trkpt lat="42.429422" lon="-4.803863">
        <ele>857.833</ele>
        <time>2021-10-15T13:32:01Z</time>
      </trkpt>
      <trkpt lat="42.429214" lon="-4.804077">
        <ele>857.628</ele>
        <time>2021-10-15T13:32:02Z</time>
      </trkpt>
      <trkpt lat="42.428805" lon="-4.804498">
        <ele>857.356</ele>
        <time>2021-10-15T13:32:04Z</time>
      </trkpt>
      <trkpt lat="42.428587" lon="-4.804716">
        <ele>857.619</ele>
        <time>2021-10-15T13:32:05Z</time>
      </trkpt>
      <trkpt lat="42.428148" lon="-4.805168">
        <ele>858.034</ele>
        <time>2021-10-15T13:32:07Z</time>
      </trkpt>
      <trkpt lat="42.427923" lon="-4.805401">
        <ele>858.369</ele>
        <time>2021-10-15T13:32:08Z</time>
      </trkpt>
      <trkpt lat="42.427471" lon="-4.805866">
        <ele>857.104</ele>
        <time>2021-10-15T13:32:10Z</time>
      </trkpt>
      <trkpt lat="42.427239" lon="-4.806100">
        <ele>857.224</ele>
        <time>2021-10-15T13:32:11Z</time>
      </trkpt>
      <trkpt lat="42.426775" lon="-4.806580">
        <ele>857.608</ele>
        <time>2021-10-15T13:32:13Z</time>
      </trkpt>
      <trkpt lat="42.426537" lon="-4.806826">
        <ele>856.714</ele>
        <time>2021-10-15T13:32:14Z</time>
      </trkpt>
      <trkpt lat="42.426069" lon="-4.807312">
        <ele>856.142</ele>
        <time>2021-10-15T13:32:16Z</time>
      </trkpt>
      <trkpt lat="42.425833" lon="-4.807556">
        <ele>856.570</ele>
        <time>2021-10-15T13:32:17Z</time>
      </trkpt>
      <trkpt lat="42.425366" lon="-4.808038">
        <ele>855.764</ele>
        <time>2021-10-15T13:32:19Z</time>
      </trkpt>
      <trkpt lat="42.425134" lon="-4.808277">
        <ele>855.789</ele>
        <time>2021-10-15T13:32:20Z</time>
      </trkpt>
      <trkpt lat="42.424690" lon="-4.808731">
        <ele>855.817</ele>
        <time>2021-10-15T13:32:22Z</time>
      </trkpt>
      <trkpt lat="42.424481" lon="-4.808939">
        <ele>855.820</ele>
        <time>2021-10-15T13:32:23Z</time>
      </trkpt>
      <trkpt lat="42.424093" lon="-4.809333">
        <ele>855.225</ele>
        <time>2021-10-15T13:32:25Z</time>
      </trkpt>
      <trkpt lat="42.423892" lon="-4.809541">
        <ele>855.625</ele>
        <time>2021-10-15T13:32:26Z</time>
      </trkpt>
      <trkpt lat="42.423513" lon="-4.809930">
        <ele>855.926</ele>
        <time>2021-10-15T13:32:28Z</time>
      </trkpt>
      <trkpt lat="42.423127" lon="-4.810328">
        <ele>855.308</ele>
        <time>2021-10-15T13:32:30Z</time>
      </trkpt>
      <trkpt lat="42.422931" lon="-4.810530">
        <ele>855.008</ele>
        <time>2021-10-15T13:32:31Z</time>
      </trkpt>
      <trkpt lat="42.422732" lon="-4.810735">
        <ele>854.990</ele>
        <time>2021-10-15T13:32:32Z</time>
      </trkpt>
      <trkpt lat="42.422343" lon="-4.811134">
        <ele>854.618</ele>
        <time>2021-10-15T13:32:34Z</time>
      </trkpt>
      <trkpt lat="42.422138" lon="-4.811345">
        <ele>854.626</ele>
        <time>2021-10-15T13:32:35Z</time>
      </trkpt>
      <trkpt lat="42.421933" lon="-4.811556">
        <ele>854.450</ele>
        <time>2021-10-15T13:32:36Z</time>
      </trkpt>
      <trkpt lat="42.421725" lon="-4.811770">
        <ele>853.875</ele>
        <time>2021-10-15T13:32:37Z</time>
      </trkpt>
      <trkpt lat="42.421511" lon="-4.811989">
        <ele>853.283</ele>
        <time>2021-10-15T13:32:38Z</time>
      </trkpt>
      <trkpt lat="42.421080" lon="-4.812429">
        <ele>853.716</ele>
        <time>2021-10-15T13:32:40Z</time>
      </trkpt>
      <trkpt lat="42.420650" lon="-4.812871">
        <ele>853.511</ele>
        <time>2021-10-15T13:32:42Z</time>
      </trkpt>
      <trkpt lat="42.420437" lon="-4.813088">
        <ele>853.673</ele>
        <time>2021-10-15T13:32:43Z</time>
      </trkpt>
      <trkpt lat="42.420224" lon="-4.813302">
        <ele>853.285</ele>
        <time>2021-10-15T13:32:44Z</time>
      </trkpt>
      <trkpt lat="42.419816" lon="-4.813722">
        <ele>853.313</ele>
        <time>2021-10-15T13:32:46Z</time>
      </trkpt>
      <trkpt lat="42.419415" lon="-4.814135">
        <ele>853.708</ele>
        <time>2021-10-15T13:32:48Z</time>
      </trkpt>
      <trkpt lat="42.419045" lon="-4.814509">
        <ele>854.325</ele>
        <time>2021-10-15T13:32:50Z</time>
      </trkpt>
      <trkpt lat="42.418695" lon="-4.814862">
        <ele>853.913</ele>
        <time>2021-10-15T13:32:52Z</time>
      </trkpt>
      <trkpt lat="42.418517" lon="-4.815047">
        <ele>853.681</ele>
        <time>2021-10-15T13:32:53Z</time>
      </trkpt>
      <trkpt lat="42.418155" lon="-4.815416">
        <ele>853.745</ele>
        <time>2021-10-15T13:32:55Z</time>
      </trkpt>
      <trkpt lat="42.417959" lon="-4.815617">
        <ele>853.920</ele>
        <time>2021-10-15T13:32:56Z</time>
      </trkpt>
      <trkpt lat="42.417570" lon="-4.816023">
        <ele>853.358</ele>
        <time>2021-10-15T13:32:58Z</time>
      </trkpt>
      <trkpt lat="42.417154" lon="-4.816447">
        <ele>852.821</ele>
        <time>2021-10-15T13:33:00Z</time>
      </trkpt>
      <trkpt lat="42.416941" lon="-4.816660">
        <ele>853.556</ele>
        <time>2021-10-15T13:33:01Z</time>
      </trkpt>
      <trkpt lat="42.416724" lon="-4.816883">
        <ele>853.451</ele>
        <time>2021-10-15T13:33:02Z</time>
      </trkpt>
      <trkpt lat="42.416308" lon="-4.817310">
        <ele>852.001</ele>
        <time>2021-10-15T13:33:04Z</time>
      </trkpt>
      <trkpt lat="42.416093" lon="-4.817532">
        <ele>852.111</ele>
        <time>2021-10-15T13:33:05Z</time>
      </trkpt>
      <trkpt lat="42.415672" lon="-4.817969">
        <ele>851.208</ele>
        <time>2021-10-15T13:33:07Z</time>
      </trkpt>
      <trkpt lat="42.415460" lon="-4.818188">
        <ele>850.933</ele>
        <time>2021-10-15T13:33:08Z</time>
      </trkpt>
      <trkpt lat="42.415051" lon="-4.818606">
        <ele>850.551</ele>
        <time>2021-10-15T13:33:10Z</time>
      </trkpt>
      <trkpt lat="42.414646" lon="-4.819021">
        <ele>850.549</ele>
        <time>2021-10-15T13:33:12Z</time>
      </trkpt>
      <trkpt lat="42.414241" lon="-4.819436">
        <ele>850.363</ele>
        <time>2021-10-15T13:33:14Z</time>
      </trkpt>
      <trkpt lat="42.413833" lon="-4.819845">
        <ele>850.958</ele>
        <time>2021-10-15T13:33:16Z</time>
      </trkpt>
      <trkpt lat="42.413422" lon="-4.820263">
        <ele>849.886</ele>
        <time>2021-10-15T13:33:18Z</time>
      </trkpt>
      <trkpt lat="42.413215" lon="-4.820476">
        <ele>850.049</ele>
        <time>2021-10-15T13:33:19Z</time>
      </trkpt>
      <trkpt lat="42.413011" lon="-4.820684">
        <ele>850.484</ele>
        <time>2021-10-15T13:33:20Z</time>
      </trkpt>
      <trkpt lat="42.412642" lon="-4.821063">
        <ele>850.119</ele>
        <time>2021-10-15T13:33:22Z</time>
      </trkpt>
      <trkpt lat="42.412300" lon="-4.821405">
        <ele>849.409</ele>
        <time>2021-10-15T13:33:24Z</time>
      </trkpt>
      <trkpt lat="42.412142" lon="-4.821564">
        <ele>849.419</ele>
        <time>2021-10-15T13:33:25Z</time>
      </trkpt>
      <trkpt lat="42.411989" lon="-4.821718">
        <ele>849.208</ele>
        <time>2021-10-15T13:33:26Z</time>
      </trkpt>
      <trkpt lat="42.411715" lon="-4.822008">
        <ele>848.899</ele>
        <time>2021-10-15T13:33:28Z</time>
      </trkpt>
      <trkpt lat="42.411582" lon="-4.822148">
        <ele>848.877</ele>
        <time>2021-10-15T13:33:29Z</time>
      </trkpt>
      <trkpt lat="42.411329" lon="-4.822412">
        <ele>848.095</ele>
        <time>2021-10-15T13:33:31Z</time>
      </trkpt>
      <trkpt lat="42.411193" lon="-4.822547">
        <ele>848.089</ele>
        <time>2021-10-15T13:33:32Z</time>
      </trkpt>
      <trkpt lat="42.410899" lon="-4.822848">
        <ele>847.414</ele>
        <time>2021-10-15T13:33:34Z</time>
      </trkpt>
      <trkpt lat="42.410739" lon="-4.823023">
        <ele>847.232</ele>
        <time>2021-10-15T13:33:35Z</time>
      </trkpt>
      <trkpt lat="42.410395" lon="-4.823398">
        <ele>847.475</ele>
        <time>2021-10-15T13:33:37Z</time>
      </trkpt>
      <trkpt lat="42.410214" lon="-4.823601">
        <ele>847.230</ele>
        <time>2021-10-15T13:33:38Z</time>
      </trkpt>
      <trkpt lat="42.409879" lon="-4.823988">
        <ele>847.936</ele>
        <time>2021-10-15T13:33:40Z</time>
      </trkpt>
      <trkpt lat="42.409731" lon="-4.824161">
        <ele>847.617</ele>
        <time>2021-10-15T13:33:41Z</time>
      </trkpt>
      <trkpt lat="42.409600" lon="-4.824314">
        <ele>847.418</ele>
        <time>2021-10-15T13:33:42Z</time>
      </trkpt>
      <trkpt lat="42.409482" lon="-4.824455">
        <ele>847.108</ele>
        <time>2021-10-15T13:33:43Z</time>
      </trkpt>
      <trkpt lat="42.409364" lon="-4.824589">
        <ele>846.421</ele>
        <time>2021-10-15T13:33:44Z</time>
      </trkpt>
      <trkpt lat="42.409136" lon="-4.824850">
        <ele>847.129</ele>
        <time>2021-10-15T13:33:46Z</time>
      </trkpt>
      <trkpt lat="42.408898" lon="-4.825136">
        <ele>846.967</ele>
        <time>2021-10-15T13:33:48Z</time>
      </trkpt>
      <trkpt lat="42.408645" lon="-4.825433">
        <ele>847.241</ele>
        <time>2021-10-15T13:33:50Z</time>
      </trkpt>
      <trkpt lat="42.408388" lon="-4.825730">
        <ele>847.246</ele>
        <time>2021-10-15T13:33:52Z</time>
      </trkpt>
      <trkpt lat="42.408256" lon="-4.825883">
        <ele>847.174</ele>
        <time>2021-10-15T13:33:53Z</time>
      </trkpt>
      <trkpt lat="42.408123" lon="-4.826040">
        <ele>847.327</ele>
        <time>2021-10-15T13:33:54Z</time>
      </trkpt>
      <trkpt lat="42.407846" lon="-4.826361">
        <ele>845.972</ele>
        <time>2021-10-15T13:33:56Z</time>
      </trkpt>
      <trkpt lat="42.407572" lon="-4.826669">
        <ele>846.585</ele>
        <time>2021-10-15T13:33:58Z</time>
      </trkpt>
      <trkpt lat="42.407430" lon="-4.826836">
        <ele>846.589</ele>
        <time>2021-10-15T13:33:59Z</time>
      </trkpt>
      <trkpt lat="42.407282" lon="-4.827006">
        <ele>845.717</ele>
        <time>2021-10-15T13:34:00Z</time>
      </trkpt>
      <trkpt lat="42.406966" lon="-4.827368">
        <ele>845.208</ele>
        <time>2021-10-15T13:34:02Z</time>
      </trkpt>
      <trkpt lat="42.406642" lon="-4.827734">
        <ele>844.586</ele>
        <time>2021-10-15T13:34:04Z</time>
      </trkpt>
      <trkpt lat="42.406307" lon="-4.828113">
        <ele>844.654</ele>
        <time>2021-10-15T13:34:06Z</time>
      </trkpt>
      <trkpt lat="42.406143" lon="-4.828298">
        <ele>844.392</ele>
        <time>2021-10-15T13:34:07Z</time>
      </trkpt>
      <trkpt lat="42.405988" lon="-4.828482">
        <ele>843.926</ele>
        <time>2021-10-15T13:34:08Z</time>
      </trkpt>
      <trkpt lat="42.405681" lon="-4.828847">
        <ele>843.511</ele>
        <time>2021-10-15T13:34:10Z</time>
      </trkpt>
      <trkpt lat="42.405522" lon="-4.829032">
        <ele>842.839</ele>
        <time>2021-10-15T13:34:11Z</time>
      </trkpt>
      <trkpt lat="42.405205" lon="-4.829400">
        <ele>843.762</ele>
        <time>2021-10-15T13:34:13Z</time>
      </trkpt>
      <trkpt lat="42.405043" lon="-4.829582">
        <ele>843.727</ele>
        <time>2021-10-15T13:34:14Z</time>
      </trkpt>
      <trkpt lat="42.404723" lon="-4.829953">
        <ele>843.828</ele>
        <time>2021-10-15T13:34:16Z</time>
      </trkpt>
      <trkpt lat="42.404561" lon="-4.830145">
        <ele>844.289</ele>
        <time>2021-10-15T13:34:17Z</time>
      </trkpt>
      <trkpt lat="42.404397" lon="-4.830337">
        <ele>844.717</ele>
        <time>2021-10-15T13:34:18Z</time>
      </trkpt>
      <trkpt lat="42.404072" lon="-4.830726">
        <ele>844.508</ele>
        <time>2021-10-15T13:34:20Z</time>
      </trkpt>
      <trkpt lat="42.403744" lon="-4.831103">
        <ele>843.870</ele>
        <time>2021-10-15T13:34:22Z</time>
      </trkpt>
      <trkpt lat="42.403577" lon="-4.831294">
        <ele>844.138</ele>
        <time>2021-10-15T13:34:23Z</time>
      </trkpt>
      <trkpt lat="42.403244" lon="-4.831673">
        <ele>844.816</ele>
        <time>2021-10-15T13:34:25Z</time>
      </trkpt>
      <trkpt lat="42.403075" lon="-4.831868">
        <ele>845.090</ele>
        <time>2021-10-15T13:34:26Z</time>
      </trkpt>
      <trkpt lat="42.402750" lon="-4.832244">
        <ele>845.455</ele>
        <time>2021-10-15T13:34:28Z</time>
      </trkpt>
      <trkpt lat="42.402582" lon="-4.832436">
        <ele>845.223</ele>
        <time>2021-10-15T13:34:29Z</time>
      </trkpt>
      <trkpt lat="42.402226" lon="-4.832809">
        <ele>846.536</ele>
        <time>2021-10-15T13:34:31Z</time>
      </trkpt>
      <trkpt lat="42.402028" lon="-4.832991">
        <ele>846.481</ele>
        <time>2021-10-15T13:34:32Z</time>
      </trkpt>
      <trkpt lat="42.401618" lon="-4.833295">
        <ele>847.797</ele>
        <time>2021-10-15T13:34:34Z</time>
      </trkpt>
      <trkpt lat="42.401398" lon="-4.833452">
        <ele>847.623</ele>
        <time>2021-10-15T13:34:35Z</time>
      </trkpt>
      <trkpt lat="42.401174" lon="-4.833609">
        <ele>848.125</ele>
        <time>2021-10-15T13:34:36Z</time>
      </trkpt>
      <trkpt lat="42.400719" lon="-4.833949">
        <ele>849.508</ele>
        <time>2021-10-15T13:34:38Z</time>
      </trkpt>
      <trkpt lat="42.400258" lon="-4.834292">
        <ele>851.167</ele>
        <time>2021-10-15T13:34:40Z</time>
      </trkpt>
      <trkpt lat="42.399782" lon="-4.834640">
        <ele>851.285</ele>
        <time>2021-10-15T13:34:42Z</time>
      </trkpt>
      <trkpt lat="42.399304" lon="-4.835015">
        <ele>853.773</ele>
        <time>2021-10-15T13:34:44Z</time>
      </trkpt>
      <trkpt lat="42.398847" lon="-4.835439">
        <ele>854.857</ele>
        <time>2021-10-15T13:34:46Z</time>
      </trkpt>
      <trkpt lat="42.398618" lon="-4.835661">
        <ele>855.652</ele>
        <time>2021-10-15T13:34:47Z</time>
      </trkpt>
      <trkpt lat="42.398396" lon="-4.835876">
        <ele>855.830</ele>
        <time>2021-10-15T13:34:48Z</time>
      </trkpt>
      <trkpt lat="42.398180" lon="-4.836083">
        <ele>856.083</ele>
        <time>2021-10-15T13:34:49Z</time>
      </trkpt>
      <trkpt lat="42.397966" lon="-4.836289">
        <ele>857.198</ele>
        <time>2021-10-15T13:34:50Z</time>
      </trkpt>
      <trkpt lat="42.397553" lon="-4.836685">
        <ele>857.835</ele>
        <time>2021-10-15T13:34:52Z</time>
      </trkpt>
      <trkpt lat="42.397146" lon="-4.837077">
        <ele>858.186</ele>
        <time>2021-10-15T13:34:54Z</time>
      </trkpt>
      <trkpt lat="42.396943" lon="-4.837274">
        <ele>858.114</ele>
        <time>2021-10-15T13:34:55Z</time>
      </trkpt>
      <trkpt lat="42.396735" lon="-4.837475">
        <ele>857.508</ele>
        <time>2021-10-15T13:34:56Z</time>
      </trkpt>
      <trkpt lat="42.396341" lon="-4.837856">
        <ele>857.041</ele>
        <time>2021-10-15T13:34:58Z</time>
      </trkpt>
      <trkpt lat="42.396138" lon="-4.838051">
        <ele>857.489</ele>
        <time>2021-10-15T13:34:59Z</time>
      </trkpt>
      <trkpt lat="42.395935" lon="-4.838246">
        <ele>858.087</ele>
        <time>2021-10-15T13:35:00Z</time>
      </trkpt>
      <trkpt lat="42.395522" lon="-4.838647">
        <ele>857.561</ele>
        <time>2021-10-15T13:35:02Z</time>
      </trkpt>
      <trkpt lat="42.395123" lon="-4.839042">
        <ele>857.016</ele>
        <time>2021-10-15T13:35:04Z</time>
      </trkpt>
      <trkpt lat="42.394917" lon="-4.839246">
        <ele>856.634</ele>
        <time>2021-10-15T13:35:05Z</time>
      </trkpt>
      <trkpt lat="42.394709" lon="-4.839446">
        <ele>857.047</ele>
        <time>2021-10-15T13:35:06Z</time>
      </trkpt>
      <trkpt lat="42.394300" lon="-4.839839">
        <ele>856.152</ele>
        <time>2021-10-15T13:35:08Z</time>
      </trkpt>
      <trkpt lat="42.393923" lon="-4.840204">
        <ele>855.954</ele>
        <time>2021-10-15T13:35:10Z</time>
      </trkpt>
      <trkpt lat="42.393741" lon="-4.840381">
        <ele>855.956</ele>
        <time>2021-10-15T13:35:11Z</time>
      </trkpt>
      <trkpt lat="42.393368" lon="-4.840735">
        <ele>855.711</ele>
        <time>2021-10-15T13:35:13Z</time>
      </trkpt>
      <trkpt lat="42.393177" lon="-4.840918">
        <ele>854.908</ele>
        <time>2021-10-15T13:35:14Z</time>
      </trkpt>
      <trkpt lat="42.392791" lon="-4.841277">
        <ele>854.763</ele>
        <time>2021-10-15T13:35:16Z</time>
      </trkpt>
      <trkpt lat="42.392597" lon="-4.841469">
        <ele>854.881</ele>
        <time>2021-10-15T13:35:17Z</time>
      </trkpt>
      <trkpt lat="42.392399" lon="-4.841664">
        <ele>854.779</ele>
        <time>2021-10-15T13:35:18Z</time>
      </trkpt>
      <trkpt lat="42.392002" lon="-4.842046">
        <ele>853.923</ele>
        <time>2021-10-15T13:35:20Z</time>
      </trkpt>
      <trkpt lat="42.391607" lon="-4.842427">
        <ele>853.628</ele>
        <time>2021-10-15T13:35:22Z</time>
      </trkpt>
      <trkpt lat="42.391407" lon="-4.842619">
        <ele>853.836</ele>
        <time>2021-10-15T13:35:23Z</time>
      </trkpt>
      <trkpt lat="42.391013" lon="-4.842997">
        <ele>853.179</ele>
        <time>2021-10-15T13:35:25Z</time>
      </trkpt>
      <trkpt lat="42.390811" lon="-4.843194">
        <ele>853.274</ele>
        <time>2021-10-15T13:35:26Z</time>
      </trkpt>
      <trkpt lat="42.390425" lon="-4.843569">
        <ele>853.036</ele>
        <time>2021-10-15T13:35:28Z</time>
      </trkpt>
      <trkpt lat="42.390023" lon="-4.843956">
        <ele>853.217</ele>
        <time>2021-10-15T13:35:30Z</time>
      </trkpt>
      <trkpt lat="42.389815" lon="-4.844157">
        <ele>853.518</ele>
        <time>2021-10-15T13:35:31Z</time>
      </trkpt>
      <trkpt lat="42.389599" lon="-4.844365">
        <ele>853.208</ele>
        <time>2021-10-15T13:35:32Z</time>
      </trkpt>
      <trkpt lat="42.389174" lon="-4.844778">
        <ele>852.871</ele>
        <time>2021-10-15T13:35:34Z</time>
      </trkpt>
      <trkpt lat="42.388732" lon="-4.845208">
        <ele>852.529</ele>
        <time>2021-10-15T13:35:36Z</time>
      </trkpt>
      <trkpt lat="42.388285" lon="-4.845643">
        <ele>853.157</ele>
        <time>2021-10-15T13:35:38Z</time>
      </trkpt>
      <trkpt lat="42.387852" lon="-4.846075">
        <ele>852.511</ele>
        <time>2021-10-15T13:35:40Z</time>
      </trkpt>
      <trkpt lat="42.387635" lon="-4.846290">
        <ele>852.566</ele>
        <time>2021-10-15T13:35:41Z</time>
      </trkpt>
      <trkpt lat="42.387420" lon="-4.846497">
        <ele>852.084</ele>
        <time>2021-10-15T13:35:42Z</time>
      </trkpt>
      <trkpt lat="42.387006" lon="-4.846896">
        <ele>852.317</ele>
        <time>2021-10-15T13:35:44Z</time>
      </trkpt>
      <trkpt lat="42.386615" lon="-4.847273">
        <ele>851.642</ele>
        <time>2021-10-15T13:35:46Z</time>
      </trkpt>
      <trkpt lat="42.386229" lon="-4.847645">
        <ele>851.663</ele>
        <time>2021-10-15T13:35:48Z</time>
      </trkpt>
      <trkpt lat="42.386033" lon="-4.847834">
        <ele>851.344</ele>
        <time>2021-10-15T13:35:49Z</time>
      </trkpt>
      <trkpt lat="42.385835" lon="-4.848028">
        <ele>851.618</ele>
        <time>2021-10-15T13:35:50Z</time>
      </trkpt>
      <trkpt lat="42.385453" lon="-4.848417">
        <ele>852.008</ele>
        <time>2021-10-15T13:35:52Z</time>
      </trkpt>
      <trkpt lat="42.385251" lon="-4.848614">
        <ele>851.744</ele>
        <time>2021-10-15T13:35:53Z</time>
      </trkpt>
      <trkpt lat="42.384861" lon="-4.848988">
        <ele>852.452</ele>
        <time>2021-10-15T13:35:55Z</time>
      </trkpt>
      <trkpt lat="42.384672" lon="-4.849174">
        <ele>851.660</ele>
        <time>2021-10-15T13:35:56Z</time>
      </trkpt>
      <trkpt lat="42.384320" lon="-4.849524">
        <ele>851.894</ele>
        <time>2021-10-15T13:35:58Z</time>
      </trkpt>
      <trkpt lat="42.383966" lon="-4.849878">
        <ele>851.959</ele>
        <time>2021-10-15T13:36:00Z</time>
      </trkpt>
      <trkpt lat="42.383785" lon="-4.850058">
        <ele>851.447</ele>
        <time>2021-10-15T13:36:01Z</time>
      </trkpt>
      <trkpt lat="42.383596" lon="-4.850240">
        <ele>851.470</ele>
        <time>2021-10-15T13:36:02Z</time>
      </trkpt>
      <trkpt lat="42.383250" lon="-4.850567">
        <ele>851.715</ele>
        <time>2021-10-15T13:36:04Z</time>
      </trkpt>
      <trkpt lat="42.382914" lon="-4.850923">
        <ele>849.963</ele>
        <time>2021-10-15T13:36:06Z</time>
      </trkpt>
      <trkpt lat="42.382582" lon="-4.851382">
        <ele>849.944</ele>
        <time>2021-10-15T13:36:08Z</time>
      </trkpt>
      <trkpt lat="42.382241" lon="-4.851941">
        <ele>848.218</ele>
        <time>2021-10-15T13:36:10Z</time>
      </trkpt>
      <trkpt lat="42.381867" lon="-4.852543">
        <ele>847.008</ele>
        <time>2021-10-15T13:36:12Z</time>
      </trkpt>
      <trkpt lat="42.381514" lon="-4.853127">
        <ele>845.884</ele>
        <time>2021-10-15T13:36:14Z</time>
      </trkpt>
      <trkpt lat="42.381181" lon="-4.853676">
        <ele>845.492</ele>
        <time>2021-10-15T13:36:16Z</time>
      </trkpt>
      <trkpt lat="42.381022" lon="-4.853944">
        <ele>844.920</ele>
        <time>2021-10-15T13:36:17Z</time>
      </trkpt>
      <trkpt lat="42.380872" lon="-4.854203">
        <ele>844.194</ele>
        <time>2021-10-15T13:36:18Z</time>
      </trkpt>
      <trkpt lat="42.380605" lon="-4.854735">
        <ele>843.059</ele>
        <time>2021-10-15T13:36:20Z</time>
      </trkpt>
      <trkpt lat="42.380409" lon="-4.855310">
        <ele>841.097</ele>
        <time>2021-10-15T13:36:22Z</time>
      </trkpt>
      <trkpt lat="42.380316" lon="-4.855612">
        <ele>840.750</ele>
        <time>2021-10-15T13:36:23Z</time>
      </trkpt>
      <trkpt lat="42.380221" lon="-4.855917">
        <ele>840.715</ele>
        <time>2021-10-15T13:36:24Z</time>
      </trkpt>
      <trkpt lat="42.380016" lon="-4.856525">
        <ele>839.623</ele>
        <time>2021-10-15T13:36:26Z</time>
      </trkpt>
      <trkpt lat="42.379788" lon="-4.857054">
        <ele>837.783</ele>
        <time>2021-10-15T13:36:28Z</time>
      </trkpt>
      <trkpt lat="42.379657" lon="-4.857290">
        <ele>837.011</ele>
        <time>2021-10-15T13:36:29Z</time>
      </trkpt>
      <trkpt lat="42.379383" lon="-4.857725">
        <ele>836.008</ele>
        <time>2021-10-15T13:36:31Z</time>
      </trkpt>
      <trkpt lat="42.379235" lon="-4.857954">
        <ele>835.390</ele>
        <time>2021-10-15T13:36:32Z</time>
      </trkpt>
      <trkpt lat="42.378948" lon="-4.858403">
        <ele>834.998</ele>
        <time>2021-10-15T13:36:34Z</time>
      </trkpt>
      <trkpt lat="42.378641" lon="-4.858867">
        <ele>833.266</ele>
        <time>2021-10-15T13:36:36Z</time>
      </trkpt>
      <trkpt lat="42.378479" lon="-4.859097">
        <ele>833.440</ele>
        <time>2021-10-15T13:36:37Z</time>
      </trkpt>
      <trkpt lat="42.378308" lon="-4.859324">
        <ele>833.055</ele>
        <time>2021-10-15T13:36:38Z</time>
      </trkpt>
      <trkpt lat="42.377933" lon="-4.859755">
        <ele>831.573</ele>
        <time>2021-10-15T13:36:40Z</time>
      </trkpt>
      <trkpt lat="42.377519" lon="-4.860192">
        <ele>830.996</ele>
        <time>2021-10-15T13:36:42Z</time>
      </trkpt>
      <trkpt lat="42.377098" lon="-4.860666">
        <ele>829.521</ele>
        <time>2021-10-15T13:36:44Z</time>
      </trkpt>
      <trkpt lat="42.376676" lon="-4.861121">
        <ele>828.085</ele>
        <time>2021-10-15T13:36:46Z</time>
      </trkpt>
      <trkpt lat="42.376461" lon="-4.861357">
        <ele>827.489</ele>
        <time>2021-10-15T13:36:47Z</time>
      </trkpt>
      <trkpt lat="42.376249" lon="-4.861593">
        <ele>827.217</ele>
        <time>2021-10-15T13:36:48Z</time>
      </trkpt>
      <trkpt lat="42.375822" lon="-4.862066">
        <ele>825.908</ele>
        <time>2021-10-15T13:36:50Z</time>
      </trkpt>
      <trkpt lat="42.375408" lon="-4.862524">
        <ele>825.846</ele>
        <time>2021-10-15T13:36:52Z</time>
      </trkpt>
      <trkpt lat="42.374996" lon="-4.862972">
        <ele>825.114</ele>
        <time>2021-10-15T13:36:54Z</time>
      </trkpt>
      <trkpt lat="42.374793" lon="-4.863195">
        <ele>824.852</ele>
        <time>2021-10-15T13:36:55Z</time>
      </trkpt>
      <trkpt lat="42.374584" lon="-4.863420">
        <ele>824.966</ele>
        <time>2021-10-15T13:36:56Z</time>
      </trkpt>
      <trkpt lat="42.374223" lon="-4.863818">
        <ele>824.241</ele>
        <time>2021-10-15T13:36:58Z</time>
      </trkpt>
      <trkpt lat="42.374041" lon="-4.864012">
        <ele>824.279</ele>
        <time>2021-10-15T13:36:59Z</time>
      </trkpt>
      <trkpt lat="42.373677" lon="-4.864410">
        <ele>823.832</ele>
        <time>2021-10-15T13:37:01Z</time>
      </trkpt>
      <trkpt lat="42.373490" lon="-4.864618">
        <ele>824.147</ele>
        <time>2021-10-15T13:37:02Z</time>
      </trkpt>
      <trkpt lat="42.373124" lon="-4.865027">
        <ele>823.469</ele>
        <time>2021-10-15T13:37:04Z</time>
      </trkpt>
      <trkpt lat="42.372930" lon="-4.865246">
        <ele>823.904</ele>
        <time>2021-10-15T13:37:05Z</time>
      </trkpt>
      <trkpt lat="42.372536" lon="-4.865688">
        <ele>824.024</ele>
        <time>2021-10-15T13:37:07Z</time>
      </trkpt>
      <trkpt lat="42.372337" lon="-4.865912">
        <ele>823.508</ele>
        <time>2021-10-15T13:37:08Z</time>
      </trkpt>
      <trkpt lat="42.371986" lon="-4.866325">
        <ele>823.564</ele>
        <time>2021-10-15T13:37:10Z</time>
      </trkpt>
      <trkpt lat="42.371824" lon="-4.866554">
        <ele>823.972</ele>
        <time>2021-10-15T13:37:11Z</time>
      </trkpt>
      <trkpt lat="42.371531" lon="-4.867054">
        <ele>822.830</ele>
        <time>2021-10-15T13:37:13Z</time>
      </trkpt>
      <trkpt lat="42.371387" lon="-4.867315">
        <ele>822.594</ele>
        <time>2021-10-15T13:37:14Z</time>
      </trkpt>
      <trkpt lat="42.371097" lon="-4.867837">
        <ele>821.029</ele>
        <time>2021-10-15T13:37:16Z</time>
      </trkpt>
      <trkpt lat="42.370947" lon="-4.868105">
        <ele>820.737</ele>
        <time>2021-10-15T13:37:17Z</time>
      </trkpt>
      <trkpt lat="42.370646" lon="-4.868643">
        <ele>818.940</ele>
        <time>2021-10-15T13:37:19Z</time>
      </trkpt>
      <trkpt lat="42.370496" lon="-4.868917">
        <ele>818.685</ele>
        <time>2021-10-15T13:37:20Z</time>
      </trkpt>
      <trkpt lat="42.370203" lon="-4.869452">
        <ele>816.963</ele>
        <time>2021-10-15T13:37:22Z</time>
      </trkpt>
      <trkpt lat="42.369921" lon="-4.869974">
        <ele>815.644</ele>
        <time>2021-10-15T13:37:24Z</time>
      </trkpt>
      <trkpt lat="42.369781" lon="-4.870227">
        <ele>815.218</ele>
        <time>2021-10-15T13:37:25Z</time>
      </trkpt>
      <trkpt lat="42.369637" lon="-4.870478">
        <ele>815.308</ele>
        <time>2021-10-15T13:37:26Z</time>
      </trkpt>
      <trkpt lat="42.369385" lon="-4.870927">
        <ele>815.344</ele>
        <time>2021-10-15T13:37:28Z</time>
      </trkpt>
      <trkpt lat="42.369259" lon="-4.871153">
        <ele>815.112</ele>
        <time>2021-10-15T13:37:29Z</time>
      </trkpt>
      <trkpt lat="42.369007" lon="-4.871594">
        <ele>815.520</ele>
        <time>2021-10-15T13:37:31Z</time>
      </trkpt>
      <trkpt lat="42.368876" lon="-4.871818">
        <ele>816.464</ele>
        <time>2021-10-15T13:37:32Z</time>
      </trkpt>
      <trkpt lat="42.368652" lon="-4.872215">
        <ele>816.339</ele>
        <time>2021-10-15T13:37:34Z</time>
      </trkpt>
      <trkpt lat="42.368547" lon="-4.872407">
        <ele>816.787</ele>
        <time>2021-10-15T13:37:35Z</time>
      </trkpt>
      <trkpt lat="42.368365" lon="-4.872740">
        <ele>817.410</ele>
        <time>2021-10-15T13:37:37Z</time>
      </trkpt>
      <trkpt lat="42.368288" lon="-4.872887">
        <ele>817.275</ele>
        <time>2021-10-15T13:37:38Z</time>
      </trkpt>
      <trkpt lat="42.368158" lon="-4.873130">
        <ele>817.082</ele>
        <time>2021-10-15T13:37:40Z</time>
      </trkpt>
      <trkpt lat="42.368068" lon="-4.873354">
        <ele>816.243</ele>
        <time>2021-10-15T13:37:42Z</time>
      </trkpt>
      <trkpt lat="42.368053" lon="-4.873471">
        <ele>816.217</ele>
        <time>2021-10-15T13:37:43Z</time>
      </trkpt>
      <trkpt lat="42.368041" lon="-4.873581">
        <ele>816.208</ele>
        <time>2021-10-15T13:37:44Z</time>
      </trkpt>
      <trkpt lat="42.367958" lon="-4.873720">
        <ele>816.596</ele>
        <time>2021-10-15T13:37:46Z</time>
      </trkpt>
      <trkpt lat="42.367877" lon="-4.873746">
        <ele>816.684</ele>
        <time>2021-10-15T13:37:47Z</time>
      </trkpt>
      <trkpt lat="42.367773" lon="-4.873759">
        <ele>816.792</ele>
        <time>2021-10-15T13:37:48Z</time>
      </trkpt>
      <trkpt lat="42.367652" lon="-4.873789">
        <ele>816.756</ele>
        <time>2021-10-15T13:37:49Z</time>
      </trkpt>
      <trkpt lat="42.367515" lon="-4.873839">
        <ele>817.421</ele>
        <time>2021-10-15T13:37:50Z</time>
      </trkpt>
      <trkpt lat="42.367220" lon="-4.873886">
        <ele>817.579</ele>
        <time>2021-10-15T13:37:52Z</time>
      </trkpt>
      <trkpt lat="42.367081" lon="-4.873892">
        <ele>817.782</ele>
        <time>2021-10-15T13:37:53Z</time>
      </trkpt>
      <trkpt lat="42.366867" lon="-4.873904">
        <ele>819.537</ele>
        <time>2021-10-15T13:37:55Z</time>
      </trkpt>
      <trkpt lat="42.366793" lon="-4.873915">
        <ele>820.431</ele>
        <time>2021-10-15T13:37:56Z</time>
      </trkpt>
      <trkpt lat="42.366681" lon="-4.873967">
        <ele>821.261</ele>
        <time>2021-10-15T13:37:58Z</time>
      </trkpt>
      <trkpt lat="42.366595" lon="-4.874074">
        <ele>821.307</ele>
        <time>2021-10-15T13:38:00Z</time>
      </trkpt>
      <trkpt lat="42.366495" lon="-4.874108">
        <ele>821.308</ele>
        <time>2021-10-15T13:38:02Z</time>
      </trkpt>
      <trkpt lat="42.366370" lon="-4.874031">
        <ele>821.381</ele>
        <time>2021-10-15T13:38:04Z</time>
      </trkpt>
      <trkpt lat="42.366294" lon="-4.873986">
        <ele>821.339</ele>
        <time>2021-10-15T13:38:05Z</time>
      </trkpt>
      <trkpt lat="42.366214" lon="-4.873968">
        <ele>821.177</ele>
        <time>2021-10-15T13:38:06Z</time>
      </trkpt>
      <trkpt lat="42.366099" lon="-4.874013">
        <ele>820.681</ele>
        <time>2021-10-15T13:38:08Z</time>
      </trkpt>
      <trkpt lat="42.366070" lon="-4.874060">
        <ele>821.426</ele>
        <time>2021-10-15T13:38:12Z</time>
      </trkpt>
      <trkpt lat="42.365998" lon="-4.874102">
        <ele>822.494</ele>
        <time>2021-10-15T13:46:56Z</time>
      </trkpt>
      <trkpt lat="42.365954" lon="-4.874258">
        <ele>822.447</ele>
        <time>2021-10-15T13:46:58Z</time>
      </trkpt>
      <trkpt lat="42.365960" lon="-4.874373">
        <ele>822.472</ele>
        <time>2021-10-15T13:46:59Z</time>
      </trkpt>
      <trkpt lat="42.366019" lon="-4.874624">
        <ele>821.467</ele>
        <time>2021-10-15T13:47:01Z</time>
      </trkpt>
      <trkpt lat="42.366054" lon="-4.874762">
        <ele>821.481</ele>
        <time>2021-10-15T13:47:02Z</time>
      </trkpt>
      <trkpt lat="42.366099" lon="-4.875062">
        <ele>821.819</ele>
        <time>2021-10-15T13:47:04Z</time>
      </trkpt>
      <trkpt lat="42.366107" lon="-4.875236">
        <ele>821.608</ele>
        <time>2021-10-15T13:47:05Z</time>
      </trkpt>
      <trkpt lat="42.366104" lon="-4.875595">
        <ele>821.684</ele>
        <time>2021-10-15T13:47:07Z</time>
      </trkpt>
      <trkpt lat="42.366092" lon="-4.875794">
        <ele>821.712</ele>
        <time>2021-10-15T13:47:08Z</time>
      </trkpt>
      <trkpt lat="42.366043" lon="-4.876207">
        <ele>822.940</ele>
        <time>2021-10-15T13:47:10Z</time>
      </trkpt>
      <trkpt lat="42.365985" lon="-4.876648">
        <ele>823.914</ele>
        <time>2021-10-15T13:47:12Z</time>
      </trkpt>
      <trkpt lat="42.365953" lon="-4.876879">
        <ele>824.349</ele>
        <time>2021-10-15T13:47:13Z</time>
      </trkpt>
      <trkpt lat="42.365890" lon="-4.877349">
        <ele>825.467</ele>
        <time>2021-10-15T13:47:15Z</time>
      </trkpt>
      <trkpt lat="42.365853" lon="-4.877615">
        <ele>826.150</ele>
        <time>2021-10-15T13:47:16Z</time>
      </trkpt>
      <trkpt lat="42.365816" lon="-4.877892">
        <ele>826.125</ele>
        <time>2021-10-15T13:47:17Z</time>
      </trkpt>
      <trkpt lat="42.365746" lon="-4.878461">
        <ele>826.235</ele>
        <time>2021-10-15T13:47:19Z</time>
      </trkpt>
      <trkpt lat="42.365712" lon="-4.878758">
        <ele>827.886</ele>
        <time>2021-10-15T13:47:20Z</time>
      </trkpt>
      <trkpt lat="42.365648" lon="-4.879371">
        <ele>828.614</ele>
        <time>2021-10-15T13:47:22Z</time>
      </trkpt>
      <trkpt lat="42.365614" lon="-4.879692">
        <ele>828.708</ele>
        <time>2021-10-15T13:47:23Z</time>
      </trkpt>
      <trkpt lat="42.365543" lon="-4.880339">
        <ele>827.621</ele>
        <time>2021-10-15T13:47:25Z</time>
      </trkpt>
      <trkpt lat="42.365503" lon="-4.880681">
        <ele>827.549</ele>
        <time>2021-10-15T13:47:26Z</time>
      </trkpt>
      <trkpt lat="42.365432" lon="-4.881302">
        <ele>826.467</ele>
        <time>2021-10-15T13:47:28Z</time>
      </trkpt>
      <trkpt lat="42.365401" lon="-4.881597">
        <ele>827.011</ele>
        <time>2021-10-15T13:47:29Z</time>
      </trkpt>
      <trkpt lat="42.365345" lon="-4.882134">
        <ele>826.956</ele>
        <time>2021-10-15T13:47:31Z</time>
      </trkpt>
      <trkpt lat="42.365318" lon="-4.882386">
        <ele>826.534</ele>
        <time>2021-10-15T13:47:32Z</time>
      </trkpt>
      <trkpt lat="42.365270" lon="-4.882844">
        <ele>826.427</ele>
        <time>2021-10-15T13:47:34Z</time>
      </trkpt>
      <trkpt lat="42.365247" lon="-4.883064">
        <ele>826.192</ele>
        <time>2021-10-15T13:47:35Z</time>
      </trkpt>
      <trkpt lat="42.365222" lon="-4.883281">
        <ele>825.669</ele>
        <time>2021-10-15T13:47:36Z</time>
      </trkpt>
      <trkpt lat="42.365198" lon="-4.883504">
        <ele>825.304</ele>
        <time>2021-10-15T13:47:37Z</time>
      </trkpt>
      <trkpt lat="42.365175" lon="-4.883737">
        <ele>825.524</ele>
        <time>2021-10-15T13:47:38Z</time>
      </trkpt>
      <trkpt lat="42.365118" lon="-4.884200">
        <ele>824.408</ele>
        <time>2021-10-15T13:47:40Z</time>
      </trkpt>
      <trkpt lat="42.365059" lon="-4.884676">
        <ele>824.294</ele>
        <time>2021-10-15T13:47:42Z</time>
      </trkpt>
      <trkpt lat="42.365030" lon="-4.884920">
        <ele>824.312</ele>
        <time>2021-10-15T13:47:43Z</time>
      </trkpt>
      <trkpt lat="42.365002" lon="-4.885165">
        <ele>824.610</ele>
        <time>2021-10-15T13:47:44Z</time>
      </trkpt>
      <trkpt lat="42.364950" lon="-4.885666">
        <ele>823.954</ele>
        <time>2021-10-15T13:47:46Z</time>
      </trkpt>
      <trkpt lat="42.364890" lon="-4.886188">
        <ele>824.969</ele>
        <time>2021-10-15T13:47:48Z</time>
      </trkpt>
      <trkpt lat="42.364859" lon="-4.886458">
        <ele>824.537</ele>
        <time>2021-10-15T13:47:49Z</time>
      </trkpt>
      <trkpt lat="42.364829" lon="-4.886736">
        <ele>824.640</ele>
        <time>2021-10-15T13:47:50Z</time>
      </trkpt>
      <trkpt lat="42.364767" lon="-4.887310">
        <ele>824.445</ele>
        <time>2021-10-15T13:47:52Z</time>
      </trkpt>
      <trkpt lat="42.364735" lon="-4.887617">
        <ele>823.965</ele>
        <time>2021-10-15T13:47:53Z</time>
      </trkpt>
      <trkpt lat="42.364667" lon="-4.888259">
        <ele>824.568</ele>
        <time>2021-10-15T13:47:55Z</time>
      </trkpt>
      <trkpt lat="42.364626" lon="-4.888597">
        <ele>823.914</ele>
        <time>2021-10-15T13:47:56Z</time>
      </trkpt>
      <trkpt lat="42.364557" lon="-4.889232">
        <ele>823.108</ele>
        <time>2021-10-15T13:47:58Z</time>
      </trkpt>
      <trkpt lat="42.364531" lon="-4.889543">
        <ele>822.134</ele>
        <time>2021-10-15T13:47:59Z</time>
      </trkpt>
      <trkpt lat="42.364496" lon="-4.890129">
        <ele>820.612</ele>
        <time>2021-10-15T13:48:01Z</time>
      </trkpt>
      <trkpt lat="42.364480" lon="-4.890429">
        <ele>820.550</ele>
        <time>2021-10-15T13:48:02Z</time>
      </trkpt>
      <trkpt lat="42.364448" lon="-4.891010">
        <ele>818.914</ele>
        <time>2021-10-15T13:48:04Z</time>
      </trkpt>
      <trkpt lat="42.364430" lon="-4.891307">
        <ele>817.259</ele>
        <time>2021-10-15T13:48:05Z</time>
      </trkpt>
      <trkpt lat="42.364414" lon="-4.891599">
        <ele>816.727</ele>
        <time>2021-10-15T13:48:06Z</time>
      </trkpt>
      <trkpt lat="42.364384" lon="-4.892152">
        <ele>814.880</ele>
        <time>2021-10-15T13:48:08Z</time>
      </trkpt>
      <trkpt lat="42.364356" lon="-4.892666">
        <ele>812.995</ele>
        <time>2021-10-15T13:48:10Z</time>
      </trkpt>
      <trkpt lat="42.364340" lon="-4.892926">
        <ele>811.664</ele>
        <time>2021-10-15T13:48:11Z</time>
      </trkpt>
      <trkpt lat="42.364317" lon="-4.893458">
        <ele>810.306</ele>
        <time>2021-10-15T13:48:13Z</time>
      </trkpt>
      <trkpt lat="42.364303" lon="-4.893734">
        <ele>810.216</ele>
        <time>2021-10-15T13:48:14Z</time>
      </trkpt>
      <trkpt lat="42.364270" lon="-4.894290">
        <ele>808.308</ele>
        <time>2021-10-15T13:48:16Z</time>
      </trkpt>
      <trkpt lat="42.364255" lon="-4.894576">
        <ele>807.444</ele>
        <time>2021-10-15T13:48:17Z</time>
      </trkpt>
      <trkpt lat="42.364243" lon="-4.894863">
        <ele>806.752</ele>
        <time>2021-10-15T13:48:18Z</time>
      </trkpt>
      <trkpt lat="42.364217" lon="-4.895404">
        <ele>805.760</ele>
        <time>2021-10-15T13:48:20Z</time>
      </trkpt>
      <trkpt lat="42.364195" lon="-4.895877">
        <ele>804.574</ele>
        <time>2021-10-15T13:48:22Z</time>
      </trkpt>
      <trkpt lat="42.364163" lon="-4.896368">
        <ele>803.419</ele>
        <time>2021-10-15T13:48:24Z</time>
      </trkpt>
      <trkpt lat="42.364147" lon="-4.896628">
        <ele>802.947</ele>
        <time>2021-10-15T13:48:25Z</time>
      </trkpt>
      <trkpt lat="42.364119" lon="-4.897121">
        <ele>801.830</ele>
        <time>2021-10-15T13:48:27Z</time>
      </trkpt>
      <trkpt lat="42.364105" lon="-4.897379">
        <ele>801.265</ele>
        <time>2021-10-15T13:48:28Z</time>
      </trkpt>
      <trkpt lat="42.364074" lon="-4.897897">
        <ele>798.998</ele>
        <time>2021-10-15T13:48:30Z</time>
      </trkpt>
      <trkpt lat="42.364042" lon="-4.898415">
        <ele>797.215</ele>
        <time>2021-10-15T13:48:32Z</time>
      </trkpt>
      <trkpt lat="42.364023" lon="-4.898856">
        <ele>796.126</ele>
        <time>2021-10-15T13:48:34Z</time>
      </trkpt>
      <trkpt lat="42.364002" lon="-4.899244">
        <ele>793.608</ele>
        <time>2021-10-15T13:48:36Z</time>
      </trkpt>
      <trkpt lat="42.363984" lon="-4.899581">
        <ele>793.387</ele>
        <time>2021-10-15T13:48:38Z</time>
      </trkpt>
      <trkpt lat="42.363970" lon="-4.899843">
        <ele>793.195</ele>
        <time>2021-10-15T13:48:40Z</time>
      </trkpt>
      <trkpt lat="42.363921" lon="-4.900058">
        <ele>793.583</ele>
        <time>2021-10-15T13:48:42Z</time>
      </trkpt>
      <trkpt lat="42.363798" lon="-4.900257">
        <ele>793.677</ele>
        <time>2021-10-15T13:48:44Z</time>
      </trkpt>
      <trkpt lat="42.363646" lon="-4.900519">
        <ele>793.242</ele>
        <time>2021-10-15T13:48:46Z</time>
      </trkpt>
      <trkpt lat="42.363569" lon="-4.900679">
        <ele>792.790</ele>
        <time>2021-10-15T13:48:47Z</time>
      </trkpt>
      <trkpt lat="42.363397" lon="-4.901017">
        <ele>791.413</ele>
        <time>2021-10-15T13:48:49Z</time>
      </trkpt>
      <trkpt lat="42.363307" lon="-4.901197">
        <ele>790.498</ele>
        <time>2021-10-15T13:48:50Z</time>
      </trkpt>
      <trkpt lat="42.363116" lon="-4.901593">
        <ele>790.314</ele>
        <time>2021-10-15T13:48:52Z</time>
      </trkpt>
      <trkpt lat="42.363024" lon="-4.901788">
        <ele>789.654</ele>
        <time>2021-10-15T13:48:53Z</time>
      </trkpt>
      <trkpt lat="42.362862" lon="-4.902141">
        <ele>789.009</ele>
        <time>2021-10-15T13:48:55Z</time>
      </trkpt>
      <trkpt lat="42.362778" lon="-4.902320">
        <ele>789.108</ele>
        <time>2021-10-15T13:48:56Z</time>
      </trkpt>
      <trkpt lat="42.362617" lon="-4.902686">
        <ele>788.469</ele>
        <time>2021-10-15T13:48:58Z</time>
      </trkpt>
      <trkpt lat="42.362536" lon="-4.902867">
        <ele>787.747</ele>
        <time>2021-10-15T13:48:59Z</time>
      </trkpt>
      <trkpt lat="42.362377" lon="-4.903217">
        <ele>787.795</ele>
        <time>2021-10-15T13:49:01Z</time>
      </trkpt>
      <trkpt lat="42.362293" lon="-4.903407">
        <ele>787.029</ele>
        <time>2021-10-15T13:49:02Z</time>
      </trkpt>
      <trkpt lat="42.362118" lon="-4.903787">
        <ele>787.124</ele>
        <time>2021-10-15T13:49:04Z</time>
      </trkpt>
      <trkpt lat="42.361939" lon="-4.904184">
        <ele>786.762</ele>
        <time>2021-10-15T13:49:06Z</time>
      </trkpt>
      <trkpt lat="42.361848" lon="-4.904385">
        <ele>785.835</ele>
        <time>2021-10-15T13:49:07Z</time>
      </trkpt>
      <trkpt lat="42.361755" lon="-4.904590">
        <ele>785.330</ele>
        <time>2021-10-15T13:49:08Z</time>
      </trkpt>
      <trkpt lat="42.361577" lon="-4.904981">
        <ele>785.242</ele>
        <time>2021-10-15T13:49:10Z</time>
      </trkpt>
      <trkpt lat="42.361493" lon="-4.905165">
        <ele>785.022</ele>
        <time>2021-10-15T13:49:11Z</time>
      </trkpt>
      <trkpt lat="42.361410" lon="-4.905347">
        <ele>785.014</ele>
        <time>2021-10-15T13:49:12Z</time>
      </trkpt>
      <trkpt lat="42.361323" lon="-4.905530">
        <ele>784.508</ele>
        <time>2021-10-15T13:49:13Z</time>
      </trkpt>
      <trkpt lat="42.361238" lon="-4.905716">
        <ele>784.672</ele>
        <time>2021-10-15T13:49:14Z</time>
      </trkpt>
      <trkpt lat="42.361073" lon="-4.906087">
        <ele>784.670</ele>
        <time>2021-10-15T13:49:16Z</time>
      </trkpt>
      <trkpt lat="42.360987" lon="-4.906273">
        <ele>784.878</ele>
        <time>2021-10-15T13:49:17Z</time>
      </trkpt>
      <trkpt lat="42.360816" lon="-4.906642">
        <ele>784.652</ele>
        <time>2021-10-15T13:49:19Z</time>
      </trkpt>
      <trkpt lat="42.360727" lon="-4.906829">
        <ele>784.297</ele>
        <time>2021-10-15T13:49:20Z</time>
      </trkpt>
      <trkpt lat="42.360554" lon="-4.907207">
        <ele>785.215</ele>
        <time>2021-10-15T13:49:22Z</time>
      </trkpt>
      <trkpt lat="42.360464" lon="-4.907405">
        <ele>784.718</ele>
        <time>2021-10-15T13:49:23Z</time>
      </trkpt>
      <trkpt lat="42.360284" lon="-4.907801">
        <ele>785.363</ele>
        <time>2021-10-15T13:49:25Z</time>
      </trkpt>
      <trkpt lat="42.360195" lon="-4.907998">
        <ele>785.425</ele>
        <time>2021-10-15T13:49:26Z</time>
      </trkpt>
      <trkpt lat="42.360027" lon="-4.908363">
        <ele>785.026</ele>
        <time>2021-10-15T13:49:28Z</time>
      </trkpt>
      <trkpt lat="42.359944" lon="-4.908542">
        <ele>784.808</ele>
        <time>2021-10-15T13:49:29Z</time>
      </trkpt>
      <trkpt lat="42.359865" lon="-4.908715">
        <ele>784.108</ele>
        <time>2021-10-15T13:49:30Z</time>
      </trkpt>
      <trkpt lat="42.359787" lon="-4.908887">
        <ele>784.120</ele>
        <time>2021-10-15T13:49:31Z</time>
      </trkpt>
      <trkpt lat="42.359700" lon="-4.909055">
        <ele>784.258</ele>
        <time>2021-10-15T13:49:32Z</time>
      </trkpt>
      <trkpt lat="42.359498" lon="-4.909342">
        <ele>783.536</ele>
        <time>2021-10-15T13:49:34Z</time>
      </trkpt>
      <trkpt lat="42.359374" lon="-4.909465">
        <ele>783.210</ele>
        <time>2021-10-15T13:49:35Z</time>
      </trkpt>
      <trkpt lat="42.359118" lon="-4.909676">
        <ele>783.785</ele>
        <time>2021-10-15T13:49:37Z</time>
      </trkpt>
      <trkpt lat="42.358985" lon="-4.909778">
        <ele>783.353</ele>
        <time>2021-10-15T13:49:38Z</time>
      </trkpt>
      <trkpt lat="42.358725" lon="-4.909991">
        <ele>782.226</ele>
        <time>2021-10-15T13:49:40Z</time>
      </trkpt>
      <trkpt lat="42.358457" lon="-4.910225">
        <ele>781.761</ele>
        <time>2021-10-15T13:49:42Z</time>
      </trkpt>
      <trkpt lat="42.358198" lon="-4.910451">
        <ele>780.966</ele>
        <time>2021-10-15T13:49:44Z</time>
      </trkpt>
      <trkpt lat="42.357956" lon="-4.910635">
        <ele>780.129</ele>
        <time>2021-10-15T13:49:46Z</time>
      </trkpt>
      <trkpt lat="42.357682" lon="-4.910770">
        <ele>779.121</ele>
        <time>2021-10-15T13:49:48Z</time>
      </trkpt>
      <trkpt lat="42.357365" lon="-4.910856">
        <ele>778.308</ele>
        <time>2021-10-15T13:49:50Z</time>
      </trkpt>
      <trkpt lat="42.357020" lon="-4.910944">
        <ele>777.444</ele>
        <time>2021-10-15T13:49:52Z</time>
      </trkpt>
      <trkpt lat="42.356835" lon="-4.910993">
        <ele>776.392</ele>
        <time>2021-10-15T13:49:53Z</time>
      </trkpt>
      <trkpt lat="42.356646" lon="-4.911039">
        <ele>775.920</ele>
        <time>2021-10-15T13:49:54Z</time>
      </trkpt>
      <trkpt lat="42.356454" lon="-4.911086">
        <ele>775.544</ele>
        <time>2021-10-15T13:49:55Z</time>
      </trkpt>
      <trkpt lat="42.356253" lon="-4.911136">
        <ele>774.849</ele>
        <time>2021-10-15T13:49:56Z</time>
      </trkpt>
      <trkpt lat="42.355877" lon="-4.911231">
        <ele>774.317</ele>
        <time>2021-10-15T13:49:58Z</time>
      </trkpt>
      <trkpt lat="42.355509" lon="-4.911329">
        <ele>772.990</ele>
        <time>2021-10-15T13:50:00Z</time>
      </trkpt>
      <trkpt lat="42.355327" lon="-4.911376">
        <ele>772.975</ele>
        <time>2021-10-15T13:50:01Z</time>
      </trkpt>
      <trkpt lat="42.355144" lon="-4.911423">
        <ele>773.416</ele>
        <time>2021-10-15T13:50:02Z</time>
      </trkpt>
      <trkpt lat="42.354788" lon="-4.911518">
        <ele>772.476</ele>
        <time>2021-10-15T13:50:04Z</time>
      </trkpt>
      <trkpt lat="42.354415" lon="-4.911615">
        <ele>771.713</ele>
        <time>2021-10-15T13:50:06Z</time>
      </trkpt>
      <trkpt lat="42.354225" lon="-4.911665">
        <ele>771.908</ele>
        <time>2021-10-15T13:50:07Z</time>
      </trkpt>
      <trkpt lat="42.354035" lon="-4.911715">
        <ele>771.829</ele>
        <time>2021-10-15T13:50:08Z</time>
      </trkpt>
      <trkpt lat="42.353666" lon="-4.911811">
        <ele>771.047</ele>
        <time>2021-10-15T13:50:10Z</time>
      </trkpt>
      <trkpt lat="42.353485" lon="-4.911859">
        <ele>770.575</ele>
        <time>2021-10-15T13:50:11Z</time>
      </trkpt>
      <trkpt lat="42.353162" lon="-4.911946">
        <ele>769.269</ele>
        <time>2021-10-15T13:50:13Z</time>
      </trkpt>
      <trkpt lat="42.353009" lon="-4.911988">
        <ele>769.524</ele>
        <time>2021-10-15T13:50:14Z</time>
      </trkpt>
      <trkpt lat="42.352726" lon="-4.912060">
        <ele>769.722</ele>
        <time>2021-10-15T13:50:16Z</time>
      </trkpt>
      <trkpt lat="42.352469" lon="-4.912123">
        <ele>769.715</ele>
        <time>2021-10-15T13:50:18Z</time>
      </trkpt>
      <trkpt lat="42.352269" lon="-4.912224">
        <ele>769.320</ele>
        <time>2021-10-15T13:50:20Z</time>
      </trkpt>
      <trkpt lat="42.352132" lon="-4.912417">
        <ele>769.587</ele>
        <time>2021-10-15T13:50:22Z</time>
      </trkpt>
      <trkpt lat="42.352090" lon="-4.912540">
        <ele>769.642</ele>
        <time>2021-10-15T13:50:23Z</time>
      </trkpt>
      <trkpt lat="42.351994" lon="-4.912754">
        <ele>769.926</ele>
        <time>2021-10-15T13:50:25Z</time>
      </trkpt>
      <trkpt lat="42.351906" lon="-4.912830">
        <ele>770.308</ele>
        <time>2021-10-15T13:50:26Z</time>
      </trkpt>
      <trkpt lat="42.351664" lon="-4.912914">
        <ele>770.136</ele>
        <time>2021-10-15T13:50:28Z</time>
      </trkpt>
      <trkpt lat="42.351511" lon="-4.912938">
        <ele>769.844</ele>
        <time>2021-10-15T13:50:29Z</time>
      </trkpt>
      <trkpt lat="42.351349" lon="-4.912966">
        <ele>769.992</ele>
        <time>2021-10-15T13:50:30Z</time>
      </trkpt>
      <trkpt lat="42.350995" lon="-4.913035">
        <ele>770.316</ele>
        <time>2021-10-15T13:50:32Z</time>
      </trkpt>
      <trkpt lat="42.350627" lon="-4.913107">
        <ele>770.491</ele>
        <time>2021-10-15T13:50:34Z</time>
      </trkpt>
      <trkpt lat="42.350229" lon="-4.913185">
        <ele>769.769</ele>
        <time>2021-10-15T13:50:36Z</time>
      </trkpt>
      <trkpt lat="42.350019" lon="-4.913228">
        <ele>769.462</ele>
        <time>2021-10-15T13:50:37Z</time>
      </trkpt>
      <trkpt lat="42.349805" lon="-4.913276">
        <ele>770.177</ele>
        <time>2021-10-15T13:50:38Z</time>
      </trkpt>
      <trkpt lat="42.349376" lon="-4.913372">
        <ele>769.357</ele>
        <time>2021-10-15T13:50:40Z</time>
      </trkpt>
      <trkpt lat="42.348965" lon="-4.913458">
        <ele>769.000</ele>
        <time>2021-10-15T13:50:42Z</time>
      </trkpt>
      <trkpt lat="42.348574" lon="-4.913542">
        <ele>768.320</ele>
        <time>2021-10-15T13:50:44Z</time>
      </trkpt>
      <trkpt lat="42.348173" lon="-4.913626">
        <ele>768.708</ele>
        <time>2021-10-15T13:50:46Z</time>
      </trkpt>
      <trkpt lat="42.347970" lon="-4.913670">
        <ele>768.453</ele>
        <time>2021-10-15T13:50:47Z</time>
      </trkpt>
      <trkpt lat="42.347563" lon="-4.913760">
        <ele>769.051</ele>
        <time>2021-10-15T13:50:49Z</time>
      </trkpt>
      <trkpt lat="42.347359" lon="-4.913806">
        <ele>769.479</ele>
        <time>2021-10-15T13:50:50Z</time>
      </trkpt>
      <trkpt lat="42.346976" lon="-4.913891">
        <ele>769.843</ele>
        <time>2021-10-15T13:50:52Z</time>
      </trkpt>
      <trkpt lat="42.346790" lon="-4.913928">
        <ele>769.518</ele>
        <time>2021-10-15T13:50:53Z</time>
      </trkpt>
      <trkpt lat="42.346427" lon="-4.914001">
        <ele>769.726</ele>
        <time>2021-10-15T13:50:55Z</time>
      </trkpt>
      <trkpt lat="42.346235" lon="-4.914040">
        <ele>770.019</ele>
        <time>2021-10-15T13:50:56Z</time>
      </trkpt>
      <trkpt lat="42.345863" lon="-4.914119">
        <ele>769.974</ele>
        <time>2021-10-15T13:50:58Z</time>
      </trkpt>
      <trkpt lat="42.345671" lon="-4.914161">
        <ele>769.814</ele>
        <time>2021-10-15T13:50:59Z</time>
      </trkpt>
      <trkpt lat="42.345282" lon="-4.914244">
        <ele>770.454</ele>
        <time>2021-10-15T13:51:01Z</time>
      </trkpt>
      <trkpt lat="42.345076" lon="-4.914288">
        <ele>770.209</ele>
        <time>2021-10-15T13:51:02Z</time>
      </trkpt>
      <trkpt lat="42.344667" lon="-4.914375">
        <ele>769.708</ele>
        <time>2021-10-15T13:51:04Z</time>
      </trkpt>
      <trkpt lat="42.344250" lon="-4.914460">
        <ele>769.079</ele>
        <time>2021-10-15T13:51:06Z</time>
      </trkpt>
      <trkpt lat="42.344042" lon="-4.914506">
        <ele>769.637</ele>
        <time>2021-10-15T13:51:07Z</time>
      </trkpt>
      <trkpt lat="42.343832" lon="-4.914549">
        <ele>770.195</ele>
        <time>2021-10-15T13:51:08Z</time>
      </trkpt>
      <trkpt lat="42.343420" lon="-4.914640">
        <ele>769.789</ele>
        <time>2021-10-15T13:51:10Z</time>
      </trkpt>
      <trkpt lat="42.343208" lon="-4.914682">
        <ele>769.814</ele>
        <time>2021-10-15T13:51:11Z</time>
      </trkpt>
      <trkpt lat="42.342998" lon="-4.914728">
        <ele>770.432</ele>
        <time>2021-10-15T13:51:12Z</time>
      </trkpt>
      <trkpt lat="42.342585" lon="-4.914817">
        <ele>770.565</ele>
        <time>2021-10-15T13:51:14Z</time>
      </trkpt>
      <trkpt lat="42.342181" lon="-4.914903">
        <ele>770.560</ele>
        <time>2021-10-15T13:51:16Z</time>
      </trkpt>
      <trkpt lat="42.341977" lon="-4.914944">
        <ele>770.751</ele>
        <time>2021-10-15T13:51:17Z</time>
      </trkpt>
      <trkpt lat="42.341570" lon="-4.915031">
        <ele>770.501</ele>
        <time>2021-10-15T13:51:19Z</time>
      </trkpt>
      <trkpt lat="42.341363" lon="-4.915072">
        <ele>770.211</ele>
        <time>2021-10-15T13:51:20Z</time>
      </trkpt>
      <trkpt lat="42.340955" lon="-4.915155">
        <ele>770.108</ele>
        <time>2021-10-15T13:51:22Z</time>
      </trkpt>
      <trkpt lat="42.340542" lon="-4.915246">
        <ele>769.983</ele>
        <time>2021-10-15T13:51:24Z</time>
      </trkpt>
      <trkpt lat="42.340335" lon="-4.915291">
        <ele>769.781</ele>
        <time>2021-10-15T13:51:25Z</time>
      </trkpt>
      <trkpt lat="42.340118" lon="-4.915337">
        <ele>769.589</ele>
        <time>2021-10-15T13:51:26Z</time>
      </trkpt>
      <trkpt lat="42.339706" lon="-4.915425">
        <ele>769.143</ele>
        <time>2021-10-15T13:51:28Z</time>
      </trkpt>
      <trkpt lat="42.339285" lon="-4.915515">
        <ele>768.488</ele>
        <time>2021-10-15T13:51:30Z</time>
      </trkpt>
      <trkpt lat="42.339072" lon="-4.915558">
        <ele>768.276</ele>
        <time>2021-10-15T13:51:31Z</time>
      </trkpt>
      <trkpt lat="42.338852" lon="-4.915607">
        <ele>768.349</ele>
        <time>2021-10-15T13:51:32Z</time>
      </trkpt>
      <trkpt lat="42.338434" lon="-4.915701">
        <ele>768.144</ele>
        <time>2021-10-15T13:51:34Z</time>
      </trkpt>
      <trkpt lat="42.338217" lon="-4.915750">
        <ele>768.315</ele>
        <time>2021-10-15T13:51:35Z</time>
      </trkpt>
      <trkpt lat="42.338001" lon="-4.915799">
        <ele>767.965</ele>
        <time>2021-10-15T13:51:36Z</time>
      </trkpt>
      <trkpt lat="42.337785" lon="-4.915847">
        <ele>767.611</ele>
        <time>2021-10-15T13:51:37Z</time>
      </trkpt>
      <trkpt lat="42.337562" lon="-4.915892">
        <ele>767.508</ele>
        <time>2021-10-15T13:51:38Z</time>
      </trkpt>
      <trkpt lat="42.337111" lon="-4.915983">
        <ele>767.059</ele>
        <time>2021-10-15T13:51:40Z</time>
      </trkpt>
      <trkpt lat="42.336876" lon="-4.916032">
        <ele>766.887</ele>
        <time>2021-10-15T13:51:41Z</time>
      </trkpt>
      <trkpt lat="42.336405" lon="-4.916138">
        <ele>766.255</ele>
        <time>2021-10-15T13:51:43Z</time>
      </trkpt>
      <trkpt lat="42.336168" lon="-4.916190">
        <ele>766.099</ele>
        <time>2021-10-15T13:51:44Z</time>
      </trkpt>
      <trkpt lat="42.335702" lon="-4.916294">
        <ele>765.584</ele>
        <time>2021-10-15T13:51:46Z</time>
      </trkpt>
      <trkpt lat="42.335470" lon="-4.916345">
        <ele>765.522</ele>
        <time>2021-10-15T13:51:47Z</time>
      </trkpt>
      <trkpt lat="42.335241" lon="-4.916395">
        <ele>765.055</ele>
        <time>2021-10-15T13:51:48Z</time>
      </trkpt>
      <trkpt lat="42.334786" lon="-4.916504">
        <ele>763.790</ele>
        <time>2021-10-15T13:51:50Z</time>
      </trkpt>
      <trkpt lat="42.334347" lon="-4.916671">
        <ele>763.382</ele>
        <time>2021-10-15T13:51:52Z</time>
      </trkpt>
      <trkpt lat="42.334130" lon="-4.916781">
        <ele>763.343</ele>
        <time>2021-10-15T13:51:53Z</time>
      </trkpt>
      <trkpt lat="42.333698" lon="-4.917012">
        <ele>764.117</ele>
        <time>2021-10-15T13:51:55Z</time>
      </trkpt>
      <trkpt lat="42.333476" lon="-4.917127">
        <ele>764.908</ele>
        <time>2021-10-15T13:51:56Z</time>
      </trkpt>
      <trkpt lat="42.333060" lon="-4.917342">
        <ele>765.046</ele>
        <time>2021-10-15T13:51:58Z</time>
      </trkpt>
      <trkpt lat="42.332847" lon="-4.917450">
        <ele>765.674</ele>
        <time>2021-10-15T13:51:59Z</time>
      </trkpt>
      <trkpt lat="42.332632" lon="-4.917555">
        <ele>766.082</ele>
        <time>2021-10-15T13:52:00Z</time>
      </trkpt>
      <trkpt lat="42.332203" lon="-4.917770">
        <ele>765.836</ele>
        <time>2021-10-15T13:52:02Z</time>
      </trkpt>
      <trkpt lat="42.331794" lon="-4.917983">
        <ele>765.791</ele>
        <time>2021-10-15T13:52:04Z</time>
      </trkpt>
      <trkpt lat="42.331379" lon="-4.918204">
        <ele>765.899</ele>
        <time>2021-10-15T13:52:06Z</time>
      </trkpt>
      <trkpt lat="42.331171" lon="-4.918313">
        <ele>765.912</ele>
        <time>2021-10-15T13:52:07Z</time>
      </trkpt>
      <trkpt lat="42.330963" lon="-4.918417">
        <ele>766.667</ele>
        <time>2021-10-15T13:52:08Z</time>
      </trkpt>
      <trkpt lat="42.330560" lon="-4.918629">
        <ele>765.791</ele>
        <time>2021-10-15T13:52:10Z</time>
      </trkpt>
      <trkpt lat="42.330360" lon="-4.918736">
        <ele>765.481</ele>
        <time>2021-10-15T13:52:11Z</time>
      </trkpt>
      <trkpt lat="42.329965" lon="-4.918936">
        <ele>764.919</ele>
        <time>2021-10-15T13:52:13Z</time>
      </trkpt>
      <trkpt lat="42.329769" lon="-4.919036">
        <ele>763.908</ele>
        <time>2021-10-15T13:52:14Z</time>
      </trkpt>
      <trkpt lat="42.329385" lon="-4.919248">
        <ele>763.477</ele>
        <time>2021-10-15T13:52:16Z</time>
      </trkpt>
      <trkpt lat="42.328992" lon="-4.919456">
        <ele>762.395</ele>
        <time>2021-10-15T13:52:18Z</time>
      </trkpt>
      <trkpt lat="42.328788" lon="-4.919561">
        <ele>761.563</ele>
        <time>2021-10-15T13:52:19Z</time>
      </trkpt>
      <trkpt lat="42.328581" lon="-4.919672">
        <ele>761.157</ele>
        <time>2021-10-15T13:52:20Z</time>
      </trkpt>
      <trkpt lat="42.328167" lon="-4.919894">
        <ele>760.412</ele>
        <time>2021-10-15T13:52:22Z</time>
      </trkpt>
      <trkpt lat="42.327745" lon="-4.920117">
        <ele>759.530</ele>
        <time>2021-10-15T13:52:24Z</time>
      </trkpt>
      <trkpt lat="42.327533" lon="-4.920224">
        <ele>759.513</ele>
        <time>2021-10-15T13:52:25Z</time>
      </trkpt>
      <trkpt lat="42.327316" lon="-4.920336">
        <ele>759.588</ele>
        <time>2021-10-15T13:52:26Z</time>
      </trkpt>
      <trkpt lat="42.326902" lon="-4.920549">
        <ele>758.636</ele>
        <time>2021-10-15T13:52:28Z</time>
      </trkpt>
      <trkpt lat="42.326688" lon="-4.920660">
        <ele>757.917</ele>
        <time>2021-10-15T13:52:29Z</time>
      </trkpt>
      <trkpt lat="42.326267" lon="-4.920886">
        <ele>757.518</ele>
        <time>2021-10-15T13:52:31Z</time>
      </trkpt>
      <trkpt lat="42.326054" lon="-4.921000">
        <ele>757.608</ele>
        <time>2021-10-15T13:52:32Z</time>
      </trkpt>
      <trkpt lat="42.325641" lon="-4.921220">
        <ele>756.471</ele>
        <time>2021-10-15T13:52:34Z</time>
      </trkpt>
      <trkpt lat="42.325214" lon="-4.921441">
        <ele>755.199</ele>
        <time>2021-10-15T13:52:36Z</time>
      </trkpt>
      <trkpt lat="42.324781" lon="-4.921670">
        <ele>755.457</ele>
        <time>2021-10-15T13:52:38Z</time>
      </trkpt>
      <trkpt lat="42.324349" lon="-4.921890">
        <ele>754.931</ele>
        <time>2021-10-15T13:52:40Z</time>
      </trkpt>
      <trkpt lat="42.324133" lon="-4.921999">
        <ele>754.956</ele>
        <time>2021-10-15T13:52:41Z</time>
      </trkpt>
      <trkpt lat="42.323921" lon="-4.922111">
        <ele>754.694</ele>
        <time>2021-10-15T13:52:42Z</time>
      </trkpt>
      <trkpt lat="42.323499" lon="-4.922326">
        <ele>754.567</ele>
        <time>2021-10-15T13:52:44Z</time>
      </trkpt>
      <trkpt lat="42.323086" lon="-4.922542">
        <ele>754.612</ele>
        <time>2021-10-15T13:52:46Z</time>
      </trkpt>
      <trkpt lat="42.322671" lon="-4.922762">
        <ele>754.948</ele>
        <time>2021-10-15T13:52:48Z</time>
      </trkpt>
      <trkpt lat="42.322462" lon="-4.922872">
        <ele>754.761</ele>
        <time>2021-10-15T13:52:49Z</time>
      </trkpt>
      <trkpt lat="42.322252" lon="-4.922978">
        <ele>754.617</ele>
        <time>2021-10-15T13:52:50Z</time>
      </trkpt>
      <trkpt lat="42.321839" lon="-4.923196">
        <ele>754.608</ele>
        <time>2021-10-15T13:52:52Z</time>
      </trkpt>
      <trkpt lat="42.321627" lon="-4.923307">
        <ele>754.722</ele>
        <time>2021-10-15T13:52:53Z</time>
      </trkpt>
      <trkpt lat="42.321206" lon="-4.923518">
        <ele>755.630</ele>
        <time>2021-10-15T13:52:55Z</time>
      </trkpt>
      <trkpt lat="42.320989" lon="-4.923627">
        <ele>755.938</ele>
        <time>2021-10-15T13:52:56Z</time>
      </trkpt>
      <trkpt lat="42.320572" lon="-4.923843">
        <ele>756.062</ele>
        <time>2021-10-15T13:52:58Z</time>
      </trkpt>
      <trkpt lat="42.320354" lon="-4.923957">
        <ele>755.877</ele>
        <time>2021-10-15T13:52:59Z</time>
      </trkpt>
      <trkpt lat="42.320140" lon="-4.924069">
        <ele>755.965</ele>
        <time>2021-10-15T13:53:00Z</time>
      </trkpt>
      <trkpt lat="42.319703" lon="-4.924297">
        <ele>755.548</ele>
        <time>2021-10-15T13:53:02Z</time>
      </trkpt>
      <trkpt lat="42.319283" lon="-4.924520">
        <ele>755.753</ele>
        <time>2021-10-15T13:53:04Z</time>
      </trkpt>
      <trkpt lat="42.319068" lon="-4.924633">
        <ele>755.339</ele>
        <time>2021-10-15T13:53:05Z</time>
      </trkpt>
      <trkpt lat="42.318642" lon="-4.924856">
        <ele>754.301</ele>
        <time>2021-10-15T13:53:07Z</time>
      </trkpt>
      <trkpt lat="42.318427" lon="-4.924964">
        <ele>754.621</ele>
        <time>2021-10-15T13:53:08Z</time>
      </trkpt>
      <trkpt lat="42.318005" lon="-4.925188">
        <ele>754.408</ele>
        <time>2021-10-15T13:53:10Z</time>
      </trkpt>
      <trkpt lat="42.317795" lon="-4.925298">
        <ele>754.221</ele>
        <time>2021-10-15T13:53:11Z</time>
      </trkpt>
      <trkpt lat="42.317386" lon="-4.925514">
        <ele>754.179</ele>
        <time>2021-10-15T13:53:13Z</time>
      </trkpt>
      <trkpt lat="42.317189" lon="-4.925616">
        <ele>754.017</ele>
        <time>2021-10-15T13:53:14Z</time>
      </trkpt>
      <trkpt lat="42.316821" lon="-4.925801">
        <ele>753.041</ele>
        <time>2021-10-15T13:53:16Z</time>
      </trkpt>
      <trkpt lat="42.316636" lon="-4.925899">
        <ele>752.916</ele>
        <time>2021-10-15T13:53:17Z</time>
      </trkpt>
      <trkpt lat="42.316450" lon="-4.925997">
        <ele>753.114</ele>
        <time>2021-10-15T13:53:18Z</time>
      </trkpt>
      <trkpt lat="42.316264" lon="-4.926095">
        <ele>752.767</ele>
        <time>2021-10-15T13:53:19Z</time>
      </trkpt>
      <trkpt lat="42.316077" lon="-4.926194">
        <ele>752.172</ele>
        <time>2021-10-15T13:53:20Z</time>
      </trkpt>
      <trkpt lat="42.315733" lon="-4.926375">
        <ele>751.721</ele>
        <time>2021-10-15T13:53:22Z</time>
      </trkpt>
      <trkpt lat="42.315391" lon="-4.926555">
        <ele>751.641</ele>
        <time>2021-10-15T13:53:24Z</time>
      </trkpt>
      <trkpt lat="42.315221" lon="-4.926666">
        <ele>751.005</ele>
        <time>2021-10-15T13:53:25Z</time>
      </trkpt>
      <trkpt lat="42.315051" lon="-4.926807">
        <ele>751.108</ele>
        <time>2021-10-15T13:53:26Z</time>
      </trkpt>
      <trkpt lat="42.314743" lon="-4.927135">
        <ele>750.540</ele>
        <time>2021-10-15T13:53:28Z</time>
      </trkpt>
      <trkpt lat="42.314583" lon="-4.927312">
        <ele>750.548</ele>
        <time>2021-10-15T13:53:29Z</time>
      </trkpt>
      <trkpt lat="42.314248" lon="-4.927661">
        <ele>751.186</ele>
        <time>2021-10-15T13:53:31Z</time>
      </trkpt>
      <trkpt lat="42.314071" lon="-4.927847">
        <ele>751.840</ele>
        <time>2021-10-15T13:53:32Z</time>
      </trkpt>
      <trkpt lat="42.313732" lon="-4.928210">
        <ele>752.335</ele>
        <time>2021-10-15T13:53:34Z</time>
      </trkpt>
      <trkpt lat="42.313382" lon="-4.928583">
        <ele>752.343</ele>
        <time>2021-10-15T13:53:36Z</time>
      </trkpt>
      <trkpt lat="42.313204" lon="-4.928768">
        <ele>752.086</ele>
        <time>2021-10-15T13:53:37Z</time>
      </trkpt>
      <trkpt lat="42.313029" lon="-4.928952">
        <ele>752.011</ele>
        <time>2021-10-15T13:53:38Z</time>
      </trkpt>
      <trkpt lat="42.312682" lon="-4.929316">
        <ele>752.244</ele>
        <time>2021-10-15T13:53:40Z</time>
      </trkpt>
      <trkpt lat="42.312508" lon="-4.929497">
        <ele>751.905</ele>
        <time>2021-10-15T13:53:41Z</time>
      </trkpt>
      <trkpt lat="42.312162" lon="-4.929857">
        <ele>752.015</ele>
        <time>2021-10-15T13:53:43Z</time>
      </trkpt>
      <trkpt lat="42.311990" lon="-4.930040">
        <ele>751.208</ele>
        <time>2021-10-15T13:53:44Z</time>
      </trkpt>
      <trkpt lat="42.311656" lon="-4.930398">
        <ele>751.262</ele>
        <time>2021-10-15T13:53:46Z</time>
      </trkpt>
      <trkpt lat="42.311486" lon="-4.930579">
        <ele>750.830</ele>
        <time>2021-10-15T13:53:47Z</time>
      </trkpt>
      <trkpt lat="42.311312" lon="-4.930755">
        <ele>750.668</ele>
        <time>2021-10-15T13:53:48Z</time>
      </trkpt>
      <trkpt lat="42.310940" lon="-4.931072">
        <ele>750.362</ele>
        <time>2021-10-15T13:53:50Z</time>
      </trkpt>
      <trkpt lat="42.310549" lon="-4.931346">
        <ele>750.177</ele>
        <time>2021-10-15T13:53:52Z</time>
      </trkpt>
      <trkpt lat="42.310134" lon="-4.931622">
        <ele>749.415</ele>
        <time>2021-10-15T13:53:54Z</time>
      </trkpt>
      <trkpt lat="42.309921" lon="-4.931766">
        <ele>749.088</ele>
        <time>2021-10-15T13:53:55Z</time>
      </trkpt>
      <trkpt lat="42.309701" lon="-4.931914">
        <ele>748.463</ele>
        <time>2021-10-15T13:53:56Z</time>
      </trkpt>
      <trkpt lat="42.309278" lon="-4.932211">
        <ele>748.713</ele>
        <time>2021-10-15T13:53:58Z</time>
      </trkpt>
      <trkpt lat="42.309064" lon="-4.932360">
        <ele>748.743</ele>
        <time>2021-10-15T13:53:59Z</time>
      </trkpt>
      <trkpt lat="42.308658" lon="-4.932639">
        <ele>749.007</ele>
        <time>2021-10-15T13:54:01Z</time>
      </trkpt>
      <trkpt lat="42.308461" lon="-4.932769">
        <ele>748.408</ele>
        <time>2021-10-15T13:54:02Z</time>
      </trkpt>
      <trkpt lat="42.308103" lon="-4.933014">
        <ele>749.559</ele>
        <time>2021-10-15T13:54:04Z</time>
      </trkpt>
      <trkpt lat="42.307742" lon="-4.933261">
        <ele>748.777</ele>
        <time>2021-10-15T13:54:06Z</time>
      </trkpt>
      <trkpt lat="42.307558" lon="-4.933387">
        <ele>747.735</ele>
        <time>2021-10-15T13:54:07Z</time>
      </trkpt>
      <trkpt lat="42.307367" lon="-4.933515">
        <ele>747.519</ele>
        <time>2021-10-15T13:54:08Z</time>
      </trkpt>
      <trkpt lat="42.306981" lon="-4.933779">
        <ele>748.454</ele>
        <time>2021-10-15T13:54:10Z</time>
      </trkpt>
      <trkpt lat="42.306779" lon="-4.933921">
        <ele>748.612</ele>
        <time>2021-10-15T13:54:11Z</time>
      </trkpt>
      <trkpt lat="42.306368" lon="-4.934208">
        <ele>748.225</ele>
        <time>2021-10-15T13:54:13Z</time>
      </trkpt>
      <trkpt lat="42.306157" lon="-4.934357">
        <ele>747.660</ele>
        <time>2021-10-15T13:54:14Z</time>
      </trkpt>
      <trkpt lat="42.305746" lon="-4.934647">
        <ele>748.195</ele>
        <time>2021-10-15T13:54:16Z</time>
      </trkpt>
      <trkpt lat="42.305543" lon="-4.934790">
        <ele>748.049</ele>
        <time>2021-10-15T13:54:17Z</time>
      </trkpt>
      <trkpt lat="42.305168" lon="-4.935047">
        <ele>747.923</ele>
        <time>2021-10-15T13:54:19Z</time>
      </trkpt>
      <trkpt lat="42.304993" lon="-4.935165">
        <ele>747.308</ele>
        <time>2021-10-15T13:54:20Z</time>
      </trkpt>
      <trkpt lat="42.304670" lon="-4.935391">
        <ele>746.987</ele>
        <time>2021-10-15T13:54:22Z</time>
      </trkpt>
      <trkpt lat="42.304509" lon="-4.935510">
        <ele>746.995</ele>
        <time>2021-10-15T13:54:23Z</time>
      </trkpt>
      <trkpt lat="42.304347" lon="-4.935638">
        <ele>747.353</ele>
        <time>2021-10-15T13:54:24Z</time>
      </trkpt>
      <trkpt lat="42.304031" lon="-4.935943">
        <ele>747.287</ele>
        <time>2021-10-15T13:54:26Z</time>
      </trkpt>
      <trkpt lat="42.303714" lon="-4.936266">
        <ele>745.972</ele>
        <time>2021-10-15T13:54:28Z</time>
      </trkpt>
      <trkpt lat="42.303546" lon="-4.936430">
        <ele>745.880</ele>
        <time>2021-10-15T13:54:29Z</time>
      </trkpt>
      <trkpt lat="42.303206" lon="-4.936748">
        <ele>745.233</ele>
        <time>2021-10-15T13:54:31Z</time>
      </trkpt>
      <trkpt lat="42.303017" lon="-4.936892">
        <ele>744.848</ele>
        <time>2021-10-15T13:54:32Z</time>
      </trkpt>
      <trkpt lat="42.302631" lon="-4.937125">
        <ele>744.285</ele>
        <time>2021-10-15T13:54:34Z</time>
      </trkpt>
      <trkpt lat="42.302238" lon="-4.937355">
        <ele>743.989</ele>
        <time>2021-10-15T13:54:36Z</time>
      </trkpt>
      <trkpt lat="42.302048" lon="-4.937466">
        <ele>743.417</ele>
        <time>2021-10-15T13:54:37Z</time>
      </trkpt>
      <trkpt lat="42.301856" lon="-4.937577">
        <ele>743.108</ele>
        <time>2021-10-15T13:54:38Z</time>
      </trkpt>
      <trkpt lat="42.301475" lon="-4.937796">
        <ele>742.936</ele>
        <time>2021-10-15T13:54:40Z</time>
      </trkpt>
      <trkpt lat="42.301290" lon="-4.937905">
        <ele>742.474</ele>
        <time>2021-10-15T13:54:41Z</time>
      </trkpt>
      <trkpt lat="42.300953" lon="-4.938114">
        <ele>743.072</ele>
        <time>2021-10-15T13:54:43Z</time>
      </trkpt>
      <trkpt lat="42.300793" lon="-4.938244">
        <ele>742.136</ele>
        <time>2021-10-15T13:54:44Z</time>
      </trkpt>
      <trkpt lat="42.300481" lon="-4.938574">
        <ele>742.111</ele>
        <time>2021-10-15T13:54:46Z</time>
      </trkpt>
      <trkpt lat="42.300164" lon="-4.938953">
        <ele>742.449</ele>
        <time>2021-10-15T13:54:48Z</time>
      </trkpt>
      <trkpt lat="42.299831" lon="-4.939339">
        <ele>742.852</ele>
        <time>2021-10-15T13:54:50Z</time>
      </trkpt>
      <trkpt lat="42.299499" lon="-4.939724">
        <ele>742.257</ele>
        <time>2021-10-15T13:54:52Z</time>
      </trkpt>
      <trkpt lat="42.299330" lon="-4.939917">
        <ele>741.426</ele>
        <time>2021-10-15T13:54:53Z</time>
      </trkpt>
      <trkpt lat="42.298996" lon="-4.940306">
        <ele>742.247</ele>
        <time>2021-10-15T13:54:55Z</time>
      </trkpt>
      <trkpt lat="42.298827" lon="-4.940511">
        <ele>741.811</ele>
        <time>2021-10-15T13:54:56Z</time>
      </trkpt>
      <trkpt lat="42.298537" lon="-4.940924">
        <ele>741.808</ele>
        <time>2021-10-15T13:54:58Z</time>
      </trkpt>
      <trkpt lat="42.298411" lon="-4.941156">
        <ele>741.670</ele>
        <time>2021-10-15T13:54:59Z</time>
      </trkpt>
      <trkpt lat="42.298198" lon="-4.941654">
        <ele>741.718</ele>
        <time>2021-10-15T13:55:01Z</time>
      </trkpt>
      <trkpt lat="42.298094" lon="-4.941918">
        <ele>741.546</ele>
        <time>2021-10-15T13:55:02Z</time>
      </trkpt>
      <trkpt lat="42.297889" lon="-4.942440">
        <ele>741.840</ele>
        <time>2021-10-15T13:55:04Z</time>
      </trkpt>
      <trkpt lat="42.297675" lon="-4.942968">
        <ele>741.565</ele>
        <time>2021-10-15T13:55:06Z</time>
      </trkpt>
      <trkpt lat="42.297570" lon="-4.943233">
        <ele>741.733</ele>
        <time>2021-10-15T13:55:07Z</time>
      </trkpt>
      <trkpt lat="42.297470" lon="-4.943486">
        <ele>742.046</ele>
        <time>2021-10-15T13:55:08Z</time>
      </trkpt>
      <trkpt lat="42.297279" lon="-4.943940">
        <ele>742.131</ele>
        <time>2021-10-15T13:55:10Z</time>
      </trkpt>
      <trkpt lat="42.297053" lon="-4.944343">
        <ele>742.241</ele>
        <time>2021-10-15T13:55:12Z</time>
      </trkpt>
      <trkpt lat="42.296772" lon="-4.944698">
        <ele>741.881</ele>
        <time>2021-10-15T13:55:14Z</time>
      </trkpt>
      <trkpt lat="42.296464" lon="-4.945048">
        <ele>741.709</ele>
        <time>2021-10-15T13:55:16Z</time>
      </trkpt>
      <trkpt lat="42.296306" lon="-4.945231">
        <ele>741.308</ele>
        <time>2021-10-15T13:55:17Z</time>
      </trkpt>
      <trkpt lat="42.295992" lon="-4.945598">
        <ele>741.912</ele>
        <time>2021-10-15T13:55:19Z</time>
      </trkpt>
      <trkpt lat="42.295837" lon="-4.945780">
        <ele>741.990</ele>
        <time>2021-10-15T13:55:20Z</time>
      </trkpt>
      <trkpt lat="42.295531" lon="-4.946141">
        <ele>742.128</ele>
        <time>2021-10-15T13:55:22Z</time>
      </trkpt>
      <trkpt lat="42.295378" lon="-4.946323">
        <ele>741.672</ele>
        <time>2021-10-15T13:55:23Z</time>
      </trkpt>
      <trkpt lat="42.295068" lon="-4.946681">
        <ele>740.727</ele>
        <time>2021-10-15T13:55:25Z</time>
      </trkpt>
      <trkpt lat="42.294896" lon="-4.946851">
        <ele>741.035</ele>
        <time>2021-10-15T13:55:26Z</time>
      </trkpt>
      <trkpt lat="42.294548" lon="-4.947160">
        <ele>739.988</ele>
        <time>2021-10-15T13:55:28Z</time>
      </trkpt>
      <trkpt lat="42.294186" lon="-4.947480">
        <ele>740.033</ele>
        <time>2021-10-15T13:55:30Z</time>
      </trkpt>
      <trkpt lat="42.294005" lon="-4.947644">
        <ele>739.734</ele>
        <time>2021-10-15T13:55:31Z</time>
      </trkpt>
      <trkpt lat="42.293822" lon="-4.947810">
        <ele>739.255</ele>
        <time>2021-10-15T13:55:32Z</time>
      </trkpt>
      <trkpt lat="42.293465" lon="-4.948125">
        <ele>739.610</ele>
        <time>2021-10-15T13:55:34Z</time>
      </trkpt>
      <trkpt lat="42.293105" lon="-4.948419">
        <ele>738.808</ele>
        <time>2021-10-15T13:55:36Z</time>
      </trkpt>
      <trkpt lat="42.292921" lon="-4.948546">
        <ele>739.331</ele>
        <time>2021-10-15T13:55:37Z</time>
      </trkpt>
      <trkpt lat="42.292734" lon="-4.948659">
        <ele>739.539</ele>
        <time>2021-10-15T13:55:38Z</time>
      </trkpt>
      <trkpt lat="42.292358" lon="-4.948866">
        <ele>739.427</ele>
        <time>2021-10-15T13:55:40Z</time>
      </trkpt>
      <trkpt lat="42.292168" lon="-4.948971">
        <ele>739.781</ele>
        <time>2021-10-15T13:55:41Z</time>
      </trkpt>
      <trkpt lat="42.291799" lon="-4.949187">
        <ele>740.076</ele>
        <time>2021-10-15T13:55:43Z</time>
      </trkpt>
      <trkpt lat="42.291615" lon="-4.949293">
        <ele>739.884</ele>
        <time>2021-10-15T13:55:44Z</time>
      </trkpt>
      <trkpt lat="42.291245" lon="-4.949505">
        <ele>739.477</ele>
        <time>2021-10-15T13:55:46Z</time>
      </trkpt>
      <trkpt lat="42.291055" lon="-4.949616">
        <ele>739.622</ele>
        <time>2021-10-15T13:55:47Z</time>
      </trkpt>
      <trkpt lat="42.290864" lon="-4.949729">
        <ele>739.867</ele>
        <time>2021-10-15T13:55:48Z</time>
      </trkpt>
      <trkpt lat="42.290481" lon="-4.949957">
        <ele>739.381</ele>
        <time>2021-10-15T13:55:50Z</time>
      </trkpt>
      <trkpt lat="42.290102" lon="-4.950178">
        <ele>739.219</ele>
        <time>2021-10-15T13:55:52Z</time>
      </trkpt>
      <trkpt lat="42.289718" lon="-4.950399">
        <ele>739.208</ele>
        <time>2021-10-15T13:55:54Z</time>
      </trkpt>
      <trkpt lat="42.289315" lon="-4.950621">
        <ele>738.724</ele>
        <time>2021-10-15T13:55:56Z</time>
      </trkpt>
      <trkpt lat="42.288901" lon="-4.950811">
        <ele>738.192</ele>
        <time>2021-10-15T13:55:58Z</time>
      </trkpt>
      <trkpt lat="42.288462" lon="-4.950996">
        <ele>737.040</ele>
        <time>2021-10-15T13:56:00Z</time>
      </trkpt>
      <trkpt lat="42.288002" lon="-4.951192">
        <ele>736.434</ele>
        <time>2021-10-15T13:56:02Z</time>
      </trkpt>
      <trkpt lat="42.287572" lon="-4.951379">
        <ele>735.659</ele>
        <time>2021-10-15T13:56:04Z</time>
      </trkpt>
      <trkpt lat="42.287369" lon="-4.951468">
        <ele>735.567</ele>
        <time>2021-10-15T13:56:05Z</time>
      </trkpt>
      <trkpt lat="42.287178" lon="-4.951551">
        <ele>735.450</ele>
        <time>2021-10-15T13:56:06Z</time>
      </trkpt>
      <trkpt lat="42.286996" lon="-4.951630">
        <ele>735.195</ele>
        <time>2021-10-15T13:56:07Z</time>
      </trkpt>
      <trkpt lat="42.286822" lon="-4.951710">
        <ele>734.455</ele>
        <time>2021-10-15T13:56:08Z</time>
      </trkpt>
      <trkpt lat="42.286479" lon="-4.951864">
        <ele>734.207</ele>
        <time>2021-10-15T13:56:10Z</time>
      </trkpt>
      <trkpt lat="42.286122" lon="-4.952015">
        <ele>733.517</ele>
        <time>2021-10-15T13:56:12Z</time>
      </trkpt>
      <trkpt lat="42.285759" lon="-4.952171">
        <ele>733.308</ele>
        <time>2021-10-15T13:56:14Z</time>
      </trkpt>
      <trkpt lat="42.285401" lon="-4.952323">
        <ele>733.963</ele>
        <time>2021-10-15T13:56:16Z</time>
      </trkpt>
      <trkpt lat="42.285037" lon="-4.952475">
        <ele>734.651</ele>
        <time>2021-10-15T13:56:18Z</time>
      </trkpt>
      <trkpt lat="42.284661" lon="-4.952632">
        <ele>733.959</ele>
        <time>2021-10-15T13:56:20Z</time>
      </trkpt>
      <trkpt lat="42.284279" lon="-4.952803">
        <ele>733.513</ele>
        <time>2021-10-15T13:56:22Z</time>
      </trkpt>
      <trkpt lat="42.283879" lon="-4.952973">
        <ele>733.728</ele>
        <time>2021-10-15T13:56:24Z</time>
      </trkpt>
      <trkpt lat="42.283466" lon="-4.953150">
        <ele>733.526</ele>
        <time>2021-10-15T13:56:26Z</time>
      </trkpt>
      <trkpt lat="42.283058" lon="-4.953327">
        <ele>732.879</ele>
        <time>2021-10-15T13:56:28Z</time>
      </trkpt>
      <trkpt lat="42.282850" lon="-4.953417">
        <ele>732.534</ele>
        <time>2021-10-15T13:56:29Z</time>
      </trkpt>
      <trkpt lat="42.282434" lon="-4.953595">
        <ele>732.297</ele>
        <time>2021-10-15T13:56:31Z</time>
      </trkpt>
      <trkpt lat="42.282016" lon="-4.953774">
        <ele>731.423</ele>
        <time>2021-10-15T13:56:33Z</time>
      </trkpt>
      <trkpt lat="42.281592" lon="-4.953958">
        <ele>732.425</ele>
        <time>2021-10-15T13:56:35Z</time>
      </trkpt>
      <trkpt lat="42.281165" lon="-4.954143">
        <ele>731.308</ele>
        <time>2021-10-15T13:56:37Z</time>
      </trkpt>
      <trkpt lat="42.280948" lon="-4.954236">
        <ele>730.857</ele>
        <time>2021-10-15T13:56:38Z</time>
      </trkpt>
      <trkpt lat="42.280517" lon="-4.954422">
        <ele>730.975</ele>
        <time>2021-10-15T13:56:40Z</time>
      </trkpt>
      <trkpt lat="42.280083" lon="-4.954618">
        <ele>730.953</ele>
        <time>2021-10-15T13:56:42Z</time>
      </trkpt>
      <trkpt lat="42.279861" lon="-4.954717">
        <ele>730.317</ele>
        <time>2021-10-15T13:56:43Z</time>
      </trkpt>
      <trkpt lat="42.279639" lon="-4.954815">
        <ele>729.882</ele>
        <time>2021-10-15T13:56:44Z</time>
      </trkpt>
      <trkpt lat="42.279196" lon="-4.954997">
        <ele>730.520</ele>
        <time>2021-10-15T13:56:46Z</time>
      </trkpt>
      <trkpt lat="42.278972" lon="-4.955084">
        <ele>730.793</ele>
        <time>2021-10-15T13:56:47Z</time>
      </trkpt>
      <trkpt lat="42.278535" lon="-4.955261">
        <ele>729.738</ele>
        <time>2021-10-15T13:56:49Z</time>
      </trkpt>
      <trkpt lat="42.278325" lon="-4.955348">
        <ele>729.728</ele>
        <time>2021-10-15T13:56:50Z</time>
      </trkpt>
      <trkpt lat="42.277943" lon="-4.955505">
        <ele>728.989</ele>
        <time>2021-10-15T13:56:52Z</time>
      </trkpt>
      <trkpt lat="42.277764" lon="-4.955580">
        <ele>729.417</ele>
        <time>2021-10-15T13:56:53Z</time>
      </trkpt>
      <trkpt lat="42.277404" lon="-4.955747">
        <ele>730.508</ele>
        <time>2021-10-15T13:56:55Z</time>
      </trkpt>
      <trkpt lat="42.277220" lon="-4.955862">
        <ele>731.250</ele>
        <time>2021-10-15T13:56:56Z</time>
      </trkpt>
      <trkpt lat="42.276884" lon="-4.956148">
        <ele>732.048</ele>
        <time>2021-10-15T13:56:58Z</time>
      </trkpt>
      <trkpt lat="42.276561" lon="-4.956441">
        <ele>732.026</ele>
        <time>2021-10-15T13:57:00Z</time>
      </trkpt>
      <trkpt lat="42.276209" lon="-4.956716">
        <ele>731.190</ele>
        <time>2021-10-15T13:57:02Z</time>
      </trkpt>
      <trkpt lat="42.275809" lon="-4.956911">
        <ele>731.195</ele>
        <time>2021-10-15T13:57:04Z</time>
      </trkpt>
      <trkpt lat="42.275353" lon="-4.957077">
        <ele>730.973</ele>
        <time>2021-10-15T13:57:06Z</time>
      </trkpt>
      <trkpt lat="42.275117" lon="-4.957164">
        <ele>730.736</ele>
        <time>2021-10-15T13:57:07Z</time>
      </trkpt>
      <trkpt lat="42.274878" lon="-4.957253">
        <ele>731.591</ele>
        <time>2021-10-15T13:57:08Z</time>
      </trkpt>
      <trkpt lat="42.274393" lon="-4.957434">
        <ele>731.754</ele>
        <time>2021-10-15T13:57:10Z</time>
      </trkpt>
      <trkpt lat="42.273904" lon="-4.957617">
        <ele>732.156</ele>
        <time>2021-10-15T13:57:12Z</time>
      </trkpt>
      <trkpt lat="42.273662" lon="-4.957708">
        <ele>732.011</ele>
        <time>2021-10-15T13:57:13Z</time>
      </trkpt>
      <trkpt lat="42.273426" lon="-4.957797">
        <ele>732.108</ele>
        <time>2021-10-15T13:57:14Z</time>
      </trkpt>
      <trkpt lat="42.272969" lon="-4.957969">
        <ele>731.963</ele>
        <time>2021-10-15T13:57:16Z</time>
      </trkpt>
      <trkpt lat="42.272518" lon="-4.958144">
        <ele>731.641</ele>
        <time>2021-10-15T13:57:18Z</time>
      </trkpt>
      <trkpt lat="42.272289" lon="-4.958231">
        <ele>731.979</ele>
        <time>2021-10-15T13:57:19Z</time>
      </trkpt>
      <trkpt lat="42.272060" lon="-4.958319">
        <ele>730.973</ele>
        <time>2021-10-15T13:57:20Z</time>
      </trkpt>
      <trkpt lat="42.271605" lon="-4.958492">
        <ele>730.858</ele>
        <time>2021-10-15T13:57:22Z</time>
      </trkpt>
      <trkpt lat="42.271137" lon="-4.958650">
        <ele>729.966</ele>
        <time>2021-10-15T13:57:24Z</time>
      </trkpt>
      <trkpt lat="42.270902" lon="-4.958726">
        <ele>729.599</ele>
        <time>2021-10-15T13:57:25Z</time>
      </trkpt>
      <trkpt lat="42.270664" lon="-4.958808">
        <ele>729.564</ele>
        <time>2021-10-15T13:57:26Z</time>
      </trkpt>
      <trkpt lat="42.270231" lon="-4.958951">
        <ele>730.122</ele>
        <time>2021-10-15T13:57:28Z</time>
      </trkpt>
      <trkpt lat="42.269819" lon="-4.959087">
        <ele>731.062</ele>
        <time>2021-10-15T13:57:30Z</time>
      </trkpt>
      <trkpt lat="42.269607" lon="-4.959157">
        <ele>730.108</ele>
        <time>2021-10-15T13:57:31Z</time>
      </trkpt>
      <trkpt lat="42.269391" lon="-4.959231">
        <ele>729.608</ele>
        <time>2021-10-15T13:57:32Z</time>
      </trkpt>
      <trkpt lat="42.268964" lon="-4.959371">
        <ele>730.410</ele>
        <time>2021-10-15T13:57:34Z</time>
      </trkpt>
      <trkpt lat="42.268520" lon="-4.959515">
        <ele>730.348</ele>
        <time>2021-10-15T13:57:36Z</time>
      </trkpt>
      <trkpt lat="42.268067" lon="-4.959664">
        <ele>729.426</ele>
        <time>2021-10-15T13:57:38Z</time>
      </trkpt>
      <trkpt lat="42.267619" lon="-4.959841">
        <ele>728.940</ele>
        <time>2021-10-15T13:57:40Z</time>
      </trkpt>
      <trkpt lat="42.267180" lon="-4.960040">
        <ele>726.245</ele>
        <time>2021-10-15T13:57:42Z</time>
      </trkpt>
      <trkpt lat="42.266943" lon="-4.960125">
        <ele>726.713</ele>
        <time>2021-10-15T13:57:43Z</time>
      </trkpt>
      <trkpt lat="42.266694" lon="-4.960205">
        <ele>727.296</ele>
        <time>2021-10-15T13:57:44Z</time>
      </trkpt>
      <trkpt lat="42.266208" lon="-4.960363">
        <ele>725.991</ele>
        <time>2021-10-15T13:57:46Z</time>
      </trkpt>
      <trkpt lat="42.265963" lon="-4.960443">
        <ele>725.511</ele>
        <time>2021-10-15T13:57:47Z</time>
      </trkpt>
      <trkpt lat="42.265481" lon="-4.960594">
        <ele>725.521</ele>
        <time>2021-10-15T13:57:49Z</time>
      </trkpt>
      <trkpt lat="42.265260" lon="-4.960662">
        <ele>726.503</ele>
        <time>2021-10-15T13:57:50Z</time>
      </trkpt>
      <trkpt lat="42.264834" lon="-4.960801">
        <ele>725.808</ele>
        <time>2021-10-15T13:57:52Z</time>
      </trkpt>
      <trkpt lat="42.264406" lon="-4.960946">
        <ele>726.229</ele>
        <time>2021-10-15T13:57:54Z</time>
      </trkpt>
      <trkpt lat="42.264186" lon="-4.961020">
        <ele>726.287</ele>
        <time>2021-10-15T13:57:55Z</time>
      </trkpt>
      <trkpt lat="42.263961" lon="-4.961096">
        <ele>726.765</ele>
        <time>2021-10-15T13:57:56Z</time>
      </trkpt>
      <trkpt lat="42.263536" lon="-4.961239">
        <ele>726.739</ele>
        <time>2021-10-15T13:57:58Z</time>
      </trkpt>
      <trkpt lat="42.263103" lon="-4.961393">
        <ele>726.644</ele>
        <time>2021-10-15T13:58:00Z</time>
      </trkpt>
      <trkpt lat="42.262887" lon="-4.961471">
        <ele>726.242</ele>
        <time>2021-10-15T13:58:01Z</time>
      </trkpt>
      <trkpt lat="42.262667" lon="-4.961550">
        <ele>725.775</ele>
        <time>2021-10-15T13:58:02Z</time>
      </trkpt>
      <trkpt lat="42.262235" lon="-4.961700">
        <ele>726.320</ele>
        <time>2021-10-15T13:58:04Z</time>
      </trkpt>
      <trkpt lat="42.261811" lon="-4.961885">
        <ele>727.047</ele>
        <time>2021-10-15T13:58:06Z</time>
      </trkpt>
      <trkpt lat="42.261603" lon="-4.962005">
        <ele>726.929</ele>
        <time>2021-10-15T13:58:07Z</time>
      </trkpt>
      <trkpt lat="42.261401" lon="-4.962128">
        <ele>726.521</ele>
        <time>2021-10-15T13:58:08Z</time>
      </trkpt>
      <trkpt lat="42.261010" lon="-4.962370">
        <ele>726.808</ele>
        <time>2021-10-15T13:58:10Z</time>
      </trkpt>
      <trkpt lat="42.260829" lon="-4.962484">
        <ele>726.282</ele>
        <time>2021-10-15T13:58:11Z</time>
      </trkpt>
      <trkpt lat="42.260650" lon="-4.962596">
        <ele>725.910</ele>
        <time>2021-10-15T13:58:12Z</time>
      </trkpt>
      <trkpt lat="42.260284" lon="-4.962824">
        <ele>725.218</ele>
        <time>2021-10-15T13:58:14Z</time>
      </trkpt>
      <trkpt lat="42.259914" lon="-4.963024">
        <ele>724.562</ele>
        <time>2021-10-15T13:58:16Z</time>
      </trkpt>
      <trkpt lat="42.259714" lon="-4.963098">
        <ele>724.117</ele>
        <time>2021-10-15T13:58:17Z</time>
      </trkpt>
      <trkpt lat="42.259307" lon="-4.963191">
        <ele>723.365</ele>
        <time>2021-10-15T13:58:19Z</time>
      </trkpt>
      <trkpt lat="42.259099" lon="-4.963236">
        <ele>723.288</ele>
        <time>2021-10-15T13:58:20Z</time>
      </trkpt>
      <trkpt lat="42.258708" lon="-4.963331">
        <ele>723.473</ele>
        <time>2021-10-15T13:58:22Z</time>
      </trkpt>
      <trkpt lat="42.258525" lon="-4.963377">
        <ele>723.819</ele>
        <time>2021-10-15T13:58:23Z</time>
      </trkpt>
      <trkpt lat="42.258188" lon="-4.963473">
        <ele>723.409</ele>
        <time>2021-10-15T13:58:25Z</time>
      </trkpt>
      <trkpt lat="42.258034" lon="-4.963520">
        <ele>722.919</ele>
        <time>2021-10-15T13:58:26Z</time>
      </trkpt>
      <trkpt lat="42.257775" lon="-4.963603">
        <ele>722.708</ele>
        <time>2021-10-15T13:58:28Z</time>
      </trkpt>
      <trkpt lat="42.257670" lon="-4.963642">
        <ele>722.859</ele>
        <time>2021-10-15T13:58:29Z</time>
      </trkpt>
      <trkpt lat="42.257519" lon="-4.963701">
        <ele>723.527</ele>
        <time>2021-10-15T13:58:31Z</time>
      </trkpt>
      <trkpt lat="42.257472" lon="-4.963731">
        <ele>723.565</ele>
        <time>2021-10-15T13:58:32Z</time>
      </trkpt>
      <trkpt lat="42.257433" lon="-4.963781">
        <ele>724.039</ele>
        <time>2021-10-15T13:58:34Z</time>
      </trkpt>
      <trkpt lat="42.257396" lon="-4.963847">
        <ele>723.784</ele>
        <time>2021-10-15T13:58:37Z</time>
      </trkpt>
      <trkpt lat="42.257355" lon="-4.963906">
        <ele>724.632</ele>
        <time>2021-10-15T13:59:01Z</time>
      </trkpt>
      <trkpt lat="42.257299" lon="-4.963956">
        <ele>724.715</ele>
        <time>2021-10-15T13:59:03Z</time>
      </trkpt>
      <trkpt lat="42.257225" lon="-4.963981">
        <ele>724.730</ele>
        <time>2021-10-15T13:59:05Z</time>
      </trkpt>
      <trkpt lat="42.257151" lon="-4.963963">
        <ele>724.729</ele>
        <time>2021-10-15T13:59:07Z</time>
      </trkpt>
      <trkpt lat="42.257095" lon="-4.963938">
        <ele>724.400</ele>
        <time>2021-10-15T13:59:08Z</time>
      </trkpt>
      <trkpt lat="42.256945" lon="-4.963916">
        <ele>723.820</ele>
        <time>2021-10-15T13:59:10Z</time>
      </trkpt>
      <trkpt lat="42.256729" lon="-4.963980">
        <ele>723.708</ele>
        <time>2021-10-15T13:59:12Z</time>
      </trkpt>
      <trkpt lat="42.256573" lon="-4.964046">
        <ele>723.920</ele>
        <time>2021-10-15T13:59:13Z</time>
      </trkpt>
      <trkpt lat="42.256401" lon="-4.964126">
        <ele>724.318</ele>
        <time>2021-10-15T13:59:14Z</time>
      </trkpt>
      <trkpt lat="42.256142" lon="-4.964260">
        <ele>723.586</ele>
        <time>2021-10-15T13:59:16Z</time>
      </trkpt>
      <trkpt lat="42.255966" lon="-4.964330">
        <ele>723.410</ele>
        <time>2021-10-15T13:59:18Z</time>
      </trkpt>
      <trkpt lat="42.255786" lon="-4.964401">
        <ele>723.385</ele>
        <time>2021-10-15T13:59:20Z</time>
      </trkpt>
      <trkpt lat="42.255593" lon="-4.964467">
        <ele>723.573</ele>
        <time>2021-10-15T13:59:22Z</time>
      </trkpt>
      <trkpt lat="42.255503" lon="-4.964498">
        <ele>724.286</ele>
        <time>2021-10-15T13:59:23Z</time>
      </trkpt>
      <trkpt lat="42.255425" lon="-4.964543">
        <ele>723.841</ele>
        <time>2021-10-15T13:59:24Z</time>
      </trkpt>
      <trkpt lat="42.255315" lon="-4.964693">
        <ele>724.042</ele>
        <time>2021-10-15T13:59:26Z</time>
      </trkpt>
      <trkpt lat="42.255296" lon="-4.964910">
        <ele>725.122</ele>
        <time>2021-10-15T13:59:28Z</time>
      </trkpt>
      <trkpt lat="42.255313" lon="-4.965035">
        <ele>725.214</ele>
        <time>2021-10-15T13:59:29Z</time>
      </trkpt>
      <trkpt lat="42.255366" lon="-4.965339">
        <ele>725.908</ele>
        <time>2021-10-15T13:59:31Z</time>
      </trkpt>
      <trkpt lat="42.255386" lon="-4.965540">
        <ele>726.392</ele>
        <time>2021-10-15T13:59:32Z</time>
      </trkpt>
      <trkpt lat="42.255410" lon="-4.966006">
        <ele>726.340</ele>
        <time>2021-10-15T13:59:34Z</time>
      </trkpt>
      <trkpt lat="42.255431" lon="-4.966443">
        <ele>727.248</ele>
        <time>2021-10-15T13:59:36Z</time>
      </trkpt>
      <trkpt lat="42.255441" lon="-4.966632">
        <ele>728.182</ele>
        <time>2021-10-15T13:59:37Z</time>
      </trkpt>
      <trkpt lat="42.255453" lon="-4.966804">
        <ele>728.427</ele>
        <time>2021-10-15T13:59:38Z</time>
      </trkpt>
      <trkpt lat="42.255467" lon="-4.967106">
        <ele>728.255</ele>
        <time>2021-10-15T13:59:40Z</time>
      </trkpt>
      <trkpt lat="42.255470" lon="-4.967238">
        <ele>728.218</ele>
        <time>2021-10-15T13:59:41Z</time>
      </trkpt>
      <trkpt lat="42.255476" lon="-4.967447">
        <ele>729.273</ele>
        <time>2021-10-15T13:59:43Z</time>
      </trkpt>
      <trkpt lat="42.255483" lon="-4.967575">
        <ele>729.336</ele>
        <time>2021-10-15T13:59:45Z</time>
      </trkpt>
      <trkpt lat="42.255486" lon="-4.967656">
        <ele>729.617</ele>
        <time>2021-10-15T13:59:47Z</time>
      </trkpt>
      <trkpt lat="42.255442" lon="-4.967703">
        <ele>729.718</ele>
        <time>2021-10-15T13:59:49Z</time>
      </trkpt>
      <trkpt lat="42.255401" lon="-4.967671">
        <ele>729.908</ele>
        <time>2021-10-15T13:59:51Z</time>
      </trkpt>
      <trkpt lat="42.255400" lon="-4.967597">
        <ele>730.361</ele>
        <time>2021-10-15T13:59:54Z</time>
      </trkpt>
      <trkpt lat="42.255422" lon="-4.967514">
        <ele>752.059</ele>
        <time>2021-10-15T14:01:28Z</time>
      </trkpt>
      <trkpt lat="42.255444" lon="-4.967369">
        <ele>788.747</ele>
        <time>2021-10-15T14:01:30Z</time>
      </trkpt>
      <trkpt lat="42.255428" lon="-4.967158">
        <ele>792.931</ele>
        <time>2021-10-15T14:01:32Z</time>
      </trkpt>
      <trkpt lat="42.255424" lon="-4.966974">
        <ele>793.076</ele>
        <time>2021-10-15T14:01:34Z</time>
      </trkpt>
      <trkpt lat="42.255428" lon="-4.966881">
        <ele>793.024</ele>
        <time>2021-10-15T14:01:35Z</time>
      </trkpt>
      <trkpt lat="42.255424" lon="-4.966668">
        <ele>793.027</ele>
        <time>2021-10-15T14:01:37Z</time>
      </trkpt>
      <trkpt lat="42.255419" lon="-4.966554">
        <ele>793.022</ele>
        <time>2021-10-15T14:01:38Z</time>
      </trkpt>
      <trkpt lat="42.255409" lon="-4.966358">
        <ele>793.081</ele>
        <time>2021-10-15T14:01:40Z</time>
      </trkpt>
      <trkpt lat="42.255395" lon="-4.966137">
        <ele>793.061</ele>
        <time>2021-10-15T14:01:42Z</time>
      </trkpt>
      <trkpt lat="42.255390" lon="-4.966011">
        <ele>793.017</ele>
        <time>2021-10-15T14:01:43Z</time>
      </trkpt>
      <trkpt lat="42.255386" lon="-4.965877">
        <ele>793.008</ele>
        <time>2021-10-15T14:01:44Z</time>
      </trkpt>
      <trkpt lat="42.255384" lon="-4.965601">
        <ele>793.036</ele>
        <time>2021-10-15T14:01:46Z</time>
      </trkpt>
      <trkpt lat="42.255372" lon="-4.965346">
        <ele>793.044</ele>
        <time>2021-10-15T14:01:48Z</time>
      </trkpt>
      <trkpt lat="42.255364" lon="-4.965234">
        <ele>793.052</ele>
        <time>2021-10-15T14:01:49Z</time>
      </trkpt>
      <trkpt lat="42.255331" lon="-4.965040">
        <ele>793.036</ele>
        <time>2021-10-15T14:01:51Z</time>
      </trkpt>
      <trkpt lat="42.255307" lon="-4.964958">
        <ele>793.071</ele>
        <time>2021-10-15T14:01:52Z</time>
      </trkpt>
      <trkpt lat="42.255283" lon="-4.964883">
        <ele>793.059</ele>
        <time>2021-10-15T14:01:53Z</time>
      </trkpt>
      <trkpt lat="42.255274" lon="-4.964730">
        <ele>793.092</ele>
        <time>2021-10-15T14:01:55Z</time>
      </trkpt>
      <trkpt lat="42.255295" lon="-4.964644">
        <ele>793.047</ele>
        <time>2021-10-15T14:01:56Z</time>
      </trkpt>
      <trkpt lat="42.255388" lon="-4.964492">
        <ele>792.982</ele>
        <time>2021-10-15T14:01:58Z</time>
      </trkpt>
      <trkpt lat="42.255572" lon="-4.964375">
        <ele>792.943</ele>
        <time>2021-10-15T14:02:00Z</time>
      </trkpt>
      <trkpt lat="42.255692" lon="-4.964331">
        <ele>792.917</ele>
        <time>2021-10-15T14:02:01Z</time>
      </trkpt>
      <trkpt lat="42.255821" lon="-4.964290">
        <ele>792.908</ele>
        <time>2021-10-15T14:02:02Z</time>
      </trkpt>
      <trkpt lat="42.256047" lon="-4.964208">
        <ele>792.996</ele>
        <time>2021-10-15T14:02:04Z</time>
      </trkpt>
      <trkpt lat="42.256282" lon="-4.964117">
        <ele>793.094</ele>
        <time>2021-10-15T14:02:06Z</time>
      </trkpt>
      <trkpt lat="42.256514" lon="-4.964030">
        <ele>793.062</ele>
        <time>2021-10-15T14:02:08Z</time>
      </trkpt>
      <trkpt lat="42.256618" lon="-4.963990">
        <ele>793.056</ele>
        <time>2021-10-15T14:02:09Z</time>
      </trkpt>
      <trkpt lat="42.256714" lon="-4.963950">
        <ele>793.021</ele>
        <time>2021-10-15T14:02:10Z</time>
      </trkpt>
      <trkpt lat="42.256860" lon="-4.963890">
        <ele>793.059</ele>
        <time>2021-10-15T14:02:12Z</time>
      </trkpt>
      <trkpt lat="42.256925" lon="-4.963865">
        <ele>793.052</ele>
        <time>2021-10-15T14:02:13Z</time>
      </trkpt>
      <trkpt lat="42.257026" lon="-4.963784">
        <ele>793.067</ele>
        <time>2021-10-15T14:02:15Z</time>
      </trkpt>
      <trkpt lat="42.257049" lon="-4.963725">
        <ele>793.071</ele>
        <time>2021-10-15T14:02:16Z</time>
      </trkpt>
      <trkpt lat="42.257018" lon="-4.963592">
        <ele>793.041</ele>
        <time>2021-10-15T14:02:18Z</time>
      </trkpt>
      <trkpt lat="42.256898" lon="-4.963442">
        <ele>793.015</ele>
        <time>2021-10-15T14:02:20Z</time>
      </trkpt>
      <trkpt lat="42.256813" lon="-4.963343">
        <ele>793.008</ele>
        <time>2021-10-15T14:02:21Z</time>
      </trkpt>
      <trkpt lat="42.256604" lon="-4.963088">
        <ele>792.925</ele>
        <time>2021-10-15T14:02:23Z</time>
      </trkpt>
      <trkpt lat="42.256483" lon="-4.962939">
        <ele>792.923</ele>
        <time>2021-10-15T14:02:24Z</time>
      </trkpt>
      <trkpt lat="42.256208" lon="-4.962592">
        <ele>792.951</ele>
        <time>2021-10-15T14:02:26Z</time>
      </trkpt>
      <trkpt lat="42.255937" lon="-4.962271">
        <ele>760.315</ele>
        <time>2021-10-15T14:02:28Z</time>
      </trkpt>
      <trkpt lat="42.255803" lon="-4.962118">
        <ele>727.630</ele>
        <time>2021-10-15T14:02:29Z</time>
      </trkpt>
      <trkpt lat="42.255544" lon="-4.961814">
        <ele>728.128</ele>
        <time>2021-10-15T14:02:31Z</time>
      </trkpt>
      <trkpt lat="42.255409" lon="-4.961651">
        <ele>728.491</ele>
        <time>2021-10-15T14:02:32Z</time>
      </trkpt>
      <trkpt lat="42.255138" lon="-4.961333">
        <ele>729.536</ele>
        <time>2021-10-15T14:02:34Z</time>
      </trkpt>
      <trkpt lat="42.254995" lon="-4.961167">
        <ele>730.242</ele>
        <time>2021-10-15T14:02:35Z</time>
      </trkpt>
      <trkpt lat="42.254701" lon="-4.960836">
        <ele>731.622</ele>
        <time>2021-10-15T14:02:37Z</time>
      </trkpt>
      <trkpt lat="42.254555" lon="-4.960667">
        <ele>731.314</ele>
        <time>2021-10-15T14:02:38Z</time>
      </trkpt>
      <trkpt lat="42.254263" lon="-4.960325">
        <ele>732.408</ele>
        <time>2021-10-15T14:02:40Z</time>
      </trkpt>
      <trkpt lat="42.253979" lon="-4.959993">
        <ele>733.562</ele>
        <time>2021-10-15T14:02:42Z</time>
      </trkpt>
      <trkpt lat="42.253718" lon="-4.959693">
        <ele>733.740</ele>
        <time>2021-10-15T14:02:44Z</time>
      </trkpt>
      <trkpt lat="42.253591" lon="-4.959546">
        <ele>733.558</ele>
        <time>2021-10-15T14:02:45Z</time>
      </trkpt>
      <trkpt lat="42.253338" lon="-4.959250">
        <ele>734.162</ele>
        <time>2021-10-15T14:02:47Z</time>
      </trkpt>
      <trkpt lat="42.253207" lon="-4.959099">
        <ele>733.957</ele>
        <time>2021-10-15T14:02:48Z</time>
      </trkpt>
      <trkpt lat="42.252945" lon="-4.958799">
        <ele>733.725</ele>
        <time>2021-10-15T14:02:50Z</time>
      </trkpt>
      <trkpt lat="42.252814" lon="-4.958652">
        <ele>733.438</ele>
        <time>2021-10-15T14:02:51Z</time>
      </trkpt>
      <trkpt lat="42.252563" lon="-4.958380">
        <ele>733.323</ele>
        <time>2021-10-15T14:02:53Z</time>
      </trkpt>
      <trkpt lat="42.252447" lon="-4.958255">
        <ele>733.489</ele>
        <time>2021-10-15T14:02:54Z</time>
      </trkpt>
      <trkpt lat="42.252212" lon="-4.958008">
        <ele>733.906</ele>
        <time>2021-10-15T14:02:56Z</time>
      </trkpt>
      <trkpt lat="42.251969" lon="-4.957767">
        <ele>733.826</ele>
        <time>2021-10-15T14:02:58Z</time>
      </trkpt>
      <trkpt lat="42.251833" lon="-4.957644">
        <ele>732.908</ele>
        <time>2021-10-15T14:02:59Z</time>
      </trkpt>
      <trkpt lat="42.251548" lon="-4.957401">
        <ele>732.746</ele>
        <time>2021-10-15T14:03:01Z</time>
      </trkpt>
      <trkpt lat="42.251395" lon="-4.957281">
        <ele>732.734</ele>
        <time>2021-10-15T14:03:02Z</time>
      </trkpt>
      <trkpt lat="42.251096" lon="-4.957061">
        <ele>733.182</ele>
        <time>2021-10-15T14:03:04Z</time>
      </trkpt>
      <trkpt lat="42.250937" lon="-4.956951">
        <ele>732.766</ele>
        <time>2021-10-15T14:03:05Z</time>
      </trkpt>
      <trkpt lat="42.250614" lon="-4.956745">
        <ele>732.641</ele>
        <time>2021-10-15T14:03:07Z</time>
      </trkpt>
      <trkpt lat="42.250297" lon="-4.956585">
        <ele>732.069</ele>
        <time>2021-10-15T14:03:09Z</time>
      </trkpt>
      <trkpt lat="42.250147" lon="-4.956518">
        <ele>731.582</ele>
        <time>2021-10-15T14:03:10Z</time>
      </trkpt>
      <trkpt lat="42.249866" lon="-4.956399">
        <ele>732.087</ele>
        <time>2021-10-15T14:03:12Z</time>
      </trkpt>
      <trkpt lat="42.249739" lon="-4.956358">
        <ele>732.413</ele>
        <time>2021-10-15T14:03:13Z</time>
      </trkpt>
      <trkpt lat="42.249617" lon="-4.956320">
        <ele>732.743</ele>
        <time>2021-10-15T14:03:14Z</time>
      </trkpt>
      <trkpt lat="42.249405" lon="-4.956280">
        <ele>733.007</ele>
        <time>2021-10-15T14:03:16Z</time>
      </trkpt>
      <trkpt lat="42.249215" lon="-4.956304">
        <ele>733.008</ele>
        <time>2021-10-15T14:03:18Z</time>
      </trkpt>
      <trkpt lat="42.249049" lon="-4.956388">
        <ele>733.979</ele>
        <time>2021-10-15T14:03:20Z</time>
      </trkpt>
      <trkpt lat="42.248879" lon="-4.956407">
        <ele>734.157</ele>
        <time>2021-10-15T14:03:22Z</time>
      </trkpt>
      <trkpt lat="42.248794" lon="-4.956371">
        <ele>734.455</ele>
        <time>2021-10-15T14:03:23Z</time>
      </trkpt>
      <trkpt lat="42.248612" lon="-4.956218">
        <ele>734.879</ele>
        <time>2021-10-15T14:03:25Z</time>
      </trkpt>
      <trkpt lat="42.248510" lon="-4.956146">
        <ele>735.434</ele>
        <time>2021-10-15T14:03:26Z</time>
      </trkpt>
      <trkpt lat="42.248300" lon="-4.956091">
        <ele>736.312</ele>
        <time>2021-10-15T14:03:28Z</time>
      </trkpt>
      <trkpt lat="42.248171" lon="-4.956091">
        <ele>736.465</ele>
        <time>2021-10-15T14:03:29Z</time>
      </trkpt>
      <trkpt lat="42.248030" lon="-4.956101">
        <ele>736.420</ele>
        <time>2021-10-15T14:03:30Z</time>
      </trkpt>
      <trkpt lat="42.247703" lon="-4.956130">
        <ele>736.822</ele>
        <time>2021-10-15T14:03:32Z</time>
      </trkpt>
      <trkpt lat="42.247369" lon="-4.956187">
        <ele>736.062</ele>
        <time>2021-10-15T14:03:34Z</time>
      </trkpt>
      <trkpt lat="42.247192" lon="-4.956223">
        <ele>736.408</ele>
        <time>2021-10-15T14:03:35Z</time>
      </trkpt>
      <trkpt lat="42.246817" lon="-4.956317">
        <ele>736.308</ele>
        <time>2021-10-15T14:03:37Z</time>
      </trkpt>
      <trkpt lat="42.246628" lon="-4.956372">
        <ele>736.670</ele>
        <time>2021-10-15T14:03:38Z</time>
      </trkpt>
      <trkpt lat="42.246434" lon="-4.956436">
        <ele>736.828</ele>
        <time>2021-10-15T14:03:39Z</time>
      </trkpt>
      <trkpt lat="42.246030" lon="-4.956588">
        <ele>736.666</ele>
        <time>2021-10-15T14:03:41Z</time>
      </trkpt>
      <trkpt lat="42.245824" lon="-4.956675">
        <ele>736.510</ele>
        <time>2021-10-15T14:03:42Z</time>
      </trkpt>
      <trkpt lat="42.245617" lon="-4.956766">
        <ele>736.595</ele>
        <time>2021-10-15T14:03:43Z</time>
      </trkpt>
      <trkpt lat="42.245197" lon="-4.956957">
        <ele>736.733</ele>
        <time>2021-10-15T14:03:45Z</time>
      </trkpt>
      <trkpt lat="42.244985" lon="-4.957054">
        <ele>736.766</ele>
        <time>2021-10-15T14:03:46Z</time>
      </trkpt>
      <trkpt lat="42.244561" lon="-4.957256">
        <ele>735.751</ele>
        <time>2021-10-15T14:03:48Z</time>
      </trkpt>
      <trkpt lat="42.244350" lon="-4.957356">
        <ele>735.341</ele>
        <time>2021-10-15T14:03:49Z</time>
      </trkpt>
      <trkpt lat="42.244140" lon="-4.957455">
        <ele>735.181</ele>
        <time>2021-10-15T14:03:50Z</time>
      </trkpt>
      <trkpt lat="42.243932" lon="-4.957553">
        <ele>734.809</ele>
        <time>2021-10-15T14:03:51Z</time>
      </trkpt>
      <trkpt lat="42.243519" lon="-4.957747">
        <ele>733.408</ele>
        <time>2021-10-15T14:03:53Z</time>
      </trkpt>
      <trkpt lat="42.243312" lon="-4.957843">
        <ele>733.242</ele>
        <time>2021-10-15T14:03:54Z</time>
      </trkpt>
      <trkpt lat="42.242891" lon="-4.958041">
        <ele>732.580</ele>
        <time>2021-10-15T14:03:56Z</time>
      </trkpt>
      <trkpt lat="42.242502" lon="-4.958226">
        <ele>731.478</ele>
        <time>2021-10-15T14:03:58Z</time>
      </trkpt>
      <trkpt lat="42.242309" lon="-4.958316">
        <ele>731.252</ele>
        <time>2021-10-15T14:03:59Z</time>
      </trkpt>
      <trkpt lat="42.241946" lon="-4.958485">
        <ele>730.497</ele>
        <time>2021-10-15T14:04:01Z</time>
      </trkpt>
      <trkpt lat="42.241768" lon="-4.958571">
        <ele>729.975</ele>
        <time>2021-10-15T14:04:02Z</time>
      </trkpt>
      <trkpt lat="42.241434" lon="-4.958730">
        <ele>728.248</ele>
        <time>2021-10-15T14:04:04Z</time>
      </trkpt>
      <trkpt lat="42.241087" lon="-4.958895">
        <ele>727.863</ele>
        <time>2021-10-15T14:04:06Z</time>
      </trkpt>
      <trkpt lat="42.240723" lon="-4.959077">
        <ele>727.837</ele>
        <time>2021-10-15T14:04:08Z</time>
      </trkpt>
      <trkpt lat="42.240353" lon="-4.959281">
        <ele>727.349</ele>
        <time>2021-10-15T14:04:10Z</time>
      </trkpt>
      <trkpt lat="42.240170" lon="-4.959392">
        <ele>726.913</ele>
        <time>2021-10-15T14:04:11Z</time>
      </trkpt>
      <trkpt lat="42.239810" lon="-4.959627">
        <ele>726.108</ele>
        <time>2021-10-15T14:04:13Z</time>
      </trkpt>
      <trkpt lat="42.239465" lon="-4.959909">
        <ele>726.221</ele>
        <time>2021-10-15T14:04:15Z</time>
      </trkpt>
      <trkpt lat="42.239296" lon="-4.960067">
        <ele>726.769</ele>
        <time>2021-10-15T14:04:16Z</time>
      </trkpt>
      <trkpt lat="42.238970" lon="-4.960423">
        <ele>726.527</ele>
        <time>2021-10-15T14:04:18Z</time>
      </trkpt>
      <trkpt lat="42.238669" lon="-4.960815">
        <ele>726.261</ele>
        <time>2021-10-15T14:04:20Z</time>
      </trkpt>
      <trkpt lat="42.238531" lon="-4.961027">
        <ele>726.336</ele>
        <time>2021-10-15T14:04:21Z</time>
      </trkpt>
      <trkpt lat="42.238283" lon="-4.961464">
        <ele>726.674</ele>
        <time>2021-10-15T14:04:23Z</time>
      </trkpt>
      <trkpt lat="42.238169" lon="-4.961692">
        <ele>726.217</ele>
        <time>2021-10-15T14:04:24Z</time>
      </trkpt>
      <trkpt lat="42.238063" lon="-4.961921">
        <ele>726.742</ele>
        <time>2021-10-15T14:04:25Z</time>
      </trkpt>
      <trkpt lat="42.237959" lon="-4.962161">
        <ele>727.084</ele>
        <time>2021-10-15T14:04:26Z</time>
      </trkpt>
      <trkpt lat="42.237771" lon="-4.962624">
        <ele>727.207</ele>
        <time>2021-10-15T14:04:28Z</time>
      </trkpt>
      <trkpt lat="42.237606" lon="-4.963094">
        <ele>727.117</ele>
        <time>2021-10-15T14:04:30Z</time>
      </trkpt>
      <trkpt lat="42.237529" lon="-4.963318">
        <ele>727.308</ele>
        <time>2021-10-15T14:04:31Z</time>
      </trkpt>
      <trkpt lat="42.237454" lon="-4.963546">
        <ele>727.716</ele>
        <time>2021-10-15T14:04:32Z</time>
      </trkpt>
      <trkpt lat="42.237313" lon="-4.963971">
        <ele>727.854</ele>
        <time>2021-10-15T14:04:34Z</time>
      </trkpt>
      <trkpt lat="42.237173" lon="-4.964404">
        <ele>728.532</ele>
        <time>2021-10-15T14:04:36Z</time>
      </trkpt>
      <trkpt lat="42.237027" lon="-4.964835">
        <ele>729.886</ele>
        <time>2021-10-15T14:04:38Z</time>
      </trkpt>
      <trkpt lat="42.236946" lon="-4.965056">
        <ele>729.661</ele>
        <time>2021-10-15T14:04:39Z</time>
      </trkpt>
      <trkpt lat="42.236863" lon="-4.965278">
        <ele>729.329</ele>
        <time>2021-10-15T14:04:40Z</time>
      </trkpt>
      <trkpt lat="42.236686" lon="-4.965714">
        <ele>729.442</ele>
        <time>2021-10-15T14:04:42Z</time>
      </trkpt>
      <trkpt lat="42.236590" lon="-4.965935">
        <ele>729.977</ele>
        <time>2021-10-15T14:04:43Z</time>
      </trkpt>
      <trkpt lat="42.236387" lon="-4.966359">
        <ele>729.973</ele>
        <time>2021-10-15T14:04:45Z</time>
      </trkpt>
      <trkpt lat="42.236166" lon="-4.966760">
        <ele>729.485</ele>
        <time>2021-10-15T14:04:47Z</time>
      </trkpt>
      <trkpt lat="42.235928" lon="-4.967125">
        <ele>728.313</ele>
        <time>2021-10-15T14:04:49Z</time>
      </trkpt>
      <trkpt lat="42.235662" lon="-4.967464">
        <ele>728.208</ele>
        <time>2021-10-15T14:04:51Z</time>
      </trkpt>
      <trkpt lat="42.235363" lon="-4.967785">
        <ele>727.535</ele>
        <time>2021-10-15T14:04:53Z</time>
      </trkpt>
      <trkpt lat="42.235198" lon="-4.967944">
        <ele>727.333</ele>
        <time>2021-10-15T14:04:54Z</time>
      </trkpt>
      <trkpt lat="42.234833" lon="-4.968235">
        <ele>725.961</ele>
        <time>2021-10-15T14:04:56Z</time>
      </trkpt>
      <trkpt lat="42.234439" lon="-4.968477">
        <ele>724.555</ele>
        <time>2021-10-15T14:04:58Z</time>
      </trkpt>
      <trkpt lat="42.234003" lon="-4.968673">
        <ele>723.230</ele>
        <time>2021-10-15T14:05:00Z</time>
      </trkpt>
      <trkpt lat="42.233536" lon="-4.968822">
        <ele>722.738</ele>
        <time>2021-10-15T14:05:02Z</time>
      </trkpt>
      <trkpt lat="42.233077" lon="-4.968946">
        <ele>722.371</ele>
        <time>2021-10-15T14:05:04Z</time>
      </trkpt>
      <trkpt lat="42.232625" lon="-4.969068">
        <ele>721.856</ele>
        <time>2021-10-15T14:05:06Z</time>
      </trkpt>
      <trkpt lat="42.232176" lon="-4.969181">
        <ele>721.371</ele>
        <time>2021-10-15T14:05:08Z</time>
      </trkpt>
      <trkpt lat="42.231952" lon="-4.969230">
        <ele>721.641</ele>
        <time>2021-10-15T14:05:09Z</time>
      </trkpt>
      <trkpt lat="42.231724" lon="-4.969277">
        <ele>721.915</ele>
        <time>2021-10-15T14:05:10Z</time>
      </trkpt>
      <trkpt lat="42.231265" lon="-4.969344">
        <ele>722.008</ele>
        <time>2021-10-15T14:05:12Z</time>
      </trkpt>
      <trkpt lat="42.230811" lon="-4.969416">
        <ele>722.645</ele>
        <time>2021-10-15T14:05:14Z</time>
      </trkpt>
      <trkpt lat="42.230366" lon="-4.969493">
        <ele>721.653</ele>
        <time>2021-10-15T14:05:16Z</time>
      </trkpt>
      <trkpt lat="42.229937" lon="-4.969562">
        <ele>722.651</ele>
        <time>2021-10-15T14:05:18Z</time>
      </trkpt>
      <trkpt lat="42.229728" lon="-4.969599">
        <ele>722.345</ele>
        <time>2021-10-15T14:05:19Z</time>
      </trkpt>
      <trkpt lat="42.229522" lon="-4.969634">
        <ele>722.150</ele>
        <time>2021-10-15T14:05:20Z</time>
      </trkpt>
      <trkpt lat="42.229113" lon="-4.969697">
        <ele>722.398</ele>
        <time>2021-10-15T14:05:22Z</time>
      </trkpt>
      <trkpt lat="42.228908" lon="-4.969729">
        <ele>722.331</ele>
        <time>2021-10-15T14:05:23Z</time>
      </trkpt>
      <trkpt lat="42.228495" lon="-4.969789">
        <ele>723.146</ele>
        <time>2021-10-15T14:05:25Z</time>
      </trkpt>
      <trkpt lat="42.228281" lon="-4.969815">
        <ele>723.137</ele>
        <time>2021-10-15T14:05:26Z</time>
      </trkpt>
      <trkpt lat="42.227890" lon="-4.969864">
        <ele>722.349</ele>
        <time>2021-10-15T14:05:28Z</time>
      </trkpt>
      <trkpt lat="42.227690" lon="-4.969889">
        <ele>722.313</ele>
        <time>2021-10-15T14:05:29Z</time>
      </trkpt>
      <trkpt lat="42.227300" lon="-4.969930">
        <ele>722.108</ele>
        <time>2021-10-15T14:05:31Z</time>
      </trkpt>
      <trkpt lat="42.227091" lon="-4.969952">
        <ele>721.921</ele>
        <time>2021-10-15T14:05:32Z</time>
      </trkpt>
      <trkpt lat="42.226687" lon="-4.969993">
        <ele>721.449</ele>
        <time>2021-10-15T14:05:34Z</time>
      </trkpt>
      <trkpt lat="42.226257" lon="-4.970040">
        <ele>721.097</ele>
        <time>2021-10-15T14:05:36Z</time>
      </trkpt>
      <trkpt lat="42.226037" lon="-4.970064">
        <ele>721.511</ele>
        <time>2021-10-15T14:05:37Z</time>
      </trkpt>
      <trkpt lat="42.225814" lon="-4.970090">
        <ele>721.036</ele>
        <time>2021-10-15T14:05:38Z</time>
      </trkpt>
      <trkpt lat="42.225365" lon="-4.970141">
        <ele>720.374</ele>
        <time>2021-10-15T14:05:40Z</time>
      </trkpt>
      <trkpt lat="42.224932" lon="-4.970187">
        <ele>720.437</ele>
        <time>2021-10-15T14:05:42Z</time>
      </trkpt>
      <trkpt lat="42.224731" lon="-4.970205">
        <ele>720.642</ele>
        <time>2021-10-15T14:05:43Z</time>
      </trkpt>
      <trkpt lat="42.224538" lon="-4.970215">
        <ele>721.195</ele>
        <time>2021-10-15T14:05:44Z</time>
      </trkpt>
      <trkpt lat="42.224160" lon="-4.970223">
        <ele>720.349</ele>
        <time>2021-10-15T14:05:46Z</time>
      </trkpt>
      <trkpt lat="42.223774" lon="-4.970244">
        <ele>720.723</ele>
        <time>2021-10-15T14:05:48Z</time>
      </trkpt>
      <trkpt lat="42.223367" lon="-4.970318">
        <ele>721.808</ele>
        <time>2021-10-15T14:05:50Z</time>
      </trkpt>
      <trkpt lat="42.223162" lon="-4.970379">
        <ele>721.867</ele>
        <time>2021-10-15T14:05:51Z</time>
      </trkpt>
      <trkpt lat="42.222747" lon="-4.970518">
        <ele>722.585</ele>
        <time>2021-10-15T14:05:53Z</time>
      </trkpt>
      <trkpt lat="42.222537" lon="-4.970584">
        <ele>722.313</ele>
        <time>2021-10-15T14:05:54Z</time>
      </trkpt>
      <trkpt lat="42.222095" lon="-4.970690">
        <ele>722.597</ele>
        <time>2021-10-15T14:05:56Z</time>
      </trkpt>
      <trkpt lat="42.221644" lon="-4.970752">
        <ele>721.942</ele>
        <time>2021-10-15T14:05:58Z</time>
      </trkpt>
      <trkpt lat="42.221408" lon="-4.970779">
        <ele>721.910</ele>
        <time>2021-10-15T14:05:59Z</time>
      </trkpt>
      <trkpt lat="42.221168" lon="-4.970809">
        <ele>721.913</ele>
        <time>2021-10-15T14:06:00Z</time>
      </trkpt>
      <trkpt lat="42.220928" lon="-4.970844">
        <ele>721.978</ele>
        <time>2021-10-15T14:06:01Z</time>
      </trkpt>
      <trkpt lat="42.220681" lon="-4.970874">
        <ele>721.619</ele>
        <time>2021-10-15T14:06:02Z</time>
      </trkpt>
      <trkpt lat="42.220209" lon="-4.970941">
        <ele>721.209</ele>
        <time>2021-10-15T14:06:04Z</time>
      </trkpt>
      <trkpt lat="42.219968" lon="-4.970977">
        <ele>721.319</ele>
        <time>2021-10-15T14:06:05Z</time>
      </trkpt>
      <trkpt lat="42.219727" lon="-4.971013">
        <ele>721.408</ele>
        <time>2021-10-15T14:06:06Z</time>
      </trkpt>
      <trkpt lat="42.219482" lon="-4.971045">
        <ele>720.789</ele>
        <time>2021-10-15T14:06:07Z</time>
      </trkpt>
      <trkpt lat="42.218994" lon="-4.971109">
        <ele>720.897</ele>
        <time>2021-10-15T14:06:09Z</time>
      </trkpt>
      <trkpt lat="42.218504" lon="-4.971163">
        <ele>719.715</ele>
        <time>2021-10-15T14:06:11Z</time>
      </trkpt>
      <trkpt lat="42.218006" lon="-4.971195">
        <ele>719.549</ele>
        <time>2021-10-15T14:06:13Z</time>
      </trkpt>
      <trkpt lat="42.217756" lon="-4.971205">
        <ele>719.754</ele>
        <time>2021-10-15T14:06:14Z</time>
      </trkpt>
      <trkpt lat="42.217249" lon="-4.971233">
        <ele>719.382</ele>
        <time>2021-10-15T14:06:16Z</time>
      </trkpt>
      <trkpt lat="42.216993" lon="-4.971246">
        <ele>719.065</ele>
        <time>2021-10-15T14:06:17Z</time>
      </trkpt>
      <trkpt lat="42.216488" lon="-4.971263">
        <ele>718.540</ele>
        <time>2021-10-15T14:06:19Z</time>
      </trkpt>
      <trkpt lat="42.215990" lon="-4.971278">
        <ele>718.492</ele>
        <time>2021-10-15T14:06:21Z</time>
      </trkpt>
      <trkpt lat="42.215512" lon="-4.971295">
        <ele>719.273</ele>
        <time>2021-10-15T14:06:23Z</time>
      </trkpt>
      <trkpt lat="42.215277" lon="-4.971303">
        <ele>719.020</ele>
        <time>2021-10-15T14:06:24Z</time>
      </trkpt>
      <trkpt lat="42.215044" lon="-4.971310">
        <ele>718.608</ele>
        <time>2021-10-15T14:06:25Z</time>
      </trkpt>
      <trkpt lat="42.214805" lon="-4.971317">
        <ele>718.637</ele>
        <time>2021-10-15T14:06:26Z</time>
      </trkpt>
      <trkpt lat="42.214347" lon="-4.971336">
        <ele>719.335</ele>
        <time>2021-10-15T14:06:28Z</time>
      </trkpt>
      <trkpt lat="42.214112" lon="-4.971348">
        <ele>718.023</ele>
        <time>2021-10-15T14:06:29Z</time>
      </trkpt>
      <trkpt lat="42.213644" lon="-4.971362">
        <ele>718.427</ele>
        <time>2021-10-15T14:06:31Z</time>
      </trkpt>
      <trkpt lat="42.213406" lon="-4.971374">
        <ele>718.062</ele>
        <time>2021-10-15T14:06:32Z</time>
      </trkpt>
      <trkpt lat="42.212965" lon="-4.971394">
        <ele>718.160</ele>
        <time>2021-10-15T14:06:34Z</time>
      </trkpt>
      <trkpt lat="42.212745" lon="-4.971400">
        <ele>717.923</ele>
        <time>2021-10-15T14:06:35Z</time>
      </trkpt>
      <trkpt lat="42.212313" lon="-4.971416">
        <ele>718.198</ele>
        <time>2021-10-15T14:06:37Z</time>
      </trkpt>
      <trkpt lat="42.212095" lon="-4.971423">
        <ele>718.295</ele>
        <time>2021-10-15T14:06:38Z</time>
      </trkpt>
      <trkpt lat="42.211875" lon="-4.971429">
        <ele>717.749</ele>
        <time>2021-10-15T14:06:39Z</time>
      </trkpt>
      <trkpt lat="42.211445" lon="-4.971440">
        <ele>718.223</ele>
        <time>2021-10-15T14:06:41Z</time>
      </trkpt>
      <trkpt lat="42.211047" lon="-4.971456">
        <ele>718.508</ele>
        <time>2021-10-15T14:06:43Z</time>
      </trkpt>
      <trkpt lat="42.210657" lon="-4.971474">
        <ele>718.167</ele>
        <time>2021-10-15T14:06:45Z</time>
      </trkpt>
      <trkpt lat="42.210259" lon="-4.971488">
        <ele>718.165</ele>
        <time>2021-10-15T14:06:47Z</time>
      </trkpt>
      <trkpt lat="42.209851" lon="-4.971502">
        <ele>718.223</ele>
        <time>2021-10-15T14:06:49Z</time>
      </trkpt>
      <trkpt lat="42.209437" lon="-4.971514">
        <ele>717.797</ele>
        <time>2021-10-15T14:06:51Z</time>
      </trkpt>
      <trkpt lat="42.209227" lon="-4.971520">
        <ele>718.052</ele>
        <time>2021-10-15T14:06:52Z</time>
      </trkpt>
      <trkpt lat="42.209015" lon="-4.971527">
        <ele>718.180</ele>
        <time>2021-10-15T14:06:53Z</time>
      </trkpt>
      <trkpt lat="42.208585" lon="-4.971539">
        <ele>717.713</ele>
        <time>2021-10-15T14:06:55Z</time>
      </trkpt>
      <trkpt lat="42.208360" lon="-4.971545">
        <ele>717.758</ele>
        <time>2021-10-15T14:06:56Z</time>
      </trkpt>
      <trkpt lat="42.207941" lon="-4.971561">
        <ele>717.878</ele>
        <time>2021-10-15T14:06:58Z</time>
      </trkpt>
      <trkpt lat="42.207733" lon="-4.971573">
        <ele>717.333</ele>
        <time>2021-10-15T14:06:59Z</time>
      </trkpt>
      <trkpt lat="42.207534" lon="-4.971585">
        <ele>717.326</ele>
        <time>2021-10-15T14:07:00Z</time>
      </trkpt>
      <trkpt lat="42.207145" lon="-4.971601">
        <ele>717.208</ele>
        <time>2021-10-15T14:07:02Z</time>
      </trkpt>
      <trkpt lat="42.206763" lon="-4.971619">
        <ele>718.285</ele>
        <time>2021-10-15T14:07:04Z</time>
      </trkpt>
      <trkpt lat="42.206562" lon="-4.971630">
        <ele>718.093</ele>
        <time>2021-10-15T14:07:05Z</time>
      </trkpt>
      <trkpt lat="42.206155" lon="-4.971642">
        <ele>717.581</ele>
        <time>2021-10-15T14:07:07Z</time>
      </trkpt>
      <trkpt lat="42.205734" lon="-4.971652">
        <ele>718.015</ele>
        <time>2021-10-15T14:07:09Z</time>
      </trkpt>
      <trkpt lat="42.205517" lon="-4.971663">
        <ele>718.010</ele>
        <time>2021-10-15T14:07:10Z</time>
      </trkpt>
      <trkpt lat="42.205297" lon="-4.971675">
        <ele>717.898</ele>
        <time>2021-10-15T14:07:11Z</time>
      </trkpt>
      <trkpt lat="42.204858" lon="-4.971691">
        <ele>718.561</ele>
        <time>2021-10-15T14:07:13Z</time>
      </trkpt>
      <trkpt lat="42.204636" lon="-4.971697">
        <ele>719.026</ele>
        <time>2021-10-15T14:07:14Z</time>
      </trkpt>
      <trkpt lat="42.204194" lon="-4.971711">
        <ele>719.124</ele>
        <time>2021-10-15T14:07:16Z</time>
      </trkpt>
      <trkpt lat="42.203970" lon="-4.971719">
        <ele>718.904</ele>
        <time>2021-10-15T14:07:17Z</time>
      </trkpt>
      <trkpt lat="42.203518" lon="-4.971742">
        <ele>718.714</ele>
        <time>2021-10-15T14:07:19Z</time>
      </trkpt>
      <trkpt lat="42.203289" lon="-4.971750">
        <ele>718.908</ele>
        <time>2021-10-15T14:07:20Z</time>
      </trkpt>
      <trkpt lat="42.202830" lon="-4.971767">
        <ele>719.580</ele>
        <time>2021-10-15T14:07:22Z</time>
      </trkpt>
      <trkpt lat="42.202597" lon="-4.971775">
        <ele>719.488</ele>
        <time>2021-10-15T14:07:23Z</time>
      </trkpt>
      <trkpt lat="42.202363" lon="-4.971783">
        <ele>719.356</ele>
        <time>2021-10-15T14:07:24Z</time>
      </trkpt>
      <trkpt lat="42.201887" lon="-4.971802">
        <ele>718.660</ele>
        <time>2021-10-15T14:07:26Z</time>
      </trkpt>
      <trkpt lat="42.201416" lon="-4.971822">
        <ele>719.215</ele>
        <time>2021-10-15T14:07:28Z</time>
      </trkpt>
      <trkpt lat="42.200928" lon="-4.971841">
        <ele>718.863</ele>
        <time>2021-10-15T14:07:30Z</time>
      </trkpt>
      <trkpt lat="42.200424" lon="-4.971861">
        <ele>718.416</ele>
        <time>2021-10-15T14:07:32Z</time>
      </trkpt>
      <trkpt lat="42.199932" lon="-4.971880">
        <ele>718.021</ele>
        <time>2021-10-15T14:07:34Z</time>
      </trkpt>
      <trkpt lat="42.199430" lon="-4.971898">
        <ele>717.419</ele>
        <time>2021-10-15T14:07:36Z</time>
      </trkpt>
      <trkpt lat="42.198927" lon="-4.971919">
        <ele>716.109</ele>
        <time>2021-10-15T14:07:38Z</time>
      </trkpt>
      <trkpt lat="42.198427" lon="-4.971940">
        <ele>717.519</ele>
        <time>2021-10-15T14:07:40Z</time>
      </trkpt>
      <trkpt lat="42.198185" lon="-4.971950">
        <ele>717.508</ele>
        <time>2021-10-15T14:07:41Z</time>
      </trkpt>
      <trkpt lat="42.197735" lon="-4.971961">
        <ele>717.049</ele>
        <time>2021-10-15T14:07:43Z</time>
      </trkpt>
      <trkpt lat="42.197324" lon="-4.971968">
        <ele>716.527</ele>
        <time>2021-10-15T14:07:45Z</time>
      </trkpt>
      <trkpt lat="42.196905" lon="-4.971979">
        <ele>715.955</ele>
        <time>2021-10-15T14:07:47Z</time>
      </trkpt>
      <trkpt lat="42.196463" lon="-4.971988">
        <ele>716.039</ele>
        <time>2021-10-15T14:07:49Z</time>
      </trkpt>
      <trkpt lat="42.195996" lon="-4.972003">
        <ele>716.264</ele>
        <time>2021-10-15T14:07:51Z</time>
      </trkpt>
      <trkpt lat="42.195515" lon="-4.972054">
        <ele>716.042</ele>
        <time>2021-10-15T14:07:53Z</time>
      </trkpt>
      <trkpt lat="42.195020" lon="-4.972087">
        <ele>716.245</ele>
        <time>2021-10-15T14:07:55Z</time>
      </trkpt>
      <trkpt lat="42.194759" lon="-4.972095">
        <ele>715.810</ele>
        <time>2021-10-15T14:07:56Z</time>
      </trkpt>
      <trkpt lat="42.194268" lon="-4.972111">
        <ele>716.023</ele>
        <time>2021-10-15T14:07:58Z</time>
      </trkpt>
      <trkpt lat="42.193787" lon="-4.972129">
        <ele>715.783</ele>
        <time>2021-10-15T14:08:00Z</time>
      </trkpt>
      <trkpt lat="42.193583" lon="-4.972136">
        <ele>716.111</ele>
        <time>2021-10-15T14:08:01Z</time>
      </trkpt>
      <trkpt lat="42.193407" lon="-4.972142">
        <ele>715.808</ele>
        <time>2021-10-15T14:08:02Z</time>
      </trkpt>
      <trkpt lat="42.193148" lon="-4.972152">
        <ele>715.160</ele>
        <time>2021-10-15T14:08:04Z</time>
      </trkpt>
      <trkpt lat="42.193039" lon="-4.972156">
        <ele>715.418</ele>
        <time>2021-10-15T14:08:05Z</time>
      </trkpt>
      <trkpt lat="42.192847" lon="-4.972160">
        <ele>715.716</ele>
        <time>2021-10-15T14:08:07Z</time>
      </trkpt>
      <trkpt lat="42.192692" lon="-4.972166">
        <ele>715.390</ele>
        <time>2021-10-15T14:08:09Z</time>
      </trkpt>
      <trkpt lat="42.192567" lon="-4.972171">
        <ele>715.365</ele>
        <time>2021-10-15T14:08:11Z</time>
      </trkpt>
      <trkpt lat="42.192470" lon="-4.972135">
        <ele>715.363</ele>
        <time>2021-10-15T14:08:13Z</time>
      </trkpt>
      <trkpt lat="42.192440" lon="-4.972085">
        <ele>715.616</ele>
        <time>2021-10-15T14:08:14Z</time>
      </trkpt>
      <trkpt lat="42.192433" lon="-4.971932">
        <ele>715.941</ele>
        <time>2021-10-15T14:08:16Z</time>
      </trkpt>
      <trkpt lat="42.192433" lon="-4.971705">
        <ele>716.258</ele>
        <time>2021-10-15T14:08:18Z</time>
      </trkpt>
      <trkpt lat="42.192420" lon="-4.971563">
        <ele>716.152</ele>
        <time>2021-10-15T14:08:19Z</time>
      </trkpt>
      <trkpt lat="42.192404" lon="-4.971408">
        <ele>715.917</ele>
        <time>2021-10-15T14:08:20Z</time>
      </trkpt>
      <trkpt lat="42.192378" lon="-4.971081">
        <ele>716.808</ele>
        <time>2021-10-15T14:08:22Z</time>
      </trkpt>
      <trkpt lat="42.192364" lon="-4.970914">
        <ele>717.233</ele>
        <time>2021-10-15T14:08:23Z</time>
      </trkpt>
      <trkpt lat="42.192351" lon="-4.970760">
        <ele>717.291</ele>
        <time>2021-10-15T14:08:24Z</time>
      </trkpt>
      <trkpt lat="42.192337" lon="-4.970615">
        <ele>717.469</ele>
        <time>2021-10-15T14:08:25Z</time>
      </trkpt>
      <trkpt lat="42.192324" lon="-4.970470">
        <ele>717.653</ele>
        <time>2021-10-15T14:08:26Z</time>
      </trkpt>
      <trkpt lat="42.192299" lon="-4.970169">
        <ele>716.928</ele>
        <time>2021-10-15T14:08:28Z</time>
      </trkpt>
      <trkpt lat="42.192266" lon="-4.969822">
        <ele>717.266</ele>
        <time>2021-10-15T14:08:30Z</time>
      </trkpt>
      <trkpt lat="42.192250" lon="-4.969634">
        <ele>717.259</ele>
        <time>2021-10-15T14:08:31Z</time>
      </trkpt>
      <trkpt lat="42.192237" lon="-4.969433">
        <ele>717.414</ele>
        <time>2021-10-15T14:08:32Z</time>
      </trkpt>
      <trkpt lat="42.192231" lon="-4.969050">
        <ele>717.183</ele>
        <time>2021-10-15T14:08:34Z</time>
      </trkpt>
      <trkpt lat="42.192246" lon="-4.968859">
        <ele>717.125</ele>
        <time>2021-10-15T14:08:35Z</time>
      </trkpt>
      <trkpt lat="42.192270" lon="-4.968669">
        <ele>717.817</ele>
        <time>2021-10-15T14:08:36Z</time>
      </trkpt>
      <trkpt lat="42.192330" lon="-4.968282">
        <ele>718.408</ele>
        <time>2021-10-15T14:08:38Z</time>
      </trkpt>
      <trkpt lat="42.192360" lon="-4.968089">
        <ele>718.666</ele>
        <time>2021-10-15T14:08:39Z</time>
      </trkpt>
      <trkpt lat="42.192387" lon="-4.967904">
        <ele>718.154</ele>
        <time>2021-10-15T14:08:40Z</time>
      </trkpt>
      <trkpt lat="42.192406" lon="-4.967721">
        <ele>717.432</ele>
        <time>2021-10-15T14:08:41Z</time>
      </trkpt>
      <trkpt lat="42.192396" lon="-4.967357">
        <ele>717.456</ele>
        <time>2021-10-15T14:08:43Z</time>
      </trkpt>
      <trkpt lat="42.192359" lon="-4.967179">
        <ele>717.261</ele>
        <time>2021-10-15T14:08:44Z</time>
      </trkpt>
      <trkpt lat="42.192303" lon="-4.967004">
        <ele>716.729</ele>
        <time>2021-10-15T14:08:45Z</time>
      </trkpt>
      <trkpt lat="42.192154" lon="-4.966655">
        <ele>716.552</ele>
        <time>2021-10-15T14:08:47Z</time>
      </trkpt>
      <trkpt lat="42.192074" lon="-4.966476">
        <ele>716.447</ele>
        <time>2021-10-15T14:08:48Z</time>
      </trkpt>
      <trkpt lat="42.191993" lon="-4.966291">
        <ele>716.514</ele>
        <time>2021-10-15T14:08:49Z</time>
      </trkpt>
      <trkpt lat="42.191828" lon="-4.965911">
        <ele>716.954</ele>
        <time>2021-10-15T14:08:51Z</time>
      </trkpt>
      <trkpt lat="42.191744" lon="-4.965717">
        <ele>716.609</ele>
        <time>2021-10-15T14:08:52Z</time>
      </trkpt>
      <trkpt lat="42.191661" lon="-4.965524">
        <ele>716.108</ele>
        <time>2021-10-15T14:08:53Z</time>
      </trkpt>
      <trkpt lat="42.191501" lon="-4.965153">
        <ele>716.179</ele>
        <time>2021-10-15T14:08:55Z</time>
      </trkpt>
      <trkpt lat="42.191412" lon="-4.964971">
        <ele>715.847</ele>
        <time>2021-10-15T14:08:56Z</time>
      </trkpt>
      <trkpt lat="42.191201" lon="-4.964649">
        <ele>715.435</ele>
        <time>2021-10-15T14:08:58Z</time>
      </trkpt>
      <trkpt lat="42.190917" lon="-4.964387">
        <ele>714.459</ele>
        <time>2021-10-15T14:09:00Z</time>
      </trkpt>
      <trkpt lat="42.190568" lon="-4.964208">
        <ele>714.524</ele>
        <time>2021-10-15T14:09:02Z</time>
      </trkpt>
      <trkpt lat="42.190208" lon="-4.964033">
        <ele>716.322</ele>
        <time>2021-10-15T14:09:04Z</time>
      </trkpt>
      <trkpt lat="42.190033" lon="-4.963942">
        <ele>716.545</ele>
        <time>2021-10-15T14:09:05Z</time>
      </trkpt>
      <trkpt lat="42.189681" lon="-4.963764">
        <ele>717.440</ele>
        <time>2021-10-15T14:09:07Z</time>
      </trkpt>
      <trkpt lat="42.189505" lon="-4.963675">
        <ele>718.138</ele>
        <time>2021-10-15T14:09:08Z</time>
      </trkpt>
      <trkpt lat="42.189154" lon="-4.963498">
        <ele>718.270</ele>
        <time>2021-10-15T14:09:10Z</time>
      </trkpt>
      <trkpt lat="42.188978" lon="-4.963409">
        <ele>718.117</ele>
        <time>2021-10-15T14:09:11Z</time>
      </trkpt>
      <trkpt lat="42.188618" lon="-4.963221">
        <ele>719.008</ele>
        <time>2021-10-15T14:09:13Z</time>
      </trkpt>
      <trkpt lat="42.188252" lon="-4.963034">
        <ele>718.931</ele>
        <time>2021-10-15T14:09:15Z</time>
      </trkpt>
      <trkpt lat="42.187884" lon="-4.962795">
        <ele>718.979</ele>
        <time>2021-10-15T14:09:17Z</time>
      </trkpt>
      <trkpt lat="42.187703" lon="-4.962654">
        <ele>718.467</ele>
        <time>2021-10-15T14:09:18Z</time>
      </trkpt>
      <trkpt lat="42.187517" lon="-4.962510">
        <ele>718.131</ele>
        <time>2021-10-15T14:09:19Z</time>
      </trkpt>
      <trkpt lat="42.187136" lon="-4.962217">
        <ele>717.046</ele>
        <time>2021-10-15T14:09:21Z</time>
      </trkpt>
      <trkpt lat="42.186940" lon="-4.962066">
        <ele>716.854</ele>
        <time>2021-10-15T14:09:22Z</time>
      </trkpt>
      <trkpt lat="42.186547" lon="-4.961764">
        <ele>716.677</ele>
        <time>2021-10-15T14:09:24Z</time>
      </trkpt>
      <trkpt lat="42.186137" lon="-4.961458">
        <ele>715.692</ele>
        <time>2021-10-15T14:09:26Z</time>
      </trkpt>
      <trkpt lat="42.185737" lon="-4.961157">
        <ele>717.482</ele>
        <time>2021-10-15T14:09:28Z</time>
      </trkpt>
      <trkpt lat="42.185332" lon="-4.960853">
        <ele>716.243</ele>
        <time>2021-10-15T14:09:30Z</time>
      </trkpt>
      <trkpt lat="42.184964" lon="-4.960577">
        <ele>716.217</ele>
        <time>2021-10-15T14:09:32Z</time>
      </trkpt>
      <trkpt lat="42.184637" lon="-4.960335">
        <ele>717.008</ele>
        <time>2021-10-15T14:09:34Z</time>
      </trkpt>
      <trkpt lat="42.184302" lon="-4.960082">
        <ele>717.576</ele>
        <time>2021-10-15T14:09:36Z</time>
      </trkpt>
      <trkpt lat="42.183989" lon="-4.959845">
        <ele>718.774</ele>
        <time>2021-10-15T14:09:38Z</time>
      </trkpt>
      <trkpt lat="42.183685" lon="-4.959623">
        <ele>719.292</ele>
        <time>2021-10-15T14:09:40Z</time>
      </trkpt>
      <trkpt lat="42.183521" lon="-4.959503">
        <ele>720.036</ele>
        <time>2021-10-15T14:09:41Z</time>
      </trkpt>
      <trkpt lat="42.183351" lon="-4.959377">
        <ele>720.821</ele>
        <time>2021-10-15T14:09:42Z</time>
      </trkpt>
      <trkpt lat="42.183010" lon="-4.959120">
        <ele>720.439</ele>
        <time>2021-10-15T14:09:44Z</time>
      </trkpt>
      <trkpt lat="42.182686" lon="-4.958879">
        <ele>720.482</ele>
        <time>2021-10-15T14:09:46Z</time>
      </trkpt>
      <trkpt lat="42.182525" lon="-4.958754">
        <ele>720.687</ele>
        <time>2021-10-15T14:09:47Z</time>
      </trkpt>
      <trkpt lat="42.182193" lon="-4.958495">
        <ele>719.724</ele>
        <time>2021-10-15T14:09:49Z</time>
      </trkpt>
      <trkpt lat="42.182020" lon="-4.958364">
        <ele>719.004</ele>
        <time>2021-10-15T14:09:50Z</time>
      </trkpt>
      <trkpt lat="42.181666" lon="-4.958097">
        <ele>717.414</ele>
        <time>2021-10-15T14:09:52Z</time>
      </trkpt>
      <trkpt lat="42.181482" lon="-4.957962">
        <ele>717.008</ele>
        <time>2021-10-15T14:09:53Z</time>
      </trkpt>
      <trkpt lat="42.181103" lon="-4.957678">
        <ele>715.970</ele>
        <time>2021-10-15T14:09:55Z</time>
      </trkpt>
      <trkpt lat="42.180902" lon="-4.957525">
        <ele>715.188</ele>
        <time>2021-10-15T14:09:56Z</time>
      </trkpt>
      <trkpt lat="42.180511" lon="-4.957235">
        <ele>715.896</ele>
        <time>2021-10-15T14:09:58Z</time>
      </trkpt>
      <trkpt lat="42.180124" lon="-4.956946">
        <ele>716.320</ele>
        <time>2021-10-15T14:10:00Z</time>
      </trkpt>
      <trkpt lat="42.179767" lon="-4.956680">
        <ele>716.775</ele>
        <time>2021-10-15T14:10:02Z</time>
      </trkpt>
      <trkpt lat="42.179428" lon="-4.956433">
        <ele>717.843</ele>
        <time>2021-10-15T14:10:04Z</time>
      </trkpt>
      <trkpt lat="42.179256" lon="-4.956303">
        <ele>718.296</ele>
        <time>2021-10-15T14:10:05Z</time>
      </trkpt>
      <trkpt lat="42.178920" lon="-4.956054">
        <ele>718.581</ele>
        <time>2021-10-15T14:10:07Z</time>
      </trkpt>
      <trkpt lat="42.178587" lon="-4.955801">
        <ele>718.927</ele>
        <time>2021-10-15T14:10:09Z</time>
      </trkpt>
      <trkpt lat="42.178263" lon="-4.955554">
        <ele>719.068</ele>
        <time>2021-10-15T14:10:11Z</time>
      </trkpt>
      <trkpt lat="42.177934" lon="-4.955317">
        <ele>720.414</ele>
        <time>2021-10-15T14:10:13Z</time>
      </trkpt>
      <trkpt lat="42.177765" lon="-4.955196">
        <ele>720.108</ele>
        <time>2021-10-15T14:10:14Z</time>
      </trkpt>
      <trkpt lat="42.177594" lon="-4.955065">
        <ele>720.040</ele>
        <time>2021-10-15T14:10:15Z</time>
      </trkpt>
      <trkpt lat="42.177247" lon="-4.954803">
        <ele>719.818</ele>
        <time>2021-10-15T14:10:17Z</time>
      </trkpt>
      <trkpt lat="42.177067" lon="-4.954672">
        <ele>719.716</ele>
        <time>2021-10-15T14:10:18Z</time>
      </trkpt>
      <trkpt lat="42.176699" lon="-4.954401">
        <ele>720.660</ele>
        <time>2021-10-15T14:10:20Z</time>
      </trkpt>
      <trkpt lat="42.176509" lon="-4.954255">
        <ele>720.735</ele>
        <time>2021-10-15T14:10:21Z</time>
      </trkpt>
      <trkpt lat="42.176129" lon="-4.953966">
        <ele>720.773</ele>
        <time>2021-10-15T14:10:23Z</time>
      </trkpt>
      <trkpt lat="42.175937" lon="-4.953821">
        <ele>720.796</ele>
        <time>2021-10-15T14:10:24Z</time>
      </trkpt>
      <trkpt lat="42.175552" lon="-4.953539">
        <ele>721.011</ele>
        <time>2021-10-15T14:10:26Z</time>
      </trkpt>
      <trkpt lat="42.175180" lon="-4.953269">
        <ele>721.938</ele>
        <time>2021-10-15T14:10:28Z</time>
      </trkpt>
      <trkpt lat="42.174995" lon="-4.953126">
        <ele>722.570</ele>
        <time>2021-10-15T14:10:29Z</time>
      </trkpt>
      <trkpt lat="42.174628" lon="-4.952853">
        <ele>722.217</ele>
        <time>2021-10-15T14:10:31Z</time>
      </trkpt>
      <trkpt lat="42.174442" lon="-4.952717">
        <ele>722.808</ele>
        <time>2021-10-15T14:10:32Z</time>
      </trkpt>
      <trkpt lat="42.174088" lon="-4.952456">
        <ele>723.511</ele>
        <time>2021-10-15T14:10:34Z</time>
      </trkpt>
      <trkpt lat="42.173911" lon="-4.952321">
        <ele>723.469</ele>
        <time>2021-10-15T14:10:35Z</time>
      </trkpt>
      <trkpt lat="42.173735" lon="-4.952186">
        <ele>723.897</ele>
        <time>2021-10-15T14:10:36Z</time>
      </trkpt>
      <trkpt lat="42.173385" lon="-4.951920">
        <ele>724.291</ele>
        <time>2021-10-15T14:10:38Z</time>
      </trkpt>
      <trkpt lat="42.173039" lon="-4.951669">
        <ele>724.476</ele>
        <time>2021-10-15T14:10:40Z</time>
      </trkpt>
      <trkpt lat="42.172866" lon="-4.951543">
        <ele>725.474</ele>
        <time>2021-10-15T14:10:41Z</time>
      </trkpt>
      <trkpt lat="42.172552" lon="-4.951260">
        <ele>728.317</ele>
        <time>2021-10-15T14:10:43Z</time>
      </trkpt>
      <trkpt lat="42.172414" lon="-4.951085">
        <ele>728.852</ele>
        <time>2021-10-15T14:10:44Z</time>
      </trkpt>
      <trkpt lat="42.172172" lon="-4.950681">
        <ele>731.043</ele>
        <time>2021-10-15T14:10:46Z</time>
      </trkpt>
      <trkpt lat="42.172056" lon="-4.950465">
        <ele>731.864</ele>
        <time>2021-10-15T14:10:47Z</time>
      </trkpt>
      <trkpt lat="42.171930" lon="-4.950244">
        <ele>731.810</ele>
        <time>2021-10-15T14:10:48Z</time>
      </trkpt>
      <trkpt lat="42.171671" lon="-4.949792">
        <ele>732.608</ele>
        <time>2021-10-15T14:10:50Z</time>
      </trkpt>
      <trkpt lat="42.171543" lon="-4.949567">
        <ele>732.872</ele>
        <time>2021-10-15T14:10:51Z</time>
      </trkpt>
      <trkpt lat="42.171421" lon="-4.949353">
        <ele>733.720</ele>
        <time>2021-10-15T14:10:52Z</time>
      </trkpt>
      <trkpt lat="42.171303" lon="-4.949152">
        <ele>733.758</ele>
        <time>2021-10-15T14:10:53Z</time>
      </trkpt>
      <trkpt lat="42.171074" lon="-4.948761">
        <ele>733.172</ele>
        <time>2021-10-15T14:10:55Z</time>
      </trkpt>
      <trkpt lat="42.170957" lon="-4.948560">
        <ele>733.657</ele>
        <time>2021-10-15T14:10:56Z</time>
      </trkpt>
      <trkpt lat="42.170729" lon="-4.948162">
        <ele>734.485</ele>
        <time>2021-10-15T14:10:58Z</time>
      </trkpt>
      <trkpt lat="42.170610" lon="-4.947954">
        <ele>734.738</ele>
        <time>2021-10-15T14:10:59Z</time>
      </trkpt>
      <trkpt lat="42.170487" lon="-4.947746">
        <ele>734.473</ele>
        <time>2021-10-15T14:11:00Z</time>
      </trkpt>
      <trkpt lat="42.170231" lon="-4.947319">
        <ele>732.976</ele>
        <time>2021-10-15T14:11:02Z</time>
      </trkpt>
      <trkpt lat="42.169979" lon="-4.946887">
        <ele>732.190</ele>
        <time>2021-10-15T14:11:04Z</time>
      </trkpt>
      <trkpt lat="42.169849" lon="-4.946658">
        <ele>731.519</ele>
        <time>2021-10-15T14:11:05Z</time>
      </trkpt>
      <trkpt lat="42.169715" lon="-4.946428">
        <ele>730.708</ele>
        <time>2021-10-15T14:11:06Z</time>
      </trkpt>
      <trkpt lat="42.169447" lon="-4.945955">
        <ele>729.075</ele>
        <time>2021-10-15T14:11:08Z</time>
      </trkpt>
      <trkpt lat="42.169309" lon="-4.945711">
        <ele>728.353</ele>
        <time>2021-10-15T14:11:09Z</time>
      </trkpt>
      <trkpt lat="42.169042" lon="-4.945242">
        <ele>727.061</ele>
        <time>2021-10-15T14:11:11Z</time>
      </trkpt>
      <trkpt lat="42.168782" lon="-4.944789">
        <ele>725.835</ele>
        <time>2021-10-15T14:11:13Z</time>
      </trkpt>
      <trkpt lat="42.168647" lon="-4.944554">
        <ele>725.450</ele>
        <time>2021-10-15T14:11:14Z</time>
      </trkpt>
      <trkpt lat="42.168374" lon="-4.944081">
        <ele>723.458</ele>
        <time>2021-10-15T14:11:16Z</time>
      </trkpt>
      <trkpt lat="42.168235" lon="-4.943846">
        <ele>723.481</ele>
        <time>2021-10-15T14:11:17Z</time>
      </trkpt>
      <trkpt lat="42.167978" lon="-4.943396">
        <ele>722.516</ele>
        <time>2021-10-15T14:11:19Z</time>
      </trkpt>
      <trkpt lat="42.167850" lon="-4.943171">
        <ele>721.787</ele>
        <time>2021-10-15T14:11:20Z</time>
      </trkpt>
      <trkpt lat="42.167723" lon="-4.942948">
        <ele>721.842</ele>
        <time>2021-10-15T14:11:21Z</time>
      </trkpt>
      <trkpt lat="42.167596" lon="-4.942727">
        <ele>721.626</ele>
        <time>2021-10-15T14:11:22Z</time>
      </trkpt>
      <trkpt lat="42.167338" lon="-4.942285">
        <ele>722.108</ele>
        <time>2021-10-15T14:11:24Z</time>
      </trkpt>
      <trkpt lat="42.167208" lon="-4.942063">
        <ele>721.796</ele>
        <time>2021-10-15T14:11:25Z</time>
      </trkpt>
      <trkpt lat="42.167076" lon="-4.941830">
        <ele>721.784</ele>
        <time>2021-10-15T14:11:26Z</time>
      </trkpt>
      <trkpt lat="42.166817" lon="-4.941380">
        <ele>721.822</ele>
        <time>2021-10-15T14:11:28Z</time>
      </trkpt>
      <trkpt lat="42.166554" lon="-4.940928">
        <ele>721.586</ele>
        <time>2021-10-15T14:11:30Z</time>
      </trkpt>
      <trkpt lat="42.166423" lon="-4.940703">
        <ele>721.631</ele>
        <time>2021-10-15T14:11:31Z</time>
      </trkpt>
      <trkpt lat="42.166285" lon="-4.940473">
        <ele>721.919</ele>
        <time>2021-10-15T14:11:32Z</time>
      </trkpt>
      <trkpt lat="42.166023" lon="-4.940033">
        <ele>722.092</ele>
        <time>2021-10-15T14:11:34Z</time>
      </trkpt>
      <trkpt lat="42.165889" lon="-4.939809">
        <ele>722.117</ele>
        <time>2021-10-15T14:11:35Z</time>
      </trkpt>
      <trkpt lat="42.165624" lon="-4.939363">
        <ele>722.917</ele>
        <time>2021-10-15T14:11:37Z</time>
      </trkpt>
      <trkpt lat="42.165496" lon="-4.939140">
        <ele>723.687</ele>
        <time>2021-10-15T14:11:38Z</time>
      </trkpt>
      <trkpt lat="42.165369" lon="-4.938919">
        <ele>723.815</ele>
        <time>2021-10-15T14:11:39Z</time>
      </trkpt>
      <trkpt lat="42.165242" lon="-4.938704">
        <ele>723.908</ele>
        <time>2021-10-15T14:11:40Z</time>
      </trkpt>
      <trkpt lat="42.164999" lon="-4.938279">
        <ele>724.469</ele>
        <time>2021-10-15T14:11:42Z</time>
      </trkpt>
      <trkpt lat="42.164877" lon="-4.938067">
        <ele>724.697</ele>
        <time>2021-10-15T14:11:43Z</time>
      </trkpt>
      <trkpt lat="42.164630" lon="-4.937636">
        <ele>725.185</ele>
        <time>2021-10-15T14:11:45Z</time>
      </trkpt>
      <trkpt lat="42.164502" lon="-4.937411">
        <ele>725.349</ele>
        <time>2021-10-15T14:11:46Z</time>
      </trkpt>
      <trkpt lat="42.164232" lon="-4.936938">
        <ele>726.374</ele>
        <time>2021-10-15T14:11:48Z</time>
      </trkpt>
      <trkpt lat="42.164091" lon="-4.936694">
        <ele>727.262</ele>
        <time>2021-10-15T14:11:49Z</time>
      </trkpt>
      <trkpt lat="42.163805" lon="-4.936208">
        <ele>727.325</ele>
        <time>2021-10-15T14:11:51Z</time>
      </trkpt>
      <trkpt lat="42.163667" lon="-4.935973">
        <ele>728.240</ele>
        <time>2021-10-15T14:11:52Z</time>
      </trkpt>
      <trkpt lat="42.163530" lon="-4.935734">
        <ele>728.851</ele>
        <time>2021-10-15T14:11:53Z</time>
      </trkpt>
      <trkpt lat="42.163257" lon="-4.935261">
        <ele>730.501</ele>
        <time>2021-10-15T14:11:55Z</time>
      </trkpt>
      <trkpt lat="42.163113" lon="-4.935019">
        <ele>731.111</ele>
        <time>2021-10-15T14:11:56Z</time>
      </trkpt>
      <trkpt lat="42.162837" lon="-4.934566">
        <ele>733.508</ele>
        <time>2021-10-15T14:11:58Z</time>
      </trkpt>
      <trkpt lat="42.162700" lon="-4.934334">
        <ele>734.493</ele>
        <time>2021-10-15T14:11:59Z</time>
      </trkpt>
      <trkpt lat="42.162566" lon="-4.934104">
        <ele>734.971</ele>
        <time>2021-10-15T14:12:00Z</time>
      </trkpt>
      <trkpt lat="42.162435" lon="-4.933873">
        <ele>736.099</ele>
        <time>2021-10-15T14:12:01Z</time>
      </trkpt>
      <trkpt lat="42.162302" lon="-4.933642">
        <ele>737.573</ele>
        <time>2021-10-15T14:12:02Z</time>
      </trkpt>
      <trkpt lat="42.162053" lon="-4.933214">
        <ele>740.128</ele>
        <time>2021-10-15T14:12:04Z</time>
      </trkpt>
      <trkpt lat="42.161934" lon="-4.933005">
        <ele>740.716</ele>
        <time>2021-10-15T14:12:05Z</time>
      </trkpt>
      <trkpt lat="42.161696" lon="-4.932602">
        <ele>743.559</ele>
        <time>2021-10-15T14:12:07Z</time>
      </trkpt>
      <trkpt lat="42.161437" lon="-4.932236">
        <ele>744.654</ele>
        <time>2021-10-15T14:12:09Z</time>
      </trkpt>
      <trkpt lat="42.161282" lon="-4.932065">
        <ele>744.925</ele>
        <time>2021-10-15T14:12:10Z</time>
      </trkpt>
      <trkpt lat="42.160933" lon="-4.931737">
        <ele>743.926</ele>
        <time>2021-10-15T14:12:12Z</time>
      </trkpt>
      <trkpt lat="42.160550" lon="-4.931379">
        <ele>743.708</ele>
        <time>2021-10-15T14:12:14Z</time>
      </trkpt>
      <trkpt lat="42.160351" lon="-4.931189">
        <ele>743.108</ele>
        <time>2021-10-15T14:12:15Z</time>
      </trkpt>
      <trkpt lat="42.159948" lon="-4.930803">
        <ele>743.210</ele>
        <time>2021-10-15T14:12:17Z</time>
      </trkpt>
      <trkpt lat="42.159746" lon="-4.930617">
        <ele>743.058</ele>
        <time>2021-10-15T14:12:18Z</time>
      </trkpt>
      <trkpt lat="42.159338" lon="-4.930287">
        <ele>742.376</ele>
        <time>2021-10-15T14:12:20Z</time>
      </trkpt>
      <trkpt lat="42.159126" lon="-4.930151">
        <ele>742.650</ele>
        <time>2021-10-15T14:12:21Z</time>
      </trkpt>
      <trkpt lat="42.158711" lon="-4.929893">
        <ele>743.385</ele>
        <time>2021-10-15T14:12:23Z</time>
      </trkpt>
      <trkpt lat="42.158307" lon="-4.929637">
        <ele>743.653</ele>
        <time>2021-10-15T14:12:25Z</time>
      </trkpt>
      <trkpt lat="42.158102" lon="-4.929505">
        <ele>743.446</ele>
        <time>2021-10-15T14:12:26Z</time>
      </trkpt>
      <trkpt lat="42.157725" lon="-4.929245">
        <ele>744.081</ele>
        <time>2021-10-15T14:12:28Z</time>
      </trkpt>
      <trkpt lat="42.157532" lon="-4.929112">
        <ele>744.827</ele>
        <time>2021-10-15T14:12:29Z</time>
      </trkpt>
      <trkpt lat="42.157341" lon="-4.928985">
        <ele>745.368</ele>
        <time>2021-10-15T14:12:30Z</time>
      </trkpt>
      <trkpt lat="42.156953" lon="-4.928733">
        <ele>745.214</ele>
        <time>2021-10-15T14:12:32Z</time>
      </trkpt>
      <trkpt lat="42.156575" lon="-4.928488">
        <ele>745.808</ele>
        <time>2021-10-15T14:12:34Z</time>
      </trkpt>
      <trkpt lat="42.156184" lon="-4.928232">
        <ele>746.770</ele>
        <time>2021-10-15T14:12:36Z</time>
      </trkpt>
      <trkpt lat="42.155984" lon="-4.928103">
        <ele>746.758</ele>
        <time>2021-10-15T14:12:37Z</time>
      </trkpt>
      <trkpt lat="42.155785" lon="-4.927970">
        <ele>746.346</ele>
        <time>2021-10-15T14:12:38Z</time>
      </trkpt>
      <trkpt lat="42.155583" lon="-4.927836">
        <ele>745.570</ele>
        <time>2021-10-15T14:12:39Z</time>
      </trkpt>
      <trkpt lat="42.155378" lon="-4.927704">
        <ele>745.325</ele>
        <time>2021-10-15T14:12:40Z</time>
      </trkpt>
      <trkpt lat="42.154962" lon="-4.927429">
        <ele>744.863</ele>
        <time>2021-10-15T14:12:42Z</time>
      </trkpt>
      <trkpt lat="42.154543" lon="-4.927153">
        <ele>743.816</ele>
        <time>2021-10-15T14:12:44Z</time>
      </trkpt>
      <trkpt lat="42.154332" lon="-4.927014">
        <ele>743.221</ele>
        <time>2021-10-15T14:12:45Z</time>
      </trkpt>
      <trkpt lat="42.153904" lon="-4.926731">
        <ele>742.644</ele>
        <time>2021-10-15T14:12:47Z</time>
      </trkpt>
      <trkpt lat="42.153479" lon="-4.926456">
        <ele>741.805</ele>
        <time>2021-10-15T14:12:49Z</time>
      </trkpt>
      <trkpt lat="42.153263" lon="-4.926315">
        <ele>742.115</ele>
        <time>2021-10-15T14:12:50Z</time>
      </trkpt>
      <trkpt lat="42.152839" lon="-4.926029">
        <ele>741.208</ele>
        <time>2021-10-15T14:12:52Z</time>
      </trkpt>
      <trkpt lat="42.152411" lon="-4.925743">
        <ele>740.472</ele>
        <time>2021-10-15T14:12:54Z</time>
      </trkpt>
      <trkpt lat="42.152200" lon="-4.925602">
        <ele>739.610</ele>
        <time>2021-10-15T14:12:55Z</time>
      </trkpt>
      <trkpt lat="42.151986" lon="-4.925459">
        <ele>739.498</ele>
        <time>2021-10-15T14:12:56Z</time>
      </trkpt>
      <trkpt lat="42.151597" lon="-4.925197">
        <ele>737.242</ele>
        <time>2021-10-15T14:12:58Z</time>
      </trkpt>
      <trkpt lat="42.151402" lon="-4.925070">
        <ele>737.637</ele>
        <time>2021-10-15T14:12:59Z</time>
      </trkpt>
      <trkpt lat="42.151011" lon="-4.924814">
        <ele>737.645</ele>
        <time>2021-10-15T14:13:01Z</time>
      </trkpt>
      <trkpt lat="42.150808" lon="-4.924679">
        <ele>737.638</ele>
        <time>2021-10-15T14:13:02Z</time>
      </trkpt>
      <trkpt lat="42.150411" lon="-4.924418">
        <ele>736.673</ele>
        <time>2021-10-15T14:13:04Z</time>
      </trkpt>
      <trkpt lat="42.150206" lon="-4.924282">
        <ele>736.345</ele>
        <time>2021-10-15T14:13:05Z</time>
      </trkpt>
      <trkpt lat="42.149789" lon="-4.924011">
        <ele>735.847</ele>
        <time>2021-10-15T14:13:07Z</time>
      </trkpt>
      <trkpt lat="42.149368" lon="-4.923733">
        <ele>735.211</ele>
        <time>2021-10-15T14:13:09Z</time>
      </trkpt>
      <trkpt lat="42.148943" lon="-4.923447">
        <ele>734.508</ele>
        <time>2021-10-15T14:13:11Z</time>
      </trkpt>
      <trkpt lat="42.148510" lon="-4.923156">
        <ele>734.122</ele>
        <time>2021-10-15T14:13:13Z</time>
      </trkpt>
      <trkpt lat="42.148060" lon="-4.922860">
        <ele>733.330</ele>
        <time>2021-10-15T14:13:15Z</time>
      </trkpt>
      <trkpt lat="42.147601" lon="-4.922563">
        <ele>733.268</ele>
        <time>2021-10-15T14:13:17Z</time>
      </trkpt>
      <trkpt lat="42.147376" lon="-4.922414">
        <ele>732.992</ele>
        <time>2021-10-15T14:13:18Z</time>
      </trkpt>
      <trkpt lat="42.146948" lon="-4.922132">
        <ele>732.747</ele>
        <time>2021-10-15T14:13:20Z</time>
      </trkpt>
      <trkpt lat="42.146531" lon="-4.921857">
        <ele>732.125</ele>
        <time>2021-10-15T14:13:22Z</time>
      </trkpt>
      <trkpt lat="42.146318" lon="-4.921716">
        <ele>731.768</ele>
        <time>2021-10-15T14:13:23Z</time>
      </trkpt>
      <trkpt lat="42.145906" lon="-4.921445">
        <ele>731.073</ele>
        <time>2021-10-15T14:13:25Z</time>
      </trkpt>
      <trkpt lat="42.145695" lon="-4.921311">
        <ele>730.798</ele>
        <time>2021-10-15T14:13:26Z</time>
      </trkpt>
      <trkpt lat="42.145284" lon="-4.921053">
        <ele>731.115</ele>
        <time>2021-10-15T14:13:28Z</time>
      </trkpt>
      <trkpt lat="42.144873" lon="-4.920783">
        <ele>730.026</ele>
        <time>2021-10-15T14:13:30Z</time>
      </trkpt>
      <trkpt lat="42.144455" lon="-4.920506">
        <ele>729.008</ele>
        <time>2021-10-15T14:13:32Z</time>
      </trkpt>
      <trkpt lat="42.144035" lon="-4.920223">
        <ele>728.167</ele>
        <time>2021-10-15T14:13:34Z</time>
      </trkpt>
      <trkpt lat="42.143826" lon="-4.920083">
        <ele>728.325</ele>
        <time>2021-10-15T14:13:35Z</time>
      </trkpt>
      <trkpt lat="42.143622" lon="-4.919945">
        <ele>727.893</ele>
        <time>2021-10-15T14:13:36Z</time>
      </trkpt>
      <trkpt lat="42.143225" lon="-4.919678">
        <ele>729.177</ele>
        <time>2021-10-15T14:13:38Z</time>
      </trkpt>
      <trkpt lat="42.142834" lon="-4.919426">
        <ele>729.812</ele>
        <time>2021-10-15T14:13:40Z</time>
      </trkpt>
      <trkpt lat="42.142432" lon="-4.919172">
        <ele>729.490</ele>
        <time>2021-10-15T14:13:42Z</time>
      </trkpt>
      <trkpt lat="42.142021" lon="-4.918901">
        <ele>728.913</ele>
        <time>2021-10-15T14:13:44Z</time>
      </trkpt>
      <trkpt lat="42.141812" lon="-4.918760">
        <ele>728.328</ele>
        <time>2021-10-15T14:13:45Z</time>
      </trkpt>
      <trkpt lat="42.141602" lon="-4.918619">
        <ele>728.044</ele>
        <time>2021-10-15T14:13:46Z</time>
      </trkpt>
      <trkpt lat="42.141391" lon="-4.918478">
        <ele>727.405</ele>
        <time>2021-10-15T14:13:47Z</time>
      </trkpt>
      <trkpt lat="42.141180" lon="-4.918337">
        <ele>727.115</ele>
        <time>2021-10-15T14:13:48Z</time>
      </trkpt>
      <trkpt lat="42.140968" lon="-4.918196">
        <ele>727.108</ele>
        <time>2021-10-15T14:13:49Z</time>
      </trkpt>
      <trkpt lat="42.140542" lon="-4.917917">
        <ele>727.052</ele>
        <time>2021-10-15T14:13:51Z</time>
      </trkpt>
      <trkpt lat="42.140327" lon="-4.917773">
        <ele>727.990</ele>
        <time>2021-10-15T14:13:52Z</time>
      </trkpt>
      <trkpt lat="42.139895" lon="-4.917484">
        <ele>727.978</ele>
        <time>2021-10-15T14:13:54Z</time>
      </trkpt>
      <trkpt lat="42.139447" lon="-4.917194">
        <ele>728.482</ele>
        <time>2021-10-15T14:13:56Z</time>
      </trkpt>
      <trkpt lat="42.139015" lon="-4.916915">
        <ele>727.737</ele>
        <time>2021-10-15T14:13:58Z</time>
      </trkpt>
      <trkpt lat="42.138568" lon="-4.916629">
        <ele>727.745</ele>
        <time>2021-10-15T14:14:00Z</time>
      </trkpt>
      <trkpt lat="42.138347" lon="-4.916489">
        <ele>727.268</ele>
        <time>2021-10-15T14:14:01Z</time>
      </trkpt>
      <trkpt lat="42.138120" lon="-4.916350">
        <ele>727.653</ele>
        <time>2021-10-15T14:14:02Z</time>
      </trkpt>
      <trkpt lat="42.137687" lon="-4.916082">
        <ele>726.711</ele>
        <time>2021-10-15T14:14:04Z</time>
      </trkpt>
      <trkpt lat="42.137246" lon="-4.915811">
        <ele>727.721</ele>
        <time>2021-10-15T14:14:06Z</time>
      </trkpt>
      <trkpt lat="42.137023" lon="-4.915670">
        <ele>727.703</ele>
        <time>2021-10-15T14:14:07Z</time>
      </trkpt>
      <trkpt lat="42.136584" lon="-4.915400">
        <ele>727.508</ele>
        <time>2021-10-15T14:14:09Z</time>
      </trkpt>
      <trkpt lat="42.136151" lon="-4.915131">
        <ele>727.789</ele>
        <time>2021-10-15T14:14:11Z</time>
      </trkpt>
      <trkpt lat="42.135726" lon="-4.914868">
        <ele>728.747</ele>
        <time>2021-10-15T14:14:13Z</time>
      </trkpt>
      <trkpt lat="42.135516" lon="-4.914733">
        <ele>728.795</ele>
        <time>2021-10-15T14:14:14Z</time>
      </trkpt>
      <trkpt lat="42.135308" lon="-4.914600">
        <ele>728.299</ele>
        <time>2021-10-15T14:14:15Z</time>
      </trkpt>
      <trkpt lat="42.134893" lon="-4.914344">
        <ele>728.784</ele>
        <time>2021-10-15T14:14:17Z</time>
      </trkpt>
      <trkpt lat="42.134490" lon="-4.914088">
        <ele>729.282</ele>
        <time>2021-10-15T14:14:19Z</time>
      </trkpt>
      <trkpt lat="42.134079" lon="-4.913839">
        <ele>729.845</ele>
        <time>2021-10-15T14:14:21Z</time>
      </trkpt>
      <trkpt lat="42.133711" lon="-4.913607">
        <ele>728.560</ele>
        <time>2021-10-15T14:14:23Z</time>
      </trkpt>
      <trkpt lat="42.133404" lon="-4.913423">
        <ele>728.042</ele>
        <time>2021-10-15T14:14:25Z</time>
      </trkpt>
      <trkpt lat="42.133255" lon="-4.913342">
        <ele>727.722</ele>
        <time>2021-10-15T14:14:26Z</time>
      </trkpt>
      <trkpt lat="42.132943" lon="-4.913210">
        <ele>727.514</ele>
        <time>2021-10-15T14:14:28Z</time>
      </trkpt>
      <trkpt lat="42.132596" lon="-4.913105">
        <ele>726.908</ele>
        <time>2021-10-15T14:14:30Z</time>
      </trkpt>
      <trkpt lat="42.132255" lon="-4.913004">
        <ele>726.632</ele>
        <time>2021-10-15T14:14:32Z</time>
      </trkpt>
      <trkpt lat="42.131955" lon="-4.912913">
        <ele>726.250</ele>
        <time>2021-10-15T14:14:34Z</time>
      </trkpt>
      <trkpt lat="42.131808" lon="-4.912868">
        <ele>726.318</ele>
        <time>2021-10-15T14:14:35Z</time>
      </trkpt>
      <trkpt lat="42.131528" lon="-4.912783">
        <ele>726.042</ele>
        <time>2021-10-15T14:14:37Z</time>
      </trkpt>
      <trkpt lat="42.131258" lon="-4.912704">
        <ele>727.467</ele>
        <time>2021-10-15T14:14:39Z</time>
      </trkpt>
      <trkpt lat="42.131044" lon="-4.912630">
        <ele>728.025</ele>
        <time>2021-10-15T14:14:41Z</time>
      </trkpt>
      <trkpt lat="42.130929" lon="-4.912591">
        <ele>727.318</ele>
        <time>2021-10-15T14:14:43Z</time>
      </trkpt>
      <trkpt lat="42.130881" lon="-4.912569">
        <ele>726.813</ele>
        <time>2021-10-15T14:14:45Z</time>
      </trkpt>
      <trkpt lat="42.130831" lon="-4.912563">
        <ele>726.685</ele>
        <time>2021-10-15T14:14:49Z</time>
      </trkpt>
      <trkpt lat="42.130781" lon="-4.912531">
        <ele>726.889</ele>
        <time>2021-10-15T14:14:55Z</time>
      </trkpt>
      <trkpt lat="42.130773" lon="-4.912464">
        <ele>726.817</ele>
        <time>2021-10-15T14:14:56Z</time>
      </trkpt>
      <trkpt lat="42.130801" lon="-4.912280">
        <ele>727.408</ele>
        <time>2021-10-15T14:14:58Z</time>
      </trkpt>
      <trkpt lat="42.130818" lon="-4.912157">
        <ele>728.016</ele>
        <time>2021-10-15T14:14:59Z</time>
      </trkpt>
      <trkpt lat="42.130836" lon="-4.912031">
        <ele>728.664</ele>
        <time>2021-10-15T14:15:00Z</time>
      </trkpt>
      <trkpt lat="42.130854" lon="-4.911911">
        <ele>728.532</ele>
        <time>2021-10-15T14:15:01Z</time>
      </trkpt>
      <trkpt lat="42.130878" lon="-4.911785">
        <ele>728.046</ele>
        <time>2021-10-15T14:15:02Z</time>
      </trkpt>
      <trkpt lat="42.130933" lon="-4.911511">
        <ele>727.441</ele>
        <time>2021-10-15T14:15:04Z</time>
      </trkpt>
      <trkpt lat="42.130963" lon="-4.911364">
        <ele>727.139</ele>
        <time>2021-10-15T14:15:05Z</time>
      </trkpt>
      <trkpt lat="42.131026" lon="-4.911084">
        <ele>726.832</ele>
        <time>2021-10-15T14:15:07Z</time>
      </trkpt>
      <trkpt lat="42.131110" lon="-4.910809">
        <ele>726.057</ele>
        <time>2021-10-15T14:15:09Z</time>
      </trkpt>
      <trkpt lat="42.131209" lon="-4.910516">
        <ele>725.736</ele>
        <time>2021-10-15T14:15:11Z</time>
      </trkpt>
      <trkpt lat="42.131259" lon="-4.910360">
        <ele>725.517</ele>
        <time>2021-10-15T14:15:12Z</time>
      </trkpt>
      <trkpt lat="42.131371" lon="-4.910027">
        <ele>724.518</ele>
        <time>2021-10-15T14:15:14Z</time>
      </trkpt>
      <trkpt lat="42.131431" lon="-4.909854">
        <ele>724.408</ele>
        <time>2021-10-15T14:15:15Z</time>
      </trkpt>
      <trkpt lat="42.131568" lon="-4.909512">
        <ele>723.481</ele>
        <time>2021-10-15T14:15:17Z</time>
      </trkpt>
      <trkpt lat="42.131649" lon="-4.909343">
        <ele>723.269</ele>
        <time>2021-10-15T14:15:18Z</time>
      </trkpt>
      <trkpt lat="42.131734" lon="-4.909170">
        <ele>723.537</ele>
        <time>2021-10-15T14:15:19Z</time>
      </trkpt>
      <trkpt lat="42.131916" lon="-4.908823">
        <ele>723.121</ele>
        <time>2021-10-15T14:15:21Z</time>
      </trkpt>
      <trkpt lat="42.132066" lon="-4.908457">
        <ele>723.566</ele>
        <time>2021-10-15T14:15:23Z</time>
      </trkpt>
      <trkpt lat="42.132153" lon="-4.908076">
        <ele>723.764</ele>
        <time>2021-10-15T14:15:25Z</time>
      </trkpt>
      <trkpt lat="42.132176" lon="-4.907874">
        <ele>723.957</ele>
        <time>2021-10-15T14:15:26Z</time>
      </trkpt>
      <trkpt lat="42.132196" lon="-4.907511">
        <ele>724.522</ele>
        <time>2021-10-15T14:15:28Z</time>
      </trkpt>
      <trkpt lat="42.132216" lon="-4.907189">
        <ele>724.699</ele>
        <time>2021-10-15T14:15:30Z</time>
      </trkpt>
      <trkpt lat="42.132227" lon="-4.907045">
        <ele>724.207</ele>
        <time>2021-10-15T14:15:31Z</time>
      </trkpt>
      <trkpt lat="42.132235" lon="-4.906910">
        <ele>724.227</ele>
        <time>2021-10-15T14:15:32Z</time>
      </trkpt>
      <trkpt lat="42.132220" lon="-4.906738">
        <ele>724.408</ele>
        <time>2021-10-15T14:15:34Z</time>
      </trkpt>
      <trkpt lat="42.132161" lon="-4.906671">
        <ele>725.277</ele>
        <time>2021-10-15T14:15:36Z</time>
      </trkpt>
      <trkpt lat="42.132100" lon="-4.906646">
        <ele>725.675</ele>
        <time>2021-10-15T14:15:37Z</time>
      </trkpt>
      <trkpt lat="42.131910" lon="-4.906617">
        <ele>725.773</ele>
        <time>2021-10-15T14:15:39Z</time>
      </trkpt>
      <trkpt lat="42.131660" lon="-4.906544">
        <ele>725.997</ele>
        <time>2021-10-15T14:15:41Z</time>
      </trkpt>
      <trkpt lat="42.131526" lon="-4.906500">
        <ele>726.652</ele>
        <time>2021-10-15T14:15:42Z</time>
      </trkpt>
      <trkpt lat="42.131396" lon="-4.906454">
        <ele>727.180</ele>
        <time>2021-10-15T14:15:43Z</time>
      </trkpt>
      <trkpt lat="42.131263" lon="-4.906407">
        <ele>727.273</ele>
        <time>2021-10-15T14:15:44Z</time>
      </trkpt>
      <trkpt lat="42.131122" lon="-4.906358">
        <ele>726.938</ele>
        <time>2021-10-15T14:15:45Z</time>
      </trkpt>
      <trkpt lat="42.130821" lon="-4.906260">
        <ele>726.868</ele>
        <time>2021-10-15T14:15:47Z</time>
      </trkpt>
      <trkpt lat="42.130660" lon="-4.906205">
        <ele>726.642</ele>
        <time>2021-10-15T14:15:48Z</time>
      </trkpt>
      <trkpt lat="42.130334" lon="-4.906089">
        <ele>727.126</ele>
        <time>2021-10-15T14:15:50Z</time>
      </trkpt>
      <trkpt lat="42.130021" lon="-4.905983">
        <ele>727.308</ele>
        <time>2021-10-15T14:15:52Z</time>
      </trkpt>
      <trkpt lat="42.129873" lon="-4.905934">
        <ele>727.224</ele>
        <time>2021-10-15T14:15:53Z</time>
      </trkpt>
      <trkpt lat="42.129731" lon="-4.905883">
        <ele>726.772</ele>
        <time>2021-10-15T14:15:54Z</time>
      </trkpt>
      <trkpt lat="42.129433" lon="-4.905778">
        <ele>726.780</ele>
        <time>2021-10-15T14:15:56Z</time>
      </trkpt>
      <trkpt lat="42.129119" lon="-4.905669">
        <ele>726.264</ele>
        <time>2021-10-15T14:15:58Z</time>
      </trkpt>
      <trkpt lat="42.128791" lon="-4.905557">
        <ele>726.489</ele>
        <time>2021-10-15T14:16:00Z</time>
      </trkpt>
      <trkpt lat="42.128626" lon="-4.905500">
        <ele>726.367</ele>
        <time>2021-10-15T14:16:01Z</time>
      </trkpt>
      <trkpt lat="42.128462" lon="-4.905448">
        <ele>726.380</ele>
        <time>2021-10-15T14:16:02Z</time>
      </trkpt>
      <trkpt lat="42.128158" lon="-4.905361">
        <ele>725.915</ele>
        <time>2021-10-15T14:16:04Z</time>
      </trkpt>
      <trkpt lat="42.128006" lon="-4.905309">
        <ele>726.155</ele>
        <time>2021-10-15T14:16:05Z</time>
      </trkpt>
      <trkpt lat="42.127858" lon="-4.905253">
        <ele>726.807</ele>
        <time>2021-10-15T14:16:06Z</time>
      </trkpt>
      <trkpt lat="42.127558" lon="-4.905143">
        <ele>726.317</ele>
        <time>2021-10-15T14:16:08Z</time>
      </trkpt>
      <trkpt lat="42.127250" lon="-4.905043">
        <ele>727.708</ele>
        <time>2021-10-15T14:16:10Z</time>
      </trkpt>
      <trkpt lat="42.127091" lon="-4.904991">
        <ele>727.713</ele>
        <time>2021-10-15T14:16:11Z</time>
      </trkpt>
      <trkpt lat="42.126932" lon="-4.904937">
        <ele>727.361</ele>
        <time>2021-10-15T14:16:12Z</time>
      </trkpt>
      <trkpt lat="42.126601" lon="-4.904819">
        <ele>727.279</ele>
        <time>2021-10-15T14:16:14Z</time>
      </trkpt>
      <trkpt lat="42.126254" lon="-4.904698">
        <ele>727.663</ele>
        <time>2021-10-15T14:16:16Z</time>
      </trkpt>
      <trkpt lat="42.126072" lon="-4.904634">
        <ele>726.998</ele>
        <time>2021-10-15T14:16:17Z</time>
      </trkpt>
      <trkpt lat="42.125698" lon="-4.904503">
        <ele>726.136</ele>
        <time>2021-10-15T14:16:19Z</time>
      </trkpt>
      <trkpt lat="42.125504" lon="-4.904436">
        <ele>726.129</ele>
        <time>2021-10-15T14:16:20Z</time>
      </trkpt>
      <trkpt lat="42.125312" lon="-4.904369">
        <ele>725.514</ele>
        <time>2021-10-15T14:16:21Z</time>
      </trkpt>
      <trkpt lat="42.124934" lon="-4.904238">
        <ele>724.228</ele>
        <time>2021-10-15T14:16:23Z</time>
      </trkpt>
      <trkpt lat="42.124562" lon="-4.904107">
        <ele>723.389</ele>
        <time>2021-10-15T14:16:25Z</time>
      </trkpt>
      <trkpt lat="42.124371" lon="-4.904039">
        <ele>723.117</ele>
        <time>2021-10-15T14:16:26Z</time>
      </trkpt>
      <trkpt lat="42.124007" lon="-4.903915">
        <ele>721.508</ele>
        <time>2021-10-15T14:16:28Z</time>
      </trkpt>
      <trkpt lat="42.123644" lon="-4.903805">
        <ele>718.560</ele>
        <time>2021-10-15T14:16:30Z</time>
      </trkpt>
      <trkpt lat="42.123463" lon="-4.903746">
        <ele>718.628</ele>
        <time>2021-10-15T14:16:31Z</time>
      </trkpt>
      <trkpt lat="42.123277" lon="-4.903683">
        <ele>719.056</ele>
        <time>2021-10-15T14:16:32Z</time>
      </trkpt>
      <trkpt lat="42.122918" lon="-4.903551">
        <ele>719.280</ele>
        <time>2021-10-15T14:16:34Z</time>
      </trkpt>
      <trkpt lat="42.122547" lon="-4.903399">
        <ele>719.335</ele>
        <time>2021-10-15T14:16:36Z</time>
      </trkpt>
      <trkpt lat="42.122156" lon="-4.903270">
        <ele>719.013</ele>
        <time>2021-10-15T14:16:38Z</time>
      </trkpt>
      <trkpt lat="42.121957" lon="-4.903206">
        <ele>719.196</ele>
        <time>2021-10-15T14:16:39Z</time>
      </trkpt>
      <trkpt lat="42.121558" lon="-4.903077">
        <ele>720.021</ele>
        <time>2021-10-15T14:16:41Z</time>
      </trkpt>
      <trkpt lat="42.121156" lon="-4.902943">
        <ele>719.876</ele>
        <time>2021-10-15T14:16:43Z</time>
      </trkpt>
      <trkpt lat="42.120762" lon="-4.902811">
        <ele>720.590</ele>
        <time>2021-10-15T14:16:45Z</time>
      </trkpt>
      <trkpt lat="42.120565" lon="-4.902742">
        <ele>720.719</ele>
        <time>2021-10-15T14:16:46Z</time>
      </trkpt>
      <trkpt lat="42.120176" lon="-4.902610">
        <ele>720.608</ele>
        <time>2021-10-15T14:16:48Z</time>
      </trkpt>
      <trkpt lat="42.119790" lon="-4.902487">
        <ele>721.745</ele>
        <time>2021-10-15T14:16:50Z</time>
      </trkpt>
      <trkpt lat="42.119600" lon="-4.902426">
        <ele>721.423</ele>
        <time>2021-10-15T14:16:51Z</time>
      </trkpt>
      <trkpt lat="42.119411" lon="-4.902360">
        <ele>721.721</ele>
        <time>2021-10-15T14:16:52Z</time>
      </trkpt>
      <trkpt lat="42.119224" lon="-4.902293">
        <ele>722.485</ele>
        <time>2021-10-15T14:16:53Z</time>
      </trkpt>
      <trkpt lat="42.118853" lon="-4.902167">
        <ele>721.360</ele>
        <time>2021-10-15T14:16:55Z</time>
      </trkpt>
      <trkpt lat="42.118663" lon="-4.902105">
        <ele>721.968</ele>
        <time>2021-10-15T14:16:56Z</time>
      </trkpt>
      <trkpt lat="42.118302" lon="-4.901981">
        <ele>722.341</ele>
        <time>2021-10-15T14:16:58Z</time>
      </trkpt>
      <trkpt lat="42.118114" lon="-4.901915">
        <ele>722.166</ele>
        <time>2021-10-15T14:16:59Z</time>
      </trkpt>
      <trkpt lat="42.117738" lon="-4.901782">
        <ele>722.671</ele>
        <time>2021-10-15T14:17:01Z</time>
      </trkpt>
      <trkpt lat="42.117542" lon="-4.901713">
        <ele>722.541</ele>
        <time>2021-10-15T14:17:02Z</time>
      </trkpt>
      <trkpt lat="42.117158" lon="-4.901581">
        <ele>722.215</ele>
        <time>2021-10-15T14:17:04Z</time>
      </trkpt>
      <trkpt lat="42.116757" lon="-4.901441">
        <ele>722.208</ele>
        <time>2021-10-15T14:17:06Z</time>
      </trkpt>
      <trkpt lat="42.116556" lon="-4.901370">
        <ele>722.435</ele>
        <time>2021-10-15T14:17:07Z</time>
      </trkpt>
      <trkpt lat="42.116151" lon="-4.901231">
        <ele>723.173</ele>
        <time>2021-10-15T14:17:09Z</time>
      </trkpt>
      <trkpt lat="42.115945" lon="-4.901164">
        <ele>722.991</ele>
        <time>2021-10-15T14:17:10Z</time>
      </trkpt>
      <trkpt lat="42.115551" lon="-4.901035">
        <ele>723.395</ele>
        <time>2021-10-15T14:17:12Z</time>
      </trkpt>
      <trkpt lat="42.115177" lon="-4.900912">
        <ele>723.290</ele>
        <time>2021-10-15T14:17:14Z</time>
      </trkpt>
      <trkpt lat="42.114810" lon="-4.900786">
        <ele>723.568</ele>
        <time>2021-10-15T14:17:16Z</time>
      </trkpt>
      <trkpt lat="42.114447" lon="-4.900659">
        <ele>724.491</ele>
        <time>2021-10-15T14:17:18Z</time>
      </trkpt>
      <trkpt lat="42.114089" lon="-4.900533">
        <ele>724.866</ele>
        <time>2021-10-15T14:17:20Z</time>
      </trkpt>
      <trkpt lat="42.113746" lon="-4.900436">
        <ele>725.281</ele>
        <time>2021-10-15T14:17:22Z</time>
      </trkpt>
      <trkpt lat="42.113580" lon="-4.900422">
        <ele>724.961</ele>
        <time>2021-10-15T14:17:23Z</time>
      </trkpt>
      <trkpt lat="42.113409" lon="-4.900423">
        <ele>724.617</ele>
        <time>2021-10-15T14:17:24Z</time>
      </trkpt>
      <trkpt lat="42.113231" lon="-4.900430">
        <ele>724.408</ele>
        <time>2021-10-15T14:17:25Z</time>
      </trkpt>
      <trkpt lat="42.113045" lon="-4.900437">
        <ele>724.286</ele>
        <time>2021-10-15T14:17:26Z</time>
      </trkpt>
      <trkpt lat="42.112665" lon="-4.900463">
        <ele>723.634</ele>
        <time>2021-10-15T14:17:28Z</time>
      </trkpt>
      <trkpt lat="42.112459" lon="-4.900474">
        <ele>723.492</ele>
        <time>2021-10-15T14:17:29Z</time>
      </trkpt>
      <trkpt lat="42.112047" lon="-4.900492">
        <ele>722.896</ele>
        <time>2021-10-15T14:17:31Z</time>
      </trkpt>
      <trkpt lat="42.111825" lon="-4.900511">
        <ele>722.061</ele>
        <time>2021-10-15T14:17:32Z</time>
      </trkpt>
      <trkpt lat="42.111401" lon="-4.900541">
        <ele>721.159</ele>
        <time>2021-10-15T14:17:34Z</time>
      </trkpt>
      <trkpt lat="42.111180" lon="-4.900552">
        <ele>721.292</ele>
        <time>2021-10-15T14:17:35Z</time>
      </trkpt>
      <trkpt lat="42.110956" lon="-4.900562">
        <ele>720.817</ele>
        <time>2021-10-15T14:17:36Z</time>
      </trkpt>
      <trkpt lat="42.110724" lon="-4.900580">
        <ele>720.456</ele>
        <time>2021-10-15T14:17:37Z</time>
      </trkpt>
      <trkpt lat="42.110488" lon="-4.900594">
        <ele>720.859</ele>
        <time>2021-10-15T14:17:38Z</time>
      </trkpt>
      <trkpt lat="42.110010" lon="-4.900625">
        <ele>720.814</ele>
        <time>2021-10-15T14:17:40Z</time>
      </trkpt>
      <trkpt lat="42.109533" lon="-4.900652">
        <ele>721.308</ele>
        <time>2021-10-15T14:17:42Z</time>
      </trkpt>
      <trkpt lat="42.109295" lon="-4.900666">
        <ele>721.593</ele>
        <time>2021-10-15T14:17:43Z</time>
      </trkpt>
      <trkpt lat="42.109063" lon="-4.900680">
        <ele>721.931</ele>
        <time>2021-10-15T14:17:44Z</time>
      </trkpt>
      <trkpt lat="42.108612" lon="-4.900708">
        <ele>721.719</ele>
        <time>2021-10-15T14:17:46Z</time>
      </trkpt>
      <trkpt lat="42.108172" lon="-4.900736">
        <ele>721.763</ele>
        <time>2021-10-15T14:17:48Z</time>
      </trkpt>
      <trkpt lat="42.107954" lon="-4.900750">
        <ele>721.778</ele>
        <time>2021-10-15T14:17:49Z</time>
      </trkpt>
      <trkpt lat="42.107524" lon="-4.900775">
        <ele>721.836</ele>
        <time>2021-10-15T14:17:51Z</time>
      </trkpt>
      <trkpt lat="42.107096" lon="-4.900801">
        <ele>722.559</ele>
        <time>2021-10-15T14:17:53Z</time>
      </trkpt>
      <trkpt lat="42.106885" lon="-4.900817">
        <ele>722.764</ele>
        <time>2021-10-15T14:17:54Z</time>
      </trkpt>
      <trkpt lat="42.106676" lon="-4.900828">
        <ele>723.113</ele>
        <time>2021-10-15T14:17:55Z</time>
      </trkpt>
      <trkpt lat="42.106462" lon="-4.900840">
        <ele>723.643</ele>
        <time>2021-10-15T14:17:56Z</time>
      </trkpt>
      <trkpt lat="42.106049" lon="-4.900861">
        <ele>723.907</ele>
        <time>2021-10-15T14:17:58Z</time>
      </trkpt>
      <trkpt lat="42.105615" lon="-4.900883">
        <ele>724.508</ele>
        <time>2021-10-15T14:18:00Z</time>
      </trkpt>
      <trkpt lat="42.105178" lon="-4.900912">
        <ele>724.649</ele>
        <time>2021-10-15T14:18:02Z</time>
      </trkpt>
      <trkpt lat="42.104751" lon="-4.900940">
        <ele>724.917</ele>
        <time>2021-10-15T14:18:04Z</time>
      </trkpt>
      <trkpt lat="42.104532" lon="-4.900953">
        <ele>724.235</ele>
        <time>2021-10-15T14:18:05Z</time>
      </trkpt>
      <trkpt lat="42.104311" lon="-4.900966">
        <ele>723.249</ele>
        <time>2021-10-15T14:18:06Z</time>
      </trkpt>
      <trkpt lat="42.103864" lon="-4.900994">
        <ele>721.944</ele>
        <time>2021-10-15T14:18:08Z</time>
      </trkpt>
      <trkpt lat="42.103634" lon="-4.901008">
        <ele>721.672</ele>
        <time>2021-10-15T14:18:09Z</time>
      </trkpt>
      <trkpt lat="42.103405" lon="-4.901022">
        <ele>721.175</ele>
        <time>2021-10-15T14:18:10Z</time>
      </trkpt>
      <trkpt lat="42.102941" lon="-4.901051">
        <ele>720.370</ele>
        <time>2021-10-15T14:18:12Z</time>
      </trkpt>
      <trkpt lat="42.102472" lon="-4.901077">
        <ele>720.135</ele>
        <time>2021-10-15T14:18:14Z</time>
      </trkpt>
      <trkpt lat="42.102240" lon="-4.901089">
        <ele>719.486</ele>
        <time>2021-10-15T14:18:15Z</time>
      </trkpt>
      <trkpt lat="42.102013" lon="-4.901097">
        <ele>718.614</ele>
        <time>2021-10-15T14:18:16Z</time>
      </trkpt>
      <trkpt lat="42.101790" lon="-4.901110">
        <ele>718.808</ele>
        <time>2021-10-15T14:18:17Z</time>
      </trkpt>
      <trkpt lat="42.101358" lon="-4.901136">
        <ele>718.371</ele>
        <time>2021-10-15T14:18:19Z</time>
      </trkpt>
      <trkpt lat="42.100940" lon="-4.901165">
        <ele>717.789</ele>
        <time>2021-10-15T14:18:21Z</time>
      </trkpt>
      <trkpt lat="42.100738" lon="-4.901178">
        <ele>717.997</ele>
        <time>2021-10-15T14:18:22Z</time>
      </trkpt>
      <trkpt lat="42.100343" lon="-4.901203">
        <ele>717.581</ele>
        <time>2021-10-15T14:18:24Z</time>
      </trkpt>
      <trkpt lat="42.099945" lon="-4.901228">
        <ele>717.756</ele>
        <time>2021-10-15T14:18:26Z</time>
      </trkpt>
      <trkpt lat="42.099556" lon="-4.901259">
        <ele>717.184</ele>
        <time>2021-10-15T14:18:28Z</time>
      </trkpt>
      <trkpt lat="42.099353" lon="-4.901272">
        <ele>716.697</ele>
        <time>2021-10-15T14:18:29Z</time>
      </trkpt>
      <trkpt lat="42.098955" lon="-4.901299">
        <ele>717.042</ele>
        <time>2021-10-15T14:18:31Z</time>
      </trkpt>
      <trkpt lat="42.098750" lon="-4.901311">
        <ele>716.875</ele>
        <time>2021-10-15T14:18:32Z</time>
      </trkpt>
      <trkpt lat="42.098354" lon="-4.901333">
        <ele>716.728</ele>
        <time>2021-10-15T14:18:34Z</time>
      </trkpt>
      <trkpt lat="42.098151" lon="-4.901345">
        <ele>716.520</ele>
        <time>2021-10-15T14:18:35Z</time>
      </trkpt>
      <trkpt lat="42.097745" lon="-4.901369">
        <ele>716.608</ele>
        <time>2021-10-15T14:18:37Z</time>
      </trkpt>
      <trkpt lat="42.097542" lon="-4.901382">
        <ele>716.315</ele>
        <time>2021-10-15T14:18:38Z</time>
      </trkpt>
      <trkpt lat="42.097339" lon="-4.901395">
        <ele>716.643</ele>
        <time>2021-10-15T14:18:39Z</time>
      </trkpt>
      <trkpt lat="42.096931" lon="-4.901427">
        <ele>717.351</ele>
        <time>2021-10-15T14:18:41Z</time>
      </trkpt>
      <trkpt lat="42.096514" lon="-4.901451">
        <ele>716.445</ele>
        <time>2021-10-15T14:18:43Z</time>
      </trkpt>
      <trkpt lat="42.096087" lon="-4.901466">
        <ele>716.930</ele>
        <time>2021-10-15T14:18:45Z</time>
      </trkpt>
      <trkpt lat="42.095873" lon="-4.901478">
        <ele>716.248</ele>
        <time>2021-10-15T14:18:46Z</time>
      </trkpt>
      <trkpt lat="42.095659" lon="-4.901488">
        <ele>716.071</ele>
        <time>2021-10-15T14:18:47Z</time>
      </trkpt>
      <trkpt lat="42.095446" lon="-4.901495">
        <ele>716.346</ele>
        <time>2021-10-15T14:18:48Z</time>
      </trkpt>
      <trkpt lat="42.095023" lon="-4.901520">
        <ele>717.265</ele>
        <time>2021-10-15T14:18:50Z</time>
      </trkpt>
      <trkpt lat="42.094606" lon="-4.901547">
        <ele>716.768</ele>
        <time>2021-10-15T14:18:52Z</time>
      </trkpt>
      <trkpt lat="42.094399" lon="-4.901561">
        <ele>716.614</ele>
        <time>2021-10-15T14:18:53Z</time>
      </trkpt>
      <trkpt lat="42.093979" lon="-4.901588">
        <ele>716.408</ele>
        <time>2021-10-15T14:18:55Z</time>
      </trkpt>
      <trkpt lat="42.093759" lon="-4.901600">
        <ele>716.734</ele>
        <time>2021-10-15T14:18:56Z</time>
      </trkpt>
      <trkpt lat="42.093330" lon="-4.901625">
        <ele>716.632</ele>
        <time>2021-10-15T14:18:58Z</time>
      </trkpt>
      <trkpt lat="42.092880" lon="-4.901655">
        <ele>716.610</ele>
        <time>2021-10-15T14:19:00Z</time>
      </trkpt>
      <trkpt lat="42.092413" lon="-4.901681">
        <ele>716.354</ele>
        <time>2021-10-15T14:19:02Z</time>
      </trkpt>
      <trkpt lat="42.091948" lon="-4.901707">
        <ele>716.649</ele>
        <time>2021-10-15T14:19:04Z</time>
      </trkpt>
      <trkpt lat="42.091470" lon="-4.901737">
        <ele>715.627</ele>
        <time>2021-10-15T14:19:06Z</time>
      </trkpt>
      <trkpt lat="42.091230" lon="-4.901752">
        <ele>716.210</ele>
        <time>2021-10-15T14:19:07Z</time>
      </trkpt>
      <trkpt lat="42.090988" lon="-4.901768">
        <ele>717.285</ele>
        <time>2021-10-15T14:19:08Z</time>
      </trkpt>
      <trkpt lat="42.090542" lon="-4.901797">
        <ele>717.096</ele>
        <time>2021-10-15T14:19:10Z</time>
      </trkpt>
      <trkpt lat="42.090119" lon="-4.901825">
        <ele>717.031</ele>
        <time>2021-10-15T14:19:12Z</time>
      </trkpt>
      <trkpt lat="42.089905" lon="-4.901839">
        <ele>716.924</ele>
        <time>2021-10-15T14:19:13Z</time>
      </trkpt>
      <trkpt lat="42.089691" lon="-4.901853">
        <ele>716.908</ele>
        <time>2021-10-15T14:19:14Z</time>
      </trkpt>
      <trkpt lat="42.089260" lon="-4.901884">
        <ele>715.887</ele>
        <time>2021-10-15T14:19:16Z</time>
      </trkpt>
      <trkpt lat="42.088854" lon="-4.901907">
        <ele>715.615</ele>
        <time>2021-10-15T14:19:18Z</time>
      </trkpt>
      <trkpt lat="42.088660" lon="-4.901917">
        <ele>715.113</ele>
        <time>2021-10-15T14:19:19Z</time>
      </trkpt>
      <trkpt lat="42.088298" lon="-4.901937">
        <ele>714.517</ele>
        <time>2021-10-15T14:19:21Z</time>
      </trkpt>
      <trkpt lat="42.087925" lon="-4.901959">
        <ele>714.462</ele>
        <time>2021-10-15T14:19:23Z</time>
      </trkpt>
      <trkpt lat="42.087732" lon="-4.901972">
        <ele>713.740</ele>
        <time>2021-10-15T14:19:24Z</time>
      </trkpt>
      <trkpt lat="42.087340" lon="-4.901997">
        <ele>713.113</ele>
        <time>2021-10-15T14:19:26Z</time>
      </trkpt>
      <trkpt lat="42.086955" lon="-4.902021">
        <ele>713.258</ele>
        <time>2021-10-15T14:19:28Z</time>
      </trkpt>
      <trkpt lat="42.086556" lon="-4.902052">
        <ele>712.817</ele>
        <time>2021-10-15T14:19:30Z</time>
      </trkpt>
      <trkpt lat="42.086129" lon="-4.902085">
        <ele>713.387</ele>
        <time>2021-10-15T14:19:32Z</time>
      </trkpt>
      <trkpt lat="42.085693" lon="-4.902108">
        <ele>712.615</ele>
        <time>2021-10-15T14:19:34Z</time>
      </trkpt>
      <trkpt lat="42.085461" lon="-4.902122">
        <ele>712.508</ele>
        <time>2021-10-15T14:19:35Z</time>
      </trkpt>
      <trkpt lat="42.084992" lon="-4.902151">
        <ele>712.129</ele>
        <time>2021-10-15T14:19:37Z</time>
      </trkpt>
      <trkpt lat="42.084757" lon="-4.902164">
        <ele>710.917</ele>
        <time>2021-10-15T14:19:38Z</time>
      </trkpt>
      <trkpt lat="42.084285" lon="-4.902190">
        <ele>709.675</ele>
        <time>2021-10-15T14:19:40Z</time>
      </trkpt>
      <trkpt lat="42.083838" lon="-4.902211">
        <ele>709.799</ele>
        <time>2021-10-15T14:19:42Z</time>
      </trkpt>
      <trkpt lat="42.083614" lon="-4.902224">
        <ele>709.644</ele>
        <time>2021-10-15T14:19:43Z</time>
      </trkpt>
      <trkpt lat="42.083180" lon="-4.902247">
        <ele>709.672</ele>
        <time>2021-10-15T14:19:45Z</time>
      </trkpt>
      <trkpt lat="42.082741" lon="-4.902273">
        <ele>708.455</ele>
        <time>2021-10-15T14:19:47Z</time>
      </trkpt>
      <trkpt lat="42.082521" lon="-4.902291">
        <ele>708.610</ele>
        <time>2021-10-15T14:19:48Z</time>
      </trkpt>
      <trkpt lat="42.082089" lon="-4.902327">
        <ele>708.152</ele>
        <time>2021-10-15T14:19:50Z</time>
      </trkpt>
      <trkpt lat="42.081866" lon="-4.902340">
        <ele>707.653</ele>
        <time>2021-10-15T14:19:51Z</time>
      </trkpt>
      <trkpt lat="42.081644" lon="-4.902354">
        <ele>707.408</ele>
        <time>2021-10-15T14:19:52Z</time>
      </trkpt>
      <trkpt lat="42.081200" lon="-4.902379">
        <ele>708.308</ele>
        <time>2021-10-15T14:19:54Z</time>
      </trkpt>
      <trkpt lat="42.080978" lon="-4.902393">
        <ele>707.123</ele>
        <time>2021-10-15T14:19:55Z</time>
      </trkpt>
      <trkpt lat="42.080748" lon="-4.902407">
        <ele>706.621</ele>
        <time>2021-10-15T14:19:56Z</time>
      </trkpt>
      <trkpt lat="42.080312" lon="-4.902437">
        <ele>706.129</ele>
        <time>2021-10-15T14:19:58Z</time>
      </trkpt>
      <trkpt lat="42.080087" lon="-4.902456">
        <ele>706.423</ele>
        <time>2021-10-15T14:19:59Z</time>
      </trkpt>
      <trkpt lat="42.079637" lon="-4.902483">
        <ele>705.848</ele>
        <time>2021-10-15T14:20:01Z</time>
      </trkpt>
      <trkpt lat="42.079407" lon="-4.902495">
        <ele>705.996</ele>
        <time>2021-10-15T14:20:02Z</time>
      </trkpt>
      <trkpt lat="42.078964" lon="-4.902519">
        <ele>705.329</ele>
        <time>2021-10-15T14:20:04Z</time>
      </trkpt>
      <trkpt lat="42.078732" lon="-4.902531">
        <ele>705.584</ele>
        <time>2021-10-15T14:20:05Z</time>
      </trkpt>
      <trkpt lat="42.078507" lon="-4.902544">
        <ele>706.322</ele>
        <time>2021-10-15T14:20:06Z</time>
      </trkpt>
      <trkpt lat="42.078078" lon="-4.902576">
        <ele>705.362</ele>
        <time>2021-10-15T14:20:08Z</time>
      </trkpt>
      <trkpt lat="42.077868" lon="-4.902589">
        <ele>705.408</ele>
        <time>2021-10-15T14:20:09Z</time>
      </trkpt>
      <trkpt lat="42.077657" lon="-4.902602">
        <ele>705.108</ele>
        <time>2021-10-15T14:20:10Z</time>
      </trkpt>
      <trkpt lat="42.077248" lon="-4.902623">
        <ele>705.230</ele>
        <time>2021-10-15T14:20:12Z</time>
      </trkpt>
      <trkpt lat="42.076843" lon="-4.902649">
        <ele>705.258</ele>
        <time>2021-10-15T14:20:14Z</time>
      </trkpt>
      <trkpt lat="42.076637" lon="-4.902662">
        <ele>705.366</ele>
        <time>2021-10-15T14:20:15Z</time>
      </trkpt>
      <trkpt lat="42.076211" lon="-4.902691">
        <ele>705.960</ele>
        <time>2021-10-15T14:20:17Z</time>
      </trkpt>
      <trkpt lat="42.075993" lon="-4.902703">
        <ele>705.925</ele>
        <time>2021-10-15T14:20:18Z</time>
      </trkpt>
      <trkpt lat="42.075772" lon="-4.902716">
        <ele>705.723</ele>
        <time>2021-10-15T14:20:19Z</time>
      </trkpt>
      <trkpt lat="42.075334" lon="-4.902752">
        <ele>705.316</ele>
        <time>2021-10-15T14:20:21Z</time>
      </trkpt>
      <trkpt lat="42.074901" lon="-4.902781">
        <ele>705.681</ele>
        <time>2021-10-15T14:20:23Z</time>
      </trkpt>
      <trkpt lat="42.074682" lon="-4.902793">
        <ele>705.525</ele>
        <time>2021-10-15T14:20:24Z</time>
      </trkpt>
      <trkpt lat="42.074466" lon="-4.902806">
        <ele>705.726</ele>
        <time>2021-10-15T14:20:25Z</time>
      </trkpt>
      <trkpt lat="42.074245" lon="-4.902821">
        <ele>705.408</ele>
        <time>2021-10-15T14:20:26Z</time>
      </trkpt>
      <trkpt lat="42.073826" lon="-4.902849">
        <ele>705.608</ele>
        <time>2021-10-15T14:20:28Z</time>
      </trkpt>
      <trkpt lat="42.073394" lon="-4.902873">
        <ele>705.680</ele>
        <time>2021-10-15T14:20:30Z</time>
      </trkpt>
      <trkpt lat="42.073172" lon="-4.902886">
        <ele>705.968</ele>
        <time>2021-10-15T14:20:31Z</time>
      </trkpt>
      <trkpt lat="42.072948" lon="-4.902899">
        <ele>706.396</ele>
        <time>2021-10-15T14:20:32Z</time>
      </trkpt>
      <trkpt lat="42.072508" lon="-4.902928">
        <ele>706.140</ele>
        <time>2021-10-15T14:20:34Z</time>
      </trkpt>
      <trkpt lat="42.072283" lon="-4.902947">
        <ele>706.385</ele>
        <time>2021-10-15T14:20:35Z</time>
      </trkpt>
      <trkpt lat="42.071841" lon="-4.902972">
        <ele>706.743</ele>
        <time>2021-10-15T14:20:37Z</time>
      </trkpt>
      <trkpt lat="42.071409" lon="-4.902991">
        <ele>707.286</ele>
        <time>2021-10-15T14:20:39Z</time>
      </trkpt>
      <trkpt lat="42.070982" lon="-4.903015">
        <ele>706.431</ele>
        <time>2021-10-15T14:20:41Z</time>
      </trkpt>
      <trkpt lat="42.070558" lon="-4.903042">
        <ele>706.196</ele>
        <time>2021-10-15T14:20:43Z</time>
      </trkpt>
      <trkpt lat="42.070343" lon="-4.903055">
        <ele>706.031</ele>
        <time>2021-10-15T14:20:44Z</time>
      </trkpt>
      <trkpt lat="42.069911" lon="-4.903081">
        <ele>706.424</ele>
        <time>2021-10-15T14:20:46Z</time>
      </trkpt>
      <trkpt lat="42.069692" lon="-4.903095">
        <ele>705.808</ele>
        <time>2021-10-15T14:20:47Z</time>
      </trkpt>
      <trkpt lat="42.069470" lon="-4.903110">
        <ele>705.167</ele>
        <time>2021-10-15T14:20:48Z</time>
      </trkpt>
      <trkpt lat="42.069021" lon="-4.903148">
        <ele>706.535</ele>
        <time>2021-10-15T14:20:50Z</time>
      </trkpt>
      <trkpt lat="42.068568" lon="-4.903178">
        <ele>705.813</ele>
        <time>2021-10-15T14:20:52Z</time>
      </trkpt>
      <trkpt lat="42.068105" lon="-4.903198">
        <ele>705.827</ele>
        <time>2021-10-15T14:20:54Z</time>
      </trkpt>
      <trkpt lat="42.067630" lon="-4.903228">
        <ele>705.152</ele>
        <time>2021-10-15T14:20:56Z</time>
      </trkpt>
      <trkpt lat="42.067159" lon="-4.903259">
        <ele>705.730</ele>
        <time>2021-10-15T14:20:58Z</time>
      </trkpt>
      <trkpt lat="42.066669" lon="-4.903291">
        <ele>704.423</ele>
        <time>2021-10-15T14:21:00Z</time>
      </trkpt>
      <trkpt lat="42.066424" lon="-4.903310">
        <ele>704.948</ele>
        <time>2021-10-15T14:21:01Z</time>
      </trkpt>
      <trkpt lat="42.066171" lon="-4.903326">
        <ele>705.695</ele>
        <time>2021-10-15T14:21:02Z</time>
      </trkpt>
      <trkpt lat="42.065680" lon="-4.903355">
        <ele>704.549</ele>
        <time>2021-10-15T14:21:04Z</time>
      </trkpt>
      <trkpt lat="42.065185" lon="-4.903388">
        <ele>704.523</ele>
        <time>2021-10-15T14:21:06Z</time>
      </trkpt>
      <trkpt lat="42.064712" lon="-4.903418">
        <ele>704.508</ele>
        <time>2021-10-15T14:21:08Z</time>
      </trkpt>
      <trkpt lat="42.064481" lon="-4.903430">
        <ele>703.627</ele>
        <time>2021-10-15T14:21:09Z</time>
      </trkpt>
      <trkpt lat="42.064252" lon="-4.903443">
        <ele>703.235</ele>
        <time>2021-10-15T14:21:10Z</time>
      </trkpt>
      <trkpt lat="42.064023" lon="-4.903457">
        <ele>703.383</ele>
        <time>2021-10-15T14:21:11Z</time>
      </trkpt>
      <trkpt lat="42.063572" lon="-4.903491">
        <ele>703.987</ele>
        <time>2021-10-15T14:21:13Z</time>
      </trkpt>
      <trkpt lat="42.063124" lon="-4.903520">
        <ele>703.842</ele>
        <time>2021-10-15T14:21:15Z</time>
      </trkpt>
      <trkpt lat="42.062675" lon="-4.903546">
        <ele>703.720</ele>
        <time>2021-10-15T14:21:17Z</time>
      </trkpt>
      <trkpt lat="42.062451" lon="-4.903560">
        <ele>703.523</ele>
        <time>2021-10-15T14:21:18Z</time>
      </trkpt>
      <trkpt lat="42.062003" lon="-4.903594">
        <ele>703.258</ele>
        <time>2021-10-15T14:21:20Z</time>
      </trkpt>
      <trkpt lat="42.061553" lon="-4.903627">
        <ele>703.991</ele>
        <time>2021-10-15T14:21:22Z</time>
      </trkpt>
      <trkpt lat="42.061114" lon="-4.903643">
        <ele>704.581</ele>
        <time>2021-10-15T14:21:24Z</time>
      </trkpt>
      <trkpt lat="42.060894" lon="-4.903655">
        <ele>705.019</ele>
        <time>2021-10-15T14:21:25Z</time>
      </trkpt>
      <trkpt lat="42.060673" lon="-4.903667">
        <ele>705.108</ele>
        <time>2021-10-15T14:21:26Z</time>
      </trkpt>
      <trkpt lat="42.060242" lon="-4.903694">
        <ele>705.147</ele>
        <time>2021-10-15T14:21:28Z</time>
      </trkpt>
      <trkpt lat="42.059803" lon="-4.903731">
        <ele>705.685</ele>
        <time>2021-10-15T14:21:30Z</time>
      </trkpt>
      <trkpt lat="42.059351" lon="-4.903760">
        <ele>705.833</ele>
        <time>2021-10-15T14:21:32Z</time>
      </trkpt>
      <trkpt lat="42.058889" lon="-4.903787">
        <ele>705.737</ele>
        <time>2021-10-15T14:21:34Z</time>
      </trkpt>
      <trkpt lat="42.058647" lon="-4.903803">
        <ele>705.932</ele>
        <time>2021-10-15T14:21:35Z</time>
      </trkpt>
      <trkpt lat="42.058157" lon="-4.903842">
        <ele>705.720</ele>
        <time>2021-10-15T14:21:37Z</time>
      </trkpt>
      <trkpt lat="42.057906" lon="-4.903856">
        <ele>706.223</ele>
        <time>2021-10-15T14:21:38Z</time>
      </trkpt>
      <trkpt lat="42.057653" lon="-4.903871">
        <ele>706.138</ele>
        <time>2021-10-15T14:21:39Z</time>
      </trkpt>
      <trkpt lat="42.057403" lon="-4.903887">
        <ele>705.625</ele>
        <time>2021-10-15T14:21:40Z</time>
      </trkpt>
      <trkpt lat="42.057164" lon="-4.903902">
        <ele>705.526</ele>
        <time>2021-10-15T14:21:41Z</time>
      </trkpt>
      <trkpt lat="42.056716" lon="-4.903934">
        <ele>705.308</ele>
        <time>2021-10-15T14:21:43Z</time>
      </trkpt>
      <trkpt lat="42.056493" lon="-4.903948">
        <ele>705.108</ele>
        <time>2021-10-15T14:21:44Z</time>
      </trkpt>
      <trkpt lat="42.056267" lon="-4.903966">
        <ele>705.040</ele>
        <time>2021-10-15T14:21:45Z</time>
      </trkpt>
      <trkpt lat="42.056035" lon="-4.903979">
        <ele>705.048</ele>
        <time>2021-10-15T14:21:46Z</time>
      </trkpt>
      <trkpt lat="42.055557" lon="-4.904004">
        <ele>704.426</ele>
        <time>2021-10-15T14:21:48Z</time>
      </trkpt>
      <trkpt lat="42.055062" lon="-4.904031">
        <ele>704.370</ele>
        <time>2021-10-15T14:21:50Z</time>
      </trkpt>
      <trkpt lat="42.054809" lon="-4.904046">
        <ele>703.985</ele>
        <time>2021-10-15T14:21:51Z</time>
      </trkpt>
      <trkpt lat="42.054296" lon="-4.904077">
        <ele>703.513</ele>
        <time>2021-10-15T14:21:53Z</time>
      </trkpt>
      <trkpt lat="42.054038" lon="-4.904092">
        <ele>703.766</ele>
        <time>2021-10-15T14:21:54Z</time>
      </trkpt>
      <trkpt lat="42.053781" lon="-4.904106">
        <ele>703.771</ele>
        <time>2021-10-15T14:21:55Z</time>
      </trkpt>
      <trkpt lat="42.053525" lon="-4.904121">
        <ele>703.491</ele>
        <time>2021-10-15T14:21:56Z</time>
      </trkpt>
      <trkpt lat="42.053058" lon="-4.904157">
        <ele>703.981</ele>
        <time>2021-10-15T14:21:58Z</time>
      </trkpt>
      <trkpt lat="42.052825" lon="-4.904175">
        <ele>704.019</ele>
        <time>2021-10-15T14:21:59Z</time>
      </trkpt>
      <trkpt lat="42.052369" lon="-4.904203">
        <ele>703.608</ele>
        <time>2021-10-15T14:22:01Z</time>
      </trkpt>
      <trkpt lat="42.052141" lon="-4.904217">
        <ele>703.387</ele>
        <time>2021-10-15T14:22:02Z</time>
      </trkpt>
      <trkpt lat="42.051716" lon="-4.904245">
        <ele>703.175</ele>
        <time>2021-10-15T14:22:04Z</time>
      </trkpt>
      <trkpt lat="42.051501" lon="-4.904259">
        <ele>703.123</ele>
        <time>2021-10-15T14:22:05Z</time>
      </trkpt>
      <trkpt lat="42.051081" lon="-4.904286">
        <ele>703.217</ele>
        <time>2021-10-15T14:22:07Z</time>
      </trkpt>
      <trkpt lat="42.050876" lon="-4.904302">
        <ele>702.642</ele>
        <time>2021-10-15T14:22:08Z</time>
      </trkpt>
      <trkpt lat="42.050480" lon="-4.904332">
        <ele>702.190</ele>
        <time>2021-10-15T14:22:10Z</time>
      </trkpt>
      <trkpt lat="42.050096" lon="-4.904354">
        <ele>701.763</ele>
        <time>2021-10-15T14:22:12Z</time>
      </trkpt>
      <trkpt lat="42.049909" lon="-4.904366">
        <ele>701.338</ele>
        <time>2021-10-15T14:22:13Z</time>
      </trkpt>
      <trkpt lat="42.049540" lon="-4.904388">
        <ele>700.864</ele>
        <time>2021-10-15T14:22:15Z</time>
      </trkpt>
      <trkpt lat="42.049171" lon="-4.904411">
        <ele>701.806</ele>
        <time>2021-10-15T14:22:17Z</time>
      </trkpt>
      <trkpt lat="42.048788" lon="-4.904436">
        <ele>701.316</ele>
        <time>2021-10-15T14:22:19Z</time>
      </trkpt>
      <trkpt lat="42.048602" lon="-4.904451">
        <ele>701.408</ele>
        <time>2021-10-15T14:22:20Z</time>
      </trkpt>
      <trkpt lat="42.048425" lon="-4.904464">
        <ele>701.174</ele>
        <time>2021-10-15T14:22:21Z</time>
      </trkpt>
      <trkpt lat="42.048256" lon="-4.904476">
        <ele>701.362</ele>
        <time>2021-10-15T14:22:22Z</time>
      </trkpt>
      <trkpt lat="42.048095" lon="-4.904485">
        <ele>701.560</ele>
        <time>2021-10-15T14:22:23Z</time>
      </trkpt>
      <trkpt lat="42.047808" lon="-4.904504">
        <ele>700.534</ele>
        <time>2021-10-15T14:22:25Z</time>
      </trkpt>
      <trkpt lat="42.047679" lon="-4.904513">
        <ele>700.469</ele>
        <time>2021-10-15T14:22:26Z</time>
      </trkpt>
      <trkpt lat="42.047463" lon="-4.904523">
        <ele>700.527</ele>
        <time>2021-10-15T14:22:28Z</time>
      </trkpt>
      <trkpt lat="42.047367" lon="-4.904528">
        <ele>700.930</ele>
        <time>2021-10-15T14:22:29Z</time>
      </trkpt>
      <trkpt lat="42.047203" lon="-4.904546">
        <ele>700.135</ele>
        <time>2021-10-15T14:22:31Z</time>
      </trkpt>
      <trkpt lat="42.047140" lon="-4.904551">
        <ele>700.548</ele>
        <time>2021-10-15T14:22:32Z</time>
      </trkpt>
      <trkpt lat="42.047082" lon="-4.904549">
        <ele>701.161</ele>
        <time>2021-10-15T14:22:34Z</time>
      </trkpt>
      <trkpt lat="42.047029" lon="-4.904501">
        <ele>701.017</ele>
        <time>2021-10-15T14:22:36Z</time>
      </trkpt>
      <trkpt lat="42.046994" lon="-4.904431">
        <ele>701.108</ele>
        <time>2021-10-15T14:22:37Z</time>
      </trkpt>
      <trkpt lat="42.046951" lon="-4.904330">
        <ele>701.192</ele>
        <time>2021-10-15T14:22:38Z</time>
      </trkpt>
      <trkpt lat="42.046899" lon="-4.904209">
        <ele>701.130</ele>
        <time>2021-10-15T14:22:39Z</time>
      </trkpt>
      <trkpt lat="42.046849" lon="-4.904069">
        <ele>701.538</ele>
        <time>2021-10-15T14:22:40Z</time>
      </trkpt>
      <trkpt lat="42.046757" lon="-4.903787">
        <ele>701.512</ele>
        <time>2021-10-15T14:22:42Z</time>
      </trkpt>
      <trkpt lat="42.046670" lon="-4.903540">
        <ele>701.317</ele>
        <time>2021-10-15T14:22:44Z</time>
      </trkpt>
      <trkpt lat="42.046573" lon="-4.903339">
        <ele>701.675</ele>
        <time>2021-10-15T14:22:46Z</time>
      </trkpt>
      <trkpt lat="42.046516" lon="-4.903245">
        <ele>701.298</ele>
        <time>2021-10-15T14:22:47Z</time>
      </trkpt>
      <trkpt lat="42.046455" lon="-4.903157">
        <ele>701.313</ele>
        <time>2021-10-15T14:22:48Z</time>
      </trkpt>
      <trkpt lat="42.046337" lon="-4.902995">
        <ele>701.429</ele>
        <time>2021-10-15T14:22:50Z</time>
      </trkpt>
      <trkpt lat="42.046248" lon="-4.902837">
        <ele>701.000</ele>
        <time>2021-10-15T14:22:52Z</time>
      </trkpt>
      <trkpt lat="42.046206" lon="-4.902668">
        <ele>700.720</ele>
        <time>2021-10-15T14:22:54Z</time>
      </trkpt>
      <trkpt lat="42.046209" lon="-4.902578">
        <ele>701.108</ele>
        <time>2021-10-15T14:22:55Z</time>
      </trkpt>
      <trkpt lat="42.046238" lon="-4.902492">
        <ele>701.640</ele>
        <time>2021-10-15T14:22:56Z</time>
      </trkpt>
      <trkpt lat="42.046364" lon="-4.902391">
        <ele>702.178</ele>
        <time>2021-10-15T14:22:58Z</time>
      </trkpt>
      <trkpt lat="42.046539" lon="-4.902328">
        <ele>701.686</ele>
        <time>2021-10-15T14:23:00Z</time>
      </trkpt>
      <trkpt lat="42.046731" lon="-4.902194">
        <ele>701.010</ele>
        <time>2021-10-15T14:23:02Z</time>
      </trkpt>
      <trkpt lat="42.046887" lon="-4.902046">
        <ele>699.845</ele>
        <time>2021-10-15T14:23:04Z</time>
      </trkpt>
      <trkpt lat="42.046950" lon="-4.901987">
        <ele>699.873</ele>
        <time>2021-10-15T14:23:05Z</time>
      </trkpt>
      <trkpt lat="42.047006" lon="-4.901935">
        <ele>699.846</ele>
        <time>2021-10-15T14:23:06Z</time>
      </trkpt>
      <trkpt lat="42.047101" lon="-4.901845">
        <ele>699.851</ele>
        <time>2021-10-15T14:23:08Z</time>
      </trkpt>
      <trkpt lat="42.047180" lon="-4.901775">
        <ele>699.824</ele>
        <time>2021-10-15T14:23:10Z</time>
      </trkpt>
      <trkpt lat="42.047247" lon="-4.901750">
        <ele>699.704</ele>
        <time>2021-10-15T14:23:12Z</time>
      </trkpt>
      <trkpt lat="42.047313" lon="-4.901743">
        <ele>699.514</ele>
        <time>2021-10-15T14:23:14Z</time>
      </trkpt>
      <trkpt lat="42.047364" lon="-4.901756">
        <ele>699.608</ele>
        <time>2021-10-15T14:23:16Z</time>
      </trkpt>
      <trkpt lat="42.047418" lon="-4.901803">
        <ele>699.810</ele>
        <time>2021-10-15T14:23:19Z</time>
      </trkpt>
      <trkpt lat="42.047447" lon="-4.901880">
        <ele>700.128</ele>
        <time>2021-10-15T14:30:42Z</time>
      </trkpt>
      <trkpt lat="42.047473" lon="-4.901982">
        <ele>700.156</ele>
        <time>2021-10-15T14:30:44Z</time>
      </trkpt>
      <trkpt lat="42.047460" lon="-4.902077">
        <ele>700.130</ele>
        <time>2021-10-15T14:30:45Z</time>
      </trkpt>
      <trkpt lat="42.047427" lon="-4.902175">
        <ele>700.155</ele>
        <time>2021-10-15T14:30:47Z</time>
      </trkpt>
      <trkpt lat="42.047395" lon="-4.902224">
        <ele>700.163</ele>
        <time>2021-10-15T14:44:02Z</time>
      </trkpt>
      <trkpt lat="42.047339" lon="-4.902233">
        <ele>700.166</ele>
        <time>2021-10-15T14:44:05Z</time>
      </trkpt>
      <trkpt lat="42.047288" lon="-4.902211">
        <ele>700.131</ele>
        <time>2021-10-15T14:44:08Z</time>
      </trkpt>
      <trkpt lat="42.047243" lon="-4.902191">
        <ele>700.148</ele>
        <time>2021-10-15T14:44:12Z</time>
      </trkpt>
      <trkpt lat="42.047187" lon="-4.902153">
        <ele>700.161</ele>
        <time>2021-10-15T14:44:20Z</time>
      </trkpt>
      <trkpt lat="42.047118" lon="-4.902122">
        <ele>700.117</ele>
        <time>2021-10-15T14:44:22Z</time>
      </trkpt>
      <trkpt lat="42.047053" lon="-4.902098">
        <ele>699.908</ele>
        <time>2021-10-15T14:44:24Z</time>
      </trkpt>
      <trkpt lat="42.046965" lon="-4.902135">
        <ele>699.982</ele>
        <time>2021-10-15T14:44:26Z</time>
      </trkpt>
      <trkpt lat="42.046858" lon="-4.902255">
        <ele>699.970</ele>
        <time>2021-10-15T14:44:28Z</time>
      </trkpt>
      <trkpt lat="42.046801" lon="-4.902326">
        <ele>699.938</ele>
        <time>2021-10-15T14:44:29Z</time>
      </trkpt>
      <trkpt lat="42.046750" lon="-4.902407">
        <ele>699.982</ele>
        <time>2021-10-15T14:44:30Z</time>
      </trkpt>
      <trkpt lat="42.046676" lon="-4.902599">
        <ele>699.957</ele>
        <time>2021-10-15T14:44:32Z</time>
      </trkpt>
      <trkpt lat="42.046621" lon="-4.902806">
        <ele>699.995</ele>
        <time>2021-10-15T14:44:34Z</time>
      </trkpt>
      <trkpt lat="42.046582" lon="-4.902892">
        <ele>699.928</ele>
        <time>2021-10-15T14:44:35Z</time>
      </trkpt>
      <trkpt lat="42.046468" lon="-4.903000">
        <ele>699.973</ele>
        <time>2021-10-15T14:44:37Z</time>
      </trkpt>
      <trkpt lat="42.046301" lon="-4.903050">
        <ele>699.978</ele>
        <time>2021-10-15T14:44:39Z</time>
      </trkpt>
      <trkpt lat="42.046121" lon="-4.903154">
        <ele>699.933</ele>
        <time>2021-10-15T14:44:41Z</time>
      </trkpt>
      <trkpt lat="42.046031" lon="-4.903240">
        <ele>699.926</ele>
        <time>2021-10-15T14:44:42Z</time>
      </trkpt>
      <trkpt lat="42.045848" lon="-4.903468">
        <ele>699.908</ele>
        <time>2021-10-15T14:44:44Z</time>
      </trkpt>
      <trkpt lat="42.045660" lon="-4.903697">
        <ele>699.915</ele>
        <time>2021-10-15T14:44:46Z</time>
      </trkpt>
      <trkpt lat="42.045556" lon="-4.903819">
        <ele>699.943</ele>
        <time>2021-10-15T14:44:47Z</time>
      </trkpt>
      <trkpt lat="42.045451" lon="-4.903945">
        <ele>699.911</ele>
        <time>2021-10-15T14:44:48Z</time>
      </trkpt>
      <trkpt lat="42.045343" lon="-4.904078">
        <ele>699.935</ele>
        <time>2021-10-15T14:44:49Z</time>
      </trkpt>
      <trkpt lat="42.045230" lon="-4.904216">
        <ele>699.910</ele>
        <time>2021-10-15T14:44:50Z</time>
      </trkpt>
      <trkpt lat="42.045003" lon="-4.904498">
        <ele>699.968</ele>
        <time>2021-10-15T14:44:52Z</time>
      </trkpt>
      <trkpt lat="42.044892" lon="-4.904632">
        <ele>699.931</ele>
        <time>2021-10-15T14:44:53Z</time>
      </trkpt>
      <trkpt lat="42.044696" lon="-4.904875">
        <ele>699.986</ele>
        <time>2021-10-15T14:44:55Z</time>
      </trkpt>
      <trkpt lat="42.044610" lon="-4.904988">
        <ele>699.911</ele>
        <time>2021-10-15T14:44:56Z</time>
      </trkpt>
      <trkpt lat="42.044450" lon="-4.905180">
        <ele>699.921</ele>
        <time>2021-10-15T14:44:58Z</time>
      </trkpt>
      <trkpt lat="42.044300" lon="-4.905362">
        <ele>699.903</ele>
        <time>2021-10-15T14:45:00Z</time>
      </trkpt>
      <trkpt lat="42.044223" lon="-4.905456">
        <ele>699.908</ele>
        <time>2021-10-15T14:45:01Z</time>
      </trkpt>
      <trkpt lat="42.044142" lon="-4.905558">
        <ele>699.919</ele>
        <time>2021-10-15T14:45:02Z</time>
      </trkpt>
      <trkpt lat="42.043982" lon="-4.905759">
        <ele>699.977</ele>
        <time>2021-10-15T14:45:04Z</time>
      </trkpt>
      <trkpt lat="42.043817" lon="-4.905977">
        <ele>700.075</ele>
        <time>2021-10-15T14:45:06Z</time>
      </trkpt>
      <trkpt lat="42.043635" lon="-4.906206">
        <ele>700.049</ele>
        <time>2021-10-15T14:45:08Z</time>
      </trkpt>
      <trkpt lat="42.043533" lon="-4.906330">
        <ele>700.034</ele>
        <time>2021-10-15T14:45:09Z</time>
      </trkpt>
      <trkpt lat="42.043314" lon="-4.906595">
        <ele>700.052</ele>
        <time>2021-10-15T14:45:11Z</time>
      </trkpt>
      <trkpt lat="42.043103" lon="-4.906857">
        <ele>700.025</ele>
        <time>2021-10-15T14:45:13Z</time>
      </trkpt>
      <trkpt lat="42.043001" lon="-4.906978">
        <ele>700.080</ele>
        <time>2021-10-15T14:45:14Z</time>
      </trkpt>
      <trkpt lat="42.042810" lon="-4.907213">
        <ele>700.046</ele>
        <time>2021-10-15T14:45:16Z</time>
      </trkpt>
      <trkpt lat="42.042725" lon="-4.907323">
        <ele>700.088</ele>
        <time>2021-10-15T14:45:17Z</time>
      </trkpt>
      <trkpt lat="42.042574" lon="-4.907516">
        <ele>706.116</ele>
        <time>2021-10-15T14:45:19Z</time>
      </trkpt>
      <trkpt lat="42.042513" lon="-4.907592">
        <ele>706.308</ele>
        <time>2021-10-15T14:45:20Z</time>
      </trkpt>
      <trkpt lat="42.042466" lon="-4.907646">
        <ele>706.232</ele>
        <time>2021-10-15T14:45:21Z</time>
      </trkpt>
      <trkpt lat="42.042404" lon="-4.907671">
        <ele>707.110</ele>
        <time>2021-10-15T14:45:23Z</time>
      </trkpt>
      <trkpt lat="42.042328" lon="-4.907640">
        <ele>707.958</ele>
        <time>2021-10-15T14:45:25Z</time>
      </trkpt>
      <trkpt lat="42.042274" lon="-4.907619">
        <ele>708.262</ele>
        <time>2021-10-15T14:45:26Z</time>
      </trkpt>
      <trkpt lat="42.042156" lon="-4.907666">
        <ele>708.277</ele>
        <time>2021-10-15T14:45:28Z</time>
      </trkpt>
      <trkpt lat="42.042092" lon="-4.907728">
        <ele>708.335</ele>
        <time>2021-10-15T14:45:29Z</time>
      </trkpt>
      <trkpt lat="42.042021" lon="-4.907801">
        <ele>708.318</ele>
        <time>2021-10-15T14:45:30Z</time>
      </trkpt>
      <trkpt lat="42.041838" lon="-4.907931">
        <ele>708.953</ele>
        <time>2021-10-15T14:45:32Z</time>
      </trkpt>
      <trkpt lat="42.041615" lon="-4.907990">
        <ele>707.872</ele>
        <time>2021-10-15T14:45:34Z</time>
      </trkpt>
      <trkpt lat="42.041492" lon="-4.907997">
        <ele>707.813</ele>
        <time>2021-10-15T14:45:35Z</time>
      </trkpt>
      <trkpt lat="42.041366" lon="-4.907995">
        <ele>708.214</ele>
        <time>2021-10-15T14:45:36Z</time>
      </trkpt>
      <trkpt lat="42.041120" lon="-4.907981">
        <ele>707.808</ele>
        <time>2021-10-15T14:45:38Z</time>
      </trkpt>
      <trkpt lat="42.040885" lon="-4.907938">
        <ele>706.095</ele>
        <time>2021-10-15T14:45:40Z</time>
      </trkpt>
      <trkpt lat="42.040669" lon="-4.907869">
        <ele>706.183</ele>
        <time>2021-10-15T14:45:42Z</time>
      </trkpt>
      <trkpt lat="42.040490" lon="-4.907853">
        <ele>706.281</ele>
        <time>2021-10-15T14:45:44Z</time>
      </trkpt>
      <trkpt lat="42.040339" lon="-4.907922">
        <ele>708.095</ele>
        <time>2021-10-15T14:45:46Z</time>
      </trkpt>
      <trkpt lat="42.040266" lon="-4.907998">
        <ele>708.540</ele>
        <time>2021-10-15T14:45:47Z</time>
      </trkpt>
      <trkpt lat="42.040183" lon="-4.908091">
        <ele>708.758</ele>
        <time>2021-10-15T14:45:48Z</time>
      </trkpt>
      <trkpt lat="42.040090" lon="-4.908192">
        <ele>708.931</ele>
        <time>2021-10-15T14:45:49Z</time>
      </trkpt>
      <trkpt lat="42.039887" lon="-4.908416">
        <ele>709.366</ele>
        <time>2021-10-15T14:45:51Z</time>
      </trkpt>
      <trkpt lat="42.039791" lon="-4.908524">
        <ele>708.724</ele>
        <time>2021-10-15T14:45:52Z</time>
      </trkpt>
      <trkpt lat="42.039710" lon="-4.908632">
        <ele>707.604</ele>
        <time>2021-10-15T14:45:53Z</time>
      </trkpt>
      <trkpt lat="42.039650" lon="-4.908739">
        <ele>707.314</ele>
        <time>2021-10-15T14:45:54Z</time>
      </trkpt>
      <trkpt lat="42.039585" lon="-4.908924">
        <ele>707.008</ele>
        <time>2021-10-15T14:45:56Z</time>
      </trkpt>
      <trkpt lat="42.039542" lon="-4.909045">
        <ele>707.070</ele>
        <time>2021-10-15T14:45:58Z</time>
      </trkpt>
      <trkpt lat="42.039501" lon="-4.909097">
        <ele>707.158</ele>
        <time>2021-10-15T14:46:00Z</time>
      </trkpt>
      <trkpt lat="42.039432" lon="-4.909093">
        <ele>707.156</ele>
        <time>2021-10-15T14:46:02Z</time>
      </trkpt>
      <trkpt lat="42.039385" lon="-4.909017">
        <ele>706.730</ele>
        <time>2021-10-15T14:46:04Z</time>
      </trkpt>
      <trkpt lat="42.039312" lon="-4.908868">
        <ele>706.155</ele>
        <time>2021-10-15T14:46:06Z</time>
      </trkpt>
      <trkpt lat="42.039256" lon="-4.908772">
        <ele>706.033</ele>
        <time>2021-10-15T14:46:07Z</time>
      </trkpt>
      <trkpt lat="42.039119" lon="-4.908542">
        <ele>705.986</ele>
        <time>2021-10-15T14:46:09Z</time>
      </trkpt>
      <trkpt lat="42.039042" lon="-4.908407">
        <ele>705.731</ele>
        <time>2021-10-15T14:46:10Z</time>
      </trkpt>
      <trkpt lat="42.038865" lon="-4.908114">
        <ele>705.414</ele>
        <time>2021-10-15T14:46:12Z</time>
      </trkpt>
      <trkpt lat="42.038676" lon="-4.907781">
        <ele>705.354</ele>
        <time>2021-10-15T14:46:14Z</time>
      </trkpt>
      <trkpt lat="42.038583" lon="-4.907595">
        <ele>705.009</ele>
        <time>2021-10-15T14:46:15Z</time>
      </trkpt>
      <trkpt lat="42.038402" lon="-4.907199">
        <ele>705.208</ele>
        <time>2021-10-15T14:46:17Z</time>
      </trkpt>
      <trkpt lat="42.038306" lon="-4.906993">
        <ele>705.499</ele>
        <time>2021-10-15T14:46:18Z</time>
      </trkpt>
      <trkpt lat="42.038200" lon="-4.906790">
        <ele>704.757</ele>
        <time>2021-10-15T14:46:19Z</time>
      </trkpt>
      <trkpt lat="42.037965" lon="-4.906409">
        <ele>704.565</ele>
        <time>2021-10-15T14:46:21Z</time>
      </trkpt>
      <trkpt lat="42.037831" lon="-4.906225">
        <ele>704.499</ele>
        <time>2021-10-15T14:46:22Z</time>
      </trkpt>
      <trkpt lat="42.037543" lon="-4.905851">
        <ele>702.764</ele>
        <time>2021-10-15T14:46:24Z</time>
      </trkpt>
      <trkpt lat="42.037238" lon="-4.905448">
        <ele>703.212</ele>
        <time>2021-10-15T14:46:26Z</time>
      </trkpt>
      <trkpt lat="42.036930" lon="-4.905058">
        <ele>702.325</ele>
        <time>2021-10-15T14:46:28Z</time>
      </trkpt>
      <trkpt lat="42.036588" lon="-4.904715">
        <ele>702.960</ele>
        <time>2021-10-15T14:46:30Z</time>
      </trkpt>
      <trkpt lat="42.036215" lon="-4.904404">
        <ele>702.066</ele>
        <time>2021-10-15T14:46:32Z</time>
      </trkpt>
      <trkpt lat="42.035841" lon="-4.904091">
        <ele>701.729</ele>
        <time>2021-10-15T14:46:34Z</time>
      </trkpt>
      <trkpt lat="42.035651" lon="-4.903929">
        <ele>701.521</ele>
        <time>2021-10-15T14:46:35Z</time>
      </trkpt>
      <trkpt lat="42.035278" lon="-4.903609">
        <ele>701.708</ele>
        <time>2021-10-15T14:46:37Z</time>
      </trkpt>
      <trkpt lat="42.034913" lon="-4.903296">
        <ele>702.314</ele>
        <time>2021-10-15T14:46:39Z</time>
      </trkpt>
      <trkpt lat="42.034741" lon="-4.903148">
        <ele>702.182</ele>
        <time>2021-10-15T14:46:40Z</time>
      </trkpt>
      <trkpt lat="42.034417" lon="-4.902869">
        <ele>702.330</ele>
        <time>2021-10-15T14:46:42Z</time>
      </trkpt>
      <trkpt lat="42.034254" lon="-4.902729">
        <ele>702.694</ele>
        <time>2021-10-15T14:46:43Z</time>
      </trkpt>
      <trkpt lat="42.033927" lon="-4.902458">
        <ele>703.399</ele>
        <time>2021-10-15T14:46:45Z</time>
      </trkpt>
      <trkpt lat="42.033593" lon="-4.902185">
        <ele>702.467</ele>
        <time>2021-10-15T14:46:47Z</time>
      </trkpt>
      <trkpt lat="42.033426" lon="-4.902044">
        <ele>702.480</ele>
        <time>2021-10-15T14:46:48Z</time>
      </trkpt>
      <trkpt lat="42.033256" lon="-4.901911">
        <ele>702.555</ele>
        <time>2021-10-15T14:46:49Z</time>
      </trkpt>
      <trkpt lat="42.033084" lon="-4.901783">
        <ele>702.248</ele>
        <time>2021-10-15T14:46:50Z</time>
      </trkpt>
      <trkpt lat="42.032910" lon="-4.901658">
        <ele>701.961</ele>
        <time>2021-10-15T14:46:51Z</time>
      </trkpt>
      <trkpt lat="42.032549" lon="-4.901416">
        <ele>702.017</ele>
        <time>2021-10-15T14:46:53Z</time>
      </trkpt>
      <trkpt lat="42.032359" lon="-4.901311">
        <ele>701.508</ele>
        <time>2021-10-15T14:46:54Z</time>
      </trkpt>
      <trkpt lat="42.031971" lon="-4.901093">
        <ele>700.462</ele>
        <time>2021-10-15T14:46:56Z</time>
      </trkpt>
      <trkpt lat="42.031583" lon="-4.900879">
        <ele>699.720</ele>
        <time>2021-10-15T14:46:58Z</time>
      </trkpt>
      <trkpt lat="42.031184" lon="-4.900657">
        <ele>698.148</ele>
        <time>2021-10-15T14:47:00Z</time>
      </trkpt>
      <trkpt lat="42.030978" lon="-4.900545">
        <ele>697.792</ele>
        <time>2021-10-15T14:47:01Z</time>
      </trkpt>
      <trkpt lat="42.030767" lon="-4.900429">
        <ele>697.787</ele>
        <time>2021-10-15T14:47:02Z</time>
      </trkpt>
      <trkpt lat="42.030361" lon="-4.900194">
        <ele>696.675</ele>
        <time>2021-10-15T14:47:04Z</time>
      </trkpt>
      <trkpt lat="42.030157" lon="-4.900077">
        <ele>696.748</ele>
        <time>2021-10-15T14:47:05Z</time>
      </trkpt>
      <trkpt lat="42.029751" lon="-4.899854">
        <ele>696.813</ele>
        <time>2021-10-15T14:47:07Z</time>
      </trkpt>
      <trkpt lat="42.029548" lon="-4.899742">
        <ele>697.362</ele>
        <time>2021-10-15T14:47:08Z</time>
      </trkpt>
      <trkpt lat="42.029345" lon="-4.899629">
        <ele>697.283</ele>
        <time>2021-10-15T14:47:09Z</time>
      </trkpt>
      <trkpt lat="42.028938" lon="-4.899403">
        <ele>698.011</ele>
        <time>2021-10-15T14:47:11Z</time>
      </trkpt>
      <trkpt lat="42.028539" lon="-4.899175">
        <ele>697.908</ele>
        <time>2021-10-15T14:47:13Z</time>
      </trkpt>
      <trkpt lat="42.028341" lon="-4.899061">
        <ele>698.124</ele>
        <time>2021-10-15T14:47:14Z</time>
      </trkpt>
      <trkpt lat="42.027947" lon="-4.898830">
        <ele>697.652</ele>
        <time>2021-10-15T14:47:16Z</time>
      </trkpt>
      <trkpt lat="42.027747" lon="-4.898709">
        <ele>697.850</ele>
        <time>2021-10-15T14:47:17Z</time>
      </trkpt>
      <trkpt lat="42.027344" lon="-4.898483">
        <ele>697.764</ele>
        <time>2021-10-15T14:47:19Z</time>
      </trkpt>
      <trkpt lat="42.026932" lon="-4.898272">
        <ele>698.339</ele>
        <time>2021-10-15T14:47:21Z</time>
      </trkpt>
      <trkpt lat="42.026724" lon="-4.898159">
        <ele>698.587</ele>
        <time>2021-10-15T14:47:22Z</time>
      </trkpt>
      <trkpt lat="42.026317" lon="-4.897917">
        <ele>697.920</ele>
        <time>2021-10-15T14:47:24Z</time>
      </trkpt>
      <trkpt lat="42.025900" lon="-4.897684">
        <ele>697.455</ele>
        <time>2021-10-15T14:47:26Z</time>
      </trkpt>
      <trkpt lat="42.025498" lon="-4.897457">
        <ele>697.864</ele>
        <time>2021-10-15T14:47:28Z</time>
      </trkpt>
      <trkpt lat="42.025092" lon="-4.897227">
        <ele>697.206</ele>
        <time>2021-10-15T14:47:30Z</time>
      </trkpt>
      <trkpt lat="42.024688" lon="-4.896998">
        <ele>696.916</ele>
        <time>2021-10-15T14:47:32Z</time>
      </trkpt>
      <trkpt lat="42.024304" lon="-4.896783">
        <ele>696.208</ele>
        <time>2021-10-15T14:47:34Z</time>
      </trkpt>
      <trkpt lat="42.023889" lon="-4.896546">
        <ele>696.044</ele>
        <time>2021-10-15T14:47:36Z</time>
      </trkpt>
      <trkpt lat="42.023673" lon="-4.896427">
        <ele>695.852</ele>
        <time>2021-10-15T14:47:37Z</time>
      </trkpt>
      <trkpt lat="42.023237" lon="-4.896187">
        <ele>696.140</ele>
        <time>2021-10-15T14:47:39Z</time>
      </trkpt>
      <trkpt lat="42.022801" lon="-4.895940">
        <ele>696.194</ele>
        <time>2021-10-15T14:47:41Z</time>
      </trkpt>
      <trkpt lat="42.022581" lon="-4.895814">
        <ele>696.189</ele>
        <time>2021-10-15T14:47:42Z</time>
      </trkpt>
      <trkpt lat="42.022359" lon="-4.895693">
        <ele>696.127</ele>
        <time>2021-10-15T14:47:43Z</time>
      </trkpt>
      <trkpt lat="42.021918" lon="-4.895449">
        <ele>696.330</ele>
        <time>2021-10-15T14:47:45Z</time>
      </trkpt>
      <trkpt lat="42.021481" lon="-4.895210">
        <ele>696.515</ele>
        <time>2021-10-15T14:47:47Z</time>
      </trkpt>
      <trkpt lat="42.021263" lon="-4.895087">
        <ele>696.557</ele>
        <time>2021-10-15T14:47:48Z</time>
      </trkpt>
      <trkpt lat="42.020826" lon="-4.894843">
        <ele>696.300</ele>
        <time>2021-10-15T14:47:50Z</time>
      </trkpt>
      <trkpt lat="42.020608" lon="-4.894720">
        <ele>696.720</ele>
        <time>2021-10-15T14:47:51Z</time>
      </trkpt>
      <trkpt lat="42.020390" lon="-4.894599">
        <ele>697.208</ele>
        <time>2021-10-15T14:47:52Z</time>
      </trkpt>
      <trkpt lat="42.019954" lon="-4.894354">
        <ele>696.933</ele>
        <time>2021-10-15T14:47:54Z</time>
      </trkpt>
      <trkpt lat="42.019501" lon="-4.894095">
        <ele>697.191</ele>
        <time>2021-10-15T14:47:56Z</time>
      </trkpt>
      <trkpt lat="42.019049" lon="-4.893839">
        <ele>697.739</ele>
        <time>2021-10-15T14:47:58Z</time>
      </trkpt>
      <trkpt lat="42.018815" lon="-4.893710">
        <ele>698.513</ele>
        <time>2021-10-15T14:47:59Z</time>
      </trkpt>
      <trkpt lat="42.018358" lon="-4.893460">
        <ele>698.948</ele>
        <time>2021-10-15T14:48:01Z</time>
      </trkpt>
      <trkpt lat="42.018143" lon="-4.893336">
        <ele>699.496</ele>
        <time>2021-10-15T14:48:02Z</time>
      </trkpt>
      <trkpt lat="42.017773" lon="-4.893118">
        <ele>699.049</ele>
        <time>2021-10-15T14:48:04Z</time>
      </trkpt>
      <trkpt lat="42.017425" lon="-4.892939">
        <ele>699.514</ele>
        <time>2021-10-15T14:48:06Z</time>
      </trkpt>
      <trkpt lat="42.017115" lon="-4.892769">
        <ele>699.787</ele>
        <time>2021-10-15T14:48:08Z</time>
      </trkpt>
      <trkpt lat="42.016836" lon="-4.892613">
        <ele>699.842</ele>
        <time>2021-10-15T14:48:10Z</time>
      </trkpt>
      <trkpt lat="42.016704" lon="-4.892539">
        <ele>700.126</ele>
        <time>2021-10-15T14:48:11Z</time>
      </trkpt>
      <trkpt lat="42.016578" lon="-4.892467">
        <ele>699.608</ele>
        <time>2021-10-15T14:48:12Z</time>
      </trkpt>
      <trkpt lat="42.016325" lon="-4.892310">
        <ele>699.056</ele>
        <time>2021-10-15T14:48:14Z</time>
      </trkpt>
      <trkpt lat="42.016184" lon="-4.892221">
        <ele>699.214</ele>
        <time>2021-10-15T14:48:15Z</time>
      </trkpt>
      <trkpt lat="42.016047" lon="-4.892134">
        <ele>699.642</ele>
        <time>2021-10-15T14:48:16Z</time>
      </trkpt>
      <trkpt lat="42.015812" lon="-4.891945">
        <ele>700.356</ele>
        <time>2021-10-15T14:48:18Z</time>
      </trkpt>
      <trkpt lat="42.015637" lon="-4.891651">
        <ele>700.461</ele>
        <time>2021-10-15T14:48:20Z</time>
      </trkpt>
      <trkpt lat="42.015554" lon="-4.891455">
        <ele>701.189</ele>
        <time>2021-10-15T14:48:21Z</time>
      </trkpt>
      <trkpt lat="42.015396" lon="-4.891115">
        <ele>702.042</ele>
        <time>2021-10-15T14:48:23Z</time>
      </trkpt>
      <trkpt lat="42.015244" lon="-4.890922">
        <ele>702.737</ele>
        <time>2021-10-15T14:48:25Z</time>
      </trkpt>
      <trkpt lat="42.015166" lon="-4.890868">
        <ele>702.814</ele>
        <time>2021-10-15T14:48:26Z</time>
      </trkpt>
      <trkpt lat="42.014994" lon="-4.890763">
        <ele>702.954</ele>
        <time>2021-10-15T14:48:28Z</time>
      </trkpt>
      <trkpt lat="42.014780" lon="-4.890625">
        <ele>702.609</ele>
        <time>2021-10-15T14:48:30Z</time>
      </trkpt>
      <trkpt lat="42.014550" lon="-4.890424">
        <ele>700.908</ele>
        <time>2021-10-15T14:48:32Z</time>
      </trkpt>
      <trkpt lat="42.014386" lon="-4.890128">
        <ele>698.149</ele>
        <time>2021-10-15T14:48:34Z</time>
      </trkpt>
      <trkpt lat="42.014331" lon="-4.889945">
        <ele>697.497</ele>
        <time>2021-10-15T14:48:35Z</time>
      </trkpt>
      <trkpt lat="42.014283" lon="-4.889774">
        <ele>696.785</ele>
        <time>2021-10-15T14:48:36Z</time>
      </trkpt>
      <trkpt lat="42.014221" lon="-4.889627">
        <ele>695.849</ele>
        <time>2021-10-15T14:48:37Z</time>
      </trkpt>
      <trkpt lat="42.014049" lon="-4.889385">
        <ele>694.754</ele>
        <time>2021-10-15T14:48:39Z</time>
      </trkpt>
      <trkpt lat="42.013946" lon="-4.889271">
        <ele>694.282</ele>
        <time>2021-10-15T14:48:40Z</time>
      </trkpt>
      <trkpt lat="42.013740" lon="-4.889074">
        <ele>692.785</ele>
        <time>2021-10-15T14:48:42Z</time>
      </trkpt>
      <trkpt lat="42.013516" lon="-4.888948">
        <ele>691.160</ele>
        <time>2021-10-15T14:48:44Z</time>
      </trkpt>
      <trkpt lat="42.013398" lon="-4.888902">
        <ele>691.029</ele>
        <time>2021-10-15T14:48:45Z</time>
      </trkpt>
      <trkpt lat="42.013146" lon="-4.888855">
        <ele>690.700</ele>
        <time>2021-10-15T14:48:47Z</time>
      </trkpt>
      <trkpt lat="42.012889" lon="-4.888878">
        <ele>690.020</ele>
        <time>2021-10-15T14:48:49Z</time>
      </trkpt>
      <trkpt lat="42.012770" lon="-4.888910">
        <ele>690.008</ele>
        <time>2021-10-15T14:48:50Z</time>
      </trkpt>
      <trkpt lat="42.012667" lon="-4.888952">
        <ele>689.550</ele>
        <time>2021-10-15T14:48:51Z</time>
      </trkpt>
      <trkpt lat="42.012510" lon="-4.889050">
        <ele>689.528</ele>
        <time>2021-10-15T14:48:53Z</time>
      </trkpt>
      <trkpt lat="42.012329" lon="-4.889119">
        <ele>689.416</ele>
        <time>2021-10-15T14:48:55Z</time>
      </trkpt>
      <trkpt lat="42.012214" lon="-4.889114">
        <ele>689.110</ele>
        <time>2021-10-15T14:48:56Z</time>
      </trkpt>
      <trkpt lat="42.011950" lon="-4.889026">
        <ele>689.435</ele>
        <time>2021-10-15T14:48:58Z</time>
      </trkpt>
      <trkpt lat="42.011798" lon="-4.888960">
        <ele>689.683</ele>
        <time>2021-10-15T14:48:59Z</time>
      </trkpt>
      <trkpt lat="42.011641" lon="-4.888894">
        <ele>690.246</ele>
        <time>2021-10-15T14:49:00Z</time>
      </trkpt>
      <trkpt lat="42.011300" lon="-4.888762">
        <ele>690.481</ele>
        <time>2021-10-15T14:49:02Z</time>
      </trkpt>
      <trkpt lat="42.010963" lon="-4.888648">
        <ele>691.719</ele>
        <time>2021-10-15T14:49:04Z</time>
      </trkpt>
      <trkpt lat="42.010806" lon="-4.888589">
        <ele>691.409</ele>
        <time>2021-10-15T14:49:05Z</time>
      </trkpt>
      <trkpt lat="42.010652" lon="-4.888530">
        <ele>691.719</ele>
        <time>2021-10-15T14:49:06Z</time>
      </trkpt>
      <trkpt lat="42.010493" lon="-4.888464">
        <ele>692.508</ele>
        <time>2021-10-15T14:49:07Z</time>
      </trkpt>
      <trkpt lat="42.010322" lon="-4.888389">
        <ele>692.949</ele>
        <time>2021-10-15T14:49:08Z</time>
      </trkpt>
      <trkpt lat="42.009951" lon="-4.888225">
        <ele>693.587</ele>
        <time>2021-10-15T14:49:10Z</time>
      </trkpt>
      <trkpt lat="42.009750" lon="-4.888135">
        <ele>693.665</ele>
        <time>2021-10-15T14:49:11Z</time>
      </trkpt>
      <trkpt lat="42.009328" lon="-4.887950">
        <ele>694.159</ele>
        <time>2021-10-15T14:49:13Z</time>
      </trkpt>
      <trkpt lat="42.009103" lon="-4.887850">
        <ele>694.844</ele>
        <time>2021-10-15T14:49:14Z</time>
      </trkpt>
      <trkpt lat="42.008862" lon="-4.887748">
        <ele>695.292</ele>
        <time>2021-10-15T14:49:15Z</time>
      </trkpt>
      <trkpt lat="42.008609" lon="-4.887640">
        <ele>695.595</ele>
        <time>2021-10-15T14:49:16Z</time>
      </trkpt>
      <trkpt lat="42.008127" lon="-4.887436">
        <ele>695.960</ele>
        <time>2021-10-15T14:49:18Z</time>
      </trkpt>
      <trkpt lat="42.007683" lon="-4.887248">
        <ele>696.191</ele>
        <time>2021-10-15T14:49:20Z</time>
      </trkpt>
      <trkpt lat="42.007272" lon="-4.887066">
        <ele>696.781</ele>
        <time>2021-10-15T14:49:22Z</time>
      </trkpt>
      <trkpt lat="42.006884" lon="-4.886911">
        <ele>696.519</ele>
        <time>2021-10-15T14:49:24Z</time>
      </trkpt>
      <trkpt lat="42.006698" lon="-4.886830">
        <ele>697.308</ele>
        <time>2021-10-15T14:49:25Z</time>
      </trkpt>
      <trkpt lat="42.006517" lon="-4.886749">
        <ele>697.647</ele>
        <time>2021-10-15T14:49:26Z</time>
      </trkpt>
      <trkpt lat="42.006158" lon="-4.886591">
        <ele>697.625</ele>
        <time>2021-10-15T14:49:28Z</time>
      </trkpt>
      <trkpt lat="42.005743" lon="-4.886419">
        <ele>697.183</ele>
        <time>2021-10-15T14:49:30Z</time>
      </trkpt>
      <trkpt lat="42.005265" lon="-4.886212">
        <ele>697.567</ele>
        <time>2021-10-15T14:49:32Z</time>
      </trkpt>
      <trkpt lat="42.004757" lon="-4.885997">
        <ele>697.412</ele>
        <time>2021-10-15T14:49:34Z</time>
      </trkpt>
      <trkpt lat="42.004492" lon="-4.885885">
        <ele>697.640</ele>
        <time>2021-10-15T14:49:35Z</time>
      </trkpt>
      <trkpt lat="42.004225" lon="-4.885774">
        <ele>697.713</ele>
        <time>2021-10-15T14:49:36Z</time>
      </trkpt>
      <trkpt lat="42.003687" lon="-4.885546">
        <ele>698.438</ele>
        <time>2021-10-15T14:49:38Z</time>
      </trkpt>
      <trkpt lat="42.003415" lon="-4.885429">
        <ele>698.082</ele>
        <time>2021-10-15T14:49:39Z</time>
      </trkpt>
      <trkpt lat="42.002875" lon="-4.885186">
        <ele>697.043</ele>
        <time>2021-10-15T14:49:41Z</time>
      </trkpt>
      <trkpt lat="42.002352" lon="-4.884959">
        <ele>696.817</ele>
        <time>2021-10-15T14:49:43Z</time>
      </trkpt>
      <trkpt lat="42.001868" lon="-4.884745">
        <ele>695.208</ele>
        <time>2021-10-15T14:49:45Z</time>
      </trkpt>
      <trkpt lat="42.001632" lon="-4.884646">
        <ele>694.756</ele>
        <time>2021-10-15T14:49:46Z</time>
      </trkpt>
      <trkpt lat="42.001181" lon="-4.884454">
        <ele>694.514</ele>
        <time>2021-10-15T14:49:48Z</time>
      </trkpt>
      <trkpt lat="42.000963" lon="-4.884361">
        <ele>693.982</ele>
        <time>2021-10-15T14:49:49Z</time>
      </trkpt>
      <trkpt lat="42.000549" lon="-4.884184">
        <ele>694.736</ele>
        <time>2021-10-15T14:49:51Z</time>
      </trkpt>
      <trkpt lat="42.000349" lon="-4.884097">
        <ele>694.271</ele>
        <time>2021-10-15T14:49:52Z</time>
      </trkpt>
      <trkpt lat="41.999958" lon="-4.883923">
        <ele>693.739</ele>
        <time>2021-10-15T14:49:54Z</time>
      </trkpt>
      <trkpt lat="41.999758" lon="-4.883837">
        <ele>694.262</ele>
        <time>2021-10-15T14:49:55Z</time>
      </trkpt>
      <trkpt lat="41.999551" lon="-4.883748">
        <ele>693.927</ele>
        <time>2021-10-15T14:49:56Z</time>
      </trkpt>
      <trkpt lat="41.999141" lon="-4.883572">
        <ele>694.246</ele>
        <time>2021-10-15T14:49:58Z</time>
      </trkpt>
      <trkpt lat="41.998913" lon="-4.883469">
        <ele>694.188</ele>
        <time>2021-10-15T14:49:59Z</time>
      </trkpt>
      <trkpt lat="41.998426" lon="-4.883246">
        <ele>695.316</ele>
        <time>2021-10-15T14:50:01Z</time>
      </trkpt>
      <trkpt lat="41.998164" lon="-4.883139">
        <ele>695.608</ele>
        <time>2021-10-15T14:50:02Z</time>
      </trkpt>
      <trkpt lat="41.997640" lon="-4.882935">
        <ele>695.782</ele>
        <time>2021-10-15T14:50:04Z</time>
      </trkpt>
      <trkpt lat="41.997371" lon="-4.882804">
        <ele>695.770</ele>
        <time>2021-10-15T14:50:05Z</time>
      </trkpt>
      <trkpt lat="41.997100" lon="-4.882672">
        <ele>696.118</ele>
        <time>2021-10-15T14:50:06Z</time>
      </trkpt>
      <trkpt lat="41.996823" lon="-4.882564">
        <ele>695.732</ele>
        <time>2021-10-15T14:50:07Z</time>
      </trkpt>
      <trkpt lat="41.996546" lon="-4.882458">
        <ele>695.497</ele>
        <time>2021-10-15T14:50:08Z</time>
      </trkpt>
      <trkpt lat="41.996008" lon="-4.882211">
        <ele>695.815</ele>
        <time>2021-10-15T14:50:10Z</time>
      </trkpt>
      <trkpt lat="41.995469" lon="-4.881995">
        <ele>694.188</ele>
        <time>2021-10-15T14:50:12Z</time>
      </trkpt>
      <trkpt lat="41.995205" lon="-4.881883">
        <ele>693.223</ele>
        <time>2021-10-15T14:50:13Z</time>
      </trkpt>
      <trkpt lat="41.994721" lon="-4.881671">
        <ele>691.578</ele>
        <time>2021-10-15T14:50:15Z</time>
      </trkpt>
      <trkpt lat="41.994481" lon="-4.881570">
        <ele>690.933</ele>
        <time>2021-10-15T14:50:16Z</time>
      </trkpt>
      <trkpt lat="41.994239" lon="-4.881470">
        <ele>690.926</ele>
        <time>2021-10-15T14:50:17Z</time>
      </trkpt>
      <trkpt lat="41.993758" lon="-4.881271">
        <ele>690.808</ele>
        <time>2021-10-15T14:50:19Z</time>
      </trkpt>
      <trkpt lat="41.993517" lon="-4.881162">
        <ele>690.545</ele>
        <time>2021-10-15T14:50:20Z</time>
      </trkpt>
      <trkpt lat="41.993035" lon="-4.880939">
        <ele>690.783</ele>
        <time>2021-10-15T14:50:22Z</time>
      </trkpt>
      <trkpt lat="41.992549" lon="-4.880728">
        <ele>690.191</ele>
        <time>2021-10-15T14:50:24Z</time>
      </trkpt>
      <trkpt lat="41.992304" lon="-4.880620">
        <ele>690.075</ele>
        <time>2021-10-15T14:50:25Z</time>
      </trkpt>
      <trkpt lat="41.992053" lon="-4.880514">
        <ele>690.580</ele>
        <time>2021-10-15T14:50:26Z</time>
      </trkpt>
      <trkpt lat="41.991575" lon="-4.880310">
        <ele>690.338</ele>
        <time>2021-10-15T14:50:28Z</time>
      </trkpt>
      <trkpt lat="41.991116" lon="-4.880110">
        <ele>690.621</ele>
        <time>2021-10-15T14:50:30Z</time>
      </trkpt>
      <trkpt lat="41.990902" lon="-4.880015">
        <ele>690.186</ele>
        <time>2021-10-15T14:50:31Z</time>
      </trkpt>
      <trkpt lat="41.990682" lon="-4.879923">
        <ele>688.924</ele>
        <time>2021-10-15T14:50:32Z</time>
      </trkpt>
      <trkpt lat="41.990234" lon="-4.879749">
        <ele>689.404</ele>
        <time>2021-10-15T14:50:34Z</time>
      </trkpt>
      <trkpt lat="41.989744" lon="-4.879608">
        <ele>689.614</ele>
        <time>2021-10-15T14:50:36Z</time>
      </trkpt>
      <trkpt lat="41.989243" lon="-4.879489">
        <ele>688.908</ele>
        <time>2021-10-15T14:50:38Z</time>
      </trkpt>
      <trkpt lat="41.988731" lon="-4.879360">
        <ele>688.050</ele>
        <time>2021-10-15T14:50:40Z</time>
      </trkpt>
      <trkpt lat="41.988229" lon="-4.879228">
        <ele>687.478</ele>
        <time>2021-10-15T14:50:42Z</time>
      </trkpt>
      <trkpt lat="41.987983" lon="-4.879161">
        <ele>687.286</ele>
        <time>2021-10-15T14:50:43Z</time>
      </trkpt>
      <trkpt lat="41.987740" lon="-4.879095">
        <ele>687.190</ele>
        <time>2021-10-15T14:50:44Z</time>
      </trkpt>
      <trkpt lat="41.987262" lon="-4.878968">
        <ele>686.335</ele>
        <time>2021-10-15T14:50:46Z</time>
      </trkpt>
      <trkpt lat="41.986793" lon="-4.878847">
        <ele>685.493</ele>
        <time>2021-10-15T14:50:48Z</time>
      </trkpt>
      <trkpt lat="41.986558" lon="-4.878789">
        <ele>685.356</ele>
        <time>2021-10-15T14:50:49Z</time>
      </trkpt>
      <trkpt lat="41.986091" lon="-4.878664">
        <ele>685.571</ele>
        <time>2021-10-15T14:50:51Z</time>
      </trkpt>
      <trkpt lat="41.985858" lon="-4.878602">
        <ele>685.685</ele>
        <time>2021-10-15T14:50:52Z</time>
      </trkpt>
      <trkpt lat="41.985395" lon="-4.878484">
        <ele>685.489</ele>
        <time>2021-10-15T14:50:54Z</time>
      </trkpt>
      <trkpt lat="41.985165" lon="-4.878422">
        <ele>685.717</ele>
        <time>2021-10-15T14:50:55Z</time>
      </trkpt>
      <trkpt lat="41.984933" lon="-4.878360">
        <ele>685.508</ele>
        <time>2021-10-15T14:50:56Z</time>
      </trkpt>
      <trkpt lat="41.984482" lon="-4.878244">
        <ele>686.026</ele>
        <time>2021-10-15T14:50:58Z</time>
      </trkpt>
      <trkpt lat="41.984247" lon="-4.878184">
        <ele>685.934</ele>
        <time>2021-10-15T14:50:59Z</time>
      </trkpt>
      <trkpt lat="41.983766" lon="-4.878051">
        <ele>685.942</ele>
        <time>2021-10-15T14:51:01Z</time>
      </trkpt>
      <trkpt lat="41.983501" lon="-4.877973">
        <ele>685.856</ele>
        <time>2021-10-15T14:51:02Z</time>
      </trkpt>
      <trkpt lat="41.982977" lon="-4.877833">
        <ele>686.071</ele>
        <time>2021-10-15T14:51:04Z</time>
      </trkpt>
      <trkpt lat="41.982438" lon="-4.877697">
        <ele>685.869</ele>
        <time>2021-10-15T14:51:06Z</time>
      </trkpt>
      <trkpt lat="41.981911" lon="-4.877554">
        <ele>685.322</ele>
        <time>2021-10-15T14:51:08Z</time>
      </trkpt>
      <trkpt lat="41.981396" lon="-4.877417">
        <ele>684.857</ele>
        <time>2021-10-15T14:51:10Z</time>
      </trkpt>
      <trkpt lat="41.980910" lon="-4.877293">
        <ele>685.498</ele>
        <time>2021-10-15T14:51:12Z</time>
      </trkpt>
      <trkpt lat="41.980482" lon="-4.877182">
        <ele>686.915</ele>
        <time>2021-10-15T14:51:14Z</time>
      </trkpt>
      <trkpt lat="41.980295" lon="-4.877134">
        <ele>687.126</ele>
        <time>2021-10-15T14:51:15Z</time>
      </trkpt>
      <trkpt lat="41.979967" lon="-4.877053">
        <ele>687.808</ele>
        <time>2021-10-15T14:51:17Z</time>
      </trkpt>
      <trkpt lat="41.979718" lon="-4.876985">
        <ele>688.597</ele>
        <time>2021-10-15T14:51:19Z</time>
      </trkpt>
      <trkpt lat="41.979519" lon="-4.876929">
        <ele>689.175</ele>
        <time>2021-10-15T14:51:21Z</time>
      </trkpt>
      <trkpt lat="41.979437" lon="-4.876909">
        <ele>689.343</ele>
        <time>2021-10-15T14:51:22Z</time>
      </trkpt>
      <trkpt lat="41.979288" lon="-4.876902">
        <ele>689.477</ele>
        <time>2021-10-15T14:51:24Z</time>
      </trkpt>
      <trkpt lat="41.979142" lon="-4.877002">
        <ele>688.732</ele>
        <time>2021-10-15T14:51:26Z</time>
      </trkpt>
      <trkpt lat="41.978985" lon="-4.877204">
        <ele>688.760</ele>
        <time>2021-10-15T14:51:28Z</time>
      </trkpt>
      <trkpt lat="41.978890" lon="-4.877317">
        <ele>688.683</ele>
        <time>2021-10-15T14:51:29Z</time>
      </trkpt>
      <trkpt lat="41.978674" lon="-4.877549">
        <ele>688.128</ele>
        <time>2021-10-15T14:51:31Z</time>
      </trkpt>
      <trkpt lat="41.978553" lon="-4.877681">
        <ele>687.997</ele>
        <time>2021-10-15T14:51:32Z</time>
      </trkpt>
      <trkpt lat="41.978312" lon="-4.877950">
        <ele>688.223</ele>
        <time>2021-10-15T14:51:34Z</time>
      </trkpt>
      <trkpt lat="41.978189" lon="-4.878090">
        <ele>688.625</ele>
        <time>2021-10-15T14:51:35Z</time>
      </trkpt>
      <trkpt lat="41.977920" lon="-4.878395">
        <ele>688.308</ele>
        <time>2021-10-15T14:51:37Z</time>
      </trkpt>
      <trkpt lat="41.977620" lon="-4.878722">
        <ele>688.227</ele>
        <time>2021-10-15T14:51:39Z</time>
      </trkpt>
      <trkpt lat="41.977307" lon="-4.879050">
        <ele>689.035</ele>
        <time>2021-10-15T14:51:41Z</time>
      </trkpt>
      <trkpt lat="41.976980" lon="-4.879399">
        <ele>689.543</ele>
        <time>2021-10-15T14:51:43Z</time>
      </trkpt>
      <trkpt lat="41.976643" lon="-4.879764">
        <ele>689.147</ele>
        <time>2021-10-15T14:51:45Z</time>
      </trkpt>
      <trkpt lat="41.976484" lon="-4.879936">
        <ele>689.122</ele>
        <time>2021-10-15T14:51:46Z</time>
      </trkpt>
      <trkpt lat="41.976184" lon="-4.880258">
        <ele>689.460</ele>
        <time>2021-10-15T14:51:48Z</time>
      </trkpt>
      <trkpt lat="41.975890" lon="-4.880567">
        <ele>689.833</ele>
        <time>2021-10-15T14:51:50Z</time>
      </trkpt>
      <trkpt lat="41.975609" lon="-4.880863">
        <ele>689.828</ele>
        <time>2021-10-15T14:51:52Z</time>
      </trkpt>
      <trkpt lat="41.975469" lon="-4.881010">
        <ele>689.492</ele>
        <time>2021-10-15T14:51:53Z</time>
      </trkpt>
      <trkpt lat="41.975328" lon="-4.881161">
        <ele>689.173</ele>
        <time>2021-10-15T14:51:54Z</time>
      </trkpt>
      <trkpt lat="41.975031" lon="-4.881486">
        <ele>688.820</ele>
        <time>2021-10-15T14:51:56Z</time>
      </trkpt>
      <trkpt lat="41.974722" lon="-4.881822">
        <ele>688.508</ele>
        <time>2021-10-15T14:51:58Z</time>
      </trkpt>
      <trkpt lat="41.974558" lon="-4.881998">
        <ele>688.147</ele>
        <time>2021-10-15T14:51:59Z</time>
      </trkpt>
      <trkpt lat="41.974391" lon="-4.882178">
        <ele>688.115</ele>
        <time>2021-10-15T14:52:00Z</time>
      </trkpt>
      <trkpt lat="41.974044" lon="-4.882556">
        <ele>687.443</ele>
        <time>2021-10-15T14:52:02Z</time>
      </trkpt>
      <trkpt lat="41.973702" lon="-4.882920">
        <ele>687.127</ele>
        <time>2021-10-15T14:52:04Z</time>
      </trkpt>
      <trkpt lat="41.973379" lon="-4.883260">
        <ele>687.832</ele>
        <time>2021-10-15T14:52:06Z</time>
      </trkpt>
      <trkpt lat="41.973227" lon="-4.883420">
        <ele>687.410</ele>
        <time>2021-10-15T14:52:07Z</time>
      </trkpt>
      <trkpt lat="41.972925" lon="-4.883741">
        <ele>688.023</ele>
        <time>2021-10-15T14:52:09Z</time>
      </trkpt>
      <trkpt lat="41.972612" lon="-4.884075">
        <ele>687.548</ele>
        <time>2021-10-15T14:52:11Z</time>
      </trkpt>
      <trkpt lat="41.972290" lon="-4.884420">
        <ele>686.931</ele>
        <time>2021-10-15T14:52:13Z</time>
      </trkpt>
      <trkpt lat="41.971961" lon="-4.884778">
        <ele>688.361</ele>
        <time>2021-10-15T14:52:15Z</time>
      </trkpt>
      <trkpt lat="41.971793" lon="-4.884959">
        <ele>688.207</ele>
        <time>2021-10-15T14:52:16Z</time>
      </trkpt>
      <trkpt lat="41.971457" lon="-4.885317">
        <ele>688.308</ele>
        <time>2021-10-15T14:52:18Z</time>
      </trkpt>
      <trkpt lat="41.971289" lon="-4.885497">
        <ele>688.041</ele>
        <time>2021-10-15T14:52:19Z</time>
      </trkpt>
      <trkpt lat="41.971121" lon="-4.885678">
        <ele>688.029</ele>
        <time>2021-10-15T14:52:20Z</time>
      </trkpt>
      <trkpt lat="41.970781" lon="-4.886042">
        <ele>687.957</ele>
        <time>2021-10-15T14:52:22Z</time>
      </trkpt>
      <trkpt lat="41.970436" lon="-4.886411">
        <ele>688.271</ele>
        <time>2021-10-15T14:52:24Z</time>
      </trkpt>
      <trkpt lat="41.970080" lon="-4.886789">
        <ele>688.016</ele>
        <time>2021-10-15T14:52:26Z</time>
      </trkpt>
      <trkpt lat="41.969736" lon="-4.887154">
        <ele>687.864</ele>
        <time>2021-10-15T14:52:28Z</time>
      </trkpt>
      <trkpt lat="41.969380" lon="-4.887534">
        <ele>687.527</ele>
        <time>2021-10-15T14:52:30Z</time>
      </trkpt>
      <trkpt lat="41.969020" lon="-4.887926">
        <ele>687.812</ele>
        <time>2021-10-15T14:52:32Z</time>
      </trkpt>
      <trkpt lat="41.968660" lon="-4.888308">
        <ele>688.886</ele>
        <time>2021-10-15T14:52:34Z</time>
      </trkpt>
      <trkpt lat="41.968286" lon="-4.888703">
        <ele>689.160</ele>
        <time>2021-10-15T14:52:36Z</time>
      </trkpt>
      <trkpt lat="41.968096" lon="-4.888905">
        <ele>689.526</ele>
        <time>2021-10-15T14:52:37Z</time>
      </trkpt>
      <trkpt lat="41.967714" lon="-4.889313">
        <ele>689.308</ele>
        <time>2021-10-15T14:52:39Z</time>
      </trkpt>
      <trkpt lat="41.967523" lon="-4.889522">
        <ele>689.236</ele>
        <time>2021-10-15T14:52:40Z</time>
      </trkpt>
      <trkpt lat="41.967332" lon="-4.889725">
        <ele>689.154</ele>
        <time>2021-10-15T14:52:41Z</time>
      </trkpt>
      <trkpt lat="41.966965" lon="-4.890120">
        <ele>689.932</ele>
        <time>2021-10-15T14:52:43Z</time>
      </trkpt>
      <trkpt lat="41.966794" lon="-4.890303">
        <ele>689.836</ele>
        <time>2021-10-15T14:52:44Z</time>
      </trkpt>
      <trkpt lat="41.966470" lon="-4.890651">
        <ele>689.481</ele>
        <time>2021-10-15T14:52:46Z</time>
      </trkpt>
      <trkpt lat="41.966126" lon="-4.891019">
        <ele>688.439</ele>
        <time>2021-10-15T14:52:48Z</time>
      </trkpt>
      <trkpt lat="41.965762" lon="-4.891407">
        <ele>688.192</ele>
        <time>2021-10-15T14:52:50Z</time>
      </trkpt>
      <trkpt lat="41.965385" lon="-4.891813">
        <ele>688.197</ele>
        <time>2021-10-15T14:52:52Z</time>
      </trkpt>
      <trkpt lat="41.964998" lon="-4.892229">
        <ele>688.027</ele>
        <time>2021-10-15T14:52:54Z</time>
      </trkpt>
      <trkpt lat="41.964593" lon="-4.892661">
        <ele>687.968</ele>
        <time>2021-10-15T14:52:56Z</time>
      </trkpt>
      <trkpt lat="41.964203" lon="-4.893078">
        <ele>687.414</ele>
        <time>2021-10-15T14:52:58Z</time>
      </trkpt>
      <trkpt lat="41.963806" lon="-4.893505">
        <ele>686.108</ele>
        <time>2021-10-15T14:53:00Z</time>
      </trkpt>
      <trkpt lat="41.963608" lon="-4.893717">
        <ele>685.920</ele>
        <time>2021-10-15T14:53:01Z</time>
      </trkpt>
      <trkpt lat="41.963405" lon="-4.893935">
        <ele>685.478</ele>
        <time>2021-10-15T14:53:02Z</time>
      </trkpt>
      <trkpt lat="41.963019" lon="-4.894346">
        <ele>684.756</ele>
        <time>2021-10-15T14:53:04Z</time>
      </trkpt>
      <trkpt lat="41.962823" lon="-4.894556">
        <ele>684.610</ele>
        <time>2021-10-15T14:53:05Z</time>
      </trkpt>
      <trkpt lat="41.962440" lon="-4.894978">
        <ele>685.035</ele>
        <time>2021-10-15T14:53:07Z</time>
      </trkpt>
      <trkpt lat="41.962250" lon="-4.895186">
        <ele>684.843</ele>
        <time>2021-10-15T14:53:08Z</time>
      </trkpt>
      <trkpt lat="41.962062" lon="-4.895392">
        <ele>684.786</ele>
        <time>2021-10-15T14:53:09Z</time>
      </trkpt>
      <trkpt lat="41.961873" lon="-4.895597">
        <ele>684.541</ele>
        <time>2021-10-15T14:53:10Z</time>
      </trkpt>
      <trkpt lat="41.961495" lon="-4.895995">
        <ele>685.065</ele>
        <time>2021-10-15T14:53:12Z</time>
      </trkpt>
      <trkpt lat="41.961117" lon="-4.896393">
        <ele>686.168</ele>
        <time>2021-10-15T14:53:14Z</time>
      </trkpt>
      <trkpt lat="41.960747" lon="-4.896786">
        <ele>686.014</ele>
        <time>2021-10-15T14:53:16Z</time>
      </trkpt>
      <trkpt lat="41.960377" lon="-4.897185">
        <ele>686.408</ele>
        <time>2021-10-15T14:53:18Z</time>
      </trkpt>
      <trkpt lat="41.960190" lon="-4.897383">
        <ele>685.914</ele>
        <time>2021-10-15T14:53:19Z</time>
      </trkpt>
      <trkpt lat="41.960001" lon="-4.897583">
        <ele>684.852</ele>
        <time>2021-10-15T14:53:20Z</time>
      </trkpt>
      <trkpt lat="41.959811" lon="-4.897784">
        <ele>683.870</ele>
        <time>2021-10-15T14:53:21Z</time>
      </trkpt>
      <trkpt lat="41.959434" lon="-4.898183">
        <ele>683.754</ele>
        <time>2021-10-15T14:53:23Z</time>
      </trkpt>
      <trkpt lat="41.959247" lon="-4.898382">
        <ele>683.419</ele>
        <time>2021-10-15T14:53:24Z</time>
      </trkpt>
      <trkpt lat="41.958866" lon="-4.898797">
        <ele>682.397</ele>
        <time>2021-10-15T14:53:26Z</time>
      </trkpt>
      <trkpt lat="41.958492" lon="-4.899198">
        <ele>682.710</ele>
        <time>2021-10-15T14:53:28Z</time>
      </trkpt>
      <trkpt lat="41.958300" lon="-4.899403">
        <ele>683.225</ele>
        <time>2021-10-15T14:53:29Z</time>
      </trkpt>
      <trkpt lat="41.957916" lon="-4.899814">
        <ele>683.398</ele>
        <time>2021-10-15T14:53:31Z</time>
      </trkpt>
      <trkpt lat="41.957721" lon="-4.900028">
        <ele>683.115</ele>
        <time>2021-10-15T14:53:32Z</time>
      </trkpt>
      <trkpt lat="41.957347" lon="-4.900437">
        <ele>684.126</ele>
        <time>2021-10-15T14:53:34Z</time>
      </trkpt>
      <trkpt lat="41.957159" lon="-4.900642">
        <ele>683.308</ele>
        <time>2021-10-15T14:53:35Z</time>
      </trkpt>
      <trkpt lat="41.956774" lon="-4.901052">
        <ele>682.947</ele>
        <time>2021-10-15T14:53:37Z</time>
      </trkpt>
      <trkpt lat="41.956385" lon="-4.901476">
        <ele>682.045</ele>
        <time>2021-10-15T14:53:39Z</time>
      </trkpt>
      <trkpt lat="41.956185" lon="-4.901689">
        <ele>682.243</ele>
        <time>2021-10-15T14:53:40Z</time>
      </trkpt>
      <trkpt lat="41.955984" lon="-4.901904">
        <ele>682.537</ele>
        <time>2021-10-15T14:53:41Z</time>
      </trkpt>
      <trkpt lat="41.955581" lon="-4.902338">
        <ele>682.442</ele>
        <time>2021-10-15T14:53:43Z</time>
      </trkpt>
      <trkpt lat="41.955171" lon="-4.902777">
        <ele>681.780</ele>
        <time>2021-10-15T14:53:45Z</time>
      </trkpt>
      <trkpt lat="41.954966" lon="-4.902997">
        <ele>681.923</ele>
        <time>2021-10-15T14:53:46Z</time>
      </trkpt>
      <trkpt lat="41.954550" lon="-4.903442">
        <ele>682.448</ele>
        <time>2021-10-15T14:53:48Z</time>
      </trkpt>
      <trkpt lat="41.954136" lon="-4.903885">
        <ele>683.093</ele>
        <time>2021-10-15T14:53:50Z</time>
      </trkpt>
      <trkpt lat="41.953717" lon="-4.904333">
        <ele>683.265</ele>
        <time>2021-10-15T14:53:52Z</time>
      </trkpt>
      <trkpt lat="41.953506" lon="-4.904560">
        <ele>684.621</ele>
        <time>2021-10-15T14:53:53Z</time>
      </trkpt>
      <trkpt lat="41.953093" lon="-4.905004">
        <ele>687.108</ele>
        <time>2021-10-15T14:53:55Z</time>
      </trkpt>
      <trkpt lat="41.952884" lon="-4.905228">
        <ele>688.227</ele>
        <time>2021-10-15T14:53:56Z</time>
      </trkpt>
      <trkpt lat="41.952485" lon="-4.905664">
        <ele>690.015</ele>
        <time>2021-10-15T14:53:58Z</time>
      </trkpt>
      <trkpt lat="41.952277" lon="-4.905888">
        <ele>690.123</ele>
        <time>2021-10-15T14:53:59Z</time>
      </trkpt>
      <trkpt lat="41.951863" lon="-4.906342">
        <ele>690.677</ele>
        <time>2021-10-15T14:54:01Z</time>
      </trkpt>
      <trkpt lat="41.951647" lon="-4.906571">
        <ele>690.512</ele>
        <time>2021-10-15T14:54:02Z</time>
      </trkpt>
      <trkpt lat="41.951233" lon="-4.907013">
        <ele>689.790</ele>
        <time>2021-10-15T14:54:04Z</time>
      </trkpt>
      <trkpt lat="41.950803" lon="-4.907471">
        <ele>687.643</ele>
        <time>2021-10-15T14:54:06Z</time>
      </trkpt>
      <trkpt lat="41.950376" lon="-4.907930">
        <ele>685.338</ele>
        <time>2021-10-15T14:54:08Z</time>
      </trkpt>
      <trkpt lat="41.950162" lon="-4.908160">
        <ele>684.255</ele>
        <time>2021-10-15T14:54:09Z</time>
      </trkpt>
      <trkpt lat="41.949954" lon="-4.908383">
        <ele>683.507</ele>
        <time>2021-10-15T14:54:10Z</time>
      </trkpt>
      <trkpt lat="41.949568" lon="-4.908800">
        <ele>684.517</ele>
        <time>2021-10-15T14:54:12Z</time>
      </trkpt>
      <trkpt lat="41.949382" lon="-4.909000">
        <ele>685.408</ele>
        <time>2021-10-15T14:54:13Z</time>
      </trkpt>
      <trkpt lat="41.949202" lon="-4.909195">
        <ele>685.433</ele>
        <time>2021-10-15T14:54:14Z</time>
      </trkpt>
      <trkpt lat="41.948841" lon="-4.909582">
        <ele>685.741</ele>
        <time>2021-10-15T14:54:16Z</time>
      </trkpt>
      <trkpt lat="41.948656" lon="-4.909781">
        <ele>685.619</ele>
        <time>2021-10-15T14:54:17Z</time>
      </trkpt>
      <trkpt lat="41.948282" lon="-4.910186">
        <ele>686.573</ele>
        <time>2021-10-15T14:54:19Z</time>
      </trkpt>
      <trkpt lat="41.947905" lon="-4.910586">
        <ele>688.088</ele>
        <time>2021-10-15T14:54:21Z</time>
      </trkpt>
      <trkpt lat="41.947718" lon="-4.910786">
        <ele>688.246</ele>
        <time>2021-10-15T14:54:22Z</time>
      </trkpt>
      <trkpt lat="41.947532" lon="-4.910988">
        <ele>688.569</ele>
        <time>2021-10-15T14:54:23Z</time>
      </trkpt>
      <trkpt lat="41.947171" lon="-4.911389">
        <ele>687.794</ele>
        <time>2021-10-15T14:54:25Z</time>
      </trkpt>
      <trkpt lat="41.946984" lon="-4.911594">
        <ele>688.274</ele>
        <time>2021-10-15T14:54:26Z</time>
      </trkpt>
      <trkpt lat="41.946634" lon="-4.911969">
        <ele>688.856</ele>
        <time>2021-10-15T14:54:28Z</time>
      </trkpt>
      <trkpt lat="41.946461" lon="-4.912156">
        <ele>688.421</ele>
        <time>2021-10-15T14:54:29Z</time>
      </trkpt>
      <trkpt lat="41.946120" lon="-4.912520">
        <ele>688.508</ele>
        <time>2021-10-15T14:54:31Z</time>
      </trkpt>
      <trkpt lat="41.945941" lon="-4.912713">
        <ele>688.745</ele>
        <time>2021-10-15T14:54:32Z</time>
      </trkpt>
      <trkpt lat="41.945596" lon="-4.913088">
        <ele>688.753</ele>
        <time>2021-10-15T14:54:34Z</time>
      </trkpt>
      <trkpt lat="41.945231" lon="-4.913478">
        <ele>687.981</ele>
        <time>2021-10-15T14:54:36Z</time>
      </trkpt>
      <trkpt lat="41.945048" lon="-4.913674">
        <ele>687.995</ele>
        <time>2021-10-15T14:54:37Z</time>
      </trkpt>
      <trkpt lat="41.944870" lon="-4.913871">
        <ele>687.770</ele>
        <time>2021-10-15T14:54:38Z</time>
      </trkpt>
      <trkpt lat="41.944524" lon="-4.914249">
        <ele>688.158</ele>
        <time>2021-10-15T14:54:40Z</time>
      </trkpt>
      <trkpt lat="41.944181" lon="-4.914613">
        <ele>687.381</ele>
        <time>2021-10-15T14:54:42Z</time>
      </trkpt>
      <trkpt lat="41.944008" lon="-4.914797">
        <ele>688.016</ele>
        <time>2021-10-15T14:54:43Z</time>
      </trkpt>
      <trkpt lat="41.943841" lon="-4.914976">
        <ele>688.293</ele>
        <time>2021-10-15T14:54:44Z</time>
      </trkpt>
      <trkpt lat="41.943535" lon="-4.915310">
        <ele>686.865</ele>
        <time>2021-10-15T14:54:46Z</time>
      </trkpt>
      <trkpt lat="41.943245" lon="-4.915592">
        <ele>685.521</ele>
        <time>2021-10-15T14:54:48Z</time>
      </trkpt>
      <trkpt lat="41.942949" lon="-4.915770">
        <ele>685.808</ele>
        <time>2021-10-15T14:54:50Z</time>
      </trkpt>
      <trkpt lat="41.942780" lon="-4.915818">
        <ele>686.337</ele>
        <time>2021-10-15T14:54:51Z</time>
      </trkpt>
      <trkpt lat="41.942402" lon="-4.915829">
        <ele>687.915</ele>
        <time>2021-10-15T14:54:53Z</time>
      </trkpt>
      <trkpt lat="41.941991" lon="-4.915703">
        <ele>688.253</ele>
        <time>2021-10-15T14:54:55Z</time>
      </trkpt>
      <trkpt lat="41.941775" lon="-4.915600">
        <ele>687.787</ele>
        <time>2021-10-15T14:54:56Z</time>
      </trkpt>
      <trkpt lat="41.941353" lon="-4.915393">
        <ele>688.652</ele>
        <time>2021-10-15T14:54:58Z</time>
      </trkpt>
      <trkpt lat="41.941125" lon="-4.915282">
        <ele>687.910</ele>
        <time>2021-10-15T14:54:59Z</time>
      </trkpt>
      <trkpt lat="41.940898" lon="-4.915172">
        <ele>687.993</ele>
        <time>2021-10-15T14:55:00Z</time>
      </trkpt>
      <trkpt lat="41.940440" lon="-4.914954">
        <ele>688.238</ele>
        <time>2021-10-15T14:55:02Z</time>
      </trkpt>
      <trkpt lat="41.939998" lon="-4.914746">
        <ele>687.791</ele>
        <time>2021-10-15T14:55:04Z</time>
      </trkpt>
      <trkpt lat="41.939771" lon="-4.914639">
        <ele>687.781</ele>
        <time>2021-10-15T14:55:05Z</time>
      </trkpt>
      <trkpt lat="41.939321" lon="-4.914426">
        <ele>688.319</ele>
        <time>2021-10-15T14:55:07Z</time>
      </trkpt>
      <trkpt lat="41.939098" lon="-4.914320">
        <ele>688.408</ele>
        <time>2021-10-15T14:55:08Z</time>
      </trkpt>
      <trkpt lat="41.938651" lon="-4.914114">
        <ele>689.417</ele>
        <time>2021-10-15T14:55:10Z</time>
      </trkpt>
      <trkpt lat="41.938429" lon="-4.914012">
        <ele>689.045</ele>
        <time>2021-10-15T14:55:11Z</time>
      </trkpt>
      <trkpt lat="41.938207" lon="-4.913905">
        <ele>689.183</ele>
        <time>2021-10-15T14:55:12Z</time>
      </trkpt>
      <trkpt lat="41.937763" lon="-4.913703">
        <ele>688.527</ele>
        <time>2021-10-15T14:55:14Z</time>
      </trkpt>
      <trkpt lat="41.937320" lon="-4.913497">
        <ele>689.562</ele>
        <time>2021-10-15T14:55:16Z</time>
      </trkpt>
      <trkpt lat="41.937098" lon="-4.913390">
        <ele>688.670</ele>
        <time>2021-10-15T14:55:17Z</time>
      </trkpt>
      <trkpt lat="41.936876" lon="-4.913284">
        <ele>688.483</ele>
        <time>2021-10-15T14:55:18Z</time>
      </trkpt>
      <trkpt lat="41.936650" lon="-4.913177">
        <ele>688.278</ele>
        <time>2021-10-15T14:55:19Z</time>
      </trkpt>
      <trkpt lat="41.936189" lon="-4.912959">
        <ele>687.538</ele>
        <time>2021-10-15T14:55:21Z</time>
      </trkpt>
      <trkpt lat="41.935950" lon="-4.912847">
        <ele>687.070</ele>
        <time>2021-10-15T14:55:22Z</time>
      </trkpt>
      <trkpt lat="41.935708" lon="-4.912738">
        <ele>687.117</ele>
        <time>2021-10-15T14:55:23Z</time>
      </trkpt>
      <trkpt lat="41.935214" lon="-4.912514">
        <ele>687.308</ele>
        <time>2021-10-15T14:55:25Z</time>
      </trkpt>
      <trkpt lat="41.934958" lon="-4.912393">
        <ele>687.751</ele>
        <time>2021-10-15T14:55:26Z</time>
      </trkpt>
      <trkpt lat="41.934464" lon="-4.912163">
        <ele>687.929</ele>
        <time>2021-10-15T14:55:28Z</time>
      </trkpt>
      <trkpt lat="41.934216" lon="-4.912046">
        <ele>687.767</ele>
        <time>2021-10-15T14:55:29Z</time>
      </trkpt>
      <trkpt lat="41.933734" lon="-4.911821">
        <ele>688.751</ele>
        <time>2021-10-15T14:55:31Z</time>
      </trkpt>
      <trkpt lat="41.933491" lon="-4.911709">
        <ele>688.946</ele>
        <time>2021-10-15T14:55:32Z</time>
      </trkpt>
      <trkpt lat="41.933040" lon="-4.911506">
        <ele>689.064</ele>
        <time>2021-10-15T14:55:34Z</time>
      </trkpt>
      <trkpt lat="41.932590" lon="-4.911292">
        <ele>688.537</ele>
        <time>2021-10-15T14:55:36Z</time>
      </trkpt>
      <trkpt lat="41.932132" lon="-4.911082">
        <ele>687.742</ele>
        <time>2021-10-15T14:55:38Z</time>
      </trkpt>
      <trkpt lat="41.931902" lon="-4.910978">
        <ele>687.439</ele>
        <time>2021-10-15T14:55:39Z</time>
      </trkpt>
      <trkpt lat="41.931669" lon="-4.910872">
        <ele>687.901</ele>
        <time>2021-10-15T14:55:40Z</time>
      </trkpt>
      <trkpt lat="41.931199" lon="-4.910653">
        <ele>687.621</ele>
        <time>2021-10-15T14:55:42Z</time>
      </trkpt>
      <trkpt lat="41.930729" lon="-4.910434">
        <ele>687.408</ele>
        <time>2021-10-15T14:55:44Z</time>
      </trkpt>
      <trkpt lat="41.930261" lon="-4.910216">
        <ele>689.641</ele>
        <time>2021-10-15T14:55:46Z</time>
      </trkpt>
      <trkpt lat="41.930023" lon="-4.910109">
        <ele>689.329</ele>
        <time>2021-10-15T14:55:47Z</time>
      </trkpt>
      <trkpt lat="41.929786" lon="-4.909998">
        <ele>689.447</ele>
        <time>2021-10-15T14:55:48Z</time>
      </trkpt>
      <trkpt lat="41.929316" lon="-4.909777">
        <ele>690.321</ele>
        <time>2021-10-15T14:55:50Z</time>
      </trkpt>
      <trkpt lat="41.929079" lon="-4.909666">
        <ele>690.296</ele>
        <time>2021-10-15T14:55:51Z</time>
      </trkpt>
      <trkpt lat="41.928608" lon="-4.909447">
        <ele>691.384</ele>
        <time>2021-10-15T14:55:53Z</time>
      </trkpt>
      <trkpt lat="41.928368" lon="-4.909340">
        <ele>690.877</ele>
        <time>2021-10-15T14:55:54Z</time>
      </trkpt>
      <trkpt lat="41.928128" lon="-4.909227">
        <ele>691.472</ele>
        <time>2021-10-15T14:55:55Z</time>
      </trkpt>
      <trkpt lat="41.927872" lon="-4.909106">
        <ele>692.295</ele>
        <time>2021-10-15T14:55:56Z</time>
      </trkpt>
      <trkpt lat="41.927339" lon="-4.908854">
        <ele>692.049</ele>
        <time>2021-10-15T14:55:58Z</time>
      </trkpt>
      <trkpt lat="41.927050" lon="-4.908718">
        <ele>692.723</ele>
        <time>2021-10-15T14:55:59Z</time>
      </trkpt>
      <trkpt lat="41.926757" lon="-4.908585">
        <ele>692.808</ele>
        <time>2021-10-15T14:56:00Z</time>
      </trkpt>
      <trkpt lat="41.926198" lon="-4.908323">
        <ele>692.997</ele>
        <time>2021-10-15T14:56:02Z</time>
      </trkpt>
      <trkpt lat="41.925698" lon="-4.908087">
        <ele>693.155</ele>
        <time>2021-10-15T14:56:04Z</time>
      </trkpt>
      <trkpt lat="41.925223" lon="-4.907870">
        <ele>692.813</ele>
        <time>2021-10-15T14:56:06Z</time>
      </trkpt>
      <trkpt lat="41.924782" lon="-4.907670">
        <ele>693.447</ele>
        <time>2021-10-15T14:56:08Z</time>
      </trkpt>
      <trkpt lat="41.924564" lon="-4.907565">
        <ele>692.982</ele>
        <time>2021-10-15T14:56:09Z</time>
      </trkpt>
      <trkpt lat="41.924146" lon="-4.907367">
        <ele>693.410</ele>
        <time>2021-10-15T14:56:11Z</time>
      </trkpt>
      <trkpt lat="41.923957" lon="-4.907279">
        <ele>692.963</ele>
        <time>2021-10-15T14:56:12Z</time>
      </trkpt>
      <trkpt lat="41.923626" lon="-4.907125">
        <ele>694.488</ele>
        <time>2021-10-15T14:56:14Z</time>
      </trkpt>
      <trkpt lat="41.923345" lon="-4.906995">
        <ele>694.382</ele>
        <time>2021-10-15T14:56:16Z</time>
      </trkpt>
      <trkpt lat="41.923212" lon="-4.906933">
        <ele>694.543</ele>
        <time>2021-10-15T14:56:17Z</time>
      </trkpt>
      <trkpt lat="41.922971" lon="-4.906820">
        <ele>695.817</ele>
        <time>2021-10-15T14:56:19Z</time>
      </trkpt>
      <trkpt lat="41.922866" lon="-4.906769">
        <ele>695.208</ele>
        <time>2021-10-15T14:56:20Z</time>
      </trkpt>
      <trkpt lat="41.922690" lon="-4.906692">
        <ele>694.696</ele>
        <time>2021-10-15T14:56:22Z</time>
      </trkpt>
      <trkpt lat="41.922532" lon="-4.906634">
        <ele>694.674</ele>
        <time>2021-10-15T14:56:24Z</time>
      </trkpt>
      <trkpt lat="41.922464" lon="-4.906617">
        <ele>694.572</ele>
        <time>2021-10-15T14:56:25Z</time>
      </trkpt>
      <trkpt lat="41.922397" lon="-4.906613">
        <ele>694.126</ele>
        <time>2021-10-15T14:56:26Z</time>
      </trkpt>
      <trkpt lat="41.922282" lon="-4.906611">
        <ele>694.321</ele>
        <time>2021-10-15T14:56:28Z</time>
      </trkpt>
      <trkpt lat="41.922198" lon="-4.906550">
        <ele>694.299</ele>
        <time>2021-10-15T14:56:30Z</time>
      </trkpt>
      <trkpt lat="41.922153" lon="-4.906495">
        <ele>695.012</ele>
        <time>2021-10-15T14:56:31Z</time>
      </trkpt>
      <trkpt lat="41.922089" lon="-4.906432">
        <ele>695.047</ele>
        <time>2021-10-15T14:56:32Z</time>
      </trkpt>
      <trkpt lat="41.921903" lon="-4.906326">
        <ele>694.883</ele>
        <time>2021-10-15T14:56:34Z</time>
      </trkpt>
      <trkpt lat="41.921657" lon="-4.906217">
        <ele>694.325</ele>
        <time>2021-10-15T14:56:36Z</time>
      </trkpt>
      <trkpt lat="41.921376" lon="-4.906089">
        <ele>694.617</ele>
        <time>2021-10-15T14:56:38Z</time>
      </trkpt>
      <trkpt lat="41.921222" lon="-4.906018">
        <ele>694.608</ele>
        <time>2021-10-15T14:56:39Z</time>
      </trkpt>
      <trkpt lat="41.920896" lon="-4.905867">
        <ele>693.996</ele>
        <time>2021-10-15T14:56:41Z</time>
      </trkpt>
      <trkpt lat="41.920596" lon="-4.905724">
        <ele>694.584</ele>
        <time>2021-10-15T14:56:43Z</time>
      </trkpt>
      <trkpt lat="41.920331" lon="-4.905596">
        <ele>694.512</ele>
        <time>2021-10-15T14:56:45Z</time>
      </trkpt>
      <trkpt lat="41.920056" lon="-4.905460">
        <ele>694.636</ele>
        <time>2021-10-15T14:56:47Z</time>
      </trkpt>
      <trkpt lat="41.919743" lon="-4.905317">
        <ele>695.821</ele>
        <time>2021-10-15T14:56:49Z</time>
      </trkpt>
      <trkpt lat="41.919413" lon="-4.905161">
        <ele>695.179</ele>
        <time>2021-10-15T14:56:51Z</time>
      </trkpt>
      <trkpt lat="41.919078" lon="-4.905003">
        <ele>695.422</ele>
        <time>2021-10-15T14:56:53Z</time>
      </trkpt>
      <trkpt lat="41.918907" lon="-4.904922">
        <ele>696.337</ele>
        <time>2021-10-15T14:56:54Z</time>
      </trkpt>
      <trkpt lat="41.918554" lon="-4.904757">
        <ele>695.769</ele>
        <time>2021-10-15T14:56:56Z</time>
      </trkpt>
      <trkpt lat="41.918202" lon="-4.904596">
        <ele>696.504</ele>
        <time>2021-10-15T14:56:58Z</time>
      </trkpt>
      <trkpt lat="41.917837" lon="-4.904422">
        <ele>696.324</ele>
        <time>2021-10-15T14:57:00Z</time>
      </trkpt>
      <trkpt lat="41.917461" lon="-4.904246">
        <ele>696.708</ele>
        <time>2021-10-15T14:57:02Z</time>
      </trkpt>
      <trkpt lat="41.917083" lon="-4.904085">
        <ele>697.554</ele>
        <time>2021-10-15T14:57:04Z</time>
      </trkpt>
      <trkpt lat="41.916893" lon="-4.903987">
        <ele>697.372</ele>
        <time>2021-10-15T14:57:05Z</time>
      </trkpt>
      <trkpt lat="41.916510" lon="-4.903806">
        <ele>698.240</ele>
        <time>2021-10-15T14:57:07Z</time>
      </trkpt>
      <trkpt lat="41.916311" lon="-4.903727">
        <ele>697.964</ele>
        <time>2021-10-15T14:57:08Z</time>
      </trkpt>
      <trkpt lat="41.916113" lon="-4.903635">
        <ele>697.329</ele>
        <time>2021-10-15T14:57:09Z</time>
      </trkpt>
      <trkpt lat="41.915916" lon="-4.903533">
        <ele>698.017</ele>
        <time>2021-10-15T14:57:10Z</time>
      </trkpt>
      <trkpt lat="41.915525" lon="-4.903327">
        <ele>697.960</ele>
        <time>2021-10-15T14:57:12Z</time>
      </trkpt>
      <trkpt lat="41.915149" lon="-4.903156">
        <ele>697.635</ele>
        <time>2021-10-15T14:57:14Z</time>
      </trkpt>
      <trkpt lat="41.914781" lon="-4.902989">
        <ele>699.554</ele>
        <time>2021-10-15T14:57:16Z</time>
      </trkpt>
      <trkpt lat="41.914393" lon="-4.902808">
        <ele>699.556</ele>
        <time>2021-10-15T14:57:18Z</time>
      </trkpt>
      <trkpt lat="41.914187" lon="-4.902710">
        <ele>699.311</ele>
        <time>2021-10-15T14:57:19Z</time>
      </trkpt>
      <trkpt lat="41.913972" lon="-4.902608">
        <ele>698.508</ele>
        <time>2021-10-15T14:57:20Z</time>
      </trkpt>
      <trkpt lat="41.913525" lon="-4.902396">
        <ele>699.373</ele>
        <time>2021-10-15T14:57:22Z</time>
      </trkpt>
      <trkpt lat="41.913092" lon="-4.902193">
        <ele>699.281</ele>
        <time>2021-10-15T14:57:24Z</time>
      </trkpt>
      <trkpt lat="41.912874" lon="-4.902090">
        <ele>699.659</ele>
        <time>2021-10-15T14:57:25Z</time>
      </trkpt>
      <trkpt lat="41.912641" lon="-4.901981">
        <ele>699.623</ele>
        <time>2021-10-15T14:57:26Z</time>
      </trkpt>
      <trkpt lat="41.912185" lon="-4.901767">
        <ele>701.198</ele>
        <time>2021-10-15T14:57:28Z</time>
      </trkpt>
      <trkpt lat="41.911957" lon="-4.901661">
        <ele>702.576</ele>
        <time>2021-10-15T14:57:29Z</time>
      </trkpt>
      <trkpt lat="41.911729" lon="-4.901558">
        <ele>703.239</ele>
        <time>2021-10-15T14:57:30Z</time>
      </trkpt>
      <trkpt lat="41.911258" lon="-4.901330">
        <ele>702.564</ele>
        <time>2021-10-15T14:57:32Z</time>
      </trkpt>
      <trkpt lat="41.910783" lon="-4.901116">
        <ele>704.077</ele>
        <time>2021-10-15T14:57:34Z</time>
      </trkpt>
      <trkpt lat="41.910549" lon="-4.901011">
        <ele>704.361</ele>
        <time>2021-10-15T14:57:35Z</time>
      </trkpt>
      <trkpt lat="41.910099" lon="-4.900810">
        <ele>705.327</ele>
        <time>2021-10-15T14:57:37Z</time>
      </trkpt>
      <trkpt lat="41.909880" lon="-4.900711">
        <ele>705.408</ele>
        <time>2021-10-15T14:57:38Z</time>
      </trkpt>
      <trkpt lat="41.909666" lon="-4.900609">
        <ele>705.755</ele>
        <time>2021-10-15T14:57:39Z</time>
      </trkpt>
      <trkpt lat="41.909241" lon="-4.900406">
        <ele>706.443</ele>
        <time>2021-10-15T14:57:41Z</time>
      </trkpt>
      <trkpt lat="41.909022" lon="-4.900303">
        <ele>707.031</ele>
        <time>2021-10-15T14:57:42Z</time>
      </trkpt>
      <trkpt lat="41.908797" lon="-4.900197">
        <ele>707.755</ele>
        <time>2021-10-15T14:57:43Z</time>
      </trkpt>
      <trkpt lat="41.908334" lon="-4.899979">
        <ele>708.310</ele>
        <time>2021-10-15T14:57:45Z</time>
      </trkpt>
      <trkpt lat="41.907876" lon="-4.899763">
        <ele>709.328</ele>
        <time>2021-10-15T14:57:47Z</time>
      </trkpt>
      <trkpt lat="41.907436" lon="-4.899557">
        <ele>709.731</ele>
        <time>2021-10-15T14:57:49Z</time>
      </trkpt>
      <trkpt lat="41.907236" lon="-4.899463">
        <ele>710.576</ele>
        <time>2021-10-15T14:57:50Z</time>
      </trkpt>
      <trkpt lat="41.906868" lon="-4.899291">
        <ele>712.989</ele>
        <time>2021-10-15T14:57:52Z</time>
      </trkpt>
      <trkpt lat="41.906681" lon="-4.899208">
        <ele>713.606</ele>
        <time>2021-10-15T14:57:53Z</time>
      </trkpt>
      <trkpt lat="41.906298" lon="-4.899032">
        <ele>716.326</ele>
        <time>2021-10-15T14:57:55Z</time>
      </trkpt>
      <trkpt lat="41.906100" lon="-4.898942">
        <ele>717.408</ele>
        <time>2021-10-15T14:57:56Z</time>
      </trkpt>
      <trkpt lat="41.905709" lon="-4.898759">
        <ele>720.656</ele>
        <time>2021-10-15T14:57:58Z</time>
      </trkpt>
      <trkpt lat="41.905299" lon="-4.898569">
        <ele>723.814</ele>
        <time>2021-10-15T14:58:00Z</time>
      </trkpt>
      <trkpt lat="41.904867" lon="-4.898372">
        <ele>727.362</ele>
        <time>2021-10-15T14:58:02Z</time>
      </trkpt>
      <trkpt lat="41.904450" lon="-4.898182">
        <ele>729.726</ele>
        <time>2021-10-15T14:58:04Z</time>
      </trkpt>
      <trkpt lat="41.904242" lon="-4.898084">
        <ele>730.291</ele>
        <time>2021-10-15T14:58:05Z</time>
      </trkpt>
      <trkpt lat="41.903850" lon="-4.897897">
        <ele>733.429</ele>
        <time>2021-10-15T14:58:07Z</time>
      </trkpt>
      <trkpt lat="41.903495" lon="-4.897727">
        <ele>735.332</ele>
        <time>2021-10-15T14:58:09Z</time>
      </trkpt>
      <trkpt lat="41.903148" lon="-4.897570">
        <ele>737.217</ele>
        <time>2021-10-15T14:58:11Z</time>
      </trkpt>
      <trkpt lat="41.902792" lon="-4.897421">
        <ele>739.495</ele>
        <time>2021-10-15T14:58:13Z</time>
      </trkpt>
      <trkpt lat="41.902606" lon="-4.897352">
        <ele>741.249</ele>
        <time>2021-10-15T14:58:14Z</time>
      </trkpt>
      <trkpt lat="41.902268" lon="-4.897239">
        <ele>744.523</ele>
        <time>2021-10-15T14:58:16Z</time>
      </trkpt>
      <trkpt lat="41.902117" lon="-4.897195">
        <ele>745.208</ele>
        <time>2021-10-15T14:58:17Z</time>
      </trkpt>
      <trkpt lat="41.901839" lon="-4.897114">
        <ele>746.987</ele>
        <time>2021-10-15T14:58:19Z</time>
      </trkpt>
      <trkpt lat="41.901569" lon="-4.897019">
        <ele>748.785</ele>
        <time>2021-10-15T14:58:21Z</time>
      </trkpt>
      <trkpt lat="41.901442" lon="-4.896980">
        <ele>749.543</ele>
        <time>2021-10-15T14:58:22Z</time>
      </trkpt>
      <trkpt lat="41.901199" lon="-4.896912">
        <ele>749.737</ele>
        <time>2021-10-15T14:58:24Z</time>
      </trkpt>
      <trkpt lat="41.901073" lon="-4.896874">
        <ele>749.662</ele>
        <time>2021-10-15T14:58:25Z</time>
      </trkpt>
      <trkpt lat="41.900938" lon="-4.896832">
        <ele>749.650</ele>
        <time>2021-10-15T14:58:26Z</time>
      </trkpt>
      <trkpt lat="41.900676" lon="-4.896746">
        <ele>749.283</ele>
        <time>2021-10-15T14:58:28Z</time>
      </trkpt>
      <trkpt lat="41.900418" lon="-4.896660">
        <ele>749.458</ele>
        <time>2021-10-15T14:58:30Z</time>
      </trkpt>
      <trkpt lat="41.900149" lon="-4.896575">
        <ele>750.015</ele>
        <time>2021-10-15T14:58:32Z</time>
      </trkpt>
      <trkpt lat="41.899871" lon="-4.896485">
        <ele>749.665</ele>
        <time>2021-10-15T14:58:34Z</time>
      </trkpt>
      <trkpt lat="41.899559" lon="-4.896385">
        <ele>750.711</ele>
        <time>2021-10-15T14:58:36Z</time>
      </trkpt>
      <trkpt lat="41.899386" lon="-4.896335">
        <ele>750.808</ele>
        <time>2021-10-15T14:58:37Z</time>
      </trkpt>
      <trkpt lat="41.899204" lon="-4.896281">
        <ele>751.129</ele>
        <time>2021-10-15T14:58:38Z</time>
      </trkpt>
      <trkpt lat="41.899013" lon="-4.896219">
        <ele>751.187</ele>
        <time>2021-10-15T14:58:39Z</time>
      </trkpt>
      <trkpt lat="41.898611" lon="-4.896089">
        <ele>750.955</ele>
        <time>2021-10-15T14:58:41Z</time>
      </trkpt>
      <trkpt lat="41.898183" lon="-4.895957">
        <ele>750.569</ele>
        <time>2021-10-15T14:58:43Z</time>
      </trkpt>
      <trkpt lat="41.897964" lon="-4.895892">
        <ele>749.764</ele>
        <time>2021-10-15T14:58:44Z</time>
      </trkpt>
      <trkpt lat="41.897746" lon="-4.895823">
        <ele>750.082</ele>
        <time>2021-10-15T14:58:45Z</time>
      </trkpt>
      <trkpt lat="41.897316" lon="-4.895682">
        <ele>750.945</ele>
        <time>2021-10-15T14:58:47Z</time>
      </trkpt>
      <trkpt lat="41.897109" lon="-4.895614">
        <ele>752.150</ele>
        <time>2021-10-15T14:58:48Z</time>
      </trkpt>
      <trkpt lat="41.896911" lon="-4.895551">
        <ele>752.834</ele>
        <time>2021-10-15T14:58:49Z</time>
      </trkpt>
      <trkpt lat="41.896528" lon="-4.895431">
        <ele>753.555</ele>
        <time>2021-10-15T14:58:51Z</time>
      </trkpt>
      <trkpt lat="41.896331" lon="-4.895367">
        <ele>754.010</ele>
        <time>2021-10-15T14:58:52Z</time>
      </trkpt>
      <trkpt lat="41.895928" lon="-4.895219">
        <ele>755.308</ele>
        <time>2021-10-15T14:58:54Z</time>
      </trkpt>
      <trkpt lat="41.895721" lon="-4.895137">
        <ele>756.091</ele>
        <time>2021-10-15T14:58:55Z</time>
      </trkpt>
      <trkpt lat="41.895515" lon="-4.895058">
        <ele>757.019</ele>
        <time>2021-10-15T14:58:56Z</time>
      </trkpt>
      <trkpt lat="41.895113" lon="-4.894912">
        <ele>759.057</ele>
        <time>2021-10-15T14:58:58Z</time>
      </trkpt>
      <trkpt lat="41.894911" lon="-4.894836">
        <ele>760.111</ele>
        <time>2021-10-15T14:58:59Z</time>
      </trkpt>
      <trkpt lat="41.894711" lon="-4.894756">
        <ele>761.276</ele>
        <time>2021-10-15T14:59:00Z</time>
      </trkpt>
      <trkpt lat="41.894319" lon="-4.894601">
        <ele>763.124</ele>
        <time>2021-10-15T14:59:02Z</time>
      </trkpt>
      <trkpt lat="41.893926" lon="-4.894445">
        <ele>762.837</ele>
        <time>2021-10-15T14:59:04Z</time>
      </trkpt>
      <trkpt lat="41.893523" lon="-4.894288">
        <ele>763.162</ele>
        <time>2021-10-15T14:59:06Z</time>
      </trkpt>
      <trkpt lat="41.893107" lon="-4.894141">
        <ele>763.431</ele>
        <time>2021-10-15T14:59:08Z</time>
      </trkpt>
      <trkpt lat="41.892676" lon="-4.893981">
        <ele>763.561</ele>
        <time>2021-10-15T14:59:10Z</time>
      </trkpt>
      <trkpt lat="41.892462" lon="-4.893900">
        <ele>764.207</ele>
        <time>2021-10-15T14:59:11Z</time>
      </trkpt>
      <trkpt lat="41.892039" lon="-4.893721">
        <ele>765.908</ele>
        <time>2021-10-15T14:59:13Z</time>
      </trkpt>
      <trkpt lat="41.891832" lon="-4.893608">
        <ele>767.291</ele>
        <time>2021-10-15T14:59:14Z</time>
      </trkpt>
      <trkpt lat="41.891429" lon="-4.893316">
        <ele>769.619</ele>
        <time>2021-10-15T14:59:16Z</time>
      </trkpt>
      <trkpt lat="41.891228" lon="-4.893151">
        <ele>770.417</ele>
        <time>2021-10-15T14:59:17Z</time>
      </trkpt>
      <trkpt lat="41.891026" lon="-4.892981">
        <ele>771.931</ele>
        <time>2021-10-15T14:59:18Z</time>
      </trkpt>
      <trkpt lat="41.890616" lon="-4.892638">
        <ele>775.656</ele>
        <time>2021-10-15T14:59:20Z</time>
      </trkpt>
      <trkpt lat="41.890206" lon="-4.892286">
        <ele>778.364</ele>
        <time>2021-10-15T14:59:22Z</time>
      </trkpt>
      <trkpt lat="41.889999" lon="-4.892110">
        <ele>780.367</ele>
        <time>2021-10-15T14:59:23Z</time>
      </trkpt>
      <trkpt lat="41.889808" lon="-4.891948">
        <ele>782.082</ele>
        <time>2021-10-15T14:59:24Z</time>
      </trkpt>
      <trkpt lat="41.889448" lon="-4.891645">
        <ele>784.888</ele>
        <time>2021-10-15T14:59:26Z</time>
      </trkpt>
      <trkpt lat="41.889119" lon="-4.891365">
        <ele>786.724</ele>
        <time>2021-10-15T14:59:28Z</time>
      </trkpt>
      <trkpt lat="41.888773" lon="-4.891100">
        <ele>787.526</ele>
        <time>2021-10-15T14:59:30Z</time>
      </trkpt>
      <trkpt lat="41.888393" lon="-4.890880">
        <ele>787.108</ele>
        <time>2021-10-15T14:59:32Z</time>
      </trkpt>
      <trkpt lat="41.887975" lon="-4.890735">
        <ele>786.236</ele>
        <time>2021-10-15T14:59:34Z</time>
      </trkpt>
      <trkpt lat="41.887751" lon="-4.890688">
        <ele>785.934</ele>
        <time>2021-10-15T14:59:35Z</time>
      </trkpt>
      <trkpt lat="41.887535" lon="-4.890650">
        <ele>787.112</ele>
        <time>2021-10-15T14:59:36Z</time>
      </trkpt>
      <trkpt lat="41.887156" lon="-4.890581">
        <ele>786.816</ele>
        <time>2021-10-15T14:59:38Z</time>
      </trkpt>
      <trkpt lat="41.886981" lon="-4.890552">
        <ele>786.991</ele>
        <time>2021-10-15T14:59:39Z</time>
      </trkpt>
      <trkpt lat="41.886814" lon="-4.890520">
        <ele>786.359</ele>
        <time>2021-10-15T14:59:40Z</time>
      </trkpt>
      <trkpt lat="41.886499" lon="-4.890459">
        <ele>786.142</ele>
        <time>2021-10-15T14:59:42Z</time>
      </trkpt>
      <trkpt lat="41.886348" lon="-4.890431">
        <ele>785.857</ele>
        <time>2021-10-15T14:59:43Z</time>
      </trkpt>
      <trkpt lat="41.886198" lon="-4.890406">
        <ele>785.516</ele>
        <time>2021-10-15T14:59:44Z</time>
      </trkpt>
      <trkpt lat="41.885900" lon="-4.890362">
        <ele>786.276</ele>
        <time>2021-10-15T14:59:46Z</time>
      </trkpt>
      <trkpt lat="41.885751" lon="-4.890349">
        <ele>785.613</ele>
        <time>2021-10-15T14:59:47Z</time>
      </trkpt>
      <trkpt lat="41.885602" lon="-4.890344">
        <ele>785.408</ele>
        <time>2021-10-15T14:59:48Z</time>
      </trkpt>
      <trkpt lat="41.885298" lon="-4.890378">
        <ele>785.259</ele>
        <time>2021-10-15T14:59:50Z</time>
      </trkpt>
      <trkpt lat="41.884982" lon="-4.890477">
        <ele>785.957</ele>
        <time>2021-10-15T14:59:52Z</time>
      </trkpt>
      <trkpt lat="41.884813" lon="-4.890533">
        <ele>785.865</ele>
        <time>2021-10-15T14:59:53Z</time>
      </trkpt>
      <trkpt lat="41.884457" lon="-4.890643">
        <ele>786.419</ele>
        <time>2021-10-15T14:59:55Z</time>
      </trkpt>
      <trkpt lat="41.884261" lon="-4.890707">
        <ele>786.594</ele>
        <time>2021-10-15T14:59:56Z</time>
      </trkpt>
      <trkpt lat="41.883869" lon="-4.890829">
        <ele>786.482</ele>
        <time>2021-10-15T14:59:58Z</time>
      </trkpt>
      <trkpt lat="41.883657" lon="-4.890894">
        <ele>786.975</ele>
        <time>2021-10-15T14:59:59Z</time>
      </trkpt>
      <trkpt lat="41.883226" lon="-4.891034">
        <ele>786.990</ele>
        <time>2021-10-15T15:00:01Z</time>
      </trkpt>
      <trkpt lat="41.882995" lon="-4.891108">
        <ele>786.726</ele>
        <time>2021-10-15T15:00:02Z</time>
      </trkpt>
      <trkpt lat="41.882539" lon="-4.891249">
        <ele>786.047</ele>
        <time>2021-10-15T15:00:04Z</time>
      </trkpt>
      <trkpt lat="41.882299" lon="-4.891326">
        <ele>786.211</ele>
        <time>2021-10-15T15:00:05Z</time>
      </trkpt>
      <trkpt lat="41.881813" lon="-4.891484">
        <ele>786.108</ele>
        <time>2021-10-15T15:00:07Z</time>
      </trkpt>
      <trkpt lat="41.881563" lon="-4.891565">
        <ele>785.340</ele>
        <time>2021-10-15T15:00:08Z</time>
      </trkpt>
      <trkpt lat="41.881081" lon="-4.891719">
        <ele>786.548</ele>
        <time>2021-10-15T15:00:10Z</time>
      </trkpt>
      <trkpt lat="41.880838" lon="-4.891797">
        <ele>786.326</ele>
        <time>2021-10-15T15:00:11Z</time>
      </trkpt>
      <trkpt lat="41.880597" lon="-4.891875">
        <ele>786.170</ele>
        <time>2021-10-15T15:00:12Z</time>
      </trkpt>
      <trkpt lat="41.880139" lon="-4.892024">
        <ele>786.675</ele>
        <time>2021-10-15T15:00:14Z</time>
      </trkpt>
      <trkpt lat="41.879710" lon="-4.892163">
        <ele>785.773</ele>
        <time>2021-10-15T15:00:16Z</time>
      </trkpt>
      <trkpt lat="41.879494" lon="-4.892233">
        <ele>785.546</ele>
        <time>2021-10-15T15:00:17Z</time>
      </trkpt>
      <trkpt lat="41.879063" lon="-4.892372">
        <ele>786.481</ele>
        <time>2021-10-15T15:00:19Z</time>
      </trkpt>
      <trkpt lat="41.878835" lon="-4.892442">
        <ele>786.263</ele>
        <time>2021-10-15T15:00:20Z</time>
      </trkpt>
      <trkpt lat="41.878383" lon="-4.892589">
        <ele>785.844</ele>
        <time>2021-10-15T15:00:22Z</time>
      </trkpt>
      <trkpt lat="41.877911" lon="-4.892742">
        <ele>786.818</ele>
        <time>2021-10-15T15:00:24Z</time>
      </trkpt>
      <trkpt lat="41.877666" lon="-4.892821">
        <ele>787.108</ele>
        <time>2021-10-15T15:00:25Z</time>
      </trkpt>
      <trkpt lat="41.877419" lon="-4.892900">
        <ele>786.474</ele>
        <time>2021-10-15T15:00:26Z</time>
      </trkpt>
      <trkpt lat="41.876943" lon="-4.893051">
        <ele>785.942</ele>
        <time>2021-10-15T15:00:28Z</time>
      </trkpt>
      <trkpt lat="41.876459" lon="-4.893207">
        <ele>786.290</ele>
        <time>2021-10-15T15:00:30Z</time>
      </trkpt>
      <trkpt lat="41.875969" lon="-4.893364">
        <ele>786.224</ele>
        <time>2021-10-15T15:00:32Z</time>
      </trkpt>
      <trkpt lat="41.875492" lon="-4.893515">
        <ele>787.159</ele>
        <time>2021-10-15T15:00:34Z</time>
      </trkpt>
      <trkpt lat="41.875246" lon="-4.893593">
        <ele>786.967</ele>
        <time>2021-10-15T15:00:35Z</time>
      </trkpt>
      <trkpt lat="41.874763" lon="-4.893748">
        <ele>787.670</ele>
        <time>2021-10-15T15:00:37Z</time>
      </trkpt>
      <trkpt lat="41.874518" lon="-4.893826">
        <ele>787.825</ele>
        <time>2021-10-15T15:00:38Z</time>
      </trkpt>
      <trkpt lat="41.874043" lon="-4.893979">
        <ele>787.596</ele>
        <time>2021-10-15T15:00:40Z</time>
      </trkpt>
      <trkpt lat="41.873570" lon="-4.894133">
        <ele>788.831</ele>
        <time>2021-10-15T15:00:42Z</time>
      </trkpt>
      <trkpt lat="41.873333" lon="-4.894214">
        <ele>789.024</ele>
        <time>2021-10-15T15:00:43Z</time>
      </trkpt>
      <trkpt lat="41.873091" lon="-4.894291">
        <ele>788.408</ele>
        <time>2021-10-15T15:00:44Z</time>
      </trkpt>
      <trkpt lat="41.872620" lon="-4.894441">
        <ele>790.097</ele>
        <time>2021-10-15T15:00:46Z</time>
      </trkpt>
      <trkpt lat="41.872380" lon="-4.894515">
        <ele>790.035</ele>
        <time>2021-10-15T15:00:47Z</time>
      </trkpt>
      <trkpt lat="41.872139" lon="-4.894585">
        <ele>789.763</ele>
        <time>2021-10-15T15:00:48Z</time>
      </trkpt>
      <trkpt lat="41.871654" lon="-4.894734">
        <ele>788.917</ele>
        <time>2021-10-15T15:00:50Z</time>
      </trkpt>
      <trkpt lat="41.871168" lon="-4.894891">
        <ele>787.852</ele>
        <time>2021-10-15T15:00:52Z</time>
      </trkpt>
      <trkpt lat="41.870918" lon="-4.894972">
        <ele>787.710</ele>
        <time>2021-10-15T15:00:53Z</time>
      </trkpt>
      <trkpt lat="41.870668" lon="-4.895051">
        <ele>787.423</ele>
        <time>2021-10-15T15:00:54Z</time>
      </trkpt>
      <trkpt lat="41.870418" lon="-4.895126">
        <ele>787.638</ele>
        <time>2021-10-15T15:00:55Z</time>
      </trkpt>
      <trkpt lat="41.870167" lon="-4.895205">
        <ele>787.998</ele>
        <time>2021-10-15T15:00:56Z</time>
      </trkpt>
      <trkpt lat="41.869658" lon="-4.895364">
        <ele>788.515</ele>
        <time>2021-10-15T15:00:58Z</time>
      </trkpt>
      <trkpt lat="41.869399" lon="-4.895441">
        <ele>788.126</ele>
        <time>2021-10-15T15:00:59Z</time>
      </trkpt>
      <trkpt lat="41.868884" lon="-4.895607">
        <ele>788.608</ele>
        <time>2021-10-15T15:01:01Z</time>
      </trkpt>
      <trkpt lat="41.868615" lon="-4.895694">
        <ele>789.537</ele>
        <time>2021-10-15T15:01:02Z</time>
      </trkpt>
      <trkpt lat="41.868091" lon="-4.895862">
        <ele>788.995</ele>
        <time>2021-10-15T15:01:04Z</time>
      </trkpt>
      <trkpt lat="41.867823" lon="-4.895949">
        <ele>788.743</ele>
        <time>2021-10-15T15:01:05Z</time>
      </trkpt>
      <trkpt lat="41.867556" lon="-4.896035">
        <ele>788.337</ele>
        <time>2021-10-15T15:01:06Z</time>
      </trkpt>
      <trkpt lat="41.867290" lon="-4.896120">
        <ele>788.462</ele>
        <time>2021-10-15T15:01:07Z</time>
      </trkpt>
      <trkpt lat="41.867022" lon="-4.896206">
        <ele>788.930</ele>
        <time>2021-10-15T15:01:08Z</time>
      </trkpt>
      <trkpt lat="41.866516" lon="-4.896369">
        <ele>788.993</ele>
        <time>2021-10-15T15:01:10Z</time>
      </trkpt>
      <trkpt lat="41.866259" lon="-4.896451">
        <ele>789.918</ele>
        <time>2021-10-15T15:01:11Z</time>
      </trkpt>
      <trkpt lat="41.865763" lon="-4.896608">
        <ele>790.286</ele>
        <time>2021-10-15T15:01:13Z</time>
      </trkpt>
      <trkpt lat="41.865514" lon="-4.896681">
        <ele>790.260</ele>
        <time>2021-10-15T15:01:14Z</time>
      </trkpt>
      <trkpt lat="41.865033" lon="-4.896830">
        <ele>791.226</ele>
        <time>2021-10-15T15:01:16Z</time>
      </trkpt>
      <trkpt lat="41.864557" lon="-4.896981">
        <ele>792.208</ele>
        <time>2021-10-15T15:01:18Z</time>
      </trkpt>
      <trkpt lat="41.864082" lon="-4.897134">
        <ele>792.646</ele>
        <time>2021-10-15T15:01:20Z</time>
      </trkpt>
      <trkpt lat="41.863615" lon="-4.897282">
        <ele>793.274</ele>
        <time>2021-10-15T15:01:22Z</time>
      </trkpt>
      <trkpt lat="41.863378" lon="-4.897352">
        <ele>793.472</ele>
        <time>2021-10-15T15:01:23Z</time>
      </trkpt>
      <trkpt lat="41.863142" lon="-4.897423">
        <ele>793.876</ele>
        <time>2021-10-15T15:01:24Z</time>
      </trkpt>
      <trkpt lat="41.862905" lon="-4.897494">
        <ele>793.821</ele>
        <time>2021-10-15T15:01:25Z</time>
      </trkpt>
      <trkpt lat="41.862661" lon="-4.897571">
        <ele>793.079</ele>
        <time>2021-10-15T15:01:26Z</time>
      </trkpt>
      <trkpt lat="41.862193" lon="-4.897722">
        <ele>793.812</ele>
        <time>2021-10-15T15:01:28Z</time>
      </trkpt>
      <trkpt lat="41.861708" lon="-4.897878">
        <ele>793.767</ele>
        <time>2021-10-15T15:01:30Z</time>
      </trkpt>
      <trkpt lat="41.861462" lon="-4.897956">
        <ele>794.012</ele>
        <time>2021-10-15T15:01:31Z</time>
      </trkpt>
      <trkpt lat="41.861206" lon="-4.898036">
        <ele>793.932</ele>
        <time>2021-10-15T15:01:32Z</time>
      </trkpt>
      <trkpt lat="41.860720" lon="-4.898183">
        <ele>792.805</ele>
        <time>2021-10-15T15:01:34Z</time>
      </trkpt>
      <trkpt lat="41.860227" lon="-4.898340">
        <ele>792.108</ele>
        <time>2021-10-15T15:01:36Z</time>
      </trkpt>
      <trkpt lat="41.859732" lon="-4.898497">
        <ele>792.129</ele>
        <time>2021-10-15T15:01:38Z</time>
      </trkpt>
      <trkpt lat="41.859240" lon="-4.898650">
        <ele>791.257</ele>
        <time>2021-10-15T15:01:40Z</time>
      </trkpt>
      <trkpt lat="41.858725" lon="-4.898814">
        <ele>790.285</ele>
        <time>2021-10-15T15:01:42Z</time>
      </trkpt>
      <trkpt lat="41.858463" lon="-4.898898">
        <ele>790.139</ele>
        <time>2021-10-15T15:01:43Z</time>
      </trkpt>
      <trkpt lat="41.858195" lon="-4.898984">
        <ele>789.774</ele>
        <time>2021-10-15T15:01:44Z</time>
      </trkpt>
      <trkpt lat="41.857664" lon="-4.899144">
        <ele>789.172</ele>
        <time>2021-10-15T15:01:46Z</time>
      </trkpt>
      <trkpt lat="41.857393" lon="-4.899227">
        <ele>788.995</ele>
        <time>2021-10-15T15:01:47Z</time>
      </trkpt>
      <trkpt lat="41.856848" lon="-4.899402">
        <ele>788.860</ele>
        <time>2021-10-15T15:01:49Z</time>
      </trkpt>
      <trkpt lat="41.856568" lon="-4.899486">
        <ele>788.896</ele>
        <time>2021-10-15T15:01:50Z</time>
      </trkpt>
      <trkpt lat="41.856024" lon="-4.899653">
        <ele>788.531</ele>
        <time>2021-10-15T15:01:52Z</time>
      </trkpt>
      <trkpt lat="41.855486" lon="-4.899826">
        <ele>789.524</ele>
        <time>2021-10-15T15:01:54Z</time>
      </trkpt>
      <trkpt lat="41.855212" lon="-4.899909">
        <ele>789.008</ele>
        <time>2021-10-15T15:01:55Z</time>
      </trkpt>
      <trkpt lat="41.854938" lon="-4.899997">
        <ele>788.917</ele>
        <time>2021-10-15T15:01:56Z</time>
      </trkpt>
      <trkpt lat="41.854421" lon="-4.900159">
        <ele>789.145</ele>
        <time>2021-10-15T15:01:58Z</time>
      </trkpt>
      <trkpt lat="41.854155" lon="-4.900241">
        <ele>789.633</ele>
        <time>2021-10-15T15:01:59Z</time>
      </trkpt>
      <trkpt lat="41.853892" lon="-4.900323">
        <ele>790.457</ele>
        <time>2021-10-15T15:02:00Z</time>
      </trkpt>
      <trkpt lat="41.853373" lon="-4.900484">
        <ele>790.372</ele>
        <time>2021-10-15T15:02:02Z</time>
      </trkpt>
      <trkpt lat="41.852891" lon="-4.900634">
        <ele>791.120</ele>
        <time>2021-10-15T15:02:04Z</time>
      </trkpt>
      <trkpt lat="41.852655" lon="-4.900707">
        <ele>791.553</ele>
        <time>2021-10-15T15:02:05Z</time>
      </trkpt>
      <trkpt lat="41.852193" lon="-4.900843">
        <ele>791.398</ele>
        <time>2021-10-15T15:02:07Z</time>
      </trkpt>
      <trkpt lat="41.851960" lon="-4.900914">
        <ele>790.687</ele>
        <time>2021-10-15T15:02:08Z</time>
      </trkpt>
      <trkpt lat="41.851501" lon="-4.901059">
        <ele>790.342</ele>
        <time>2021-10-15T15:02:10Z</time>
      </trkpt>
      <trkpt lat="41.851269" lon="-4.901132">
        <ele>790.226</ele>
        <time>2021-10-15T15:02:11Z</time>
      </trkpt>
      <trkpt lat="41.850803" lon="-4.901274">
        <ele>789.208</ele>
        <time>2021-10-15T15:02:13Z</time>
      </trkpt>
      <trkpt lat="41.850565" lon="-4.901345">
        <ele>789.886</ele>
        <time>2021-10-15T15:02:14Z</time>
      </trkpt>
      <trkpt lat="41.850101" lon="-4.901484">
        <ele>789.024</ele>
        <time>2021-10-15T15:02:16Z</time>
      </trkpt>
      <trkpt lat="41.849862" lon="-4.901556">
        <ele>788.792</ele>
        <time>2021-10-15T15:02:17Z</time>
      </trkpt>
      <trkpt lat="41.849388" lon="-4.901701">
        <ele>788.256</ele>
        <time>2021-10-15T15:02:19Z</time>
      </trkpt>
      <trkpt lat="41.849141" lon="-4.901780">
        <ele>788.081</ele>
        <time>2021-10-15T15:02:20Z</time>
      </trkpt>
      <trkpt lat="41.848661" lon="-4.901931">
        <ele>787.189</ele>
        <time>2021-10-15T15:02:22Z</time>
      </trkpt>
      <trkpt lat="41.848416" lon="-4.902007">
        <ele>786.682</ele>
        <time>2021-10-15T15:02:23Z</time>
      </trkpt>
      <trkpt lat="41.847947" lon="-4.902169">
        <ele>785.567</ele>
        <time>2021-10-15T15:02:25Z</time>
      </trkpt>
      <trkpt lat="41.847720" lon="-4.902279">
        <ele>785.236</ele>
        <time>2021-10-15T15:02:26Z</time>
      </trkpt>
      <trkpt lat="41.847308" lon="-4.902543">
        <ele>786.017</ele>
        <time>2021-10-15T15:02:28Z</time>
      </trkpt>
      <trkpt lat="41.847096" lon="-4.902689">
        <ele>785.918</ele>
        <time>2021-10-15T15:02:29Z</time>
      </trkpt>
      <trkpt lat="41.846671" lon="-4.902984">
        <ele>785.608</ele>
        <time>2021-10-15T15:02:31Z</time>
      </trkpt>
      <trkpt lat="41.846449" lon="-4.903133">
        <ele>785.581</ele>
        <time>2021-10-15T15:02:32Z</time>
      </trkpt>
      <trkpt lat="41.846012" lon="-4.903426">
        <ele>784.079</ele>
        <time>2021-10-15T15:02:34Z</time>
      </trkpt>
      <trkpt lat="41.845782" lon="-4.903581">
        <ele>784.027</ele>
        <time>2021-10-15T15:02:35Z</time>
      </trkpt>
      <trkpt lat="41.845317" lon="-4.903889">
        <ele>783.951</ele>
        <time>2021-10-15T15:02:37Z</time>
      </trkpt>
      <trkpt lat="41.845076" lon="-4.904044">
        <ele>782.746</ele>
        <time>2021-10-15T15:02:38Z</time>
      </trkpt>
      <trkpt lat="41.844600" lon="-4.904353">
        <ele>781.074</ele>
        <time>2021-10-15T15:02:40Z</time>
      </trkpt>
      <trkpt lat="41.844119" lon="-4.904682">
        <ele>780.717</ele>
        <time>2021-10-15T15:02:42Z</time>
      </trkpt>
      <trkpt lat="41.843879" lon="-4.904851">
        <ele>780.692</ele>
        <time>2021-10-15T15:02:43Z</time>
      </trkpt>
      <trkpt lat="41.843635" lon="-4.905021">
        <ele>780.886</ele>
        <time>2021-10-15T15:02:44Z</time>
      </trkpt>
      <trkpt lat="41.843162" lon="-4.905339">
        <ele>781.060</ele>
        <time>2021-10-15T15:02:46Z</time>
      </trkpt>
      <trkpt lat="41.842938" lon="-4.905491">
        <ele>781.926</ele>
        <time>2021-10-15T15:02:47Z</time>
      </trkpt>
      <trkpt lat="41.842517" lon="-4.905776">
        <ele>784.108</ele>
        <time>2021-10-15T15:02:49Z</time>
      </trkpt>
      <trkpt lat="41.842303" lon="-4.905920">
        <ele>784.186</ele>
        <time>2021-10-15T15:02:50Z</time>
      </trkpt>
      <trkpt lat="41.841873" lon="-4.906208">
        <ele>785.084</ele>
        <time>2021-10-15T15:02:52Z</time>
      </trkpt>
      <trkpt lat="41.841647" lon="-4.906360">
        <ele>785.672</ele>
        <time>2021-10-15T15:02:53Z</time>
      </trkpt>
      <trkpt lat="41.841420" lon="-4.906513">
        <ele>786.046</ele>
        <time>2021-10-15T15:02:54Z</time>
      </trkpt>
      <trkpt lat="41.840948" lon="-4.906831">
        <ele>788.221</ele>
        <time>2021-10-15T15:02:56Z</time>
      </trkpt>
      <trkpt lat="41.840484" lon="-4.907145">
        <ele>788.949</ele>
        <time>2021-10-15T15:02:58Z</time>
      </trkpt>
      <trkpt lat="41.840021" lon="-4.907452">
        <ele>789.392</ele>
        <time>2021-10-15T15:03:00Z</time>
      </trkpt>
      <trkpt lat="41.839575" lon="-4.907749">
        <ele>790.787</ele>
        <time>2021-10-15T15:03:02Z</time>
      </trkpt>
      <trkpt lat="41.839156" lon="-4.908032">
        <ele>790.185</ele>
        <time>2021-10-15T15:03:04Z</time>
      </trkpt>
      <trkpt lat="41.838942" lon="-4.908180">
        <ele>790.589</ele>
        <time>2021-10-15T15:03:05Z</time>
      </trkpt>
      <trkpt lat="41.838507" lon="-4.908470">
        <ele>790.417</ele>
        <time>2021-10-15T15:03:07Z</time>
      </trkpt>
      <trkpt lat="41.838278" lon="-4.908621">
        <ele>789.608</ele>
        <time>2021-10-15T15:03:08Z</time>
      </trkpt>
      <trkpt lat="41.837825" lon="-4.908919">
        <ele>789.376</ele>
        <time>2021-10-15T15:03:10Z</time>
      </trkpt>
      <trkpt lat="41.837585" lon="-4.909078">
        <ele>788.334</ele>
        <time>2021-10-15T15:03:11Z</time>
      </trkpt>
      <trkpt lat="41.837341" lon="-4.909240">
        <ele>787.472</ele>
        <time>2021-10-15T15:03:12Z</time>
      </trkpt>
      <trkpt lat="41.836833" lon="-4.909578">
        <ele>787.546</ele>
        <time>2021-10-15T15:03:14Z</time>
      </trkpt>
      <trkpt lat="41.836330" lon="-4.909914">
        <ele>787.471</ele>
        <time>2021-10-15T15:03:16Z</time>
      </trkpt>
      <trkpt lat="41.835816" lon="-4.910253">
        <ele>787.069</ele>
        <time>2021-10-15T15:03:18Z</time>
      </trkpt>
      <trkpt lat="41.835303" lon="-4.910595">
        <ele>788.072</ele>
        <time>2021-10-15T15:03:20Z</time>
      </trkpt>
      <trkpt lat="41.834804" lon="-4.910918">
        <ele>787.637</ele>
        <time>2021-10-15T15:03:22Z</time>
      </trkpt>
      <trkpt lat="41.834304" lon="-4.911224">
        <ele>787.734</ele>
        <time>2021-10-15T15:03:24Z</time>
      </trkpt>
      <trkpt lat="41.834060" lon="-4.911372">
        <ele>787.755</ele>
        <time>2021-10-15T15:03:25Z</time>
      </trkpt>
      <trkpt lat="41.833613" lon="-4.911638">
        <ele>788.110</ele>
        <time>2021-10-15T15:03:27Z</time>
      </trkpt>
      <trkpt lat="41.833191" lon="-4.911902">
        <ele>788.408</ele>
        <time>2021-10-15T15:03:29Z</time>
      </trkpt>
      <trkpt lat="41.832762" lon="-4.912169">
        <ele>788.221</ele>
        <time>2021-10-15T15:03:31Z</time>
      </trkpt>
      <trkpt lat="41.832531" lon="-4.912310">
        <ele>788.759</ele>
        <time>2021-10-15T15:03:32Z</time>
      </trkpt>
      <trkpt lat="41.832073" lon="-4.912587">
        <ele>789.687</ele>
        <time>2021-10-15T15:03:34Z</time>
      </trkpt>
      <trkpt lat="41.831597" lon="-4.912876">
        <ele>789.161</ele>
        <time>2021-10-15T15:03:36Z</time>
      </trkpt>
      <trkpt lat="41.831108" lon="-4.913177">
        <ele>788.636</ele>
        <time>2021-10-15T15:03:38Z</time>
      </trkpt>
      <trkpt lat="41.830633" lon="-4.913466">
        <ele>788.444</ele>
        <time>2021-10-15T15:03:40Z</time>
      </trkpt>
      <trkpt lat="41.830391" lon="-4.913614">
        <ele>788.657</ele>
        <time>2021-10-15T15:03:41Z</time>
      </trkpt>
      <trkpt lat="41.829915" lon="-4.913907">
        <ele>788.772</ele>
        <time>2021-10-15T15:03:43Z</time>
      </trkpt>
      <trkpt lat="41.829673" lon="-4.914055">
        <ele>788.456</ele>
        <time>2021-10-15T15:03:44Z</time>
      </trkpt>
      <trkpt lat="41.829206" lon="-4.914339">
        <ele>788.859</ele>
        <time>2021-10-15T15:03:46Z</time>
      </trkpt>
      <trkpt lat="41.828743" lon="-4.914620">
        <ele>788.114</ele>
        <time>2021-10-15T15:03:48Z</time>
      </trkpt>
      <trkpt lat="41.828516" lon="-4.914759">
        <ele>787.808</ele>
        <time>2021-10-15T15:03:49Z</time>
      </trkpt>
      <trkpt lat="41.828290" lon="-4.914897">
        <ele>788.123</ele>
        <time>2021-10-15T15:03:50Z</time>
      </trkpt>
      <trkpt lat="41.827857" lon="-4.915161">
        <ele>788.141</ele>
        <time>2021-10-15T15:03:52Z</time>
      </trkpt>
      <trkpt lat="41.827426" lon="-4.915428">
        <ele>788.299</ele>
        <time>2021-10-15T15:03:54Z</time>
      </trkpt>
      <trkpt lat="41.826996" lon="-4.915698">
        <ele>788.733</ele>
        <time>2021-10-15T15:03:56Z</time>
      </trkpt>
      <trkpt lat="41.826579" lon="-4.915951">
        <ele>789.218</ele>
        <time>2021-10-15T15:03:58Z</time>
      </trkpt>
      <trkpt lat="41.826363" lon="-4.916081">
        <ele>789.596</ele>
        <time>2021-10-15T15:03:59Z</time>
      </trkpt>
      <trkpt lat="41.825919" lon="-4.916332">
        <ele>789.319</ele>
        <time>2021-10-15T15:04:01Z</time>
      </trkpt>
      <trkpt lat="41.825695" lon="-4.916473">
        <ele>789.594</ele>
        <time>2021-10-15T15:04:02Z</time>
      </trkpt>
      <trkpt lat="41.825261" lon="-4.916756">
        <ele>789.966</ele>
        <time>2021-10-15T15:04:04Z</time>
      </trkpt>
      <trkpt lat="41.824801" lon="-4.917019">
        <ele>789.329</ele>
        <time>2021-10-15T15:04:06Z</time>
      </trkpt>
      <trkpt lat="41.824570" lon="-4.917169">
        <ele>789.521</ele>
        <time>2021-10-15T15:04:07Z</time>
      </trkpt>
      <trkpt lat="41.824336" lon="-4.917328">
        <ele>790.108</ele>
        <time>2021-10-15T15:04:08Z</time>
      </trkpt>
      <trkpt lat="41.823856" lon="-4.917596">
        <ele>790.374</ele>
        <time>2021-10-15T15:04:10Z</time>
      </trkpt>
      <trkpt lat="41.823372" lon="-4.917909">
        <ele>790.722</ele>
        <time>2021-10-15T15:04:12Z</time>
      </trkpt>
      <trkpt lat="41.822874" lon="-4.918210">
        <ele>791.160</ele>
        <time>2021-10-15T15:04:14Z</time>
      </trkpt>
      <trkpt lat="41.822386" lon="-4.918506">
        <ele>791.164</ele>
        <time>2021-10-15T15:04:16Z</time>
      </trkpt>
      <trkpt lat="41.822135" lon="-4.918661">
        <ele>791.039</ele>
        <time>2021-10-15T15:04:17Z</time>
      </trkpt>
      <trkpt lat="41.821886" lon="-4.918816">
        <ele>791.047</ele>
        <time>2021-10-15T15:04:18Z</time>
      </trkpt>
      <trkpt lat="41.821638" lon="-4.918975">
        <ele>790.510</ele>
        <time>2021-10-15T15:04:19Z</time>
      </trkpt>
      <trkpt lat="41.821382" lon="-4.919133">
        <ele>790.215</ele>
        <time>2021-10-15T15:04:20Z</time>
      </trkpt>
      <trkpt lat="41.820883" lon="-4.919440">
        <ele>790.042</ele>
        <time>2021-10-15T15:04:22Z</time>
      </trkpt>
      <trkpt lat="41.820627" lon="-4.919595">
        <ele>789.822</ele>
        <time>2021-10-15T15:04:23Z</time>
      </trkpt>
      <trkpt lat="41.820366" lon="-4.919754">
        <ele>789.814</ele>
        <time>2021-10-15T15:04:24Z</time>
      </trkpt>
      <trkpt lat="41.819851" lon="-4.920071">
        <ele>790.308</ele>
        <time>2021-10-15T15:04:26Z</time>
      </trkpt>
      <trkpt lat="41.819343" lon="-4.920384">
        <ele>790.782</ele>
        <time>2021-10-15T15:04:28Z</time>
      </trkpt>
      <trkpt lat="41.819085" lon="-4.920542">
        <ele>789.840</ele>
        <time>2021-10-15T15:04:29Z</time>
      </trkpt>
      <trkpt lat="41.818828" lon="-4.920700">
        <ele>789.118</ele>
        <time>2021-10-15T15:04:30Z</time>
      </trkpt>
      <trkpt lat="41.818323" lon="-4.921018">
        <ele>790.072</ele>
        <time>2021-10-15T15:04:32Z</time>
      </trkpt>
      <trkpt lat="41.817834" lon="-4.921318">
        <ele>789.937</ele>
        <time>2021-10-15T15:04:34Z</time>
      </trkpt>
      <trkpt lat="41.817335" lon="-4.921627">
        <ele>789.835</ele>
        <time>2021-10-15T15:04:36Z</time>
      </trkpt>
      <trkpt lat="41.817084" lon="-4.921787">
        <ele>789.868</ele>
        <time>2021-10-15T15:04:37Z</time>
      </trkpt>
      <trkpt lat="41.816825" lon="-4.921950">
        <ele>789.853</ele>
        <time>2021-10-15T15:04:38Z</time>
      </trkpt>
      <trkpt lat="41.816323" lon="-4.922251">
        <ele>789.786</ele>
        <time>2021-10-15T15:04:40Z</time>
      </trkpt>
      <trkpt lat="41.816066" lon="-4.922407">
        <ele>789.760</ele>
        <time>2021-10-15T15:04:41Z</time>
      </trkpt>
      <trkpt lat="41.815552" lon="-4.922722">
        <ele>790.226</ele>
        <time>2021-10-15T15:04:43Z</time>
      </trkpt>
      <trkpt lat="41.815292" lon="-4.922887">
        <ele>790.008</ele>
        <time>2021-10-15T15:04:44Z</time>
      </trkpt>
      <trkpt lat="41.814780" lon="-4.923208">
        <ele>789.726</ele>
        <time>2021-10-15T15:04:46Z</time>
      </trkpt>
      <trkpt lat="41.814520" lon="-4.923372">
        <ele>789.484</ele>
        <time>2021-10-15T15:04:47Z</time>
      </trkpt>
      <trkpt lat="41.814262" lon="-4.923535">
        <ele>789.932</ele>
        <time>2021-10-15T15:04:48Z</time>
      </trkpt>
      <trkpt lat="41.813746" lon="-4.923861">
        <ele>789.146</ele>
        <time>2021-10-15T15:04:50Z</time>
      </trkpt>
      <trkpt lat="41.813251" lon="-4.924169">
        <ele>789.411</ele>
        <time>2021-10-15T15:04:52Z</time>
      </trkpt>
      <trkpt lat="41.812755" lon="-4.924486">
        <ele>790.069</ele>
        <time>2021-10-15T15:04:54Z</time>
      </trkpt>
      <trkpt lat="41.812259" lon="-4.924799">
        <ele>788.822</ele>
        <time>2021-10-15T15:04:56Z</time>
      </trkpt>
      <trkpt lat="41.811783" lon="-4.925089">
        <ele>789.897</ele>
        <time>2021-10-15T15:04:58Z</time>
      </trkpt>
      <trkpt lat="41.811545" lon="-4.925235">
        <ele>789.658</ele>
        <time>2021-10-15T15:04:59Z</time>
      </trkpt>
      <trkpt lat="41.811091" lon="-4.925520">
        <ele>789.752</ele>
        <time>2021-10-15T15:05:01Z</time>
      </trkpt>
      <trkpt lat="41.810860" lon="-4.925660">
        <ele>789.717</ele>
        <time>2021-10-15T15:05:02Z</time>
      </trkpt>
      <trkpt lat="41.810418" lon="-4.925932">
        <ele>789.908</ele>
        <time>2021-10-15T15:05:04Z</time>
      </trkpt>
      <trkpt lat="41.809971" lon="-4.926211">
        <ele>789.883</ele>
        <time>2021-10-15T15:05:06Z</time>
      </trkpt>
      <trkpt lat="41.809518" lon="-4.926498">
        <ele>789.691</ele>
        <time>2021-10-15T15:05:08Z</time>
      </trkpt>
      <trkpt lat="41.809068" lon="-4.926777">
        <ele>789.469</ele>
        <time>2021-10-15T15:05:10Z</time>
      </trkpt>
      <trkpt lat="41.808838" lon="-4.926919">
        <ele>789.863</ele>
        <time>2021-10-15T15:05:11Z</time>
      </trkpt>
      <trkpt lat="41.808384" lon="-4.927209">
        <ele>789.178</ele>
        <time>2021-10-15T15:05:13Z</time>
      </trkpt>
      <trkpt lat="41.808150" lon="-4.927357">
        <ele>788.456</ele>
        <time>2021-10-15T15:05:14Z</time>
      </trkpt>
      <trkpt lat="41.807691" lon="-4.927650">
        <ele>788.699</ele>
        <time>2021-10-15T15:05:16Z</time>
      </trkpt>
      <trkpt lat="41.807249" lon="-4.927940">
        <ele>788.834</ele>
        <time>2021-10-15T15:05:18Z</time>
      </trkpt>
      <trkpt lat="41.807037" lon="-4.928079">
        <ele>788.658</ele>
        <time>2021-10-15T15:05:19Z</time>
      </trkpt>
      <trkpt lat="41.806821" lon="-4.928211">
        <ele>789.252</ele>
        <time>2021-10-15T15:05:20Z</time>
      </trkpt>
      <trkpt lat="41.806401" lon="-4.928475">
        <ele>788.717</ele>
        <time>2021-10-15T15:05:22Z</time>
      </trkpt>
      <trkpt lat="41.805958" lon="-4.928749">
        <ele>789.208</ele>
        <time>2021-10-15T15:05:24Z</time>
      </trkpt>
      <trkpt lat="41.805729" lon="-4.928890">
        <ele>789.413</ele>
        <time>2021-10-15T15:05:25Z</time>
      </trkpt>
      <trkpt lat="41.805492" lon="-4.929042">
        <ele>788.941</ele>
        <time>2021-10-15T15:05:26Z</time>
      </trkpt>
      <trkpt lat="41.805030" lon="-4.929336">
        <ele>789.729</ele>
        <time>2021-10-15T15:05:28Z</time>
      </trkpt>
      <trkpt lat="41.804788" lon="-4.929491">
        <ele>789.513</ele>
        <time>2021-10-15T15:05:29Z</time>
      </trkpt>
      <trkpt lat="41.804298" lon="-4.929804">
        <ele>788.448</ele>
        <time>2021-10-15T15:05:31Z</time>
      </trkpt>
      <trkpt lat="41.804042" lon="-4.929965">
        <ele>788.786</ele>
        <time>2021-10-15T15:05:32Z</time>
      </trkpt>
      <trkpt lat="41.803549" lon="-4.930274">
        <ele>788.579</ele>
        <time>2021-10-15T15:05:34Z</time>
      </trkpt>
      <trkpt lat="41.803288" lon="-4.930441">
        <ele>788.454</ele>
        <time>2021-10-15T15:05:35Z</time>
      </trkpt>
      <trkpt lat="41.802775" lon="-4.930769">
        <ele>790.442</ele>
        <time>2021-10-15T15:05:37Z</time>
      </trkpt>
      <trkpt lat="41.802509" lon="-4.930937">
        <ele>790.022</ele>
        <time>2021-10-15T15:05:38Z</time>
      </trkpt>
      <trkpt lat="41.802012" lon="-4.931247">
        <ele>789.914</ele>
        <time>2021-10-15T15:05:40Z</time>
      </trkpt>
      <trkpt lat="41.801780" lon="-4.931395">
        <ele>788.508</ele>
        <time>2021-10-15T15:05:41Z</time>
      </trkpt>
      <trkpt lat="41.801348" lon="-4.931669">
        <ele>789.892</ele>
        <time>2021-10-15T15:05:43Z</time>
      </trkpt>
      <trkpt lat="41.801138" lon="-4.931802">
        <ele>789.470</ele>
        <time>2021-10-15T15:05:44Z</time>
      </trkpt>
      <trkpt lat="41.800727" lon="-4.932058">
        <ele>789.248</ele>
        <time>2021-10-15T15:05:46Z</time>
      </trkpt>
      <trkpt lat="41.800304" lon="-4.932336">
        <ele>790.382</ele>
        <time>2021-10-15T15:05:48Z</time>
      </trkpt>
      <trkpt lat="41.800081" lon="-4.932476">
        <ele>790.267</ele>
        <time>2021-10-15T15:05:49Z</time>
      </trkpt>
      <trkpt lat="41.799851" lon="-4.932615">
        <ele>789.965</ele>
        <time>2021-10-15T15:05:50Z</time>
      </trkpt>
      <trkpt lat="41.799396" lon="-4.932896">
        <ele>789.698</ele>
        <time>2021-10-15T15:05:52Z</time>
      </trkpt>
      <trkpt lat="41.798912" lon="-4.933213">
        <ele>789.533</ele>
        <time>2021-10-15T15:05:54Z</time>
      </trkpt>
      <trkpt lat="41.798649" lon="-4.933387">
        <ele>789.328</ele>
        <time>2021-10-15T15:05:55Z</time>
      </trkpt>
      <trkpt lat="41.798362" lon="-4.933568">
        <ele>788.989</ele>
        <time>2021-10-15T15:05:56Z</time>
      </trkpt>
      <trkpt lat="41.797797" lon="-4.933922">
        <ele>789.117</ele>
        <time>2021-10-15T15:05:58Z</time>
      </trkpt>
      <trkpt lat="41.797525" lon="-4.934095">
        <ele>789.108</ele>
        <time>2021-10-15T15:05:59Z</time>
      </trkpt>
      <trkpt lat="41.797016" lon="-4.934419">
        <ele>788.860</ele>
        <time>2021-10-15T15:06:01Z</time>
      </trkpt>
      <trkpt lat="41.796772" lon="-4.934574">
        <ele>788.728</ele>
        <time>2021-10-15T15:06:02Z</time>
      </trkpt>
      <trkpt lat="41.796322" lon="-4.934861">
        <ele>788.526</ele>
        <time>2021-10-15T15:06:04Z</time>
      </trkpt>
      <trkpt lat="41.796100" lon="-4.935003">
        <ele>788.230</ele>
        <time>2021-10-15T15:06:05Z</time>
      </trkpt>
      <trkpt lat="41.795672" lon="-4.935273">
        <ele>787.395</ele>
        <time>2021-10-15T15:06:07Z</time>
      </trkpt>
      <trkpt lat="41.795450" lon="-4.935408">
        <ele>787.293</ele>
        <time>2021-10-15T15:06:08Z</time>
      </trkpt>
      <trkpt lat="41.795025" lon="-4.935676">
        <ele>787.786</ele>
        <time>2021-10-15T15:06:10Z</time>
      </trkpt>
      <trkpt lat="41.794577" lon="-4.935962">
        <ele>787.251</ele>
        <time>2021-10-15T15:06:12Z</time>
      </trkpt>
      <trkpt lat="41.794346" lon="-4.936109">
        <ele>787.156</ele>
        <time>2021-10-15T15:06:13Z</time>
      </trkpt>
      <trkpt lat="41.794111" lon="-4.936260">
        <ele>786.759</ele>
        <time>2021-10-15T15:06:14Z</time>
      </trkpt>
      <trkpt lat="41.793659" lon="-4.936552">
        <ele>788.014</ele>
        <time>2021-10-15T15:06:16Z</time>
      </trkpt>
      <trkpt lat="41.793431" lon="-4.936706">
        <ele>787.608</ele>
        <time>2021-10-15T15:06:17Z</time>
      </trkpt>
      <trkpt lat="41.792991" lon="-4.937035">
        <ele>787.623</ele>
        <time>2021-10-15T15:06:19Z</time>
      </trkpt>
      <trkpt lat="41.792772" lon="-4.937227">
        <ele>787.321</ele>
        <time>2021-10-15T15:06:20Z</time>
      </trkpt>
      <trkpt lat="41.792367" lon="-4.937616">
        <ele>786.799</ele>
        <time>2021-10-15T15:06:22Z</time>
      </trkpt>
      <trkpt lat="41.792159" lon="-4.937817">
        <ele>785.673</ele>
        <time>2021-10-15T15:06:23Z</time>
      </trkpt>
      <trkpt lat="41.791955" lon="-4.938016">
        <ele>785.998</ele>
        <time>2021-10-15T15:06:24Z</time>
      </trkpt>
      <trkpt lat="41.791751" lon="-4.938219">
        <ele>785.936</ele>
        <time>2021-10-15T15:06:25Z</time>
      </trkpt>
      <trkpt lat="41.791539" lon="-4.938435">
        <ele>785.069</ele>
        <time>2021-10-15T15:06:26Z</time>
      </trkpt>
      <trkpt lat="41.791140" lon="-4.938823">
        <ele>784.394</ele>
        <time>2021-10-15T15:06:28Z</time>
      </trkpt>
      <trkpt lat="41.790933" lon="-4.939014">
        <ele>784.249</ele>
        <time>2021-10-15T15:06:29Z</time>
      </trkpt>
      <trkpt lat="41.790727" lon="-4.939203">
        <ele>784.602</ele>
        <time>2021-10-15T15:06:30Z</time>
      </trkpt>
      <trkpt lat="41.790323" lon="-4.939574">
        <ele>784.422</ele>
        <time>2021-10-15T15:06:32Z</time>
      </trkpt>
      <trkpt lat="41.789960" lon="-4.939908">
        <ele>784.208</ele>
        <time>2021-10-15T15:06:34Z</time>
      </trkpt>
      <trkpt lat="41.789628" lon="-4.940223">
        <ele>784.842</ele>
        <time>2021-10-15T15:06:36Z</time>
      </trkpt>
      <trkpt lat="41.789461" lon="-4.940381">
        <ele>785.170</ele>
        <time>2021-10-15T15:06:37Z</time>
      </trkpt>
      <trkpt lat="41.789292" lon="-4.940541">
        <ele>785.118</ele>
        <time>2021-10-15T15:06:38Z</time>
      </trkpt>
      <trkpt lat="41.788954" lon="-4.940860">
        <ele>785.232</ele>
        <time>2021-10-15T15:06:40Z</time>
      </trkpt>
      <trkpt lat="41.788777" lon="-4.941026">
        <ele>785.037</ele>
        <time>2021-10-15T15:06:41Z</time>
      </trkpt>
      <trkpt lat="41.788419" lon="-4.941355">
        <ele>785.755</ele>
        <time>2021-10-15T15:06:43Z</time>
      </trkpt>
      <trkpt lat="41.788232" lon="-4.941531">
        <ele>785.398</ele>
        <time>2021-10-15T15:06:44Z</time>
      </trkpt>
      <trkpt lat="41.787906" lon="-4.941837">
        <ele>784.873</ele>
        <time>2021-10-15T15:06:46Z</time>
      </trkpt>
      <trkpt lat="41.787756" lon="-4.941977">
        <ele>785.485</ele>
        <time>2021-10-15T15:06:47Z</time>
      </trkpt>
      <trkpt lat="41.787496" lon="-4.942223">
        <ele>785.989</ele>
        <time>2021-10-15T15:06:49Z</time>
      </trkpt>
      <trkpt lat="41.787387" lon="-4.942327">
        <ele>786.217</ele>
        <time>2021-10-15T15:06:50Z</time>
      </trkpt>
      <trkpt lat="41.787204" lon="-4.942507">
        <ele>786.008</ele>
        <time>2021-10-15T15:06:52Z</time>
      </trkpt>
      <trkpt lat="41.787036" lon="-4.942673">
        <ele>786.246</ele>
        <time>2021-10-15T15:06:54Z</time>
      </trkpt>
      <trkpt lat="41.786879" lon="-4.942819">
        <ele>786.254</ele>
        <time>2021-10-15T15:06:56Z</time>
      </trkpt>
      <trkpt lat="41.786753" lon="-4.942945">
        <ele>785.032</ele>
        <time>2021-10-15T15:06:58Z</time>
      </trkpt>
      <trkpt lat="41.786701" lon="-4.943001">
        <ele>785.496</ele>
        <time>2021-10-15T15:06:59Z</time>
      </trkpt>
      <trkpt lat="41.786625" lon="-4.943101">
        <ele>786.371</ele>
        <time>2021-10-15T15:07:01Z</time>
      </trkpt>
      <trkpt lat="41.786585" lon="-4.943170">
        <ele>787.039</ele>
        <time>2021-10-15T15:07:03Z</time>
      </trkpt>
      <trkpt lat="41.786559" lon="-4.943223">
        <ele>786.782</ele>
        <time>2021-10-15T15:07:05Z</time>
      </trkpt>
      <trkpt lat="41.786527" lon="-4.943279">
        <ele>804.337</ele>
        <time>2021-10-15T15:07:50Z</time>
      </trkpt>
      <trkpt lat="41.786438" lon="-4.943360">
        <ele>840.181</ele>
        <time>2021-10-15T15:07:52Z</time>
      </trkpt>
      <trkpt lat="41.786391" lon="-4.943372">
        <ele>841.061</ele>
        <time>2021-10-15T15:07:53Z</time>
      </trkpt>
      <trkpt lat="41.786323" lon="-4.943341">
        <ele>841.017</ele>
        <time>2021-10-15T15:07:55Z</time>
      </trkpt>
      <trkpt lat="41.786239" lon="-4.943310">
        <ele>842.108</ele>
        <time>2021-10-15T15:07:57Z</time>
      </trkpt>
      <trkpt lat="41.786147" lon="-4.943305">
        <ele>842.196</ele>
        <time>2021-10-15T15:07:59Z</time>
      </trkpt>
      <trkpt lat="41.786098" lon="-4.943308">
        <ele>842.114</ele>
        <time>2021-10-15T15:08:00Z</time>
      </trkpt>
      <trkpt lat="41.786052" lon="-4.943311">
        <ele>842.122</ele>
        <time>2021-10-15T15:08:02Z</time>
      </trkpt>
      <trkpt lat="41.786008" lon="-4.943324">
        <ele>842.096</ele>
        <time>2021-10-15T15:08:13Z</time>
      </trkpt>
      <trkpt lat="41.785956" lon="-4.943345">
        <ele>842.071</ele>
        <time>2021-10-15T15:08:14Z</time>
      </trkpt>
      <trkpt lat="41.785709" lon="-4.943426">
        <ele>842.039</ele>
        <time>2021-10-15T15:08:16Z</time>
      </trkpt>
      <trkpt lat="41.785513" lon="-4.943475">
        <ele>841.612</ele>
        <time>2021-10-15T15:08:17Z</time>
      </trkpt>
      <trkpt lat="41.785264" lon="-4.943536">
        <ele>841.617</ele>
        <time>2021-10-15T15:08:18Z</time>
      </trkpt>
      <trkpt lat="41.784637" lon="-4.943681">
        <ele>841.644</ele>
        <time>2021-10-15T15:08:20Z</time>
      </trkpt>
      <trkpt lat="41.784023" lon="-4.943821">
        <ele>841.605</ele>
        <time>2021-10-15T15:08:22Z</time>
      </trkpt>
      <trkpt lat="41.783508" lon="-4.943951">
        <ele>841.615</ele>
        <time>2021-10-15T15:08:24Z</time>
      </trkpt>
      <trkpt lat="41.783280" lon="-4.944011">
        <ele>841.608</ele>
        <time>2021-10-15T15:08:25Z</time>
      </trkpt>
      <trkpt lat="41.783062" lon="-4.944069">
        <ele>841.672</ele>
        <time>2021-10-15T15:08:26Z</time>
      </trkpt>
      <trkpt lat="41.782690" lon="-4.944168">
        <ele>841.620</ele>
        <time>2021-10-15T15:08:28Z</time>
      </trkpt>
      <trkpt lat="41.782520" lon="-4.944206">
        <ele>841.618</ele>
        <time>2021-10-15T15:08:29Z</time>
      </trkpt>
      <trkpt lat="41.782362" lon="-4.944244">
        <ele>841.692</ele>
        <time>2021-10-15T15:08:30Z</time>
      </trkpt>
      <trkpt lat="41.782215" lon="-4.944281">
        <ele>841.647</ele>
        <time>2021-10-15T15:08:31Z</time>
      </trkpt>
      <trkpt lat="41.782074" lon="-4.944320">
        <ele>841.655</ele>
        <time>2021-10-15T15:08:32Z</time>
      </trkpt>
      <trkpt lat="41.781828" lon="-4.944386">
        <ele>841.618</ele>
        <time>2021-10-15T15:08:34Z</time>
      </trkpt>
      <trkpt lat="41.781605" lon="-4.944452">
        <ele>841.613</ele>
        <time>2021-10-15T15:08:36Z</time>
      </trkpt>
      <trkpt lat="41.781488" lon="-4.944492">
        <ele>841.643</ele>
        <time>2021-10-15T15:08:37Z</time>
      </trkpt>
      <trkpt lat="41.781357" lon="-4.944542">
        <ele>841.664</ele>
        <time>2021-10-15T15:08:38Z</time>
      </trkpt>
      <trkpt lat="41.781098" lon="-4.944678">
        <ele>841.610</ele>
        <time>2021-10-15T15:08:40Z</time>
      </trkpt>
      <trkpt lat="41.780971" lon="-4.944741">
        <ele>841.608</ele>
        <time>2021-10-15T15:08:41Z</time>
      </trkpt>
      <trkpt lat="41.780845" lon="-4.944797">
        <ele>841.652</ele>
        <time>2021-10-15T15:08:42Z</time>
      </trkpt>
      <trkpt lat="41.780716" lon="-4.944836">
        <ele>841.670</ele>
        <time>2021-10-15T15:08:43Z</time>
      </trkpt>
      <trkpt lat="41.780588" lon="-4.944861">
        <ele>841.688</ele>
        <time>2021-10-15T15:08:44Z</time>
      </trkpt>
      <trkpt lat="41.780361" lon="-4.944914">
        <ele>841.632</ele>
        <time>2021-10-15T15:08:46Z</time>
      </trkpt>
      <trkpt lat="41.780158" lon="-4.945031">
        <ele>841.617</ele>
        <time>2021-10-15T15:08:48Z</time>
      </trkpt>
      <trkpt lat="41.780056" lon="-4.945124">
        <ele>841.655</ele>
        <time>2021-10-15T15:08:49Z</time>
      </trkpt>
      <trkpt lat="41.779948" lon="-4.945214">
        <ele>841.658</ele>
        <time>2021-10-15T15:08:50Z</time>
      </trkpt>
      <trkpt lat="41.779738" lon="-4.945337">
        <ele>841.653</ele>
        <time>2021-10-15T15:08:52Z</time>
      </trkpt>
      <trkpt lat="41.779633" lon="-4.945411">
        <ele>841.694</ele>
        <time>2021-10-15T15:08:53Z</time>
      </trkpt>
      <trkpt lat="41.779432" lon="-4.945625">
        <ele>841.657</ele>
        <time>2021-10-15T15:08:55Z</time>
      </trkpt>
      <trkpt lat="41.779329" lon="-4.945751">
        <ele>841.622</ele>
        <time>2021-10-15T15:08:56Z</time>
      </trkpt>
      <trkpt lat="41.779150" lon="-4.945971">
        <ele>841.608</ele>
        <time>2021-10-15T15:08:58Z</time>
      </trkpt>
      <trkpt lat="41.778988" lon="-4.946170">
        <ele>841.627</ele>
        <time>2021-10-15T15:09:00Z</time>
      </trkpt>
      <trkpt lat="41.778807" lon="-4.946388">
        <ele>841.635</ele>
        <time>2021-10-15T15:09:02Z</time>
      </trkpt>
      <trkpt lat="41.778551" lon="-4.946697">
        <ele>841.753</ele>
        <time>2021-10-15T15:09:04Z</time>
      </trkpt>
      <trkpt lat="41.778211" lon="-4.947102">
        <ele>841.747</ele>
        <time>2021-10-15T15:09:06Z</time>
      </trkpt>
      <trkpt lat="41.777852" lon="-4.947525">
        <ele>841.742</ele>
        <time>2021-10-15T15:09:08Z</time>
      </trkpt>
      <trkpt lat="41.777535" lon="-4.947860">
        <ele>841.740</ele>
        <time>2021-10-15T15:09:10Z</time>
      </trkpt>
      <trkpt lat="41.777359" lon="-4.947995">
        <ele>841.763</ele>
        <time>2021-10-15T15:09:11Z</time>
      </trkpt>
      <trkpt lat="41.777190" lon="-4.948106">
        <ele>811.688</ele>
        <time>2021-10-15T15:09:12Z</time>
      </trkpt>
      <trkpt lat="41.776863" lon="-4.948317">
        <ele>781.556</ele>
        <time>2021-10-15T15:09:14Z</time>
      </trkpt>
      <trkpt lat="41.776514" lon="-4.948548">
        <ele>781.159</ele>
        <time>2021-10-15T15:09:16Z</time>
      </trkpt>
      <trkpt lat="41.776152" lon="-4.948789">
        <ele>780.614</ele>
        <time>2021-10-15T15:09:18Z</time>
      </trkpt>
      <trkpt lat="41.775753" lon="-4.949055">
        <ele>781.008</ele>
        <time>2021-10-15T15:09:20Z</time>
      </trkpt>
      <trkpt lat="41.775352" lon="-4.949319">
        <ele>782.013</ele>
        <time>2021-10-15T15:09:22Z</time>
      </trkpt>
      <trkpt lat="41.774945" lon="-4.949590">
        <ele>781.281</ele>
        <time>2021-10-15T15:09:24Z</time>
      </trkpt>
      <trkpt lat="41.774510" lon="-4.949878">
        <ele>781.189</ele>
        <time>2021-10-15T15:09:26Z</time>
      </trkpt>
      <trkpt lat="41.774081" lon="-4.950170">
        <ele>780.933</ele>
        <time>2021-10-15T15:09:28Z</time>
      </trkpt>
      <trkpt lat="41.773861" lon="-4.950322">
        <ele>781.578</ele>
        <time>2021-10-15T15:09:29Z</time>
      </trkpt>
      <trkpt lat="41.773640" lon="-4.950476">
        <ele>781.396</ele>
        <time>2021-10-15T15:09:30Z</time>
      </trkpt>
      <trkpt lat="41.773188" lon="-4.950783">
        <ele>780.969</ele>
        <time>2021-10-15T15:09:32Z</time>
      </trkpt>
      <trkpt lat="41.772741" lon="-4.951081">
        <ele>781.144</ele>
        <time>2021-10-15T15:09:34Z</time>
      </trkpt>
      <trkpt lat="41.772291" lon="-4.951384">
        <ele>781.314</ele>
        <time>2021-10-15T15:09:36Z</time>
      </trkpt>
      <trkpt lat="41.771842" lon="-4.951695">
        <ele>781.154</ele>
        <time>2021-10-15T15:09:38Z</time>
      </trkpt>
      <trkpt lat="41.771404" lon="-4.951996">
        <ele>781.409</ele>
        <time>2021-10-15T15:09:40Z</time>
      </trkpt>
      <trkpt lat="41.770961" lon="-4.952293">
        <ele>781.608</ele>
        <time>2021-10-15T15:09:42Z</time>
      </trkpt>
      <trkpt lat="41.770513" lon="-4.952600">
        <ele>781.769</ele>
        <time>2021-10-15T15:09:44Z</time>
      </trkpt>
      <trkpt lat="41.770071" lon="-4.952907">
        <ele>782.677</ele>
        <time>2021-10-15T15:09:46Z</time>
      </trkpt>
      <trkpt lat="41.769846" lon="-4.953062">
        <ele>781.735</ele>
        <time>2021-10-15T15:09:47Z</time>
      </trkpt>
      <trkpt lat="41.769390" lon="-4.953366">
        <ele>782.749</ele>
        <time>2021-10-15T15:09:49Z</time>
      </trkpt>
      <trkpt lat="41.769156" lon="-4.953522">
        <ele>781.424</ele>
        <time>2021-10-15T15:09:50Z</time>
      </trkpt>
      <trkpt lat="41.768706" lon="-4.953833">
        <ele>782.182</ele>
        <time>2021-10-15T15:09:52Z</time>
      </trkpt>
      <trkpt lat="41.768477" lon="-4.953992">
        <ele>782.235</ele>
        <time>2021-10-15T15:09:53Z</time>
      </trkpt>
      <trkpt lat="41.768248" lon="-4.954150">
        <ele>782.130</ele>
        <time>2021-10-15T15:09:54Z</time>
      </trkpt>
      <trkpt lat="41.768022" lon="-4.954305">
        <ele>781.638</ele>
        <time>2021-10-15T15:09:55Z</time>
      </trkpt>
      <trkpt lat="41.767793" lon="-4.954462">
        <ele>780.870</ele>
        <time>2021-10-15T15:09:56Z</time>
      </trkpt>
      <trkpt lat="41.767362" lon="-4.954753">
        <ele>780.917</ele>
        <time>2021-10-15T15:09:58Z</time>
      </trkpt>
      <trkpt lat="41.767142" lon="-4.954899">
        <ele>781.708</ele>
        <time>2021-10-15T15:09:59Z</time>
      </trkpt>
      <trkpt lat="41.766708" lon="-4.955200">
        <ele>781.571</ele>
        <time>2021-10-15T15:10:01Z</time>
      </trkpt>
      <trkpt lat="41.766483" lon="-4.955357">
        <ele>781.639</ele>
        <time>2021-10-15T15:10:02Z</time>
      </trkpt>
      <trkpt lat="41.766052" lon="-4.955656">
        <ele>781.927</ele>
        <time>2021-10-15T15:10:04Z</time>
      </trkpt>
      <trkpt lat="41.765826" lon="-4.955808">
        <ele>781.981</ele>
        <time>2021-10-15T15:10:05Z</time>
      </trkpt>
      <trkpt lat="41.765380" lon="-4.956112">
        <ele>781.946</ele>
        <time>2021-10-15T15:10:07Z</time>
      </trkpt>
      <trkpt lat="41.765150" lon="-4.956266">
        <ele>782.534</ele>
        <time>2021-10-15T15:10:08Z</time>
      </trkpt>
      <trkpt lat="41.764704" lon="-4.956572">
        <ele>782.197</ele>
        <time>2021-10-15T15:10:10Z</time>
      </trkpt>
      <trkpt lat="41.764246" lon="-4.956887">
        <ele>781.862</ele>
        <time>2021-10-15T15:10:12Z</time>
      </trkpt>
      <trkpt lat="41.764013" lon="-4.957047">
        <ele>782.211</ele>
        <time>2021-10-15T15:10:13Z</time>
      </trkpt>
      <trkpt lat="41.763776" lon="-4.957210">
        <ele>781.721</ele>
        <time>2021-10-15T15:10:14Z</time>
      </trkpt>
      <trkpt lat="41.763314" lon="-4.957528">
        <ele>781.603</ele>
        <time>2021-10-15T15:10:16Z</time>
      </trkpt>
      <trkpt lat="41.763078" lon="-4.957690">
        <ele>782.208</ele>
        <time>2021-10-15T15:10:17Z</time>
      </trkpt>
      <trkpt lat="41.762620" lon="-4.958004">
        <ele>781.919</ele>
        <time>2021-10-15T15:10:19Z</time>
      </trkpt>
      <trkpt lat="41.762391" lon="-4.958161">
        <ele>781.247</ele>
        <time>2021-10-15T15:10:20Z</time>
      </trkpt>
      <trkpt lat="41.761969" lon="-4.958450">
        <ele>780.765</ele>
        <time>2021-10-15T15:10:22Z</time>
      </trkpt>
      <trkpt lat="41.761554" lon="-4.958770">
        <ele>779.759</ele>
        <time>2021-10-15T15:10:24Z</time>
      </trkpt>
      <trkpt lat="41.761358" lon="-4.958964">
        <ele>778.474</ele>
        <time>2021-10-15T15:10:25Z</time>
      </trkpt>
      <trkpt lat="41.761157" lon="-4.959161">
        <ele>777.872</ele>
        <time>2021-10-15T15:10:26Z</time>
      </trkpt>
      <trkpt lat="41.760740" lon="-4.959477">
        <ele>776.535</ele>
        <time>2021-10-15T15:10:28Z</time>
      </trkpt>
      <trkpt lat="41.760312" lon="-4.959724">
        <ele>776.260</ele>
        <time>2021-10-15T15:10:30Z</time>
      </trkpt>
      <trkpt lat="41.759917" lon="-4.959930">
        <ele>775.579</ele>
        <time>2021-10-15T15:10:32Z</time>
      </trkpt>
      <trkpt lat="41.759576" lon="-4.960112">
        <ele>774.705</ele>
        <time>2021-10-15T15:10:34Z</time>
      </trkpt>
      <trkpt lat="41.759257" lon="-4.960222">
        <ele>773.125</ele>
        <time>2021-10-15T15:10:36Z</time>
      </trkpt>
      <trkpt lat="41.759091" lon="-4.960227">
        <ele>772.408</ele>
        <time>2021-10-15T15:10:37Z</time>
      </trkpt>
      <trkpt lat="41.758926" lon="-4.960221">
        <ele>772.355</ele>
        <time>2021-10-15T15:10:38Z</time>
      </trkpt>
      <trkpt lat="41.758612" lon="-4.960294">
        <ele>771.153</ele>
        <time>2021-10-15T15:10:40Z</time>
      </trkpt>
      <trkpt lat="41.758331" lon="-4.960491">
        <ele>770.841</ele>
        <time>2021-10-15T15:10:42Z</time>
      </trkpt>
      <trkpt lat="41.758224" lon="-4.960631">
        <ele>770.855</ele>
        <time>2021-10-15T15:10:43Z</time>
      </trkpt>
      <trkpt lat="41.758137" lon="-4.960811">
        <ele>770.750</ele>
        <time>2021-10-15T15:10:44Z</time>
      </trkpt>
      <trkpt lat="41.757977" lon="-4.961242">
        <ele>767.928</ele>
        <time>2021-10-15T15:10:46Z</time>
      </trkpt>
      <trkpt lat="41.757766" lon="-4.961754">
        <ele>766.881</ele>
        <time>2021-10-15T15:10:48Z</time>
      </trkpt>
      <trkpt lat="41.757658" lon="-4.962013">
        <ele>765.446</ele>
        <time>2021-10-15T15:10:49Z</time>
      </trkpt>
      <trkpt lat="41.757546" lon="-4.962265">
        <ele>765.669</ele>
        <time>2021-10-15T15:10:50Z</time>
      </trkpt>
      <trkpt lat="41.757338" lon="-4.962755">
        <ele>764.704</ele>
        <time>2021-10-15T15:10:52Z</time>
      </trkpt>
      <trkpt lat="41.757181" lon="-4.963237">
        <ele>763.224</ele>
        <time>2021-10-15T15:10:54Z</time>
      </trkpt>
      <trkpt lat="41.757136" lon="-4.963471">
        <ele>762.208</ele>
        <time>2021-10-15T15:10:55Z</time>
      </trkpt>
      <trkpt lat="41.757099" lon="-4.963703">
        <ele>762.284</ele>
        <time>2021-10-15T15:10:56Z</time>
      </trkpt>
      <trkpt lat="41.757030" lon="-4.964111">
        <ele>759.882</ele>
        <time>2021-10-15T15:10:58Z</time>
      </trkpt>
      <trkpt lat="41.756940" lon="-4.964438">
        <ele>758.790</ele>
        <time>2021-10-15T15:11:00Z</time>
      </trkpt>
      <trkpt lat="41.756865" lon="-4.964570">
        <ele>758.784</ele>
        <time>2021-10-15T15:11:01Z</time>
      </trkpt>
      <trkpt lat="41.756753" lon="-4.964669">
        <ele>758.319</ele>
        <time>2021-10-15T15:11:02Z</time>
      </trkpt>
      <trkpt lat="41.756387" lon="-4.964757">
        <ele>754.617</ele>
        <time>2021-10-15T15:11:04Z</time>
      </trkpt>
      <trkpt lat="41.756165" lon="-4.964787">
        <ele>753.120</ele>
        <time>2021-10-15T15:11:05Z</time>
      </trkpt>
      <trkpt lat="41.755744" lon="-4.964856">
        <ele>751.445</ele>
        <time>2021-10-15T15:11:07Z</time>
      </trkpt>
      <trkpt lat="41.755535" lon="-4.964872">
        <ele>749.884</ele>
        <time>2021-10-15T15:11:08Z</time>
      </trkpt>
      <trkpt lat="41.755132" lon="-4.964858">
        <ele>748.307</ele>
        <time>2021-10-15T15:11:10Z</time>
      </trkpt>
      <trkpt lat="41.754927" lon="-4.964845">
        <ele>748.417</ele>
        <time>2021-10-15T15:11:11Z</time>
      </trkpt>
      <trkpt lat="41.754722" lon="-4.964830">
        <ele>746.708</ele>
        <time>2021-10-15T15:11:12Z</time>
      </trkpt>
      <trkpt lat="41.754326" lon="-4.964801">
        <ele>745.586</ele>
        <time>2021-10-15T15:11:14Z</time>
      </trkpt>
      <trkpt lat="41.753978" lon="-4.964783">
        <ele>745.684</ele>
        <time>2021-10-15T15:11:16Z</time>
      </trkpt>
      <trkpt lat="41.753803" lon="-4.964810">
        <ele>745.872</ele>
        <time>2021-10-15T15:11:17Z</time>
      </trkpt>
      <trkpt lat="41.753633" lon="-4.964867">
        <ele>745.846</ele>
        <time>2021-10-15T15:11:18Z</time>
      </trkpt>
      <trkpt lat="41.753291" lon="-4.965101">
        <ele>745.581</ele>
        <time>2021-10-15T15:11:20Z</time>
      </trkpt>
      <trkpt lat="41.752961" lon="-4.965422">
        <ele>744.949</ele>
        <time>2021-10-15T15:11:22Z</time>
      </trkpt>
      <trkpt lat="41.752796" lon="-4.965581">
        <ele>744.842</ele>
        <time>2021-10-15T15:11:23Z</time>
      </trkpt>
      <trkpt lat="41.752631" lon="-4.965738">
        <ele>744.817</ele>
        <time>2021-10-15T15:11:24Z</time>
      </trkpt>
      <trkpt lat="41.752294" lon="-4.966069">
        <ele>742.536</ele>
        <time>2021-10-15T15:11:26Z</time>
      </trkpt>
      <trkpt lat="41.752008" lon="-4.966469">
        <ele>741.117</ele>
        <time>2021-10-15T15:11:28Z</time>
      </trkpt>
      <trkpt lat="41.751792" lon="-4.967016">
        <ele>740.218</ele>
        <time>2021-10-15T15:11:30Z</time>
      </trkpt>
      <trkpt lat="41.751660" lon="-4.967567">
        <ele>739.708</ele>
        <time>2021-10-15T15:11:32Z</time>
      </trkpt>
      <trkpt lat="41.751567" lon="-4.968074">
        <ele>739.121</ele>
        <time>2021-10-15T15:11:34Z</time>
      </trkpt>
      <trkpt lat="41.751516" lon="-4.968619">
        <ele>737.839</ele>
        <time>2021-10-15T15:11:36Z</time>
      </trkpt>
      <trkpt lat="41.751455" lon="-4.969189">
        <ele>737.217</ele>
        <time>2021-10-15T15:11:38Z</time>
      </trkpt>
      <trkpt lat="41.751424" lon="-4.969758">
        <ele>737.641</ele>
        <time>2021-10-15T15:11:40Z</time>
      </trkpt>
      <trkpt lat="41.751427" lon="-4.970049">
        <ele>737.446</ele>
        <time>2021-10-15T15:11:41Z</time>
      </trkpt>
      <trkpt lat="41.751487" lon="-4.970607">
        <ele>735.554</ele>
        <time>2021-10-15T15:11:43Z</time>
      </trkpt>
      <trkpt lat="41.751540" lon="-4.970901">
        <ele>736.137</ele>
        <time>2021-10-15T15:11:44Z</time>
      </trkpt>
      <trkpt lat="41.751658" lon="-4.971489">
        <ele>735.682</ele>
        <time>2021-10-15T15:11:46Z</time>
      </trkpt>
      <trkpt lat="41.751770" lon="-4.972111">
        <ele>735.627</ele>
        <time>2021-10-15T15:11:48Z</time>
      </trkpt>
      <trkpt lat="41.751836" lon="-4.972752">
        <ele>733.168</ele>
        <time>2021-10-15T15:11:50Z</time>
      </trkpt>
      <trkpt lat="41.751804" lon="-4.973388">
        <ele>732.614</ele>
        <time>2021-10-15T15:11:52Z</time>
      </trkpt>
      <trkpt lat="41.751776" lon="-4.973702">
        <ele>732.708</ele>
        <time>2021-10-15T15:11:53Z</time>
      </trkpt>
      <trkpt lat="41.751730" lon="-4.974292">
        <ele>733.340</ele>
        <time>2021-10-15T15:11:55Z</time>
      </trkpt>
      <trkpt lat="41.751707" lon="-4.974598">
        <ele>733.058</ele>
        <time>2021-10-15T15:11:56Z</time>
      </trkpt>
      <trkpt lat="41.751664" lon="-4.975202">
        <ele>734.316</ele>
        <time>2021-10-15T15:11:58Z</time>
      </trkpt>
      <trkpt lat="41.751642" lon="-4.975512">
        <ele>734.710</ele>
        <time>2021-10-15T15:11:59Z</time>
      </trkpt>
      <trkpt lat="41.751620" lon="-4.975809">
        <ele>735.255</ele>
        <time>2021-10-15T15:12:00Z</time>
      </trkpt>
      <trkpt lat="41.751543" lon="-4.976360">
        <ele>736.213</ele>
        <time>2021-10-15T15:12:02Z</time>
      </trkpt>
      <trkpt lat="41.751351" lon="-4.976839">
        <ele>736.696</ele>
        <time>2021-10-15T15:12:04Z</time>
      </trkpt>
      <trkpt lat="41.751222" lon="-4.977069">
        <ele>736.871</ele>
        <time>2021-10-15T15:12:05Z</time>
      </trkpt>
      <trkpt lat="41.751091" lon="-4.977297">
        <ele>737.235</ele>
        <time>2021-10-15T15:12:06Z</time>
      </trkpt>
      <trkpt lat="41.750960" lon="-4.977526">
        <ele>737.686</ele>
        <time>2021-10-15T15:12:07Z</time>
      </trkpt>
      <trkpt lat="41.750826" lon="-4.977754">
        <ele>738.614</ele>
        <time>2021-10-15T15:12:08Z</time>
      </trkpt>
      <trkpt lat="41.750590" lon="-4.978162">
        <ele>739.008</ele>
        <time>2021-10-15T15:12:10Z</time>
      </trkpt>
      <trkpt lat="41.750468" lon="-4.978371">
        <ele>738.361</ele>
        <time>2021-10-15T15:12:11Z</time>
      </trkpt>
      <trkpt lat="41.750349" lon="-4.978574">
        <ele>738.379</ele>
        <time>2021-10-15T15:12:12Z</time>
      </trkpt>
      <trkpt lat="41.750100" lon="-4.978937">
        <ele>737.727</ele>
        <time>2021-10-15T15:12:14Z</time>
      </trkpt>
      <trkpt lat="41.749795" lon="-4.979152">
        <ele>736.851</ele>
        <time>2021-10-15T15:12:16Z</time>
      </trkpt>
      <trkpt lat="41.749609" lon="-4.979205">
        <ele>737.656</ele>
        <time>2021-10-15T15:12:17Z</time>
      </trkpt>
      <trkpt lat="41.749183" lon="-4.979293">
        <ele>737.044</ele>
        <time>2021-10-15T15:12:19Z</time>
      </trkpt>
      <trkpt lat="41.748955" lon="-4.979348">
        <ele>737.667</ele>
        <time>2021-10-15T15:12:20Z</time>
      </trkpt>
      <trkpt lat="41.748536" lon="-4.979470">
        <ele>738.042</ele>
        <time>2021-10-15T15:12:22Z</time>
      </trkpt>
      <trkpt lat="41.748170" lon="-4.979639">
        <ele>739.171</ele>
        <time>2021-10-15T15:12:24Z</time>
      </trkpt>
      <trkpt lat="41.747996" lon="-4.979772">
        <ele>740.041</ele>
        <time>2021-10-15T15:12:25Z</time>
      </trkpt>
      <trkpt lat="41.747829" lon="-4.979922">
        <ele>740.415</ele>
        <time>2021-10-15T15:12:26Z</time>
      </trkpt>
      <trkpt lat="41.747496" lon="-4.980205">
        <ele>738.608</ele>
        <time>2021-10-15T15:12:28Z</time>
      </trkpt>
      <trkpt lat="41.747103" lon="-4.980529">
        <ele>736.765</ele>
        <time>2021-10-15T15:12:30Z</time>
      </trkpt>
      <trkpt lat="41.746627" lon="-4.980906">
        <ele>734.893</ele>
        <time>2021-10-15T15:12:32Z</time>
      </trkpt>
      <trkpt lat="41.746127" lon="-4.981297">
        <ele>733.021</ele>
        <time>2021-10-15T15:12:34Z</time>
      </trkpt>
      <trkpt lat="41.745674" lon="-4.981649">
        <ele>732.955</ele>
        <time>2021-10-15T15:12:36Z</time>
      </trkpt>
      <trkpt lat="41.745282" lon="-4.981968">
        <ele>731.110</ele>
        <time>2021-10-15T15:12:38Z</time>
      </trkpt>
      <trkpt lat="41.744905" lon="-4.982228">
        <ele>731.788</ele>
        <time>2021-10-15T15:12:40Z</time>
      </trkpt>
      <trkpt lat="41.744704" lon="-4.982327">
        <ele>729.981</ele>
        <time>2021-10-15T15:12:41Z</time>
      </trkpt>
      <trkpt lat="41.744501" lon="-4.982409">
        <ele>729.276</ele>
        <time>2021-10-15T15:12:42Z</time>
      </trkpt>
      <trkpt lat="41.744042" lon="-4.982490">
        <ele>728.253</ele>
        <time>2021-10-15T15:12:44Z</time>
      </trkpt>
      <trkpt lat="41.743538" lon="-4.982487">
        <ele>726.204</ele>
        <time>2021-10-15T15:12:46Z</time>
      </trkpt>
      <trkpt lat="41.743293" lon="-4.982468">
        <ele>724.814</ele>
        <time>2021-10-15T15:12:47Z</time>
      </trkpt>
      <trkpt lat="41.742858" lon="-4.982438">
        <ele>723.808</ele>
        <time>2021-10-15T15:12:49Z</time>
      </trkpt>
      <trkpt lat="41.742652" lon="-4.982417">
        <ele>724.563</ele>
        <time>2021-10-15T15:12:50Z</time>
      </trkpt>
      <trkpt lat="41.742294" lon="-4.982314">
        <ele>722.651</ele>
        <time>2021-10-15T15:12:52Z</time>
      </trkpt>
      <trkpt lat="41.741958" lon="-4.982080">
        <ele>722.299</ele>
        <time>2021-10-15T15:12:54Z</time>
      </trkpt>
      <trkpt lat="41.741797" lon="-4.981917">
        <ele>723.023</ele>
        <time>2021-10-15T15:12:55Z</time>
      </trkpt>
      <trkpt lat="41.741635" lon="-4.981746">
        <ele>723.188</ele>
        <time>2021-10-15T15:12:56Z</time>
      </trkpt>
      <trkpt lat="41.741344" lon="-4.981499">
        <ele>722.836</ele>
        <time>2021-10-15T15:12:58Z</time>
      </trkpt>
      <trkpt lat="41.741052" lon="-4.981389">
        <ele>723.689</ele>
        <time>2021-10-15T15:13:00Z</time>
      </trkpt>
      <trkpt lat="41.740898" lon="-4.981398">
        <ele>723.364</ele>
        <time>2021-10-15T15:13:01Z</time>
      </trkpt>
      <trkpt lat="41.740726" lon="-4.981471">
        <ele>724.277</ele>
        <time>2021-10-15T15:13:02Z</time>
      </trkpt>
      <trkpt lat="41.740338" lon="-4.981788">
        <ele>722.661</ele>
        <time>2021-10-15T15:13:04Z</time>
      </trkpt>
      <trkpt lat="41.740125" lon="-4.981974">
        <ele>723.227</ele>
        <time>2021-10-15T15:13:05Z</time>
      </trkpt>
      <trkpt lat="41.739676" lon="-4.982346">
        <ele>724.408</ele>
        <time>2021-10-15T15:13:07Z</time>
      </trkpt>
      <trkpt lat="41.739435" lon="-4.982524">
        <ele>723.845</ele>
        <time>2021-10-15T15:13:08Z</time>
      </trkpt>
      <trkpt lat="41.738914" lon="-4.982804">
        <ele>724.513</ele>
        <time>2021-10-15T15:13:10Z</time>
      </trkpt>
      <trkpt lat="41.738355" lon="-4.983060">
        <ele>726.891</ele>
        <time>2021-10-15T15:13:12Z</time>
      </trkpt>
      <trkpt lat="41.738094" lon="-4.983183">
        <ele>726.985</ele>
        <time>2021-10-15T15:13:13Z</time>
      </trkpt>
      <trkpt lat="41.737847" lon="-4.983299">
        <ele>726.890</ele>
        <time>2021-10-15T15:13:14Z</time>
      </trkpt>
      <trkpt lat="41.737417" lon="-4.983525">
        <ele>728.968</ele>
        <time>2021-10-15T15:13:16Z</time>
      </trkpt>
      <trkpt lat="41.736991" lon="-4.983809">
        <ele>729.421</ele>
        <time>2021-10-15T15:13:18Z</time>
      </trkpt>
      <trkpt lat="41.736549" lon="-4.984122">
        <ele>729.386</ele>
        <time>2021-10-15T15:13:20Z</time>
      </trkpt>
      <trkpt lat="41.736092" lon="-4.984455">
        <ele>727.983</ele>
        <time>2021-10-15T15:13:22Z</time>
      </trkpt>
      <trkpt lat="41.735615" lon="-4.984804">
        <ele>727.725</ele>
        <time>2021-10-15T15:13:24Z</time>
      </trkpt>
      <trkpt lat="41.735141" lon="-4.985135">
        <ele>728.017</ele>
        <time>2021-10-15T15:13:26Z</time>
      </trkpt>
      <trkpt lat="41.734718" lon="-4.985431">
        <ele>728.408</ele>
        <time>2021-10-15T15:13:28Z</time>
      </trkpt>
      <trkpt lat="41.734332" lon="-4.985703">
        <ele>729.016</ele>
        <time>2021-10-15T15:13:30Z</time>
      </trkpt>
      <trkpt lat="41.733962" lon="-4.985970">
        <ele>729.974</ele>
        <time>2021-10-15T15:13:32Z</time>
      </trkpt>
      <trkpt lat="41.733576" lon="-4.986261">
        <ele>729.192</ele>
        <time>2021-10-15T15:13:34Z</time>
      </trkpt>
      <trkpt lat="41.733374" lon="-4.986403">
        <ele>728.386</ele>
        <time>2021-10-15T15:13:35Z</time>
      </trkpt>
      <trkpt lat="41.732972" lon="-4.986642">
        <ele>727.321</ele>
        <time>2021-10-15T15:13:37Z</time>
      </trkpt>
      <trkpt lat="41.732760" lon="-4.986740">
        <ele>725.759</ele>
        <time>2021-10-15T15:13:38Z</time>
      </trkpt>
      <trkpt lat="41.732323" lon="-4.986853">
        <ele>723.312</ele>
        <time>2021-10-15T15:13:40Z</time>
      </trkpt>
      <trkpt lat="41.732084" lon="-4.986882">
        <ele>721.887</ele>
        <time>2021-10-15T15:13:41Z</time>
      </trkpt>
      <trkpt lat="41.731834" lon="-4.986909">
        <ele>720.728</ele>
        <time>2021-10-15T15:13:42Z</time>
      </trkpt>
      <trkpt lat="41.731308" lon="-4.986973">
        <ele>719.489</ele>
        <time>2021-10-15T15:13:44Z</time>
      </trkpt>
      <trkpt lat="41.730770" lon="-4.987053">
        <ele>719.017</ele>
        <time>2021-10-15T15:13:46Z</time>
      </trkpt>
      <trkpt lat="41.730206" lon="-4.987138">
        <ele>718.608</ele>
        <time>2021-10-15T15:13:48Z</time>
      </trkpt>
      <trkpt lat="41.729630" lon="-4.987218">
        <ele>717.990</ele>
        <time>2021-10-15T15:13:50Z</time>
      </trkpt>
      <trkpt lat="41.729066" lon="-4.987301">
        <ele>716.438</ele>
        <time>2021-10-15T15:13:52Z</time>
      </trkpt>
      <trkpt lat="41.728500" lon="-4.987379">
        <ele>716.976</ele>
        <time>2021-10-15T15:13:54Z</time>
      </trkpt>
      <trkpt lat="41.728217" lon="-4.987416">
        <ele>717.840</ele>
        <time>2021-10-15T15:13:55Z</time>
      </trkpt>
      <trkpt lat="41.727929" lon="-4.987454">
        <ele>718.615</ele>
        <time>2021-10-15T15:13:56Z</time>
      </trkpt>
      <trkpt lat="41.727401" lon="-4.987535">
        <ele>720.413</ele>
        <time>2021-10-15T15:13:58Z</time>
      </trkpt>
      <trkpt lat="41.727135" lon="-4.987575">
        <ele>721.016</ele>
        <time>2021-10-15T15:13:59Z</time>
      </trkpt>
      <trkpt lat="41.726641" lon="-4.987646">
        <ele>722.941</ele>
        <time>2021-10-15T15:14:01Z</time>
      </trkpt>
      <trkpt lat="41.726398" lon="-4.987683">
        <ele>724.591</ele>
        <time>2021-10-15T15:14:02Z</time>
      </trkpt>
      <trkpt lat="41.725922" lon="-4.987757">
        <ele>726.181</ele>
        <time>2021-10-15T15:14:04Z</time>
      </trkpt>
      <trkpt lat="41.725411" lon="-4.987832">
        <ele>727.119</ele>
        <time>2021-10-15T15:14:06Z</time>
      </trkpt>
      <trkpt lat="41.724871" lon="-4.987906">
        <ele>727.308</ele>
        <time>2021-10-15T15:14:08Z</time>
      </trkpt>
      <trkpt lat="41.724323" lon="-4.987981">
        <ele>728.037</ele>
        <time>2021-10-15T15:14:10Z</time>
      </trkpt>
      <trkpt lat="41.724048" lon="-4.988020">
        <ele>728.445</ele>
        <time>2021-10-15T15:14:11Z</time>
      </trkpt>
      <trkpt lat="41.723523" lon="-4.988096">
        <ele>729.053</ele>
        <time>2021-10-15T15:14:13Z</time>
      </trkpt>
      <trkpt lat="41.723263" lon="-4.988135">
        <ele>729.047</ele>
        <time>2021-10-15T15:14:14Z</time>
      </trkpt>
      <trkpt lat="41.722798" lon="-4.988206">
        <ele>728.612</ele>
        <time>2021-10-15T15:14:16Z</time>
      </trkpt>
      <trkpt lat="41.722574" lon="-4.988240">
        <ele>728.540</ele>
        <time>2021-10-15T15:14:17Z</time>
      </trkpt>
      <trkpt lat="41.722357" lon="-4.988272">
        <ele>728.453</ele>
        <time>2021-10-15T15:14:18Z</time>
      </trkpt>
      <trkpt lat="41.721919" lon="-4.988335">
        <ele>727.368</ele>
        <time>2021-10-15T15:14:20Z</time>
      </trkpt>
      <trkpt lat="41.721480" lon="-4.988396">
        <ele>726.157</ele>
        <time>2021-10-15T15:14:22Z</time>
      </trkpt>
      <trkpt lat="41.721037" lon="-4.988467">
        <ele>725.200</ele>
        <time>2021-10-15T15:14:24Z</time>
      </trkpt>
      <trkpt lat="41.720813" lon="-4.988502">
        <ele>725.320</ele>
        <time>2021-10-15T15:14:25Z</time>
      </trkpt>
      <trkpt lat="41.720583" lon="-4.988538">
        <ele>724.708</ele>
        <time>2021-10-15T15:14:26Z</time>
      </trkpt>
      <trkpt lat="41.720136" lon="-4.988597">
        <ele>724.163</ele>
        <time>2021-10-15T15:14:28Z</time>
      </trkpt>
      <trkpt lat="41.719909" lon="-4.988631">
        <ele>723.641</ele>
        <time>2021-10-15T15:14:29Z</time>
      </trkpt>
      <trkpt lat="41.719689" lon="-4.988664">
        <ele>723.129</ele>
        <time>2021-10-15T15:14:30Z</time>
      </trkpt>
      <trkpt lat="41.719251" lon="-4.988728">
        <ele>721.873</ele>
        <time>2021-10-15T15:14:32Z</time>
      </trkpt>
      <trkpt lat="41.718816" lon="-4.988791">
        <ele>721.268</ele>
        <time>2021-10-15T15:14:34Z</time>
      </trkpt>
      <trkpt lat="41.718368" lon="-4.988857">
        <ele>720.856</ele>
        <time>2021-10-15T15:14:36Z</time>
      </trkpt>
      <trkpt lat="41.718148" lon="-4.988891">
        <ele>720.449</ele>
        <time>2021-10-15T15:14:37Z</time>
      </trkpt>
      <trkpt lat="41.717921" lon="-4.988925">
        <ele>720.724</ele>
        <time>2021-10-15T15:14:38Z</time>
      </trkpt>
      <trkpt lat="41.717453" lon="-4.988992">
        <ele>720.522</ele>
        <time>2021-10-15T15:14:40Z</time>
      </trkpt>
      <trkpt lat="41.717198" lon="-4.989024">
        <ele>720.562</ele>
        <time>2021-10-15T15:14:41Z</time>
      </trkpt>
      <trkpt lat="41.716688" lon="-4.989090">
        <ele>721.208</ele>
        <time>2021-10-15T15:14:43Z</time>
      </trkpt>
      <trkpt lat="41.716442" lon="-4.989122">
        <ele>720.908</ele>
        <time>2021-10-15T15:14:44Z</time>
      </trkpt>
      <trkpt lat="41.715959" lon="-4.989169">
        <ele>719.280</ele>
        <time>2021-10-15T15:14:46Z</time>
      </trkpt>
      <trkpt lat="41.715442" lon="-4.989261">
        <ele>719.568</ele>
        <time>2021-10-15T15:14:48Z</time>
      </trkpt>
      <trkpt lat="41.715176" lon="-4.989357">
        <ele>719.486</ele>
        <time>2021-10-15T15:14:49Z</time>
      </trkpt>
      <trkpt lat="41.714898" lon="-4.989482">
        <ele>718.520</ele>
        <time>2021-10-15T15:14:50Z</time>
      </trkpt>
      <trkpt lat="41.714373" lon="-4.989726">
        <ele>717.955</ele>
        <time>2021-10-15T15:14:52Z</time>
      </trkpt>
      <trkpt lat="41.713907" lon="-4.989947">
        <ele>718.223</ele>
        <time>2021-10-15T15:14:54Z</time>
      </trkpt>
      <trkpt lat="41.713679" lon="-4.990056">
        <ele>718.016</ele>
        <time>2021-10-15T15:14:55Z</time>
      </trkpt>
      <trkpt lat="41.713440" lon="-4.990169">
        <ele>717.951</ele>
        <time>2021-10-15T15:14:56Z</time>
      </trkpt>
      <trkpt lat="41.712985" lon="-4.990382">
        <ele>715.981</ele>
        <time>2021-10-15T15:14:58Z</time>
      </trkpt>
      <trkpt lat="41.712514" lon="-4.990593">
        <ele>715.261</ele>
        <time>2021-10-15T15:15:00Z</time>
      </trkpt>
      <trkpt lat="41.712035" lon="-4.990816">
        <ele>713.617</ele>
        <time>2021-10-15T15:15:02Z</time>
      </trkpt>
      <trkpt lat="41.711568" lon="-4.991028">
        <ele>713.508</ele>
        <time>2021-10-15T15:15:04Z</time>
      </trkpt>
      <trkpt lat="41.711325" lon="-4.991136">
        <ele>712.516</ele>
        <time>2021-10-15T15:15:05Z</time>
      </trkpt>
      <trkpt lat="41.710840" lon="-4.991355">
        <ele>711.344</ele>
        <time>2021-10-15T15:15:07Z</time>
      </trkpt>
      <trkpt lat="41.710592" lon="-4.991468">
        <ele>711.642</ele>
        <time>2021-10-15T15:15:08Z</time>
      </trkpt>
      <trkpt lat="41.710115" lon="-4.991694">
        <ele>710.796</ele>
        <time>2021-10-15T15:15:10Z</time>
      </trkpt>
      <trkpt lat="41.709874" lon="-4.991806">
        <ele>710.211</ele>
        <time>2021-10-15T15:15:11Z</time>
      </trkpt>
      <trkpt lat="41.709406" lon="-4.992025">
        <ele>710.889</ele>
        <time>2021-10-15T15:15:13Z</time>
      </trkpt>
      <trkpt lat="41.709166" lon="-4.992131">
        <ele>710.152</ele>
        <time>2021-10-15T15:15:14Z</time>
      </trkpt>
      <trkpt lat="41.708705" lon="-4.992337">
        <ele>710.397</ele>
        <time>2021-10-15T15:15:16Z</time>
      </trkpt>
      <trkpt lat="41.708240" lon="-4.992556">
        <ele>710.956</ele>
        <time>2021-10-15T15:15:18Z</time>
      </trkpt>
      <trkpt lat="41.707769" lon="-4.992774">
        <ele>710.459</ele>
        <time>2021-10-15T15:15:20Z</time>
      </trkpt>
      <trkpt lat="41.707296" lon="-4.992988">
        <ele>710.314</ele>
        <time>2021-10-15T15:15:22Z</time>
      </trkpt>
      <trkpt lat="41.706815" lon="-4.993204">
        <ele>711.308</ele>
        <time>2021-10-15T15:15:24Z</time>
      </trkpt>
      <trkpt lat="41.706593" lon="-4.993310">
        <ele>711.063</ele>
        <time>2021-10-15T15:15:25Z</time>
      </trkpt>
      <trkpt lat="41.706375" lon="-4.993412">
        <ele>711.231</ele>
        <time>2021-10-15T15:15:26Z</time>
      </trkpt>
      <trkpt lat="41.705991" lon="-4.993590">
        <ele>711.259</ele>
        <time>2021-10-15T15:15:28Z</time>
      </trkpt>
      <trkpt lat="41.705805" lon="-4.993672">
        <ele>710.423</ele>
        <time>2021-10-15T15:15:29Z</time>
      </trkpt>
      <trkpt lat="41.705623" lon="-4.993757">
        <ele>712.168</ele>
        <time>2021-10-15T15:15:30Z</time>
      </trkpt>
      <trkpt lat="41.705440" lon="-4.993843">
        <ele>712.466</ele>
        <time>2021-10-15T15:15:31Z</time>
      </trkpt>
      <trkpt lat="41.705249" lon="-4.993935">
        <ele>711.149</ele>
        <time>2021-10-15T15:15:32Z</time>
      </trkpt>
      <trkpt lat="41.704876" lon="-4.994112">
        <ele>711.544</ele>
        <time>2021-10-15T15:15:34Z</time>
      </trkpt>
      <trkpt lat="41.704684" lon="-4.994198">
        <ele>710.975</ele>
        <time>2021-10-15T15:15:35Z</time>
      </trkpt>
      <trkpt lat="41.704327" lon="-4.994361">
        <ele>710.028</ele>
        <time>2021-10-15T15:15:37Z</time>
      </trkpt>
      <trkpt lat="41.704146" lon="-4.994443">
        <ele>708.320</ele>
        <time>2021-10-15T15:15:38Z</time>
      </trkpt>
      <trkpt lat="41.703789" lon="-4.994623">
        <ele>708.808</ele>
        <time>2021-10-15T15:15:40Z</time>
      </trkpt>
      <trkpt lat="41.703608" lon="-4.994732">
        <ele>708.875</ele>
        <time>2021-10-15T15:15:41Z</time>
      </trkpt>
      <trkpt lat="41.703248" lon="-4.994989">
        <ele>707.443</ele>
        <time>2021-10-15T15:15:43Z</time>
      </trkpt>
      <trkpt lat="41.703061" lon="-4.995141">
        <ele>706.641</ele>
        <time>2021-10-15T15:15:44Z</time>
      </trkpt>
      <trkpt lat="41.702687" lon="-4.995449">
        <ele>705.255</ele>
        <time>2021-10-15T15:15:46Z</time>
      </trkpt>
      <trkpt lat="41.702277" lon="-4.995778">
        <ele>705.640</ele>
        <time>2021-10-15T15:15:48Z</time>
      </trkpt>
      <trkpt lat="41.702063" lon="-4.995953">
        <ele>705.268</ele>
        <time>2021-10-15T15:15:49Z</time>
      </trkpt>
      <trkpt lat="41.701844" lon="-4.996134">
        <ele>705.371</ele>
        <time>2021-10-15T15:15:50Z</time>
      </trkpt>
      <trkpt lat="41.701424" lon="-4.996489">
        <ele>703.786</ele>
        <time>2021-10-15T15:15:52Z</time>
      </trkpt>
      <trkpt lat="41.701217" lon="-4.996659">
        <ele>703.184</ele>
        <time>2021-10-15T15:15:53Z</time>
      </trkpt>
      <trkpt lat="41.701019" lon="-4.996821">
        <ele>702.607</ele>
        <time>2021-10-15T15:15:54Z</time>
      </trkpt>
      <trkpt lat="41.700650" lon="-4.997121">
        <ele>702.717</ele>
        <time>2021-10-15T15:15:56Z</time>
      </trkpt>
      <trkpt lat="41.700308" lon="-4.997409">
        <ele>701.208</ele>
        <time>2021-10-15T15:15:58Z</time>
      </trkpt>
      <trkpt lat="41.699949" lon="-4.997703">
        <ele>701.536</ele>
        <time>2021-10-15T15:16:00Z</time>
      </trkpt>
      <trkpt lat="41.699601" lon="-4.997993">
        <ele>702.414</ele>
        <time>2021-10-15T15:16:02Z</time>
      </trkpt>
      <trkpt lat="41.699245" lon="-4.998273">
        <ele>701.642</ele>
        <time>2021-10-15T15:16:04Z</time>
      </trkpt>
      <trkpt lat="41.699069" lon="-4.998416">
        <ele>701.136</ele>
        <time>2021-10-15T15:16:05Z</time>
      </trkpt>
      <trkpt lat="41.698746" lon="-4.998690">
        <ele>699.681</ele>
        <time>2021-10-15T15:16:07Z</time>
      </trkpt>
      <trkpt lat="41.698592" lon="-4.998820">
        <ele>699.529</ele>
        <time>2021-10-15T15:16:08Z</time>
      </trkpt>
      <trkpt lat="41.698284" lon="-4.999065">
        <ele>698.572</ele>
        <time>2021-10-15T15:16:10Z</time>
      </trkpt>
      <trkpt lat="41.697930" lon="-4.999300">
        <ele>697.137</ele>
        <time>2021-10-15T15:16:12Z</time>
      </trkpt>
      <trkpt lat="41.697510" lon="-4.999521">
        <ele>695.745</ele>
        <time>2021-10-15T15:16:14Z</time>
      </trkpt>
      <trkpt lat="41.697010" lon="-4.999793">
        <ele>695.247</ele>
        <time>2021-10-15T15:16:16Z</time>
      </trkpt>
      <trkpt lat="41.696433" lon="-5.000141">
        <ele>695.411</ele>
        <time>2021-10-15T15:16:18Z</time>
      </trkpt>
      <trkpt lat="41.695848" lon="-5.000494">
        <ele>694.508</ele>
        <time>2021-10-15T15:16:20Z</time>
      </trkpt>
      <trkpt lat="41.695303" lon="-5.000808">
        <ele>694.852</ele>
        <time>2021-10-15T15:16:22Z</time>
      </trkpt>
      <trkpt lat="41.695046" lon="-5.000954">
        <ele>693.780</ele>
        <time>2021-10-15T15:16:23Z</time>
      </trkpt>
      <trkpt lat="41.694802" lon="-5.001087">
        <ele>693.048</ele>
        <time>2021-10-15T15:16:24Z</time>
      </trkpt>
      <trkpt lat="41.694340" lon="-5.001334">
        <ele>693.812</ele>
        <time>2021-10-15T15:16:26Z</time>
      </trkpt>
      <trkpt lat="41.693904" lon="-5.001609">
        <ele>693.457</ele>
        <time>2021-10-15T15:16:28Z</time>
      </trkpt>
      <trkpt lat="41.693457" lon="-5.002012">
        <ele>694.785</ele>
        <time>2021-10-15T15:16:30Z</time>
      </trkpt>
      <trkpt lat="41.693019" lon="-5.002476">
        <ele>695.328</ele>
        <time>2021-10-15T15:16:32Z</time>
      </trkpt>
      <trkpt lat="41.692632" lon="-5.002894">
        <ele>694.133</ele>
        <time>2021-10-15T15:16:34Z</time>
      </trkpt>
      <trkpt lat="41.692238" lon="-5.003316">
        <ele>694.348</ele>
        <time>2021-10-15T15:16:36Z</time>
      </trkpt>
      <trkpt lat="41.692020" lon="-5.003546">
        <ele>693.861</ele>
        <time>2021-10-15T15:16:37Z</time>
      </trkpt>
      <trkpt lat="41.691789" lon="-5.003787">
        <ele>693.617</ele>
        <time>2021-10-15T15:16:38Z</time>
      </trkpt>
      <trkpt lat="41.691300" lon="-5.004284">
        <ele>694.008</ele>
        <time>2021-10-15T15:16:40Z</time>
      </trkpt>
      <trkpt lat="41.690790" lon="-5.004815">
        <ele>693.662</ele>
        <time>2021-10-15T15:16:42Z</time>
      </trkpt>
      <trkpt lat="41.690311" lon="-5.005319">
        <ele>693.650</ele>
        <time>2021-10-15T15:16:44Z</time>
      </trkpt>
      <trkpt lat="41.689878" lon="-5.005763">
        <ele>693.738</ele>
        <time>2021-10-15T15:16:46Z</time>
      </trkpt>
      <trkpt lat="41.689664" lon="-5.005985">
        <ele>693.562</ele>
        <time>2021-10-15T15:16:47Z</time>
      </trkpt>
      <trkpt lat="41.689242" lon="-5.006430">
        <ele>692.957</ele>
        <time>2021-10-15T15:16:49Z</time>
      </trkpt>
      <trkpt lat="41.689031" lon="-5.006656">
        <ele>693.555</ele>
        <time>2021-10-15T15:16:50Z</time>
      </trkpt>
      <trkpt lat="41.688626" lon="-5.007086">
        <ele>694.048</ele>
        <time>2021-10-15T15:16:52Z</time>
      </trkpt>
      <trkpt lat="41.688249" lon="-5.007486">
        <ele>694.853</ele>
        <time>2021-10-15T15:16:54Z</time>
      </trkpt>
      <trkpt lat="41.688067" lon="-5.007671">
        <ele>695.153</ele>
        <time>2021-10-15T15:16:55Z</time>
      </trkpt>
      <trkpt lat="41.687871" lon="-5.007848">
        <ele>694.704</ele>
        <time>2021-10-15T15:16:56Z</time>
      </trkpt>
      <trkpt lat="41.687428" lon="-5.008075">
        <ele>695.214</ele>
        <time>2021-10-15T15:16:58Z</time>
      </trkpt>
      <trkpt lat="41.686913" lon="-5.008224">
        <ele>694.608</ele>
        <time>2021-10-15T15:17:00Z</time>
      </trkpt>
      <trkpt lat="41.686384" lon="-5.008383">
        <ele>692.283</ele>
        <time>2021-10-15T15:17:02Z</time>
      </trkpt>
      <trkpt lat="41.685857" lon="-5.008552">
        <ele>690.281</ele>
        <time>2021-10-15T15:17:04Z</time>
      </trkpt>
      <trkpt lat="41.685572" lon="-5.008639">
        <ele>689.869</ele>
        <time>2021-10-15T15:17:05Z</time>
      </trkpt>
      <trkpt lat="41.685006" lon="-5.008815">
        <ele>688.833</ele>
        <time>2021-10-15T15:17:07Z</time>
      </trkpt>
      <trkpt lat="41.684717" lon="-5.008905">
        <ele>687.998</ele>
        <time>2021-10-15T15:17:08Z</time>
      </trkpt>
      <trkpt lat="41.684168" lon="-5.009080">
        <ele>687.126</ele>
        <time>2021-10-15T15:17:10Z</time>
      </trkpt>
      <trkpt lat="41.683615" lon="-5.009258">
        <ele>686.029</ele>
        <time>2021-10-15T15:17:12Z</time>
      </trkpt>
      <trkpt lat="41.683094" lon="-5.009423">
        <ele>685.544</ele>
        <time>2021-10-15T15:17:14Z</time>
      </trkpt>
      <trkpt lat="41.682622" lon="-5.009572">
        <ele>683.346</ele>
        <time>2021-10-15T15:17:16Z</time>
      </trkpt>
      <trkpt lat="41.682122" lon="-5.009728">
        <ele>682.288</ele>
        <time>2021-10-15T15:17:18Z</time>
      </trkpt>
      <trkpt lat="41.681601" lon="-5.009890">
        <ele>683.316</ele>
        <time>2021-10-15T15:17:20Z</time>
      </trkpt>
      <trkpt lat="41.681087" lon="-5.010047">
        <ele>684.008</ele>
        <time>2021-10-15T15:17:22Z</time>
      </trkpt>
      <trkpt lat="41.680828" lon="-5.010123">
        <ele>683.792</ele>
        <time>2021-10-15T15:17:23Z</time>
      </trkpt>
      <trkpt lat="41.680319" lon="-5.010282">
        <ele>684.320</ele>
        <time>2021-10-15T15:17:25Z</time>
      </trkpt>
      <trkpt lat="41.680071" lon="-5.010376">
        <ele>685.768</ele>
        <time>2021-10-15T15:17:26Z</time>
      </trkpt>
      <trkpt lat="41.679625" lon="-5.010650">
        <ele>685.852</ele>
        <time>2021-10-15T15:17:28Z</time>
      </trkpt>
      <trkpt lat="41.679183" lon="-5.011096">
        <ele>686.227</ele>
        <time>2021-10-15T15:17:30Z</time>
      </trkpt>
      <trkpt lat="41.678977" lon="-5.011358">
        <ele>686.465</ele>
        <time>2021-10-15T15:17:31Z</time>
      </trkpt>
      <trkpt lat="41.678776" lon="-5.011605">
        <ele>686.058</ele>
        <time>2021-10-15T15:17:32Z</time>
      </trkpt>
      <trkpt lat="41.678391" lon="-5.012067">
        <ele>685.273</ele>
        <time>2021-10-15T15:17:34Z</time>
      </trkpt>
      <trkpt lat="41.678190" lon="-5.012305">
        <ele>684.955</ele>
        <time>2021-10-15T15:17:35Z</time>
      </trkpt>
      <trkpt lat="41.677986" lon="-5.012544">
        <ele>684.107</ele>
        <time>2021-10-15T15:17:36Z</time>
      </trkpt>
      <trkpt lat="41.677566" lon="-5.013023">
        <ele>683.817</ele>
        <time>2021-10-15T15:17:38Z</time>
      </trkpt>
      <trkpt lat="41.677148" lon="-5.013508">
        <ele>683.408</ele>
        <time>2021-10-15T15:17:40Z</time>
      </trkpt>
      <trkpt lat="41.676719" lon="-5.014017">
        <ele>684.043</ele>
        <time>2021-10-15T15:17:42Z</time>
      </trkpt>
      <trkpt lat="41.676497" lon="-5.014268">
        <ele>683.391</ele>
        <time>2021-10-15T15:17:43Z</time>
      </trkpt>
      <trkpt lat="41.676269" lon="-5.014521">
        <ele>684.019</ele>
        <time>2021-10-15T15:17:44Z</time>
      </trkpt>
      <trkpt lat="41.675842" lon="-5.015019">
        <ele>685.233</ele>
        <time>2021-10-15T15:17:46Z</time>
      </trkpt>
      <trkpt lat="41.675635" lon="-5.015265">
        <ele>686.218</ele>
        <time>2021-10-15T15:17:47Z</time>
      </trkpt>
      <trkpt lat="41.675259" lon="-5.015709">
        <ele>686.316</ele>
        <time>2021-10-15T15:17:49Z</time>
      </trkpt>
      <trkpt lat="41.675086" lon="-5.015913">
        <ele>687.019</ele>
        <time>2021-10-15T15:17:50Z</time>
      </trkpt>
      <trkpt lat="41.674779" lon="-5.016273">
        <ele>685.964</ele>
        <time>2021-10-15T15:17:52Z</time>
      </trkpt>
      <trkpt lat="41.674493" lon="-5.016562">
        <ele>685.627</ele>
        <time>2021-10-15T15:17:54Z</time>
      </trkpt>
      <trkpt lat="41.674342" lon="-5.016656">
        <ele>685.168</ele>
        <time>2021-10-15T15:17:55Z</time>
      </trkpt>
      <trkpt lat="41.674168" lon="-5.016718">
        <ele>683.914</ele>
        <time>2021-10-15T15:17:56Z</time>
      </trkpt>
      <trkpt lat="41.673764" lon="-5.016749">
        <ele>683.508</ele>
        <time>2021-10-15T15:17:58Z</time>
      </trkpt>
      <trkpt lat="41.673527" lon="-5.016754">
        <ele>683.240</ele>
        <time>2021-10-15T15:17:59Z</time>
      </trkpt>
      <trkpt lat="41.673028" lon="-5.016783">
        <ele>681.498</ele>
        <time>2021-10-15T15:18:01Z</time>
      </trkpt>
      <trkpt lat="41.672765" lon="-5.016801">
        <ele>680.236</ele>
        <time>2021-10-15T15:18:02Z</time>
      </trkpt>
      <trkpt lat="41.672263" lon="-5.016840">
        <ele>678.740</ele>
        <time>2021-10-15T15:18:04Z</time>
      </trkpt>
      <trkpt lat="41.672008" lon="-5.016861">
        <ele>678.455</ele>
        <time>2021-10-15T15:18:05Z</time>
      </trkpt>
      <trkpt lat="41.671506" lon="-5.016898">
        <ele>677.313</ele>
        <time>2021-10-15T15:18:07Z</time>
      </trkpt>
      <trkpt lat="41.671250" lon="-5.016912">
        <ele>676.956</ele>
        <time>2021-10-15T15:18:08Z</time>
      </trkpt>
      <trkpt lat="41.670764" lon="-5.016945">
        <ele>675.931</ele>
        <time>2021-10-15T15:18:10Z</time>
      </trkpt>
      <trkpt lat="41.670275" lon="-5.016963">
        <ele>675.895</ele>
        <time>2021-10-15T15:18:12Z</time>
      </trkpt>
      <trkpt lat="41.669774" lon="-5.017056">
        <ele>675.649</ele>
        <time>2021-10-15T15:18:14Z</time>
      </trkpt>
      <trkpt lat="41.669282" lon="-5.017324">
        <ele>675.723</ele>
        <time>2021-10-15T15:18:16Z</time>
      </trkpt>
      <trkpt lat="41.668799" lon="-5.017708">
        <ele>676.808</ele>
        <time>2021-10-15T15:18:18Z</time>
      </trkpt>
      <trkpt lat="41.668336" lon="-5.018063">
        <ele>677.517</ele>
        <time>2021-10-15T15:18:20Z</time>
      </trkpt>
      <trkpt lat="41.667901" lon="-5.018399">
        <ele>677.995</ele>
        <time>2021-10-15T15:18:22Z</time>
      </trkpt>
      <trkpt lat="41.667675" lon="-5.018563">
        <ele>677.743</ele>
        <time>2021-10-15T15:18:23Z</time>
      </trkpt>
      <trkpt lat="41.667231" lon="-5.018888">
        <ele>677.927</ele>
        <time>2021-10-15T15:18:25Z</time>
      </trkpt>
      <trkpt lat="41.667004" lon="-5.019061">
        <ele>677.772</ele>
        <time>2021-10-15T15:18:26Z</time>
      </trkpt>
      <trkpt lat="41.666572" lon="-5.019387">
        <ele>677.480</ele>
        <time>2021-10-15T15:18:28Z</time>
      </trkpt>
      <trkpt lat="41.666346" lon="-5.019558">
        <ele>676.983</ele>
        <time>2021-10-15T15:18:29Z</time>
      </trkpt>
      <trkpt lat="41.665923" lon="-5.019878">
        <ele>677.338</ele>
        <time>2021-10-15T15:18:31Z</time>
      </trkpt>
      <trkpt lat="41.665725" lon="-5.020018">
        <ele>676.459</ele>
        <time>2021-10-15T15:18:32Z</time>
      </trkpt>
      <trkpt lat="41.665356" lon="-5.020209">
        <ele>676.403</ele>
        <time>2021-10-15T15:18:34Z</time>
      </trkpt>
      <trkpt lat="41.665160" lon="-5.020254">
        <ele>675.623</ele>
        <time>2021-10-15T15:18:35Z</time>
      </trkpt>
      <trkpt lat="41.664737" lon="-5.020188">
        <ele>675.008</ele>
        <time>2021-10-15T15:18:37Z</time>
      </trkpt>
      <trkpt lat="41.664505" lon="-5.020068">
        <ele>674.553</ele>
        <time>2021-10-15T15:18:38Z</time>
      </trkpt>
      <trkpt lat="41.664026" lon="-5.019815">
        <ele>676.771</ele>
        <time>2021-10-15T15:18:40Z</time>
      </trkpt>
      <trkpt lat="41.663794" lon="-5.019706">
        <ele>677.059</ele>
        <time>2021-10-15T15:18:41Z</time>
      </trkpt>
      <trkpt lat="41.663578" lon="-5.019609">
        <ele>677.323</ele>
        <time>2021-10-15T15:18:42Z</time>
      </trkpt>
      <trkpt lat="41.663372" lon="-5.019520">
        <ele>677.538</ele>
        <time>2021-10-15T15:18:43Z</time>
      </trkpt>
      <trkpt lat="41.663163" lon="-5.019431">
        <ele>677.936</ele>
        <time>2021-10-15T15:18:44Z</time>
      </trkpt>
      <trkpt lat="41.662733" lon="-5.019246">
        <ele>676.959</ele>
        <time>2021-10-15T15:18:46Z</time>
      </trkpt>
      <trkpt lat="41.662500" lon="-5.019145">
        <ele>676.644</ele>
        <time>2021-10-15T15:18:47Z</time>
      </trkpt>
      <trkpt lat="41.662259" lon="-5.019041">
        <ele>676.613</ele>
        <time>2021-10-15T15:18:48Z</time>
      </trkpt>
      <trkpt lat="41.662013" lon="-5.018937">
        <ele>677.043</ele>
        <time>2021-10-15T15:18:49Z</time>
      </trkpt>
      <trkpt lat="41.661759" lon="-5.018830">
        <ele>677.407</ele>
        <time>2021-10-15T15:18:50Z</time>
      </trkpt>
      <trkpt lat="41.661262" lon="-5.018630">
        <ele>676.608</ele>
        <time>2021-10-15T15:18:52Z</time>
      </trkpt>
      <trkpt lat="41.660749" lon="-5.018498">
        <ele>675.529</ele>
        <time>2021-10-15T15:18:54Z</time>
      </trkpt>
      <trkpt lat="41.660485" lon="-5.018489">
        <ele>675.347</ele>
        <time>2021-10-15T15:18:55Z</time>
      </trkpt>
      <trkpt lat="41.660216" lon="-5.018513">
        <ele>675.015</ele>
        <time>2021-10-15T15:18:56Z</time>
      </trkpt>
      <trkpt lat="41.659704" lon="-5.018585">
        <ele>675.159</ele>
        <time>2021-10-15T15:18:58Z</time>
      </trkpt>
      <trkpt lat="41.659440" lon="-5.018621">
        <ele>674.774</ele>
        <time>2021-10-15T15:18:59Z</time>
      </trkpt>
      <trkpt lat="41.659174" lon="-5.018656">
        <ele>674.972</ele>
        <time>2021-10-15T15:19:00Z</time>
      </trkpt>
      <trkpt lat="41.658635" lon="-5.018724">
        <ele>675.395</ele>
        <time>2021-10-15T15:19:02Z</time>
      </trkpt>
      <trkpt lat="41.658104" lon="-5.018789">
        <ele>674.170</ele>
        <time>2021-10-15T15:19:04Z</time>
      </trkpt>
      <trkpt lat="41.657568" lon="-5.018853">
        <ele>674.639</ele>
        <time>2021-10-15T15:19:06Z</time>
      </trkpt>
      <trkpt lat="41.657029" lon="-5.018914">
        <ele>672.401</ele>
        <time>2021-10-15T15:19:08Z</time>
      </trkpt>
      <trkpt lat="41.656505" lon="-5.018977">
        <ele>671.021</ele>
        <time>2021-10-15T15:19:10Z</time>
      </trkpt>
      <trkpt lat="41.655971" lon="-5.019035">
        <ele>670.908</ele>
        <time>2021-10-15T15:19:12Z</time>
      </trkpt>
      <trkpt lat="41.655435" lon="-5.019098">
        <ele>669.561</ele>
        <time>2021-10-15T15:19:14Z</time>
      </trkpt>
      <trkpt lat="41.654910" lon="-5.019162">
        <ele>667.339</ele>
        <time>2021-10-15T15:19:16Z</time>
      </trkpt>
      <trkpt lat="41.654643" lon="-5.019194">
        <ele>666.747</ele>
        <time>2021-10-15T15:19:17Z</time>
      </trkpt>
      <trkpt lat="41.654117" lon="-5.019257">
        <ele>665.771</ele>
        <time>2021-10-15T15:19:19Z</time>
      </trkpt>
      <trkpt lat="41.653848" lon="-5.019285">
        <ele>666.036</ele>
        <time>2021-10-15T15:19:20Z</time>
      </trkpt>
      <trkpt lat="41.653335" lon="-5.019347">
        <ele>665.474</ele>
        <time>2021-10-15T15:19:22Z</time>
      </trkpt>
      <trkpt lat="41.652809" lon="-5.019412">
        <ele>665.287</ele>
        <time>2021-10-15T15:19:24Z</time>
      </trkpt>
      <trkpt lat="41.652267" lon="-5.019483">
        <ele>668.372</ele>
        <time>2021-10-15T15:19:26Z</time>
      </trkpt>
      <trkpt lat="41.651755" lon="-5.019547">
        <ele>669.953</ele>
        <time>2021-10-15T15:19:28Z</time>
      </trkpt>
      <trkpt lat="41.651506" lon="-5.019577">
        <ele>671.104</ele>
        <time>2021-10-15T15:19:29Z</time>
      </trkpt>
      <trkpt lat="41.651053" lon="-5.019632">
        <ele>673.414</ele>
        <time>2021-10-15T15:19:31Z</time>
      </trkpt>
      <trkpt lat="41.650835" lon="-5.019655">
        <ele>675.208</ele>
        <time>2021-10-15T15:19:32Z</time>
      </trkpt>
      <trkpt lat="41.650441" lon="-5.019704">
        <ele>676.223</ele>
        <time>2021-10-15T15:19:34Z</time>
      </trkpt>
      <trkpt lat="41.650081" lon="-5.019743">
        <ele>678.291</ele>
        <time>2021-10-15T15:19:36Z</time>
      </trkpt>
      <trkpt lat="41.649771" lon="-5.019786">
        <ele>679.559</ele>
        <time>2021-10-15T15:19:38Z</time>
      </trkpt>
      <trkpt lat="41.649495" lon="-5.019822">
        <ele>680.193</ele>
        <time>2021-10-15T15:19:40Z</time>
      </trkpt>
      <trkpt lat="41.649361" lon="-5.019841">
        <ele>681.028</ele>
        <time>2021-10-15T15:19:41Z</time>
      </trkpt>
      <trkpt lat="41.649119" lon="-5.019909">
        <ele>681.866</ele>
        <time>2021-10-15T15:19:43Z</time>
      </trkpt>
      <trkpt lat="41.649007" lon="-5.019963">
        <ele>681.729</ele>
        <time>2021-10-15T15:19:44Z</time>
      </trkpt>
      <trkpt lat="41.648814" lon="-5.020094">
        <ele>681.814</ele>
        <time>2021-10-15T15:19:46Z</time>
      </trkpt>
      <trkpt lat="41.648727" lon="-5.020167">
        <ele>681.853</ele>
        <time>2021-10-15T15:19:47Z</time>
      </trkpt>
      <trkpt lat="41.648642" lon="-5.020238">
        <ele>681.804</ele>
        <time>2021-10-15T15:19:48Z</time>
      </trkpt>
      <trkpt lat="41.648475" lon="-5.020368">
        <ele>681.914</ele>
        <time>2021-10-15T15:19:50Z</time>
      </trkpt>
      <trkpt lat="41.648328" lon="-5.020504">
        <ele>681.708</ele>
        <time>2021-10-15T15:19:52Z</time>
      </trkpt>
      <trkpt lat="41.648267" lon="-5.020585">
        <ele>682.313</ele>
        <time>2021-10-15T15:19:53Z</time>
      </trkpt>
      <trkpt lat="41.648189" lon="-5.020776">
        <ele>681.821</ele>
        <time>2021-10-15T15:19:55Z</time>
      </trkpt>
      <trkpt lat="41.648151" lon="-5.020857">
        <ele>681.359</ele>
        <time>2021-10-15T15:19:56Z</time>
      </trkpt>
      <trkpt lat="41.648064" lon="-5.020935">
        <ele>681.363</ele>
        <time>2021-10-15T15:19:58Z</time>
      </trkpt>
      <trkpt lat="41.648015" lon="-5.020941">
        <ele>681.388</ele>
        <time>2021-10-15T15:19:59Z</time>
      </trkpt>
      <trkpt lat="41.647911" lon="-5.020906">
        <ele>680.696</ele>
        <time>2021-10-15T15:20:01Z</time>
      </trkpt>
      <trkpt lat="41.647847" lon="-5.020885">
        <ele>680.429</ele>
        <time>2021-10-15T15:20:02Z</time>
      </trkpt>
      <trkpt lat="41.647700" lon="-5.020909">
        <ele>680.344</ele>
        <time>2021-10-15T15:20:04Z</time>
      </trkpt>
      <trkpt lat="41.647561" lon="-5.021064">
        <ele>680.883</ele>
        <time>2021-10-15T15:20:06Z</time>
      </trkpt>
      <trkpt lat="41.647515" lon="-5.021190">
        <ele>681.125</ele>
        <time>2021-10-15T15:20:07Z</time>
      </trkpt>
      <trkpt lat="41.647478" lon="-5.021341">
        <ele>682.017</ele>
        <time>2021-10-15T15:20:08Z</time>
      </trkpt>
      <trkpt lat="41.647379" lon="-5.021645">
        <ele>682.108</ele>
        <time>2021-10-15T15:20:10Z</time>
      </trkpt>
      <trkpt lat="41.647187" lon="-5.021913">
        <ele>683.166</ele>
        <time>2021-10-15T15:20:12Z</time>
      </trkpt>
      <trkpt lat="41.646908" lon="-5.022090">
        <ele>683.044</ele>
        <time>2021-10-15T15:20:14Z</time>
      </trkpt>
      <trkpt lat="41.646584" lon="-5.022122">
        <ele>683.322</ele>
        <time>2021-10-15T15:20:16Z</time>
      </trkpt>
      <trkpt lat="41.646415" lon="-5.022096">
        <ele>683.496</ele>
        <time>2021-10-15T15:20:17Z</time>
      </trkpt>
      <trkpt lat="41.646052" lon="-5.022039">
        <ele>683.221</ele>
        <time>2021-10-15T15:20:19Z</time>
      </trkpt>
      <trkpt lat="41.645849" lon="-5.022017">
        <ele>683.669</ele>
        <time>2021-10-15T15:20:20Z</time>
      </trkpt>
      <trkpt lat="41.645435" lon="-5.021972">
        <ele>684.772</ele>
        <time>2021-10-15T15:20:22Z</time>
      </trkpt>
      <trkpt lat="41.644995" lon="-5.021931">
        <ele>685.657</ele>
        <time>2021-10-15T15:20:24Z</time>
      </trkpt>
      <trkpt lat="41.644779" lon="-5.021913">
        <ele>686.427</ele>
        <time>2021-10-15T15:20:25Z</time>
      </trkpt>
      <trkpt lat="41.644560" lon="-5.021894">
        <ele>687.168</ele>
        <time>2021-10-15T15:20:26Z</time>
      </trkpt>
      <trkpt lat="41.644127" lon="-5.021856">
        <ele>686.914</ele>
        <time>2021-10-15T15:20:28Z</time>
      </trkpt>
      <trkpt lat="41.643899" lon="-5.021834">
        <ele>687.208</ele>
        <time>2021-10-15T15:20:29Z</time>
      </trkpt>
      <trkpt lat="41.643665" lon="-5.021808">
        <ele>687.690</ele>
        <time>2021-10-15T15:20:30Z</time>
      </trkpt>
      <trkpt lat="41.643181" lon="-5.021756">
        <ele>687.988</ele>
        <time>2021-10-15T15:20:32Z</time>
      </trkpt>
      <trkpt lat="41.642720" lon="-5.021705">
        <ele>687.426</ele>
        <time>2021-10-15T15:20:34Z</time>
      </trkpt>
      <trkpt lat="41.642249" lon="-5.021631">
        <ele>689.560</ele>
        <time>2021-10-15T15:20:36Z</time>
      </trkpt>
      <trkpt lat="41.641760" lon="-5.021476">
        <ele>689.165</ele>
        <time>2021-10-15T15:20:38Z</time>
      </trkpt>
      <trkpt lat="41.641277" lon="-5.021274">
        <ele>690.723</ele>
        <time>2021-10-15T15:20:40Z</time>
      </trkpt>
      <trkpt lat="41.640778" lon="-5.021064">
        <ele>690.826</ele>
        <time>2021-10-15T15:20:42Z</time>
      </trkpt>
      <trkpt lat="41.640526" lon="-5.020959">
        <ele>690.661</ele>
        <time>2021-10-15T15:20:43Z</time>
      </trkpt>
      <trkpt lat="41.640265" lon="-5.020851">
        <ele>689.968</ele>
        <time>2021-10-15T15:20:44Z</time>
      </trkpt>
      <trkpt lat="41.639754" lon="-5.020639">
        <ele>689.742</ele>
        <time>2021-10-15T15:20:46Z</time>
      </trkpt>
      <trkpt lat="41.639236" lon="-5.020434">
        <ele>688.126</ele>
        <time>2021-10-15T15:20:48Z</time>
      </trkpt>
      <trkpt lat="41.638717" lon="-5.020228">
        <ele>689.108</ele>
        <time>2021-10-15T15:20:50Z</time>
      </trkpt>
      <trkpt lat="41.638224" lon="-5.020030">
        <ele>689.914</ele>
        <time>2021-10-15T15:20:52Z</time>
      </trkpt>
      <trkpt lat="41.637984" lon="-5.019929">
        <ele>691.062</ele>
        <time>2021-10-15T15:20:53Z</time>
      </trkpt>
      <trkpt lat="41.637515" lon="-5.019740">
        <ele>692.380</ele>
        <time>2021-10-15T15:20:55Z</time>
      </trkpt>
      <trkpt lat="41.637276" lon="-5.019646">
        <ele>693.834</ele>
        <time>2021-10-15T15:20:56Z</time>
      </trkpt>
      <trkpt lat="41.636833" lon="-5.019469">
        <ele>695.049</ele>
        <time>2021-10-15T15:20:58Z</time>
      </trkpt>
      <trkpt lat="41.636385" lon="-5.019285">
        <ele>696.167</ele>
        <time>2021-10-15T15:21:00Z</time>
      </trkpt>
      <trkpt lat="41.635917" lon="-5.019092">
        <ele>698.230</ele>
        <time>2021-10-15T15:21:02Z</time>
      </trkpt>
      <trkpt lat="41.635448" lon="-5.018895">
        <ele>699.365</ele>
        <time>2021-10-15T15:21:04Z</time>
      </trkpt>
      <trkpt lat="41.634947" lon="-5.018696">
        <ele>699.988</ele>
        <time>2021-10-15T15:21:06Z</time>
      </trkpt>
      <trkpt lat="41.634424" lon="-5.018481">
        <ele>699.824</ele>
        <time>2021-10-15T15:21:08Z</time>
      </trkpt>
      <trkpt lat="41.633904" lon="-5.018265">
        <ele>698.826</ele>
        <time>2021-10-15T15:21:10Z</time>
      </trkpt>
      <trkpt lat="41.633634" lon="-5.018155">
        <ele>698.308</ele>
        <time>2021-10-15T15:21:11Z</time>
      </trkpt>
      <trkpt lat="41.633096" lon="-5.017942">
        <ele>698.966</ele>
        <time>2021-10-15T15:21:13Z</time>
      </trkpt>
      <trkpt lat="41.632826" lon="-5.017833">
        <ele>700.164</ele>
        <time>2021-10-15T15:21:14Z</time>
      </trkpt>
      <trkpt lat="41.632322" lon="-5.017630">
        <ele>703.012</ele>
        <time>2021-10-15T15:21:16Z</time>
      </trkpt>
      <trkpt lat="41.631838" lon="-5.017429">
        <ele>705.796</ele>
        <time>2021-10-15T15:21:18Z</time>
      </trkpt>
      <trkpt lat="41.631600" lon="-5.017328">
        <ele>706.771</ele>
        <time>2021-10-15T15:21:19Z</time>
      </trkpt>
      <trkpt lat="41.631358" lon="-5.017224">
        <ele>708.149</ele>
        <time>2021-10-15T15:21:20Z</time>
      </trkpt>
      <trkpt lat="41.630904" lon="-5.016996">
        <ele>710.982</ele>
        <time>2021-10-15T15:21:22Z</time>
      </trkpt>
      <trkpt lat="41.630482" lon="-5.016671">
        <ele>714.237</ele>
        <time>2021-10-15T15:21:24Z</time>
      </trkpt>
      <trkpt lat="41.630060" lon="-5.016272">
        <ele>717.394</ele>
        <time>2021-10-15T15:21:26Z</time>
      </trkpt>
      <trkpt lat="41.629622" lon="-5.015926">
        <ele>718.857</ele>
        <time>2021-10-15T15:21:28Z</time>
      </trkpt>
      <trkpt lat="41.629131" lon="-5.015693">
        <ele>722.222</ele>
        <time>2021-10-15T15:21:30Z</time>
      </trkpt>
      <trkpt lat="41.628865" lon="-5.015635">
        <ele>723.308</ele>
        <time>2021-10-15T15:21:31Z</time>
      </trkpt>
      <trkpt lat="41.628586" lon="-5.015600">
        <ele>725.197</ele>
        <time>2021-10-15T15:21:32Z</time>
      </trkpt>
      <trkpt lat="41.628046" lon="-5.015533">
        <ele>725.655</ele>
        <time>2021-10-15T15:21:34Z</time>
      </trkpt>
      <trkpt lat="41.627767" lon="-5.015495">
        <ele>725.983</ele>
        <time>2021-10-15T15:21:35Z</time>
      </trkpt>
      <trkpt lat="41.627227" lon="-5.015420">
        <ele>728.897</ele>
        <time>2021-10-15T15:21:37Z</time>
      </trkpt>
      <trkpt lat="41.626957" lon="-5.015382">
        <ele>730.962</ele>
        <time>2021-10-15T15:21:38Z</time>
      </trkpt>
      <trkpt lat="41.626445" lon="-5.015309">
        <ele>733.580</ele>
        <time>2021-10-15T15:21:40Z</time>
      </trkpt>
      <trkpt lat="41.626185" lon="-5.015277">
        <ele>735.073</ele>
        <time>2021-10-15T15:21:41Z</time>
      </trkpt>
      <trkpt lat="41.625674" lon="-5.015222">
        <ele>739.748</ele>
        <time>2021-10-15T15:21:43Z</time>
      </trkpt>
      <trkpt lat="41.625416" lon="-5.015209">
        <ele>741.775</ele>
        <time>2021-10-15T15:21:44Z</time>
      </trkpt>
      <trkpt lat="41.624923" lon="-5.015266">
        <ele>745.128</ele>
        <time>2021-10-15T15:21:46Z</time>
      </trkpt>
      <trkpt lat="41.624434" lon="-5.015420">
        <ele>747.620</ele>
        <time>2021-10-15T15:21:48Z</time>
      </trkpt>
      <trkpt lat="41.624191" lon="-5.015524">
        <ele>748.308</ele>
        <time>2021-10-15T15:21:49Z</time>
      </trkpt>
      <trkpt lat="41.623943" lon="-5.015628">
        <ele>747.985</ele>
        <time>2021-10-15T15:21:50Z</time>
      </trkpt>
      <trkpt lat="41.623466" lon="-5.015823">
        <ele>749.443</ele>
        <time>2021-10-15T15:21:52Z</time>
      </trkpt>
      <trkpt lat="41.623222" lon="-5.015922">
        <ele>749.851</ele>
        <time>2021-10-15T15:21:53Z</time>
      </trkpt>
      <trkpt lat="41.622982" lon="-5.016015">
        <ele>750.665</ele>
        <time>2021-10-15T15:21:54Z</time>
      </trkpt>
      <trkpt lat="41.622743" lon="-5.016088">
        <ele>751.260</ele>
        <time>2021-10-15T15:21:55Z</time>
      </trkpt>
      <trkpt lat="41.622495" lon="-5.016139">
        <ele>751.228</ele>
        <time>2021-10-15T15:21:56Z</time>
      </trkpt>
      <trkpt lat="41.621994" lon="-5.016118">
        <ele>752.341</ele>
        <time>2021-10-15T15:21:58Z</time>
      </trkpt>
      <trkpt lat="41.621736" lon="-5.016033">
        <ele>753.136</ele>
        <time>2021-10-15T15:21:59Z</time>
      </trkpt>
      <trkpt lat="41.621487" lon="-5.015904">
        <ele>754.869</ele>
        <time>2021-10-15T15:22:00Z</time>
      </trkpt>
      <trkpt lat="41.620985" lon="-5.015578">
        <ele>759.004</ele>
        <time>2021-10-15T15:22:02Z</time>
      </trkpt>
      <trkpt lat="41.620490" lon="-5.015266">
        <ele>761.924</ele>
        <time>2021-10-15T15:22:04Z</time>
      </trkpt>
      <trkpt lat="41.620235" lon="-5.015101">
        <ele>764.308</ele>
        <time>2021-10-15T15:22:05Z</time>
      </trkpt>
      <trkpt lat="41.619974" lon="-5.014938">
        <ele>765.874</ele>
        <time>2021-10-15T15:22:06Z</time>
      </trkpt>
      <trkpt lat="41.619447" lon="-5.014604">
        <ele>769.942</ele>
        <time>2021-10-15T15:22:08Z</time>
      </trkpt>
      <trkpt lat="41.618936" lon="-5.014297">
        <ele>773.580</ele>
        <time>2021-10-15T15:22:10Z</time>
      </trkpt>
      <trkpt lat="41.618686" lon="-5.014147">
        <ele>774.764</ele>
        <time>2021-10-15T15:22:11Z</time>
      </trkpt>
      <trkpt lat="41.618213" lon="-5.013861">
        <ele>776.729</ele>
        <time>2021-10-15T15:22:13Z</time>
      </trkpt>
      <trkpt lat="41.617971" lon="-5.013716">
        <ele>777.017</ele>
        <time>2021-10-15T15:22:14Z</time>
      </trkpt>
      <trkpt lat="41.617504" lon="-5.013434">
        <ele>778.010</ele>
        <time>2021-10-15T15:22:16Z</time>
      </trkpt>
      <trkpt lat="41.617030" lon="-5.013136">
        <ele>778.655</ele>
        <time>2021-10-15T15:22:18Z</time>
      </trkpt>
      <trkpt lat="41.616792" lon="-5.012986">
        <ele>778.544</ele>
        <time>2021-10-15T15:22:19Z</time>
      </trkpt>
      <trkpt lat="41.616545" lon="-5.012833">
        <ele>778.405</ele>
        <time>2021-10-15T15:22:20Z</time>
      </trkpt>
      <trkpt lat="41.616061" lon="-5.012541">
        <ele>778.615</ele>
        <time>2021-10-15T15:22:22Z</time>
      </trkpt>
      <trkpt lat="41.615564" lon="-5.012239">
        <ele>779.108</ele>
        <time>2021-10-15T15:22:24Z</time>
      </trkpt>
      <trkpt lat="41.615313" lon="-5.012087">
        <ele>779.122</ele>
        <time>2021-10-15T15:22:25Z</time>
      </trkpt>
      <trkpt lat="41.615054" lon="-5.011931">
        <ele>778.260</ele>
        <time>2021-10-15T15:22:26Z</time>
      </trkpt>
      <trkpt lat="41.614563" lon="-5.011633">
        <ele>777.548</ele>
        <time>2021-10-15T15:22:28Z</time>
      </trkpt>
      <trkpt lat="41.614314" lon="-5.011476">
        <ele>777.052</ele>
        <time>2021-10-15T15:22:29Z</time>
      </trkpt>
      <trkpt lat="41.613821" lon="-5.011175">
        <ele>777.437</ele>
        <time>2021-10-15T15:22:31Z</time>
      </trkpt>
      <trkpt lat="41.613561" lon="-5.011023">
        <ele>777.095</ele>
        <time>2021-10-15T15:22:32Z</time>
      </trkpt>
      <trkpt lat="41.613058" lon="-5.010715">
        <ele>776.838</ele>
        <time>2021-10-15T15:22:34Z</time>
      </trkpt>
      <trkpt lat="41.612794" lon="-5.010555">
        <ele>776.913</ele>
        <time>2021-10-15T15:22:35Z</time>
      </trkpt>
      <trkpt lat="41.612527" lon="-5.010392">
        <ele>776.164</ele>
        <time>2021-10-15T15:22:36Z</time>
      </trkpt>
      <trkpt lat="41.612260" lon="-5.010229">
        <ele>775.706</ele>
        <time>2021-10-15T15:22:37Z</time>
      </trkpt>
      <trkpt lat="41.611986" lon="-5.010062">
        <ele>776.016</ele>
        <time>2021-10-15T15:22:38Z</time>
      </trkpt>
      <trkpt lat="41.611442" lon="-5.009731">
        <ele>776.108</ele>
        <time>2021-10-15T15:22:40Z</time>
      </trkpt>
      <trkpt lat="41.610879" lon="-5.009388">
        <ele>776.094</ele>
        <time>2021-10-15T15:22:42Z</time>
      </trkpt>
      <trkpt lat="41.610296" lon="-5.009033">
        <ele>775.282</ele>
        <time>2021-10-15T15:22:44Z</time>
      </trkpt>
      <trkpt lat="41.609719" lon="-5.008683">
        <ele>775.630</ele>
        <time>2021-10-15T15:22:46Z</time>
      </trkpt>
      <trkpt lat="41.609161" lon="-5.008342">
        <ele>774.764</ele>
        <time>2021-10-15T15:22:48Z</time>
      </trkpt>
      <trkpt lat="41.608894" lon="-5.008179">
        <ele>775.159</ele>
        <time>2021-10-15T15:22:49Z</time>
      </trkpt>
      <trkpt lat="41.608622" lon="-5.008012">
        <ele>774.647</ele>
        <time>2021-10-15T15:22:50Z</time>
      </trkpt>
      <trkpt lat="41.608118" lon="-5.007693">
        <ele>774.560</ele>
        <time>2021-10-15T15:22:52Z</time>
      </trkpt>
      <trkpt lat="41.607612" lon="-5.007358">
        <ele>775.185</ele>
        <time>2021-10-15T15:22:54Z</time>
      </trkpt>
      <trkpt lat="41.607368" lon="-5.007166">
        <ele>775.347</ele>
        <time>2021-10-15T15:22:55Z</time>
      </trkpt>
      <trkpt lat="41.607119" lon="-5.006947">
        <ele>775.529</ele>
        <time>2021-10-15T15:22:56Z</time>
      </trkpt>
      <trkpt lat="41.606655" lon="-5.006492">
        <ele>775.521</ele>
        <time>2021-10-15T15:22:58Z</time>
      </trkpt>
      <trkpt lat="41.606422" lon="-5.006252">
        <ele>775.208</ele>
        <time>2021-10-15T15:22:59Z</time>
      </trkpt>
      <trkpt lat="41.606196" lon="-5.006020">
        <ele>774.532</ele>
        <time>2021-10-15T15:23:00Z</time>
      </trkpt>
      <trkpt lat="41.605770" lon="-5.005586">
        <ele>773.240</ele>
        <time>2021-10-15T15:23:02Z</time>
      </trkpt>
      <trkpt lat="41.605382" lon="-5.005194">
        <ele>770.868</ele>
        <time>2021-10-15T15:23:04Z</time>
      </trkpt>
      <trkpt lat="41.605181" lon="-5.004995">
        <ele>770.412</ele>
        <time>2021-10-15T15:23:05Z</time>
      </trkpt>
      <trkpt lat="41.604764" lon="-5.004571">
        <ele>767.937</ele>
        <time>2021-10-15T15:23:07Z</time>
      </trkpt>
      <trkpt lat="41.604543" lon="-5.004347">
        <ele>767.185</ele>
        <time>2021-10-15T15:23:08Z</time>
      </trkpt>
      <trkpt lat="41.604136" lon="-5.003928">
        <ele>764.178</ele>
        <time>2021-10-15T15:23:10Z</time>
      </trkpt>
      <trkpt lat="41.603748" lon="-5.003528">
        <ele>761.563</ele>
        <time>2021-10-15T15:23:12Z</time>
      </trkpt>
      <trkpt lat="41.603551" lon="-5.003326">
        <ele>760.055</ele>
        <time>2021-10-15T15:23:13Z</time>
      </trkpt>
      <trkpt lat="41.603347" lon="-5.003115">
        <ele>758.707</ele>
        <time>2021-10-15T15:23:14Z</time>
      </trkpt>
      <trkpt lat="41.602946" lon="-5.002725">
        <ele>756.217</ele>
        <time>2021-10-15T15:23:16Z</time>
      </trkpt>
      <trkpt lat="41.602724" lon="-5.002555">
        <ele>754.608</ele>
        <time>2021-10-15T15:23:17Z</time>
      </trkpt>
      <trkpt lat="41.602223" lon="-5.002310">
        <ele>750.933</ele>
        <time>2021-10-15T15:23:19Z</time>
      </trkpt>
      <trkpt lat="41.601937" lon="-5.002264">
        <ele>749.991</ele>
        <time>2021-10-15T15:23:20Z</time>
      </trkpt>
      <trkpt lat="41.601378" lon="-5.002269">
        <ele>749.039</ele>
        <time>2021-10-15T15:23:22Z</time>
      </trkpt>
      <trkpt lat="41.601100" lon="-5.002237">
        <ele>748.163</ele>
        <time>2021-10-15T15:23:23Z</time>
      </trkpt>
      <trkpt lat="41.600569" lon="-5.002051">
        <ele>747.688</ele>
        <time>2021-10-15T15:23:25Z</time>
      </trkpt>
      <trkpt lat="41.600300" lon="-5.001910">
        <ele>746.916</ele>
        <time>2021-10-15T15:23:26Z</time>
      </trkpt>
      <trkpt lat="41.599750" lon="-5.001720">
        <ele>744.539</ele>
        <time>2021-10-15T15:23:28Z</time>
      </trkpt>
      <trkpt lat="41.599159" lon="-5.001773">
        <ele>743.394</ele>
        <time>2021-10-15T15:23:30Z</time>
      </trkpt>
      <trkpt lat="41.598588" lon="-5.001989">
        <ele>743.047</ele>
        <time>2021-10-15T15:23:32Z</time>
      </trkpt>
      <trkpt lat="41.598065" lon="-5.002065">
        <ele>743.529</ele>
        <time>2021-10-15T15:23:34Z</time>
      </trkpt>
      <trkpt lat="41.597511" lon="-5.001961">
        <ele>745.221</ele>
        <time>2021-10-15T15:23:36Z</time>
      </trkpt>
      <trkpt lat="41.596949" lon="-5.001732">
        <ele>748.208</ele>
        <time>2021-10-15T15:23:38Z</time>
      </trkpt>
      <trkpt lat="41.596383" lon="-5.001509">
        <ele>751.962</ele>
        <time>2021-10-15T15:23:40Z</time>
      </trkpt>
      <trkpt lat="41.595784" lon="-5.001280">
        <ele>754.550</ele>
        <time>2021-10-15T15:23:42Z</time>
      </trkpt>
      <trkpt lat="41.595184" lon="-5.001053">
        <ele>758.088</ele>
        <time>2021-10-15T15:23:44Z</time>
      </trkpt>
      <trkpt lat="41.594668" lon="-5.000853">
        <ele>760.842</ele>
        <time>2021-10-15T15:23:46Z</time>
      </trkpt>
      <trkpt lat="41.594142" lon="-5.000750">
        <ele>764.067</ele>
        <time>2021-10-15T15:23:48Z</time>
      </trkpt>
      <trkpt lat="41.593603" lon="-5.000813">
        <ele>766.915</ele>
        <time>2021-10-15T15:23:50Z</time>
      </trkpt>
      <trkpt lat="41.593102" lon="-5.001001">
        <ele>770.238</ele>
        <time>2021-10-15T15:23:52Z</time>
      </trkpt>
      <trkpt lat="41.592844" lon="-5.001058">
        <ele>771.953</ele>
        <time>2021-10-15T15:23:53Z</time>
      </trkpt>
      <trkpt lat="41.592580" lon="-5.001065">
        <ele>773.693</ele>
        <time>2021-10-15T15:23:54Z</time>
      </trkpt>
      <trkpt lat="41.592040" lon="-5.001007">
        <ele>774.765</ele>
        <time>2021-10-15T15:23:56Z</time>
      </trkpt>
      <trkpt lat="41.591505" lon="-5.000950">
        <ele>774.521</ele>
        <time>2021-10-15T15:23:58Z</time>
      </trkpt>
      <trkpt lat="41.591228" lon="-5.000923">
        <ele>774.308</ele>
        <time>2021-10-15T15:23:59Z</time>
      </trkpt>
      <trkpt lat="41.590950" lon="-5.000897">
        <ele>773.967</ele>
        <time>2021-10-15T15:24:00Z</time>
      </trkpt>
      <trkpt lat="41.590669" lon="-5.000874">
        <ele>773.475</ele>
        <time>2021-10-15T15:24:01Z</time>
      </trkpt>
      <trkpt lat="41.590383" lon="-5.000845">
        <ele>773.493</ele>
        <time>2021-10-15T15:24:02Z</time>
      </trkpt>
      <trkpt lat="41.589817" lon="-5.000792">
        <ele>772.797</ele>
        <time>2021-10-15T15:24:04Z</time>
      </trkpt>
      <trkpt lat="41.589530" lon="-5.000767">
        <ele>772.142</ele>
        <time>2021-10-15T15:24:05Z</time>
      </trkpt>
      <trkpt lat="41.588971" lon="-5.000706">
        <ele>773.530</ele>
        <time>2021-10-15T15:24:07Z</time>
      </trkpt>
      <trkpt lat="41.588687" lon="-5.000675">
        <ele>772.883</ele>
        <time>2021-10-15T15:24:08Z</time>
      </trkpt>
      <trkpt lat="41.588139" lon="-5.000626">
        <ele>773.368</ele>
        <time>2021-10-15T15:24:10Z</time>
      </trkpt>
      <trkpt lat="41.587574" lon="-5.000567">
        <ele>772.469</ele>
        <time>2021-10-15T15:24:12Z</time>
      </trkpt>
      <trkpt lat="41.587288" lon="-5.000544">
        <ele>772.304</ele>
        <time>2021-10-15T15:24:13Z</time>
      </trkpt>
      <trkpt lat="41.586995" lon="-5.000528">
        <ele>772.324</ele>
        <time>2021-10-15T15:24:14Z</time>
      </trkpt>
      <trkpt lat="41.586432" lon="-5.000529">
        <ele>772.608</ele>
        <time>2021-10-15T15:24:16Z</time>
      </trkpt>
      <trkpt lat="41.586148" lon="-5.000548">
        <ele>771.574</ele>
        <time>2021-10-15T15:24:17Z</time>
      </trkpt>
      <trkpt lat="41.585607" lon="-5.000598">
        <ele>771.452</ele>
        <time>2021-10-15T15:24:19Z</time>
      </trkpt>
      <trkpt lat="41.585347" lon="-5.000625">
        <ele>771.290</ele>
        <time>2021-10-15T15:24:20Z</time>
      </trkpt>
      <trkpt lat="41.584868" lon="-5.000643">
        <ele>769.834</ele>
        <time>2021-10-15T15:24:22Z</time>
      </trkpt>
      <trkpt lat="41.584363" lon="-5.000535">
        <ele>768.329</ele>
        <time>2021-10-15T15:24:24Z</time>
      </trkpt>
      <trkpt lat="41.583827" lon="-5.000272">
        <ele>766.067</ele>
        <time>2021-10-15T15:24:26Z</time>
      </trkpt>
      <trkpt lat="41.583297" lon="-4.999968">
        <ele>765.760</ele>
        <time>2021-10-15T15:24:28Z</time>
      </trkpt>
      <trkpt lat="41.583016" lon="-4.999829">
        <ele>765.145</ele>
        <time>2021-10-15T15:24:29Z</time>
      </trkpt>
      <trkpt lat="41.582444" lon="-4.999583">
        <ele>764.732</ele>
        <time>2021-10-15T15:24:31Z</time>
      </trkpt>
      <trkpt lat="41.582143" lon="-4.999477">
        <ele>765.392</ele>
        <time>2021-10-15T15:24:32Z</time>
      </trkpt>
      <trkpt lat="41.581569" lon="-4.999320">
        <ele>765.711</ele>
        <time>2021-10-15T15:24:34Z</time>
      </trkpt>
      <trkpt lat="41.581278" lon="-4.999255">
        <ele>765.908</ele>
        <time>2021-10-15T15:24:35Z</time>
      </trkpt>
      <trkpt lat="41.580991" lon="-4.999205">
        <ele>766.581</ele>
        <time>2021-10-15T15:24:36Z</time>
      </trkpt>
      <trkpt lat="41.580422" lon="-4.999148">
        <ele>769.239</ele>
        <time>2021-10-15T15:24:38Z</time>
      </trkpt>
      <trkpt lat="41.579889" lon="-4.999144">
        <ele>771.937</ele>
        <time>2021-10-15T15:24:40Z</time>
      </trkpt>
      <trkpt lat="41.579623" lon="-4.999154">
        <ele>772.841</ele>
        <time>2021-10-15T15:24:41Z</time>
      </trkpt>
      <trkpt lat="41.579098" lon="-4.999198">
        <ele>773.856</ele>
        <time>2021-10-15T15:24:43Z</time>
      </trkpt>
      <trkpt lat="41.578829" lon="-4.999228">
        <ele>774.124</ele>
        <time>2021-10-15T15:24:44Z</time>
      </trkpt>
      <trkpt lat="41.578310" lon="-4.999284">
        <ele>773.827</ele>
        <time>2021-10-15T15:24:46Z</time>
      </trkpt>
      <trkpt lat="41.577775" lon="-4.999340">
        <ele>773.632</ele>
        <time>2021-10-15T15:24:48Z</time>
      </trkpt>
      <trkpt lat="41.577504" lon="-4.999368">
        <ele>773.846</ele>
        <time>2021-10-15T15:24:49Z</time>
      </trkpt>
      <trkpt lat="41.577225" lon="-4.999399">
        <ele>773.988</ele>
        <time>2021-10-15T15:24:50Z</time>
      </trkpt>
      <trkpt lat="41.576689" lon="-4.999467">
        <ele>773.716</ele>
        <time>2021-10-15T15:24:52Z</time>
      </trkpt>
      <trkpt lat="41.576415" lon="-4.999495">
        <ele>774.008</ele>
        <time>2021-10-15T15:24:53Z</time>
      </trkpt>
      <trkpt lat="41.576139" lon="-4.999522">
        <ele>773.892</ele>
        <time>2021-10-15T15:24:54Z</time>
      </trkpt>
      <trkpt lat="41.575575" lon="-4.999572">
        <ele>773.630</ele>
        <time>2021-10-15T15:24:56Z</time>
      </trkpt>
      <trkpt lat="41.575026" lon="-4.999625">
        <ele>773.268</ele>
        <time>2021-10-15T15:24:58Z</time>
      </trkpt>
      <trkpt lat="41.574466" lon="-4.999684">
        <ele>772.892</ele>
        <time>2021-10-15T15:25:00Z</time>
      </trkpt>
      <trkpt lat="41.573901" lon="-4.999744">
        <ele>772.937</ele>
        <time>2021-10-15T15:25:02Z</time>
      </trkpt>
      <trkpt lat="41.573357" lon="-4.999806">
        <ele>771.795</ele>
        <time>2021-10-15T15:25:04Z</time>
      </trkpt>
      <trkpt lat="41.572805" lon="-4.999870">
        <ele>771.728</ele>
        <time>2021-10-15T15:25:06Z</time>
      </trkpt>
      <trkpt lat="41.572250" lon="-4.999925">
        <ele>771.083</ele>
        <time>2021-10-15T15:25:08Z</time>
      </trkpt>
      <trkpt lat="41.571719" lon="-4.999977">
        <ele>771.521</ele>
        <time>2021-10-15T15:25:10Z</time>
      </trkpt>
      <trkpt lat="41.571448" lon="-5.000005">
        <ele>771.441</ele>
        <time>2021-10-15T15:25:11Z</time>
      </trkpt>
      <trkpt lat="41.570915" lon="-5.000062">
        <ele>770.705</ele>
        <time>2021-10-15T15:25:13Z</time>
      </trkpt>
      <trkpt lat="41.570642" lon="-5.000091">
        <ele>771.108</ele>
        <time>2021-10-15T15:25:14Z</time>
      </trkpt>
      <trkpt lat="41.570123" lon="-5.000144">
        <ele>770.750</ele>
        <time>2021-10-15T15:25:16Z</time>
      </trkpt>
      <trkpt lat="41.569603" lon="-5.000199">
        <ele>771.488</ele>
        <time>2021-10-15T15:25:18Z</time>
      </trkpt>
      <trkpt lat="41.569342" lon="-5.000236">
        <ele>771.236</ele>
        <time>2021-10-15T15:25:19Z</time>
      </trkpt>
      <trkpt lat="41.569076" lon="-5.000290">
        <ele>771.340</ele>
        <time>2021-10-15T15:25:20Z</time>
      </trkpt>
      <trkpt lat="41.568571" lon="-5.000478">
        <ele>770.935</ele>
        <time>2021-10-15T15:25:22Z</time>
      </trkpt>
      <trkpt lat="41.568315" lon="-5.000622">
        <ele>771.493</ele>
        <time>2021-10-15T15:25:23Z</time>
      </trkpt>
      <trkpt lat="41.567841" lon="-5.000966">
        <ele>770.496</ele>
        <time>2021-10-15T15:25:25Z</time>
      </trkpt>
      <trkpt lat="41.567616" lon="-5.001143">
        <ele>769.551</ele>
        <time>2021-10-15T15:25:26Z</time>
      </trkpt>
      <trkpt lat="41.567206" lon="-5.001460">
        <ele>767.582</ele>
        <time>2021-10-15T15:25:28Z</time>
      </trkpt>
      <trkpt lat="41.566798" lon="-5.001768">
        <ele>764.843</ele>
        <time>2021-10-15T15:25:30Z</time>
      </trkpt>
      <trkpt lat="41.566593" lon="-5.001916">
        <ele>763.717</ele>
        <time>2021-10-15T15:25:31Z</time>
      </trkpt>
      <trkpt lat="41.566386" lon="-5.002067">
        <ele>762.608</ele>
        <time>2021-10-15T15:25:32Z</time>
      </trkpt>
      <trkpt lat="41.565993" lon="-5.002360">
        <ele>760.236</ele>
        <time>2021-10-15T15:25:34Z</time>
      </trkpt>
      <trkpt lat="41.565790" lon="-5.002510">
        <ele>758.524</ele>
        <time>2021-10-15T15:25:35Z</time>
      </trkpt>
      <trkpt lat="41.565379" lon="-5.002805">
        <ele>755.562</ele>
        <time>2021-10-15T15:25:37Z</time>
      </trkpt>
      <trkpt lat="41.565167" lon="-5.002959">
        <ele>754.366</ele>
        <time>2021-10-15T15:25:38Z</time>
      </trkpt>
      <trkpt lat="41.564761" lon="-5.003258">
        <ele>751.671</ele>
        <time>2021-10-15T15:25:40Z</time>
      </trkpt>
      <trkpt lat="41.564551" lon="-5.003413">
        <ele>749.889</ele>
        <time>2021-10-15T15:25:41Z</time>
      </trkpt>
      <trkpt lat="41.564350" lon="-5.003565">
        <ele>749.022</ele>
        <time>2021-10-15T15:25:42Z</time>
      </trkpt>
      <trkpt lat="41.563958" lon="-5.003849">
        <ele>746.847</ele>
        <time>2021-10-15T15:25:44Z</time>
      </trkpt>
      <trkpt lat="41.563584" lon="-5.004122">
        <ele>744.622</ele>
        <time>2021-10-15T15:25:46Z</time>
      </trkpt>
      <trkpt lat="41.563213" lon="-5.004394">
        <ele>745.062</ele>
        <time>2021-10-15T15:25:48Z</time>
      </trkpt>
      <trkpt lat="41.563039" lon="-5.004524">
        <ele>745.208</ele>
        <time>2021-10-15T15:25:49Z</time>
      </trkpt>
      <trkpt lat="41.562872" lon="-5.004653">
        <ele>744.508</ele>
        <time>2021-10-15T15:25:50Z</time>
      </trkpt>
      <trkpt lat="41.562562" lon="-5.004874">
        <ele>743.760</ele>
        <time>2021-10-15T15:25:52Z</time>
      </trkpt>
      <trkpt lat="41.562251" lon="-5.005013">
        <ele>743.048</ele>
        <time>2021-10-15T15:25:54Z</time>
      </trkpt>
      <trkpt lat="41.562086" lon="-5.005039">
        <ele>742.876</ele>
        <time>2021-10-15T15:25:55Z</time>
      </trkpt>
      <trkpt lat="41.561912" lon="-5.005028">
        <ele>741.930</ele>
        <time>2021-10-15T15:25:56Z</time>
      </trkpt>
      <trkpt lat="41.561553" lon="-5.004915">
        <ele>740.525</ele>
        <time>2021-10-15T15:25:58Z</time>
      </trkpt>
      <trkpt lat="41.561359" lon="-5.004837">
        <ele>739.083</ele>
        <time>2021-10-15T15:25:59Z</time>
      </trkpt>
      <trkpt lat="41.560981" lon="-5.004691">
        <ele>736.316</ele>
        <time>2021-10-15T15:26:01Z</time>
      </trkpt>
      <trkpt lat="41.560800" lon="-5.004622">
        <ele>735.031</ele>
        <time>2021-10-15T15:26:02Z</time>
      </trkpt>
      <trkpt lat="41.560508" lon="-5.004546">
        <ele>733.277</ele>
        <time>2021-10-15T15:26:04Z</time>
      </trkpt>
      <trkpt lat="41.560278" lon="-5.004601">
        <ele>732.461</ele>
        <time>2021-10-15T15:26:06Z</time>
      </trkpt>
      <trkpt lat="41.560096" lon="-5.004764">
        <ele>730.727</ele>
        <time>2021-10-15T15:26:08Z</time>
      </trkpt>
      <trkpt lat="41.559945" lon="-5.004891">
        <ele>728.008</ele>
        <time>2021-10-15T15:26:10Z</time>
      </trkpt>
      <trkpt lat="41.559773" lon="-5.004923">
        <ele>726.565</ele>
        <time>2021-10-15T15:26:12Z</time>
      </trkpt>
      <trkpt lat="41.559565" lon="-5.004851">
        <ele>725.843</ele>
        <time>2021-10-15T15:26:14Z</time>
      </trkpt>
      <trkpt lat="41.559348" lon="-5.004769">
        <ele>722.241</ele>
        <time>2021-10-15T15:26:16Z</time>
      </trkpt>
      <trkpt lat="41.559142" lon="-5.004760">
        <ele>721.325</ele>
        <time>2021-10-15T15:26:18Z</time>
      </trkpt>
      <trkpt lat="41.559041" lon="-5.004771">
        <ele>720.050</ele>
        <time>2021-10-15T15:26:19Z</time>
      </trkpt>
      <trkpt lat="41.558935" lon="-5.004792">
        <ele>717.678</ele>
        <time>2021-10-15T15:26:20Z</time>
      </trkpt>
      <trkpt lat="41.558726" lon="-5.004865">
        <ele>716.091</ele>
        <time>2021-10-15T15:26:22Z</time>
      </trkpt>
      <trkpt lat="41.558535" lon="-5.004912">
        <ele>715.726</ele>
        <time>2021-10-15T15:26:24Z</time>
      </trkpt>
      <trkpt lat="41.558447" lon="-5.004930">
        <ele>715.213</ele>
        <time>2021-10-15T15:26:25Z</time>
      </trkpt>
      <trkpt lat="41.558359" lon="-5.004943">
        <ele>714.943</ele>
        <time>2021-10-15T15:26:26Z</time>
      </trkpt>
      <trkpt lat="41.558195" lon="-5.004922">
        <ele>714.407</ele>
        <time>2021-10-15T15:26:28Z</time>
      </trkpt>
      <trkpt lat="41.558108" lon="-5.004878">
        <ele>714.208</ele>
        <time>2021-10-15T15:26:29Z</time>
      </trkpt>
      <trkpt lat="41.557926" lon="-5.004695">
        <ele>713.879</ele>
        <time>2021-10-15T15:26:31Z</time>
      </trkpt>
      <trkpt lat="41.557839" lon="-5.004590">
        <ele>713.877</ele>
        <time>2021-10-15T15:26:32Z</time>
      </trkpt>
      <trkpt lat="41.557660" lon="-5.004441">
        <ele>712.225</ele>
        <time>2021-10-15T15:26:34Z</time>
      </trkpt>
      <trkpt lat="41.557442" lon="-5.004341">
        <ele>710.539</ele>
        <time>2021-10-15T15:26:36Z</time>
      </trkpt>
      <trkpt lat="41.557321" lon="-5.004299">
        <ele>710.474</ele>
        <time>2021-10-15T15:26:37Z</time>
      </trkpt>
      <trkpt lat="41.557190" lon="-5.004271">
        <ele>710.542</ele>
        <time>2021-10-15T15:26:38Z</time>
      </trkpt>
      <trkpt lat="41.556907" lon="-5.004322">
        <ele>711.125</ele>
        <time>2021-10-15T15:26:40Z</time>
      </trkpt>
      <trkpt lat="41.556730" lon="-5.004411">
        <ele>708.770</ele>
        <time>2021-10-15T15:26:41Z</time>
      </trkpt>
      <trkpt lat="41.556288" lon="-5.004618">
        <ele>706.279</ele>
        <time>2021-10-15T15:26:43Z</time>
      </trkpt>
      <trkpt lat="41.556052" lon="-5.004702">
        <ele>705.005</ele>
        <time>2021-10-15T15:26:44Z</time>
      </trkpt>
      <trkpt lat="41.555582" lon="-5.004834">
        <ele>702.625</ele>
        <time>2021-10-15T15:26:46Z</time>
      </trkpt>
      <trkpt lat="41.555325" lon="-5.004897">
        <ele>701.508</ele>
        <time>2021-10-15T15:26:47Z</time>
      </trkpt>
      <trkpt lat="41.555076" lon="-5.004958">
        <ele>700.135</ele>
        <time>2021-10-15T15:26:48Z</time>
      </trkpt>
      <trkpt lat="41.554829" lon="-5.005017">
        <ele>697.493</ele>
        <time>2021-10-15T15:26:49Z</time>
      </trkpt>
      <trkpt lat="41.554572" lon="-5.005079">
        <ele>695.581</ele>
        <time>2021-10-15T15:26:50Z</time>
      </trkpt>
      <trkpt lat="41.554066" lon="-5.005202">
        <ele>690.775</ele>
        <time>2021-10-15T15:26:52Z</time>
      </trkpt>
      <trkpt lat="41.553806" lon="-5.005264">
        <ele>689.680</ele>
        <time>2021-10-15T15:26:53Z</time>
      </trkpt>
      <trkpt lat="41.553288" lon="-5.005389">
        <ele>687.498</ele>
        <time>2021-10-15T15:26:55Z</time>
      </trkpt>
      <trkpt lat="41.553027" lon="-5.005453">
        <ele>686.461</ele>
        <time>2021-10-15T15:26:56Z</time>
      </trkpt>
      <trkpt lat="41.552528" lon="-5.005577">
        <ele>684.026</ele>
        <time>2021-10-15T15:26:58Z</time>
      </trkpt>
      <trkpt lat="41.552266" lon="-5.005643">
        <ele>682.967</ele>
        <time>2021-10-15T15:26:59Z</time>
      </trkpt>
      <trkpt lat="41.551754" lon="-5.005778">
        <ele>681.781</ele>
        <time>2021-10-15T15:27:01Z</time>
      </trkpt>
      <trkpt lat="41.551484" lon="-5.005847">
        <ele>679.619</ele>
        <time>2021-10-15T15:27:02Z</time>
      </trkpt>
      <trkpt lat="41.550971" lon="-5.005967">
        <ele>677.508</ele>
        <time>2021-10-15T15:27:04Z</time>
      </trkpt>
      <trkpt lat="41.550703" lon="-5.006024">
        <ele>675.854</ele>
        <time>2021-10-15T15:27:05Z</time>
      </trkpt>
      <trkpt lat="41.550162" lon="-5.006145">
        <ele>672.812</ele>
        <time>2021-10-15T15:27:07Z</time>
      </trkpt>
      <trkpt lat="41.549878" lon="-5.006215">
        <ele>672.370</ele>
        <time>2021-10-15T15:27:08Z</time>
      </trkpt>
      <trkpt lat="41.549314" lon="-5.006354">
        <ele>671.124</ele>
        <time>2021-10-15T15:27:10Z</time>
      </trkpt>
      <trkpt lat="41.548729" lon="-5.006499">
        <ele>671.379</ele>
        <time>2021-10-15T15:27:12Z</time>
      </trkpt>
      <trkpt lat="41.548149" lon="-5.006653">
        <ele>671.087</ele>
        <time>2021-10-15T15:27:14Z</time>
      </trkpt>
      <trkpt lat="41.547586" lon="-5.006825">
        <ele>667.920</ele>
        <time>2021-10-15T15:27:16Z</time>
      </trkpt>
      <trkpt lat="41.546992" lon="-5.007028">
        <ele>663.725</ele>
        <time>2021-10-15T15:27:18Z</time>
      </trkpt>
      <trkpt lat="41.546380" lon="-5.007237">
        <ele>661.425</ele>
        <time>2021-10-15T15:27:20Z</time>
      </trkpt>
      <trkpt lat="41.545778" lon="-5.007446">
        <ele>657.326</ele>
        <time>2021-10-15T15:27:22Z</time>
      </trkpt>
      <trkpt lat="41.545469" lon="-5.007555">
        <ele>656.308</ele>
        <time>2021-10-15T15:27:23Z</time>
      </trkpt>
      <trkpt lat="41.544864" lon="-5.007769">
        <ele>655.708</ele>
        <time>2021-10-15T15:27:25Z</time>
      </trkpt>
      <trkpt lat="41.544552" lon="-5.007879">
        <ele>655.330</ele>
        <time>2021-10-15T15:27:26Z</time>
      </trkpt>
      <trkpt lat="41.543971" lon="-5.008083">
        <ele>653.628</ele>
        <time>2021-10-15T15:27:28Z</time>
      </trkpt>
      <trkpt lat="41.543673" lon="-5.008186">
        <ele>652.536</ele>
        <time>2021-10-15T15:27:29Z</time>
      </trkpt>
      <trkpt lat="41.543085" lon="-5.008388">
        <ele>651.390</ele>
        <time>2021-10-15T15:27:31Z</time>
      </trkpt>
      <trkpt lat="41.542786" lon="-5.008492">
        <ele>651.245</ele>
        <time>2021-10-15T15:27:32Z</time>
      </trkpt>
      <trkpt lat="41.542235" lon="-5.008692">
        <ele>650.783</ele>
        <time>2021-10-15T15:27:34Z</time>
      </trkpt>
      <trkpt lat="41.541956" lon="-5.008788">
        <ele>650.996</ele>
        <time>2021-10-15T15:27:35Z</time>
      </trkpt>
      <trkpt lat="41.541680" lon="-5.008884">
        <ele>651.761</ele>
        <time>2021-10-15T15:27:36Z</time>
      </trkpt>
      <trkpt lat="41.541154" lon="-5.009067">
        <ele>653.813</ele>
        <time>2021-10-15T15:27:38Z</time>
      </trkpt>
      <trkpt lat="41.540666" lon="-5.009258">
        <ele>654.143</ele>
        <time>2021-10-15T15:27:40Z</time>
      </trkpt>
      <trkpt lat="41.540418" lon="-5.009403">
        <ele>654.707</ele>
        <time>2021-10-15T15:27:41Z</time>
      </trkpt>
      <trkpt lat="41.540177" lon="-5.009585">
        <ele>655.508</ele>
        <time>2021-10-15T15:27:42Z</time>
      </trkpt>
      <trkpt lat="41.539948" lon="-5.009786">
        <ele>655.519</ele>
        <time>2021-10-15T15:27:43Z</time>
      </trkpt>
      <trkpt lat="41.539733" lon="-5.009984">
        <ele>655.327</ele>
        <time>2021-10-15T15:27:44Z</time>
      </trkpt>
      <trkpt lat="41.539316" lon="-5.010326">
        <ele>654.865</ele>
        <time>2021-10-15T15:27:46Z</time>
      </trkpt>
      <trkpt lat="41.539092" lon="-5.010456">
        <ele>654.139</ele>
        <time>2021-10-15T15:27:47Z</time>
      </trkpt>
      <trkpt lat="41.538587" lon="-5.010613">
        <ele>651.844</ele>
        <time>2021-10-15T15:27:49Z</time>
      </trkpt>
      <trkpt lat="41.538296" lon="-5.010637">
        <ele>651.192</ele>
        <time>2021-10-15T15:27:50Z</time>
      </trkpt>
      <trkpt lat="41.537716" lon="-5.010658">
        <ele>649.415</ele>
        <time>2021-10-15T15:27:52Z</time>
      </trkpt>
      <trkpt lat="41.537422" lon="-5.010671">
        <ele>649.020</ele>
        <time>2021-10-15T15:27:53Z</time>
      </trkpt>
      <trkpt lat="41.537132" lon="-5.010683">
        <ele>648.067</ele>
        <time>2021-10-15T15:27:54Z</time>
      </trkpt>
      <trkpt lat="41.536845" lon="-5.010688">
        <ele>647.281</ele>
        <time>2021-10-15T15:27:55Z</time>
      </trkpt>
      <trkpt lat="41.536552" lon="-5.010686">
        <ele>647.019</ele>
        <time>2021-10-15T15:27:56Z</time>
      </trkpt>
      <trkpt lat="41.536002" lon="-5.010648">
        <ele>646.908</ele>
        <time>2021-10-15T15:27:58Z</time>
      </trkpt>
      <trkpt lat="41.535716" lon="-5.010624">
        <ele>646.824</ele>
        <time>2021-10-15T15:27:59Z</time>
      </trkpt>
      <trkpt lat="41.535162" lon="-5.010577">
        <ele>646.062</ele>
        <time>2021-10-15T15:28:01Z</time>
      </trkpt>
      <trkpt lat="41.534897" lon="-5.010554">
        <ele>645.540</ele>
        <time>2021-10-15T15:28:02Z</time>
      </trkpt>
      <trkpt lat="41.534426" lon="-5.010503">
        <ele>645.664</ele>
        <time>2021-10-15T15:28:04Z</time>
      </trkpt>
      <trkpt lat="41.534181" lon="-5.010449">
        <ele>644.989</ele>
        <time>2021-10-15T15:28:05Z</time>
      </trkpt>
      <trkpt lat="41.533689" lon="-5.010212">
        <ele>645.147</ele>
        <time>2021-10-15T15:28:07Z</time>
      </trkpt>
      <trkpt lat="41.533436" lon="-5.010029">
        <ele>644.620</ele>
        <time>2021-10-15T15:28:08Z</time>
      </trkpt>
      <trkpt lat="41.532935" lon="-5.009622">
        <ele>644.165</ele>
        <time>2021-10-15T15:28:10Z</time>
      </trkpt>
      <trkpt lat="41.532415" lon="-5.009180">
        <ele>642.852</ele>
        <time>2021-10-15T15:28:12Z</time>
      </trkpt>
      <trkpt lat="41.532154" lon="-5.008958">
        <ele>642.053</ele>
        <time>2021-10-15T15:28:13Z</time>
      </trkpt>
      <trkpt lat="41.531888" lon="-5.008733">
        <ele>641.408</ele>
        <time>2021-10-15T15:28:14Z</time>
      </trkpt>
      <trkpt lat="41.531384" lon="-5.008313">
        <ele>640.908</ele>
        <time>2021-10-15T15:28:16Z</time>
      </trkpt>
      <trkpt lat="41.531127" lon="-5.008103">
        <ele>641.213</ele>
        <time>2021-10-15T15:28:17Z</time>
      </trkpt>
      <trkpt lat="41.530874" lon="-5.007895">
        <ele>641.941</ele>
        <time>2021-10-15T15:28:18Z</time>
      </trkpt>
      <trkpt lat="41.530626" lon="-5.007691">
        <ele>642.059</ele>
        <time>2021-10-15T15:28:19Z</time>
      </trkpt>
      <trkpt lat="41.530377" lon="-5.007487">
        <ele>642.813</ele>
        <time>2021-10-15T15:28:20Z</time>
      </trkpt>
      <trkpt lat="41.529910" lon="-5.007107">
        <ele>646.518</ele>
        <time>2021-10-15T15:28:22Z</time>
      </trkpt>
      <trkpt lat="41.529682" lon="-5.006920">
        <ele>648.316</ele>
        <time>2021-10-15T15:28:23Z</time>
      </trkpt>
      <trkpt lat="41.529247" lon="-5.006562">
        <ele>650.869</ele>
        <time>2021-10-15T15:28:25Z</time>
      </trkpt>
      <trkpt lat="41.529030" lon="-5.006383">
        <ele>651.854</ele>
        <time>2021-10-15T15:28:26Z</time>
      </trkpt>
      <trkpt lat="41.528614" lon="-5.006043">
        <ele>653.143</ele>
        <time>2021-10-15T15:28:28Z</time>
      </trkpt>
      <trkpt lat="41.528171" lon="-5.005745">
        <ele>653.764</ele>
        <time>2021-10-15T15:28:30Z</time>
      </trkpt>
      <trkpt lat="41.527647" lon="-5.005556">
        <ele>653.710</ele>
        <time>2021-10-15T15:28:32Z</time>
      </trkpt>
      <trkpt lat="41.527098" lon="-5.005408">
        <ele>651.508</ele>
        <time>2021-10-15T15:28:34Z</time>
      </trkpt>
      <trkpt lat="41.526542" lon="-5.005254">
        <ele>649.162</ele>
        <time>2021-10-15T15:28:36Z</time>
      </trkpt>
      <trkpt lat="41.526263" lon="-5.005176">
        <ele>648.030</ele>
        <time>2021-10-15T15:28:37Z</time>
      </trkpt>
      <trkpt lat="41.525974" lon="-5.005091">
        <ele>646.718</ele>
        <time>2021-10-15T15:28:38Z</time>
      </trkpt>
      <trkpt lat="41.525407" lon="-5.004932">
        <ele>645.112</ele>
        <time>2021-10-15T15:28:40Z</time>
      </trkpt>
      <trkpt lat="41.524822" lon="-5.004772">
        <ele>644.097</ele>
        <time>2021-10-15T15:28:42Z</time>
      </trkpt>
      <trkpt lat="41.524227" lon="-5.004609">
        <ele>641.875</ele>
        <time>2021-10-15T15:28:44Z</time>
      </trkpt>
      <trkpt lat="41.523664" lon="-5.004444">
        <ele>641.688</ele>
        <time>2021-10-15T15:28:46Z</time>
      </trkpt>
      <trkpt lat="41.523381" lon="-5.004359">
        <ele>641.563</ele>
        <time>2021-10-15T15:28:47Z</time>
      </trkpt>
      <trkpt lat="41.522821" lon="-5.004205">
        <ele>639.028</ele>
        <time>2021-10-15T15:28:49Z</time>
      </trkpt>
      <trkpt lat="41.522537" lon="-5.004127">
        <ele>638.689</ele>
        <time>2021-10-15T15:28:50Z</time>
      </trkpt>
      <trkpt lat="41.522000" lon="-5.003980">
        <ele>637.417</ele>
        <time>2021-10-15T15:28:52Z</time>
      </trkpt>
      <trkpt lat="41.521466" lon="-5.003832">
        <ele>637.008</ele>
        <time>2021-10-15T15:28:54Z</time>
      </trkpt>
      <trkpt lat="41.521205" lon="-5.003759">
        <ele>636.370</ele>
        <time>2021-10-15T15:28:55Z</time>
      </trkpt>
      <trkpt lat="41.520942" lon="-5.003687">
        <ele>635.718</ele>
        <time>2021-10-15T15:28:56Z</time>
      </trkpt>
      <trkpt lat="41.520472" lon="-5.003557">
        <ele>636.096</ele>
        <time>2021-10-15T15:28:58Z</time>
      </trkpt>
      <trkpt lat="41.520243" lon="-5.003490">
        <ele>636.350</ele>
        <time>2021-10-15T15:28:59Z</time>
      </trkpt>
      <trkpt lat="41.519801" lon="-5.003361">
        <ele>634.185</ele>
        <time>2021-10-15T15:29:01Z</time>
      </trkpt>
      <trkpt lat="41.519587" lon="-5.003300">
        <ele>634.683</ele>
        <time>2021-10-15T15:29:02Z</time>
      </trkpt>
      <trkpt lat="41.519194" lon="-5.003193">
        <ele>634.646</ele>
        <time>2021-10-15T15:29:04Z</time>
      </trkpt>
      <trkpt lat="41.518795" lon="-5.003081">
        <ele>633.941</ele>
        <time>2021-10-15T15:29:06Z</time>
      </trkpt>
      <trkpt lat="41.518597" lon="-5.003027">
        <ele>633.977</ele>
        <time>2021-10-15T15:29:07Z</time>
      </trkpt>
      <trkpt lat="41.518401" lon="-5.002974">
        <ele>633.561</ele>
        <time>2021-10-15T15:29:08Z</time>
      </trkpt>
      <trkpt lat="41.518034" lon="-5.002873">
        <ele>633.727</ele>
        <time>2021-10-15T15:29:10Z</time>
      </trkpt>
      <trkpt lat="41.517848" lon="-5.002819">
        <ele>632.508</ele>
        <time>2021-10-15T15:29:11Z</time>
      </trkpt>
      <trkpt lat="41.517507" lon="-5.002726">
        <ele>632.415</ele>
        <time>2021-10-15T15:29:13Z</time>
      </trkpt>
      <trkpt lat="41.517348" lon="-5.002682">
        <ele>631.933</ele>
        <time>2021-10-15T15:29:14Z</time>
      </trkpt>
      <trkpt lat="41.517075" lon="-5.002601">
        <ele>631.971</ele>
        <time>2021-10-15T15:29:16Z</time>
      </trkpt>
      <trkpt lat="41.516953" lon="-5.002566">
        <ele>632.095</ele>
        <time>2021-10-15T15:29:17Z</time>
      </trkpt>
      <trkpt lat="41.516748" lon="-5.002523">
        <ele>631.280</ele>
        <time>2021-10-15T15:29:19Z</time>
      </trkpt>
      <trkpt lat="41.516668" lon="-5.002513">
        <ele>631.278</ele>
        <time>2021-10-15T15:29:20Z</time>
      </trkpt>
      <trkpt lat="41.516572" lon="-5.002524">
        <ele>631.781</ele>
        <time>2021-10-15T15:29:22Z</time>
      </trkpt>
      <trkpt lat="41.516518" lon="-5.002561">
        <ele>631.666</ele>
        <time>2021-10-15T15:29:24Z</time>
      </trkpt>
      <trkpt lat="41.516417" lon="-5.002632">
        <ele>631.765</ele>
        <time>2021-10-15T15:29:26Z</time>
      </trkpt>
      <trkpt lat="41.516225" lon="-5.002694">
        <ele>631.868</ele>
        <time>2021-10-15T15:29:28Z</time>
      </trkpt>
      <trkpt lat="41.516027" lon="-5.002622">
        <ele>631.814</ele>
        <time>2021-10-15T15:29:30Z</time>
      </trkpt>
      <trkpt lat="41.515936" lon="-5.002529">
        <ele>631.808</ele>
        <time>2021-10-15T15:29:31Z</time>
      </trkpt>
      <trkpt lat="41.515834" lon="-5.002410">
        <ele>632.324</ele>
        <time>2021-10-15T15:29:32Z</time>
      </trkpt>
      <trkpt lat="41.515564" lon="-5.002195">
        <ele>633.352</ele>
        <time>2021-10-15T15:29:34Z</time>
      </trkpt>
      <trkpt lat="41.515375" lon="-5.002130">
        <ele>632.990</ele>
        <time>2021-10-15T15:29:35Z</time>
      </trkpt>
      <trkpt lat="41.514971" lon="-5.002026">
        <ele>633.044</ele>
        <time>2021-10-15T15:29:37Z</time>
      </trkpt>
      <trkpt lat="41.514752" lon="-5.001960">
        <ele>633.539</ele>
        <time>2021-10-15T15:29:38Z</time>
      </trkpt>
      <trkpt lat="41.514291" lon="-5.001833">
        <ele>636.337</ele>
        <time>2021-10-15T15:29:40Z</time>
      </trkpt>
      <trkpt lat="41.513812" lon="-5.001697">
        <ele>637.560</ele>
        <time>2021-10-15T15:29:42Z</time>
      </trkpt>
      <trkpt lat="41.513581" lon="-5.001631">
        <ele>638.685</ele>
        <time>2021-10-15T15:29:43Z</time>
      </trkpt>
      <trkpt lat="41.513361" lon="-5.001572">
        <ele>639.533</ele>
        <time>2021-10-15T15:29:44Z</time>
      </trkpt>
      <trkpt lat="41.512974" lon="-5.001471">
        <ele>639.323</ele>
        <time>2021-10-15T15:29:46Z</time>
      </trkpt>
      <trkpt lat="41.512591" lon="-5.001369">
        <ele>638.515</ele>
        <time>2021-10-15T15:29:48Z</time>
      </trkpt>
      <trkpt lat="41.512187" lon="-5.001255">
        <ele>637.108</ele>
        <time>2021-10-15T15:29:50Z</time>
      </trkpt>
      <trkpt lat="41.511801" lon="-5.001150">
        <ele>634.411</ele>
        <time>2021-10-15T15:29:52Z</time>
      </trkpt>
      <trkpt lat="41.511599" lon="-5.001092">
        <ele>634.229</ele>
        <time>2021-10-15T15:29:53Z</time>
      </trkpt>
      <trkpt lat="41.511208" lon="-5.000989">
        <ele>632.997</ele>
        <time>2021-10-15T15:29:55Z</time>
      </trkpt>
      <trkpt lat="41.511026" lon="-5.000941">
        <ele>632.171</ele>
        <time>2021-10-15T15:29:56Z</time>
      </trkpt>
      <trkpt lat="41.510704" lon="-5.000854">
        <ele>631.326</ele>
        <time>2021-10-15T15:29:58Z</time>
      </trkpt>
      <trkpt lat="41.510541" lon="-5.000810">
        <ele>631.214</ele>
        <time>2021-10-15T15:29:59Z</time>
      </trkpt>
      <trkpt lat="41.510211" lon="-5.000721">
        <ele>631.117</ele>
        <time>2021-10-15T15:30:01Z</time>
      </trkpt>
      <trkpt lat="41.510033" lon="-5.000671">
        <ele>631.062</ele>
        <time>2021-10-15T15:30:02Z</time>
      </trkpt>
      <trkpt lat="41.509700" lon="-5.000574">
        <ele>631.148</ele>
        <time>2021-10-15T15:30:04Z</time>
      </trkpt>
      <trkpt lat="41.509543" lon="-5.000534">
        <ele>630.961</ele>
        <time>2021-10-15T15:30:05Z</time>
      </trkpt>
      <trkpt lat="41.509398" lon="-5.000495">
        <ele>631.017</ele>
        <time>2021-10-15T15:30:06Z</time>
      </trkpt>
      <trkpt lat="41.509122" lon="-5.000417">
        <ele>630.808</ele>
        <time>2021-10-15T15:30:08Z</time>
      </trkpt>
      <trkpt lat="41.508877" lon="-5.000350">
        <ele>630.812</ele>
        <time>2021-10-15T15:30:10Z</time>
      </trkpt>
      <trkpt lat="41.508654" lon="-5.000297">
        <ele>632.620</ele>
        <time>2021-10-15T15:30:12Z</time>
      </trkpt>
      <trkpt lat="41.508424" lon="-5.000236">
        <ele>633.748</ele>
        <time>2021-10-15T15:30:14Z</time>
      </trkpt>
      <trkpt lat="41.508169" lon="-5.000163">
        <ele>633.712</ele>
        <time>2021-10-15T15:30:16Z</time>
      </trkpt>
      <trkpt lat="41.508029" lon="-5.000126">
        <ele>633.737</ele>
        <time>2021-10-15T15:30:17Z</time>
      </trkpt>
      <trkpt lat="41.507884" lon="-5.000084">
        <ele>632.925</ele>
        <time>2021-10-15T15:30:18Z</time>
      </trkpt>
      <trkpt lat="41.507579" lon="-4.999987">
        <ele>634.028</ele>
        <time>2021-10-15T15:30:20Z</time>
      </trkpt>
      <trkpt lat="41.507286" lon="-4.999898">
        <ele>633.753</ele>
        <time>2021-10-15T15:30:22Z</time>
      </trkpt>
      <trkpt lat="41.506987" lon="-4.999810">
        <ele>633.697</ele>
        <time>2021-10-15T15:30:24Z</time>
      </trkpt>
      <trkpt lat="41.506673" lon="-4.999727">
        <ele>633.523</ele>
        <time>2021-10-15T15:30:26Z</time>
      </trkpt>
      <trkpt lat="41.506401" lon="-4.999652">
        <ele>634.025</ele>
        <time>2021-10-15T15:30:28Z</time>
      </trkpt>
      <trkpt lat="41.506273" lon="-4.999614">
        <ele>634.208</ele>
        <time>2021-10-15T15:30:29Z</time>
      </trkpt>
      <trkpt lat="41.506151" lon="-4.999579">
        <ele>634.847</ele>
        <time>2021-10-15T15:30:30Z</time>
      </trkpt>
      <trkpt lat="41.506034" lon="-4.999549">
        <ele>634.585</ele>
        <time>2021-10-15T15:30:31Z</time>
      </trkpt>
      <trkpt lat="41.505922" lon="-4.999523">
        <ele>634.623</ele>
        <time>2021-10-15T15:30:32Z</time>
      </trkpt>
      <trkpt lat="41.505720" lon="-4.999476">
        <ele>635.517</ele>
        <time>2021-10-15T15:30:34Z</time>
      </trkpt>
      <trkpt lat="41.505544" lon="-4.999430">
        <ele>636.592</ele>
        <time>2021-10-15T15:30:36Z</time>
      </trkpt>
      <trkpt lat="41.505467" lon="-4.999409">
        <ele>636.570</ele>
        <time>2021-10-15T15:30:37Z</time>
      </trkpt>
      <trkpt lat="41.505390" lon="-4.999395">
        <ele>636.523</ele>
        <time>2021-10-15T15:30:38Z</time>
      </trkpt>
      <trkpt lat="41.505211" lon="-4.999382">
        <ele>635.658</ele>
        <time>2021-10-15T15:30:40Z</time>
      </trkpt>
      <trkpt lat="41.505111" lon="-4.999389">
        <ele>634.766</ele>
        <time>2021-10-15T15:30:41Z</time>
      </trkpt>
      <trkpt lat="41.504920" lon="-4.999428">
        <ele>635.229</ele>
        <time>2021-10-15T15:30:43Z</time>
      </trkpt>
      <trkpt lat="41.504828" lon="-4.999456">
        <ele>635.421</ele>
        <time>2021-10-15T15:30:44Z</time>
      </trkpt>
      <trkpt lat="41.504671" lon="-4.999510">
        <ele>636.308</ele>
        <time>2021-10-15T15:30:46Z</time>
      </trkpt>
      <trkpt lat="41.504537" lon="-4.999559">
        <ele>636.774</ele>
        <time>2021-10-15T15:30:48Z</time>
      </trkpt>
      <trkpt lat="41.504471" lon="-4.999581">
        <ele>636.792</ele>
        <time>2021-10-15T15:30:49Z</time>
      </trkpt>
      <trkpt lat="41.504398" lon="-4.999607">
        <ele>637.390</ele>
        <time>2021-10-15T15:30:50Z</time>
      </trkpt>
      <trkpt lat="41.504239" lon="-4.999665">
        <ele>638.134</ele>
        <time>2021-10-15T15:30:52Z</time>
      </trkpt>
      <trkpt lat="41.504071" lon="-4.999729">
        <ele>638.649</ele>
        <time>2021-10-15T15:30:54Z</time>
      </trkpt>
      <trkpt lat="41.503990" lon="-4.999758">
        <ele>639.077</ele>
        <time>2021-10-15T15:30:55Z</time>
      </trkpt>
      <trkpt lat="41.503914" lon="-4.999786">
        <ele>639.070</ele>
        <time>2021-10-15T15:30:56Z</time>
      </trkpt>
      <trkpt lat="41.503806" lon="-4.999836">
        <ele>638.245</ele>
        <time>2021-10-15T15:30:58Z</time>
      </trkpt>
      <trkpt lat="41.503760" lon="-4.999863">
        <ele>638.277</ele>
        <time>2021-10-15T15:30:59Z</time>
      </trkpt>
      <trkpt lat="41.503645" lon="-4.999924">
        <ele>638.061</ele>
        <time>2021-10-15T15:31:01Z</time>
      </trkpt>
      <trkpt lat="41.503571" lon="-4.999949">
        <ele>638.427</ele>
        <time>2021-10-15T15:31:02Z</time>
      </trkpt>
      <trkpt lat="41.503422" lon="-5.000006">
        <ele>638.108</ele>
        <time>2021-10-15T15:31:04Z</time>
      </trkpt>
      <trkpt lat="41.503347" lon="-5.000040">
        <ele>638.925</ele>
        <time>2021-10-15T15:31:05Z</time>
      </trkpt>
      <trkpt lat="41.503206" lon="-5.000100">
        <ele>638.883</ele>
        <time>2021-10-15T15:31:07Z</time>
      </trkpt>
      <trkpt lat="41.503155" lon="-5.000133">
        <ele>639.151</ele>
        <time>2021-10-15T15:31:08Z</time>
      </trkpt>
      <trkpt lat="41.503106" lon="-5.000171">
        <ele>639.655</ele>
        <time>2021-10-15T15:31:11Z</time>
      </trkpt>
      <trkpt lat="41.503074" lon="-5.000229">
        <ele>639.390</ele>
        <time>2021-10-15T15:31:14Z</time>
      </trkpt>
      <trkpt lat="41.503061" lon="-5.000335">
        <ele>640.088</ele>
        <time>2021-10-15T15:31:16Z</time>
      </trkpt>
      <trkpt lat="41.503073" lon="-5.000557">
        <ele>640.191</ele>
        <time>2021-10-15T15:31:18Z</time>
      </trkpt>
      <trkpt lat="41.503083" lon="-5.000682">
        <ele>640.546</ele>
        <time>2021-10-15T15:31:19Z</time>
      </trkpt>
      <trkpt lat="41.503089" lon="-5.000798">
        <ele>642.373</ele>
        <time>2021-10-15T15:31:20Z</time>
      </trkpt>
      <trkpt lat="41.503104" lon="-5.000999">
        <ele>643.085</ele>
        <time>2021-10-15T15:31:22Z</time>
      </trkpt>
      <trkpt lat="41.503124" lon="-5.001232">
        <ele>643.613</ele>
        <time>2021-10-15T15:31:24Z</time>
      </trkpt>
      <trkpt lat="41.503149" lon="-5.001462">
        <ele>644.808</ele>
        <time>2021-10-15T15:31:26Z</time>
      </trkpt>
      <trkpt lat="41.503176" lon="-5.001651">
        <ele>645.555</ele>
        <time>2021-10-15T15:31:28Z</time>
      </trkpt>
      <trkpt lat="41.503188" lon="-5.001745">
        <ele>645.973</ele>
        <time>2021-10-15T15:31:29Z</time>
      </trkpt>
      <trkpt lat="41.503227" lon="-5.001976">
        <ele>647.181</ele>
        <time>2021-10-15T15:31:31Z</time>
      </trkpt>
      <trkpt lat="41.503249" lon="-5.002113">
        <ele>647.125</ele>
        <time>2021-10-15T15:31:32Z</time>
      </trkpt>
      <trkpt lat="41.503292" lon="-5.002361">
        <ele>643.140</ele>
        <time>2021-10-15T15:31:34Z</time>
      </trkpt>
      <trkpt lat="41.503309" lon="-5.002477">
        <ele>641.728</ele>
        <time>2021-10-15T15:31:35Z</time>
      </trkpt>
      <trkpt lat="41.503328" lon="-5.002689">
        <ele>640.951</ele>
        <time>2021-10-15T15:31:37Z</time>
      </trkpt>
      <trkpt lat="41.503334" lon="-5.002791">
        <ele>640.336</ele>
        <time>2021-10-15T15:31:38Z</time>
      </trkpt>
      <trkpt lat="41.503347" lon="-5.002968">
        <ele>639.123</ele>
        <time>2021-10-15T15:31:40Z</time>
      </trkpt>
      <trkpt lat="41.503374" lon="-5.003126">
        <ele>638.383</ele>
        <time>2021-10-15T15:31:42Z</time>
      </trkpt>
      <trkpt lat="41.503404" lon="-5.003199">
        <ele>638.611</ele>
        <time>2021-10-15T15:31:43Z</time>
      </trkpt>
      <trkpt lat="41.503448" lon="-5.003261">
        <ele>638.708</ele>
        <time>2021-10-15T15:31:44Z</time>
      </trkpt>
      <trkpt lat="41.503509" lon="-5.003375">
        <ele>639.010</ele>
        <time>2021-10-15T15:31:46Z</time>
      </trkpt>
      <trkpt lat="41.503511" lon="-5.003443">
        <ele>639.028</ele>
        <time>2021-10-15T15:31:47Z</time>
      </trkpt>
      <trkpt lat="41.503451" lon="-5.003545">
        <ele>638.746</ele>
        <time>2021-10-15T15:31:49Z</time>
      </trkpt>
      <trkpt lat="41.503406" lon="-5.003567">
        <ele>638.540</ele>
        <time>2021-10-15T15:31:50Z</time>
      </trkpt>
      <trkpt lat="41.503306" lon="-5.003656">
        <ele>637.675</ele>
        <time>2021-10-15T15:31:52Z</time>
      </trkpt>
      <trkpt lat="41.503224" lon="-5.003804">
        <ele>636.763</ele>
        <time>2021-10-15T15:31:54Z</time>
      </trkpt>
      <trkpt lat="41.503201" lon="-5.003895">
        <ele>634.766</ele>
        <time>2021-10-15T15:31:55Z</time>
      </trkpt>
      <trkpt lat="41.503184" lon="-5.003995">
        <ele>633.681</ele>
        <time>2021-10-15T15:31:56Z</time>
      </trkpt>
      <trkpt lat="41.503152" lon="-5.004188">
        <ele>631.347</ele>
        <time>2021-10-15T15:31:58Z</time>
      </trkpt>
      <trkpt lat="41.503134" lon="-5.004267">
        <ele>630.929</ele>
        <time>2021-10-15T15:31:59Z</time>
      </trkpt>
      <trkpt lat="41.503121" lon="-5.004331">
        <ele>630.621</ele>
        <time>2021-10-15T15:32:00Z</time>
      </trkpt>
      <trkpt lat="41.503111" lon="-5.004391">
        <ele>630.408</ele>
        <time>2021-10-15T15:32:01Z</time>
      </trkpt>
      <trkpt lat="41.503097" lon="-5.004453">
        <ele>629.752</ele>
        <time>2021-10-15T15:32:02Z</time>
      </trkpt>
      <trkpt lat="41.503053" lon="-5.004588">
        <ele>628.610</ele>
        <time>2021-10-15T15:32:04Z</time>
      </trkpt>
      <trkpt lat="41.503020" lon="-5.004798">
        <ele>627.738</ele>
        <time>2021-10-15T15:32:06Z</time>
      </trkpt>
      <trkpt lat="41.503016" lon="-5.004927">
        <ele>629.122</ele>
        <time>2021-10-15T15:32:07Z</time>
      </trkpt>
      <trkpt lat="41.503022" lon="-5.005060">
        <ele>629.597</ele>
        <time>2021-10-15T15:32:08Z</time>
      </trkpt>
      <trkpt lat="41.503047" lon="-5.005311">
        <ele>629.475</ele>
        <time>2021-10-15T15:32:10Z</time>
      </trkpt>
      <trkpt lat="41.503053" lon="-5.005422">
        <ele>629.448</ele>
        <time>2021-10-15T15:32:11Z</time>
      </trkpt>
      <trkpt lat="41.503058" lon="-5.005519">
        <ele>631.173</ele>
        <time>2021-10-15T15:32:12Z</time>
      </trkpt>
      <trkpt lat="41.503101" lon="-5.005674">
        <ele>631.298</ele>
        <time>2021-10-15T15:32:14Z</time>
      </trkpt>
      <trkpt lat="41.503157" lon="-5.005808">
        <ele>631.315</ele>
        <time>2021-10-15T15:32:16Z</time>
      </trkpt>
      <trkpt lat="41.503138" lon="-5.005938">
        <ele>631.326</ele>
        <time>2021-10-15T15:32:18Z</time>
      </trkpt>
      <trkpt lat="41.503095" lon="-5.005982">
        <ele>631.308</ele>
        <time>2021-10-15T15:32:19Z</time>
      </trkpt>
      <trkpt lat="41.503041" lon="-5.005997">
        <ele>631.387</ele>
        <time>2021-10-15T15:32:20Z</time>
      </trkpt>
      <trkpt lat="41.502961" lon="-5.005920">
        <ele>630.835</ele>
        <time>2021-10-15T15:32:22Z</time>
      </trkpt>
      <trkpt lat="41.502902" lon="-5.005743">
        <ele>630.293</ele>
        <time>2021-10-15T15:32:24Z</time>
      </trkpt>
      <trkpt lat="41.502850" lon="-5.005658">
        <ele>630.187</ele>
        <time>2021-10-15T15:32:25Z</time>
      </trkpt>
      <trkpt lat="41.502782" lon="-5.005579">
        <ele>629.922</ele>
        <time>2021-10-15T15:32:26Z</time>
      </trkpt>
      <trkpt lat="41.502624" lon="-5.005410">
        <ele>629.460</ele>
        <time>2021-10-15T15:32:28Z</time>
      </trkpt>
      <trkpt lat="41.502447" lon="-5.005219">
        <ele>628.323</ele>
        <time>2021-10-15T15:32:30Z</time>
      </trkpt>
      <trkpt lat="41.502360" lon="-5.005122">
        <ele>629.248</ele>
        <time>2021-10-15T15:32:31Z</time>
      </trkpt>
      <trkpt lat="41.502274" lon="-5.005028">
        <ele>629.495</ele>
        <time>2021-10-15T15:32:32Z</time>
      </trkpt>
      <trkpt lat="41.502121" lon="-5.004874">
        <ele>630.049</ele>
        <time>2021-10-15T15:32:34Z</time>
      </trkpt>
      <trkpt lat="41.501985" lon="-5.004747">
        <ele>630.823</ele>
        <time>2021-10-15T15:32:36Z</time>
      </trkpt>
      <trkpt lat="41.501923" lon="-5.004695">
        <ele>630.208</ele>
        <time>2021-10-15T15:32:37Z</time>
      </trkpt>
      <trkpt lat="41.501860" lon="-5.004650">
        <ele>629.447</ele>
        <time>2021-10-15T15:32:38Z</time>
      </trkpt>
      <trkpt lat="41.501723" lon="-5.004607">
        <ele>630.065</ele>
        <time>2021-10-15T15:32:40Z</time>
      </trkpt>
      <trkpt lat="41.501648" lon="-5.004569">
        <ele>630.853</ele>
        <time>2021-10-15T15:32:41Z</time>
      </trkpt>
      <trkpt lat="41.501584" lon="-5.004508">
        <ele>630.867</ele>
        <time>2021-10-15T15:32:42Z</time>
      </trkpt>
      <trkpt lat="41.501530" lon="-5.004427">
        <ele>630.372</ele>
        <time>2021-10-15T15:32:43Z</time>
      </trkpt>
      <trkpt lat="41.501473" lon="-5.004339">
        <ele>629.580</ele>
        <time>2021-10-15T15:32:44Z</time>
      </trkpt>
      <trkpt lat="41.501324" lon="-5.004192">
        <ele>628.893</ele>
        <time>2021-10-15T15:32:46Z</time>
      </trkpt>
      <trkpt lat="41.501227" lon="-5.004131">
        <ele>628.148</ele>
        <time>2021-10-15T15:32:47Z</time>
      </trkpt>
      <trkpt lat="41.501125" lon="-5.004062">
        <ele>628.393</ele>
        <time>2021-10-15T15:32:48Z</time>
      </trkpt>
      <trkpt lat="41.500925" lon="-5.003912">
        <ele>628.165</ele>
        <time>2021-10-15T15:32:50Z</time>
      </trkpt>
      <trkpt lat="41.500726" lon="-5.003768">
        <ele>627.421</ele>
        <time>2021-10-15T15:32:52Z</time>
      </trkpt>
      <trkpt lat="41.500537" lon="-5.003632">
        <ele>626.908</ele>
        <time>2021-10-15T15:32:54Z</time>
      </trkpt>
      <trkpt lat="41.500450" lon="-5.003571">
        <ele>626.997</ele>
        <time>2021-10-15T15:32:55Z</time>
      </trkpt>
      <trkpt lat="41.500364" lon="-5.003509">
        <ele>626.985</ele>
        <time>2021-10-15T15:32:56Z</time>
      </trkpt>
      <trkpt lat="41.500217" lon="-5.003400">
        <ele>627.023</ele>
        <time>2021-10-15T15:32:58Z</time>
      </trkpt>
      <trkpt lat="41.500143" lon="-5.003345">
        <ele>627.227</ele>
        <time>2021-10-15T15:32:59Z</time>
      </trkpt>
      <trkpt lat="41.499971" lon="-5.003218">
        <ele>628.352</ele>
        <time>2021-10-15T15:33:01Z</time>
      </trkpt>
      <trkpt lat="41.499864" lon="-5.003140">
        <ele>629.560</ele>
        <time>2021-10-15T15:33:02Z</time>
      </trkpt>
      <trkpt lat="41.499655" lon="-5.002954">
        <ele>629.573</ele>
        <time>2021-10-15T15:33:04Z</time>
      </trkpt>
      <trkpt lat="41.499485" lon="-5.002728">
        <ele>629.028</ele>
        <time>2021-10-15T15:33:06Z</time>
      </trkpt>
      <trkpt lat="41.499421" lon="-5.002603">
        <ele>627.948</ele>
        <time>2021-10-15T15:33:07Z</time>
      </trkpt>
      <trkpt lat="41.499372" lon="-5.002471">
        <ele>627.261</ele>
        <time>2021-10-15T15:33:08Z</time>
      </trkpt>
      <trkpt lat="41.499317" lon="-5.002242">
        <ele>624.717</ele>
        <time>2021-10-15T15:33:10Z</time>
      </trkpt>
      <trkpt lat="41.499303" lon="-5.002142">
        <ele>623.208</ele>
        <time>2021-10-15T15:33:11Z</time>
      </trkpt>
      <trkpt lat="41.499293" lon="-5.002053">
        <ele>623.182</ele>
        <time>2021-10-15T15:33:12Z</time>
      </trkpt>
      <trkpt lat="41.499283" lon="-5.001976">
        <ele>622.720</ele>
        <time>2021-10-15T15:33:13Z</time>
      </trkpt>
      <trkpt lat="41.499272" lon="-5.001905">
        <ele>622.318</ele>
        <time>2021-10-15T15:33:14Z</time>
      </trkpt>
      <trkpt lat="41.499245" lon="-5.001786">
        <ele>621.652</ele>
        <time>2021-10-15T15:33:16Z</time>
      </trkpt>
      <trkpt lat="41.499229" lon="-5.001694">
        <ele>620.047</ele>
        <time>2021-10-15T15:33:18Z</time>
      </trkpt>
      <trkpt lat="41.499245" lon="-5.001589">
        <ele>620.025</ele>
        <time>2021-10-15T15:33:20Z</time>
      </trkpt>
      <trkpt lat="41.499267" lon="-5.001519">
        <ele>620.118</ele>
        <time>2021-10-15T15:33:22Z</time>
      </trkpt>
      <trkpt lat="41.499275" lon="-5.001458">
        <ele>620.613</ele>
        <time>2021-10-15T15:33:23Z</time>
      </trkpt>
      <trkpt lat="41.499265" lon="-5.001391">
        <ele>620.614</ele>
        <time>2021-10-15T15:33:25Z</time>
      </trkpt>
      <trkpt lat="41.499282" lon="-5.001324">
        <ele>620.754</ele>
        <time>2021-10-15T15:33:27Z</time>
      </trkpt>
      <trkpt lat="41.499304" lon="-5.001245">
        <ele>641.709</ele>
        <time>2021-10-15T15:33:28Z</time>
      </trkpt>
      <trkpt lat="41.499350" lon="-5.001212">
        <ele>659.108</ele>
        <time>2021-10-15T15:33:30Z</time>
      </trkpt>
      <trkpt lat="41.499392" lon="-5.001256">
        <ele>677.059</ele>
        <time>2021-10-15T15:33:32Z</time>
      </trkpt>
      <trkpt lat="41.499437" lon="-5.001297">
        <ele>677.037</ele>
        <time>2021-10-15T15:33:44Z</time>
      </trkpt>
      <trkpt lat="41.499389" lon="-5.001273">
        <ele>676.815</ele>
        <time>2021-10-15T15:33:50Z</time>
      </trkpt>
      <trkpt lat="41.499361" lon="-5.001335">
        <ele>676.829</ele>
        <time>2021-10-15T15:33:52Z</time>
      </trkpt>
      <trkpt lat="41.499336" lon="-5.001485">
        <ele>676.854</ele>
        <time>2021-10-15T15:33:54Z</time>
      </trkpt>
      <trkpt lat="41.499331" lon="-5.001571">
        <ele>676.872</ele>
        <time>2021-10-15T15:33:55Z</time>
      </trkpt>
      <trkpt lat="41.499349" lon="-5.001659">
        <ele>676.765</ele>
        <time>2021-10-15T15:33:57Z</time>
      </trkpt>
      <trkpt lat="41.499260" lon="-5.001642">
        <ele>677.340</ele>
        <time>2021-10-15T17:20:53Z</time>
      </trkpt>
      <trkpt lat="41.499168" lon="-5.001555">
        <ele>677.362</ele>
        <time>2021-10-15T17:20:55Z</time>
      </trkpt>
      <trkpt lat="41.499130" lon="-5.001501">
        <ele>677.383</ele>
        <time>2021-10-15T17:20:56Z</time>
      </trkpt>
      <trkpt lat="41.499055" lon="-5.001396">
        <ele>677.611</ele>
        <time>2021-10-15T17:20:58Z</time>
      </trkpt>
      <trkpt lat="41.498976" lon="-5.001303">
        <ele>677.608</ele>
        <time>2021-10-15T17:21:00Z</time>
      </trkpt>
      <trkpt lat="41.498926" lon="-5.001260">
        <ele>677.654</ele>
        <time>2021-10-15T17:21:01Z</time>
      </trkpt>
      <trkpt lat="41.498865" lon="-5.001220">
        <ele>677.632</ele>
        <time>2021-10-15T17:21:02Z</time>
      </trkpt>
      <trkpt lat="41.498742" lon="-5.001157">
        <ele>677.630</ele>
        <time>2021-10-15T17:21:04Z</time>
      </trkpt>
      <trkpt lat="41.498683" lon="-5.001132">
        <ele>677.684</ele>
        <time>2021-10-15T17:21:05Z</time>
      </trkpt>
      <trkpt lat="41.498549" lon="-5.001088">
        <ele>677.649</ele>
        <time>2021-10-15T17:21:07Z</time>
      </trkpt>
      <trkpt lat="41.498476" lon="-5.001065">
        <ele>677.677</ele>
        <time>2021-10-15T17:21:08Z</time>
      </trkpt>
      <trkpt lat="41.498400" lon="-5.001041">
        <ele>677.670</ele>
        <time>2021-10-15T17:21:09Z</time>
      </trkpt>
      <trkpt lat="41.498220" lon="-5.000982">
        <ele>677.685</ele>
        <time>2021-10-15T17:21:11Z</time>
      </trkpt>
      <trkpt lat="41.498118" lon="-5.000952">
        <ele>677.654</ele>
        <time>2021-10-15T17:21:12Z</time>
      </trkpt>
      <trkpt lat="41.497907" lon="-5.000888">
        <ele>677.656</ele>
        <time>2021-10-15T17:21:14Z</time>
      </trkpt>
      <trkpt lat="41.497800" lon="-5.000850">
        <ele>677.711</ele>
        <time>2021-10-15T17:21:15Z</time>
      </trkpt>
      <trkpt lat="41.497598" lon="-5.000781">
        <ele>677.708</ele>
        <time>2021-10-15T17:21:17Z</time>
      </trkpt>
      <trkpt lat="41.497502" lon="-5.000753">
        <ele>677.773</ele>
        <time>2021-10-15T17:21:18Z</time>
      </trkpt>
      <trkpt lat="41.497319" lon="-5.000703">
        <ele>677.851</ele>
        <time>2021-10-15T17:21:20Z</time>
      </trkpt>
      <trkpt lat="41.497228" lon="-5.000682">
        <ele>677.899</ele>
        <time>2021-10-15T17:21:21Z</time>
      </trkpt>
      <trkpt lat="41.497138" lon="-5.000668">
        <ele>677.893</ele>
        <time>2021-10-15T17:21:22Z</time>
      </trkpt>
      <trkpt lat="41.496972" lon="-5.000690">
        <ele>677.878</ele>
        <time>2021-10-15T17:21:24Z</time>
      </trkpt>
      <trkpt lat="41.496793" lon="-5.000738">
        <ele>677.866</ele>
        <time>2021-10-15T17:21:26Z</time>
      </trkpt>
      <trkpt lat="41.496618" lon="-5.000730">
        <ele>677.949</ele>
        <time>2021-10-15T17:21:28Z</time>
      </trkpt>
      <trkpt lat="41.496534" lon="-5.000685">
        <ele>677.974</ele>
        <time>2021-10-15T17:21:29Z</time>
      </trkpt>
      <trkpt lat="41.496413" lon="-5.000531">
        <ele>677.971</ele>
        <time>2021-10-15T17:21:31Z</time>
      </trkpt>
      <trkpt lat="41.496389" lon="-5.000433">
        <ele>677.941</ele>
        <time>2021-10-15T17:21:32Z</time>
      </trkpt>
      <trkpt lat="41.496430" lon="-5.000246">
        <ele>677.915</ele>
        <time>2021-10-15T17:21:34Z</time>
      </trkpt>
      <trkpt lat="41.496557" lon="-5.000073">
        <ele>677.808</ele>
        <time>2021-10-15T17:21:36Z</time>
      </trkpt>
      <trkpt lat="41.496706" lon="-4.999907">
        <ele>677.865</ele>
        <time>2021-10-15T17:21:38Z</time>
      </trkpt>
      <trkpt lat="41.496764" lon="-4.999812">
        <ele>677.823</ele>
        <time>2021-10-15T17:21:39Z</time>
      </trkpt>
      <trkpt lat="41.496811" lon="-4.999706">
        <ele>677.891</ele>
        <time>2021-10-15T17:21:40Z</time>
      </trkpt>
      <trkpt lat="41.496872" lon="-4.999436">
        <ele>677.875</ele>
        <time>2021-10-15T17:21:42Z</time>
      </trkpt>
      <trkpt lat="41.496882" lon="-4.999109">
        <ele>677.880</ele>
        <time>2021-10-15T17:21:44Z</time>
      </trkpt>
      <trkpt lat="41.496846" lon="-4.998753">
        <ele>677.888</ele>
        <time>2021-10-15T17:21:46Z</time>
      </trkpt>
      <trkpt lat="41.496826" lon="-4.998565">
        <ele>677.861</ele>
        <time>2021-10-15T17:21:47Z</time>
      </trkpt>
      <trkpt lat="41.496808" lon="-4.998372">
        <ele>677.826</ele>
        <time>2021-10-15T17:21:48Z</time>
      </trkpt>
      <trkpt lat="41.496767" lon="-4.997998">
        <ele>677.866</ele>
        <time>2021-10-15T17:21:50Z</time>
      </trkpt>
      <trkpt lat="41.496732" lon="-4.997648">
        <ele>610.929</ele>
        <time>2021-10-15T17:21:52Z</time>
      </trkpt>
      <trkpt lat="41.496711" lon="-4.997472">
        <ele>610.921</ele>
        <time>2021-10-15T17:21:53Z</time>
      </trkpt>
      <trkpt lat="41.496685" lon="-4.997289">
        <ele>611.008</ele>
        <time>2021-10-15T17:21:54Z</time>
      </trkpt>
      <trkpt lat="41.496617" lon="-4.996900">
        <ele>610.954</ele>
        <time>2021-10-15T17:21:56Z</time>
      </trkpt>
      <trkpt lat="41.496537" lon="-4.996517">
        <ele>611.162</ele>
        <time>2021-10-15T17:21:58Z</time>
      </trkpt>
      <trkpt lat="41.496491" lon="-4.996315">
        <ele>610.710</ele>
        <time>2021-10-15T17:21:59Z</time>
      </trkpt>
      <trkpt lat="41.496399" lon="-4.995907">
        <ele>610.214</ele>
        <time>2021-10-15T17:22:01Z</time>
      </trkpt>
      <trkpt lat="41.496350" lon="-4.995687">
        <ele>609.869</ele>
        <time>2021-10-15T17:22:02Z</time>
      </trkpt>
      <trkpt lat="41.496248" lon="-4.995234">
        <ele>611.197</ele>
        <time>2021-10-15T17:22:04Z</time>
      </trkpt>
      <trkpt lat="41.496192" lon="-4.994986">
        <ele>610.770</ele>
        <time>2021-10-15T17:22:05Z</time>
      </trkpt>
      <trkpt lat="41.496129" lon="-4.994734">
        <ele>610.725</ele>
        <time>2021-10-15T17:22:06Z</time>
      </trkpt>
      <trkpt lat="41.495977" lon="-4.994229">
        <ele>611.247</ele>
        <time>2021-10-15T17:22:08Z</time>
      </trkpt>
      <trkpt lat="41.495887" lon="-4.993979">
        <ele>611.129</ele>
        <time>2021-10-15T17:22:09Z</time>
      </trkpt>
      <trkpt lat="41.495794" lon="-4.993739">
        <ele>610.721</ele>
        <time>2021-10-15T17:22:10Z</time>
      </trkpt>
      <trkpt lat="41.495592" lon="-4.993303">
        <ele>610.608</ele>
        <time>2021-10-15T17:22:12Z</time>
      </trkpt>
      <trkpt lat="41.495486" lon="-4.993107">
        <ele>610.982</ele>
        <time>2021-10-15T17:22:13Z</time>
      </trkpt>
      <trkpt lat="41.495376" lon="-4.992916">
        <ele>611.330</ele>
        <time>2021-10-15T17:22:14Z</time>
      </trkpt>
      <trkpt lat="41.495263" lon="-4.992728">
        <ele>610.888</ele>
        <time>2021-10-15T17:22:15Z</time>
      </trkpt>
      <trkpt lat="41.495016" lon="-4.992370">
        <ele>610.992</ele>
        <time>2021-10-15T17:22:17Z</time>
      </trkpt>
      <trkpt lat="41.494755" lon="-4.992031">
        <ele>611.247</ele>
        <time>2021-10-15T17:22:19Z</time>
      </trkpt>
      <trkpt lat="41.494491" lon="-4.991700">
        <ele>611.485</ele>
        <time>2021-10-15T17:22:21Z</time>
      </trkpt>
      <trkpt lat="41.494362" lon="-4.991544">
        <ele>611.378</ele>
        <time>2021-10-15T17:22:22Z</time>
      </trkpt>
      <trkpt lat="41.494240" lon="-4.991390">
        <ele>611.163</ele>
        <time>2021-10-15T17:22:23Z</time>
      </trkpt>
      <trkpt lat="41.493991" lon="-4.991074">
        <ele>612.032</ele>
        <time>2021-10-15T17:22:25Z</time>
      </trkpt>
      <trkpt lat="41.493858" lon="-4.990905">
        <ele>611.692</ele>
        <time>2021-10-15T17:22:26Z</time>
      </trkpt>
      <trkpt lat="41.493593" lon="-4.990569">
        <ele>611.511</ele>
        <time>2021-10-15T17:22:28Z</time>
      </trkpt>
      <trkpt lat="41.493449" lon="-4.990388">
        <ele>611.808</ele>
        <time>2021-10-15T17:22:29Z</time>
      </trkpt>
      <trkpt lat="41.493305" lon="-4.990206">
        <ele>612.051</ele>
        <time>2021-10-15T17:22:30Z</time>
      </trkpt>
      <trkpt lat="41.493002" lon="-4.989823">
        <ele>611.029</ele>
        <time>2021-10-15T17:22:32Z</time>
      </trkpt>
      <trkpt lat="41.492691" lon="-4.989429">
        <ele>611.427</ele>
        <time>2021-10-15T17:22:34Z</time>
      </trkpt>
      <trkpt lat="41.492334" lon="-4.988978">
        <ele>610.561</ele>
        <time>2021-10-15T17:22:36Z</time>
      </trkpt>
      <trkpt lat="41.491941" lon="-4.988513">
        <ele>611.526</ele>
        <time>2021-10-15T17:22:38Z</time>
      </trkpt>
      <trkpt lat="41.491746" lon="-4.988294">
        <ele>610.924</ele>
        <time>2021-10-15T17:22:39Z</time>
      </trkpt>
      <trkpt lat="41.491572" lon="-4.988101">
        <ele>610.757</ele>
        <time>2021-10-15T17:22:40Z</time>
      </trkpt>
      <trkpt lat="41.491404" lon="-4.987918">
        <ele>610.482</ele>
        <time>2021-10-15T17:22:41Z</time>
      </trkpt>
      <trkpt lat="41.491092" lon="-4.987572">
        <ele>609.873</ele>
        <time>2021-10-15T17:22:43Z</time>
      </trkpt>
      <trkpt lat="41.490954" lon="-4.987413">
        <ele>610.385</ele>
        <time>2021-10-15T17:22:44Z</time>
      </trkpt>
      <trkpt lat="41.490718" lon="-4.987119">
        <ele>610.213</ele>
        <time>2021-10-15T17:22:46Z</time>
      </trkpt>
      <trkpt lat="41.490602" lon="-4.986962">
        <ele>610.108</ele>
        <time>2021-10-15T17:22:47Z</time>
      </trkpt>
      <trkpt lat="41.490360" lon="-4.986643">
        <ele>609.475</ele>
        <time>2021-10-15T17:22:49Z</time>
      </trkpt>
      <trkpt lat="41.490233" lon="-4.986477">
        <ele>609.723</ele>
        <time>2021-10-15T17:22:50Z</time>
      </trkpt>
      <trkpt lat="41.489973" lon="-4.986124">
        <ele>609.631</ele>
        <time>2021-10-15T17:22:52Z</time>
      </trkpt>
      <trkpt lat="41.489842" lon="-4.985935">
        <ele>608.975</ele>
        <time>2021-10-15T17:22:53Z</time>
      </trkpt>
      <trkpt lat="41.489572" lon="-4.985555">
        <ele>608.610</ele>
        <time>2021-10-15T17:22:55Z</time>
      </trkpt>
      <trkpt lat="41.489429" lon="-4.985353">
        <ele>608.558</ele>
        <time>2021-10-15T17:22:56Z</time>
      </trkpt>
      <trkpt lat="41.489145" lon="-4.984964">
        <ele>608.751</ele>
        <time>2021-10-15T17:22:58Z</time>
      </trkpt>
      <trkpt lat="41.488852" lon="-4.984561">
        <ele>609.356</ele>
        <time>2021-10-15T17:23:00Z</time>
      </trkpt>
      <trkpt lat="41.488698" lon="-4.984348">
        <ele>608.955</ele>
        <time>2021-10-15T17:23:01Z</time>
      </trkpt>
      <trkpt lat="41.488536" lon="-4.984122">
        <ele>609.307</ele>
        <time>2021-10-15T17:23:02Z</time>
      </trkpt>
      <trkpt lat="41.488212" lon="-4.983672">
        <ele>609.717</ele>
        <time>2021-10-15T17:23:04Z</time>
      </trkpt>
      <trkpt lat="41.487868" lon="-4.983195">
        <ele>610.508</ele>
        <time>2021-10-15T17:23:06Z</time>
      </trkpt>
      <trkpt lat="41.487692" lon="-4.982950">
        <ele>610.583</ele>
        <time>2021-10-15T17:23:07Z</time>
      </trkpt>
      <trkpt lat="41.487334" lon="-4.982451">
        <ele>611.321</ele>
        <time>2021-10-15T17:23:09Z</time>
      </trkpt>
      <trkpt lat="41.487151" lon="-4.982198">
        <ele>611.039</ele>
        <time>2021-10-15T17:23:10Z</time>
      </trkpt>
      <trkpt lat="41.486782" lon="-4.981686">
        <ele>611.453</ele>
        <time>2021-10-15T17:23:12Z</time>
      </trkpt>
      <trkpt lat="41.486418" lon="-4.981157">
        <ele>611.928</ele>
        <time>2021-10-15T17:23:14Z</time>
      </trkpt>
      <trkpt lat="41.486038" lon="-4.980629">
        <ele>612.516</ele>
        <time>2021-10-15T17:23:16Z</time>
      </trkpt>
      <trkpt lat="41.485848" lon="-4.980369">
        <ele>612.619</ele>
        <time>2021-10-15T17:23:17Z</time>
      </trkpt>
      <trkpt lat="41.485480" lon="-4.979874">
        <ele>612.994</ele>
        <time>2021-10-15T17:23:19Z</time>
      </trkpt>
      <trkpt lat="41.485155" lon="-4.979447">
        <ele>614.338</ele>
        <time>2021-10-15T17:23:21Z</time>
      </trkpt>
      <trkpt lat="41.484841" lon="-4.979038">
        <ele>614.070</ele>
        <time>2021-10-15T17:23:23Z</time>
      </trkpt>
      <trkpt lat="41.484528" lon="-4.978618">
        <ele>614.017</ele>
        <time>2021-10-15T17:23:25Z</time>
      </trkpt>
      <trkpt lat="41.484363" lon="-4.978386">
        <ele>614.108</ele>
        <time>2021-10-15T17:23:26Z</time>
      </trkpt>
      <trkpt lat="41.484047" lon="-4.977933">
        <ele>614.251</ele>
        <time>2021-10-15T17:23:28Z</time>
      </trkpt>
      <trkpt lat="41.483734" lon="-4.977453">
        <ele>614.459</ele>
        <time>2021-10-15T17:23:30Z</time>
      </trkpt>
      <trkpt lat="41.483585" lon="-4.977220">
        <ele>614.287</ele>
        <time>2021-10-15T17:23:31Z</time>
      </trkpt>
      <trkpt lat="41.483437" lon="-4.976988">
        <ele>614.011</ele>
        <time>2021-10-15T17:23:32Z</time>
      </trkpt>
      <trkpt lat="41.483161" lon="-4.976541">
        <ele>613.346</ele>
        <time>2021-10-15T17:23:34Z</time>
      </trkpt>
      <trkpt lat="41.483023" lon="-4.976311">
        <ele>614.074</ele>
        <time>2021-10-15T17:23:35Z</time>
      </trkpt>
      <trkpt lat="41.482755" lon="-4.975853">
        <ele>615.497</ele>
        <time>2021-10-15T17:23:37Z</time>
      </trkpt>
      <trkpt lat="41.482500" lon="-4.975375">
        <ele>616.382</ele>
        <time>2021-10-15T17:23:39Z</time>
      </trkpt>
      <trkpt lat="41.482380" lon="-4.975119">
        <ele>615.737</ele>
        <time>2021-10-15T17:23:40Z</time>
      </trkpt>
      <trkpt lat="41.482143" lon="-4.974582">
        <ele>615.449</ele>
        <time>2021-10-15T17:23:42Z</time>
      </trkpt>
      <trkpt lat="41.481909" lon="-4.974013">
        <ele>614.913</ele>
        <time>2021-10-15T17:23:44Z</time>
      </trkpt>
      <trkpt lat="41.481791" lon="-4.973719">
        <ele>614.708</ele>
        <time>2021-10-15T17:23:45Z</time>
      </trkpt>
      <trkpt lat="41.481671" lon="-4.973423">
        <ele>614.861</ele>
        <time>2021-10-15T17:23:46Z</time>
      </trkpt>
      <trkpt lat="41.481428" lon="-4.972827">
        <ele>614.729</ele>
        <time>2021-10-15T17:23:48Z</time>
      </trkpt>
      <trkpt lat="41.481182" lon="-4.972225">
        <ele>614.827</ele>
        <time>2021-10-15T17:23:50Z</time>
      </trkpt>
      <trkpt lat="41.481066" lon="-4.971921">
        <ele>614.861</ele>
        <time>2021-10-15T17:23:51Z</time>
      </trkpt>
      <trkpt lat="41.480955" lon="-4.971614">
        <ele>614.976</ele>
        <time>2021-10-15T17:23:52Z</time>
      </trkpt>
      <trkpt lat="41.480853" lon="-4.971304">
        <ele>615.374</ele>
        <time>2021-10-15T17:23:53Z</time>
      </trkpt>
      <trkpt lat="41.480760" lon="-4.970990">
        <ele>615.697</ele>
        <time>2021-10-15T17:23:54Z</time>
      </trkpt>
      <trkpt lat="41.480675" lon="-4.970667">
        <ele>615.962</ele>
        <time>2021-10-15T17:23:55Z</time>
      </trkpt>
      <trkpt lat="41.480599" lon="-4.970333">
        <ele>615.811</ele>
        <time>2021-10-15T17:23:56Z</time>
      </trkpt>
      <trkpt lat="41.480475" lon="-4.969696">
        <ele>615.721</ele>
        <time>2021-10-15T17:23:58Z</time>
      </trkpt>
      <trkpt lat="41.480374" lon="-4.969086">
        <ele>615.203</ele>
        <time>2021-10-15T17:24:00Z</time>
      </trkpt>
      <trkpt lat="41.480324" lon="-4.968782">
        <ele>615.708</ele>
        <time>2021-10-15T17:24:01Z</time>
      </trkpt>
      <trkpt lat="41.480273" lon="-4.968471">
        <ele>615.449</ele>
        <time>2021-10-15T17:24:02Z</time>
      </trkpt>
      <trkpt lat="41.480185" lon="-4.967877">
        <ele>616.687</ele>
        <time>2021-10-15T17:24:04Z</time>
      </trkpt>
      <trkpt lat="41.480118" lon="-4.967271">
        <ele>616.325</ele>
        <time>2021-10-15T17:24:06Z</time>
      </trkpt>
      <trkpt lat="41.480094" lon="-4.966964">
        <ele>616.369</ele>
        <time>2021-10-15T17:24:07Z</time>
      </trkpt>
      <trkpt lat="41.480068" lon="-4.966656">
        <ele>616.544</ele>
        <time>2021-10-15T17:24:08Z</time>
      </trkpt>
      <trkpt lat="41.480018" lon="-4.966042">
        <ele>616.432</ele>
        <time>2021-10-15T17:24:10Z</time>
      </trkpt>
      <trkpt lat="41.479996" lon="-4.965732">
        <ele>617.045</ele>
        <time>2021-10-15T17:24:11Z</time>
      </trkpt>
      <trkpt lat="41.479943" lon="-4.965118">
        <ele>618.320</ele>
        <time>2021-10-15T17:24:13Z</time>
      </trkpt>
      <trkpt lat="41.479916" lon="-4.964807">
        <ele>618.588</ele>
        <time>2021-10-15T17:24:14Z</time>
      </trkpt>
      <trkpt lat="41.479888" lon="-4.964493">
        <ele>619.224</ele>
        <time>2021-10-15T17:24:15Z</time>
      </trkpt>
      <trkpt lat="41.479857" lon="-4.964172">
        <ele>620.326</ele>
        <time>2021-10-15T17:24:16Z</time>
      </trkpt>
      <trkpt lat="41.479796" lon="-4.963521">
        <ele>622.508</ele>
        <time>2021-10-15T17:24:18Z</time>
      </trkpt>
      <trkpt lat="41.479753" lon="-4.963186">
        <ele>623.256</ele>
        <time>2021-10-15T17:24:19Z</time>
      </trkpt>
      <trkpt lat="41.479699" lon="-4.962848">
        <ele>623.314</ele>
        <time>2021-10-15T17:24:20Z</time>
      </trkpt>
      <trkpt lat="41.479564" lon="-4.962174">
        <ele>623.422</ele>
        <time>2021-10-15T17:24:22Z</time>
      </trkpt>
      <trkpt lat="41.479431" lon="-4.961547">
        <ele>623.236</ele>
        <time>2021-10-15T17:24:24Z</time>
      </trkpt>
      <trkpt lat="41.479316" lon="-4.960938">
        <ele>623.221</ele>
        <time>2021-10-15T17:24:26Z</time>
      </trkpt>
      <trkpt lat="41.479205" lon="-4.960357">
        <ele>623.139</ele>
        <time>2021-10-15T17:24:28Z</time>
      </trkpt>
      <trkpt lat="41.479092" lon="-4.959752">
        <ele>624.672</ele>
        <time>2021-10-15T17:24:30Z</time>
      </trkpt>
      <trkpt lat="41.479047" lon="-4.959444">
        <ele>625.237</ele>
        <time>2021-10-15T17:24:31Z</time>
      </trkpt>
      <trkpt lat="41.479012" lon="-4.959123">
        <ele>625.684</ele>
        <time>2021-10-15T17:24:32Z</time>
      </trkpt>
      <trkpt lat="41.478969" lon="-4.958485">
        <ele>626.307</ele>
        <time>2021-10-15T17:24:34Z</time>
      </trkpt>
      <trkpt lat="41.478956" lon="-4.958151">
        <ele>626.217</ele>
        <time>2021-10-15T17:24:35Z</time>
      </trkpt>
      <trkpt lat="41.478933" lon="-4.957467">
        <ele>626.608</ele>
        <time>2021-10-15T17:24:37Z</time>
      </trkpt>
      <trkpt lat="41.478917" lon="-4.956783">
        <ele>626.576</ele>
        <time>2021-10-15T17:24:39Z</time>
      </trkpt>
      <trkpt lat="41.478903" lon="-4.956088">
        <ele>626.784</ele>
        <time>2021-10-15T17:24:41Z</time>
      </trkpt>
      <trkpt lat="41.478894" lon="-4.955735">
        <ele>627.172</ele>
        <time>2021-10-15T17:24:42Z</time>
      </trkpt>
      <trkpt lat="41.478878" lon="-4.955026">
        <ele>626.716</ele>
        <time>2021-10-15T17:24:44Z</time>
      </trkpt>
      <trkpt lat="41.478864" lon="-4.954665">
        <ele>626.891</ele>
        <time>2021-10-15T17:24:45Z</time>
      </trkpt>
      <trkpt lat="41.478836" lon="-4.953954">
        <ele>627.069</ele>
        <time>2021-10-15T17:24:47Z</time>
      </trkpt>
      <trkpt lat="41.478808" lon="-4.953241">
        <ele>627.482</ele>
        <time>2021-10-15T17:24:49Z</time>
      </trkpt>
      <trkpt lat="41.478795" lon="-4.952881">
        <ele>627.517</ele>
        <time>2021-10-15T17:24:50Z</time>
      </trkpt>
      <trkpt lat="41.478781" lon="-4.952519">
        <ele>627.189</ele>
        <time>2021-10-15T17:24:51Z</time>
      </trkpt>
      <trkpt lat="41.478753" lon="-4.951786">
        <ele>626.206</ele>
        <time>2021-10-15T17:24:53Z</time>
      </trkpt>
      <trkpt lat="41.478750" lon="-4.951047">
        <ele>627.726</ele>
        <time>2021-10-15T17:24:55Z</time>
      </trkpt>
      <trkpt lat="41.478748" lon="-4.950663">
        <ele>627.908</ele>
        <time>2021-10-15T17:24:56Z</time>
      </trkpt>
      <trkpt lat="41.478727" lon="-4.949985">
        <ele>629.536</ele>
        <time>2021-10-15T17:24:58Z</time>
      </trkpt>
      <trkpt lat="41.478708" lon="-4.949663">
        <ele>630.124</ele>
        <time>2021-10-15T17:24:59Z</time>
      </trkpt>
      <trkpt lat="41.478689" lon="-4.949316">
        <ele>630.722</ele>
        <time>2021-10-15T17:25:00Z</time>
      </trkpt>
      <trkpt lat="41.478661" lon="-4.948703">
        <ele>631.556</ele>
        <time>2021-10-15T17:25:02Z</time>
      </trkpt>
      <trkpt lat="41.478627" lon="-4.948122">
        <ele>633.161</ele>
        <time>2021-10-15T17:25:04Z</time>
      </trkpt>
      <trkpt lat="41.478611" lon="-4.947823">
        <ele>632.989</ele>
        <time>2021-10-15T17:25:05Z</time>
      </trkpt>
      <trkpt lat="41.478597" lon="-4.947522">
        <ele>633.472</ele>
        <time>2021-10-15T17:25:06Z</time>
      </trkpt>
      <trkpt lat="41.478578" lon="-4.946920">
        <ele>633.847</ele>
        <time>2021-10-15T17:25:08Z</time>
      </trkpt>
      <trkpt lat="41.478576" lon="-4.946613">
        <ele>633.119</ele>
        <time>2021-10-15T17:25:09Z</time>
      </trkpt>
      <trkpt lat="41.478591" lon="-4.945986">
        <ele>632.609</ele>
        <time>2021-10-15T17:25:11Z</time>
      </trkpt>
      <trkpt lat="41.478614" lon="-4.945352">
        <ele>631.619</ele>
        <time>2021-10-15T17:25:13Z</time>
      </trkpt>
      <trkpt lat="41.478625" lon="-4.945042">
        <ele>631.508</ele>
        <time>2021-10-15T17:25:14Z</time>
      </trkpt>
      <trkpt lat="41.478650" lon="-4.944445">
        <ele>630.649</ele>
        <time>2021-10-15T17:25:16Z</time>
      </trkpt>
      <trkpt lat="41.478661" lon="-4.944138">
        <ele>629.337</ele>
        <time>2021-10-15T17:25:17Z</time>
      </trkpt>
      <trkpt lat="41.478683" lon="-4.943504">
        <ele>627.915</ele>
        <time>2021-10-15T17:25:19Z</time>
      </trkpt>
      <trkpt lat="41.478689" lon="-4.942849">
        <ele>627.119</ele>
        <time>2021-10-15T17:25:21Z</time>
      </trkpt>
      <trkpt lat="41.478671" lon="-4.942506">
        <ele>626.464</ele>
        <time>2021-10-15T17:25:22Z</time>
      </trkpt>
      <trkpt lat="41.478629" lon="-4.942165">
        <ele>626.292</ele>
        <time>2021-10-15T17:25:23Z</time>
      </trkpt>
      <trkpt lat="41.478484" lon="-4.941511">
        <ele>626.185</ele>
        <time>2021-10-15T17:25:25Z</time>
      </trkpt>
      <trkpt lat="41.478373" lon="-4.941181">
        <ele>626.540</ele>
        <time>2021-10-15T17:25:26Z</time>
      </trkpt>
      <trkpt lat="41.478104" lon="-4.940598">
        <ele>626.854</ele>
        <time>2021-10-15T17:25:28Z</time>
      </trkpt>
      <trkpt lat="41.477760" lon="-4.940068">
        <ele>628.856</ele>
        <time>2021-10-15T17:25:30Z</time>
      </trkpt>
      <trkpt lat="41.477389" lon="-4.939560">
        <ele>630.911</ele>
        <time>2021-10-15T17:25:32Z</time>
      </trkpt>
      <trkpt lat="41.477057" lon="-4.939078">
        <ele>633.608</ele>
        <time>2021-10-15T17:25:34Z</time>
      </trkpt>
      <trkpt lat="41.476896" lon="-4.938824">
        <ele>635.163</ele>
        <time>2021-10-15T17:25:35Z</time>
      </trkpt>
      <trkpt lat="41.476629" lon="-4.938284">
        <ele>638.541</ele>
        <time>2021-10-15T17:25:37Z</time>
      </trkpt>
      <trkpt lat="41.476437" lon="-4.937690">
        <ele>640.999</ele>
        <time>2021-10-15T17:25:39Z</time>
      </trkpt>
      <trkpt lat="41.476329" lon="-4.937047">
        <ele>643.323</ele>
        <time>2021-10-15T17:25:41Z</time>
      </trkpt>
      <trkpt lat="41.476290" lon="-4.936708">
        <ele>643.858</ele>
        <time>2021-10-15T17:25:42Z</time>
      </trkpt>
      <trkpt lat="41.476206" lon="-4.936016">
        <ele>644.866</ele>
        <time>2021-10-15T17:25:44Z</time>
      </trkpt>
      <trkpt lat="41.476085" lon="-4.935331">
        <ele>646.999</ele>
        <time>2021-10-15T17:25:46Z</time>
      </trkpt>
      <trkpt lat="41.475930" lon="-4.934640">
        <ele>648.564</ele>
        <time>2021-10-15T17:25:48Z</time>
      </trkpt>
      <trkpt lat="41.475847" lon="-4.934289">
        <ele>649.412</ele>
        <time>2021-10-15T17:25:49Z</time>
      </trkpt>
      <trkpt lat="41.475763" lon="-4.933935">
        <ele>649.732</ele>
        <time>2021-10-15T17:25:50Z</time>
      </trkpt>
      <trkpt lat="41.475590" lon="-4.933227">
        <ele>649.105</ele>
        <time>2021-10-15T17:25:52Z</time>
      </trkpt>
      <trkpt lat="41.475413" lon="-4.932504">
        <ele>649.408</ele>
        <time>2021-10-15T17:25:54Z</time>
      </trkpt>
      <trkpt lat="41.475324" lon="-4.932140">
        <ele>649.579</ele>
        <time>2021-10-15T17:25:55Z</time>
      </trkpt>
      <trkpt lat="41.475236" lon="-4.931779">
        <ele>649.337</ele>
        <time>2021-10-15T17:25:56Z</time>
      </trkpt>
      <trkpt lat="41.475088" lon="-4.931142">
        <ele>649.995</ele>
        <time>2021-10-15T17:25:58Z</time>
      </trkpt>
      <trkpt lat="41.475013" lon="-4.930828">
        <ele>649.959</ele>
        <time>2021-10-15T17:25:59Z</time>
      </trkpt>
      <trkpt lat="41.474936" lon="-4.930503">
        <ele>649.664</ele>
        <time>2021-10-15T17:26:00Z</time>
      </trkpt>
      <trkpt lat="41.474781" lon="-4.929821">
        <ele>649.942</ele>
        <time>2021-10-15T17:26:02Z</time>
      </trkpt>
      <trkpt lat="41.474623" lon="-4.929140">
        <ele>649.225</ele>
        <time>2021-10-15T17:26:04Z</time>
      </trkpt>
      <trkpt lat="41.474530" lon="-4.928782">
        <ele>649.330</ele>
        <time>2021-10-15T17:26:05Z</time>
      </trkpt>
      <trkpt lat="41.474314" lon="-4.928065">
        <ele>648.295</ele>
        <time>2021-10-15T17:26:07Z</time>
      </trkpt>
      <trkpt lat="41.474067" lon="-4.927346">
        <ele>647.249</ele>
        <time>2021-10-15T17:26:09Z</time>
      </trkpt>
      <trkpt lat="41.473943" lon="-4.926984">
        <ele>647.323</ele>
        <time>2021-10-15T17:26:10Z</time>
      </trkpt>
      <trkpt lat="41.473698" lon="-4.926264">
        <ele>647.408</ele>
        <time>2021-10-15T17:26:12Z</time>
      </trkpt>
      <trkpt lat="41.473454" lon="-4.925544">
        <ele>647.377</ele>
        <time>2021-10-15T17:26:14Z</time>
      </trkpt>
      <trkpt lat="41.473338" lon="-4.925187">
        <ele>647.355</ele>
        <time>2021-10-15T17:26:15Z</time>
      </trkpt>
      <trkpt lat="41.473111" lon="-4.924502">
        <ele>647.373</ele>
        <time>2021-10-15T17:26:17Z</time>
      </trkpt>
      <trkpt lat="41.473002" lon="-4.924176">
        <ele>647.537</ele>
        <time>2021-10-15T17:26:18Z</time>
      </trkpt>
      <trkpt lat="41.472800" lon="-4.923567">
        <ele>648.962</ele>
        <time>2021-10-15T17:26:20Z</time>
      </trkpt>
      <trkpt lat="41.472603" lon="-4.922969">
        <ele>650.130</ele>
        <time>2021-10-15T17:26:22Z</time>
      </trkpt>
      <trkpt lat="41.472407" lon="-4.922367">
        <ele>649.683</ele>
        <time>2021-10-15T17:26:24Z</time>
      </trkpt>
      <trkpt lat="41.472297" lon="-4.922063">
        <ele>650.618</ele>
        <time>2021-10-15T17:26:25Z</time>
      </trkpt>
      <trkpt lat="41.472170" lon="-4.921750">
        <ele>651.262</ele>
        <time>2021-10-15T17:26:26Z</time>
      </trkpt>
      <trkpt lat="41.471901" lon="-4.921177">
        <ele>651.783</ele>
        <time>2021-10-15T17:26:28Z</time>
      </trkpt>
      <trkpt lat="41.471748" lon="-4.920887">
        <ele>652.111</ele>
        <time>2021-10-15T17:26:29Z</time>
      </trkpt>
      <trkpt lat="41.471590" lon="-4.920599">
        <ele>652.108</ele>
        <time>2021-10-15T17:26:30Z</time>
      </trkpt>
      <trkpt lat="41.471436" lon="-4.920313">
        <ele>652.444</ele>
        <time>2021-10-15T17:26:31Z</time>
      </trkpt>
      <trkpt lat="41.471285" lon="-4.920016">
        <ele>652.632</ele>
        <time>2021-10-15T17:26:32Z</time>
      </trkpt>
      <trkpt lat="41.471021" lon="-4.919444">
        <ele>652.930</ele>
        <time>2021-10-15T17:26:34Z</time>
      </trkpt>
      <trkpt lat="41.470787" lon="-4.918829">
        <ele>653.234</ele>
        <time>2021-10-15T17:26:36Z</time>
      </trkpt>
      <trkpt lat="41.470678" lon="-4.918520">
        <ele>653.299</ele>
        <time>2021-10-15T17:26:37Z</time>
      </trkpt>
      <trkpt lat="41.470481" lon="-4.917937">
        <ele>653.947</ele>
        <time>2021-10-15T17:26:39Z</time>
      </trkpt>
      <trkpt lat="41.470388" lon="-4.917656">
        <ele>653.710</ele>
        <time>2021-10-15T17:26:40Z</time>
      </trkpt>
      <trkpt lat="41.470237" lon="-4.917060">
        <ele>654.735</ele>
        <time>2021-10-15T17:26:42Z</time>
      </trkpt>
      <trkpt lat="41.470184" lon="-4.916737">
        <ele>654.995</ele>
        <time>2021-10-15T17:26:43Z</time>
      </trkpt>
      <trkpt lat="41.470149" lon="-4.916394">
        <ele>655.149</ele>
        <time>2021-10-15T17:26:44Z</time>
      </trkpt>
      <trkpt lat="41.470132" lon="-4.916040">
        <ele>655.423</ele>
        <time>2021-10-15T17:26:45Z</time>
      </trkpt>
      <trkpt lat="41.470129" lon="-4.915677">
        <ele>655.108</ele>
        <time>2021-10-15T17:26:46Z</time>
      </trkpt>
      <trkpt lat="41.470133" lon="-4.915306">
        <ele>655.297</ele>
        <time>2021-10-15T17:26:47Z</time>
      </trkpt>
      <trkpt lat="41.470126" lon="-4.914569">
        <ele>655.565</ele>
        <time>2021-10-15T17:26:49Z</time>
      </trkpt>
      <trkpt lat="41.470113" lon="-4.914195">
        <ele>655.923</ele>
        <time>2021-10-15T17:26:50Z</time>
      </trkpt>
      <trkpt lat="41.470086" lon="-4.913449">
        <ele>655.747</ele>
        <time>2021-10-15T17:26:52Z</time>
      </trkpt>
      <trkpt lat="41.470070" lon="-4.913074">
        <ele>656.282</ele>
        <time>2021-10-15T17:26:53Z</time>
      </trkpt>
      <trkpt lat="41.470055" lon="-4.912714">
        <ele>656.570</ele>
        <time>2021-10-15T17:26:54Z</time>
      </trkpt>
      <trkpt lat="41.470046" lon="-4.912351">
        <ele>656.293</ele>
        <time>2021-10-15T17:26:55Z</time>
      </trkpt>
      <trkpt lat="41.470042" lon="-4.912010">
        <ele>655.898</ele>
        <time>2021-10-15T17:26:56Z</time>
      </trkpt>
      <trkpt lat="41.470030" lon="-4.911380">
        <ele>656.065</ele>
        <time>2021-10-15T17:26:58Z</time>
      </trkpt>
      <trkpt lat="41.470044" lon="-4.910737">
        <ele>655.568</ele>
        <time>2021-10-15T17:27:00Z</time>
      </trkpt>
      <trkpt lat="41.470081" lon="-4.910410">
        <ele>654.914</ele>
        <time>2021-10-15T17:27:01Z</time>
      </trkpt>
      <trkpt lat="41.470137" lon="-4.910062">
        <ele>654.308</ele>
        <time>2021-10-15T17:27:02Z</time>
      </trkpt>
      <trkpt lat="41.470253" lon="-4.909405">
        <ele>653.694</ele>
        <time>2021-10-15T17:27:04Z</time>
      </trkpt>
      <trkpt lat="41.470312" lon="-4.909065">
        <ele>653.112</ele>
        <time>2021-10-15T17:27:05Z</time>
      </trkpt>
      <trkpt lat="41.470427" lon="-4.908431">
        <ele>652.840</ele>
        <time>2021-10-15T17:27:07Z</time>
      </trkpt>
      <trkpt lat="41.470483" lon="-4.908135">
        <ele>652.234</ele>
        <time>2021-10-15T17:27:08Z</time>
      </trkpt>
      <trkpt lat="41.470530" lon="-4.907849">
        <ele>651.639</ele>
        <time>2021-10-15T17:27:09Z</time>
      </trkpt>
      <trkpt lat="41.470570" lon="-4.907558">
        <ele>651.197</ele>
        <time>2021-10-15T17:27:10Z</time>
      </trkpt>
      <trkpt lat="41.470661" lon="-4.906967">
        <ele>649.810</ele>
        <time>2021-10-15T17:27:12Z</time>
      </trkpt>
      <trkpt lat="41.470703" lon="-4.906663">
        <ele>648.695</ele>
        <time>2021-10-15T17:27:13Z</time>
      </trkpt>
      <trkpt lat="41.470737" lon="-4.906355">
        <ele>648.176</ele>
        <time>2021-10-15T17:27:14Z</time>
      </trkpt>
      <trkpt lat="41.470762" lon="-4.906043">
        <ele>648.190</ele>
        <time>2021-10-15T17:27:15Z</time>
      </trkpt>
      <trkpt lat="41.470780" lon="-4.905728">
        <ele>647.419</ele>
        <time>2021-10-15T17:27:16Z</time>
      </trkpt>
      <trkpt lat="41.470797" lon="-4.905087">
        <ele>647.008</ele>
        <time>2021-10-15T17:27:18Z</time>
      </trkpt>
      <trkpt lat="41.470815" lon="-4.904443">
        <ele>646.855</ele>
        <time>2021-10-15T17:27:20Z</time>
      </trkpt>
      <trkpt lat="41.470826" lon="-4.904122">
        <ele>646.363</ele>
        <time>2021-10-15T17:27:21Z</time>
      </trkpt>
      <trkpt lat="41.470842" lon="-4.903505">
        <ele>645.691</ele>
        <time>2021-10-15T17:27:23Z</time>
      </trkpt>
      <trkpt lat="41.470817" lon="-4.902955">
        <ele>645.535</ele>
        <time>2021-10-15T17:27:25Z</time>
      </trkpt>
      <trkpt lat="41.470785" lon="-4.902665">
        <ele>645.590</ele>
        <time>2021-10-15T17:27:26Z</time>
      </trkpt>
      <trkpt lat="41.470697" lon="-4.902120">
        <ele>645.358</ele>
        <time>2021-10-15T17:27:28Z</time>
      </trkpt>
      <trkpt lat="41.470596" lon="-4.901552">
        <ele>645.851</ele>
        <time>2021-10-15T17:27:30Z</time>
      </trkpt>
      <trkpt lat="41.470546" lon="-4.901257">
        <ele>645.896</ele>
        <time>2021-10-15T17:27:31Z</time>
      </trkpt>
      <trkpt lat="41.470494" lon="-4.900945">
        <ele>646.537</ele>
        <time>2021-10-15T17:27:32Z</time>
      </trkpt>
      <trkpt lat="41.470401" lon="-4.900345">
        <ele>647.349</ele>
        <time>2021-10-15T17:27:34Z</time>
      </trkpt>
      <trkpt lat="41.470355" lon="-4.900030">
        <ele>648.013</ele>
        <time>2021-10-15T17:27:35Z</time>
      </trkpt>
      <trkpt lat="41.470271" lon="-4.899394">
        <ele>648.708</ele>
        <time>2021-10-15T17:27:37Z</time>
      </trkpt>
      <trkpt lat="41.470163" lon="-4.898758">
        <ele>649.881</ele>
        <time>2021-10-15T17:27:39Z</time>
      </trkpt>
      <trkpt lat="41.470090" lon="-4.898443">
        <ele>650.259</ele>
        <time>2021-10-15T17:27:40Z</time>
      </trkpt>
      <trkpt lat="41.469917" lon="-4.897818">
        <ele>650.297</ele>
        <time>2021-10-15T17:27:42Z</time>
      </trkpt>
      <trkpt lat="41.469832" lon="-4.897500">
        <ele>650.111</ele>
        <time>2021-10-15T17:27:43Z</time>
      </trkpt>
      <trkpt lat="41.469669" lon="-4.896852">
        <ele>651.466</ele>
        <time>2021-10-15T17:27:45Z</time>
      </trkpt>
      <trkpt lat="41.469589" lon="-4.896524">
        <ele>651.394</ele>
        <time>2021-10-15T17:27:46Z</time>
      </trkpt>
      <trkpt lat="41.469504" lon="-4.896197">
        <ele>650.757</ele>
        <time>2021-10-15T17:27:47Z</time>
      </trkpt>
      <trkpt lat="41.469421" lon="-4.895875">
        <ele>650.622</ele>
        <time>2021-10-15T17:27:48Z</time>
      </trkpt>
      <trkpt lat="41.469265" lon="-4.895246">
        <ele>650.478</ele>
        <time>2021-10-15T17:27:50Z</time>
      </trkpt>
      <trkpt lat="41.469113" lon="-4.894625">
        <ele>650.033</ele>
        <time>2021-10-15T17:27:52Z</time>
      </trkpt>
      <trkpt lat="41.469045" lon="-4.894306">
        <ele>649.826</ele>
        <time>2021-10-15T17:27:53Z</time>
      </trkpt>
      <trkpt lat="41.468966" lon="-4.893655">
        <ele>649.608</ele>
        <time>2021-10-15T17:27:55Z</time>
      </trkpt>
      <trkpt lat="41.468959" lon="-4.893305">
        <ele>648.825</ele>
        <time>2021-10-15T17:27:56Z</time>
      </trkpt>
      <trkpt lat="41.468955" lon="-4.892634">
        <ele>647.493</ele>
        <time>2021-10-15T17:27:58Z</time>
      </trkpt>
      <trkpt lat="41.468949" lon="-4.892286">
        <ele>647.351</ele>
        <time>2021-10-15T17:27:59Z</time>
      </trkpt>
      <trkpt lat="41.468933" lon="-4.891599">
        <ele>645.495</ele>
        <time>2021-10-15T17:28:01Z</time>
      </trkpt>
      <trkpt lat="41.468919" lon="-4.891245">
        <ele>645.090</ele>
        <time>2021-10-15T17:28:02Z</time>
      </trkpt>
      <trkpt lat="41.468886" lon="-4.890569">
        <ele>645.028</ele>
        <time>2021-10-15T17:28:04Z</time>
      </trkpt>
      <trkpt lat="41.468799" lon="-4.889908">
        <ele>646.081</ele>
        <time>2021-10-15T17:28:06Z</time>
      </trkpt>
      <trkpt lat="41.468716" lon="-4.889599">
        <ele>647.076</ele>
        <time>2021-10-15T17:28:07Z</time>
      </trkpt>
      <trkpt lat="41.468596" lon="-4.889320">
        <ele>648.022</ele>
        <time>2021-10-15T17:28:08Z</time>
      </trkpt>
      <trkpt lat="41.468443" lon="-4.889072">
        <ele>649.062</ele>
        <time>2021-10-15T17:28:09Z</time>
      </trkpt>
      <trkpt lat="41.468256" lon="-4.888852">
        <ele>649.508</ele>
        <time>2021-10-15T17:28:10Z</time>
      </trkpt>
      <trkpt lat="41.467819" lon="-4.888467">
        <ele>650.808</ele>
        <time>2021-10-15T17:28:12Z</time>
      </trkpt>
      <trkpt lat="41.467343" lon="-4.888096">
        <ele>650.050</ele>
        <time>2021-10-15T17:28:14Z</time>
      </trkpt>
      <trkpt lat="41.466892" lon="-4.887630">
        <ele>649.698</ele>
        <time>2021-10-15T17:28:16Z</time>
      </trkpt>
      <trkpt lat="41.466498" lon="-4.887066">
        <ele>649.546</ele>
        <time>2021-10-15T17:28:18Z</time>
      </trkpt>
      <trkpt lat="41.466172" lon="-4.886431">
        <ele>650.120</ele>
        <time>2021-10-15T17:28:20Z</time>
      </trkpt>
      <trkpt lat="41.465841" lon="-4.885812">
        <ele>652.465</ele>
        <time>2021-10-15T17:28:22Z</time>
      </trkpt>
      <trkpt lat="41.465503" lon="-4.885201">
        <ele>652.913</ele>
        <time>2021-10-15T17:28:24Z</time>
      </trkpt>
      <trkpt lat="41.465341" lon="-4.884908">
        <ele>653.496</ele>
        <time>2021-10-15T17:28:25Z</time>
      </trkpt>
      <trkpt lat="41.465179" lon="-4.884616">
        <ele>653.031</ele>
        <time>2021-10-15T17:28:26Z</time>
      </trkpt>
      <trkpt lat="41.464920" lon="-4.884108">
        <ele>652.869</ele>
        <time>2021-10-15T17:28:28Z</time>
      </trkpt>
      <trkpt lat="41.464690" lon="-4.883551">
        <ele>652.104</ele>
        <time>2021-10-15T17:28:30Z</time>
      </trkpt>
      <trkpt lat="41.464574" lon="-4.883241">
        <ele>651.824</ele>
        <time>2021-10-15T17:28:31Z</time>
      </trkpt>
      <trkpt lat="41.464450" lon="-4.882916">
        <ele>650.508</ele>
        <time>2021-10-15T17:28:32Z</time>
      </trkpt>
      <trkpt lat="41.464216" lon="-4.882328">
        <ele>650.194</ele>
        <time>2021-10-15T17:28:34Z</time>
      </trkpt>
      <trkpt lat="41.464094" lon="-4.882032">
        <ele>649.722</ele>
        <time>2021-10-15T17:28:35Z</time>
      </trkpt>
      <trkpt lat="41.463867" lon="-4.881482">
        <ele>650.020</ele>
        <time>2021-10-15T17:28:37Z</time>
      </trkpt>
      <trkpt lat="41.463657" lon="-4.880971">
        <ele>650.494</ele>
        <time>2021-10-15T17:28:39Z</time>
      </trkpt>
      <trkpt lat="41.463441" lon="-4.880458">
        <ele>650.229</ele>
        <time>2021-10-15T17:28:41Z</time>
      </trkpt>
      <trkpt lat="41.463220" lon="-4.879922">
        <ele>649.567</ele>
        <time>2021-10-15T17:28:43Z</time>
      </trkpt>
      <trkpt lat="41.463024" lon="-4.879333">
        <ele>649.430</ele>
        <time>2021-10-15T17:28:45Z</time>
      </trkpt>
      <trkpt lat="41.462858" lon="-4.878690">
        <ele>650.335</ele>
        <time>2021-10-15T17:28:47Z</time>
      </trkpt>
      <trkpt lat="41.462772" lon="-4.878358">
        <ele>650.941</ele>
        <time>2021-10-15T17:28:48Z</time>
      </trkpt>
      <trkpt lat="41.462593" lon="-4.877690">
        <ele>649.681</ele>
        <time>2021-10-15T17:28:50Z</time>
      </trkpt>
      <trkpt lat="41.462497" lon="-4.877353">
        <ele>649.609</ele>
        <time>2021-10-15T17:28:51Z</time>
      </trkpt>
      <trkpt lat="41.462401" lon="-4.877018">
        <ele>649.808</ele>
        <time>2021-10-15T17:28:52Z</time>
      </trkpt>
      <trkpt lat="41.462308" lon="-4.876693">
        <ele>649.822</ele>
        <time>2021-10-15T17:28:53Z</time>
      </trkpt>
      <trkpt lat="41.462133" lon="-4.876084">
        <ele>650.780</ele>
        <time>2021-10-15T17:28:55Z</time>
      </trkpt>
      <trkpt lat="41.462051" lon="-4.875778">
        <ele>650.758</ele>
        <time>2021-10-15T17:28:56Z</time>
      </trkpt>
      <trkpt lat="41.461924" lon="-4.875174">
        <ele>649.812</ele>
        <time>2021-10-15T17:28:58Z</time>
      </trkpt>
      <trkpt lat="41.461879" lon="-4.874857">
        <ele>649.887</ele>
        <time>2021-10-15T17:28:59Z</time>
      </trkpt>
      <trkpt lat="41.461838" lon="-4.874543">
        <ele>649.125</ele>
        <time>2021-10-15T17:29:00Z</time>
      </trkpt>
      <trkpt lat="41.461757" lon="-4.873937">
        <ele>648.118</ele>
        <time>2021-10-15T17:29:02Z</time>
      </trkpt>
      <trkpt lat="41.461681" lon="-4.873394">
        <ele>649.393</ele>
        <time>2021-10-15T17:29:04Z</time>
      </trkpt>
      <trkpt lat="41.461642" lon="-4.873141">
        <ele>649.495</ele>
        <time>2021-10-15T17:29:05Z</time>
      </trkpt>
      <trkpt lat="41.461561" lon="-4.872691">
        <ele>650.749</ele>
        <time>2021-10-15T17:29:07Z</time>
      </trkpt>
      <trkpt lat="41.461470" lon="-4.872319">
        <ele>650.923</ele>
        <time>2021-10-15T17:29:09Z</time>
      </trkpt>
      <trkpt lat="41.461332" lon="-4.872001">
        <ele>652.008</ele>
        <time>2021-10-15T17:29:11Z</time>
      </trkpt>
      <trkpt lat="41.461247" lon="-4.871839">
        <ele>652.737</ele>
        <time>2021-10-15T17:29:12Z</time>
      </trkpt>
      <trkpt lat="41.461053" lon="-4.871517">
        <ele>652.855</ele>
        <time>2021-10-15T17:29:14Z</time>
      </trkpt>
      <trkpt lat="41.460804" lon="-4.871198">
        <ele>653.363</ele>
        <time>2021-10-15T17:29:16Z</time>
      </trkpt>
      <trkpt lat="41.460556" lon="-4.870878">
        <ele>654.477</ele>
        <time>2021-10-15T17:29:18Z</time>
      </trkpt>
      <trkpt lat="41.460446" lon="-4.870701">
        <ele>654.392</ele>
        <time>2021-10-15T17:29:19Z</time>
      </trkpt>
      <trkpt lat="41.460215" lon="-4.870344">
        <ele>654.440</ele>
        <time>2021-10-15T17:29:21Z</time>
      </trkpt>
      <trkpt lat="41.460093" lon="-4.870160">
        <ele>654.563</ele>
        <time>2021-10-15T17:29:22Z</time>
      </trkpt>
      <trkpt lat="41.459849" lon="-4.869781">
        <ele>654.728</ele>
        <time>2021-10-15T17:29:24Z</time>
      </trkpt>
      <trkpt lat="41.459734" lon="-4.869603">
        <ele>654.518</ele>
        <time>2021-10-15T17:29:25Z</time>
      </trkpt>
      <trkpt lat="41.459621" lon="-4.869429">
        <ele>654.898</ele>
        <time>2021-10-15T17:29:26Z</time>
      </trkpt>
      <trkpt lat="41.459421" lon="-4.869119">
        <ele>655.517</ele>
        <time>2021-10-15T17:29:28Z</time>
      </trkpt>
      <trkpt lat="41.459323" lon="-4.868967">
        <ele>655.408</ele>
        <time>2021-10-15T17:29:29Z</time>
      </trkpt>
      <trkpt lat="41.459121" lon="-4.868666">
        <ele>656.459</ele>
        <time>2021-10-15T17:29:31Z</time>
      </trkpt>
      <trkpt lat="41.459014" lon="-4.868504">
        <ele>656.917</ele>
        <time>2021-10-15T17:29:32Z</time>
      </trkpt>
      <trkpt lat="41.458803" lon="-4.868190">
        <ele>657.925</ele>
        <time>2021-10-15T17:29:34Z</time>
      </trkpt>
      <trkpt lat="41.458600" lon="-4.867884">
        <ele>657.329</ele>
        <time>2021-10-15T17:29:36Z</time>
      </trkpt>
      <trkpt lat="41.458503" lon="-4.867736">
        <ele>657.214</ele>
        <time>2021-10-15T17:29:37Z</time>
      </trkpt>
      <trkpt lat="41.458411" lon="-4.867594">
        <ele>657.052</ele>
        <time>2021-10-15T17:29:38Z</time>
      </trkpt>
      <trkpt lat="41.458241" lon="-4.867329">
        <ele>656.875</ele>
        <time>2021-10-15T17:29:40Z</time>
      </trkpt>
      <trkpt lat="41.458162" lon="-4.867202">
        <ele>656.710</ele>
        <time>2021-10-15T17:29:41Z</time>
      </trkpt>
      <trkpt lat="41.458002" lon="-4.866939">
        <ele>656.046</ele>
        <time>2021-10-15T17:29:43Z</time>
      </trkpt>
      <trkpt lat="41.457914" lon="-4.866801">
        <ele>655.988</ele>
        <time>2021-10-15T17:29:44Z</time>
      </trkpt>
      <trkpt lat="41.457731" lon="-4.866514">
        <ele>655.516</ele>
        <time>2021-10-15T17:29:46Z</time>
      </trkpt>
      <trkpt lat="41.457537" lon="-4.866213">
        <ele>656.108</ele>
        <time>2021-10-15T17:29:48Z</time>
      </trkpt>
      <trkpt lat="41.457329" lon="-4.865896">
        <ele>657.172</ele>
        <time>2021-10-15T17:29:50Z</time>
      </trkpt>
      <trkpt lat="41.457224" lon="-4.865735">
        <ele>657.590</ele>
        <time>2021-10-15T17:29:51Z</time>
      </trkpt>
      <trkpt lat="41.457030" lon="-4.865443">
        <ele>657.368</ele>
        <time>2021-10-15T17:29:53Z</time>
      </trkpt>
      <trkpt lat="41.456865" lon="-4.865202">
        <ele>657.612</ele>
        <time>2021-10-15T17:29:55Z</time>
      </trkpt>
      <trkpt lat="41.456800" lon="-4.865102">
        <ele>657.937</ele>
        <time>2021-10-15T17:29:56Z</time>
      </trkpt>
      <trkpt lat="41.456694" lon="-4.864936">
        <ele>657.955</ele>
        <time>2021-10-15T17:29:58Z</time>
      </trkpt>
      <trkpt lat="41.456587" lon="-4.864757">
        <ele>658.428</ele>
        <time>2021-10-15T17:30:00Z</time>
      </trkpt>
      <trkpt lat="41.456462" lon="-4.864563">
        <ele>658.223</ele>
        <time>2021-10-15T17:30:02Z</time>
      </trkpt>
      <trkpt lat="41.456354" lon="-4.864405">
        <ele>658.522</ele>
        <time>2021-10-15T17:30:04Z</time>
      </trkpt>
      <trkpt lat="41.456253" lon="-4.864295">
        <ele>658.462</ele>
        <time>2021-10-15T17:30:06Z</time>
      </trkpt>
      <trkpt lat="41.456156" lon="-4.864270">
        <ele>658.308</ele>
        <time>2021-10-15T17:30:08Z</time>
      </trkpt>
      <trkpt lat="41.456069" lon="-4.864279">
        <ele>658.608</ele>
        <time>2021-10-15T17:30:10Z</time>
      </trkpt>
      <trkpt lat="41.456079" lon="-4.864206">
        <ele>677.150</ele>
        <time>2021-10-15T17:30:26Z</time>
      </trkpt>
      <trkpt lat="41.456057" lon="-4.864149">
        <ele>693.248</ele>
        <time>2021-10-15T17:30:29Z</time>
      </trkpt>
      <trkpt lat="41.456022" lon="-4.864097">
        <ele>708.036</ele>
        <time>2021-10-15T17:30:31Z</time>
      </trkpt>
      <trkpt lat="41.455969" lon="-4.864044">
        <ele>708.080</ele>
        <time>2021-10-15T17:30:32Z</time>
      </trkpt>
      <trkpt lat="41.455847" lon="-4.863885">
        <ele>707.975</ele>
        <time>2021-10-15T17:30:34Z</time>
      </trkpt>
      <trkpt lat="41.455742" lon="-4.863652">
        <ele>708.093</ele>
        <time>2021-10-15T17:30:36Z</time>
      </trkpt>
      <trkpt lat="41.455677" lon="-4.863391">
        <ele>708.056</ele>
        <time>2021-10-15T17:30:38Z</time>
      </trkpt>
      <trkpt lat="41.455627" lon="-4.863142">
        <ele>708.051</ele>
        <time>2021-10-15T17:30:40Z</time>
      </trkpt>
      <trkpt lat="41.455594" lon="-4.863023">
        <ele>708.082</ele>
        <time>2021-10-15T17:30:41Z</time>
      </trkpt>
      <trkpt lat="41.455516" lon="-4.862756">
        <ele>708.043</ele>
        <time>2021-10-15T17:30:43Z</time>
      </trkpt>
      <trkpt lat="41.455468" lon="-4.862604">
        <ele>708.017</ele>
        <time>2021-10-15T17:30:44Z</time>
      </trkpt>
      <trkpt lat="41.455409" lon="-4.862448">
        <ele>708.008</ele>
        <time>2021-10-15T17:30:45Z</time>
      </trkpt>
      <trkpt lat="41.455340" lon="-4.862298">
        <ele>708.026</ele>
        <time>2021-10-15T17:30:46Z</time>
      </trkpt>
      <trkpt lat="41.455267" lon="-4.862162">
        <ele>708.074</ele>
        <time>2021-10-15T17:30:47Z</time>
      </trkpt>
      <trkpt lat="41.455130" lon="-4.861925">
        <ele>708.092</ele>
        <time>2021-10-15T17:30:49Z</time>
      </trkpt>
      <trkpt lat="41.455065" lon="-4.861805">
        <ele>708.056</ele>
        <time>2021-10-15T17:30:50Z</time>
      </trkpt>
      <trkpt lat="41.454941" lon="-4.861553">
        <ele>708.031</ele>
        <time>2021-10-15T17:30:52Z</time>
      </trkpt>
      <trkpt lat="41.454885" lon="-4.861416">
        <ele>708.039</ele>
        <time>2021-10-15T17:30:53Z</time>
      </trkpt>
      <trkpt lat="41.454794" lon="-4.861124">
        <ele>708.012</ele>
        <time>2021-10-15T17:30:55Z</time>
      </trkpt>
      <trkpt lat="41.454757" lon="-4.860970">
        <ele>708.097</ele>
        <time>2021-10-15T17:30:56Z</time>
      </trkpt>
      <trkpt lat="41.454672" lon="-4.860652">
        <ele>708.055</ele>
        <time>2021-10-15T17:30:58Z</time>
      </trkpt>
      <trkpt lat="41.454579" lon="-4.860316">
        <ele>708.007</ele>
        <time>2021-10-15T17:31:00Z</time>
      </trkpt>
      <trkpt lat="41.454480" lon="-4.859943">
        <ele>708.017</ele>
        <time>2021-10-15T17:31:02Z</time>
      </trkpt>
      <trkpt lat="41.454379" lon="-4.859573">
        <ele>708.008</ele>
        <time>2021-10-15T17:31:04Z</time>
      </trkpt>
      <trkpt lat="41.454263" lon="-4.859131">
        <ele>708.033</ele>
        <time>2021-10-15T17:31:06Z</time>
      </trkpt>
      <trkpt lat="41.454210" lon="-4.858880">
        <ele>708.071</ele>
        <time>2021-10-15T17:31:07Z</time>
      </trkpt>
      <trkpt lat="41.454166" lon="-4.858616">
        <ele>708.089</ele>
        <time>2021-10-15T17:31:08Z</time>
      </trkpt>
      <trkpt lat="41.454124" lon="-4.858349">
        <ele>708.053</ele>
        <time>2021-10-15T17:31:09Z</time>
      </trkpt>
      <trkpt lat="41.454041" lon="-4.857787">
        <ele>708.058</ele>
        <time>2021-10-15T17:31:11Z</time>
      </trkpt>
      <trkpt lat="41.453957" lon="-4.857194">
        <ele>708.066</ele>
        <time>2021-10-15T17:31:13Z</time>
      </trkpt>
      <trkpt lat="41.453868" lon="-4.856561">
        <ele>659.579</ele>
        <time>2021-10-15T17:31:15Z</time>
      </trkpt>
      <trkpt lat="41.453778" lon="-4.855932">
        <ele>660.064</ele>
        <time>2021-10-15T17:31:17Z</time>
      </trkpt>
      <trkpt lat="41.453729" lon="-4.855618">
        <ele>660.329</ele>
        <time>2021-10-15T17:31:18Z</time>
      </trkpt>
      <trkpt lat="41.453633" lon="-4.854995">
        <ele>660.000</ele>
        <time>2021-10-15T17:31:20Z</time>
      </trkpt>
      <trkpt lat="41.453538" lon="-4.854346">
        <ele>660.220</ele>
        <time>2021-10-15T17:31:22Z</time>
      </trkpt>
      <trkpt lat="41.453487" lon="-4.854011">
        <ele>660.108</ele>
        <time>2021-10-15T17:31:23Z</time>
      </trkpt>
      <trkpt lat="41.453385" lon="-4.853328">
        <ele>659.610</ele>
        <time>2021-10-15T17:31:25Z</time>
      </trkpt>
      <trkpt lat="41.453330" lon="-4.852961">
        <ele>659.428</ele>
        <time>2021-10-15T17:31:26Z</time>
      </trkpt>
      <trkpt lat="41.453224" lon="-4.852267">
        <ele>659.046</ele>
        <time>2021-10-15T17:31:28Z</time>
      </trkpt>
      <trkpt lat="41.453168" lon="-4.851908">
        <ele>659.170</ele>
        <time>2021-10-15T17:31:29Z</time>
      </trkpt>
      <trkpt lat="41.453056" lon="-4.851181">
        <ele>657.675</ele>
        <time>2021-10-15T17:31:31Z</time>
      </trkpt>
      <trkpt lat="41.452986" lon="-4.850804">
        <ele>657.623</ele>
        <time>2021-10-15T17:31:32Z</time>
      </trkpt>
      <trkpt lat="41.452818" lon="-4.850114">
        <ele>656.996</ele>
        <time>2021-10-15T17:31:34Z</time>
      </trkpt>
      <trkpt lat="41.452604" lon="-4.849434">
        <ele>659.041</ele>
        <time>2021-10-15T17:31:36Z</time>
      </trkpt>
      <trkpt lat="41.452494" lon="-4.849102">
        <ele>660.514</ele>
        <time>2021-10-15T17:31:37Z</time>
      </trkpt>
      <trkpt lat="41.452383" lon="-4.848771">
        <ele>661.454</ele>
        <time>2021-10-15T17:31:38Z</time>
      </trkpt>
      <trkpt lat="41.452172" lon="-4.848113">
        <ele>662.009</ele>
        <time>2021-10-15T17:31:40Z</time>
      </trkpt>
      <trkpt lat="41.452072" lon="-4.847772">
        <ele>661.308</ele>
        <time>2021-10-15T17:31:41Z</time>
      </trkpt>
      <trkpt lat="41.451972" lon="-4.847421">
        <ele>660.949</ele>
        <time>2021-10-15T17:31:42Z</time>
      </trkpt>
      <trkpt lat="41.451769" lon="-4.846725">
        <ele>661.467</ele>
        <time>2021-10-15T17:31:44Z</time>
      </trkpt>
      <trkpt lat="41.451666" lon="-4.846375">
        <ele>661.355</ele>
        <time>2021-10-15T17:31:45Z</time>
      </trkpt>
      <trkpt lat="41.451455" lon="-4.845687">
        <ele>660.889</ele>
        <time>2021-10-15T17:31:47Z</time>
      </trkpt>
      <trkpt lat="41.451248" lon="-4.844992">
        <ele>660.334</ele>
        <time>2021-10-15T17:31:49Z</time>
      </trkpt>
      <trkpt lat="41.451043" lon="-4.844301">
        <ele>661.232</ele>
        <time>2021-10-15T17:31:51Z</time>
      </trkpt>
      <trkpt lat="41.450840" lon="-4.843614">
        <ele>660.755</ele>
        <time>2021-10-15T17:31:53Z</time>
      </trkpt>
      <trkpt lat="41.450734" lon="-4.843263">
        <ele>661.010</ele>
        <time>2021-10-15T17:31:54Z</time>
      </trkpt>
      <trkpt lat="41.450529" lon="-4.842551">
        <ele>661.435</ele>
        <time>2021-10-15T17:31:56Z</time>
      </trkpt>
      <trkpt lat="41.450329" lon="-4.841873">
        <ele>662.586</ele>
        <time>2021-10-15T17:31:58Z</time>
      </trkpt>
      <trkpt lat="41.450224" lon="-4.841523">
        <ele>662.814</ele>
        <time>2021-10-15T17:31:59Z</time>
      </trkpt>
      <trkpt lat="41.449993" lon="-4.840848">
        <ele>663.008</ele>
        <time>2021-10-15T17:32:01Z</time>
      </trkpt>
      <trkpt lat="41.449855" lon="-4.840518">
        <ele>663.261</ele>
        <time>2021-10-15T17:32:02Z</time>
      </trkpt>
      <trkpt lat="41.449519" lon="-4.839964">
        <ele>663.549</ele>
        <time>2021-10-15T17:32:04Z</time>
      </trkpt>
      <trkpt lat="41.449114" lon="-4.839444">
        <ele>661.917</ele>
        <time>2021-10-15T17:32:06Z</time>
      </trkpt>
      <trkpt lat="41.448921" lon="-4.839173">
        <ele>661.691</ele>
        <time>2021-10-15T17:32:07Z</time>
      </trkpt>
      <trkpt lat="41.448568" lon="-4.838639">
        <ele>661.716</ele>
        <time>2021-10-15T17:32:09Z</time>
      </trkpt>
      <trkpt lat="41.448393" lon="-4.838385">
        <ele>661.914</ele>
        <time>2021-10-15T17:32:10Z</time>
      </trkpt>
      <trkpt lat="41.448041" lon="-4.837897">
        <ele>661.827</ele>
        <time>2021-10-15T17:32:12Z</time>
      </trkpt>
      <trkpt lat="41.447691" lon="-4.837406">
        <ele>662.472</ele>
        <time>2021-10-15T17:32:14Z</time>
      </trkpt>
      <trkpt lat="41.447516" lon="-4.837153">
        <ele>662.469</ele>
        <time>2021-10-15T17:32:15Z</time>
      </trkpt>
      <trkpt lat="41.447177" lon="-4.836657">
        <ele>662.704</ele>
        <time>2021-10-15T17:32:17Z</time>
      </trkpt>
      <trkpt lat="41.447007" lon="-4.836406">
        <ele>663.024</ele>
        <time>2021-10-15T17:32:18Z</time>
      </trkpt>
      <trkpt lat="41.446672" lon="-4.835897">
        <ele>662.408</ele>
        <time>2021-10-15T17:32:20Z</time>
      </trkpt>
      <trkpt lat="41.446499" lon="-4.835633">
        <ele>662.344</ele>
        <time>2021-10-15T17:32:21Z</time>
      </trkpt>
      <trkpt lat="41.446154" lon="-4.835114">
        <ele>662.742</ele>
        <time>2021-10-15T17:32:23Z</time>
      </trkpt>
      <trkpt lat="41.445801" lon="-4.834594">
        <ele>662.910</ele>
        <time>2021-10-15T17:32:25Z</time>
      </trkpt>
      <trkpt lat="41.445616" lon="-4.834312">
        <ele>662.024</ele>
        <time>2021-10-15T17:32:26Z</time>
      </trkpt>
      <trkpt lat="41.445269" lon="-4.833784">
        <ele>663.369</ele>
        <time>2021-10-15T17:32:28Z</time>
      </trkpt>
      <trkpt lat="41.444913" lon="-4.833241">
        <ele>662.787</ele>
        <time>2021-10-15T17:32:30Z</time>
      </trkpt>
      <trkpt lat="41.444545" lon="-4.832684">
        <ele>663.320</ele>
        <time>2021-10-15T17:32:32Z</time>
      </trkpt>
      <trkpt lat="41.444188" lon="-4.832149">
        <ele>662.685</ele>
        <time>2021-10-15T17:32:34Z</time>
      </trkpt>
      <trkpt lat="41.443994" lon="-4.831868">
        <ele>662.833</ele>
        <time>2021-10-15T17:32:35Z</time>
      </trkpt>
      <trkpt lat="41.443614" lon="-4.831315">
        <ele>663.423</ele>
        <time>2021-10-15T17:32:37Z</time>
      </trkpt>
      <trkpt lat="41.443241" lon="-4.830763">
        <ele>663.215</ele>
        <time>2021-10-15T17:32:39Z</time>
      </trkpt>
      <trkpt lat="41.443053" lon="-4.830475">
        <ele>663.308</ele>
        <time>2021-10-15T17:32:40Z</time>
      </trkpt>
      <trkpt lat="41.442869" lon="-4.830193">
        <ele>663.471</ele>
        <time>2021-10-15T17:32:41Z</time>
      </trkpt>
      <trkpt lat="41.442503" lon="-4.829645">
        <ele>663.699</ele>
        <time>2021-10-15T17:32:43Z</time>
      </trkpt>
      <trkpt lat="41.442317" lon="-4.829369">
        <ele>663.417</ele>
        <time>2021-10-15T17:32:44Z</time>
      </trkpt>
      <trkpt lat="41.441952" lon="-4.828814">
        <ele>663.891</ele>
        <time>2021-10-15T17:32:46Z</time>
      </trkpt>
      <trkpt lat="41.441767" lon="-4.828535">
        <ele>663.676</ele>
        <time>2021-10-15T17:32:47Z</time>
      </trkpt>
      <trkpt lat="41.441398" lon="-4.827976">
        <ele>663.694</ele>
        <time>2021-10-15T17:32:49Z</time>
      </trkpt>
      <trkpt lat="41.441027" lon="-4.827414">
        <ele>663.327</ele>
        <time>2021-10-15T17:32:51Z</time>
      </trkpt>
      <trkpt lat="41.440654" lon="-4.826848">
        <ele>662.852</ele>
        <time>2021-10-15T17:32:53Z</time>
      </trkpt>
      <trkpt lat="41.440281" lon="-4.826285">
        <ele>662.874</ele>
        <time>2021-10-15T17:32:55Z</time>
      </trkpt>
      <trkpt lat="41.440085" lon="-4.825992">
        <ele>663.056</ele>
        <time>2021-10-15T17:32:56Z</time>
      </trkpt>
      <trkpt lat="41.439717" lon="-4.825447">
        <ele>662.921</ele>
        <time>2021-10-15T17:32:58Z</time>
      </trkpt>
      <trkpt lat="41.439524" lon="-4.825169">
        <ele>662.908</ele>
        <time>2021-10-15T17:32:59Z</time>
      </trkpt>
      <trkpt lat="41.439144" lon="-4.824609">
        <ele>663.555</ele>
        <time>2021-10-15T17:33:01Z</time>
      </trkpt>
      <trkpt lat="41.438947" lon="-4.824314">
        <ele>664.363</ele>
        <time>2021-10-15T17:33:02Z</time>
      </trkpt>
      <trkpt lat="41.438582" lon="-4.823751">
        <ele>664.411</ele>
        <time>2021-10-15T17:33:04Z</time>
      </trkpt>
      <trkpt lat="41.438395" lon="-4.823460">
        <ele>664.845</ele>
        <time>2021-10-15T17:33:05Z</time>
      </trkpt>
      <trkpt lat="41.438213" lon="-4.823169">
        <ele>664.890</ele>
        <time>2021-10-15T17:33:06Z</time>
      </trkpt>
      <trkpt lat="41.437844" lon="-4.822610">
        <ele>664.728</ele>
        <time>2021-10-15T17:33:08Z</time>
      </trkpt>
      <trkpt lat="41.437650" lon="-4.822323">
        <ele>665.541</ele>
        <time>2021-10-15T17:33:09Z</time>
      </trkpt>
      <trkpt lat="41.437268" lon="-4.821762">
        <ele>664.936</ele>
        <time>2021-10-15T17:33:11Z</time>
      </trkpt>
      <trkpt lat="41.436890" lon="-4.821196">
        <ele>666.362</ele>
        <time>2021-10-15T17:33:13Z</time>
      </trkpt>
      <trkpt lat="41.436513" lon="-4.820631">
        <ele>666.683</ele>
        <time>2021-10-15T17:33:15Z</time>
      </trkpt>
      <trkpt lat="41.436139" lon="-4.820084">
        <ele>666.811</ele>
        <time>2021-10-15T17:33:17Z</time>
      </trkpt>
      <trkpt lat="41.435952" lon="-4.819808">
        <ele>667.408</ele>
        <time>2021-10-15T17:33:18Z</time>
      </trkpt>
      <trkpt lat="41.435767" lon="-4.819528">
        <ele>667.334</ele>
        <time>2021-10-15T17:33:19Z</time>
      </trkpt>
      <trkpt lat="41.435582" lon="-4.819249">
        <ele>667.462</ele>
        <time>2021-10-15T17:33:20Z</time>
      </trkpt>
      <trkpt lat="41.435215" lon="-4.818682">
        <ele>667.150</ele>
        <time>2021-10-15T17:33:22Z</time>
      </trkpt>
      <trkpt lat="41.434845" lon="-4.818115">
        <ele>666.774</ele>
        <time>2021-10-15T17:33:24Z</time>
      </trkpt>
      <trkpt lat="41.434467" lon="-4.817545">
        <ele>666.499</ele>
        <time>2021-10-15T17:33:26Z</time>
      </trkpt>
      <trkpt lat="41.434097" lon="-4.816972">
        <ele>665.667</ele>
        <time>2021-10-15T17:33:28Z</time>
      </trkpt>
      <trkpt lat="41.433714" lon="-4.816374">
        <ele>664.120</ele>
        <time>2021-10-15T17:33:30Z</time>
      </trkpt>
      <trkpt lat="41.433318" lon="-4.815758">
        <ele>663.395</ele>
        <time>2021-10-15T17:33:32Z</time>
      </trkpt>
      <trkpt lat="41.432927" lon="-4.815166">
        <ele>663.041</ele>
        <time>2021-10-15T17:33:34Z</time>
      </trkpt>
      <trkpt lat="41.432529" lon="-4.814550">
        <ele>662.981</ele>
        <time>2021-10-15T17:33:36Z</time>
      </trkpt>
      <trkpt lat="41.432332" lon="-4.814239">
        <ele>662.909</ele>
        <time>2021-10-15T17:33:37Z</time>
      </trkpt>
      <trkpt lat="41.432138" lon="-4.813923">
        <ele>663.208</ele>
        <time>2021-10-15T17:33:38Z</time>
      </trkpt>
      <trkpt lat="41.431745" lon="-4.813288">
        <ele>662.632</ele>
        <time>2021-10-15T17:33:40Z</time>
      </trkpt>
      <trkpt lat="41.431548" lon="-4.812974">
        <ele>662.010</ele>
        <time>2021-10-15T17:33:41Z</time>
      </trkpt>
      <trkpt lat="41.431348" lon="-4.812666">
        <ele>662.018</ele>
        <time>2021-10-15T17:33:42Z</time>
      </trkpt>
      <trkpt lat="41.430955" lon="-4.812057">
        <ele>662.952</ele>
        <time>2021-10-15T17:33:44Z</time>
      </trkpt>
      <trkpt lat="41.430757" lon="-4.811750">
        <ele>662.837</ele>
        <time>2021-10-15T17:33:45Z</time>
      </trkpt>
      <trkpt lat="41.430561" lon="-4.811443">
        <ele>663.095</ele>
        <time>2021-10-15T17:33:46Z</time>
      </trkpt>
      <trkpt lat="41.430173" lon="-4.810834">
        <ele>662.388</ele>
        <time>2021-10-15T17:33:48Z</time>
      </trkpt>
      <trkpt lat="41.429782" lon="-4.810227">
        <ele>662.563</ele>
        <time>2021-10-15T17:33:50Z</time>
      </trkpt>
      <trkpt lat="41.429395" lon="-4.809615">
        <ele>662.283</ele>
        <time>2021-10-15T17:33:52Z</time>
      </trkpt>
      <trkpt lat="41.429008" lon="-4.809006">
        <ele>661.725</ele>
        <time>2021-10-15T17:33:54Z</time>
      </trkpt>
      <trkpt lat="41.428815" lon="-4.808702">
        <ele>661.717</ele>
        <time>2021-10-15T17:33:55Z</time>
      </trkpt>
      <trkpt lat="41.428611" lon="-4.808383">
        <ele>661.708</ele>
        <time>2021-10-15T17:33:56Z</time>
      </trkpt>
      <trkpt lat="41.428233" lon="-4.807792">
        <ele>661.836</ele>
        <time>2021-10-15T17:33:58Z</time>
      </trkpt>
      <trkpt lat="41.428041" lon="-4.807484">
        <ele>661.784</ele>
        <time>2021-10-15T17:33:59Z</time>
      </trkpt>
      <trkpt lat="41.427847" lon="-4.807176">
        <ele>661.692</ele>
        <time>2021-10-15T17:34:00Z</time>
      </trkpt>
      <trkpt lat="41.427450" lon="-4.806551">
        <ele>661.946</ele>
        <time>2021-10-15T17:34:02Z</time>
      </trkpt>
      <trkpt lat="41.427074" lon="-4.805949">
        <ele>661.491</ele>
        <time>2021-10-15T17:34:04Z</time>
      </trkpt>
      <trkpt lat="41.426889" lon="-4.805655">
        <ele>661.699</ele>
        <time>2021-10-15T17:34:05Z</time>
      </trkpt>
      <trkpt lat="41.426708" lon="-4.805375">
        <ele>661.932</ele>
        <time>2021-10-15T17:34:06Z</time>
      </trkpt>
      <trkpt lat="41.426369" lon="-4.804859">
        <ele>662.757</ele>
        <time>2021-10-15T17:34:08Z</time>
      </trkpt>
      <trkpt lat="41.426036" lon="-4.804445">
        <ele>662.888</ele>
        <time>2021-10-15T17:34:10Z</time>
      </trkpt>
      <trkpt lat="41.425629" lon="-4.804123">
        <ele>663.624</ele>
        <time>2021-10-15T17:34:12Z</time>
      </trkpt>
      <trkpt lat="41.425385" lon="-4.804013">
        <ele>664.426</ele>
        <time>2021-10-15T17:34:13Z</time>
      </trkpt>
      <trkpt lat="41.424861" lon="-4.803921">
        <ele>665.008</ele>
        <time>2021-10-15T17:34:15Z</time>
      </trkpt>
      <trkpt lat="41.424580" lon="-4.803949">
        <ele>665.526</ele>
        <time>2021-10-15T17:34:16Z</time>
      </trkpt>
      <trkpt lat="41.424285" lon="-4.803985">
        <ele>666.394</ele>
        <time>2021-10-15T17:34:17Z</time>
      </trkpt>
      <trkpt lat="41.423695" lon="-4.804094">
        <ele>667.212</ele>
        <time>2021-10-15T17:34:19Z</time>
      </trkpt>
      <trkpt lat="41.423112" lon="-4.804227">
        <ele>669.776</ele>
        <time>2021-10-15T17:34:21Z</time>
      </trkpt>
      <trkpt lat="41.422533" lon="-4.804330">
        <ele>671.391</ele>
        <time>2021-10-15T17:34:23Z</time>
      </trkpt>
      <trkpt lat="41.422244" lon="-4.804372">
        <ele>671.469</ele>
        <time>2021-10-15T17:34:24Z</time>
      </trkpt>
      <trkpt lat="41.421955" lon="-4.804410">
        <ele>671.642</ele>
        <time>2021-10-15T17:34:25Z</time>
      </trkpt>
      <trkpt lat="41.421655" lon="-4.804453">
        <ele>672.597</ele>
        <time>2021-10-15T17:34:26Z</time>
      </trkpt>
      <trkpt lat="41.421095" lon="-4.804501">
        <ele>672.697</ele>
        <time>2021-10-15T17:34:28Z</time>
      </trkpt>
      <trkpt lat="41.420799" lon="-4.804522">
        <ele>673.423</ele>
        <time>2021-10-15T17:34:29Z</time>
      </trkpt>
      <trkpt lat="41.420226" lon="-4.804555">
        <ele>674.725</ele>
        <time>2021-10-15T17:34:31Z</time>
      </trkpt>
      <trkpt lat="41.419945" lon="-4.804579">
        <ele>675.508</ele>
        <time>2021-10-15T17:34:32Z</time>
      </trkpt>
      <trkpt lat="41.419455" lon="-4.804609">
        <ele>675.967</ele>
        <time>2021-10-15T17:34:34Z</time>
      </trkpt>
      <trkpt lat="41.418998" lon="-4.804648">
        <ele>676.275</ele>
        <time>2021-10-15T17:34:36Z</time>
      </trkpt>
      <trkpt lat="41.418594" lon="-4.804728">
        <ele>675.893</ele>
        <time>2021-10-15T17:34:38Z</time>
      </trkpt>
      <trkpt lat="41.418395" lon="-4.804815">
        <ele>675.977</ele>
        <time>2021-10-15T17:34:39Z</time>
      </trkpt>
      <trkpt lat="41.418042" lon="-4.805076">
        <ele>675.362</ele>
        <time>2021-10-15T17:34:41Z</time>
      </trkpt>
      <trkpt lat="41.417879" lon="-4.805232">
        <ele>675.140</ele>
        <time>2021-10-15T17:34:42Z</time>
      </trkpt>
      <trkpt lat="41.417594" lon="-4.805517">
        <ele>675.163</ele>
        <time>2021-10-15T17:34:44Z</time>
      </trkpt>
      <trkpt lat="41.417351" lon="-4.805775">
        <ele>676.058</ele>
        <time>2021-10-15T17:34:46Z</time>
      </trkpt>
      <trkpt lat="41.417249" lon="-4.805882">
        <ele>676.968</ele>
        <time>2021-10-15T17:34:47Z</time>
      </trkpt>
      <trkpt lat="41.417113" lon="-4.806001">
        <ele>676.942</ele>
        <time>2021-10-15T17:34:49Z</time>
      </trkpt>
      <trkpt lat="41.417051" lon="-4.806060">
        <ele>676.926</ele>
        <time>2021-10-15T17:34:50Z</time>
      </trkpt>
      <trkpt lat="41.416994" lon="-4.806114">
        <ele>677.008</ele>
        <time>2021-10-15T17:34:51Z</time>
      </trkpt>
      <trkpt lat="41.416954" lon="-4.806150">
        <ele>677.734</ele>
        <time>2021-10-15T17:34:52Z</time>
      </trkpt>
      <trkpt lat="41.416868" lon="-4.806227">
        <ele>678.352</ele>
        <time>2021-10-15T17:34:54Z</time>
      </trkpt>
      <trkpt lat="41.416782" lon="-4.806262">
        <ele>678.430</ele>
        <time>2021-10-15T17:34:56Z</time>
      </trkpt>
      <trkpt lat="41.416687" lon="-4.806165">
        <ele>678.874</ele>
        <time>2021-10-15T17:34:58Z</time>
      </trkpt>
      <trkpt lat="41.416648" lon="-4.805937">
        <ele>679.439</ele>
        <time>2021-10-15T17:35:00Z</time>
      </trkpt>
      <trkpt lat="41.416687" lon="-4.805597">
        <ele>680.397</ele>
        <time>2021-10-15T17:35:02Z</time>
      </trkpt>
      <trkpt lat="41.416742" lon="-4.805178">
        <ele>682.330</ele>
        <time>2021-10-15T17:35:04Z</time>
      </trkpt>
      <trkpt lat="41.416778" lon="-4.804737">
        <ele>684.165</ele>
        <time>2021-10-15T17:35:06Z</time>
      </trkpt>
      <trkpt lat="41.416802" lon="-4.804291">
        <ele>685.423</ele>
        <time>2021-10-15T17:35:08Z</time>
      </trkpt>
      <trkpt lat="41.416815" lon="-4.804069">
        <ele>685.583</ele>
        <time>2021-10-15T17:35:09Z</time>
      </trkpt>
      <trkpt lat="41.416827" lon="-4.803863">
        <ele>685.211</ele>
        <time>2021-10-15T17:35:10Z</time>
      </trkpt>
      <trkpt lat="41.416839" lon="-4.803671">
        <ele>685.608</ele>
        <time>2021-10-15T17:35:11Z</time>
      </trkpt>
      <trkpt lat="41.416862" lon="-4.803290">
        <ele>685.220</ele>
        <time>2021-10-15T17:35:13Z</time>
      </trkpt>
      <trkpt lat="41.416875" lon="-4.803083">
        <ele>685.468</ele>
        <time>2021-10-15T17:35:14Z</time>
      </trkpt>
      <trkpt lat="41.416902" lon="-4.802633">
        <ele>684.076</ele>
        <time>2021-10-15T17:35:16Z</time>
      </trkpt>
      <trkpt lat="41.416918" lon="-4.802148">
        <ele>684.460</ele>
        <time>2021-10-15T17:35:18Z</time>
      </trkpt>
      <trkpt lat="41.416907" lon="-4.801898">
        <ele>683.225</ele>
        <time>2021-10-15T17:35:19Z</time>
      </trkpt>
      <trkpt lat="41.416816" lon="-4.801407">
        <ele>681.123</ele>
        <time>2021-10-15T17:35:21Z</time>
      </trkpt>
      <trkpt lat="41.416737" lon="-4.801166">
        <ele>679.876</ele>
        <time>2021-10-15T17:35:22Z</time>
      </trkpt>
      <trkpt lat="41.416633" lon="-4.800934">
        <ele>678.751</ele>
        <time>2021-10-15T17:35:23Z</time>
      </trkpt>
      <trkpt lat="41.416352" lon="-4.800524">
        <ele>677.494</ele>
        <time>2021-10-15T17:35:25Z</time>
      </trkpt>
      <trkpt lat="41.416170" lon="-4.800341">
        <ele>676.257</ele>
        <time>2021-10-15T17:35:26Z</time>
      </trkpt>
      <trkpt lat="41.415779" lon="-4.800090">
        <ele>673.922</ele>
        <time>2021-10-15T17:35:28Z</time>
      </trkpt>
      <trkpt lat="41.415356" lon="-4.799852">
        <ele>672.708</ele>
        <time>2021-10-15T17:35:30Z</time>
      </trkpt>
      <trkpt lat="41.414929" lon="-4.799577">
        <ele>672.047</ele>
        <time>2021-10-15T17:35:32Z</time>
      </trkpt>
      <trkpt lat="41.414520" lon="-4.799303">
        <ele>671.775</ele>
        <time>2021-10-15T17:35:34Z</time>
      </trkpt>
      <trkpt lat="41.414309" lon="-4.799156">
        <ele>672.393</ele>
        <time>2021-10-15T17:35:35Z</time>
      </trkpt>
      <trkpt lat="41.414102" lon="-4.799009">
        <ele>672.437</ele>
        <time>2021-10-15T17:35:36Z</time>
      </trkpt>
      <trkpt lat="41.413708" lon="-4.798726">
        <ele>672.312</ele>
        <time>2021-10-15T17:35:38Z</time>
      </trkpt>
      <trkpt lat="41.413322" lon="-4.798438">
        <ele>672.570</ele>
        <time>2021-10-15T17:35:40Z</time>
      </trkpt>
      <trkpt lat="41.413123" lon="-4.798289">
        <ele>672.563</ele>
        <time>2021-10-15T17:35:41Z</time>
      </trkpt>
      <trkpt lat="41.412925" lon="-4.798134">
        <ele>672.098</ele>
        <time>2021-10-15T17:35:42Z</time>
      </trkpt>
      <trkpt lat="41.412726" lon="-4.797979">
        <ele>672.137</ele>
        <time>2021-10-15T17:35:43Z</time>
      </trkpt>
      <trkpt lat="41.412525" lon="-4.797825">
        <ele>672.349</ele>
        <time>2021-10-15T17:35:44Z</time>
      </trkpt>
      <trkpt lat="41.412322" lon="-4.797676">
        <ele>672.313</ele>
        <time>2021-10-15T17:35:45Z</time>
      </trkpt>
      <trkpt lat="41.412117" lon="-4.797527">
        <ele>672.408</ele>
        <time>2021-10-15T17:35:46Z</time>
      </trkpt>
      <trkpt lat="41.411721" lon="-4.797240">
        <ele>673.171</ele>
        <time>2021-10-15T17:35:48Z</time>
      </trkpt>
      <trkpt lat="41.411343" lon="-4.796949">
        <ele>673.099</ele>
        <time>2021-10-15T17:35:50Z</time>
      </trkpt>
      <trkpt lat="41.410970" lon="-4.796668">
        <ele>673.677</ele>
        <time>2021-10-15T17:35:52Z</time>
      </trkpt>
      <trkpt lat="41.410783" lon="-4.796536">
        <ele>673.791</ele>
        <time>2021-10-15T17:35:53Z</time>
      </trkpt>
      <trkpt lat="41.410412" lon="-4.796278">
        <ele>673.966</ele>
        <time>2021-10-15T17:35:55Z</time>
      </trkpt>
      <trkpt lat="41.410210" lon="-4.796144">
        <ele>674.344</ele>
        <time>2021-10-15T17:35:56Z</time>
      </trkpt>
      <trkpt lat="41.409812" lon="-4.795913">
        <ele>674.767</ele>
        <time>2021-10-15T17:35:58Z</time>
      </trkpt>
      <trkpt lat="41.409591" lon="-4.795826">
        <ele>675.742</ele>
        <time>2021-10-15T17:35:59Z</time>
      </trkpt>
      <trkpt lat="41.409114" lon="-4.795755">
        <ele>676.987</ele>
        <time>2021-10-15T17:36:01Z</time>
      </trkpt>
      <trkpt lat="41.408853" lon="-4.795762">
        <ele>677.142</ele>
        <time>2021-10-15T17:36:02Z</time>
      </trkpt>
      <trkpt lat="41.408399" lon="-4.795797">
        <ele>677.626</ele>
        <time>2021-10-15T17:36:04Z</time>
      </trkpt>
      <trkpt lat="41.408194" lon="-4.795797">
        <ele>678.308</ele>
        <time>2021-10-15T17:36:05Z</time>
      </trkpt>
      <trkpt lat="41.407871" lon="-4.795769">
        <ele>679.326</ele>
        <time>2021-10-15T17:36:07Z</time>
      </trkpt>
      <trkpt lat="41.407671" lon="-4.795693">
        <ele>679.034</ele>
        <time>2021-10-15T17:36:09Z</time>
      </trkpt>
      <trkpt lat="41.407610" lon="-4.795641">
        <ele>679.052</ele>
        <time>2021-10-15T17:36:10Z</time>
      </trkpt>
      <trkpt lat="41.407567" lon="-4.795591">
        <ele>679.156</ele>
        <time>2021-10-15T17:36:11Z</time>
      </trkpt>
      <trkpt lat="41.407532" lon="-4.795529">
        <ele>679.131</ele>
        <time>2021-10-15T17:36:13Z</time>
      </trkpt>
      <trkpt lat="41.407538" lon="-4.795447">
        <ele>679.549</ele>
        <time>2021-10-15T17:36:16Z</time>
      </trkpt>
      <trkpt lat="41.407537" lon="-4.795340">
        <ele>679.772</ele>
        <time>2021-10-15T17:36:19Z</time>
      </trkpt>
      <trkpt lat="41.407592" lon="-4.795159">
        <ele>679.737</ele>
        <time>2021-10-15T17:36:21Z</time>
      </trkpt>
      <trkpt lat="41.407729" lon="-4.794940">
        <ele>679.348</ele>
        <time>2021-10-15T17:36:23Z</time>
      </trkpt>
      <trkpt lat="41.407813" lon="-4.794809">
        <ele>679.161</ele>
        <time>2021-10-15T17:36:24Z</time>
      </trkpt>
      <trkpt lat="41.407999" lon="-4.794496">
        <ele>678.417</ele>
        <time>2021-10-15T17:36:26Z</time>
      </trkpt>
      <trkpt lat="41.408171" lon="-4.794137">
        <ele>678.008</ele>
        <time>2021-10-15T17:36:28Z</time>
      </trkpt>
      <trkpt lat="41.408255" lon="-4.793941">
        <ele>677.562</ele>
        <time>2021-10-15T17:36:29Z</time>
      </trkpt>
      <trkpt lat="41.408438" lon="-4.793545">
        <ele>677.710</ele>
        <time>2021-10-15T17:36:31Z</time>
      </trkpt>
      <trkpt lat="41.408552" lon="-4.793331">
        <ele>677.558</ele>
        <time>2021-10-15T17:36:32Z</time>
      </trkpt>
      <trkpt lat="41.408799" lon="-4.792936">
        <ele>676.542</ele>
        <time>2021-10-15T17:36:34Z</time>
      </trkpt>
      <trkpt lat="41.408931" lon="-4.792749">
        <ele>676.067</ele>
        <time>2021-10-15T17:36:35Z</time>
      </trkpt>
      <trkpt lat="41.409194" lon="-4.792436">
        <ele>675.795</ele>
        <time>2021-10-15T17:36:37Z</time>
      </trkpt>
      <trkpt lat="41.409324" lon="-4.792313">
        <ele>675.198</ele>
        <time>2021-10-15T17:36:38Z</time>
      </trkpt>
      <trkpt lat="41.409565" lon="-4.792127">
        <ele>674.873</ele>
        <time>2021-10-15T17:36:40Z</time>
      </trkpt>
      <trkpt lat="41.409672" lon="-4.792051">
        <ele>674.783</ele>
        <time>2021-10-15T17:36:41Z</time>
      </trkpt>
      <trkpt lat="41.409842" lon="-4.791931">
        <ele>674.225</ele>
        <time>2021-10-15T17:36:43Z</time>
      </trkpt>
      <trkpt lat="41.409980" lon="-4.791830">
        <ele>674.117</ele>
        <time>2021-10-15T17:36:45Z</time>
      </trkpt>
      <trkpt lat="41.410050" lon="-4.791779">
        <ele>673.708</ele>
        <time>2021-10-15T17:36:46Z</time>
      </trkpt>
      <trkpt lat="41.410190" lon="-4.791673">
        <ele>673.646</ele>
        <time>2021-10-15T17:36:48Z</time>
      </trkpt>
      <trkpt lat="41.410263" lon="-4.791613">
        <ele>673.184</ele>
        <time>2021-10-15T17:36:49Z</time>
      </trkpt>
      <trkpt lat="41.410337" lon="-4.791551">
        <ele>673.162</ele>
        <time>2021-10-15T17:36:50Z</time>
      </trkpt>
      <trkpt lat="41.410466" lon="-4.791438">
        <ele>672.786</ele>
        <time>2021-10-15T17:36:52Z</time>
      </trkpt>
      <trkpt lat="41.410588" lon="-4.791335">
        <ele>672.631</ele>
        <time>2021-10-15T17:36:54Z</time>
      </trkpt>
      <trkpt lat="41.410658" lon="-4.791279">
        <ele>672.229</ele>
        <time>2021-10-15T17:36:55Z</time>
      </trkpt>
      <trkpt lat="41.410731" lon="-4.791208">
        <ele>672.052</ele>
        <time>2021-10-15T17:36:56Z</time>
      </trkpt>
      <trkpt lat="41.410863" lon="-4.791047">
        <ele>671.997</ele>
        <time>2021-10-15T17:36:58Z</time>
      </trkpt>
      <trkpt lat="41.410927" lon="-4.790953">
        <ele>672.011</ele>
        <time>2021-10-15T17:36:59Z</time>
      </trkpt>
      <trkpt lat="41.410988" lon="-4.790851">
        <ele>672.221</ele>
        <time>2021-10-15T17:37:00Z</time>
      </trkpt>
      <trkpt lat="41.411094" lon="-4.790630">
        <ele>672.003</ele>
        <time>2021-10-15T17:37:02Z</time>
      </trkpt>
      <trkpt lat="41.411152" lon="-4.790427">
        <ele>671.908</ele>
        <time>2021-10-15T17:37:04Z</time>
      </trkpt>
      <trkpt lat="41.411115" lon="-4.790268">
        <ele>671.139</ele>
        <time>2021-10-15T17:37:06Z</time>
      </trkpt>
      <trkpt lat="41.411061" lon="-4.790201">
        <ele>671.137</ele>
        <time>2021-10-15T17:37:07Z</time>
      </trkpt>
      <trkpt lat="41.410916" lon="-4.790061">
        <ele>671.865</ele>
        <time>2021-10-15T17:37:09Z</time>
      </trkpt>
      <trkpt lat="41.410759" lon="-4.789886">
        <ele>671.969</ele>
        <time>2021-10-15T17:37:11Z</time>
      </trkpt>
      <trkpt lat="41.410665" lon="-4.789797">
        <ele>671.224</ele>
        <time>2021-10-15T17:37:12Z</time>
      </trkpt>
      <trkpt lat="41.410444" lon="-4.789635">
        <ele>671.412</ele>
        <time>2021-10-15T17:37:14Z</time>
      </trkpt>
      <trkpt lat="41.410173" lon="-4.789457">
        <ele>671.385</ele>
        <time>2021-10-15T17:37:16Z</time>
      </trkpt>
      <trkpt lat="41.410014" lon="-4.789347">
        <ele>671.340</ele>
        <time>2021-10-15T17:37:17Z</time>
      </trkpt>
      <trkpt lat="41.409859" lon="-4.789238">
        <ele>671.943</ele>
        <time>2021-10-15T17:37:18Z</time>
      </trkpt>
      <trkpt lat="41.409535" lon="-4.788994">
        <ele>672.264</ele>
        <time>2021-10-15T17:37:20Z</time>
      </trkpt>
      <trkpt lat="41.409172" lon="-4.788721">
        <ele>672.210</ele>
        <time>2021-10-15T17:37:22Z</time>
      </trkpt>
      <trkpt lat="41.408969" lon="-4.788575">
        <ele>673.008</ele>
        <time>2021-10-15T17:37:23Z</time>
      </trkpt>
      <trkpt lat="41.408553" lon="-4.788259">
        <ele>673.012</ele>
        <time>2021-10-15T17:37:25Z</time>
      </trkpt>
      <trkpt lat="41.408320" lon="-4.788073">
        <ele>673.160</ele>
        <time>2021-10-15T17:37:26Z</time>
      </trkpt>
      <trkpt lat="41.407865" lon="-4.787722">
        <ele>673.988</ele>
        <time>2021-10-15T17:37:28Z</time>
      </trkpt>
      <trkpt lat="41.407394" lon="-4.787374">
        <ele>674.212</ele>
        <time>2021-10-15T17:37:30Z</time>
      </trkpt>
      <trkpt lat="41.407148" lon="-4.787192">
        <ele>674.687</ele>
        <time>2021-10-15T17:37:31Z</time>
      </trkpt>
      <trkpt lat="41.406899" lon="-4.787007">
        <ele>674.865</ele>
        <time>2021-10-15T17:37:32Z</time>
      </trkpt>
      <trkpt lat="41.406457" lon="-4.786677">
        <ele>675.228</ele>
        <time>2021-10-15T17:37:34Z</time>
      </trkpt>
      <trkpt lat="41.406235" lon="-4.786513">
        <ele>675.513</ele>
        <time>2021-10-15T17:37:35Z</time>
      </trkpt>
      <trkpt lat="41.405783" lon="-4.786220">
        <ele>676.141</ele>
        <time>2021-10-15T17:37:37Z</time>
      </trkpt>
      <trkpt lat="41.405305" lon="-4.785990">
        <ele>675.681</ele>
        <time>2021-10-15T17:37:39Z</time>
      </trkpt>
      <trkpt lat="41.404862" lon="-4.785794">
        <ele>676.109</ele>
        <time>2021-10-15T17:37:41Z</time>
      </trkpt>
      <trkpt lat="41.404463" lon="-4.785598">
        <ele>676.108</ele>
        <time>2021-10-15T17:37:43Z</time>
      </trkpt>
      <trkpt lat="41.404272" lon="-4.785490">
        <ele>675.232</ele>
        <time>2021-10-15T17:37:44Z</time>
      </trkpt>
      <trkpt lat="41.403892" lon="-4.785258">
        <ele>675.050</ele>
        <time>2021-10-15T17:37:46Z</time>
      </trkpt>
      <trkpt lat="41.403503" lon="-4.785015">
        <ele>675.018</ele>
        <time>2021-10-15T17:37:48Z</time>
      </trkpt>
      <trkpt lat="41.403104" lon="-4.784771">
        <ele>673.352</ele>
        <time>2021-10-15T17:37:50Z</time>
      </trkpt>
      <trkpt lat="41.402906" lon="-4.784651">
        <ele>672.847</ele>
        <time>2021-10-15T17:37:51Z</time>
      </trkpt>
      <trkpt lat="41.402708" lon="-4.784532">
        <ele>672.175</ele>
        <time>2021-10-15T17:37:52Z</time>
      </trkpt>
      <trkpt lat="41.402315" lon="-4.784297">
        <ele>671.358</ele>
        <time>2021-10-15T17:37:54Z</time>
      </trkpt>
      <trkpt lat="41.401915" lon="-4.784051">
        <ele>670.883</ele>
        <time>2021-10-15T17:37:56Z</time>
      </trkpt>
      <trkpt lat="41.401536" lon="-4.783813">
        <ele>670.037</ele>
        <time>2021-10-15T17:37:58Z</time>
      </trkpt>
      <trkpt lat="41.401158" lon="-4.783556">
        <ele>669.549</ele>
        <time>2021-10-15T17:38:00Z</time>
      </trkpt>
      <trkpt lat="41.400780" lon="-4.783266">
        <ele>669.413</ele>
        <time>2021-10-15T17:38:02Z</time>
      </trkpt>
      <trkpt lat="41.400425" lon="-4.782957">
        <ele>668.408</ele>
        <time>2021-10-15T17:38:04Z</time>
      </trkpt>
      <trkpt lat="41.400061" lon="-4.782615">
        <ele>668.381</ele>
        <time>2021-10-15T17:38:06Z</time>
      </trkpt>
      <trkpt lat="41.399878" lon="-4.782440">
        <ele>667.169</ele>
        <time>2021-10-15T17:38:07Z</time>
      </trkpt>
      <trkpt lat="41.399692" lon="-4.782263">
        <ele>666.317</ele>
        <time>2021-10-15T17:38:08Z</time>
      </trkpt>
      <trkpt lat="41.399322" lon="-4.781912">
        <ele>665.941</ele>
        <time>2021-10-15T17:38:10Z</time>
      </trkpt>
      <trkpt lat="41.398955" lon="-4.781561">
        <ele>664.336</ele>
        <time>2021-10-15T17:38:12Z</time>
      </trkpt>
      <trkpt lat="41.398592" lon="-4.781209">
        <ele>664.444</ele>
        <time>2021-10-15T17:38:14Z</time>
      </trkpt>
      <trkpt lat="41.398234" lon="-4.780859">
        <ele>662.877</ele>
        <time>2021-10-15T17:38:16Z</time>
      </trkpt>
      <trkpt lat="41.397864" lon="-4.780521">
        <ele>662.912</ele>
        <time>2021-10-15T17:38:18Z</time>
      </trkpt>
      <trkpt lat="41.397466" lon="-4.780168">
        <ele>662.285</ele>
        <time>2021-10-15T17:38:20Z</time>
      </trkpt>
      <trkpt lat="41.397049" lon="-4.779782">
        <ele>661.589</ele>
        <time>2021-10-15T17:38:22Z</time>
      </trkpt>
      <trkpt lat="41.396624" lon="-4.779379">
        <ele>661.317</ele>
        <time>2021-10-15T17:38:24Z</time>
      </trkpt>
      <trkpt lat="41.396417" lon="-4.779188">
        <ele>661.408</ele>
        <time>2021-10-15T17:38:25Z</time>
      </trkpt>
      <trkpt lat="41.396215" lon="-4.779003">
        <ele>661.626</ele>
        <time>2021-10-15T17:38:26Z</time>
      </trkpt>
      <trkpt lat="41.395819" lon="-4.778663">
        <ele>661.484</ele>
        <time>2021-10-15T17:38:28Z</time>
      </trkpt>
      <trkpt lat="41.395375" lon="-4.778337">
        <ele>661.182</ele>
        <time>2021-10-15T17:38:30Z</time>
      </trkpt>
      <trkpt lat="41.394892" lon="-4.778018">
        <ele>661.176</ele>
        <time>2021-10-15T17:38:32Z</time>
      </trkpt>
      <trkpt lat="41.394391" lon="-4.777730">
        <ele>661.971</ele>
        <time>2021-10-15T17:38:34Z</time>
      </trkpt>
      <trkpt lat="41.394118" lon="-4.777587">
        <ele>662.269</ele>
        <time>2021-10-15T17:38:35Z</time>
      </trkpt>
      <trkpt lat="41.393568" lon="-4.777292">
        <ele>662.562</ele>
        <time>2021-10-15T17:38:37Z</time>
      </trkpt>
      <trkpt lat="41.393287" lon="-4.777140">
        <ele>662.977</ele>
        <time>2021-10-15T17:38:38Z</time>
      </trkpt>
      <trkpt lat="41.392719" lon="-4.776826">
        <ele>664.045</ele>
        <time>2021-10-15T17:38:40Z</time>
      </trkpt>
      <trkpt lat="41.392151" lon="-4.776507">
        <ele>664.747</ele>
        <time>2021-10-15T17:38:42Z</time>
      </trkpt>
      <trkpt lat="41.391584" lon="-4.776193">
        <ele>665.711</ele>
        <time>2021-10-15T17:38:44Z</time>
      </trkpt>
      <trkpt lat="41.391299" lon="-4.776034">
        <ele>665.808</ele>
        <time>2021-10-15T17:38:45Z</time>
      </trkpt>
      <trkpt lat="41.391016" lon="-4.775876">
        <ele>665.722</ele>
        <time>2021-10-15T17:38:46Z</time>
      </trkpt>
      <trkpt lat="41.390451" lon="-4.775561">
        <ele>665.260</ele>
        <time>2021-10-15T17:38:48Z</time>
      </trkpt>
      <trkpt lat="41.389889" lon="-4.775249">
        <ele>664.738</ele>
        <time>2021-10-15T17:38:50Z</time>
      </trkpt>
      <trkpt lat="41.389604" lon="-4.775091">
        <ele>665.012</ele>
        <time>2021-10-15T17:38:51Z</time>
      </trkpt>
      <trkpt lat="41.389042" lon="-4.774776">
        <ele>664.777</ele>
        <time>2021-10-15T17:38:53Z</time>
      </trkpt>
      <trkpt lat="41.388762" lon="-4.774616">
        <ele>664.435</ele>
        <time>2021-10-15T17:38:54Z</time>
      </trkpt>
      <trkpt lat="41.388206" lon="-4.774299">
        <ele>664.368</ele>
        <time>2021-10-15T17:38:56Z</time>
      </trkpt>
      <trkpt lat="41.387669" lon="-4.774004">
        <ele>663.953</ele>
        <time>2021-10-15T17:38:58Z</time>
      </trkpt>
      <trkpt lat="41.387120" lon="-4.773789">
        <ele>662.931</ele>
        <time>2021-10-15T17:39:00Z</time>
      </trkpt>
      <trkpt lat="41.386845" lon="-4.773743">
        <ele>662.761</ele>
        <time>2021-10-15T17:39:01Z</time>
      </trkpt>
      <trkpt lat="41.386558" lon="-4.773738">
        <ele>662.007</ele>
        <time>2021-10-15T17:39:02Z</time>
      </trkpt>
      <trkpt lat="41.386019" lon="-4.773723">
        <ele>661.608</ele>
        <time>2021-10-15T17:39:04Z</time>
      </trkpt>
      <trkpt lat="41.385475" lon="-4.773586">
        <ele>661.421</ele>
        <time>2021-10-15T17:39:06Z</time>
      </trkpt>
      <trkpt lat="41.384973" lon="-4.773289">
        <ele>661.799</ele>
        <time>2021-10-15T17:39:08Z</time>
      </trkpt>
      <trkpt lat="41.384523" lon="-4.772831">
        <ele>661.297</ele>
        <time>2021-10-15T17:39:10Z</time>
      </trkpt>
      <trkpt lat="41.384140" lon="-4.772244">
        <ele>661.271</ele>
        <time>2021-10-15T17:39:12Z</time>
      </trkpt>
      <trkpt lat="41.383970" lon="-4.771906">
        <ele>661.096</ele>
        <time>2021-10-15T17:39:13Z</time>
      </trkpt>
      <trkpt lat="41.383698" lon="-4.771175">
        <ele>660.294</ele>
        <time>2021-10-15T17:39:15Z</time>
      </trkpt>
      <trkpt lat="41.383596" lon="-4.770798">
        <ele>660.287</ele>
        <time>2021-10-15T17:39:16Z</time>
      </trkpt>
      <trkpt lat="41.383427" lon="-4.770079">
        <ele>660.062</ele>
        <time>2021-10-15T17:39:18Z</time>
      </trkpt>
      <trkpt lat="41.383346" lon="-4.769732">
        <ele>660.372</ele>
        <time>2021-10-15T17:39:19Z</time>
      </trkpt>
      <trkpt lat="41.383149" lon="-4.769134">
        <ele>659.913</ele>
        <time>2021-10-15T17:39:21Z</time>
      </trkpt>
      <trkpt lat="41.382855" lon="-4.768607">
        <ele>661.314</ele>
        <time>2021-10-15T17:39:23Z</time>
      </trkpt>
      <trkpt lat="41.382676" lon="-4.768360">
        <ele>662.508</ele>
        <time>2021-10-15T17:39:24Z</time>
      </trkpt>
      <trkpt lat="41.382282" lon="-4.767860">
        <ele>664.945</ele>
        <time>2021-10-15T17:39:26Z</time>
      </trkpt>
      <trkpt lat="41.381815" lon="-4.767437">
        <ele>666.883</ele>
        <time>2021-10-15T17:39:28Z</time>
      </trkpt>
      <trkpt lat="41.381544" lon="-4.767239">
        <ele>666.961</ele>
        <time>2021-10-15T17:39:29Z</time>
      </trkpt>
      <trkpt lat="41.380916" lon="-4.766835">
        <ele>667.025</ele>
        <time>2021-10-15T17:39:31Z</time>
      </trkpt>
      <trkpt lat="41.380596" lon="-4.766616">
        <ele>667.010</ele>
        <time>2021-10-15T17:39:32Z</time>
      </trkpt>
      <trkpt lat="41.380004" lon="-4.766211">
        <ele>665.988</ele>
        <time>2021-10-15T17:39:34Z</time>
      </trkpt>
      <trkpt lat="41.379711" lon="-4.766002">
        <ele>666.011</ele>
        <time>2021-10-15T17:39:35Z</time>
      </trkpt>
      <trkpt lat="41.379420" lon="-4.765797">
        <ele>665.996</ele>
        <time>2021-10-15T17:39:36Z</time>
      </trkpt>
      <trkpt lat="41.378855" lon="-4.765376">
        <ele>665.615</ele>
        <time>2021-10-15T17:39:38Z</time>
      </trkpt>
      <trkpt lat="41.378575" lon="-4.765158">
        <ele>665.865</ele>
        <time>2021-10-15T17:39:39Z</time>
      </trkpt>
      <trkpt lat="41.378296" lon="-4.764940">
        <ele>665.311</ele>
        <time>2021-10-15T17:39:40Z</time>
      </trkpt>
      <trkpt lat="41.377742" lon="-4.764500">
        <ele>664.508</ele>
        <time>2021-10-15T17:39:42Z</time>
      </trkpt>
      <trkpt lat="41.377463" lon="-4.764282">
        <ele>664.569</ele>
        <time>2021-10-15T17:39:43Z</time>
      </trkpt>
      <trkpt lat="41.377184" lon="-4.764062">
        <ele>664.797</ele>
        <time>2021-10-15T17:39:44Z</time>
      </trkpt>
      <trkpt lat="41.376628" lon="-4.763610">
        <ele>664.895</ele>
        <time>2021-10-15T17:39:46Z</time>
      </trkpt>
      <trkpt lat="41.376062" lon="-4.763152">
        <ele>664.219</ele>
        <time>2021-10-15T17:39:48Z</time>
      </trkpt>
      <trkpt lat="41.375494" lon="-4.762704">
        <ele>664.744</ele>
        <time>2021-10-15T17:39:50Z</time>
      </trkpt>
      <trkpt lat="41.374918" lon="-4.762255">
        <ele>664.512</ele>
        <time>2021-10-15T17:39:52Z</time>
      </trkpt>
      <trkpt lat="41.374345" lon="-4.761805">
        <ele>664.985</ele>
        <time>2021-10-15T17:39:54Z</time>
      </trkpt>
      <trkpt lat="41.373757" lon="-4.761333">
        <ele>664.950</ele>
        <time>2021-10-15T17:39:56Z</time>
      </trkpt>
      <trkpt lat="41.373202" lon="-4.760881">
        <ele>664.911</ele>
        <time>2021-10-15T17:39:58Z</time>
      </trkpt>
      <trkpt lat="41.372641" lon="-4.760432">
        <ele>664.021</ele>
        <time>2021-10-15T17:40:00Z</time>
      </trkpt>
      <trkpt lat="41.372066" lon="-4.759979">
        <ele>664.403</ele>
        <time>2021-10-15T17:40:02Z</time>
      </trkpt>
      <trkpt lat="41.371528" lon="-4.759557">
        <ele>664.308</ele>
        <time>2021-10-15T17:40:04Z</time>
      </trkpt>
      <trkpt lat="41.371265" lon="-4.759351">
        <ele>664.419</ele>
        <time>2021-10-15T17:40:05Z</time>
      </trkpt>
      <trkpt lat="41.370779" lon="-4.758970">
        <ele>665.827</ele>
        <time>2021-10-15T17:40:07Z</time>
      </trkpt>
      <trkpt lat="41.370560" lon="-4.758808">
        <ele>666.035</ele>
        <time>2021-10-15T17:40:08Z</time>
      </trkpt>
      <trkpt lat="41.370112" lon="-4.758485">
        <ele>666.439</ele>
        <time>2021-10-15T17:40:10Z</time>
      </trkpt>
      <trkpt lat="41.369649" lon="-4.758123">
        <ele>664.814</ele>
        <time>2021-10-15T17:40:12Z</time>
      </trkpt>
      <trkpt lat="41.369414" lon="-4.757928">
        <ele>664.942</ele>
        <time>2021-10-15T17:40:13Z</time>
      </trkpt>
      <trkpt lat="41.368948" lon="-4.757480">
        <ele>665.795</ele>
        <time>2021-10-15T17:40:15Z</time>
      </trkpt>
      <trkpt lat="41.368520" lon="-4.756924">
        <ele>666.350</ele>
        <time>2021-10-15T17:40:17Z</time>
      </trkpt>
      <trkpt lat="41.368096" lon="-4.756341">
        <ele>666.392</ele>
        <time>2021-10-15T17:40:19Z</time>
      </trkpt>
      <trkpt lat="41.367880" lon="-4.756046">
        <ele>666.673</ele>
        <time>2021-10-15T17:40:20Z</time>
      </trkpt>
      <trkpt lat="41.367449" lon="-4.755470">
        <ele>665.820</ele>
        <time>2021-10-15T17:40:22Z</time>
      </trkpt>
      <trkpt lat="41.367227" lon="-4.755178">
        <ele>666.008</ele>
        <time>2021-10-15T17:40:23Z</time>
      </trkpt>
      <trkpt lat="41.367007" lon="-4.754890">
        <ele>666.357</ele>
        <time>2021-10-15T17:40:24Z</time>
      </trkpt>
      <trkpt lat="41.366581" lon="-4.754350">
        <ele>666.215</ele>
        <time>2021-10-15T17:40:26Z</time>
      </trkpt>
      <trkpt lat="41.366205" lon="-4.753885">
        <ele>666.973</ele>
        <time>2021-10-15T17:40:28Z</time>
      </trkpt>
      <trkpt lat="41.366014" lon="-4.753650">
        <ele>667.537</ele>
        <time>2021-10-15T17:40:29Z</time>
      </trkpt>
      <trkpt lat="41.365825" lon="-4.753415">
        <ele>668.132</ele>
        <time>2021-10-15T17:40:30Z</time>
      </trkpt>
      <trkpt lat="41.365438" lon="-4.752927">
        <ele>668.680</ele>
        <time>2021-10-15T17:40:32Z</time>
      </trkpt>
      <trkpt lat="41.365068" lon="-4.752446">
        <ele>668.553</ele>
        <time>2021-10-15T17:40:34Z</time>
      </trkpt>
      <trkpt lat="41.364683" lon="-4.751952">
        <ele>669.158</ele>
        <time>2021-10-15T17:40:36Z</time>
      </trkpt>
      <trkpt lat="41.364485" lon="-4.751703">
        <ele>669.672</ele>
        <time>2021-10-15T17:40:37Z</time>
      </trkpt>
      <trkpt lat="41.364284" lon="-4.751451">
        <ele>670.413</ele>
        <time>2021-10-15T17:40:38Z</time>
      </trkpt>
      <trkpt lat="41.363874" lon="-4.750973">
        <ele>671.714</ele>
        <time>2021-10-15T17:40:40Z</time>
      </trkpt>
      <trkpt lat="41.363653" lon="-4.750753">
        <ele>672.008</ele>
        <time>2021-10-15T17:40:41Z</time>
      </trkpt>
      <trkpt lat="41.363202" lon="-4.750336">
        <ele>672.925</ele>
        <time>2021-10-15T17:40:43Z</time>
      </trkpt>
      <trkpt lat="41.362973" lon="-4.750122">
        <ele>673.353</ele>
        <time>2021-10-15T17:40:44Z</time>
      </trkpt>
      <trkpt lat="41.362520" lon="-4.749703">
        <ele>673.761</ele>
        <time>2021-10-15T17:40:46Z</time>
      </trkpt>
      <trkpt lat="41.362285" lon="-4.749483">
        <ele>673.435</ele>
        <time>2021-10-15T17:40:47Z</time>
      </trkpt>
      <trkpt lat="41.361820" lon="-4.749065">
        <ele>673.860</ele>
        <time>2021-10-15T17:40:49Z</time>
      </trkpt>
      <trkpt lat="41.361338" lon="-4.748679">
        <ele>673.298</ele>
        <time>2021-10-15T17:40:51Z</time>
      </trkpt>
      <trkpt lat="41.360839" lon="-4.748357">
        <ele>673.421</ele>
        <time>2021-10-15T17:40:53Z</time>
      </trkpt>
      <trkpt lat="41.360578" lon="-4.748216">
        <ele>672.476</ele>
        <time>2021-10-15T17:40:54Z</time>
      </trkpt>
      <trkpt lat="41.360048" lon="-4.747948">
        <ele>671.418</ele>
        <time>2021-10-15T17:40:56Z</time>
      </trkpt>
      <trkpt lat="41.359525" lon="-4.747711">
        <ele>672.098</ele>
        <time>2021-10-15T17:40:58Z</time>
      </trkpt>
      <trkpt lat="41.359243" lon="-4.747595">
        <ele>672.117</ele>
        <time>2021-10-15T17:40:59Z</time>
      </trkpt>
      <trkpt lat="41.358666" lon="-4.747370">
        <ele>672.708</ele>
        <time>2021-10-15T17:41:01Z</time>
      </trkpt>
      <trkpt lat="41.358361" lon="-4.747241">
        <ele>673.219</ele>
        <time>2021-10-15T17:41:02Z</time>
      </trkpt>
      <trkpt lat="41.357796" lon="-4.747001">
        <ele>672.767</ele>
        <time>2021-10-15T17:41:04Z</time>
      </trkpt>
      <trkpt lat="41.357508" lon="-4.746885">
        <ele>673.065</ele>
        <time>2021-10-15T17:41:05Z</time>
      </trkpt>
      <trkpt lat="41.357220" lon="-4.746778">
        <ele>673.349</ele>
        <time>2021-10-15T17:41:06Z</time>
      </trkpt>
      <trkpt lat="41.356647" lon="-4.746575">
        <ele>673.714</ele>
        <time>2021-10-15T17:41:08Z</time>
      </trkpt>
      <trkpt lat="41.356087" lon="-4.746355">
        <ele>673.382</ele>
        <time>2021-10-15T17:41:10Z</time>
      </trkpt>
      <trkpt lat="41.355538" lon="-4.746141">
        <ele>674.775</ele>
        <time>2021-10-15T17:41:12Z</time>
      </trkpt>
      <trkpt lat="41.354990" lon="-4.745928">
        <ele>674.790</ele>
        <time>2021-10-15T17:41:14Z</time>
      </trkpt>
      <trkpt lat="41.354442" lon="-4.745710">
        <ele>674.456</ele>
        <time>2021-10-15T17:41:16Z</time>
      </trkpt>
      <trkpt lat="41.354167" lon="-4.745594">
        <ele>674.059</ele>
        <time>2021-10-15T17:41:17Z</time>
      </trkpt>
      <trkpt lat="41.353622" lon="-4.745368">
        <ele>674.014</ele>
        <time>2021-10-15T17:41:19Z</time>
      </trkpt>
      <trkpt lat="41.353349" lon="-4.745256">
        <ele>674.008</ele>
        <time>2021-10-15T17:41:20Z</time>
      </trkpt>
      <trkpt lat="41.353075" lon="-4.745151">
        <ele>673.833</ele>
        <time>2021-10-15T17:41:21Z</time>
      </trkpt>
      <trkpt lat="41.352534" lon="-4.744941">
        <ele>674.541</ele>
        <time>2021-10-15T17:41:23Z</time>
      </trkpt>
      <trkpt lat="41.351980" lon="-4.744724">
        <ele>674.679</ele>
        <time>2021-10-15T17:41:25Z</time>
      </trkpt>
      <trkpt lat="41.351695" lon="-4.744613">
        <ele>675.173</ele>
        <time>2021-10-15T17:41:26Z</time>
      </trkpt>
      <trkpt lat="41.351136" lon="-4.744395">
        <ele>675.838</ele>
        <time>2021-10-15T17:41:28Z</time>
      </trkpt>
      <trkpt lat="41.350853" lon="-4.744283">
        <ele>675.956</ele>
        <time>2021-10-15T17:41:29Z</time>
      </trkpt>
      <trkpt lat="41.350569" lon="-4.744172">
        <ele>676.099</ele>
        <time>2021-10-15T17:41:30Z</time>
      </trkpt>
      <trkpt lat="41.350005" lon="-4.743948">
        <ele>676.484</ele>
        <time>2021-10-15T17:41:32Z</time>
      </trkpt>
      <trkpt lat="41.349459" lon="-4.743720">
        <ele>675.455</ele>
        <time>2021-10-15T17:41:34Z</time>
      </trkpt>
      <trkpt lat="41.348909" lon="-4.743496">
        <ele>674.607</ele>
        <time>2021-10-15T17:41:36Z</time>
      </trkpt>
      <trkpt lat="41.348630" lon="-4.743379">
        <ele>674.817</ele>
        <time>2021-10-15T17:41:37Z</time>
      </trkpt>
      <trkpt lat="41.348354" lon="-4.743264">
        <ele>675.208</ele>
        <time>2021-10-15T17:41:38Z</time>
      </trkpt>
      <trkpt lat="41.347803" lon="-4.743043">
        <ele>675.613</ele>
        <time>2021-10-15T17:41:40Z</time>
      </trkpt>
      <trkpt lat="41.347526" lon="-4.742934">
        <ele>675.731</ele>
        <time>2021-10-15T17:41:41Z</time>
      </trkpt>
      <trkpt lat="41.346974" lon="-4.742727">
        <ele>675.959</ele>
        <time>2021-10-15T17:41:43Z</time>
      </trkpt>
      <trkpt lat="41.346707" lon="-4.742625">
        <ele>675.683</ele>
        <time>2021-10-15T17:41:44Z</time>
      </trkpt>
      <trkpt lat="41.346454" lon="-4.742522">
        <ele>676.048</ele>
        <time>2021-10-15T17:41:45Z</time>
      </trkpt>
      <trkpt lat="41.345947" lon="-4.742318">
        <ele>676.556</ele>
        <time>2021-10-15T17:41:47Z</time>
      </trkpt>
      <trkpt lat="41.345686" lon="-4.742213">
        <ele>676.129</ele>
        <time>2021-10-15T17:41:48Z</time>
      </trkpt>
      <trkpt lat="41.345166" lon="-4.742007">
        <ele>676.514</ele>
        <time>2021-10-15T17:41:50Z</time>
      </trkpt>
      <trkpt lat="41.344904" lon="-4.741907">
        <ele>676.548</ele>
        <time>2021-10-15T17:41:51Z</time>
      </trkpt>
      <trkpt lat="41.344641" lon="-4.741807">
        <ele>676.561</ele>
        <time>2021-10-15T17:41:52Z</time>
      </trkpt>
      <trkpt lat="41.344119" lon="-4.741612">
        <ele>676.817</ele>
        <time>2021-10-15T17:41:54Z</time>
      </trkpt>
      <trkpt lat="41.343863" lon="-4.741517">
        <ele>676.708</ele>
        <time>2021-10-15T17:41:55Z</time>
      </trkpt>
      <trkpt lat="41.343616" lon="-4.741418">
        <ele>676.672</ele>
        <time>2021-10-15T17:41:56Z</time>
      </trkpt>
      <trkpt lat="41.343155" lon="-4.741219">
        <ele>676.870</ele>
        <time>2021-10-15T17:41:58Z</time>
      </trkpt>
      <trkpt lat="41.342692" lon="-4.741004">
        <ele>677.378</ele>
        <time>2021-10-15T17:42:00Z</time>
      </trkpt>
      <trkpt lat="41.342460" lon="-4.740883">
        <ele>677.112</ele>
        <time>2021-10-15T17:42:01Z</time>
      </trkpt>
      <trkpt lat="41.342224" lon="-4.740746">
        <ele>677.387</ele>
        <time>2021-10-15T17:42:02Z</time>
      </trkpt>
      <trkpt lat="41.341782" lon="-4.740437">
        <ele>677.965</ele>
        <time>2021-10-15T17:42:04Z</time>
      </trkpt>
      <trkpt lat="41.341326" lon="-4.740092">
        <ele>678.388</ele>
        <time>2021-10-15T17:42:06Z</time>
      </trkpt>
      <trkpt lat="41.341089" lon="-4.739917">
        <ele>678.173</ele>
        <time>2021-10-15T17:42:07Z</time>
      </trkpt>
      <trkpt lat="41.340609" lon="-4.739564">
        <ele>678.612</ele>
        <time>2021-10-15T17:42:09Z</time>
      </trkpt>
      <trkpt lat="41.340362" lon="-4.739382">
        <ele>678.732</ele>
        <time>2021-10-15T17:42:10Z</time>
      </trkpt>
      <trkpt lat="41.339865" lon="-4.739016">
        <ele>679.305</ele>
        <time>2021-10-15T17:42:12Z</time>
      </trkpt>
      <trkpt lat="41.339607" lon="-4.738829">
        <ele>679.008</ele>
        <time>2021-10-15T17:42:13Z</time>
      </trkpt>
      <trkpt lat="41.339344" lon="-4.738645">
        <ele>678.699</ele>
        <time>2021-10-15T17:42:14Z</time>
      </trkpt>
      <trkpt lat="41.338836" lon="-4.738284">
        <ele>677.727</ele>
        <time>2021-10-15T17:42:16Z</time>
      </trkpt>
      <trkpt lat="41.338376" lon="-4.737927">
        <ele>676.715</ele>
        <time>2021-10-15T17:42:18Z</time>
      </trkpt>
      <trkpt lat="41.338145" lon="-4.737730">
        <ele>677.059</ele>
        <time>2021-10-15T17:42:19Z</time>
      </trkpt>
      <trkpt lat="41.337914" lon="-4.737524">
        <ele>677.264</ele>
        <time>2021-10-15T17:42:20Z</time>
      </trkpt>
      <trkpt lat="41.337466" lon="-4.737061">
        <ele>677.172</ele>
        <time>2021-10-15T17:42:22Z</time>
      </trkpt>
      <trkpt lat="41.337247" lon="-4.736818">
        <ele>677.115</ele>
        <time>2021-10-15T17:42:23Z</time>
      </trkpt>
      <trkpt lat="41.336816" lon="-4.736347">
        <ele>677.010</ele>
        <time>2021-10-15T17:42:25Z</time>
      </trkpt>
      <trkpt lat="41.336602" lon="-4.736113">
        <ele>676.864</ele>
        <time>2021-10-15T17:42:26Z</time>
      </trkpt>
      <trkpt lat="41.336221" lon="-4.735696">
        <ele>676.206</ele>
        <time>2021-10-15T17:42:28Z</time>
      </trkpt>
      <trkpt lat="41.336041" lon="-4.735501">
        <ele>675.716</ele>
        <time>2021-10-15T17:42:29Z</time>
      </trkpt>
      <trkpt lat="41.335852" lon="-4.735295">
        <ele>675.408</ele>
        <time>2021-10-15T17:42:30Z</time>
      </trkpt>
      <trkpt lat="41.335453" lon="-4.734843">
        <ele>674.624</ele>
        <time>2021-10-15T17:42:32Z</time>
      </trkpt>
      <trkpt lat="41.335026" lon="-4.734402">
        <ele>673.512</ele>
        <time>2021-10-15T17:42:34Z</time>
      </trkpt>
      <trkpt lat="41.334788" lon="-4.734180">
        <ele>672.370</ele>
        <time>2021-10-15T17:42:35Z</time>
      </trkpt>
      <trkpt lat="41.334261" lon="-4.733719">
        <ele>671.474</ele>
        <time>2021-10-15T17:42:37Z</time>
      </trkpt>
      <trkpt lat="41.333974" lon="-4.733495">
        <ele>671.379</ele>
        <time>2021-10-15T17:42:38Z</time>
      </trkpt>
      <trkpt lat="41.333407" lon="-4.733037">
        <ele>671.347</ele>
        <time>2021-10-15T17:42:40Z</time>
      </trkpt>
      <trkpt lat="41.333126" lon="-4.732799">
        <ele>671.830</ele>
        <time>2021-10-15T17:42:41Z</time>
      </trkpt>
      <trkpt lat="41.332852" lon="-4.732558">
        <ele>672.265</ele>
        <time>2021-10-15T17:42:42Z</time>
      </trkpt>
      <trkpt lat="41.332309" lon="-4.732092">
        <ele>673.364</ele>
        <time>2021-10-15T17:42:44Z</time>
      </trkpt>
      <trkpt lat="41.331795" lon="-4.731656">
        <ele>674.506</ele>
        <time>2021-10-15T17:42:46Z</time>
      </trkpt>
      <trkpt lat="41.331318" lon="-4.731254">
        <ele>673.916</ele>
        <time>2021-10-15T17:42:48Z</time>
      </trkpt>
      <trkpt lat="41.330893" lon="-4.730890">
        <ele>675.008</ele>
        <time>2021-10-15T17:42:50Z</time>
      </trkpt>
      <trkpt lat="41.330526" lon="-4.730569">
        <ele>676.054</ele>
        <time>2021-10-15T17:42:52Z</time>
      </trkpt>
      <trkpt lat="41.330340" lon="-4.730404">
        <ele>676.662</ele>
        <time>2021-10-15T17:42:53Z</time>
      </trkpt>
      <trkpt lat="41.330154" lon="-4.730240">
        <ele>677.050</ele>
        <time>2021-10-15T17:42:54Z</time>
      </trkpt>
      <trkpt lat="41.329967" lon="-4.730074">
        <ele>677.124</ele>
        <time>2021-10-15T17:42:55Z</time>
      </trkpt>
      <trkpt lat="41.329769" lon="-4.729898">
        <ele>676.729</ele>
        <time>2021-10-15T17:42:56Z</time>
      </trkpt>
      <trkpt lat="41.329387" lon="-4.729560">
        <ele>676.837</ele>
        <time>2021-10-15T17:42:58Z</time>
      </trkpt>
      <trkpt lat="41.329182" lon="-4.729380">
        <ele>676.710</ele>
        <time>2021-10-15T17:42:59Z</time>
      </trkpt>
      <trkpt lat="41.328984" lon="-4.729207">
        <ele>676.625</ele>
        <time>2021-10-15T17:43:00Z</time>
      </trkpt>
      <trkpt lat="41.328600" lon="-4.728861">
        <ele>675.827</ele>
        <time>2021-10-15T17:43:02Z</time>
      </trkpt>
      <trkpt lat="41.328243" lon="-4.728540">
        <ele>675.068</ele>
        <time>2021-10-15T17:43:04Z</time>
      </trkpt>
      <trkpt lat="41.328064" lon="-4.728373">
        <ele>674.814</ele>
        <time>2021-10-15T17:43:05Z</time>
      </trkpt>
      <trkpt lat="41.327882" lon="-4.728209">
        <ele>675.408</ele>
        <time>2021-10-15T17:43:06Z</time>
      </trkpt>
      <trkpt lat="41.327504" lon="-4.727891">
        <ele>676.030</ele>
        <time>2021-10-15T17:43:08Z</time>
      </trkpt>
      <trkpt lat="41.327307" lon="-4.727730">
        <ele>675.948</ele>
        <time>2021-10-15T17:43:09Z</time>
      </trkpt>
      <trkpt lat="41.327116" lon="-4.727560">
        <ele>676.376</ele>
        <time>2021-10-15T17:43:10Z</time>
      </trkpt>
      <trkpt lat="41.326711" lon="-4.727179">
        <ele>676.630</ele>
        <time>2021-10-15T17:43:12Z</time>
      </trkpt>
      <trkpt lat="41.326220" lon="-4.726745">
        <ele>677.075</ele>
        <time>2021-10-15T17:43:14Z</time>
      </trkpt>
      <trkpt lat="41.325941" lon="-4.726526">
        <ele>676.923</ele>
        <time>2021-10-15T17:43:15Z</time>
      </trkpt>
      <trkpt lat="41.325374" lon="-4.726091">
        <ele>676.856</ele>
        <time>2021-10-15T17:43:17Z</time>
      </trkpt>
      <trkpt lat="41.324829" lon="-4.725622">
        <ele>676.961</ele>
        <time>2021-10-15T17:43:19Z</time>
      </trkpt>
      <trkpt lat="41.324555" lon="-4.725383">
        <ele>677.086</ele>
        <time>2021-10-15T17:43:20Z</time>
      </trkpt>
      <trkpt lat="41.324279" lon="-4.725142">
        <ele>677.160</ele>
        <time>2021-10-15T17:43:21Z</time>
      </trkpt>
      <trkpt lat="41.323734" lon="-4.724663">
        <ele>677.026</ele>
        <time>2021-10-15T17:43:23Z</time>
      </trkpt>
      <trkpt lat="41.323208" lon="-4.724185">
        <ele>677.408</ele>
        <time>2021-10-15T17:43:25Z</time>
      </trkpt>
      <trkpt lat="41.322701" lon="-4.723718">
        <ele>677.646</ele>
        <time>2021-10-15T17:43:27Z</time>
      </trkpt>
      <trkpt lat="41.322444" lon="-4.723497">
        <ele>677.994</ele>
        <time>2021-10-15T17:43:28Z</time>
      </trkpt>
      <trkpt lat="41.321921" lon="-4.723078">
        <ele>678.512</ele>
        <time>2021-10-15T17:43:30Z</time>
      </trkpt>
      <trkpt lat="41.321661" lon="-4.722865">
        <ele>679.026</ele>
        <time>2021-10-15T17:43:31Z</time>
      </trkpt>
      <trkpt lat="41.321391" lon="-4.722645">
        <ele>679.391</ele>
        <time>2021-10-15T17:43:32Z</time>
      </trkpt>
      <trkpt lat="41.320876" lon="-4.722230">
        <ele>678.589</ele>
        <time>2021-10-15T17:43:34Z</time>
      </trkpt>
      <trkpt lat="41.320611" lon="-4.722022">
        <ele>678.532</ele>
        <time>2021-10-15T17:43:35Z</time>
      </trkpt>
      <trkpt lat="41.320087" lon="-4.721603">
        <ele>678.167</ele>
        <time>2021-10-15T17:43:37Z</time>
      </trkpt>
      <trkpt lat="41.319558" lon="-4.721184">
        <ele>678.166</ele>
        <time>2021-10-15T17:43:39Z</time>
      </trkpt>
      <trkpt lat="41.319293" lon="-4.720975">
        <ele>678.129</ele>
        <time>2021-10-15T17:43:40Z</time>
      </trkpt>
      <trkpt lat="41.319030" lon="-4.720767">
        <ele>677.921</ele>
        <time>2021-10-15T17:43:41Z</time>
      </trkpt>
      <trkpt lat="41.318518" lon="-4.720359">
        <ele>677.308</ele>
        <time>2021-10-15T17:43:43Z</time>
      </trkpt>
      <trkpt lat="41.318030" lon="-4.719953">
        <ele>677.034</ele>
        <time>2021-10-15T17:43:45Z</time>
      </trkpt>
      <trkpt lat="41.317555" lon="-4.719567">
        <ele>677.682</ele>
        <time>2021-10-15T17:43:47Z</time>
      </trkpt>
      <trkpt lat="41.317317" lon="-4.719377">
        <ele>677.470</ele>
        <time>2021-10-15T17:43:48Z</time>
      </trkpt>
      <trkpt lat="41.316847" lon="-4.718995">
        <ele>676.434</ele>
        <time>2021-10-15T17:43:50Z</time>
      </trkpt>
      <trkpt lat="41.316374" lon="-4.718608">
        <ele>676.979</ele>
        <time>2021-10-15T17:43:52Z</time>
      </trkpt>
      <trkpt lat="41.315899" lon="-4.718230">
        <ele>678.337</ele>
        <time>2021-10-15T17:43:54Z</time>
      </trkpt>
      <trkpt lat="41.315659" lon="-4.718031">
        <ele>678.750</ele>
        <time>2021-10-15T17:43:55Z</time>
      </trkpt>
      <trkpt lat="41.315413" lon="-4.717834">
        <ele>679.485</ele>
        <time>2021-10-15T17:43:56Z</time>
      </trkpt>
      <trkpt lat="41.314943" lon="-4.717454">
        <ele>679.349</ele>
        <time>2021-10-15T17:43:58Z</time>
      </trkpt>
      <trkpt lat="41.314459" lon="-4.717055">
        <ele>679.102</ele>
        <time>2021-10-15T17:44:00Z</time>
      </trkpt>
      <trkpt lat="41.313962" lon="-4.716637">
        <ele>679.922</ele>
        <time>2021-10-15T17:44:02Z</time>
      </trkpt>
      <trkpt lat="41.313478" lon="-4.716240">
        <ele>680.808</ele>
        <time>2021-10-15T17:44:04Z</time>
      </trkpt>
      <trkpt lat="41.312978" lon="-4.715839">
        <ele>680.622</ele>
        <time>2021-10-15T17:44:06Z</time>
      </trkpt>
      <trkpt lat="41.312726" lon="-4.715637">
        <ele>680.820</ele>
        <time>2021-10-15T17:44:07Z</time>
      </trkpt>
      <trkpt lat="41.312232" lon="-4.715225">
        <ele>680.458</ele>
        <time>2021-10-15T17:44:09Z</time>
      </trkpt>
      <trkpt lat="41.311747" lon="-4.714820">
        <ele>680.622</ele>
        <time>2021-10-15T17:44:11Z</time>
      </trkpt>
      <trkpt lat="41.311498" lon="-4.714619">
        <ele>680.237</ele>
        <time>2021-10-15T17:44:12Z</time>
      </trkpt>
      <trkpt lat="41.311008" lon="-4.714225">
        <ele>680.815</ele>
        <time>2021-10-15T17:44:14Z</time>
      </trkpt>
      <trkpt lat="41.310761" lon="-4.714027">
        <ele>680.848</ele>
        <time>2021-10-15T17:44:15Z</time>
      </trkpt>
      <trkpt lat="41.310266" lon="-4.713638">
        <ele>680.983</ele>
        <time>2021-10-15T17:44:17Z</time>
      </trkpt>
      <trkpt lat="41.309788" lon="-4.713265">
        <ele>681.032</ele>
        <time>2021-10-15T17:44:19Z</time>
      </trkpt>
      <trkpt lat="41.309552" lon="-4.713075">
        <ele>681.492</ele>
        <time>2021-10-15T17:44:20Z</time>
      </trkpt>
      <trkpt lat="41.309323" lon="-4.712883">
        <ele>681.911</ele>
        <time>2021-10-15T17:44:21Z</time>
      </trkpt>
      <trkpt lat="41.309093" lon="-4.712692">
        <ele>681.708</ele>
        <time>2021-10-15T17:44:22Z</time>
      </trkpt>
      <trkpt lat="41.308632" lon="-4.712316">
        <ele>681.981</ele>
        <time>2021-10-15T17:44:24Z</time>
      </trkpt>
      <trkpt lat="41.308163" lon="-4.711937">
        <ele>681.579</ele>
        <time>2021-10-15T17:44:26Z</time>
      </trkpt>
      <trkpt lat="41.307714" lon="-4.711563">
        <ele>681.387</ele>
        <time>2021-10-15T17:44:28Z</time>
      </trkpt>
      <trkpt lat="41.307264" lon="-4.711163">
        <ele>681.611</ele>
        <time>2021-10-15T17:44:30Z</time>
      </trkpt>
      <trkpt lat="41.306834" lon="-4.710706">
        <ele>682.326</ele>
        <time>2021-10-15T17:44:32Z</time>
      </trkpt>
      <trkpt lat="41.306442" lon="-4.710213">
        <ele>682.254</ele>
        <time>2021-10-15T17:44:34Z</time>
      </trkpt>
      <trkpt lat="41.306230" lon="-4.709950">
        <ele>682.277</ele>
        <time>2021-10-15T17:44:35Z</time>
      </trkpt>
      <trkpt lat="41.306016" lon="-4.709697">
        <ele>682.582</ele>
        <time>2021-10-15T17:44:36Z</time>
      </trkpt>
      <trkpt lat="41.305799" lon="-4.709443">
        <ele>682.541</ele>
        <time>2021-10-15T17:44:37Z</time>
      </trkpt>
      <trkpt lat="41.305581" lon="-4.709181">
        <ele>682.581</ele>
        <time>2021-10-15T17:44:38Z</time>
      </trkpt>
      <trkpt lat="41.305139" lon="-4.708651">
        <ele>683.409</ele>
        <time>2021-10-15T17:44:40Z</time>
      </trkpt>
      <trkpt lat="41.304693" lon="-4.708121">
        <ele>683.408</ele>
        <time>2021-10-15T17:44:42Z</time>
      </trkpt>
      <trkpt lat="41.304471" lon="-4.707857">
        <ele>683.862</ele>
        <time>2021-10-15T17:44:43Z</time>
      </trkpt>
      <trkpt lat="41.304249" lon="-4.707594">
        <ele>683.960</ele>
        <time>2021-10-15T17:44:44Z</time>
      </trkpt>
      <trkpt lat="41.303814" lon="-4.707078">
        <ele>683.998</ele>
        <time>2021-10-15T17:44:46Z</time>
      </trkpt>
      <trkpt lat="41.303375" lon="-4.706561">
        <ele>684.142</ele>
        <time>2021-10-15T17:44:48Z</time>
      </trkpt>
      <trkpt lat="41.303154" lon="-4.706301">
        <ele>683.237</ele>
        <time>2021-10-15T17:44:49Z</time>
      </trkpt>
      <trkpt lat="41.302723" lon="-4.705795">
        <ele>683.235</ele>
        <time>2021-10-15T17:44:51Z</time>
      </trkpt>
      <trkpt lat="41.302310" lon="-4.705311">
        <ele>682.788</ele>
        <time>2021-10-15T17:44:53Z</time>
      </trkpt>
      <trkpt lat="41.302108" lon="-4.705071">
        <ele>682.173</ele>
        <time>2021-10-15T17:44:54Z</time>
      </trkpt>
      <trkpt lat="41.301910" lon="-4.704834">
        <ele>682.498</ele>
        <time>2021-10-15T17:44:55Z</time>
      </trkpt>
      <trkpt lat="41.301700" lon="-4.704585">
        <ele>683.215</ele>
        <time>2021-10-15T17:44:56Z</time>
      </trkpt>
      <trkpt lat="41.301301" lon="-4.704133">
        <ele>682.226</ele>
        <time>2021-10-15T17:44:58Z</time>
      </trkpt>
      <trkpt lat="41.301091" lon="-4.703897">
        <ele>682.708</ele>
        <time>2021-10-15T17:44:59Z</time>
      </trkpt>
      <trkpt lat="41.300882" lon="-4.703660">
        <ele>683.177</ele>
        <time>2021-10-15T17:45:00Z</time>
      </trkpt>
      <trkpt lat="41.300673" lon="-4.703421">
        <ele>682.745</ele>
        <time>2021-10-15T17:45:01Z</time>
      </trkpt>
      <trkpt lat="41.300457" lon="-4.703166">
        <ele>682.323</ele>
        <time>2021-10-15T17:45:02Z</time>
      </trkpt>
      <trkpt lat="41.300039" lon="-4.702683">
        <ele>682.367</ele>
        <time>2021-10-15T17:45:04Z</time>
      </trkpt>
      <trkpt lat="41.299824" lon="-4.702429">
        <ele>683.082</ele>
        <time>2021-10-15T17:45:05Z</time>
      </trkpt>
      <trkpt lat="41.299396" lon="-4.701908">
        <ele>683.090</ele>
        <time>2021-10-15T17:45:07Z</time>
      </trkpt>
      <trkpt lat="41.299180" lon="-4.701645">
        <ele>683.913</ele>
        <time>2021-10-15T17:45:08Z</time>
      </trkpt>
      <trkpt lat="41.298771" lon="-4.701153">
        <ele>683.098</ele>
        <time>2021-10-15T17:45:10Z</time>
      </trkpt>
      <trkpt lat="41.298382" lon="-4.700691">
        <ele>684.044</ele>
        <time>2021-10-15T17:45:12Z</time>
      </trkpt>
      <trkpt lat="41.298183" lon="-4.700456">
        <ele>684.705</ele>
        <time>2021-10-15T17:45:13Z</time>
      </trkpt>
      <trkpt lat="41.297772" lon="-4.699979">
        <ele>685.115</ele>
        <time>2021-10-15T17:45:15Z</time>
      </trkpt>
      <trkpt lat="41.297562" lon="-4.699726">
        <ele>685.308</ele>
        <time>2021-10-15T17:45:16Z</time>
      </trkpt>
      <trkpt lat="41.297135" lon="-4.699200">
        <ele>686.012</ele>
        <time>2021-10-15T17:45:18Z</time>
      </trkpt>
      <trkpt lat="41.296692" lon="-4.698663">
        <ele>686.490</ele>
        <time>2021-10-15T17:45:20Z</time>
      </trkpt>
      <trkpt lat="41.296461" lon="-4.698393">
        <ele>687.448</ele>
        <time>2021-10-15T17:45:21Z</time>
      </trkpt>
      <trkpt lat="41.295997" lon="-4.697852">
        <ele>687.732</ele>
        <time>2021-10-15T17:45:23Z</time>
      </trkpt>
      <trkpt lat="41.295534" lon="-4.697314">
        <ele>688.667</ele>
        <time>2021-10-15T17:45:25Z</time>
      </trkpt>
      <trkpt lat="41.295299" lon="-4.697044">
        <ele>689.225</ele>
        <time>2021-10-15T17:45:26Z</time>
      </trkpt>
      <trkpt lat="41.294887" lon="-4.696570">
        <ele>690.668</ele>
        <time>2021-10-15T17:45:28Z</time>
      </trkpt>
      <trkpt lat="41.294507" lon="-4.696136">
        <ele>691.433</ele>
        <time>2021-10-15T17:45:30Z</time>
      </trkpt>
      <trkpt lat="41.294120" lon="-4.695688">
        <ele>691.136</ele>
        <time>2021-10-15T17:45:32Z</time>
      </trkpt>
      <trkpt lat="41.293742" lon="-4.695247">
        <ele>691.917</ele>
        <time>2021-10-15T17:45:34Z</time>
      </trkpt>
      <trkpt lat="41.293355" lon="-4.694787">
        <ele>691.318</ele>
        <time>2021-10-15T17:45:36Z</time>
      </trkpt>
      <trkpt lat="41.293160" lon="-4.694554">
        <ele>691.708</ele>
        <time>2021-10-15T17:45:37Z</time>
      </trkpt>
      <trkpt lat="41.292964" lon="-4.694320">
        <ele>691.461</ele>
        <time>2021-10-15T17:45:38Z</time>
      </trkpt>
      <trkpt lat="41.292578" lon="-4.693863">
        <ele>692.289</ele>
        <time>2021-10-15T17:45:40Z</time>
      </trkpt>
      <trkpt lat="41.292388" lon="-4.693640">
        <ele>692.717</ele>
        <time>2021-10-15T17:45:41Z</time>
      </trkpt>
      <trkpt lat="41.292013" lon="-4.693198">
        <ele>693.761</ele>
        <time>2021-10-15T17:45:43Z</time>
      </trkpt>
      <trkpt lat="41.291633" lon="-4.692772">
        <ele>694.546</ele>
        <time>2021-10-15T17:45:45Z</time>
      </trkpt>
      <trkpt lat="41.291427" lon="-4.692587">
        <ele>695.094</ele>
        <time>2021-10-15T17:45:46Z</time>
      </trkpt>
      <trkpt lat="41.291036" lon="-4.692296">
        <ele>695.837</ele>
        <time>2021-10-15T17:45:48Z</time>
      </trkpt>
      <trkpt lat="41.290844" lon="-4.692160">
        <ele>696.242</ele>
        <time>2021-10-15T17:45:49Z</time>
      </trkpt>
      <trkpt lat="41.290526" lon="-4.691949">
        <ele>697.196</ele>
        <time>2021-10-15T17:45:51Z</time>
      </trkpt>
      <trkpt lat="41.290403" lon="-4.691875">
        <ele>698.131</ele>
        <time>2021-10-15T17:45:52Z</time>
      </trkpt>
      <trkpt lat="41.290317" lon="-4.691825">
        <ele>698.824</ele>
        <time>2021-10-15T17:45:53Z</time>
      </trkpt>
      <trkpt lat="41.290237" lon="-4.691771">
        <ele>698.808</ele>
        <time>2021-10-15T17:45:54Z</time>
      </trkpt>
      <trkpt lat="41.290069" lon="-4.691648">
        <ele>700.317</ele>
        <time>2021-10-15T17:45:56Z</time>
      </trkpt>
      <trkpt lat="41.289909" lon="-4.691522">
        <ele>701.885</ele>
        <time>2021-10-15T17:45:58Z</time>
      </trkpt>
      <trkpt lat="41.289758" lon="-4.691377">
        <ele>702.953</ele>
        <time>2021-10-15T17:46:00Z</time>
      </trkpt>
      <trkpt lat="41.289597" lon="-4.691265">
        <ele>703.017</ele>
        <time>2021-10-15T17:46:02Z</time>
      </trkpt>
      <trkpt lat="41.289427" lon="-4.691202">
        <ele>704.692</ele>
        <time>2021-10-15T17:46:04Z</time>
      </trkpt>
      <trkpt lat="41.289244" lon="-4.691147">
        <ele>705.580</ele>
        <time>2021-10-15T17:46:06Z</time>
      </trkpt>
      <trkpt lat="41.289157" lon="-4.691120">
        <ele>706.113</ele>
        <time>2021-10-15T17:46:07Z</time>
      </trkpt>
      <trkpt lat="41.289021" lon="-4.691072">
        <ele>706.238</ele>
        <time>2021-10-15T17:46:09Z</time>
      </trkpt>
      <trkpt lat="41.288889" lon="-4.691013">
        <ele>705.916</ele>
        <time>2021-10-15T17:46:11Z</time>
      </trkpt>
      <trkpt lat="41.288728" lon="-4.690911">
        <ele>705.976</ele>
        <time>2021-10-15T17:46:13Z</time>
      </trkpt>
      <trkpt lat="41.288643" lon="-4.690863">
        <ele>706.013</ele>
        <time>2021-10-15T17:46:14Z</time>
      </trkpt>
      <trkpt lat="41.288499" lon="-4.690790">
        <ele>707.208</ele>
        <time>2021-10-15T17:46:16Z</time>
      </trkpt>
      <trkpt lat="41.288434" lon="-4.690764">
        <ele>707.139</ele>
        <time>2021-10-15T17:46:17Z</time>
      </trkpt>
      <trkpt lat="41.288315" lon="-4.690722">
        <ele>707.157</ele>
        <time>2021-10-15T17:46:19Z</time>
      </trkpt>
      <trkpt lat="41.288202" lon="-4.690687">
        <ele>707.025</ele>
        <time>2021-10-15T17:46:21Z</time>
      </trkpt>
      <trkpt lat="41.288073" lon="-4.690639">
        <ele>708.089</ele>
        <time>2021-10-15T17:46:23Z</time>
      </trkpt>
      <trkpt lat="41.287950" lon="-4.690582">
        <ele>708.354</ele>
        <time>2021-10-15T17:46:25Z</time>
      </trkpt>
      <trkpt lat="41.287886" lon="-4.690558">
        <ele>708.422</ele>
        <time>2021-10-15T17:46:26Z</time>
      </trkpt>
      <trkpt lat="41.287765" lon="-4.690518">
        <ele>709.665</ele>
        <time>2021-10-15T17:46:28Z</time>
      </trkpt>
      <trkpt lat="41.287691" lon="-4.690489">
        <ele>709.920</ele>
        <time>2021-10-15T17:46:30Z</time>
      </trkpt>
      <trkpt lat="41.287634" lon="-4.690467">
        <ele>710.181</ele>
        <time>2021-10-15T17:46:32Z</time>
      </trkpt>
      <trkpt lat="41.287584" lon="-4.690453">
        <ele>710.361</ele>
        <time>2021-10-15T17:46:35Z</time>
      </trkpt>
      <trkpt lat="41.287539" lon="-4.690430">
        <ele>726.617</ele>
        <time>2021-10-15T17:46:40Z</time>
      </trkpt>
      <trkpt lat="41.287460" lon="-4.690402">
        <ele>753.708</ele>
        <time>2021-10-15T17:46:52Z</time>
      </trkpt>
      <trkpt lat="41.287365" lon="-4.690305">
        <ele>758.786</ele>
        <time>2021-10-15T17:46:54Z</time>
      </trkpt>
      <trkpt lat="41.287296" lon="-4.690227">
        <ele>758.734</ele>
        <time>2021-10-15T17:46:55Z</time>
      </trkpt>
      <trkpt lat="41.287227" lon="-4.690160">
        <ele>758.612</ele>
        <time>2021-10-15T17:46:56Z</time>
      </trkpt>
      <trkpt lat="41.287081" lon="-4.690045">
        <ele>758.686</ele>
        <time>2021-10-15T17:46:58Z</time>
      </trkpt>
      <trkpt lat="41.286996" lon="-4.689987">
        <ele>758.641</ele>
        <time>2021-10-15T17:46:59Z</time>
      </trkpt>
      <trkpt lat="41.286914" lon="-4.689935">
        <ele>758.679</ele>
        <time>2021-10-15T17:47:00Z</time>
      </trkpt>
      <trkpt lat="41.286755" lon="-4.689821">
        <ele>758.752</ele>
        <time>2021-10-15T17:47:02Z</time>
      </trkpt>
      <trkpt lat="41.286616" lon="-4.689675">
        <ele>758.737</ele>
        <time>2021-10-15T17:47:04Z</time>
      </trkpt>
      <trkpt lat="41.286554" lon="-4.689599">
        <ele>758.781</ele>
        <time>2021-10-15T17:47:05Z</time>
      </trkpt>
      <trkpt lat="41.286495" lon="-4.689521">
        <ele>758.761</ele>
        <time>2021-10-15T17:47:06Z</time>
      </trkpt>
      <trkpt lat="41.286434" lon="-4.689440">
        <ele>758.717</ele>
        <time>2021-10-15T17:47:07Z</time>
      </trkpt>
      <trkpt lat="41.286304" lon="-4.689274">
        <ele>758.708</ele>
        <time>2021-10-15T17:47:09Z</time>
      </trkpt>
      <trkpt lat="41.286174" lon="-4.689107">
        <ele>758.776</ele>
        <time>2021-10-15T17:47:11Z</time>
      </trkpt>
      <trkpt lat="41.286113" lon="-4.689027">
        <ele>758.764</ele>
        <time>2021-10-15T17:47:12Z</time>
      </trkpt>
      <trkpt lat="41.285995" lon="-4.688872">
        <ele>758.712</ele>
        <time>2021-10-15T17:47:14Z</time>
      </trkpt>
      <trkpt lat="41.285934" lon="-4.688793">
        <ele>758.766</ele>
        <time>2021-10-15T17:47:15Z</time>
      </trkpt>
      <trkpt lat="41.285873" lon="-4.688713">
        <ele>758.741</ele>
        <time>2021-10-15T17:47:16Z</time>
      </trkpt>
      <trkpt lat="41.285754" lon="-4.688554">
        <ele>758.789</ele>
        <time>2021-10-15T17:47:18Z</time>
      </trkpt>
      <trkpt lat="41.285636" lon="-4.688396">
        <ele>758.712</ele>
        <time>2021-10-15T17:47:20Z</time>
      </trkpt>
      <trkpt lat="41.285578" lon="-4.688319">
        <ele>758.767</ele>
        <time>2021-10-15T17:47:21Z</time>
      </trkpt>
      <trkpt lat="41.285470" lon="-4.688170">
        <ele>758.771</ele>
        <time>2021-10-15T17:47:23Z</time>
      </trkpt>
      <trkpt lat="41.285421" lon="-4.688097">
        <ele>758.741</ele>
        <time>2021-10-15T17:47:24Z</time>
      </trkpt>
      <trkpt lat="41.285373" lon="-4.688027">
        <ele>758.715</ele>
        <time>2021-10-15T17:47:25Z</time>
      </trkpt>
      <trkpt lat="41.285323" lon="-4.687957">
        <ele>758.708</ele>
        <time>2021-10-15T17:47:26Z</time>
      </trkpt>
      <trkpt lat="41.285243" lon="-4.687820">
        <ele>758.745</ele>
        <time>2021-10-15T17:47:28Z</time>
      </trkpt>
      <trkpt lat="41.285211" lon="-4.687741">
        <ele>758.793</ele>
        <time>2021-10-15T17:47:29Z</time>
      </trkpt>
      <trkpt lat="41.285179" lon="-4.687658">
        <ele>758.791</ele>
        <time>2021-10-15T17:47:30Z</time>
      </trkpt>
      <trkpt lat="41.285145" lon="-4.687471">
        <ele>758.755</ele>
        <time>2021-10-15T17:47:32Z</time>
      </trkpt>
      <trkpt lat="41.285142" lon="-4.687281">
        <ele>758.790</ele>
        <time>2021-10-15T17:47:34Z</time>
      </trkpt>
      <trkpt lat="41.285214" lon="-4.687086">
        <ele>758.748</ele>
        <time>2021-10-15T17:47:36Z</time>
      </trkpt>
      <trkpt lat="41.285270" lon="-4.686914">
        <ele>758.761</ele>
        <time>2021-10-15T17:47:38Z</time>
      </trkpt>
      <trkpt lat="41.285294" lon="-4.686820">
        <ele>758.766</ele>
        <time>2021-10-15T17:47:39Z</time>
      </trkpt>
      <trkpt lat="41.285347" lon="-4.686594">
        <ele>758.719</ele>
        <time>2021-10-15T17:47:41Z</time>
      </trkpt>
      <trkpt lat="41.285394" lon="-4.686363">
        <ele>758.709</ele>
        <time>2021-10-15T17:47:43Z</time>
      </trkpt>
      <trkpt lat="41.285438" lon="-4.686148">
        <ele>758.719</ele>
        <time>2021-10-15T17:47:45Z</time>
      </trkpt>
      <trkpt lat="41.285478" lon="-4.685959">
        <ele>758.708</ele>
        <time>2021-10-15T17:47:47Z</time>
      </trkpt>
      <trkpt lat="41.285536" lon="-4.685752">
        <ele>735.869</ele>
        <time>2021-10-15T17:47:49Z</time>
      </trkpt>
      <trkpt lat="41.285579" lon="-4.685638">
        <ele>712.857</ele>
        <time>2021-10-15T17:47:50Z</time>
      </trkpt>
      <trkpt lat="41.285689" lon="-4.685416">
        <ele>712.145</ele>
        <time>2021-10-15T17:47:52Z</time>
      </trkpt>
      <trkpt lat="41.285757" lon="-4.685305">
        <ele>712.159</ele>
        <time>2021-10-15T17:47:53Z</time>
      </trkpt>
      <trkpt lat="41.285829" lon="-4.685201">
        <ele>712.134</ele>
        <time>2021-10-15T17:47:54Z</time>
      </trkpt>
      <trkpt lat="41.285961" lon="-4.685015">
        <ele>711.362</ele>
        <time>2021-10-15T17:47:56Z</time>
      </trkpt>
      <trkpt lat="41.286075" lon="-4.684850">
        <ele>711.185</ele>
        <time>2021-10-15T17:47:58Z</time>
      </trkpt>
      <trkpt lat="41.286173" lon="-4.684695">
        <ele>710.750</ele>
        <time>2021-10-15T17:48:00Z</time>
      </trkpt>
      <trkpt lat="41.286208" lon="-4.684636">
        <ele>710.752</ele>
        <time>2021-10-15T17:48:01Z</time>
      </trkpt>
      <trkpt lat="41.286233" lon="-4.684572">
        <ele>710.853</ele>
        <time>2021-10-15T17:48:08Z</time>
      </trkpt>
      <trkpt lat="41.286264" lon="-4.684519">
        <ele>710.808</ele>
        <time>2021-10-15T17:48:10Z</time>
      </trkpt>
      <trkpt lat="41.286327" lon="-4.684414">
        <ele>710.908</ele>
        <time>2021-10-15T17:48:12Z</time>
      </trkpt>
      <trkpt lat="41.286371" lon="-4.684325">
        <ele>710.863</ele>
        <time>2021-10-15T17:48:13Z</time>
      </trkpt>
      <trkpt lat="41.286463" lon="-4.684092">
        <ele>710.111</ele>
        <time>2021-10-15T17:48:15Z</time>
      </trkpt>
      <trkpt lat="41.286558" lon="-4.683817">
        <ele>708.669</ele>
        <time>2021-10-15T17:48:17Z</time>
      </trkpt>
      <trkpt lat="41.286606" lon="-4.683667">
        <ele>707.453</ele>
        <time>2021-10-15T17:48:18Z</time>
      </trkpt>
      <trkpt lat="41.286652" lon="-4.683511">
        <ele>707.458</ele>
        <time>2021-10-15T17:48:19Z</time>
      </trkpt>
      <trkpt lat="41.286746" lon="-4.683180">
        <ele>707.796</ele>
        <time>2021-10-15T17:48:21Z</time>
      </trkpt>
      <trkpt lat="41.286789" lon="-4.683021">
        <ele>707.779</ele>
        <time>2021-10-15T17:48:22Z</time>
      </trkpt>
      <trkpt lat="41.286857" lon="-4.682734">
        <ele>708.064</ele>
        <time>2021-10-15T17:48:24Z</time>
      </trkpt>
      <trkpt lat="41.286908" lon="-4.682485">
        <ele>708.957</ele>
        <time>2021-10-15T17:48:26Z</time>
      </trkpt>
      <trkpt lat="41.286948" lon="-4.682253">
        <ele>709.300</ele>
        <time>2021-10-15T17:48:28Z</time>
      </trkpt>
      <trkpt lat="41.286971" lon="-4.682122">
        <ele>709.920</ele>
        <time>2021-10-15T17:48:29Z</time>
      </trkpt>
      <trkpt lat="41.287000" lon="-4.681982">
        <ele>711.008</ele>
        <time>2021-10-15T17:48:30Z</time>
      </trkpt>
      <trkpt lat="41.287079" lon="-4.681729">
        <ele>711.053</ele>
        <time>2021-10-15T17:48:32Z</time>
      </trkpt>
      <trkpt lat="41.287191" lon="-4.681540">
        <ele>711.671</ele>
        <time>2021-10-15T17:48:34Z</time>
      </trkpt>
      <trkpt lat="41.287289" lon="-4.681414">
        <ele>711.549</ele>
        <time>2021-10-15T17:48:36Z</time>
      </trkpt>
      <trkpt lat="41.287313" lon="-4.681362">
        <ele>711.783</ele>
        <time>2021-10-15T17:48:37Z</time>
      </trkpt>
      <trkpt lat="41.287326" lon="-4.681260">
        <ele>711.468</ele>
        <time>2021-10-15T17:48:39Z</time>
      </trkpt>
      <trkpt lat="41.287315" lon="-4.681162">
        <ele>711.456</ele>
        <time>2021-10-15T17:48:41Z</time>
      </trkpt>
      <trkpt lat="41.287280" lon="-4.681080">
        <ele>711.629</ele>
        <time>2021-10-15T17:48:43Z</time>
      </trkpt>
      <trkpt lat="41.287226" lon="-4.681041">
        <ele>711.664</ele>
        <time>2021-10-15T17:48:44Z</time>
      </trkpt>
      <trkpt lat="41.287138" lon="-4.681042">
        <ele>711.793</ele>
        <time>2021-10-15T17:48:46Z</time>
      </trkpt>
      <trkpt lat="41.287053" lon="-4.681052">
        <ele>711.765</ele>
        <time>2021-10-15T17:48:47Z</time>
      </trkpt>
      <trkpt lat="41.286947" lon="-4.681070">
        <ele>711.721</ele>
        <time>2021-10-15T17:48:48Z</time>
      </trkpt>
      <trkpt lat="41.286826" lon="-4.681089">
        <ele>711.708</ele>
        <time>2021-10-15T17:48:49Z</time>
      </trkpt>
      <trkpt lat="41.286693" lon="-4.681108">
        <ele>711.757</ele>
        <time>2021-10-15T17:48:50Z</time>
      </trkpt>
      <trkpt lat="41.286447" lon="-4.681148">
        <ele>711.725</ele>
        <time>2021-10-15T17:48:52Z</time>
      </trkpt>
      <trkpt lat="41.286340" lon="-4.681167">
        <ele>711.773</ele>
        <time>2021-10-15T17:48:53Z</time>
      </trkpt>
      <trkpt lat="41.286242" lon="-4.681183">
        <ele>711.747</ele>
        <time>2021-10-15T17:48:54Z</time>
      </trkpt>
      <trkpt lat="41.286070" lon="-4.681206">
        <ele>711.882</ele>
        <time>2021-10-15T17:48:56Z</time>
      </trkpt>
      <trkpt lat="41.285907" lon="-4.681225">
        <ele>711.940</ele>
        <time>2021-10-15T17:48:58Z</time>
      </trkpt>
      <trkpt lat="41.285697" lon="-4.681247">
        <ele>711.923</ele>
        <time>2021-10-15T17:49:00Z</time>
      </trkpt>
      <trkpt lat="41.285477" lon="-4.681266">
        <ele>711.858</ele>
        <time>2021-10-15T17:49:02Z</time>
      </trkpt>
      <trkpt lat="41.285294" lon="-4.681283">
        <ele>711.877</ele>
        <time>2021-10-15T17:49:04Z</time>
      </trkpt>
      <trkpt lat="41.285199" lon="-4.681290">
        <ele>711.861</ele>
        <time>2021-10-15T17:49:05Z</time>
      </trkpt>
      <trkpt lat="41.284999" lon="-4.681302">
        <ele>711.927</ele>
        <time>2021-10-15T17:49:07Z</time>
      </trkpt>
      <trkpt lat="41.284771" lon="-4.681320">
        <ele>711.908</ele>
        <time>2021-10-15T17:49:09Z</time>
      </trkpt>
      <trkpt lat="41.284495" lon="-4.681341">
        <ele>711.995</ele>
        <time>2021-10-15T17:49:11Z</time>
      </trkpt>
      <trkpt lat="41.284345" lon="-4.681347">
        <ele>711.943</ele>
        <time>2021-10-15T17:49:12Z</time>
      </trkpt>
      <trkpt lat="41.284189" lon="-4.681354">
        <ele>711.961</ele>
        <time>2021-10-15T17:49:13Z</time>
      </trkpt>
      <trkpt lat="41.283853" lon="-4.681372">
        <ele>711.985</ele>
        <time>2021-10-15T17:49:15Z</time>
      </trkpt>
      <trkpt lat="41.283677" lon="-4.681381">
        <ele>711.920</ele>
        <time>2021-10-15T17:49:16Z</time>
      </trkpt>
      <trkpt lat="41.283336" lon="-4.681405">
        <ele>711.958</ele>
        <time>2021-10-15T17:49:18Z</time>
      </trkpt>
      <trkpt lat="41.283164" lon="-4.681416">
        <ele>711.931</ele>
        <time>2021-10-15T17:49:19Z</time>
      </trkpt>
      <trkpt lat="41.282816" lon="-4.681433">
        <ele>711.926</ele>
        <time>2021-10-15T17:49:21Z</time>
      </trkpt>
      <trkpt lat="41.282638" lon="-4.681446">
        <ele>711.937</ele>
        <time>2021-10-15T17:49:22Z</time>
      </trkpt>
      <trkpt lat="41.282311" lon="-4.681470">
        <ele>711.949</ele>
        <time>2021-10-15T17:49:24Z</time>
      </trkpt>
      <trkpt lat="41.282146" lon="-4.681480">
        <ele>711.913</ele>
        <time>2021-10-15T17:49:25Z</time>
      </trkpt>
      <trkpt lat="41.281975" lon="-4.681488">
        <ele>711.908</ele>
        <time>2021-10-15T17:49:26Z</time>
      </trkpt>
      <trkpt lat="41.281645" lon="-4.681466">
        <ele>711.941</ele>
        <time>2021-10-15T17:49:28Z</time>
      </trkpt>
      <trkpt lat="41.281464" lon="-4.681436">
        <ele>711.959</ele>
        <time>2021-10-15T17:49:29Z</time>
      </trkpt>
      <trkpt lat="41.281275" lon="-4.681401">
        <ele>711.997</ele>
        <time>2021-10-15T17:49:30Z</time>
      </trkpt>
      <trkpt lat="41.280872" lon="-4.681321">
        <ele>711.941</ele>
        <time>2021-10-15T17:49:32Z</time>
      </trkpt>
      <trkpt lat="41.280492" lon="-4.681259">
        <ele>711.946</ele>
        <time>2021-10-15T17:49:34Z</time>
      </trkpt>
      <trkpt lat="41.280088" lon="-4.681195">
        <ele>711.984</ele>
        <time>2021-10-15T17:49:36Z</time>
      </trkpt>
      <trkpt lat="41.279701" lon="-4.681144">
        <ele>711.977</ele>
        <time>2021-10-15T17:49:38Z</time>
      </trkpt>
      <trkpt lat="41.279323" lon="-4.681088">
        <ele>711.962</ele>
        <time>2021-10-15T17:49:40Z</time>
      </trkpt>
      <trkpt lat="41.279131" lon="-4.681056">
        <ele>711.994</ele>
        <time>2021-10-15T17:49:41Z</time>
      </trkpt>
      <trkpt lat="41.278734" lon="-4.680986">
        <ele>711.957</ele>
        <time>2021-10-15T17:49:43Z</time>
      </trkpt>
      <trkpt lat="41.278321" lon="-4.680920">
        <ele>718.122</ele>
        <time>2021-10-15T17:49:45Z</time>
      </trkpt>
      <trkpt lat="41.277883" lon="-4.680860">
        <ele>724.308</ele>
        <time>2021-10-15T17:49:47Z</time>
      </trkpt>
      <trkpt lat="41.277431" lon="-4.680790">
        <ele>724.737</ele>
        <time>2021-10-15T17:49:49Z</time>
      </trkpt>
      <trkpt lat="41.276972" lon="-4.680712">
        <ele>725.195</ele>
        <time>2021-10-15T17:49:51Z</time>
      </trkpt>
      <trkpt lat="41.276512" lon="-4.680639">
        <ele>725.923</ele>
        <time>2021-10-15T17:49:53Z</time>
      </trkpt>
      <trkpt lat="41.276278" lon="-4.680604">
        <ele>726.757</ele>
        <time>2021-10-15T17:49:54Z</time>
      </trkpt>
      <trkpt lat="41.275799" lon="-4.680530">
        <ele>727.682</ele>
        <time>2021-10-15T17:49:56Z</time>
      </trkpt>
      <trkpt lat="41.275334" lon="-4.680453">
        <ele>728.620</ele>
        <time>2021-10-15T17:49:58Z</time>
      </trkpt>
      <trkpt lat="41.275088" lon="-4.680416">
        <ele>728.923</ele>
        <time>2021-10-15T17:49:59Z</time>
      </trkpt>
      <trkpt lat="41.274839" lon="-4.680378">
        <ele>729.228</ele>
        <time>2021-10-15T17:50:00Z</time>
      </trkpt>
      <trkpt lat="41.274587" lon="-4.680338">
        <ele>729.657</ele>
        <time>2021-10-15T17:50:01Z</time>
      </trkpt>
      <trkpt lat="41.274325" lon="-4.680289">
        <ele>730.000</ele>
        <time>2021-10-15T17:50:02Z</time>
      </trkpt>
      <trkpt lat="41.273829" lon="-4.680188">
        <ele>731.220</ele>
        <time>2021-10-15T17:50:04Z</time>
      </trkpt>
      <trkpt lat="41.273579" lon="-4.680137">
        <ele>731.808</ele>
        <time>2021-10-15T17:50:05Z</time>
      </trkpt>
      <trkpt lat="41.273108" lon="-4.680037">
        <ele>732.963</ele>
        <time>2021-10-15T17:50:07Z</time>
      </trkpt>
      <trkpt lat="41.272878" lon="-4.679985">
        <ele>733.321</ele>
        <time>2021-10-15T17:50:08Z</time>
      </trkpt>
      <trkpt lat="41.272423" lon="-4.679872">
        <ele>734.439</ele>
        <time>2021-10-15T17:50:10Z</time>
      </trkpt>
      <trkpt lat="41.272189" lon="-4.679808">
        <ele>734.723</ele>
        <time>2021-10-15T17:50:11Z</time>
      </trkpt>
      <trkpt lat="41.271720" lon="-4.679681">
        <ele>734.348</ele>
        <time>2021-10-15T17:50:13Z</time>
      </trkpt>
      <trkpt lat="41.271478" lon="-4.679615">
        <ele>734.836</ele>
        <time>2021-10-15T17:50:14Z</time>
      </trkpt>
      <trkpt lat="41.270983" lon="-4.679474">
        <ele>734.139</ele>
        <time>2021-10-15T17:50:16Z</time>
      </trkpt>
      <trkpt lat="41.270478" lon="-4.679324">
        <ele>733.584</ele>
        <time>2021-10-15T17:50:18Z</time>
      </trkpt>
      <trkpt lat="41.270225" lon="-4.679245">
        <ele>732.921</ele>
        <time>2021-10-15T17:50:19Z</time>
      </trkpt>
      <trkpt lat="41.269968" lon="-4.679165">
        <ele>732.741</ele>
        <time>2021-10-15T17:50:20Z</time>
      </trkpt>
      <trkpt lat="41.269453" lon="-4.679011">
        <ele>732.205</ele>
        <time>2021-10-15T17:50:22Z</time>
      </trkpt>
      <trkpt lat="41.269196" lon="-4.678936">
        <ele>731.608</ele>
        <time>2021-10-15T17:50:23Z</time>
      </trkpt>
      <trkpt lat="41.268936" lon="-4.678860">
        <ele>731.160</ele>
        <time>2021-10-15T17:50:24Z</time>
      </trkpt>
      <trkpt lat="41.268408" lon="-4.678708">
        <ele>731.778</ele>
        <time>2021-10-15T17:50:26Z</time>
      </trkpt>
      <trkpt lat="41.267912" lon="-4.678563">
        <ele>732.656</ele>
        <time>2021-10-15T17:50:28Z</time>
      </trkpt>
      <trkpt lat="41.267425" lon="-4.678412">
        <ele>733.290</ele>
        <time>2021-10-15T17:50:30Z</time>
      </trkpt>
      <trkpt lat="41.266937" lon="-4.678269">
        <ele>733.215</ele>
        <time>2021-10-15T17:50:32Z</time>
      </trkpt>
      <trkpt lat="41.266481" lon="-4.678134">
        <ele>733.263</ele>
        <time>2021-10-15T17:50:34Z</time>
      </trkpt>
      <trkpt lat="41.266013" lon="-4.678000">
        <ele>732.666</ele>
        <time>2021-10-15T17:50:36Z</time>
      </trkpt>
      <trkpt lat="41.265541" lon="-4.677863">
        <ele>733.271</ele>
        <time>2021-10-15T17:50:38Z</time>
      </trkpt>
      <trkpt lat="41.265080" lon="-4.677719">
        <ele>733.453</ele>
        <time>2021-10-15T17:50:40Z</time>
      </trkpt>
      <trkpt lat="41.264615" lon="-4.677581">
        <ele>733.504</ele>
        <time>2021-10-15T17:50:42Z</time>
      </trkpt>
      <trkpt lat="41.264381" lon="-4.677514">
        <ele>733.514</ele>
        <time>2021-10-15T17:50:43Z</time>
      </trkpt>
      <trkpt lat="41.263953" lon="-4.677392">
        <ele>733.908</ele>
        <time>2021-10-15T17:50:45Z</time>
      </trkpt>
      <trkpt lat="41.263742" lon="-4.677331">
        <ele>733.993</ele>
        <time>2021-10-15T17:50:46Z</time>
      </trkpt>
      <trkpt lat="41.263322" lon="-4.677209">
        <ele>734.051</ele>
        <time>2021-10-15T17:50:48Z</time>
      </trkpt>
      <trkpt lat="41.262889" lon="-4.677076">
        <ele>733.499</ele>
        <time>2021-10-15T17:50:50Z</time>
      </trkpt>
      <trkpt lat="41.262664" lon="-4.677006">
        <ele>733.763</ele>
        <time>2021-10-15T17:50:51Z</time>
      </trkpt>
      <trkpt lat="41.262212" lon="-4.676880">
        <ele>734.168</ele>
        <time>2021-10-15T17:50:53Z</time>
      </trkpt>
      <trkpt lat="41.261761" lon="-4.676766">
        <ele>734.426</ele>
        <time>2021-10-15T17:50:55Z</time>
      </trkpt>
      <trkpt lat="41.261525" lon="-4.676712">
        <ele>734.239</ele>
        <time>2021-10-15T17:50:56Z</time>
      </trkpt>
      <trkpt lat="41.261067" lon="-4.676625">
        <ele>734.354</ele>
        <time>2021-10-15T17:50:58Z</time>
      </trkpt>
      <trkpt lat="41.260589" lon="-4.676556">
        <ele>733.819</ele>
        <time>2021-10-15T17:51:00Z</time>
      </trkpt>
      <trkpt lat="41.260096" lon="-4.676500">
        <ele>733.609</ele>
        <time>2021-10-15T17:51:02Z</time>
      </trkpt>
      <trkpt lat="41.259603" lon="-4.676443">
        <ele>733.219</ele>
        <time>2021-10-15T17:51:04Z</time>
      </trkpt>
      <trkpt lat="41.259106" lon="-4.676382">
        <ele>732.508</ele>
        <time>2021-10-15T17:51:06Z</time>
      </trkpt>
      <trkpt lat="41.258601" lon="-4.676310">
        <ele>731.279</ele>
        <time>2021-10-15T17:51:08Z</time>
      </trkpt>
      <trkpt lat="41.258348" lon="-4.676275">
        <ele>730.637</ele>
        <time>2021-10-15T17:51:09Z</time>
      </trkpt>
      <trkpt lat="41.257840" lon="-4.676205">
        <ele>730.055</ele>
        <time>2021-10-15T17:51:11Z</time>
      </trkpt>
      <trkpt lat="41.257581" lon="-4.676170">
        <ele>730.319</ele>
        <time>2021-10-15T17:51:12Z</time>
      </trkpt>
      <trkpt lat="41.257071" lon="-4.676102">
        <ele>730.364</ele>
        <time>2021-10-15T17:51:14Z</time>
      </trkpt>
      <trkpt lat="41.256818" lon="-4.676068">
        <ele>730.412</ele>
        <time>2021-10-15T17:51:15Z</time>
      </trkpt>
      <trkpt lat="41.256566" lon="-4.676034">
        <ele>730.695</ele>
        <time>2021-10-15T17:51:16Z</time>
      </trkpt>
      <trkpt lat="41.256072" lon="-4.675970">
        <ele>731.380</ele>
        <time>2021-10-15T17:51:18Z</time>
      </trkpt>
      <trkpt lat="41.255585" lon="-4.675905">
        <ele>731.585</ele>
        <time>2021-10-15T17:51:20Z</time>
      </trkpt>
      <trkpt lat="41.255343" lon="-4.675873">
        <ele>732.289</ele>
        <time>2021-10-15T17:51:21Z</time>
      </trkpt>
      <trkpt lat="41.255103" lon="-4.675841">
        <ele>733.017</ele>
        <time>2021-10-15T17:51:22Z</time>
      </trkpt>
      <trkpt lat="41.254619" lon="-4.675782">
        <ele>733.608</ele>
        <time>2021-10-15T17:51:24Z</time>
      </trkpt>
      <trkpt lat="41.254374" lon="-4.675754">
        <ele>734.336</ele>
        <time>2021-10-15T17:51:25Z</time>
      </trkpt>
      <trkpt lat="41.254116" lon="-4.675723">
        <ele>734.734</ele>
        <time>2021-10-15T17:51:26Z</time>
      </trkpt>
      <trkpt lat="41.253609" lon="-4.675660">
        <ele>735.962</ele>
        <time>2021-10-15T17:51:28Z</time>
      </trkpt>
      <trkpt lat="41.253081" lon="-4.675583">
        <ele>735.386</ele>
        <time>2021-10-15T17:51:30Z</time>
      </trkpt>
      <trkpt lat="41.252546" lon="-4.675507">
        <ele>736.321</ele>
        <time>2021-10-15T17:51:32Z</time>
      </trkpt>
      <trkpt lat="41.252063" lon="-4.675442">
        <ele>736.449</ele>
        <time>2021-10-15T17:51:34Z</time>
      </trkpt>
      <trkpt lat="41.251825" lon="-4.675410">
        <ele>736.552</ele>
        <time>2021-10-15T17:51:35Z</time>
      </trkpt>
      <trkpt lat="41.251358" lon="-4.675347">
        <ele>736.267</ele>
        <time>2021-10-15T17:51:37Z</time>
      </trkpt>
      <trkpt lat="41.250877" lon="-4.675284">
        <ele>737.059</ele>
        <time>2021-10-15T17:51:39Z</time>
      </trkpt>
      <trkpt lat="41.250388" lon="-4.675225">
        <ele>736.503</ele>
        <time>2021-10-15T17:51:41Z</time>
      </trkpt>
      <trkpt lat="41.250138" lon="-4.675191">
        <ele>737.423</ele>
        <time>2021-10-15T17:51:42Z</time>
      </trkpt>
      <trkpt lat="41.249617" lon="-4.675114">
        <ele>738.708</ele>
        <time>2021-10-15T17:51:44Z</time>
      </trkpt>
      <trkpt lat="41.249350" lon="-4.675074">
        <ele>739.113</ele>
        <time>2021-10-15T17:51:45Z</time>
      </trkpt>
      <trkpt lat="41.248821" lon="-4.674994">
        <ele>738.851</ele>
        <time>2021-10-15T17:51:47Z</time>
      </trkpt>
      <trkpt lat="41.248556" lon="-4.674948">
        <ele>739.459</ele>
        <time>2021-10-15T17:51:48Z</time>
      </trkpt>
      <trkpt lat="41.248041" lon="-4.674854">
        <ele>739.723</ele>
        <time>2021-10-15T17:51:50Z</time>
      </trkpt>
      <trkpt lat="41.247791" lon="-4.674806">
        <ele>739.728</ele>
        <time>2021-10-15T17:51:51Z</time>
      </trkpt>
      <trkpt lat="41.247319" lon="-4.674715">
        <ele>740.026</ele>
        <time>2021-10-15T17:51:53Z</time>
      </trkpt>
      <trkpt lat="41.246883" lon="-4.674619">
        <ele>740.499</ele>
        <time>2021-10-15T17:51:55Z</time>
      </trkpt>
      <trkpt lat="41.246658" lon="-4.674564">
        <ele>740.544</ele>
        <time>2021-10-15T17:51:56Z</time>
      </trkpt>
      <trkpt lat="41.246243" lon="-4.674463">
        <ele>741.522</ele>
        <time>2021-10-15T17:51:58Z</time>
      </trkpt>
      <trkpt lat="41.246027" lon="-4.674411">
        <ele>742.162</ele>
        <time>2021-10-15T17:51:59Z</time>
      </trkpt>
      <trkpt lat="41.245812" lon="-4.674360">
        <ele>742.208</ele>
        <time>2021-10-15T17:52:00Z</time>
      </trkpt>
      <trkpt lat="41.245373" lon="-4.674255">
        <ele>742.008</ele>
        <time>2021-10-15T17:52:02Z</time>
      </trkpt>
      <trkpt lat="41.244932" lon="-4.674147">
        <ele>743.270</ele>
        <time>2021-10-15T17:52:04Z</time>
      </trkpt>
      <trkpt lat="41.244463" lon="-4.674039">
        <ele>742.848</ele>
        <time>2021-10-15T17:52:06Z</time>
      </trkpt>
      <trkpt lat="41.244000" lon="-4.673928">
        <ele>742.416</ele>
        <time>2021-10-15T17:52:08Z</time>
      </trkpt>
      <trkpt lat="41.243543" lon="-4.673814">
        <ele>742.360</ele>
        <time>2021-10-15T17:52:10Z</time>
      </trkpt>
      <trkpt lat="41.243308" lon="-4.673757">
        <ele>742.365</ele>
        <time>2021-10-15T17:52:11Z</time>
      </trkpt>
      <trkpt lat="41.243063" lon="-4.673697">
        <ele>742.913</ele>
        <time>2021-10-15T17:52:12Z</time>
      </trkpt>
      <trkpt lat="41.242566" lon="-4.673583">
        <ele>742.946</ele>
        <time>2021-10-15T17:52:14Z</time>
      </trkpt>
      <trkpt lat="41.242301" lon="-4.673524">
        <ele>742.771</ele>
        <time>2021-10-15T17:52:15Z</time>
      </trkpt>
      <trkpt lat="41.242026" lon="-4.673462">
        <ele>742.717</ele>
        <time>2021-10-15T17:52:16Z</time>
      </trkpt>
      <trkpt lat="41.241460" lon="-4.673326">
        <ele>743.187</ele>
        <time>2021-10-15T17:52:18Z</time>
      </trkpt>
      <trkpt lat="41.240875" lon="-4.673172">
        <ele>743.715</ele>
        <time>2021-10-15T17:52:20Z</time>
      </trkpt>
      <trkpt lat="41.240274" lon="-4.673017">
        <ele>744.108</ele>
        <time>2021-10-15T17:52:22Z</time>
      </trkpt>
      <trkpt lat="41.239966" lon="-4.672942">
        <ele>744.189</ele>
        <time>2021-10-15T17:52:23Z</time>
      </trkpt>
      <trkpt lat="41.239653" lon="-4.672867">
        <ele>744.127</ele>
        <time>2021-10-15T17:52:24Z</time>
      </trkpt>
      <trkpt lat="41.239059" lon="-4.672727">
        <ele>743.635</ele>
        <time>2021-10-15T17:52:26Z</time>
      </trkpt>
      <trkpt lat="41.238546" lon="-4.672607">
        <ele>743.869</ele>
        <time>2021-10-15T17:52:28Z</time>
      </trkpt>
      <trkpt lat="41.238046" lon="-4.672499">
        <ele>743.424</ele>
        <time>2021-10-15T17:52:30Z</time>
      </trkpt>
      <trkpt lat="41.237548" lon="-4.672384">
        <ele>743.382</ele>
        <time>2021-10-15T17:52:32Z</time>
      </trkpt>
      <trkpt lat="41.237081" lon="-4.672272">
        <ele>743.435</ele>
        <time>2021-10-15T17:52:34Z</time>
      </trkpt>
      <trkpt lat="41.236856" lon="-4.672219">
        <ele>743.520</ele>
        <time>2021-10-15T17:52:35Z</time>
      </trkpt>
      <trkpt lat="41.236631" lon="-4.672165">
        <ele>743.476</ele>
        <time>2021-10-15T17:52:36Z</time>
      </trkpt>
      <trkpt lat="41.236189" lon="-4.672059">
        <ele>743.290</ele>
        <time>2021-10-15T17:52:38Z</time>
      </trkpt>
      <trkpt lat="41.235777" lon="-4.671961">
        <ele>742.219</ele>
        <time>2021-10-15T17:52:40Z</time>
      </trkpt>
      <trkpt lat="41.235401" lon="-4.671880">
        <ele>741.908</ele>
        <time>2021-10-15T17:52:42Z</time>
      </trkpt>
      <trkpt lat="41.235045" lon="-4.671797">
        <ele>740.535</ele>
        <time>2021-10-15T17:52:44Z</time>
      </trkpt>
      <trkpt lat="41.234666" lon="-4.671704">
        <ele>739.543</ele>
        <time>2021-10-15T17:52:46Z</time>
      </trkpt>
      <trkpt lat="41.234460" lon="-4.671653">
        <ele>739.441</ele>
        <time>2021-10-15T17:52:47Z</time>
      </trkpt>
      <trkpt lat="41.234249" lon="-4.671600">
        <ele>739.485</ele>
        <time>2021-10-15T17:52:48Z</time>
      </trkpt>
      <trkpt lat="41.233833" lon="-4.671498">
        <ele>739.420</ele>
        <time>2021-10-15T17:52:50Z</time>
      </trkpt>
      <trkpt lat="41.233422" lon="-4.671402">
        <ele>738.718</ele>
        <time>2021-10-15T17:52:52Z</time>
      </trkpt>
      <trkpt lat="41.233214" lon="-4.671351">
        <ele>738.411</ele>
        <time>2021-10-15T17:52:53Z</time>
      </trkpt>
      <trkpt lat="41.233005" lon="-4.671300">
        <ele>738.456</ele>
        <time>2021-10-15T17:52:54Z</time>
      </trkpt>
      <trkpt lat="41.232797" lon="-4.671249">
        <ele>737.952</ele>
        <time>2021-10-15T17:52:55Z</time>
      </trkpt>
      <trkpt lat="41.232586" lon="-4.671197">
        <ele>737.253</ele>
        <time>2021-10-15T17:52:56Z</time>
      </trkpt>
      <trkpt lat="41.232192" lon="-4.671103">
        <ele>737.108</ele>
        <time>2021-10-15T17:52:58Z</time>
      </trkpt>
      <trkpt lat="41.231796" lon="-4.671010">
        <ele>738.008</ele>
        <time>2021-10-15T17:53:00Z</time>
      </trkpt>
      <trkpt lat="41.231402" lon="-4.670922">
        <ele>737.623</ele>
        <time>2021-10-15T17:53:02Z</time>
      </trkpt>
      <trkpt lat="41.231008" lon="-4.670826">
        <ele>737.471</ele>
        <time>2021-10-15T17:53:04Z</time>
      </trkpt>
      <trkpt lat="41.230597" lon="-4.670724">
        <ele>737.949</ele>
        <time>2021-10-15T17:53:06Z</time>
      </trkpt>
      <trkpt lat="41.230386" lon="-4.670671">
        <ele>737.643</ele>
        <time>2021-10-15T17:53:07Z</time>
      </trkpt>
      <trkpt lat="41.229958" lon="-4.670563">
        <ele>737.128</ele>
        <time>2021-10-15T17:53:09Z</time>
      </trkpt>
      <trkpt lat="41.229731" lon="-4.670500">
        <ele>737.076</ele>
        <time>2021-10-15T17:53:10Z</time>
      </trkpt>
      <trkpt lat="41.229272" lon="-4.670377">
        <ele>736.349</ele>
        <time>2021-10-15T17:53:12Z</time>
      </trkpt>
      <trkpt lat="41.228814" lon="-4.670267">
        <ele>735.774</ele>
        <time>2021-10-15T17:53:14Z</time>
      </trkpt>
      <trkpt lat="41.228596" lon="-4.670219">
        <ele>735.488</ele>
        <time>2021-10-15T17:53:15Z</time>
      </trkpt>
      <trkpt lat="41.228380" lon="-4.670168">
        <ele>735.524</ele>
        <time>2021-10-15T17:53:16Z</time>
      </trkpt>
      <trkpt lat="41.228164" lon="-4.670117">
        <ele>735.126</ele>
        <time>2021-10-15T17:53:17Z</time>
      </trkpt>
      <trkpt lat="41.227754" lon="-4.670020">
        <ele>734.308</ele>
        <time>2021-10-15T17:53:19Z</time>
      </trkpt>
      <trkpt lat="41.227549" lon="-4.669972">
        <ele>734.396</ele>
        <time>2021-10-15T17:53:20Z</time>
      </trkpt>
      <trkpt lat="41.227105" lon="-4.669866">
        <ele>734.244</ele>
        <time>2021-10-15T17:53:22Z</time>
      </trkpt>
      <trkpt lat="41.226626" lon="-4.669752">
        <ele>732.782</ele>
        <time>2021-10-15T17:53:24Z</time>
      </trkpt>
      <trkpt lat="41.226383" lon="-4.669694">
        <ele>732.186</ele>
        <time>2021-10-15T17:53:25Z</time>
      </trkpt>
      <trkpt lat="41.226134" lon="-4.669635">
        <ele>732.261</ele>
        <time>2021-10-15T17:53:26Z</time>
      </trkpt>
      <trkpt lat="41.225662" lon="-4.669525">
        <ele>730.699</ele>
        <time>2021-10-15T17:53:28Z</time>
      </trkpt>
      <trkpt lat="41.225172" lon="-4.669409">
        <ele>730.782</ele>
        <time>2021-10-15T17:53:30Z</time>
      </trkpt>
      <trkpt lat="41.224698" lon="-4.669287">
        <ele>729.897</ele>
        <time>2021-10-15T17:53:32Z</time>
      </trkpt>
      <trkpt lat="41.224238" lon="-4.669180">
        <ele>729.555</ele>
        <time>2021-10-15T17:53:34Z</time>
      </trkpt>
      <trkpt lat="41.223796" lon="-4.669079">
        <ele>728.807</ele>
        <time>2021-10-15T17:53:36Z</time>
      </trkpt>
      <trkpt lat="41.223355" lon="-4.668976">
        <ele>728.917</ele>
        <time>2021-10-15T17:53:38Z</time>
      </trkpt>
      <trkpt lat="41.222876" lon="-4.668849">
        <ele>729.708</ele>
        <time>2021-10-15T17:53:40Z</time>
      </trkpt>
      <trkpt lat="41.222376" lon="-4.668730">
        <ele>729.733</ele>
        <time>2021-10-15T17:53:42Z</time>
      </trkpt>
      <trkpt lat="41.222130" lon="-4.668672">
        <ele>729.951</ele>
        <time>2021-10-15T17:53:43Z</time>
      </trkpt>
      <trkpt lat="41.221663" lon="-4.668567">
        <ele>728.489</ele>
        <time>2021-10-15T17:53:45Z</time>
      </trkpt>
      <trkpt lat="41.221428" lon="-4.668511">
        <ele>728.463</ele>
        <time>2021-10-15T17:53:46Z</time>
      </trkpt>
      <trkpt lat="41.220908" lon="-4.668376">
        <ele>728.218</ele>
        <time>2021-10-15T17:53:48Z</time>
      </trkpt>
      <trkpt lat="41.220445" lon="-4.668270">
        <ele>728.466</ele>
        <time>2021-10-15T17:53:50Z</time>
      </trkpt>
      <trkpt lat="41.220237" lon="-4.668236">
        <ele>728.999</ele>
        <time>2021-10-15T17:53:51Z</time>
      </trkpt>
      <trkpt lat="41.219814" lon="-4.668141">
        <ele>729.214</ele>
        <time>2021-10-15T17:53:53Z</time>
      </trkpt>
      <trkpt lat="41.219593" lon="-4.668083">
        <ele>729.561</ele>
        <time>2021-10-15T17:53:54Z</time>
      </trkpt>
      <trkpt lat="41.219380" lon="-4.668029">
        <ele>731.021</ele>
        <time>2021-10-15T17:53:55Z</time>
      </trkpt>
      <trkpt lat="41.219173" lon="-4.667977">
        <ele>731.613</ele>
        <time>2021-10-15T17:53:56Z</time>
      </trkpt>
      <trkpt lat="41.218736" lon="-4.667871">
        <ele>731.508</ele>
        <time>2021-10-15T17:53:58Z</time>
      </trkpt>
      <trkpt lat="41.218275" lon="-4.667752">
        <ele>732.724</ele>
        <time>2021-10-15T17:54:00Z</time>
      </trkpt>
      <trkpt lat="41.217818" lon="-4.667648">
        <ele>732.382</ele>
        <time>2021-10-15T17:54:02Z</time>
      </trkpt>
      <trkpt lat="41.217379" lon="-4.667542">
        <ele>732.290</ele>
        <time>2021-10-15T17:54:04Z</time>
      </trkpt>
      <trkpt lat="41.217154" lon="-4.667484">
        <ele>732.064</ele>
        <time>2021-10-15T17:54:05Z</time>
      </trkpt>
      <trkpt lat="41.216702" lon="-4.667367">
        <ele>732.639</ele>
        <time>2021-10-15T17:54:07Z</time>
      </trkpt>
      <trkpt lat="41.216470" lon="-4.667312">
        <ele>732.757</ele>
        <time>2021-10-15T17:54:08Z</time>
      </trkpt>
      <trkpt lat="41.215997" lon="-4.667199">
        <ele>732.960</ele>
        <time>2021-10-15T17:54:10Z</time>
      </trkpt>
      <trkpt lat="41.215758" lon="-4.667141">
        <ele>732.915</ele>
        <time>2021-10-15T17:54:11Z</time>
      </trkpt>
      <trkpt lat="41.215280" lon="-4.667026">
        <ele>733.421</ele>
        <time>2021-10-15T17:54:13Z</time>
      </trkpt>
      <trkpt lat="41.214815" lon="-4.666908">
        <ele>734.741</ele>
        <time>2021-10-15T17:54:15Z</time>
      </trkpt>
      <trkpt lat="41.214372" lon="-4.666805">
        <ele>735.105</ele>
        <time>2021-10-15T17:54:17Z</time>
      </trkpt>
      <trkpt lat="41.214151" lon="-4.666753">
        <ele>735.308</ele>
        <time>2021-10-15T17:54:18Z</time>
      </trkpt>
      <trkpt lat="41.213721" lon="-4.666647">
        <ele>734.970</ele>
        <time>2021-10-15T17:54:20Z</time>
      </trkpt>
      <trkpt lat="41.213486" lon="-4.666587">
        <ele>735.088</ele>
        <time>2021-10-15T17:54:21Z</time>
      </trkpt>
      <trkpt lat="41.212990" lon="-4.666462">
        <ele>736.066</ele>
        <time>2021-10-15T17:54:23Z</time>
      </trkpt>
      <trkpt lat="41.212714" lon="-4.666379">
        <ele>736.770</ele>
        <time>2021-10-15T17:54:24Z</time>
      </trkpt>
      <trkpt lat="41.212079" lon="-4.666210">
        <ele>738.385</ele>
        <time>2021-10-15T17:54:26Z</time>
      </trkpt>
      <trkpt lat="41.210649" lon="-4.665934">
        <ele>740.413</ele>
        <time>2021-10-15T17:54:30Z</time>
      </trkpt>
      <trkpt lat="41.209969" lon="-4.665770">
        <ele>743.216</ele>
        <time>2021-10-15T17:54:32Z</time>
      </trkpt>
      <trkpt lat="41.209419" lon="-4.665636">
        <ele>745.141</ele>
        <time>2021-10-15T17:54:34Z</time>
      </trkpt>
      <trkpt lat="41.209157" lon="-4.665565">
        <ele>745.873</ele>
        <time>2021-10-15T17:54:35Z</time>
      </trkpt>
      <trkpt lat="41.208645" lon="-4.665430">
        <ele>746.685</ele>
        <time>2021-10-15T17:54:37Z</time>
      </trkpt>
      <trkpt lat="41.208383" lon="-4.665362">
        <ele>746.213</ele>
        <time>2021-10-15T17:54:38Z</time>
      </trkpt>
      <trkpt lat="41.208135" lon="-4.665299">
        <ele>746.108</ele>
        <time>2021-10-15T17:54:39Z</time>
      </trkpt>
      <trkpt lat="41.207895" lon="-4.665244">
        <ele>746.055</ele>
        <time>2021-10-15T17:54:40Z</time>
      </trkpt>
      <trkpt lat="41.207454" lon="-4.665134">
        <ele>745.813</ele>
        <time>2021-10-15T17:54:42Z</time>
      </trkpt>
      <trkpt lat="41.207009" lon="-4.665028">
        <ele>745.861</ele>
        <time>2021-10-15T17:54:44Z</time>
      </trkpt>
      <trkpt lat="41.206553" lon="-4.664924">
        <ele>745.335</ele>
        <time>2021-10-15T17:54:46Z</time>
      </trkpt>
      <trkpt lat="41.206065" lon="-4.664807">
        <ele>745.610</ele>
        <time>2021-10-15T17:54:48Z</time>
      </trkpt>
      <trkpt lat="41.205781" lon="-4.664730">
        <ele>745.498</ele>
        <time>2021-10-15T17:54:49Z</time>
      </trkpt>
      <trkpt lat="41.205512" lon="-4.664657">
        <ele>745.581</ele>
        <time>2021-10-15T17:54:50Z</time>
      </trkpt>
      <trkpt lat="41.204936" lon="-4.664512">
        <ele>745.296</ele>
        <time>2021-10-15T17:54:52Z</time>
      </trkpt>
      <trkpt lat="41.204621" lon="-4.664459">
        <ele>744.481</ele>
        <time>2021-10-15T17:54:53Z</time>
      </trkpt>
      <trkpt lat="41.204300" lon="-4.664404">
        <ele>743.461</ele>
        <time>2021-10-15T17:54:54Z</time>
      </trkpt>
      <trkpt lat="41.203622" lon="-4.664258">
        <ele>742.417</ele>
        <time>2021-10-15T17:54:56Z</time>
      </trkpt>
      <trkpt lat="41.202971" lon="-4.664093">
        <ele>741.508</ele>
        <time>2021-10-15T17:54:58Z</time>
      </trkpt>
      <trkpt lat="41.202280" lon="-4.663920">
        <ele>740.056</ele>
        <time>2021-10-15T17:55:00Z</time>
      </trkpt>
      <trkpt lat="41.201927" lon="-4.663839">
        <ele>739.974</ele>
        <time>2021-10-15T17:55:01Z</time>
      </trkpt>
      <trkpt lat="41.200883" lon="-4.663594">
        <ele>739.912</ele>
        <time>2021-10-15T17:55:04Z</time>
      </trkpt>
      <trkpt lat="41.200530" lon="-4.663510">
        <ele>738.946</ele>
        <time>2021-10-15T17:55:05Z</time>
      </trkpt>
      <trkpt lat="41.199831" lon="-4.663343">
        <ele>738.521</ele>
        <time>2021-10-15T17:55:07Z</time>
      </trkpt>
      <trkpt lat="41.199484" lon="-4.663253">
        <ele>738.519</ele>
        <time>2021-10-15T17:55:08Z</time>
      </trkpt>
      <trkpt lat="41.199137" lon="-4.663164">
        <ele>739.122</ele>
        <time>2021-10-15T17:55:09Z</time>
      </trkpt>
      <trkpt lat="41.198458" lon="-4.662992">
        <ele>740.697</ele>
        <time>2021-10-15T17:55:11Z</time>
      </trkpt>
      <trkpt lat="41.198107" lon="-4.662905">
        <ele>740.779</ele>
        <time>2021-10-15T17:55:12Z</time>
      </trkpt>
      <trkpt lat="41.197044" lon="-4.662644">
        <ele>740.605</ele>
        <time>2021-10-15T17:55:15Z</time>
      </trkpt>
      <trkpt lat="41.195582" lon="-4.662291">
        <ele>738.725</ele>
        <time>2021-10-15T17:55:19Z</time>
      </trkpt>
      <trkpt lat="41.194078" lon="-4.661913">
        <ele>735.308</ele>
        <time>2021-10-15T17:55:23Z</time>
      </trkpt>
      <trkpt lat="41.192659" lon="-4.661554">
        <ele>733.445</ele>
        <time>2021-10-15T17:55:27Z</time>
      </trkpt>
      <trkpt lat="41.192305" lon="-4.661472">
        <ele>733.113</ele>
        <time>2021-10-15T17:55:28Z</time>
      </trkpt>
      <trkpt lat="41.191603" lon="-4.661308">
        <ele>733.411</ele>
        <time>2021-10-15T17:55:30Z</time>
      </trkpt>
      <trkpt lat="41.190213" lon="-4.660989">
        <ele>733.555</ele>
        <time>2021-10-15T17:55:34Z</time>
      </trkpt>
      <trkpt lat="41.189863" lon="-4.660901">
        <ele>733.030</ele>
        <time>2021-10-15T17:55:35Z</time>
      </trkpt>
      <trkpt lat="41.189182" lon="-4.660740">
        <ele>732.038</ele>
        <time>2021-10-15T17:55:37Z</time>
      </trkpt>
      <trkpt lat="41.188841" lon="-4.660662">
        <ele>731.791</ele>
        <time>2021-10-15T17:55:38Z</time>
      </trkpt>
      <trkpt lat="41.188153" lon="-4.660504">
        <ele>731.066</ele>
        <time>2021-10-15T17:55:40Z</time>
      </trkpt>
      <trkpt lat="41.187464" lon="-4.660340">
        <ele>731.216</ele>
        <time>2021-10-15T17:55:42Z</time>
      </trkpt>
      <trkpt lat="41.186771" lon="-4.660171">
        <ele>731.276</ele>
        <time>2021-10-15T17:55:44Z</time>
      </trkpt>
      <trkpt lat="41.186090" lon="-4.660006">
        <ele>731.713</ele>
        <time>2021-10-15T17:55:46Z</time>
      </trkpt>
      <trkpt lat="41.185753" lon="-4.659925">
        <ele>731.408</ele>
        <time>2021-10-15T17:55:47Z</time>
      </trkpt>
      <trkpt lat="41.185090" lon="-4.659767">
        <ele>731.889</ele>
        <time>2021-10-15T17:55:49Z</time>
      </trkpt>
      <trkpt lat="41.184762" lon="-4.659682">
        <ele>731.557</ele>
        <time>2021-10-15T17:55:50Z</time>
      </trkpt>
      <trkpt lat="41.184440" lon="-4.659600">
        <ele>732.185</ele>
        <time>2021-10-15T17:55:51Z</time>
      </trkpt>
      <trkpt lat="41.183823" lon="-4.659445">
        <ele>734.139</ele>
        <time>2021-10-15T17:55:53Z</time>
      </trkpt>
      <trkpt lat="41.183234" lon="-4.659299">
        <ele>735.414</ele>
        <time>2021-10-15T17:55:55Z</time>
      </trkpt>
      <trkpt lat="41.182655" lon="-4.659161">
        <ele>736.652</ele>
        <time>2021-10-15T17:55:57Z</time>
      </trkpt>
      <trkpt lat="41.182370" lon="-4.659090">
        <ele>736.815</ele>
        <time>2021-10-15T17:55:58Z</time>
      </trkpt>
      <trkpt lat="41.182089" lon="-4.659020">
        <ele>738.310</ele>
        <time>2021-10-15T17:55:59Z</time>
      </trkpt>
      <trkpt lat="41.181553" lon="-4.658895">
        <ele>738.624</ele>
        <time>2021-10-15T17:56:01Z</time>
      </trkpt>
      <trkpt lat="41.181292" lon="-4.658835">
        <ele>739.004</ele>
        <time>2021-10-15T17:56:02Z</time>
      </trkpt>
      <trkpt lat="41.180810" lon="-4.658729">
        <ele>740.814</ele>
        <time>2021-10-15T17:56:04Z</time>
      </trkpt>
      <trkpt lat="41.180329" lon="-4.658612">
        <ele>740.608</ele>
        <time>2021-10-15T17:56:06Z</time>
      </trkpt>
      <trkpt lat="41.180087" lon="-4.658553">
        <ele>740.160</ele>
        <time>2021-10-15T17:56:07Z</time>
      </trkpt>
      <trkpt lat="41.179604" lon="-4.658435">
        <ele>739.888</ele>
        <time>2021-10-15T17:56:09Z</time>
      </trkpt>
      <trkpt lat="41.179362" lon="-4.658370">
        <ele>739.646</ele>
        <time>2021-10-15T17:56:10Z</time>
      </trkpt>
      <trkpt lat="41.179113" lon="-4.658305">
        <ele>739.340</ele>
        <time>2021-10-15T17:56:11Z</time>
      </trkpt>
      <trkpt lat="41.178601" lon="-4.658175">
        <ele>737.965</ele>
        <time>2021-10-15T17:56:13Z</time>
      </trkpt>
      <trkpt lat="41.178082" lon="-4.658050">
        <ele>736.893</ele>
        <time>2021-10-15T17:56:15Z</time>
      </trkpt>
      <trkpt lat="41.177820" lon="-4.657989">
        <ele>736.636</ele>
        <time>2021-10-15T17:56:16Z</time>
      </trkpt>
      <trkpt lat="41.177304" lon="-4.657869">
        <ele>735.461</ele>
        <time>2021-10-15T17:56:18Z</time>
      </trkpt>
      <trkpt lat="41.176801" lon="-4.657741">
        <ele>735.486</ele>
        <time>2021-10-15T17:56:20Z</time>
      </trkpt>
      <trkpt lat="41.176550" lon="-4.657678">
        <ele>735.560</ele>
        <time>2021-10-15T17:56:21Z</time>
      </trkpt>
      <trkpt lat="41.176065" lon="-4.657558">
        <ele>735.726</ele>
        <time>2021-10-15T17:56:23Z</time>
      </trkpt>
      <trkpt lat="41.175590" lon="-4.657446">
        <ele>735.308</ele>
        <time>2021-10-15T17:56:25Z</time>
      </trkpt>
      <trkpt lat="41.175343" lon="-4.657389">
        <ele>735.476</ele>
        <time>2021-10-15T17:56:26Z</time>
      </trkpt>
      <trkpt lat="41.174881" lon="-4.657281">
        <ele>736.054</ele>
        <time>2021-10-15T17:56:28Z</time>
      </trkpt>
      <trkpt lat="41.174403" lon="-4.657159">
        <ele>736.022</ele>
        <time>2021-10-15T17:56:30Z</time>
      </trkpt>
      <trkpt lat="41.174156" lon="-4.657102">
        <ele>735.766</ele>
        <time>2021-10-15T17:56:31Z</time>
      </trkpt>
      <trkpt lat="41.173896" lon="-4.657042">
        <ele>735.811</ele>
        <time>2021-10-15T17:56:32Z</time>
      </trkpt>
      <trkpt lat="41.173387" lon="-4.656922">
        <ele>735.129</ele>
        <time>2021-10-15T17:56:34Z</time>
      </trkpt>
      <trkpt lat="41.173122" lon="-4.656854">
        <ele>734.982</ele>
        <time>2021-10-15T17:56:35Z</time>
      </trkpt>
      <trkpt lat="41.172852" lon="-4.656786">
        <ele>735.117</ele>
        <time>2021-10-15T17:56:36Z</time>
      </trkpt>
      <trkpt lat="41.172579" lon="-4.656723">
        <ele>735.072</ele>
        <time>2021-10-15T17:56:37Z</time>
      </trkpt>
      <trkpt lat="41.172037" lon="-4.656597">
        <ele>734.113</ele>
        <time>2021-10-15T17:56:39Z</time>
      </trkpt>
      <trkpt lat="41.171529" lon="-4.656473">
        <ele>734.814</ele>
        <time>2021-10-15T17:56:41Z</time>
      </trkpt>
      <trkpt lat="41.171041" lon="-4.656352">
        <ele>735.008</ele>
        <time>2021-10-15T17:56:43Z</time>
      </trkpt>
      <trkpt lat="41.170568" lon="-4.656235">
        <ele>734.885</ele>
        <time>2021-10-15T17:56:45Z</time>
      </trkpt>
      <trkpt lat="41.170333" lon="-4.656176">
        <ele>734.713</ele>
        <time>2021-10-15T17:56:46Z</time>
      </trkpt>
      <trkpt lat="41.169858" lon="-4.656057">
        <ele>734.241</ele>
        <time>2021-10-15T17:56:48Z</time>
      </trkpt>
      <trkpt lat="41.169613" lon="-4.655997">
        <ele>735.065</ele>
        <time>2021-10-15T17:56:49Z</time>
      </trkpt>
      <trkpt lat="41.169130" lon="-4.655882">
        <ele>734.680</ele>
        <time>2021-10-15T17:56:51Z</time>
      </trkpt>
      <trkpt lat="41.168662" lon="-4.655765">
        <ele>735.158</ele>
        <time>2021-10-15T17:56:53Z</time>
      </trkpt>
      <trkpt lat="41.168203" lon="-4.655647">
        <ele>735.741</ele>
        <time>2021-10-15T17:56:55Z</time>
      </trkpt>
      <trkpt lat="41.167961" lon="-4.655585">
        <ele>736.236</ele>
        <time>2021-10-15T17:56:56Z</time>
      </trkpt>
      <trkpt lat="41.167507" lon="-4.655480">
        <ele>736.747</ele>
        <time>2021-10-15T17:56:58Z</time>
      </trkpt>
      <trkpt lat="41.167033" lon="-4.655368">
        <ele>737.829</ele>
        <time>2021-10-15T17:57:00Z</time>
      </trkpt>
      <trkpt lat="41.166793" lon="-4.655313">
        <ele>737.621</ele>
        <time>2021-10-15T17:57:01Z</time>
      </trkpt>
      <trkpt lat="41.166548" lon="-4.655262">
        <ele>736.608</ele>
        <time>2021-10-15T17:57:02Z</time>
      </trkpt>
      <trkpt lat="41.166072" lon="-4.655159">
        <ele>737.152</ele>
        <time>2021-10-15T17:57:04Z</time>
      </trkpt>
      <trkpt lat="41.165579" lon="-4.655036">
        <ele>737.630</ele>
        <time>2021-10-15T17:57:06Z</time>
      </trkpt>
      <trkpt lat="41.165083" lon="-4.654914">
        <ele>738.078</ele>
        <time>2021-10-15T17:57:08Z</time>
      </trkpt>
      <trkpt lat="41.164830" lon="-4.654858">
        <ele>737.392</ele>
        <time>2021-10-15T17:57:09Z</time>
      </trkpt>
      <trkpt lat="41.164324" lon="-4.654744">
        <ele>737.487</ele>
        <time>2021-10-15T17:57:11Z</time>
      </trkpt>
      <trkpt lat="41.164066" lon="-4.654685">
        <ele>737.165</ele>
        <time>2021-10-15T17:57:12Z</time>
      </trkpt>
      <trkpt lat="41.163563" lon="-4.654562">
        <ele>736.918</ele>
        <time>2021-10-15T17:57:14Z</time>
      </trkpt>
      <trkpt lat="41.163311" lon="-4.654499">
        <ele>736.743</ele>
        <time>2021-10-15T17:57:15Z</time>
      </trkpt>
      <trkpt lat="41.162809" lon="-4.654374">
        <ele>737.415</ele>
        <time>2021-10-15T17:57:17Z</time>
      </trkpt>
      <trkpt lat="41.162558" lon="-4.654312">
        <ele>737.765</ele>
        <time>2021-10-15T17:57:18Z</time>
      </trkpt>
      <trkpt lat="41.162064" lon="-4.654191">
        <ele>738.211</ele>
        <time>2021-10-15T17:57:20Z</time>
      </trkpt>
      <trkpt lat="41.161581" lon="-4.654073">
        <ele>737.708</ele>
        <time>2021-10-15T17:57:22Z</time>
      </trkpt>
      <trkpt lat="41.161099" lon="-4.653952">
        <ele>738.339</ele>
        <time>2021-10-15T17:57:24Z</time>
      </trkpt>
      <trkpt lat="41.160850" lon="-4.653888">
        <ele>737.947</ele>
        <time>2021-10-15T17:57:25Z</time>
      </trkpt>
      <trkpt lat="41.160588" lon="-4.653822">
        <ele>737.715</ele>
        <time>2021-10-15T17:57:26Z</time>
      </trkpt>
      <trkpt lat="41.160081" lon="-4.653706">
        <ele>738.269</ele>
        <time>2021-10-15T17:57:28Z</time>
      </trkpt>
      <trkpt lat="41.159551" lon="-4.653585">
        <ele>738.164</ele>
        <time>2021-10-15T17:57:30Z</time>
      </trkpt>
      <trkpt lat="41.159284" lon="-4.653524">
        <ele>738.012</ele>
        <time>2021-10-15T17:57:31Z</time>
      </trkpt>
      <trkpt lat="41.159005" lon="-4.653460">
        <ele>738.085</ele>
        <time>2021-10-15T17:57:32Z</time>
      </trkpt>
      <trkpt lat="41.158480" lon="-4.653336">
        <ele>737.660</ele>
        <time>2021-10-15T17:57:34Z</time>
      </trkpt>
      <trkpt lat="41.157933" lon="-4.653195">
        <ele>737.592</ele>
        <time>2021-10-15T17:57:36Z</time>
      </trkpt>
      <trkpt lat="41.157372" lon="-4.653060">
        <ele>737.373</ele>
        <time>2021-10-15T17:57:38Z</time>
      </trkpt>
      <trkpt lat="41.156801" lon="-4.652920">
        <ele>737.020</ele>
        <time>2021-10-15T17:57:40Z</time>
      </trkpt>
      <trkpt lat="41.156508" lon="-4.652849">
        <ele>736.808</ele>
        <time>2021-10-15T17:57:41Z</time>
      </trkpt>
      <trkpt lat="41.156208" lon="-4.652776">
        <ele>737.217</ele>
        <time>2021-10-15T17:57:42Z</time>
      </trkpt>
      <trkpt lat="41.155902" lon="-4.652703">
        <ele>737.955</ele>
        <time>2021-10-15T17:57:43Z</time>
      </trkpt>
      <trkpt lat="41.155287" lon="-4.652566">
        <ele>737.143</ele>
        <time>2021-10-15T17:57:45Z</time>
      </trkpt>
      <trkpt lat="41.154662" lon="-4.652412">
        <ele>737.917</ele>
        <time>2021-10-15T17:57:47Z</time>
      </trkpt>
      <trkpt lat="41.154344" lon="-4.652334">
        <ele>737.772</ele>
        <time>2021-10-15T17:57:48Z</time>
      </trkpt>
      <trkpt lat="41.153711" lon="-4.652180">
        <ele>738.220</ele>
        <time>2021-10-15T17:57:50Z</time>
      </trkpt>
      <trkpt lat="41.153389" lon="-4.652102">
        <ele>738.693</ele>
        <time>2021-10-15T17:57:51Z</time>
      </trkpt>
      <trkpt lat="41.152759" lon="-4.651950">
        <ele>738.458</ele>
        <time>2021-10-15T17:57:53Z</time>
      </trkpt>
      <trkpt lat="41.152438" lon="-4.651879">
        <ele>738.566</ele>
        <time>2021-10-15T17:57:54Z</time>
      </trkpt>
      <trkpt lat="41.151793" lon="-4.651734">
        <ele>738.729</ele>
        <time>2021-10-15T17:57:56Z</time>
      </trkpt>
      <trkpt lat="41.151185" lon="-4.651585">
        <ele>738.621</ele>
        <time>2021-10-15T17:57:58Z</time>
      </trkpt>
      <trkpt lat="41.150580" lon="-4.651430">
        <ele>739.508</ele>
        <time>2021-10-15T17:58:00Z</time>
      </trkpt>
      <trkpt lat="41.150280" lon="-4.651354">
        <ele>739.224</ele>
        <time>2021-10-15T17:58:01Z</time>
      </trkpt>
      <trkpt lat="41.149976" lon="-4.651278">
        <ele>739.642</ele>
        <time>2021-10-15T17:58:02Z</time>
      </trkpt>
      <trkpt lat="41.149402" lon="-4.651148">
        <ele>740.510</ele>
        <time>2021-10-15T17:58:04Z</time>
      </trkpt>
      <trkpt lat="41.149108" lon="-4.651081">
        <ele>740.994</ele>
        <time>2021-10-15T17:58:05Z</time>
      </trkpt>
      <trkpt lat="41.148529" lon="-4.650949">
        <ele>739.949</ele>
        <time>2021-10-15T17:58:07Z</time>
      </trkpt>
      <trkpt lat="41.148239" lon="-4.650878">
        <ele>740.267</ele>
        <time>2021-10-15T17:58:08Z</time>
      </trkpt>
      <trkpt lat="41.147655" lon="-4.650739">
        <ele>740.550</ele>
        <time>2021-10-15T17:58:10Z</time>
      </trkpt>
      <trkpt lat="41.147361" lon="-4.650665">
        <ele>740.885</ele>
        <time>2021-10-15T17:58:11Z</time>
      </trkpt>
      <trkpt lat="41.146775" lon="-4.650515">
        <ele>741.436</ele>
        <time>2021-10-15T17:58:13Z</time>
      </trkpt>
      <trkpt lat="41.146183" lon="-4.650369">
        <ele>741.817</ele>
        <time>2021-10-15T17:58:15Z</time>
      </trkpt>
      <trkpt lat="41.145590" lon="-4.650231">
        <ele>741.718</ele>
        <time>2021-10-15T17:58:17Z</time>
      </trkpt>
      <trkpt lat="41.145291" lon="-4.650167">
        <ele>741.908</ele>
        <time>2021-10-15T17:58:18Z</time>
      </trkpt>
      <trkpt lat="41.144692" lon="-4.650037">
        <ele>742.741</ele>
        <time>2021-10-15T17:58:20Z</time>
      </trkpt>
      <trkpt lat="41.144101" lon="-4.649896">
        <ele>742.569</ele>
        <time>2021-10-15T17:58:22Z</time>
      </trkpt>
      <trkpt lat="41.143805" lon="-4.649816">
        <ele>742.317</ele>
        <time>2021-10-15T17:58:23Z</time>
      </trkpt>
      <trkpt lat="41.143205" lon="-4.649659">
        <ele>742.991</ele>
        <time>2021-10-15T17:58:25Z</time>
      </trkpt>
      <trkpt lat="41.142903" lon="-4.649581">
        <ele>743.136</ele>
        <time>2021-10-15T17:58:26Z</time>
      </trkpt>
      <trkpt lat="41.142315" lon="-4.649442">
        <ele>743.584</ele>
        <time>2021-10-15T17:58:28Z</time>
      </trkpt>
      <trkpt lat="41.142019" lon="-4.649371">
        <ele>744.417</ele>
        <time>2021-10-15T17:58:29Z</time>
      </trkpt>
      <trkpt lat="41.141435" lon="-4.649230">
        <ele>744.822</ele>
        <time>2021-10-15T17:58:31Z</time>
      </trkpt>
      <trkpt lat="41.141129" lon="-4.649156">
        <ele>745.917</ele>
        <time>2021-10-15T17:58:32Z</time>
      </trkpt>
      <trkpt lat="41.140556" lon="-4.649021">
        <ele>746.087</ele>
        <time>2021-10-15T17:58:34Z</time>
      </trkpt>
      <trkpt lat="41.140261" lon="-4.648951">
        <ele>746.215</ele>
        <time>2021-10-15T17:58:35Z</time>
      </trkpt>
      <trkpt lat="41.139662" lon="-4.648809">
        <ele>746.108</ele>
        <time>2021-10-15T17:58:37Z</time>
      </trkpt>
      <trkpt lat="41.139359" lon="-4.648736">
        <ele>745.699</ele>
        <time>2021-10-15T17:58:38Z</time>
      </trkpt>
      <trkpt lat="41.138757" lon="-4.648591">
        <ele>746.147</ele>
        <time>2021-10-15T17:58:40Z</time>
      </trkpt>
      <trkpt lat="41.138449" lon="-4.648517">
        <ele>745.855</ele>
        <time>2021-10-15T17:58:41Z</time>
      </trkpt>
      <trkpt lat="41.138142" lon="-4.648443">
        <ele>745.559</ele>
        <time>2021-10-15T17:58:42Z</time>
      </trkpt>
      <trkpt lat="41.137528" lon="-4.648296">
        <ele>745.694</ele>
        <time>2021-10-15T17:58:44Z</time>
      </trkpt>
      <trkpt lat="41.137218" lon="-4.648222">
        <ele>745.722</ele>
        <time>2021-10-15T17:58:45Z</time>
      </trkpt>
      <trkpt lat="41.136610" lon="-4.648076">
        <ele>745.335</ele>
        <time>2021-10-15T17:58:47Z</time>
      </trkpt>
      <trkpt lat="41.136311" lon="-4.648004">
        <ele>745.590</ele>
        <time>2021-10-15T17:58:48Z</time>
      </trkpt>
      <trkpt lat="41.135734" lon="-4.647868">
        <ele>745.944</ele>
        <time>2021-10-15T17:58:50Z</time>
      </trkpt>
      <trkpt lat="41.135452" lon="-4.647802">
        <ele>745.405</ele>
        <time>2021-10-15T17:58:51Z</time>
      </trkpt>
      <trkpt lat="41.135172" lon="-4.647736">
        <ele>745.415</ele>
        <time>2021-10-15T17:58:52Z</time>
      </trkpt>
      <trkpt lat="41.134895" lon="-4.647670">
        <ele>746.108</ele>
        <time>2021-10-15T17:58:53Z</time>
      </trkpt>
      <trkpt lat="41.134617" lon="-4.647604">
        <ele>746.752</ele>
        <time>2021-10-15T17:58:54Z</time>
      </trkpt>
      <trkpt lat="41.134053" lon="-4.647473">
        <ele>747.690</ele>
        <time>2021-10-15T17:58:56Z</time>
      </trkpt>
      <trkpt lat="41.133508" lon="-4.647340">
        <ele>747.058</ele>
        <time>2021-10-15T17:58:58Z</time>
      </trkpt>
      <trkpt lat="41.132955" lon="-4.647205">
        <ele>747.652</ele>
        <time>2021-10-15T17:59:00Z</time>
      </trkpt>
      <trkpt lat="41.132401" lon="-4.647071">
        <ele>748.587</ele>
        <time>2021-10-15T17:59:02Z</time>
      </trkpt>
      <trkpt lat="41.131882" lon="-4.646942">
        <ele>748.715</ele>
        <time>2021-10-15T17:59:04Z</time>
      </trkpt>
      <trkpt lat="41.131624" lon="-4.646877">
        <ele>748.818</ele>
        <time>2021-10-15T17:59:05Z</time>
      </trkpt>
      <trkpt lat="41.131112" lon="-4.646751">
        <ele>749.993</ele>
        <time>2021-10-15T17:59:07Z</time>
      </trkpt>
      <trkpt lat="41.130605" lon="-4.646624">
        <ele>749.927</ele>
        <time>2021-10-15T17:59:09Z</time>
      </trkpt>
      <trkpt lat="41.130345" lon="-4.646559">
        <ele>749.868</ele>
        <time>2021-10-15T17:59:10Z</time>
      </trkpt>
      <trkpt lat="41.130081" lon="-4.646498">
        <ele>749.414</ele>
        <time>2021-10-15T17:59:11Z</time>
      </trkpt>
      <trkpt lat="41.129553" lon="-4.646375">
        <ele>750.508</ele>
        <time>2021-10-15T17:59:13Z</time>
      </trkpt>
      <trkpt lat="41.129276" lon="-4.646306">
        <ele>750.570</ele>
        <time>2021-10-15T17:59:14Z</time>
      </trkpt>
      <trkpt lat="41.128713" lon="-4.646172">
        <ele>750.288</ele>
        <time>2021-10-15T17:59:16Z</time>
      </trkpt>
      <trkpt lat="41.128423" lon="-4.646100">
        <ele>750.286</ele>
        <time>2021-10-15T17:59:17Z</time>
      </trkpt>
      <trkpt lat="41.128129" lon="-4.646027">
        <ele>750.170</ele>
        <time>2021-10-15T17:59:18Z</time>
      </trkpt>
      <trkpt lat="41.127538" lon="-4.645879">
        <ele>750.185</ele>
        <time>2021-10-15T17:59:20Z</time>
      </trkpt>
      <trkpt lat="41.126963" lon="-4.645736">
        <ele>749.473</ele>
        <time>2021-10-15T17:59:22Z</time>
      </trkpt>
      <trkpt lat="41.126680" lon="-4.645671">
        <ele>749.546</ele>
        <time>2021-10-15T17:59:23Z</time>
      </trkpt>
      <trkpt lat="41.126128" lon="-4.645545">
        <ele>749.811</ele>
        <time>2021-10-15T17:59:25Z</time>
      </trkpt>
      <trkpt lat="41.125842" lon="-4.645479">
        <ele>750.594</ele>
        <time>2021-10-15T17:59:26Z</time>
      </trkpt>
      <trkpt lat="41.125306" lon="-4.645359">
        <ele>752.057</ele>
        <time>2021-10-15T17:59:28Z</time>
      </trkpt>
      <trkpt lat="41.124752" lon="-4.645235">
        <ele>753.622</ele>
        <time>2021-10-15T17:59:30Z</time>
      </trkpt>
      <trkpt lat="41.124197" lon="-4.645106">
        <ele>755.108</ele>
        <time>2021-10-15T17:59:32Z</time>
      </trkpt>
      <trkpt lat="41.123685" lon="-4.644976">
        <ele>757.977</ele>
        <time>2021-10-15T17:59:34Z</time>
      </trkpt>
      <trkpt lat="41.123428" lon="-4.644907">
        <ele>758.915</ele>
        <time>2021-10-15T17:59:35Z</time>
      </trkpt>
      <trkpt lat="41.123175" lon="-4.644839">
        <ele>759.623</ele>
        <time>2021-10-15T17:59:36Z</time>
      </trkpt>
      <trkpt lat="41.122678" lon="-4.644704">
        <ele>762.037</ele>
        <time>2021-10-15T17:59:38Z</time>
      </trkpt>
      <trkpt lat="41.122163" lon="-4.644563">
        <ele>764.992</ele>
        <time>2021-10-15T17:59:40Z</time>
      </trkpt>
      <trkpt lat="41.121896" lon="-4.644480">
        <ele>766.580</ele>
        <time>2021-10-15T17:59:41Z</time>
      </trkpt>
      <trkpt lat="41.121629" lon="-4.644383">
        <ele>767.283</ele>
        <time>2021-10-15T17:59:42Z</time>
      </trkpt>
      <trkpt lat="41.121089" lon="-4.644158">
        <ele>770.168</ele>
        <time>2021-10-15T17:59:44Z</time>
      </trkpt>
      <trkpt lat="41.120819" lon="-4.644031">
        <ele>771.337</ele>
        <time>2021-10-15T17:59:45Z</time>
      </trkpt>
      <trkpt lat="41.120553" lon="-4.643898">
        <ele>772.549</ele>
        <time>2021-10-15T17:59:46Z</time>
      </trkpt>
      <trkpt lat="41.120036" lon="-4.643607">
        <ele>775.213</ele>
        <time>2021-10-15T17:59:48Z</time>
      </trkpt>
      <trkpt lat="41.119556" lon="-4.643300">
        <ele>777.108</ele>
        <time>2021-10-15T17:59:50Z</time>
      </trkpt>
      <trkpt lat="41.119338" lon="-4.643143">
        <ele>779.011</ele>
        <time>2021-10-15T17:59:51Z</time>
      </trkpt>
      <trkpt lat="41.119117" lon="-4.642983">
        <ele>780.459</ele>
        <time>2021-10-15T17:59:52Z</time>
      </trkpt>
      <trkpt lat="41.118894" lon="-4.642810">
        <ele>781.767</ele>
        <time>2021-10-15T17:59:53Z</time>
      </trkpt>
      <trkpt lat="41.118452" lon="-4.642435">
        <ele>783.981</ele>
        <time>2021-10-15T17:59:55Z</time>
      </trkpt>
      <trkpt lat="41.118221" lon="-4.642219">
        <ele>784.656</ele>
        <time>2021-10-15T17:59:56Z</time>
      </trkpt>
      <trkpt lat="41.117785" lon="-4.641785">
        <ele>788.054</ele>
        <time>2021-10-15T17:59:58Z</time>
      </trkpt>
      <trkpt lat="41.117331" lon="-4.641327">
        <ele>789.357</ele>
        <time>2021-10-15T18:00:00Z</time>
      </trkpt>
      <trkpt lat="41.117104" lon="-4.641107">
        <ele>790.652</ele>
        <time>2021-10-15T18:00:01Z</time>
      </trkpt>
      <trkpt lat="41.116882" lon="-4.640892">
        <ele>791.916</ele>
        <time>2021-10-15T18:00:02Z</time>
      </trkpt>
      <trkpt lat="41.116494" lon="-4.640519">
        <ele>793.576</ele>
        <time>2021-10-15T18:00:04Z</time>
      </trkpt>
      <trkpt lat="41.116309" lon="-4.640348">
        <ele>793.613</ele>
        <time>2021-10-15T18:00:05Z</time>
      </trkpt>
      <trkpt lat="41.116132" lon="-4.640187">
        <ele>794.208</ele>
        <time>2021-10-15T18:00:06Z</time>
      </trkpt>
      <trkpt lat="41.115961" lon="-4.640037">
        <ele>794.799</ele>
        <time>2021-10-15T18:00:07Z</time>
      </trkpt>
      <trkpt lat="41.115630" lon="-4.639756">
        <ele>794.887</ele>
        <time>2021-10-15T18:00:09Z</time>
      </trkpt>
      <trkpt lat="41.115465" lon="-4.639628">
        <ele>795.425</ele>
        <time>2021-10-15T18:00:10Z</time>
      </trkpt>
      <trkpt lat="41.115166" lon="-4.639409">
        <ele>795.179</ele>
        <time>2021-10-15T18:00:12Z</time>
      </trkpt>
      <trkpt lat="41.115027" lon="-4.639307">
        <ele>795.774</ele>
        <time>2021-10-15T18:00:13Z</time>
      </trkpt>
      <trkpt lat="41.114759" lon="-4.639102">
        <ele>796.072</ele>
        <time>2021-10-15T18:00:15Z</time>
      </trkpt>
      <trkpt lat="41.114472" lon="-4.638905">
        <ele>796.095</ele>
        <time>2021-10-15T18:00:17Z</time>
      </trkpt>
      <trkpt lat="41.114321" lon="-4.638827">
        <ele>796.180</ele>
        <time>2021-10-15T18:00:18Z</time>
      </trkpt>
      <trkpt lat="41.114169" lon="-4.638768">
        <ele>797.029</ele>
        <time>2021-10-15T18:00:19Z</time>
      </trkpt>
      <trkpt lat="41.113856" lon="-4.638726">
        <ele>798.400</ele>
        <time>2021-10-15T18:00:21Z</time>
      </trkpt>
      <trkpt lat="41.113543" lon="-4.638799">
        <ele>800.220</ele>
        <time>2021-10-15T18:00:23Z</time>
      </trkpt>
      <trkpt lat="41.113408" lon="-4.638873">
        <ele>801.508</ele>
        <time>2021-10-15T18:00:24Z</time>
      </trkpt>
      <trkpt lat="41.113184" lon="-4.639076">
        <ele>802.670</ele>
        <time>2021-10-15T18:00:26Z</time>
      </trkpt>
      <trkpt lat="41.113059" lon="-4.639212">
        <ele>803.018</ele>
        <time>2021-10-15T18:00:28Z</time>
      </trkpt>
      <trkpt lat="41.112988" lon="-4.639279">
        <ele>804.786</ele>
        <time>2021-10-15T18:00:30Z</time>
      </trkpt>
      <trkpt lat="41.112951" lon="-4.639313">
        <ele>804.820</ele>
        <time>2021-10-15T18:00:31Z</time>
      </trkpt>
      <trkpt lat="41.112909" lon="-4.639349">
        <ele>804.835</ele>
        <time>2021-10-15T18:00:32Z</time>
      </trkpt>
      <trkpt lat="41.112806" lon="-4.639451">
        <ele>804.653</ele>
        <time>2021-10-15T18:00:34Z</time>
      </trkpt>
      <trkpt lat="41.112661" lon="-4.639619">
        <ele>803.486</ele>
        <time>2021-10-15T18:00:36Z</time>
      </trkpt>
      <trkpt lat="41.112594" lon="-4.639737">
        <ele>801.991</ele>
        <time>2021-10-15T18:00:37Z</time>
      </trkpt>
      <trkpt lat="41.112480" lon="-4.639992">
        <ele>799.685</ele>
        <time>2021-10-15T18:00:39Z</time>
      </trkpt>
      <trkpt lat="41.112365" lon="-4.640221">
        <ele>798.189</ele>
        <time>2021-10-15T18:00:41Z</time>
      </trkpt>
      <trkpt lat="41.112234" lon="-4.640467">
        <ele>797.617</ele>
        <time>2021-10-15T18:00:43Z</time>
      </trkpt>
      <trkpt lat="41.112157" lon="-4.640611">
        <ele>797.208</ele>
        <time>2021-10-15T18:00:44Z</time>
      </trkpt>
      <trkpt lat="41.112016" lon="-4.640878">
        <ele>797.226</ele>
        <time>2021-10-15T18:00:46Z</time>
      </trkpt>
      <trkpt lat="41.111897" lon="-4.641109">
        <ele>796.834</ele>
        <time>2021-10-15T18:00:48Z</time>
      </trkpt>
      <trkpt lat="41.111845" lon="-4.641210">
        <ele>796.642</ele>
        <time>2021-10-15T18:00:49Z</time>
      </trkpt>
      <trkpt lat="41.111795" lon="-4.641302">
        <ele>796.626</ele>
        <time>2021-10-15T18:00:50Z</time>
      </trkpt>
      <trkpt lat="41.111745" lon="-4.641392">
        <ele>796.981</ele>
        <time>2021-10-15T18:00:51Z</time>
      </trkpt>
      <trkpt lat="41.111642" lon="-4.641578">
        <ele>797.069</ele>
        <time>2021-10-15T18:00:53Z</time>
      </trkpt>
      <trkpt lat="41.111549" lon="-4.641748">
        <ele>797.162</ele>
        <time>2021-10-15T18:00:55Z</time>
      </trkpt>
      <trkpt lat="41.111502" lon="-4.641825">
        <ele>797.147</ele>
        <time>2021-10-15T18:00:56Z</time>
      </trkpt>
      <trkpt lat="41.111394" lon="-4.641984">
        <ele>796.929</ele>
        <time>2021-10-15T18:00:58Z</time>
      </trkpt>
      <trkpt lat="41.111239" lon="-4.642161">
        <ele>796.300</ele>
        <time>2021-10-15T18:01:00Z</time>
      </trkpt>
      <trkpt lat="41.111154" lon="-4.642239">
        <ele>796.020</ele>
        <time>2021-10-15T18:01:01Z</time>
      </trkpt>
      <trkpt lat="41.111070" lon="-4.642312">
        <ele>795.908</ele>
        <time>2021-10-15T18:01:02Z</time>
      </trkpt>
      <trkpt lat="41.110902" lon="-4.642468">
        <ele>796.980</ele>
        <time>2021-10-15T18:01:04Z</time>
      </trkpt>
      <trkpt lat="41.110802" lon="-4.642562">
        <ele>796.948</ele>
        <time>2021-10-15T18:01:05Z</time>
      </trkpt>
      <trkpt lat="41.110684" lon="-4.642664">
        <ele>796.976</ele>
        <time>2021-10-15T18:01:06Z</time>
      </trkpt>
      <trkpt lat="41.110558" lon="-4.642773">
        <ele>796.870</ele>
        <time>2021-10-15T18:01:07Z</time>
      </trkpt>
      <trkpt lat="41.110316" lon="-4.643017">
        <ele>798.075</ele>
        <time>2021-10-15T18:01:09Z</time>
      </trkpt>
      <trkpt lat="41.110199" lon="-4.643148">
        <ele>798.193</ele>
        <time>2021-10-15T18:01:10Z</time>
      </trkpt>
      <trkpt lat="41.109952" lon="-4.643405">
        <ele>798.466</ele>
        <time>2021-10-15T18:01:12Z</time>
      </trkpt>
      <trkpt lat="41.109822" lon="-4.643535">
        <ele>798.511</ele>
        <time>2021-10-15T18:01:13Z</time>
      </trkpt>
      <trkpt lat="41.109558" lon="-4.643790">
        <ele>798.178</ele>
        <time>2021-10-15T18:01:15Z</time>
      </trkpt>
      <trkpt lat="41.109425" lon="-4.643915">
        <ele>798.333</ele>
        <time>2021-10-15T18:01:16Z</time>
      </trkpt>
      <trkpt lat="41.109138" lon="-4.644130">
        <ele>798.826</ele>
        <time>2021-10-15T18:01:18Z</time>
      </trkpt>
      <trkpt lat="41.108969" lon="-4.644223">
        <ele>799.108</ele>
        <time>2021-10-15T18:01:19Z</time>
      </trkpt>
      <trkpt lat="41.108582" lon="-4.644405">
        <ele>799.435</ele>
        <time>2021-10-15T18:01:21Z</time>
      </trkpt>
      <trkpt lat="41.108174" lon="-4.644591">
        <ele>800.013</ele>
        <time>2021-10-15T18:01:23Z</time>
      </trkpt>
      <trkpt lat="41.107982" lon="-4.644673">
        <ele>800.081</ele>
        <time>2021-10-15T18:01:24Z</time>
      </trkpt>
      <trkpt lat="41.107577" lon="-4.644779">
        <ele>800.155</ele>
        <time>2021-10-15T18:01:26Z</time>
      </trkpt>
      <trkpt lat="41.107160" lon="-4.644772">
        <ele>799.530</ele>
        <time>2021-10-15T18:01:28Z</time>
      </trkpt>
      <trkpt lat="41.106934" lon="-4.644752">
        <ele>799.228</ele>
        <time>2021-10-15T18:01:29Z</time>
      </trkpt>
      <trkpt lat="41.106704" lon="-4.644735">
        <ele>799.581</ele>
        <time>2021-10-15T18:01:30Z</time>
      </trkpt>
      <trkpt lat="41.106240" lon="-4.644711">
        <ele>798.296</ele>
        <time>2021-10-15T18:01:32Z</time>
      </trkpt>
      <trkpt lat="41.105776" lon="-4.644683">
        <ele>796.997</ele>
        <time>2021-10-15T18:01:34Z</time>
      </trkpt>
      <trkpt lat="41.105306" lon="-4.644657">
        <ele>796.823</ele>
        <time>2021-10-15T18:01:36Z</time>
      </trkpt>
      <trkpt lat="41.104877" lon="-4.644665">
        <ele>799.725</ele>
        <time>2021-10-15T18:01:38Z</time>
      </trkpt>
      <trkpt lat="41.104476" lon="-4.644733">
        <ele>801.508</ele>
        <time>2021-10-15T18:01:40Z</time>
      </trkpt>
      <trkpt lat="41.104071" lon="-4.644829">
        <ele>802.147</ele>
        <time>2021-10-15T18:01:42Z</time>
      </trkpt>
      <trkpt lat="41.103641" lon="-4.644920">
        <ele>803.025</ele>
        <time>2021-10-15T18:01:44Z</time>
      </trkpt>
      <trkpt lat="41.103209" lon="-4.645025">
        <ele>803.443</ele>
        <time>2021-10-15T18:01:46Z</time>
      </trkpt>
      <trkpt lat="41.102994" lon="-4.645087">
        <ele>803.477</ele>
        <time>2021-10-15T18:01:47Z</time>
      </trkpt>
      <trkpt lat="41.102565" lon="-4.645249">
        <ele>803.182</ele>
        <time>2021-10-15T18:01:49Z</time>
      </trkpt>
      <trkpt lat="41.102351" lon="-4.645349">
        <ele>802.540</ele>
        <time>2021-10-15T18:01:50Z</time>
      </trkpt>
      <trkpt lat="41.102137" lon="-4.645466">
        <ele>803.133</ele>
        <time>2021-10-15T18:01:51Z</time>
      </trkpt>
      <trkpt lat="41.101706" lon="-4.645724">
        <ele>804.048</ele>
        <time>2021-10-15T18:01:53Z</time>
      </trkpt>
      <trkpt lat="41.101263" lon="-4.645994">
        <ele>803.651</ele>
        <time>2021-10-15T18:01:55Z</time>
      </trkpt>
      <trkpt lat="41.101035" lon="-4.646131">
        <ele>803.901</ele>
        <time>2021-10-15T18:01:56Z</time>
      </trkpt>
      <trkpt lat="41.100613" lon="-4.646382">
        <ele>803.311</ele>
        <time>2021-10-15T18:01:58Z</time>
      </trkpt>
      <trkpt lat="41.100407" lon="-4.646500">
        <ele>803.708</ele>
        <time>2021-10-15T18:01:59Z</time>
      </trkpt>
      <trkpt lat="41.100004" lon="-4.646734">
        <ele>803.263</ele>
        <time>2021-10-15T18:02:01Z</time>
      </trkpt>
      <trkpt lat="41.099796" lon="-4.646860">
        <ele>803.711</ele>
        <time>2021-10-15T18:02:02Z</time>
      </trkpt>
      <trkpt lat="41.099401" lon="-4.647099">
        <ele>803.929</ele>
        <time>2021-10-15T18:02:04Z</time>
      </trkpt>
      <trkpt lat="41.098996" lon="-4.647345">
        <ele>803.763</ele>
        <time>2021-10-15T18:02:06Z</time>
      </trkpt>
      <trkpt lat="41.098790" lon="-4.647469">
        <ele>803.358</ele>
        <time>2021-10-15T18:02:07Z</time>
      </trkpt>
      <trkpt lat="41.098378" lon="-4.647715">
        <ele>803.166</ele>
        <time>2021-10-15T18:02:09Z</time>
      </trkpt>
      <trkpt lat="41.098170" lon="-4.647838">
        <ele>802.729</ele>
        <time>2021-10-15T18:02:10Z</time>
      </trkpt>
      <trkpt lat="41.097960" lon="-4.647962">
        <ele>802.434</ele>
        <time>2021-10-15T18:02:11Z</time>
      </trkpt>
      <trkpt lat="41.097539" lon="-4.648212">
        <ele>801.467</ele>
        <time>2021-10-15T18:02:13Z</time>
      </trkpt>
      <trkpt lat="41.097326" lon="-4.648337">
        <ele>801.281</ele>
        <time>2021-10-15T18:02:14Z</time>
      </trkpt>
      <trkpt lat="41.097109" lon="-4.648460">
        <ele>801.019</ele>
        <time>2021-10-15T18:02:15Z</time>
      </trkpt>
      <trkpt lat="41.096696" lon="-4.648701">
        <ele>801.408</ele>
        <time>2021-10-15T18:02:17Z</time>
      </trkpt>
      <trkpt lat="41.096361" lon="-4.648906">
        <ele>801.224</ele>
        <time>2021-10-15T18:02:19Z</time>
      </trkpt>
      <trkpt lat="41.096080" lon="-4.649075">
        <ele>801.272</ele>
        <time>2021-10-15T18:02:21Z</time>
      </trkpt>
      <trkpt lat="41.095841" lon="-4.649217">
        <ele>801.480</ele>
        <time>2021-10-15T18:02:23Z</time>
      </trkpt>
      <trkpt lat="41.095730" lon="-4.649284">
        <ele>801.644</ele>
        <time>2021-10-15T18:02:24Z</time>
      </trkpt>
      <trkpt lat="41.095506" lon="-4.649430">
        <ele>801.559</ele>
        <time>2021-10-15T18:02:26Z</time>
      </trkpt>
      <trkpt lat="41.095258" lon="-4.649598">
        <ele>801.757</ele>
        <time>2021-10-15T18:02:28Z</time>
      </trkpt>
      <trkpt lat="41.094972" lon="-4.649804">
        <ele>802.880</ele>
        <time>2021-10-15T18:02:30Z</time>
      </trkpt>
      <trkpt lat="41.094821" lon="-4.649914">
        <ele>803.065</ele>
        <time>2021-10-15T18:02:31Z</time>
      </trkpt>
      <trkpt lat="41.094675" lon="-4.650021">
        <ele>803.342</ele>
        <time>2021-10-15T18:02:32Z</time>
      </trkpt>
      <trkpt lat="41.094417" lon="-4.650219">
        <ele>803.522</ele>
        <time>2021-10-15T18:02:34Z</time>
      </trkpt>
      <trkpt lat="41.094293" lon="-4.650314">
        <ele>803.614</ele>
        <time>2021-10-15T18:02:35Z</time>
      </trkpt>
      <trkpt lat="41.094060" lon="-4.650492">
        <ele>803.008</ele>
        <time>2021-10-15T18:02:37Z</time>
      </trkpt>
      <trkpt lat="41.093842" lon="-4.650650">
        <ele>803.112</ele>
        <time>2021-10-15T18:02:39Z</time>
      </trkpt>
      <trkpt lat="41.093613" lon="-4.650781">
        <ele>801.610</ele>
        <time>2021-10-15T18:02:41Z</time>
      </trkpt>
      <trkpt lat="41.093490" lon="-4.650830">
        <ele>801.068</ele>
        <time>2021-10-15T18:02:42Z</time>
      </trkpt>
      <trkpt lat="41.093364" lon="-4.650872">
        <ele>801.012</ele>
        <time>2021-10-15T18:02:43Z</time>
      </trkpt>
      <trkpt lat="41.093113" lon="-4.650951">
        <ele>801.227</ele>
        <time>2021-10-15T18:02:45Z</time>
      </trkpt>
      <trkpt lat="41.092868" lon="-4.651040">
        <ele>802.575</ele>
        <time>2021-10-15T18:02:47Z</time>
      </trkpt>
      <trkpt lat="41.092752" lon="-4.651084">
        <ele>802.528</ele>
        <time>2021-10-15T18:02:48Z</time>
      </trkpt>
      <trkpt lat="41.092637" lon="-4.651128">
        <ele>804.253</ele>
        <time>2021-10-15T18:02:49Z</time>
      </trkpt>
      <trkpt lat="41.092411" lon="-4.651250">
        <ele>805.257</ele>
        <time>2021-10-15T18:02:51Z</time>
      </trkpt>
      <trkpt lat="41.092301" lon="-4.651348">
        <ele>805.200</ele>
        <time>2021-10-15T18:02:52Z</time>
      </trkpt>
      <trkpt lat="41.092073" lon="-4.651604">
        <ele>804.820</ele>
        <time>2021-10-15T18:02:54Z</time>
      </trkpt>
      <trkpt lat="41.091948" lon="-4.651755">
        <ele>804.108</ele>
        <time>2021-10-15T18:02:55Z</time>
      </trkpt>
      <trkpt lat="41.091809" lon="-4.651921">
        <ele>804.183</ele>
        <time>2021-10-15T18:02:56Z</time>
      </trkpt>
      <trkpt lat="41.091516" lon="-4.652270">
        <ele>802.711</ele>
        <time>2021-10-15T18:02:58Z</time>
      </trkpt>
      <trkpt lat="41.091186" lon="-4.652658">
        <ele>801.719</ele>
        <time>2021-10-15T18:03:00Z</time>
      </trkpt>
      <trkpt lat="41.090821" lon="-4.653086">
        <ele>799.583</ele>
        <time>2021-10-15T18:03:02Z</time>
      </trkpt>
      <trkpt lat="41.090442" lon="-4.653528">
        <ele>799.628</ele>
        <time>2021-10-15T18:03:04Z</time>
      </trkpt>
      <trkpt lat="41.090241" lon="-4.653760">
        <ele>798.976</ele>
        <time>2021-10-15T18:03:05Z</time>
      </trkpt>
      <trkpt lat="41.089846" lon="-4.654214">
        <ele>799.939</ele>
        <time>2021-10-15T18:03:07Z</time>
      </trkpt>
      <trkpt lat="41.089656" lon="-4.654437">
        <ele>799.664</ele>
        <time>2021-10-15T18:03:08Z</time>
      </trkpt>
      <trkpt lat="41.089287" lon="-4.654869">
        <ele>799.397</ele>
        <time>2021-10-15T18:03:10Z</time>
      </trkpt>
      <trkpt lat="41.088927" lon="-4.655292">
        <ele>798.923</ele>
        <time>2021-10-15T18:03:12Z</time>
      </trkpt>
      <trkpt lat="41.088749" lon="-4.655501">
        <ele>799.025</ele>
        <time>2021-10-15T18:03:13Z</time>
      </trkpt>
      <trkpt lat="41.088414" lon="-4.655893">
        <ele>799.308</ele>
        <time>2021-10-15T18:03:15Z</time>
      </trkpt>
      <trkpt lat="41.088103" lon="-4.656253">
        <ele>799.827</ele>
        <time>2021-10-15T18:03:17Z</time>
      </trkpt>
      <trkpt lat="41.087796" lon="-4.656610">
        <ele>799.225</ele>
        <time>2021-10-15T18:03:19Z</time>
      </trkpt>
      <trkpt lat="41.087490" lon="-4.656973">
        <ele>798.853</ele>
        <time>2021-10-15T18:03:21Z</time>
      </trkpt>
      <trkpt lat="41.087333" lon="-4.657156">
        <ele>798.947</ele>
        <time>2021-10-15T18:03:22Z</time>
      </trkpt>
      <trkpt lat="41.087175" lon="-4.657339">
        <ele>798.822</ele>
        <time>2021-10-15T18:03:23Z</time>
      </trkpt>
      <trkpt lat="41.086849" lon="-4.657717">
        <ele>798.690</ele>
        <time>2021-10-15T18:03:25Z</time>
      </trkpt>
      <trkpt lat="41.086676" lon="-4.657917">
        <ele>798.473</ele>
        <time>2021-10-15T18:03:26Z</time>
      </trkpt>
      <trkpt lat="41.086335" lon="-4.658315">
        <ele>797.228</ele>
        <time>2021-10-15T18:03:28Z</time>
      </trkpt>
      <trkpt lat="41.085974" lon="-4.658727">
        <ele>795.934</ele>
        <time>2021-10-15T18:03:30Z</time>
      </trkpt>
      <trkpt lat="41.085788" lon="-4.658938">
        <ele>795.055</ele>
        <time>2021-10-15T18:03:31Z</time>
      </trkpt>
      <trkpt lat="41.085604" lon="-4.659152">
        <ele>794.410</ele>
        <time>2021-10-15T18:03:32Z</time>
      </trkpt>
      <trkpt lat="41.085252" lon="-4.659563">
        <ele>793.108</ele>
        <time>2021-10-15T18:03:34Z</time>
      </trkpt>
      <trkpt lat="41.085074" lon="-4.659771">
        <ele>792.661</ele>
        <time>2021-10-15T18:03:35Z</time>
      </trkpt>
      <trkpt lat="41.084899" lon="-4.659976">
        <ele>791.519</ele>
        <time>2021-10-15T18:03:36Z</time>
      </trkpt>
      <trkpt lat="41.084723" lon="-4.660182">
        <ele>791.187</ele>
        <time>2021-10-15T18:03:37Z</time>
      </trkpt>
      <trkpt lat="41.084363" lon="-4.660595">
        <ele>789.931</ele>
        <time>2021-10-15T18:03:39Z</time>
      </trkpt>
      <trkpt lat="41.083989" lon="-4.661029">
        <ele>788.486</ele>
        <time>2021-10-15T18:03:41Z</time>
      </trkpt>
      <trkpt lat="41.083795" lon="-4.661256">
        <ele>788.064</ele>
        <time>2021-10-15T18:03:42Z</time>
      </trkpt>
      <trkpt lat="41.083601" lon="-4.661483">
        <ele>788.467</ele>
        <time>2021-10-15T18:03:43Z</time>
      </trkpt>
      <trkpt lat="41.083406" lon="-4.661712">
        <ele>788.312</ele>
        <time>2021-10-15T18:03:44Z</time>
      </trkpt>
      <trkpt lat="41.083010" lon="-4.662185">
        <ele>787.693</ele>
        <time>2021-10-15T18:03:46Z</time>
      </trkpt>
      <trkpt lat="41.082807" lon="-4.662415">
        <ele>787.765</ele>
        <time>2021-10-15T18:03:47Z</time>
      </trkpt>
      <trkpt lat="41.082418" lon="-4.662867">
        <ele>786.821</ele>
        <time>2021-10-15T18:03:49Z</time>
      </trkpt>
      <trkpt lat="41.082243" lon="-4.663069">
        <ele>786.708</ele>
        <time>2021-10-15T18:03:50Z</time>
      </trkpt>
      <trkpt lat="41.082069" lon="-4.663270">
        <ele>786.757</ele>
        <time>2021-10-15T18:03:51Z</time>
      </trkpt>
      <trkpt lat="41.081714" lon="-4.663677">
        <ele>786.175</ele>
        <time>2021-10-15T18:03:53Z</time>
      </trkpt>
      <trkpt lat="41.081354" lon="-4.664099">
        <ele>785.923</ele>
        <time>2021-10-15T18:03:55Z</time>
      </trkpt>
      <trkpt lat="41.081168" lon="-4.664318">
        <ele>785.627</ele>
        <time>2021-10-15T18:03:56Z</time>
      </trkpt>
      <trkpt lat="41.080796" lon="-4.664752">
        <ele>785.142</ele>
        <time>2021-10-15T18:03:58Z</time>
      </trkpt>
      <trkpt lat="41.080403" lon="-4.665196">
        <ele>784.720</ele>
        <time>2021-10-15T18:04:00Z</time>
      </trkpt>
      <trkpt lat="41.080201" lon="-4.665427">
        <ele>784.383</ele>
        <time>2021-10-15T18:04:01Z</time>
      </trkpt>
      <trkpt lat="41.079985" lon="-4.665682">
        <ele>783.928</ele>
        <time>2021-10-15T18:04:02Z</time>
      </trkpt>
      <trkpt lat="41.079555" lon="-4.666193">
        <ele>783.799</ele>
        <time>2021-10-15T18:04:04Z</time>
      </trkpt>
      <trkpt lat="41.079330" lon="-4.666457">
        <ele>783.507</ele>
        <time>2021-10-15T18:04:05Z</time>
      </trkpt>
      <trkpt lat="41.078871" lon="-4.666983">
        <ele>783.127</ele>
        <time>2021-10-15T18:04:07Z</time>
      </trkpt>
      <trkpt lat="41.078404" lon="-4.667499">
        <ele>783.108</ele>
        <time>2021-10-15T18:04:09Z</time>
      </trkpt>
      <trkpt lat="41.078170" lon="-4.667765">
        <ele>782.937</ele>
        <time>2021-10-15T18:04:10Z</time>
      </trkpt>
      <trkpt lat="41.077939" lon="-4.668035">
        <ele>782.725</ele>
        <time>2021-10-15T18:04:11Z</time>
      </trkpt>
      <trkpt lat="41.077491" lon="-4.668566">
        <ele>782.053</ele>
        <time>2021-10-15T18:04:13Z</time>
      </trkpt>
      <trkpt lat="41.077068" lon="-4.669088">
        <ele>782.067</ele>
        <time>2021-10-15T18:04:15Z</time>
      </trkpt>
      <trkpt lat="41.076857" lon="-4.669337">
        <ele>781.892</ele>
        <time>2021-10-15T18:04:16Z</time>
      </trkpt>
      <trkpt lat="41.076648" lon="-4.669577">
        <ele>781.420</ele>
        <time>2021-10-15T18:04:17Z</time>
      </trkpt>
      <trkpt lat="41.076244" lon="-4.670051">
        <ele>781.323</ele>
        <time>2021-10-15T18:04:19Z</time>
      </trkpt>
      <trkpt lat="41.076043" lon="-4.670286">
        <ele>781.128</ele>
        <time>2021-10-15T18:04:20Z</time>
      </trkpt>
      <trkpt lat="41.075843" lon="-4.670520">
        <ele>781.185</ele>
        <time>2021-10-15T18:04:21Z</time>
      </trkpt>
      <trkpt lat="41.075447" lon="-4.670979">
        <ele>780.789</ele>
        <time>2021-10-15T18:04:23Z</time>
      </trkpt>
      <trkpt lat="41.075050" lon="-4.671438">
        <ele>780.817</ele>
        <time>2021-10-15T18:04:25Z</time>
      </trkpt>
      <trkpt lat="41.074848" lon="-4.671673">
        <ele>780.908</ele>
        <time>2021-10-15T18:04:26Z</time>
      </trkpt>
      <trkpt lat="41.074458" lon="-4.672128">
        <ele>781.326</ele>
        <time>2021-10-15T18:04:28Z</time>
      </trkpt>
      <trkpt lat="41.074060" lon="-4.672592">
        <ele>780.444</ele>
        <time>2021-10-15T18:04:30Z</time>
      </trkpt>
      <trkpt lat="41.073858" lon="-4.672828">
        <ele>780.442</ele>
        <time>2021-10-15T18:04:31Z</time>
      </trkpt>
      <trkpt lat="41.073652" lon="-4.673068">
        <ele>780.916</ele>
        <time>2021-10-15T18:04:32Z</time>
      </trkpt>
      <trkpt lat="41.073255" lon="-4.673532">
        <ele>781.051</ele>
        <time>2021-10-15T18:04:34Z</time>
      </trkpt>
      <trkpt lat="41.073054" lon="-4.673768">
        <ele>780.969</ele>
        <time>2021-10-15T18:04:35Z</time>
      </trkpt>
      <trkpt lat="41.072663" lon="-4.674223">
        <ele>781.212</ele>
        <time>2021-10-15T18:04:37Z</time>
      </trkpt>
      <trkpt lat="41.072280" lon="-4.674660">
        <ele>780.897</ele>
        <time>2021-10-15T18:04:39Z</time>
      </trkpt>
      <trkpt lat="41.071907" lon="-4.675100">
        <ele>780.576</ele>
        <time>2021-10-15T18:04:41Z</time>
      </trkpt>
      <trkpt lat="41.071721" lon="-4.675316">
        <ele>781.090</ele>
        <time>2021-10-15T18:04:42Z</time>
      </trkpt>
      <trkpt lat="41.071354" lon="-4.675743">
        <ele>780.519</ele>
        <time>2021-10-15T18:04:44Z</time>
      </trkpt>
      <trkpt lat="41.070984" lon="-4.676173">
        <ele>780.708</ele>
        <time>2021-10-15T18:04:46Z</time>
      </trkpt>
      <trkpt lat="41.070616" lon="-4.676601">
        <ele>780.635</ele>
        <time>2021-10-15T18:04:48Z</time>
      </trkpt>
      <trkpt lat="41.070428" lon="-4.676817">
        <ele>780.543</ele>
        <time>2021-10-15T18:04:49Z</time>
      </trkpt>
      <trkpt lat="41.070240" lon="-4.677035">
        <ele>780.881</ele>
        <time>2021-10-15T18:04:50Z</time>
      </trkpt>
      <trkpt lat="41.069866" lon="-4.677469">
        <ele>780.875</ele>
        <time>2021-10-15T18:04:52Z</time>
      </trkpt>
      <trkpt lat="41.069676" lon="-4.677690">
        <ele>780.610</ele>
        <time>2021-10-15T18:04:53Z</time>
      </trkpt>
      <trkpt lat="41.069486" lon="-4.677911">
        <ele>780.628</ele>
        <time>2021-10-15T18:04:54Z</time>
      </trkpt>
      <trkpt lat="41.069101" lon="-4.678359">
        <ele>780.091</ele>
        <time>2021-10-15T18:04:56Z</time>
      </trkpt>
      <trkpt lat="41.068725" lon="-4.678797">
        <ele>779.416</ele>
        <time>2021-10-15T18:04:58Z</time>
      </trkpt>
      <trkpt lat="41.068533" lon="-4.679022">
        <ele>779.672</ele>
        <time>2021-10-15T18:04:59Z</time>
      </trkpt>
      <trkpt lat="41.068339" lon="-4.679247">
        <ele>779.513</ele>
        <time>2021-10-15T18:05:00Z</time>
      </trkpt>
      <trkpt lat="41.067947" lon="-4.679700">
        <ele>779.314</ele>
        <time>2021-10-15T18:05:02Z</time>
      </trkpt>
      <trkpt lat="41.067564" lon="-4.680145">
        <ele>779.308</ele>
        <time>2021-10-15T18:05:04Z</time>
      </trkpt>
      <trkpt lat="41.067367" lon="-4.680375">
        <ele>779.635</ele>
        <time>2021-10-15T18:05:05Z</time>
      </trkpt>
      <trkpt lat="41.066977" lon="-4.680831">
        <ele>779.323</ele>
        <time>2021-10-15T18:05:07Z</time>
      </trkpt>
      <trkpt lat="41.066782" lon="-4.681058">
        <ele>779.521</ele>
        <time>2021-10-15T18:05:08Z</time>
      </trkpt>
      <trkpt lat="41.066591" lon="-4.681278">
        <ele>779.215</ele>
        <time>2021-10-15T18:05:09Z</time>
      </trkpt>
      <trkpt lat="41.066243" lon="-4.681673">
        <ele>779.230</ele>
        <time>2021-10-15T18:05:11Z</time>
      </trkpt>
      <trkpt lat="41.065942" lon="-4.682025">
        <ele>778.638</ele>
        <time>2021-10-15T18:05:13Z</time>
      </trkpt>
      <trkpt lat="41.065679" lon="-4.682343">
        <ele>779.151</ele>
        <time>2021-10-15T18:05:15Z</time>
      </trkpt>
      <trkpt lat="41.065557" lon="-4.682488">
        <ele>778.626</ele>
        <time>2021-10-15T18:05:16Z</time>
      </trkpt>
      <trkpt lat="41.065325" lon="-4.682758">
        <ele>778.221</ele>
        <time>2021-10-15T18:05:18Z</time>
      </trkpt>
      <trkpt lat="41.065204" lon="-4.682894">
        <ele>777.641</ele>
        <time>2021-10-15T18:05:19Z</time>
      </trkpt>
      <trkpt lat="41.064955" lon="-4.683179">
        <ele>777.805</ele>
        <time>2021-10-15T18:05:21Z</time>
      </trkpt>
      <trkpt lat="41.064696" lon="-4.683478">
        <ele>777.208</ele>
        <time>2021-10-15T18:05:23Z</time>
      </trkpt>
      <trkpt lat="41.064425" lon="-4.683795">
        <ele>776.880</ele>
        <time>2021-10-15T18:05:25Z</time>
      </trkpt>
      <trkpt lat="41.064284" lon="-4.683963">
        <ele>777.368</ele>
        <time>2021-10-15T18:05:26Z</time>
      </trkpt>
      <trkpt lat="41.064009" lon="-4.684279">
        <ele>776.536</ele>
        <time>2021-10-15T18:05:28Z</time>
      </trkpt>
      <trkpt lat="41.063870" lon="-4.684440">
        <ele>776.770</ele>
        <time>2021-10-15T18:05:29Z</time>
      </trkpt>
      <trkpt lat="41.063615" lon="-4.684748">
        <ele>776.685</ele>
        <time>2021-10-15T18:05:31Z</time>
      </trkpt>
      <trkpt lat="41.063494" lon="-4.684894">
        <ele>777.043</ele>
        <time>2021-10-15T18:05:32Z</time>
      </trkpt>
      <trkpt lat="41.063266" lon="-4.685177">
        <ele>776.766</ele>
        <time>2021-10-15T18:05:34Z</time>
      </trkpt>
      <trkpt lat="41.063145" lon="-4.685328">
        <ele>776.661</ele>
        <time>2021-10-15T18:05:35Z</time>
      </trkpt>
      <trkpt lat="41.062891" lon="-4.685638">
        <ele>776.023</ele>
        <time>2021-10-15T18:05:37Z</time>
      </trkpt>
      <trkpt lat="41.062756" lon="-4.685800">
        <ele>776.283</ele>
        <time>2021-10-15T18:05:38Z</time>
      </trkpt>
      <trkpt lat="41.062485" lon="-4.686139">
        <ele>775.711</ele>
        <time>2021-10-15T18:05:40Z</time>
      </trkpt>
      <trkpt lat="41.062201" lon="-4.686494">
        <ele>775.108</ele>
        <time>2021-10-15T18:05:42Z</time>
      </trkpt>
      <trkpt lat="41.061903" lon="-4.686860">
        <ele>775.070</ele>
        <time>2021-10-15T18:05:44Z</time>
      </trkpt>
      <trkpt lat="41.061747" lon="-4.687050">
        <ele>774.468</ele>
        <time>2021-10-15T18:05:45Z</time>
      </trkpt>
      <trkpt lat="41.061434" lon="-4.687431">
        <ele>775.446</ele>
        <time>2021-10-15T18:05:47Z</time>
      </trkpt>
      <trkpt lat="41.061115" lon="-4.687831">
        <ele>775.130</ele>
        <time>2021-10-15T18:05:49Z</time>
      </trkpt>
      <trkpt lat="41.060790" lon="-4.688237">
        <ele>774.865</ele>
        <time>2021-10-15T18:05:51Z</time>
      </trkpt>
      <trkpt lat="41.060457" lon="-4.688651">
        <ele>774.493</ele>
        <time>2021-10-15T18:05:53Z</time>
      </trkpt>
      <trkpt lat="41.060287" lon="-4.688864">
        <ele>774.436</ele>
        <time>2021-10-15T18:05:54Z</time>
      </trkpt>
      <trkpt lat="41.059936" lon="-4.689304">
        <ele>774.331</ele>
        <time>2021-10-15T18:05:56Z</time>
      </trkpt>
      <trkpt lat="41.059589" lon="-4.689735">
        <ele>774.051</ele>
        <time>2021-10-15T18:05:58Z</time>
      </trkpt>
      <trkpt lat="41.059231" lon="-4.690168">
        <ele>773.601</ele>
        <time>2021-10-15T18:06:00Z</time>
      </trkpt>
      <trkpt lat="41.059054" lon="-4.690386">
        <ele>772.811</ele>
        <time>2021-10-15T18:06:01Z</time>
      </trkpt>
      <trkpt lat="41.058884" lon="-4.690607">
        <ele>771.408</ele>
        <time>2021-10-15T18:06:02Z</time>
      </trkpt>
      <trkpt lat="41.058540" lon="-4.691032">
        <ele>768.663</ele>
        <time>2021-10-15T18:06:04Z</time>
      </trkpt>
      <trkpt lat="41.058364" lon="-4.691244">
        <ele>769.241</ele>
        <time>2021-10-15T18:06:05Z</time>
      </trkpt>
      <trkpt lat="41.058053" lon="-4.691628">
        <ele>768.669</ele>
        <time>2021-10-15T18:06:07Z</time>
      </trkpt>
      <trkpt lat="41.057790" lon="-4.691946">
        <ele>768.823</ele>
        <time>2021-10-15T18:06:09Z</time>
      </trkpt>
      <trkpt lat="41.057665" lon="-4.692097">
        <ele>768.658</ele>
        <time>2021-10-15T18:06:10Z</time>
      </trkpt>
      <trkpt lat="41.057540" lon="-4.692254">
        <ele>768.666</ele>
        <time>2021-10-15T18:06:11Z</time>
      </trkpt>
      <trkpt lat="41.057282" lon="-4.692578">
        <ele>768.889</ele>
        <time>2021-10-15T18:06:13Z</time>
      </trkpt>
      <trkpt lat="41.057020" lon="-4.692914">
        <ele>770.064</ele>
        <time>2021-10-15T18:06:15Z</time>
      </trkpt>
      <trkpt lat="41.056882" lon="-4.693084">
        <ele>770.099</ele>
        <time>2021-10-15T18:06:16Z</time>
      </trkpt>
      <trkpt lat="41.056603" lon="-4.693421">
        <ele>769.707</ele>
        <time>2021-10-15T18:06:18Z</time>
      </trkpt>
      <trkpt lat="41.056324" lon="-4.693771">
        <ele>769.127</ele>
        <time>2021-10-15T18:06:20Z</time>
      </trkpt>
      <trkpt lat="41.056179" lon="-4.693947">
        <ele>769.308</ele>
        <time>2021-10-15T18:06:21Z</time>
      </trkpt>
      <trkpt lat="41.055890" lon="-4.694304">
        <ele>770.357</ele>
        <time>2021-10-15T18:06:23Z</time>
      </trkpt>
      <trkpt lat="41.055611" lon="-4.694654">
        <ele>770.315</ele>
        <time>2021-10-15T18:06:25Z</time>
      </trkpt>
      <trkpt lat="41.055470" lon="-4.694830">
        <ele>770.293</ele>
        <time>2021-10-15T18:06:26Z</time>
      </trkpt>
      <trkpt lat="41.055200" lon="-4.695156">
        <ele>769.877</ele>
        <time>2021-10-15T18:06:28Z</time>
      </trkpt>
      <trkpt lat="41.055068" lon="-4.695320">
        <ele>769.812</ele>
        <time>2021-10-15T18:06:29Z</time>
      </trkpt>
      <trkpt lat="41.054813" lon="-4.695640">
        <ele>770.220</ele>
        <time>2021-10-15T18:06:31Z</time>
      </trkpt>
      <trkpt lat="41.054684" lon="-4.695803">
        <ele>770.323</ele>
        <time>2021-10-15T18:06:32Z</time>
      </trkpt>
      <trkpt lat="41.054423" lon="-4.696127">
        <ele>769.898</ele>
        <time>2021-10-15T18:06:34Z</time>
      </trkpt>
      <trkpt lat="41.054285" lon="-4.696292">
        <ele>770.221</ele>
        <time>2021-10-15T18:06:35Z</time>
      </trkpt>
      <trkpt lat="41.054148" lon="-4.696459">
        <ele>769.841</ele>
        <time>2021-10-15T18:06:36Z</time>
      </trkpt>
      <trkpt lat="41.053886" lon="-4.696795">
        <ele>769.605</ele>
        <time>2021-10-15T18:06:38Z</time>
      </trkpt>
      <trkpt lat="41.053760" lon="-4.696957">
        <ele>769.408</ele>
        <time>2021-10-15T18:06:39Z</time>
      </trkpt>
      <trkpt lat="41.053519" lon="-4.697254">
        <ele>768.710</ele>
        <time>2021-10-15T18:06:41Z</time>
      </trkpt>
      <trkpt lat="41.053407" lon="-4.697393">
        <ele>768.548</ele>
        <time>2021-10-15T18:06:42Z</time>
      </trkpt>
      <trkpt lat="41.053190" lon="-4.697656">
        <ele>770.036</ele>
        <time>2021-10-15T18:06:44Z</time>
      </trkpt>
      <trkpt lat="41.052979" lon="-4.697915">
        <ele>769.670</ele>
        <time>2021-10-15T18:06:46Z</time>
      </trkpt>
      <trkpt lat="41.052877" lon="-4.698044">
        <ele>769.765</ele>
        <time>2021-10-15T18:06:47Z</time>
      </trkpt>
      <trkpt lat="41.052677" lon="-4.698292">
        <ele>769.853</ele>
        <time>2021-10-15T18:06:49Z</time>
      </trkpt>
      <trkpt lat="41.052581" lon="-4.698408">
        <ele>769.966</ele>
        <time>2021-10-15T18:06:50Z</time>
      </trkpt>
      <trkpt lat="41.052493" lon="-4.698516">
        <ele>769.911</ele>
        <time>2021-10-15T18:06:51Z</time>
      </trkpt>
      <trkpt lat="41.052411" lon="-4.698618">
        <ele>769.916</ele>
        <time>2021-10-15T18:06:52Z</time>
      </trkpt>
      <trkpt lat="41.052260" lon="-4.698803">
        <ele>769.776</ele>
        <time>2021-10-15T18:06:54Z</time>
      </trkpt>
      <trkpt lat="41.052119" lon="-4.698963">
        <ele>769.313</ele>
        <time>2021-10-15T18:06:56Z</time>
      </trkpt>
      <trkpt lat="41.051996" lon="-4.699105">
        <ele>769.508</ele>
        <time>2021-10-15T18:06:58Z</time>
      </trkpt>
      <trkpt lat="41.051914" lon="-4.699224">
        <ele>770.329</ele>
        <time>2021-10-15T18:07:00Z</time>
      </trkpt>
      <trkpt lat="41.051886" lon="-4.699283">
        <ele>770.817</ele>
        <time>2021-10-15T18:07:05Z</time>
      </trkpt>
      <trkpt lat="41.051793" lon="-4.699405">
        <ele>770.985</ele>
        <time>2021-10-15T18:07:07Z</time>
      </trkpt>
      <trkpt lat="41.051663" lon="-4.699438">
        <ele>770.629</ele>
        <time>2021-10-15T18:07:09Z</time>
      </trkpt>
      <trkpt lat="41.051554" lon="-4.699343">
        <ele>770.464</ele>
        <time>2021-10-15T18:07:11Z</time>
      </trkpt>
      <trkpt lat="41.051486" lon="-4.699150">
        <ele>770.582</ele>
        <time>2021-10-15T18:07:13Z</time>
      </trkpt>
      <trkpt lat="41.051441" lon="-4.699043">
        <ele>770.845</ele>
        <time>2021-10-15T18:07:14Z</time>
      </trkpt>
      <trkpt lat="41.051312" lon="-4.698869">
        <ele>771.510</ele>
        <time>2021-10-15T18:07:16Z</time>
      </trkpt>
      <trkpt lat="41.051229" lon="-4.698798">
        <ele>772.063</ele>
        <time>2021-10-15T18:07:17Z</time>
      </trkpt>
      <trkpt lat="41.051055" lon="-4.698728">
        <ele>771.644</ele>
        <time>2021-10-15T18:07:19Z</time>
      </trkpt>
      <trkpt lat="41.050972" lon="-4.698737">
        <ele>771.618</ele>
        <time>2021-10-15T18:07:20Z</time>
      </trkpt>
      <trkpt lat="41.050892" lon="-4.698776">
        <ele>772.008</ele>
        <time>2021-10-15T18:07:21Z</time>
      </trkpt>
      <trkpt lat="41.050816" lon="-4.698848">
        <ele>772.594</ele>
        <time>2021-10-15T18:07:22Z</time>
      </trkpt>
      <trkpt lat="41.050739" lon="-4.698947">
        <ele>772.772</ele>
        <time>2021-10-15T18:07:23Z</time>
      </trkpt>
      <trkpt lat="41.050654" lon="-4.699069">
        <ele>773.280</ele>
        <time>2021-10-15T18:07:24Z</time>
      </trkpt>
      <trkpt lat="41.050568" lon="-4.699208">
        <ele>773.234</ele>
        <time>2021-10-15T18:07:25Z</time>
      </trkpt>
      <trkpt lat="41.050492" lon="-4.699359">
        <ele>774.289</ele>
        <time>2021-10-15T18:07:26Z</time>
      </trkpt>
      <trkpt lat="41.050403" lon="-4.699690">
        <ele>775.927</ele>
        <time>2021-10-15T18:07:28Z</time>
      </trkpt>
      <trkpt lat="41.050381" lon="-4.699872">
        <ele>776.830</ele>
        <time>2021-10-15T18:07:29Z</time>
      </trkpt>
      <trkpt lat="41.050367" lon="-4.700050">
        <ele>776.695</ele>
        <time>2021-10-15T18:07:30Z</time>
      </trkpt>
      <trkpt lat="41.050353" lon="-4.700217">
        <ele>776.426</ele>
        <time>2021-10-15T18:07:31Z</time>
      </trkpt>
      <trkpt lat="41.050340" lon="-4.700375">
        <ele>776.447</ele>
        <time>2021-10-15T18:07:32Z</time>
      </trkpt>
      <trkpt lat="41.050315" lon="-4.700626">
        <ele>776.011</ele>
        <time>2021-10-15T18:07:34Z</time>
      </trkpt>
      <trkpt lat="41.050302" lon="-4.700747">
        <ele>776.008</ele>
        <time>2021-10-15T18:07:35Z</time>
      </trkpt>
      <trkpt lat="41.050275" lon="-4.700974">
        <ele>775.290</ele>
        <time>2021-10-15T18:07:37Z</time>
      </trkpt>
      <trkpt lat="41.050256" lon="-4.701082">
        <ele>774.988</ele>
        <time>2021-10-15T18:07:38Z</time>
      </trkpt>
      <trkpt lat="41.050225" lon="-4.701299">
        <ele>773.746</ele>
        <time>2021-10-15T18:07:40Z</time>
      </trkpt>
      <trkpt lat="41.050223" lon="-4.701411">
        <ele>773.120</ele>
        <time>2021-10-15T18:07:41Z</time>
      </trkpt>
      <trkpt lat="41.050222" lon="-4.701631">
        <ele>771.195</ele>
        <time>2021-10-15T18:07:43Z</time>
      </trkpt>
      <trkpt lat="41.050189" lon="-4.701741">
        <ele>771.083</ele>
        <time>2021-10-15T18:07:44Z</time>
      </trkpt>
      <trkpt lat="41.050130" lon="-4.701843">
        <ele>771.086</ele>
        <time>2021-10-15T18:07:45Z</time>
      </trkpt>
      <trkpt lat="41.050049" lon="-4.701932">
        <ele>770.511</ele>
        <time>2021-10-15T18:07:46Z</time>
      </trkpt>
      <trkpt lat="41.049885" lon="-4.702129">
        <ele>769.174</ele>
        <time>2021-10-15T18:07:48Z</time>
      </trkpt>
      <trkpt lat="41.049816" lon="-4.702251">
        <ele>767.456</ele>
        <time>2021-10-15T18:07:49Z</time>
      </trkpt>
      <trkpt lat="41.049754" lon="-4.702383">
        <ele>766.521</ele>
        <time>2021-10-15T18:07:50Z</time>
      </trkpt>
      <trkpt lat="41.049696" lon="-4.702521">
        <ele>765.708</ele>
        <time>2021-10-15T18:07:51Z</time>
      </trkpt>
      <trkpt lat="41.049583" lon="-4.702801">
        <ele>762.945</ele>
        <time>2021-10-15T18:07:53Z</time>
      </trkpt>
      <trkpt lat="41.049526" lon="-4.702929">
        <ele>760.763</ele>
        <time>2021-10-15T18:07:54Z</time>
      </trkpt>
      <trkpt lat="41.049402" lon="-4.703184">
        <ele>759.591</ele>
        <time>2021-10-15T18:07:56Z</time>
      </trkpt>
      <trkpt lat="41.049280" lon="-4.703481">
        <ele>759.095</ele>
        <time>2021-10-15T18:07:58Z</time>
      </trkpt>
      <trkpt lat="41.049189" lon="-4.703797">
        <ele>759.110</ele>
        <time>2021-10-15T18:08:00Z</time>
      </trkpt>
      <trkpt lat="41.049165" lon="-4.703958">
        <ele>759.348</ele>
        <time>2021-10-15T18:08:01Z</time>
      </trkpt>
      <trkpt lat="41.049152" lon="-4.704125">
        <ele>759.581</ele>
        <time>2021-10-15T18:08:02Z</time>
      </trkpt>
      <trkpt lat="41.049157" lon="-4.704470">
        <ele>759.726</ele>
        <time>2021-10-15T18:08:04Z</time>
      </trkpt>
      <trkpt lat="41.049208" lon="-4.704841">
        <ele>758.964</ele>
        <time>2021-10-15T18:08:06Z</time>
      </trkpt>
      <trkpt lat="41.049264" lon="-4.705038">
        <ele>758.906</ele>
        <time>2021-10-15T18:08:07Z</time>
      </trkpt>
      <trkpt lat="41.049347" lon="-4.705234">
        <ele>758.516</ele>
        <time>2021-10-15T18:08:08Z</time>
      </trkpt>
      <trkpt lat="41.049449" lon="-4.705431">
        <ele>758.808</ele>
        <time>2021-10-15T18:08:09Z</time>
      </trkpt>
      <trkpt lat="41.049564" lon="-4.705632">
        <ele>758.484</ele>
        <time>2021-10-15T18:08:10Z</time>
      </trkpt>
      <trkpt lat="41.049690" lon="-4.705843">
        <ele>758.042</ele>
        <time>2021-10-15T18:08:11Z</time>
      </trkpt>
      <trkpt lat="41.049950" lon="-4.706289">
        <ele>758.180</ele>
        <time>2021-10-15T18:08:13Z</time>
      </trkpt>
      <trkpt lat="41.050210" lon="-4.706740">
        <ele>757.014</ele>
        <time>2021-10-15T18:08:15Z</time>
      </trkpt>
      <trkpt lat="41.050346" lon="-4.706961">
        <ele>756.569</ele>
        <time>2021-10-15T18:08:16Z</time>
      </trkpt>
      <trkpt lat="41.050493" lon="-4.707168">
        <ele>756.397</ele>
        <time>2021-10-15T18:08:17Z</time>
      </trkpt>
      <trkpt lat="41.050825" lon="-4.707526">
        <ele>757.340</ele>
        <time>2021-10-15T18:08:19Z</time>
      </trkpt>
      <trkpt lat="41.050998" lon="-4.707688">
        <ele>757.855</ele>
        <time>2021-10-15T18:08:20Z</time>
      </trkpt>
      <trkpt lat="41.051319" lon="-4.707985">
        <ele>760.721</ele>
        <time>2021-10-15T18:08:22Z</time>
      </trkpt>
      <trkpt lat="41.051607" lon="-4.708256">
        <ele>762.541</ele>
        <time>2021-10-15T18:08:24Z</time>
      </trkpt>
      <trkpt lat="41.051861" lon="-4.708499">
        <ele>763.805</ele>
        <time>2021-10-15T18:08:26Z</time>
      </trkpt>
      <trkpt lat="41.051975" lon="-4.708613">
        <ele>764.808</ele>
        <time>2021-10-15T18:08:27Z</time>
      </trkpt>
      <trkpt lat="41.052178" lon="-4.708823">
        <ele>765.590</ele>
        <time>2021-10-15T18:08:29Z</time>
      </trkpt>
      <trkpt lat="41.052358" lon="-4.709008">
        <ele>766.888</ele>
        <time>2021-10-15T18:08:31Z</time>
      </trkpt>
      <trkpt lat="41.052445" lon="-4.709097">
        <ele>767.566</ele>
        <time>2021-10-15T18:08:32Z</time>
      </trkpt>
      <trkpt lat="41.052590" lon="-4.709247">
        <ele>768.730</ele>
        <time>2021-10-15T18:08:34Z</time>
      </trkpt>
      <trkpt lat="41.052728" lon="-4.709389">
        <ele>769.325</ele>
        <time>2021-10-15T18:08:36Z</time>
      </trkpt>
      <trkpt lat="41.052805" lon="-4.709461">
        <ele>769.623</ele>
        <time>2021-10-15T18:08:37Z</time>
      </trkpt>
      <trkpt lat="41.052881" lon="-4.709537">
        <ele>769.636</ele>
        <time>2021-10-15T18:08:38Z</time>
      </trkpt>
      <trkpt lat="41.052952" lon="-4.709610">
        <ele>769.671</ele>
        <time>2021-10-15T18:08:39Z</time>
      </trkpt>
      <trkpt lat="41.053084" lon="-4.709750">
        <ele>769.828</ele>
        <time>2021-10-15T18:08:41Z</time>
      </trkpt>
      <trkpt lat="41.053228" lon="-4.709909">
        <ele>771.089</ele>
        <time>2021-10-15T18:08:43Z</time>
      </trkpt>
      <trkpt lat="41.053375" lon="-4.710087">
        <ele>771.117</ele>
        <time>2021-10-15T18:08:45Z</time>
      </trkpt>
      <trkpt lat="41.053445" lon="-4.710177">
        <ele>771.808</ele>
        <time>2021-10-15T18:08:46Z</time>
      </trkpt>
      <trkpt lat="41.053576" lon="-4.710351">
        <ele>772.170</ele>
        <time>2021-10-15T18:08:48Z</time>
      </trkpt>
      <trkpt lat="41.053701" lon="-4.710518">
        <ele>771.728</ele>
        <time>2021-10-15T18:08:50Z</time>
      </trkpt>
      <trkpt lat="41.053757" lon="-4.710600">
        <ele>771.866</ele>
        <time>2021-10-15T18:08:51Z</time>
      </trkpt>
      <trkpt lat="41.053810" lon="-4.710680">
        <ele>771.960</ele>
        <time>2021-10-15T18:08:52Z</time>
      </trkpt>
      <trkpt lat="41.053916" lon="-4.710845">
        <ele>772.085</ele>
        <time>2021-10-15T18:08:54Z</time>
      </trkpt>
      <trkpt lat="41.054025" lon="-4.711016">
        <ele>771.973</ele>
        <time>2021-10-15T18:08:56Z</time>
      </trkpt>
      <trkpt lat="41.054116" lon="-4.711167">
        <ele>771.926</ele>
        <time>2021-10-15T18:08:58Z</time>
      </trkpt>
      <trkpt lat="41.054160" lon="-4.711242">
        <ele>771.751</ele>
        <time>2021-10-15T18:08:59Z</time>
      </trkpt>
      <trkpt lat="41.054253" lon="-4.711396">
        <ele>771.322</ele>
        <time>2021-10-15T18:09:01Z</time>
      </trkpt>
      <trkpt lat="41.054305" lon="-4.711477">
        <ele>771.162</ele>
        <time>2021-10-15T18:09:02Z</time>
      </trkpt>
      <trkpt lat="41.054404" lon="-4.711628">
        <ele>770.308</ele>
        <time>2021-10-15T18:09:04Z</time>
      </trkpt>
      <trkpt lat="41.054453" lon="-4.711708">
        <ele>770.008</ele>
        <time>2021-10-15T18:09:05Z</time>
      </trkpt>
      <trkpt lat="41.054503" lon="-4.711792">
        <ele>769.920</ele>
        <time>2021-10-15T18:09:06Z</time>
      </trkpt>
      <trkpt lat="41.054608" lon="-4.711964">
        <ele>769.958</ele>
        <time>2021-10-15T18:09:08Z</time>
      </trkpt>
      <trkpt lat="41.054705" lon="-4.712129">
        <ele>770.186</ele>
        <time>2021-10-15T18:09:10Z</time>
      </trkpt>
      <trkpt lat="41.054753" lon="-4.712206">
        <ele>770.410</ele>
        <time>2021-10-15T18:09:11Z</time>
      </trkpt>
      <trkpt lat="41.054842" lon="-4.712337">
        <ele>771.055</ele>
        <time>2021-10-15T18:09:13Z</time>
      </trkpt>
      <trkpt lat="41.054883" lon="-4.712405">
        <ele>771.043</ele>
        <time>2021-10-15T18:09:14Z</time>
      </trkpt>
      <trkpt lat="41.054975" lon="-4.712550">
        <ele>771.096</ele>
        <time>2021-10-15T18:09:16Z</time>
      </trkpt>
      <trkpt lat="41.055022" lon="-4.712626">
        <ele>770.581</ele>
        <time>2021-10-15T18:09:17Z</time>
      </trkpt>
      <trkpt lat="41.055063" lon="-4.712696">
        <ele>770.446</ele>
        <time>2021-10-15T18:09:18Z</time>
      </trkpt>
      <trkpt lat="41.055144" lon="-4.712825">
        <ele>770.588</ele>
        <time>2021-10-15T18:09:20Z</time>
      </trkpt>
      <trkpt lat="41.055185" lon="-4.712892">
        <ele>770.616</ele>
        <time>2021-10-15T18:09:21Z</time>
      </trkpt>
      <trkpt lat="41.055257" lon="-4.713005">
        <ele>770.808</ele>
        <time>2021-10-15T18:09:23Z</time>
      </trkpt>
      <trkpt lat="41.055288" lon="-4.713050">
        <ele>770.842</ele>
        <time>2021-10-15T18:09:24Z</time>
      </trkpt>
      <trkpt lat="41.055353" lon="-4.713147">
        <ele>771.090</ele>
        <time>2021-10-15T18:09:26Z</time>
      </trkpt>
      <trkpt lat="41.055412" lon="-4.713246">
        <ele>771.328</ele>
        <time>2021-10-15T18:09:28Z</time>
      </trkpt>
      <trkpt lat="41.055444" lon="-4.713298">
        <ele>771.592</ele>
        <time>2021-10-15T18:09:29Z</time>
      </trkpt>
      <trkpt lat="41.055516" lon="-4.713383">
        <ele>771.487</ele>
        <time>2021-10-15T18:09:31Z</time>
      </trkpt>
      <trkpt lat="41.055557" lon="-4.713419">
        <ele>771.215</ele>
        <time>2021-10-15T18:09:32Z</time>
      </trkpt>
      <trkpt lat="41.055605" lon="-4.713470">
        <ele>771.038</ele>
        <time>2021-10-15T18:09:34Z</time>
      </trkpt>
      <trkpt lat="41.055645" lon="-4.713510">
        <ele>771.143</ele>
        <time>2021-10-15T18:09:45Z</time>
      </trkpt>
      <trkpt lat="41.055617" lon="-4.713561">
        <ele>787.027</ele>
        <time>2021-10-15T18:09:51Z</time>
      </trkpt>
      <trkpt lat="41.055558" lon="-4.713578">
        <ele>807.168</ele>
        <time>2021-10-15T18:09:53Z</time>
      </trkpt>
      <trkpt lat="41.055483" lon="-4.713601">
        <ele>820.014</ele>
        <time>2021-10-15T18:09:55Z</time>
      </trkpt>
      <trkpt lat="41.055365" lon="-4.713677">
        <ele>820.108</ele>
        <time>2021-10-15T18:09:56Z</time>
      </trkpt>
      <trkpt lat="41.055235" lon="-4.713792">
        <ele>820.220</ele>
        <time>2021-10-15T18:09:58Z</time>
      </trkpt>
      <trkpt lat="41.055165" lon="-4.713859">
        <ele>820.298</ele>
        <time>2021-10-15T18:09:59Z</time>
      </trkpt>
      <trkpt lat="41.055024" lon="-4.714009">
        <ele>820.256</ele>
        <time>2021-10-15T18:10:01Z</time>
      </trkpt>
      <trkpt lat="41.054951" lon="-4.714084">
        <ele>820.210</ele>
        <time>2021-10-15T18:10:02Z</time>
      </trkpt>
      <trkpt lat="41.054825" lon="-4.714210">
        <ele>820.255</ele>
        <time>2021-10-15T18:10:04Z</time>
      </trkpt>
      <trkpt lat="41.054760" lon="-4.714279">
        <ele>820.263</ele>
        <time>2021-10-15T18:10:05Z</time>
      </trkpt>
      <trkpt lat="41.054630" lon="-4.714419">
        <ele>820.156</ele>
        <time>2021-10-15T18:10:07Z</time>
      </trkpt>
      <trkpt lat="41.054561" lon="-4.714492">
        <ele>820.141</ele>
        <time>2021-10-15T18:10:08Z</time>
      </trkpt>
      <trkpt lat="41.054452" lon="-4.714650">
        <ele>820.184</ele>
        <time>2021-10-15T18:10:10Z</time>
      </trkpt>
      <trkpt lat="41.054384" lon="-4.714859">
        <ele>820.107</ele>
        <time>2021-10-15T18:10:12Z</time>
      </trkpt>
      <trkpt lat="41.054333" lon="-4.715114">
        <ele>820.117</ele>
        <time>2021-10-15T18:10:14Z</time>
      </trkpt>
      <trkpt lat="41.054294" lon="-4.715404">
        <ele>820.108</ele>
        <time>2021-10-15T18:10:16Z</time>
      </trkpt>
      <trkpt lat="41.054276" lon="-4.715545">
        <ele>820.136</ele>
        <time>2021-10-15T18:10:17Z</time>
      </trkpt>
      <trkpt lat="41.054260" lon="-4.715678">
        <ele>820.164</ele>
        <time>2021-10-15T18:10:18Z</time>
      </trkpt>
      <trkpt lat="41.054235" lon="-4.715918">
        <ele>820.132</ele>
        <time>2021-10-15T18:10:20Z</time>
      </trkpt>
      <trkpt lat="41.054231" lon="-4.716023">
        <ele>820.186</ele>
        <time>2021-10-15T18:10:21Z</time>
      </trkpt>
      <trkpt lat="41.054233" lon="-4.716197">
        <ele>820.221</ele>
        <time>2021-10-15T18:10:23Z</time>
      </trkpt>
      <trkpt lat="41.054232" lon="-4.716285">
        <ele>820.219</ele>
        <time>2021-10-15T18:10:24Z</time>
      </trkpt>
      <trkpt lat="41.054230" lon="-4.716482">
        <ele>820.212</ele>
        <time>2021-10-15T18:10:26Z</time>
      </trkpt>
      <trkpt lat="41.054225" lon="-4.716693">
        <ele>820.287</ele>
        <time>2021-10-15T18:10:28Z</time>
      </trkpt>
      <trkpt lat="41.054224" lon="-4.716795">
        <ele>820.245</ele>
        <time>2021-10-15T18:10:29Z</time>
      </trkpt>
      <trkpt lat="41.054223" lon="-4.716910">
        <ele>820.247</ele>
        <time>2021-10-15T18:10:31Z</time>
      </trkpt>
      <trkpt lat="41.054221" lon="-4.716972">
        <ele>820.211</ele>
        <time>2021-10-15T18:10:34Z</time>
      </trkpt>
      <trkpt lat="41.054216" lon="-4.717036">
        <ele>820.208</ele>
        <time>2021-10-15T18:10:36Z</time>
      </trkpt>
      <trkpt lat="41.054235" lon="-4.717147">
        <ele>820.252</ele>
        <time>2021-10-15T18:10:38Z</time>
      </trkpt>
      <trkpt lat="41.054251" lon="-4.717277">
        <ele>820.280</ele>
        <time>2021-10-15T18:10:40Z</time>
      </trkpt>
      <trkpt lat="41.054212" lon="-4.717393">
        <ele>820.858</ele>
        <time>2021-10-15T18:10:42Z</time>
      </trkpt>
      <trkpt lat="41.054145" lon="-4.717569">
        <ele>820.812</ele>
        <time>2021-10-15T18:10:44Z</time>
      </trkpt>
      <trkpt lat="41.054097" lon="-4.717795">
        <ele>820.847</ele>
        <time>2021-10-15T18:10:46Z</time>
      </trkpt>
      <trkpt lat="41.054048" lon="-4.718013">
        <ele>820.835</ele>
        <time>2021-10-15T18:10:48Z</time>
      </trkpt>
      <trkpt lat="41.054020" lon="-4.718132">
        <ele>820.848</ele>
        <time>2021-10-15T18:10:49Z</time>
      </trkpt>
      <trkpt lat="41.053962" lon="-4.718376">
        <ele>820.963</ele>
        <time>2021-10-15T18:10:51Z</time>
      </trkpt>
      <trkpt lat="41.053912" lon="-4.718611">
        <ele>820.971</ele>
        <time>2021-10-15T18:10:53Z</time>
      </trkpt>
      <trkpt lat="41.053889" lon="-4.718713">
        <ele>820.941</ele>
        <time>2021-10-15T18:10:54Z</time>
      </trkpt>
      <trkpt lat="41.053846" lon="-4.718892">
        <ele>820.915</ele>
        <time>2021-10-15T18:10:56Z</time>
      </trkpt>
      <trkpt lat="41.053807" lon="-4.719044">
        <ele>820.908</ele>
        <time>2021-10-15T18:10:58Z</time>
      </trkpt>
      <trkpt lat="41.053793" lon="-4.719112">
        <ele>820.915</ele>
        <time>2021-10-15T18:10:59Z</time>
      </trkpt>
      <trkpt lat="41.053782" lon="-4.719179">
        <ele>820.933</ele>
        <time>2021-10-15T18:11:00Z</time>
      </trkpt>
      <trkpt lat="41.053748" lon="-4.719346">
        <ele>820.861</ele>
        <time>2021-10-15T18:11:02Z</time>
      </trkpt>
      <trkpt lat="41.053699" lon="-4.719552">
        <ele>820.875</ele>
        <time>2021-10-15T18:11:04Z</time>
      </trkpt>
      <trkpt lat="41.053646" lon="-4.719778">
        <ele>820.830</ele>
        <time>2021-10-15T18:11:06Z</time>
      </trkpt>
      <trkpt lat="41.053625" lon="-4.719879">
        <ele>820.868</ele>
        <time>2021-10-15T18:11:07Z</time>
      </trkpt>
      <trkpt lat="41.053607" lon="-4.719967">
        <ele>820.821</ele>
        <time>2021-10-15T18:11:08Z</time>
      </trkpt>
      <trkpt lat="41.053590" lon="-4.720049">
        <ele>820.866</ele>
        <time>2021-10-15T18:11:10Z</time>
      </trkpt>
      <trkpt lat="41.053581" lon="-4.720119">
        <ele>820.824</ele>
        <time>2021-10-15T18:11:15Z</time>
      </trkpt>
      <trkpt lat="41.053538" lon="-4.720190">
        <ele>820.804</ele>
        <time>2021-10-15T18:11:17Z</time>
      </trkpt>
      <trkpt lat="41.053392" lon="-4.720224">
        <ele>820.814</ele>
        <time>2021-10-15T18:11:19Z</time>
      </trkpt>
      <trkpt lat="41.053296" lon="-4.720209">
        <ele>820.308</ele>
        <time>2021-10-15T18:11:20Z</time>
      </trkpt>
      <trkpt lat="41.053204" lon="-4.720185">
        <ele>819.820</ele>
        <time>2021-10-15T18:11:21Z</time>
      </trkpt>
      <trkpt lat="41.053110" lon="-4.720151">
        <ele>819.888</ele>
        <time>2021-10-15T18:11:22Z</time>
      </trkpt>
      <trkpt lat="41.052898" lon="-4.720069">
        <ele>819.816</ele>
        <time>2021-10-15T18:11:24Z</time>
      </trkpt>
      <trkpt lat="41.052773" lon="-4.720021">
        <ele>819.870</ele>
        <time>2021-10-15T18:11:25Z</time>
      </trkpt>
      <trkpt lat="41.052633" lon="-4.719964">
        <ele>819.815</ele>
        <time>2021-10-15T18:11:26Z</time>
      </trkpt>
      <trkpt lat="41.052363" lon="-4.719844">
        <ele>819.843</ele>
        <time>2021-10-15T18:11:28Z</time>
      </trkpt>
      <trkpt lat="41.052225" lon="-4.719778">
        <ele>819.866</ele>
        <time>2021-10-15T18:11:29Z</time>
      </trkpt>
      <trkpt lat="41.051949" lon="-4.719636">
        <ele>819.891</ele>
        <time>2021-10-15T18:11:31Z</time>
      </trkpt>
      <trkpt lat="41.051806" lon="-4.719559">
        <ele>819.818</ele>
        <time>2021-10-15T18:11:32Z</time>
      </trkpt>
      <trkpt lat="41.051499" lon="-4.719382">
        <ele>819.998</ele>
        <time>2021-10-15T18:11:34Z</time>
      </trkpt>
      <trkpt lat="41.051331" lon="-4.719285">
        <ele>819.917</ele>
        <time>2021-10-15T18:11:35Z</time>
      </trkpt>
      <trkpt lat="41.051002" lon="-4.719100">
        <ele>819.908</ele>
        <time>2021-10-15T18:11:37Z</time>
      </trkpt>
      <trkpt lat="41.050714" lon="-4.718941">
        <ele>819.949</ele>
        <time>2021-10-15T18:11:39Z</time>
      </trkpt>
      <trkpt lat="41.050582" lon="-4.718865">
        <ele>819.927</ele>
        <time>2021-10-15T18:11:40Z</time>
      </trkpt>
      <trkpt lat="41.050451" lon="-4.718791">
        <ele>819.915</ele>
        <time>2021-10-15T18:11:41Z</time>
      </trkpt>
      <trkpt lat="41.050319" lon="-4.718717">
        <ele>819.949</ele>
        <time>2021-10-15T18:11:42Z</time>
      </trkpt>
      <trkpt lat="41.050040" lon="-4.718576">
        <ele>819.994</ele>
        <time>2021-10-15T18:11:44Z</time>
      </trkpt>
      <trkpt lat="41.049875" lon="-4.718503">
        <ele>819.942</ele>
        <time>2021-10-15T18:11:45Z</time>
      </trkpt>
      <trkpt lat="41.049519" lon="-4.718378">
        <ele>819.935</ele>
        <time>2021-10-15T18:11:47Z</time>
      </trkpt>
      <trkpt lat="41.049132" lon="-4.718274">
        <ele>819.830</ele>
        <time>2021-10-15T18:11:49Z</time>
      </trkpt>
      <trkpt lat="41.048925" lon="-4.718218">
        <ele>819.862</ele>
        <time>2021-10-15T18:11:50Z</time>
      </trkpt>
      <trkpt lat="41.048712" lon="-4.718161">
        <ele>819.883</ele>
        <time>2021-10-15T18:11:51Z</time>
      </trkpt>
      <trkpt lat="41.048493" lon="-4.718101">
        <ele>819.811</ele>
        <time>2021-10-15T18:11:52Z</time>
      </trkpt>
      <trkpt lat="41.048034" lon="-4.717973">
        <ele>819.808</ele>
        <time>2021-10-15T18:11:54Z</time>
      </trkpt>
      <trkpt lat="41.047542" lon="-4.717841">
        <ele>819.864</ele>
        <time>2021-10-15T18:11:56Z</time>
      </trkpt>
      <trkpt lat="41.047110" lon="-4.717703">
        <ele>819.892</ele>
        <time>2021-10-15T18:11:58Z</time>
      </trkpt>
      <trkpt lat="41.046907" lon="-4.717629">
        <ele>819.830</ele>
        <time>2021-10-15T18:11:59Z</time>
      </trkpt>
      <trkpt lat="41.046554" lon="-4.717472">
        <ele>819.774</ele>
        <time>2021-10-15T18:12:01Z</time>
      </trkpt>
      <trkpt lat="41.046382" lon="-4.717391">
        <ele>819.739</ele>
        <time>2021-10-15T18:12:02Z</time>
      </trkpt>
      <trkpt lat="41.046085" lon="-4.717256">
        <ele>819.767</ele>
        <time>2021-10-15T18:12:04Z</time>
      </trkpt>
      <trkpt lat="41.045942" lon="-4.717193">
        <ele>819.750</ele>
        <time>2021-10-15T18:12:05Z</time>
      </trkpt>
      <trkpt lat="41.045809" lon="-4.717135">
        <ele>819.755</ele>
        <time>2021-10-15T18:12:06Z</time>
      </trkpt>
      <trkpt lat="41.045551" lon="-4.717034">
        <ele>819.747</ele>
        <time>2021-10-15T18:12:08Z</time>
      </trkpt>
      <trkpt lat="41.045419" lon="-4.716983">
        <ele>819.729</ele>
        <time>2021-10-15T18:12:09Z</time>
      </trkpt>
      <trkpt lat="41.045284" lon="-4.716931">
        <ele>819.721</ele>
        <time>2021-10-15T18:12:10Z</time>
      </trkpt>
      <trkpt lat="41.045029" lon="-4.716883">
        <ele>819.708</ele>
        <time>2021-10-15T18:12:12Z</time>
      </trkpt>
      <trkpt lat="41.044907" lon="-4.716902">
        <ele>819.782</ele>
        <time>2021-10-15T18:12:13Z</time>
      </trkpt>
      <trkpt lat="41.044784" lon="-4.716910">
        <ele>819.740</ele>
        <time>2021-10-15T18:12:14Z</time>
      </trkpt>
      <trkpt lat="41.044651" lon="-4.716881">
        <ele>819.758</ele>
        <time>2021-10-15T18:12:15Z</time>
      </trkpt>
      <trkpt lat="41.044340" lon="-4.716796">
        <ele>795.082</ele>
        <time>2021-10-15T18:12:17Z</time>
      </trkpt>
      <trkpt lat="41.044149" lon="-4.716791">
        <ele>770.487</ele>
        <time>2021-10-15T18:12:18Z</time>
      </trkpt>
      <trkpt lat="41.043941" lon="-4.716800">
        <ele>770.255</ele>
        <time>2021-10-15T18:12:19Z</time>
      </trkpt>
      <trkpt lat="41.043488" lon="-4.716777">
        <ele>770.948</ele>
        <time>2021-10-15T18:12:21Z</time>
      </trkpt>
      <trkpt lat="41.043250" lon="-4.716748">
        <ele>770.853</ele>
        <time>2021-10-15T18:12:22Z</time>
      </trkpt>
      <trkpt lat="41.042764" lon="-4.716675">
        <ele>772.096</ele>
        <time>2021-10-15T18:12:24Z</time>
      </trkpt>
      <trkpt lat="41.042259" lon="-4.716614">
        <ele>772.231</ele>
        <time>2021-10-15T18:12:26Z</time>
      </trkpt>
      <trkpt lat="41.041775" lon="-4.716548">
        <ele>772.824</ele>
        <time>2021-10-15T18:12:28Z</time>
      </trkpt>
      <trkpt lat="41.041527" lon="-4.716520">
        <ele>772.908</ele>
        <time>2021-10-15T18:12:29Z</time>
      </trkpt>
      <trkpt lat="41.041044" lon="-4.716475">
        <ele>773.787</ele>
        <time>2021-10-15T18:12:31Z</time>
      </trkpt>
      <trkpt lat="41.040813" lon="-4.716451">
        <ele>773.815</ele>
        <time>2021-10-15T18:12:32Z</time>
      </trkpt>
      <trkpt lat="41.040414" lon="-4.716408">
        <ele>774.033</ele>
        <time>2021-10-15T18:12:34Z</time>
      </trkpt>
      <trkpt lat="41.040220" lon="-4.716387">
        <ele>773.867</ele>
        <time>2021-10-15T18:12:35Z</time>
      </trkpt>
      <trkpt lat="41.040021" lon="-4.716365">
        <ele>773.662</ele>
        <time>2021-10-15T18:12:36Z</time>
      </trkpt>
      <trkpt lat="41.039817" lon="-4.716341">
        <ele>773.610</ele>
        <time>2021-10-15T18:12:37Z</time>
      </trkpt>
      <trkpt lat="41.039397" lon="-4.716270">
        <ele>773.523</ele>
        <time>2021-10-15T18:12:39Z</time>
      </trkpt>
      <trkpt lat="41.039182" lon="-4.716214">
        <ele>773.268</ele>
        <time>2021-10-15T18:12:40Z</time>
      </trkpt>
      <trkpt lat="41.038724" lon="-4.716047">
        <ele>773.739</ele>
        <time>2021-10-15T18:12:42Z</time>
      </trkpt>
      <trkpt lat="41.038235" lon="-4.715819">
        <ele>772.401</ele>
        <time>2021-10-15T18:12:44Z</time>
      </trkpt>
      <trkpt lat="41.038000" lon="-4.715707">
        <ele>772.421</ele>
        <time>2021-10-15T18:12:45Z</time>
      </trkpt>
      <trkpt lat="41.037773" lon="-4.715600">
        <ele>772.408</ele>
        <time>2021-10-15T18:12:46Z</time>
      </trkpt>
      <trkpt lat="41.037552" lon="-4.715497">
        <ele>772.261</ele>
        <time>2021-10-15T18:12:47Z</time>
      </trkpt>
      <trkpt lat="41.037109" lon="-4.715290">
        <ele>772.999</ele>
        <time>2021-10-15T18:12:49Z</time>
      </trkpt>
      <trkpt lat="41.036884" lon="-4.715184">
        <ele>773.267</ele>
        <time>2021-10-15T18:12:50Z</time>
      </trkpt>
      <trkpt lat="41.036434" lon="-4.714974">
        <ele>773.181</ele>
        <time>2021-10-15T18:12:52Z</time>
      </trkpt>
      <trkpt lat="41.036202" lon="-4.714866">
        <ele>773.546</ele>
        <time>2021-10-15T18:12:53Z</time>
      </trkpt>
      <trkpt lat="41.035967" lon="-4.714757">
        <ele>773.344</ele>
        <time>2021-10-15T18:12:54Z</time>
      </trkpt>
      <trkpt lat="41.035487" lon="-4.714532">
        <ele>773.917</ele>
        <time>2021-10-15T18:12:56Z</time>
      </trkpt>
      <trkpt lat="41.035027" lon="-4.714318">
        <ele>775.312</ele>
        <time>2021-10-15T18:12:58Z</time>
      </trkpt>
      <trkpt lat="41.034792" lon="-4.714210">
        <ele>775.683</ele>
        <time>2021-10-15T18:12:59Z</time>
      </trkpt>
      <trkpt lat="41.034564" lon="-4.714101">
        <ele>775.725</ele>
        <time>2021-10-15T18:13:00Z</time>
      </trkpt>
      <trkpt lat="41.034116" lon="-4.713888">
        <ele>776.717</ele>
        <time>2021-10-15T18:13:02Z</time>
      </trkpt>
      <trkpt lat="41.033694" lon="-4.713691">
        <ele>777.108</ele>
        <time>2021-10-15T18:13:04Z</time>
      </trkpt>
      <trkpt lat="41.033485" lon="-4.713594">
        <ele>777.356</ele>
        <time>2021-10-15T18:13:05Z</time>
      </trkpt>
      <trkpt lat="41.033072" lon="-4.713404">
        <ele>777.654</ele>
        <time>2021-10-15T18:13:07Z</time>
      </trkpt>
      <trkpt lat="41.032649" lon="-4.713225">
        <ele>778.332</ele>
        <time>2021-10-15T18:13:09Z</time>
      </trkpt>
      <trkpt lat="41.032207" lon="-4.713036">
        <ele>779.056</ele>
        <time>2021-10-15T18:13:11Z</time>
      </trkpt>
      <trkpt lat="41.031724" lon="-4.712916">
        <ele>778.731</ele>
        <time>2021-10-15T18:13:13Z</time>
      </trkpt>
      <trkpt lat="41.031216" lon="-4.712953">
        <ele>780.389</ele>
        <time>2021-10-15T18:13:15Z</time>
      </trkpt>
      <trkpt lat="41.030702" lon="-4.713058">
        <ele>780.152</ele>
        <time>2021-10-15T18:13:17Z</time>
      </trkpt>
      <trkpt lat="41.030438" lon="-4.713105">
        <ele>780.137</ele>
        <time>2021-10-15T18:13:18Z</time>
      </trkpt>
      <trkpt lat="41.029904" lon="-4.713189">
        <ele>780.126</ele>
        <time>2021-10-15T18:13:20Z</time>
      </trkpt>
      <trkpt lat="41.029624" lon="-4.713229">
        <ele>780.547</ele>
        <time>2021-10-15T18:13:21Z</time>
      </trkpt>
      <trkpt lat="41.029050" lon="-4.713284">
        <ele>780.011</ele>
        <time>2021-10-15T18:13:23Z</time>
      </trkpt>
      <trkpt lat="41.028462" lon="-4.713302">
        <ele>781.708</ele>
        <time>2021-10-15T18:13:25Z</time>
      </trkpt>
      <trkpt lat="41.028152" lon="-4.713306">
        <ele>781.930</ele>
        <time>2021-10-15T18:13:26Z</time>
      </trkpt>
      <trkpt lat="41.027576" lon="-4.713313">
        <ele>781.558</ele>
        <time>2021-10-15T18:13:28Z</time>
      </trkpt>
      <trkpt lat="41.027290" lon="-4.713323">
        <ele>782.346</ele>
        <time>2021-10-15T18:13:29Z</time>
      </trkpt>
      <trkpt lat="41.026743" lon="-4.713344">
        <ele>782.190</ele>
        <time>2021-10-15T18:13:31Z</time>
      </trkpt>
      <trkpt lat="41.026482" lon="-4.713351">
        <ele>781.865</ele>
        <time>2021-10-15T18:13:32Z</time>
      </trkpt>
      <trkpt lat="41.025995" lon="-4.713360">
        <ele>781.243</ele>
        <time>2021-10-15T18:13:34Z</time>
      </trkpt>
      <trkpt lat="41.025747" lon="-4.713363">
        <ele>781.536</ele>
        <time>2021-10-15T18:13:35Z</time>
      </trkpt>
      <trkpt lat="41.025243" lon="-4.713379">
        <ele>781.281</ele>
        <time>2021-10-15T18:13:37Z</time>
      </trkpt>
      <trkpt lat="41.024981" lon="-4.713394">
        <ele>781.216</ele>
        <time>2021-10-15T18:13:38Z</time>
      </trkpt>
      <trkpt lat="41.024450" lon="-4.713419">
        <ele>781.176</ele>
        <time>2021-10-15T18:13:40Z</time>
      </trkpt>
      <trkpt lat="41.024179" lon="-4.713431">
        <ele>780.713</ele>
        <time>2021-10-15T18:13:41Z</time>
      </trkpt>
      <trkpt lat="41.023908" lon="-4.713448">
        <ele>780.308</ele>
        <time>2021-10-15T18:13:42Z</time>
      </trkpt>
      <trkpt lat="41.023362" lon="-4.713476">
        <ele>780.499</ele>
        <time>2021-10-15T18:13:44Z</time>
      </trkpt>
      <trkpt lat="41.022810" lon="-4.713502">
        <ele>779.597</ele>
        <time>2021-10-15T18:13:46Z</time>
      </trkpt>
      <trkpt lat="41.022250" lon="-4.713521">
        <ele>780.245</ele>
        <time>2021-10-15T18:13:48Z</time>
      </trkpt>
      <trkpt lat="41.021695" lon="-4.713537">
        <ele>781.149</ele>
        <time>2021-10-15T18:13:50Z</time>
      </trkpt>
      <trkpt lat="41.021175" lon="-4.713561">
        <ele>782.194</ele>
        <time>2021-10-15T18:13:52Z</time>
      </trkpt>
      <trkpt lat="41.020924" lon="-4.713566">
        <ele>782.842</ele>
        <time>2021-10-15T18:13:53Z</time>
      </trkpt>
      <trkpt lat="41.020430" lon="-4.713553">
        <ele>782.195</ele>
        <time>2021-10-15T18:13:55Z</time>
      </trkpt>
      <trkpt lat="41.020168" lon="-4.713539">
        <ele>781.780</ele>
        <time>2021-10-15T18:13:56Z</time>
      </trkpt>
      <trkpt lat="41.019662" lon="-4.713493">
        <ele>781.597</ele>
        <time>2021-10-15T18:13:58Z</time>
      </trkpt>
      <trkpt lat="41.019132" lon="-4.713436">
        <ele>782.123</ele>
        <time>2021-10-15T18:14:00Z</time>
      </trkpt>
      <trkpt lat="41.018863" lon="-4.713409">
        <ele>781.625</ele>
        <time>2021-10-15T18:14:01Z</time>
      </trkpt>
      <trkpt lat="41.018587" lon="-4.713381">
        <ele>781.908</ele>
        <time>2021-10-15T18:14:02Z</time>
      </trkpt>
      <trkpt lat="41.018066" lon="-4.713327">
        <ele>781.447</ele>
        <time>2021-10-15T18:14:04Z</time>
      </trkpt>
      <trkpt lat="41.017803" lon="-4.713300">
        <ele>781.365</ele>
        <time>2021-10-15T18:14:05Z</time>
      </trkpt>
      <trkpt lat="41.017282" lon="-4.713252">
        <ele>781.413</ele>
        <time>2021-10-15T18:14:07Z</time>
      </trkpt>
      <trkpt lat="41.017020" lon="-4.713233">
        <ele>781.417</ele>
        <time>2021-10-15T18:14:08Z</time>
      </trkpt>
      <trkpt lat="41.016503" lon="-4.713216">
        <ele>781.322</ele>
        <time>2021-10-15T18:14:10Z</time>
      </trkpt>
      <trkpt lat="41.015988" lon="-4.713231">
        <ele>781.250</ele>
        <time>2021-10-15T18:14:12Z</time>
      </trkpt>
      <trkpt lat="41.015472" lon="-4.713282">
        <ele>781.313</ele>
        <time>2021-10-15T18:14:14Z</time>
      </trkpt>
      <trkpt lat="41.015216" lon="-4.713313">
        <ele>781.778</ele>
        <time>2021-10-15T18:14:15Z</time>
      </trkpt>
      <trkpt lat="41.014704" lon="-4.713376">
        <ele>781.125</ele>
        <time>2021-10-15T18:14:17Z</time>
      </trkpt>
      <trkpt lat="41.014441" lon="-4.713409">
        <ele>780.926</ele>
        <time>2021-10-15T18:14:18Z</time>
      </trkpt>
      <trkpt lat="41.014178" lon="-4.713435">
        <ele>780.308</ele>
        <time>2021-10-15T18:14:19Z</time>
      </trkpt>
      <trkpt lat="41.013912" lon="-4.713461">
        <ele>780.208</ele>
        <time>2021-10-15T18:14:20Z</time>
      </trkpt>
      <trkpt lat="41.013384" lon="-4.713498">
        <ele>780.720</ele>
        <time>2021-10-15T18:14:22Z</time>
      </trkpt>
      <trkpt lat="41.013112" lon="-4.713522">
        <ele>780.328</ele>
        <time>2021-10-15T18:14:23Z</time>
      </trkpt>
      <trkpt lat="41.012572" lon="-4.713570">
        <ele>780.636</ele>
        <time>2021-10-15T18:14:25Z</time>
      </trkpt>
      <trkpt lat="41.012289" lon="-4.713596">
        <ele>780.260</ele>
        <time>2021-10-15T18:14:26Z</time>
      </trkpt>
      <trkpt lat="41.011754" lon="-4.713636">
        <ele>781.485</ele>
        <time>2021-10-15T18:14:28Z</time>
      </trkpt>
      <trkpt lat="41.011471" lon="-4.713645">
        <ele>781.333</ele>
        <time>2021-10-15T18:14:29Z</time>
      </trkpt>
      <trkpt lat="41.011188" lon="-4.713652">
        <ele>780.716</ele>
        <time>2021-10-15T18:14:30Z</time>
      </trkpt>
      <trkpt lat="41.010620" lon="-4.713704">
        <ele>781.221</ele>
        <time>2021-10-15T18:14:32Z</time>
      </trkpt>
      <trkpt lat="41.010077" lon="-4.713759">
        <ele>781.952</ele>
        <time>2021-10-15T18:14:34Z</time>
      </trkpt>
      <trkpt lat="41.009787" lon="-4.713768">
        <ele>782.353</ele>
        <time>2021-10-15T18:14:35Z</time>
      </trkpt>
      <trkpt lat="41.009203" lon="-4.713742">
        <ele>782.108</ele>
        <time>2021-10-15T18:14:37Z</time>
      </trkpt>
      <trkpt lat="41.008902" lon="-4.713698">
        <ele>782.508</ele>
        <time>2021-10-15T18:14:38Z</time>
      </trkpt>
      <trkpt lat="41.008288" lon="-4.713605">
        <ele>782.643</ele>
        <time>2021-10-15T18:14:40Z</time>
      </trkpt>
      <trkpt lat="41.007978" lon="-4.713566">
        <ele>782.621</ele>
        <time>2021-10-15T18:14:41Z</time>
      </trkpt>
      <trkpt lat="41.007680" lon="-4.713534">
        <ele>782.639</ele>
        <time>2021-10-15T18:14:42Z</time>
      </trkpt>
      <trkpt lat="41.007125" lon="-4.713471">
        <ele>783.373</ele>
        <time>2021-10-15T18:14:44Z</time>
      </trkpt>
      <trkpt lat="41.006843" lon="-4.713437">
        <ele>783.918</ele>
        <time>2021-10-15T18:14:45Z</time>
      </trkpt>
      <trkpt lat="41.006283" lon="-4.713367">
        <ele>784.426</ele>
        <time>2021-10-15T18:14:47Z</time>
      </trkpt>
      <trkpt lat="41.005721" lon="-4.713297">
        <ele>785.649</ele>
        <time>2021-10-15T18:14:49Z</time>
      </trkpt>
      <trkpt lat="41.005182" lon="-4.713198">
        <ele>785.114</ele>
        <time>2021-10-15T18:14:51Z</time>
      </trkpt>
      <trkpt lat="41.004661" lon="-4.713055">
        <ele>785.665</ele>
        <time>2021-10-15T18:14:53Z</time>
      </trkpt>
      <trkpt lat="41.004146" lon="-4.712863">
        <ele>786.068</ele>
        <time>2021-10-15T18:14:55Z</time>
      </trkpt>
      <trkpt lat="41.003876" lon="-4.712766">
        <ele>786.514</ele>
        <time>2021-10-15T18:14:56Z</time>
      </trkpt>
      <trkpt lat="41.003364" lon="-4.712596">
        <ele>786.808</ele>
        <time>2021-10-15T18:14:58Z</time>
      </trkpt>
      <trkpt lat="41.002845" lon="-4.712399">
        <ele>787.244</ele>
        <time>2021-10-15T18:15:00Z</time>
      </trkpt>
      <trkpt lat="41.002580" lon="-4.712286">
        <ele>787.162</ele>
        <time>2021-10-15T18:15:01Z</time>
      </trkpt>
      <trkpt lat="41.002310" lon="-4.712168">
        <ele>786.840</ele>
        <time>2021-10-15T18:15:02Z</time>
      </trkpt>
      <trkpt lat="41.001786" lon="-4.711952">
        <ele>786.844</ele>
        <time>2021-10-15T18:15:04Z</time>
      </trkpt>
      <trkpt lat="41.001279" lon="-4.711755">
        <ele>785.929</ele>
        <time>2021-10-15T18:15:06Z</time>
      </trkpt>
      <trkpt lat="41.001040" lon="-4.711662">
        <ele>786.087</ele>
        <time>2021-10-15T18:15:07Z</time>
      </trkpt>
      <trkpt lat="41.000565" lon="-4.711482">
        <ele>787.360</ele>
        <time>2021-10-15T18:15:09Z</time>
      </trkpt>
      <trkpt lat="41.000088" lon="-4.711336">
        <ele>787.695</ele>
        <time>2021-10-15T18:15:11Z</time>
      </trkpt>
      <trkpt lat="40.999603" lon="-4.711242">
        <ele>787.641</ele>
        <time>2021-10-15T18:15:13Z</time>
      </trkpt>
      <trkpt lat="40.999357" lon="-4.711200">
        <ele>788.481</ele>
        <time>2021-10-15T18:15:14Z</time>
      </trkpt>
      <trkpt lat="40.999102" lon="-4.711160">
        <ele>788.609</ele>
        <time>2021-10-15T18:15:15Z</time>
      </trkpt>
      <trkpt lat="40.998844" lon="-4.711120">
        <ele>788.708</ele>
        <time>2021-10-15T18:15:16Z</time>
      </trkpt>
      <trkpt lat="40.998582" lon="-4.711077">
        <ele>788.242</ele>
        <time>2021-10-15T18:15:17Z</time>
      </trkpt>
      <trkpt lat="40.998040" lon="-4.710980">
        <ele>786.810</ele>
        <time>2021-10-15T18:15:19Z</time>
      </trkpt>
      <trkpt lat="40.997758" lon="-4.710924">
        <ele>786.348</ele>
        <time>2021-10-15T18:15:20Z</time>
      </trkpt>
      <trkpt lat="40.997472" lon="-4.710874">
        <ele>786.272</ele>
        <time>2021-10-15T18:15:21Z</time>
      </trkpt>
      <trkpt lat="40.996892" lon="-4.710783">
        <ele>785.697</ele>
        <time>2021-10-15T18:15:23Z</time>
      </trkpt>
      <trkpt lat="40.996599" lon="-4.710731">
        <ele>785.945</ele>
        <time>2021-10-15T18:15:24Z</time>
      </trkpt>
      <trkpt lat="40.996307" lon="-4.710685">
        <ele>786.088</ele>
        <time>2021-10-15T18:15:25Z</time>
      </trkpt>
      <trkpt lat="40.996012" lon="-4.710639">
        <ele>787.013</ele>
        <time>2021-10-15T18:15:26Z</time>
      </trkpt>
      <trkpt lat="40.995448" lon="-4.710550">
        <ele>787.741</ele>
        <time>2021-10-15T18:15:28Z</time>
      </trkpt>
      <trkpt lat="40.994897" lon="-4.710461">
        <ele>788.881</ele>
        <time>2021-10-15T18:15:30Z</time>
      </trkpt>
      <trkpt lat="40.994636" lon="-4.710419">
        <ele>788.909</ele>
        <time>2021-10-15T18:15:31Z</time>
      </trkpt>
      <trkpt lat="40.994378" lon="-4.710383">
        <ele>789.308</ele>
        <time>2021-10-15T18:15:32Z</time>
      </trkpt>
      <trkpt lat="40.993885" lon="-4.710311">
        <ele>789.252</ele>
        <time>2021-10-15T18:15:34Z</time>
      </trkpt>
      <trkpt lat="40.993386" lon="-4.710236">
        <ele>789.520</ele>
        <time>2021-10-15T18:15:36Z</time>
      </trkpt>
      <trkpt lat="40.992884" lon="-4.710175">
        <ele>788.948</ele>
        <time>2021-10-15T18:15:38Z</time>
      </trkpt>
      <trkpt lat="40.992630" lon="-4.710146">
        <ele>788.422</ele>
        <time>2021-10-15T18:15:39Z</time>
      </trkpt>
      <trkpt lat="40.992370" lon="-4.710123">
        <ele>788.567</ele>
        <time>2021-10-15T18:15:40Z</time>
      </trkpt>
      <trkpt lat="40.992103" lon="-4.710102">
        <ele>788.565</ele>
        <time>2021-10-15T18:15:41Z</time>
      </trkpt>
      <trkpt lat="40.991832" lon="-4.710075">
        <ele>788.628</ele>
        <time>2021-10-15T18:15:42Z</time>
      </trkpt>
      <trkpt lat="40.991289" lon="-4.710024">
        <ele>787.863</ele>
        <time>2021-10-15T18:15:44Z</time>
      </trkpt>
      <trkpt lat="40.990738" lon="-4.709994">
        <ele>787.684</ele>
        <time>2021-10-15T18:15:46Z</time>
      </trkpt>
      <trkpt lat="40.990461" lon="-4.709986">
        <ele>788.107</ele>
        <time>2021-10-15T18:15:47Z</time>
      </trkpt>
      <trkpt lat="40.990180" lon="-4.709987">
        <ele>788.617</ele>
        <time>2021-10-15T18:15:48Z</time>
      </trkpt>
      <trkpt lat="40.989609" lon="-4.710041">
        <ele>788.508</ele>
        <time>2021-10-15T18:15:50Z</time>
      </trkpt>
      <trkpt lat="40.989318" lon="-4.710079">
        <ele>789.426</ele>
        <time>2021-10-15T18:15:51Z</time>
      </trkpt>
      <trkpt lat="40.988740" lon="-4.710143">
        <ele>790.484</ele>
        <time>2021-10-15T18:15:53Z</time>
      </trkpt>
      <trkpt lat="40.988175" lon="-4.710203">
        <ele>790.272</ele>
        <time>2021-10-15T18:15:55Z</time>
      </trkpt>
      <trkpt lat="40.987894" lon="-4.710229">
        <ele>790.546</ele>
        <time>2021-10-15T18:15:56Z</time>
      </trkpt>
      <trkpt lat="40.987362" lon="-4.710295">
        <ele>790.131</ele>
        <time>2021-10-15T18:15:58Z</time>
      </trkpt>
      <trkpt lat="40.986829" lon="-4.710349">
        <ele>790.569</ele>
        <time>2021-10-15T18:16:00Z</time>
      </trkpt>
      <trkpt lat="40.986561" lon="-4.710347">
        <ele>791.042</ele>
        <time>2021-10-15T18:16:01Z</time>
      </trkpt>
      <trkpt lat="40.986282" lon="-4.710313">
        <ele>791.367</ele>
        <time>2021-10-15T18:16:02Z</time>
      </trkpt>
      <trkpt lat="40.985706" lon="-4.710174">
        <ele>791.226</ele>
        <time>2021-10-15T18:16:04Z</time>
      </trkpt>
      <trkpt lat="40.985154" lon="-4.710028">
        <ele>791.247</ele>
        <time>2021-10-15T18:16:06Z</time>
      </trkpt>
      <trkpt lat="40.984642" lon="-4.709910">
        <ele>792.611</ele>
        <time>2021-10-15T18:16:08Z</time>
      </trkpt>
      <trkpt lat="40.984391" lon="-4.709852">
        <ele>792.208</ele>
        <time>2021-10-15T18:16:09Z</time>
      </trkpt>
      <trkpt lat="40.983889" lon="-4.709743">
        <ele>792.170</ele>
        <time>2021-10-15T18:16:11Z</time>
      </trkpt>
      <trkpt lat="40.983382" lon="-4.709644">
        <ele>793.078</ele>
        <time>2021-10-15T18:16:13Z</time>
      </trkpt>
      <trkpt lat="40.983127" lon="-4.709600">
        <ele>792.556</ele>
        <time>2021-10-15T18:16:14Z</time>
      </trkpt>
      <trkpt lat="40.982626" lon="-4.709530">
        <ele>791.940</ele>
        <time>2021-10-15T18:16:16Z</time>
      </trkpt>
      <trkpt lat="40.982372" lon="-4.709502">
        <ele>792.565</ele>
        <time>2021-10-15T18:16:17Z</time>
      </trkpt>
      <trkpt lat="40.981876" lon="-4.709464">
        <ele>792.743</ele>
        <time>2021-10-15T18:16:19Z</time>
      </trkpt>
      <trkpt lat="40.981380" lon="-4.709427">
        <ele>793.186</ele>
        <time>2021-10-15T18:16:21Z</time>
      </trkpt>
      <trkpt lat="40.980887" lon="-4.709384">
        <ele>793.241</ele>
        <time>2021-10-15T18:16:23Z</time>
      </trkpt>
      <trkpt lat="40.980640" lon="-4.709360">
        <ele>793.522</ele>
        <time>2021-10-15T18:16:24Z</time>
      </trkpt>
      <trkpt lat="40.980391" lon="-4.709333">
        <ele>793.562</ele>
        <time>2021-10-15T18:16:25Z</time>
      </trkpt>
      <trkpt lat="40.980134" lon="-4.709308">
        <ele>793.508</ele>
        <time>2021-10-15T18:16:26Z</time>
      </trkpt>
      <trkpt lat="40.979593" lon="-4.709278">
        <ele>794.708</ele>
        <time>2021-10-15T18:16:28Z</time>
      </trkpt>
      <trkpt lat="40.979301" lon="-4.709263">
        <ele>794.980</ele>
        <time>2021-10-15T18:16:29Z</time>
      </trkpt>
      <trkpt lat="40.979000" lon="-4.709254">
        <ele>794.578</ele>
        <time>2021-10-15T18:16:30Z</time>
      </trkpt>
      <trkpt lat="40.978692" lon="-4.709246">
        <ele>794.246</ele>
        <time>2021-10-15T18:16:31Z</time>
      </trkpt>
      <trkpt lat="40.978378" lon="-4.709234">
        <ele>794.170</ele>
        <time>2021-10-15T18:16:32Z</time>
      </trkpt>
      <trkpt lat="40.977770" lon="-4.709237">
        <ele>793.895</ele>
        <time>2021-10-15T18:16:34Z</time>
      </trkpt>
      <trkpt lat="40.977470" lon="-4.709239">
        <ele>794.143</ele>
        <time>2021-10-15T18:16:35Z</time>
      </trkpt>
      <trkpt lat="40.976888" lon="-4.709246">
        <ele>794.226</ele>
        <time>2021-10-15T18:16:37Z</time>
      </trkpt>
      <trkpt lat="40.976304" lon="-4.709245">
        <ele>794.951</ele>
        <time>2021-10-15T18:16:39Z</time>
      </trkpt>
      <trkpt lat="40.975720" lon="-4.709226">
        <ele>794.816</ele>
        <time>2021-10-15T18:16:41Z</time>
      </trkpt>
      <trkpt lat="40.975426" lon="-4.709218">
        <ele>795.376</ele>
        <time>2021-10-15T18:16:42Z</time>
      </trkpt>
      <trkpt lat="40.974840" lon="-4.709228">
        <ele>796.413</ele>
        <time>2021-10-15T18:16:44Z</time>
      </trkpt>
      <trkpt lat="40.974250" lon="-4.709285">
        <ele>797.408</ele>
        <time>2021-10-15T18:16:46Z</time>
      </trkpt>
      <trkpt lat="40.973661" lon="-4.709382">
        <ele>797.589</ele>
        <time>2021-10-15T18:16:48Z</time>
      </trkpt>
      <trkpt lat="40.973361" lon="-4.709419">
        <ele>797.397</ele>
        <time>2021-10-15T18:16:49Z</time>
      </trkpt>
      <trkpt lat="40.972766" lon="-4.709417">
        <ele>798.965</ele>
        <time>2021-10-15T18:16:51Z</time>
      </trkpt>
      <trkpt lat="40.972173" lon="-4.709305">
        <ele>798.259</ele>
        <time>2021-10-15T18:16:53Z</time>
      </trkpt>
      <trkpt lat="40.971576" lon="-4.709160">
        <ele>798.514</ele>
        <time>2021-10-15T18:16:55Z</time>
      </trkpt>
      <trkpt lat="40.971268" lon="-4.709091">
        <ele>798.582</ele>
        <time>2021-10-15T18:16:56Z</time>
      </trkpt>
      <trkpt lat="40.970675" lon="-4.708984">
        <ele>798.375</ele>
        <time>2021-10-15T18:16:58Z</time>
      </trkpt>
      <trkpt lat="40.970074" lon="-4.708876">
        <ele>798.290</ele>
        <time>2021-10-15T18:17:00Z</time>
      </trkpt>
      <trkpt lat="40.969773" lon="-4.708820">
        <ele>798.018</ele>
        <time>2021-10-15T18:17:01Z</time>
      </trkpt>
      <trkpt lat="40.969468" lon="-4.708763">
        <ele>797.898</ele>
        <time>2021-10-15T18:17:02Z</time>
      </trkpt>
      <trkpt lat="40.968891" lon="-4.708646">
        <ele>798.717</ele>
        <time>2021-10-15T18:17:04Z</time>
      </trkpt>
      <trkpt lat="40.968310" lon="-4.708548">
        <ele>797.608</ele>
        <time>2021-10-15T18:17:06Z</time>
      </trkpt>
      <trkpt lat="40.968024" lon="-4.708511">
        <ele>798.269</ele>
        <time>2021-10-15T18:17:07Z</time>
      </trkpt>
      <trkpt lat="40.967456" lon="-4.708480">
        <ele>799.277</ele>
        <time>2021-10-15T18:17:09Z</time>
      </trkpt>
      <trkpt lat="40.966897" lon="-4.708485">
        <ele>799.125</ele>
        <time>2021-10-15T18:17:11Z</time>
      </trkpt>
      <trkpt lat="40.966373" lon="-4.708500">
        <ele>799.789</ele>
        <time>2021-10-15T18:17:13Z</time>
      </trkpt>
      <trkpt lat="40.965866" lon="-4.708507">
        <ele>799.864</ele>
        <time>2021-10-15T18:17:15Z</time>
      </trkpt>
      <trkpt lat="40.965612" lon="-4.708504">
        <ele>800.532</ele>
        <time>2021-10-15T18:17:16Z</time>
      </trkpt>
      <trkpt lat="40.965100" lon="-4.708464">
        <ele>800.655</ele>
        <time>2021-10-15T18:17:18Z</time>
      </trkpt>
      <trkpt lat="40.964578" lon="-4.708348">
        <ele>800.880</ele>
        <time>2021-10-15T18:17:20Z</time>
      </trkpt>
      <trkpt lat="40.964314" lon="-4.708259">
        <ele>801.071</ele>
        <time>2021-10-15T18:17:21Z</time>
      </trkpt>
      <trkpt lat="40.963785" lon="-4.708057">
        <ele>801.841</ele>
        <time>2021-10-15T18:17:23Z</time>
      </trkpt>
      <trkpt lat="40.963239" lon="-4.707873">
        <ele>801.015</ele>
        <time>2021-10-15T18:17:25Z</time>
      </trkpt>
      <trkpt lat="40.962951" lon="-4.707801">
        <ele>801.108</ele>
        <time>2021-10-15T18:17:26Z</time>
      </trkpt>
      <trkpt lat="40.962396" lon="-4.707745">
        <ele>802.475</ele>
        <time>2021-10-15T18:17:28Z</time>
      </trkpt>
      <trkpt lat="40.962104" lon="-4.707747">
        <ele>803.783</ele>
        <time>2021-10-15T18:17:29Z</time>
      </trkpt>
      <trkpt lat="40.961813" lon="-4.707769">
        <ele>804.321</ele>
        <time>2021-10-15T18:17:30Z</time>
      </trkpt>
      <trkpt lat="40.961223" lon="-4.707831">
        <ele>803.675</ele>
        <time>2021-10-15T18:17:32Z</time>
      </trkpt>
      <trkpt lat="40.960654" lon="-4.707890">
        <ele>804.550</ele>
        <time>2021-10-15T18:17:34Z</time>
      </trkpt>
      <trkpt lat="40.960071" lon="-4.707939">
        <ele>804.248</ele>
        <time>2021-10-15T18:17:36Z</time>
      </trkpt>
      <trkpt lat="40.959778" lon="-4.707962">
        <ele>804.461</ele>
        <time>2021-10-15T18:17:37Z</time>
      </trkpt>
      <trkpt lat="40.959208" lon="-4.707999">
        <ele>803.666</ele>
        <time>2021-10-15T18:17:39Z</time>
      </trkpt>
      <trkpt lat="40.958688" lon="-4.708052">
        <ele>803.234</ele>
        <time>2021-10-15T18:17:41Z</time>
      </trkpt>
      <trkpt lat="40.958444" lon="-4.708082">
        <ele>803.055</ele>
        <time>2021-10-15T18:17:42Z</time>
      </trkpt>
      <trkpt lat="40.958212" lon="-4.708110">
        <ele>802.810</ele>
        <time>2021-10-15T18:17:43Z</time>
      </trkpt>
      <trkpt lat="40.957757" lon="-4.708187">
        <ele>803.208</ele>
        <time>2021-10-15T18:17:45Z</time>
      </trkpt>
      <trkpt lat="40.957307" lon="-4.708364">
        <ele>803.551</ele>
        <time>2021-10-15T18:17:47Z</time>
      </trkpt>
      <trkpt lat="40.957090" lon="-4.708491">
        <ele>803.259</ele>
        <time>2021-10-15T18:17:48Z</time>
      </trkpt>
      <trkpt lat="40.956875" lon="-4.708637">
        <ele>803.967</ele>
        <time>2021-10-15T18:17:49Z</time>
      </trkpt>
      <trkpt lat="40.956661" lon="-4.708790">
        <ele>804.011</ele>
        <time>2021-10-15T18:17:50Z</time>
      </trkpt>
      <trkpt lat="40.956201" lon="-4.709132">
        <ele>803.476</ele>
        <time>2021-10-15T18:17:52Z</time>
      </trkpt>
      <trkpt lat="40.955705" lon="-4.709488">
        <ele>803.074</ele>
        <time>2021-10-15T18:17:54Z</time>
      </trkpt>
      <trkpt lat="40.955162" lon="-4.709834">
        <ele>803.367</ele>
        <time>2021-10-15T18:17:56Z</time>
      </trkpt>
      <trkpt lat="40.954578" lon="-4.710102">
        <ele>802.492</ele>
        <time>2021-10-15T18:17:58Z</time>
      </trkpt>
      <trkpt lat="40.953932" lon="-4.710299">
        <ele>802.079</ele>
        <time>2021-10-15T18:18:00Z</time>
      </trkpt>
      <trkpt lat="40.953309" lon="-4.710473">
        <ele>803.305</ele>
        <time>2021-10-15T18:18:02Z</time>
      </trkpt>
      <trkpt lat="40.952735" lon="-4.710668">
        <ele>803.025</ele>
        <time>2021-10-15T18:18:04Z</time>
      </trkpt>
      <trkpt lat="40.952177" lon="-4.710907">
        <ele>803.708</ele>
        <time>2021-10-15T18:18:06Z</time>
      </trkpt>
      <trkpt lat="40.951654" lon="-4.711237">
        <ele>803.425</ele>
        <time>2021-10-15T18:18:08Z</time>
      </trkpt>
      <trkpt lat="40.951405" lon="-4.711440">
        <ele>803.583</ele>
        <time>2021-10-15T18:18:09Z</time>
      </trkpt>
      <trkpt lat="40.950935" lon="-4.711894">
        <ele>803.881</ele>
        <time>2021-10-15T18:18:11Z</time>
      </trkpt>
      <trkpt lat="40.950506" lon="-4.712426">
        <ele>804.185</ele>
        <time>2021-10-15T18:18:13Z</time>
      </trkpt>
      <trkpt lat="40.950292" lon="-4.712697">
        <ele>804.460</ele>
        <time>2021-10-15T18:18:14Z</time>
      </trkpt>
      <trkpt lat="40.950073" lon="-4.712961">
        <ele>804.038</ele>
        <time>2021-10-15T18:18:15Z</time>
      </trkpt>
      <trkpt lat="40.949849" lon="-4.713219">
        <ele>803.891</ele>
        <time>2021-10-15T18:18:16Z</time>
      </trkpt>
      <trkpt lat="40.949404" lon="-4.713728">
        <ele>804.446</ele>
        <time>2021-10-15T18:18:18Z</time>
      </trkpt>
      <trkpt lat="40.949180" lon="-4.713985">
        <ele>804.031</ele>
        <time>2021-10-15T18:18:19Z</time>
      </trkpt>
      <trkpt lat="40.948724" lon="-4.714488">
        <ele>803.961</ele>
        <time>2021-10-15T18:18:21Z</time>
      </trkpt>
      <trkpt lat="40.948279" lon="-4.714990">
        <ele>803.707</ele>
        <time>2021-10-15T18:18:23Z</time>
      </trkpt>
      <trkpt lat="40.947839" lon="-4.715474">
        <ele>802.508</ele>
        <time>2021-10-15T18:18:25Z</time>
      </trkpt>
      <trkpt lat="40.947615" lon="-4.715722">
        <ele>802.311</ele>
        <time>2021-10-15T18:18:26Z</time>
      </trkpt>
      <trkpt lat="40.947197" lon="-4.716204">
        <ele>802.369</ele>
        <time>2021-10-15T18:18:28Z</time>
      </trkpt>
      <trkpt lat="40.946989" lon="-4.716459">
        <ele>802.297</ele>
        <time>2021-10-15T18:18:29Z</time>
      </trkpt>
      <trkpt lat="40.946788" lon="-4.716719">
        <ele>802.131</ele>
        <time>2021-10-15T18:18:30Z</time>
      </trkpt>
      <trkpt lat="40.946397" lon="-4.717275">
        <ele>802.466</ele>
        <time>2021-10-15T18:18:32Z</time>
      </trkpt>
      <trkpt lat="40.946060" lon="-4.717779">
        <ele>803.324</ele>
        <time>2021-10-15T18:18:34Z</time>
      </trkpt>
      <trkpt lat="40.945738" lon="-4.718265">
        <ele>802.867</ele>
        <time>2021-10-15T18:18:36Z</time>
      </trkpt>
      <trkpt lat="40.945408" lon="-4.718753">
        <ele>802.672</ele>
        <time>2021-10-15T18:18:38Z</time>
      </trkpt>
      <trkpt lat="40.945229" lon="-4.718988">
        <ele>802.529</ele>
        <time>2021-10-15T18:18:39Z</time>
      </trkpt>
      <trkpt lat="40.944837" lon="-4.719428">
        <ele>802.700</ele>
        <time>2021-10-15T18:18:41Z</time>
      </trkpt>
      <trkpt lat="40.944614" lon="-4.719638">
        <ele>803.120</ele>
        <time>2021-10-15T18:18:42Z</time>
      </trkpt>
      <trkpt lat="40.944380" lon="-4.719843">
        <ele>803.808</ele>
        <time>2021-10-15T18:18:43Z</time>
      </trkpt>
      <trkpt lat="40.943907" lon="-4.720248">
        <ele>804.290</ele>
        <time>2021-10-15T18:18:45Z</time>
      </trkpt>
      <trkpt lat="40.943663" lon="-4.720459">
        <ele>804.958</ele>
        <time>2021-10-15T18:18:46Z</time>
      </trkpt>
      <trkpt lat="40.943146" lon="-4.720912">
        <ele>805.826</ele>
        <time>2021-10-15T18:18:48Z</time>
      </trkpt>
      <trkpt lat="40.942585" lon="-4.721403">
        <ele>805.740</ele>
        <time>2021-10-15T18:18:50Z</time>
      </trkpt>
      <trkpt lat="40.942288" lon="-4.721654">
        <ele>806.375</ele>
        <time>2021-10-15T18:18:51Z</time>
      </trkpt>
      <trkpt lat="40.941704" lon="-4.722143">
        <ele>807.123</ele>
        <time>2021-10-15T18:18:53Z</time>
      </trkpt>
      <trkpt lat="40.941437" lon="-4.722371">
        <ele>807.156</ele>
        <time>2021-10-15T18:18:54Z</time>
      </trkpt>
      <trkpt lat="40.940963" lon="-4.722815">
        <ele>808.211</ele>
        <time>2021-10-15T18:18:56Z</time>
      </trkpt>
      <trkpt lat="40.940523" lon="-4.723215">
        <ele>808.974</ele>
        <time>2021-10-15T18:18:58Z</time>
      </trkpt>
      <trkpt lat="40.940114" lon="-4.723577">
        <ele>809.256</ele>
        <time>2021-10-15T18:19:00Z</time>
      </trkpt>
      <trkpt lat="40.939940" lon="-4.723735">
        <ele>809.521</ele>
        <time>2021-10-15T18:19:01Z</time>
      </trkpt>
      <trkpt lat="40.939790" lon="-4.723877">
        <ele>810.008</ele>
        <time>2021-10-15T18:19:02Z</time>
      </trkpt>
      <trkpt lat="40.939515" lon="-4.724137">
        <ele>809.895</ele>
        <time>2021-10-15T18:19:04Z</time>
      </trkpt>
      <trkpt lat="40.939375" lon="-4.724269">
        <ele>809.733</ele>
        <time>2021-10-15T18:19:05Z</time>
      </trkpt>
      <trkpt lat="40.939091" lon="-4.724529">
        <ele>810.181</ele>
        <time>2021-10-15T18:19:07Z</time>
      </trkpt>
      <trkpt lat="40.938820" lon="-4.724775">
        <ele>810.435</ele>
        <time>2021-10-15T18:19:09Z</time>
      </trkpt>
      <trkpt lat="40.938682" lon="-4.724898">
        <ele>810.420</ele>
        <time>2021-10-15T18:19:10Z</time>
      </trkpt>
      <trkpt lat="40.938544" lon="-4.725019">
        <ele>810.558</ele>
        <time>2021-10-15T18:19:11Z</time>
      </trkpt>
      <trkpt lat="40.938271" lon="-4.725248">
        <ele>810.431</ele>
        <time>2021-10-15T18:19:13Z</time>
      </trkpt>
      <trkpt lat="40.938140" lon="-4.725354">
        <ele>810.866</ele>
        <time>2021-10-15T18:19:14Z</time>
      </trkpt>
      <trkpt lat="40.937862" lon="-4.725569">
        <ele>811.251</ele>
        <time>2021-10-15T18:19:16Z</time>
      </trkpt>
      <trkpt lat="40.937571" lon="-4.725787">
        <ele>811.001</ele>
        <time>2021-10-15T18:19:18Z</time>
      </trkpt>
      <trkpt lat="40.937297" lon="-4.725992">
        <ele>811.711</ele>
        <time>2021-10-15T18:19:20Z</time>
      </trkpt>
      <trkpt lat="40.937171" lon="-4.726087">
        <ele>811.608</ele>
        <time>2021-10-15T18:19:21Z</time>
      </trkpt>
      <trkpt lat="40.936935" lon="-4.726263">
        <ele>811.453</ele>
        <time>2021-10-15T18:19:23Z</time>
      </trkpt>
      <trkpt lat="40.936709" lon="-4.726425">
        <ele>811.141</ele>
        <time>2021-10-15T18:19:25Z</time>
      </trkpt>
      <trkpt lat="40.936587" lon="-4.726519">
        <ele>811.159</ele>
        <time>2021-10-15T18:19:26Z</time>
      </trkpt>
      <trkpt lat="40.936347" lon="-4.726704">
        <ele>811.363</ele>
        <time>2021-10-15T18:19:28Z</time>
      </trkpt>
      <trkpt lat="40.936216" lon="-4.726805">
        <ele>811.248</ele>
        <time>2021-10-15T18:19:29Z</time>
      </trkpt>
      <trkpt lat="40.935960" lon="-4.726990">
        <ele>811.386</ele>
        <time>2021-10-15T18:19:31Z</time>
      </trkpt>
      <trkpt lat="40.935837" lon="-4.727080">
        <ele>811.859</ele>
        <time>2021-10-15T18:19:32Z</time>
      </trkpt>
      <trkpt lat="40.935621" lon="-4.727244">
        <ele>812.314</ele>
        <time>2021-10-15T18:19:34Z</time>
      </trkpt>
      <trkpt lat="40.935512" lon="-4.727327">
        <ele>812.346</ele>
        <time>2021-10-15T18:19:35Z</time>
      </trkpt>
      <trkpt lat="40.935315" lon="-4.727476">
        <ele>811.588</ele>
        <time>2021-10-15T18:19:37Z</time>
      </trkpt>
      <trkpt lat="40.935225" lon="-4.727545">
        <ele>812.616</ele>
        <time>2021-10-15T18:19:38Z</time>
      </trkpt>
      <trkpt lat="40.935045" lon="-4.727681">
        <ele>811.808</ele>
        <time>2021-10-15T18:19:40Z</time>
      </trkpt>
      <trkpt lat="40.934862" lon="-4.727815">
        <ele>811.812</ele>
        <time>2021-10-15T18:19:42Z</time>
      </trkpt>
      <trkpt lat="40.934686" lon="-4.727953">
        <ele>812.330</ele>
        <time>2021-10-15T18:19:44Z</time>
      </trkpt>
      <trkpt lat="40.934591" lon="-4.728028">
        <ele>812.358</ele>
        <time>2021-10-15T18:19:45Z</time>
      </trkpt>
      <trkpt lat="40.934388" lon="-4.728183">
        <ele>812.472</ele>
        <time>2021-10-15T18:19:47Z</time>
      </trkpt>
      <trkpt lat="40.934158" lon="-4.728358">
        <ele>812.857</ele>
        <time>2021-10-15T18:19:49Z</time>
      </trkpt>
      <trkpt lat="40.934040" lon="-4.728446">
        <ele>812.915</ele>
        <time>2021-10-15T18:19:50Z</time>
      </trkpt>
      <trkpt lat="40.933798" lon="-4.728587">
        <ele>812.368</ele>
        <time>2021-10-15T18:19:52Z</time>
      </trkpt>
      <trkpt lat="40.933668" lon="-4.728628">
        <ele>812.383</ele>
        <time>2021-10-15T18:19:53Z</time>
      </trkpt>
      <trkpt lat="40.933423" lon="-4.728622">
        <ele>813.592</ele>
        <time>2021-10-15T18:19:55Z</time>
      </trkpt>
      <trkpt lat="40.933305" lon="-4.728590">
        <ele>813.173</ele>
        <time>2021-10-15T18:19:56Z</time>
      </trkpt>
      <trkpt lat="40.933092" lon="-4.728518">
        <ele>812.820</ele>
        <time>2021-10-15T18:19:58Z</time>
      </trkpt>
      <trkpt lat="40.932969" lon="-4.728480">
        <ele>812.808</ele>
        <time>2021-10-15T18:19:59Z</time>
      </trkpt>
      <trkpt lat="40.932700" lon="-4.728399">
        <ele>814.617</ele>
        <time>2021-10-15T18:20:01Z</time>
      </trkpt>
      <trkpt lat="40.932547" lon="-4.728351">
        <ele>815.025</ele>
        <time>2021-10-15T18:20:02Z</time>
      </trkpt>
      <trkpt lat="40.932266" lon="-4.728275">
        <ele>813.883</ele>
        <time>2021-10-15T18:20:04Z</time>
      </trkpt>
      <trkpt lat="40.932134" lon="-4.728239">
        <ele>814.517</ele>
        <time>2021-10-15T18:20:05Z</time>
      </trkpt>
      <trkpt lat="40.931891" lon="-4.728169">
        <ele>815.362</ele>
        <time>2021-10-15T18:20:07Z</time>
      </trkpt>
      <trkpt lat="40.931629" lon="-4.728089">
        <ele>815.070</ele>
        <time>2021-10-15T18:20:09Z</time>
      </trkpt>
      <trkpt lat="40.931491" lon="-4.728046">
        <ele>814.863</ele>
        <time>2021-10-15T18:20:10Z</time>
      </trkpt>
      <trkpt lat="40.931195" lon="-4.727954">
        <ele>813.738</ele>
        <time>2021-10-15T18:20:12Z</time>
      </trkpt>
      <trkpt lat="40.930881" lon="-4.727861">
        <ele>814.271</ele>
        <time>2021-10-15T18:20:14Z</time>
      </trkpt>
      <trkpt lat="40.930716" lon="-4.727810">
        <ele>813.641</ele>
        <time>2021-10-15T18:20:15Z</time>
      </trkpt>
      <trkpt lat="40.930547" lon="-4.727758">
        <ele>813.315</ele>
        <time>2021-10-15T18:20:16Z</time>
      </trkpt>
      <trkpt lat="40.930206" lon="-4.727652">
        <ele>813.908</ele>
        <time>2021-10-15T18:20:18Z</time>
      </trkpt>
      <trkpt lat="40.929853" lon="-4.727549">
        <ele>813.435</ele>
        <time>2021-10-15T18:20:20Z</time>
      </trkpt>
      <trkpt lat="40.929672" lon="-4.727505">
        <ele>813.543</ele>
        <time>2021-10-15T18:20:21Z</time>
      </trkpt>
      <trkpt lat="40.929274" lon="-4.727450">
        <ele>813.981</ele>
        <time>2021-10-15T18:20:23Z</time>
      </trkpt>
      <trkpt lat="40.929060" lon="-4.727435">
        <ele>814.115</ele>
        <time>2021-10-15T18:20:24Z</time>
      </trkpt>
      <trkpt lat="40.928611" lon="-4.727443">
        <ele>814.240</ele>
        <time>2021-10-15T18:20:26Z</time>
      </trkpt>
      <trkpt lat="40.928172" lon="-4.727474">
        <ele>814.178</ele>
        <time>2021-10-15T18:20:28Z</time>
      </trkpt>
      <trkpt lat="40.927958" lon="-4.727485">
        <ele>813.711</ele>
        <time>2021-10-15T18:20:29Z</time>
      </trkpt>
      <trkpt lat="40.927761" lon="-4.727495">
        <ele>813.776</ele>
        <time>2021-10-15T18:20:30Z</time>
      </trkpt>
      <trkpt lat="40.927383" lon="-4.727517">
        <ele>814.096</ele>
        <time>2021-10-15T18:20:32Z</time>
      </trkpt>
      <trkpt lat="40.927033" lon="-4.727531">
        <ele>814.431</ele>
        <time>2021-10-15T18:20:34Z</time>
      </trkpt>
      <trkpt lat="40.926622" lon="-4.727561">
        <ele>814.824</ele>
        <time>2021-10-15T18:20:36Z</time>
      </trkpt>
      <trkpt lat="40.926174" lon="-4.727579">
        <ele>815.208</ele>
        <time>2021-10-15T18:20:38Z</time>
      </trkpt>
      <trkpt lat="40.925940" lon="-4.727588">
        <ele>815.367</ele>
        <time>2021-10-15T18:20:39Z</time>
      </trkpt>
      <trkpt lat="40.925470" lon="-4.727609">
        <ele>815.535</ele>
        <time>2021-10-15T18:20:41Z</time>
      </trkpt>
      <trkpt lat="40.925039" lon="-4.727649">
        <ele>815.073</ele>
        <time>2021-10-15T18:20:43Z</time>
      </trkpt>
      <trkpt lat="40.924598" lon="-4.727742">
        <ele>815.617</ele>
        <time>2021-10-15T18:20:45Z</time>
      </trkpt>
      <trkpt lat="40.924146" lon="-4.727887">
        <ele>816.092</ele>
        <time>2021-10-15T18:20:47Z</time>
      </trkpt>
      <trkpt lat="40.923704" lon="-4.728050">
        <ele>816.380</ele>
        <time>2021-10-15T18:20:49Z</time>
      </trkpt>
      <trkpt lat="40.923479" lon="-4.728132">
        <ele>816.783</ele>
        <time>2021-10-15T18:20:50Z</time>
      </trkpt>
      <trkpt lat="40.923043" lon="-4.728291">
        <ele>816.268</ele>
        <time>2021-10-15T18:20:52Z</time>
      </trkpt>
      <trkpt lat="40.922824" lon="-4.728371">
        <ele>816.632</ele>
        <time>2021-10-15T18:20:53Z</time>
      </trkpt>
      <trkpt lat="40.922398" lon="-4.728525">
        <ele>816.992</ele>
        <time>2021-10-15T18:20:55Z</time>
      </trkpt>
      <trkpt lat="40.921968" lon="-4.728687">
        <ele>816.411</ele>
        <time>2021-10-15T18:20:57Z</time>
      </trkpt>
      <trkpt lat="40.921736" lon="-4.728772">
        <ele>816.208</ele>
        <time>2021-10-15T18:20:58Z</time>
      </trkpt>
      <trkpt lat="40.921249" lon="-4.728937">
        <ele>816.511</ele>
        <time>2021-10-15T18:21:00Z</time>
      </trkpt>
      <trkpt lat="40.920739" lon="-4.729098">
        <ele>816.949</ele>
        <time>2021-10-15T18:21:02Z</time>
      </trkpt>
      <trkpt lat="40.920240" lon="-4.729283">
        <ele>817.767</ele>
        <time>2021-10-15T18:21:04Z</time>
      </trkpt>
      <trkpt lat="40.919722" lon="-4.729443">
        <ele>818.551</ele>
        <time>2021-10-15T18:21:06Z</time>
      </trkpt>
      <trkpt lat="40.919187" lon="-4.729509">
        <ele>820.096</ele>
        <time>2021-10-15T18:21:08Z</time>
      </trkpt>
      <trkpt lat="40.918915" lon="-4.729496">
        <ele>820.614</ele>
        <time>2021-10-15T18:21:09Z</time>
      </trkpt>
      <trkpt lat="40.918407" lon="-4.729419">
        <ele>822.387</ele>
        <time>2021-10-15T18:21:11Z</time>
      </trkpt>
      <trkpt lat="40.917968" lon="-4.729335">
        <ele>823.162</ele>
        <time>2021-10-15T18:21:13Z</time>
      </trkpt>
      <trkpt lat="40.917754" lon="-4.729301">
        <ele>823.648</ele>
        <time>2021-10-15T18:21:14Z</time>
      </trkpt>
      <trkpt lat="40.917548" lon="-4.729273">
        <ele>824.161</ele>
        <time>2021-10-15T18:21:15Z</time>
      </trkpt>
      <trkpt lat="40.917147" lon="-4.729201">
        <ele>823.717</ele>
        <time>2021-10-15T18:21:17Z</time>
      </trkpt>
      <trkpt lat="40.916778" lon="-4.729068">
        <ele>824.008</ele>
        <time>2021-10-15T18:21:19Z</time>
      </trkpt>
      <trkpt lat="40.916453" lon="-4.728888">
        <ele>823.442</ele>
        <time>2021-10-15T18:21:21Z</time>
      </trkpt>
      <trkpt lat="40.916116" lon="-4.728691">
        <ele>823.240</ele>
        <time>2021-10-15T18:21:23Z</time>
      </trkpt>
      <trkpt lat="40.915757" lon="-4.728491">
        <ele>822.358</ele>
        <time>2021-10-15T18:21:25Z</time>
      </trkpt>
      <trkpt lat="40.915567" lon="-4.728383">
        <ele>822.222</ele>
        <time>2021-10-15T18:21:26Z</time>
      </trkpt>
      <trkpt lat="40.915192" lon="-4.728187">
        <ele>821.497</ele>
        <time>2021-10-15T18:21:28Z</time>
      </trkpt>
      <trkpt lat="40.914798" lon="-4.727965">
        <ele>821.175</ele>
        <time>2021-10-15T18:21:30Z</time>
      </trkpt>
      <trkpt lat="40.914594" lon="-4.727850">
        <ele>821.088</ele>
        <time>2021-10-15T18:21:31Z</time>
      </trkpt>
      <trkpt lat="40.914379" lon="-4.727733">
        <ele>820.433</ele>
        <time>2021-10-15T18:21:32Z</time>
      </trkpt>
      <trkpt lat="40.913948" lon="-4.727499">
        <ele>820.274</ele>
        <time>2021-10-15T18:21:34Z</time>
      </trkpt>
      <trkpt lat="40.913725" lon="-4.727378">
        <ele>819.456</ele>
        <time>2021-10-15T18:21:35Z</time>
      </trkpt>
      <trkpt lat="40.913289" lon="-4.727131">
        <ele>819.421</ele>
        <time>2021-10-15T18:21:37Z</time>
      </trkpt>
      <trkpt lat="40.913074" lon="-4.727004">
        <ele>819.608</ele>
        <time>2021-10-15T18:21:38Z</time>
      </trkpt>
      <trkpt lat="40.912627" lon="-4.726738">
        <ele>820.075</ele>
        <time>2021-10-15T18:21:40Z</time>
      </trkpt>
      <trkpt lat="40.912150" lon="-4.726471">
        <ele>820.243</ele>
        <time>2021-10-15T18:21:42Z</time>
      </trkpt>
      <trkpt lat="40.911904" lon="-4.726337">
        <ele>820.621</ele>
        <time>2021-10-15T18:21:43Z</time>
      </trkpt>
      <trkpt lat="40.911403" lon="-4.726061">
        <ele>820.375</ele>
        <time>2021-10-15T18:21:45Z</time>
      </trkpt>
      <trkpt lat="40.911151" lon="-4.725917">
        <ele>820.570</ele>
        <time>2021-10-15T18:21:46Z</time>
      </trkpt>
      <trkpt lat="40.910656" lon="-4.725617">
        <ele>821.788</ele>
        <time>2021-10-15T18:21:48Z</time>
      </trkpt>
      <trkpt lat="40.910153" lon="-4.725354">
        <ele>823.341</ele>
        <time>2021-10-15T18:21:50Z</time>
      </trkpt>
      <trkpt lat="40.909906" lon="-4.725225">
        <ele>823.646</ele>
        <time>2021-10-15T18:21:51Z</time>
      </trkpt>
      <trkpt lat="40.909432" lon="-4.724974">
        <ele>824.916</ele>
        <time>2021-10-15T18:21:53Z</time>
      </trkpt>
      <trkpt lat="40.909203" lon="-4.724847">
        <ele>825.976</ele>
        <time>2021-10-15T18:21:54Z</time>
      </trkpt>
      <trkpt lat="40.908974" lon="-4.724725">
        <ele>826.613</ele>
        <time>2021-10-15T18:21:55Z</time>
      </trkpt>
      <trkpt lat="40.908735" lon="-4.724601">
        <ele>827.608</ele>
        <time>2021-10-15T18:21:56Z</time>
      </trkpt>
      <trkpt lat="40.908305" lon="-4.724369">
        <ele>828.969</ele>
        <time>2021-10-15T18:21:58Z</time>
      </trkpt>
      <trkpt lat="40.908079" lon="-4.724247">
        <ele>829.567</ele>
        <time>2021-10-15T18:21:59Z</time>
      </trkpt>
      <trkpt lat="40.907856" lon="-4.724132">
        <ele>830.155</ele>
        <time>2021-10-15T18:22:00Z</time>
      </trkpt>
      <trkpt lat="40.907399" lon="-4.723902">
        <ele>832.139</ele>
        <time>2021-10-15T18:22:02Z</time>
      </trkpt>
      <trkpt lat="40.906953" lon="-4.723679">
        <ele>832.784</ele>
        <time>2021-10-15T18:22:04Z</time>
      </trkpt>
      <trkpt lat="40.906716" lon="-4.723560">
        <ele>833.012</ele>
        <time>2021-10-15T18:22:05Z</time>
      </trkpt>
      <trkpt lat="40.906224" lon="-4.723317">
        <ele>834.045</ele>
        <time>2021-10-15T18:22:07Z</time>
      </trkpt>
      <trkpt lat="40.905969" lon="-4.723192">
        <ele>834.230</ele>
        <time>2021-10-15T18:22:08Z</time>
      </trkpt>
      <trkpt lat="40.905712" lon="-4.723064">
        <ele>833.313</ele>
        <time>2021-10-15T18:22:09Z</time>
      </trkpt>
      <trkpt lat="40.905187" lon="-4.722798">
        <ele>833.543</ele>
        <time>2021-10-15T18:22:11Z</time>
      </trkpt>
      <trkpt lat="40.904671" lon="-4.722544">
        <ele>833.007</ele>
        <time>2021-10-15T18:22:13Z</time>
      </trkpt>
      <trkpt lat="40.904174" lon="-4.722286">
        <ele>832.608</ele>
        <time>2021-10-15T18:22:15Z</time>
      </trkpt>
      <trkpt lat="40.903939" lon="-4.722165">
        <ele>832.459</ele>
        <time>2021-10-15T18:22:16Z</time>
      </trkpt>
      <trkpt lat="40.903485" lon="-4.721933">
        <ele>832.747</ele>
        <time>2021-10-15T18:22:18Z</time>
      </trkpt>
      <trkpt lat="40.903258" lon="-4.721816">
        <ele>832.785</ele>
        <time>2021-10-15T18:22:19Z</time>
      </trkpt>
      <trkpt lat="40.902803" lon="-4.721575">
        <ele>833.389</ele>
        <time>2021-10-15T18:22:21Z</time>
      </trkpt>
      <trkpt lat="40.902339" lon="-4.721336">
        <ele>833.714</ele>
        <time>2021-10-15T18:22:23Z</time>
      </trkpt>
      <trkpt lat="40.902099" lon="-4.721218">
        <ele>833.422</ele>
        <time>2021-10-15T18:22:24Z</time>
      </trkpt>
      <trkpt lat="40.901591" lon="-4.720980">
        <ele>832.885</ele>
        <time>2021-10-15T18:22:26Z</time>
      </trkpt>
      <trkpt lat="40.901079" lon="-4.720768">
        <ele>833.150</ele>
        <time>2021-10-15T18:22:28Z</time>
      </trkpt>
      <trkpt lat="40.900797" lon="-4.720681">
        <ele>832.628</ele>
        <time>2021-10-15T18:22:29Z</time>
      </trkpt>
      <trkpt lat="40.900218" lon="-4.720619">
        <ele>833.089</ele>
        <time>2021-10-15T18:22:31Z</time>
      </trkpt>
      <trkpt lat="40.899918" lon="-4.720616">
        <ele>833.117</ele>
        <time>2021-10-15T18:22:32Z</time>
      </trkpt>
      <trkpt lat="40.899336" lon="-4.720594">
        <ele>833.608</ele>
        <time>2021-10-15T18:22:34Z</time>
      </trkpt>
      <trkpt lat="40.899035" lon="-4.720577">
        <ele>833.810</ele>
        <time>2021-10-15T18:22:35Z</time>
      </trkpt>
      <trkpt lat="40.898429" lon="-4.720563">
        <ele>834.758</ele>
        <time>2021-10-15T18:22:37Z</time>
      </trkpt>
      <trkpt lat="40.898119" lon="-4.720546">
        <ele>834.976</ele>
        <time>2021-10-15T18:22:38Z</time>
      </trkpt>
      <trkpt lat="40.897481" lon="-4.720497">
        <ele>834.740</ele>
        <time>2021-10-15T18:22:40Z</time>
      </trkpt>
      <trkpt lat="40.897158" lon="-4.720467">
        <ele>834.525</ele>
        <time>2021-10-15T18:22:41Z</time>
      </trkpt>
      <trkpt lat="40.896517" lon="-4.720398">
        <ele>834.333</ele>
        <time>2021-10-15T18:22:43Z</time>
      </trkpt>
      <trkpt lat="40.895889" lon="-4.720346">
        <ele>834.296</ele>
        <time>2021-10-15T18:22:45Z</time>
      </trkpt>
      <trkpt lat="40.895575" lon="-4.720319">
        <ele>834.151</ele>
        <time>2021-10-15T18:22:46Z</time>
      </trkpt>
      <trkpt lat="40.894998" lon="-4.720264">
        <ele>835.027</ele>
        <time>2021-10-15T18:22:48Z</time>
      </trkpt>
      <trkpt lat="40.894709" lon="-4.720234">
        <ele>834.668</ele>
        <time>2021-10-15T18:22:49Z</time>
      </trkpt>
      <trkpt lat="40.894135" lon="-4.720187">
        <ele>834.614</ele>
        <time>2021-10-15T18:22:51Z</time>
      </trkpt>
      <trkpt lat="40.893850" lon="-4.720157">
        <ele>835.108</ele>
        <time>2021-10-15T18:22:52Z</time>
      </trkpt>
      <trkpt lat="40.893287" lon="-4.720106">
        <ele>835.290</ele>
        <time>2021-10-15T18:22:54Z</time>
      </trkpt>
      <trkpt lat="40.892714" lon="-4.720044">
        <ele>835.318</ele>
        <time>2021-10-15T18:22:56Z</time>
      </trkpt>
      <trkpt lat="40.892177" lon="-4.720000">
        <ele>835.226</ele>
        <time>2021-10-15T18:22:58Z</time>
      </trkpt>
      <trkpt lat="40.891899" lon="-4.719977">
        <ele>835.110</ele>
        <time>2021-10-15T18:22:59Z</time>
      </trkpt>
      <trkpt lat="40.891616" lon="-4.719948">
        <ele>835.055</ele>
        <time>2021-10-15T18:23:00Z</time>
      </trkpt>
      <trkpt lat="40.891047" lon="-4.719892">
        <ele>834.633</ele>
        <time>2021-10-15T18:23:02Z</time>
      </trkpt>
      <trkpt lat="40.890492" lon="-4.719842">
        <ele>834.466</ele>
        <time>2021-10-15T18:23:04Z</time>
      </trkpt>
      <trkpt lat="40.890207" lon="-4.719813">
        <ele>835.081</ele>
        <time>2021-10-15T18:23:05Z</time>
      </trkpt>
      <trkpt lat="40.889636" lon="-4.719758">
        <ele>835.766</ele>
        <time>2021-10-15T18:23:07Z</time>
      </trkpt>
      <trkpt lat="40.889349" lon="-4.719735">
        <ele>836.329</ele>
        <time>2021-10-15T18:23:08Z</time>
      </trkpt>
      <trkpt lat="40.888780" lon="-4.719681">
        <ele>835.821</ele>
        <time>2021-10-15T18:23:10Z</time>
      </trkpt>
      <trkpt lat="40.888493" lon="-4.719657">
        <ele>835.708</ele>
        <time>2021-10-15T18:23:11Z</time>
      </trkpt>
      <trkpt lat="40.888206" lon="-4.719631">
        <ele>835.954</ele>
        <time>2021-10-15T18:23:12Z</time>
      </trkpt>
      <trkpt lat="40.887917" lon="-4.719604">
        <ele>835.912</ele>
        <time>2021-10-15T18:23:13Z</time>
      </trkpt>
      <trkpt lat="40.887630" lon="-4.719569">
        <ele>836.360</ele>
        <time>2021-10-15T18:23:14Z</time>
      </trkpt>
      <trkpt lat="40.887055" lon="-4.719467">
        <ele>836.174</ele>
        <time>2021-10-15T18:23:16Z</time>
      </trkpt>
      <trkpt lat="40.886484" lon="-4.719294">
        <ele>835.389</ele>
        <time>2021-10-15T18:23:18Z</time>
      </trkpt>
      <trkpt lat="40.885930" lon="-4.719111">
        <ele>833.617</ele>
        <time>2021-10-15T18:23:20Z</time>
      </trkpt>
      <trkpt lat="40.885667" lon="-4.719031">
        <ele>833.050</ele>
        <time>2021-10-15T18:23:21Z</time>
      </trkpt>
      <trkpt lat="40.885416" lon="-4.718955">
        <ele>832.635</ele>
        <time>2021-10-15T18:23:22Z</time>
      </trkpt>
      <trkpt lat="40.884933" lon="-4.718805">
        <ele>831.155</ele>
        <time>2021-10-15T18:23:24Z</time>
      </trkpt>
      <trkpt lat="40.884442" lon="-4.718652">
        <ele>830.207</ele>
        <time>2021-10-15T18:23:26Z</time>
      </trkpt>
      <trkpt lat="40.883952" lon="-4.718496">
        <ele>829.517</ele>
        <time>2021-10-15T18:23:28Z</time>
      </trkpt>
      <trkpt lat="40.883470" lon="-4.718344">
        <ele>829.208</ele>
        <time>2021-10-15T18:23:30Z</time>
      </trkpt>
      <trkpt lat="40.883241" lon="-4.718273">
        <ele>828.973</ele>
        <time>2021-10-15T18:23:31Z</time>
      </trkpt>
      <trkpt lat="40.883013" lon="-4.718203">
        <ele>829.171</ele>
        <time>2021-10-15T18:23:32Z</time>
      </trkpt>
      <trkpt lat="40.882601" lon="-4.718084">
        <ele>829.049</ele>
        <time>2021-10-15T18:23:34Z</time>
      </trkpt>
      <trkpt lat="40.882190" lon="-4.717970">
        <ele>829.283</ele>
        <time>2021-10-15T18:23:36Z</time>
      </trkpt>
      <trkpt lat="40.881976" lon="-4.717914">
        <ele>829.558</ele>
        <time>2021-10-15T18:23:37Z</time>
      </trkpt>
      <trkpt lat="40.881766" lon="-4.717854">
        <ele>829.416</ele>
        <time>2021-10-15T18:23:38Z</time>
      </trkpt>
      <trkpt lat="40.881340" lon="-4.717722">
        <ele>829.219</ele>
        <time>2021-10-15T18:23:40Z</time>
      </trkpt>
      <trkpt lat="40.880909" lon="-4.717581">
        <ele>830.244</ele>
        <time>2021-10-15T18:23:42Z</time>
      </trkpt>
      <trkpt lat="40.880692" lon="-4.717520">
        <ele>830.259</ele>
        <time>2021-10-15T18:23:43Z</time>
      </trkpt>
      <trkpt lat="40.880266" lon="-4.717428">
        <ele>829.403</ele>
        <time>2021-10-15T18:23:45Z</time>
      </trkpt>
      <trkpt lat="40.880048" lon="-4.717397">
        <ele>829.223</ele>
        <time>2021-10-15T18:23:46Z</time>
      </trkpt>
      <trkpt lat="40.879827" lon="-4.717379">
        <ele>829.808</ele>
        <time>2021-10-15T18:23:47Z</time>
      </trkpt>
      <trkpt lat="40.879378" lon="-4.717438">
        <ele>830.413</ele>
        <time>2021-10-15T18:23:49Z</time>
      </trkpt>
      <trkpt lat="40.879148" lon="-4.717508">
        <ele>830.551</ele>
        <time>2021-10-15T18:23:50Z</time>
      </trkpt>
      <trkpt lat="40.878667" lon="-4.717642">
        <ele>830.369</ele>
        <time>2021-10-15T18:23:52Z</time>
      </trkpt>
      <trkpt lat="40.878150" lon="-4.717777">
        <ele>830.193</ele>
        <time>2021-10-15T18:23:54Z</time>
      </trkpt>
      <trkpt lat="40.877883" lon="-4.717856">
        <ele>829.928</ele>
        <time>2021-10-15T18:23:55Z</time>
      </trkpt>
      <trkpt lat="40.877609" lon="-4.717961">
        <ele>829.746</ele>
        <time>2021-10-15T18:23:56Z</time>
      </trkpt>
      <trkpt lat="40.877110" lon="-4.718251">
        <ele>830.339</ele>
        <time>2021-10-15T18:23:58Z</time>
      </trkpt>
      <trkpt lat="40.876853" lon="-4.718424">
        <ele>830.574</ele>
        <time>2021-10-15T18:23:59Z</time>
      </trkpt>
      <trkpt lat="40.876590" lon="-4.718592">
        <ele>830.435</ele>
        <time>2021-10-15T18:24:00Z</time>
      </trkpt>
      <trkpt lat="40.876059" lon="-4.718942">
        <ele>830.186</ele>
        <time>2021-10-15T18:24:02Z</time>
      </trkpt>
      <trkpt lat="40.875535" lon="-4.719267">
        <ele>830.814</ele>
        <time>2021-10-15T18:24:04Z</time>
      </trkpt>
      <trkpt lat="40.875264" lon="-4.719436">
        <ele>830.708</ele>
        <time>2021-10-15T18:24:05Z</time>
      </trkpt>
      <trkpt lat="40.874730" lon="-4.719781">
        <ele>830.891</ele>
        <time>2021-10-15T18:24:07Z</time>
      </trkpt>
      <trkpt lat="40.874195" lon="-4.720125">
        <ele>830.689</ele>
        <time>2021-10-15T18:24:09Z</time>
      </trkpt>
      <trkpt lat="40.873924" lon="-4.720297">
        <ele>830.527</ele>
        <time>2021-10-15T18:24:10Z</time>
      </trkpt>
      <trkpt lat="40.873388" lon="-4.720642">
        <ele>830.871</ele>
        <time>2021-10-15T18:24:12Z</time>
      </trkpt>
      <trkpt lat="40.872870" lon="-4.720979">
        <ele>831.036</ele>
        <time>2021-10-15T18:24:14Z</time>
      </trkpt>
      <trkpt lat="40.872379" lon="-4.721287">
        <ele>830.914</ele>
        <time>2021-10-15T18:24:16Z</time>
      </trkpt>
      <trkpt lat="40.871908" lon="-4.721578">
        <ele>831.527</ele>
        <time>2021-10-15T18:24:18Z</time>
      </trkpt>
      <trkpt lat="40.871678" lon="-4.721722">
        <ele>831.422</ele>
        <time>2021-10-15T18:24:19Z</time>
      </trkpt>
      <trkpt lat="40.871223" lon="-4.722007">
        <ele>831.996</ele>
        <time>2021-10-15T18:24:21Z</time>
      </trkpt>
      <trkpt lat="40.870760" lon="-4.722298">
        <ele>832.131</ele>
        <time>2021-10-15T18:24:23Z</time>
      </trkpt>
      <trkpt lat="40.870284" lon="-4.722589">
        <ele>832.824</ele>
        <time>2021-10-15T18:24:25Z</time>
      </trkpt>
      <trkpt lat="40.870032" lon="-4.722745">
        <ele>832.708</ele>
        <time>2021-10-15T18:24:26Z</time>
      </trkpt>
      <trkpt lat="40.869541" lon="-4.723048">
        <ele>833.217</ele>
        <time>2021-10-15T18:24:28Z</time>
      </trkpt>
      <trkpt lat="40.869277" lon="-4.723204">
        <ele>833.285</ele>
        <time>2021-10-15T18:24:29Z</time>
      </trkpt>
      <trkpt lat="40.868747" lon="-4.723522">
        <ele>833.233</ele>
        <time>2021-10-15T18:24:31Z</time>
      </trkpt>
      <trkpt lat="40.868469" lon="-4.723690">
        <ele>833.597</ele>
        <time>2021-10-15T18:24:32Z</time>
      </trkpt>
      <trkpt lat="40.867954" lon="-4.724024">
        <ele>834.432</ele>
        <time>2021-10-15T18:24:34Z</time>
      </trkpt>
      <trkpt lat="40.867419" lon="-4.724354">
        <ele>834.510</ele>
        <time>2021-10-15T18:24:36Z</time>
      </trkpt>
      <trkpt lat="40.866874" lon="-4.724656">
        <ele>834.513</ele>
        <time>2021-10-15T18:24:38Z</time>
      </trkpt>
      <trkpt lat="40.866602" lon="-4.724794">
        <ele>834.238</ele>
        <time>2021-10-15T18:24:39Z</time>
      </trkpt>
      <trkpt lat="40.866334" lon="-4.724929">
        <ele>834.161</ele>
        <time>2021-10-15T18:24:40Z</time>
      </trkpt>
      <trkpt lat="40.865819" lon="-4.725185">
        <ele>835.121</ele>
        <time>2021-10-15T18:24:42Z</time>
      </trkpt>
      <trkpt lat="40.865567" lon="-4.725310">
        <ele>835.413</ele>
        <time>2021-10-15T18:24:43Z</time>
      </trkpt>
      <trkpt lat="40.865319" lon="-4.725435">
        <ele>835.408</ele>
        <time>2021-10-15T18:24:44Z</time>
      </trkpt>
      <trkpt lat="40.864838" lon="-4.725680">
        <ele>835.484</ele>
        <time>2021-10-15T18:24:46Z</time>
      </trkpt>
      <trkpt lat="40.864368" lon="-4.725920">
        <ele>836.362</ele>
        <time>2021-10-15T18:24:48Z</time>
      </trkpt>
      <trkpt lat="40.863918" lon="-4.726158">
        <ele>836.070</ele>
        <time>2021-10-15T18:24:50Z</time>
      </trkpt>
      <trkpt lat="40.863476" lon="-4.726393">
        <ele>836.834</ele>
        <time>2021-10-15T18:24:52Z</time>
      </trkpt>
      <trkpt lat="40.863037" lon="-4.726615">
        <ele>837.629</ele>
        <time>2021-10-15T18:24:54Z</time>
      </trkpt>
      <trkpt lat="40.862808" lon="-4.726733">
        <ele>837.687</ele>
        <time>2021-10-15T18:24:55Z</time>
      </trkpt>
      <trkpt lat="40.862581" lon="-4.726858">
        <ele>837.780</ele>
        <time>2021-10-15T18:24:56Z</time>
      </trkpt>
      <trkpt lat="40.862168" lon="-4.727145">
        <ele>837.725</ele>
        <time>2021-10-15T18:24:58Z</time>
      </trkpt>
      <trkpt lat="40.861964" lon="-4.727322">
        <ele>838.043</ele>
        <time>2021-10-15T18:24:59Z</time>
      </trkpt>
      <trkpt lat="40.861768" lon="-4.727509">
        <ele>838.264</ele>
        <time>2021-10-15T18:25:00Z</time>
      </trkpt>
      <trkpt lat="40.861383" lon="-4.727898">
        <ele>839.510</ele>
        <time>2021-10-15T18:25:02Z</time>
      </trkpt>
      <trkpt lat="40.861042" lon="-4.728233">
        <ele>839.208</ele>
        <time>2021-10-15T18:25:04Z</time>
      </trkpt>
      <trkpt lat="40.860728" lon="-4.728534">
        <ele>840.132</ele>
        <time>2021-10-15T18:25:06Z</time>
      </trkpt>
      <trkpt lat="40.860582" lon="-4.728673">
        <ele>840.590</ele>
        <time>2021-10-15T18:25:07Z</time>
      </trkpt>
      <trkpt lat="40.860315" lon="-4.728923">
        <ele>841.778</ele>
        <time>2021-10-15T18:25:09Z</time>
      </trkpt>
      <trkpt lat="40.860071" lon="-4.729137">
        <ele>842.122</ele>
        <time>2021-10-15T18:25:11Z</time>
      </trkpt>
      <trkpt lat="40.859946" lon="-4.729240">
        <ele>842.187</ele>
        <time>2021-10-15T18:25:12Z</time>
      </trkpt>
      <trkpt lat="40.859702" lon="-4.729433">
        <ele>842.435</ele>
        <time>2021-10-15T18:25:14Z</time>
      </trkpt>
      <trkpt lat="40.859465" lon="-4.729622">
        <ele>841.588</ele>
        <time>2021-10-15T18:25:16Z</time>
      </trkpt>
      <trkpt lat="40.859228" lon="-4.729804">
        <ele>840.943</ele>
        <time>2021-10-15T18:25:18Z</time>
      </trkpt>
      <trkpt lat="40.859108" lon="-4.729885">
        <ele>841.444</ele>
        <time>2021-10-15T18:25:19Z</time>
      </trkpt>
      <trkpt lat="40.858992" lon="-4.729961">
        <ele>841.805</ele>
        <time>2021-10-15T18:25:20Z</time>
      </trkpt>
      <trkpt lat="40.858773" lon="-4.730088">
        <ele>843.015</ele>
        <time>2021-10-15T18:25:22Z</time>
      </trkpt>
      <trkpt lat="40.858559" lon="-4.730174">
        <ele>843.808</ele>
        <time>2021-10-15T18:25:24Z</time>
      </trkpt>
      <trkpt lat="40.858449" lon="-4.730208">
        <ele>843.882</ele>
        <time>2021-10-15T18:25:25Z</time>
      </trkpt>
      <trkpt lat="40.858328" lon="-4.730241">
        <ele>844.020</ele>
        <time>2021-10-15T18:25:26Z</time>
      </trkpt>
      <trkpt lat="40.858086" lon="-4.730308">
        <ele>844.638</ele>
        <time>2021-10-15T18:25:28Z</time>
      </trkpt>
      <trkpt lat="40.857954" lon="-4.730352">
        <ele>845.572</ele>
        <time>2021-10-15T18:25:29Z</time>
      </trkpt>
      <trkpt lat="40.857830" lon="-4.730405">
        <ele>845.817</ele>
        <time>2021-10-15T18:25:30Z</time>
      </trkpt>
      <trkpt lat="40.857710" lon="-4.730464">
        <ele>846.115</ele>
        <time>2021-10-15T18:25:31Z</time>
      </trkpt>
      <trkpt lat="40.857595" lon="-4.730527">
        <ele>845.888</ele>
        <time>2021-10-15T18:25:32Z</time>
      </trkpt>
      <trkpt lat="40.857392" lon="-4.730633">
        <ele>846.673</ele>
        <time>2021-10-15T18:25:34Z</time>
      </trkpt>
      <trkpt lat="40.857188" lon="-4.730705">
        <ele>847.073</ele>
        <time>2021-10-15T18:25:36Z</time>
      </trkpt>
      <trkpt lat="40.857078" lon="-4.730733">
        <ele>847.085</ele>
        <time>2021-10-15T18:25:37Z</time>
      </trkpt>
      <trkpt lat="40.856853" lon="-4.730789">
        <ele>847.513</ele>
        <time>2021-10-15T18:25:39Z</time>
      </trkpt>
      <trkpt lat="40.856649" lon="-4.730835">
        <ele>847.908</ele>
        <time>2021-10-15T18:25:41Z</time>
      </trkpt>
      <trkpt lat="40.856461" lon="-4.730871">
        <ele>847.915</ele>
        <time>2021-10-15T18:25:43Z</time>
      </trkpt>
      <trkpt lat="40.856372" lon="-4.730886">
        <ele>848.053</ele>
        <time>2021-10-15T18:25:44Z</time>
      </trkpt>
      <trkpt lat="40.856225" lon="-4.730914">
        <ele>848.651</ele>
        <time>2021-10-15T18:25:46Z</time>
      </trkpt>
      <trkpt lat="40.856123" lon="-4.730938">
        <ele>849.135</ele>
        <time>2021-10-15T18:25:48Z</time>
      </trkpt>
      <trkpt lat="40.856067" lon="-4.730950">
        <ele>849.320</ele>
        <time>2021-10-15T18:25:49Z</time>
      </trkpt>
      <trkpt lat="40.855921" lon="-4.730983">
        <ele>849.338</ele>
        <time>2021-10-15T18:25:51Z</time>
      </trkpt>
      <trkpt lat="40.855832" lon="-4.731002">
        <ele>849.211</ele>
        <time>2021-10-15T18:25:52Z</time>
      </trkpt>
      <trkpt lat="40.855747" lon="-4.731022">
        <ele>849.356</ele>
        <time>2021-10-15T18:25:53Z</time>
      </trkpt>
      <trkpt lat="40.855603" lon="-4.731089">
        <ele>849.573</ele>
        <time>2021-10-15T18:25:55Z</time>
      </trkpt>
      <trkpt lat="40.855536" lon="-4.731149">
        <ele>849.985</ele>
        <time>2021-10-15T18:25:56Z</time>
      </trkpt>
      <trkpt lat="40.855436" lon="-4.731280">
        <ele>850.313</ele>
        <time>2021-10-15T18:25:58Z</time>
      </trkpt>
      <trkpt lat="40.855388" lon="-4.731370">
        <ele>850.308</ele>
        <time>2021-10-15T18:25:59Z</time>
      </trkpt>
      <trkpt lat="40.855287" lon="-4.731501">
        <ele>850.375</ele>
        <time>2021-10-15T18:26:01Z</time>
      </trkpt>
      <trkpt lat="40.855221" lon="-4.731521">
        <ele>850.333</ele>
        <time>2021-10-15T18:26:02Z</time>
      </trkpt>
      <trkpt lat="40.855101" lon="-4.731432">
        <ele>850.121</ele>
        <time>2021-10-15T18:26:04Z</time>
      </trkpt>
      <trkpt lat="40.855029" lon="-4.731211">
        <ele>849.785</ele>
        <time>2021-10-15T18:26:06Z</time>
      </trkpt>
      <trkpt lat="40.854989" lon="-4.731095">
        <ele>849.050</ele>
        <time>2021-10-15T18:26:07Z</time>
      </trkpt>
      <trkpt lat="40.854826" lon="-4.730935">
        <ele>847.988</ele>
        <time>2021-10-15T18:26:09Z</time>
      </trkpt>
      <trkpt lat="40.854579" lon="-4.730889">
        <ele>847.761</ele>
        <time>2021-10-15T18:26:11Z</time>
      </trkpt>
      <trkpt lat="40.854273" lon="-4.730876">
        <ele>848.276</ele>
        <time>2021-10-15T18:26:13Z</time>
      </trkpt>
      <trkpt lat="40.854105" lon="-4.730868">
        <ele>848.647</ele>
        <time>2021-10-15T18:26:14Z</time>
      </trkpt>
      <trkpt lat="40.853791" lon="-4.730851">
        <ele>849.329</ele>
        <time>2021-10-15T18:26:16Z</time>
      </trkpt>
      <trkpt lat="40.853626" lon="-4.730836">
        <ele>849.721</ele>
        <time>2021-10-15T18:26:17Z</time>
      </trkpt>
      <trkpt lat="40.853314" lon="-4.730791">
        <ele>850.508</ele>
        <time>2021-10-15T18:26:19Z</time>
      </trkpt>
      <trkpt lat="40.853170" lon="-4.730760">
        <ele>850.162</ele>
        <time>2021-10-15T18:26:20Z</time>
      </trkpt>
      <trkpt lat="40.852865" lon="-4.730681">
        <ele>851.090</ele>
        <time>2021-10-15T18:26:22Z</time>
      </trkpt>
      <trkpt lat="40.852700" lon="-4.730638">
        <ele>851.668</ele>
        <time>2021-10-15T18:26:23Z</time>
      </trkpt>
      <trkpt lat="40.852338" lon="-4.730551">
        <ele>852.252</ele>
        <time>2021-10-15T18:26:25Z</time>
      </trkpt>
      <trkpt lat="40.852137" lon="-4.730498">
        <ele>852.497</ele>
        <time>2021-10-15T18:26:26Z</time>
      </trkpt>
      <trkpt lat="40.851751" lon="-4.730400">
        <ele>852.075</ele>
        <time>2021-10-15T18:26:28Z</time>
      </trkpt>
      <trkpt lat="40.851559" lon="-4.730357">
        <ele>852.188</ele>
        <time>2021-10-15T18:26:29Z</time>
      </trkpt>
      <trkpt lat="40.851374" lon="-4.730315">
        <ele>852.463</ele>
        <time>2021-10-15T18:26:30Z</time>
      </trkpt>
      <trkpt lat="40.851017" lon="-4.730230">
        <ele>852.392</ele>
        <time>2021-10-15T18:26:32Z</time>
      </trkpt>
      <trkpt lat="40.850663" lon="-4.730143">
        <ele>852.673</ele>
        <time>2021-10-15T18:26:34Z</time>
      </trkpt>
      <trkpt lat="40.850466" lon="-4.730093">
        <ele>852.320</ele>
        <time>2021-10-15T18:26:35Z</time>
      </trkpt>
      <trkpt lat="40.850024" lon="-4.729985">
        <ele>851.708</ele>
        <time>2021-10-15T18:26:37Z</time>
      </trkpt>
      <trkpt lat="40.849781" lon="-4.729926">
        <ele>851.727</ele>
        <time>2021-10-15T18:26:38Z</time>
      </trkpt>
      <trkpt lat="40.849266" lon="-4.729801">
        <ele>852.085</ele>
        <time>2021-10-15T18:26:40Z</time>
      </trkpt>
      <trkpt lat="40.848999" lon="-4.729737">
        <ele>851.783</ele>
        <time>2021-10-15T18:26:41Z</time>
      </trkpt>
      <trkpt lat="40.848436" lon="-4.729601">
        <ele>852.357</ele>
        <time>2021-10-15T18:26:43Z</time>
      </trkpt>
      <trkpt lat="40.848142" lon="-4.729528">
        <ele>852.272</ele>
        <time>2021-10-15T18:26:44Z</time>
      </trkpt>
      <trkpt lat="40.847543" lon="-4.729371">
        <ele>852.740</ele>
        <time>2021-10-15T18:26:46Z</time>
      </trkpt>
      <trkpt lat="40.847233" lon="-4.729288">
        <ele>852.953</ele>
        <time>2021-10-15T18:26:47Z</time>
      </trkpt>
      <trkpt lat="40.846928" lon="-4.729216">
        <ele>852.898</ele>
        <time>2021-10-15T18:26:48Z</time>
      </trkpt>
      <trkpt lat="40.846317" lon="-4.729106">
        <ele>852.674</ele>
        <time>2021-10-15T18:26:50Z</time>
      </trkpt>
      <trkpt lat="40.845704" lon="-4.729070">
        <ele>853.656</ele>
        <time>2021-10-15T18:26:52Z</time>
      </trkpt>
      <trkpt lat="40.845392" lon="-4.729100">
        <ele>853.621</ele>
        <time>2021-10-15T18:26:53Z</time>
      </trkpt>
      <trkpt lat="40.844784" lon="-4.729169">
        <ele>854.808</ele>
        <time>2021-10-15T18:26:55Z</time>
      </trkpt>
      <trkpt lat="40.844474" lon="-4.729208">
        <ele>855.395</ele>
        <time>2021-10-15T18:26:56Z</time>
      </trkpt>
      <trkpt lat="40.843909" lon="-4.729271">
        <ele>854.853</ele>
        <time>2021-10-15T18:26:58Z</time>
      </trkpt>
      <trkpt lat="40.843335" lon="-4.729312">
        <ele>855.251</ele>
        <time>2021-10-15T18:27:00Z</time>
      </trkpt>
      <trkpt lat="40.842766" lon="-4.729351">
        <ele>856.335</ele>
        <time>2021-10-15T18:27:02Z</time>
      </trkpt>
      <trkpt lat="40.842236" lon="-4.729406">
        <ele>856.410</ele>
        <time>2021-10-15T18:27:04Z</time>
      </trkpt>
      <trkpt lat="40.841708" lon="-4.729576">
        <ele>856.968</ele>
        <time>2021-10-15T18:27:06Z</time>
      </trkpt>
      <trkpt lat="40.841438" lon="-4.729690">
        <ele>857.581</ele>
        <time>2021-10-15T18:27:07Z</time>
      </trkpt>
      <trkpt lat="40.841158" lon="-4.729819">
        <ele>858.376</ele>
        <time>2021-10-15T18:27:08Z</time>
      </trkpt>
      <trkpt lat="40.840594" lon="-4.730191">
        <ele>858.185</ele>
        <time>2021-10-15T18:27:10Z</time>
      </trkpt>
      <trkpt lat="40.840301" lon="-4.730422">
        <ele>858.689</ele>
        <time>2021-10-15T18:27:11Z</time>
      </trkpt>
      <trkpt lat="40.839994" lon="-4.730647">
        <ele>858.617</ele>
        <time>2021-10-15T18:27:12Z</time>
      </trkpt>
      <trkpt lat="40.839680" lon="-4.730870">
        <ele>858.608</ele>
        <time>2021-10-15T18:27:13Z</time>
      </trkpt>
      <trkpt lat="40.839370" lon="-4.731083">
        <ele>859.626</ele>
        <time>2021-10-15T18:27:14Z</time>
      </trkpt>
      <trkpt lat="40.838781" lon="-4.731477">
        <ele>859.844</ele>
        <time>2021-10-15T18:27:16Z</time>
      </trkpt>
      <trkpt lat="40.838484" lon="-4.731654">
        <ele>860.172</ele>
        <time>2021-10-15T18:27:17Z</time>
      </trkpt>
      <trkpt lat="40.838187" lon="-4.731807">
        <ele>860.486</ele>
        <time>2021-10-15T18:27:18Z</time>
      </trkpt>
      <trkpt lat="40.837595" lon="-4.732090">
        <ele>861.891</ele>
        <time>2021-10-15T18:27:20Z</time>
      </trkpt>
      <trkpt lat="40.837285" lon="-4.732220">
        <ele>861.699</ele>
        <time>2021-10-15T18:27:21Z</time>
      </trkpt>
      <trkpt lat="40.836684" lon="-4.732478">
        <ele>861.552</ele>
        <time>2021-10-15T18:27:23Z</time>
      </trkpt>
      <trkpt lat="40.836382" lon="-4.732611">
        <ele>860.877</ele>
        <time>2021-10-15T18:27:24Z</time>
      </trkpt>
      <trkpt lat="40.835768" lon="-4.732877">
        <ele>861.523</ele>
        <time>2021-10-15T18:27:26Z</time>
      </trkpt>
      <trkpt lat="40.835179" lon="-4.733133">
        <ele>861.083</ele>
        <time>2021-10-15T18:27:28Z</time>
      </trkpt>
      <trkpt lat="40.834875" lon="-4.733266">
        <ele>860.611</ele>
        <time>2021-10-15T18:27:29Z</time>
      </trkpt>
      <trkpt lat="40.834572" lon="-4.733400">
        <ele>860.708</ele>
        <time>2021-10-15T18:27:30Z</time>
      </trkpt>
      <trkpt lat="40.834273" lon="-4.733533">
        <ele>861.630</ele>
        <time>2021-10-15T18:27:31Z</time>
      </trkpt>
      <trkpt lat="40.833985" lon="-4.733661">
        <ele>861.388</ele>
        <time>2021-10-15T18:27:32Z</time>
      </trkpt>
      <trkpt lat="40.833487" lon="-4.733886">
        <ele>861.256</ele>
        <time>2021-10-15T18:27:34Z</time>
      </trkpt>
      <trkpt lat="40.833245" lon="-4.734001">
        <ele>861.260</ele>
        <time>2021-10-15T18:27:35Z</time>
      </trkpt>
      <trkpt lat="40.832752" lon="-4.734231">
        <ele>862.585</ele>
        <time>2021-10-15T18:27:37Z</time>
      </trkpt>
      <trkpt lat="40.832500" lon="-4.734342">
        <ele>862.533</ele>
        <time>2021-10-15T18:27:38Z</time>
      </trkpt>
      <trkpt lat="40.832002" lon="-4.734563">
        <ele>863.256</ele>
        <time>2021-10-15T18:27:40Z</time>
      </trkpt>
      <trkpt lat="40.831519" lon="-4.734798">
        <ele>863.861</ele>
        <time>2021-10-15T18:27:42Z</time>
      </trkpt>
      <trkpt lat="40.831041" lon="-4.735031">
        <ele>865.236</ele>
        <time>2021-10-15T18:27:44Z</time>
      </trkpt>
      <trkpt lat="40.830796" lon="-4.735141">
        <ele>865.617</ele>
        <time>2021-10-15T18:27:45Z</time>
      </trkpt>
      <trkpt lat="40.830545" lon="-4.735254">
        <ele>865.918</ele>
        <time>2021-10-15T18:27:46Z</time>
      </trkpt>
      <trkpt lat="40.830032" lon="-4.735487">
        <ele>867.008</ele>
        <time>2021-10-15T18:27:48Z</time>
      </trkpt>
      <trkpt lat="40.829524" lon="-4.735723">
        <ele>867.081</ele>
        <time>2021-10-15T18:27:50Z</time>
      </trkpt>
      <trkpt lat="40.829268" lon="-4.735839">
        <ele>867.419</ele>
        <time>2021-10-15T18:27:51Z</time>
      </trkpt>
      <trkpt lat="40.828758" lon="-4.736075">
        <ele>868.187</ele>
        <time>2021-10-15T18:27:53Z</time>
      </trkpt>
      <trkpt lat="40.828256" lon="-4.736294">
        <ele>869.061</ele>
        <time>2021-10-15T18:27:55Z</time>
      </trkpt>
      <trkpt lat="40.828009" lon="-4.736401">
        <ele>869.036</ele>
        <time>2021-10-15T18:27:56Z</time>
      </trkpt>
      <trkpt lat="40.827573" lon="-4.736591">
        <ele>870.334</ele>
        <time>2021-10-15T18:27:58Z</time>
      </trkpt>
      <trkpt lat="40.827147" lon="-4.736787">
        <ele>870.677</ele>
        <time>2021-10-15T18:28:00Z</time>
      </trkpt>
      <trkpt lat="40.826932" lon="-4.736886">
        <ele>870.872</ele>
        <time>2021-10-15T18:28:01Z</time>
      </trkpt>
      <trkpt lat="40.826712" lon="-4.736993">
        <ele>870.959</ele>
        <time>2021-10-15T18:28:02Z</time>
      </trkpt>
      <trkpt lat="40.826291" lon="-4.737202">
        <ele>872.603</ele>
        <time>2021-10-15T18:28:04Z</time>
      </trkpt>
      <trkpt lat="40.826075" lon="-4.737309">
        <ele>873.123</ele>
        <time>2021-10-15T18:28:05Z</time>
      </trkpt>
      <trkpt lat="40.825858" lon="-4.737417">
        <ele>874.308</ele>
        <time>2021-10-15T18:28:06Z</time>
      </trkpt>
      <trkpt lat="40.825423" lon="-4.737648">
        <ele>875.783</ele>
        <time>2021-10-15T18:28:08Z</time>
      </trkpt>
      <trkpt lat="40.825018" lon="-4.737877">
        <ele>875.991</ele>
        <time>2021-10-15T18:28:10Z</time>
      </trkpt>
      <trkpt lat="40.824686" lon="-4.738144">
        <ele>876.629</ele>
        <time>2021-10-15T18:28:12Z</time>
      </trkpt>
      <trkpt lat="40.824546" lon="-4.738346">
        <ele>877.393</ele>
        <time>2021-10-15T18:28:13Z</time>
      </trkpt>
      <trkpt lat="40.824423" lon="-4.738585">
        <ele>877.128</ele>
        <time>2021-10-15T18:28:14Z</time>
      </trkpt>
      <trkpt lat="40.824190" lon="-4.739134">
        <ele>876.836</ele>
        <time>2021-10-15T18:28:16Z</time>
      </trkpt>
      <trkpt lat="40.823918" lon="-4.739708">
        <ele>877.189</ele>
        <time>2021-10-15T18:28:18Z</time>
      </trkpt>
      <trkpt lat="40.823633" lon="-4.740283">
        <ele>878.964</ele>
        <time>2021-10-15T18:28:20Z</time>
      </trkpt>
      <trkpt lat="40.823376" lon="-4.740794">
        <ele>878.651</ele>
        <time>2021-10-15T18:28:22Z</time>
      </trkpt>
      <trkpt lat="40.823267" lon="-4.741042">
        <ele>877.401</ele>
        <time>2021-10-15T18:28:23Z</time>
      </trkpt>
      <trkpt lat="40.823043" lon="-4.741535">
        <ele>876.511</ele>
        <time>2021-10-15T18:28:25Z</time>
      </trkpt>
      <trkpt lat="40.822922" lon="-4.741797">
        <ele>875.708</ele>
        <time>2021-10-15T18:28:26Z</time>
      </trkpt>
      <trkpt lat="40.822703" lon="-4.742268">
        <ele>874.943</ele>
        <time>2021-10-15T18:28:28Z</time>
      </trkpt>
      <trkpt lat="40.822592" lon="-4.742506">
        <ele>874.431</ele>
        <time>2021-10-15T18:28:29Z</time>
      </trkpt>
      <trkpt lat="40.822478" lon="-4.742744">
        <ele>874.589</ele>
        <time>2021-10-15T18:28:30Z</time>
      </trkpt>
      <trkpt lat="40.822264" lon="-4.743211">
        <ele>873.613</ele>
        <time>2021-10-15T18:28:32Z</time>
      </trkpt>
      <trkpt lat="40.822059" lon="-4.743671">
        <ele>873.818</ele>
        <time>2021-10-15T18:28:34Z</time>
      </trkpt>
      <trkpt lat="40.821944" lon="-4.743926">
        <ele>873.486</ele>
        <time>2021-10-15T18:28:35Z</time>
      </trkpt>
      <trkpt lat="40.821685" lon="-4.744474">
        <ele>874.389</ele>
        <time>2021-10-15T18:28:37Z</time>
      </trkpt>
      <trkpt lat="40.821399" lon="-4.745089">
        <ele>875.314</ele>
        <time>2021-10-15T18:28:39Z</time>
      </trkpt>
      <trkpt lat="40.821103" lon="-4.745750">
        <ele>877.361</ele>
        <time>2021-10-15T18:28:41Z</time>
      </trkpt>
      <trkpt lat="40.820792" lon="-4.746398">
        <ele>878.721</ele>
        <time>2021-10-15T18:28:43Z</time>
      </trkpt>
      <trkpt lat="40.820423" lon="-4.747017">
        <ele>880.913</ele>
        <time>2021-10-15T18:28:45Z</time>
      </trkpt>
      <trkpt lat="40.820011" lon="-4.747605">
        <ele>881.408</ele>
        <time>2021-10-15T18:28:47Z</time>
      </trkpt>
      <trkpt lat="40.819800" lon="-4.747901">
        <ele>882.394</ele>
        <time>2021-10-15T18:28:48Z</time>
      </trkpt>
      <trkpt lat="40.819590" lon="-4.748192">
        <ele>883.422</ele>
        <time>2021-10-15T18:28:49Z</time>
      </trkpt>
      <trkpt lat="40.819382" lon="-4.748486">
        <ele>884.270</ele>
        <time>2021-10-15T18:28:50Z</time>
      </trkpt>
      <trkpt lat="40.818982" lon="-4.749077">
        <ele>886.884</ele>
        <time>2021-10-15T18:28:52Z</time>
      </trkpt>
      <trkpt lat="40.818783" lon="-4.749370">
        <ele>887.369</ele>
        <time>2021-10-15T18:28:53Z</time>
      </trkpt>
      <trkpt lat="40.818588" lon="-4.749657">
        <ele>886.827</ele>
        <time>2021-10-15T18:28:54Z</time>
      </trkpt>
      <trkpt lat="40.818181" lon="-4.750210">
        <ele>886.540</ele>
        <time>2021-10-15T18:28:56Z</time>
      </trkpt>
      <trkpt lat="40.817737" lon="-4.750686">
        <ele>886.365</ele>
        <time>2021-10-15T18:28:58Z</time>
      </trkpt>
      <trkpt lat="40.817242" lon="-4.751090">
        <ele>886.695</ele>
        <time>2021-10-15T18:29:00Z</time>
      </trkpt>
      <trkpt lat="40.816728" lon="-4.751449">
        <ele>887.049</ele>
        <time>2021-10-15T18:29:02Z</time>
      </trkpt>
      <trkpt lat="40.816240" lon="-4.751796">
        <ele>887.823</ele>
        <time>2021-10-15T18:29:04Z</time>
      </trkpt>
      <trkpt lat="40.815749" lon="-4.752157">
        <ele>888.008</ele>
        <time>2021-10-15T18:29:06Z</time>
      </trkpt>
      <trkpt lat="40.815507" lon="-4.752341">
        <ele>887.967</ele>
        <time>2021-10-15T18:29:07Z</time>
      </trkpt>
      <trkpt lat="40.815265" lon="-4.752526">
        <ele>887.875</ele>
        <time>2021-10-15T18:29:08Z</time>
      </trkpt>
      <trkpt lat="40.814787" lon="-4.752903">
        <ele>888.873</ele>
        <time>2021-10-15T18:29:10Z</time>
      </trkpt>
      <trkpt lat="40.814313" lon="-4.753279">
        <ele>888.937</ele>
        <time>2021-10-15T18:29:12Z</time>
      </trkpt>
      <trkpt lat="40.813842" lon="-4.753673">
        <ele>888.552</ele>
        <time>2021-10-15T18:29:14Z</time>
      </trkpt>
      <trkpt lat="40.813379" lon="-4.754065">
        <ele>887.730</ele>
        <time>2021-10-15T18:29:16Z</time>
      </trkpt>
      <trkpt lat="40.812915" lon="-4.754467">
        <ele>887.433</ele>
        <time>2021-10-15T18:29:18Z</time>
      </trkpt>
      <trkpt lat="40.812672" lon="-4.754667">
        <ele>886.788</ele>
        <time>2021-10-15T18:29:19Z</time>
      </trkpt>
      <trkpt lat="40.812189" lon="-4.755061">
        <ele>886.273</ele>
        <time>2021-10-15T18:29:21Z</time>
      </trkpt>
      <trkpt lat="40.811943" lon="-4.755257">
        <ele>886.285</ele>
        <time>2021-10-15T18:29:22Z</time>
      </trkpt>
      <trkpt lat="40.811698" lon="-4.755459">
        <ele>886.113</ele>
        <time>2021-10-15T18:29:23Z</time>
      </trkpt>
      <trkpt lat="40.811209" lon="-4.755853">
        <ele>886.708</ele>
        <time>2021-10-15T18:29:25Z</time>
      </trkpt>
      <trkpt lat="40.810963" lon="-4.756053">
        <ele>886.935</ele>
        <time>2021-10-15T18:29:26Z</time>
      </trkpt>
      <trkpt lat="40.810507" lon="-4.756416">
        <ele>888.433</ele>
        <time>2021-10-15T18:29:28Z</time>
      </trkpt>
      <trkpt lat="40.810265" lon="-4.756585">
        <ele>889.231</ele>
        <time>2021-10-15T18:29:29Z</time>
      </trkpt>
      <trkpt lat="40.810017" lon="-4.756732">
        <ele>889.825</ele>
        <time>2021-10-15T18:29:30Z</time>
      </trkpt>
      <trkpt lat="40.809493" lon="-4.756947">
        <ele>890.230</ele>
        <time>2021-10-15T18:29:32Z</time>
      </trkpt>
      <trkpt lat="40.808962" lon="-4.757065">
        <ele>890.118</ele>
        <time>2021-10-15T18:29:34Z</time>
      </trkpt>
      <trkpt lat="40.808403" lon="-4.757155">
        <ele>890.071</ele>
        <time>2021-10-15T18:29:36Z</time>
      </trkpt>
      <trkpt lat="40.807844" lon="-4.757254">
        <ele>889.576</ele>
        <time>2021-10-15T18:29:38Z</time>
      </trkpt>
      <trkpt lat="40.807324" lon="-4.757364">
        <ele>889.279</ele>
        <time>2021-10-15T18:29:40Z</time>
      </trkpt>
      <trkpt lat="40.806853" lon="-4.757486">
        <ele>888.905</ele>
        <time>2021-10-15T18:29:42Z</time>
      </trkpt>
      <trkpt lat="40.806403" lon="-4.757655">
        <ele>888.625</ele>
        <time>2021-10-15T18:29:44Z</time>
      </trkpt>
      <trkpt lat="40.805967" lon="-4.757865">
        <ele>888.308</ele>
        <time>2021-10-15T18:29:46Z</time>
      </trkpt>
      <trkpt lat="40.805749" lon="-4.757968">
        <ele>888.575</ele>
        <time>2021-10-15T18:29:47Z</time>
      </trkpt>
      <trkpt lat="40.805531" lon="-4.758074">
        <ele>888.843</ele>
        <time>2021-10-15T18:29:48Z</time>
      </trkpt>
      <trkpt lat="40.805311" lon="-4.758178">
        <ele>889.561</ele>
        <time>2021-10-15T18:29:49Z</time>
      </trkpt>
      <trkpt lat="40.804869" lon="-4.758383">
        <ele>890.245</ele>
        <time>2021-10-15T18:29:51Z</time>
      </trkpt>
      <trkpt lat="40.804435" lon="-4.758579">
        <ele>891.460</ele>
        <time>2021-10-15T18:29:53Z</time>
      </trkpt>
      <trkpt lat="40.804236" lon="-4.758668">
        <ele>891.238</ele>
        <time>2021-10-15T18:29:54Z</time>
      </trkpt>
      <trkpt lat="40.803862" lon="-4.758827">
        <ele>891.981</ele>
        <time>2021-10-15T18:29:56Z</time>
      </trkpt>
      <trkpt lat="40.803537" lon="-4.758973">
        <ele>891.326</ele>
        <time>2021-10-15T18:29:58Z</time>
      </trkpt>
      <trkpt lat="40.803206" lon="-4.759117">
        <ele>892.177</ele>
        <time>2021-10-15T18:30:00Z</time>
      </trkpt>
      <trkpt lat="40.803035" lon="-4.759192">
        <ele>892.061</ele>
        <time>2021-10-15T18:30:01Z</time>
      </trkpt>
      <trkpt lat="40.802858" lon="-4.759282">
        <ele>892.027</ele>
        <time>2021-10-15T18:30:02Z</time>
      </trkpt>
      <trkpt lat="40.802552" lon="-4.759524">
        <ele>892.508</ele>
        <time>2021-10-15T18:30:04Z</time>
      </trkpt>
      <trkpt lat="40.802412" lon="-4.759705">
        <ele>892.615</ele>
        <time>2021-10-15T18:30:05Z</time>
      </trkpt>
      <trkpt lat="40.802156" lon="-4.760128">
        <ele>892.643</ele>
        <time>2021-10-15T18:30:07Z</time>
      </trkpt>
      <trkpt lat="40.802024" lon="-4.760350">
        <ele>892.331</ele>
        <time>2021-10-15T18:30:08Z</time>
      </trkpt>
      <trkpt lat="40.801765" lon="-4.760746">
        <ele>892.695</ele>
        <time>2021-10-15T18:30:10Z</time>
      </trkpt>
      <trkpt lat="40.801512" lon="-4.761107">
        <ele>892.110</ele>
        <time>2021-10-15T18:30:12Z</time>
      </trkpt>
      <trkpt lat="40.801385" lon="-4.761275">
        <ele>892.038</ele>
        <time>2021-10-15T18:30:13Z</time>
      </trkpt>
      <trkpt lat="40.801249" lon="-4.761430">
        <ele>891.641</ele>
        <time>2021-10-15T18:30:14Z</time>
      </trkpt>
      <trkpt lat="40.800921" lon="-4.761667">
        <ele>892.776</ele>
        <time>2021-10-15T18:30:16Z</time>
      </trkpt>
      <trkpt lat="40.800731" lon="-4.761747">
        <ele>892.348</ele>
        <time>2021-10-15T18:30:17Z</time>
      </trkpt>
      <trkpt lat="40.800330" lon="-4.761869">
        <ele>893.361</ele>
        <time>2021-10-15T18:30:19Z</time>
      </trkpt>
      <trkpt lat="40.799939" lon="-4.762006">
        <ele>892.817</ele>
        <time>2021-10-15T18:30:21Z</time>
      </trkpt>
      <trkpt lat="40.799602" lon="-4.762143">
        <ele>893.708</ele>
        <time>2021-10-15T18:30:23Z</time>
      </trkpt>
      <trkpt lat="40.799282" lon="-4.762239">
        <ele>895.192</ele>
        <time>2021-10-15T18:30:25Z</time>
      </trkpt>
      <trkpt lat="40.799110" lon="-4.762252">
        <ele>895.520</ele>
        <time>2021-10-15T18:30:26Z</time>
      </trkpt>
      <trkpt lat="40.798767" lon="-4.762186">
        <ele>896.498</ele>
        <time>2021-10-15T18:30:28Z</time>
      </trkpt>
      <trkpt lat="40.798580" lon="-4.762130">
        <ele>897.082</ele>
        <time>2021-10-15T18:30:29Z</time>
      </trkpt>
      <trkpt lat="40.798379" lon="-4.762074">
        <ele>897.597</ele>
        <time>2021-10-15T18:30:30Z</time>
      </trkpt>
      <trkpt lat="40.797921" lon="-4.761962">
        <ele>898.855</ele>
        <time>2021-10-15T18:30:32Z</time>
      </trkpt>
      <trkpt lat="40.797437" lon="-4.761854">
        <ele>900.628</ele>
        <time>2021-10-15T18:30:34Z</time>
      </trkpt>
      <trkpt lat="40.796926" lon="-4.761749">
        <ele>903.833</ele>
        <time>2021-10-15T18:30:36Z</time>
      </trkpt>
      <trkpt lat="40.796406" lon="-4.761642">
        <ele>906.486</ele>
        <time>2021-10-15T18:30:38Z</time>
      </trkpt>
      <trkpt lat="40.795944" lon="-4.761553">
        <ele>909.360</ele>
        <time>2021-10-15T18:30:40Z</time>
      </trkpt>
      <trkpt lat="40.795530" lon="-4.761473">
        <ele>911.726</ele>
        <time>2021-10-15T18:30:42Z</time>
      </trkpt>
      <trkpt lat="40.795117" lon="-4.761384">
        <ele>913.508</ele>
        <time>2021-10-15T18:30:44Z</time>
      </trkpt>
      <trkpt lat="40.794899" lon="-4.761333">
        <ele>914.826</ele>
        <time>2021-10-15T18:30:45Z</time>
      </trkpt>
      <trkpt lat="40.794681" lon="-4.761280">
        <ele>915.764</ele>
        <time>2021-10-15T18:30:46Z</time>
      </trkpt>
      <trkpt lat="40.794237" lon="-4.761146">
        <ele>918.232</ele>
        <time>2021-10-15T18:30:48Z</time>
      </trkpt>
      <trkpt lat="40.794006" lon="-4.761060">
        <ele>919.326</ele>
        <time>2021-10-15T18:30:49Z</time>
      </trkpt>
      <trkpt lat="40.793772" lon="-4.760960">
        <ele>920.111</ele>
        <time>2021-10-15T18:30:50Z</time>
      </trkpt>
      <trkpt lat="40.793536" lon="-4.760863">
        <ele>921.559</ele>
        <time>2021-10-15T18:30:51Z</time>
      </trkpt>
      <trkpt lat="40.793053" lon="-4.760675">
        <ele>924.092</ele>
        <time>2021-10-15T18:30:53Z</time>
      </trkpt>
      <trkpt lat="40.792579" lon="-4.760506">
        <ele>926.617</ele>
        <time>2021-10-15T18:30:55Z</time>
      </trkpt>
      <trkpt lat="40.792343" lon="-4.760417">
        <ele>928.126</ele>
        <time>2021-10-15T18:30:56Z</time>
      </trkpt>
      <trkpt lat="40.791936" lon="-4.760273">
        <ele>930.947</ele>
        <time>2021-10-15T18:30:58Z</time>
      </trkpt>
      <trkpt lat="40.791738" lon="-4.760217">
        <ele>931.611</ele>
        <time>2021-10-15T18:30:59Z</time>
      </trkpt>
      <trkpt lat="40.791542" lon="-4.760170">
        <ele>933.008</ele>
        <time>2021-10-15T18:31:00Z</time>
      </trkpt>
      <trkpt lat="40.791160" lon="-4.760077">
        <ele>935.380</ele>
        <time>2021-10-15T18:31:02Z</time>
      </trkpt>
      <trkpt lat="40.790792" lon="-4.759982">
        <ele>938.348</ele>
        <time>2021-10-15T18:31:04Z</time>
      </trkpt>
      <trkpt lat="40.790589" lon="-4.759930">
        <ele>939.596</ele>
        <time>2021-10-15T18:31:05Z</time>
      </trkpt>
      <trkpt lat="40.790376" lon="-4.759874">
        <ele>940.910</ele>
        <time>2021-10-15T18:31:06Z</time>
      </trkpt>
      <trkpt lat="40.790150" lon="-4.759814">
        <ele>942.795</ele>
        <time>2021-10-15T18:31:07Z</time>
      </trkpt>
      <trkpt lat="40.789666" lon="-4.759686">
        <ele>946.763</ele>
        <time>2021-10-15T18:31:09Z</time>
      </trkpt>
      <trkpt lat="40.789184" lon="-4.759550">
        <ele>949.396</ele>
        <time>2021-10-15T18:31:11Z</time>
      </trkpt>
      <trkpt lat="40.788706" lon="-4.759404">
        <ele>952.881</ele>
        <time>2021-10-15T18:31:13Z</time>
      </trkpt>
      <trkpt lat="40.788227" lon="-4.759269">
        <ele>955.683</ele>
        <time>2021-10-15T18:31:15Z</time>
      </trkpt>
      <trkpt lat="40.787748" lon="-4.759128">
        <ele>959.725</ele>
        <time>2021-10-15T18:31:17Z</time>
      </trkpt>
      <trkpt lat="40.787508" lon="-4.759040">
        <ele>960.817</ele>
        <time>2021-10-15T18:31:18Z</time>
      </trkpt>
      <trkpt lat="40.787267" lon="-4.758931">
        <ele>962.408</ele>
        <time>2021-10-15T18:31:19Z</time>
      </trkpt>
      <trkpt lat="40.787027" lon="-4.758795">
        <ele>964.456</ele>
        <time>2021-10-15T18:31:20Z</time>
      </trkpt>
      <trkpt lat="40.786787" lon="-4.758634">
        <ele>966.354</ele>
        <time>2021-10-15T18:31:21Z</time>
      </trkpt>
      <trkpt lat="40.786316" lon="-4.758279">
        <ele>969.932</ele>
        <time>2021-10-15T18:31:23Z</time>
      </trkpt>
      <trkpt lat="40.785849" lon="-4.757917">
        <ele>973.096</ele>
        <time>2021-10-15T18:31:25Z</time>
      </trkpt>
      <trkpt lat="40.785605" lon="-4.757734">
        <ele>974.351</ele>
        <time>2021-10-15T18:31:26Z</time>
      </trkpt>
      <trkpt lat="40.785160" lon="-4.757401">
        <ele>977.319</ele>
        <time>2021-10-15T18:31:28Z</time>
      </trkpt>
      <trkpt lat="40.784952" lon="-4.757241">
        <ele>978.142</ele>
        <time>2021-10-15T18:31:29Z</time>
      </trkpt>
      <trkpt lat="40.784758" lon="-4.757092">
        <ele>979.367</ele>
        <time>2021-10-15T18:31:30Z</time>
      </trkpt>
      <trkpt lat="40.784386" lon="-4.756823">
        <ele>980.679</ele>
        <time>2021-10-15T18:31:32Z</time>
      </trkpt>
      <trkpt lat="40.784011" lon="-4.756604">
        <ele>981.805</ele>
        <time>2021-10-15T18:31:34Z</time>
      </trkpt>
      <trkpt lat="40.783654" lon="-4.756454">
        <ele>982.725</ele>
        <time>2021-10-15T18:31:36Z</time>
      </trkpt>
      <trkpt lat="40.783481" lon="-4.756393">
        <ele>983.408</ele>
        <time>2021-10-15T18:31:37Z</time>
      </trkpt>
      <trkpt lat="40.783198" lon="-4.756310">
        <ele>983.325</ele>
        <time>2021-10-15T18:31:39Z</time>
      </trkpt>
      <trkpt lat="40.783075" lon="-4.756280">
        <ele>983.473</ele>
        <time>2021-10-15T18:31:40Z</time>
      </trkpt>
      <trkpt lat="40.782844" lon="-4.756235">
        <ele>984.041</ele>
        <time>2021-10-15T18:31:42Z</time>
      </trkpt>
      <trkpt lat="40.782630" lon="-4.756218">
        <ele>984.015</ele>
        <time>2021-10-15T18:31:44Z</time>
      </trkpt>
      <trkpt lat="40.782431" lon="-4.756216">
        <ele>983.930</ele>
        <time>2021-10-15T18:31:46Z</time>
      </trkpt>
      <trkpt lat="40.782337" lon="-4.756219">
        <ele>984.368</ele>
        <time>2021-10-15T18:31:47Z</time>
      </trkpt>
      <trkpt lat="40.782162" lon="-4.756234">
        <ele>983.451</ele>
        <time>2021-10-15T18:31:49Z</time>
      </trkpt>
      <trkpt lat="40.781986" lon="-4.756245">
        <ele>982.986</ele>
        <time>2021-10-15T18:31:51Z</time>
      </trkpt>
      <trkpt lat="40.781860" lon="-4.756195">
        <ele>982.975</ele>
        <time>2021-10-15T18:31:53Z</time>
      </trkpt>
      <trkpt lat="40.781815" lon="-4.756126">
        <ele>982.928</ele>
        <time>2021-10-15T18:31:54Z</time>
      </trkpt>
      <trkpt lat="40.781749" lon="-4.755870">
        <ele>984.020</ele>
        <time>2021-10-15T18:31:56Z</time>
      </trkpt>
      <trkpt lat="40.781633" lon="-4.755570">
        <ele>984.108</ele>
        <time>2021-10-15T18:31:58Z</time>
      </trkpt>
      <trkpt lat="40.781372" lon="-4.755330">
        <ele>983.725</ele>
        <time>2021-10-15T18:32:00Z</time>
      </trkpt>
      <trkpt lat="40.781191" lon="-4.755244">
        <ele>983.173</ele>
        <time>2021-10-15T18:32:01Z</time>
      </trkpt>
      <trkpt lat="40.780986" lon="-4.755165">
        <ele>982.721</ele>
        <time>2021-10-15T18:32:02Z</time>
      </trkpt>
      <trkpt lat="40.780575" lon="-4.754982">
        <ele>981.785</ele>
        <time>2021-10-15T18:32:04Z</time>
      </trkpt>
      <trkpt lat="40.780162" lon="-4.754781">
        <ele>981.730</ele>
        <time>2021-10-15T18:32:06Z</time>
      </trkpt>
      <trkpt lat="40.779949" lon="-4.754677">
        <ele>981.478</ele>
        <time>2021-10-15T18:32:07Z</time>
      </trkpt>
      <trkpt lat="40.779739" lon="-4.754575">
        <ele>981.931</ele>
        <time>2021-10-15T18:32:08Z</time>
      </trkpt>
      <trkpt lat="40.779538" lon="-4.754470">
        <ele>983.216</ele>
        <time>2021-10-15T18:32:09Z</time>
      </trkpt>
      <trkpt lat="40.779177" lon="-4.754282">
        <ele>985.171</ele>
        <time>2021-10-15T18:32:11Z</time>
      </trkpt>
      <trkpt lat="40.778851" lon="-4.754123">
        <ele>985.841</ele>
        <time>2021-10-15T18:32:13Z</time>
      </trkpt>
      <trkpt lat="40.778694" lon="-4.754048">
        <ele>987.215</ele>
        <time>2021-10-15T18:32:14Z</time>
      </trkpt>
      <trkpt lat="40.778361" lon="-4.753897">
        <ele>988.508</ele>
        <time>2021-10-15T18:32:16Z</time>
      </trkpt>
      <trkpt lat="40.777981" lon="-4.753778">
        <ele>989.255</ele>
        <time>2021-10-15T18:32:18Z</time>
      </trkpt>
      <trkpt lat="40.777770" lon="-4.753744">
        <ele>989.463</ele>
        <time>2021-10-15T18:32:19Z</time>
      </trkpt>
      <trkpt lat="40.777316" lon="-4.753744">
        <ele>990.581</ele>
        <time>2021-10-15T18:32:21Z</time>
      </trkpt>
      <trkpt lat="40.776811" lon="-4.753859">
        <ele>992.595</ele>
        <time>2021-10-15T18:32:23Z</time>
      </trkpt>
      <trkpt lat="40.776537" lon="-4.753943">
        <ele>992.940</ele>
        <time>2021-10-15T18:32:24Z</time>
      </trkpt>
      <trkpt lat="40.775963" lon="-4.754092">
        <ele>993.918</ele>
        <time>2021-10-15T18:32:26Z</time>
      </trkpt>
      <trkpt lat="40.775473" lon="-4.754184">
        <ele>994.661</ele>
        <time>2021-10-15T18:32:28Z</time>
      </trkpt>
      <trkpt lat="40.774972" lon="-4.754235">
        <ele>995.386</ele>
        <time>2021-10-15T18:32:30Z</time>
      </trkpt>
      <trkpt lat="40.774707" lon="-4.754217">
        <ele>995.969</ele>
        <time>2021-10-15T18:32:31Z</time>
      </trkpt>
      <trkpt lat="40.774432" lon="-4.754164">
        <ele>996.404</ele>
        <time>2021-10-15T18:32:32Z</time>
      </trkpt>
      <trkpt lat="40.773919" lon="-4.753943">
        <ele>996.624</ele>
        <time>2021-10-15T18:32:34Z</time>
      </trkpt>
      <trkpt lat="40.773674" lon="-4.753772">
        <ele>997.008</ele>
        <time>2021-10-15T18:32:35Z</time>
      </trkpt>
      <trkpt lat="40.773233" lon="-4.753342">
        <ele>999.084</ele>
        <time>2021-10-15T18:32:37Z</time>
      </trkpt>
      <trkpt lat="40.773031" lon="-4.753091">
        <ele>1001.242</ele>
        <time>2021-10-15T18:32:38Z</time>
      </trkpt>
      <trkpt lat="40.772841" lon="-4.752825">
        <ele>1003.180</ele>
        <time>2021-10-15T18:32:39Z</time>
      </trkpt>
      <trkpt lat="40.772658" lon="-4.752561">
        <ele>1004.364</ele>
        <time>2021-10-15T18:32:40Z</time>
      </trkpt>
      <trkpt lat="40.772297" lon="-4.752070">
        <ele>1007.889</ele>
        <time>2021-10-15T18:32:42Z</time>
      </trkpt>
      <trkpt lat="40.771893" lon="-4.751703">
        <ele>1011.117</ele>
        <time>2021-10-15T18:32:44Z</time>
      </trkpt>
      <trkpt lat="40.771679" lon="-4.751555">
        <ele>1013.030</ele>
        <time>2021-10-15T18:32:45Z</time>
      </trkpt>
      <trkpt lat="40.771257" lon="-4.751279">
        <ele>1015.615</ele>
        <time>2021-10-15T18:32:47Z</time>
      </trkpt>
      <trkpt lat="40.770887" lon="-4.750977">
        <ele>1017.381</ele>
        <time>2021-10-15T18:32:49Z</time>
      </trkpt>
      <trkpt lat="40.770573" lon="-4.750588">
        <ele>1019.761</ele>
        <time>2021-10-15T18:32:51Z</time>
      </trkpt>
      <trkpt lat="40.770334" lon="-4.750046">
        <ele>1022.017</ele>
        <time>2021-10-15T18:32:53Z</time>
      </trkpt>
      <trkpt lat="40.770235" lon="-4.749727">
        <ele>1023.008</ele>
        <time>2021-10-15T18:32:54Z</time>
      </trkpt>
      <trkpt lat="40.770142" lon="-4.749394">
        <ele>1023.826</ele>
        <time>2021-10-15T18:32:55Z</time>
      </trkpt>
      <trkpt lat="40.770045" lon="-4.749045">
        <ele>1024.834</ele>
        <time>2021-10-15T18:32:56Z</time>
      </trkpt>
      <trkpt lat="40.769845" lon="-4.748435">
        <ele>1026.752</ele>
        <time>2021-10-15T18:32:58Z</time>
      </trkpt>
      <trkpt lat="40.769532" lon="-4.747941">
        <ele>1028.066</ele>
        <time>2021-10-15T18:33:00Z</time>
      </trkpt>
      <trkpt lat="40.769322" lon="-4.747768">
        <ele>1029.881</ele>
        <time>2021-10-15T18:33:01Z</time>
      </trkpt>
      <trkpt lat="40.769082" lon="-4.747631">
        <ele>1030.829</ele>
        <time>2021-10-15T18:33:02Z</time>
      </trkpt>
      <trkpt lat="40.768612" lon="-4.747396">
        <ele>1033.252</ele>
        <time>2021-10-15T18:33:04Z</time>
      </trkpt>
      <trkpt lat="40.768129" lon="-4.747104">
        <ele>1035.877</ele>
        <time>2021-10-15T18:33:06Z</time>
      </trkpt>
      <trkpt lat="40.767653" lon="-4.746783">
        <ele>1037.897</ele>
        <time>2021-10-15T18:33:08Z</time>
      </trkpt>
      <trkpt lat="40.767422" lon="-4.746615">
        <ele>1038.923</ele>
        <time>2021-10-15T18:33:09Z</time>
      </trkpt>
      <trkpt lat="40.767201" lon="-4.746431">
        <ele>1040.625</ele>
        <time>2021-10-15T18:33:10Z</time>
      </trkpt>
      <trkpt lat="40.766819" lon="-4.745986">
        <ele>1043.908</ele>
        <time>2021-10-15T18:33:12Z</time>
      </trkpt>
      <trkpt lat="40.766670" lon="-4.745712">
        <ele>1046.257</ele>
        <time>2021-10-15T18:33:13Z</time>
      </trkpt>
      <trkpt lat="40.766542" lon="-4.745415">
        <ele>1048.115</ele>
        <time>2021-10-15T18:33:14Z</time>
      </trkpt>
      <trkpt lat="40.766289" lon="-4.744805">
        <ele>1051.413</ele>
        <time>2021-10-15T18:33:16Z</time>
      </trkpt>
      <trkpt lat="40.766158" lon="-4.744534">
        <ele>1052.467</ele>
        <time>2021-10-15T18:33:17Z</time>
      </trkpt>
      <trkpt lat="40.765873" lon="-4.744104">
        <ele>1054.912</ele>
        <time>2021-10-15T18:33:19Z</time>
      </trkpt>
      <trkpt lat="40.765708" lon="-4.743938">
        <ele>1056.290</ele>
        <time>2021-10-15T18:33:20Z</time>
      </trkpt>
      <trkpt lat="40.765326" lon="-4.743717">
        <ele>1059.713</ele>
        <time>2021-10-15T18:33:22Z</time>
      </trkpt>
      <trkpt lat="40.764878" lon="-4.743654">
        <ele>1062.968</ele>
        <time>2021-10-15T18:33:24Z</time>
      </trkpt>
      <trkpt lat="40.764395" lon="-4.743771">
        <ele>1066.038</ele>
        <time>2021-10-15T18:33:26Z</time>
      </trkpt>
      <trkpt lat="40.764164" lon="-4.743900">
        <ele>1067.270</ele>
        <time>2021-10-15T18:33:27Z</time>
      </trkpt>
      <trkpt lat="40.763763" lon="-4.744248">
        <ele>1068.517</ele>
        <time>2021-10-15T18:33:29Z</time>
      </trkpt>
      <trkpt lat="40.763376" lon="-4.744631">
        <ele>1067.808</ele>
        <time>2021-10-15T18:33:31Z</time>
      </trkpt>
      <trkpt lat="40.763175" lon="-4.744820">
        <ele>1066.931</ele>
        <time>2021-10-15T18:33:32Z</time>
      </trkpt>
      <trkpt lat="40.762817" lon="-4.745142">
        <ele>1066.629</ele>
        <time>2021-10-15T18:33:34Z</time>
      </trkpt>
      <trkpt lat="40.762639" lon="-4.745290">
        <ele>1065.757</ele>
        <time>2021-10-15T18:33:35Z</time>
      </trkpt>
      <trkpt lat="40.762290" lon="-4.745568">
        <ele>1065.271</ele>
        <time>2021-10-15T18:33:37Z</time>
      </trkpt>
      <trkpt lat="40.761926" lon="-4.745846">
        <ele>1065.166</ele>
        <time>2021-10-15T18:33:39Z</time>
      </trkpt>
      <trkpt lat="40.761739" lon="-4.745987">
        <ele>1065.044</ele>
        <time>2021-10-15T18:33:40Z</time>
      </trkpt>
      <trkpt lat="40.761353" lon="-4.746287">
        <ele>1064.837</ele>
        <time>2021-10-15T18:33:42Z</time>
      </trkpt>
      <trkpt lat="40.761151" lon="-4.746451">
        <ele>1064.052</ele>
        <time>2021-10-15T18:33:43Z</time>
      </trkpt>
      <trkpt lat="40.760728" lon="-4.746789">
        <ele>1063.571</ele>
        <time>2021-10-15T18:33:45Z</time>
      </trkpt>
      <trkpt lat="40.760296" lon="-4.747153">
        <ele>1062.641</ele>
        <time>2021-10-15T18:33:47Z</time>
      </trkpt>
      <trkpt lat="40.760083" lon="-4.747332">
        <ele>1062.615</ele>
        <time>2021-10-15T18:33:48Z</time>
      </trkpt>
      <trkpt lat="40.759866" lon="-4.747512">
        <ele>1063.408</ele>
        <time>2021-10-15T18:33:49Z</time>
      </trkpt>
      <trkpt lat="40.759646" lon="-4.747688">
        <ele>1063.325</ele>
        <time>2021-10-15T18:33:50Z</time>
      </trkpt>
      <trkpt lat="40.759204" lon="-4.748056">
        <ele>1063.063</ele>
        <time>2021-10-15T18:33:52Z</time>
      </trkpt>
      <trkpt lat="40.758769" lon="-4.748444">
        <ele>1063.571</ele>
        <time>2021-10-15T18:33:54Z</time>
      </trkpt>
      <trkpt lat="40.758552" lon="-4.748659">
        <ele>1063.315</ele>
        <time>2021-10-15T18:33:55Z</time>
      </trkpt>
      <trkpt lat="40.758338" lon="-4.748881">
        <ele>1063.210</ele>
        <time>2021-10-15T18:33:56Z</time>
      </trkpt>
      <trkpt lat="40.757959" lon="-4.749296">
        <ele>1063.088</ele>
        <time>2021-10-15T18:33:58Z</time>
      </trkpt>
      <trkpt lat="40.757567" lon="-4.749708">
        <ele>1062.251</ele>
        <time>2021-10-15T18:34:00Z</time>
      </trkpt>
      <trkpt lat="40.757361" lon="-4.749901">
        <ele>1061.996</ele>
        <time>2021-10-15T18:34:01Z</time>
      </trkpt>
      <trkpt lat="40.757143" lon="-4.750085">
        <ele>1061.426</ele>
        <time>2021-10-15T18:34:02Z</time>
      </trkpt>
      <trkpt lat="40.756683" lon="-4.750376">
        <ele>1060.247</ele>
        <time>2021-10-15T18:34:04Z</time>
      </trkpt>
      <trkpt lat="40.756433" lon="-4.750495">
        <ele>1058.611</ele>
        <time>2021-10-15T18:34:05Z</time>
      </trkpt>
      <trkpt lat="40.755924" lon="-4.750709">
        <ele>1056.908</ele>
        <time>2021-10-15T18:34:07Z</time>
      </trkpt>
      <trkpt lat="40.755668" lon="-4.750816">
        <ele>1056.290</ele>
        <time>2021-10-15T18:34:08Z</time>
      </trkpt>
      <trkpt lat="40.755412" lon="-4.750925">
        <ele>1055.628</ele>
        <time>2021-10-15T18:34:09Z</time>
      </trkpt>
      <trkpt lat="40.754907" lon="-4.751143">
        <ele>1053.786</ele>
        <time>2021-10-15T18:34:11Z</time>
      </trkpt>
      <trkpt lat="40.754654" lon="-4.751247">
        <ele>1052.830</ele>
        <time>2021-10-15T18:34:12Z</time>
      </trkpt>
      <trkpt lat="40.754413" lon="-4.751346">
        <ele>1051.975</ele>
        <time>2021-10-15T18:34:13Z</time>
      </trkpt>
      <trkpt lat="40.754177" lon="-4.751439">
        <ele>1051.973</ele>
        <time>2021-10-15T18:34:14Z</time>
      </trkpt>
      <trkpt lat="40.753711" lon="-4.751625">
        <ele>1050.436</ele>
        <time>2021-10-15T18:34:16Z</time>
      </trkpt>
      <trkpt lat="40.753236" lon="-4.751785">
        <ele>1049.261</ele>
        <time>2021-10-15T18:34:18Z</time>
      </trkpt>
      <trkpt lat="40.752719" lon="-4.751813">
        <ele>1047.575</ele>
        <time>2021-10-15T18:34:20Z</time>
      </trkpt>
      <trkpt lat="40.752162" lon="-4.751691">
        <ele>1045.528</ele>
        <time>2021-10-15T18:34:22Z</time>
      </trkpt>
      <trkpt lat="40.751875" lon="-4.751567">
        <ele>1045.020</ele>
        <time>2021-10-15T18:34:23Z</time>
      </trkpt>
      <trkpt lat="40.751295" lon="-4.751249">
        <ele>1042.408</ele>
        <time>2021-10-15T18:34:25Z</time>
      </trkpt>
      <trkpt lat="40.750988" lon="-4.751076">
        <ele>1041.875</ele>
        <time>2021-10-15T18:34:26Z</time>
      </trkpt>
      <trkpt lat="40.750425" lon="-4.750780">
        <ele>1040.783</ele>
        <time>2021-10-15T18:34:28Z</time>
      </trkpt>
      <trkpt lat="40.749898" lon="-4.750527">
        <ele>1039.471</ele>
        <time>2021-10-15T18:34:30Z</time>
      </trkpt>
      <trkpt lat="40.749403" lon="-4.750287">
        <ele>1039.775</ele>
        <time>2021-10-15T18:34:32Z</time>
      </trkpt>
      <trkpt lat="40.748980" lon="-4.750047">
        <ele>1040.710</ele>
        <time>2021-10-15T18:34:34Z</time>
      </trkpt>
      <trkpt lat="40.748786" lon="-4.749928">
        <ele>1040.658</ele>
        <time>2021-10-15T18:34:35Z</time>
      </trkpt>
      <trkpt lat="40.748607" lon="-4.749818">
        <ele>1040.531</ele>
        <time>2021-10-15T18:34:36Z</time>
      </trkpt>
      <trkpt lat="40.748291" lon="-4.749621">
        <ele>1039.186</ele>
        <time>2021-10-15T18:34:38Z</time>
      </trkpt>
      <trkpt lat="40.748003" lon="-4.749451">
        <ele>1039.716</ele>
        <time>2021-10-15T18:34:40Z</time>
      </trkpt>
      <trkpt lat="40.747866" lon="-4.749370">
        <ele>1039.876</ele>
        <time>2021-10-15T18:34:41Z</time>
      </trkpt>
      <trkpt lat="40.747732" lon="-4.749291">
        <ele>1040.113</ele>
        <time>2021-10-15T18:34:42Z</time>
      </trkpt>
      <trkpt lat="40.747484" lon="-4.749133">
        <ele>1039.808</ele>
        <time>2021-10-15T18:34:44Z</time>
      </trkpt>
      <trkpt lat="40.747256" lon="-4.748988">
        <ele>1039.879</ele>
        <time>2021-10-15T18:34:46Z</time>
      </trkpt>
      <trkpt lat="40.747138" lon="-4.748916">
        <ele>1041.287</ele>
        <time>2021-10-15T18:34:47Z</time>
      </trkpt>
      <trkpt lat="40.747022" lon="-4.748844">
        <ele>1041.855</ele>
        <time>2021-10-15T18:34:48Z</time>
      </trkpt>
      <trkpt lat="40.746906" lon="-4.748769">
        <ele>1042.449</ele>
        <time>2021-10-15T18:34:49Z</time>
      </trkpt>
      <trkpt lat="40.746659" lon="-4.748631">
        <ele>1044.294</ele>
        <time>2021-10-15T18:34:51Z</time>
      </trkpt>
      <trkpt lat="40.746390" lon="-4.748535">
        <ele>1045.352</ele>
        <time>2021-10-15T18:34:53Z</time>
      </trkpt>
      <trkpt lat="40.746092" lon="-4.748440">
        <ele>1046.695</ele>
        <time>2021-10-15T18:34:55Z</time>
      </trkpt>
      <trkpt lat="40.745921" lon="-4.748397">
        <ele>1047.830</ele>
        <time>2021-10-15T18:34:56Z</time>
      </trkpt>
      <trkpt lat="40.745588" lon="-4.748323">
        <ele>1048.342</ele>
        <time>2021-10-15T18:34:58Z</time>
      </trkpt>
      <trkpt lat="40.745420" lon="-4.748265">
        <ele>1048.922</ele>
        <time>2021-10-15T18:34:59Z</time>
      </trkpt>
      <trkpt lat="40.745099" lon="-4.748085">
        <ele>1050.614</ele>
        <time>2021-10-15T18:35:01Z</time>
      </trkpt>
      <trkpt lat="40.744936" lon="-4.747965">
        <ele>1051.108</ele>
        <time>2021-10-15T18:35:02Z</time>
      </trkpt>
      <trkpt lat="40.744641" lon="-4.747726">
        <ele>1052.812</ele>
        <time>2021-10-15T18:35:04Z</time>
      </trkpt>
      <trkpt lat="40.744375" lon="-4.747492">
        <ele>1052.070</ele>
        <time>2021-10-15T18:35:06Z</time>
      </trkpt>
      <trkpt lat="40.744112" lon="-4.747246">
        <ele>1051.488</ele>
        <time>2021-10-15T18:35:08Z</time>
      </trkpt>
      <trkpt lat="40.743851" lon="-4.746982">
        <ele>1051.742</ele>
        <time>2021-10-15T18:35:10Z</time>
      </trkpt>
      <trkpt lat="40.743625" lon="-4.746710">
        <ele>1051.027</ele>
        <time>2021-10-15T18:35:12Z</time>
      </trkpt>
      <trkpt lat="40.743537" lon="-4.746576">
        <ele>1051.435</ele>
        <time>2021-10-15T18:35:13Z</time>
      </trkpt>
      <trkpt lat="40.743371" lon="-4.746293">
        <ele>1051.238</ele>
        <time>2021-10-15T18:35:15Z</time>
      </trkpt>
      <trkpt lat="40.743195" lon="-4.746016">
        <ele>1051.263</ele>
        <time>2021-10-15T18:35:17Z</time>
      </trkpt>
      <trkpt lat="40.743098" lon="-4.745897">
        <ele>1051.562</ele>
        <time>2021-10-15T18:35:18Z</time>
      </trkpt>
      <trkpt lat="40.742896" lon="-4.745700">
        <ele>1051.183</ele>
        <time>2021-10-15T18:35:20Z</time>
      </trkpt>
      <trkpt lat="40.742702" lon="-4.745515">
        <ele>1050.811</ele>
        <time>2021-10-15T18:35:22Z</time>
      </trkpt>
      <trkpt lat="40.742502" lon="-4.745312">
        <ele>1051.208</ele>
        <time>2021-10-15T18:35:24Z</time>
      </trkpt>
      <trkpt lat="40.742408" lon="-4.745209">
        <ele>1050.964</ele>
        <time>2021-10-15T18:35:25Z</time>
      </trkpt>
      <trkpt lat="40.742314" lon="-4.745110">
        <ele>1050.942</ele>
        <time>2021-10-15T18:35:26Z</time>
      </trkpt>
      <trkpt lat="40.742138" lon="-4.744940">
        <ele>1051.580</ele>
        <time>2021-10-15T18:35:28Z</time>
      </trkpt>
      <trkpt lat="40.741927" lon="-4.744815">
        <ele>1050.554</ele>
        <time>2021-10-15T18:35:30Z</time>
      </trkpt>
      <trkpt lat="40.741810" lon="-4.744771">
        <ele>1050.229</ele>
        <time>2021-10-15T18:35:31Z</time>
      </trkpt>
      <trkpt lat="40.741693" lon="-4.744719">
        <ele>1049.867</ele>
        <time>2021-10-15T18:35:32Z</time>
      </trkpt>
      <trkpt lat="40.741485" lon="-4.744574">
        <ele>1048.910</ele>
        <time>2021-10-15T18:35:34Z</time>
      </trkpt>
      <trkpt lat="40.741387" lon="-4.744490">
        <ele>1048.025</ele>
        <time>2021-10-15T18:35:35Z</time>
      </trkpt>
      <trkpt lat="40.741210" lon="-4.744351">
        <ele>1046.612</ele>
        <time>2021-10-15T18:35:37Z</time>
      </trkpt>
      <trkpt lat="40.741036" lon="-4.744280">
        <ele>1047.332</ele>
        <time>2021-10-15T18:35:39Z</time>
      </trkpt>
      <trkpt lat="40.740941" lon="-4.744288">
        <ele>1047.605</ele>
        <time>2021-10-15T18:35:40Z</time>
      </trkpt>
      <trkpt lat="40.740835" lon="-4.744319">
        <ele>1047.608</ele>
        <time>2021-10-15T18:35:41Z</time>
      </trkpt>
      <trkpt lat="40.740605" lon="-4.744396">
        <ele>1048.469</ele>
        <time>2021-10-15T18:35:43Z</time>
      </trkpt>
      <trkpt lat="40.740380" lon="-4.744486">
        <ele>1048.667</ele>
        <time>2021-10-15T18:35:45Z</time>
      </trkpt>
      <trkpt lat="40.740161" lon="-4.744486">
        <ele>1048.985</ele>
        <time>2021-10-15T18:35:47Z</time>
      </trkpt>
      <trkpt lat="40.739937" lon="-4.744345">
        <ele>1049.159</ele>
        <time>2021-10-15T18:35:49Z</time>
      </trkpt>
      <trkpt lat="40.739733" lon="-4.744087">
        <ele>1048.824</ele>
        <time>2021-10-15T18:35:51Z</time>
      </trkpt>
      <trkpt lat="40.739642" lon="-4.743930">
        <ele>1049.352</ele>
        <time>2021-10-15T18:35:52Z</time>
      </trkpt>
      <trkpt lat="40.739454" lon="-4.743610">
        <ele>1049.625</ele>
        <time>2021-10-15T18:35:54Z</time>
      </trkpt>
      <trkpt lat="40.739255" lon="-4.743266">
        <ele>1050.090</ele>
        <time>2021-10-15T18:35:56Z</time>
      </trkpt>
      <trkpt lat="40.739102" lon="-4.742840">
        <ele>1051.548</ele>
        <time>2021-10-15T18:35:58Z</time>
      </trkpt>
      <trkpt lat="40.739043" lon="-4.742581">
        <ele>1053.161</ele>
        <time>2021-10-15T18:35:59Z</time>
      </trkpt>
      <trkpt lat="40.738903" lon="-4.742137">
        <ele>1055.917</ele>
        <time>2021-10-15T18:36:01Z</time>
      </trkpt>
      <trkpt lat="40.738799" lon="-4.741968">
        <ele>1056.808</ele>
        <time>2021-10-15T18:36:02Z</time>
      </trkpt>
      <trkpt lat="40.738523" lon="-4.741763">
        <ele>1060.212</ele>
        <time>2021-10-15T18:36:04Z</time>
      </trkpt>
      <trkpt lat="40.738332" lon="-4.741679">
        <ele>1062.180</ele>
        <time>2021-10-15T18:36:05Z</time>
      </trkpt>
      <trkpt lat="40.737909" lon="-4.741460">
        <ele>1065.468</ele>
        <time>2021-10-15T18:36:07Z</time>
      </trkpt>
      <trkpt lat="40.737699" lon="-4.741310">
        <ele>1066.982</ele>
        <time>2021-10-15T18:36:08Z</time>
      </trkpt>
      <trkpt lat="40.737495" lon="-4.741124">
        <ele>1068.267</ele>
        <time>2021-10-15T18:36:09Z</time>
      </trkpt>
      <trkpt lat="40.737115" lon="-4.740649">
        <ele>1072.215</ele>
        <time>2021-10-15T18:36:11Z</time>
      </trkpt>
      <trkpt lat="40.736789" lon="-4.740065">
        <ele>1077.138</ele>
        <time>2021-10-15T18:36:13Z</time>
      </trkpt>
      <trkpt lat="40.736477" lon="-4.739549">
        <ele>1080.933</ele>
        <time>2021-10-15T18:36:15Z</time>
      </trkpt>
      <trkpt lat="40.736087" lon="-4.739243">
        <ele>1084.918</ele>
        <time>2021-10-15T18:36:17Z</time>
      </trkpt>
      <trkpt lat="40.735857" lon="-4.739166">
        <ele>1086.598</ele>
        <time>2021-10-15T18:36:18Z</time>
      </trkpt>
      <trkpt lat="40.735329" lon="-4.739158">
        <ele>1090.817</ele>
        <time>2021-10-15T18:36:20Z</time>
      </trkpt>
      <trkpt lat="40.735042" lon="-4.739214">
        <ele>1092.308</ele>
        <time>2021-10-15T18:36:21Z</time>
      </trkpt>
      <trkpt lat="40.734745" lon="-4.739267">
        <ele>1094.269</ele>
        <time>2021-10-15T18:36:22Z</time>
      </trkpt>
      <trkpt lat="40.734188" lon="-4.739347">
        <ele>1098.717</ele>
        <time>2021-10-15T18:36:24Z</time>
      </trkpt>
      <trkpt lat="40.733919" lon="-4.739368">
        <ele>1100.825</ele>
        <time>2021-10-15T18:36:25Z</time>
      </trkpt>
      <trkpt lat="40.733635" lon="-4.739360">
        <ele>1103.569</ele>
        <time>2021-10-15T18:36:26Z</time>
      </trkpt>
      <trkpt lat="40.733078" lon="-4.739235">
        <ele>1107.334</ele>
        <time>2021-10-15T18:36:28Z</time>
      </trkpt>
      <trkpt lat="40.732795" lon="-4.739134">
        <ele>1109.472</ele>
        <time>2021-10-15T18:36:29Z</time>
      </trkpt>
      <trkpt lat="40.732274" lon="-4.738979">
        <ele>1113.125</ele>
        <time>2021-10-15T18:36:31Z</time>
      </trkpt>
      <trkpt lat="40.732022" lon="-4.738942">
        <ele>1114.780</ele>
        <time>2021-10-15T18:36:32Z</time>
      </trkpt>
      <trkpt lat="40.731588" lon="-4.738940">
        <ele>1117.866</ele>
        <time>2021-10-15T18:36:34Z</time>
      </trkpt>
      <trkpt lat="40.731202" lon="-4.738915">
        <ele>1120.229</ele>
        <time>2021-10-15T18:36:36Z</time>
      </trkpt>
      <trkpt lat="40.730834" lon="-4.738790">
        <ele>1121.321</ele>
        <time>2021-10-15T18:36:38Z</time>
      </trkpt>
      <trkpt lat="40.730487" lon="-4.738506">
        <ele>1120.108</ele>
        <time>2021-10-15T18:36:40Z</time>
      </trkpt>
      <trkpt lat="40.730329" lon="-4.738320">
        <ele>1119.694</ele>
        <time>2021-10-15T18:36:41Z</time>
      </trkpt>
      <trkpt lat="40.730073" lon="-4.737865">
        <ele>1118.612</ele>
        <time>2021-10-15T18:36:43Z</time>
      </trkpt>
      <trkpt lat="40.729978" lon="-4.737611">
        <ele>1117.390</ele>
        <time>2021-10-15T18:36:44Z</time>
      </trkpt>
      <trkpt lat="40.729897" lon="-4.737362">
        <ele>1115.954</ele>
        <time>2021-10-15T18:36:45Z</time>
      </trkpt>
      <trkpt lat="40.729743" lon="-4.736876">
        <ele>1112.529</ele>
        <time>2021-10-15T18:36:47Z</time>
      </trkpt>
      <trkpt lat="40.729566" lon="-4.736424">
        <ele>1108.817</ele>
        <time>2021-10-15T18:36:49Z</time>
      </trkpt>
      <trkpt lat="40.729335" lon="-4.736043">
        <ele>1105.520</ele>
        <time>2021-10-15T18:36:51Z</time>
      </trkpt>
      <trkpt lat="40.729024" lon="-4.735782">
        <ele>1102.265</ele>
        <time>2021-10-15T18:36:53Z</time>
      </trkpt>
      <trkpt lat="40.728660" lon="-4.735625">
        <ele>1098.563</ele>
        <time>2021-10-15T18:36:55Z</time>
      </trkpt>
      <trkpt lat="40.728430" lon="-4.735575">
        <ele>1096.844</ele>
        <time>2021-10-15T18:36:56Z</time>
      </trkpt>
      <trkpt lat="40.727945" lon="-4.735541">
        <ele>1093.618</ele>
        <time>2021-10-15T18:36:58Z</time>
      </trkpt>
      <trkpt lat="40.727673" lon="-4.735529">
        <ele>1091.808</ele>
        <time>2021-10-15T18:36:59Z</time>
      </trkpt>
      <trkpt lat="40.727120" lon="-4.735462">
        <ele>1086.414</ele>
        <time>2021-10-15T18:37:01Z</time>
      </trkpt>
      <trkpt lat="40.726833" lon="-4.735397">
        <ele>1084.592</ele>
        <time>2021-10-15T18:37:02Z</time>
      </trkpt>
      <trkpt lat="40.726275" lon="-4.735202">
        <ele>1080.580</ele>
        <time>2021-10-15T18:37:04Z</time>
      </trkpt>
      <trkpt lat="40.725977" lon="-4.735069">
        <ele>1078.994</ele>
        <time>2021-10-15T18:37:05Z</time>
      </trkpt>
      <trkpt lat="40.725389" lon="-4.734785">
        <ele>1076.029</ele>
        <time>2021-10-15T18:37:07Z</time>
      </trkpt>
      <trkpt lat="40.724790" lon="-4.734486">
        <ele>1074.547</ele>
        <time>2021-10-15T18:37:09Z</time>
      </trkpt>
      <trkpt lat="40.724207" lon="-4.734197">
        <ele>1073.690</ele>
        <time>2021-10-15T18:37:11Z</time>
      </trkpt>
      <trkpt lat="40.723927" lon="-4.734051">
        <ele>1073.025</ele>
        <time>2021-10-15T18:37:12Z</time>
      </trkpt>
      <trkpt lat="40.723347" lon="-4.733785">
        <ele>1070.541</ele>
        <time>2021-10-15T18:37:14Z</time>
      </trkpt>
      <trkpt lat="40.723039" lon="-4.733688">
        <ele>1069.781</ele>
        <time>2021-10-15T18:37:15Z</time>
      </trkpt>
      <trkpt lat="40.722720" lon="-4.733635">
        <ele>1069.409</ele>
        <time>2021-10-15T18:37:16Z</time>
      </trkpt>
      <trkpt lat="40.722087" lon="-4.733585">
        <ele>1069.308</ele>
        <time>2021-10-15T18:37:18Z</time>
      </trkpt>
      <trkpt lat="40.721459" lon="-4.733526">
        <ele>1068.212</ele>
        <time>2021-10-15T18:37:20Z</time>
      </trkpt>
      <trkpt lat="40.721144" lon="-4.733486">
        <ele>1069.190</ele>
        <time>2021-10-15T18:37:21Z</time>
      </trkpt>
      <trkpt lat="40.720833" lon="-4.733440">
        <ele>1070.538</ele>
        <time>2021-10-15T18:37:22Z</time>
      </trkpt>
      <trkpt lat="40.720514" lon="-4.733393">
        <ele>1072.092</ele>
        <time>2021-10-15T18:37:23Z</time>
      </trkpt>
      <trkpt lat="40.719928" lon="-4.733307">
        <ele>1074.057</ele>
        <time>2021-10-15T18:37:25Z</time>
      </trkpt>
      <trkpt lat="40.719627" lon="-4.733261">
        <ele>1073.975</ele>
        <time>2021-10-15T18:37:26Z</time>
      </trkpt>
      <trkpt lat="40.719096" lon="-4.733184">
        <ele>1075.258</ele>
        <time>2021-10-15T18:37:28Z</time>
      </trkpt>
      <trkpt lat="40.718584" lon="-4.733111">
        <ele>1075.843</ele>
        <time>2021-10-15T18:37:30Z</time>
      </trkpt>
      <trkpt lat="40.718071" lon="-4.733021">
        <ele>1075.669</ele>
        <time>2021-10-15T18:37:32Z</time>
      </trkpt>
      <trkpt lat="40.717563" lon="-4.732881">
        <ele>1075.804</ele>
        <time>2021-10-15T18:37:34Z</time>
      </trkpt>
      <trkpt lat="40.717295" lon="-4.732794">
        <ele>1075.324</ele>
        <time>2021-10-15T18:37:35Z</time>
      </trkpt>
      <trkpt lat="40.716823" lon="-4.732643">
        <ele>1074.408</ele>
        <time>2021-10-15T18:37:37Z</time>
      </trkpt>
      <trkpt lat="40.716548" lon="-4.732569">
        <ele>1073.814</ele>
        <time>2021-10-15T18:37:38Z</time>
      </trkpt>
      <trkpt lat="40.716040" lon="-4.732460">
        <ele>1073.192</ele>
        <time>2021-10-15T18:37:40Z</time>
      </trkpt>
      <trkpt lat="40.715786" lon="-4.732444">
        <ele>1072.850</ele>
        <time>2021-10-15T18:37:41Z</time>
      </trkpt>
      <trkpt lat="40.715283" lon="-4.732524">
        <ele>1072.094</ele>
        <time>2021-10-15T18:37:43Z</time>
      </trkpt>
      <trkpt lat="40.714780" lon="-4.732739">
        <ele>1072.189</ele>
        <time>2021-10-15T18:37:45Z</time>
      </trkpt>
      <trkpt lat="40.714309" lon="-4.733061">
        <ele>1071.647</ele>
        <time>2021-10-15T18:37:47Z</time>
      </trkpt>
      <trkpt lat="40.713907" lon="-4.733510">
        <ele>1070.450</ele>
        <time>2021-10-15T18:37:49Z</time>
      </trkpt>
      <trkpt lat="40.713541" lon="-4.734041">
        <ele>1070.745</ele>
        <time>2021-10-15T18:37:51Z</time>
      </trkpt>
      <trkpt lat="40.713172" lon="-4.734561">
        <ele>1071.111</ele>
        <time>2021-10-15T18:37:53Z</time>
      </trkpt>
      <trkpt lat="40.712780" lon="-4.735021">
        <ele>1072.721</ele>
        <time>2021-10-15T18:37:55Z</time>
      </trkpt>
      <trkpt lat="40.712551" lon="-4.735220">
        <ele>1073.103</ele>
        <time>2021-10-15T18:37:56Z</time>
      </trkpt>
      <trkpt lat="40.712063" lon="-4.735514">
        <ele>1073.908</ele>
        <time>2021-10-15T18:37:58Z</time>
      </trkpt>
      <trkpt lat="40.711782" lon="-4.735610">
        <ele>1074.549</ele>
        <time>2021-10-15T18:37:59Z</time>
      </trkpt>
      <trkpt lat="40.711492" lon="-4.735657">
        <ele>1075.557</ele>
        <time>2021-10-15T18:38:00Z</time>
      </trkpt>
      <trkpt lat="40.710880" lon="-4.735623">
        <ele>1076.515</ele>
        <time>2021-10-15T18:38:02Z</time>
      </trkpt>
      <trkpt lat="40.710300" lon="-4.735491">
        <ele>1077.779</ele>
        <time>2021-10-15T18:38:04Z</time>
      </trkpt>
      <trkpt lat="40.710010" lon="-4.735426">
        <ele>1078.374</ele>
        <time>2021-10-15T18:38:05Z</time>
      </trkpt>
      <trkpt lat="40.709452" lon="-4.735361">
        <ele>1079.472</ele>
        <time>2021-10-15T18:38:07Z</time>
      </trkpt>
      <trkpt lat="40.708891" lon="-4.735334">
        <ele>1080.035</ele>
        <time>2021-10-15T18:38:09Z</time>
      </trkpt>
      <trkpt lat="40.708332" lon="-4.735378">
        <ele>1080.040</ele>
        <time>2021-10-15T18:38:11Z</time>
      </trkpt>
      <trkpt lat="40.707780" lon="-4.735420">
        <ele>1082.224</ele>
        <time>2021-10-15T18:38:13Z</time>
      </trkpt>
      <trkpt lat="40.707239" lon="-4.735462">
        <ele>1085.004</ele>
        <time>2021-10-15T18:38:15Z</time>
      </trkpt>
      <trkpt lat="40.706972" lon="-4.735479">
        <ele>1086.414</ele>
        <time>2021-10-15T18:38:16Z</time>
      </trkpt>
      <trkpt lat="40.706702" lon="-4.735500">
        <ele>1088.308</ele>
        <time>2021-10-15T18:38:17Z</time>
      </trkpt>
      <trkpt lat="40.706153" lon="-4.735519">
        <ele>1092.030</ele>
        <time>2021-10-15T18:38:19Z</time>
      </trkpt>
      <trkpt lat="40.705873" lon="-4.735524">
        <ele>1093.918</ele>
        <time>2021-10-15T18:38:20Z</time>
      </trkpt>
      <trkpt lat="40.705320" lon="-4.735543">
        <ele>1097.746</ele>
        <time>2021-10-15T18:38:22Z</time>
      </trkpt>
      <trkpt lat="40.705044" lon="-4.735561">
        <ele>1099.250</ele>
        <time>2021-10-15T18:38:23Z</time>
      </trkpt>
      <trkpt lat="40.704515" lon="-4.735572">
        <ele>1103.215</ele>
        <time>2021-10-15T18:38:25Z</time>
      </trkpt>
      <trkpt lat="40.704230" lon="-4.735536">
        <ele>1105.553</ele>
        <time>2021-10-15T18:38:26Z</time>
      </trkpt>
      <trkpt lat="40.703686" lon="-4.735386">
        <ele>1108.836</ele>
        <time>2021-10-15T18:38:28Z</time>
      </trkpt>
      <trkpt lat="40.703406" lon="-4.735275">
        <ele>1110.471</ele>
        <time>2021-10-15T18:38:29Z</time>
      </trkpt>
      <trkpt lat="40.703124" lon="-4.735146">
        <ele>1112.478</ele>
        <time>2021-10-15T18:38:30Z</time>
      </trkpt>
      <trkpt lat="40.702841" lon="-4.735010">
        <ele>1114.533</ele>
        <time>2021-10-15T18:38:31Z</time>
      </trkpt>
      <trkpt lat="40.702550" lon="-4.734881">
        <ele>1116.126</ele>
        <time>2021-10-15T18:38:32Z</time>
      </trkpt>
      <trkpt lat="40.701980" lon="-4.734690">
        <ele>1118.808</ele>
        <time>2021-10-15T18:38:34Z</time>
      </trkpt>
      <trkpt lat="40.701689" lon="-4.734615">
        <ele>1120.115</ele>
        <time>2021-10-15T18:38:35Z</time>
      </trkpt>
      <trkpt lat="40.701164" lon="-4.734494">
        <ele>1122.713</ele>
        <time>2021-10-15T18:38:37Z</time>
      </trkpt>
      <trkpt lat="40.700659" lon="-4.734382">
        <ele>1124.851</ele>
        <time>2021-10-15T18:38:39Z</time>
      </trkpt>
      <trkpt lat="40.700410" lon="-4.734327">
        <ele>1125.475</ele>
        <time>2021-10-15T18:38:40Z</time>
      </trkpt>
      <trkpt lat="40.699918" lon="-4.734236">
        <ele>1126.030</ele>
        <time>2021-10-15T18:38:42Z</time>
      </trkpt>
      <trkpt lat="40.699430" lon="-4.734164">
        <ele>1125.868</ele>
        <time>2021-10-15T18:38:44Z</time>
      </trkpt>
      <trkpt lat="40.699187" lon="-4.734127">
        <ele>1125.871</ele>
        <time>2021-10-15T18:38:45Z</time>
      </trkpt>
      <trkpt lat="40.698702" lon="-4.734040">
        <ele>1125.196</ele>
        <time>2021-10-15T18:38:47Z</time>
      </trkpt>
      <trkpt lat="40.698457" lon="-4.733994">
        <ele>1124.732</ele>
        <time>2021-10-15T18:38:48Z</time>
      </trkpt>
      <trkpt lat="40.698213" lon="-4.733948">
        <ele>1124.392</ele>
        <time>2021-10-15T18:38:49Z</time>
      </trkpt>
      <trkpt lat="40.697725" lon="-4.733854">
        <ele>1123.011</ele>
        <time>2021-10-15T18:38:51Z</time>
      </trkpt>
      <trkpt lat="40.697242" lon="-4.733764">
        <ele>1122.208</ele>
        <time>2021-10-15T18:38:53Z</time>
      </trkpt>
      <trkpt lat="40.697011" lon="-4.733731">
        <ele>1121.521</ele>
        <time>2021-10-15T18:38:54Z</time>
      </trkpt>
      <trkpt lat="40.696788" lon="-4.733707">
        <ele>1121.229</ele>
        <time>2021-10-15T18:38:55Z</time>
      </trkpt>
      <trkpt lat="40.696572" lon="-4.733699">
        <ele>1120.887</ele>
        <time>2021-10-15T18:38:56Z</time>
      </trkpt>
      <trkpt lat="40.696254" lon="-4.733698">
        <ele>1119.261</ele>
        <time>2021-10-15T18:38:58Z</time>
      </trkpt>
      <trkpt lat="40.696007" lon="-4.733727">
        <ele>1117.576</ele>
        <time>2021-10-15T18:39:00Z</time>
      </trkpt>
      <trkpt lat="40.695795" lon="-4.733779">
        <ele>1116.654</ele>
        <time>2021-10-15T18:39:02Z</time>
      </trkpt>
      <trkpt lat="40.695615" lon="-4.733841">
        <ele>1115.377</ele>
        <time>2021-10-15T18:39:04Z</time>
      </trkpt>
      <trkpt lat="40.695444" lon="-4.733918">
        <ele>1113.962</ele>
        <time>2021-10-15T18:39:06Z</time>
      </trkpt>
      <trkpt lat="40.695363" lon="-4.733963">
        <ele>1113.331</ele>
        <time>2021-10-15T18:39:07Z</time>
      </trkpt>
      <trkpt lat="40.695194" lon="-4.734074">
        <ele>1112.761</ele>
        <time>2021-10-15T18:39:09Z</time>
      </trkpt>
      <trkpt lat="40.695008" lon="-4.734229">
        <ele>1111.607</ele>
        <time>2021-10-15T18:39:11Z</time>
      </trkpt>
      <trkpt lat="40.694908" lon="-4.734327">
        <ele>1111.108</ele>
        <time>2021-10-15T18:39:12Z</time>
      </trkpt>
      <trkpt lat="40.694703" lon="-4.734559">
        <ele>1110.361</ele>
        <time>2021-10-15T18:39:14Z</time>
      </trkpt>
      <trkpt lat="40.694606" lon="-4.734690">
        <ele>1110.299</ele>
        <time>2021-10-15T18:39:15Z</time>
      </trkpt>
      <trkpt lat="40.694446" lon="-4.734959">
        <ele>1110.687</ele>
        <time>2021-10-15T18:39:17Z</time>
      </trkpt>
      <trkpt lat="40.694323" lon="-4.735216">
        <ele>1111.241</ele>
        <time>2021-10-15T18:39:19Z</time>
      </trkpt>
      <trkpt lat="40.694273" lon="-4.735338">
        <ele>1111.096</ele>
        <time>2021-10-15T18:39:20Z</time>
      </trkpt>
      <trkpt lat="40.694196" lon="-4.735579">
        <ele>1111.784</ele>
        <time>2021-10-15T18:39:22Z</time>
      </trkpt>
      <trkpt lat="40.694131" lon="-4.735825">
        <ele>1112.187</ele>
        <time>2021-10-15T18:39:24Z</time>
      </trkpt>
      <trkpt lat="40.694113" lon="-4.735950">
        <ele>1112.162</ele>
        <time>2021-10-15T18:39:25Z</time>
      </trkpt>
      <trkpt lat="40.694113" lon="-4.736080">
        <ele>1112.194</ele>
        <time>2021-10-15T18:39:26Z</time>
      </trkpt>
      <trkpt lat="40.694172" lon="-4.736309">
        <ele>1112.257</ele>
        <time>2021-10-15T18:39:28Z</time>
      </trkpt>
      <trkpt lat="40.694202" lon="-4.736424">
        <ele>1112.222</ele>
        <time>2021-10-15T18:39:29Z</time>
      </trkpt>
      <trkpt lat="40.694186" lon="-4.736635">
        <ele>1112.208</ele>
        <time>2021-10-15T18:39:31Z</time>
      </trkpt>
      <trkpt lat="40.694136" lon="-4.736711">
        <ele>1111.967</ele>
        <time>2021-10-15T18:39:32Z</time>
      </trkpt>
      <trkpt lat="40.693988" lon="-4.736775">
        <ele>1112.345</ele>
        <time>2021-10-15T18:39:34Z</time>
      </trkpt>
      <trkpt lat="40.693901" lon="-4.736762">
        <ele>1112.643</ele>
        <time>2021-10-15T18:39:35Z</time>
      </trkpt>
      <trkpt lat="40.693806" lon="-4.736709">
        <ele>1112.667</ele>
        <time>2021-10-15T18:39:36Z</time>
      </trkpt>
      <trkpt lat="40.693716" lon="-4.736621">
        <ele>1112.812</ele>
        <time>2021-10-15T18:39:37Z</time>
      </trkpt>
      <trkpt lat="40.693499" lon="-4.736477">
        <ele>1111.940</ele>
        <time>2021-10-15T18:39:39Z</time>
      </trkpt>
      <trkpt lat="40.693230" lon="-4.736477">
        <ele>1111.993</ele>
        <time>2021-10-15T18:39:41Z</time>
      </trkpt>
      <trkpt lat="40.693081" lon="-4.736538">
        <ele>1111.298</ele>
        <time>2021-10-15T18:39:42Z</time>
      </trkpt>
      <trkpt lat="40.692759" lon="-4.736735">
        <ele>1110.747</ele>
        <time>2021-10-15T18:39:44Z</time>
      </trkpt>
      <trkpt lat="40.692577" lon="-4.736823">
        <ele>1109.429</ele>
        <time>2021-10-15T18:39:45Z</time>
      </trkpt>
      <trkpt lat="40.692163" lon="-4.736884">
        <ele>1107.321</ele>
        <time>2021-10-15T18:39:47Z</time>
      </trkpt>
      <trkpt lat="40.691935" lon="-4.736848">
        <ele>1106.308</ele>
        <time>2021-10-15T18:39:48Z</time>
      </trkpt>
      <trkpt lat="40.691699" lon="-4.736774">
        <ele>1105.342</ele>
        <time>2021-10-15T18:39:49Z</time>
      </trkpt>
      <trkpt lat="40.691461" lon="-4.736669">
        <ele>1104.290</ele>
        <time>2021-10-15T18:39:50Z</time>
      </trkpt>
      <trkpt lat="40.691014" lon="-4.736435">
        <ele>1102.998</ele>
        <time>2021-10-15T18:39:52Z</time>
      </trkpt>
      <trkpt lat="40.690800" lon="-4.736332">
        <ele>1102.342</ele>
        <time>2021-10-15T18:39:53Z</time>
      </trkpt>
      <trkpt lat="40.690406" lon="-4.736156">
        <ele>1101.317</ele>
        <time>2021-10-15T18:39:55Z</time>
      </trkpt>
      <trkpt lat="40.690226" lon="-4.736083">
        <ele>1100.225</ele>
        <time>2021-10-15T18:39:56Z</time>
      </trkpt>
      <trkpt lat="40.689913" lon="-4.735968">
        <ele>1098.588</ele>
        <time>2021-10-15T18:39:58Z</time>
      </trkpt>
      <trkpt lat="40.689752" lon="-4.735911">
        <ele>1097.573</ele>
        <time>2021-10-15T18:39:59Z</time>
      </trkpt>
      <trkpt lat="40.689457" lon="-4.735791">
        <ele>1096.933</ele>
        <time>2021-10-15T18:40:01Z</time>
      </trkpt>
      <trkpt lat="40.689324" lon="-4.735732">
        <ele>1096.323</ele>
        <time>2021-10-15T18:40:02Z</time>
      </trkpt>
      <trkpt lat="40.689079" lon="-4.735634">
        <ele>1095.715</ele>
        <time>2021-10-15T18:40:04Z</time>
      </trkpt>
      <trkpt lat="40.688790" lon="-4.735530">
        <ele>1095.608</ele>
        <time>2021-10-15T18:40:06Z</time>
      </trkpt>
      <trkpt lat="40.688466" lon="-4.735405">
        <ele>1095.191</ele>
        <time>2021-10-15T18:40:08Z</time>
      </trkpt>
      <trkpt lat="40.688117" lon="-4.735258">
        <ele>1094.349</ele>
        <time>2021-10-15T18:40:10Z</time>
      </trkpt>
      <trkpt lat="40.687942" lon="-4.735186">
        <ele>1093.947</ele>
        <time>2021-10-15T18:40:11Z</time>
      </trkpt>
      <trkpt lat="40.687605" lon="-4.735052">
        <ele>1092.751</ele>
        <time>2021-10-15T18:40:13Z</time>
      </trkpt>
      <trkpt lat="40.687287" lon="-4.734921">
        <ele>1091.196</ele>
        <time>2021-10-15T18:40:15Z</time>
      </trkpt>
      <trkpt lat="40.687126" lon="-4.734856">
        <ele>1090.314</ele>
        <time>2021-10-15T18:40:16Z</time>
      </trkpt>
      <trkpt lat="40.686809" lon="-4.734739">
        <ele>1089.957</ele>
        <time>2021-10-15T18:40:18Z</time>
      </trkpt>
      <trkpt lat="40.686647" lon="-4.734684">
        <ele>1089.622</ele>
        <time>2021-10-15T18:40:19Z</time>
      </trkpt>
      <trkpt lat="40.686483" lon="-4.734623">
        <ele>1089.292</ele>
        <time>2021-10-15T18:40:20Z</time>
      </trkpt>
      <trkpt lat="40.686149" lon="-4.734490">
        <ele>1088.273</ele>
        <time>2021-10-15T18:40:22Z</time>
      </trkpt>
      <trkpt lat="40.685974" lon="-4.734420">
        <ele>1087.420</ele>
        <time>2021-10-15T18:40:23Z</time>
      </trkpt>
      <trkpt lat="40.685637" lon="-4.734286">
        <ele>1085.508</ele>
        <time>2021-10-15T18:40:25Z</time>
      </trkpt>
      <trkpt lat="40.685448" lon="-4.734210">
        <ele>1085.017</ele>
        <time>2021-10-15T18:40:26Z</time>
      </trkpt>
      <trkpt lat="40.685081" lon="-4.734056">
        <ele>1083.825</ele>
        <time>2021-10-15T18:40:28Z</time>
      </trkpt>
      <trkpt lat="40.684885" lon="-4.733970">
        <ele>1082.353</ele>
        <time>2021-10-15T18:40:29Z</time>
      </trkpt>
      <trkpt lat="40.684483" lon="-4.733811">
        <ele>1081.447</ele>
        <time>2021-10-15T18:40:31Z</time>
      </trkpt>
      <trkpt lat="40.684268" lon="-4.733746">
        <ele>1080.352</ele>
        <time>2021-10-15T18:40:32Z</time>
      </trkpt>
      <trkpt lat="40.683855" lon="-4.733700">
        <ele>1078.660</ele>
        <time>2021-10-15T18:40:34Z</time>
      </trkpt>
      <trkpt lat="40.683637" lon="-4.733706">
        <ele>1078.123</ele>
        <time>2021-10-15T18:40:35Z</time>
      </trkpt>
      <trkpt lat="40.683206" lon="-4.733763">
        <ele>1076.028</ele>
        <time>2021-10-15T18:40:37Z</time>
      </trkpt>
      <trkpt lat="40.682997" lon="-4.733802">
        <ele>1074.854</ele>
        <time>2021-10-15T18:40:38Z</time>
      </trkpt>
      <trkpt lat="40.682603" lon="-4.733868">
        <ele>1072.656</ele>
        <time>2021-10-15T18:40:40Z</time>
      </trkpt>
      <trkpt lat="40.682409" lon="-4.733884">
        <ele>1072.011</ele>
        <time>2021-10-15T18:40:41Z</time>
      </trkpt>
      <trkpt lat="40.682219" lon="-4.733879">
        <ele>1070.708</ele>
        <time>2021-10-15T18:40:42Z</time>
      </trkpt>
      <trkpt lat="40.681817" lon="-4.733801">
        <ele>1069.463</ele>
        <time>2021-10-15T18:40:44Z</time>
      </trkpt>
      <trkpt lat="40.681608" lon="-4.733730">
        <ele>1068.211</ele>
        <time>2021-10-15T18:40:45Z</time>
      </trkpt>
      <trkpt lat="40.681186" lon="-4.733533">
        <ele>1067.239</ele>
        <time>2021-10-15T18:40:47Z</time>
      </trkpt>
      <trkpt lat="40.680972" lon="-4.733399">
        <ele>1066.633</ele>
        <time>2021-10-15T18:40:48Z</time>
      </trkpt>
      <trkpt lat="40.680761" lon="-4.733240">
        <ele>1066.488</ele>
        <time>2021-10-15T18:40:49Z</time>
      </trkpt>
      <trkpt lat="40.680337" lon="-4.732868">
        <ele>1067.046</ele>
        <time>2021-10-15T18:40:51Z</time>
      </trkpt>
      <trkpt lat="40.680118" lon="-4.732668">
        <ele>1066.239</ele>
        <time>2021-10-15T18:40:52Z</time>
      </trkpt>
      <trkpt lat="40.679894" lon="-4.732468">
        <ele>1066.644</ele>
        <time>2021-10-15T18:40:53Z</time>
      </trkpt>
      <trkpt lat="40.679470" lon="-4.732096">
        <ele>1065.868</ele>
        <time>2021-10-15T18:40:55Z</time>
      </trkpt>
      <trkpt lat="40.679256" lon="-4.731911">
        <ele>1065.842</ele>
        <time>2021-10-15T18:40:56Z</time>
      </trkpt>
      <trkpt lat="40.678874" lon="-4.731585">
        <ele>1065.126</ele>
        <time>2021-10-15T18:40:58Z</time>
      </trkpt>
      <trkpt lat="40.678687" lon="-4.731428">
        <ele>1065.608</ele>
        <time>2021-10-15T18:40:59Z</time>
      </trkpt>
      <trkpt lat="40.678332" lon="-4.731148">
        <ele>1063.654</ele>
        <time>2021-10-15T18:41:01Z</time>
      </trkpt>
      <trkpt lat="40.678155" lon="-4.731015">
        <ele>1063.072</ele>
        <time>2021-10-15T18:41:02Z</time>
      </trkpt>
      <trkpt lat="40.677846" lon="-4.730780">
        <ele>1061.840</ele>
        <time>2021-10-15T18:41:04Z</time>
      </trkpt>
      <trkpt lat="40.677534" lon="-4.730531">
        <ele>1061.814</ele>
        <time>2021-10-15T18:41:06Z</time>
      </trkpt>
      <trkpt lat="40.677213" lon="-4.730281">
        <ele>1061.249</ele>
        <time>2021-10-15T18:41:08Z</time>
      </trkpt>
      <trkpt lat="40.677040" lon="-4.730154">
        <ele>1061.287</ele>
        <time>2021-10-15T18:41:09Z</time>
      </trkpt>
      <trkpt lat="40.676669" lon="-4.729886">
        <ele>1060.050</ele>
        <time>2021-10-15T18:41:11Z</time>
      </trkpt>
      <trkpt lat="40.676467" lon="-4.729740">
        <ele>1060.255</ele>
        <time>2021-10-15T18:41:12Z</time>
      </trkpt>
      <trkpt lat="40.676042" lon="-4.729424">
        <ele>1059.467</ele>
        <time>2021-10-15T18:41:14Z</time>
      </trkpt>
      <trkpt lat="40.675588" lon="-4.729099">
        <ele>1059.281</ele>
        <time>2021-10-15T18:41:16Z</time>
      </trkpt>
      <trkpt lat="40.675365" lon="-4.728951">
        <ele>1058.919</ele>
        <time>2021-10-15T18:41:17Z</time>
      </trkpt>
      <trkpt lat="40.675154" lon="-4.728817">
        <ele>1059.108</ele>
        <time>2021-10-15T18:41:18Z</time>
      </trkpt>
      <trkpt lat="40.674755" lon="-4.728571">
        <ele>1057.124</ele>
        <time>2021-10-15T18:41:20Z</time>
      </trkpt>
      <trkpt lat="40.674558" lon="-4.728449">
        <ele>1056.712</ele>
        <time>2021-10-15T18:41:21Z</time>
      </trkpt>
      <trkpt lat="40.674172" lon="-4.728200">
        <ele>1056.070</ele>
        <time>2021-10-15T18:41:23Z</time>
      </trkpt>
      <trkpt lat="40.673973" lon="-4.728073">
        <ele>1054.724</ele>
        <time>2021-10-15T18:41:24Z</time>
      </trkpt>
      <trkpt lat="40.673553" lon="-4.727813">
        <ele>1052.059</ele>
        <time>2021-10-15T18:41:26Z</time>
      </trkpt>
      <trkpt lat="40.673128" lon="-4.727542">
        <ele>1048.867</ele>
        <time>2021-10-15T18:41:28Z</time>
      </trkpt>
      <trkpt lat="40.672672" lon="-4.727261">
        <ele>1044.910</ele>
        <time>2021-10-15T18:41:30Z</time>
      </trkpt>
      <trkpt lat="40.672435" lon="-4.727121">
        <ele>1043.725</ele>
        <time>2021-10-15T18:41:31Z</time>
      </trkpt>
      <trkpt lat="40.672186" lon="-4.726972">
        <ele>1042.163</ele>
        <time>2021-10-15T18:41:32Z</time>
      </trkpt>
      <trkpt lat="40.671706" lon="-4.726688">
        <ele>1039.044</ele>
        <time>2021-10-15T18:41:34Z</time>
      </trkpt>
      <trkpt lat="40.671467" lon="-4.726547">
        <ele>1037.318</ele>
        <time>2021-10-15T18:41:35Z</time>
      </trkpt>
      <trkpt lat="40.671234" lon="-4.726408">
        <ele>1036.108</ele>
        <time>2021-10-15T18:41:36Z</time>
      </trkpt>
      <trkpt lat="40.670805" lon="-4.726141">
        <ele>1035.314</ele>
        <time>2021-10-15T18:41:38Z</time>
      </trkpt>
      <trkpt lat="40.670409" lon="-4.725891">
        <ele>1034.882</ele>
        <time>2021-10-15T18:41:40Z</time>
      </trkpt>
      <trkpt lat="40.670027" lon="-4.725656">
        <ele>1034.580</ele>
        <time>2021-10-15T18:41:42Z</time>
      </trkpt>
      <trkpt lat="40.669846" lon="-4.725543">
        <ele>1034.594</ele>
        <time>2021-10-15T18:41:43Z</time>
      </trkpt>
      <trkpt lat="40.669675" lon="-4.725437">
        <ele>1035.099</ele>
        <time>2021-10-15T18:41:44Z</time>
      </trkpt>
      <trkpt lat="40.669333" lon="-4.725227">
        <ele>1036.177</ele>
        <time>2021-10-15T18:41:46Z</time>
      </trkpt>
      <trkpt lat="40.668977" lon="-4.725005">
        <ele>1038.520</ele>
        <time>2021-10-15T18:41:48Z</time>
      </trkpt>
      <trkpt lat="40.668611" lon="-4.724771">
        <ele>1040.335</ele>
        <time>2021-10-15T18:41:50Z</time>
      </trkpt>
      <trkpt lat="40.668422" lon="-4.724654">
        <ele>1041.554</ele>
        <time>2021-10-15T18:41:51Z</time>
      </trkpt>
      <trkpt lat="40.668044" lon="-4.724411">
        <ele>1043.756</ele>
        <time>2021-10-15T18:41:53Z</time>
      </trkpt>
      <trkpt lat="40.667675" lon="-4.724181">
        <ele>1046.711</ele>
        <time>2021-10-15T18:41:55Z</time>
      </trkpt>
      <trkpt lat="40.667489" lon="-4.724067">
        <ele>1047.908</ele>
        <time>2021-10-15T18:41:56Z</time>
      </trkpt>
      <trkpt lat="40.667141" lon="-4.723855">
        <ele>1050.633</ele>
        <time>2021-10-15T18:41:58Z</time>
      </trkpt>
      <trkpt lat="40.666965" lon="-4.723748">
        <ele>1051.951</ele>
        <time>2021-10-15T18:41:59Z</time>
      </trkpt>
      <trkpt lat="40.666640" lon="-4.723566">
        <ele>1054.349</ele>
        <time>2021-10-15T18:42:01Z</time>
      </trkpt>
      <trkpt lat="40.666491" lon="-4.723514">
        <ele>1055.283</ele>
        <time>2021-10-15T18:42:02Z</time>
      </trkpt>
      <trkpt lat="40.666270" lon="-4.723511">
        <ele>1056.498</ele>
        <time>2021-10-15T18:42:04Z</time>
      </trkpt>
      <trkpt lat="40.666188" lon="-4.723534">
        <ele>1056.526</ele>
        <time>2021-10-15T18:42:05Z</time>
      </trkpt>
      <trkpt lat="40.666123" lon="-4.723564">
        <ele>1057.129</ele>
        <time>2021-10-15T18:42:06Z</time>
      </trkpt>
      <trkpt lat="40.666022" lon="-4.723626">
        <ele>1057.534</ele>
        <time>2021-10-15T18:42:08Z</time>
      </trkpt>
      <trkpt lat="40.665974" lon="-4.723673">
        <ele>1057.969</ele>
        <time>2021-10-15T18:42:10Z</time>
      </trkpt>
      <trkpt lat="40.665925" lon="-4.723715">
        <ele>1058.404</ele>
        <time>2021-10-15T18:42:13Z</time>
      </trkpt>
      <trkpt lat="40.665882" lon="-4.723746">
        <ele>1057.824</ele>
        <time>2021-10-15T18:42:17Z</time>
      </trkpt>
      <trkpt lat="40.665813" lon="-4.723744">
        <ele>1057.608</ele>
        <time>2021-10-15T18:42:19Z</time>
      </trkpt>
      <trkpt lat="40.665717" lon="-4.723719">
        <ele>1057.524</ele>
        <time>2021-10-15T18:42:20Z</time>
      </trkpt>
      <trkpt lat="40.665625" lon="-4.723560">
        <ele>1057.282</ele>
        <time>2021-10-15T18:42:22Z</time>
      </trkpt>
      <trkpt lat="40.665590" lon="-4.723443">
        <ele>1056.750</ele>
        <time>2021-10-15T18:42:23Z</time>
      </trkpt>
      <trkpt lat="40.665561" lon="-4.723329">
        <ele>1056.474</ele>
        <time>2021-10-15T18:42:24Z</time>
      </trkpt>
      <trkpt lat="40.665499" lon="-4.723099">
        <ele>1056.129</ele>
        <time>2021-10-15T18:42:26Z</time>
      </trkpt>
      <trkpt lat="40.665408" lon="-4.722842">
        <ele>1056.757</ele>
        <time>2021-10-15T18:42:28Z</time>
      </trkpt>
      <trkpt lat="40.665296" lon="-4.722618">
        <ele>1056.850</ele>
        <time>2021-10-15T18:42:30Z</time>
      </trkpt>
      <trkpt lat="40.665231" lon="-4.722501">
        <ele>1056.855</ele>
        <time>2021-10-15T18:42:31Z</time>
      </trkpt>
      <trkpt lat="40.665160" lon="-4.722367">
        <ele>1056.847</ele>
        <time>2021-10-15T18:42:32Z</time>
      </trkpt>
      <trkpt lat="40.665004" lon="-4.722073">
        <ele>1056.629</ele>
        <time>2021-10-15T18:42:34Z</time>
      </trkpt>
      <trkpt lat="40.664923" lon="-4.721912">
        <ele>1057.621</ele>
        <time>2021-10-15T18:42:35Z</time>
      </trkpt>
      <trkpt lat="40.664845" lon="-4.721757">
        <ele>1057.508</ele>
        <time>2021-10-15T18:42:36Z</time>
      </trkpt>
      <trkpt lat="40.664697" lon="-4.721443">
        <ele>1057.812</ele>
        <time>2021-10-15T18:42:38Z</time>
      </trkpt>
      <trkpt lat="40.664625" lon="-4.721277">
        <ele>1057.970</ele>
        <time>2021-10-15T18:42:39Z</time>
      </trkpt>
      <trkpt lat="40.664494" lon="-4.720965">
        <ele>1059.448</ele>
        <time>2021-10-15T18:42:41Z</time>
      </trkpt>
      <trkpt lat="40.664439" lon="-4.720813">
        <ele>1058.512</ele>
        <time>2021-10-15T18:42:42Z</time>
      </trkpt>
      <trkpt lat="40.664351" lon="-4.720515">
        <ele>1057.997</ele>
        <time>2021-10-15T18:42:44Z</time>
      </trkpt>
      <trkpt lat="40.664268" lon="-4.720184">
        <ele>1057.975</ele>
        <time>2021-10-15T18:42:46Z</time>
      </trkpt>
      <trkpt lat="40.664231" lon="-4.720013">
        <ele>1057.928</ele>
        <time>2021-10-15T18:42:47Z</time>
      </trkpt>
      <trkpt lat="40.664169" lon="-4.719693">
        <ele>1058.173</ele>
        <time>2021-10-15T18:42:49Z</time>
      </trkpt>
      <trkpt lat="40.664145" lon="-4.719526">
        <ele>1058.047</ele>
        <time>2021-10-15T18:42:50Z</time>
      </trkpt>
      <trkpt lat="40.664125" lon="-4.719347">
        <ele>1057.029</ele>
        <time>2021-10-15T18:42:51Z</time>
      </trkpt>
      <trkpt lat="40.664100" lon="-4.718952">
        <ele>1055.821</ele>
        <time>2021-10-15T18:42:53Z</time>
      </trkpt>
      <trkpt lat="40.664089" lon="-4.718517">
        <ele>1053.708</ele>
        <time>2021-10-15T18:42:55Z</time>
      </trkpt>
      <trkpt lat="40.664095" lon="-4.718285">
        <ele>1052.562</ele>
        <time>2021-10-15T18:42:56Z</time>
      </trkpt>
      <trkpt lat="40.664127" lon="-4.717861">
        <ele>1051.410</ele>
        <time>2021-10-15T18:42:58Z</time>
      </trkpt>
      <trkpt lat="40.664151" lon="-4.717653">
        <ele>1050.298</ele>
        <time>2021-10-15T18:42:59Z</time>
      </trkpt>
      <trkpt lat="40.664211" lon="-4.717260">
        <ele>1048.842</ele>
        <time>2021-10-15T18:43:01Z</time>
      </trkpt>
      <trkpt lat="40.664251" lon="-4.717066">
        <ele>1048.497</ele>
        <time>2021-10-15T18:43:02Z</time>
      </trkpt>
      <trkpt lat="40.664324" lon="-4.716709">
        <ele>1047.235</ele>
        <time>2021-10-15T18:43:04Z</time>
      </trkpt>
      <trkpt lat="40.664393" lon="-4.716322">
        <ele>1045.778</ele>
        <time>2021-10-15T18:43:06Z</time>
      </trkpt>
      <trkpt lat="40.664421" lon="-4.716117">
        <ele>1045.933</ele>
        <time>2021-10-15T18:43:07Z</time>
      </trkpt>
      <trkpt lat="40.664445" lon="-4.715703">
        <ele>1044.454</ele>
        <time>2021-10-15T18:43:09Z</time>
      </trkpt>
      <trkpt lat="40.664437" lon="-4.715500">
        <ele>1043.656</ele>
        <time>2021-10-15T18:43:10Z</time>
      </trkpt>
      <trkpt lat="40.664416" lon="-4.715302">
        <ele>1043.111</ele>
        <time>2021-10-15T18:43:11Z</time>
      </trkpt>
      <trkpt lat="40.664341" lon="-4.714942">
        <ele>1042.608</ele>
        <time>2021-10-15T18:43:13Z</time>
      </trkpt>
      <trkpt lat="40.664291" lon="-4.714773">
        <ele>1042.813</ele>
        <time>2021-10-15T18:43:14Z</time>
      </trkpt>
      <trkpt lat="40.664240" lon="-4.714616">
        <ele>1042.691</ele>
        <time>2021-10-15T18:43:15Z</time>
      </trkpt>
      <trkpt lat="40.664141" lon="-4.714309">
        <ele>1041.769</ele>
        <time>2021-10-15T18:43:17Z</time>
      </trkpt>
      <trkpt lat="40.664096" lon="-4.714155">
        <ele>1040.473</ele>
        <time>2021-10-15T18:43:18Z</time>
      </trkpt>
      <trkpt lat="40.664020" lon="-4.713855">
        <ele>1039.368</ele>
        <time>2021-10-15T18:43:20Z</time>
      </trkpt>
      <trkpt lat="40.663988" lon="-4.713711">
        <ele>1038.066</ele>
        <time>2021-10-15T18:43:21Z</time>
      </trkpt>
      <trkpt lat="40.663944" lon="-4.713425">
        <ele>1036.839</ele>
        <time>2021-10-15T18:43:23Z</time>
      </trkpt>
      <trkpt lat="40.663931" lon="-4.713145">
        <ele>1035.234</ele>
        <time>2021-10-15T18:43:25Z</time>
      </trkpt>
      <trkpt lat="40.663933" lon="-4.713016">
        <ele>1034.535</ele>
        <time>2021-10-15T18:43:26Z</time>
      </trkpt>
      <trkpt lat="40.663948" lon="-4.712808">
        <ele>1032.886</ele>
        <time>2021-10-15T18:43:28Z</time>
      </trkpt>
      <trkpt lat="40.663967" lon="-4.712632">
        <ele>1031.614</ele>
        <time>2021-10-15T18:43:30Z</time>
      </trkpt>
      <trkpt lat="40.663976" lon="-4.712554">
        <ele>1031.408</ele>
        <time>2021-10-15T18:43:31Z</time>
      </trkpt>
      <trkpt lat="40.663982" lon="-4.712482">
        <ele>1031.451</ele>
        <time>2021-10-15T18:43:32Z</time>
      </trkpt>
      <trkpt lat="40.663966" lon="-4.712332">
        <ele>1031.469</ele>
        <time>2021-10-15T18:43:34Z</time>
      </trkpt>
      <trkpt lat="40.663903" lon="-4.712147">
        <ele>1031.457</ele>
        <time>2021-10-15T18:43:36Z</time>
      </trkpt>
      <trkpt lat="40.663799" lon="-4.711973">
        <ele>1031.211</ele>
        <time>2021-10-15T18:43:38Z</time>
      </trkpt>
      <trkpt lat="40.663726" lon="-4.711900">
        <ele>1031.176</ele>
        <time>2021-10-15T18:43:39Z</time>
      </trkpt>
      <trkpt lat="40.663542" lon="-4.711804">
        <ele>1030.984</ele>
        <time>2021-10-15T18:43:41Z</time>
      </trkpt>
      <trkpt lat="40.663434" lon="-4.711781">
        <ele>1030.827</ele>
        <time>2021-10-15T18:43:42Z</time>
      </trkpt>
      <trkpt lat="40.663218" lon="-4.711743">
        <ele>1030.322</ele>
        <time>2021-10-15T18:43:44Z</time>
      </trkpt>
      <trkpt lat="40.663004" lon="-4.711710">
        <ele>1029.754</ele>
        <time>2021-10-15T18:43:46Z</time>
      </trkpt>
      <trkpt lat="40.662897" lon="-4.711696">
        <ele>1029.756</ele>
        <time>2021-10-15T18:43:47Z</time>
      </trkpt>
      <trkpt lat="40.662706" lon="-4.711666">
        <ele>1028.011</ele>
        <time>2021-10-15T18:43:49Z</time>
      </trkpt>
      <trkpt lat="40.662536" lon="-4.711637">
        <ele>1028.008</ele>
        <time>2021-10-15T18:43:51Z</time>
      </trkpt>
      <trkpt lat="40.662365" lon="-4.711608">
        <ele>1027.483</ele>
        <time>2021-10-15T18:43:53Z</time>
      </trkpt>
      <trkpt lat="40.662172" lon="-4.711576">
        <ele>1027.391</ele>
        <time>2021-10-15T18:43:55Z</time>
      </trkpt>
      <trkpt lat="40.662068" lon="-4.711562">
        <ele>1027.329</ele>
        <time>2021-10-15T18:43:56Z</time>
      </trkpt>
      <trkpt lat="40.661879" lon="-4.711540">
        <ele>1027.733</ele>
        <time>2021-10-15T18:43:58Z</time>
      </trkpt>
      <trkpt lat="40.661741" lon="-4.711526">
        <ele>1027.798</ele>
        <time>2021-10-15T18:44:00Z</time>
      </trkpt>
      <trkpt lat="40.661687" lon="-4.711526">
        <ele>1027.776</ele>
        <time>2021-10-15T18:44:01Z</time>
      </trkpt>
      <trkpt lat="40.661639" lon="-4.711528">
        <ele>1027.369</ele>
        <time>2021-10-15T18:44:02Z</time>
      </trkpt>
      <trkpt lat="40.661591" lon="-4.711535">
        <ele>1027.814</ele>
        <time>2021-10-15T18:44:04Z</time>
      </trkpt>
      <trkpt lat="40.661545" lon="-4.711538">
        <ele>1027.713</ele>
        <time>2021-10-15T18:44:06Z</time>
      </trkpt>
      <trkpt lat="40.661514" lon="-4.711594">
        <ele>1027.743</ele>
        <time>2021-10-15T18:44:09Z</time>
      </trkpt>
      <trkpt lat="40.661545" lon="-4.711638">
        <ele>1027.907</ele>
        <time>2021-10-15T18:44:11Z</time>
      </trkpt>
      <trkpt lat="40.661591" lon="-4.711668">
        <ele>1044.908</ele>
        <time>2021-10-15T18:44:13Z</time>
      </trkpt>
      <trkpt lat="40.661654" lon="-4.711704">
        <ele>1067.829</ele>
        <time>2021-10-15T18:44:15Z</time>
      </trkpt>
      <trkpt lat="40.661720" lon="-4.711723">
        <ele>1077.527</ele>
        <time>2021-10-15T18:44:17Z</time>
      </trkpt>
      <trkpt lat="40.661775" lon="-4.711728">
        <ele>1077.535</ele>
        <time>2021-10-15T18:44:19Z</time>
      </trkpt>
      <trkpt lat="40.661835" lon="-4.711732">
        <ele>1077.519</ele>
        <time>2021-10-15T18:44:21Z</time>
      </trkpt>
      <trkpt lat="40.661884" lon="-4.711743">
        <ele>1077.524</ele>
        <time>2021-10-15T18:44:24Z</time>
      </trkpt>
      <trkpt lat="40.661872" lon="-4.711820">
        <ele>1078.092</ele>
        <time>2021-10-15T18:45:19Z</time>
      </trkpt>
      <trkpt lat="40.661851" lon="-4.711875">
        <ele>1078.075</ele>
        <time>2021-10-15T18:45:24Z</time>
      </trkpt>
      <trkpt lat="40.661807" lon="-4.711851">
        <ele>1078.040</ele>
        <time>2021-10-15T18:45:39Z</time>
      </trkpt>
      <trkpt lat="40.661734" lon="-4.711816">
        <ele>1078.072</ele>
        <time>2021-10-15T18:45:41Z</time>
      </trkpt>
      <trkpt lat="40.661660" lon="-4.711772">
        <ele>1077.713</ele>
        <time>2021-10-15T18:45:43Z</time>
      </trkpt>
      <trkpt lat="40.661554" lon="-4.711720">
        <ele>1077.714</ele>
        <time>2021-10-15T18:45:45Z</time>
      </trkpt>
      <trkpt lat="40.661498" lon="-4.711696">
        <ele>1077.708</ele>
        <time>2021-10-15T18:45:46Z</time>
      </trkpt>
      <trkpt lat="40.661398" lon="-4.711649">
        <ele>1077.755</ele>
        <time>2021-10-15T18:45:48Z</time>
      </trkpt>
      <trkpt lat="40.661347" lon="-4.711631">
        <ele>1077.783</ele>
        <time>2021-10-15T18:45:49Z</time>
      </trkpt>
      <trkpt lat="40.661256" lon="-4.711599">
        <ele>1077.791</ele>
        <time>2021-10-15T18:45:51Z</time>
      </trkpt>
      <trkpt lat="40.661177" lon="-4.711581">
        <ele>1077.725</ele>
        <time>2021-10-15T18:45:53Z</time>
      </trkpt>
      <trkpt lat="40.661113" lon="-4.711565">
        <ele>1077.790</ele>
        <time>2021-10-15T18:45:55Z</time>
      </trkpt>
      <trkpt lat="40.661067" lon="-4.711558">
        <ele>1077.718</ele>
        <time>2021-10-15T18:45:58Z</time>
      </trkpt>
      <trkpt lat="40.661006" lon="-4.711554">
        <ele>1077.721</ele>
        <time>2021-10-15T18:46:01Z</time>
      </trkpt>
      <trkpt lat="40.660958" lon="-4.711552">
        <ele>1077.736</ele>
        <time>2021-10-15T18:46:02Z</time>
      </trkpt>
      <trkpt lat="40.660813" lon="-4.711564">
        <ele>1077.764</ele>
        <time>2021-10-15T18:46:04Z</time>
      </trkpt>
      <trkpt lat="40.660726" lon="-4.711562">
        <ele>1077.706</ele>
        <time>2021-10-15T18:46:05Z</time>
      </trkpt>
      <trkpt lat="40.660594" lon="-4.711511">
        <ele>1077.716</ele>
        <time>2021-10-15T18:46:07Z</time>
      </trkpt>
      <trkpt lat="40.660545" lon="-4.711480">
        <ele>1077.708</ele>
        <time>2021-10-15T18:46:08Z</time>
      </trkpt>
      <trkpt lat="40.660428" lon="-4.711434">
        <ele>1077.754</ele>
        <time>2021-10-15T18:46:10Z</time>
      </trkpt>
      <trkpt lat="40.660275" lon="-4.711442">
        <ele>1077.792</ele>
        <time>2021-10-15T18:46:12Z</time>
      </trkpt>
      <trkpt lat="40.660109" lon="-4.711489">
        <ele>1077.730</ele>
        <time>2021-10-15T18:46:14Z</time>
      </trkpt>
      <trkpt lat="40.659991" lon="-4.711554">
        <ele>1077.724</ele>
        <time>2021-10-15T18:46:16Z</time>
      </trkpt>
      <trkpt lat="40.659931" lon="-4.711610">
        <ele>1077.739</ele>
        <time>2021-10-15T18:46:18Z</time>
      </trkpt>
      <trkpt lat="40.659887" lon="-4.711636">
        <ele>1077.747</ele>
        <time>2021-10-15T18:46:21Z</time>
      </trkpt>
      <trkpt lat="40.659836" lon="-4.711645">
        <ele>1077.770</ele>
        <time>2021-10-15T18:46:25Z</time>
      </trkpt>
      <trkpt lat="40.659801" lon="-4.711589">
        <ele>1077.245</ele>
        <time>2021-10-15T18:46:28Z</time>
      </trkpt>
      <trkpt lat="40.659795" lon="-4.711519">
        <ele>1077.261</ele>
        <time>2021-10-15T18:46:31Z</time>
      </trkpt>
      <trkpt lat="40.659836" lon="-4.711472">
        <ele>1077.221</ele>
        <time>2021-10-15T18:46:33Z</time>
      </trkpt>
      <trkpt lat="40.659877" lon="-4.711446">
        <ele>1077.213</ele>
        <time>2021-10-15T18:46:35Z</time>
      </trkpt>
      <trkpt lat="40.659845" lon="-4.711516">
        <ele>1077.208</ele>
        <time>2021-10-15T18:46:44Z</time>
      </trkpt>
      <trkpt lat="40.659801" lon="-4.711560">
        <ele>1077.224</ele>
        <time>2021-10-15T18:46:46Z</time>
      </trkpt>
      <trkpt lat="40.659747" lon="-4.711607">
        <ele>1077.232</ele>
        <time>2021-10-15T18:46:48Z</time>
      </trkpt>
      <trkpt lat="40.659784" lon="-4.711566">
        <ele>1074.190</ele>
        <time>2021-10-15T18:46:53Z</time>
      </trkpt>
      <trkpt lat="40.659901" lon="-4.711480">
        <ele>1074.014</ele>
        <time>2021-10-15T18:46:55Z</time>
      </trkpt>
      <trkpt lat="40.659959" lon="-4.711443">
        <ele>1073.529</ele>
        <time>2021-10-15T18:46:56Z</time>
      </trkpt>
      <trkpt lat="40.660055" lon="-4.711387">
        <ele>1073.067</ele>
        <time>2021-10-15T18:46:58Z</time>
      </trkpt>
      <trkpt lat="40.660117" lon="-4.711355">
        <ele>1073.080</ele>
        <time>2021-10-15T18:47:00Z</time>
      </trkpt>
      <trkpt lat="40.660156" lon="-4.711324">
        <ele>1073.095</ele>
        <time>2021-10-15T18:47:04Z</time>
      </trkpt>
      <trkpt lat="40.660200" lon="-4.711298">
        <ele>1073.045</ele>
        <time>2021-10-15T18:47:10Z</time>
      </trkpt>
      <trkpt lat="40.660244" lon="-4.711288">
        <ele>1075.247</ele>
        <time>2021-10-15T18:47:23Z</time>
      </trkpt>
      <trkpt lat="40.660296" lon="-4.711331">
        <ele>1077.111</ele>
        <time>2021-10-15T19:09:29Z</time>
      </trkpt>
      <trkpt lat="40.660354" lon="-4.711320">
        <ele>1077.108</ele>
        <time>2021-10-15T19:09:31Z</time>
      </trkpt>
      <trkpt lat="40.660400" lon="-4.711307">
        <ele>1077.162</ele>
        <time>2021-10-15T19:09:32Z</time>
      </trkpt>
      <trkpt lat="40.660503" lon="-4.711295">
        <ele>1077.180</ele>
        <time>2021-10-15T19:09:34Z</time>
      </trkpt>
      <trkpt lat="40.660573" lon="-4.711310">
        <ele>1077.518</ele>
        <time>2021-10-15T19:09:36Z</time>
      </trkpt>
      <trkpt lat="40.660662" lon="-4.711345">
        <ele>1077.582</ele>
        <time>2021-10-15T19:09:45Z</time>
      </trkpt>
      <trkpt lat="40.660725" lon="-4.711374">
        <ele>1077.547</ele>
        <time>2021-10-15T19:09:46Z</time>
      </trkpt>
      <trkpt lat="40.660891" lon="-4.711389">
        <ele>1077.485</ele>
        <time>2021-10-15T19:09:48Z</time>
      </trkpt>
      <trkpt lat="40.660997" lon="-4.711382">
        <ele>1077.478</ele>
        <time>2021-10-15T19:09:49Z</time>
      </trkpt>
      <trkpt lat="40.661111" lon="-4.711383">
        <ele>1077.433</ele>
        <time>2021-10-15T19:09:50Z</time>
      </trkpt>
      <trkpt lat="40.661210" lon="-4.711401">
        <ele>1077.452</ele>
        <time>2021-10-15T19:09:51Z</time>
      </trkpt>
      <trkpt lat="40.661295" lon="-4.711423">
        <ele>1077.453</ele>
        <time>2021-10-15T19:09:52Z</time>
      </trkpt>
      <trkpt lat="40.661446" lon="-4.711486">
        <ele>1077.408</ele>
        <time>2021-10-15T19:09:54Z</time>
      </trkpt>
      <trkpt lat="40.661513" lon="-4.711533">
        <ele>1077.408</ele>
        <time>2021-10-15T19:09:55Z</time>
      </trkpt>
      <trkpt lat="40.661572" lon="-4.711581">
        <ele>1077.453</ele>
        <time>2021-10-15T19:09:56Z</time>
      </trkpt>
      <trkpt lat="40.661656" lon="-4.711650">
        <ele>1077.461</ele>
        <time>2021-10-15T19:09:58Z</time>
      </trkpt>
      <trkpt lat="40.661719" lon="-4.711674">
        <ele>1077.479</ele>
        <time>2021-10-15T19:10:00Z</time>
      </trkpt>
      <trkpt lat="40.661792" lon="-4.711690">
        <ele>1077.453</ele>
        <time>2021-10-15T19:10:02Z</time>
      </trkpt>
      <trkpt lat="40.661855" lon="-4.711698">
        <ele>1077.468</ele>
        <time>2021-10-15T19:10:04Z</time>
      </trkpt>
      <trkpt lat="40.661908" lon="-4.711716">
        <ele>1077.426</ele>
        <time>2021-10-15T19:10:07Z</time>
      </trkpt>
      <trkpt lat="40.661940" lon="-4.711760">
        <ele>1077.949</ele>
        <time>2021-10-15T19:10:13Z</time>
      </trkpt>
      <trkpt lat="40.661910" lon="-4.711821">
        <ele>1078.474</ele>
        <time>2021-10-15T19:10:52Z</time>
      </trkpt>
      <trkpt lat="40.662044" lon="-4.711909">
        <ele>1082.747</ele>
        <time>2021-10-16T08:11:29Z</time>
      </trkpt>
      <trkpt lat="40.661966" lon="-4.711916">
        <ele>1082.729</ele>
        <time>2021-10-16T08:11:31Z</time>
      </trkpt>
      <trkpt lat="40.662019" lon="-4.711929">
        <ele>1082.721</ele>
        <time>2021-10-16T08:11:36Z</time>
      </trkpt>
      <trkpt lat="40.662235" lon="-4.711943">
        <ele>1082.708</ele>
        <time>2021-10-16T08:11:49Z</time>
      </trkpt>
      <trkpt lat="40.662102" lon="-4.711932">
        <ele>1082.712</ele>
        <time>2021-10-16T08:11:52Z</time>
      </trkpt>
      <trkpt lat="40.662022" lon="-4.711921">
        <ele>1082.780</ele>
        <time>2021-10-16T08:11:57Z</time>
      </trkpt>
      <trkpt lat="40.662158" lon="-4.711921">
        <ele>1082.739</ele>
        <time>2021-10-16T08:12:02Z</time>
      </trkpt>
      <trkpt lat="40.662110" lon="-4.711940">
        <ele>1082.773</ele>
        <time>2021-10-16T08:12:08Z</time>
      </trkpt>
      <trkpt lat="40.662019" lon="-4.711938">
        <ele>1082.718</ele>
        <time>2021-10-16T08:12:14Z</time>
      </trkpt>
      <trkpt lat="40.662124" lon="-4.711910">
        <ele>1082.767</ele>
        <time>2021-10-16T08:12:22Z</time>
      </trkpt>
      <trkpt lat="40.662037" lon="-4.711906">
        <ele>1082.789</ele>
        <time>2021-10-16T08:12:28Z</time>
      </trkpt>
      <trkpt lat="40.662162" lon="-4.711918">
        <ele>1082.726</ele>
        <time>2021-10-16T08:12:38Z</time>
      </trkpt>
      <trkpt lat="40.662040" lon="-4.711915">
        <ele>1082.732</ele>
        <time>2021-10-16T08:12:45Z</time>
      </trkpt>
      <trkpt lat="40.661976" lon="-4.711920">
        <ele>1082.792</ele>
        <time>2021-10-16T08:12:48Z</time>
      </trkpt>
      <trkpt lat="40.662023" lon="-4.711924">
        <ele>1082.711</ele>
        <time>2021-10-16T08:13:07Z</time>
      </trkpt>
      <trkpt lat="40.662197" lon="-4.711922">
        <ele>1082.708</ele>
        <time>2021-10-16T08:13:18Z</time>
      </trkpt>
      <trkpt lat="40.662026" lon="-4.711926">
        <ele>1082.761</ele>
        <time>2021-10-16T08:13:26Z</time>
      </trkpt>
      <trkpt lat="40.661968" lon="-4.711919">
        <ele>1082.769</ele>
        <time>2021-10-16T08:13:35Z</time>
      </trkpt>
      <trkpt lat="40.662049" lon="-4.711934">
        <ele>1082.788</ele>
        <time>2021-10-16T08:13:40Z</time>
      </trkpt>
      <trkpt lat="40.662172" lon="-4.711935">
        <ele>1082.732</ele>
        <time>2021-10-16T08:13:47Z</time>
      </trkpt>
      <trkpt lat="40.662101" lon="-4.711928">
        <ele>1082.657</ele>
        <time>2021-10-16T08:13:53Z</time>
      </trkpt>
      <trkpt lat="40.661986" lon="-4.711917">
        <ele>1082.736</ele>
        <time>2021-10-16T08:13:59Z</time>
      </trkpt>
      <trkpt lat="40.662074" lon="-4.711938">
        <ele>1082.668</ele>
        <time>2021-10-16T08:14:11Z</time>
      </trkpt>
      <trkpt lat="40.662122" lon="-4.711939">
        <ele>1082.625</ele>
        <time>2021-10-16T08:14:17Z</time>
      </trkpt>
      <trkpt lat="40.662023" lon="-4.711925">
        <ele>1082.698</ele>
        <time>2021-10-16T08:14:22Z</time>
      </trkpt>
      <trkpt lat="40.662079" lon="-4.711924">
        <ele>1082.615</ele>
        <time>2021-10-16T08:14:41Z</time>
      </trkpt>
      <trkpt lat="40.662171" lon="-4.711949">
        <ele>1082.826</ele>
        <time>2021-10-16T08:14:57Z</time>
      </trkpt>
      <trkpt lat="40.662219" lon="-4.711949">
        <ele>1082.908</ele>
        <time>2021-10-16T08:15:01Z</time>
      </trkpt>
      <trkpt lat="40.662047" lon="-4.711925">
        <ele>1082.997</ele>
        <time>2021-10-16T08:15:24Z</time>
      </trkpt>
      <trkpt lat="40.662151" lon="-4.711938">
        <ele>1082.835</ele>
        <time>2021-10-16T08:15:40Z</time>
      </trkpt>
      <trkpt lat="40.662085" lon="-4.711920">
        <ele>1083.474</ele>
        <time>2021-10-16T08:16:02Z</time>
      </trkpt>
      <trkpt lat="40.662153" lon="-4.711910">
        <ele>1083.458</ele>
        <time>2021-10-16T08:16:06Z</time>
      </trkpt>
      <trkpt lat="40.662236" lon="-4.711933">
        <ele>1083.473</ele>
        <time>2021-10-16T08:16:26Z</time>
      </trkpt>
      <trkpt lat="40.662123" lon="-4.711898">
        <ele>1084.032</ele>
        <time>2021-10-16T08:16:43Z</time>
      </trkpt>
      <trkpt lat="40.662193" lon="-4.711927">
        <ele>1084.544</ele>
        <time>2021-10-16T08:16:54Z</time>
      </trkpt>
      <trkpt lat="40.662106" lon="-4.711943">
        <ele>1084.271</ele>
        <time>2021-10-16T08:17:01Z</time>
      </trkpt>
      <trkpt lat="40.662174" lon="-4.711933">
        <ele>1083.838</ele>
        <time>2021-10-16T08:17:04Z</time>
      </trkpt>
      <trkpt lat="40.662119" lon="-4.711931">
        <ele>1082.570</ele>
        <time>2021-10-16T08:17:39Z</time>
      </trkpt>
      <trkpt lat="40.662186" lon="-4.711924">
        <ele>1082.517</ele>
        <time>2021-10-16T08:17:56Z</time>
      </trkpt>
      <trkpt lat="40.662137" lon="-4.711939">
        <ele>1082.408</ele>
        <time>2021-10-16T08:18:32Z</time>
      </trkpt>
      <trkpt lat="40.662193" lon="-4.711930">
        <ele>1082.471</ele>
        <time>2021-10-16T08:18:41Z</time>
      </trkpt>
      <trkpt lat="40.662135" lon="-4.711930">
        <ele>1082.589</ele>
        <time>2021-10-16T08:19:04Z</time>
      </trkpt>
      <trkpt lat="40.662242" lon="-4.711935">
        <ele>1082.588</ele>
        <time>2021-10-16T08:19:21Z</time>
      </trkpt>
      <trkpt lat="40.662162" lon="-4.711934">
        <ele>1082.592</ele>
        <time>2021-10-16T08:19:27Z</time>
      </trkpt>
      <trkpt lat="40.662216" lon="-4.711927">
        <ele>1082.487</ele>
        <time>2021-10-16T08:19:43Z</time>
      </trkpt>
      <trkpt lat="40.662091" lon="-4.711925">
        <ele>1082.576</ele>
        <time>2021-10-16T08:20:03Z</time>
      </trkpt>
      <trkpt lat="40.662152" lon="-4.711965">
        <ele>1082.558</ele>
        <time>2021-10-16T08:20:10Z</time>
      </trkpt>
      <trkpt lat="40.662202" lon="-4.711931">
        <ele>1082.535</ele>
        <time>2021-10-16T08:20:45Z</time>
      </trkpt>
      <trkpt lat="40.662117" lon="-4.711878">
        <ele>1082.545</ele>
        <time>2021-10-16T08:20:47Z</time>
      </trkpt>
      <trkpt lat="40.662247" lon="-4.711647">
        <ele>1082.547</ele>
        <time>2021-10-16T08:20:49Z</time>
      </trkpt>
      <trkpt lat="40.662222" lon="-4.711721">
        <ele>1083.211</ele>
        <time>2021-10-16T08:20:51Z</time>
      </trkpt>
      <trkpt lat="40.662169" lon="-4.711735">
        <ele>1083.208</ele>
        <time>2021-10-16T08:20:53Z</time>
      </trkpt>
      <trkpt lat="40.662087" lon="-4.711768">
        <ele>1083.222</ele>
        <time>2021-10-16T08:20:56Z</time>
      </trkpt>
      <trkpt lat="40.662027" lon="-4.711763">
        <ele>1083.350</ele>
        <time>2021-10-16T08:20:59Z</time>
      </trkpt>
      <trkpt lat="40.661981" lon="-4.711798">
        <ele>1086.219</ele>
        <time>2021-10-16T08:22:10Z</time>
      </trkpt>
      <trkpt lat="40.661922" lon="-4.711790">
        <ele>1086.293</ele>
        <time>2021-10-16T08:22:12Z</time>
      </trkpt>
      <trkpt lat="40.661863" lon="-4.711778">
        <ele>1086.298</ele>
        <time>2021-10-16T08:22:14Z</time>
      </trkpt>
      <trkpt lat="40.661805" lon="-4.711772">
        <ele>1086.237</ele>
        <time>2021-10-16T08:22:16Z</time>
      </trkpt>
      <trkpt lat="40.661736" lon="-4.711768">
        <ele>1086.259</ele>
        <time>2021-10-16T08:22:18Z</time>
      </trkpt>
      <trkpt lat="40.661665" lon="-4.711756">
        <ele>1086.156</ele>
        <time>2021-10-16T08:22:20Z</time>
      </trkpt>
      <trkpt lat="40.661595" lon="-4.711731">
        <ele>1086.141</ele>
        <time>2021-10-16T08:22:22Z</time>
      </trkpt>
      <trkpt lat="40.661535" lon="-4.711705">
        <ele>1086.181</ele>
        <time>2021-10-16T08:22:24Z</time>
      </trkpt>
      <trkpt lat="40.661458" lon="-4.711673">
        <ele>1086.109</ele>
        <time>2021-10-16T08:22:26Z</time>
      </trkpt>
      <trkpt lat="40.661391" lon="-4.711638">
        <ele>1086.108</ele>
        <time>2021-10-16T08:22:28Z</time>
      </trkpt>
      <trkpt lat="40.661334" lon="-4.711605">
        <ele>1086.132</ele>
        <time>2021-10-16T08:22:30Z</time>
      </trkpt>
      <trkpt lat="40.661254" lon="-4.711584">
        <ele>1086.140</ele>
        <time>2021-10-16T08:22:32Z</time>
      </trkpt>
      <trkpt lat="40.661168" lon="-4.711582">
        <ele>1086.189</ele>
        <time>2021-10-16T08:22:34Z</time>
      </trkpt>
      <trkpt lat="40.661096" lon="-4.711580">
        <ele>1086.183</ele>
        <time>2021-10-16T08:22:36Z</time>
      </trkpt>
      <trkpt lat="40.661028" lon="-4.711589">
        <ele>1086.148</ele>
        <time>2021-10-16T08:22:38Z</time>
      </trkpt>
      <trkpt lat="40.660954" lon="-4.711611">
        <ele>1086.127</ele>
        <time>2021-10-16T08:22:40Z</time>
      </trkpt>
      <trkpt lat="40.660858" lon="-4.711635">
        <ele>1086.179</ele>
        <time>2021-10-16T08:22:42Z</time>
      </trkpt>
      <trkpt lat="40.660734" lon="-4.711609">
        <ele>1086.196</ele>
        <time>2021-10-16T08:22:44Z</time>
      </trkpt>
      <trkpt lat="40.660653" lon="-4.711572">
        <ele>1086.196</ele>
        <time>2021-10-16T08:22:45Z</time>
      </trkpt>
      <trkpt lat="40.660477" lon="-4.711545">
        <ele>1086.131</ele>
        <time>2021-10-16T08:22:47Z</time>
      </trkpt>
      <trkpt lat="40.660398" lon="-4.711557">
        <ele>1086.124</ele>
        <time>2021-10-16T08:22:48Z</time>
      </trkpt>
      <trkpt lat="40.660328" lon="-4.711583">
        <ele>1086.108</ele>
        <time>2021-10-16T08:22:49Z</time>
      </trkpt>
      <trkpt lat="40.660214" lon="-4.711641">
        <ele>1086.117</ele>
        <time>2021-10-16T08:22:51Z</time>
      </trkpt>
      <trkpt lat="40.660152" lon="-4.711674">
        <ele>1086.185</ele>
        <time>2021-10-16T08:22:52Z</time>
      </trkpt>
      <trkpt lat="40.660014" lon="-4.711752">
        <ele>1086.124</ele>
        <time>2021-10-16T08:22:54Z</time>
      </trkpt>
      <trkpt lat="40.659878" lon="-4.711805">
        <ele>1086.168</ele>
        <time>2021-10-16T08:22:56Z</time>
      </trkpt>
      <trkpt lat="40.659715" lon="-4.711854">
        <ele>1086.193</ele>
        <time>2021-10-16T08:22:58Z</time>
      </trkpt>
      <trkpt lat="40.659533" lon="-4.711883">
        <ele>1086.142</ele>
        <time>2021-10-16T08:23:00Z</time>
      </trkpt>
      <trkpt lat="40.659439" lon="-4.711890">
        <ele>1086.154</ele>
        <time>2021-10-16T08:23:01Z</time>
      </trkpt>
      <trkpt lat="40.659246" lon="-4.711880">
        <ele>1086.121</ele>
        <time>2021-10-16T08:23:03Z</time>
      </trkpt>
      <trkpt lat="40.659056" lon="-4.711846">
        <ele>1086.159</ele>
        <time>2021-10-16T08:23:05Z</time>
      </trkpt>
      <trkpt lat="40.658968" lon="-4.711819">
        <ele>1086.103</ele>
        <time>2021-10-16T08:23:06Z</time>
      </trkpt>
      <trkpt lat="40.658805" lon="-4.711748">
        <ele>1086.123</ele>
        <time>2021-10-16T08:23:08Z</time>
      </trkpt>
      <trkpt lat="40.658729" lon="-4.711700">
        <ele>1086.108</ele>
        <time>2021-10-16T08:23:09Z</time>
      </trkpt>
      <trkpt lat="40.658585" lon="-4.711566">
        <ele>1086.073</ele>
        <time>2021-10-16T08:23:11Z</time>
      </trkpt>
      <trkpt lat="40.658469" lon="-4.711411">
        <ele>1086.051</ele>
        <time>2021-10-16T08:23:13Z</time>
      </trkpt>
      <trkpt lat="40.658419" lon="-4.711325">
        <ele>1086.020</ele>
        <time>2021-10-16T08:23:14Z</time>
      </trkpt>
      <trkpt lat="40.658372" lon="-4.711228">
        <ele>1056.924</ele>
        <time>2021-10-16T08:23:15Z</time>
      </trkpt>
      <trkpt lat="40.658326" lon="-4.711123">
        <ele>1026.349</ele>
        <time>2021-10-16T08:23:16Z</time>
      </trkpt>
      <trkpt lat="40.658231" lon="-4.710903">
        <ele>1024.228</ele>
        <time>2021-10-16T08:23:18Z</time>
      </trkpt>
      <trkpt lat="40.658183" lon="-4.710789">
        <ele>1024.250</ele>
        <time>2021-10-16T08:23:19Z</time>
      </trkpt>
      <trkpt lat="40.658137" lon="-4.710676">
        <ele>1023.427</ele>
        <time>2021-10-16T08:23:20Z</time>
      </trkpt>
      <trkpt lat="40.658091" lon="-4.710564">
        <ele>1023.212</ele>
        <time>2021-10-16T08:23:21Z</time>
      </trkpt>
      <trkpt lat="40.657989" lon="-4.710328">
        <ele>1022.632</ele>
        <time>2021-10-16T08:23:23Z</time>
      </trkpt>
      <trkpt lat="40.657858" lon="-4.710074">
        <ele>1022.705</ele>
        <time>2021-10-16T08:23:25Z</time>
      </trkpt>
      <trkpt lat="40.657705" lon="-4.709864">
        <ele>1021.108</ele>
        <time>2021-10-16T08:23:27Z</time>
      </trkpt>
      <trkpt lat="40.657628" lon="-4.709774">
        <ele>1021.119</ele>
        <time>2021-10-16T08:23:28Z</time>
      </trkpt>
      <trkpt lat="40.657554" lon="-4.709689">
        <ele>1021.167</ele>
        <time>2021-10-16T08:23:29Z</time>
      </trkpt>
      <trkpt lat="40.657420" lon="-4.709534">
        <ele>1019.136</ele>
        <time>2021-10-16T08:23:31Z</time>
      </trkpt>
      <trkpt lat="40.657279" lon="-4.709442">
        <ele>1019.510</ele>
        <time>2021-10-16T08:23:33Z</time>
      </trkpt>
      <trkpt lat="40.657116" lon="-4.709444">
        <ele>1019.055</ele>
        <time>2021-10-16T08:23:35Z</time>
      </trkpt>
      <trkpt lat="40.657029" lon="-4.709474">
        <ele>1018.754</ele>
        <time>2021-10-16T08:23:36Z</time>
      </trkpt>
      <trkpt lat="40.656845" lon="-4.709551">
        <ele>1017.946</ele>
        <time>2021-10-16T08:23:38Z</time>
      </trkpt>
      <trkpt lat="40.656658" lon="-4.709600">
        <ele>1017.163</ele>
        <time>2021-10-16T08:23:40Z</time>
      </trkpt>
      <trkpt lat="40.656478" lon="-4.709599">
        <ele>1014.952</ele>
        <time>2021-10-16T08:23:42Z</time>
      </trkpt>
      <trkpt lat="40.656389" lon="-4.709564">
        <ele>1014.953</ele>
        <time>2021-10-16T08:23:43Z</time>
      </trkpt>
      <trkpt lat="40.656223" lon="-4.709420">
        <ele>1015.008</ele>
        <time>2021-10-16T08:23:45Z</time>
      </trkpt>
      <trkpt lat="40.656143" lon="-4.709329">
        <ele>1014.608</ele>
        <time>2021-10-16T08:23:46Z</time>
      </trkpt>
      <trkpt lat="40.655993" lon="-4.709163">
        <ele>1014.693</ele>
        <time>2021-10-16T08:23:48Z</time>
      </trkpt>
      <trkpt lat="40.655857" lon="-4.709013">
        <ele>1014.421</ele>
        <time>2021-10-16T08:23:50Z</time>
      </trkpt>
      <trkpt lat="40.655791" lon="-4.708941">
        <ele>1014.430</ele>
        <time>2021-10-16T08:23:51Z</time>
      </trkpt>
      <trkpt lat="40.655722" lon="-4.708868">
        <ele>1013.724</ele>
        <time>2021-10-16T08:23:52Z</time>
      </trkpt>
      <trkpt lat="40.655554" lon="-4.708761">
        <ele>1015.199</ele>
        <time>2021-10-16T08:23:54Z</time>
      </trkpt>
      <trkpt lat="40.655448" lon="-4.708746">
        <ele>1015.828</ele>
        <time>2021-10-16T08:23:55Z</time>
      </trkpt>
      <trkpt lat="40.655337" lon="-4.708757">
        <ele>1017.590</ele>
        <time>2021-10-16T08:23:56Z</time>
      </trkpt>
      <trkpt lat="40.655219" lon="-4.708788">
        <ele>1018.757</ele>
        <time>2021-10-16T08:23:57Z</time>
      </trkpt>
      <trkpt lat="40.654971" lon="-4.708863">
        <ele>1019.653</ele>
        <time>2021-10-16T08:23:59Z</time>
      </trkpt>
      <trkpt lat="40.654698" lon="-4.708929">
        <ele>1020.404</ele>
        <time>2021-10-16T08:24:01Z</time>
      </trkpt>
      <trkpt lat="40.654438" lon="-4.708982">
        <ele>1020.014</ele>
        <time>2021-10-16T08:24:03Z</time>
      </trkpt>
      <trkpt lat="40.654184" lon="-4.709029">
        <ele>1019.908</ele>
        <time>2021-10-16T08:24:05Z</time>
      </trkpt>
      <trkpt lat="40.653927" lon="-4.709091">
        <ele>1020.983</ele>
        <time>2021-10-16T08:24:07Z</time>
      </trkpt>
      <trkpt lat="40.653804" lon="-4.709138">
        <ele>1020.931</ele>
        <time>2021-10-16T08:24:08Z</time>
      </trkpt>
      <trkpt lat="40.653690" lon="-4.709207">
        <ele>1020.180</ele>
        <time>2021-10-16T08:24:09Z</time>
      </trkpt>
      <trkpt lat="40.653482" lon="-4.709416">
        <ele>1020.784</ele>
        <time>2021-10-16T08:24:11Z</time>
      </trkpt>
      <trkpt lat="40.653387" lon="-4.709547">
        <ele>1021.159</ele>
        <time>2021-10-16T08:24:12Z</time>
      </trkpt>
      <trkpt lat="40.653292" lon="-4.709680">
        <ele>1021.588</ele>
        <time>2021-10-16T08:24:13Z</time>
      </trkpt>
      <trkpt lat="40.653093" lon="-4.709948">
        <ele>1022.060</ele>
        <time>2021-10-16T08:24:15Z</time>
      </trkpt>
      <trkpt lat="40.652993" lon="-4.710081">
        <ele>1022.387</ele>
        <time>2021-10-16T08:24:16Z</time>
      </trkpt>
      <trkpt lat="40.652897" lon="-4.710205">
        <ele>1023.243</ele>
        <time>2021-10-16T08:24:17Z</time>
      </trkpt>
      <trkpt lat="40.652727" lon="-4.710435">
        <ele>1023.364</ele>
        <time>2021-10-16T08:24:19Z</time>
      </trkpt>
      <trkpt lat="40.652589" lon="-4.710643">
        <ele>1023.010</ele>
        <time>2021-10-16T08:24:21Z</time>
      </trkpt>
      <trkpt lat="40.652530" lon="-4.710738">
        <ele>1023.208</ele>
        <time>2021-10-16T08:24:22Z</time>
      </trkpt>
      <trkpt lat="40.652436" lon="-4.710915">
        <ele>1023.592</ele>
        <time>2021-10-16T08:24:24Z</time>
      </trkpt>
      <trkpt lat="40.652398" lon="-4.710999">
        <ele>1024.220</ele>
        <time>2021-10-16T08:24:25Z</time>
      </trkpt>
      <trkpt lat="40.652338" lon="-4.711170">
        <ele>1024.519</ele>
        <time>2021-10-16T08:24:27Z</time>
      </trkpt>
      <trkpt lat="40.652279" lon="-4.711354">
        <ele>1024.673</ele>
        <time>2021-10-16T08:24:29Z</time>
      </trkpt>
      <trkpt lat="40.652212" lon="-4.711501">
        <ele>1025.068</ele>
        <time>2021-10-16T08:24:31Z</time>
      </trkpt>
      <trkpt lat="40.652165" lon="-4.711551">
        <ele>1025.527</ele>
        <time>2021-10-16T08:24:32Z</time>
      </trkpt>
      <trkpt lat="40.652061" lon="-4.711577">
        <ele>1025.949</ele>
        <time>2021-10-16T08:24:34Z</time>
      </trkpt>
      <trkpt lat="40.651959" lon="-4.711475">
        <ele>1026.646</ele>
        <time>2021-10-16T08:24:36Z</time>
      </trkpt>
      <trkpt lat="40.651909" lon="-4.711376">
        <ele>1026.687</ele>
        <time>2021-10-16T08:24:37Z</time>
      </trkpt>
      <trkpt lat="40.651805" lon="-4.711110">
        <ele>1026.042</ele>
        <time>2021-10-16T08:24:39Z</time>
      </trkpt>
      <trkpt lat="40.651676" lon="-4.710818">
        <ele>1024.726</ele>
        <time>2021-10-16T08:24:41Z</time>
      </trkpt>
      <trkpt lat="40.651603" lon="-4.710659">
        <ele>1024.108</ele>
        <time>2021-10-16T08:24:42Z</time>
      </trkpt>
      <trkpt lat="40.651448" lon="-4.710317">
        <ele>1023.556</ele>
        <time>2021-10-16T08:24:44Z</time>
      </trkpt>
      <trkpt lat="40.651292" lon="-4.709978">
        <ele>1022.884</ele>
        <time>2021-10-16T08:24:46Z</time>
      </trkpt>
      <trkpt lat="40.651210" lon="-4.709802">
        <ele>1021.843</ele>
        <time>2021-10-16T08:24:47Z</time>
      </trkpt>
      <trkpt lat="40.651129" lon="-4.709635">
        <ele>1022.227</ele>
        <time>2021-10-16T08:24:48Z</time>
      </trkpt>
      <trkpt lat="40.651053" lon="-4.709480">
        <ele>1022.932</ele>
        <time>2021-10-16T08:24:49Z</time>
      </trkpt>
      <trkpt lat="40.650918" lon="-4.709186">
        <ele>1023.111</ele>
        <time>2021-10-16T08:24:51Z</time>
      </trkpt>
      <trkpt lat="40.650848" lon="-4.709037">
        <ele>1022.513</ele>
        <time>2021-10-16T08:24:52Z</time>
      </trkpt>
      <trkpt lat="40.650775" lon="-4.708882">
        <ele>1021.060</ele>
        <time>2021-10-16T08:24:53Z</time>
      </trkpt>
      <trkpt lat="40.650700" lon="-4.708724">
        <ele>1019.671</ele>
        <time>2021-10-16T08:24:54Z</time>
      </trkpt>
      <trkpt lat="40.650553" lon="-4.708409">
        <ele>1018.141</ele>
        <time>2021-10-16T08:24:56Z</time>
      </trkpt>
      <trkpt lat="40.650485" lon="-4.708261">
        <ele>1017.715</ele>
        <time>2021-10-16T08:24:57Z</time>
      </trkpt>
      <trkpt lat="40.650353" lon="-4.707980">
        <ele>1017.208</ele>
        <time>2021-10-16T08:24:59Z</time>
      </trkpt>
      <trkpt lat="40.650284" lon="-4.707837">
        <ele>1016.875</ele>
        <time>2021-10-16T08:25:00Z</time>
      </trkpt>
      <trkpt lat="40.650216" lon="-4.707693">
        <ele>1017.293</ele>
        <time>2021-10-16T08:25:01Z</time>
      </trkpt>
      <trkpt lat="40.650081" lon="-4.707394">
        <ele>1017.262</ele>
        <time>2021-10-16T08:25:03Z</time>
      </trkpt>
      <trkpt lat="40.649933" lon="-4.707076">
        <ele>1016.716</ele>
        <time>2021-10-16T08:25:05Z</time>
      </trkpt>
      <trkpt lat="40.649854" lon="-4.706909">
        <ele>1017.471</ele>
        <time>2021-10-16T08:25:06Z</time>
      </trkpt>
      <trkpt lat="40.649774" lon="-4.706741">
        <ele>1017.070</ele>
        <time>2021-10-16T08:25:07Z</time>
      </trkpt>
      <trkpt lat="40.649694" lon="-4.706573">
        <ele>1016.462</ele>
        <time>2021-10-16T08:25:08Z</time>
      </trkpt>
      <trkpt lat="40.649614" lon="-4.706408">
        <ele>1015.959</ele>
        <time>2021-10-16T08:25:09Z</time>
      </trkpt>
      <trkpt lat="40.649458" lon="-4.706082">
        <ele>1016.053</ele>
        <time>2021-10-16T08:25:11Z</time>
      </trkpt>
      <trkpt lat="40.649381" lon="-4.705917">
        <ele>1017.204</ele>
        <time>2021-10-16T08:25:12Z</time>
      </trkpt>
      <trkpt lat="40.649229" lon="-4.705593">
        <ele>1016.914</ele>
        <time>2021-10-16T08:25:14Z</time>
      </trkpt>
      <trkpt lat="40.649084" lon="-4.705274">
        <ele>1016.708</ele>
        <time>2021-10-16T08:25:16Z</time>
      </trkpt>
      <trkpt lat="40.649009" lon="-4.705112">
        <ele>1016.273</ele>
        <time>2021-10-16T08:25:17Z</time>
      </trkpt>
      <trkpt lat="40.648866" lon="-4.704789">
        <ele>1016.811</ele>
        <time>2021-10-16T08:25:19Z</time>
      </trkpt>
      <trkpt lat="40.648737" lon="-4.704511">
        <ele>1018.080</ele>
        <time>2021-10-16T08:25:21Z</time>
      </trkpt>
      <trkpt lat="40.648621" lon="-4.704290">
        <ele>1018.674</ele>
        <time>2021-10-16T08:25:23Z</time>
      </trkpt>
      <trkpt lat="40.648550" lon="-4.704202">
        <ele>1019.869</ele>
        <time>2021-10-16T08:25:24Z</time>
      </trkpt>
      <trkpt lat="40.648369" lon="-4.704078">
        <ele>1019.658</ele>
        <time>2021-10-16T08:25:26Z</time>
      </trkpt>
      <trkpt lat="40.648148" lon="-4.704039">
        <ele>1018.920</ele>
        <time>2021-10-16T08:25:28Z</time>
      </trkpt>
      <trkpt lat="40.648023" lon="-4.704064">
        <ele>1019.217</ele>
        <time>2021-10-16T08:25:29Z</time>
      </trkpt>
      <trkpt lat="40.647885" lon="-4.704118">
        <ele>1019.172</ele>
        <time>2021-10-16T08:25:30Z</time>
      </trkpt>
      <trkpt lat="40.647594" lon="-4.704239">
        <ele>1018.913</ele>
        <time>2021-10-16T08:25:32Z</time>
      </trkpt>
      <trkpt lat="40.647299" lon="-4.704349">
        <ele>1016.614</ele>
        <time>2021-10-16T08:25:34Z</time>
      </trkpt>
      <trkpt lat="40.647020" lon="-4.704455">
        <ele>1017.108</ele>
        <time>2021-10-16T08:25:36Z</time>
      </trkpt>
      <trkpt lat="40.646888" lon="-4.704504">
        <ele>1017.115</ele>
        <time>2021-10-16T08:25:37Z</time>
      </trkpt>
      <trkpt lat="40.646623" lon="-4.704576">
        <ele>1016.713</ele>
        <time>2021-10-16T08:25:39Z</time>
      </trkpt>
      <trkpt lat="40.646355" lon="-4.704627">
        <ele>1016.142</ele>
        <time>2021-10-16T08:25:41Z</time>
      </trkpt>
      <trkpt lat="40.646220" lon="-4.704671">
        <ele>1016.356</ele>
        <time>2021-10-16T08:25:42Z</time>
      </trkpt>
      <trkpt lat="40.646079" lon="-4.704729">
        <ele>1016.681</ele>
        <time>2021-10-16T08:25:43Z</time>
      </trkpt>
      <trkpt lat="40.645783" lon="-4.704857">
        <ele>1015.330</ele>
        <time>2021-10-16T08:25:45Z</time>
      </trkpt>
      <trkpt lat="40.645472" lon="-4.704974">
        <ele>1016.572</ele>
        <time>2021-10-16T08:25:47Z</time>
      </trkpt>
      <trkpt lat="40.645323" lon="-4.705028">
        <ele>1015.279</ele>
        <time>2021-10-16T08:25:48Z</time>
      </trkpt>
      <trkpt lat="40.645173" lon="-4.705078">
        <ele>1015.953</ele>
        <time>2021-10-16T08:25:49Z</time>
      </trkpt>
      <trkpt lat="40.645032" lon="-4.705125">
        <ele>1015.304</ele>
        <time>2021-10-16T08:25:50Z</time>
      </trkpt>
      <trkpt lat="40.644747" lon="-4.705213">
        <ele>1014.014</ele>
        <time>2021-10-16T08:25:52Z</time>
      </trkpt>
      <trkpt lat="40.644452" lon="-4.705322">
        <ele>1015.208</ele>
        <time>2021-10-16T08:25:54Z</time>
      </trkpt>
      <trkpt lat="40.644139" lon="-4.705435">
        <ele>1015.943</ele>
        <time>2021-10-16T08:25:56Z</time>
      </trkpt>
      <trkpt lat="40.643824" lon="-4.705544">
        <ele>1015.371</ele>
        <time>2021-10-16T08:25:58Z</time>
      </trkpt>
      <trkpt lat="40.643518" lon="-4.705647">
        <ele>1015.650</ele>
        <time>2021-10-16T08:26:00Z</time>
      </trkpt>
      <trkpt lat="40.643219" lon="-4.705753">
        <ele>1014.834</ele>
        <time>2021-10-16T08:26:02Z</time>
      </trkpt>
      <trkpt lat="40.642937" lon="-4.705855">
        <ele>1016.039</ele>
        <time>2021-10-16T08:26:04Z</time>
      </trkpt>
      <trkpt lat="40.642658" lon="-4.705955">
        <ele>1015.138</ele>
        <time>2021-10-16T08:26:06Z</time>
      </trkpt>
      <trkpt lat="40.642401" lon="-4.706051">
        <ele>1014.210</ele>
        <time>2021-10-16T08:26:08Z</time>
      </trkpt>
      <trkpt lat="40.642281" lon="-4.706093">
        <ele>1014.047</ele>
        <time>2021-10-16T08:26:09Z</time>
      </trkpt>
      <trkpt lat="40.642166" lon="-4.706134">
        <ele>1014.048</ele>
        <time>2021-10-16T08:26:10Z</time>
      </trkpt>
      <trkpt lat="40.642010" lon="-4.706201">
        <ele>1014.861</ele>
        <time>2021-10-16T08:26:12Z</time>
      </trkpt>
      <trkpt lat="40.641922" lon="-4.706244">
        <ele>1017.517</ele>
        <time>2021-10-16T08:26:14Z</time>
      </trkpt>
      <trkpt lat="40.641835" lon="-4.706284">
        <ele>1017.908</ele>
        <time>2021-10-16T08:26:16Z</time>
      </trkpt>
      <trkpt lat="40.641780" lon="-4.706285">
        <ele>1018.242</ele>
        <time>2021-10-16T08:26:17Z</time>
      </trkpt>
      <trkpt lat="40.641720" lon="-4.706280">
        <ele>1017.910</ele>
        <time>2021-10-16T08:26:18Z</time>
      </trkpt>
      <trkpt lat="40.641585" lon="-4.706300">
        <ele>1017.759</ele>
        <time>2021-10-16T08:26:20Z</time>
      </trkpt>
      <trkpt lat="40.641406" lon="-4.706363">
        <ele>1016.573</ele>
        <time>2021-10-16T08:26:22Z</time>
      </trkpt>
      <trkpt lat="40.641153" lon="-4.706439">
        <ele>1015.918</ele>
        <time>2021-10-16T08:26:24Z</time>
      </trkpt>
      <trkpt lat="40.640811" lon="-4.706554">
        <ele>1014.987</ele>
        <time>2021-10-16T08:26:26Z</time>
      </trkpt>
      <trkpt lat="40.640394" lon="-4.706731">
        <ele>1013.529</ele>
        <time>2021-10-16T08:26:28Z</time>
      </trkpt>
      <trkpt lat="40.639939" lon="-4.706895">
        <ele>1013.736</ele>
        <time>2021-10-16T08:26:30Z</time>
      </trkpt>
      <trkpt lat="40.639714" lon="-4.706975">
        <ele>1014.072</ele>
        <time>2021-10-16T08:26:31Z</time>
      </trkpt>
      <trkpt lat="40.639268" lon="-4.707130">
        <ele>1013.913</ele>
        <time>2021-10-16T08:26:33Z</time>
      </trkpt>
      <trkpt lat="40.639045" lon="-4.707206">
        <ele>1014.214</ele>
        <time>2021-10-16T08:26:34Z</time>
      </trkpt>
      <trkpt lat="40.638603" lon="-4.707366">
        <ele>1013.708</ele>
        <time>2021-10-16T08:26:36Z</time>
      </trkpt>
      <trkpt lat="40.638173" lon="-4.707520">
        <ele>1014.445</ele>
        <time>2021-10-16T08:26:38Z</time>
      </trkpt>
      <trkpt lat="40.637749" lon="-4.707668">
        <ele>1014.083</ele>
        <time>2021-10-16T08:26:40Z</time>
      </trkpt>
      <trkpt lat="40.637549" lon="-4.707740">
        <ele>1014.042</ele>
        <time>2021-10-16T08:26:41Z</time>
      </trkpt>
      <trkpt lat="40.637180" lon="-4.707869">
        <ele>1014.146</ele>
        <time>2021-10-16T08:26:43Z</time>
      </trkpt>
      <trkpt lat="40.637000" lon="-4.707933">
        <ele>1014.191</ele>
        <time>2021-10-16T08:26:44Z</time>
      </trkpt>
      <trkpt lat="40.636647" lon="-4.708058">
        <ele>1015.350</ele>
        <time>2021-10-16T08:26:46Z</time>
      </trkpt>
      <trkpt lat="40.636295" lon="-4.708176">
        <ele>1016.432</ele>
        <time>2021-10-16T08:26:48Z</time>
      </trkpt>
      <trkpt lat="40.635949" lon="-4.708298">
        <ele>1014.579</ele>
        <time>2021-10-16T08:26:50Z</time>
      </trkpt>
      <trkpt lat="40.635776" lon="-4.708360">
        <ele>1014.593</ele>
        <time>2021-10-16T08:26:51Z</time>
      </trkpt>
      <trkpt lat="40.635602" lon="-4.708423">
        <ele>1015.465</ele>
        <time>2021-10-16T08:26:52Z</time>
      </trkpt>
      <trkpt lat="40.635257" lon="-4.708549">
        <ele>1015.721</ele>
        <time>2021-10-16T08:26:54Z</time>
      </trkpt>
      <trkpt lat="40.635083" lon="-4.708613">
        <ele>1015.708</ele>
        <time>2021-10-16T08:26:55Z</time>
      </trkpt>
      <trkpt lat="40.634907" lon="-4.708677">
        <ele>1015.557</ele>
        <time>2021-10-16T08:26:56Z</time>
      </trkpt>
      <trkpt lat="40.634547" lon="-4.708811">
        <ele>1014.495</ele>
        <time>2021-10-16T08:26:58Z</time>
      </trkpt>
      <trkpt lat="40.634361" lon="-4.708877">
        <ele>1014.454</ele>
        <time>2021-10-16T08:26:59Z</time>
      </trkpt>
      <trkpt lat="40.633987" lon="-4.709004">
        <ele>1016.898</ele>
        <time>2021-10-16T08:27:01Z</time>
      </trkpt>
      <trkpt lat="40.633797" lon="-4.709072">
        <ele>1016.213</ele>
        <time>2021-10-16T08:27:02Z</time>
      </trkpt>
      <trkpt lat="40.633416" lon="-4.709210">
        <ele>1015.712</ele>
        <time>2021-10-16T08:27:04Z</time>
      </trkpt>
      <trkpt lat="40.633225" lon="-4.709278">
        <ele>1016.494</ele>
        <time>2021-10-16T08:27:05Z</time>
      </trkpt>
      <trkpt lat="40.632843" lon="-4.709415">
        <ele>1016.121</ele>
        <time>2021-10-16T08:27:07Z</time>
      </trkpt>
      <trkpt lat="40.632651" lon="-4.709483">
        <ele>1017.678</ele>
        <time>2021-10-16T08:27:08Z</time>
      </trkpt>
      <trkpt lat="40.632458" lon="-4.709553">
        <ele>1017.333</ele>
        <time>2021-10-16T08:27:09Z</time>
      </trkpt>
      <trkpt lat="40.632068" lon="-4.709689">
        <ele>1017.426</ele>
        <time>2021-10-16T08:27:11Z</time>
      </trkpt>
      <trkpt lat="40.631678" lon="-4.709823">
        <ele>1018.108</ele>
        <time>2021-10-16T08:27:13Z</time>
      </trkpt>
      <trkpt lat="40.631483" lon="-4.709893">
        <ele>1017.895</ele>
        <time>2021-10-16T08:27:14Z</time>
      </trkpt>
      <trkpt lat="40.631288" lon="-4.709962">
        <ele>1018.523</ele>
        <time>2021-10-16T08:27:15Z</time>
      </trkpt>
      <trkpt lat="40.630904" lon="-4.710092">
        <ele>1019.272</ele>
        <time>2021-10-16T08:27:17Z</time>
      </trkpt>
      <trkpt lat="40.630526" lon="-4.710220">
        <ele>1019.316</ele>
        <time>2021-10-16T08:27:19Z</time>
      </trkpt>
      <trkpt lat="40.630150" lon="-4.710356">
        <ele>1020.311</ele>
        <time>2021-10-16T08:27:21Z</time>
      </trkpt>
      <trkpt lat="40.629957" lon="-4.710422">
        <ele>1019.610</ele>
        <time>2021-10-16T08:27:22Z</time>
      </trkpt>
      <trkpt lat="40.629573" lon="-4.710561">
        <ele>1018.382</ele>
        <time>2021-10-16T08:27:24Z</time>
      </trkpt>
      <trkpt lat="40.629191" lon="-4.710717">
        <ele>1019.379</ele>
        <time>2021-10-16T08:27:26Z</time>
      </trkpt>
      <trkpt lat="40.628811" lon="-4.710889">
        <ele>1019.821</ele>
        <time>2021-10-16T08:27:28Z</time>
      </trkpt>
      <trkpt lat="40.628620" lon="-4.710989">
        <ele>1020.441</ele>
        <time>2021-10-16T08:27:29Z</time>
      </trkpt>
      <trkpt lat="40.628249" lon="-4.711246">
        <ele>1020.805</ele>
        <time>2021-10-16T08:27:31Z</time>
      </trkpt>
      <trkpt lat="40.627887" lon="-4.711560">
        <ele>1020.808</ele>
        <time>2021-10-16T08:27:33Z</time>
      </trkpt>
      <trkpt lat="40.627527" lon="-4.711899">
        <ele>1021.980</ele>
        <time>2021-10-16T08:27:35Z</time>
      </trkpt>
      <trkpt lat="40.627345" lon="-4.712072">
        <ele>1021.488</ele>
        <time>2021-10-16T08:27:36Z</time>
      </trkpt>
      <trkpt lat="40.626980" lon="-4.712419">
        <ele>1022.487</ele>
        <time>2021-10-16T08:27:38Z</time>
      </trkpt>
      <trkpt lat="40.626618" lon="-4.712759">
        <ele>1022.551</ele>
        <time>2021-10-16T08:27:40Z</time>
      </trkpt>
      <trkpt lat="40.626436" lon="-4.712931">
        <ele>1023.736</ele>
        <time>2021-10-16T08:27:41Z</time>
      </trkpt>
      <trkpt lat="40.626073" lon="-4.713274">
        <ele>1024.035</ele>
        <time>2021-10-16T08:27:43Z</time>
      </trkpt>
      <trkpt lat="40.625889" lon="-4.713447">
        <ele>1023.917</ele>
        <time>2021-10-16T08:27:44Z</time>
      </trkpt>
      <trkpt lat="40.625706" lon="-4.713618">
        <ele>1023.874</ele>
        <time>2021-10-16T08:27:45Z</time>
      </trkpt>
      <trkpt lat="40.625345" lon="-4.713959">
        <ele>1025.161</ele>
        <time>2021-10-16T08:27:47Z</time>
      </trkpt>
      <trkpt lat="40.625163" lon="-4.714130">
        <ele>1024.621</ele>
        <time>2021-10-16T08:27:48Z</time>
      </trkpt>
      <trkpt lat="40.624804" lon="-4.714469">
        <ele>1024.013</ele>
        <time>2021-10-16T08:27:50Z</time>
      </trkpt>
      <trkpt lat="40.624449" lon="-4.714806">
        <ele>1025.408</ele>
        <time>2021-10-16T08:27:52Z</time>
      </trkpt>
      <trkpt lat="40.624272" lon="-4.714975">
        <ele>1025.024</ele>
        <time>2021-10-16T08:27:53Z</time>
      </trkpt>
      <trkpt lat="40.624097" lon="-4.715141">
        <ele>1025.432</ele>
        <time>2021-10-16T08:27:54Z</time>
      </trkpt>
      <trkpt lat="40.623921" lon="-4.715308">
        <ele>1026.921</ele>
        <time>2021-10-16T08:27:55Z</time>
      </trkpt>
      <trkpt lat="40.623576" lon="-4.715632">
        <ele>1026.125</ele>
        <time>2021-10-16T08:27:57Z</time>
      </trkpt>
      <trkpt lat="40.623404" lon="-4.715794">
        <ele>1026.860</ele>
        <time>2021-10-16T08:27:58Z</time>
      </trkpt>
      <trkpt lat="40.623068" lon="-4.716112">
        <ele>1027.369</ele>
        <time>2021-10-16T08:28:00Z</time>
      </trkpt>
      <trkpt lat="40.622904" lon="-4.716272">
        <ele>1027.691</ele>
        <time>2021-10-16T08:28:01Z</time>
      </trkpt>
      <trkpt lat="40.622737" lon="-4.716429">
        <ele>1028.898</ele>
        <time>2021-10-16T08:28:02Z</time>
      </trkpt>
      <trkpt lat="40.622401" lon="-4.716736">
        <ele>1028.781</ele>
        <time>2021-10-16T08:28:04Z</time>
      </trkpt>
      <trkpt lat="40.622226" lon="-4.716881">
        <ele>1028.861</ele>
        <time>2021-10-16T08:28:05Z</time>
      </trkpt>
      <trkpt lat="40.622047" lon="-4.717023">
        <ele>1030.017</ele>
        <time>2021-10-16T08:28:06Z</time>
      </trkpt>
      <trkpt lat="40.621682" lon="-4.717302">
        <ele>1031.808</ele>
        <time>2021-10-16T08:28:08Z</time>
      </trkpt>
      <trkpt lat="40.621309" lon="-4.717579">
        <ele>1030.496</ele>
        <time>2021-10-16T08:28:10Z</time>
      </trkpt>
      <trkpt lat="40.621118" lon="-4.717718">
        <ele>1029.934</ele>
        <time>2021-10-16T08:28:11Z</time>
      </trkpt>
      <trkpt lat="40.620726" lon="-4.717988">
        <ele>1031.733</ele>
        <time>2021-10-16T08:28:13Z</time>
      </trkpt>
      <trkpt lat="40.620516" lon="-4.718114">
        <ele>1031.087</ele>
        <time>2021-10-16T08:28:14Z</time>
      </trkpt>
      <trkpt lat="40.620086" lon="-4.718352">
        <ele>1030.062</ele>
        <time>2021-10-16T08:28:16Z</time>
      </trkpt>
      <trkpt lat="40.619863" lon="-4.718477">
        <ele>1030.011</ele>
        <time>2021-10-16T08:28:17Z</time>
      </trkpt>
      <trkpt lat="40.619641" lon="-4.718601">
        <ele>1029.893</ele>
        <time>2021-10-16T08:28:18Z</time>
      </trkpt>
      <trkpt lat="40.619416" lon="-4.718718">
        <ele>1028.910</ele>
        <time>2021-10-16T08:28:19Z</time>
      </trkpt>
      <trkpt lat="40.619186" lon="-4.718832">
        <ele>1028.685</ele>
        <time>2021-10-16T08:28:20Z</time>
      </trkpt>
      <trkpt lat="40.618730" lon="-4.719059">
        <ele>1029.689</ele>
        <time>2021-10-16T08:28:22Z</time>
      </trkpt>
      <trkpt lat="40.618501" lon="-4.719174">
        <ele>1030.417</ele>
        <time>2021-10-16T08:28:23Z</time>
      </trkpt>
      <trkpt lat="40.618045" lon="-4.719413">
        <ele>1030.108</ele>
        <time>2021-10-16T08:28:25Z</time>
      </trkpt>
      <trkpt lat="40.617592" lon="-4.719649">
        <ele>1029.786</ele>
        <time>2021-10-16T08:28:27Z</time>
      </trkpt>
      <trkpt lat="40.617364" lon="-4.719763">
        <ele>1030.984</ele>
        <time>2021-10-16T08:28:28Z</time>
      </trkpt>
      <trkpt lat="40.617131" lon="-4.719861">
        <ele>1031.023</ele>
        <time>2021-10-16T08:28:29Z</time>
      </trkpt>
      <trkpt lat="40.616657" lon="-4.720020">
        <ele>1031.087</ele>
        <time>2021-10-16T08:28:31Z</time>
      </trkpt>
      <trkpt lat="40.616175" lon="-4.720135">
        <ele>1032.232</ele>
        <time>2021-10-16T08:28:33Z</time>
      </trkpt>
      <trkpt lat="40.615703" lon="-4.720250">
        <ele>1033.461</ele>
        <time>2021-10-16T08:28:35Z</time>
      </trkpt>
      <trkpt lat="40.615240" lon="-4.720360">
        <ele>1035.993</ele>
        <time>2021-10-16T08:28:37Z</time>
      </trkpt>
      <trkpt lat="40.615005" lon="-4.720417">
        <ele>1036.750</ele>
        <time>2021-10-16T08:28:38Z</time>
      </trkpt>
      <trkpt lat="40.614555" lon="-4.720534">
        <ele>1037.737</ele>
        <time>2021-10-16T08:28:40Z</time>
      </trkpt>
      <trkpt lat="40.614331" lon="-4.720600">
        <ele>1038.549</ele>
        <time>2021-10-16T08:28:41Z</time>
      </trkpt>
      <trkpt lat="40.614110" lon="-4.720679">
        <ele>1038.613</ele>
        <time>2021-10-16T08:28:42Z</time>
      </trkpt>
      <trkpt lat="40.613683" lon="-4.720899">
        <ele>1040.608</ele>
        <time>2021-10-16T08:28:44Z</time>
      </trkpt>
      <trkpt lat="40.613253" lon="-4.721139">
        <ele>1040.791</ele>
        <time>2021-10-16T08:28:46Z</time>
      </trkpt>
      <trkpt lat="40.612799" lon="-4.721348">
        <ele>1040.479</ele>
        <time>2021-10-16T08:28:48Z</time>
      </trkpt>
      <trkpt lat="40.612567" lon="-4.721447">
        <ele>1040.768</ele>
        <time>2021-10-16T08:28:49Z</time>
      </trkpt>
      <trkpt lat="40.612334" lon="-4.721547">
        <ele>1040.252</ele>
        <time>2021-10-16T08:28:50Z</time>
      </trkpt>
      <trkpt lat="40.611875" lon="-4.721744">
        <ele>1040.547</ele>
        <time>2021-10-16T08:28:52Z</time>
      </trkpt>
      <trkpt lat="40.611642" lon="-4.721845">
        <ele>1040.226</ele>
        <time>2021-10-16T08:28:53Z</time>
      </trkpt>
      <trkpt lat="40.611410" lon="-4.721946">
        <ele>1040.258</ele>
        <time>2021-10-16T08:28:54Z</time>
      </trkpt>
      <trkpt lat="40.610946" lon="-4.722151">
        <ele>1038.695</ele>
        <time>2021-10-16T08:28:56Z</time>
      </trkpt>
      <trkpt lat="40.610709" lon="-4.722260">
        <ele>1039.182</ele>
        <time>2021-10-16T08:28:57Z</time>
      </trkpt>
      <trkpt lat="40.610228" lon="-4.722471">
        <ele>1037.043</ele>
        <time>2021-10-16T08:28:59Z</time>
      </trkpt>
      <trkpt lat="40.609988" lon="-4.722576">
        <ele>1036.717</ele>
        <time>2021-10-16T08:29:00Z</time>
      </trkpt>
      <trkpt lat="40.609750" lon="-4.722679">
        <ele>1035.908</ele>
        <time>2021-10-16T08:29:01Z</time>
      </trkpt>
      <trkpt lat="40.609267" lon="-4.722865">
        <ele>1033.616</ele>
        <time>2021-10-16T08:29:03Z</time>
      </trkpt>
      <trkpt lat="40.608766" lon="-4.722975">
        <ele>1031.714</ele>
        <time>2021-10-16T08:29:05Z</time>
      </trkpt>
      <trkpt lat="40.608251" lon="-4.723035">
        <ele>1030.423</ele>
        <time>2021-10-16T08:29:07Z</time>
      </trkpt>
      <trkpt lat="40.607990" lon="-4.723066">
        <ele>1029.527</ele>
        <time>2021-10-16T08:29:08Z</time>
      </trkpt>
      <trkpt lat="40.607478" lon="-4.723128">
        <ele>1029.752</ele>
        <time>2021-10-16T08:29:10Z</time>
      </trkpt>
      <trkpt lat="40.607218" lon="-4.723160">
        <ele>1029.151</ele>
        <time>2021-10-16T08:29:11Z</time>
      </trkpt>
      <trkpt lat="40.606699" lon="-4.723226">
        <ele>1029.133</ele>
        <time>2021-10-16T08:29:13Z</time>
      </trkpt>
      <trkpt lat="40.606436" lon="-4.723260">
        <ele>1028.980</ele>
        <time>2021-10-16T08:29:14Z</time>
      </trkpt>
      <trkpt lat="40.605921" lon="-4.723328">
        <ele>1028.976</ele>
        <time>2021-10-16T08:29:16Z</time>
      </trkpt>
      <trkpt lat="40.605404" lon="-4.723395">
        <ele>1029.190</ele>
        <time>2021-10-16T08:29:18Z</time>
      </trkpt>
      <trkpt lat="40.604888" lon="-4.723462">
        <ele>1029.919</ele>
        <time>2021-10-16T08:29:20Z</time>
      </trkpt>
      <trkpt lat="40.604384" lon="-4.723533">
        <ele>1029.308</ele>
        <time>2021-10-16T08:29:22Z</time>
      </trkpt>
      <trkpt lat="40.603882" lon="-4.723604">
        <ele>1029.255</ele>
        <time>2021-10-16T08:29:24Z</time>
      </trkpt>
      <trkpt lat="40.603633" lon="-4.723636">
        <ele>1029.533</ele>
        <time>2021-10-16T08:29:25Z</time>
      </trkpt>
      <trkpt lat="40.603140" lon="-4.723700">
        <ele>1028.712</ele>
        <time>2021-10-16T08:29:27Z</time>
      </trkpt>
      <trkpt lat="40.602648" lon="-4.723766">
        <ele>1029.286</ele>
        <time>2021-10-16T08:29:29Z</time>
      </trkpt>
      <trkpt lat="40.602160" lon="-4.723838">
        <ele>1029.511</ele>
        <time>2021-10-16T08:29:31Z</time>
      </trkpt>
      <trkpt lat="40.601676" lon="-4.723923">
        <ele>1029.580</ele>
        <time>2021-10-16T08:29:33Z</time>
      </trkpt>
      <trkpt lat="40.601198" lon="-4.724037">
        <ele>1029.562</ele>
        <time>2021-10-16T08:29:35Z</time>
      </trkpt>
      <trkpt lat="40.600959" lon="-4.724102">
        <ele>1030.469</ele>
        <time>2021-10-16T08:29:36Z</time>
      </trkpt>
      <trkpt lat="40.600720" lon="-4.724167">
        <ele>1030.353</ele>
        <time>2021-10-16T08:29:37Z</time>
      </trkpt>
      <trkpt lat="40.600481" lon="-4.724231">
        <ele>1030.704</ele>
        <time>2021-10-16T08:29:38Z</time>
      </trkpt>
      <trkpt lat="40.600010" lon="-4.724358">
        <ele>1031.314</ele>
        <time>2021-10-16T08:29:40Z</time>
      </trkpt>
      <trkpt lat="40.599770" lon="-4.724422">
        <ele>1031.408</ele>
        <time>2021-10-16T08:29:41Z</time>
      </trkpt>
      <trkpt lat="40.599294" lon="-4.724549">
        <ele>1031.373</ele>
        <time>2021-10-16T08:29:43Z</time>
      </trkpt>
      <trkpt lat="40.599053" lon="-4.724613">
        <ele>1031.421</ele>
        <time>2021-10-16T08:29:44Z</time>
      </trkpt>
      <trkpt lat="40.598580" lon="-4.724741">
        <ele>1031.490</ele>
        <time>2021-10-16T08:29:46Z</time>
      </trkpt>
      <trkpt lat="40.598101" lon="-4.724872">
        <ele>1031.794</ele>
        <time>2021-10-16T08:29:48Z</time>
      </trkpt>
      <trkpt lat="40.597617" lon="-4.725010">
        <ele>1032.269</ele>
        <time>2021-10-16T08:29:50Z</time>
      </trkpt>
      <trkpt lat="40.597135" lon="-4.725155">
        <ele>1032.038</ele>
        <time>2021-10-16T08:29:52Z</time>
      </trkpt>
      <trkpt lat="40.596644" lon="-4.725310">
        <ele>1031.170</ele>
        <time>2021-10-16T08:29:54Z</time>
      </trkpt>
      <trkpt lat="40.596181" lon="-4.725490">
        <ele>1032.817</ele>
        <time>2021-10-16T08:29:56Z</time>
      </trkpt>
      <trkpt lat="40.595960" lon="-4.725585">
        <ele>1032.253</ele>
        <time>2021-10-16T08:29:57Z</time>
      </trkpt>
      <trkpt lat="40.595740" lon="-4.725683">
        <ele>1032.404</ele>
        <time>2021-10-16T08:29:58Z</time>
      </trkpt>
      <trkpt lat="40.595301" lon="-4.725869">
        <ele>1032.614</ele>
        <time>2021-10-16T08:30:00Z</time>
      </trkpt>
      <trkpt lat="40.594857" lon="-4.726040">
        <ele>1031.708</ele>
        <time>2021-10-16T08:30:02Z</time>
      </trkpt>
      <trkpt lat="40.594407" lon="-4.726188">
        <ele>1032.923</ele>
        <time>2021-10-16T08:30:04Z</time>
      </trkpt>
      <trkpt lat="40.593952" lon="-4.726330">
        <ele>1034.181</ele>
        <time>2021-10-16T08:30:06Z</time>
      </trkpt>
      <trkpt lat="40.593494" lon="-4.726474">
        <ele>1034.510</ele>
        <time>2021-10-16T08:30:08Z</time>
      </trkpt>
      <trkpt lat="40.593032" lon="-4.726620">
        <ele>1034.374</ele>
        <time>2021-10-16T08:30:10Z</time>
      </trkpt>
      <trkpt lat="40.592798" lon="-4.726695">
        <ele>1034.549</ele>
        <time>2021-10-16T08:30:11Z</time>
      </trkpt>
      <trkpt lat="40.592562" lon="-4.726770">
        <ele>1034.418</ele>
        <time>2021-10-16T08:30:12Z</time>
      </trkpt>
      <trkpt lat="40.592089" lon="-4.726920">
        <ele>1034.510</ele>
        <time>2021-10-16T08:30:14Z</time>
      </trkpt>
      <trkpt lat="40.591622" lon="-4.727074">
        <ele>1035.637</ele>
        <time>2021-10-16T08:30:16Z</time>
      </trkpt>
      <trkpt lat="40.591153" lon="-4.727231">
        <ele>1037.132</ele>
        <time>2021-10-16T08:30:18Z</time>
      </trkpt>
      <trkpt lat="40.590684" lon="-4.727406">
        <ele>1035.492</ele>
        <time>2021-10-16T08:30:20Z</time>
      </trkpt>
      <trkpt lat="40.590227" lon="-4.727602">
        <ele>1038.411</ele>
        <time>2021-10-16T08:30:22Z</time>
      </trkpt>
      <trkpt lat="40.589754" lon="-4.727740">
        <ele>1038.008</ele>
        <time>2021-10-16T08:30:24Z</time>
      </trkpt>
      <trkpt lat="40.589507" lon="-4.727789">
        <ele>1037.381</ele>
        <time>2021-10-16T08:30:25Z</time>
      </trkpt>
      <trkpt lat="40.589021" lon="-4.727878">
        <ele>1036.629</ele>
        <time>2021-10-16T08:30:27Z</time>
      </trkpt>
      <trkpt lat="40.588541" lon="-4.727982">
        <ele>1036.918</ele>
        <time>2021-10-16T08:30:29Z</time>
      </trkpt>
      <trkpt lat="40.588062" lon="-4.728059">
        <ele>1037.722</ele>
        <time>2021-10-16T08:30:31Z</time>
      </trkpt>
      <trkpt lat="40.587821" lon="-4.728075">
        <ele>1037.527</ele>
        <time>2021-10-16T08:30:32Z</time>
      </trkpt>
      <trkpt lat="40.587578" lon="-4.728087">
        <ele>1037.766</ele>
        <time>2021-10-16T08:30:33Z</time>
      </trkpt>
      <trkpt lat="40.587090" lon="-4.728144">
        <ele>1038.598</ele>
        <time>2021-10-16T08:30:35Z</time>
      </trkpt>
      <trkpt lat="40.586612" lon="-4.728269">
        <ele>1039.335</ele>
        <time>2021-10-16T08:30:37Z</time>
      </trkpt>
      <trkpt lat="40.586370" lon="-4.728353">
        <ele>1038.855</ele>
        <time>2021-10-16T08:30:38Z</time>
      </trkpt>
      <trkpt lat="40.585895" lon="-4.728525">
        <ele>1041.207</ele>
        <time>2021-10-16T08:30:40Z</time>
      </trkpt>
      <trkpt lat="40.585412" lon="-4.728698">
        <ele>1041.817</ele>
        <time>2021-10-16T08:30:42Z</time>
      </trkpt>
      <trkpt lat="40.585171" lon="-4.728783">
        <ele>1042.508</ele>
        <time>2021-10-16T08:30:43Z</time>
      </trkpt>
      <trkpt lat="40.584931" lon="-4.728869">
        <ele>1042.863</ele>
        <time>2021-10-16T08:30:44Z</time>
      </trkpt>
      <trkpt lat="40.584467" lon="-4.729038">
        <ele>1046.541</ele>
        <time>2021-10-16T08:30:46Z</time>
      </trkpt>
      <trkpt lat="40.584026" lon="-4.729199">
        <ele>1049.710</ele>
        <time>2021-10-16T08:30:48Z</time>
      </trkpt>
      <trkpt lat="40.583821" lon="-4.729271">
        <ele>1051.134</ele>
        <time>2021-10-16T08:30:49Z</time>
      </trkpt>
      <trkpt lat="40.583614" lon="-4.729331">
        <ele>1052.719</ele>
        <time>2021-10-16T08:30:50Z</time>
      </trkpt>
      <trkpt lat="40.583202" lon="-4.729359">
        <ele>1055.238</ele>
        <time>2021-10-16T08:30:52Z</time>
      </trkpt>
      <trkpt lat="40.582785" lon="-4.729227">
        <ele>1059.650</ele>
        <time>2021-10-16T08:30:54Z</time>
      </trkpt>
      <trkpt lat="40.582431" lon="-4.728906">
        <ele>1063.397</ele>
        <time>2021-10-16T08:30:56Z</time>
      </trkpt>
      <trkpt lat="40.582280" lon="-4.728686">
        <ele>1065.519</ele>
        <time>2021-10-16T08:30:57Z</time>
      </trkpt>
      <trkpt lat="40.581973" lon="-4.728241">
        <ele>1068.809</ele>
        <time>2021-10-16T08:30:59Z</time>
      </trkpt>
      <trkpt lat="40.581626" lon="-4.727881">
        <ele>1071.219</ele>
        <time>2021-10-16T08:31:01Z</time>
      </trkpt>
      <trkpt lat="40.581252" lon="-4.727704">
        <ele>1075.608</ele>
        <time>2021-10-16T08:31:03Z</time>
      </trkpt>
      <trkpt lat="40.581044" lon="-4.727663">
        <ele>1077.039</ele>
        <time>2021-10-16T08:31:04Z</time>
      </trkpt>
      <trkpt lat="40.580590" lon="-4.727554">
        <ele>1080.947</ele>
        <time>2021-10-16T08:31:06Z</time>
      </trkpt>
      <trkpt lat="40.580087" lon="-4.727427">
        <ele>1084.036</ele>
        <time>2021-10-16T08:31:08Z</time>
      </trkpt>
      <trkpt lat="40.579562" lon="-4.727281">
        <ele>1088.050</ele>
        <time>2021-10-16T08:31:10Z</time>
      </trkpt>
      <trkpt lat="40.579292" lon="-4.727205">
        <ele>1089.885</ele>
        <time>2021-10-16T08:31:11Z</time>
      </trkpt>
      <trkpt lat="40.579023" lon="-4.727128">
        <ele>1091.684</ele>
        <time>2021-10-16T08:31:12Z</time>
      </trkpt>
      <trkpt lat="40.578519" lon="-4.727004">
        <ele>1095.566</ele>
        <time>2021-10-16T08:31:14Z</time>
      </trkpt>
      <trkpt lat="40.578040" lon="-4.726992">
        <ele>1098.893</ele>
        <time>2021-10-16T08:31:16Z</time>
      </trkpt>
      <trkpt lat="40.577801" lon="-4.727025">
        <ele>1099.884</ele>
        <time>2021-10-16T08:31:17Z</time>
      </trkpt>
      <trkpt lat="40.577566" lon="-4.727073">
        <ele>1101.107</ele>
        <time>2021-10-16T08:31:18Z</time>
      </trkpt>
      <trkpt lat="40.577104" lon="-4.727224">
        <ele>1103.217</ele>
        <time>2021-10-16T08:31:20Z</time>
      </trkpt>
      <trkpt lat="40.576674" lon="-4.727471">
        <ele>1105.508</ele>
        <time>2021-10-16T08:31:22Z</time>
      </trkpt>
      <trkpt lat="40.576465" lon="-4.727600">
        <ele>1105.986</ele>
        <time>2021-10-16T08:31:23Z</time>
      </trkpt>
      <trkpt lat="40.576039" lon="-4.727745">
        <ele>1106.894</ele>
        <time>2021-10-16T08:31:25Z</time>
      </trkpt>
      <trkpt lat="40.575818" lon="-4.727785">
        <ele>1108.413</ele>
        <time>2021-10-16T08:31:26Z</time>
      </trkpt>
      <trkpt lat="40.575385" lon="-4.727910">
        <ele>1111.167</ele>
        <time>2021-10-16T08:31:28Z</time>
      </trkpt>
      <trkpt lat="40.575173" lon="-4.727998">
        <ele>1112.732</ele>
        <time>2021-10-16T08:31:29Z</time>
      </trkpt>
      <trkpt lat="40.574745" lon="-4.728182">
        <ele>1116.311</ele>
        <time>2021-10-16T08:31:31Z</time>
      </trkpt>
      <trkpt lat="40.574301" lon="-4.728375">
        <ele>1117.883</ele>
        <time>2021-10-16T08:31:33Z</time>
      </trkpt>
      <trkpt lat="40.574076" lon="-4.728479">
        <ele>1119.710</ele>
        <time>2021-10-16T08:31:34Z</time>
      </trkpt>
      <trkpt lat="40.573849" lon="-4.728580">
        <ele>1121.839</ele>
        <time>2021-10-16T08:31:35Z</time>
      </trkpt>
      <trkpt lat="40.573620" lon="-4.728686">
        <ele>1122.901</ele>
        <time>2021-10-16T08:31:36Z</time>
      </trkpt>
      <trkpt lat="40.573137" lon="-4.728900">
        <ele>1126.621</ele>
        <time>2021-10-16T08:31:38Z</time>
      </trkpt>
      <trkpt lat="40.572633" lon="-4.729051">
        <ele>1128.708</ele>
        <time>2021-10-16T08:31:40Z</time>
      </trkpt>
      <trkpt lat="40.572110" lon="-4.729117">
        <ele>1131.611</ele>
        <time>2021-10-16T08:31:42Z</time>
      </trkpt>
      <trkpt lat="40.571603" lon="-4.729106">
        <ele>1133.979</ele>
        <time>2021-10-16T08:31:44Z</time>
      </trkpt>
      <trkpt lat="40.571112" lon="-4.729018">
        <ele>1135.248</ele>
        <time>2021-10-16T08:31:46Z</time>
      </trkpt>
      <trkpt lat="40.570623" lon="-4.729038">
        <ele>1137.052</ele>
        <time>2021-10-16T08:31:48Z</time>
      </trkpt>
      <trkpt lat="40.570397" lon="-4.729097">
        <ele>1137.197</ele>
        <time>2021-10-16T08:31:49Z</time>
      </trkpt>
      <trkpt lat="40.570182" lon="-4.729166">
        <ele>1137.676</ele>
        <time>2021-10-16T08:31:50Z</time>
      </trkpt>
      <trkpt lat="40.569789" lon="-4.729256">
        <ele>1138.858</ele>
        <time>2021-10-16T08:31:52Z</time>
      </trkpt>
      <trkpt lat="40.569400" lon="-4.729199">
        <ele>1139.535</ele>
        <time>2021-10-16T08:31:54Z</time>
      </trkpt>
      <trkpt lat="40.569036" lon="-4.728984">
        <ele>1142.025</ele>
        <time>2021-10-16T08:31:56Z</time>
      </trkpt>
      <trkpt lat="40.568749" lon="-4.728618">
        <ele>1143.126</ele>
        <time>2021-10-16T08:31:58Z</time>
      </trkpt>
      <trkpt lat="40.568620" lon="-4.728397">
        <ele>1143.808</ele>
        <time>2021-10-16T08:31:59Z</time>
      </trkpt>
      <trkpt lat="40.568484" lon="-4.728171">
        <ele>1144.608</ele>
        <time>2021-10-16T08:32:00Z</time>
      </trkpt>
      <trkpt lat="40.568334" lon="-4.727954">
        <ele>1145.340</ele>
        <time>2021-10-16T08:32:01Z</time>
      </trkpt>
      <trkpt lat="40.567968" lon="-4.727601">
        <ele>1147.978</ele>
        <time>2021-10-16T08:32:03Z</time>
      </trkpt>
      <trkpt lat="40.567550" lon="-4.727373">
        <ele>1147.857</ele>
        <time>2021-10-16T08:32:05Z</time>
      </trkpt>
      <trkpt lat="40.567340" lon="-4.727301">
        <ele>1148.211</ele>
        <time>2021-10-16T08:32:06Z</time>
      </trkpt>
      <trkpt lat="40.567140" lon="-4.727264">
        <ele>1149.556</ele>
        <time>2021-10-16T08:32:07Z</time>
      </trkpt>
      <trkpt lat="40.566948" lon="-4.727257">
        <ele>1150.265</ele>
        <time>2021-10-16T08:32:08Z</time>
      </trkpt>
      <trkpt lat="40.566574" lon="-4.727330">
        <ele>1151.147</ele>
        <time>2021-10-16T08:32:10Z</time>
      </trkpt>
      <trkpt lat="40.566205" lon="-4.727520">
        <ele>1152.244</ele>
        <time>2021-10-16T08:32:12Z</time>
      </trkpt>
      <trkpt lat="40.566030" lon="-4.727606">
        <ele>1152.491</ele>
        <time>2021-10-16T08:32:13Z</time>
      </trkpt>
      <trkpt lat="40.565858" lon="-4.727680">
        <ele>1152.281</ele>
        <time>2021-10-16T08:32:14Z</time>
      </trkpt>
      <trkpt lat="40.565500" lon="-4.727756">
        <ele>1152.419</ele>
        <time>2021-10-16T08:32:16Z</time>
      </trkpt>
      <trkpt lat="40.565310" lon="-4.727715">
        <ele>1152.008</ele>
        <time>2021-10-16T08:32:17Z</time>
      </trkpt>
      <trkpt lat="40.564932" lon="-4.727454">
        <ele>1153.147</ele>
        <time>2021-10-16T08:32:19Z</time>
      </trkpt>
      <trkpt lat="40.564733" lon="-4.727266">
        <ele>1152.665</ele>
        <time>2021-10-16T08:32:20Z</time>
      </trkpt>
      <trkpt lat="40.564314" lon="-4.726959">
        <ele>1154.814</ele>
        <time>2021-10-16T08:32:22Z</time>
      </trkpt>
      <trkpt lat="40.564095" lon="-4.726841">
        <ele>1155.818</ele>
        <time>2021-10-16T08:32:23Z</time>
      </trkpt>
      <trkpt lat="40.563665" lon="-4.726626">
        <ele>1156.193</ele>
        <time>2021-10-16T08:32:25Z</time>
      </trkpt>
      <trkpt lat="40.563228" lon="-4.726474">
        <ele>1156.992</ele>
        <time>2021-10-16T08:32:27Z</time>
      </trkpt>
      <trkpt lat="40.563003" lon="-4.726425">
        <ele>1156.124</ele>
        <time>2021-10-16T08:32:28Z</time>
      </trkpt>
      <trkpt lat="40.562541" lon="-4.726344">
        <ele>1154.121</ele>
        <time>2021-10-16T08:32:30Z</time>
      </trkpt>
      <trkpt lat="40.562312" lon="-4.726304">
        <ele>1153.556</ele>
        <time>2021-10-16T08:32:31Z</time>
      </trkpt>
      <trkpt lat="40.561882" lon="-4.726228">
        <ele>1153.559</ele>
        <time>2021-10-16T08:32:33Z</time>
      </trkpt>
      <trkpt lat="40.561673" lon="-4.726192">
        <ele>1153.214</ele>
        <time>2021-10-16T08:32:34Z</time>
      </trkpt>
      <trkpt lat="40.561459" lon="-4.726156">
        <ele>1152.508</ele>
        <time>2021-10-16T08:32:35Z</time>
      </trkpt>
      <trkpt lat="40.561021" lon="-4.726082">
        <ele>1151.163</ele>
        <time>2021-10-16T08:32:37Z</time>
      </trkpt>
      <trkpt lat="40.560795" lon="-4.726045">
        <ele>1151.311</ele>
        <time>2021-10-16T08:32:38Z</time>
      </trkpt>
      <trkpt lat="40.560367" lon="-4.725978">
        <ele>1151.130</ele>
        <time>2021-10-16T08:32:40Z</time>
      </trkpt>
      <trkpt lat="40.559962" lon="-4.725896">
        <ele>1152.374</ele>
        <time>2021-10-16T08:32:42Z</time>
      </trkpt>
      <trkpt lat="40.559564" lon="-4.725708">
        <ele>1152.339</ele>
        <time>2021-10-16T08:32:44Z</time>
      </trkpt>
      <trkpt lat="40.559199" lon="-4.725377">
        <ele>1153.678</ele>
        <time>2021-10-16T08:32:46Z</time>
      </trkpt>
      <trkpt lat="40.559043" lon="-4.725151">
        <ele>1153.960</ele>
        <time>2021-10-16T08:32:47Z</time>
      </trkpt>
      <trkpt lat="40.558718" lon="-4.724711">
        <ele>1155.097</ele>
        <time>2021-10-16T08:32:49Z</time>
      </trkpt>
      <trkpt lat="40.558522" lon="-4.724532">
        <ele>1156.217</ele>
        <time>2021-10-16T08:32:50Z</time>
      </trkpt>
      <trkpt lat="40.558087" lon="-4.724253">
        <ele>1157.487</ele>
        <time>2021-10-16T08:32:52Z</time>
      </trkpt>
      <trkpt lat="40.557859" lon="-4.724123">
        <ele>1158.815</ele>
        <time>2021-10-16T08:32:53Z</time>
      </trkpt>
      <trkpt lat="40.557415" lon="-4.723868">
        <ele>1159.408</ele>
        <time>2021-10-16T08:32:55Z</time>
      </trkpt>
      <trkpt lat="40.556960" lon="-4.723614">
        <ele>1158.449</ele>
        <time>2021-10-16T08:32:57Z</time>
      </trkpt>
      <trkpt lat="40.556470" lon="-4.723408">
        <ele>1159.297</ele>
        <time>2021-10-16T08:32:59Z</time>
      </trkpt>
      <trkpt lat="40.556213" lon="-4.723346">
        <ele>1158.246</ele>
        <time>2021-10-16T08:33:00Z</time>
      </trkpt>
      <trkpt lat="40.555948" lon="-4.723315">
        <ele>1158.350</ele>
        <time>2021-10-16T08:33:01Z</time>
      </trkpt>
      <trkpt lat="40.555405" lon="-4.723311">
        <ele>1160.265</ele>
        <time>2021-10-16T08:33:03Z</time>
      </trkpt>
      <trkpt lat="40.555124" lon="-4.723312">
        <ele>1161.424</ele>
        <time>2021-10-16T08:33:04Z</time>
      </trkpt>
      <trkpt lat="40.554564" lon="-4.723308">
        <ele>1164.176</ele>
        <time>2021-10-16T08:33:06Z</time>
      </trkpt>
      <trkpt lat="40.554281" lon="-4.723305">
        <ele>1164.873</ele>
        <time>2021-10-16T08:33:07Z</time>
      </trkpt>
      <trkpt lat="40.553994" lon="-4.723302">
        <ele>1166.464</ele>
        <time>2021-10-16T08:33:08Z</time>
      </trkpt>
      <trkpt lat="40.553429" lon="-4.723293">
        <ele>1168.706</ele>
        <time>2021-10-16T08:33:10Z</time>
      </trkpt>
      <trkpt lat="40.553143" lon="-4.723283">
        <ele>1169.616</ele>
        <time>2021-10-16T08:33:11Z</time>
      </trkpt>
      <trkpt lat="40.552572" lon="-4.723267">
        <ele>1172.508</ele>
        <time>2021-10-16T08:33:13Z</time>
      </trkpt>
      <trkpt lat="40.552287" lon="-4.723260">
        <ele>1173.254</ele>
        <time>2021-10-16T08:33:14Z</time>
      </trkpt>
      <trkpt lat="40.551748" lon="-4.723245">
        <ele>1175.122</ele>
        <time>2021-10-16T08:33:16Z</time>
      </trkpt>
      <trkpt lat="40.551496" lon="-4.723237">
        <ele>1175.661</ele>
        <time>2021-10-16T08:33:17Z</time>
      </trkpt>
      <trkpt lat="40.551016" lon="-4.723230">
        <ele>1178.055</ele>
        <time>2021-10-16T08:33:19Z</time>
      </trkpt>
      <trkpt lat="40.550777" lon="-4.723227">
        <ele>1180.510</ele>
        <time>2021-10-16T08:33:20Z</time>
      </trkpt>
      <trkpt lat="40.550308" lon="-4.723191">
        <ele>1184.789</ele>
        <time>2021-10-16T08:33:22Z</time>
      </trkpt>
      <trkpt lat="40.550072" lon="-4.723137">
        <ele>1185.171</ele>
        <time>2021-10-16T08:33:23Z</time>
      </trkpt>
      <trkpt lat="40.549839" lon="-4.723047">
        <ele>1185.868</ele>
        <time>2021-10-16T08:33:24Z</time>
      </trkpt>
      <trkpt lat="40.549385" lon="-4.722765">
        <ele>1189.311</ele>
        <time>2021-10-16T08:33:26Z</time>
      </trkpt>
      <trkpt lat="40.548945" lon="-4.722444">
        <ele>1190.721</ele>
        <time>2021-10-16T08:33:28Z</time>
      </trkpt>
      <trkpt lat="40.548505" lon="-4.722136">
        <ele>1192.903</ele>
        <time>2021-10-16T08:33:30Z</time>
      </trkpt>
      <trkpt lat="40.548285" lon="-4.721985">
        <ele>1194.408</ele>
        <time>2021-10-16T08:33:31Z</time>
      </trkpt>
      <trkpt lat="40.548067" lon="-4.721837">
        <ele>1196.529</ele>
        <time>2021-10-16T08:33:32Z</time>
      </trkpt>
      <trkpt lat="40.547669" lon="-4.721545">
        <ele>1199.727</ele>
        <time>2021-10-16T08:33:34Z</time>
      </trkpt>
      <trkpt lat="40.547492" lon="-4.721378">
        <ele>1201.456</ele>
        <time>2021-10-16T08:33:35Z</time>
      </trkpt>
      <trkpt lat="40.547182" lon="-4.720992">
        <ele>1205.460</ele>
        <time>2021-10-16T08:33:37Z</time>
      </trkpt>
      <trkpt lat="40.547053" lon="-4.720767">
        <ele>1206.695</ele>
        <time>2021-10-16T08:33:38Z</time>
      </trkpt>
      <trkpt lat="40.546852" lon="-4.720279">
        <ele>1208.384</ele>
        <time>2021-10-16T08:33:40Z</time>
      </trkpt>
      <trkpt lat="40.546720" lon="-4.719755">
        <ele>1211.076</ele>
        <time>2021-10-16T08:33:42Z</time>
      </trkpt>
      <trkpt lat="40.546658" lon="-4.719515">
        <ele>1212.633</ele>
        <time>2021-10-16T08:33:43Z</time>
      </trkpt>
      <trkpt lat="40.546574" lon="-4.719299">
        <ele>1213.165</ele>
        <time>2021-10-16T08:33:44Z</time>
      </trkpt>
      <trkpt lat="40.546345" lon="-4.718968">
        <ele>1214.268</ele>
        <time>2021-10-16T08:33:46Z</time>
      </trkpt>
      <trkpt lat="40.546199" lon="-4.718854">
        <ele>1213.814</ele>
        <time>2021-10-16T08:33:47Z</time>
      </trkpt>
      <trkpt lat="40.545851" lon="-4.718765">
        <ele>1216.708</ele>
        <time>2021-10-16T08:33:49Z</time>
      </trkpt>
      <trkpt lat="40.545659" lon="-4.718783">
        <ele>1217.884</ele>
        <time>2021-10-16T08:33:50Z</time>
      </trkpt>
      <trkpt lat="40.545288" lon="-4.718969">
        <ele>1220.222</ele>
        <time>2021-10-16T08:33:52Z</time>
      </trkpt>
      <trkpt lat="40.545128" lon="-4.719143">
        <ele>1221.851</ele>
        <time>2021-10-16T08:33:53Z</time>
      </trkpt>
      <trkpt lat="40.544995" lon="-4.719362">
        <ele>1222.875</ele>
        <time>2021-10-16T08:33:54Z</time>
      </trkpt>
      <trkpt lat="40.544820" lon="-4.719917">
        <ele>1224.560</ele>
        <time>2021-10-16T08:33:56Z</time>
      </trkpt>
      <trkpt lat="40.544710" lon="-4.720509">
        <ele>1229.199</ele>
        <time>2021-10-16T08:33:58Z</time>
      </trkpt>
      <trkpt lat="40.544656" lon="-4.720815">
        <ele>1230.381</ele>
        <time>2021-10-16T08:33:59Z</time>
      </trkpt>
      <trkpt lat="40.544547" lon="-4.721417">
        <ele>1233.798</ele>
        <time>2021-10-16T08:34:01Z</time>
      </trkpt>
      <trkpt lat="40.544488" lon="-4.721729">
        <ele>1235.035</ele>
        <time>2021-10-16T08:34:02Z</time>
      </trkpt>
      <trkpt lat="40.544332" lon="-4.722324">
        <ele>1237.486</ele>
        <time>2021-10-16T08:34:04Z</time>
      </trkpt>
      <trkpt lat="40.544080" lon="-4.722878">
        <ele>1240.914</ele>
        <time>2021-10-16T08:34:06Z</time>
      </trkpt>
      <trkpt lat="40.543731" lon="-4.723343">
        <ele>1244.908</ele>
        <time>2021-10-16T08:34:08Z</time>
      </trkpt>
      <trkpt lat="40.543392" lon="-4.723795">
        <ele>1248.171</ele>
        <time>2021-10-16T08:34:10Z</time>
      </trkpt>
      <trkpt lat="40.543119" lon="-4.724304">
        <ele>1250.739</ele>
        <time>2021-10-16T08:34:12Z</time>
      </trkpt>
      <trkpt lat="40.543003" lon="-4.724565">
        <ele>1252.188</ele>
        <time>2021-10-16T08:34:13Z</time>
      </trkpt>
      <trkpt lat="40.542893" lon="-4.724820">
        <ele>1253.512</ele>
        <time>2021-10-16T08:34:14Z</time>
      </trkpt>
      <trkpt lat="40.542678" lon="-4.725318">
        <ele>1254.927</ele>
        <time>2021-10-16T08:34:16Z</time>
      </trkpt>
      <trkpt lat="40.542411" lon="-4.725804">
        <ele>1258.316</ele>
        <time>2021-10-16T08:34:18Z</time>
      </trkpt>
      <trkpt lat="40.542245" lon="-4.726032">
        <ele>1260.318</ele>
        <time>2021-10-16T08:34:19Z</time>
      </trkpt>
      <trkpt lat="40.542063" lon="-4.726255">
        <ele>1263.045</ele>
        <time>2021-10-16T08:34:20Z</time>
      </trkpt>
      <trkpt lat="40.541705" lon="-4.726691">
        <ele>1266.063</ele>
        <time>2021-10-16T08:34:22Z</time>
      </trkpt>
      <trkpt lat="40.541357" lon="-4.727109">
        <ele>1269.444</ele>
        <time>2021-10-16T08:34:24Z</time>
      </trkpt>
      <trkpt lat="40.541050" lon="-4.727514">
        <ele>1272.318</ele>
        <time>2021-10-16T08:34:26Z</time>
      </trkpt>
      <trkpt lat="40.540923" lon="-4.727743">
        <ele>1273.308</ele>
        <time>2021-10-16T08:34:27Z</time>
      </trkpt>
      <trkpt lat="40.540823" lon="-4.728004">
        <ele>1275.854</ele>
        <time>2021-10-16T08:34:28Z</time>
      </trkpt>
      <trkpt lat="40.540673" lon="-4.728572">
        <ele>1277.022</ele>
        <time>2021-10-16T08:34:30Z</time>
      </trkpt>
      <trkpt lat="40.540596" lon="-4.728856">
        <ele>1278.011</ele>
        <time>2021-10-16T08:34:31Z</time>
      </trkpt>
      <trkpt lat="40.540513" lon="-4.729127">
        <ele>1277.325</ele>
        <time>2021-10-16T08:34:32Z</time>
      </trkpt>
      <trkpt lat="40.540424" lon="-4.729384">
        <ele>1277.760</ele>
        <time>2021-10-16T08:34:33Z</time>
      </trkpt>
      <trkpt lat="40.540214" lon="-4.729851">
        <ele>1278.769</ele>
        <time>2021-10-16T08:34:35Z</time>
      </trkpt>
      <trkpt lat="40.540085" lon="-4.730041">
        <ele>1280.241</ele>
        <time>2021-10-16T08:34:36Z</time>
      </trkpt>
      <trkpt lat="40.539776" lon="-4.730289">
        <ele>1282.428</ele>
        <time>2021-10-16T08:34:38Z</time>
      </trkpt>
      <trkpt lat="40.539426" lon="-4.730340">
        <ele>1284.349</ele>
        <time>2021-10-16T08:34:40Z</time>
      </trkpt>
      <trkpt lat="40.539093" lon="-4.730154">
        <ele>1284.902</ele>
        <time>2021-10-16T08:34:42Z</time>
      </trkpt>
      <trkpt lat="40.538850" lon="-4.729759">
        <ele>1287.822</ele>
        <time>2021-10-16T08:34:44Z</time>
      </trkpt>
      <trkpt lat="40.538701" lon="-4.729299">
        <ele>1288.808</ele>
        <time>2021-10-16T08:34:46Z</time>
      </trkpt>
      <trkpt lat="40.538518" lon="-4.728898">
        <ele>1289.422</ele>
        <time>2021-10-16T08:34:48Z</time>
      </trkpt>
      <trkpt lat="40.538229" lon="-4.728685">
        <ele>1290.560</ele>
        <time>2021-10-16T08:34:50Z</time>
      </trkpt>
      <trkpt lat="40.537858" lon="-4.728762">
        <ele>1292.559</ele>
        <time>2021-10-16T08:34:52Z</time>
      </trkpt>
      <trkpt lat="40.537550" lon="-4.729063">
        <ele>1292.633</ele>
        <time>2021-10-16T08:34:54Z</time>
      </trkpt>
      <trkpt lat="40.537306" lon="-4.729474">
        <ele>1296.418</ele>
        <time>2021-10-16T08:34:56Z</time>
      </trkpt>
      <trkpt lat="40.537060" lon="-4.729738">
        <ele>1297.237</ele>
        <time>2021-10-16T08:34:58Z</time>
      </trkpt>
      <trkpt lat="40.536760" lon="-4.729810">
        <ele>1299.069</ele>
        <time>2021-10-16T08:35:00Z</time>
      </trkpt>
      <trkpt lat="40.536453" lon="-4.729675">
        <ele>1299.226</ele>
        <time>2021-10-16T08:35:02Z</time>
      </trkpt>
      <trkpt lat="40.536321" lon="-4.729532">
        <ele>1299.626</ele>
        <time>2021-10-16T08:35:03Z</time>
      </trkpt>
      <trkpt lat="40.536209" lon="-4.729355">
        <ele>1300.547</ele>
        <time>2021-10-16T08:35:04Z</time>
      </trkpt>
      <trkpt lat="40.536108" lon="-4.729160">
        <ele>1300.611</ele>
        <time>2021-10-16T08:35:05Z</time>
      </trkpt>
      <trkpt lat="40.535906" lon="-4.728799">
        <ele>1300.908</ele>
        <time>2021-10-16T08:35:07Z</time>
      </trkpt>
      <trkpt lat="40.535809" lon="-4.728637">
        <ele>1300.980</ele>
        <time>2021-10-16T08:35:08Z</time>
      </trkpt>
      <trkpt lat="40.535606" lon="-4.728353">
        <ele>1301.338</ele>
        <time>2021-10-16T08:35:10Z</time>
      </trkpt>
      <trkpt lat="40.535364" lon="-4.728184">
        <ele>1302.037</ele>
        <time>2021-10-16T08:35:12Z</time>
      </trkpt>
      <trkpt lat="40.535093" lon="-4.728151">
        <ele>1301.341</ele>
        <time>2021-10-16T08:35:14Z</time>
      </trkpt>
      <trkpt lat="40.534812" lon="-4.728260">
        <ele>1302.466</ele>
        <time>2021-10-16T08:35:16Z</time>
      </trkpt>
      <trkpt lat="40.534526" lon="-4.728482">
        <ele>1304.535</ele>
        <time>2021-10-16T08:35:18Z</time>
      </trkpt>
      <trkpt lat="40.534241" lon="-4.728868">
        <ele>1305.717</ele>
        <time>2021-10-16T08:35:20Z</time>
      </trkpt>
      <trkpt lat="40.533899" lon="-4.729247">
        <ele>1308.854</ele>
        <time>2021-10-16T08:35:22Z</time>
      </trkpt>
      <trkpt lat="40.533583" lon="-4.729494">
        <ele>1312.558</ele>
        <time>2021-10-16T08:35:24Z</time>
      </trkpt>
      <trkpt lat="40.533316" lon="-4.729589">
        <ele>1314.752</ele>
        <time>2021-10-16T08:35:26Z</time>
      </trkpt>
      <trkpt lat="40.533095" lon="-4.729544">
        <ele>1316.817</ele>
        <time>2021-10-16T08:35:28Z</time>
      </trkpt>
      <trkpt lat="40.532891" lon="-4.729413">
        <ele>1319.208</ele>
        <time>2021-10-16T08:35:30Z</time>
      </trkpt>
      <trkpt lat="40.532674" lon="-4.729284">
        <ele>1322.943</ele>
        <time>2021-10-16T08:35:32Z</time>
      </trkpt>
      <trkpt lat="40.532552" lon="-4.729248">
        <ele>1323.081</ele>
        <time>2021-10-16T08:35:33Z</time>
      </trkpt>
      <trkpt lat="40.532294" lon="-4.729247">
        <ele>1324.160</ele>
        <time>2021-10-16T08:35:35Z</time>
      </trkpt>
      <trkpt lat="40.532025" lon="-4.729315">
        <ele>1325.564</ele>
        <time>2021-10-16T08:35:37Z</time>
      </trkpt>
      <trkpt lat="40.531887" lon="-4.729380">
        <ele>1326.179</ele>
        <time>2021-10-16T08:35:38Z</time>
      </trkpt>
      <trkpt lat="40.531617" lon="-4.729559">
        <ele>1325.078</ele>
        <time>2021-10-16T08:35:40Z</time>
      </trkpt>
      <trkpt lat="40.531345" lon="-4.729788">
        <ele>1328.160</ele>
        <time>2021-10-16T08:35:42Z</time>
      </trkpt>
      <trkpt lat="40.531067" lon="-4.730046">
        <ele>1329.597</ele>
        <time>2021-10-16T08:35:44Z</time>
      </trkpt>
      <trkpt lat="40.530786" lon="-4.730299">
        <ele>1330.394</ele>
        <time>2021-10-16T08:35:46Z</time>
      </trkpt>
      <trkpt lat="40.530644" lon="-4.730425">
        <ele>1331.757</ele>
        <time>2021-10-16T08:35:47Z</time>
      </trkpt>
      <trkpt lat="40.530367" lon="-4.730667">
        <ele>1333.922</ele>
        <time>2021-10-16T08:35:49Z</time>
      </trkpt>
      <trkpt lat="40.530222" lon="-4.730764">
        <ele>1334.808</ele>
        <time>2021-10-16T08:35:50Z</time>
      </trkpt>
      <trkpt lat="40.529913" lon="-4.730874">
        <ele>1337.397</ele>
        <time>2021-10-16T08:35:52Z</time>
      </trkpt>
      <trkpt lat="40.529739" lon="-4.730887">
        <ele>1337.665</ele>
        <time>2021-10-16T08:35:53Z</time>
      </trkpt>
      <trkpt lat="40.529361" lon="-4.730858">
        <ele>1339.164</ele>
        <time>2021-10-16T08:35:55Z</time>
      </trkpt>
      <trkpt lat="40.528990" lon="-4.730947">
        <ele>1340.418</ele>
        <time>2021-10-16T08:35:57Z</time>
      </trkpt>
      <trkpt lat="40.528815" lon="-4.731058">
        <ele>1341.343</ele>
        <time>2021-10-16T08:35:58Z</time>
      </trkpt>
      <trkpt lat="40.528655" lon="-4.731227">
        <ele>1342.342</ele>
        <time>2021-10-16T08:35:59Z</time>
      </trkpt>
      <trkpt lat="40.528501" lon="-4.731428">
        <ele>1344.134</ele>
        <time>2021-10-16T08:36:00Z</time>
      </trkpt>
      <trkpt lat="40.528152" lon="-4.731774">
        <ele>1346.511</ele>
        <time>2021-10-16T08:36:02Z</time>
      </trkpt>
      <trkpt lat="40.527937" lon="-4.731876">
        <ele>1348.933</ele>
        <time>2021-10-16T08:36:03Z</time>
      </trkpt>
      <trkpt lat="40.527476" lon="-4.731925">
        <ele>1350.423</ele>
        <time>2021-10-16T08:36:05Z</time>
      </trkpt>
      <trkpt lat="40.527257" lon="-4.731886">
        <ele>1351.215</ele>
        <time>2021-10-16T08:36:06Z</time>
      </trkpt>
      <trkpt lat="40.526854" lon="-4.731687">
        <ele>1352.408</ele>
        <time>2021-10-16T08:36:08Z</time>
      </trkpt>
      <trkpt lat="40.526449" lon="-4.731328">
        <ele>1352.631</ele>
        <time>2021-10-16T08:36:10Z</time>
      </trkpt>
      <trkpt lat="40.525994" lon="-4.730903">
        <ele>1349.099</ele>
        <time>2021-10-16T08:36:12Z</time>
      </trkpt>
      <trkpt lat="40.525768" lon="-4.730693">
        <ele>1347.838</ele>
        <time>2021-10-16T08:36:13Z</time>
      </trkpt>
      <trkpt lat="40.525543" lon="-4.730487">
        <ele>1346.422</ele>
        <time>2021-10-16T08:36:14Z</time>
      </trkpt>
      <trkpt lat="40.525087" lon="-4.730161">
        <ele>1346.037</ele>
        <time>2021-10-16T08:36:16Z</time>
      </trkpt>
      <trkpt lat="40.524617" lon="-4.729994">
        <ele>1344.326</ele>
        <time>2021-10-16T08:36:18Z</time>
      </trkpt>
      <trkpt lat="40.524123" lon="-4.730023">
        <ele>1344.888</ele>
        <time>2021-10-16T08:36:20Z</time>
      </trkpt>
      <trkpt lat="40.523597" lon="-4.730191">
        <ele>1346.025</ele>
        <time>2021-10-16T08:36:22Z</time>
      </trkpt>
      <trkpt lat="40.523025" lon="-4.730310">
        <ele>1348.434</ele>
        <time>2021-10-16T08:36:24Z</time>
      </trkpt>
      <trkpt lat="40.522728" lon="-4.730312">
        <ele>1350.155</ele>
        <time>2021-10-16T08:36:25Z</time>
      </trkpt>
      <trkpt lat="40.522433" lon="-4.730275">
        <ele>1350.810</ele>
        <time>2021-10-16T08:36:26Z</time>
      </trkpt>
      <trkpt lat="40.522157" lon="-4.730219">
        <ele>1352.308</ele>
        <time>2021-10-16T08:36:27Z</time>
      </trkpt>
      <trkpt lat="40.521662" lon="-4.730139">
        <ele>1354.211</ele>
        <time>2021-10-16T08:36:29Z</time>
      </trkpt>
      <trkpt lat="40.521436" lon="-4.730114">
        <ele>1355.449</ele>
        <time>2021-10-16T08:36:30Z</time>
      </trkpt>
      <trkpt lat="40.521222" lon="-4.730108">
        <ele>1356.748</ele>
        <time>2021-10-16T08:36:31Z</time>
      </trkpt>
      <trkpt lat="40.520822" lon="-4.730194">
        <ele>1360.132</ele>
        <time>2021-10-16T08:36:33Z</time>
      </trkpt>
      <trkpt lat="40.520457" lon="-4.730416">
        <ele>1363.847</ele>
        <time>2021-10-16T08:36:35Z</time>
      </trkpt>
      <trkpt lat="40.520074" lon="-4.730548">
        <ele>1367.546</ele>
        <time>2021-10-16T08:36:37Z</time>
      </trkpt>
      <trkpt lat="40.519854" lon="-4.730546">
        <ele>1367.648</ele>
        <time>2021-10-16T08:36:38Z</time>
      </trkpt>
      <trkpt lat="40.519433" lon="-4.730445">
        <ele>1369.455</ele>
        <time>2021-10-16T08:36:40Z</time>
      </trkpt>
      <trkpt lat="40.519091" lon="-4.730266">
        <ele>1371.163</ele>
        <time>2021-10-16T08:36:42Z</time>
      </trkpt>
      <trkpt lat="40.518946" lon="-4.730115">
        <ele>1371.244</ele>
        <time>2021-10-16T08:36:43Z</time>
      </trkpt>
      <trkpt lat="40.518808" lon="-4.729909">
        <ele>1373.118</ele>
        <time>2021-10-16T08:36:44Z</time>
      </trkpt>
      <trkpt lat="40.518550" lon="-4.729428">
        <ele>1376.508</ele>
        <time>2021-10-16T08:36:46Z</time>
      </trkpt>
      <trkpt lat="40.518233" lon="-4.729032">
        <ele>1380.984</ele>
        <time>2021-10-16T08:36:48Z</time>
      </trkpt>
      <trkpt lat="40.517813" lon="-4.728832">
        <ele>1386.252</ele>
        <time>2021-10-16T08:36:50Z</time>
      </trkpt>
      <trkpt lat="40.517331" lon="-4.728749">
        <ele>1391.521</ele>
        <time>2021-10-16T08:36:52Z</time>
      </trkpt>
      <trkpt lat="40.516895" lon="-4.728768">
        <ele>1394.535</ele>
        <time>2021-10-16T08:36:54Z</time>
      </trkpt>
      <trkpt lat="40.516529" lon="-4.728944">
        <ele>1396.390</ele>
        <time>2021-10-16T08:36:56Z</time>
      </trkpt>
      <trkpt lat="40.516216" lon="-4.729283">
        <ele>1399.869</ele>
        <time>2021-10-16T08:36:58Z</time>
      </trkpt>
      <trkpt lat="40.515804" lon="-4.729526">
        <ele>1403.381</ele>
        <time>2021-10-16T08:37:00Z</time>
      </trkpt>
      <trkpt lat="40.515560" lon="-4.729611">
        <ele>1404.358</ele>
        <time>2021-10-16T08:37:01Z</time>
      </trkpt>
      <trkpt lat="40.515311" lon="-4.729738">
        <ele>1404.936</ele>
        <time>2021-10-16T08:37:02Z</time>
      </trkpt>
      <trkpt lat="40.514870" lon="-4.730071">
        <ele>1406.517</ele>
        <time>2021-10-16T08:37:04Z</time>
      </trkpt>
      <trkpt lat="40.514660" lon="-4.730246">
        <ele>1408.418</ele>
        <time>2021-10-16T08:37:05Z</time>
      </trkpt>
      <trkpt lat="40.514452" lon="-4.730383">
        <ele>1410.208</ele>
        <time>2021-10-16T08:37:06Z</time>
      </trkpt>
      <trkpt lat="40.514228" lon="-4.730462">
        <ele>1411.331</ele>
        <time>2021-10-16T08:37:07Z</time>
      </trkpt>
      <trkpt lat="40.513977" lon="-4.730475">
        <ele>1412.339</ele>
        <time>2021-10-16T08:37:08Z</time>
      </trkpt>
      <trkpt lat="40.513490" lon="-4.730472">
        <ele>1415.678</ele>
        <time>2021-10-16T08:37:10Z</time>
      </trkpt>
      <trkpt lat="40.513266" lon="-4.730475">
        <ele>1416.922</ele>
        <time>2021-10-16T08:37:11Z</time>
      </trkpt>
      <trkpt lat="40.513047" lon="-4.730482">
        <ele>1418.497</ele>
        <time>2021-10-16T08:37:12Z</time>
      </trkpt>
      <trkpt lat="40.512821" lon="-4.730492">
        <ele>1419.656</ele>
        <time>2021-10-16T08:37:13Z</time>
      </trkpt>
      <trkpt lat="40.512588" lon="-4.730503">
        <ele>1421.258</ele>
        <time>2021-10-16T08:37:14Z</time>
      </trkpt>
      <trkpt lat="40.512070" lon="-4.730529">
        <ele>1422.745</ele>
        <time>2021-10-16T08:37:16Z</time>
      </trkpt>
      <trkpt lat="40.511801" lon="-4.730534">
        <ele>1424.021</ele>
        <time>2021-10-16T08:37:17Z</time>
      </trkpt>
      <trkpt lat="40.511288" lon="-4.730532">
        <ele>1428.841</ele>
        <time>2021-10-16T08:37:19Z</time>
      </trkpt>
      <trkpt lat="40.511044" lon="-4.730536">
        <ele>1430.205</ele>
        <time>2021-10-16T08:37:20Z</time>
      </trkpt>
      <trkpt lat="40.510575" lon="-4.730566">
        <ele>1432.508</ele>
        <time>2021-10-16T08:37:22Z</time>
      </trkpt>
      <trkpt lat="40.510332" lon="-4.730584">
        <ele>1432.020</ele>
        <time>2021-10-16T08:37:23Z</time>
      </trkpt>
      <trkpt lat="40.509863" lon="-4.730618">
        <ele>1432.958</ele>
        <time>2021-10-16T08:37:25Z</time>
      </trkpt>
      <trkpt lat="40.509397" lon="-4.730713">
        <ele>1432.197</ele>
        <time>2021-10-16T08:37:27Z</time>
      </trkpt>
      <trkpt lat="40.508949" lon="-4.730944">
        <ele>1432.591</ele>
        <time>2021-10-16T08:37:29Z</time>
      </trkpt>
      <trkpt lat="40.508535" lon="-4.731329">
        <ele>1432.086</ele>
        <time>2021-10-16T08:37:31Z</time>
      </trkpt>
      <trkpt lat="40.508107" lon="-4.731630">
        <ele>1433.375</ele>
        <time>2021-10-16T08:37:33Z</time>
      </trkpt>
      <trkpt lat="40.507874" lon="-4.731731">
        <ele>1433.537</ele>
        <time>2021-10-16T08:37:34Z</time>
      </trkpt>
      <trkpt lat="40.507404" lon="-4.731802">
        <ele>1432.854</ele>
        <time>2021-10-16T08:37:36Z</time>
      </trkpt>
      <trkpt lat="40.506924" lon="-4.731703">
        <ele>1433.221</ele>
        <time>2021-10-16T08:37:38Z</time>
      </trkpt>
      <trkpt lat="40.506441" lon="-4.731593">
        <ele>1434.441</ele>
        <time>2021-10-16T08:37:40Z</time>
      </trkpt>
      <trkpt lat="40.506189" lon="-4.731602">
        <ele>1435.005</ele>
        <time>2021-10-16T08:37:41Z</time>
      </trkpt>
      <trkpt lat="40.505939" lon="-4.731673">
        <ele>1434.908</ele>
        <time>2021-10-16T08:37:42Z</time>
      </trkpt>
      <trkpt lat="40.505699" lon="-4.731795">
        <ele>1434.910</ele>
        <time>2021-10-16T08:37:43Z</time>
      </trkpt>
      <trkpt lat="40.505460" lon="-4.731941">
        <ele>1434.738</ele>
        <time>2021-10-16T08:37:44Z</time>
      </trkpt>
      <trkpt lat="40.504976" lon="-4.732221">
        <ele>1435.797</ele>
        <time>2021-10-16T08:37:46Z</time>
      </trkpt>
      <trkpt lat="40.504484" lon="-4.732487">
        <ele>1437.551</ele>
        <time>2021-10-16T08:37:48Z</time>
      </trkpt>
      <trkpt lat="40.504237" lon="-4.732617">
        <ele>1438.566</ele>
        <time>2021-10-16T08:37:49Z</time>
      </trkpt>
      <trkpt lat="40.503990" lon="-4.732747">
        <ele>1438.675</ele>
        <time>2021-10-16T08:37:50Z</time>
      </trkpt>
      <trkpt lat="40.503516" lon="-4.732994">
        <ele>1440.657</ele>
        <time>2021-10-16T08:37:52Z</time>
      </trkpt>
      <trkpt lat="40.503286" lon="-4.733115">
        <ele>1441.734</ele>
        <time>2021-10-16T08:37:53Z</time>
      </trkpt>
      <trkpt lat="40.503063" lon="-4.733233">
        <ele>1443.171</ele>
        <time>2021-10-16T08:37:54Z</time>
      </trkpt>
      <trkpt lat="40.502630" lon="-4.733467">
        <ele>1445.741</ele>
        <time>2021-10-16T08:37:56Z</time>
      </trkpt>
      <trkpt lat="40.502191" lon="-4.733692">
        <ele>1447.415</ele>
        <time>2021-10-16T08:37:58Z</time>
      </trkpt>
      <trkpt lat="40.501748" lon="-4.733921">
        <ele>1449.908</ele>
        <time>2021-10-16T08:38:00Z</time>
      </trkpt>
      <trkpt lat="40.501336" lon="-4.734137">
        <ele>1452.815</ele>
        <time>2021-10-16T08:38:02Z</time>
      </trkpt>
      <trkpt lat="40.500946" lon="-4.734341">
        <ele>1454.733</ele>
        <time>2021-10-16T08:38:04Z</time>
      </trkpt>
      <trkpt lat="40.500542" lon="-4.734551">
        <ele>1455.772</ele>
        <time>2021-10-16T08:38:06Z</time>
      </trkpt>
      <trkpt lat="40.500327" lon="-4.734662">
        <ele>1455.526</ele>
        <time>2021-10-16T08:38:07Z</time>
      </trkpt>
      <trkpt lat="40.500109" lon="-4.734775">
        <ele>1456.071</ele>
        <time>2021-10-16T08:38:08Z</time>
      </trkpt>
      <trkpt lat="40.499694" lon="-4.734994">
        <ele>1457.860</ele>
        <time>2021-10-16T08:38:10Z</time>
      </trkpt>
      <trkpt lat="40.499298" lon="-4.735202">
        <ele>1458.952</ele>
        <time>2021-10-16T08:38:12Z</time>
      </trkpt>
      <trkpt lat="40.498904" lon="-4.735406">
        <ele>1460.719</ele>
        <time>2021-10-16T08:38:14Z</time>
      </trkpt>
      <trkpt lat="40.498533" lon="-4.735601">
        <ele>1461.661</ele>
        <time>2021-10-16T08:38:16Z</time>
      </trkpt>
      <trkpt lat="40.498350" lon="-4.735694">
        <ele>1462.221</ele>
        <time>2021-10-16T08:38:17Z</time>
      </trkpt>
      <trkpt lat="40.498169" lon="-4.735792">
        <ele>1462.513</ele>
        <time>2021-10-16T08:38:18Z</time>
      </trkpt>
      <trkpt lat="40.497823" lon="-4.736058">
        <ele>1464.008</ele>
        <time>2021-10-16T08:38:20Z</time>
      </trkpt>
      <trkpt lat="40.497542" lon="-4.736380">
        <ele>1463.554</ele>
        <time>2021-10-16T08:38:22Z</time>
      </trkpt>
      <trkpt lat="40.497406" lon="-4.736521">
        <ele>1463.232</ele>
        <time>2021-10-16T08:38:23Z</time>
      </trkpt>
      <trkpt lat="40.497140" lon="-4.736698">
        <ele>1463.541</ele>
        <time>2021-10-16T08:38:25Z</time>
      </trkpt>
      <trkpt lat="40.496857" lon="-4.736722">
        <ele>1461.965</ele>
        <time>2021-10-16T08:38:27Z</time>
      </trkpt>
      <trkpt lat="40.496605" lon="-4.736580">
        <ele>1460.840</ele>
        <time>2021-10-16T08:38:29Z</time>
      </trkpt>
      <trkpt lat="40.496502" lon="-4.736456">
        <ele>1460.499</ele>
        <time>2021-10-16T08:38:30Z</time>
      </trkpt>
      <trkpt lat="40.496418" lon="-4.736303">
        <ele>1459.641</ele>
        <time>2021-10-16T08:38:31Z</time>
      </trkpt>
      <trkpt lat="40.496299" lon="-4.735906">
        <ele>1457.148</ele>
        <time>2021-10-16T08:38:33Z</time>
      </trkpt>
      <trkpt lat="40.496265" lon="-4.735673">
        <ele>1455.327</ele>
        <time>2021-10-16T08:38:34Z</time>
      </trkpt>
      <trkpt lat="40.496220" lon="-4.735197">
        <ele>1452.868</ele>
        <time>2021-10-16T08:38:36Z</time>
      </trkpt>
      <trkpt lat="40.496175" lon="-4.734751">
        <ele>1450.814</ele>
        <time>2021-10-16T08:38:38Z</time>
      </trkpt>
      <trkpt lat="40.496121" lon="-4.734359">
        <ele>1446.508</ele>
        <time>2021-10-16T08:38:40Z</time>
      </trkpt>
      <trkpt lat="40.496024" lon="-4.733990">
        <ele>1445.260</ele>
        <time>2021-10-16T08:38:42Z</time>
      </trkpt>
      <trkpt lat="40.495948" lon="-4.733817">
        <ele>1444.198</ele>
        <time>2021-10-16T08:38:43Z</time>
      </trkpt>
      <trkpt lat="40.495854" lon="-4.733648">
        <ele>1443.597</ele>
        <time>2021-10-16T08:38:44Z</time>
      </trkpt>
      <trkpt lat="40.495618" lon="-4.733343">
        <ele>1442.681</ele>
        <time>2021-10-16T08:38:46Z</time>
      </trkpt>
      <trkpt lat="40.495475" lon="-4.733217">
        <ele>1441.686</ele>
        <time>2021-10-16T08:38:47Z</time>
      </trkpt>
      <trkpt lat="40.495183" lon="-4.732997">
        <ele>1438.645</ele>
        <time>2021-10-16T08:38:49Z</time>
      </trkpt>
      <trkpt lat="40.495035" lon="-4.732896">
        <ele>1437.137</ele>
        <time>2021-10-16T08:38:50Z</time>
      </trkpt>
      <trkpt lat="40.494759" lon="-4.732699">
        <ele>1434.374</ele>
        <time>2021-10-16T08:38:52Z</time>
      </trkpt>
      <trkpt lat="40.494626" lon="-4.732602">
        <ele>1433.218</ele>
        <time>2021-10-16T08:38:53Z</time>
      </trkpt>
      <trkpt lat="40.494494" lon="-4.732502">
        <ele>1433.198</ele>
        <time>2021-10-16T08:38:54Z</time>
      </trkpt>
      <trkpt lat="40.494220" lon="-4.732289">
        <ele>1430.917</ele>
        <time>2021-10-16T08:38:56Z</time>
      </trkpt>
      <trkpt lat="40.493958" lon="-4.732108">
        <ele>1429.108</ele>
        <time>2021-10-16T08:38:58Z</time>
      </trkpt>
      <trkpt lat="40.493688" lon="-4.731995">
        <ele>1426.369</ele>
        <time>2021-10-16T08:39:00Z</time>
      </trkpt>
      <trkpt lat="40.493416" lon="-4.732024">
        <ele>1424.037</ele>
        <time>2021-10-16T08:39:02Z</time>
      </trkpt>
      <trkpt lat="40.493287" lon="-4.732117">
        <ele>1424.126</ele>
        <time>2021-10-16T08:39:03Z</time>
      </trkpt>
      <trkpt lat="40.493113" lon="-4.732440">
        <ele>1421.830</ele>
        <time>2021-10-16T08:39:05Z</time>
      </trkpt>
      <trkpt lat="40.493089" lon="-4.732645">
        <ele>1420.535</ele>
        <time>2021-10-16T08:39:06Z</time>
      </trkpt>
      <trkpt lat="40.493118" lon="-4.732862">
        <ele>1419.784</ele>
        <time>2021-10-16T08:39:07Z</time>
      </trkpt>
      <trkpt lat="40.493193" lon="-4.733064">
        <ele>1417.716</ele>
        <time>2021-10-16T08:39:08Z</time>
      </trkpt>
      <trkpt lat="40.493444" lon="-4.733333">
        <ele>1415.993</ele>
        <time>2021-10-16T08:39:10Z</time>
      </trkpt>
      <trkpt lat="40.493613" lon="-4.733388">
        <ele>1414.698</ele>
        <time>2021-10-16T08:39:11Z</time>
      </trkpt>
      <trkpt lat="40.493787" lon="-4.733405">
        <ele>1414.315</ele>
        <time>2021-10-16T08:39:12Z</time>
      </trkpt>
      <trkpt lat="40.494122" lon="-4.733458">
        <ele>1411.226</ele>
        <time>2021-10-16T08:39:14Z</time>
      </trkpt>
      <trkpt lat="40.494400" lon="-4.733658">
        <ele>1409.108</ele>
        <time>2021-10-16T08:39:16Z</time>
      </trkpt>
      <trkpt lat="40.494555" lon="-4.734056">
        <ele>1406.377</ele>
        <time>2021-10-16T08:39:18Z</time>
      </trkpt>
      <trkpt lat="40.494581" lon="-4.734285">
        <ele>1404.265</ele>
        <time>2021-10-16T08:39:19Z</time>
      </trkpt>
      <trkpt lat="40.494575" lon="-4.734516">
        <ele>1402.764</ele>
        <time>2021-10-16T08:39:20Z</time>
      </trkpt>
      <trkpt lat="40.494425" lon="-4.734983">
        <ele>1400.918</ele>
        <time>2021-10-16T08:39:22Z</time>
      </trkpt>
      <trkpt lat="40.494153" lon="-4.735482">
        <ele>1398.533</ele>
        <time>2021-10-16T08:39:24Z</time>
      </trkpt>
      <trkpt lat="40.493898" lon="-4.736043">
        <ele>1394.882</ele>
        <time>2021-10-16T08:39:26Z</time>
      </trkpt>
      <trkpt lat="40.493669" lon="-4.736632">
        <ele>1391.064</ele>
        <time>2021-10-16T08:39:28Z</time>
      </trkpt>
      <trkpt lat="40.493551" lon="-4.736935">
        <ele>1388.821</ele>
        <time>2021-10-16T08:39:29Z</time>
      </trkpt>
      <trkpt lat="40.493438" lon="-4.737227">
        <ele>1387.515</ele>
        <time>2021-10-16T08:39:30Z</time>
      </trkpt>
      <trkpt lat="40.493218" lon="-4.737787">
        <ele>1384.365</ele>
        <time>2021-10-16T08:39:32Z</time>
      </trkpt>
      <trkpt lat="40.492964" lon="-4.738293">
        <ele>1380.811</ele>
        <time>2021-10-16T08:39:34Z</time>
      </trkpt>
      <trkpt lat="40.492808" lon="-4.738514">
        <ele>1379.508</ele>
        <time>2021-10-16T08:39:35Z</time>
      </trkpt>
      <trkpt lat="40.492494" lon="-4.738942">
        <ele>1375.449</ele>
        <time>2021-10-16T08:39:37Z</time>
      </trkpt>
      <trkpt lat="40.492348" lon="-4.739176">
        <ele>1375.497</ele>
        <time>2021-10-16T08:39:38Z</time>
      </trkpt>
      <trkpt lat="40.492092" lon="-4.739666">
        <ele>1372.986</ele>
        <time>2021-10-16T08:39:40Z</time>
      </trkpt>
      <trkpt lat="40.491969" lon="-4.739923">
        <ele>1371.920</ele>
        <time>2021-10-16T08:39:41Z</time>
      </trkpt>
      <trkpt lat="40.491717" lon="-4.740440">
        <ele>1370.795</ele>
        <time>2021-10-16T08:39:43Z</time>
      </trkpt>
      <trkpt lat="40.491576" lon="-4.740689">
        <ele>1370.034</ele>
        <time>2021-10-16T08:39:44Z</time>
      </trkpt>
      <trkpt lat="40.491275" lon="-4.741097">
        <ele>1370.056</ele>
        <time>2021-10-16T08:39:46Z</time>
      </trkpt>
      <trkpt lat="40.490955" lon="-4.741433">
        <ele>1367.973</ele>
        <time>2021-10-16T08:39:48Z</time>
      </trkpt>
      <trkpt lat="40.490808" lon="-4.741586">
        <ele>1366.631</ele>
        <time>2021-10-16T08:39:49Z</time>
      </trkpt>
      <trkpt lat="40.490668" lon="-4.741720">
        <ele>1366.161</ele>
        <time>2021-10-16T08:39:50Z</time>
      </trkpt>
      <trkpt lat="40.490377" lon="-4.741905">
        <ele>1366.207</ele>
        <time>2021-10-16T08:39:52Z</time>
      </trkpt>
      <trkpt lat="40.490208" lon="-4.741954">
        <ele>1365.308</ele>
        <time>2021-10-16T08:39:53Z</time>
      </trkpt>
      <trkpt lat="40.490038" lon="-4.741995">
        <ele>1364.531</ele>
        <time>2021-10-16T08:39:54Z</time>
      </trkpt>
      <trkpt lat="40.489731" lon="-4.742181">
        <ele>1362.269</ele>
        <time>2021-10-16T08:39:56Z</time>
      </trkpt>
      <trkpt lat="40.489606" lon="-4.742353">
        <ele>1361.498</ele>
        <time>2021-10-16T08:39:57Z</time>
      </trkpt>
      <trkpt lat="40.489368" lon="-4.742803">
        <ele>1358.572</ele>
        <time>2021-10-16T08:39:59Z</time>
      </trkpt>
      <trkpt lat="40.489242" lon="-4.743038">
        <ele>1357.727</ele>
        <time>2021-10-16T08:40:00Z</time>
      </trkpt>
      <trkpt lat="40.488995" lon="-4.743484">
        <ele>1354.156</ele>
        <time>2021-10-16T08:40:02Z</time>
      </trkpt>
      <trkpt lat="40.488795" lon="-4.743931">
        <ele>1350.368</ele>
        <time>2021-10-16T08:40:04Z</time>
      </trkpt>
      <trkpt lat="40.488727" lon="-4.744161">
        <ele>1348.325</ele>
        <time>2021-10-16T08:40:05Z</time>
      </trkpt>
      <trkpt lat="40.488661" lon="-4.744607">
        <ele>1347.827</ele>
        <time>2021-10-16T08:40:07Z</time>
      </trkpt>
      <trkpt lat="40.488633" lon="-4.744818">
        <ele>1346.768</ele>
        <time>2021-10-16T08:40:08Z</time>
      </trkpt>
      <trkpt lat="40.488488" lon="-4.745206">
        <ele>1345.014</ele>
        <time>2021-10-16T08:40:10Z</time>
      </trkpt>
      <trkpt lat="40.488208" lon="-4.745442">
        <ele>1344.408</ele>
        <time>2021-10-16T08:40:12Z</time>
      </trkpt>
      <trkpt lat="40.488039" lon="-4.745498">
        <ele>1342.230</ele>
        <time>2021-10-16T08:40:13Z</time>
      </trkpt>
      <trkpt lat="40.487868" lon="-4.745562">
        <ele>1341.698</ele>
        <time>2021-10-16T08:40:14Z</time>
      </trkpt>
      <trkpt lat="40.487557" lon="-4.745810">
        <ele>1338.557</ele>
        <time>2021-10-16T08:40:16Z</time>
      </trkpt>
      <trkpt lat="40.487413" lon="-4.746000">
        <ele>1337.741</ele>
        <time>2021-10-16T08:40:17Z</time>
      </trkpt>
      <trkpt lat="40.487271" lon="-4.746211">
        <ele>1336.026</ele>
        <time>2021-10-16T08:40:18Z</time>
      </trkpt>
      <trkpt lat="40.486967" lon="-4.746635">
        <ele>1333.085</ele>
        <time>2021-10-16T08:40:20Z</time>
      </trkpt>
      <trkpt lat="40.486634" lon="-4.747051">
        <ele>1330.487</ele>
        <time>2021-10-16T08:40:22Z</time>
      </trkpt>
      <trkpt lat="40.486263" lon="-4.747406">
        <ele>1328.184</ele>
        <time>2021-10-16T08:40:24Z</time>
      </trkpt>
      <trkpt lat="40.486078" lon="-4.747543">
        <ele>1326.923</ele>
        <time>2021-10-16T08:40:25Z</time>
      </trkpt>
      <trkpt lat="40.485897" lon="-4.747665">
        <ele>1326.283</ele>
        <time>2021-10-16T08:40:26Z</time>
      </trkpt>
      <trkpt lat="40.485549" lon="-4.747913">
        <ele>1324.811</ele>
        <time>2021-10-16T08:40:28Z</time>
      </trkpt>
      <trkpt lat="40.485371" lon="-4.748066">
        <ele>1324.408</ele>
        <time>2021-10-16T08:40:29Z</time>
      </trkpt>
      <trkpt lat="40.485025" lon="-4.748431">
        <ele>1320.820</ele>
        <time>2021-10-16T08:40:31Z</time>
      </trkpt>
      <trkpt lat="40.484850" lon="-4.748627">
        <ele>1318.868</ele>
        <time>2021-10-16T08:40:32Z</time>
      </trkpt>
      <trkpt lat="40.484680" lon="-4.748814">
        <ele>1316.247</ele>
        <time>2021-10-16T08:40:33Z</time>
      </trkpt>
      <trkpt lat="40.484518" lon="-4.749010">
        <ele>1313.941</ele>
        <time>2021-10-16T08:40:34Z</time>
      </trkpt>
      <trkpt lat="40.484249" lon="-4.749446">
        <ele>1313.086</ele>
        <time>2021-10-16T08:40:36Z</time>
      </trkpt>
      <trkpt lat="40.484084" lon="-4.749927">
        <ele>1310.585</ele>
        <time>2021-10-16T08:40:38Z</time>
      </trkpt>
      <trkpt lat="40.484039" lon="-4.750407">
        <ele>1309.317</ele>
        <time>2021-10-16T08:40:40Z</time>
      </trkpt>
      <trkpt lat="40.484098" lon="-4.750844">
        <ele>1307.374</ele>
        <time>2021-10-16T08:40:42Z</time>
      </trkpt>
      <trkpt lat="40.484194" lon="-4.751187">
        <ele>1306.537</ele>
        <time>2021-10-16T08:40:44Z</time>
      </trkpt>
      <trkpt lat="40.484227" lon="-4.751482">
        <ele>1304.549</ele>
        <time>2021-10-16T08:40:46Z</time>
      </trkpt>
      <trkpt lat="40.484197" lon="-4.751614">
        <ele>1303.413</ele>
        <time>2021-10-16T08:40:47Z</time>
      </trkpt>
      <trkpt lat="40.484144" lon="-4.751722">
        <ele>1302.608</ele>
        <time>2021-10-16T08:40:48Z</time>
      </trkpt>
      <trkpt lat="40.483986" lon="-4.751818">
        <ele>1301.011</ele>
        <time>2021-10-16T08:40:50Z</time>
      </trkpt>
      <trkpt lat="40.483802" lon="-4.751713">
        <ele>1299.929</ele>
        <time>2021-10-16T08:40:52Z</time>
      </trkpt>
      <trkpt lat="40.483724" lon="-4.751582">
        <ele>1299.418</ele>
        <time>2021-10-16T08:40:53Z</time>
      </trkpt>
      <trkpt lat="40.483662" lon="-4.751160">
        <ele>1297.562</ele>
        <time>2021-10-16T08:40:55Z</time>
      </trkpt>
      <trkpt lat="40.483660" lon="-4.750879">
        <ele>1296.097</ele>
        <time>2021-10-16T08:40:56Z</time>
      </trkpt>
      <trkpt lat="40.483614" lon="-4.750313">
        <ele>1297.596</ele>
        <time>2021-10-16T08:40:58Z</time>
      </trkpt>
      <trkpt lat="40.483507" lon="-4.749824">
        <ele>1295.718</ele>
        <time>2021-10-16T08:41:00Z</time>
      </trkpt>
      <trkpt lat="40.483454" lon="-4.749603">
        <ele>1295.965</ele>
        <time>2021-10-16T08:41:01Z</time>
      </trkpt>
      <trkpt lat="40.483426" lon="-4.749167">
        <ele>1294.144</ele>
        <time>2021-10-16T08:41:03Z</time>
      </trkpt>
      <trkpt lat="40.483546" lon="-4.748732">
        <ele>1293.505</ele>
        <time>2021-10-16T08:41:05Z</time>
      </trkpt>
      <trkpt lat="40.483653" lon="-4.748518">
        <ele>1292.115</ele>
        <time>2021-10-16T08:41:06Z</time>
      </trkpt>
      <trkpt lat="40.483887" lon="-4.748071">
        <ele>1289.508</ele>
        <time>2021-10-16T08:41:08Z</time>
      </trkpt>
      <trkpt lat="40.484089" lon="-4.747633">
        <ele>1286.512</ele>
        <time>2021-10-16T08:41:10Z</time>
      </trkpt>
      <trkpt lat="40.484179" lon="-4.747423">
        <ele>1285.660</ele>
        <time>2021-10-16T08:41:11Z</time>
      </trkpt>
      <trkpt lat="40.484339" lon="-4.747033">
        <ele>1283.319</ele>
        <time>2021-10-16T08:41:13Z</time>
      </trkpt>
      <trkpt lat="40.484421" lon="-4.746855">
        <ele>1282.293</ele>
        <time>2021-10-16T08:41:14Z</time>
      </trkpt>
      <trkpt lat="40.484595" lon="-4.746558">
        <ele>1279.488</ele>
        <time>2021-10-16T08:41:16Z</time>
      </trkpt>
      <trkpt lat="40.484729" lon="-4.746274">
        <ele>1276.937</ele>
        <time>2021-10-16T08:41:18Z</time>
      </trkpt>
      <trkpt lat="40.484748" lon="-4.746119">
        <ele>1277.069</ele>
        <time>2021-10-16T08:41:19Z</time>
      </trkpt>
      <trkpt lat="40.484721" lon="-4.745970">
        <ele>1275.996</ele>
        <time>2021-10-16T08:41:20Z</time>
      </trkpt>
      <trkpt lat="40.484554" lon="-4.745794">
        <ele>1274.327</ele>
        <time>2021-10-16T08:41:22Z</time>
      </trkpt>
      <trkpt lat="40.484314" lon="-4.745804">
        <ele>1271.468</ele>
        <time>2021-10-16T08:41:24Z</time>
      </trkpt>
      <trkpt lat="40.484004" lon="-4.745990">
        <ele>1267.714</ele>
        <time>2021-10-16T08:41:26Z</time>
      </trkpt>
      <trkpt lat="40.483827" lon="-4.746114">
        <ele>1266.008</ele>
        <time>2021-10-16T08:41:27Z</time>
      </trkpt>
      <trkpt lat="40.483465" lon="-4.746356">
        <ele>1264.290</ele>
        <time>2021-10-16T08:41:29Z</time>
      </trkpt>
      <trkpt lat="40.483282" lon="-4.746482">
        <ele>1262.938</ele>
        <time>2021-10-16T08:41:30Z</time>
      </trkpt>
      <trkpt lat="40.482918" lon="-4.746745">
        <ele>1260.247</ele>
        <time>2021-10-16T08:41:32Z</time>
      </trkpt>
      <trkpt lat="40.482744" lon="-4.746865">
        <ele>1259.511</ele>
        <time>2021-10-16T08:41:33Z</time>
      </trkpt>
      <trkpt lat="40.482388" lon="-4.747102">
        <ele>1256.556</ele>
        <time>2021-10-16T08:41:35Z</time>
      </trkpt>
      <trkpt lat="40.482027" lon="-4.747356">
        <ele>1256.075</ele>
        <time>2021-10-16T08:41:37Z</time>
      </trkpt>
      <trkpt lat="40.481855" lon="-4.747496">
        <ele>1255.177</ele>
        <time>2021-10-16T08:41:38Z</time>
      </trkpt>
      <trkpt lat="40.481564" lon="-4.747823">
        <ele>1251.934</ele>
        <time>2021-10-16T08:41:40Z</time>
      </trkpt>
      <trkpt lat="40.481368" lon="-4.748282">
        <ele>1249.413</ele>
        <time>2021-10-16T08:41:42Z</time>
      </trkpt>
      <trkpt lat="40.481283" lon="-4.748861">
        <ele>1246.543</ele>
        <time>2021-10-16T08:41:44Z</time>
      </trkpt>
      <trkpt lat="40.481278" lon="-4.749459">
        <ele>1242.707</ele>
        <time>2021-10-16T08:41:46Z</time>
      </trkpt>
      <trkpt lat="40.481283" lon="-4.749741">
        <ele>1242.608</ele>
        <time>2021-10-16T08:41:47Z</time>
      </trkpt>
      <trkpt lat="40.481286" lon="-4.750010">
        <ele>1241.749</ele>
        <time>2021-10-16T08:41:48Z</time>
      </trkpt>
      <trkpt lat="40.481293" lon="-4.750264">
        <ele>1240.017</ele>
        <time>2021-10-16T08:41:49Z</time>
      </trkpt>
      <trkpt lat="40.481318" lon="-4.750506">
        <ele>1238.816</ele>
        <time>2021-10-16T08:41:50Z</time>
      </trkpt>
      <trkpt lat="40.481460" lon="-4.750928">
        <ele>1236.150</ele>
        <time>2021-10-16T08:41:52Z</time>
      </trkpt>
      <trkpt lat="40.481717" lon="-4.751205">
        <ele>1234.065</ele>
        <time>2021-10-16T08:41:54Z</time>
      </trkpt>
      <trkpt lat="40.481997" lon="-4.751407">
        <ele>1232.034</ele>
        <time>2021-10-16T08:41:56Z</time>
      </trkpt>
      <trkpt lat="40.482115" lon="-4.751554">
        <ele>1230.896</ele>
        <time>2021-10-16T08:41:57Z</time>
      </trkpt>
      <trkpt lat="40.482213" lon="-4.751739">
        <ele>1229.743</ele>
        <time>2021-10-16T08:41:58Z</time>
      </trkpt>
      <trkpt lat="40.482291" lon="-4.751962">
        <ele>1228.449</ele>
        <time>2021-10-16T08:41:59Z</time>
      </trkpt>
      <trkpt lat="40.482389" lon="-4.752506">
        <ele>1225.802</ele>
        <time>2021-10-16T08:42:01Z</time>
      </trkpt>
      <trkpt lat="40.482432" lon="-4.753118">
        <ele>1222.822</ele>
        <time>2021-10-16T08:42:03Z</time>
      </trkpt>
      <trkpt lat="40.482469" lon="-4.753424">
        <ele>1222.608</ele>
        <time>2021-10-16T08:42:04Z</time>
      </trkpt>
      <trkpt lat="40.482572" lon="-4.753965">
        <ele>1222.252</ele>
        <time>2021-10-16T08:42:06Z</time>
      </trkpt>
      <trkpt lat="40.482629" lon="-4.754198">
        <ele>1222.940</ele>
        <time>2021-10-16T08:42:07Z</time>
      </trkpt>
      <trkpt lat="40.482688" lon="-4.754395">
        <ele>1222.529</ele>
        <time>2021-10-16T08:42:08Z</time>
      </trkpt>
      <trkpt lat="40.482842" lon="-4.754682">
        <ele>1219.873</ele>
        <time>2021-10-16T08:42:10Z</time>
      </trkpt>
      <trkpt lat="40.482951" lon="-4.754771">
        <ele>1220.048</ele>
        <time>2021-10-16T08:42:11Z</time>
      </trkpt>
      <trkpt lat="40.483194" lon="-4.754841">
        <ele>1220.667</ele>
        <time>2021-10-16T08:42:13Z</time>
      </trkpt>
      <trkpt lat="40.483310" lon="-4.754893">
        <ele>1221.259</ele>
        <time>2021-10-16T08:42:14Z</time>
      </trkpt>
      <trkpt lat="40.483498" lon="-4.755148">
        <ele>1221.396</ele>
        <time>2021-10-16T08:42:16Z</time>
      </trkpt>
      <trkpt lat="40.483551" lon="-4.755345">
        <ele>1221.185</ele>
        <time>2021-10-16T08:42:17Z</time>
      </trkpt>
      <trkpt lat="40.483565" lon="-4.755823">
        <ele>1220.989</ele>
        <time>2021-10-16T08:42:19Z</time>
      </trkpt>
      <trkpt lat="40.483536" lon="-4.756104">
        <ele>1219.717</ele>
        <time>2021-10-16T08:42:20Z</time>
      </trkpt>
      <trkpt lat="40.483427" lon="-4.756696">
        <ele>1218.008</ele>
        <time>2021-10-16T08:42:22Z</time>
      </trkpt>
      <trkpt lat="40.483373" lon="-4.756981">
        <ele>1215.196</ele>
        <time>2021-10-16T08:42:23Z</time>
      </trkpt>
      <trkpt lat="40.483285" lon="-4.757518">
        <ele>1210.544</ele>
        <time>2021-10-16T08:42:25Z</time>
      </trkpt>
      <trkpt lat="40.483250" lon="-4.757772">
        <ele>1208.413</ele>
        <time>2021-10-16T08:42:26Z</time>
      </trkpt>
      <trkpt lat="40.483216" lon="-4.758260">
        <ele>1206.547</ele>
        <time>2021-10-16T08:42:28Z</time>
      </trkpt>
      <trkpt lat="40.483226" lon="-4.758496">
        <ele>1204.382</ele>
        <time>2021-10-16T08:42:29Z</time>
      </trkpt>
      <trkpt lat="40.483257" lon="-4.758743">
        <ele>1203.091</ele>
        <time>2021-10-16T08:42:30Z</time>
      </trkpt>
      <trkpt lat="40.483381" lon="-4.759254">
        <ele>1202.353</ele>
        <time>2021-10-16T08:42:32Z</time>
      </trkpt>
      <trkpt lat="40.483544" lon="-4.759775">
        <ele>1198.520</ele>
        <time>2021-10-16T08:42:34Z</time>
      </trkpt>
      <trkpt lat="40.483697" lon="-4.760302">
        <ele>1195.575</ele>
        <time>2021-10-16T08:42:36Z</time>
      </trkpt>
      <trkpt lat="40.483768" lon="-4.760549">
        <ele>1194.528</ele>
        <time>2021-10-16T08:42:37Z</time>
      </trkpt>
      <trkpt lat="40.483838" lon="-4.760786">
        <ele>1193.120</ele>
        <time>2021-10-16T08:42:38Z</time>
      </trkpt>
      <trkpt lat="40.483964" lon="-4.761220">
        <ele>1190.808</ele>
        <time>2021-10-16T08:42:40Z</time>
      </trkpt>
      <trkpt lat="40.484018" lon="-4.761430">
        <ele>1189.545</ele>
        <time>2021-10-16T08:42:41Z</time>
      </trkpt>
      <trkpt lat="40.484044" lon="-4.761850">
        <ele>1188.233</ele>
        <time>2021-10-16T08:42:43Z</time>
      </trkpt>
      <trkpt lat="40.483998" lon="-4.762075">
        <ele>1188.862</ele>
        <time>2021-10-16T08:42:44Z</time>
      </trkpt>
      <trkpt lat="40.483814" lon="-4.762525">
        <ele>1186.356</ele>
        <time>2021-10-16T08:42:46Z</time>
      </trkpt>
      <trkpt lat="40.483719" lon="-4.762753">
        <ele>1185.561</ele>
        <time>2021-10-16T08:42:47Z</time>
      </trkpt>
      <trkpt lat="40.483632" lon="-4.762969">
        <ele>1186.540</ele>
        <time>2021-10-16T08:42:48Z</time>
      </trkpt>
      <trkpt lat="40.483547" lon="-4.763171">
        <ele>1187.042</ele>
        <time>2021-10-16T08:42:49Z</time>
      </trkpt>
      <trkpt lat="40.483454" lon="-4.763357">
        <ele>1184.879</ele>
        <time>2021-10-16T08:42:50Z</time>
      </trkpt>
      <trkpt lat="40.483211" lon="-4.763664">
        <ele>1183.878</ele>
        <time>2021-10-16T08:42:52Z</time>
      </trkpt>
      <trkpt lat="40.482876" lon="-4.763804">
        <ele>1182.833</ele>
        <time>2021-10-16T08:42:54Z</time>
      </trkpt>
      <trkpt lat="40.482463" lon="-4.763764">
        <ele>1182.426</ele>
        <time>2021-10-16T08:42:56Z</time>
      </trkpt>
      <trkpt lat="40.482052" lon="-4.763781">
        <ele>1178.808</ele>
        <time>2021-10-16T08:42:58Z</time>
      </trkpt>
      <trkpt lat="40.481700" lon="-4.763983">
        <ele>1177.665</ele>
        <time>2021-10-16T08:43:00Z</time>
      </trkpt>
      <trkpt lat="40.481414" lon="-4.764375">
        <ele>1176.013</ele>
        <time>2021-10-16T08:43:02Z</time>
      </trkpt>
      <trkpt lat="40.481262" lon="-4.764585">
        <ele>1174.782</ele>
        <time>2021-10-16T08:43:03Z</time>
      </trkpt>
      <trkpt lat="40.480978" lon="-4.764955">
        <ele>1171.646</ele>
        <time>2021-10-16T08:43:05Z</time>
      </trkpt>
      <trkpt lat="40.480841" lon="-4.765105">
        <ele>1169.811</ele>
        <time>2021-10-16T08:43:06Z</time>
      </trkpt>
      <trkpt lat="40.480695" lon="-4.765218">
        <ele>1168.270</ele>
        <time>2021-10-16T08:43:07Z</time>
      </trkpt>
      <trkpt lat="40.480535" lon="-4.765294">
        <ele>1166.532</ele>
        <time>2021-10-16T08:43:08Z</time>
      </trkpt>
      <trkpt lat="40.480171" lon="-4.765328">
        <ele>1163.249</ele>
        <time>2021-10-16T08:43:10Z</time>
      </trkpt>
      <trkpt lat="40.479972" lon="-4.765354">
        <ele>1161.879</ele>
        <time>2021-10-16T08:43:11Z</time>
      </trkpt>
      <trkpt lat="40.479782" lon="-4.765413">
        <ele>1160.205</ele>
        <time>2021-10-16T08:43:12Z</time>
      </trkpt>
      <trkpt lat="40.479441" lon="-4.765634">
        <ele>1155.925</ele>
        <time>2021-10-16T08:43:14Z</time>
      </trkpt>
      <trkpt lat="40.479111" lon="-4.765760">
        <ele>1154.508</ele>
        <time>2021-10-16T08:43:16Z</time>
      </trkpt>
      <trkpt lat="40.478786" lon="-4.765668">
        <ele>1152.535</ele>
        <time>2021-10-16T08:43:18Z</time>
      </trkpt>
      <trkpt lat="40.478548" lon="-4.765347">
        <ele>1150.733</ele>
        <time>2021-10-16T08:43:20Z</time>
      </trkpt>
      <trkpt lat="40.478429" lon="-4.764862">
        <ele>1148.342</ele>
        <time>2021-10-16T08:43:22Z</time>
      </trkpt>
      <trkpt lat="40.478371" lon="-4.764277">
        <ele>1145.416</ele>
        <time>2021-10-16T08:43:24Z</time>
      </trkpt>
      <trkpt lat="40.478204" lon="-4.763775">
        <ele>1142.991</ele>
        <time>2021-10-16T08:43:26Z</time>
      </trkpt>
      <trkpt lat="40.477946" lon="-4.763377">
        <ele>1139.610</ele>
        <time>2021-10-16T08:43:28Z</time>
      </trkpt>
      <trkpt lat="40.477821" lon="-4.763204">
        <ele>1138.322</ele>
        <time>2021-10-16T08:43:29Z</time>
      </trkpt>
      <trkpt lat="40.477690" lon="-4.763062">
        <ele>1136.239</ele>
        <time>2021-10-16T08:43:30Z</time>
      </trkpt>
      <trkpt lat="40.477395" lon="-4.762932">
        <ele>1132.228</ele>
        <time>2021-10-16T08:43:32Z</time>
      </trkpt>
      <trkpt lat="40.477219" lon="-4.762957">
        <ele>1131.289</ele>
        <time>2021-10-16T08:43:33Z</time>
      </trkpt>
      <trkpt lat="40.477036" lon="-4.763038">
        <ele>1130.117</ele>
        <time>2021-10-16T08:43:34Z</time>
      </trkpt>
      <trkpt lat="40.476650" lon="-4.763304">
        <ele>1128.308</ele>
        <time>2021-10-16T08:43:36Z</time>
      </trkpt>
      <trkpt lat="40.476447" lon="-4.763447">
        <ele>1126.860</ele>
        <time>2021-10-16T08:43:37Z</time>
      </trkpt>
      <trkpt lat="40.476252" lon="-4.763606">
        <ele>1125.458</ele>
        <time>2021-10-16T08:43:38Z</time>
      </trkpt>
      <trkpt lat="40.475896" lon="-4.763985">
        <ele>1122.357</ele>
        <time>2021-10-16T08:43:40Z</time>
      </trkpt>
      <trkpt lat="40.475748" lon="-4.764188">
        <ele>1121.791</ele>
        <time>2021-10-16T08:43:41Z</time>
      </trkpt>
      <trkpt lat="40.475506" lon="-4.764566">
        <ele>1120.676</ele>
        <time>2021-10-16T08:43:43Z</time>
      </trkpt>
      <trkpt lat="40.475383" lon="-4.764723">
        <ele>1119.665</ele>
        <time>2021-10-16T08:43:44Z</time>
      </trkpt>
      <trkpt lat="40.475082" lon="-4.764902">
        <ele>1118.787</ele>
        <time>2021-10-16T08:43:46Z</time>
      </trkpt>
      <trkpt lat="40.474902" lon="-4.764917">
        <ele>1118.594</ele>
        <time>2021-10-16T08:43:47Z</time>
      </trkpt>
      <trkpt lat="40.474702" lon="-4.764883">
        <ele>1118.789</ele>
        <time>2021-10-16T08:43:48Z</time>
      </trkpt>
      <trkpt lat="40.474311" lon="-4.764764">
        <ele>1116.906</ele>
        <time>2021-10-16T08:43:50Z</time>
      </trkpt>
      <trkpt lat="40.473973" lon="-4.764565">
        <ele>1115.926</ele>
        <time>2021-10-16T08:43:52Z</time>
      </trkpt>
      <trkpt lat="40.473623" lon="-4.764368">
        <ele>1113.408</ele>
        <time>2021-10-16T08:43:54Z</time>
      </trkpt>
      <trkpt lat="40.473245" lon="-4.764330">
        <ele>1111.236</ele>
        <time>2021-10-16T08:43:56Z</time>
      </trkpt>
      <trkpt lat="40.472823" lon="-4.764468">
        <ele>1107.674</ele>
        <time>2021-10-16T08:43:58Z</time>
      </trkpt>
      <trkpt lat="40.472382" lon="-4.764654">
        <ele>1103.973</ele>
        <time>2021-10-16T08:44:00Z</time>
      </trkpt>
      <trkpt lat="40.471938" lon="-4.764731">
        <ele>1099.777</ele>
        <time>2021-10-16T08:44:02Z</time>
      </trkpt>
      <trkpt lat="40.471498" lon="-4.764846">
        <ele>1096.512</ele>
        <time>2021-10-16T08:44:04Z</time>
      </trkpt>
      <trkpt lat="40.471050" lon="-4.765079">
        <ele>1094.651</ele>
        <time>2021-10-16T08:44:06Z</time>
      </trkpt>
      <trkpt lat="40.470595" lon="-4.765368">
        <ele>1091.233</ele>
        <time>2021-10-16T08:44:08Z</time>
      </trkpt>
      <trkpt lat="40.470139" lon="-4.765656">
        <ele>1088.190</ele>
        <time>2021-10-16T08:44:10Z</time>
      </trkpt>
      <trkpt lat="40.469669" lon="-4.765888">
        <ele>1085.398</ele>
        <time>2021-10-16T08:44:12Z</time>
      </trkpt>
      <trkpt lat="40.469427" lon="-4.765958">
        <ele>1083.915</ele>
        <time>2021-10-16T08:44:13Z</time>
      </trkpt>
      <trkpt lat="40.469179" lon="-4.766000">
        <ele>1082.426</ele>
        <time>2021-10-16T08:44:14Z</time>
      </trkpt>
      <trkpt lat="40.468679" lon="-4.766031">
        <ele>1078.008</ele>
        <time>2021-10-16T08:44:16Z</time>
      </trkpt>
      <trkpt lat="40.468153" lon="-4.766019">
        <ele>1073.447</ele>
        <time>2021-10-16T08:44:18Z</time>
      </trkpt>
      <trkpt lat="40.467882" lon="-4.766006">
        <ele>1071.995</ele>
        <time>2021-10-16T08:44:19Z</time>
      </trkpt>
      <trkpt lat="40.467612" lon="-4.766003">
        <ele>1070.244</ele>
        <time>2021-10-16T08:44:20Z</time>
      </trkpt>
      <trkpt lat="40.467113" lon="-4.766068">
        <ele>1066.968</ele>
        <time>2021-10-16T08:44:22Z</time>
      </trkpt>
      <trkpt lat="40.466882" lon="-4.766129">
        <ele>1066.183</ele>
        <time>2021-10-16T08:44:23Z</time>
      </trkpt>
      <trkpt lat="40.466659" lon="-4.766171">
        <ele>1065.282</ele>
        <time>2021-10-16T08:44:24Z</time>
      </trkpt>
      <trkpt lat="40.466226" lon="-4.766142">
        <ele>1060.364</ele>
        <time>2021-10-16T08:44:26Z</time>
      </trkpt>
      <trkpt lat="40.465786" lon="-4.766124">
        <ele>1058.321</ele>
        <time>2021-10-16T08:44:28Z</time>
      </trkpt>
      <trkpt lat="40.465556" lon="-4.766169">
        <ele>1056.293</ele>
        <time>2021-10-16T08:44:29Z</time>
      </trkpt>
      <trkpt lat="40.465328" lon="-4.766247">
        <ele>1055.065</ele>
        <time>2021-10-16T08:44:30Z</time>
      </trkpt>
      <trkpt lat="40.465112" lon="-4.766341">
        <ele>1052.721</ele>
        <time>2021-10-16T08:44:31Z</time>
      </trkpt>
      <trkpt lat="40.464696" lon="-4.766511">
        <ele>1048.708</ele>
        <time>2021-10-16T08:44:33Z</time>
      </trkpt>
      <trkpt lat="40.464323" lon="-4.766746">
        <ele>1046.137</ele>
        <time>2021-10-16T08:44:35Z</time>
      </trkpt>
      <trkpt lat="40.464159" lon="-4.766925">
        <ele>1044.375</ele>
        <time>2021-10-16T08:44:36Z</time>
      </trkpt>
      <trkpt lat="40.463872" lon="-4.767377">
        <ele>1040.554</ele>
        <time>2021-10-16T08:44:38Z</time>
      </trkpt>
      <trkpt lat="40.463619" lon="-4.767787">
        <ele>1038.438</ele>
        <time>2021-10-16T08:44:40Z</time>
      </trkpt>
      <trkpt lat="40.463348" lon="-4.768084">
        <ele>1036.573</ele>
        <time>2021-10-16T08:44:42Z</time>
      </trkpt>
      <trkpt lat="40.463180" lon="-4.768178">
        <ele>1035.042</ele>
        <time>2021-10-16T08:44:43Z</time>
      </trkpt>
      <trkpt lat="40.462987" lon="-4.768234">
        <ele>1032.314</ele>
        <time>2021-10-16T08:44:44Z</time>
      </trkpt>
      <trkpt lat="40.462570" lon="-4.768317">
        <ele>1029.461</ele>
        <time>2021-10-16T08:44:46Z</time>
      </trkpt>
      <trkpt lat="40.462359" lon="-4.768377">
        <ele>1028.338</ele>
        <time>2021-10-16T08:44:47Z</time>
      </trkpt>
      <trkpt lat="40.462160" lon="-4.768439">
        <ele>1027.770</ele>
        <time>2021-10-16T08:44:48Z</time>
      </trkpt>
      <trkpt lat="40.461802" lon="-4.768541">
        <ele>1024.617</ele>
        <time>2021-10-16T08:44:50Z</time>
      </trkpt>
      <trkpt lat="40.461500" lon="-4.768622">
        <ele>1022.808</ele>
        <time>2021-10-16T08:44:52Z</time>
      </trkpt>
      <trkpt lat="40.461367" lon="-4.768657">
        <ele>1021.831</ele>
        <time>2021-10-16T08:44:53Z</time>
      </trkpt>
      <trkpt lat="40.461252" lon="-4.768688">
        <ele>1021.029</ele>
        <time>2021-10-16T08:44:54Z</time>
      </trkpt>
      <trkpt lat="40.461069" lon="-4.768756">
        <ele>1020.058</ele>
        <time>2021-10-16T08:44:56Z</time>
      </trkpt>
      <trkpt lat="40.460935" lon="-4.768810">
        <ele>1018.862</ele>
        <time>2021-10-16T08:44:58Z</time>
      </trkpt>
      <trkpt lat="40.460883" lon="-4.768834">
        <ele>1017.227</ele>
        <time>2021-10-16T08:44:59Z</time>
      </trkpt>
      <trkpt lat="40.460815" lon="-4.768866">
        <ele>1015.746</ele>
        <time>2021-10-16T08:45:01Z</time>
      </trkpt>
      <trkpt lat="40.460764" lon="-4.768892">
        <ele>1015.118</ele>
        <time>2021-10-16T08:45:03Z</time>
      </trkpt>
      <trkpt lat="40.460717" lon="-4.768921">
        <ele>1014.275</ele>
        <time>2021-10-16T08:45:06Z</time>
      </trkpt>
      <trkpt lat="40.460666" lon="-4.768939">
        <ele>1031.692</ele>
        <time>2021-10-16T08:45:32Z</time>
      </trkpt>
      <trkpt lat="40.460620" lon="-4.768974">
        <ele>1049.273</ele>
        <time>2021-10-16T08:45:34Z</time>
      </trkpt>
      <trkpt lat="40.460524" lon="-4.769032">
        <ele>1067.520</ele>
        <time>2021-10-16T08:45:36Z</time>
      </trkpt>
      <trkpt lat="40.460445" lon="-4.769064">
        <ele>1067.508</ele>
        <time>2021-10-16T08:45:37Z</time>
      </trkpt>
      <trkpt lat="40.460352" lon="-4.769093">
        <ele>1067.547</ele>
        <time>2021-10-16T08:45:38Z</time>
      </trkpt>
      <trkpt lat="40.460166" lon="-4.769170">
        <ele>1067.575</ele>
        <time>2021-10-16T08:45:40Z</time>
      </trkpt>
      <trkpt lat="40.460079" lon="-4.769211">
        <ele>1067.544</ele>
        <time>2021-10-16T08:45:41Z</time>
      </trkpt>
      <trkpt lat="40.459985" lon="-4.769252">
        <ele>1067.588</ele>
        <time>2021-10-16T08:45:42Z</time>
      </trkpt>
      <trkpt lat="40.459751" lon="-4.769339">
        <ele>1067.463</ele>
        <time>2021-10-16T08:45:44Z</time>
      </trkpt>
      <trkpt lat="40.459476" lon="-4.769414">
        <ele>1067.422</ele>
        <time>2021-10-16T08:45:46Z</time>
      </trkpt>
      <trkpt lat="40.459335" lon="-4.769429">
        <ele>1067.434</ele>
        <time>2021-10-16T08:45:47Z</time>
      </trkpt>
      <trkpt lat="40.459071" lon="-4.769441">
        <ele>1067.481</ele>
        <time>2021-10-16T08:45:49Z</time>
      </trkpt>
      <trkpt lat="40.458941" lon="-4.769441">
        <ele>1067.431</ele>
        <time>2021-10-16T08:45:50Z</time>
      </trkpt>
      <trkpt lat="40.458699" lon="-4.769441">
        <ele>1067.361</ele>
        <time>2021-10-16T08:45:52Z</time>
      </trkpt>
      <trkpt lat="40.458580" lon="-4.769440">
        <ele>1067.307</ele>
        <time>2021-10-16T08:45:53Z</time>
      </trkpt>
      <trkpt lat="40.458463" lon="-4.769442">
        <ele>1067.308</ele>
        <time>2021-10-16T08:45:54Z</time>
      </trkpt>
      <trkpt lat="40.458247" lon="-4.769451">
        <ele>1067.361</ele>
        <time>2021-10-16T08:45:56Z</time>
      </trkpt>
      <trkpt lat="40.458062" lon="-4.769457">
        <ele>1067.379</ele>
        <time>2021-10-16T08:45:58Z</time>
      </trkpt>
      <trkpt lat="40.457976" lon="-4.769459">
        <ele>1067.388</ele>
        <time>2021-10-16T08:45:59Z</time>
      </trkpt>
      <trkpt lat="40.457895" lon="-4.769456">
        <ele>1067.382</ele>
        <time>2021-10-16T08:46:00Z</time>
      </trkpt>
      <trkpt lat="40.457764" lon="-4.769381">
        <ele>1067.387</ele>
        <time>2021-10-16T08:46:02Z</time>
      </trkpt>
      <trkpt lat="40.457724" lon="-4.769164">
        <ele>1067.346</ele>
        <time>2021-10-16T08:46:04Z</time>
      </trkpt>
      <trkpt lat="40.457727" lon="-4.769001">
        <ele>1067.358</ele>
        <time>2021-10-16T08:46:05Z</time>
      </trkpt>
      <trkpt lat="40.457721" lon="-4.768647">
        <ele>1067.275</ele>
        <time>2021-10-16T08:46:07Z</time>
      </trkpt>
      <trkpt lat="40.457715" lon="-4.768460">
        <ele>1067.244</ele>
        <time>2021-10-16T08:46:08Z</time>
      </trkpt>
      <trkpt lat="40.457698" lon="-4.768070">
        <ele>1067.205</ele>
        <time>2021-10-16T08:46:10Z</time>
      </trkpt>
      <trkpt lat="40.457686" lon="-4.767868">
        <ele>1067.215</ele>
        <time>2021-10-16T08:46:11Z</time>
      </trkpt>
      <trkpt lat="40.457666" lon="-4.767504">
        <ele>1067.208</ele>
        <time>2021-10-16T08:46:13Z</time>
      </trkpt>
      <trkpt lat="40.457658" lon="-4.767337">
        <ele>1067.272</ele>
        <time>2021-10-16T08:46:14Z</time>
      </trkpt>
      <trkpt lat="40.457642" lon="-4.767044">
        <ele>1067.110</ele>
        <time>2021-10-16T08:46:16Z</time>
      </trkpt>
      <trkpt lat="40.457628" lon="-4.766917">
        <ele>1067.199</ele>
        <time>2021-10-16T08:46:17Z</time>
      </trkpt>
      <trkpt lat="40.457551" lon="-4.766712">
        <ele>1067.133</ele>
        <time>2021-10-16T08:46:19Z</time>
      </trkpt>
      <trkpt lat="40.457478" lon="-4.766642">
        <ele>1067.188</ele>
        <time>2021-10-16T08:46:20Z</time>
      </trkpt>
      <trkpt lat="40.457285" lon="-4.766615">
        <ele>1067.187</ele>
        <time>2021-10-16T08:46:22Z</time>
      </trkpt>
      <trkpt lat="40.457171" lon="-4.766651">
        <ele>1067.149</ele>
        <time>2021-10-16T08:46:23Z</time>
      </trkpt>
      <trkpt lat="40.457045" lon="-4.766699">
        <ele>1067.116</ele>
        <time>2021-10-16T08:46:24Z</time>
      </trkpt>
      <trkpt lat="40.456909" lon="-4.766746">
        <ele>1067.156</ele>
        <time>2021-10-16T08:46:25Z</time>
      </trkpt>
      <trkpt lat="40.456761" lon="-4.766791">
        <ele>1067.159</ele>
        <time>2021-10-16T08:46:26Z</time>
      </trkpt>
      <trkpt lat="40.456455" lon="-4.766881">
        <ele>1067.114</ele>
        <time>2021-10-16T08:46:28Z</time>
      </trkpt>
      <trkpt lat="40.456136" lon="-4.766972">
        <ele>981.608</ele>
        <time>2021-10-16T08:46:30Z</time>
      </trkpt>
      <trkpt lat="40.455811" lon="-4.767070">
        <ele>981.673</ele>
        <time>2021-10-16T08:46:32Z</time>
      </trkpt>
      <trkpt lat="40.455460" lon="-4.767174">
        <ele>980.861</ele>
        <time>2021-10-16T08:46:34Z</time>
      </trkpt>
      <trkpt lat="40.455066" lon="-4.767275">
        <ele>978.610</ele>
        <time>2021-10-16T08:46:36Z</time>
      </trkpt>
      <trkpt lat="40.454661" lon="-4.767362">
        <ele>976.674</ele>
        <time>2021-10-16T08:46:38Z</time>
      </trkpt>
      <trkpt lat="40.454257" lon="-4.767429">
        <ele>974.669</ele>
        <time>2021-10-16T08:46:40Z</time>
      </trkpt>
      <trkpt lat="40.453837" lon="-4.767479">
        <ele>972.768</ele>
        <time>2021-10-16T08:46:42Z</time>
      </trkpt>
      <trkpt lat="40.453619" lon="-4.767492">
        <ele>970.770</ele>
        <time>2021-10-16T08:46:43Z</time>
      </trkpt>
      <trkpt lat="40.453395" lon="-4.767497">
        <ele>970.017</ele>
        <time>2021-10-16T08:46:44Z</time>
      </trkpt>
      <trkpt lat="40.452956" lon="-4.767499">
        <ele>967.227</ele>
        <time>2021-10-16T08:46:46Z</time>
      </trkpt>
      <trkpt lat="40.452734" lon="-4.767494">
        <ele>965.768</ele>
        <time>2021-10-16T08:46:47Z</time>
      </trkpt>
      <trkpt lat="40.452312" lon="-4.767481">
        <ele>963.214</ele>
        <time>2021-10-16T08:46:49Z</time>
      </trkpt>
      <trkpt lat="40.452107" lon="-4.767474">
        <ele>963.308</ele>
        <time>2021-10-16T08:46:50Z</time>
      </trkpt>
      <trkpt lat="40.451713" lon="-4.767459">
        <ele>962.490</ele>
        <time>2021-10-16T08:46:52Z</time>
      </trkpt>
      <trkpt lat="40.451291" lon="-4.767453">
        <ele>960.828</ele>
        <time>2021-10-16T08:46:54Z</time>
      </trkpt>
      <trkpt lat="40.451068" lon="-4.767465">
        <ele>960.197</ele>
        <time>2021-10-16T08:46:55Z</time>
      </trkpt>
      <trkpt lat="40.450613" lon="-4.767527">
        <ele>958.511</ele>
        <time>2021-10-16T08:46:57Z</time>
      </trkpt>
      <trkpt lat="40.450376" lon="-4.767565">
        <ele>955.866</ele>
        <time>2021-10-16T08:46:58Z</time>
      </trkpt>
      <trkpt lat="40.449902" lon="-4.767656">
        <ele>952.975</ele>
        <time>2021-10-16T08:47:00Z</time>
      </trkpt>
      <trkpt lat="40.449669" lon="-4.767704">
        <ele>953.017</ele>
        <time>2021-10-16T08:47:01Z</time>
      </trkpt>
      <trkpt lat="40.449204" lon="-4.767798">
        <ele>951.174</ele>
        <time>2021-10-16T08:47:03Z</time>
      </trkpt>
      <trkpt lat="40.448975" lon="-4.767843">
        <ele>950.121</ele>
        <time>2021-10-16T08:47:04Z</time>
      </trkpt>
      <trkpt lat="40.448754" lon="-4.767887">
        <ele>948.641</ele>
        <time>2021-10-16T08:47:05Z</time>
      </trkpt>
      <trkpt lat="40.448321" lon="-4.767973">
        <ele>944.905</ele>
        <time>2021-10-16T08:47:07Z</time>
      </trkpt>
      <trkpt lat="40.448104" lon="-4.768015">
        <ele>943.808</ele>
        <time>2021-10-16T08:47:08Z</time>
      </trkpt>
      <trkpt lat="40.447679" lon="-4.768096">
        <ele>940.080</ele>
        <time>2021-10-16T08:47:10Z</time>
      </trkpt>
      <trkpt lat="40.447469" lon="-4.768129">
        <ele>939.018</ele>
        <time>2021-10-16T08:47:11Z</time>
      </trkpt>
      <trkpt lat="40.447259" lon="-4.768148">
        <ele>937.887</ele>
        <time>2021-10-16T08:47:12Z</time>
      </trkpt>
      <trkpt lat="40.447045" lon="-4.768141">
        <ele>935.311</ele>
        <time>2021-10-16T08:47:13Z</time>
      </trkpt>
      <trkpt lat="40.446826" lon="-4.768106">
        <ele>933.546</ele>
        <time>2021-10-16T08:47:14Z</time>
      </trkpt>
      <trkpt lat="40.446389" lon="-4.767939">
        <ele>932.185</ele>
        <time>2021-10-16T08:47:16Z</time>
      </trkpt>
      <trkpt lat="40.445954" lon="-4.767671">
        <ele>930.737</ele>
        <time>2021-10-16T08:47:18Z</time>
      </trkpt>
      <trkpt lat="40.445551" lon="-4.767402">
        <ele>926.774</ele>
        <time>2021-10-16T08:47:20Z</time>
      </trkpt>
      <trkpt lat="40.445140" lon="-4.767198">
        <ele>923.722</ele>
        <time>2021-10-16T08:47:22Z</time>
      </trkpt>
      <trkpt lat="40.444678" lon="-4.767085">
        <ele>920.562</ele>
        <time>2021-10-16T08:47:24Z</time>
      </trkpt>
      <trkpt lat="40.444432" lon="-4.767043">
        <ele>917.908</ele>
        <time>2021-10-16T08:47:25Z</time>
      </trkpt>
      <trkpt lat="40.443927" lon="-4.766959">
        <ele>914.308</ele>
        <time>2021-10-16T08:47:27Z</time>
      </trkpt>
      <trkpt lat="40.443440" lon="-4.766872">
        <ele>911.860</ele>
        <time>2021-10-16T08:47:29Z</time>
      </trkpt>
      <trkpt lat="40.443191" lon="-4.766830">
        <ele>911.238</ele>
        <time>2021-10-16T08:47:30Z</time>
      </trkpt>
      <trkpt lat="40.442695" lon="-4.766750">
        <ele>910.087</ele>
        <time>2021-10-16T08:47:32Z</time>
      </trkpt>
      <trkpt lat="40.442195" lon="-4.766699">
        <ele>908.721</ele>
        <time>2021-10-16T08:47:34Z</time>
      </trkpt>
      <trkpt lat="40.441943" lon="-4.766686">
        <ele>906.626</ele>
        <time>2021-10-16T08:47:35Z</time>
      </trkpt>
      <trkpt lat="40.441441" lon="-4.766678">
        <ele>906.575</ele>
        <time>2021-10-16T08:47:37Z</time>
      </trkpt>
      <trkpt lat="40.441182" lon="-4.766675">
        <ele>906.577</ele>
        <time>2021-10-16T08:47:38Z</time>
      </trkpt>
      <trkpt lat="40.440670" lon="-4.766663">
        <ele>904.564</ele>
        <time>2021-10-16T08:47:40Z</time>
      </trkpt>
      <trkpt lat="40.440156" lon="-4.766678">
        <ele>904.276</ele>
        <time>2021-10-16T08:47:42Z</time>
      </trkpt>
      <trkpt lat="40.439662" lon="-4.766797">
        <ele>902.990</ele>
        <time>2021-10-16T08:47:44Z</time>
      </trkpt>
      <trkpt lat="40.439183" lon="-4.767044">
        <ele>902.519</ele>
        <time>2021-10-16T08:47:46Z</time>
      </trkpt>
      <trkpt lat="40.438715" lon="-4.767377">
        <ele>900.808</ele>
        <time>2021-10-16T08:47:48Z</time>
      </trkpt>
      <trkpt lat="40.438219" lon="-4.767636">
        <ele>899.695</ele>
        <time>2021-10-16T08:47:50Z</time>
      </trkpt>
      <trkpt lat="40.437683" lon="-4.767802">
        <ele>899.373</ele>
        <time>2021-10-16T08:47:52Z</time>
      </trkpt>
      <trkpt lat="40.437399" lon="-4.767886">
        <ele>899.692</ele>
        <time>2021-10-16T08:47:53Z</time>
      </trkpt>
      <trkpt lat="40.436833" lon="-4.768063">
        <ele>895.516</ele>
        <time>2021-10-16T08:47:55Z</time>
      </trkpt>
      <trkpt lat="40.436544" lon="-4.768155">
        <ele>896.391</ele>
        <time>2021-10-16T08:47:56Z</time>
      </trkpt>
      <trkpt lat="40.435967" lon="-4.768334">
        <ele>895.110</ele>
        <time>2021-10-16T08:47:58Z</time>
      </trkpt>
      <trkpt lat="40.435416" lon="-4.768502">
        <ele>893.282</ele>
        <time>2021-10-16T08:48:00Z</time>
      </trkpt>
      <trkpt lat="40.434909" lon="-4.768660">
        <ele>892.099</ele>
        <time>2021-10-16T08:48:02Z</time>
      </trkpt>
      <trkpt lat="40.434432" lon="-4.768810">
        <ele>893.252</ele>
        <time>2021-10-16T08:48:04Z</time>
      </trkpt>
      <trkpt lat="40.434198" lon="-4.768886">
        <ele>893.553</ele>
        <time>2021-10-16T08:48:05Z</time>
      </trkpt>
      <trkpt lat="40.433736" lon="-4.769053">
        <ele>894.608</ele>
        <time>2021-10-16T08:48:07Z</time>
      </trkpt>
      <trkpt lat="40.433508" lon="-4.769161">
        <ele>895.208</ele>
        <time>2021-10-16T08:48:08Z</time>
      </trkpt>
      <trkpt lat="40.433085" lon="-4.769424">
        <ele>895.673</ele>
        <time>2021-10-16T08:48:10Z</time>
      </trkpt>
      <trkpt lat="40.432887" lon="-4.769570">
        <ele>895.231</ele>
        <time>2021-10-16T08:48:11Z</time>
      </trkpt>
      <trkpt lat="40.432694" lon="-4.769738">
        <ele>894.160</ele>
        <time>2021-10-16T08:48:12Z</time>
      </trkpt>
      <trkpt lat="40.432330" lon="-4.770152">
        <ele>894.154</ele>
        <time>2021-10-16T08:48:14Z</time>
      </trkpt>
      <trkpt lat="40.432002" lon="-4.770635">
        <ele>892.299</ele>
        <time>2021-10-16T08:48:16Z</time>
      </trkpt>
      <trkpt lat="40.431687" lon="-4.771169">
        <ele>891.648</ele>
        <time>2021-10-16T08:48:18Z</time>
      </trkpt>
      <trkpt lat="40.431529" lon="-4.771446">
        <ele>889.360</ele>
        <time>2021-10-16T08:48:19Z</time>
      </trkpt>
      <trkpt lat="40.431368" lon="-4.771729">
        <ele>887.847</ele>
        <time>2021-10-16T08:48:20Z</time>
      </trkpt>
      <trkpt lat="40.431048" lon="-4.772297">
        <ele>886.099</ele>
        <time>2021-10-16T08:48:22Z</time>
      </trkpt>
      <trkpt lat="40.430883" lon="-4.772589">
        <ele>883.607</ele>
        <time>2021-10-16T08:48:23Z</time>
      </trkpt>
      <trkpt lat="40.430566" lon="-4.773150">
        <ele>879.427</ele>
        <time>2021-10-16T08:48:25Z</time>
      </trkpt>
      <trkpt lat="40.430276" lon="-4.773655">
        <ele>875.408</ele>
        <time>2021-10-16T08:48:27Z</time>
      </trkpt>
      <trkpt lat="40.430139" lon="-4.773887">
        <ele>873.047</ele>
        <time>2021-10-16T08:48:28Z</time>
      </trkpt>
      <trkpt lat="40.429999" lon="-4.774106">
        <ele>872.075</ele>
        <time>2021-10-16T08:48:29Z</time>
      </trkpt>
      <trkpt lat="40.429699" lon="-4.774495">
        <ele>869.764</ele>
        <time>2021-10-16T08:48:31Z</time>
      </trkpt>
      <trkpt lat="40.429518" lon="-4.774663">
        <ele>868.718</ele>
        <time>2021-10-16T08:48:32Z</time>
      </trkpt>
      <trkpt lat="40.429105" lon="-4.774935">
        <ele>866.383</ele>
        <time>2021-10-16T08:48:34Z</time>
      </trkpt>
      <trkpt lat="40.428873" lon="-4.775035">
        <ele>864.112</ele>
        <time>2021-10-16T08:48:35Z</time>
      </trkpt>
      <trkpt lat="40.428392" lon="-4.775128">
        <ele>860.124</ele>
        <time>2021-10-16T08:48:37Z</time>
      </trkpt>
      <trkpt lat="40.428144" lon="-4.775124">
        <ele>858.061</ele>
        <time>2021-10-16T08:48:38Z</time>
      </trkpt>
      <trkpt lat="40.427648" lon="-4.775031">
        <ele>855.379</ele>
        <time>2021-10-16T08:48:40Z</time>
      </trkpt>
      <trkpt lat="40.427144" lon="-4.774917">
        <ele>853.705</ele>
        <time>2021-10-16T08:48:42Z</time>
      </trkpt>
      <trkpt lat="40.426700" lon="-4.774826">
        <ele>851.125</ele>
        <time>2021-10-16T08:48:44Z</time>
      </trkpt>
      <trkpt lat="40.426316" lon="-4.774748">
        <ele>850.508</ele>
        <time>2021-10-16T08:48:46Z</time>
      </trkpt>
      <trkpt lat="40.425951" lon="-4.774674">
        <ele>853.045</ele>
        <time>2021-10-16T08:48:48Z</time>
      </trkpt>
      <trkpt lat="40.425570" lon="-4.774597">
        <ele>850.833</ele>
        <time>2021-10-16T08:48:50Z</time>
      </trkpt>
      <trkpt lat="40.425169" lon="-4.774517">
        <ele>852.342</ele>
        <time>2021-10-16T08:48:52Z</time>
      </trkpt>
      <trkpt lat="40.424958" lon="-4.774470">
        <ele>852.886</ele>
        <time>2021-10-16T08:48:53Z</time>
      </trkpt>
      <trkpt lat="40.424534" lon="-4.774383">
        <ele>853.261</ele>
        <time>2021-10-16T08:48:55Z</time>
      </trkpt>
      <trkpt lat="40.424104" lon="-4.774301">
        <ele>855.310</ele>
        <time>2021-10-16T08:48:57Z</time>
      </trkpt>
      <trkpt lat="40.423643" lon="-4.774260">
        <ele>857.772</ele>
        <time>2021-10-16T08:48:59Z</time>
      </trkpt>
      <trkpt lat="40.423396" lon="-4.774272">
        <ele>859.449</ele>
        <time>2021-10-16T08:49:00Z</time>
      </trkpt>
      <trkpt lat="40.423142" lon="-4.774311">
        <ele>861.521</ele>
        <time>2021-10-16T08:49:01Z</time>
      </trkpt>
      <trkpt lat="40.422622" lon="-4.774417">
        <ele>864.241</ele>
        <time>2021-10-16T08:49:03Z</time>
      </trkpt>
      <trkpt lat="40.422345" lon="-4.774482">
        <ele>865.105</ele>
        <time>2021-10-16T08:49:04Z</time>
      </trkpt>
      <trkpt lat="40.422070" lon="-4.774558">
        <ele>864.808</ele>
        <time>2021-10-16T08:49:05Z</time>
      </trkpt>
      <trkpt lat="40.421794" lon="-4.774648">
        <ele>865.720</ele>
        <time>2021-10-16T08:49:06Z</time>
      </trkpt>
      <trkpt lat="40.421521" lon="-4.774750">
        <ele>865.648</ele>
        <time>2021-10-16T08:49:07Z</time>
      </trkpt>
      <trkpt lat="40.421255" lon="-4.774856">
        <ele>865.797</ele>
        <time>2021-10-16T08:49:08Z</time>
      </trkpt>
      <trkpt lat="40.420759" lon="-4.775064">
        <ele>866.071</ele>
        <time>2021-10-16T08:49:10Z</time>
      </trkpt>
      <trkpt lat="40.420522" lon="-4.775168">
        <ele>865.756</ele>
        <time>2021-10-16T08:49:11Z</time>
      </trkpt>
      <trkpt lat="40.420283" lon="-4.775268">
        <ele>865.075</ele>
        <time>2021-10-16T08:49:12Z</time>
      </trkpt>
      <trkpt lat="40.419793" lon="-4.775472">
        <ele>862.277</ele>
        <time>2021-10-16T08:49:14Z</time>
      </trkpt>
      <trkpt lat="40.419313" lon="-4.775693">
        <ele>859.444</ele>
        <time>2021-10-16T08:49:16Z</time>
      </trkpt>
      <trkpt lat="40.419074" lon="-4.775831">
        <ele>857.412</ele>
        <time>2021-10-16T08:49:17Z</time>
      </trkpt>
      <trkpt lat="40.418632" lon="-4.776184">
        <ele>852.532</ele>
        <time>2021-10-16T08:49:19Z</time>
      </trkpt>
      <trkpt lat="40.418427" lon="-4.776411">
        <ele>850.705</ele>
        <time>2021-10-16T08:49:20Z</time>
      </trkpt>
      <trkpt lat="40.418073" lon="-4.776937">
        <ele>848.308</ele>
        <time>2021-10-16T08:49:22Z</time>
      </trkpt>
      <trkpt lat="40.417731" lon="-4.777496">
        <ele>845.379</ele>
        <time>2021-10-16T08:49:24Z</time>
      </trkpt>
      <trkpt lat="40.417397" lon="-4.778035">
        <ele>842.727</ele>
        <time>2021-10-16T08:49:26Z</time>
      </trkpt>
      <trkpt lat="40.417110" lon="-4.778481">
        <ele>839.056</ele>
        <time>2021-10-16T08:49:28Z</time>
      </trkpt>
      <trkpt lat="40.416971" lon="-4.778697">
        <ele>838.860</ele>
        <time>2021-10-16T08:49:29Z</time>
      </trkpt>
      <trkpt lat="40.416716" lon="-4.779095">
        <ele>836.925</ele>
        <time>2021-10-16T08:49:31Z</time>
      </trkpt>
      <trkpt lat="40.416595" lon="-4.779288">
        <ele>835.374</ele>
        <time>2021-10-16T08:49:32Z</time>
      </trkpt>
      <trkpt lat="40.416366" lon="-4.779628">
        <ele>833.616</ele>
        <time>2021-10-16T08:49:34Z</time>
      </trkpt>
      <trkpt lat="40.416106" lon="-4.779928">
        <ele>832.673</ele>
        <time>2021-10-16T08:49:36Z</time>
      </trkpt>
      <trkpt lat="40.415962" lon="-4.780051">
        <ele>832.533</ele>
        <time>2021-10-16T08:49:37Z</time>
      </trkpt>
      <trkpt lat="40.415814" lon="-4.780151">
        <ele>831.823</ele>
        <time>2021-10-16T08:49:38Z</time>
      </trkpt>
      <trkpt lat="40.415514" lon="-4.780281">
        <ele>831.115</ele>
        <time>2021-10-16T08:49:40Z</time>
      </trkpt>
      <trkpt lat="40.415373" lon="-4.780344">
        <ele>830.808</ele>
        <time>2021-10-16T08:49:41Z</time>
      </trkpt>
      <trkpt lat="40.415247" lon="-4.780424">
        <ele>830.721</ele>
        <time>2021-10-16T08:49:42Z</time>
      </trkpt>
      <trkpt lat="40.415071" lon="-4.780670">
        <ele>829.319</ele>
        <time>2021-10-16T08:49:44Z</time>
      </trkpt>
      <trkpt lat="40.414969" lon="-4.780963">
        <ele>827.758</ele>
        <time>2021-10-16T08:49:46Z</time>
      </trkpt>
      <trkpt lat="40.414936" lon="-4.781100">
        <ele>827.692</ele>
        <time>2021-10-16T08:49:47Z</time>
      </trkpt>
      <trkpt lat="40.414944" lon="-4.781336">
        <ele>825.197</ele>
        <time>2021-10-16T08:49:49Z</time>
      </trkpt>
      <trkpt lat="40.414989" lon="-4.781436">
        <ele>824.076</ele>
        <time>2021-10-16T08:49:50Z</time>
      </trkpt>
      <trkpt lat="40.415147" lon="-4.781565">
        <ele>823.938</ele>
        <time>2021-10-16T08:49:52Z</time>
      </trkpt>
      <trkpt lat="40.415258" lon="-4.781587">
        <ele>823.745</ele>
        <time>2021-10-16T08:49:53Z</time>
      </trkpt>
      <trkpt lat="40.415383" lon="-4.781584">
        <ele>822.811</ele>
        <time>2021-10-16T08:49:54Z</time>
      </trkpt>
      <trkpt lat="40.415639" lon="-4.781503">
        <ele>822.021</ele>
        <time>2021-10-16T08:49:56Z</time>
      </trkpt>
      <trkpt lat="40.415756" lon="-4.781444">
        <ele>821.203</ele>
        <time>2021-10-16T08:49:57Z</time>
      </trkpt>
      <trkpt lat="40.415861" lon="-4.781388">
        <ele>820.708</ele>
        <time>2021-10-16T08:49:58Z</time>
      </trkpt>
      <trkpt lat="40.415951" lon="-4.781358">
        <ele>820.559</ele>
        <time>2021-10-16T08:49:59Z</time>
      </trkpt>
      <trkpt lat="40.416091" lon="-4.781397">
        <ele>817.987</ele>
        <time>2021-10-16T08:50:01Z</time>
      </trkpt>
      <trkpt lat="40.416124" lon="-4.781472">
        <ele>818.616</ele>
        <time>2021-10-16T08:50:02Z</time>
      </trkpt>
      <trkpt lat="40.416123" lon="-4.781676">
        <ele>817.630</ele>
        <time>2021-10-16T08:50:04Z</time>
      </trkpt>
      <trkpt lat="40.416078" lon="-4.781815">
        <ele>817.675</ele>
        <time>2021-10-16T08:50:05Z</time>
      </trkpt>
      <trkpt lat="40.416022" lon="-4.781976">
        <ele>817.664</ele>
        <time>2021-10-16T08:50:06Z</time>
      </trkpt>
      <trkpt lat="40.415977" lon="-4.782365">
        <ele>817.336</ele>
        <time>2021-10-16T08:50:08Z</time>
      </trkpt>
      <trkpt lat="40.416023" lon="-4.782806">
        <ele>815.583</ele>
        <time>2021-10-16T08:50:10Z</time>
      </trkpt>
      <trkpt lat="40.416020" lon="-4.783251">
        <ele>812.137</ele>
        <time>2021-10-16T08:50:12Z</time>
      </trkpt>
      <trkpt lat="40.416047" lon="-4.783631">
        <ele>810.249</ele>
        <time>2021-10-16T08:50:14Z</time>
      </trkpt>
      <trkpt lat="40.416159" lon="-4.783924">
        <ele>806.913</ele>
        <time>2021-10-16T08:50:16Z</time>
      </trkpt>
      <trkpt lat="40.416254" lon="-4.784032">
        <ele>806.408</ele>
        <time>2021-10-16T08:50:17Z</time>
      </trkpt>
      <trkpt lat="40.416349" lon="-4.784142">
        <ele>806.161</ele>
        <time>2021-10-16T08:50:18Z</time>
      </trkpt>
      <trkpt lat="40.416507" lon="-4.784409">
        <ele>802.969</ele>
        <time>2021-10-16T08:50:20Z</time>
      </trkpt>
      <trkpt lat="40.416575" lon="-4.784713">
        <ele>802.828</ele>
        <time>2021-10-16T08:50:22Z</time>
      </trkpt>
      <trkpt lat="40.416523" lon="-4.784999">
        <ele>801.662</ele>
        <time>2021-10-16T08:50:24Z</time>
      </trkpt>
      <trkpt lat="40.416459" lon="-4.785120">
        <ele>799.187</ele>
        <time>2021-10-16T08:50:25Z</time>
      </trkpt>
      <trkpt lat="40.416295" lon="-4.785298">
        <ele>798.256</ele>
        <time>2021-10-16T08:50:27Z</time>
      </trkpt>
      <trkpt lat="40.416085" lon="-4.785373">
        <ele>796.568</ele>
        <time>2021-10-16T08:50:29Z</time>
      </trkpt>
      <trkpt lat="40.415968" lon="-4.785389">
        <ele>795.395</ele>
        <time>2021-10-16T08:50:30Z</time>
      </trkpt>
      <trkpt lat="40.415732" lon="-4.785435">
        <ele>795.096</ele>
        <time>2021-10-16T08:50:32Z</time>
      </trkpt>
      <trkpt lat="40.415616" lon="-4.785474">
        <ele>794.631</ele>
        <time>2021-10-16T08:50:33Z</time>
      </trkpt>
      <trkpt lat="40.415397" lon="-4.785591">
        <ele>793.524</ele>
        <time>2021-10-16T08:50:35Z</time>
      </trkpt>
      <trkpt lat="40.415186" lon="-4.785747">
        <ele>793.408</ele>
        <time>2021-10-16T08:50:37Z</time>
      </trkpt>
      <trkpt lat="40.415081" lon="-4.785829">
        <ele>793.187</ele>
        <time>2021-10-16T08:50:38Z</time>
      </trkpt>
      <trkpt lat="40.414886" lon="-4.785988">
        <ele>792.845</ele>
        <time>2021-10-16T08:50:40Z</time>
      </trkpt>
      <trkpt lat="40.414726" lon="-4.786185">
        <ele>792.164</ele>
        <time>2021-10-16T08:50:42Z</time>
      </trkpt>
      <trkpt lat="40.414658" lon="-4.786302">
        <ele>792.158</ele>
        <time>2021-10-16T08:50:43Z</time>
      </trkpt>
      <trkpt lat="40.414592" lon="-4.786423">
        <ele>791.423</ele>
        <time>2021-10-16T08:50:44Z</time>
      </trkpt>
      <trkpt lat="40.414453" lon="-4.786675">
        <ele>791.162</ele>
        <time>2021-10-16T08:50:46Z</time>
      </trkpt>
      <trkpt lat="40.414381" lon="-4.786806">
        <ele>792.884</ele>
        <time>2021-10-16T08:50:47Z</time>
      </trkpt>
      <trkpt lat="40.414236" lon="-4.787073">
        <ele>792.891</ele>
        <time>2021-10-16T08:50:49Z</time>
      </trkpt>
      <trkpt lat="40.414162" lon="-4.787205">
        <ele>791.046</ele>
        <time>2021-10-16T08:50:50Z</time>
      </trkpt>
      <trkpt lat="40.414013" lon="-4.787432">
        <ele>788.988</ele>
        <time>2021-10-16T08:50:52Z</time>
      </trkpt>
      <trkpt lat="40.413838" lon="-4.787585">
        <ele>788.916</ele>
        <time>2021-10-16T08:50:54Z</time>
      </trkpt>
      <trkpt lat="40.413624" lon="-4.787656">
        <ele>786.408</ele>
        <time>2021-10-16T08:50:56Z</time>
      </trkpt>
      <trkpt lat="40.413381" lon="-4.787673">
        <ele>786.652</ele>
        <time>2021-10-16T08:50:58Z</time>
      </trkpt>
      <trkpt lat="40.413126" lon="-4.787697">
        <ele>786.570</ele>
        <time>2021-10-16T08:51:00Z</time>
      </trkpt>
      <trkpt lat="40.413004" lon="-4.787713">
        <ele>786.229</ele>
        <time>2021-10-16T08:51:01Z</time>
      </trkpt>
      <trkpt lat="40.412776" lon="-4.787741">
        <ele>785.643</ele>
        <time>2021-10-16T08:51:03Z</time>
      </trkpt>
      <trkpt lat="40.412664" lon="-4.787754">
        <ele>786.588</ele>
        <time>2021-10-16T08:51:04Z</time>
      </trkpt>
      <trkpt lat="40.412438" lon="-4.787769">
        <ele>787.317</ele>
        <time>2021-10-16T08:51:06Z</time>
      </trkpt>
      <trkpt lat="40.412224" lon="-4.787689">
        <ele>790.339</ele>
        <time>2021-10-16T08:51:08Z</time>
      </trkpt>
      <trkpt lat="40.412037" lon="-4.787497">
        <ele>791.516</ele>
        <time>2021-10-16T08:51:10Z</time>
      </trkpt>
      <trkpt lat="40.411928" lon="-4.787419">
        <ele>791.759</ele>
        <time>2021-10-16T08:51:11Z</time>
      </trkpt>
      <trkpt lat="40.411809" lon="-4.787379">
        <ele>792.403</ele>
        <time>2021-10-16T08:51:12Z</time>
      </trkpt>
      <trkpt lat="40.411544" lon="-4.787399">
        <ele>794.123</ele>
        <time>2021-10-16T08:51:14Z</time>
      </trkpt>
      <trkpt lat="40.411299" lon="-4.787411">
        <ele>796.408</ele>
        <time>2021-10-16T08:51:16Z</time>
      </trkpt>
      <trkpt lat="40.411087" lon="-4.787291">
        <ele>797.733</ele>
        <time>2021-10-16T08:51:18Z</time>
      </trkpt>
      <trkpt lat="40.410998" lon="-4.787183">
        <ele>800.281</ele>
        <time>2021-10-16T08:51:19Z</time>
      </trkpt>
      <trkpt lat="40.410931" lon="-4.787050">
        <ele>800.340</ele>
        <time>2021-10-16T08:51:20Z</time>
      </trkpt>
      <trkpt lat="40.410906" lon="-4.786753">
        <ele>802.724</ele>
        <time>2021-10-16T08:51:22Z</time>
      </trkpt>
      <trkpt lat="40.411001" lon="-4.786467">
        <ele>804.889</ele>
        <time>2021-10-16T08:51:24Z</time>
      </trkpt>
      <trkpt lat="40.411067" lon="-4.786180">
        <ele>804.778</ele>
        <time>2021-10-16T08:51:26Z</time>
      </trkpt>
      <trkpt lat="40.411027" lon="-4.785878">
        <ele>806.240</ele>
        <time>2021-10-16T08:51:28Z</time>
      </trkpt>
      <trkpt lat="40.410902" lon="-4.785611">
        <ele>805.987</ele>
        <time>2021-10-16T08:51:30Z</time>
      </trkpt>
      <trkpt lat="40.410814" lon="-4.785517">
        <ele>805.117</ele>
        <time>2021-10-16T08:51:31Z</time>
      </trkpt>
      <trkpt lat="40.410713" lon="-4.785451">
        <ele>804.987</ele>
        <time>2021-10-16T08:51:32Z</time>
      </trkpt>
      <trkpt lat="40.410489" lon="-4.785391">
        <ele>805.115</ele>
        <time>2021-10-16T08:51:34Z</time>
      </trkpt>
      <trkpt lat="40.410361" lon="-4.785387">
        <ele>805.508</ele>
        <time>2021-10-16T08:51:35Z</time>
      </trkpt>
      <trkpt lat="40.410097" lon="-4.785375">
        <ele>808.049</ele>
        <time>2021-10-16T08:51:37Z</time>
      </trkpt>
      <trkpt lat="40.409966" lon="-4.785384">
        <ele>808.077</ele>
        <time>2021-10-16T08:51:38Z</time>
      </trkpt>
      <trkpt lat="40.409720" lon="-4.785494">
        <ele>807.426</ele>
        <time>2021-10-16T08:51:40Z</time>
      </trkpt>
      <trkpt lat="40.409460" lon="-4.785671">
        <ele>807.360</ele>
        <time>2021-10-16T08:51:42Z</time>
      </trkpt>
      <trkpt lat="40.409160" lon="-4.785860">
        <ele>806.925</ele>
        <time>2021-10-16T08:51:44Z</time>
      </trkpt>
      <trkpt lat="40.408830" lon="-4.786070">
        <ele>807.824</ele>
        <time>2021-10-16T08:51:46Z</time>
      </trkpt>
      <trkpt lat="40.408657" lon="-4.786175">
        <ele>806.286</ele>
        <time>2021-10-16T08:51:47Z</time>
      </trkpt>
      <trkpt lat="40.408312" lon="-4.786384">
        <ele>806.233</ele>
        <time>2021-10-16T08:51:49Z</time>
      </trkpt>
      <trkpt lat="40.408133" lon="-4.786492">
        <ele>806.658</ele>
        <time>2021-10-16T08:51:50Z</time>
      </trkpt>
      <trkpt lat="40.407770" lon="-4.786709">
        <ele>807.552</ele>
        <time>2021-10-16T08:51:52Z</time>
      </trkpt>
      <trkpt lat="40.407407" lon="-4.786923">
        <ele>810.717</ele>
        <time>2021-10-16T08:51:54Z</time>
      </trkpt>
      <trkpt lat="40.407054" lon="-4.787126">
        <ele>813.108</ele>
        <time>2021-10-16T08:51:56Z</time>
      </trkpt>
      <trkpt lat="40.406715" lon="-4.787327">
        <ele>815.533</ele>
        <time>2021-10-16T08:51:58Z</time>
      </trkpt>
      <trkpt lat="40.406383" lon="-4.787559">
        <ele>817.441</ele>
        <time>2021-10-16T08:52:00Z</time>
      </trkpt>
      <trkpt lat="40.406119" lon="-4.787903">
        <ele>818.720</ele>
        <time>2021-10-16T08:52:02Z</time>
      </trkpt>
      <trkpt lat="40.406032" lon="-4.788135">
        <ele>818.434</ele>
        <time>2021-10-16T08:52:03Z</time>
      </trkpt>
      <trkpt lat="40.405965" lon="-4.788390">
        <ele>819.389</ele>
        <time>2021-10-16T08:52:04Z</time>
      </trkpt>
      <trkpt lat="40.405828" lon="-4.788893">
        <ele>819.038</ele>
        <time>2021-10-16T08:52:06Z</time>
      </trkpt>
      <trkpt lat="40.405761" lon="-4.789128">
        <ele>818.930</ele>
        <time>2021-10-16T08:52:07Z</time>
      </trkpt>
      <trkpt lat="40.405697" lon="-4.789349">
        <ele>816.817</ele>
        <time>2021-10-16T08:52:08Z</time>
      </trkpt>
      <trkpt lat="40.405596" lon="-4.789756">
        <ele>815.086</ele>
        <time>2021-10-16T08:52:10Z</time>
      </trkpt>
      <trkpt lat="40.405539" lon="-4.790143">
        <ele>813.260</ele>
        <time>2021-10-16T08:52:12Z</time>
      </trkpt>
      <trkpt lat="40.405534" lon="-4.790341">
        <ele>812.126</ele>
        <time>2021-10-16T08:52:13Z</time>
      </trkpt>
      <trkpt lat="40.405545" lon="-4.790553">
        <ele>811.408</ele>
        <time>2021-10-16T08:52:14Z</time>
      </trkpt>
      <trkpt lat="40.405568" lon="-4.790782">
        <ele>810.056</ele>
        <time>2021-10-16T08:52:15Z</time>
      </trkpt>
      <trkpt lat="40.405641" lon="-4.791305">
        <ele>808.374</ele>
        <time>2021-10-16T08:52:17Z</time>
      </trkpt>
      <trkpt lat="40.405740" lon="-4.791873">
        <ele>806.743</ele>
        <time>2021-10-16T08:52:19Z</time>
      </trkpt>
      <trkpt lat="40.405786" lon="-4.792153">
        <ele>806.047</ele>
        <time>2021-10-16T08:52:20Z</time>
      </trkpt>
      <trkpt lat="40.405872" lon="-4.792735">
        <ele>806.012</ele>
        <time>2021-10-16T08:52:22Z</time>
      </trkpt>
      <trkpt lat="40.405939" lon="-4.793295">
        <ele>802.751</ele>
        <time>2021-10-16T08:52:24Z</time>
      </trkpt>
      <trkpt lat="40.405969" lon="-4.793556">
        <ele>802.653</ele>
        <time>2021-10-16T08:52:25Z</time>
      </trkpt>
      <trkpt lat="40.406003" lon="-4.793823">
        <ele>802.840</ele>
        <time>2021-10-16T08:52:26Z</time>
      </trkpt>
      <trkpt lat="40.406061" lon="-4.794272">
        <ele>801.934</ele>
        <time>2021-10-16T08:52:28Z</time>
      </trkpt>
      <trkpt lat="40.406091" lon="-4.794696">
        <ele>801.655</ele>
        <time>2021-10-16T08:52:30Z</time>
      </trkpt>
      <trkpt lat="40.406072" lon="-4.794910">
        <ele>802.110</ele>
        <time>2021-10-16T08:52:31Z</time>
      </trkpt>
      <trkpt lat="40.405944" lon="-4.795342">
        <ele>803.908</ele>
        <time>2021-10-16T08:52:33Z</time>
      </trkpt>
      <trkpt lat="40.405848" lon="-4.795572">
        <ele>804.541</ele>
        <time>2021-10-16T08:52:34Z</time>
      </trkpt>
      <trkpt lat="40.405648" lon="-4.796055">
        <ele>804.559</ele>
        <time>2021-10-16T08:52:36Z</time>
      </trkpt>
      <trkpt lat="40.405545" lon="-4.796309">
        <ele>804.738</ele>
        <time>2021-10-16T08:52:37Z</time>
      </trkpt>
      <trkpt lat="40.405440" lon="-4.796568">
        <ele>804.342</ele>
        <time>2021-10-16T08:52:38Z</time>
      </trkpt>
      <trkpt lat="40.405241" lon="-4.797096">
        <ele>804.687</ele>
        <time>2021-10-16T08:52:40Z</time>
      </trkpt>
      <trkpt lat="40.405056" lon="-4.797579">
        <ele>806.446</ele>
        <time>2021-10-16T08:52:42Z</time>
      </trkpt>
      <trkpt lat="40.404902" lon="-4.798011">
        <ele>807.458</ele>
        <time>2021-10-16T08:52:44Z</time>
      </trkpt>
      <trkpt lat="40.404787" lon="-4.798456">
        <ele>809.065</ele>
        <time>2021-10-16T08:52:46Z</time>
      </trkpt>
      <trkpt lat="40.404744" lon="-4.798698">
        <ele>809.212</ele>
        <time>2021-10-16T08:52:47Z</time>
      </trkpt>
      <trkpt lat="40.404664" lon="-4.799185">
        <ele>808.432</ele>
        <time>2021-10-16T08:52:49Z</time>
      </trkpt>
      <trkpt lat="40.404622" lon="-4.799432">
        <ele>809.205</ele>
        <time>2021-10-16T08:52:50Z</time>
      </trkpt>
      <trkpt lat="40.404535" lon="-4.799918">
        <ele>807.708</ele>
        <time>2021-10-16T08:52:52Z</time>
      </trkpt>
      <trkpt lat="40.404493" lon="-4.800169">
        <ele>807.649</ele>
        <time>2021-10-16T08:52:53Z</time>
      </trkpt>
      <trkpt lat="40.404402" lon="-4.800676">
        <ele>807.117</ele>
        <time>2021-10-16T08:52:55Z</time>
      </trkpt>
      <trkpt lat="40.404352" lon="-4.800943">
        <ele>806.476</ele>
        <time>2021-10-16T08:52:56Z</time>
      </trkpt>
      <trkpt lat="40.404267" lon="-4.801473">
        <ele>805.480</ele>
        <time>2021-10-16T08:52:58Z</time>
      </trkpt>
      <trkpt lat="40.404236" lon="-4.801750">
        <ele>805.245</ele>
        <time>2021-10-16T08:52:59Z</time>
      </trkpt>
      <trkpt lat="40.404189" lon="-4.802314">
        <ele>803.524</ele>
        <time>2021-10-16T08:53:01Z</time>
      </trkpt>
      <trkpt lat="40.404152" lon="-4.802874">
        <ele>803.496</ele>
        <time>2021-10-16T08:53:03Z</time>
      </trkpt>
      <trkpt lat="40.404117" lon="-4.803396">
        <ele>802.693</ele>
        <time>2021-10-16T08:53:05Z</time>
      </trkpt>
      <trkpt lat="40.404102" lon="-4.803631">
        <ele>802.363</ele>
        <time>2021-10-16T08:53:06Z</time>
      </trkpt>
      <trkpt lat="40.404089" lon="-4.803859">
        <ele>802.544</ele>
        <time>2021-10-16T08:53:07Z</time>
      </trkpt>
      <trkpt lat="40.404073" lon="-4.804083">
        <ele>803.418</ele>
        <time>2021-10-16T08:53:08Z</time>
      </trkpt>
      <trkpt lat="40.404058" lon="-4.804528">
        <ele>802.108</ele>
        <time>2021-10-16T08:53:10Z</time>
      </trkpt>
      <trkpt lat="40.404068" lon="-4.804751">
        <ele>802.544</ele>
        <time>2021-10-16T08:53:11Z</time>
      </trkpt>
      <trkpt lat="40.404123" lon="-4.805174">
        <ele>803.582</ele>
        <time>2021-10-16T08:53:13Z</time>
      </trkpt>
      <trkpt lat="40.404150" lon="-4.805388">
        <ele>803.551</ele>
        <time>2021-10-16T08:53:14Z</time>
      </trkpt>
      <trkpt lat="40.404139" lon="-4.805796">
        <ele>802.515</ele>
        <time>2021-10-16T08:53:16Z</time>
      </trkpt>
      <trkpt lat="40.404083" lon="-4.806001">
        <ele>802.540</ele>
        <time>2021-10-16T08:53:17Z</time>
      </trkpt>
      <trkpt lat="40.403997" lon="-4.806199">
        <ele>803.059</ele>
        <time>2021-10-16T08:53:18Z</time>
      </trkpt>
      <trkpt lat="40.403895" lon="-4.806395">
        <ele>802.721</ele>
        <time>2021-10-16T08:53:19Z</time>
      </trkpt>
      <trkpt lat="40.403793" lon="-4.806592">
        <ele>802.138</ele>
        <time>2021-10-16T08:53:20Z</time>
      </trkpt>
      <trkpt lat="40.403616" lon="-4.806948">
        <ele>801.211</ele>
        <time>2021-10-16T08:53:22Z</time>
      </trkpt>
      <trkpt lat="40.403437" lon="-4.807235">
        <ele>802.821</ele>
        <time>2021-10-16T08:53:24Z</time>
      </trkpt>
      <trkpt lat="40.403176" lon="-4.807411">
        <ele>801.803</ele>
        <time>2021-10-16T08:53:26Z</time>
      </trkpt>
      <trkpt lat="40.403020" lon="-4.807453">
        <ele>800.808</ele>
        <time>2021-10-16T08:53:27Z</time>
      </trkpt>
      <trkpt lat="40.402686" lon="-4.807480">
        <ele>800.959</ele>
        <time>2021-10-16T08:53:29Z</time>
      </trkpt>
      <trkpt lat="40.402530" lon="-4.807490">
        <ele>800.377</ele>
        <time>2021-10-16T08:53:30Z</time>
      </trkpt>
      <trkpt lat="40.402274" lon="-4.807582">
        <ele>801.676</ele>
        <time>2021-10-16T08:53:32Z</time>
      </trkpt>
      <trkpt lat="40.402164" lon="-4.807681">
        <ele>800.860</ele>
        <time>2021-10-16T08:53:33Z</time>
      </trkpt>
      <trkpt lat="40.402062" lon="-4.807815">
        <ele>800.825</ele>
        <time>2021-10-16T08:53:34Z</time>
      </trkpt>
      <trkpt lat="40.401866" lon="-4.808163">
        <ele>801.354</ele>
        <time>2021-10-16T08:53:36Z</time>
      </trkpt>
      <trkpt lat="40.401696" lon="-4.808604">
        <ele>802.996</ele>
        <time>2021-10-16T08:53:38Z</time>
      </trkpt>
      <trkpt lat="40.401605" lon="-4.809172">
        <ele>803.713</ele>
        <time>2021-10-16T08:53:40Z</time>
      </trkpt>
      <trkpt lat="40.401587" lon="-4.809804">
        <ele>803.361</ele>
        <time>2021-10-16T08:53:42Z</time>
      </trkpt>
      <trkpt lat="40.401565" lon="-4.810352">
        <ele>803.621</ele>
        <time>2021-10-16T08:53:44Z</time>
      </trkpt>
      <trkpt lat="40.401468" lon="-4.810840">
        <ele>804.613</ele>
        <time>2021-10-16T08:53:46Z</time>
      </trkpt>
      <trkpt lat="40.401282" lon="-4.811341">
        <ele>804.908</ele>
        <time>2021-10-16T08:53:48Z</time>
      </trkpt>
      <trkpt lat="40.401179" lon="-4.811585">
        <ele>806.434</ele>
        <time>2021-10-16T08:53:49Z</time>
      </trkpt>
      <trkpt lat="40.401077" lon="-4.811812">
        <ele>806.792</ele>
        <time>2021-10-16T08:53:50Z</time>
      </trkpt>
      <trkpt lat="40.400901" lon="-4.812212">
        <ele>804.531</ele>
        <time>2021-10-16T08:53:52Z</time>
      </trkpt>
      <trkpt lat="40.400807" lon="-4.812624">
        <ele>804.465</ele>
        <time>2021-10-16T08:53:54Z</time>
      </trkpt>
      <trkpt lat="40.400783" lon="-4.813119">
        <ele>804.740</ele>
        <time>2021-10-16T08:53:56Z</time>
      </trkpt>
      <trkpt lat="40.400773" lon="-4.813394">
        <ele>806.129</ele>
        <time>2021-10-16T08:53:57Z</time>
      </trkpt>
      <trkpt lat="40.400745" lon="-4.813937">
        <ele>803.691</ele>
        <time>2021-10-16T08:53:59Z</time>
      </trkpt>
      <trkpt lat="40.400731" lon="-4.814196">
        <ele>802.428</ele>
        <time>2021-10-16T08:54:00Z</time>
      </trkpt>
      <trkpt lat="40.400698" lon="-4.814713">
        <ele>802.277</ele>
        <time>2021-10-16T08:54:02Z</time>
      </trkpt>
      <trkpt lat="40.400678" lon="-4.814963">
        <ele>801.961</ele>
        <time>2021-10-16T08:54:03Z</time>
      </trkpt>
      <trkpt lat="40.400627" lon="-4.815404">
        <ele>802.027</ele>
        <time>2021-10-16T08:54:05Z</time>
      </trkpt>
      <trkpt lat="40.400558" lon="-4.815598">
        <ele>802.908</ele>
        <time>2021-10-16T08:54:06Z</time>
      </trkpt>
      <trkpt lat="40.400448" lon="-4.815772">
        <ele>802.945</ele>
        <time>2021-10-16T08:54:07Z</time>
      </trkpt>
      <trkpt lat="40.400308" lon="-4.815927">
        <ele>802.443</ele>
        <time>2021-10-16T08:54:08Z</time>
      </trkpt>
      <trkpt lat="40.400000" lon="-4.816211">
        <ele>801.912</ele>
        <time>2021-10-16T08:54:10Z</time>
      </trkpt>
      <trkpt lat="40.399850" lon="-4.816357">
        <ele>802.986</ele>
        <time>2021-10-16T08:54:11Z</time>
      </trkpt>
      <trkpt lat="40.399574" lon="-4.816619">
        <ele>802.891</ele>
        <time>2021-10-16T08:54:13Z</time>
      </trkpt>
      <trkpt lat="40.399447" lon="-4.816753">
        <ele>802.440</ele>
        <time>2021-10-16T08:54:14Z</time>
      </trkpt>
      <trkpt lat="40.399239" lon="-4.817076">
        <ele>803.222</ele>
        <time>2021-10-16T08:54:16Z</time>
      </trkpt>
      <trkpt lat="40.399161" lon="-4.817266">
        <ele>803.539</ele>
        <time>2021-10-16T08:54:17Z</time>
      </trkpt>
      <trkpt lat="40.399100" lon="-4.817468">
        <ele>803.921</ele>
        <time>2021-10-16T08:54:18Z</time>
      </trkpt>
      <trkpt lat="40.398987" lon="-4.817894">
        <ele>804.941</ele>
        <time>2021-10-16T08:54:20Z</time>
      </trkpt>
      <trkpt lat="40.398907" lon="-4.818350">
        <ele>805.005</ele>
        <time>2021-10-16T08:54:22Z</time>
      </trkpt>
      <trkpt lat="40.398873" lon="-4.818847">
        <ele>804.408</ele>
        <time>2021-10-16T08:54:24Z</time>
      </trkpt>
      <trkpt lat="40.398858" lon="-4.819102">
        <ele>805.190</ele>
        <time>2021-10-16T08:54:25Z</time>
      </trkpt>
      <trkpt lat="40.398813" lon="-4.819610">
        <ele>802.648</ele>
        <time>2021-10-16T08:54:27Z</time>
      </trkpt>
      <trkpt lat="40.398707" lon="-4.820056">
        <ele>802.887</ele>
        <time>2021-10-16T08:54:29Z</time>
      </trkpt>
      <trkpt lat="40.398610" lon="-4.820262">
        <ele>801.861</ele>
        <time>2021-10-16T08:54:30Z</time>
      </trkpt>
      <trkpt lat="40.398484" lon="-4.820451">
        <ele>801.256</ele>
        <time>2021-10-16T08:54:31Z</time>
      </trkpt>
      <trkpt lat="40.398337" lon="-4.820629">
        <ele>801.585</ele>
        <time>2021-10-16T08:54:32Z</time>
      </trkpt>
      <trkpt lat="40.398050" lon="-4.821004">
        <ele>803.067</ele>
        <time>2021-10-16T08:54:34Z</time>
      </trkpt>
      <trkpt lat="40.397785" lon="-4.821357">
        <ele>804.624</ele>
        <time>2021-10-16T08:54:36Z</time>
      </trkpt>
      <trkpt lat="40.397666" lon="-4.821528">
        <ele>804.984</ele>
        <time>2021-10-16T08:54:37Z</time>
      </trkpt>
      <trkpt lat="40.397556" lon="-4.821712">
        <ele>805.807</ele>
        <time>2021-10-16T08:54:38Z</time>
      </trkpt>
      <trkpt lat="40.397386" lon="-4.822140">
        <ele>805.117</ele>
        <time>2021-10-16T08:54:40Z</time>
      </trkpt>
      <trkpt lat="40.397214" lon="-4.822664">
        <ele>804.108</ele>
        <time>2021-10-16T08:54:42Z</time>
      </trkpt>
      <trkpt lat="40.397038" lon="-4.823202">
        <ele>802.456</ele>
        <time>2021-10-16T08:54:44Z</time>
      </trkpt>
      <trkpt lat="40.396893" lon="-4.823652">
        <ele>801.824</ele>
        <time>2021-10-16T08:54:46Z</time>
      </trkpt>
      <trkpt lat="40.396828" lon="-4.823843">
        <ele>802.173</ele>
        <time>2021-10-16T08:54:47Z</time>
      </trkpt>
      <trkpt lat="40.396765" lon="-4.824021">
        <ele>801.687</ele>
        <time>2021-10-16T08:54:48Z</time>
      </trkpt>
      <trkpt lat="40.396651" lon="-4.824374">
        <ele>803.252</ele>
        <time>2021-10-16T08:54:50Z</time>
      </trkpt>
      <trkpt lat="40.396585" lon="-4.824767">
        <ele>803.271</ele>
        <time>2021-10-16T08:54:52Z</time>
      </trkpt>
      <trkpt lat="40.396578" lon="-4.824990">
        <ele>802.953</ele>
        <time>2021-10-16T08:54:53Z</time>
      </trkpt>
      <trkpt lat="40.396600" lon="-4.825486">
        <ele>803.650</ele>
        <time>2021-10-16T08:54:55Z</time>
      </trkpt>
      <trkpt lat="40.396628" lon="-4.825782">
        <ele>803.387</ele>
        <time>2021-10-16T08:54:56Z</time>
      </trkpt>
      <trkpt lat="40.396703" lon="-4.826399">
        <ele>804.242</ele>
        <time>2021-10-16T08:54:58Z</time>
      </trkpt>
      <trkpt lat="40.396783" lon="-4.827045">
        <ele>805.426</ele>
        <time>2021-10-16T08:55:00Z</time>
      </trkpt>
      <trkpt lat="40.396841" lon="-4.827676">
        <ele>805.808</ele>
        <time>2021-10-16T08:55:02Z</time>
      </trkpt>
      <trkpt lat="40.396869" lon="-4.827998">
        <ele>805.486</ele>
        <time>2021-10-16T08:55:03Z</time>
      </trkpt>
      <trkpt lat="40.396926" lon="-4.828640">
        <ele>806.264</ele>
        <time>2021-10-16T08:55:05Z</time>
      </trkpt>
      <trkpt lat="40.396954" lon="-4.828961">
        <ele>805.543</ele>
        <time>2021-10-16T08:55:06Z</time>
      </trkpt>
      <trkpt lat="40.396994" lon="-4.829602">
        <ele>806.197</ele>
        <time>2021-10-16T08:55:08Z</time>
      </trkpt>
      <trkpt lat="40.396979" lon="-4.830238">
        <ele>804.792</ele>
        <time>2021-10-16T08:55:10Z</time>
      </trkpt>
      <trkpt lat="40.396953" lon="-4.830880">
        <ele>804.731</ele>
        <time>2021-10-16T08:55:12Z</time>
      </trkpt>
      <trkpt lat="40.396937" lon="-4.831194">
        <ele>804.293</ele>
        <time>2021-10-16T08:55:13Z</time>
      </trkpt>
      <trkpt lat="40.396922" lon="-4.831495">
        <ele>804.620</ele>
        <time>2021-10-16T08:55:14Z</time>
      </trkpt>
      <trkpt lat="40.396893" lon="-4.832052">
        <ele>803.954</ele>
        <time>2021-10-16T08:55:16Z</time>
      </trkpt>
      <trkpt lat="40.396845" lon="-4.832582">
        <ele>804.556</ele>
        <time>2021-10-16T08:55:18Z</time>
      </trkpt>
      <trkpt lat="40.396800" lon="-4.832839">
        <ele>804.511</ele>
        <time>2021-10-16T08:55:19Z</time>
      </trkpt>
      <trkpt lat="40.396735" lon="-4.833099">
        <ele>804.508</ele>
        <time>2021-10-16T08:55:20Z</time>
      </trkpt>
      <trkpt lat="40.396556" lon="-4.833609">
        <ele>804.283</ele>
        <time>2021-10-16T08:55:22Z</time>
      </trkpt>
      <trkpt lat="40.396458" lon="-4.833864">
        <ele>804.741</ele>
        <time>2021-10-16T08:55:23Z</time>
      </trkpt>
      <trkpt lat="40.396276" lon="-4.834345">
        <ele>804.580</ele>
        <time>2021-10-16T08:55:25Z</time>
      </trkpt>
      <trkpt lat="40.396196" lon="-4.834558">
        <ele>804.174</ele>
        <time>2021-10-16T08:55:26Z</time>
      </trkpt>
      <trkpt lat="40.396050" lon="-4.834954">
        <ele>804.389</ele>
        <time>2021-10-16T08:55:28Z</time>
      </trkpt>
      <trkpt lat="40.395866" lon="-4.835326">
        <ele>803.978</ele>
        <time>2021-10-16T08:55:30Z</time>
      </trkpt>
      <trkpt lat="40.395597" lon="-4.835645">
        <ele>802.190</ele>
        <time>2021-10-16T08:55:32Z</time>
      </trkpt>
      <trkpt lat="40.395431" lon="-4.835791">
        <ele>801.857</ele>
        <time>2021-10-16T08:55:33Z</time>
      </trkpt>
      <trkpt lat="40.395255" lon="-4.835939">
        <ele>802.281</ele>
        <time>2021-10-16T08:55:34Z</time>
      </trkpt>
      <trkpt lat="40.395072" lon="-4.836092">
        <ele>802.361</ele>
        <time>2021-10-16T08:55:35Z</time>
      </trkpt>
      <trkpt lat="40.394702" lon="-4.836426">
        <ele>802.517</ele>
        <time>2021-10-16T08:55:37Z</time>
      </trkpt>
      <trkpt lat="40.394522" lon="-4.836613">
        <ele>801.808</ele>
        <time>2021-10-16T08:55:38Z</time>
      </trkpt>
      <trkpt lat="40.394186" lon="-4.836975">
        <ele>800.836</ele>
        <time>2021-10-16T08:55:40Z</time>
      </trkpt>
      <trkpt lat="40.394018" lon="-4.837128">
        <ele>800.814</ele>
        <time>2021-10-16T08:55:41Z</time>
      </trkpt>
      <trkpt lat="40.393709" lon="-4.837383">
        <ele>801.223</ele>
        <time>2021-10-16T08:55:43Z</time>
      </trkpt>
      <trkpt lat="40.393570" lon="-4.837498">
        <ele>801.477</ele>
        <time>2021-10-16T08:55:44Z</time>
      </trkpt>
      <trkpt lat="40.393347" lon="-4.837671">
        <ele>802.922</ele>
        <time>2021-10-16T08:55:46Z</time>
      </trkpt>
      <trkpt lat="40.393143" lon="-4.837781">
        <ele>802.971</ele>
        <time>2021-10-16T08:55:48Z</time>
      </trkpt>
      <trkpt lat="40.393045" lon="-4.837805">
        <ele>804.013</ele>
        <time>2021-10-16T08:55:49Z</time>
      </trkpt>
      <trkpt lat="40.392952" lon="-4.837811">
        <ele>804.090</ele>
        <time>2021-10-16T08:55:50Z</time>
      </trkpt>
      <trkpt lat="40.392783" lon="-4.837767">
        <ele>803.476</ele>
        <time>2021-10-16T08:55:52Z</time>
      </trkpt>
      <trkpt lat="40.392680" lon="-4.837610">
        <ele>804.790</ele>
        <time>2021-10-16T08:55:54Z</time>
      </trkpt>
      <trkpt lat="40.392667" lon="-4.837487">
        <ele>804.719</ele>
        <time>2021-10-16T08:55:55Z</time>
      </trkpt>
      <trkpt lat="40.392672" lon="-4.837335">
        <ele>804.308</ele>
        <time>2021-10-16T08:55:56Z</time>
      </trkpt>
      <trkpt lat="40.392677" lon="-4.837005">
        <ele>803.035</ele>
        <time>2021-10-16T08:55:58Z</time>
      </trkpt>
      <trkpt lat="40.392569" lon="-4.836817">
        <ele>805.163</ele>
        <time>2021-10-16T08:56:00Z</time>
      </trkpt>
      <trkpt lat="40.392354" lon="-4.836802">
        <ele>807.242</ele>
        <time>2021-10-16T08:56:02Z</time>
      </trkpt>
      <trkpt lat="40.392030" lon="-4.836863">
        <ele>807.226</ele>
        <time>2021-10-16T08:56:04Z</time>
      </trkpt>
      <trkpt lat="40.391839" lon="-4.836867">
        <ele>808.371</ele>
        <time>2021-10-16T08:56:05Z</time>
      </trkpt>
      <trkpt lat="40.391453" lon="-4.836788">
        <ele>809.350</ele>
        <time>2021-10-16T08:56:07Z</time>
      </trkpt>
      <trkpt lat="40.391287" lon="-4.836756">
        <ele>810.762</ele>
        <time>2021-10-16T08:56:08Z</time>
      </trkpt>
      <trkpt lat="40.391033" lon="-4.836799">
        <ele>814.539</ele>
        <time>2021-10-16T08:56:10Z</time>
      </trkpt>
      <trkpt lat="40.390935" lon="-4.836891">
        <ele>814.989</ele>
        <time>2021-10-16T08:56:11Z</time>
      </trkpt>
      <trkpt lat="40.390774" lon="-4.837238">
        <ele>816.306</ele>
        <time>2021-10-16T08:56:13Z</time>
      </trkpt>
      <trkpt lat="40.390675" lon="-4.837441">
        <ele>816.526</ele>
        <time>2021-10-16T08:56:14Z</time>
      </trkpt>
      <trkpt lat="40.390483" lon="-4.837847">
        <ele>819.608</ele>
        <time>2021-10-16T08:56:16Z</time>
      </trkpt>
      <trkpt lat="40.390414" lon="-4.838066">
        <ele>819.196</ele>
        <time>2021-10-16T08:56:17Z</time>
      </trkpt>
      <trkpt lat="40.390369" lon="-4.838309">
        <ele>819.764</ele>
        <time>2021-10-16T08:56:18Z</time>
      </trkpt>
      <trkpt lat="40.390347" lon="-4.838562">
        <ele>819.853</ele>
        <time>2021-10-16T08:56:19Z</time>
      </trkpt>
      <trkpt lat="40.390340" lon="-4.838797">
        <ele>819.397</ele>
        <time>2021-10-16T08:56:20Z</time>
      </trkpt>
      <trkpt lat="40.390253" lon="-4.839184">
        <ele>818.842</ele>
        <time>2021-10-16T08:56:22Z</time>
      </trkpt>
      <trkpt lat="40.390144" lon="-4.839354">
        <ele>819.281</ele>
        <time>2021-10-16T08:56:23Z</time>
      </trkpt>
      <trkpt lat="40.390006" lon="-4.839523">
        <ele>820.963</ele>
        <time>2021-10-16T08:56:24Z</time>
      </trkpt>
      <trkpt lat="40.389737" lon="-4.839839">
        <ele>822.590</ele>
        <time>2021-10-16T08:56:26Z</time>
      </trkpt>
      <trkpt lat="40.389621" lon="-4.839965">
        <ele>823.024</ele>
        <time>2021-10-16T08:56:27Z</time>
      </trkpt>
      <trkpt lat="40.389397" lon="-4.840101">
        <ele>825.104</ele>
        <time>2021-10-16T08:56:29Z</time>
      </trkpt>
      <trkpt lat="40.389143" lon="-4.840057">
        <ele>827.214</ele>
        <time>2021-10-16T08:56:31Z</time>
      </trkpt>
      <trkpt lat="40.388884" lon="-4.839839">
        <ele>830.008</ele>
        <time>2021-10-16T08:56:33Z</time>
      </trkpt>
      <trkpt lat="40.388752" lon="-4.839693">
        <ele>831.220</ele>
        <time>2021-10-16T08:56:34Z</time>
      </trkpt>
      <trkpt lat="40.388502" lon="-4.839513">
        <ele>833.838</ele>
        <time>2021-10-16T08:56:36Z</time>
      </trkpt>
      <trkpt lat="40.388375" lon="-4.839495">
        <ele>834.247</ele>
        <time>2021-10-16T08:56:37Z</time>
      </trkpt>
      <trkpt lat="40.388253" lon="-4.839530">
        <ele>834.431</ele>
        <time>2021-10-16T08:56:38Z</time>
      </trkpt>
      <trkpt lat="40.388008" lon="-4.839776">
        <ele>834.776</ele>
        <time>2021-10-16T08:56:40Z</time>
      </trkpt>
      <trkpt lat="40.387743" lon="-4.840175">
        <ele>838.095</ele>
        <time>2021-10-16T08:56:42Z</time>
      </trkpt>
      <trkpt lat="40.387452" lon="-4.840594">
        <ele>837.857</ele>
        <time>2021-10-16T08:56:44Z</time>
      </trkpt>
      <trkpt lat="40.387148" lon="-4.840969">
        <ele>839.994</ele>
        <time>2021-10-16T08:56:46Z</time>
      </trkpt>
      <trkpt lat="40.386970" lon="-4.841125">
        <ele>841.074</ele>
        <time>2021-10-16T08:56:47Z</time>
      </trkpt>
      <trkpt lat="40.386777" lon="-4.841266">
        <ele>843.956</ele>
        <time>2021-10-16T08:56:48Z</time>
      </trkpt>
      <trkpt lat="40.386371" lon="-4.841555">
        <ele>848.421</ele>
        <time>2021-10-16T08:56:50Z</time>
      </trkpt>
      <trkpt lat="40.385967" lon="-4.841869">
        <ele>852.808</ele>
        <time>2021-10-16T08:56:52Z</time>
      </trkpt>
      <trkpt lat="40.385765" lon="-4.842037">
        <ele>855.085</ele>
        <time>2021-10-16T08:56:53Z</time>
      </trkpt>
      <trkpt lat="40.385393" lon="-4.842390">
        <ele>859.933</ele>
        <time>2021-10-16T08:56:55Z</time>
      </trkpt>
      <trkpt lat="40.385224" lon="-4.842551">
        <ele>861.462</ele>
        <time>2021-10-16T08:56:56Z</time>
      </trkpt>
      <trkpt lat="40.384906" lon="-4.842820">
        <ele>865.596</ele>
        <time>2021-10-16T08:56:58Z</time>
      </trkpt>
      <trkpt lat="40.384571" lon="-4.842995">
        <ele>868.961</ele>
        <time>2021-10-16T08:57:00Z</time>
      </trkpt>
      <trkpt lat="40.384237" lon="-4.843060">
        <ele>873.530</ele>
        <time>2021-10-16T08:57:02Z</time>
      </trkpt>
      <trkpt lat="40.383879" lon="-4.842979">
        <ele>877.742</ele>
        <time>2021-10-16T08:57:04Z</time>
      </trkpt>
      <trkpt lat="40.383487" lon="-4.842949">
        <ele>880.039</ele>
        <time>2021-10-16T08:57:06Z</time>
      </trkpt>
      <trkpt lat="40.383082" lon="-4.843005">
        <ele>882.865</ele>
        <time>2021-10-16T08:57:08Z</time>
      </trkpt>
      <trkpt lat="40.382699" lon="-4.843031">
        <ele>886.868</ele>
        <time>2021-10-16T08:57:10Z</time>
      </trkpt>
      <trkpt lat="40.382533" lon="-4.843041">
        <ele>889.014</ele>
        <time>2021-10-16T08:57:11Z</time>
      </trkpt>
      <trkpt lat="40.382252" lon="-4.843051">
        <ele>889.308</ele>
        <time>2021-10-16T08:57:13Z</time>
      </trkpt>
      <trkpt lat="40.382122" lon="-4.843030">
        <ele>891.824</ele>
        <time>2021-10-16T08:57:14Z</time>
      </trkpt>
      <trkpt lat="40.381883" lon="-4.842892">
        <ele>893.612</ele>
        <time>2021-10-16T08:57:16Z</time>
      </trkpt>
      <trkpt lat="40.381673" lon="-4.842601">
        <ele>897.721</ele>
        <time>2021-10-16T08:57:18Z</time>
      </trkpt>
      <trkpt lat="40.381571" lon="-4.842447">
        <ele>899.575</ele>
        <time>2021-10-16T08:57:19Z</time>
      </trkpt>
      <trkpt lat="40.381479" lon="-4.842314">
        <ele>901.280</ele>
        <time>2021-10-16T08:57:20Z</time>
      </trkpt>
      <trkpt lat="40.381299" lon="-4.842144">
        <ele>901.519</ele>
        <time>2021-10-16T08:57:22Z</time>
      </trkpt>
      <trkpt lat="40.381097" lon="-4.842126">
        <ele>904.021</ele>
        <time>2021-10-16T08:57:24Z</time>
      </trkpt>
      <trkpt lat="40.381001" lon="-4.842188">
        <ele>905.068</ele>
        <time>2021-10-16T08:57:25Z</time>
      </trkpt>
      <trkpt lat="40.380915" lon="-4.842312">
        <ele>906.635</ele>
        <time>2021-10-16T08:57:26Z</time>
      </trkpt>
      <trkpt lat="40.380802" lon="-4.842695">
        <ele>908.086</ele>
        <time>2021-10-16T08:57:28Z</time>
      </trkpt>
      <trkpt lat="40.380773" lon="-4.842941">
        <ele>908.014</ele>
        <time>2021-10-16T08:57:29Z</time>
      </trkpt>
      <trkpt lat="40.380759" lon="-4.843212">
        <ele>909.408</ele>
        <time>2021-10-16T08:57:30Z</time>
      </trkpt>
      <trkpt lat="40.380764" lon="-4.843504">
        <ele>910.651</ele>
        <time>2021-10-16T08:57:31Z</time>
      </trkpt>
      <trkpt lat="40.380780" lon="-4.843823">
        <ele>911.289</ele>
        <time>2021-10-16T08:57:32Z</time>
      </trkpt>
      <trkpt lat="40.380808" lon="-4.844548">
        <ele>912.948</ele>
        <time>2021-10-16T08:57:34Z</time>
      </trkpt>
      <trkpt lat="40.380814" lon="-4.844930">
        <ele>914.232</ele>
        <time>2021-10-16T08:57:35Z</time>
      </trkpt>
      <trkpt lat="40.380823" lon="-4.845286">
        <ele>915.697</ele>
        <time>2021-10-16T08:57:36Z</time>
      </trkpt>
      <trkpt lat="40.380832" lon="-4.845609">
        <ele>916.656</ele>
        <time>2021-10-16T08:57:37Z</time>
      </trkpt>
      <trkpt lat="40.380830" lon="-4.845903">
        <ele>918.568</ele>
        <time>2021-10-16T08:57:38Z</time>
      </trkpt>
      <trkpt lat="40.380771" lon="-4.846456">
        <ele>919.485</ele>
        <time>2021-10-16T08:57:40Z</time>
      </trkpt>
      <trkpt lat="40.380728" lon="-4.846732">
        <ele>919.713</ele>
        <time>2021-10-16T08:57:41Z</time>
      </trkpt>
      <trkpt lat="40.380690" lon="-4.847005">
        <ele>922.043</ele>
        <time>2021-10-16T08:57:42Z</time>
      </trkpt>
      <trkpt lat="40.380669" lon="-4.847531">
        <ele>925.807</ele>
        <time>2021-10-16T08:57:44Z</time>
      </trkpt>
      <trkpt lat="40.380733" lon="-4.847985">
        <ele>927.908</ele>
        <time>2021-10-16T08:57:46Z</time>
      </trkpt>
      <trkpt lat="40.380809" lon="-4.848165">
        <ele>929.929</ele>
        <time>2021-10-16T08:57:47Z</time>
      </trkpt>
      <trkpt lat="40.380963" lon="-4.848436">
        <ele>933.157</ele>
        <time>2021-10-16T08:57:49Z</time>
      </trkpt>
      <trkpt lat="40.380990" lon="-4.848568">
        <ele>933.876</ele>
        <time>2021-10-16T08:57:50Z</time>
      </trkpt>
      <trkpt lat="40.380941" lon="-4.848835">
        <ele>938.490</ele>
        <time>2021-10-16T08:57:52Z</time>
      </trkpt>
      <trkpt lat="40.380754" lon="-4.849125">
        <ele>938.755</ele>
        <time>2021-10-16T08:57:54Z</time>
      </trkpt>
      <trkpt lat="40.380593" lon="-4.849404">
        <ele>942.894</ele>
        <time>2021-10-16T08:57:56Z</time>
      </trkpt>
      <trkpt lat="40.380564" lon="-4.849549">
        <ele>942.966</ele>
        <time>2021-10-16T08:57:57Z</time>
      </trkpt>
      <trkpt lat="40.380599" lon="-4.849816">
        <ele>943.613</ele>
        <time>2021-10-16T08:57:59Z</time>
      </trkpt>
      <trkpt lat="40.380659" lon="-4.849918">
        <ele>944.324</ele>
        <time>2021-10-16T08:58:00Z</time>
      </trkpt>
      <trkpt lat="40.380839" lon="-4.850038">
        <ele>945.704</ele>
        <time>2021-10-16T08:58:02Z</time>
      </trkpt>
      <trkpt lat="40.380973" lon="-4.850044">
        <ele>946.614</ele>
        <time>2021-10-16T08:58:03Z</time>
      </trkpt>
      <trkpt lat="40.381296" lon="-4.850056">
        <ele>949.208</ele>
        <time>2021-10-16T08:58:05Z</time>
      </trkpt>
      <trkpt lat="40.381606" lon="-4.850180">
        <ele>951.580</ele>
        <time>2021-10-16T08:58:07Z</time>
      </trkpt>
      <trkpt lat="40.381762" lon="-4.850290">
        <ele>951.238</ele>
        <time>2021-10-16T08:58:08Z</time>
      </trkpt>
      <trkpt lat="40.382071" lon="-4.850603">
        <ele>953.317</ele>
        <time>2021-10-16T08:58:10Z</time>
      </trkpt>
      <trkpt lat="40.382235" lon="-4.850776">
        <ele>955.031</ele>
        <time>2021-10-16T08:58:11Z</time>
      </trkpt>
      <trkpt lat="40.382532" lon="-4.851094">
        <ele>957.346</ele>
        <time>2021-10-16T08:58:13Z</time>
      </trkpt>
      <trkpt lat="40.382665" lon="-4.851273">
        <ele>957.265</ele>
        <time>2021-10-16T08:58:14Z</time>
      </trkpt>
      <trkpt lat="40.382897" lon="-4.851672">
        <ele>960.947</ele>
        <time>2021-10-16T08:58:16Z</time>
      </trkpt>
      <trkpt lat="40.383144" lon="-4.852000">
        <ele>963.654</ele>
        <time>2021-10-16T08:58:18Z</time>
      </trkpt>
      <trkpt lat="40.383354" lon="-4.852285">
        <ele>966.212</ele>
        <time>2021-10-16T08:58:20Z</time>
      </trkpt>
      <trkpt lat="40.383476" lon="-4.852661">
        <ele>966.732</ele>
        <time>2021-10-16T08:58:22Z</time>
      </trkpt>
      <trkpt lat="40.383524" lon="-4.852883">
        <ele>968.705</ele>
        <time>2021-10-16T08:58:23Z</time>
      </trkpt>
      <trkpt lat="40.383687" lon="-4.853328">
        <ele>970.408</ele>
        <time>2021-10-16T08:58:25Z</time>
      </trkpt>
      <trkpt lat="40.383816" lon="-4.853533">
        <ele>971.779</ele>
        <time>2021-10-16T08:58:26Z</time>
      </trkpt>
      <trkpt lat="40.384096" lon="-4.853864">
        <ele>974.367</ele>
        <time>2021-10-16T08:58:28Z</time>
      </trkpt>
      <trkpt lat="40.384295" lon="-4.854138">
        <ele>975.756</ele>
        <time>2021-10-16T08:58:30Z</time>
      </trkpt>
      <trkpt lat="40.384366" lon="-4.854429">
        <ele>978.930</ele>
        <time>2021-10-16T08:58:32Z</time>
      </trkpt>
      <trkpt lat="40.384279" lon="-4.854789">
        <ele>981.225</ele>
        <time>2021-10-16T08:58:34Z</time>
      </trkpt>
      <trkpt lat="40.384136" lon="-4.855222">
        <ele>983.144</ele>
        <time>2021-10-16T08:58:36Z</time>
      </trkpt>
      <trkpt lat="40.383998" lon="-4.855662">
        <ele>986.226</ele>
        <time>2021-10-16T08:58:38Z</time>
      </trkpt>
      <trkpt lat="40.383793" lon="-4.856087">
        <ele>987.583</ele>
        <time>2021-10-16T08:58:40Z</time>
      </trkpt>
      <trkpt lat="40.383479" lon="-4.856552">
        <ele>988.396</ele>
        <time>2021-10-16T08:58:42Z</time>
      </trkpt>
      <trkpt lat="40.383315" lon="-4.856798">
        <ele>988.831</ele>
        <time>2021-10-16T08:58:43Z</time>
      </trkpt>
      <trkpt lat="40.383148" lon="-4.857054">
        <ele>989.624</ele>
        <time>2021-10-16T08:58:44Z</time>
      </trkpt>
      <trkpt lat="40.382854" lon="-4.857516">
        <ele>990.908</ele>
        <time>2021-10-16T08:58:46Z</time>
      </trkpt>
      <trkpt lat="40.382711" lon="-4.857741">
        <ele>991.067</ele>
        <time>2021-10-16T08:58:47Z</time>
      </trkpt>
      <trkpt lat="40.382570" lon="-4.857973">
        <ele>990.935</ele>
        <time>2021-10-16T08:58:48Z</time>
      </trkpt>
      <trkpt lat="40.382432" lon="-4.858211">
        <ele>992.534</ele>
        <time>2021-10-16T08:58:49Z</time>
      </trkpt>
      <trkpt lat="40.382300" lon="-4.858455">
        <ele>993.518</ele>
        <time>2021-10-16T08:58:50Z</time>
      </trkpt>
      <trkpt lat="40.382051" lon="-4.858948">
        <ele>993.323</ele>
        <time>2021-10-16T08:58:52Z</time>
      </trkpt>
      <trkpt lat="40.381937" lon="-4.859190">
        <ele>994.552</ele>
        <time>2021-10-16T08:58:53Z</time>
      </trkpt>
      <trkpt lat="40.381774" lon="-4.859631">
        <ele>996.584</ele>
        <time>2021-10-16T08:58:55Z</time>
      </trkpt>
      <trkpt lat="40.381738" lon="-4.859864">
        <ele>997.321</ele>
        <time>2021-10-16T08:58:56Z</time>
      </trkpt>
      <trkpt lat="40.381727" lon="-4.860324">
        <ele>1000.257</ele>
        <time>2021-10-16T08:58:58Z</time>
      </trkpt>
      <trkpt lat="40.381721" lon="-4.860802">
        <ele>1002.900</ele>
        <time>2021-10-16T08:59:00Z</time>
      </trkpt>
      <trkpt lat="40.381699" lon="-4.861217">
        <ele>1004.020</ele>
        <time>2021-10-16T08:59:02Z</time>
      </trkpt>
      <trkpt lat="40.381623" lon="-4.861558">
        <ele>1002.708</ele>
        <time>2021-10-16T08:59:04Z</time>
      </trkpt>
      <trkpt lat="40.381537" lon="-4.861726">
        <ele>1004.063</ele>
        <time>2021-10-16T08:59:05Z</time>
      </trkpt>
      <trkpt lat="40.381412" lon="-4.861899">
        <ele>1004.261</ele>
        <time>2021-10-16T08:59:06Z</time>
      </trkpt>
      <trkpt lat="40.381130" lon="-4.862250">
        <ele>1004.430</ele>
        <time>2021-10-16T08:59:08Z</time>
      </trkpt>
      <trkpt lat="40.380894" lon="-4.862554">
        <ele>1007.134</ele>
        <time>2021-10-16T08:59:10Z</time>
      </trkpt>
      <trkpt lat="40.380646" lon="-4.862772">
        <ele>1010.049</ele>
        <time>2021-10-16T08:59:12Z</time>
      </trkpt>
      <trkpt lat="40.380310" lon="-4.862864">
        <ele>1012.628</ele>
        <time>2021-10-16T08:59:14Z</time>
      </trkpt>
      <trkpt lat="40.379966" lon="-4.862910">
        <ele>1014.360</ele>
        <time>2021-10-16T08:59:16Z</time>
      </trkpt>
      <trkpt lat="40.379808" lon="-4.862977">
        <ele>1015.397</ele>
        <time>2021-10-16T08:59:17Z</time>
      </trkpt>
      <trkpt lat="40.379527" lon="-4.863244">
        <ele>1016.732</ele>
        <time>2021-10-16T08:59:19Z</time>
      </trkpt>
      <trkpt lat="40.379398" lon="-4.863429">
        <ele>1018.192</ele>
        <time>2021-10-16T08:59:20Z</time>
      </trkpt>
      <trkpt lat="40.379128" lon="-4.863806">
        <ele>1018.111</ele>
        <time>2021-10-16T08:59:22Z</time>
      </trkpt>
      <trkpt lat="40.378898" lon="-4.864147">
        <ele>1019.408</ele>
        <time>2021-10-16T08:59:24Z</time>
      </trkpt>
      <trkpt lat="40.378778" lon="-4.864484">
        <ele>1021.611</ele>
        <time>2021-10-16T08:59:26Z</time>
      </trkpt>
      <trkpt lat="40.378804" lon="-4.864840">
        <ele>1021.929</ele>
        <time>2021-10-16T08:59:28Z</time>
      </trkpt>
      <trkpt lat="40.378851" lon="-4.865042">
        <ele>1023.918</ele>
        <time>2021-10-16T08:59:29Z</time>
      </trkpt>
      <trkpt lat="40.378885" lon="-4.865460">
        <ele>1024.032</ele>
        <time>2021-10-16T08:59:31Z</time>
      </trkpt>
      <trkpt lat="40.378807" lon="-4.865856">
        <ele>1025.627</ele>
        <time>2021-10-16T08:59:33Z</time>
      </trkpt>
      <trkpt lat="40.378728" lon="-4.866067">
        <ele>1026.386</ele>
        <time>2021-10-16T08:59:34Z</time>
      </trkpt>
      <trkpt lat="40.378550" lon="-4.866522">
        <ele>1028.298</ele>
        <time>2021-10-16T08:59:36Z</time>
      </trkpt>
      <trkpt lat="40.378467" lon="-4.866728">
        <ele>1028.925</ele>
        <time>2021-10-16T08:59:37Z</time>
      </trkpt>
      <trkpt lat="40.378393" lon="-4.866905">
        <ele>1030.367</ele>
        <time>2021-10-16T08:59:38Z</time>
      </trkpt>
      <trkpt lat="40.378242" lon="-4.867153">
        <ele>1032.281</ele>
        <time>2021-10-16T08:59:40Z</time>
      </trkpt>
      <trkpt lat="40.378136" lon="-4.867241">
        <ele>1032.519</ele>
        <time>2021-10-16T08:59:41Z</time>
      </trkpt>
      <trkpt lat="40.377837" lon="-4.867299">
        <ele>1035.208</ele>
        <time>2021-10-16T08:59:43Z</time>
      </trkpt>
      <trkpt lat="40.377664" lon="-4.867291">
        <ele>1037.544</ele>
        <time>2021-10-16T08:59:44Z</time>
      </trkpt>
      <trkpt lat="40.377353" lon="-4.867302">
        <ele>1038.412</ele>
        <time>2021-10-16T08:59:46Z</time>
      </trkpt>
      <trkpt lat="40.377082" lon="-4.867440">
        <ele>1040.741</ele>
        <time>2021-10-16T08:59:48Z</time>
      </trkpt>
      <trkpt lat="40.376803" lon="-4.867624">
        <ele>1042.725</ele>
        <time>2021-10-16T08:59:50Z</time>
      </trkpt>
      <trkpt lat="40.376486" lon="-4.867758">
        <ele>1043.620</ele>
        <time>2021-10-16T08:59:52Z</time>
      </trkpt>
      <trkpt lat="40.376331" lon="-4.867800">
        <ele>1044.959</ele>
        <time>2021-10-16T08:59:53Z</time>
      </trkpt>
      <trkpt lat="40.376014" lon="-4.867787">
        <ele>1046.961</ele>
        <time>2021-10-16T08:59:55Z</time>
      </trkpt>
      <trkpt lat="40.375847" lon="-4.867752">
        <ele>1048.318</ele>
        <time>2021-10-16T08:59:56Z</time>
      </trkpt>
      <trkpt lat="40.375543" lon="-4.867745">
        <ele>1051.829</ele>
        <time>2021-10-16T08:59:58Z</time>
      </trkpt>
      <trkpt lat="40.375266" lon="-4.867911">
        <ele>1053.800</ele>
        <time>2021-10-16T09:00:00Z</time>
      </trkpt>
      <trkpt lat="40.374957" lon="-4.868176">
        <ele>1055.820</ele>
        <time>2021-10-16T09:00:02Z</time>
      </trkpt>
      <trkpt lat="40.374778" lon="-4.868276">
        <ele>1056.608</ele>
        <time>2021-10-16T09:00:03Z</time>
      </trkpt>
      <trkpt lat="40.374443" lon="-4.868459">
        <ele>1059.060</ele>
        <time>2021-10-16T09:00:05Z</time>
      </trkpt>
      <trkpt lat="40.374192" lon="-4.868774">
        <ele>1061.248</ele>
        <time>2021-10-16T09:00:07Z</time>
      </trkpt>
      <trkpt lat="40.374090" lon="-4.868993">
        <ele>1061.787</ele>
        <time>2021-10-16T09:00:08Z</time>
      </trkpt>
      <trkpt lat="40.373863" lon="-4.869455">
        <ele>1064.681</ele>
        <time>2021-10-16T09:00:10Z</time>
      </trkpt>
      <trkpt lat="40.373611" lon="-4.869892">
        <ele>1068.986</ele>
        <time>2021-10-16T09:00:12Z</time>
      </trkpt>
      <trkpt lat="40.373439" lon="-4.870328">
        <ele>1069.285</ele>
        <time>2021-10-16T09:00:14Z</time>
      </trkpt>
      <trkpt lat="40.373375" lon="-4.870801">
        <ele>1072.317</ele>
        <time>2021-10-16T09:00:16Z</time>
      </trkpt>
      <trkpt lat="40.373373" lon="-4.871055">
        <ele>1073.964</ele>
        <time>2021-10-16T09:00:17Z</time>
      </trkpt>
      <trkpt lat="40.373339" lon="-4.871565">
        <ele>1075.697</ele>
        <time>2021-10-16T09:00:19Z</time>
      </trkpt>
      <trkpt lat="40.373297" lon="-4.871805">
        <ele>1076.023</ele>
        <time>2021-10-16T09:00:20Z</time>
      </trkpt>
      <trkpt lat="40.373164" lon="-4.872213">
        <ele>1079.125</ele>
        <time>2021-10-16T09:00:22Z</time>
      </trkpt>
      <trkpt lat="40.373061" lon="-4.872390">
        <ele>1079.908</ele>
        <time>2021-10-16T09:00:23Z</time>
      </trkpt>
      <trkpt lat="40.372820" lon="-4.872690">
        <ele>1081.887</ele>
        <time>2021-10-16T09:00:25Z</time>
      </trkpt>
      <trkpt lat="40.372715" lon="-4.872805">
        <ele>1083.215</ele>
        <time>2021-10-16T09:00:26Z</time>
      </trkpt>
      <trkpt lat="40.372487" lon="-4.872949">
        <ele>1085.424</ele>
        <time>2021-10-16T09:00:28Z</time>
      </trkpt>
      <trkpt lat="40.372347" lon="-4.872974">
        <ele>1086.448</ele>
        <time>2021-10-16T09:00:29Z</time>
      </trkpt>
      <trkpt lat="40.372186" lon="-4.872958">
        <ele>1087.063</ele>
        <time>2021-10-16T09:00:30Z</time>
      </trkpt>
      <trkpt lat="40.371849" lon="-4.872845">
        <ele>1088.242</ele>
        <time>2021-10-16T09:00:32Z</time>
      </trkpt>
      <trkpt lat="40.371691" lon="-4.872749">
        <ele>1089.594</ele>
        <time>2021-10-16T09:00:33Z</time>
      </trkpt>
      <trkpt lat="40.371554" lon="-4.872610">
        <ele>1091.361</ele>
        <time>2021-10-16T09:00:34Z</time>
      </trkpt>
      <trkpt lat="40.371371" lon="-4.872262">
        <ele>1094.021</ele>
        <time>2021-10-16T09:00:36Z</time>
      </trkpt>
      <trkpt lat="40.371272" lon="-4.871940">
        <ele>1094.341</ele>
        <time>2021-10-16T09:00:38Z</time>
      </trkpt>
      <trkpt lat="40.371166" lon="-4.871715">
        <ele>1096.205</ele>
        <time>2021-10-16T09:00:40Z</time>
      </trkpt>
      <trkpt lat="40.371046" lon="-4.871644">
        <ele>1096.808</ele>
        <time>2021-10-16T09:00:42Z</time>
      </trkpt>
      <trkpt lat="40.370991" lon="-4.871675">
        <ele>1097.730</ele>
        <time>2021-10-16T09:00:43Z</time>
      </trkpt>
      <trkpt lat="40.370937" lon="-4.871759">
        <ele>1098.578</ele>
        <time>2021-10-16T09:00:44Z</time>
      </trkpt>
      <trkpt lat="40.370895" lon="-4.872067">
        <ele>1100.617</ele>
        <time>2021-10-16T09:00:46Z</time>
      </trkpt>
      <trkpt lat="40.370979" lon="-4.872459">
        <ele>1104.051</ele>
        <time>2021-10-16T09:00:48Z</time>
      </trkpt>
      <trkpt lat="40.371060" lon="-4.872694">
        <ele>1103.846</ele>
        <time>2021-10-16T09:00:49Z</time>
      </trkpt>
      <trkpt lat="40.371161" lon="-4.872960">
        <ele>1104.075</ele>
        <time>2021-10-16T09:00:50Z</time>
      </trkpt>
      <trkpt lat="40.371376" lon="-4.873578">
        <ele>1107.527</ele>
        <time>2021-10-16T09:00:52Z</time>
      </trkpt>
      <trkpt lat="40.371472" lon="-4.873922">
        <ele>1108.434</ele>
        <time>2021-10-16T09:00:53Z</time>
      </trkpt>
      <trkpt lat="40.371629" lon="-4.874594">
        <ele>1108.844</ele>
        <time>2021-10-16T09:00:55Z</time>
      </trkpt>
      <trkpt lat="40.371762" lon="-4.875178">
        <ele>1108.905</ele>
        <time>2021-10-16T09:00:57Z</time>
      </trkpt>
      <trkpt lat="40.371817" lon="-4.875421">
        <ele>1110.815</ele>
        <time>2021-10-16T09:00:58Z</time>
      </trkpt>
      <trkpt lat="40.371920" lon="-4.875783">
        <ele>1112.208</ele>
        <time>2021-10-16T09:01:00Z</time>
      </trkpt>
      <trkpt lat="40.372100" lon="-4.875984">
        <ele>1114.032</ele>
        <time>2021-10-16T09:01:02Z</time>
      </trkpt>
      <trkpt lat="40.372214" lon="-4.876024">
        <ele>1114.230</ele>
        <time>2021-10-16T09:01:03Z</time>
      </trkpt>
      <trkpt lat="40.372494" lon="-4.876022">
        <ele>1114.739</ele>
        <time>2021-10-16T09:01:05Z</time>
      </trkpt>
      <trkpt lat="40.372812" lon="-4.876102">
        <ele>1118.823</ele>
        <time>2021-10-16T09:01:07Z</time>
      </trkpt>
      <trkpt lat="40.372973" lon="-4.876194">
        <ele>1119.548</ele>
        <time>2021-10-16T09:01:08Z</time>
      </trkpt>
      <trkpt lat="40.373246" lon="-4.876445">
        <ele>1121.927</ele>
        <time>2021-10-16T09:01:10Z</time>
      </trkpt>
      <trkpt lat="40.373372" lon="-4.876620">
        <ele>1123.099</ele>
        <time>2021-10-16T09:01:11Z</time>
      </trkpt>
      <trkpt lat="40.373598" lon="-4.877096">
        <ele>1122.016</ele>
        <time>2021-10-16T09:01:13Z</time>
      </trkpt>
      <trkpt lat="40.373721" lon="-4.877364">
        <ele>1123.867</ele>
        <time>2021-10-16T09:01:14Z</time>
      </trkpt>
      <trkpt lat="40.373961" lon="-4.877870">
        <ele>1126.281</ele>
        <time>2021-10-16T09:01:16Z</time>
      </trkpt>
      <trkpt lat="40.374073" lon="-4.878095">
        <ele>1127.919</ele>
        <time>2021-10-16T09:01:17Z</time>
      </trkpt>
      <trkpt lat="40.374267" lon="-4.878519">
        <ele>1130.808</ele>
        <time>2021-10-16T09:01:19Z</time>
      </trkpt>
      <trkpt lat="40.374333" lon="-4.878748">
        <ele>1130.884</ele>
        <time>2021-10-16T09:01:20Z</time>
      </trkpt>
      <trkpt lat="40.374357" lon="-4.879271">
        <ele>1132.872</ele>
        <time>2021-10-16T09:01:22Z</time>
      </trkpt>
      <trkpt lat="40.374348" lon="-4.879544">
        <ele>1134.471</ele>
        <time>2021-10-16T09:01:23Z</time>
      </trkpt>
      <trkpt lat="40.374276" lon="-4.880102">
        <ele>1134.855</ele>
        <time>2021-10-16T09:01:25Z</time>
      </trkpt>
      <trkpt lat="40.374198" lon="-4.880399">
        <ele>1135.530</ele>
        <time>2021-10-16T09:01:26Z</time>
      </trkpt>
      <trkpt lat="40.374021" lon="-4.881015">
        <ele>1136.679</ele>
        <time>2021-10-16T09:01:28Z</time>
      </trkpt>
      <trkpt lat="40.373861" lon="-4.881632">
        <ele>1137.361</ele>
        <time>2021-10-16T09:01:30Z</time>
      </trkpt>
      <trkpt lat="40.373785" lon="-4.881932">
        <ele>1139.618</ele>
        <time>2021-10-16T09:01:31Z</time>
      </trkpt>
      <trkpt lat="40.373659" lon="-4.882440">
        <ele>1142.266</ele>
        <time>2021-10-16T09:01:33Z</time>
      </trkpt>
      <trkpt lat="40.373561" lon="-4.882821">
        <ele>1144.429</ele>
        <time>2021-10-16T09:01:35Z</time>
      </trkpt>
      <trkpt lat="40.373474" lon="-4.883117">
        <ele>1146.121</ele>
        <time>2021-10-16T09:01:37Z</time>
      </trkpt>
      <trkpt lat="40.373406" lon="-4.883256">
        <ele>1148.108</ele>
        <time>2021-10-16T09:01:38Z</time>
      </trkpt>
      <trkpt lat="40.373180" lon="-4.883460">
        <ele>1148.194</ele>
        <time>2021-10-16T09:01:40Z</time>
      </trkpt>
      <trkpt lat="40.373026" lon="-4.883515">
        <ele>1149.392</ele>
        <time>2021-10-16T09:01:41Z</time>
      </trkpt>
      <trkpt lat="40.372651" lon="-4.883505">
        <ele>1150.311</ele>
        <time>2021-10-16T09:01:43Z</time>
      </trkpt>
      <trkpt lat="40.372440" lon="-4.883475">
        <ele>1149.955</ele>
        <time>2021-10-16T09:01:44Z</time>
      </trkpt>
      <trkpt lat="40.372013" lon="-4.883398">
        <ele>1150.190</ele>
        <time>2021-10-16T09:01:46Z</time>
      </trkpt>
      <trkpt lat="40.371787" lon="-4.883353">
        <ele>1149.239</ele>
        <time>2021-10-16T09:01:47Z</time>
      </trkpt>
      <trkpt lat="40.371350" lon="-4.883265">
        <ele>1146.381</ele>
        <time>2021-10-16T09:01:49Z</time>
      </trkpt>
      <trkpt lat="40.371146" lon="-4.883223">
        <ele>1146.088</ele>
        <time>2021-10-16T09:01:50Z</time>
      </trkpt>
      <trkpt lat="40.370774" lon="-4.883177">
        <ele>1143.983</ele>
        <time>2021-10-16T09:01:52Z</time>
      </trkpt>
      <trkpt lat="40.370413" lon="-4.883228">
        <ele>1141.225</ele>
        <time>2021-10-16T09:01:54Z</time>
      </trkpt>
      <trkpt lat="40.370236" lon="-4.883320">
        <ele>1140.517</ele>
        <time>2021-10-16T09:01:55Z</time>
      </trkpt>
      <trkpt lat="40.370062" lon="-4.883456">
        <ele>1139.908</ele>
        <time>2021-10-16T09:01:56Z</time>
      </trkpt>
      <trkpt lat="40.369715" lon="-4.883734">
        <ele>1137.336</ele>
        <time>2021-10-16T09:01:58Z</time>
      </trkpt>
      <trkpt lat="40.369542" lon="-4.883862">
        <ele>1136.954</ele>
        <time>2021-10-16T09:01:59Z</time>
      </trkpt>
      <trkpt lat="40.369377" lon="-4.883982">
        <ele>1135.933</ele>
        <time>2021-10-16T09:02:00Z</time>
      </trkpt>
      <trkpt lat="40.369056" lon="-4.884218">
        <ele>1132.577</ele>
        <time>2021-10-16T09:02:02Z</time>
      </trkpt>
      <trkpt lat="40.368784" lon="-4.884504">
        <ele>1131.352</ele>
        <time>2021-10-16T09:02:04Z</time>
      </trkpt>
      <trkpt lat="40.368667" lon="-4.884680">
        <ele>1130.711</ele>
        <time>2021-10-16T09:02:05Z</time>
      </trkpt>
      <trkpt lat="40.368567" lon="-4.884861">
        <ele>1130.813</ele>
        <time>2021-10-16T09:02:06Z</time>
      </trkpt>
      <trkpt lat="40.368385" lon="-4.885236">
        <ele>1130.650</ele>
        <time>2021-10-16T09:02:08Z</time>
      </trkpt>
      <trkpt lat="40.368224" lon="-4.885648">
        <ele>1129.323</ele>
        <time>2021-10-16T09:02:10Z</time>
      </trkpt>
      <trkpt lat="40.368148" lon="-4.885869">
        <ele>1129.183</ele>
        <time>2021-10-16T09:02:11Z</time>
      </trkpt>
      <trkpt lat="40.368070" lon="-4.886101">
        <ele>1127.711</ele>
        <time>2021-10-16T09:02:12Z</time>
      </trkpt>
      <trkpt lat="40.367911" lon="-4.886570">
        <ele>1125.708</ele>
        <time>2021-10-16T09:02:14Z</time>
      </trkpt>
      <trkpt lat="40.367769" lon="-4.886988">
        <ele>1124.970</ele>
        <time>2021-10-16T09:02:16Z</time>
      </trkpt>
      <trkpt lat="40.367702" lon="-4.887182">
        <ele>1126.058</ele>
        <time>2021-10-16T09:02:17Z</time>
      </trkpt>
      <trkpt lat="40.367560" lon="-4.887557">
        <ele>1124.097</ele>
        <time>2021-10-16T09:02:19Z</time>
      </trkpt>
      <trkpt lat="40.367478" lon="-4.887740">
        <ele>1123.351</ele>
        <time>2021-10-16T09:02:20Z</time>
      </trkpt>
      <trkpt lat="40.367256" lon="-4.888053">
        <ele>1122.246</ele>
        <time>2021-10-16T09:02:22Z</time>
      </trkpt>
      <trkpt lat="40.366954" lon="-4.888286">
        <ele>1119.815</ele>
        <time>2021-10-16T09:02:24Z</time>
      </trkpt>
      <trkpt lat="40.366787" lon="-4.888378">
        <ele>1118.557</ele>
        <time>2021-10-16T09:02:25Z</time>
      </trkpt>
      <trkpt lat="40.366618" lon="-4.888471">
        <ele>1116.914</ele>
        <time>2021-10-16T09:02:26Z</time>
      </trkpt>
      <trkpt lat="40.366325" lon="-4.888660">
        <ele>1115.467</ele>
        <time>2021-10-16T09:02:28Z</time>
      </trkpt>
      <trkpt lat="40.366046" lon="-4.888859">
        <ele>1114.481</ele>
        <time>2021-10-16T09:02:30Z</time>
      </trkpt>
      <trkpt lat="40.365785" lon="-4.889074">
        <ele>1111.819</ele>
        <time>2021-10-16T09:02:32Z</time>
      </trkpt>
      <trkpt lat="40.365661" lon="-4.889188">
        <ele>1112.508</ele>
        <time>2021-10-16T09:02:33Z</time>
      </trkpt>
      <trkpt lat="40.365439" lon="-4.889454">
        <ele>1111.344</ele>
        <time>2021-10-16T09:02:35Z</time>
      </trkpt>
      <trkpt lat="40.365353" lon="-4.889626">
        <ele>1111.982</ele>
        <time>2021-10-16T09:02:36Z</time>
      </trkpt>
      <trkpt lat="40.365286" lon="-4.889818">
        <ele>1112.161</ele>
        <time>2021-10-16T09:02:37Z</time>
      </trkpt>
      <trkpt lat="40.365229" lon="-4.890011">
        <ele>1111.515</ele>
        <time>2021-10-16T09:02:38Z</time>
      </trkpt>
      <trkpt lat="40.365118" lon="-4.890362">
        <ele>1109.230</ele>
        <time>2021-10-16T09:02:40Z</time>
      </trkpt>
      <trkpt lat="40.364960" lon="-4.890668">
        <ele>1109.949</ele>
        <time>2021-10-16T09:02:42Z</time>
      </trkpt>
      <trkpt lat="40.364852" lon="-4.890795">
        <ele>1109.261</ele>
        <time>2021-10-16T09:02:43Z</time>
      </trkpt>
      <trkpt lat="40.364723" lon="-4.890906">
        <ele>1107.118</ele>
        <time>2021-10-16T09:02:44Z</time>
      </trkpt>
      <trkpt lat="40.364440" lon="-4.891086">
        <ele>1107.196</ele>
        <time>2021-10-16T09:02:46Z</time>
      </trkpt>
      <trkpt lat="40.364296" lon="-4.891177">
        <ele>1105.231</ele>
        <time>2021-10-16T09:02:47Z</time>
      </trkpt>
      <trkpt lat="40.364158" lon="-4.891268">
        <ele>1103.424</ele>
        <time>2021-10-16T09:02:48Z</time>
      </trkpt>
      <trkpt lat="40.363907" lon="-4.891472">
        <ele>1101.108</ele>
        <time>2021-10-16T09:02:50Z</time>
      </trkpt>
      <trkpt lat="40.363779" lon="-4.891746">
        <ele>1099.767</ele>
        <time>2021-10-16T09:02:52Z</time>
      </trkpt>
      <trkpt lat="40.363747" lon="-4.891902">
        <ele>1099.435</ele>
        <time>2021-10-16T09:02:53Z</time>
      </trkpt>
      <trkpt lat="40.363664" lon="-4.892201">
        <ele>1097.034</ele>
        <time>2021-10-16T09:02:55Z</time>
      </trkpt>
      <trkpt lat="40.363597" lon="-4.892339">
        <ele>1097.058</ele>
        <time>2021-10-16T09:02:56Z</time>
      </trkpt>
      <trkpt lat="40.363394" lon="-4.892560">
        <ele>1095.013</ele>
        <time>2021-10-16T09:02:58Z</time>
      </trkpt>
      <trkpt lat="40.363262" lon="-4.892660">
        <ele>1094.172</ele>
        <time>2021-10-16T09:02:59Z</time>
      </trkpt>
      <trkpt lat="40.362978" lon="-4.892860">
        <ele>1090.754</ele>
        <time>2021-10-16T09:03:01Z</time>
      </trkpt>
      <trkpt lat="40.362839" lon="-4.892962">
        <ele>1089.191</ele>
        <time>2021-10-16T09:03:02Z</time>
      </trkpt>
      <trkpt lat="40.362574" lon="-4.893170">
        <ele>1086.177</ele>
        <time>2021-10-16T09:03:04Z</time>
      </trkpt>
      <trkpt lat="40.362343" lon="-4.893418">
        <ele>1084.661</ele>
        <time>2021-10-16T09:03:06Z</time>
      </trkpt>
      <trkpt lat="40.362184" lon="-4.893733">
        <ele>1083.727</ele>
        <time>2021-10-16T09:03:08Z</time>
      </trkpt>
      <trkpt lat="40.362143" lon="-4.894101">
        <ele>1081.308</ele>
        <time>2021-10-16T09:03:10Z</time>
      </trkpt>
      <trkpt lat="40.362157" lon="-4.894497">
        <ele>1082.585</ele>
        <time>2021-10-16T09:03:12Z</time>
      </trkpt>
      <trkpt lat="40.362112" lon="-4.894884">
        <ele>1083.993</ele>
        <time>2021-10-16T09:03:14Z</time>
      </trkpt>
      <trkpt lat="40.361954" lon="-4.895253">
        <ele>1082.812</ele>
        <time>2021-10-16T09:03:16Z</time>
      </trkpt>
      <trkpt lat="40.361732" lon="-4.895603">
        <ele>1082.876</ele>
        <time>2021-10-16T09:03:18Z</time>
      </trkpt>
      <trkpt lat="40.361452" lon="-4.895923">
        <ele>1084.081</ele>
        <time>2021-10-16T09:03:20Z</time>
      </trkpt>
      <trkpt lat="40.361120" lon="-4.896184">
        <ele>1084.790</ele>
        <time>2021-10-16T09:03:22Z</time>
      </trkpt>
      <trkpt lat="40.360700" lon="-4.896378">
        <ele>1084.862</ele>
        <time>2021-10-16T09:03:24Z</time>
      </trkpt>
      <trkpt lat="40.360493" lon="-4.896455">
        <ele>1085.139</ele>
        <time>2021-10-16T09:03:25Z</time>
      </trkpt>
      <trkpt lat="40.360086" lon="-4.896567">
        <ele>1086.166</ele>
        <time>2021-10-16T09:03:27Z</time>
      </trkpt>
      <trkpt lat="40.359889" lon="-4.896617">
        <ele>1086.529</ele>
        <time>2021-10-16T09:03:28Z</time>
      </trkpt>
      <trkpt lat="40.359534" lon="-4.896706">
        <ele>1088.821</ele>
        <time>2021-10-16T09:03:30Z</time>
      </trkpt>
      <trkpt lat="40.359366" lon="-4.896743">
        <ele>1089.108</ele>
        <time>2021-10-16T09:03:31Z</time>
      </trkpt>
      <trkpt lat="40.359200" lon="-4.896763">
        <ele>1089.614</ele>
        <time>2021-10-16T09:03:32Z</time>
      </trkpt>
      <trkpt lat="40.358853" lon="-4.896756">
        <ele>1091.712</ele>
        <time>2021-10-16T09:03:34Z</time>
      </trkpt>
      <trkpt lat="40.358505" lon="-4.896709">
        <ele>1093.841</ele>
        <time>2021-10-16T09:03:36Z</time>
      </trkpt>
      <trkpt lat="40.358327" lon="-4.896674">
        <ele>1095.275</ele>
        <time>2021-10-16T09:03:37Z</time>
      </trkpt>
      <trkpt lat="40.358144" lon="-4.896640">
        <ele>1096.220</ele>
        <time>2021-10-16T09:03:38Z</time>
      </trkpt>
      <trkpt lat="40.357775" lon="-4.896577">
        <ele>1099.869</ele>
        <time>2021-10-16T09:03:40Z</time>
      </trkpt>
      <trkpt lat="40.357401" lon="-4.896518">
        <ele>1100.951</ele>
        <time>2021-10-16T09:03:42Z</time>
      </trkpt>
      <trkpt lat="40.357029" lon="-4.896457">
        <ele>1105.418</ele>
        <time>2021-10-16T09:03:44Z</time>
      </trkpt>
      <trkpt lat="40.356671" lon="-4.896416">
        <ele>1107.154</ele>
        <time>2021-10-16T09:03:46Z</time>
      </trkpt>
      <trkpt lat="40.356316" lon="-4.896447">
        <ele>1108.756</ele>
        <time>2021-10-16T09:03:48Z</time>
      </trkpt>
      <trkpt lat="40.355956" lon="-4.896575">
        <ele>1112.311</ele>
        <time>2021-10-16T09:03:50Z</time>
      </trkpt>
      <trkpt lat="40.355630" lon="-4.896785">
        <ele>1115.408</ele>
        <time>2021-10-16T09:03:52Z</time>
      </trkpt>
      <trkpt lat="40.355348" lon="-4.897099">
        <ele>1116.063</ele>
        <time>2021-10-16T09:03:54Z</time>
      </trkpt>
      <trkpt lat="40.355227" lon="-4.897290">
        <ele>1116.711</ele>
        <time>2021-10-16T09:03:55Z</time>
      </trkpt>
      <trkpt lat="40.355113" lon="-4.897485">
        <ele>1116.520</ele>
        <time>2021-10-16T09:03:56Z</time>
      </trkpt>
      <trkpt lat="40.354880" lon="-4.897822">
        <ele>1117.674</ele>
        <time>2021-10-16T09:03:58Z</time>
      </trkpt>
      <trkpt lat="40.354728" lon="-4.897950">
        <ele>1118.519</ele>
        <time>2021-10-16T09:03:59Z</time>
      </trkpt>
      <trkpt lat="40.354550" lon="-4.898061">
        <ele>1118.248</ele>
        <time>2021-10-16T09:04:00Z</time>
      </trkpt>
      <trkpt lat="40.354175" lon="-4.898277">
        <ele>1116.790</ele>
        <time>2021-10-16T09:04:02Z</time>
      </trkpt>
      <trkpt lat="40.353791" lon="-4.898519">
        <ele>1118.337</ele>
        <time>2021-10-16T09:04:04Z</time>
      </trkpt>
      <trkpt lat="40.353410" lon="-4.898810">
        <ele>1118.199</ele>
        <time>2021-10-16T09:04:06Z</time>
      </trkpt>
      <trkpt lat="40.353224" lon="-4.898976">
        <ele>1119.107</ele>
        <time>2021-10-16T09:04:07Z</time>
      </trkpt>
      <trkpt lat="40.353041" lon="-4.899156">
        <ele>1120.527</ele>
        <time>2021-10-16T09:04:08Z</time>
      </trkpt>
      <trkpt lat="40.352695" lon="-4.899523">
        <ele>1122.008</ele>
        <time>2021-10-16T09:04:10Z</time>
      </trkpt>
      <trkpt lat="40.352347" lon="-4.899862">
        <ele>1123.827</ele>
        <time>2021-10-16T09:04:12Z</time>
      </trkpt>
      <trkpt lat="40.352176" lon="-4.900009">
        <ele>1125.545</ele>
        <time>2021-10-16T09:04:13Z</time>
      </trkpt>
      <trkpt lat="40.352010" lon="-4.900150">
        <ele>1126.754</ele>
        <time>2021-10-16T09:04:14Z</time>
      </trkpt>
      <trkpt lat="40.351693" lon="-4.900418">
        <ele>1127.188</ele>
        <time>2021-10-16T09:04:16Z</time>
      </trkpt>
      <trkpt lat="40.351376" lon="-4.900662">
        <ele>1127.613</ele>
        <time>2021-10-16T09:04:18Z</time>
      </trkpt>
      <trkpt lat="40.351229" lon="-4.900780">
        <ele>1129.222</ele>
        <time>2021-10-16T09:04:19Z</time>
      </trkpt>
      <trkpt lat="40.351087" lon="-4.900893">
        <ele>1129.984</ele>
        <time>2021-10-16T09:04:20Z</time>
      </trkpt>
      <trkpt lat="40.350804" lon="-4.901113">
        <ele>1129.631</ele>
        <time>2021-10-16T09:04:22Z</time>
      </trkpt>
      <trkpt lat="40.350655" lon="-4.901232">
        <ele>1130.167</ele>
        <time>2021-10-16T09:04:23Z</time>
      </trkpt>
      <trkpt lat="40.350500" lon="-4.901348">
        <ele>1130.081</ele>
        <time>2021-10-16T09:04:24Z</time>
      </trkpt>
      <trkpt lat="40.350339" lon="-4.901457">
        <ele>1129.319</ele>
        <time>2021-10-16T09:04:25Z</time>
      </trkpt>
      <trkpt lat="40.350168" lon="-4.901557">
        <ele>1129.508</ele>
        <time>2021-10-16T09:04:26Z</time>
      </trkpt>
      <trkpt lat="40.349820" lon="-4.901690">
        <ele>1128.794</ele>
        <time>2021-10-16T09:04:28Z</time>
      </trkpt>
      <trkpt lat="40.349638" lon="-4.901709">
        <ele>1130.452</ele>
        <time>2021-10-16T09:04:29Z</time>
      </trkpt>
      <trkpt lat="40.349450" lon="-4.901693">
        <ele>1131.651</ele>
        <time>2021-10-16T09:04:30Z</time>
      </trkpt>
      <trkpt lat="40.349067" lon="-4.901575">
        <ele>1133.535</ele>
        <time>2021-10-16T09:04:32Z</time>
      </trkpt>
      <trkpt lat="40.348873" lon="-4.901491">
        <ele>1134.190</ele>
        <time>2021-10-16T09:04:33Z</time>
      </trkpt>
      <trkpt lat="40.348686" lon="-4.901408">
        <ele>1134.179</ele>
        <time>2021-10-16T09:04:34Z</time>
      </trkpt>
      <trkpt lat="40.348347" lon="-4.901270">
        <ele>1134.441</ele>
        <time>2021-10-16T09:04:36Z</time>
      </trkpt>
      <trkpt lat="40.348038" lon="-4.901212">
        <ele>1136.028</ele>
        <time>2021-10-16T09:04:38Z</time>
      </trkpt>
      <trkpt lat="40.347728" lon="-4.901311">
        <ele>1139.011</ele>
        <time>2021-10-16T09:04:40Z</time>
      </trkpt>
      <trkpt lat="40.347583" lon="-4.901414">
        <ele>1138.421</ele>
        <time>2021-10-16T09:04:41Z</time>
      </trkpt>
      <trkpt lat="40.347325" lon="-4.901655">
        <ele>1139.203</ele>
        <time>2021-10-16T09:04:43Z</time>
      </trkpt>
      <trkpt lat="40.347183" lon="-4.901749">
        <ele>1138.208</ele>
        <time>2021-10-16T09:04:44Z</time>
      </trkpt>
      <trkpt lat="40.346861" lon="-4.901830">
        <ele>1139.389</ele>
        <time>2021-10-16T09:04:46Z</time>
      </trkpt>
      <trkpt lat="40.346677" lon="-4.901815">
        <ele>1138.837</ele>
        <time>2021-10-16T09:04:47Z</time>
      </trkpt>
      <trkpt lat="40.346497" lon="-4.901781">
        <ele>1139.236</ele>
        <time>2021-10-16T09:04:48Z</time>
      </trkpt>
      <trkpt lat="40.346330" lon="-4.901746">
        <ele>1138.980</ele>
        <time>2021-10-16T09:04:49Z</time>
      </trkpt>
      <trkpt lat="40.346170" lon="-4.901710">
        <ele>1138.145</ele>
        <time>2021-10-16T09:04:50Z</time>
      </trkpt>
      <trkpt lat="40.345887" lon="-4.901611">
        <ele>1134.784</ele>
        <time>2021-10-16T09:04:52Z</time>
      </trkpt>
      <trkpt lat="40.345758" lon="-4.901532">
        <ele>1133.756</ele>
        <time>2021-10-16T09:04:53Z</time>
      </trkpt>
      <trkpt lat="40.345532" lon="-4.901291">
        <ele>1135.933</ele>
        <time>2021-10-16T09:04:55Z</time>
      </trkpt>
      <trkpt lat="40.345420" lon="-4.901165">
        <ele>1137.024</ele>
        <time>2021-10-16T09:04:56Z</time>
      </trkpt>
      <trkpt lat="40.345174" lon="-4.901013">
        <ele>1135.104</ele>
        <time>2021-10-16T09:04:58Z</time>
      </trkpt>
      <trkpt lat="40.345025" lon="-4.900981">
        <ele>1134.814</ele>
        <time>2021-10-16T09:04:59Z</time>
      </trkpt>
      <trkpt lat="40.344865" lon="-4.900972">
        <ele>1134.808</ele>
        <time>2021-10-16T09:05:00Z</time>
      </trkpt>
      <trkpt lat="40.344706" lon="-4.900981">
        <ele>1132.930</ele>
        <time>2021-10-16T09:05:01Z</time>
      </trkpt>
      <trkpt lat="40.344556" lon="-4.901005">
        <ele>1132.818</ele>
        <time>2021-10-16T09:05:02Z</time>
      </trkpt>
      <trkpt lat="40.344315" lon="-4.901144">
        <ele>1133.777</ele>
        <time>2021-10-16T09:05:04Z</time>
      </trkpt>
      <trkpt lat="40.344229" lon="-4.901267">
        <ele>1134.621</ele>
        <time>2021-10-16T09:05:05Z</time>
      </trkpt>
      <trkpt lat="40.344145" lon="-4.901538">
        <ele>1133.266</ele>
        <time>2021-10-16T09:05:07Z</time>
      </trkpt>
      <trkpt lat="40.344138" lon="-4.901673">
        <ele>1131.985</ele>
        <time>2021-10-16T09:05:08Z</time>
      </trkpt>
      <trkpt lat="40.344195" lon="-4.901966">
        <ele>1131.867</ele>
        <time>2021-10-16T09:05:10Z</time>
      </trkpt>
      <trkpt lat="40.344265" lon="-4.902128">
        <ele>1131.814</ele>
        <time>2021-10-16T09:05:11Z</time>
      </trkpt>
      <trkpt lat="40.344448" lon="-4.902500">
        <ele>1134.316</ele>
        <time>2021-10-16T09:05:13Z</time>
      </trkpt>
      <trkpt lat="40.344525" lon="-4.902711">
        <ele>1135.376</ele>
        <time>2021-10-16T09:05:14Z</time>
      </trkpt>
      <trkpt lat="40.344616" lon="-4.903182">
        <ele>1135.613</ele>
        <time>2021-10-16T09:05:16Z</time>
      </trkpt>
      <trkpt lat="40.344653" lon="-4.903614">
        <ele>1135.908</ele>
        <time>2021-10-16T09:05:18Z</time>
      </trkpt>
      <trkpt lat="40.344617" lon="-4.903972">
        <ele>1137.679</ele>
        <time>2021-10-16T09:05:20Z</time>
      </trkpt>
      <trkpt lat="40.344449" lon="-4.904253">
        <ele>1137.667</ele>
        <time>2021-10-16T09:05:22Z</time>
      </trkpt>
      <trkpt lat="40.344320" lon="-4.904351">
        <ele>1138.646</ele>
        <time>2021-10-16T09:05:23Z</time>
      </trkpt>
      <trkpt lat="40.344166" lon="-4.904427">
        <ele>1139.140</ele>
        <time>2021-10-16T09:05:24Z</time>
      </trkpt>
      <trkpt lat="40.343998" lon="-4.904510">
        <ele>1139.025</ele>
        <time>2021-10-16T09:05:25Z</time>
      </trkpt>
      <trkpt lat="40.343823" lon="-4.904615">
        <ele>1140.344</ele>
        <time>2021-10-16T09:05:26Z</time>
      </trkpt>
      <trkpt lat="40.343450" lon="-4.904843">
        <ele>1141.236</ele>
        <time>2021-10-16T09:05:28Z</time>
      </trkpt>
      <trkpt lat="40.343251" lon="-4.904959">
        <ele>1142.443</ele>
        <time>2021-10-16T09:05:29Z</time>
      </trkpt>
      <trkpt lat="40.342831" lon="-4.905173">
        <ele>1145.486</ele>
        <time>2021-10-16T09:05:31Z</time>
      </trkpt>
      <trkpt lat="40.342620" lon="-4.905273">
        <ele>1145.360</ele>
        <time>2021-10-16T09:05:32Z</time>
      </trkpt>
      <trkpt lat="40.342240" lon="-4.905459">
        <ele>1146.226</ele>
        <time>2021-10-16T09:05:34Z</time>
      </trkpt>
      <trkpt lat="40.342066" lon="-4.905552">
        <ele>1146.308</ele>
        <time>2021-10-16T09:05:35Z</time>
      </trkpt>
      <trkpt lat="40.341753" lon="-4.905805">
        <ele>1148.046</ele>
        <time>2021-10-16T09:05:37Z</time>
      </trkpt>
      <trkpt lat="40.341616" lon="-4.905969">
        <ele>1148.344</ele>
        <time>2021-10-16T09:05:38Z</time>
      </trkpt>
      <trkpt lat="40.341369" lon="-4.906291">
        <ele>1149.233</ele>
        <time>2021-10-16T09:05:40Z</time>
      </trkpt>
      <trkpt lat="40.341254" lon="-4.906435">
        <ele>1150.627</ele>
        <time>2021-10-16T09:05:41Z</time>
      </trkpt>
      <trkpt lat="40.341004" lon="-4.906642">
        <ele>1152.072</ele>
        <time>2021-10-16T09:05:43Z</time>
      </trkpt>
      <trkpt lat="40.340849" lon="-4.906708">
        <ele>1151.311</ele>
        <time>2021-10-16T09:05:44Z</time>
      </trkpt>
      <trkpt lat="40.340511" lon="-4.906818">
        <ele>1151.243</ele>
        <time>2021-10-16T09:05:46Z</time>
      </trkpt>
      <trkpt lat="40.340329" lon="-4.906887">
        <ele>1151.470</ele>
        <time>2021-10-16T09:05:47Z</time>
      </trkpt>
      <trkpt lat="40.339938" lon="-4.907024">
        <ele>1151.676</ele>
        <time>2021-10-16T09:05:49Z</time>
      </trkpt>
      <trkpt lat="40.339726" lon="-4.907078">
        <ele>1152.590</ele>
        <time>2021-10-16T09:05:50Z</time>
      </trkpt>
      <trkpt lat="40.339303" lon="-4.907167">
        <ele>1152.719</ele>
        <time>2021-10-16T09:05:52Z</time>
      </trkpt>
      <trkpt lat="40.338870" lon="-4.907249">
        <ele>1154.508</ele>
        <time>2021-10-16T09:05:54Z</time>
      </trkpt>
      <trkpt lat="40.338439" lon="-4.907349">
        <ele>1155.865</ele>
        <time>2021-10-16T09:05:56Z</time>
      </trkpt>
      <trkpt lat="40.338053" lon="-4.907437">
        <ele>1158.623</ele>
        <time>2021-10-16T09:05:58Z</time>
      </trkpt>
      <trkpt lat="40.337696" lon="-4.907518">
        <ele>1157.572</ele>
        <time>2021-10-16T09:06:00Z</time>
      </trkpt>
      <trkpt lat="40.337528" lon="-4.907586">
        <ele>1156.876</ele>
        <time>2021-10-16T09:06:01Z</time>
      </trkpt>
      <trkpt lat="40.337375" lon="-4.907692">
        <ele>1156.851</ele>
        <time>2021-10-16T09:06:02Z</time>
      </trkpt>
      <trkpt lat="40.337233" lon="-4.907833">
        <ele>1156.440</ele>
        <time>2021-10-16T09:06:03Z</time>
      </trkpt>
      <trkpt lat="40.336949" lon="-4.908122">
        <ele>1157.042</ele>
        <time>2021-10-16T09:06:05Z</time>
      </trkpt>
      <trkpt lat="40.336628" lon="-4.908325">
        <ele>1155.879</ele>
        <time>2021-10-16T09:06:07Z</time>
      </trkpt>
      <trkpt lat="40.336464" lon="-4.908409">
        <ele>1155.838</ele>
        <time>2021-10-16T09:06:08Z</time>
      </trkpt>
      <trkpt lat="40.336167" lon="-4.908550">
        <ele>1154.270</ele>
        <time>2021-10-16T09:06:10Z</time>
      </trkpt>
      <trkpt lat="40.336044" lon="-4.908607">
        <ele>1153.617</ele>
        <time>2021-10-16T09:06:11Z</time>
      </trkpt>
      <trkpt lat="40.335937" lon="-4.908658">
        <ele>1154.508</ele>
        <time>2021-10-16T09:06:12Z</time>
      </trkpt>
      <trkpt lat="40.335755" lon="-4.908745">
        <ele>1153.621</ele>
        <time>2021-10-16T09:06:14Z</time>
      </trkpt>
      <trkpt lat="40.335598" lon="-4.908823">
        <ele>1154.779</ele>
        <time>2021-10-16T09:06:16Z</time>
      </trkpt>
      <trkpt lat="40.335422" lon="-4.908907">
        <ele>1156.368</ele>
        <time>2021-10-16T09:06:18Z</time>
      </trkpt>
      <trkpt lat="40.335321" lon="-4.908954">
        <ele>1156.652</ele>
        <time>2021-10-16T09:06:19Z</time>
      </trkpt>
      <trkpt lat="40.335224" lon="-4.909005">
        <ele>1157.037</ele>
        <time>2021-10-16T09:06:20Z</time>
      </trkpt>
      <trkpt lat="40.335054" lon="-4.909106">
        <ele>1158.296</ele>
        <time>2021-10-16T09:06:22Z</time>
      </trkpt>
      <trkpt lat="40.334910" lon="-4.909181">
        <ele>1158.768</ele>
        <time>2021-10-16T09:06:24Z</time>
      </trkpt>
      <trkpt lat="40.334753" lon="-4.909254">
        <ele>1159.545</ele>
        <time>2021-10-16T09:06:26Z</time>
      </trkpt>
      <trkpt lat="40.334577" lon="-4.909385">
        <ele>1159.933</ele>
        <time>2021-10-16T09:06:28Z</time>
      </trkpt>
      <trkpt lat="40.334418" lon="-4.909638">
        <ele>1161.323</ele>
        <time>2021-10-16T09:06:30Z</time>
      </trkpt>
      <trkpt lat="40.334345" lon="-4.909821">
        <ele>1162.115</ele>
        <time>2021-10-16T09:06:31Z</time>
      </trkpt>
      <trkpt lat="40.334198" lon="-4.910239">
        <ele>1165.408</ele>
        <time>2021-10-16T09:06:33Z</time>
      </trkpt>
      <trkpt lat="40.334119" lon="-4.910462">
        <ele>1164.881</ele>
        <time>2021-10-16T09:06:34Z</time>
      </trkpt>
      <trkpt lat="40.333985" lon="-4.910847">
        <ele>1168.049</ele>
        <time>2021-10-16T09:06:36Z</time>
      </trkpt>
      <trkpt lat="40.333894" lon="-4.911191">
        <ele>1167.618</ele>
        <time>2021-10-16T09:06:38Z</time>
      </trkpt>
      <trkpt lat="40.333898" lon="-4.911500">
        <ele>1169.082</ele>
        <time>2021-10-16T09:06:40Z</time>
      </trkpt>
      <trkpt lat="40.333940" lon="-4.911636">
        <ele>1169.067</ele>
        <time>2021-10-16T09:06:41Z</time>
      </trkpt>
      <trkpt lat="40.334076" lon="-4.911862">
        <ele>1168.616</ele>
        <time>2021-10-16T09:06:43Z</time>
      </trkpt>
      <trkpt lat="40.334139" lon="-4.911968">
        <ele>1169.228</ele>
        <time>2021-10-16T09:06:44Z</time>
      </trkpt>
      <trkpt lat="40.334234" lon="-4.912142">
        <ele>1169.155</ele>
        <time>2021-10-16T09:06:46Z</time>
      </trkpt>
      <trkpt lat="40.334265" lon="-4.912195">
        <ele>1169.658</ele>
        <time>2021-10-16T09:06:47Z</time>
      </trkpt>
      <trkpt lat="40.334297" lon="-4.912245">
        <ele>1169.152</ele>
        <time>2021-10-16T09:06:49Z</time>
      </trkpt>
      <trkpt lat="40.334335" lon="-4.912302">
        <ele>1170.217</ele>
        <time>2021-10-16T09:06:52Z</time>
      </trkpt>
      <trkpt lat="40.334354" lon="-4.912357">
        <ele>1170.508</ele>
        <time>2021-10-16T09:06:55Z</time>
      </trkpt>
      <trkpt lat="40.334395" lon="-4.912397">
        <ele>1187.613</ele>
        <time>2021-10-16T09:07:26Z</time>
      </trkpt>
      <trkpt lat="40.334448" lon="-4.912488">
        <ele>1216.711</ele>
        <time>2021-10-16T09:07:28Z</time>
      </trkpt>
      <trkpt lat="40.334490" lon="-4.912689">
        <ele>1224.690</ele>
        <time>2021-10-16T09:07:30Z</time>
      </trkpt>
      <trkpt lat="40.334464" lon="-4.913029">
        <ele>1224.774</ele>
        <time>2021-10-16T09:07:32Z</time>
      </trkpt>
      <trkpt lat="40.334327" lon="-4.913352">
        <ele>1224.759</ele>
        <time>2021-10-16T09:07:34Z</time>
      </trkpt>
      <trkpt lat="40.334118" lon="-4.913673">
        <ele>1224.768</ele>
        <time>2021-10-16T09:07:36Z</time>
      </trkpt>
      <trkpt lat="40.333895" lon="-4.914030">
        <ele>1224.780</ele>
        <time>2021-10-16T09:07:38Z</time>
      </trkpt>
      <trkpt lat="40.333763" lon="-4.914306">
        <ele>1224.737</ele>
        <time>2021-10-16T09:07:40Z</time>
      </trkpt>
      <trkpt lat="40.333657" lon="-4.914510">
        <ele>1224.719</ele>
        <time>2021-10-16T09:07:42Z</time>
      </trkpt>
      <trkpt lat="40.333528" lon="-4.914721">
        <ele>1224.809</ele>
        <time>2021-10-16T09:07:44Z</time>
      </trkpt>
      <trkpt lat="40.333376" lon="-4.914927">
        <ele>1224.819</ele>
        <time>2021-10-16T09:07:46Z</time>
      </trkpt>
      <trkpt lat="40.333221" lon="-4.915192">
        <ele>1224.808</ele>
        <time>2021-10-16T09:07:48Z</time>
      </trkpt>
      <trkpt lat="40.333149" lon="-4.915355">
        <ele>1224.849</ele>
        <time>2021-10-16T09:07:49Z</time>
      </trkpt>
      <trkpt lat="40.333080" lon="-4.915532">
        <ele>1224.877</ele>
        <time>2021-10-16T09:07:50Z</time>
      </trkpt>
      <trkpt lat="40.332919" lon="-4.915879">
        <ele>1224.896</ele>
        <time>2021-10-16T09:07:52Z</time>
      </trkpt>
      <trkpt lat="40.332748" lon="-4.916198">
        <ele>1224.810</ele>
        <time>2021-10-16T09:07:54Z</time>
      </trkpt>
      <trkpt lat="40.332545" lon="-4.916450">
        <ele>1224.835</ele>
        <time>2021-10-16T09:07:56Z</time>
      </trkpt>
      <trkpt lat="40.332291" lon="-4.916652">
        <ele>1224.894</ele>
        <time>2021-10-16T09:07:58Z</time>
      </trkpt>
      <trkpt lat="40.332000" lon="-4.916836">
        <ele>1224.896</ele>
        <time>2021-10-16T09:08:00Z</time>
      </trkpt>
      <trkpt lat="40.331845" lon="-4.916934">
        <ele>1224.843</ele>
        <time>2021-10-16T09:08:01Z</time>
      </trkpt>
      <trkpt lat="40.331693" lon="-4.917029">
        <ele>1224.833</ele>
        <time>2021-10-16T09:08:02Z</time>
      </trkpt>
      <trkpt lat="40.331381" lon="-4.917158">
        <ele>1224.823</ele>
        <time>2021-10-16T09:08:04Z</time>
      </trkpt>
      <trkpt lat="40.331022" lon="-4.917194">
        <ele>1224.815</ele>
        <time>2021-10-16T09:08:06Z</time>
      </trkpt>
      <trkpt lat="40.330812" lon="-4.917199">
        <ele>1224.808</ele>
        <time>2021-10-16T09:08:07Z</time>
      </trkpt>
      <trkpt lat="40.330587" lon="-4.917204">
        <ele>1224.841</ele>
        <time>2021-10-16T09:08:08Z</time>
      </trkpt>
      <trkpt lat="40.330161" lon="-4.917230">
        <ele>1224.819</ele>
        <time>2021-10-16T09:08:10Z</time>
      </trkpt>
      <trkpt lat="40.329836" lon="-4.917273">
        <ele>1224.858</ele>
        <time>2021-10-16T09:08:12Z</time>
      </trkpt>
      <trkpt lat="40.329713" lon="-4.917325">
        <ele>1224.842</ele>
        <time>2021-10-16T09:08:13Z</time>
      </trkpt>
      <trkpt lat="40.329603" lon="-4.917408">
        <ele>1224.897</ele>
        <time>2021-10-16T09:08:14Z</time>
      </trkpt>
      <trkpt lat="40.329388" lon="-4.917662">
        <ele>1224.886</ele>
        <time>2021-10-16T09:08:16Z</time>
      </trkpt>
      <trkpt lat="40.329268" lon="-4.917821">
        <ele>1224.848</ele>
        <time>2021-10-16T09:08:17Z</time>
      </trkpt>
      <trkpt lat="40.329006" lon="-4.918163">
        <ele>1224.885</ele>
        <time>2021-10-16T09:08:19Z</time>
      </trkpt>
      <trkpt lat="40.328866" lon="-4.918339">
        <ele>1224.873</ele>
        <time>2021-10-16T09:08:20Z</time>
      </trkpt>
      <trkpt lat="40.328605" lon="-4.918653">
        <ele>1224.885</ele>
        <time>2021-10-16T09:08:22Z</time>
      </trkpt>
      <trkpt lat="40.328365" lon="-4.918878">
        <ele>1226.313</ele>
        <time>2021-10-16T09:08:24Z</time>
      </trkpt>
      <trkpt lat="40.328250" lon="-4.918957">
        <ele>1227.808</ele>
        <time>2021-10-16T09:08:25Z</time>
      </trkpt>
      <trkpt lat="40.328071" lon="-4.919096">
        <ele>1231.045</ele>
        <time>2021-10-16T09:08:27Z</time>
      </trkpt>
      <trkpt lat="40.328003" lon="-4.919255">
        <ele>1233.573</ele>
        <time>2021-10-16T09:08:29Z</time>
      </trkpt>
      <trkpt lat="40.328062" lon="-4.919380">
        <ele>1234.592</ele>
        <time>2021-10-16T09:08:31Z</time>
      </trkpt>
      <trkpt lat="40.328122" lon="-4.919379">
        <ele>1235.376</ele>
        <time>2021-10-16T09:08:32Z</time>
      </trkpt>
      <trkpt lat="40.328190" lon="-4.919350">
        <ele>1235.911</ele>
        <time>2021-10-16T09:08:33Z</time>
      </trkpt>
      <trkpt lat="40.328391" lon="-4.919150">
        <ele>1236.180</ele>
        <time>2021-10-16T09:08:35Z</time>
      </trkpt>
      <trkpt lat="40.328678" lon="-4.918865">
        <ele>1236.782</ele>
        <time>2021-10-16T09:08:37Z</time>
      </trkpt>
      <trkpt lat="40.328842" lon="-4.918716">
        <ele>1235.979</ele>
        <time>2021-10-16T09:08:38Z</time>
      </trkpt>
      <trkpt lat="40.329168" lon="-4.918483">
        <ele>1238.775</ele>
        <time>2021-10-16T09:08:40Z</time>
      </trkpt>
      <trkpt lat="40.329341" lon="-4.918409">
        <ele>1240.628</ele>
        <time>2021-10-16T09:08:41Z</time>
      </trkpt>
      <trkpt lat="40.329515" lon="-4.918352">
        <ele>1243.020</ele>
        <time>2021-10-16T09:08:42Z</time>
      </trkpt>
      <trkpt lat="40.329675" lon="-4.918299">
        <ele>1242.808</ele>
        <time>2021-10-16T09:08:43Z</time>
      </trkpt>
      <trkpt lat="40.329813" lon="-4.918253">
        <ele>1243.295</ele>
        <time>2021-10-16T09:08:44Z</time>
      </trkpt>
      <trkpt lat="40.330030" lon="-4.918221">
        <ele>1247.963</ele>
        <time>2021-10-16T09:08:46Z</time>
      </trkpt>
      <trkpt lat="40.330141" lon="-4.918248">
        <ele>1247.982</ele>
        <time>2021-10-16T09:08:47Z</time>
      </trkpt>
      <trkpt lat="40.330264" lon="-4.918298">
        <ele>1247.956</ele>
        <time>2021-10-16T09:08:48Z</time>
      </trkpt>
      <trkpt lat="40.330397" lon="-4.918367">
        <ele>1249.031</ele>
        <time>2021-10-16T09:08:49Z</time>
      </trkpt>
      <trkpt lat="40.330530" lon="-4.918445">
        <ele>1251.080</ele>
        <time>2021-10-16T09:08:50Z</time>
      </trkpt>
      <trkpt lat="40.330761" lon="-4.918684">
        <ele>1251.372</ele>
        <time>2021-10-16T09:08:52Z</time>
      </trkpt>
      <trkpt lat="40.330871" lon="-4.918845">
        <ele>1252.369</ele>
        <time>2021-10-16T09:08:53Z</time>
      </trkpt>
      <trkpt lat="40.331105" lon="-4.919159">
        <ele>1254.828</ele>
        <time>2021-10-16T09:08:55Z</time>
      </trkpt>
      <trkpt lat="40.331231" lon="-4.919302">
        <ele>1256.589</ele>
        <time>2021-10-16T09:08:56Z</time>
      </trkpt>
      <trkpt lat="40.331461" lon="-4.919538">
        <ele>1256.917</ele>
        <time>2021-10-16T09:08:58Z</time>
      </trkpt>
      <trkpt lat="40.331557" lon="-4.919606">
        <ele>1258.008</ele>
        <time>2021-10-16T09:08:59Z</time>
      </trkpt>
      <trkpt lat="40.331723" lon="-4.919632">
        <ele>1261.560</ele>
        <time>2021-10-16T09:09:01Z</time>
      </trkpt>
      <trkpt lat="40.331849" lon="-4.919547">
        <ele>1264.868</ele>
        <time>2021-10-16T09:09:03Z</time>
      </trkpt>
      <trkpt lat="40.331885" lon="-4.919448">
        <ele>1265.477</ele>
        <time>2021-10-16T09:09:04Z</time>
      </trkpt>
      <trkpt lat="40.331893" lon="-4.919311">
        <ele>1266.371</ele>
        <time>2021-10-16T09:09:05Z</time>
      </trkpt>
      <trkpt lat="40.331871" lon="-4.918923">
        <ele>1271.076</ele>
        <time>2021-10-16T09:09:07Z</time>
      </trkpt>
      <trkpt lat="40.331872" lon="-4.918728">
        <ele>1271.875</ele>
        <time>2021-10-16T09:09:08Z</time>
      </trkpt>
      <trkpt lat="40.331920" lon="-4.918419">
        <ele>1275.687</ele>
        <time>2021-10-16T09:09:10Z</time>
      </trkpt>
      <trkpt lat="40.331960" lon="-4.918319">
        <ele>1273.844</ele>
        <time>2021-10-16T09:09:11Z</time>
      </trkpt>
      <trkpt lat="40.332077" lon="-4.918267">
        <ele>1273.296</ele>
        <time>2021-10-16T09:09:13Z</time>
      </trkpt>
      <trkpt lat="40.332142" lon="-4.918328">
        <ele>1273.231</ele>
        <time>2021-10-16T09:09:14Z</time>
      </trkpt>
      <trkpt lat="40.332159" lon="-4.918530">
        <ele>1275.024</ele>
        <time>2021-10-16T09:09:16Z</time>
      </trkpt>
      <trkpt lat="40.332117" lon="-4.918653">
        <ele>1275.208</ele>
        <time>2021-10-16T09:09:17Z</time>
      </trkpt>
      <trkpt lat="40.332026" lon="-4.918953">
        <ele>1274.767</ele>
        <time>2021-10-16T09:09:19Z</time>
      </trkpt>
      <trkpt lat="40.332012" lon="-4.919141">
        <ele>1277.225</ele>
        <time>2021-10-16T09:09:20Z</time>
      </trkpt>
      <trkpt lat="40.332089" lon="-4.919557">
        <ele>1275.284</ele>
        <time>2021-10-16T09:09:22Z</time>
      </trkpt>
      <trkpt lat="40.332182" lon="-4.919923">
        <ele>1277.658</ele>
        <time>2021-10-16T09:09:24Z</time>
      </trkpt>
      <trkpt lat="40.332194" lon="-4.920080">
        <ele>1278.383</ele>
        <time>2021-10-16T09:09:25Z</time>
      </trkpt>
      <trkpt lat="40.332137" lon="-4.920332">
        <ele>1280.012</ele>
        <time>2021-10-16T09:09:27Z</time>
      </trkpt>
      <trkpt lat="40.332081" lon="-4.920418">
        <ele>1280.034</ele>
        <time>2021-10-16T09:09:28Z</time>
      </trkpt>
      <trkpt lat="40.332018" lon="-4.920475">
        <ele>1282.431</ele>
        <time>2021-10-16T09:09:29Z</time>
      </trkpt>
      <trkpt lat="40.331945" lon="-4.920498">
        <ele>1282.534</ele>
        <time>2021-10-16T09:09:30Z</time>
      </trkpt>
      <trkpt lat="40.331855" lon="-4.920479">
        <ele>1282.155</ele>
        <time>2021-10-16T09:09:31Z</time>
      </trkpt>
      <trkpt lat="40.331753" lon="-4.920411">
        <ele>1282.510</ele>
        <time>2021-10-16T09:09:32Z</time>
      </trkpt>
      <trkpt lat="40.331495" lon="-4.920181">
        <ele>1284.808</ele>
        <time>2021-10-16T09:09:34Z</time>
      </trkpt>
      <trkpt lat="40.331354" lon="-4.920087">
        <ele>1286.881</ele>
        <time>2021-10-16T09:09:35Z</time>
      </trkpt>
      <trkpt lat="40.331023" lon="-4.919983">
        <ele>1286.599</ele>
        <time>2021-10-16T09:09:37Z</time>
      </trkpt>
      <trkpt lat="40.330854" lon="-4.919938">
        <ele>1287.738</ele>
        <time>2021-10-16T09:09:38Z</time>
      </trkpt>
      <trkpt lat="40.330552" lon="-4.919750">
        <ele>1290.432</ele>
        <time>2021-10-16T09:09:40Z</time>
      </trkpt>
      <trkpt lat="40.330253" lon="-4.919549">
        <ele>1292.227</ele>
        <time>2021-10-16T09:09:42Z</time>
      </trkpt>
      <trkpt lat="40.330099" lon="-4.919504">
        <ele>1294.446</ele>
        <time>2021-10-16T09:09:43Z</time>
      </trkpt>
      <trkpt lat="40.329935" lon="-4.919507">
        <ele>1295.538</ele>
        <time>2021-10-16T09:09:44Z</time>
      </trkpt>
      <trkpt lat="40.329619" lon="-4.919613">
        <ele>1296.425</ele>
        <time>2021-10-16T09:09:46Z</time>
      </trkpt>
      <trkpt lat="40.329362" lon="-4.919815">
        <ele>1298.345</ele>
        <time>2021-10-16T09:09:48Z</time>
      </trkpt>
      <trkpt lat="40.329247" lon="-4.919967">
        <ele>1298.147</ele>
        <time>2021-10-16T09:09:49Z</time>
      </trkpt>
      <trkpt lat="40.329137" lon="-4.920136">
        <ele>1301.511</ele>
        <time>2021-10-16T09:09:50Z</time>
      </trkpt>
      <trkpt lat="40.328953" lon="-4.920434">
        <ele>1308.408</ele>
        <time>2021-10-16T09:09:52Z</time>
      </trkpt>
      <trkpt lat="40.328819" lon="-4.920786">
        <ele>1309.452</ele>
        <time>2021-10-16T09:09:54Z</time>
      </trkpt>
      <trkpt lat="40.328741" lon="-4.920964">
        <ele>1310.570</ele>
        <time>2021-10-16T09:09:55Z</time>
      </trkpt>
      <trkpt lat="40.328632" lon="-4.921127">
        <ele>1310.999</ele>
        <time>2021-10-16T09:09:56Z</time>
      </trkpt>
      <trkpt lat="40.328325" lon="-4.921341">
        <ele>1311.943</ele>
        <time>2021-10-16T09:09:58Z</time>
      </trkpt>
      <trkpt lat="40.327977" lon="-4.921452">
        <ele>1315.438</ele>
        <time>2021-10-16T09:10:00Z</time>
      </trkpt>
      <trkpt lat="40.327822" lon="-4.921513">
        <ele>1315.347</ele>
        <time>2021-10-16T09:10:01Z</time>
      </trkpt>
      <trkpt lat="40.327595" lon="-4.921707">
        <ele>1320.739</ele>
        <time>2021-10-16T09:10:03Z</time>
      </trkpt>
      <trkpt lat="40.327436" lon="-4.922018">
        <ele>1320.646</ele>
        <time>2021-10-16T09:10:05Z</time>
      </trkpt>
      <trkpt lat="40.327365" lon="-4.922220">
        <ele>1318.614</ele>
        <time>2021-10-16T09:10:06Z</time>
      </trkpt>
      <trkpt lat="40.327286" lon="-4.922444">
        <ele>1324.054</ele>
        <time>2021-10-16T09:10:07Z</time>
      </trkpt>
      <trkpt lat="40.327191" lon="-4.922685">
        <ele>1327.909</ele>
        <time>2021-10-16T09:10:08Z</time>
      </trkpt>
      <trkpt lat="40.326991" lon="-4.923151">
        <ele>1328.908</ele>
        <time>2021-10-16T09:10:10Z</time>
      </trkpt>
      <trkpt lat="40.326848" lon="-4.923603">
        <ele>1329.869</ele>
        <time>2021-10-16T09:10:12Z</time>
      </trkpt>
      <trkpt lat="40.326810" lon="-4.923833">
        <ele>1331.427</ele>
        <time>2021-10-16T09:10:13Z</time>
      </trkpt>
      <trkpt lat="40.326797" lon="-4.924048">
        <ele>1333.136</ele>
        <time>2021-10-16T09:10:14Z</time>
      </trkpt>
      <trkpt lat="40.326768" lon="-4.924390">
        <ele>1334.830</ele>
        <time>2021-10-16T09:10:16Z</time>
      </trkpt>
      <trkpt lat="40.326715" lon="-4.924518">
        <ele>1333.825</ele>
        <time>2021-10-16T09:10:17Z</time>
      </trkpt>
      <trkpt lat="40.326628" lon="-4.924622">
        <ele>1336.134</ele>
        <time>2021-10-16T09:10:18Z</time>
      </trkpt>
      <trkpt lat="40.326411" lon="-4.924783">
        <ele>1337.526</ele>
        <time>2021-10-16T09:10:20Z</time>
      </trkpt>
      <trkpt lat="40.326298" lon="-4.925013">
        <ele>1337.523</ele>
        <time>2021-10-16T09:10:22Z</time>
      </trkpt>
      <trkpt lat="40.326304" lon="-4.925341">
        <ele>1338.423</ele>
        <time>2021-10-16T09:10:24Z</time>
      </trkpt>
      <trkpt lat="40.326339" lon="-4.925531">
        <ele>1339.783</ele>
        <time>2021-10-16T09:10:25Z</time>
      </trkpt>
      <trkpt lat="40.326388" lon="-4.925977">
        <ele>1345.011</ele>
        <time>2021-10-16T09:10:27Z</time>
      </trkpt>
      <trkpt lat="40.326291" lon="-4.926428">
        <ele>1344.008</ele>
        <time>2021-10-16T09:10:29Z</time>
      </trkpt>
      <trkpt lat="40.326057" lon="-4.926864">
        <ele>1344.730</ele>
        <time>2021-10-16T09:10:31Z</time>
      </trkpt>
      <trkpt lat="40.325935" lon="-4.927081">
        <ele>1348.088</ele>
        <time>2021-10-16T09:10:32Z</time>
      </trkpt>
      <trkpt lat="40.325748" lon="-4.927503">
        <ele>1348.967</ele>
        <time>2021-10-16T09:10:34Z</time>
      </trkpt>
      <trkpt lat="40.325669" lon="-4.927707">
        <ele>1349.811</ele>
        <time>2021-10-16T09:10:35Z</time>
      </trkpt>
      <trkpt lat="40.325511" lon="-4.928146">
        <ele>1349.586</ele>
        <time>2021-10-16T09:10:37Z</time>
      </trkpt>
      <trkpt lat="40.325425" lon="-4.928373">
        <ele>1350.585</ele>
        <time>2021-10-16T09:10:38Z</time>
      </trkpt>
      <trkpt lat="40.325257" lon="-4.928765">
        <ele>1354.487</ele>
        <time>2021-10-16T09:10:40Z</time>
      </trkpt>
      <trkpt lat="40.325138" lon="-4.929098">
        <ele>1357.214</ele>
        <time>2021-10-16T09:10:42Z</time>
      </trkpt>
      <trkpt lat="40.325096" lon="-4.929378">
        <ele>1357.591</ele>
        <time>2021-10-16T09:10:44Z</time>
      </trkpt>
      <trkpt lat="40.325013" lon="-4.929569">
        <ele>1356.981</ele>
        <time>2021-10-16T09:10:46Z</time>
      </trkpt>
      <trkpt lat="40.324943" lon="-4.929638">
        <ele>1357.519</ele>
        <time>2021-10-16T09:10:47Z</time>
      </trkpt>
      <trkpt lat="40.324787" lon="-4.929763">
        <ele>1360.208</ele>
        <time>2021-10-16T09:10:49Z</time>
      </trkpt>
      <trkpt lat="40.324716" lon="-4.929804">
        <ele>1360.597</ele>
        <time>2021-10-16T09:10:50Z</time>
      </trkpt>
      <trkpt lat="40.324581" lon="-4.929819">
        <ele>1361.295</ele>
        <time>2021-10-16T09:10:52Z</time>
      </trkpt>
      <trkpt lat="40.324518" lon="-4.929798">
        <ele>1361.414</ele>
        <time>2021-10-16T09:10:53Z</time>
      </trkpt>
      <trkpt lat="40.324410" lon="-4.929684">
        <ele>1361.978</ele>
        <time>2021-10-16T09:10:55Z</time>
      </trkpt>
      <trkpt lat="40.324344" lon="-4.929608">
        <ele>1361.193</ele>
        <time>2021-10-16T09:10:56Z</time>
      </trkpt>
      <trkpt lat="40.324209" lon="-4.929531">
        <ele>1358.542</ele>
        <time>2021-10-16T09:10:58Z</time>
      </trkpt>
      <trkpt lat="40.324134" lon="-4.929552">
        <ele>1359.524</ele>
        <time>2021-10-16T09:10:59Z</time>
      </trkpt>
      <trkpt lat="40.324038" lon="-4.929614">
        <ele>1360.941</ele>
        <time>2021-10-16T09:11:00Z</time>
      </trkpt>
      <trkpt lat="40.323908" lon="-4.929693">
        <ele>1359.588</ele>
        <time>2021-10-16T09:11:01Z</time>
      </trkpt>
      <trkpt lat="40.323749" lon="-4.929764">
        <ele>1360.824</ele>
        <time>2021-10-16T09:11:02Z</time>
      </trkpt>
      <trkpt lat="40.323425" lon="-4.929900">
        <ele>1363.326</ele>
        <time>2021-10-16T09:11:04Z</time>
      </trkpt>
      <trkpt lat="40.323150" lon="-4.930147">
        <ele>1368.208</ele>
        <time>2021-10-16T09:11:06Z</time>
      </trkpt>
      <trkpt lat="40.322909" lon="-4.930450">
        <ele>1369.716</ele>
        <time>2021-10-16T09:11:08Z</time>
      </trkpt>
      <trkpt lat="40.322755" lon="-4.930759">
        <ele>1372.684</ele>
        <time>2021-10-16T09:11:10Z</time>
      </trkpt>
      <trkpt lat="40.322656" lon="-4.931152">
        <ele>1379.073</ele>
        <time>2021-10-16T09:11:12Z</time>
      </trkpt>
      <trkpt lat="40.322514" lon="-4.931519">
        <ele>1379.577</ele>
        <time>2021-10-16T09:11:14Z</time>
      </trkpt>
      <trkpt lat="40.322282" lon="-4.931839">
        <ele>1380.932</ele>
        <time>2021-10-16T09:11:16Z</time>
      </trkpt>
      <trkpt lat="40.322148" lon="-4.931989">
        <ele>1384.051</ele>
        <time>2021-10-16T09:11:17Z</time>
      </trkpt>
      <trkpt lat="40.321947" lon="-4.932331">
        <ele>1390.973</ele>
        <time>2021-10-16T09:11:19Z</time>
      </trkpt>
      <trkpt lat="40.321887" lon="-4.932511">
        <ele>1389.440</ele>
        <time>2021-10-16T09:11:20Z</time>
      </trkpt>
      <trkpt lat="40.321826" lon="-4.932841">
        <ele>1392.156</ele>
        <time>2021-10-16T09:11:22Z</time>
      </trkpt>
      <trkpt lat="40.321722" lon="-4.933096">
        <ele>1394.759</ele>
        <time>2021-10-16T09:11:24Z</time>
      </trkpt>
      <trkpt lat="40.321628" lon="-4.933184">
        <ele>1396.614</ele>
        <time>2021-10-16T09:11:25Z</time>
      </trkpt>
      <trkpt lat="40.321498" lon="-4.933255">
        <ele>1399.908</ele>
        <time>2021-10-16T09:11:26Z</time>
      </trkpt>
      <trkpt lat="40.321174" lon="-4.933381">
        <ele>1399.183</ele>
        <time>2021-10-16T09:11:28Z</time>
      </trkpt>
      <trkpt lat="40.320878" lon="-4.933570">
        <ele>1402.171</ele>
        <time>2021-10-16T09:11:30Z</time>
      </trkpt>
      <trkpt lat="40.320637" lon="-4.933884">
        <ele>1402.920</ele>
        <time>2021-10-16T09:11:32Z</time>
      </trkpt>
      <trkpt lat="40.320414" lon="-4.934284">
        <ele>1405.534</ele>
        <time>2021-10-16T09:11:34Z</time>
      </trkpt>
      <trkpt lat="40.320302" lon="-4.934499">
        <ele>1406.959</ele>
        <time>2021-10-16T09:11:35Z</time>
      </trkpt>
      <trkpt lat="40.320102" lon="-4.934864">
        <ele>1406.648</ele>
        <time>2021-10-16T09:11:37Z</time>
      </trkpt>
      <trkpt lat="40.319979" lon="-4.935023">
        <ele>1409.040</ele>
        <time>2021-10-16T09:11:38Z</time>
      </trkpt>
      <trkpt lat="40.319658" lon="-4.935248">
        <ele>1409.987</ele>
        <time>2021-10-16T09:11:40Z</time>
      </trkpt>
      <trkpt lat="40.319481" lon="-4.935329">
        <ele>1411.786</ele>
        <time>2021-10-16T09:11:41Z</time>
      </trkpt>
      <trkpt lat="40.319171" lon="-4.935540">
        <ele>1415.260</ele>
        <time>2021-10-16T09:11:43Z</time>
      </trkpt>
      <trkpt lat="40.319050" lon="-4.935672">
        <ele>1416.226</ele>
        <time>2021-10-16T09:11:44Z</time>
      </trkpt>
      <trkpt lat="40.318903" lon="-4.935971">
        <ele>1420.908</ele>
        <time>2021-10-16T09:11:46Z</time>
      </trkpt>
      <trkpt lat="40.318863" lon="-4.936155">
        <ele>1421.346</ele>
        <time>2021-10-16T09:11:47Z</time>
      </trkpt>
      <trkpt lat="40.318830" lon="-4.936360">
        <ele>1422.744</ele>
        <time>2021-10-16T09:11:48Z</time>
      </trkpt>
      <trkpt lat="40.318755" lon="-4.936788">
        <ele>1424.753</ele>
        <time>2021-10-16T09:11:50Z</time>
      </trkpt>
      <trkpt lat="40.318756" lon="-4.937192">
        <ele>1427.997</ele>
        <time>2021-10-16T09:11:52Z</time>
      </trkpt>
      <trkpt lat="40.318785" lon="-4.937378">
        <ele>1430.282</ele>
        <time>2021-10-16T09:11:53Z</time>
      </trkpt>
      <trkpt lat="40.318810" lon="-4.937556">
        <ele>1431.941</ele>
        <time>2021-10-16T09:11:54Z</time>
      </trkpt>
      <trkpt lat="40.318841" lon="-4.937826">
        <ele>1431.833</ele>
        <time>2021-10-16T09:11:56Z</time>
      </trkpt>
      <trkpt lat="40.318837" lon="-4.937921">
        <ele>1431.680</ele>
        <time>2021-10-16T09:11:57Z</time>
      </trkpt>
      <trkpt lat="40.318807" lon="-4.938001">
        <ele>1430.783</ele>
        <time>2021-10-16T09:11:58Z</time>
      </trkpt>
      <trkpt lat="40.318747" lon="-4.938062">
        <ele>1432.025</ele>
        <time>2021-10-16T09:11:59Z</time>
      </trkpt>
      <trkpt lat="40.318568" lon="-4.938085">
        <ele>1434.117</ele>
        <time>2021-10-16T09:12:01Z</time>
      </trkpt>
      <trkpt lat="40.318345" lon="-4.937986">
        <ele>1436.408</ele>
        <time>2021-10-16T09:12:03Z</time>
      </trkpt>
      <trkpt lat="40.318142" lon="-4.937987">
        <ele>1436.466</ele>
        <time>2021-10-16T09:12:05Z</time>
      </trkpt>
      <trkpt lat="40.317956" lon="-4.938153">
        <ele>1439.834</ele>
        <time>2021-10-16T09:12:07Z</time>
      </trkpt>
      <trkpt lat="40.317871" lon="-4.938300">
        <ele>1439.893</ele>
        <time>2021-10-16T09:12:08Z</time>
      </trkpt>
      <trkpt lat="40.317700" lon="-4.938552">
        <ele>1440.777</ele>
        <time>2021-10-16T09:12:10Z</time>
      </trkpt>
      <trkpt lat="40.317591" lon="-4.938600">
        <ele>1441.752</ele>
        <time>2021-10-16T09:12:11Z</time>
      </trkpt>
      <trkpt lat="40.317362" lon="-4.938528">
        <ele>1441.641</ele>
        <time>2021-10-16T09:12:13Z</time>
      </trkpt>
      <trkpt lat="40.317244" lon="-4.938469">
        <ele>1441.643</ele>
        <time>2021-10-16T09:12:14Z</time>
      </trkpt>
      <trkpt lat="40.316977" lon="-4.938509">
        <ele>1444.350</ele>
        <time>2021-10-16T09:12:16Z</time>
      </trkpt>
      <trkpt lat="40.316843" lon="-4.938599">
        <ele>1443.454</ele>
        <time>2021-10-16T09:12:17Z</time>
      </trkpt>
      <trkpt lat="40.316659" lon="-4.938871">
        <ele>1444.556</ele>
        <time>2021-10-16T09:12:19Z</time>
      </trkpt>
      <trkpt lat="40.316621" lon="-4.939051">
        <ele>1444.211</ele>
        <time>2021-10-16T09:12:20Z</time>
      </trkpt>
      <trkpt lat="40.316611" lon="-4.939444">
        <ele>1446.308</ele>
        <time>2021-10-16T09:12:22Z</time>
      </trkpt>
      <trkpt lat="40.316530" lon="-4.939772">
        <ele>1451.063</ele>
        <time>2021-10-16T09:12:24Z</time>
      </trkpt>
      <trkpt lat="40.316439" lon="-4.939878">
        <ele>1451.831</ele>
        <time>2021-10-16T09:12:25Z</time>
      </trkpt>
      <trkpt lat="40.316316" lon="-4.939936">
        <ele>1451.310</ele>
        <time>2021-10-16T09:12:26Z</time>
      </trkpt>
      <trkpt lat="40.316021" lon="-4.939947">
        <ele>1452.634</ele>
        <time>2021-10-16T09:12:28Z</time>
      </trkpt>
      <trkpt lat="40.315885" lon="-4.939978">
        <ele>1454.149</ele>
        <time>2021-10-16T09:12:29Z</time>
      </trkpt>
      <trkpt lat="40.315651" lon="-4.940181">
        <ele>1454.458</ele>
        <time>2021-10-16T09:12:31Z</time>
      </trkpt>
      <trkpt lat="40.315532" lon="-4.940350">
        <ele>1455.890</ele>
        <time>2021-10-16T09:12:32Z</time>
      </trkpt>
      <trkpt lat="40.315398" lon="-4.940551">
        <ele>1457.387</ele>
        <time>2021-10-16T09:12:33Z</time>
      </trkpt>
      <trkpt lat="40.315088" lon="-4.940985">
        <ele>1459.766</ele>
        <time>2021-10-16T09:12:35Z</time>
      </trkpt>
      <trkpt lat="40.314783" lon="-4.941336">
        <ele>1461.529</ele>
        <time>2021-10-16T09:12:37Z</time>
      </trkpt>
      <trkpt lat="40.314608" lon="-4.941461">
        <ele>1463.021</ele>
        <time>2021-10-16T09:12:38Z</time>
      </trkpt>
      <trkpt lat="40.314240" lon="-4.941672">
        <ele>1467.408</ele>
        <time>2021-10-16T09:12:40Z</time>
      </trkpt>
      <trkpt lat="40.314060" lon="-4.941794">
        <ele>1469.134</ele>
        <time>2021-10-16T09:12:41Z</time>
      </trkpt>
      <trkpt lat="40.313879" lon="-4.941905">
        <ele>1469.452</ele>
        <time>2021-10-16T09:12:42Z</time>
      </trkpt>
      <trkpt lat="40.313558" lon="-4.942086">
        <ele>1471.521</ele>
        <time>2021-10-16T09:12:44Z</time>
      </trkpt>
      <trkpt lat="40.313331" lon="-4.942322">
        <ele>1473.035</ele>
        <time>2021-10-16T09:12:46Z</time>
      </trkpt>
      <trkpt lat="40.313236" lon="-4.942499">
        <ele>1474.190</ele>
        <time>2021-10-16T09:12:47Z</time>
      </trkpt>
      <trkpt lat="40.313052" lon="-4.942911">
        <ele>1477.189</ele>
        <time>2021-10-16T09:12:49Z</time>
      </trkpt>
      <trkpt lat="40.312969" lon="-4.943127">
        <ele>1477.221</ele>
        <time>2021-10-16T09:12:50Z</time>
      </trkpt>
      <trkpt lat="40.312818" lon="-4.943459">
        <ele>1482.558</ele>
        <time>2021-10-16T09:12:52Z</time>
      </trkpt>
      <trkpt lat="40.312635" lon="-4.943618">
        <ele>1483.024</ele>
        <time>2021-10-16T09:12:54Z</time>
      </trkpt>
      <trkpt lat="40.312516" lon="-4.943617">
        <ele>1485.304</ele>
        <time>2021-10-16T09:12:55Z</time>
      </trkpt>
      <trkpt lat="40.312248" lon="-4.943599">
        <ele>1485.314</ele>
        <time>2021-10-16T09:12:57Z</time>
      </trkpt>
      <trkpt lat="40.312124" lon="-4.943660">
        <ele>1483.608</ele>
        <time>2021-10-16T09:12:58Z</time>
      </trkpt>
      <trkpt lat="40.312004" lon="-4.943765">
        <ele>1488.040</ele>
        <time>2021-10-16T09:12:59Z</time>
      </trkpt>
      <trkpt lat="40.311888" lon="-4.943897">
        <ele>1488.258</ele>
        <time>2021-10-16T09:13:00Z</time>
      </trkpt>
      <trkpt lat="40.311772" lon="-4.944034">
        <ele>1489.487</ele>
        <time>2021-10-16T09:13:01Z</time>
      </trkpt>
      <trkpt lat="40.311572" lon="-4.944358">
        <ele>1489.041</ele>
        <time>2021-10-16T09:13:03Z</time>
      </trkpt>
      <trkpt lat="40.311483" lon="-4.944536">
        <ele>1491.136</ele>
        <time>2021-10-16T09:13:04Z</time>
      </trkpt>
      <trkpt lat="40.311236" lon="-4.944834">
        <ele>1492.035</ele>
        <time>2021-10-16T09:13:06Z</time>
      </trkpt>
      <trkpt lat="40.311086" lon="-4.944978">
        <ele>1492.257</ele>
        <time>2021-10-16T09:13:07Z</time>
      </trkpt>
      <trkpt lat="40.310936" lon="-4.945133">
        <ele>1492.534</ele>
        <time>2021-10-16T09:13:08Z</time>
      </trkpt>
      <trkpt lat="40.310618" lon="-4.945489">
        <ele>1496.082</ele>
        <time>2021-10-16T09:13:10Z</time>
      </trkpt>
      <trkpt lat="40.310300" lon="-4.945911">
        <ele>1499.943</ele>
        <time>2021-10-16T09:13:12Z</time>
      </trkpt>
      <trkpt lat="40.310055" lon="-4.946324">
        <ele>1500.817</ele>
        <time>2021-10-16T09:13:14Z</time>
      </trkpt>
      <trkpt lat="40.309864" lon="-4.946613">
        <ele>1505.608</ele>
        <time>2021-10-16T09:13:16Z</time>
      </trkpt>
      <trkpt lat="40.309763" lon="-4.946696">
        <ele>1506.036</ele>
        <time>2021-10-16T09:13:17Z</time>
      </trkpt>
      <trkpt lat="40.309522" lon="-4.946768">
        <ele>1508.084</ele>
        <time>2021-10-16T09:13:19Z</time>
      </trkpt>
      <trkpt lat="40.309398" lon="-4.946827">
        <ele>1508.023</ele>
        <time>2021-10-16T09:13:20Z</time>
      </trkpt>
      <trkpt lat="40.309155" lon="-4.947053">
        <ele>1510.687</ele>
        <time>2021-10-16T09:13:22Z</time>
      </trkpt>
      <trkpt lat="40.308911" lon="-4.947364">
        <ele>1513.212</ele>
        <time>2021-10-16T09:13:24Z</time>
      </trkpt>
      <trkpt lat="40.308685" lon="-4.947751">
        <ele>1514.091</ele>
        <time>2021-10-16T09:13:26Z</time>
      </trkpt>
      <trkpt lat="40.308569" lon="-4.947944">
        <ele>1514.153</ele>
        <time>2021-10-16T09:13:27Z</time>
      </trkpt>
      <trkpt lat="40.308356" lon="-4.948257">
        <ele>1518.810</ele>
        <time>2021-10-16T09:13:29Z</time>
      </trkpt>
      <trkpt lat="40.308176" lon="-4.948456">
        <ele>1518.847</ele>
        <time>2021-10-16T09:13:31Z</time>
      </trkpt>
      <trkpt lat="40.307996" lon="-4.948504">
        <ele>1520.829</ele>
        <time>2021-10-16T09:13:33Z</time>
      </trkpt>
      <trkpt lat="40.307835" lon="-4.948388">
        <ele>1520.221</ele>
        <time>2021-10-16T09:13:35Z</time>
      </trkpt>
      <trkpt lat="40.307777" lon="-4.948280">
        <ele>1520.208</ele>
        <time>2021-10-16T09:13:36Z</time>
      </trkpt>
      <trkpt lat="40.307713" lon="-4.948114">
        <ele>1520.242</ele>
        <time>2021-10-16T09:13:38Z</time>
      </trkpt>
      <trkpt lat="40.307699" lon="-4.948057">
        <ele>1520.670</ele>
        <time>2021-10-16T09:13:56Z</time>
      </trkpt>
      <trkpt lat="40.307656" lon="-4.947992">
        <ele>1521.569</ele>
        <time>2021-10-16T09:15:32Z</time>
      </trkpt>
      <trkpt lat="40.307608" lon="-4.947965">
        <ele>1521.473</ele>
        <time>2021-10-16T09:15:35Z</time>
      </trkpt>
      <trkpt lat="40.307600" lon="-4.948029">
        <ele>1519.778</ele>
        <time>2021-10-16T09:20:17Z</time>
      </trkpt>
      <trkpt lat="40.307627" lon="-4.947980">
        <ele>1518.937</ele>
        <time>2021-10-16T09:20:51Z</time>
      </trkpt>
      <trkpt lat="40.307590" lon="-4.947935">
        <ele>1518.819</ele>
        <time>2021-10-16T09:21:04Z</time>
      </trkpt>
      <trkpt lat="40.307545" lon="-4.947906">
        <ele>1513.846</ele>
        <time>2021-10-16T09:21:07Z</time>
      </trkpt>
      <trkpt lat="40.307483" lon="-4.947882">
        <ele>1513.971</ele>
        <time>2021-10-16T09:21:10Z</time>
      </trkpt>
      <trkpt lat="40.307432" lon="-4.947915">
        <ele>1516.341</ele>
        <time>2021-10-16T09:21:14Z</time>
      </trkpt>
      <trkpt lat="40.307488" lon="-4.947949">
        <ele>1523.915</ele>
        <time>2021-10-16T09:21:36Z</time>
      </trkpt>
      <trkpt lat="40.307534" lon="-4.947915">
        <ele>1524.508</ele>
        <time>2021-10-16T09:21:43Z</time>
      </trkpt>
      <trkpt lat="40.307581" lon="-4.947884">
        <ele>1524.195</ele>
        <time>2021-10-16T09:21:48Z</time>
      </trkpt>
      <trkpt lat="40.307632" lon="-4.947893">
        <ele>1524.033</ele>
        <time>2021-10-16T09:21:51Z</time>
      </trkpt>
      <trkpt lat="40.307594" lon="-4.947926">
        <ele>1523.042</ele>
        <time>2021-10-16T09:26:31Z</time>
      </trkpt>
      <trkpt lat="40.307550" lon="-4.947944">
        <ele>1523.086</ele>
        <time>2021-10-16T09:26:40Z</time>
      </trkpt>
      <trkpt lat="40.307482" lon="-4.947923">
        <ele>1522.531</ele>
        <time>2021-10-16T09:36:13Z</time>
      </trkpt>
      <trkpt lat="40.307424" lon="-4.947979">
        <ele>1522.540</ele>
        <time>2021-10-16T09:36:15Z</time>
      </trkpt>
      <trkpt lat="40.307391" lon="-4.948104">
        <ele>1522.212</ele>
        <time>2021-10-16T09:36:17Z</time>
      </trkpt>
      <trkpt lat="40.307380" lon="-4.948237">
        <ele>1523.839</ele>
        <time>2021-10-16T09:36:19Z</time>
      </trkpt>
      <trkpt lat="40.307372" lon="-4.948326">
        <ele>1523.235</ele>
        <time>2021-10-16T09:36:21Z</time>
      </trkpt>
      <trkpt lat="40.307364" lon="-4.948426">
        <ele>1522.886</ele>
        <time>2021-10-16T09:36:23Z</time>
      </trkpt>
      <trkpt lat="40.307350" lon="-4.948572">
        <ele>1522.814</ele>
        <time>2021-10-16T09:36:25Z</time>
      </trkpt>
      <trkpt lat="40.307341" lon="-4.948650">
        <ele>1522.808</ele>
        <time>2021-10-16T09:36:26Z</time>
      </trkpt>
      <trkpt lat="40.307323" lon="-4.948809">
        <ele>1522.771</ele>
        <time>2021-10-16T09:36:28Z</time>
      </trkpt>
      <trkpt lat="40.307302" lon="-4.949012">
        <ele>1520.389</ele>
        <time>2021-10-16T09:36:30Z</time>
      </trkpt>
      <trkpt lat="40.307291" lon="-4.949128">
        <ele>1517.538</ele>
        <time>2021-10-16T09:36:31Z</time>
      </trkpt>
      <trkpt lat="40.307280" lon="-4.949252">
        <ele>1518.382</ele>
        <time>2021-10-16T09:36:32Z</time>
      </trkpt>
      <trkpt lat="40.307257" lon="-4.949499">
        <ele>1518.067</ele>
        <time>2021-10-16T09:36:34Z</time>
      </trkpt>
      <trkpt lat="40.307244" lon="-4.949631">
        <ele>1517.646</ele>
        <time>2021-10-16T09:36:35Z</time>
      </trkpt>
      <trkpt lat="40.307230" lon="-4.949773">
        <ele>1516.088</ele>
        <time>2021-10-16T09:36:36Z</time>
      </trkpt>
      <trkpt lat="40.307222" lon="-4.950053">
        <ele>1516.015</ele>
        <time>2021-10-16T09:36:38Z</time>
      </trkpt>
      <trkpt lat="40.307236" lon="-4.950307">
        <ele>1517.326</ele>
        <time>2021-10-16T09:36:40Z</time>
      </trkpt>
      <trkpt lat="40.307241" lon="-4.950433">
        <ele>1516.447</ele>
        <time>2021-10-16T09:36:41Z</time>
      </trkpt>
      <trkpt lat="40.307231" lon="-4.950699">
        <ele>1514.711</ele>
        <time>2021-10-16T09:36:43Z</time>
      </trkpt>
      <trkpt lat="40.307209" lon="-4.950843">
        <ele>1513.708</ele>
        <time>2021-10-16T09:36:44Z</time>
      </trkpt>
      <trkpt lat="40.307147" lon="-4.951148">
        <ele>1512.340</ele>
        <time>2021-10-16T09:36:46Z</time>
      </trkpt>
      <trkpt lat="40.307115" lon="-4.951304">
        <ele>1511.978</ele>
        <time>2021-10-16T09:36:47Z</time>
      </trkpt>
      <trkpt lat="40.307048" lon="-4.951620">
        <ele>1511.337</ele>
        <time>2021-10-16T09:36:49Z</time>
      </trkpt>
      <trkpt lat="40.307013" lon="-4.951780">
        <ele>1510.521</ele>
        <time>2021-10-16T09:36:50Z</time>
      </trkpt>
      <trkpt lat="40.306961" lon="-4.952101">
        <ele>1508.996</ele>
        <time>2021-10-16T09:36:52Z</time>
      </trkpt>
      <trkpt lat="40.306992" lon="-4.952435">
        <ele>1508.975</ele>
        <time>2021-10-16T09:36:54Z</time>
      </trkpt>
      <trkpt lat="40.307027" lon="-4.952598">
        <ele>1508.697</ele>
        <time>2021-10-16T09:36:55Z</time>
      </trkpt>
      <trkpt lat="40.307042" lon="-4.952917">
        <ele>1507.164</ele>
        <time>2021-10-16T09:36:57Z</time>
      </trkpt>
      <trkpt lat="40.307014" lon="-4.953079">
        <ele>1505.658</ele>
        <time>2021-10-16T09:36:58Z</time>
      </trkpt>
      <trkpt lat="40.306965" lon="-4.953241">
        <ele>1505.652</ele>
        <time>2021-10-16T09:36:59Z</time>
      </trkpt>
      <trkpt lat="40.306849" lon="-4.953566">
        <ele>1503.617</ele>
        <time>2021-10-16T09:37:01Z</time>
      </trkpt>
      <trkpt lat="40.306731" lon="-4.953899">
        <ele>1500.908</ele>
        <time>2021-10-16T09:37:03Z</time>
      </trkpt>
      <trkpt lat="40.306615" lon="-4.954234">
        <ele>1500.123</ele>
        <time>2021-10-16T09:37:05Z</time>
      </trkpt>
      <trkpt lat="40.306523" lon="-4.954557">
        <ele>1497.811</ele>
        <time>2021-10-16T09:37:07Z</time>
      </trkpt>
      <trkpt lat="40.306495" lon="-4.954715">
        <ele>1497.570</ele>
        <time>2021-10-16T09:37:08Z</time>
      </trkpt>
      <trkpt lat="40.306463" lon="-4.955016">
        <ele>1497.594</ele>
        <time>2021-10-16T09:37:10Z</time>
      </trkpt>
      <trkpt lat="40.306428" lon="-4.955153">
        <ele>1498.169</ele>
        <time>2021-10-16T09:37:11Z</time>
      </trkpt>
      <trkpt lat="40.306291" lon="-4.955371">
        <ele>1499.398</ele>
        <time>2021-10-16T09:37:13Z</time>
      </trkpt>
      <trkpt lat="40.306196" lon="-4.955455">
        <ele>1499.320</ele>
        <time>2021-10-16T09:37:14Z</time>
      </trkpt>
      <trkpt lat="40.306039" lon="-4.955642">
        <ele>1497.717</ele>
        <time>2021-10-16T09:37:16Z</time>
      </trkpt>
      <trkpt lat="40.306007" lon="-4.955769">
        <ele>1498.551</ele>
        <time>2021-10-16T09:37:17Z</time>
      </trkpt>
      <trkpt lat="40.305980" lon="-4.956060">
        <ele>1497.901</ele>
        <time>2021-10-16T09:37:19Z</time>
      </trkpt>
      <trkpt lat="40.305952" lon="-4.956215">
        <ele>1496.111</ele>
        <time>2021-10-16T09:37:20Z</time>
      </trkpt>
      <trkpt lat="40.305841" lon="-4.956519">
        <ele>1496.108</ele>
        <time>2021-10-16T09:37:22Z</time>
      </trkpt>
      <trkpt lat="40.305769" lon="-4.956676">
        <ele>1496.523</ele>
        <time>2021-10-16T09:37:23Z</time>
      </trkpt>
      <trkpt lat="40.305612" lon="-4.957004">
        <ele>1492.491</ele>
        <time>2021-10-16T09:37:25Z</time>
      </trkpt>
      <trkpt lat="40.305519" lon="-4.957172">
        <ele>1492.430</ele>
        <time>2021-10-16T09:37:26Z</time>
      </trkpt>
      <trkpt lat="40.305311" lon="-4.957475">
        <ele>1489.024</ele>
        <time>2021-10-16T09:37:28Z</time>
      </trkpt>
      <trkpt lat="40.305210" lon="-4.957624">
        <ele>1489.089</ele>
        <time>2021-10-16T09:37:29Z</time>
      </trkpt>
      <trkpt lat="40.305086" lon="-4.957960">
        <ele>1486.158</ele>
        <time>2021-10-16T09:37:31Z</time>
      </trkpt>
      <trkpt lat="40.305059" lon="-4.958130">
        <ele>1483.240</ele>
        <time>2021-10-16T09:37:32Z</time>
      </trkpt>
      <trkpt lat="40.304956" lon="-4.958411">
        <ele>1482.847</ele>
        <time>2021-10-16T09:37:34Z</time>
      </trkpt>
      <trkpt lat="40.304728" lon="-4.958588">
        <ele>1482.558</ele>
        <time>2021-10-16T09:37:36Z</time>
      </trkpt>
      <trkpt lat="40.304591" lon="-4.958657">
        <ele>1480.252</ele>
        <time>2021-10-16T09:37:37Z</time>
      </trkpt>
      <trkpt lat="40.304444" lon="-4.958720">
        <ele>1479.717</ele>
        <time>2021-10-16T09:37:38Z</time>
      </trkpt>
      <trkpt lat="40.304143" lon="-4.958846">
        <ele>1475.308</ele>
        <time>2021-10-16T09:37:40Z</time>
      </trkpt>
      <trkpt lat="40.303850" lon="-4.958983">
        <ele>1475.433</ele>
        <time>2021-10-16T09:37:42Z</time>
      </trkpt>
      <trkpt lat="40.303710" lon="-4.959081">
        <ele>1472.641</ele>
        <time>2021-10-16T09:37:43Z</time>
      </trkpt>
      <trkpt lat="40.303574" lon="-4.959201">
        <ele>1471.870</ele>
        <time>2021-10-16T09:37:44Z</time>
      </trkpt>
      <trkpt lat="40.303303" lon="-4.959452">
        <ele>1470.524</ele>
        <time>2021-10-16T09:37:46Z</time>
      </trkpt>
      <trkpt lat="40.303167" lon="-4.959574">
        <ele>1469.069</ele>
        <time>2021-10-16T09:37:47Z</time>
      </trkpt>
      <trkpt lat="40.302909" lon="-4.959806">
        <ele>1468.238</ele>
        <time>2021-10-16T09:37:49Z</time>
      </trkpt>
      <trkpt lat="40.302786" lon="-4.959914">
        <ele>1466.950</ele>
        <time>2021-10-16T09:37:50Z</time>
      </trkpt>
      <trkpt lat="40.302556" lon="-4.960110">
        <ele>1464.057</ele>
        <time>2021-10-16T09:37:52Z</time>
      </trkpt>
      <trkpt lat="40.302441" lon="-4.960196">
        <ele>1463.751</ele>
        <time>2021-10-16T09:37:53Z</time>
      </trkpt>
      <trkpt lat="40.302239" lon="-4.960351">
        <ele>1461.401</ele>
        <time>2021-10-16T09:37:55Z</time>
      </trkpt>
      <trkpt lat="40.302076" lon="-4.960476">
        <ele>1460.811</ele>
        <time>2021-10-16T09:37:57Z</time>
      </trkpt>
      <trkpt lat="40.301943" lon="-4.960513">
        <ele>1457.608</ele>
        <time>2021-10-16T09:37:59Z</time>
      </trkpt>
      <trkpt lat="40.301897" lon="-4.960478">
        <ele>1456.993</ele>
        <time>2021-10-16T09:38:00Z</time>
      </trkpt>
      <trkpt lat="40.301868" lon="-4.960320">
        <ele>1457.061</ele>
        <time>2021-10-16T09:38:02Z</time>
      </trkpt>
      <trkpt lat="40.301951" lon="-4.960132">
        <ele>1455.370</ele>
        <time>2021-10-16T09:38:04Z</time>
      </trkpt>
      <trkpt lat="40.302040" lon="-4.960049">
        <ele>1455.054</ele>
        <time>2021-10-16T09:38:05Z</time>
      </trkpt>
      <trkpt lat="40.302155" lon="-4.959975">
        <ele>1453.169</ele>
        <time>2021-10-16T09:38:06Z</time>
      </trkpt>
      <trkpt lat="40.302397" lon="-4.959791">
        <ele>1452.018</ele>
        <time>2021-10-16T09:38:08Z</time>
      </trkpt>
      <trkpt lat="40.302635" lon="-4.959546">
        <ele>1449.710</ele>
        <time>2021-10-16T09:38:10Z</time>
      </trkpt>
      <trkpt lat="40.302832" lon="-4.959237">
        <ele>1446.227</ele>
        <time>2021-10-16T09:38:12Z</time>
      </trkpt>
      <trkpt lat="40.302917" lon="-4.959070">
        <ele>1445.986</ele>
        <time>2021-10-16T09:38:13Z</time>
      </trkpt>
      <trkpt lat="40.303004" lon="-4.958911">
        <ele>1445.360</ele>
        <time>2021-10-16T09:38:14Z</time>
      </trkpt>
      <trkpt lat="40.303191" lon="-4.958656">
        <ele>1444.026</ele>
        <time>2021-10-16T09:38:16Z</time>
      </trkpt>
      <trkpt lat="40.303294" lon="-4.958553">
        <ele>1443.808</ele>
        <time>2021-10-16T09:38:17Z</time>
      </trkpt>
      <trkpt lat="40.303506" lon="-4.958358">
        <ele>1443.976</ele>
        <time>2021-10-16T09:38:19Z</time>
      </trkpt>
      <trkpt lat="40.303619" lon="-4.958275">
        <ele>1443.634</ele>
        <time>2021-10-16T09:38:20Z</time>
      </trkpt>
      <trkpt lat="40.303852" lon="-4.958179">
        <ele>1441.723</ele>
        <time>2021-10-16T09:38:22Z</time>
      </trkpt>
      <trkpt lat="40.303958" lon="-4.958127">
        <ele>1441.727</ele>
        <time>2021-10-16T09:38:23Z</time>
      </trkpt>
      <trkpt lat="40.304114" lon="-4.957965">
        <ele>1440.662</ele>
        <time>2021-10-16T09:38:25Z</time>
      </trkpt>
      <trkpt lat="40.304159" lon="-4.957870">
        <ele>1440.681</ele>
        <time>2021-10-16T09:38:26Z</time>
      </trkpt>
      <trkpt lat="40.304131" lon="-4.957634">
        <ele>1441.183</ele>
        <time>2021-10-16T09:38:28Z</time>
      </trkpt>
      <trkpt lat="40.304093" lon="-4.957481">
        <ele>1439.630</ele>
        <time>2021-10-16T09:38:29Z</time>
      </trkpt>
      <trkpt lat="40.304102" lon="-4.957149">
        <ele>1439.613</ele>
        <time>2021-10-16T09:38:31Z</time>
      </trkpt>
      <trkpt lat="40.304162" lon="-4.956986">
        <ele>1440.643</ele>
        <time>2021-10-16T09:38:32Z</time>
      </trkpt>
      <trkpt lat="40.304260" lon="-4.956833">
        <ele>1440.607</ele>
        <time>2021-10-16T09:38:33Z</time>
      </trkpt>
      <trkpt lat="40.304508" lon="-4.956540">
        <ele>1436.308</ele>
        <time>2021-10-16T09:38:35Z</time>
      </trkpt>
      <trkpt lat="40.304626" lon="-4.956380">
        <ele>1436.639</ele>
        <time>2021-10-16T09:38:36Z</time>
      </trkpt>
      <trkpt lat="40.304728" lon="-4.956202">
        <ele>1435.837</ele>
        <time>2021-10-16T09:38:37Z</time>
      </trkpt>
      <trkpt lat="40.304812" lon="-4.956007">
        <ele>1435.466</ele>
        <time>2021-10-16T09:38:38Z</time>
      </trkpt>
      <trkpt lat="40.304960" lon="-4.955595">
        <ele>1434.690</ele>
        <time>2021-10-16T09:38:40Z</time>
      </trkpt>
      <trkpt lat="40.305034" lon="-4.955384">
        <ele>1432.575</ele>
        <time>2021-10-16T09:38:41Z</time>
      </trkpt>
      <trkpt lat="40.305185" lon="-4.954969">
        <ele>1432.044</ele>
        <time>2021-10-16T09:38:43Z</time>
      </trkpt>
      <trkpt lat="40.305256" lon="-4.954769">
        <ele>1430.466</ele>
        <time>2021-10-16T09:38:44Z</time>
      </trkpt>
      <trkpt lat="40.305328" lon="-4.954396">
        <ele>1429.133</ele>
        <time>2021-10-16T09:38:46Z</time>
      </trkpt>
      <trkpt lat="40.305335" lon="-4.954042">
        <ele>1428.976</ele>
        <time>2021-10-16T09:38:48Z</time>
      </trkpt>
      <trkpt lat="40.305387" lon="-4.953707">
        <ele>1426.990</ele>
        <time>2021-10-16T09:38:50Z</time>
      </trkpt>
      <trkpt lat="40.305450" lon="-4.953367">
        <ele>1426.919</ele>
        <time>2021-10-16T09:38:52Z</time>
      </trkpt>
      <trkpt lat="40.305424" lon="-4.952994">
        <ele>1425.408</ele>
        <time>2021-10-16T09:38:54Z</time>
      </trkpt>
      <trkpt lat="40.305392" lon="-4.952779">
        <ele>1424.955</ele>
        <time>2021-10-16T09:38:55Z</time>
      </trkpt>
      <trkpt lat="40.305361" lon="-4.952542">
        <ele>1424.273</ele>
        <time>2021-10-16T09:38:56Z</time>
      </trkpt>
      <trkpt lat="40.305295" lon="-4.952088">
        <ele>1421.752</ele>
        <time>2021-10-16T09:38:58Z</time>
      </trkpt>
      <trkpt lat="40.305260" lon="-4.951871">
        <ele>1420.776</ele>
        <time>2021-10-16T09:38:59Z</time>
      </trkpt>
      <trkpt lat="40.305179" lon="-4.951488">
        <ele>1417.351</ele>
        <time>2021-10-16T09:39:01Z</time>
      </trkpt>
      <trkpt lat="40.305138" lon="-4.951317">
        <ele>1417.040</ele>
        <time>2021-10-16T09:39:02Z</time>
      </trkpt>
      <trkpt lat="40.305115" lon="-4.951014">
        <ele>1417.622</ele>
        <time>2021-10-16T09:39:04Z</time>
      </trkpt>
      <trkpt lat="40.305135" lon="-4.950854">
        <ele>1417.069</ele>
        <time>2021-10-16T09:39:05Z</time>
      </trkpt>
      <trkpt lat="40.305165" lon="-4.950680">
        <ele>1414.854</ele>
        <time>2021-10-16T09:39:06Z</time>
      </trkpt>
      <trkpt lat="40.305197" lon="-4.950492">
        <ele>1414.856</ele>
        <time>2021-10-16T09:39:07Z</time>
      </trkpt>
      <trkpt lat="40.305225" lon="-4.950287">
        <ele>1414.611</ele>
        <time>2021-10-16T09:39:08Z</time>
      </trkpt>
      <trkpt lat="40.305274" lon="-4.949897">
        <ele>1414.708</ele>
        <time>2021-10-16T09:39:10Z</time>
      </trkpt>
      <trkpt lat="40.305289" lon="-4.949716">
        <ele>1414.933</ele>
        <time>2021-10-16T09:39:11Z</time>
      </trkpt>
      <trkpt lat="40.305264" lon="-4.949388">
        <ele>1415.071</ele>
        <time>2021-10-16T09:39:13Z</time>
      </trkpt>
      <trkpt lat="40.305210" lon="-4.949247">
        <ele>1413.410</ele>
        <time>2021-10-16T09:39:14Z</time>
      </trkpt>
      <trkpt lat="40.304992" lon="-4.949055">
        <ele>1413.464</ele>
        <time>2021-10-16T09:39:16Z</time>
      </trkpt>
      <trkpt lat="40.304836" lon="-4.948989">
        <ele>1412.589</ele>
        <time>2021-10-16T09:39:17Z</time>
      </trkpt>
      <trkpt lat="40.304507" lon="-4.948892">
        <ele>1409.978</ele>
        <time>2021-10-16T09:39:19Z</time>
      </trkpt>
      <trkpt lat="40.304340" lon="-4.948883">
        <ele>1409.710</ele>
        <time>2021-10-16T09:39:20Z</time>
      </trkpt>
      <trkpt lat="40.304025" lon="-4.948970">
        <ele>1407.947</ele>
        <time>2021-10-16T09:39:22Z</time>
      </trkpt>
      <trkpt lat="40.303707" lon="-4.949077">
        <ele>1407.447</ele>
        <time>2021-10-16T09:39:24Z</time>
      </trkpt>
      <trkpt lat="40.303535" lon="-4.949082">
        <ele>1405.229</ele>
        <time>2021-10-16T09:39:25Z</time>
      </trkpt>
      <trkpt lat="40.303360" lon="-4.949058">
        <ele>1402.721</ele>
        <time>2021-10-16T09:39:26Z</time>
      </trkpt>
      <trkpt lat="40.303050" lon="-4.948912">
        <ele>1402.108</ele>
        <time>2021-10-16T09:39:28Z</time>
      </trkpt>
      <trkpt lat="40.302840" lon="-4.948691">
        <ele>1400.542</ele>
        <time>2021-10-16T09:39:30Z</time>
      </trkpt>
      <trkpt lat="40.302792" lon="-4.948570">
        <ele>1397.120</ele>
        <time>2021-10-16T09:39:31Z</time>
      </trkpt>
      <trkpt lat="40.302781" lon="-4.948433">
        <ele>1393.819</ele>
        <time>2021-10-16T09:39:32Z</time>
      </trkpt>
      <trkpt lat="40.302799" lon="-4.948128">
        <ele>1393.133</ele>
        <time>2021-10-16T09:39:34Z</time>
      </trkpt>
      <trkpt lat="40.302766" lon="-4.947773">
        <ele>1392.248</ele>
        <time>2021-10-16T09:39:36Z</time>
      </trkpt>
      <trkpt lat="40.302661" lon="-4.947384">
        <ele>1387.027</ele>
        <time>2021-10-16T09:39:38Z</time>
      </trkpt>
      <trkpt lat="40.302526" lon="-4.947011">
        <ele>1384.829</ele>
        <time>2021-10-16T09:39:40Z</time>
      </trkpt>
      <trkpt lat="40.302436" lon="-4.946616">
        <ele>1380.926</ele>
        <time>2021-10-16T09:39:42Z</time>
      </trkpt>
      <trkpt lat="40.302411" lon="-4.946401">
        <ele>1380.688</ele>
        <time>2021-10-16T09:39:43Z</time>
      </trkpt>
      <trkpt lat="40.302392" lon="-4.946179">
        <ele>1378.824</ele>
        <time>2021-10-16T09:39:44Z</time>
      </trkpt>
      <trkpt lat="40.302359" lon="-4.945729">
        <ele>1374.926</ele>
        <time>2021-10-16T09:39:46Z</time>
      </trkpt>
      <trkpt lat="40.302344" lon="-4.945280">
        <ele>1373.208</ele>
        <time>2021-10-16T09:39:48Z</time>
      </trkpt>
      <trkpt lat="40.302355" lon="-4.945070">
        <ele>1372.576</ele>
        <time>2021-10-16T09:39:49Z</time>
      </trkpt>
      <trkpt lat="40.302374" lon="-4.944872">
        <ele>1371.344</ele>
        <time>2021-10-16T09:39:50Z</time>
      </trkpt>
      <trkpt lat="40.302439" lon="-4.944517">
        <ele>1370.173</ele>
        <time>2021-10-16T09:39:52Z</time>
      </trkpt>
      <trkpt lat="40.302468" lon="-4.944354">
        <ele>1370.747</ele>
        <time>2021-10-16T09:39:53Z</time>
      </trkpt>
      <trkpt lat="40.302480" lon="-4.944078">
        <ele>1370.522</ele>
        <time>2021-10-16T09:39:55Z</time>
      </trkpt>
      <trkpt lat="40.302452" lon="-4.943953">
        <ele>1370.291</ele>
        <time>2021-10-16T09:39:56Z</time>
      </trkpt>
      <trkpt lat="40.302318" lon="-4.943787">
        <ele>1370.283</ele>
        <time>2021-10-16T09:39:58Z</time>
      </trkpt>
      <trkpt lat="40.302218" lon="-4.943760">
        <ele>1370.010</ele>
        <time>2021-10-16T09:39:59Z</time>
      </trkpt>
      <trkpt lat="40.302100" lon="-4.943780">
        <ele>1366.114</ele>
        <time>2021-10-16T09:40:00Z</time>
      </trkpt>
      <trkpt lat="40.301968" lon="-4.943831">
        <ele>1366.154</ele>
        <time>2021-10-16T09:40:01Z</time>
      </trkpt>
      <trkpt lat="40.301663" lon="-4.943948">
        <ele>1365.609</ele>
        <time>2021-10-16T09:40:03Z</time>
      </trkpt>
      <trkpt lat="40.301397" lon="-4.944004">
        <ele>1362.908</ele>
        <time>2021-10-16T09:40:05Z</time>
      </trkpt>
      <trkpt lat="40.301179" lon="-4.943919">
        <ele>1358.759</ele>
        <time>2021-10-16T09:40:07Z</time>
      </trkpt>
      <trkpt lat="40.301091" lon="-4.943810">
        <ele>1358.267</ele>
        <time>2021-10-16T09:40:08Z</time>
      </trkpt>
      <trkpt lat="40.300977" lon="-4.943482">
        <ele>1356.746</ele>
        <time>2021-10-16T09:40:10Z</time>
      </trkpt>
      <trkpt lat="40.300926" lon="-4.943292">
        <ele>1354.180</ele>
        <time>2021-10-16T09:40:11Z</time>
      </trkpt>
      <trkpt lat="40.300864" lon="-4.943121">
        <ele>1353.475</ele>
        <time>2021-10-16T09:40:12Z</time>
      </trkpt>
      <trkpt lat="40.300692" lon="-4.942894">
        <ele>1349.914</ele>
        <time>2021-10-16T09:40:14Z</time>
      </trkpt>
      <trkpt lat="40.300505" lon="-4.942804">
        <ele>1348.596</ele>
        <time>2021-10-16T09:40:16Z</time>
      </trkpt>
      <trkpt lat="40.300439" lon="-4.942733">
        <ele>1346.393</ele>
        <time>2021-10-16T09:40:17Z</time>
      </trkpt>
      <trkpt lat="40.300408" lon="-4.942511">
        <ele>1345.369</ele>
        <time>2021-10-16T09:40:19Z</time>
      </trkpt>
      <trkpt lat="40.300436" lon="-4.942376">
        <ele>1344.504</ele>
        <time>2021-10-16T09:40:20Z</time>
      </trkpt>
      <trkpt lat="40.300482" lon="-4.942101">
        <ele>1344.024</ele>
        <time>2021-10-16T09:40:22Z</time>
      </trkpt>
      <trkpt lat="40.300436" lon="-4.941879">
        <ele>1344.008</ele>
        <time>2021-10-16T09:40:24Z</time>
      </trkpt>
      <trkpt lat="40.300373" lon="-4.941819">
        <ele>1344.154</ele>
        <time>2021-10-16T09:40:25Z</time>
      </trkpt>
      <trkpt lat="40.300290" lon="-4.941800">
        <ele>1344.422</ele>
        <time>2021-10-16T09:40:26Z</time>
      </trkpt>
      <trkpt lat="40.300113" lon="-4.941914">
        <ele>1345.071</ele>
        <time>2021-10-16T09:40:28Z</time>
      </trkpt>
      <trkpt lat="40.300034" lon="-4.942020">
        <ele>1345.265</ele>
        <time>2021-10-16T09:40:29Z</time>
      </trkpt>
      <trkpt lat="40.299871" lon="-4.942195">
        <ele>1347.370</ele>
        <time>2021-10-16T09:40:31Z</time>
      </trkpt>
      <trkpt lat="40.299699" lon="-4.942255">
        <ele>1347.629</ele>
        <time>2021-10-16T09:40:33Z</time>
      </trkpt>
      <trkpt lat="40.299625" lon="-4.942299">
        <ele>1347.241</ele>
        <time>2021-10-16T09:40:34Z</time>
      </trkpt>
      <trkpt lat="40.299539" lon="-4.942471">
        <ele>1346.818</ele>
        <time>2021-10-16T09:40:36Z</time>
      </trkpt>
      <trkpt lat="40.299536" lon="-4.942600">
        <ele>1346.869</ele>
        <time>2021-10-16T09:40:37Z</time>
      </trkpt>
      <trkpt lat="40.299547" lon="-4.942755">
        <ele>1346.304</ele>
        <time>2021-10-16T09:40:38Z</time>
      </trkpt>
      <trkpt lat="40.299561" lon="-4.943119">
        <ele>1346.224</ele>
        <time>2021-10-16T09:40:40Z</time>
      </trkpt>
      <trkpt lat="40.299543" lon="-4.943512">
        <ele>1342.808</ele>
        <time>2021-10-16T09:40:42Z</time>
      </trkpt>
      <trkpt lat="40.299514" lon="-4.943707">
        <ele>1342.494</ele>
        <time>2021-10-16T09:40:43Z</time>
      </trkpt>
      <trkpt lat="40.299467" lon="-4.943898">
        <ele>1341.342</ele>
        <time>2021-10-16T09:40:44Z</time>
      </trkpt>
      <trkpt lat="40.299316" lon="-4.944273">
        <ele>1336.831</ele>
        <time>2021-10-16T09:40:46Z</time>
      </trkpt>
      <trkpt lat="40.299146" lon="-4.944664">
        <ele>1335.825</ele>
        <time>2021-10-16T09:40:48Z</time>
      </trkpt>
      <trkpt lat="40.299064" lon="-4.944855">
        <ele>1334.570</ele>
        <time>2021-10-16T09:40:49Z</time>
      </trkpt>
      <trkpt lat="40.298979" lon="-4.945030">
        <ele>1334.479</ele>
        <time>2021-10-16T09:40:50Z</time>
      </trkpt>
      <trkpt lat="40.298779" lon="-4.945299">
        <ele>1332.131</ele>
        <time>2021-10-16T09:40:52Z</time>
      </trkpt>
      <trkpt lat="40.298661" lon="-4.945388">
        <ele>1331.728</ele>
        <time>2021-10-16T09:40:53Z</time>
      </trkpt>
      <trkpt lat="40.298429" lon="-4.945521">
        <ele>1331.641</ele>
        <time>2021-10-16T09:40:55Z</time>
      </trkpt>
      <trkpt lat="40.298278" lon="-4.945753">
        <ele>1332.081</ele>
        <time>2021-10-16T09:40:57Z</time>
      </trkpt>
      <trkpt lat="40.298153" lon="-4.946038">
        <ele>1330.009</ele>
        <time>2021-10-16T09:40:59Z</time>
      </trkpt>
      <trkpt lat="40.298066" lon="-4.946161">
        <ele>1329.608</ele>
        <time>2021-10-16T09:41:00Z</time>
      </trkpt>
      <trkpt lat="40.297862" lon="-4.946318">
        <ele>1329.192</ele>
        <time>2021-10-16T09:41:02Z</time>
      </trkpt>
      <trkpt lat="40.297639" lon="-4.946334">
        <ele>1328.060</ele>
        <time>2021-10-16T09:41:04Z</time>
      </trkpt>
      <trkpt lat="40.297528" lon="-4.946282">
        <ele>1328.089</ele>
        <time>2021-10-16T09:41:05Z</time>
      </trkpt>
      <trkpt lat="40.297432" lon="-4.946184">
        <ele>1325.063</ele>
        <time>2021-10-16T09:41:06Z</time>
      </trkpt>
      <trkpt lat="40.297365" lon="-4.946039">
        <ele>1325.078</ele>
        <time>2021-10-16T09:41:07Z</time>
      </trkpt>
      <trkpt lat="40.297326" lon="-4.945851">
        <ele>1325.097</ele>
        <time>2021-10-16T09:41:08Z</time>
      </trkpt>
      <trkpt lat="40.297274" lon="-4.945483">
        <ele>1321.839</ele>
        <time>2021-10-16T09:41:10Z</time>
      </trkpt>
      <trkpt lat="40.297235" lon="-4.945347">
        <ele>1321.586</ele>
        <time>2021-10-16T09:41:11Z</time>
      </trkpt>
      <trkpt lat="40.297116" lon="-4.945190">
        <ele>1320.584</ele>
        <time>2021-10-16T09:41:13Z</time>
      </trkpt>
      <trkpt lat="40.297037" lon="-4.945156">
        <ele>1319.007</ele>
        <time>2021-10-16T09:41:14Z</time>
      </trkpt>
      <trkpt lat="40.296866" lon="-4.945220">
        <ele>1318.717</ele>
        <time>2021-10-16T09:41:16Z</time>
      </trkpt>
      <trkpt lat="40.296796" lon="-4.945337">
        <ele>1318.008</ele>
        <time>2021-10-16T09:41:17Z</time>
      </trkpt>
      <trkpt lat="40.296694" lon="-4.945700">
        <ele>1317.686</ele>
        <time>2021-10-16T09:41:19Z</time>
      </trkpt>
      <trkpt lat="40.296613" lon="-4.945869">
        <ele>1317.034</ele>
        <time>2021-10-16T09:41:20Z</time>
      </trkpt>
      <trkpt lat="40.296394" lon="-4.946138">
        <ele>1312.463</ele>
        <time>2021-10-16T09:41:22Z</time>
      </trkpt>
      <trkpt lat="40.296276" lon="-4.946249">
        <ele>1312.957</ele>
        <time>2021-10-16T09:41:23Z</time>
      </trkpt>
      <trkpt lat="40.296022" lon="-4.946424">
        <ele>1310.182</ele>
        <time>2021-10-16T09:41:25Z</time>
      </trkpt>
      <trkpt lat="40.295877" lon="-4.946486">
        <ele>1308.411</ele>
        <time>2021-10-16T09:41:26Z</time>
      </trkpt>
      <trkpt lat="40.295570" lon="-4.946593">
        <ele>1305.333</ele>
        <time>2021-10-16T09:41:28Z</time>
      </trkpt>
      <trkpt lat="40.295240" lon="-4.946720">
        <ele>1304.030</ele>
        <time>2021-10-16T09:41:30Z</time>
      </trkpt>
      <trkpt lat="40.295065" lon="-4.946786">
        <ele>1302.822</ele>
        <time>2021-10-16T09:41:31Z</time>
      </trkpt>
      <trkpt lat="40.294721" lon="-4.946906">
        <ele>1300.162</ele>
        <time>2021-10-16T09:41:33Z</time>
      </trkpt>
      <trkpt lat="40.294558" lon="-4.946963">
        <ele>1298.408</ele>
        <time>2021-10-16T09:41:34Z</time>
      </trkpt>
      <trkpt lat="40.294260" lon="-4.947057">
        <ele>1299.008</ele>
        <time>2021-10-16T09:41:36Z</time>
      </trkpt>
      <trkpt lat="40.293996" lon="-4.947035">
        <ele>1295.470</ele>
        <time>2021-10-16T09:41:38Z</time>
      </trkpt>
      <trkpt lat="40.293779" lon="-4.946868">
        <ele>1295.498</ele>
        <time>2021-10-16T09:41:40Z</time>
      </trkpt>
      <trkpt lat="40.293605" lon="-4.946706">
        <ele>1291.587</ele>
        <time>2021-10-16T09:41:42Z</time>
      </trkpt>
      <trkpt lat="40.293419" lon="-4.946698">
        <ele>1290.561</ele>
        <time>2021-10-16T09:41:44Z</time>
      </trkpt>
      <trkpt lat="40.293308" lon="-4.946867">
        <ele>1288.646</ele>
        <time>2021-10-16T09:41:46Z</time>
      </trkpt>
      <trkpt lat="40.293279" lon="-4.946998">
        <ele>1288.335</ele>
        <time>2021-10-16T09:41:47Z</time>
      </trkpt>
      <trkpt lat="40.293244" lon="-4.947144">
        <ele>1287.997</ele>
        <time>2021-10-16T09:41:48Z</time>
      </trkpt>
      <trkpt lat="40.293110" lon="-4.947367">
        <ele>1286.594</ele>
        <time>2021-10-16T09:41:50Z</time>
      </trkpt>
      <trkpt lat="40.292926" lon="-4.947428">
        <ele>1286.365</ele>
        <time>2021-10-16T09:41:52Z</time>
      </trkpt>
      <trkpt lat="40.292825" lon="-4.947419">
        <ele>1285.168</ele>
        <time>2021-10-16T09:41:53Z</time>
      </trkpt>
      <trkpt lat="40.292647" lon="-4.947509">
        <ele>1282.814</ele>
        <time>2021-10-16T09:41:55Z</time>
      </trkpt>
      <trkpt lat="40.292588" lon="-4.947625">
        <ele>1282.708</ele>
        <time>2021-10-16T09:41:56Z</time>
      </trkpt>
      <trkpt lat="40.292557" lon="-4.947924">
        <ele>1281.154</ele>
        <time>2021-10-16T09:41:58Z</time>
      </trkpt>
      <trkpt lat="40.292653" lon="-4.948254">
        <ele>1281.152</ele>
        <time>2021-10-16T09:42:00Z</time>
      </trkpt>
      <trkpt lat="40.292807" lon="-4.948552">
        <ele>1277.991</ele>
        <time>2021-10-16T09:42:02Z</time>
      </trkpt>
      <trkpt lat="40.292860" lon="-4.948706">
        <ele>1275.985</ele>
        <time>2021-10-16T09:42:03Z</time>
      </trkpt>
      <trkpt lat="40.292861" lon="-4.949023">
        <ele>1275.430</ele>
        <time>2021-10-16T09:42:05Z</time>
      </trkpt>
      <trkpt lat="40.292766" lon="-4.949361">
        <ele>1272.469</ele>
        <time>2021-10-16T09:42:07Z</time>
      </trkpt>
      <trkpt lat="40.292716" lon="-4.949540">
        <ele>1270.811</ele>
        <time>2021-10-16T09:42:08Z</time>
      </trkpt>
      <trkpt lat="40.292652" lon="-4.949880">
        <ele>1270.598</ele>
        <time>2021-10-16T09:42:10Z</time>
      </trkpt>
      <trkpt lat="40.292627" lon="-4.950224">
        <ele>1266.854</ele>
        <time>2021-10-16T09:42:12Z</time>
      </trkpt>
      <trkpt lat="40.292626" lon="-4.950391">
        <ele>1266.856</ele>
        <time>2021-10-16T09:42:13Z</time>
      </trkpt>
      <trkpt lat="40.292609" lon="-4.950558">
        <ele>1266.811</ele>
        <time>2021-10-16T09:42:14Z</time>
      </trkpt>
      <trkpt lat="40.292501" lon="-4.950875">
        <ele>1265.308</ele>
        <time>2021-10-16T09:42:16Z</time>
      </trkpt>
      <trkpt lat="40.292325" lon="-4.951171">
        <ele>1261.933</ele>
        <time>2021-10-16T09:42:18Z</time>
      </trkpt>
      <trkpt lat="40.292231" lon="-4.951312">
        <ele>1261.181</ele>
        <time>2021-10-16T09:42:19Z</time>
      </trkpt>
      <trkpt lat="40.292137" lon="-4.951443">
        <ele>1261.560</ele>
        <time>2021-10-16T09:42:20Z</time>
      </trkpt>
      <trkpt lat="40.291922" lon="-4.951622">
        <ele>1259.144</ele>
        <time>2021-10-16T09:42:22Z</time>
      </trkpt>
      <trkpt lat="40.291656" lon="-4.951653">
        <ele>1256.539</ele>
        <time>2021-10-16T09:42:24Z</time>
      </trkpt>
      <trkpt lat="40.291515" lon="-4.951612">
        <ele>1256.098</ele>
        <time>2021-10-16T09:42:25Z</time>
      </trkpt>
      <trkpt lat="40.291377" lon="-4.951532">
        <ele>1255.470</ele>
        <time>2021-10-16T09:42:26Z</time>
      </trkpt>
      <trkpt lat="40.291135" lon="-4.951301">
        <ele>1255.997</ele>
        <time>2021-10-16T09:42:28Z</time>
      </trkpt>
      <trkpt lat="40.291010" lon="-4.951164">
        <ele>1254.497</ele>
        <time>2021-10-16T09:42:29Z</time>
      </trkpt>
      <trkpt lat="40.290745" lon="-4.950923">
        <ele>1252.223</ele>
        <time>2021-10-16T09:42:31Z</time>
      </trkpt>
      <trkpt lat="40.290484" lon="-4.950755">
        <ele>1251.025</ele>
        <time>2021-10-16T09:42:33Z</time>
      </trkpt>
      <trkpt lat="40.290369" lon="-4.950686">
        <ele>1250.008</ele>
        <time>2021-10-16T09:42:34Z</time>
      </trkpt>
      <trkpt lat="40.290269" lon="-4.950637">
        <ele>1249.987</ele>
        <time>2021-10-16T09:42:35Z</time>
      </trkpt>
      <trkpt lat="40.290085" lon="-4.950630">
        <ele>1250.995</ele>
        <time>2021-10-16T09:42:37Z</time>
      </trkpt>
      <trkpt lat="40.290004" lon="-4.950671">
        <ele>1250.954</ele>
        <time>2021-10-16T09:42:38Z</time>
      </trkpt>
      <trkpt lat="40.289873" lon="-4.950853">
        <ele>1249.598</ele>
        <time>2021-10-16T09:42:40Z</time>
      </trkpt>
      <trkpt lat="40.289769" lon="-4.951149">
        <ele>1247.743</ele>
        <time>2021-10-16T09:42:42Z</time>
      </trkpt>
      <trkpt lat="40.289652" lon="-4.951523">
        <ele>1250.682</ele>
        <time>2021-10-16T09:42:44Z</time>
      </trkpt>
      <trkpt lat="40.289485" lon="-4.951764">
        <ele>1248.184</ele>
        <time>2021-10-16T09:42:46Z</time>
      </trkpt>
      <trkpt lat="40.289284" lon="-4.951768">
        <ele>1245.191</ele>
        <time>2021-10-16T09:42:48Z</time>
      </trkpt>
      <trkpt lat="40.289180" lon="-4.951714">
        <ele>1244.819</ele>
        <time>2021-10-16T09:42:49Z</time>
      </trkpt>
      <trkpt lat="40.289070" lon="-4.951606">
        <ele>1244.809</ele>
        <time>2021-10-16T09:42:50Z</time>
      </trkpt>
      <trkpt lat="40.288859" lon="-4.951329">
        <ele>1243.419</ele>
        <time>2021-10-16T09:42:52Z</time>
      </trkpt>
      <trkpt lat="40.288764" lon="-4.951213">
        <ele>1242.308</ele>
        <time>2021-10-16T09:42:53Z</time>
      </trkpt>
      <trkpt lat="40.288578" lon="-4.951110">
        <ele>1241.579</ele>
        <time>2021-10-16T09:42:55Z</time>
      </trkpt>
      <trkpt lat="40.288498" lon="-4.951108">
        <ele>1240.937</ele>
        <time>2021-10-16T09:42:56Z</time>
      </trkpt>
      <trkpt lat="40.288396" lon="-4.951240">
        <ele>1240.066</ele>
        <time>2021-10-16T09:42:58Z</time>
      </trkpt>
      <trkpt lat="40.288260" lon="-4.951570">
        <ele>1239.890</ele>
        <time>2021-10-16T09:43:00Z</time>
      </trkpt>
      <trkpt lat="40.288016" lon="-4.951858">
        <ele>1237.915</ele>
        <time>2021-10-16T09:43:02Z</time>
      </trkpt>
      <trkpt lat="40.287741" lon="-4.952092">
        <ele>1237.454</ele>
        <time>2021-10-16T09:43:04Z</time>
      </trkpt>
      <trkpt lat="40.287618" lon="-4.952208">
        <ele>1236.156</ele>
        <time>2021-10-16T09:43:05Z</time>
      </trkpt>
      <trkpt lat="40.287428" lon="-4.952512">
        <ele>1238.333</ele>
        <time>2021-10-16T09:43:07Z</time>
      </trkpt>
      <trkpt lat="40.287364" lon="-4.952708">
        <ele>1235.939</ele>
        <time>2021-10-16T09:43:08Z</time>
      </trkpt>
      <trkpt lat="40.287249" lon="-4.953122">
        <ele>1234.601</ele>
        <time>2021-10-16T09:43:10Z</time>
      </trkpt>
      <trkpt lat="40.287183" lon="-4.953325">
        <ele>1233.321</ele>
        <time>2021-10-16T09:43:11Z</time>
      </trkpt>
      <trkpt lat="40.287122" lon="-4.953507">
        <ele>1233.708</ele>
        <time>2021-10-16T09:43:12Z</time>
      </trkpt>
      <trkpt lat="40.287014" lon="-4.953776">
        <ele>1235.161</ele>
        <time>2021-10-16T09:43:14Z</time>
      </trkpt>
      <trkpt lat="40.286874" lon="-4.953930">
        <ele>1233.279</ele>
        <time>2021-10-16T09:43:16Z</time>
      </trkpt>
      <trkpt lat="40.286780" lon="-4.953963">
        <ele>1233.238</ele>
        <time>2021-10-16T09:43:17Z</time>
      </trkpt>
      <trkpt lat="40.286550" lon="-4.953898">
        <ele>1233.432</ele>
        <time>2021-10-16T09:43:19Z</time>
      </trkpt>
      <trkpt lat="40.286409" lon="-4.953804">
        <ele>1232.777</ele>
        <time>2021-10-16T09:43:20Z</time>
      </trkpt>
      <trkpt lat="40.286102" lon="-4.953610">
        <ele>1231.586</ele>
        <time>2021-10-16T09:43:22Z</time>
      </trkpt>
      <trkpt lat="40.285947" lon="-4.953521">
        <ele>1231.358</ele>
        <time>2021-10-16T09:43:23Z</time>
      </trkpt>
      <trkpt lat="40.285661" lon="-4.953375">
        <ele>1231.465</ele>
        <time>2021-10-16T09:43:25Z</time>
      </trkpt>
      <trkpt lat="40.285396" lon="-4.953296">
        <ele>1231.836</ele>
        <time>2021-10-16T09:43:27Z</time>
      </trkpt>
      <trkpt lat="40.285262" lon="-4.953287">
        <ele>1233.217</ele>
        <time>2021-10-16T09:43:28Z</time>
      </trkpt>
      <trkpt lat="40.285016" lon="-4.953360">
        <ele>1235.218</ele>
        <time>2021-10-16T09:43:30Z</time>
      </trkpt>
      <trkpt lat="40.284854" lon="-4.953589">
        <ele>1235.308</ele>
        <time>2021-10-16T09:43:32Z</time>
      </trkpt>
      <trkpt lat="40.284738" lon="-4.953883">
        <ele>1235.551</ele>
        <time>2021-10-16T09:43:34Z</time>
      </trkpt>
      <trkpt lat="40.284568" lon="-4.954072">
        <ele>1235.479</ele>
        <time>2021-10-16T09:43:36Z</time>
      </trkpt>
      <trkpt lat="40.284458" lon="-4.954115">
        <ele>1235.468</ele>
        <time>2021-10-16T09:43:37Z</time>
      </trkpt>
      <trkpt lat="40.284324" lon="-4.954113">
        <ele>1235.582</ele>
        <time>2021-10-16T09:43:38Z</time>
      </trkpt>
      <trkpt lat="40.284008" lon="-4.954021">
        <ele>1232.447</ele>
        <time>2021-10-16T09:43:40Z</time>
      </trkpt>
      <trkpt lat="40.283667" lon="-4.953943">
        <ele>1229.326</ele>
        <time>2021-10-16T09:43:42Z</time>
      </trkpt>
      <trkpt lat="40.283499" lon="-4.953926">
        <ele>1228.718</ele>
        <time>2021-10-16T09:43:43Z</time>
      </trkpt>
      <trkpt lat="40.283340" lon="-4.953921">
        <ele>1228.815</ele>
        <time>2021-10-16T09:43:44Z</time>
      </trkpt>
      <trkpt lat="40.283085" lon="-4.953889">
        <ele>1224.734</ele>
        <time>2021-10-16T09:43:46Z</time>
      </trkpt>
      <trkpt lat="40.282980" lon="-4.953844">
        <ele>1224.155</ele>
        <time>2021-10-16T09:43:47Z</time>
      </trkpt>
      <trkpt lat="40.282884" lon="-4.953770">
        <ele>1223.810</ele>
        <time>2021-10-16T09:43:48Z</time>
      </trkpt>
      <trkpt lat="40.282721" lon="-4.953556">
        <ele>1223.008</ele>
        <time>2021-10-16T09:43:50Z</time>
      </trkpt>
      <trkpt lat="40.282550" lon="-4.953405">
        <ele>1221.421</ele>
        <time>2021-10-16T09:43:52Z</time>
      </trkpt>
      <trkpt lat="40.282368" lon="-4.953403">
        <ele>1221.449</ele>
        <time>2021-10-16T09:43:54Z</time>
      </trkpt>
      <trkpt lat="40.282213" lon="-4.953561">
        <ele>1221.448</ele>
        <time>2021-10-16T09:43:56Z</time>
      </trkpt>
      <trkpt lat="40.282045" lon="-4.953772">
        <ele>1221.452</ele>
        <time>2021-10-16T09:43:58Z</time>
      </trkpt>
      <trkpt lat="40.281945" lon="-4.953860">
        <ele>1221.537</ele>
        <time>2021-10-16T09:43:59Z</time>
      </trkpt>
      <trkpt lat="40.281841" lon="-4.953926">
        <ele>1221.546</ele>
        <time>2021-10-16T09:44:00Z</time>
      </trkpt>
      <trkpt lat="40.281633" lon="-4.953972">
        <ele>1220.058</ele>
        <time>2021-10-16T09:44:02Z</time>
      </trkpt>
      <trkpt lat="40.281451" lon="-4.954007">
        <ele>1216.915</ele>
        <time>2021-10-16T09:44:04Z</time>
      </trkpt>
      <trkpt lat="40.281373" lon="-4.954080">
        <ele>1217.037</ele>
        <time>2021-10-16T09:44:05Z</time>
      </trkpt>
      <trkpt lat="40.281291" lon="-4.954313">
        <ele>1217.049</ele>
        <time>2021-10-16T09:44:07Z</time>
      </trkpt>
      <trkpt lat="40.281304" lon="-4.954462">
        <ele>1218.713</ele>
        <time>2021-10-16T09:44:08Z</time>
      </trkpt>
      <trkpt lat="40.281385" lon="-4.954829">
        <ele>1219.108</ele>
        <time>2021-10-16T09:44:10Z</time>
      </trkpt>
      <trkpt lat="40.281426" lon="-4.955049">
        <ele>1218.551</ele>
        <time>2021-10-16T09:44:11Z</time>
      </trkpt>
      <trkpt lat="40.281501" lon="-4.955520">
        <ele>1214.729</ele>
        <time>2021-10-16T09:44:13Z</time>
      </trkpt>
      <trkpt lat="40.281515" lon="-4.955761">
        <ele>1213.068</ele>
        <time>2021-10-16T09:44:14Z</time>
      </trkpt>
      <trkpt lat="40.281482" lon="-4.956229">
        <ele>1213.492</ele>
        <time>2021-10-16T09:44:16Z</time>
      </trkpt>
      <trkpt lat="40.281439" lon="-4.956464">
        <ele>1211.417</ele>
        <time>2021-10-16T09:44:17Z</time>
      </trkpt>
      <trkpt lat="40.281393" lon="-4.956695">
        <ele>1210.026</ele>
        <time>2021-10-16T09:44:18Z</time>
      </trkpt>
      <trkpt lat="40.281351" lon="-4.956927">
        <ele>1209.238</ele>
        <time>2021-10-16T09:44:19Z</time>
      </trkpt>
      <trkpt lat="40.281316" lon="-4.957158">
        <ele>1208.285</ele>
        <time>2021-10-16T09:44:20Z</time>
      </trkpt>
      <trkpt lat="40.281252" lon="-4.957580">
        <ele>1205.374</ele>
        <time>2021-10-16T09:44:22Z</time>
      </trkpt>
      <trkpt lat="40.281182" lon="-4.957981">
        <ele>1202.556</ele>
        <time>2021-10-16T09:44:24Z</time>
      </trkpt>
      <trkpt lat="40.281143" lon="-4.958172">
        <ele>1201.421</ele>
        <time>2021-10-16T09:44:25Z</time>
      </trkpt>
      <trkpt lat="40.281099" lon="-4.958363">
        <ele>1199.708</ele>
        <time>2021-10-16T09:44:26Z</time>
      </trkpt>
      <trkpt lat="40.280995" lon="-4.958733">
        <ele>1197.075</ele>
        <time>2021-10-16T09:44:28Z</time>
      </trkpt>
      <trkpt lat="40.280880" lon="-4.959106">
        <ele>1192.683</ele>
        <time>2021-10-16T09:44:30Z</time>
      </trkpt>
      <trkpt lat="40.280812" lon="-4.959296">
        <ele>1190.772</ele>
        <time>2021-10-16T09:44:31Z</time>
      </trkpt>
      <trkpt lat="40.280619" lon="-4.959643">
        <ele>1189.646</ele>
        <time>2021-10-16T09:44:33Z</time>
      </trkpt>
      <trkpt lat="40.280495" lon="-4.959791">
        <ele>1187.991</ele>
        <time>2021-10-16T09:44:34Z</time>
      </trkpt>
      <trkpt lat="40.280248" lon="-4.960040">
        <ele>1185.650</ele>
        <time>2021-10-16T09:44:36Z</time>
      </trkpt>
      <trkpt lat="40.280140" lon="-4.960140">
        <ele>1185.572</ele>
        <time>2021-10-16T09:44:37Z</time>
      </trkpt>
      <trkpt lat="40.280034" lon="-4.960217">
        <ele>1184.789</ele>
        <time>2021-10-16T09:44:38Z</time>
      </trkpt>
      <trkpt lat="40.279809" lon="-4.960260">
        <ele>1181.653</ele>
        <time>2021-10-16T09:44:40Z</time>
      </trkpt>
      <trkpt lat="40.279688" lon="-4.960208">
        <ele>1180.204</ele>
        <time>2021-10-16T09:44:41Z</time>
      </trkpt>
      <trkpt lat="40.279453" lon="-4.959989">
        <ele>1179.714</ele>
        <time>2021-10-16T09:44:43Z</time>
      </trkpt>
      <trkpt lat="40.279352" lon="-4.959841">
        <ele>1179.208</ele>
        <time>2021-10-16T09:44:44Z</time>
      </trkpt>
      <trkpt lat="40.279176" lon="-4.959505">
        <ele>1176.323</ele>
        <time>2021-10-16T09:44:46Z</time>
      </trkpt>
      <trkpt lat="40.279081" lon="-4.959335">
        <ele>1175.111</ele>
        <time>2021-10-16T09:44:47Z</time>
      </trkpt>
      <trkpt lat="40.278984" lon="-4.959169">
        <ele>1174.360</ele>
        <time>2021-10-16T09:44:48Z</time>
      </trkpt>
      <trkpt lat="40.278886" lon="-4.959013">
        <ele>1174.794</ele>
        <time>2021-10-16T09:44:49Z</time>
      </trkpt>
      <trkpt lat="40.278785" lon="-4.958869">
        <ele>1173.199</ele>
        <time>2021-10-16T09:44:50Z</time>
      </trkpt>
      <trkpt lat="40.278575" lon="-4.958626">
        <ele>1172.288</ele>
        <time>2021-10-16T09:44:52Z</time>
      </trkpt>
      <trkpt lat="40.278471" lon="-4.958513">
        <ele>1169.530</ele>
        <time>2021-10-16T09:44:53Z</time>
      </trkpt>
      <trkpt lat="40.278276" lon="-4.958282">
        <ele>1167.927</ele>
        <time>2021-10-16T09:44:55Z</time>
      </trkpt>
      <trkpt lat="40.278179" lon="-4.958179">
        <ele>1167.198</ele>
        <time>2021-10-16T09:44:56Z</time>
      </trkpt>
      <trkpt lat="40.277970" lon="-4.958075">
        <ele>1167.115</ele>
        <time>2021-10-16T09:44:58Z</time>
      </trkpt>
      <trkpt lat="40.277850" lon="-4.958079">
        <ele>1166.526</ele>
        <time>2021-10-16T09:44:59Z</time>
      </trkpt>
      <trkpt lat="40.277620" lon="-4.958230">
        <ele>1162.808</ele>
        <time>2021-10-16T09:45:01Z</time>
      </trkpt>
      <trkpt lat="40.277521" lon="-4.958369">
        <ele>1162.897</ele>
        <time>2021-10-16T09:45:02Z</time>
      </trkpt>
      <trkpt lat="40.277376" lon="-4.958743">
        <ele>1161.065</ele>
        <time>2021-10-16T09:45:04Z</time>
      </trkpt>
      <trkpt lat="40.277245" lon="-4.959159">
        <ele>1160.294</ele>
        <time>2021-10-16T09:45:06Z</time>
      </trkpt>
      <trkpt lat="40.277103" lon="-4.959489">
        <ele>1159.038</ele>
        <time>2021-10-16T09:45:08Z</time>
      </trkpt>
      <trkpt lat="40.276931" lon="-4.959699">
        <ele>1157.033</ele>
        <time>2021-10-16T09:45:10Z</time>
      </trkpt>
      <trkpt lat="40.276826" lon="-4.959773">
        <ele>1156.342</ele>
        <time>2021-10-16T09:45:11Z</time>
      </trkpt>
      <trkpt lat="40.276702" lon="-4.959831">
        <ele>1156.154</ele>
        <time>2021-10-16T09:45:12Z</time>
      </trkpt>
      <trkpt lat="40.276403" lon="-4.959928">
        <ele>1153.431</ele>
        <time>2021-10-16T09:45:14Z</time>
      </trkpt>
      <trkpt lat="40.276070" lon="-4.960045">
        <ele>1152.191</ele>
        <time>2021-10-16T09:45:16Z</time>
      </trkpt>
      <trkpt lat="40.275907" lon="-4.960104">
        <ele>1149.281</ele>
        <time>2021-10-16T09:45:17Z</time>
      </trkpt>
      <trkpt lat="40.275591" lon="-4.960264">
        <ele>1148.919</ele>
        <time>2021-10-16T09:45:19Z</time>
      </trkpt>
      <trkpt lat="40.275434" lon="-4.960386">
        <ele>1149.108</ele>
        <time>2021-10-16T09:45:20Z</time>
      </trkpt>
      <trkpt lat="40.275157" lon="-4.960689">
        <ele>1144.747</ele>
        <time>2021-10-16T09:45:22Z</time>
      </trkpt>
      <trkpt lat="40.275031" lon="-4.960852">
        <ele>1144.215</ele>
        <time>2021-10-16T09:45:23Z</time>
      </trkpt>
      <trkpt lat="40.274909" lon="-4.961004">
        <ele>1144.174</ele>
        <time>2021-10-16T09:45:24Z</time>
      </trkpt>
      <trkpt lat="40.274797" lon="-4.961138">
        <ele>1142.738</ele>
        <time>2021-10-16T09:45:25Z</time>
      </trkpt>
      <trkpt lat="40.274683" lon="-4.961251">
        <ele>1140.843</ele>
        <time>2021-10-16T09:45:26Z</time>
      </trkpt>
      <trkpt lat="40.274424" lon="-4.961376">
        <ele>1140.622</ele>
        <time>2021-10-16T09:45:28Z</time>
      </trkpt>
      <trkpt lat="40.274098" lon="-4.961362">
        <ele>1138.094</ele>
        <time>2021-10-16T09:45:30Z</time>
      </trkpt>
      <trkpt lat="40.273768" lon="-4.961273">
        <ele>1137.121</ele>
        <time>2021-10-16T09:45:32Z</time>
      </trkpt>
      <trkpt lat="40.273456" lon="-4.961212">
        <ele>1134.834</ele>
        <time>2021-10-16T09:45:34Z</time>
      </trkpt>
      <trkpt lat="40.273161" lon="-4.961242">
        <ele>1131.955</ele>
        <time>2021-10-16T09:45:36Z</time>
      </trkpt>
      <trkpt lat="40.272890" lon="-4.961422">
        <ele>1130.810</ele>
        <time>2021-10-16T09:45:38Z</time>
      </trkpt>
      <trkpt lat="40.272670" lon="-4.961742">
        <ele>1129.708</ele>
        <time>2021-10-16T09:45:40Z</time>
      </trkpt>
      <trkpt lat="40.272562" lon="-4.961918">
        <ele>1128.531</ele>
        <time>2021-10-16T09:45:41Z</time>
      </trkpt>
      <trkpt lat="40.272449" lon="-4.962092">
        <ele>1126.359</ele>
        <time>2021-10-16T09:45:42Z</time>
      </trkpt>
      <trkpt lat="40.272208" lon="-4.962436">
        <ele>1122.388</ele>
        <time>2021-10-16T09:45:44Z</time>
      </trkpt>
      <trkpt lat="40.271950" lon="-4.962803">
        <ele>1121.182</ele>
        <time>2021-10-16T09:45:46Z</time>
      </trkpt>
      <trkpt lat="40.271683" lon="-4.963190">
        <ele>1122.097</ele>
        <time>2021-10-16T09:45:48Z</time>
      </trkpt>
      <trkpt lat="40.271553" lon="-4.963381">
        <ele>1120.196</ele>
        <time>2021-10-16T09:45:49Z</time>
      </trkpt>
      <trkpt lat="40.271429" lon="-4.963561">
        <ele>1118.038</ele>
        <time>2021-10-16T09:45:50Z</time>
      </trkpt>
      <trkpt lat="40.271204" lon="-4.963877">
        <ele>1116.155</ele>
        <time>2021-10-16T09:45:52Z</time>
      </trkpt>
      <trkpt lat="40.270966" lon="-4.964113">
        <ele>1114.969</ele>
        <time>2021-10-16T09:45:54Z</time>
      </trkpt>
      <trkpt lat="40.270822" lon="-4.964184">
        <ele>1114.304</ele>
        <time>2021-10-16T09:45:55Z</time>
      </trkpt>
      <trkpt lat="40.270488" lon="-4.964240">
        <ele>1112.724</ele>
        <time>2021-10-16T09:45:57Z</time>
      </trkpt>
      <trkpt lat="40.270298" lon="-4.964250">
        <ele>1111.208</ele>
        <time>2021-10-16T09:45:58Z</time>
      </trkpt>
      <trkpt lat="40.270101" lon="-4.964258">
        <ele>1109.614</ele>
        <time>2021-10-16T09:45:59Z</time>
      </trkpt>
      <trkpt lat="40.269726" lon="-4.964287">
        <ele>1105.382</ele>
        <time>2021-10-16T09:46:01Z</time>
      </trkpt>
      <trkpt lat="40.269374" lon="-4.964335">
        <ele>1105.561</ele>
        <time>2021-10-16T09:46:03Z</time>
      </trkpt>
      <trkpt lat="40.269211" lon="-4.964380">
        <ele>1104.715</ele>
        <time>2021-10-16T09:46:04Z</time>
      </trkpt>
      <trkpt lat="40.268938" lon="-4.964525">
        <ele>1104.180</ele>
        <time>2021-10-16T09:46:06Z</time>
      </trkpt>
      <trkpt lat="40.268826" lon="-4.964603">
        <ele>1098.399</ele>
        <time>2021-10-16T09:46:07Z</time>
      </trkpt>
      <trkpt lat="40.268719" lon="-4.964652">
        <ele>1099.171</ele>
        <time>2021-10-16T09:46:08Z</time>
      </trkpt>
      <trkpt lat="40.268513" lon="-4.964649">
        <ele>1097.298</ele>
        <time>2021-10-16T09:46:10Z</time>
      </trkpt>
      <trkpt lat="40.268297" lon="-4.964481">
        <ele>1098.399</ele>
        <time>2021-10-16T09:46:12Z</time>
      </trkpt>
      <trkpt lat="40.268193" lon="-4.964323">
        <ele>1098.307</ele>
        <time>2021-10-16T09:46:13Z</time>
      </trkpt>
      <trkpt lat="40.268095" lon="-4.964144">
        <ele>1099.127</ele>
        <time>2021-10-16T09:46:14Z</time>
      </trkpt>
      <trkpt lat="40.267935" lon="-4.963808">
        <ele>1097.608</ele>
        <time>2021-10-16T09:46:16Z</time>
      </trkpt>
      <trkpt lat="40.267848" lon="-4.963470">
        <ele>1095.857</ele>
        <time>2021-10-16T09:46:18Z</time>
      </trkpt>
      <trkpt lat="40.267881" lon="-4.963126">
        <ele>1096.185</ele>
        <time>2021-10-16T09:46:20Z</time>
      </trkpt>
      <trkpt lat="40.267952" lon="-4.962793">
        <ele>1091.954</ele>
        <time>2021-10-16T09:46:22Z</time>
      </trkpt>
      <trkpt lat="40.267971" lon="-4.962635">
        <ele>1091.928</ele>
        <time>2021-10-16T09:46:23Z</time>
      </trkpt>
      <trkpt lat="40.267972" lon="-4.962483">
        <ele>1091.993</ele>
        <time>2021-10-16T09:46:24Z</time>
      </trkpt>
      <trkpt lat="40.267913" lon="-4.962211">
        <ele>1091.972</ele>
        <time>2021-10-16T09:46:26Z</time>
      </trkpt>
      <trkpt lat="40.267762" lon="-4.962061">
        <ele>1091.994</ele>
        <time>2021-10-16T09:46:28Z</time>
      </trkpt>
      <trkpt lat="40.267563" lon="-4.962064">
        <ele>1092.641</ele>
        <time>2021-10-16T09:46:30Z</time>
      </trkpt>
      <trkpt lat="40.267439" lon="-4.962123">
        <ele>1092.675</ele>
        <time>2021-10-16T09:46:31Z</time>
      </trkpt>
      <trkpt lat="40.267298" lon="-4.962193">
        <ele>1092.628</ele>
        <time>2021-10-16T09:46:32Z</time>
      </trkpt>
      <trkpt lat="40.267007" lon="-4.962372">
        <ele>1091.920</ele>
        <time>2021-10-16T09:46:34Z</time>
      </trkpt>
      <trkpt lat="40.266763" lon="-4.962574">
        <ele>1091.508</ele>
        <time>2021-10-16T09:46:36Z</time>
      </trkpt>
      <trkpt lat="40.266655" lon="-4.962637">
        <ele>1091.955</ele>
        <time>2021-10-16T09:46:37Z</time>
      </trkpt>
      <trkpt lat="40.266548" lon="-4.962667">
        <ele>1091.673</ele>
        <time>2021-10-16T09:46:38Z</time>
      </trkpt>
      <trkpt lat="40.266318" lon="-4.962585">
        <ele>1089.812</ele>
        <time>2021-10-16T09:46:40Z</time>
      </trkpt>
      <trkpt lat="40.266184" lon="-4.962509">
        <ele>1089.816</ele>
        <time>2021-10-16T09:46:41Z</time>
      </trkpt>
      <trkpt lat="40.265883" lon="-4.962431">
        <ele>1087.361</ele>
        <time>2021-10-16T09:46:43Z</time>
      </trkpt>
      <trkpt lat="40.265721" lon="-4.962452">
        <ele>1085.690</ele>
        <time>2021-10-16T09:46:44Z</time>
      </trkpt>
      <trkpt lat="40.265376" lon="-4.962585">
        <ele>1083.652</ele>
        <time>2021-10-16T09:46:46Z</time>
      </trkpt>
      <trkpt lat="40.265188" lon="-4.962670">
        <ele>1082.099</ele>
        <time>2021-10-16T09:46:47Z</time>
      </trkpt>
      <trkpt lat="40.264818" lon="-4.962865">
        <ele>1079.835</ele>
        <time>2021-10-16T09:46:49Z</time>
      </trkpt>
      <trkpt lat="40.264622" lon="-4.962980">
        <ele>1078.886</ele>
        <time>2021-10-16T09:46:50Z</time>
      </trkpt>
      <trkpt lat="40.264240" lon="-4.963247">
        <ele>1075.014</ele>
        <time>2021-10-16T09:46:52Z</time>
      </trkpt>
      <trkpt lat="40.264063" lon="-4.963400">
        <ele>1072.308</ele>
        <time>2021-10-16T09:46:53Z</time>
      </trkpt>
      <trkpt lat="40.263754" lon="-4.963742">
        <ele>1067.851</ele>
        <time>2021-10-16T09:46:55Z</time>
      </trkpt>
      <trkpt lat="40.263616" lon="-4.963925">
        <ele>1065.939</ele>
        <time>2021-10-16T09:46:56Z</time>
      </trkpt>
      <trkpt lat="40.263481" lon="-4.964102">
        <ele>1064.618</ele>
        <time>2021-10-16T09:46:57Z</time>
      </trkpt>
      <trkpt lat="40.263208" lon="-4.964406">
        <ele>1058.812</ele>
        <time>2021-10-16T09:46:59Z</time>
      </trkpt>
      <trkpt lat="40.263072" lon="-4.964528">
        <ele>1056.517</ele>
        <time>2021-10-16T09:47:00Z</time>
      </trkpt>
      <trkpt lat="40.262943" lon="-4.964640">
        <ele>1055.376</ele>
        <time>2021-10-16T09:47:01Z</time>
      </trkpt>
      <trkpt lat="40.262820" lon="-4.964744">
        <ele>1054.588</ele>
        <time>2021-10-16T09:47:02Z</time>
      </trkpt>
      <trkpt lat="40.262589" lon="-4.964938">
        <ele>1049.595</ele>
        <time>2021-10-16T09:47:04Z</time>
      </trkpt>
      <trkpt lat="40.262478" lon="-4.965032">
        <ele>1049.965</ele>
        <time>2021-10-16T09:47:05Z</time>
      </trkpt>
      <trkpt lat="40.262263" lon="-4.965217">
        <ele>1048.968</ele>
        <time>2021-10-16T09:47:07Z</time>
      </trkpt>
      <trkpt lat="40.262163" lon="-4.965303">
        <ele>1046.014</ele>
        <time>2021-10-16T09:47:08Z</time>
      </trkpt>
      <trkpt lat="40.261955" lon="-4.965418">
        <ele>1044.208</ele>
        <time>2021-10-16T09:47:10Z</time>
      </trkpt>
      <trkpt lat="40.261727" lon="-4.965392">
        <ele>1041.564</ele>
        <time>2021-10-16T09:47:12Z</time>
      </trkpt>
      <trkpt lat="40.261602" lon="-4.965322">
        <ele>1042.652</ele>
        <time>2021-10-16T09:47:13Z</time>
      </trkpt>
      <trkpt lat="40.261471" lon="-4.965229">
        <ele>1042.661</ele>
        <time>2021-10-16T09:47:14Z</time>
      </trkpt>
      <trkpt lat="40.261213" lon="-4.965044">
        <ele>1041.675</ele>
        <time>2021-10-16T09:47:16Z</time>
      </trkpt>
      <trkpt lat="40.261009" lon="-4.964826">
        <ele>1039.450</ele>
        <time>2021-10-16T09:47:18Z</time>
      </trkpt>
      <trkpt lat="40.260931" lon="-4.964694">
        <ele>1038.889</ele>
        <time>2021-10-16T09:47:19Z</time>
      </trkpt>
      <trkpt lat="40.260869" lon="-4.964551">
        <ele>1038.211</ele>
        <time>2021-10-16T09:47:20Z</time>
      </trkpt>
      <trkpt lat="40.260795" lon="-4.964225">
        <ele>1036.568</ele>
        <time>2021-10-16T09:47:22Z</time>
      </trkpt>
      <trkpt lat="40.260764" lon="-4.964047">
        <ele>1036.579</ele>
        <time>2021-10-16T09:47:23Z</time>
      </trkpt>
      <trkpt lat="40.260650" lon="-4.963725">
        <ele>1034.205</ele>
        <time>2021-10-16T09:47:25Z</time>
      </trkpt>
      <trkpt lat="40.260567" lon="-4.963586">
        <ele>1034.525</ele>
        <time>2021-10-16T09:47:26Z</time>
      </trkpt>
      <trkpt lat="40.260355" lon="-4.963396">
        <ele>1034.708</ele>
        <time>2021-10-16T09:47:28Z</time>
      </trkpt>
      <trkpt lat="40.260237" lon="-4.963335">
        <ele>1034.755</ele>
        <time>2021-10-16T09:47:29Z</time>
      </trkpt>
      <trkpt lat="40.260026" lon="-4.963342">
        <ele>1033.523</ele>
        <time>2021-10-16T09:47:31Z</time>
      </trkpt>
      <trkpt lat="40.259851" lon="-4.963533">
        <ele>1032.882</ele>
        <time>2021-10-16T09:47:33Z</time>
      </trkpt>
      <trkpt lat="40.259719" lon="-4.963843">
        <ele>1032.086</ele>
        <time>2021-10-16T09:47:35Z</time>
      </trkpt>
      <trkpt lat="40.259654" lon="-4.964014">
        <ele>1033.311</ele>
        <time>2021-10-16T09:47:36Z</time>
      </trkpt>
      <trkpt lat="40.259572" lon="-4.964181">
        <ele>1031.430</ele>
        <time>2021-10-16T09:47:37Z</time>
      </trkpt>
      <trkpt lat="40.259461" lon="-4.964328">
        <ele>1028.112</ele>
        <time>2021-10-16T09:47:38Z</time>
      </trkpt>
      <trkpt lat="40.259196" lon="-4.964556">
        <ele>1025.999</ele>
        <time>2021-10-16T09:47:40Z</time>
      </trkpt>
      <trkpt lat="40.258948" lon="-4.964778">
        <ele>1022.634</ele>
        <time>2021-10-16T09:47:42Z</time>
      </trkpt>
      <trkpt lat="40.258857" lon="-4.964932">
        <ele>1020.155</ele>
        <time>2021-10-16T09:47:43Z</time>
      </trkpt>
      <trkpt lat="40.258773" lon="-4.965092">
        <ele>1018.510</ele>
        <time>2021-10-16T09:47:44Z</time>
      </trkpt>
      <trkpt lat="40.258599" lon="-4.965362">
        <ele>1017.708</ele>
        <time>2021-10-16T09:47:46Z</time>
      </trkpt>
      <trkpt lat="40.258512" lon="-4.965469">
        <ele>1016.011</ele>
        <time>2021-10-16T09:47:47Z</time>
      </trkpt>
      <trkpt lat="40.258409" lon="-4.965695">
        <ele>1010.879</ele>
        <time>2021-10-16T09:47:49Z</time>
      </trkpt>
      <trkpt lat="40.258397" lon="-4.965821">
        <ele>1010.638</ele>
        <time>2021-10-16T09:47:50Z</time>
      </trkpt>
      <trkpt lat="40.258453" lon="-4.966096">
        <ele>1009.552</ele>
        <time>2021-10-16T09:47:52Z</time>
      </trkpt>
      <trkpt lat="40.258545" lon="-4.966414">
        <ele>1005.887</ele>
        <time>2021-10-16T09:47:54Z</time>
      </trkpt>
      <trkpt lat="40.258565" lon="-4.966593">
        <ele>1004.136</ele>
        <time>2021-10-16T09:47:55Z</time>
      </trkpt>
      <trkpt lat="40.258570" lon="-4.966789">
        <ele>1002.328</ele>
        <time>2021-10-16T09:47:56Z</time>
      </trkpt>
      <trkpt lat="40.258564" lon="-4.967150">
        <ele>998.835</ele>
        <time>2021-10-16T09:47:58Z</time>
      </trkpt>
      <trkpt lat="40.258500" lon="-4.967464">
        <ele>997.278</ele>
        <time>2021-10-16T09:48:00Z</time>
      </trkpt>
      <trkpt lat="40.258451" lon="-4.967584">
        <ele>996.333</ele>
        <time>2021-10-16T09:48:01Z</time>
      </trkpt>
      <trkpt lat="40.258364" lon="-4.967761">
        <ele>993.126</ele>
        <time>2021-10-16T09:48:03Z</time>
      </trkpt>
      <trkpt lat="40.258361" lon="-4.967918">
        <ele>991.308</ele>
        <time>2021-10-16T09:48:05Z</time>
      </trkpt>
      <trkpt lat="40.258459" lon="-4.967973">
        <ele>990.535</ele>
        <time>2021-10-16T09:48:07Z</time>
      </trkpt>
      <trkpt lat="40.258521" lon="-4.967935">
        <ele>988.733</ele>
        <time>2021-10-16T09:48:08Z</time>
      </trkpt>
      <trkpt lat="40.258670" lon="-4.967730">
        <ele>986.752</ele>
        <time>2021-10-16T09:48:10Z</time>
      </trkpt>
      <trkpt lat="40.258812" lon="-4.967383">
        <ele>985.566</ele>
        <time>2021-10-16T09:48:12Z</time>
      </trkpt>
      <trkpt lat="40.258911" lon="-4.966953">
        <ele>981.141</ele>
        <time>2021-10-16T09:48:14Z</time>
      </trkpt>
      <trkpt lat="40.259006" lon="-4.966542">
        <ele>977.650</ele>
        <time>2021-10-16T09:48:16Z</time>
      </trkpt>
      <trkpt lat="40.259060" lon="-4.966361">
        <ele>976.242</ele>
        <time>2021-10-16T09:48:17Z</time>
      </trkpt>
      <trkpt lat="40.259212" lon="-4.966057">
        <ele>974.629</ele>
        <time>2021-10-16T09:48:19Z</time>
      </trkpt>
      <trkpt lat="40.259302" lon="-4.965925">
        <ele>972.871</ele>
        <time>2021-10-16T09:48:20Z</time>
      </trkpt>
      <trkpt lat="40.259478" lon="-4.965728">
        <ele>971.241</ele>
        <time>2021-10-16T09:48:22Z</time>
      </trkpt>
      <trkpt lat="40.259655" lon="-4.965643">
        <ele>969.815</ele>
        <time>2021-10-16T09:48:24Z</time>
      </trkpt>
      <trkpt lat="40.259747" lon="-4.965650">
        <ele>969.808</ele>
        <time>2021-10-16T09:48:25Z</time>
      </trkpt>
      <trkpt lat="40.259822" lon="-4.965709">
        <ele>966.985</ele>
        <time>2021-10-16T09:48:26Z</time>
      </trkpt>
      <trkpt lat="40.259893" lon="-4.965992">
        <ele>967.113</ele>
        <time>2021-10-16T09:48:28Z</time>
      </trkpt>
      <trkpt lat="40.259923" lon="-4.966414">
        <ele>967.612</ele>
        <time>2021-10-16T09:48:30Z</time>
      </trkpt>
      <trkpt lat="40.259981" lon="-4.966596">
        <ele>966.596</ele>
        <time>2021-10-16T09:48:31Z</time>
      </trkpt>
      <trkpt lat="40.260072" lon="-4.966755">
        <ele>966.371</ele>
        <time>2021-10-16T09:48:32Z</time>
      </trkpt>
      <trkpt lat="40.260340" lon="-4.967012">
        <ele>965.950</ele>
        <time>2021-10-16T09:48:34Z</time>
      </trkpt>
      <trkpt lat="40.260505" lon="-4.967135">
        <ele>965.552</ele>
        <time>2021-10-16T09:48:35Z</time>
      </trkpt>
      <trkpt lat="40.260828" lon="-4.967384">
        <ele>963.489</ele>
        <time>2021-10-16T09:48:37Z</time>
      </trkpt>
      <trkpt lat="40.260969" lon="-4.967526">
        <ele>963.978</ele>
        <time>2021-10-16T09:48:38Z</time>
      </trkpt>
      <trkpt lat="40.261249" lon="-4.967801">
        <ele>961.133</ele>
        <time>2021-10-16T09:48:40Z</time>
      </trkpt>
      <trkpt lat="40.261559" lon="-4.968020">
        <ele>957.926</ele>
        <time>2021-10-16T09:48:42Z</time>
      </trkpt>
      <trkpt lat="40.261717" lon="-4.968121">
        <ele>958.108</ele>
        <time>2021-10-16T09:48:43Z</time>
      </trkpt>
      <trkpt lat="40.261872" lon="-4.968213">
        <ele>957.025</ele>
        <time>2021-10-16T09:48:44Z</time>
      </trkpt>
      <trkpt lat="40.262174" lon="-4.968351">
        <ele>955.773</ele>
        <time>2021-10-16T09:48:46Z</time>
      </trkpt>
      <trkpt lat="40.262489" lon="-4.968436">
        <ele>952.392</ele>
        <time>2021-10-16T09:48:48Z</time>
      </trkpt>
      <trkpt lat="40.262644" lon="-4.968465">
        <ele>952.476</ele>
        <time>2021-10-16T09:48:49Z</time>
      </trkpt>
      <trkpt lat="40.262796" lon="-4.968488">
        <ele>953.041</ele>
        <time>2021-10-16T09:48:50Z</time>
      </trkpt>
      <trkpt lat="40.263071" lon="-4.968500">
        <ele>954.060</ele>
        <time>2021-10-16T09:48:52Z</time>
      </trkpt>
      <trkpt lat="40.263196" lon="-4.968478">
        <ele>952.672</ele>
        <time>2021-10-16T09:48:53Z</time>
      </trkpt>
      <trkpt lat="40.263400" lon="-4.968421">
        <ele>951.629</ele>
        <time>2021-10-16T09:48:55Z</time>
      </trkpt>
      <trkpt lat="40.263477" lon="-4.968419">
        <ele>951.166</ele>
        <time>2021-10-16T09:48:56Z</time>
      </trkpt>
      <trkpt lat="40.263563" lon="-4.968529">
        <ele>951.229</ele>
        <time>2021-10-16T09:48:58Z</time>
      </trkpt>
      <trkpt lat="40.263568" lon="-4.968633">
        <ele>951.221</ele>
        <time>2021-10-16T09:48:59Z</time>
      </trkpt>
      <trkpt lat="40.263548" lon="-4.968768">
        <ele>951.208</ele>
        <time>2021-10-16T09:49:00Z</time>
      </trkpt>
      <trkpt lat="40.263551" lon="-4.969063">
        <ele>949.884</ele>
        <time>2021-10-16T09:49:02Z</time>
      </trkpt>
      <trkpt lat="40.263658" lon="-4.969230">
        <ele>949.892</ele>
        <time>2021-10-16T09:49:04Z</time>
      </trkpt>
      <trkpt lat="40.263887" lon="-4.969293">
        <ele>947.631</ele>
        <time>2021-10-16T09:49:06Z</time>
      </trkpt>
      <trkpt lat="40.264049" lon="-4.969323">
        <ele>947.295</ele>
        <time>2021-10-16T09:49:07Z</time>
      </trkpt>
      <trkpt lat="40.264228" lon="-4.969362">
        <ele>946.580</ele>
        <time>2021-10-16T09:49:08Z</time>
      </trkpt>
      <trkpt lat="40.264563" lon="-4.969443">
        <ele>946.119</ele>
        <time>2021-10-16T09:49:10Z</time>
      </trkpt>
      <trkpt lat="40.264726" lon="-4.969485">
        <ele>946.481</ele>
        <time>2021-10-16T09:49:11Z</time>
      </trkpt>
      <trkpt lat="40.265041" lon="-4.969556">
        <ele>945.638</ele>
        <time>2021-10-16T09:49:13Z</time>
      </trkpt>
      <trkpt lat="40.265185" lon="-4.969595">
        <ele>944.578</ele>
        <time>2021-10-16T09:49:14Z</time>
      </trkpt>
      <trkpt lat="40.265440" lon="-4.969766">
        <ele>945.333</ele>
        <time>2021-10-16T09:49:16Z</time>
      </trkpt>
      <trkpt lat="40.265712" lon="-4.969988">
        <ele>944.626</ele>
        <time>2021-10-16T09:49:18Z</time>
      </trkpt>
      <trkpt lat="40.266004" lon="-4.970107">
        <ele>942.008</ele>
        <time>2021-10-16T09:49:20Z</time>
      </trkpt>
      <trkpt lat="40.266275" lon="-4.970062">
        <ele>944.245</ele>
        <time>2021-10-16T09:49:22Z</time>
      </trkpt>
      <trkpt lat="40.266397" lon="-4.970024">
        <ele>944.653</ele>
        <time>2021-10-16T09:49:23Z</time>
      </trkpt>
      <trkpt lat="40.266609" lon="-4.970043">
        <ele>942.352</ele>
        <time>2021-10-16T09:49:25Z</time>
      </trkpt>
      <trkpt lat="40.266707" lon="-4.970094">
        <ele>942.366</ele>
        <time>2021-10-16T09:49:26Z</time>
      </trkpt>
      <trkpt lat="40.266791" lon="-4.970194">
        <ele>942.151</ele>
        <time>2021-10-16T09:49:27Z</time>
      </trkpt>
      <trkpt lat="40.266909" lon="-4.970527">
        <ele>941.350</ele>
        <time>2021-10-16T09:49:29Z</time>
      </trkpt>
      <trkpt lat="40.266985" lon="-4.970955">
        <ele>937.432</ele>
        <time>2021-10-16T09:49:31Z</time>
      </trkpt>
      <trkpt lat="40.266992" lon="-4.971178">
        <ele>937.449</ele>
        <time>2021-10-16T09:49:32Z</time>
      </trkpt>
      <trkpt lat="40.266934" lon="-4.971606">
        <ele>936.494</ele>
        <time>2021-10-16T09:49:34Z</time>
      </trkpt>
      <trkpt lat="40.266789" lon="-4.972026">
        <ele>936.457</ele>
        <time>2021-10-16T09:49:36Z</time>
      </trkpt>
      <trkpt lat="40.266689" lon="-4.972217">
        <ele>934.722</ele>
        <time>2021-10-16T09:49:37Z</time>
      </trkpt>
      <trkpt lat="40.266588" lon="-4.972393">
        <ele>932.608</ele>
        <time>2021-10-16T09:49:38Z</time>
      </trkpt>
      <trkpt lat="40.266426" lon="-4.972746">
        <ele>931.277</ele>
        <time>2021-10-16T09:49:40Z</time>
      </trkpt>
      <trkpt lat="40.266380" lon="-4.972940">
        <ele>929.935</ele>
        <time>2021-10-16T09:49:41Z</time>
      </trkpt>
      <trkpt lat="40.266369" lon="-4.973327">
        <ele>927.324</ele>
        <time>2021-10-16T09:49:43Z</time>
      </trkpt>
      <trkpt lat="40.266410" lon="-4.973494">
        <ele>925.758</ele>
        <time>2021-10-16T09:49:44Z</time>
      </trkpt>
      <trkpt lat="40.266585" lon="-4.973759">
        <ele>924.633</ele>
        <time>2021-10-16T09:49:46Z</time>
      </trkpt>
      <trkpt lat="40.266846" lon="-4.973968">
        <ele>922.372</ele>
        <time>2021-10-16T09:49:48Z</time>
      </trkpt>
      <trkpt lat="40.266991" lon="-4.974035">
        <ele>922.474</ele>
        <time>2021-10-16T09:49:49Z</time>
      </trkpt>
      <trkpt lat="40.267141" lon="-4.974066">
        <ele>922.111</ele>
        <time>2021-10-16T09:49:50Z</time>
      </trkpt>
      <trkpt lat="40.267297" lon="-4.974065">
        <ele>921.091</ele>
        <time>2021-10-16T09:49:51Z</time>
      </trkpt>
      <trkpt lat="40.267602" lon="-4.974001">
        <ele>918.981</ele>
        <time>2021-10-16T09:49:53Z</time>
      </trkpt>
      <trkpt lat="40.267746" lon="-4.973932">
        <ele>917.919</ele>
        <time>2021-10-16T09:49:54Z</time>
      </trkpt>
      <trkpt lat="40.268018" lon="-4.973680">
        <ele>914.808</ele>
        <time>2021-10-16T09:49:56Z</time>
      </trkpt>
      <trkpt lat="40.268228" lon="-4.973332">
        <ele>912.647</ele>
        <time>2021-10-16T09:49:58Z</time>
      </trkpt>
      <trkpt lat="40.268331" lon="-4.973142">
        <ele>912.895</ele>
        <time>2021-10-16T09:49:59Z</time>
      </trkpt>
      <trkpt lat="40.268454" lon="-4.972971">
        <ele>911.474</ele>
        <time>2021-10-16T09:50:00Z</time>
      </trkpt>
      <trkpt lat="40.268732" lon="-4.972722">
        <ele>910.328</ele>
        <time>2021-10-16T09:50:02Z</time>
      </trkpt>
      <trkpt lat="40.269051" lon="-4.972578">
        <ele>908.533</ele>
        <time>2021-10-16T09:50:04Z</time>
      </trkpt>
      <trkpt lat="40.269213" lon="-4.972501">
        <ele>908.032</ele>
        <time>2021-10-16T09:50:05Z</time>
      </trkpt>
      <trkpt lat="40.269521" lon="-4.972293">
        <ele>905.514</ele>
        <time>2021-10-16T09:50:07Z</time>
      </trkpt>
      <trkpt lat="40.269661" lon="-4.972158">
        <ele>903.461</ele>
        <time>2021-10-16T09:50:08Z</time>
      </trkpt>
      <trkpt lat="40.269884" lon="-4.971885">
        <ele>902.714</ele>
        <time>2021-10-16T09:50:10Z</time>
      </trkpt>
      <trkpt lat="40.270035" lon="-4.971652">
        <ele>901.454</ele>
        <time>2021-10-16T09:50:12Z</time>
      </trkpt>
      <trkpt lat="40.270096" lon="-4.971395">
        <ele>901.909</ele>
        <time>2021-10-16T09:50:14Z</time>
      </trkpt>
      <trkpt lat="40.270038" lon="-4.971124">
        <ele>900.608</ele>
        <time>2021-10-16T09:50:16Z</time>
      </trkpt>
      <trkpt lat="40.269966" lon="-4.971006">
        <ele>900.599</ele>
        <time>2021-10-16T09:50:17Z</time>
      </trkpt>
      <trkpt lat="40.269898" lon="-4.970905">
        <ele>900.667</ele>
        <time>2021-10-16T09:50:18Z</time>
      </trkpt>
      <trkpt lat="40.269827" lon="-4.970721">
        <ele>902.286</ele>
        <time>2021-10-16T09:50:20Z</time>
      </trkpt>
      <trkpt lat="40.269836" lon="-4.970581">
        <ele>902.710</ele>
        <time>2021-10-16T09:50:22Z</time>
      </trkpt>
      <trkpt lat="40.269897" lon="-4.970550">
        <ele>903.835</ele>
        <time>2021-10-16T09:50:23Z</time>
      </trkpt>
      <trkpt lat="40.270000" lon="-4.970532">
        <ele>904.214</ele>
        <time>2021-10-16T09:50:24Z</time>
      </trkpt>
      <trkpt lat="40.270288" lon="-4.970484">
        <ele>904.546</ele>
        <time>2021-10-16T09:50:26Z</time>
      </trkpt>
      <trkpt lat="40.270553" lon="-4.970403">
        <ele>910.323</ele>
        <time>2021-10-16T09:50:28Z</time>
      </trkpt>
      <trkpt lat="40.270818" lon="-4.970403">
        <ele>911.327</ele>
        <time>2021-10-16T09:50:30Z</time>
      </trkpt>
      <trkpt lat="40.270957" lon="-4.970440">
        <ele>912.668</ele>
        <time>2021-10-16T09:50:31Z</time>
      </trkpt>
      <trkpt lat="40.271102" lon="-4.970472">
        <ele>912.814</ele>
        <time>2021-10-16T09:50:32Z</time>
      </trkpt>
      <trkpt lat="40.271414" lon="-4.970455">
        <ele>916.708</ele>
        <time>2021-10-16T09:50:34Z</time>
      </trkpt>
      <trkpt lat="40.271739" lon="-4.970457">
        <ele>917.550</ele>
        <time>2021-10-16T09:50:36Z</time>
      </trkpt>
      <trkpt lat="40.272093" lon="-4.970485">
        <ele>918.548</ele>
        <time>2021-10-16T09:50:38Z</time>
      </trkpt>
      <trkpt lat="40.272428" lon="-4.970454">
        <ele>915.687</ele>
        <time>2021-10-16T09:50:40Z</time>
      </trkpt>
      <trkpt lat="40.272584" lon="-4.970419">
        <ele>914.571</ele>
        <time>2021-10-16T09:50:41Z</time>
      </trkpt>
      <trkpt lat="40.272733" lon="-4.970378">
        <ele>915.336</ele>
        <time>2021-10-16T09:50:42Z</time>
      </trkpt>
      <trkpt lat="40.273003" lon="-4.970254">
        <ele>915.795</ele>
        <time>2021-10-16T09:50:44Z</time>
      </trkpt>
      <trkpt lat="40.273239" lon="-4.970055">
        <ele>915.097</ele>
        <time>2021-10-16T09:50:46Z</time>
      </trkpt>
      <trkpt lat="40.273346" lon="-4.969923">
        <ele>913.464</ele>
        <time>2021-10-16T09:50:47Z</time>
      </trkpt>
      <trkpt lat="40.273454" lon="-4.969791">
        <ele>912.495</ele>
        <time>2021-10-16T09:50:48Z</time>
      </trkpt>
      <trkpt lat="40.273575" lon="-4.969676">
        <ele>910.649</ele>
        <time>2021-10-16T09:50:49Z</time>
      </trkpt>
      <trkpt lat="40.273708" lon="-4.969585">
        <ele>909.223</ele>
        <time>2021-10-16T09:50:50Z</time>
      </trkpt>
      <trkpt lat="40.273979" lon="-4.969473">
        <ele>906.408</ele>
        <time>2021-10-16T09:50:52Z</time>
      </trkpt>
      <trkpt lat="40.274109" lon="-4.969423">
        <ele>905.167</ele>
        <time>2021-10-16T09:50:53Z</time>
      </trkpt>
      <trkpt lat="40.274228" lon="-4.969353">
        <ele>902.475</ele>
        <time>2021-10-16T09:50:54Z</time>
      </trkpt>
      <trkpt lat="40.274328" lon="-4.969254">
        <ele>901.554</ele>
        <time>2021-10-16T09:50:55Z</time>
      </trkpt>
      <trkpt lat="40.274460" lon="-4.968991">
        <ele>898.678</ele>
        <time>2021-10-16T09:50:57Z</time>
      </trkpt>
      <trkpt lat="40.274556" lon="-4.968769">
        <ele>896.333</ele>
        <time>2021-10-16T09:50:59Z</time>
      </trkpt>
      <trkpt lat="40.274622" lon="-4.968694">
        <ele>895.732</ele>
        <time>2021-10-16T09:51:00Z</time>
      </trkpt>
      <trkpt lat="40.274780" lon="-4.968641">
        <ele>893.734</ele>
        <time>2021-10-16T09:51:02Z</time>
      </trkpt>
      <trkpt lat="40.274934" lon="-4.968793">
        <ele>892.231</ele>
        <time>2021-10-16T09:51:04Z</time>
      </trkpt>
      <trkpt lat="40.275086" lon="-4.969164">
        <ele>890.333</ele>
        <time>2021-10-16T09:51:06Z</time>
      </trkpt>
      <trkpt lat="40.275162" lon="-4.969376">
        <ele>887.223</ele>
        <time>2021-10-16T09:51:07Z</time>
      </trkpt>
      <trkpt lat="40.275231" lon="-4.969570">
        <ele>886.915</ele>
        <time>2021-10-16T09:51:08Z</time>
      </trkpt>
      <trkpt lat="40.275392" lon="-4.969855">
        <ele>884.208</ele>
        <time>2021-10-16T09:51:10Z</time>
      </trkpt>
      <trkpt lat="40.275502" lon="-4.969932">
        <ele>881.711</ele>
        <time>2021-10-16T09:51:11Z</time>
      </trkpt>
      <trkpt lat="40.275620" lon="-4.969974">
        <ele>883.089</ele>
        <time>2021-10-16T09:51:12Z</time>
      </trkpt>
      <trkpt lat="40.275824" lon="-4.970079">
        <ele>882.328</ele>
        <time>2021-10-16T09:51:14Z</time>
      </trkpt>
      <trkpt lat="40.275935" lon="-4.970294">
        <ele>879.642</ele>
        <time>2021-10-16T09:51:16Z</time>
      </trkpt>
      <trkpt lat="40.275948" lon="-4.970434">
        <ele>879.697</ele>
        <time>2021-10-16T09:51:17Z</time>
      </trkpt>
      <trkpt lat="40.275962" lon="-4.970573">
        <ele>878.976</ele>
        <time>2021-10-16T09:51:18Z</time>
      </trkpt>
      <trkpt lat="40.276071" lon="-4.970759">
        <ele>877.278</ele>
        <time>2021-10-16T09:51:20Z</time>
      </trkpt>
      <trkpt lat="40.276247" lon="-4.970758">
        <ele>876.275</ele>
        <time>2021-10-16T09:51:22Z</time>
      </trkpt>
      <trkpt lat="40.276483" lon="-4.970622">
        <ele>875.593</ele>
        <time>2021-10-16T09:51:24Z</time>
      </trkpt>
      <trkpt lat="40.276700" lon="-4.970420">
        <ele>873.965</ele>
        <time>2021-10-16T09:51:26Z</time>
      </trkpt>
      <trkpt lat="40.276838" lon="-4.970203">
        <ele>872.121</ele>
        <time>2021-10-16T09:51:28Z</time>
      </trkpt>
      <trkpt lat="40.276901" lon="-4.970130">
        <ele>869.608</ele>
        <time>2021-10-16T09:51:29Z</time>
      </trkpt>
      <trkpt lat="40.276959" lon="-4.970091">
        <ele>869.047</ele>
        <time>2021-10-16T09:51:30Z</time>
      </trkpt>
      <trkpt lat="40.277009" lon="-4.970098">
        <ele>869.015</ele>
        <time>2021-10-16T09:51:31Z</time>
      </trkpt>
      <trkpt lat="40.277040" lon="-4.970231">
        <ele>867.494</ele>
        <time>2021-10-16T09:51:33Z</time>
      </trkpt>
      <trkpt lat="40.277007" lon="-4.970341">
        <ele>867.248</ele>
        <time>2021-10-16T09:51:34Z</time>
      </trkpt>
      <trkpt lat="40.276773" lon="-4.970646">
        <ele>863.363</ele>
        <time>2021-10-16T09:51:36Z</time>
      </trkpt>
      <trkpt lat="40.276611" lon="-4.970796">
        <ele>862.472</ele>
        <time>2021-10-16T09:51:37Z</time>
      </trkpt>
      <trkpt lat="40.276456" lon="-4.970926">
        <ele>860.854</ele>
        <time>2021-10-16T09:51:38Z</time>
      </trkpt>
      <trkpt lat="40.276133" lon="-4.971119">
        <ele>858.631</ele>
        <time>2021-10-16T09:51:40Z</time>
      </trkpt>
      <trkpt lat="40.275816" lon="-4.971223">
        <ele>857.687</ele>
        <time>2021-10-16T09:51:42Z</time>
      </trkpt>
      <trkpt lat="40.275671" lon="-4.971266">
        <ele>856.642</ele>
        <time>2021-10-16T09:51:43Z</time>
      </trkpt>
      <trkpt lat="40.275554" lon="-4.971284">
        <ele>855.226</ele>
        <time>2021-10-16T09:51:44Z</time>
      </trkpt>
      <trkpt lat="40.275347" lon="-4.971228">
        <ele>854.408</ele>
        <time>2021-10-16T09:51:46Z</time>
      </trkpt>
      <trkpt lat="40.275259" lon="-4.971143">
        <ele>854.316</ele>
        <time>2021-10-16T09:51:47Z</time>
      </trkpt>
      <trkpt lat="40.275184" lon="-4.971013">
        <ele>853.434</ele>
        <time>2021-10-16T09:51:48Z</time>
      </trkpt>
      <trkpt lat="40.275124" lon="-4.970853">
        <ele>851.153</ele>
        <time>2021-10-16T09:51:49Z</time>
      </trkpt>
      <trkpt lat="40.275065" lon="-4.970697">
        <ele>851.387</ele>
        <time>2021-10-16T09:51:50Z</time>
      </trkpt>
      <trkpt lat="40.274927" lon="-4.970484">
        <ele>849.462</ele>
        <time>2021-10-16T09:51:52Z</time>
      </trkpt>
      <trkpt lat="40.274765" lon="-4.970414">
        <ele>848.881</ele>
        <time>2021-10-16T09:51:54Z</time>
      </trkpt>
      <trkpt lat="40.274633" lon="-4.970505">
        <ele>847.583</ele>
        <time>2021-10-16T09:51:56Z</time>
      </trkpt>
      <trkpt lat="40.274591" lon="-4.970788">
        <ele>847.430</ele>
        <time>2021-10-16T09:51:58Z</time>
      </trkpt>
      <trkpt lat="40.274514" lon="-4.971155">
        <ele>845.286</ele>
        <time>2021-10-16T09:52:00Z</time>
      </trkpt>
      <trkpt lat="40.274426" lon="-4.971333">
        <ele>843.660</ele>
        <time>2021-10-16T09:52:01Z</time>
      </trkpt>
      <trkpt lat="40.274309" lon="-4.971504">
        <ele>841.026</ele>
        <time>2021-10-16T09:52:02Z</time>
      </trkpt>
      <trkpt lat="40.274067" lon="-4.971785">
        <ele>839.708</ele>
        <time>2021-10-16T09:52:04Z</time>
      </trkpt>
      <trkpt lat="40.273851" lon="-4.972059">
        <ele>836.776</ele>
        <time>2021-10-16T09:52:06Z</time>
      </trkpt>
      <trkpt lat="40.273679" lon="-4.972362">
        <ele>835.014</ele>
        <time>2021-10-16T09:52:08Z</time>
      </trkpt>
      <trkpt lat="40.273480" lon="-4.972611">
        <ele>832.643</ele>
        <time>2021-10-16T09:52:10Z</time>
      </trkpt>
      <trkpt lat="40.273346" lon="-4.972702">
        <ele>830.847</ele>
        <time>2021-10-16T09:52:11Z</time>
      </trkpt>
      <trkpt lat="40.273193" lon="-4.972767">
        <ele>830.922</ele>
        <time>2021-10-16T09:52:12Z</time>
      </trkpt>
      <trkpt lat="40.273029" lon="-4.972820">
        <ele>830.691</ele>
        <time>2021-10-16T09:52:13Z</time>
      </trkpt>
      <trkpt lat="40.272868" lon="-4.972873">
        <ele>828.973</ele>
        <time>2021-10-16T09:52:14Z</time>
      </trkpt>
      <trkpt lat="40.272572" lon="-4.972966">
        <ele>827.320</ele>
        <time>2021-10-16T09:52:16Z</time>
      </trkpt>
      <trkpt lat="40.272314" lon="-4.973009">
        <ele>825.292</ele>
        <time>2021-10-16T09:52:18Z</time>
      </trkpt>
      <trkpt lat="40.272112" lon="-4.972953">
        <ele>823.973</ele>
        <time>2021-10-16T09:52:20Z</time>
      </trkpt>
      <trkpt lat="40.272034" lon="-4.972885">
        <ele>823.020</ele>
        <time>2021-10-16T09:52:21Z</time>
      </trkpt>
      <trkpt lat="40.271896" lon="-4.972752">
        <ele>822.708</ele>
        <time>2021-10-16T09:52:23Z</time>
      </trkpt>
      <trkpt lat="40.271765" lon="-4.972745">
        <ele>822.397</ele>
        <time>2021-10-16T09:52:25Z</time>
      </trkpt>
      <trkpt lat="40.271745" lon="-4.972800">
        <ele>822.525</ele>
        <time>2021-10-16T09:52:26Z</time>
      </trkpt>
      <trkpt lat="40.271823" lon="-4.972948">
        <ele>821.474</ele>
        <time>2021-10-16T09:52:28Z</time>
      </trkpt>
      <trkpt lat="40.272061" lon="-4.973205">
        <ele>822.168</ele>
        <time>2021-10-16T09:52:30Z</time>
      </trkpt>
      <trkpt lat="40.272358" lon="-4.973467">
        <ele>820.253</ele>
        <time>2021-10-16T09:52:32Z</time>
      </trkpt>
      <trkpt lat="40.272502" lon="-4.973549">
        <ele>820.142</ele>
        <time>2021-10-16T09:52:33Z</time>
      </trkpt>
      <trkpt lat="40.272638" lon="-4.973577">
        <ele>821.294</ele>
        <time>2021-10-16T09:52:34Z</time>
      </trkpt>
      <trkpt lat="40.272890" lon="-4.973540">
        <ele>820.671</ele>
        <time>2021-10-16T09:52:36Z</time>
      </trkpt>
      <trkpt lat="40.273014" lon="-4.973533">
        <ele>820.115</ele>
        <time>2021-10-16T09:52:37Z</time>
      </trkpt>
      <trkpt lat="40.273136" lon="-4.973569">
        <ele>818.465</ele>
        <time>2021-10-16T09:52:38Z</time>
      </trkpt>
      <trkpt lat="40.273363" lon="-4.973706">
        <ele>817.211</ele>
        <time>2021-10-16T09:52:40Z</time>
      </trkpt>
      <trkpt lat="40.273602" lon="-4.973735">
        <ele>813.608</ele>
        <time>2021-10-16T09:52:42Z</time>
      </trkpt>
      <trkpt lat="40.273819" lon="-4.973598">
        <ele>812.299</ele>
        <time>2021-10-16T09:52:44Z</time>
      </trkpt>
      <trkpt lat="40.273987" lon="-4.973419">
        <ele>811.017</ele>
        <time>2021-10-16T09:52:46Z</time>
      </trkpt>
      <trkpt lat="40.274069" lon="-4.973366">
        <ele>808.736</ele>
        <time>2021-10-16T09:52:47Z</time>
      </trkpt>
      <trkpt lat="40.274227" lon="-4.973360">
        <ele>808.560</ele>
        <time>2021-10-16T09:52:49Z</time>
      </trkpt>
      <trkpt lat="40.274301" lon="-4.973409">
        <ele>807.535</ele>
        <time>2021-10-16T09:52:50Z</time>
      </trkpt>
      <trkpt lat="40.274407" lon="-4.973635">
        <ele>805.894</ele>
        <time>2021-10-16T09:52:52Z</time>
      </trkpt>
      <trkpt lat="40.274558" lon="-4.973870">
        <ele>800.816</ele>
        <time>2021-10-16T09:52:54Z</time>
      </trkpt>
      <trkpt lat="40.274782" lon="-4.973988">
        <ele>797.183</ele>
        <time>2021-10-16T09:52:56Z</time>
      </trkpt>
      <trkpt lat="40.274990" lon="-4.974111">
        <ele>794.744</ele>
        <time>2021-10-16T09:52:58Z</time>
      </trkpt>
      <trkpt lat="40.275068" lon="-4.974214">
        <ele>793.405</ele>
        <time>2021-10-16T09:52:59Z</time>
      </trkpt>
      <trkpt lat="40.275129" lon="-4.974495">
        <ele>793.015</ele>
        <time>2021-10-16T09:53:01Z</time>
      </trkpt>
      <trkpt lat="40.275108" lon="-4.974671">
        <ele>791.608</ele>
        <time>2021-10-16T09:53:02Z</time>
      </trkpt>
      <trkpt lat="40.275082" lon="-4.974864">
        <ele>791.012</ele>
        <time>2021-10-16T09:53:03Z</time>
      </trkpt>
      <trkpt lat="40.275095" lon="-4.975256">
        <ele>788.150</ele>
        <time>2021-10-16T09:53:05Z</time>
      </trkpt>
      <trkpt lat="40.275118" lon="-4.975444">
        <ele>788.949</ele>
        <time>2021-10-16T09:53:06Z</time>
      </trkpt>
      <trkpt lat="40.275126" lon="-4.975625">
        <ele>788.073</ele>
        <time>2021-10-16T09:53:07Z</time>
      </trkpt>
      <trkpt lat="40.275119" lon="-4.975805">
        <ele>785.958</ele>
        <time>2021-10-16T09:53:08Z</time>
      </trkpt>
      <trkpt lat="40.275086" lon="-4.976172">
        <ele>784.297</ele>
        <time>2021-10-16T09:53:10Z</time>
      </trkpt>
      <trkpt lat="40.275003" lon="-4.976557">
        <ele>781.689</ele>
        <time>2021-10-16T09:53:12Z</time>
      </trkpt>
      <trkpt lat="40.274892" lon="-4.976947">
        <ele>779.326</ele>
        <time>2021-10-16T09:53:14Z</time>
      </trkpt>
      <trkpt lat="40.274798" lon="-4.977319">
        <ele>778.287</ele>
        <time>2021-10-16T09:53:16Z</time>
      </trkpt>
      <trkpt lat="40.274738" lon="-4.977637">
        <ele>777.742</ele>
        <time>2021-10-16T09:53:18Z</time>
      </trkpt>
      <trkpt lat="40.274750" lon="-4.977878">
        <ele>775.726</ele>
        <time>2021-10-16T09:53:20Z</time>
      </trkpt>
      <trkpt lat="40.274856" lon="-4.978032">
        <ele>774.208</ele>
        <time>2021-10-16T09:53:22Z</time>
      </trkpt>
      <trkpt lat="40.274934" lon="-4.978063">
        <ele>774.256</ele>
        <time>2021-10-16T09:53:23Z</time>
      </trkpt>
      <trkpt lat="40.275137" lon="-4.978041">
        <ele>773.374</ele>
        <time>2021-10-16T09:53:25Z</time>
      </trkpt>
      <trkpt lat="40.275346" lon="-4.978063">
        <ele>771.853</ele>
        <time>2021-10-16T09:53:27Z</time>
      </trkpt>
      <trkpt lat="40.275432" lon="-4.978125">
        <ele>771.837</ele>
        <time>2021-10-16T09:53:28Z</time>
      </trkpt>
      <trkpt lat="40.275528" lon="-4.978331">
        <ele>769.942</ele>
        <time>2021-10-16T09:53:30Z</time>
      </trkpt>
      <trkpt lat="40.275527" lon="-4.978470">
        <ele>769.681</ele>
        <time>2021-10-16T09:53:31Z</time>
      </trkpt>
      <trkpt lat="40.275513" lon="-4.978617">
        <ele>769.473</ele>
        <time>2021-10-16T09:53:32Z</time>
      </trkpt>
      <trkpt lat="40.275491" lon="-4.978914">
        <ele>765.790</ele>
        <time>2021-10-16T09:53:34Z</time>
      </trkpt>
      <trkpt lat="40.275479" lon="-4.979070">
        <ele>764.487</ele>
        <time>2021-10-16T09:53:35Z</time>
      </trkpt>
      <trkpt lat="40.275469" lon="-4.979371">
        <ele>763.842</ele>
        <time>2021-10-16T09:53:37Z</time>
      </trkpt>
      <trkpt lat="40.275480" lon="-4.979504">
        <ele>763.726</ele>
        <time>2021-10-16T09:53:38Z</time>
      </trkpt>
      <trkpt lat="40.275556" lon="-4.979705">
        <ele>763.708</ele>
        <time>2021-10-16T09:53:40Z</time>
      </trkpt>
      <trkpt lat="40.275703" lon="-4.979839">
        <ele>762.716</ele>
        <time>2021-10-16T09:53:42Z</time>
      </trkpt>
      <trkpt lat="40.275786" lon="-4.979899">
        <ele>761.864</ele>
        <time>2021-10-16T09:53:43Z</time>
      </trkpt>
      <trkpt lat="40.275879" lon="-4.979948">
        <ele>761.563</ele>
        <time>2021-10-16T09:53:44Z</time>
      </trkpt>
      <trkpt lat="40.276101" lon="-4.979994">
        <ele>762.937</ele>
        <time>2021-10-16T09:53:46Z</time>
      </trkpt>
      <trkpt lat="40.276208" lon="-4.979992">
        <ele>761.832</ele>
        <time>2021-10-16T09:53:47Z</time>
      </trkpt>
      <trkpt lat="40.276409" lon="-4.979976">
        <ele>763.071</ele>
        <time>2021-10-16T09:53:49Z</time>
      </trkpt>
      <trkpt lat="40.276506" lon="-4.979991">
        <ele>763.073</ele>
        <time>2021-10-16T09:53:50Z</time>
      </trkpt>
      <trkpt lat="40.276669" lon="-4.980103">
        <ele>761.550</ele>
        <time>2021-10-16T09:53:52Z</time>
      </trkpt>
      <trkpt lat="40.276723" lon="-4.980194">
        <ele>758.945</ele>
        <time>2021-10-16T09:53:53Z</time>
      </trkpt>
      <trkpt lat="40.276758" lon="-4.980402">
        <ele>758.047</ele>
        <time>2021-10-16T09:53:55Z</time>
      </trkpt>
      <trkpt lat="40.276733" lon="-4.980508">
        <ele>756.811</ele>
        <time>2021-10-16T09:53:56Z</time>
      </trkpt>
      <trkpt lat="40.276606" lon="-4.980668">
        <ele>755.308</ele>
        <time>2021-10-16T09:53:58Z</time>
      </trkpt>
      <trkpt lat="40.276453" lon="-4.980791">
        <ele>751.012</ele>
        <time>2021-10-16T09:54:00Z</time>
      </trkpt>
      <trkpt lat="40.276373" lon="-4.980849">
        <ele>749.010</ele>
        <time>2021-10-16T09:54:01Z</time>
      </trkpt>
      <trkpt lat="40.276294" lon="-4.980907">
        <ele>748.699</ele>
        <time>2021-10-16T09:54:02Z</time>
      </trkpt>
      <trkpt lat="40.276160" lon="-4.981053">
        <ele>745.513</ele>
        <time>2021-10-16T09:54:04Z</time>
      </trkpt>
      <trkpt lat="40.276118" lon="-4.981227">
        <ele>744.088</ele>
        <time>2021-10-16T09:54:06Z</time>
      </trkpt>
      <trkpt lat="40.276176" lon="-4.981418">
        <ele>741.667</ele>
        <time>2021-10-16T09:54:08Z</time>
      </trkpt>
      <trkpt lat="40.276217" lon="-4.981612">
        <ele>739.389</ele>
        <time>2021-10-16T09:54:10Z</time>
      </trkpt>
      <trkpt lat="40.276155" lon="-4.981825">
        <ele>738.556</ele>
        <time>2021-10-16T09:54:12Z</time>
      </trkpt>
      <trkpt lat="40.276035" lon="-4.982014">
        <ele>735.699</ele>
        <time>2021-10-16T09:54:14Z</time>
      </trkpt>
      <trkpt lat="40.275893" lon="-4.982149">
        <ele>735.707</ele>
        <time>2021-10-16T09:54:16Z</time>
      </trkpt>
      <trkpt lat="40.275821" lon="-4.982183">
        <ele>734.827</ele>
        <time>2021-10-16T09:54:17Z</time>
      </trkpt>
      <trkpt lat="40.275752" lon="-4.982197">
        <ele>734.008</ele>
        <time>2021-10-16T09:54:18Z</time>
      </trkpt>
      <trkpt lat="40.275691" lon="-4.982206">
        <ele>732.797</ele>
        <time>2021-10-16T09:54:19Z</time>
      </trkpt>
      <trkpt lat="40.275638" lon="-4.982222">
        <ele>732.035</ele>
        <time>2021-10-16T09:54:20Z</time>
      </trkpt>
      <trkpt lat="40.275577" lon="-4.982280">
        <ele>731.514</ele>
        <time>2021-10-16T09:54:22Z</time>
      </trkpt>
      <trkpt lat="40.275539" lon="-4.982381">
        <ele>731.548</ele>
        <time>2021-10-16T09:54:24Z</time>
      </trkpt>
      <trkpt lat="40.275496" lon="-4.982501">
        <ele>731.533</ele>
        <time>2021-10-16T09:54:26Z</time>
      </trkpt>
      <trkpt lat="40.275418" lon="-4.982594">
        <ele>731.592</ele>
        <time>2021-10-16T09:54:28Z</time>
      </trkpt>
      <trkpt lat="40.275312" lon="-4.982663">
        <ele>730.644</ele>
        <time>2021-10-16T09:54:30Z</time>
      </trkpt>
      <trkpt lat="40.275197" lon="-4.982732">
        <ele>728.681</ele>
        <time>2021-10-16T09:54:32Z</time>
      </trkpt>
      <trkpt lat="40.275137" lon="-4.982779">
        <ele>727.674</ele>
        <time>2021-10-16T09:54:33Z</time>
      </trkpt>
      <trkpt lat="40.275078" lon="-4.982826">
        <ele>727.156</ele>
        <time>2021-10-16T09:54:34Z</time>
      </trkpt>
      <trkpt lat="40.274945" lon="-4.982918">
        <ele>724.021</ele>
        <time>2021-10-16T09:54:36Z</time>
      </trkpt>
      <trkpt lat="40.274873" lon="-4.982949">
        <ele>723.708</ele>
        <time>2021-10-16T09:54:37Z</time>
      </trkpt>
      <trkpt lat="40.274801" lon="-4.982974">
        <ele>722.895</ele>
        <time>2021-10-16T09:54:38Z</time>
      </trkpt>
      <trkpt lat="40.274641" lon="-4.982967">
        <ele>722.183</ele>
        <time>2021-10-16T09:54:40Z</time>
      </trkpt>
      <trkpt lat="40.274464" lon="-4.982902">
        <ele>721.712</ele>
        <time>2021-10-16T09:54:42Z</time>
      </trkpt>
      <trkpt lat="40.274284" lon="-4.982847">
        <ele>720.266</ele>
        <time>2021-10-16T09:54:44Z</time>
      </trkpt>
      <trkpt lat="40.274107" lon="-4.982805">
        <ele>720.761</ele>
        <time>2021-10-16T09:54:46Z</time>
      </trkpt>
      <trkpt lat="40.274029" lon="-4.982784">
        <ele>720.740</ele>
        <time>2021-10-16T09:54:47Z</time>
      </trkpt>
      <trkpt lat="40.273877" lon="-4.982734">
        <ele>720.792</ele>
        <time>2021-10-16T09:54:49Z</time>
      </trkpt>
      <trkpt lat="40.273796" lon="-4.982691">
        <ele>720.649</ele>
        <time>2021-10-16T09:54:50Z</time>
      </trkpt>
      <trkpt lat="40.273634" lon="-4.982556">
        <ele>720.635</ele>
        <time>2021-10-16T09:54:52Z</time>
      </trkpt>
      <trkpt lat="40.273552" lon="-4.982475">
        <ele>720.986</ele>
        <time>2021-10-16T09:54:53Z</time>
      </trkpt>
      <trkpt lat="40.273382" lon="-4.982315">
        <ele>720.914</ele>
        <time>2021-10-16T09:54:55Z</time>
      </trkpt>
      <trkpt lat="40.273281" lon="-4.982239">
        <ele>720.408</ele>
        <time>2021-10-16T09:54:56Z</time>
      </trkpt>
      <trkpt lat="40.273084" lon="-4.982111">
        <ele>719.221</ele>
        <time>2021-10-16T09:54:58Z</time>
      </trkpt>
      <trkpt lat="40.272868" lon="-4.981996">
        <ele>717.359</ele>
        <time>2021-10-16T09:55:00Z</time>
      </trkpt>
      <trkpt lat="40.272641" lon="-4.981875">
        <ele>716.218</ele>
        <time>2021-10-16T09:55:02Z</time>
      </trkpt>
      <trkpt lat="40.272407" lon="-4.981758">
        <ele>715.652</ele>
        <time>2021-10-16T09:55:04Z</time>
      </trkpt>
      <trkpt lat="40.272176" lon="-4.981634">
        <ele>715.467</ele>
        <time>2021-10-16T09:55:06Z</time>
      </trkpt>
      <trkpt lat="40.271950" lon="-4.981465">
        <ele>715.056</ele>
        <time>2021-10-16T09:55:08Z</time>
      </trkpt>
      <trkpt lat="40.271747" lon="-4.981294">
        <ele>712.828</ele>
        <time>2021-10-16T09:55:10Z</time>
      </trkpt>
      <trkpt lat="40.271565" lon="-4.981209">
        <ele>711.025</ele>
        <time>2021-10-16T09:55:12Z</time>
      </trkpt>
      <trkpt lat="40.271427" lon="-4.981289">
        <ele>710.161</ele>
        <time>2021-10-16T09:55:14Z</time>
      </trkpt>
      <trkpt lat="40.271281" lon="-4.981516">
        <ele>708.721</ele>
        <time>2021-10-16T09:55:16Z</time>
      </trkpt>
      <trkpt lat="40.271067" lon="-4.981752">
        <ele>710.813</ele>
        <time>2021-10-16T09:55:18Z</time>
      </trkpt>
      <trkpt lat="40.270942" lon="-4.981840">
        <ele>711.108</ele>
        <time>2021-10-16T09:55:19Z</time>
      </trkpt>
      <trkpt lat="40.270804" lon="-4.981911">
        <ele>711.624</ele>
        <time>2021-10-16T09:55:20Z</time>
      </trkpt>
      <trkpt lat="40.270486" lon="-4.982032">
        <ele>712.782</ele>
        <time>2021-10-16T09:55:22Z</time>
      </trkpt>
      <trkpt lat="40.270147" lon="-4.982129">
        <ele>714.391</ele>
        <time>2021-10-16T09:55:24Z</time>
      </trkpt>
      <trkpt lat="40.269849" lon="-4.982119">
        <ele>715.855</ele>
        <time>2021-10-16T09:55:26Z</time>
      </trkpt>
      <trkpt lat="40.269564" lon="-4.982044">
        <ele>716.040</ele>
        <time>2021-10-16T09:55:28Z</time>
      </trkpt>
      <trkpt lat="40.269416" lon="-4.982063">
        <ele>717.599</ele>
        <time>2021-10-16T09:55:29Z</time>
      </trkpt>
      <trkpt lat="40.269136" lon="-4.982189">
        <ele>721.211</ele>
        <time>2021-10-16T09:55:31Z</time>
      </trkpt>
      <trkpt lat="40.268988" lon="-4.982241">
        <ele>721.328</ele>
        <time>2021-10-16T09:55:32Z</time>
      </trkpt>
      <trkpt lat="40.268679" lon="-4.982386">
        <ele>724.066</ele>
        <time>2021-10-16T09:55:34Z</time>
      </trkpt>
      <trkpt lat="40.268383" lon="-4.982610">
        <ele>726.229</ele>
        <time>2021-10-16T09:55:36Z</time>
      </trkpt>
      <trkpt lat="40.268235" lon="-4.982723">
        <ele>726.821</ele>
        <time>2021-10-16T09:55:37Z</time>
      </trkpt>
      <trkpt lat="40.268093" lon="-4.982821">
        <ele>726.908</ele>
        <time>2021-10-16T09:55:38Z</time>
      </trkpt>
      <trkpt lat="40.267951" lon="-4.982900">
        <ele>727.834</ele>
        <time>2021-10-16T09:55:39Z</time>
      </trkpt>
      <trkpt lat="40.267664" lon="-4.983040">
        <ele>727.262</ele>
        <time>2021-10-16T09:55:41Z</time>
      </trkpt>
      <trkpt lat="40.267392" lon="-4.983269">
        <ele>729.491</ele>
        <time>2021-10-16T09:55:43Z</time>
      </trkpt>
      <trkpt lat="40.267274" lon="-4.983429">
        <ele>729.985</ele>
        <time>2021-10-16T09:55:44Z</time>
      </trkpt>
      <trkpt lat="40.267052" lon="-4.983769">
        <ele>731.670</ele>
        <time>2021-10-16T09:55:46Z</time>
      </trkpt>
      <trkpt lat="40.266935" lon="-4.983930">
        <ele>731.159</ele>
        <time>2021-10-16T09:55:47Z</time>
      </trkpt>
      <trkpt lat="40.266817" lon="-4.984089">
        <ele>731.011</ele>
        <time>2021-10-16T09:55:48Z</time>
      </trkpt>
      <trkpt lat="40.266699" lon="-4.984250">
        <ele>730.378</ele>
        <time>2021-10-16T09:55:49Z</time>
      </trkpt>
      <trkpt lat="40.266578" lon="-4.984415">
        <ele>729.657</ele>
        <time>2021-10-16T09:55:50Z</time>
      </trkpt>
      <trkpt lat="40.266322" lon="-4.984728">
        <ele>726.100</ele>
        <time>2021-10-16T09:55:52Z</time>
      </trkpt>
      <trkpt lat="40.266191" lon="-4.984872">
        <ele>724.920</ele>
        <time>2021-10-16T09:55:53Z</time>
      </trkpt>
      <trkpt lat="40.265930" lon="-4.985137">
        <ele>722.008</ele>
        <time>2021-10-16T09:55:55Z</time>
      </trkpt>
      <trkpt lat="40.265693" lon="-4.985373">
        <ele>720.013</ele>
        <time>2021-10-16T09:55:57Z</time>
      </trkpt>
      <trkpt lat="40.265452" lon="-4.985550">
        <ele>718.781</ele>
        <time>2021-10-16T09:55:59Z</time>
      </trkpt>
      <trkpt lat="40.265178" lon="-4.985585">
        <ele>715.570</ele>
        <time>2021-10-16T09:56:01Z</time>
      </trkpt>
      <trkpt lat="40.265024" lon="-4.985556">
        <ele>714.574</ele>
        <time>2021-10-16T09:56:02Z</time>
      </trkpt>
      <trkpt lat="40.264740" lon="-4.985486">
        <ele>712.479</ele>
        <time>2021-10-16T09:56:04Z</time>
      </trkpt>
      <trkpt lat="40.264606" lon="-4.985458">
        <ele>710.538</ele>
        <time>2021-10-16T09:56:05Z</time>
      </trkpt>
      <trkpt lat="40.264359" lon="-4.985473">
        <ele>709.710</ele>
        <time>2021-10-16T09:56:07Z</time>
      </trkpt>
      <trkpt lat="40.264249" lon="-4.985538">
        <ele>707.387</ele>
        <time>2021-10-16T09:56:08Z</time>
      </trkpt>
      <trkpt lat="40.264083" lon="-4.985800">
        <ele>704.366</ele>
        <time>2021-10-16T09:56:10Z</time>
      </trkpt>
      <trkpt lat="40.264017" lon="-4.985978">
        <ele>702.429</ele>
        <time>2021-10-16T09:56:11Z</time>
      </trkpt>
      <trkpt lat="40.263953" lon="-4.986160">
        <ele>699.221</ele>
        <time>2021-10-16T09:56:12Z</time>
      </trkpt>
      <trkpt lat="40.263818" lon="-4.986549">
        <ele>697.408</ele>
        <time>2021-10-16T09:56:14Z</time>
      </trkpt>
      <trkpt lat="40.263729" lon="-4.986961">
        <ele>696.984</ele>
        <time>2021-10-16T09:56:16Z</time>
      </trkpt>
      <trkpt lat="40.263698" lon="-4.987359">
        <ele>695.922</ele>
        <time>2021-10-16T09:56:18Z</time>
      </trkpt>
      <trkpt lat="40.263700" lon="-4.987719">
        <ele>693.711</ele>
        <time>2021-10-16T09:56:20Z</time>
      </trkpt>
      <trkpt lat="40.263655" lon="-4.988019">
        <ele>692.845</ele>
        <time>2021-10-16T09:56:22Z</time>
      </trkpt>
      <trkpt lat="40.263492" lon="-4.988258">
        <ele>690.130</ele>
        <time>2021-10-16T09:56:24Z</time>
      </trkpt>
      <trkpt lat="40.263366" lon="-4.988343">
        <ele>690.189</ele>
        <time>2021-10-16T09:56:25Z</time>
      </trkpt>
      <trkpt lat="40.263224" lon="-4.988402">
        <ele>689.491</ele>
        <time>2021-10-16T09:56:26Z</time>
      </trkpt>
      <trkpt lat="40.262925" lon="-4.988424">
        <ele>687.878</ele>
        <time>2021-10-16T09:56:28Z</time>
      </trkpt>
      <trkpt lat="40.262786" lon="-4.988372">
        <ele>687.645</ele>
        <time>2021-10-16T09:56:29Z</time>
      </trkpt>
      <trkpt lat="40.262553" lon="-4.988262">
        <ele>686.847</ele>
        <time>2021-10-16T09:56:31Z</time>
      </trkpt>
      <trkpt lat="40.262376" lon="-4.988302">
        <ele>686.611</ele>
        <time>2021-10-16T09:56:33Z</time>
      </trkpt>
      <trkpt lat="40.262324" lon="-4.988387">
        <ele>686.508</ele>
        <time>2021-10-16T09:56:34Z</time>
      </trkpt>
      <trkpt lat="40.262289" lon="-4.988508">
        <ele>685.812</ele>
        <time>2021-10-16T09:56:35Z</time>
      </trkpt>
      <trkpt lat="40.262227" lon="-4.988814">
        <ele>685.950</ele>
        <time>2021-10-16T09:56:37Z</time>
      </trkpt>
      <trkpt lat="40.262171" lon="-4.988961">
        <ele>686.949</ele>
        <time>2021-10-16T09:56:38Z</time>
      </trkpt>
      <trkpt lat="40.261976" lon="-4.989189">
        <ele>686.923</ele>
        <time>2021-10-16T09:56:40Z</time>
      </trkpt>
      <trkpt lat="40.261832" lon="-4.989284">
        <ele>686.888</ele>
        <time>2021-10-16T09:56:41Z</time>
      </trkpt>
      <trkpt lat="40.261670" lon="-4.989380">
        <ele>686.547</ele>
        <time>2021-10-16T09:56:42Z</time>
      </trkpt>
      <trkpt lat="40.261321" lon="-4.989576">
        <ele>686.029</ele>
        <time>2021-10-16T09:56:44Z</time>
      </trkpt>
      <trkpt lat="40.261008" lon="-4.989787">
        <ele>686.856</ele>
        <time>2021-10-16T09:56:46Z</time>
      </trkpt>
      <trkpt lat="40.260867" lon="-4.989894">
        <ele>688.865</ele>
        <time>2021-10-16T09:56:47Z</time>
      </trkpt>
      <trkpt lat="40.260728" lon="-4.989995">
        <ele>689.068</ele>
        <time>2021-10-16T09:56:48Z</time>
      </trkpt>
      <trkpt lat="40.260596" lon="-4.990099">
        <ele>686.814</ele>
        <time>2021-10-16T09:56:49Z</time>
      </trkpt>
      <trkpt lat="40.260468" lon="-4.990219">
        <ele>686.308</ele>
        <time>2021-10-16T09:56:50Z</time>
      </trkpt>
      <trkpt lat="40.260254" lon="-4.990507">
        <ele>684.224</ele>
        <time>2021-10-16T09:56:52Z</time>
      </trkpt>
      <trkpt lat="40.260177" lon="-4.990675">
        <ele>684.862</ele>
        <time>2021-10-16T09:56:53Z</time>
      </trkpt>
      <trkpt lat="40.260048" lon="-4.991023">
        <ele>682.031</ele>
        <time>2021-10-16T09:56:55Z</time>
      </trkpt>
      <trkpt lat="40.259848" lon="-4.991317">
        <ele>684.625</ele>
        <time>2021-10-16T09:56:57Z</time>
      </trkpt>
      <trkpt lat="40.259648" lon="-4.991615">
        <ele>683.480</ele>
        <time>2021-10-16T09:56:59Z</time>
      </trkpt>
      <trkpt lat="40.259588" lon="-4.991778">
        <ele>684.259</ele>
        <time>2021-10-16T09:57:00Z</time>
      </trkpt>
      <trkpt lat="40.259519" lon="-4.992124">
        <ele>683.821</ele>
        <time>2021-10-16T09:57:02Z</time>
      </trkpt>
      <trkpt lat="40.259397" lon="-4.992433">
        <ele>683.068</ele>
        <time>2021-10-16T09:57:04Z</time>
      </trkpt>
      <trkpt lat="40.259309" lon="-4.992550">
        <ele>682.986</ele>
        <time>2021-10-16T09:57:05Z</time>
      </trkpt>
      <trkpt lat="40.259134" lon="-4.992760">
        <ele>684.660</ele>
        <time>2021-10-16T09:57:07Z</time>
      </trkpt>
      <trkpt lat="40.259075" lon="-4.992883">
        <ele>685.226</ele>
        <time>2021-10-16T09:57:08Z</time>
      </trkpt>
      <trkpt lat="40.259050" lon="-4.993174">
        <ele>685.208</ele>
        <time>2021-10-16T09:57:10Z</time>
      </trkpt>
      <trkpt lat="40.259060" lon="-4.993339">
        <ele>685.116</ele>
        <time>2021-10-16T09:57:11Z</time>
      </trkpt>
      <trkpt lat="40.259046" lon="-4.993694">
        <ele>685.174</ele>
        <time>2021-10-16T09:57:13Z</time>
      </trkpt>
      <trkpt lat="40.259007" lon="-4.993874">
        <ele>686.893</ele>
        <time>2021-10-16T09:57:14Z</time>
      </trkpt>
      <trkpt lat="40.258901" lon="-4.994206">
        <ele>685.297</ele>
        <time>2021-10-16T09:57:16Z</time>
      </trkpt>
      <trkpt lat="40.258857" lon="-4.994568">
        <ele>684.592</ele>
        <time>2021-10-16T09:57:18Z</time>
      </trkpt>
      <trkpt lat="40.258900" lon="-4.994943">
        <ele>683.431</ele>
        <time>2021-10-16T09:57:20Z</time>
      </trkpt>
      <trkpt lat="40.258910" lon="-4.995338">
        <ele>682.133</ele>
        <time>2021-10-16T09:57:22Z</time>
      </trkpt>
      <trkpt lat="40.258905" lon="-4.995749">
        <ele>681.420</ele>
        <time>2021-10-16T09:57:24Z</time>
      </trkpt>
      <trkpt lat="40.258924" lon="-4.996160">
        <ele>682.244</ele>
        <time>2021-10-16T09:57:26Z</time>
      </trkpt>
      <trkpt lat="40.258941" lon="-4.996506">
        <ele>680.305</ele>
        <time>2021-10-16T09:57:28Z</time>
      </trkpt>
      <trkpt lat="40.258919" lon="-4.996658">
        <ele>681.415</ele>
        <time>2021-10-16T09:57:29Z</time>
      </trkpt>
      <trkpt lat="40.258800" lon="-4.996931">
        <ele>680.808</ele>
        <time>2021-10-16T09:57:31Z</time>
      </trkpt>
      <trkpt lat="40.258698" lon="-4.997056">
        <ele>680.832</ele>
        <time>2021-10-16T09:57:32Z</time>
      </trkpt>
      <trkpt lat="40.258428" lon="-4.997252">
        <ele>682.470</ele>
        <time>2021-10-16T09:57:34Z</time>
      </trkpt>
      <trkpt lat="40.258265" lon="-4.997345">
        <ele>682.559</ele>
        <time>2021-10-16T09:57:35Z</time>
      </trkpt>
      <trkpt lat="40.258085" lon="-4.997443">
        <ele>682.993</ele>
        <time>2021-10-16T09:57:36Z</time>
      </trkpt>
      <trkpt lat="40.257898" lon="-4.997538">
        <ele>683.148</ele>
        <time>2021-10-16T09:57:37Z</time>
      </trkpt>
      <trkpt lat="40.257716" lon="-4.997623">
        <ele>683.937</ele>
        <time>2021-10-16T09:57:38Z</time>
      </trkpt>
      <trkpt lat="40.257417" lon="-4.997768">
        <ele>684.569</ele>
        <time>2021-10-16T09:57:40Z</time>
      </trkpt>
      <trkpt lat="40.257172" lon="-4.997915">
        <ele>686.196</ele>
        <time>2021-10-16T09:57:42Z</time>
      </trkpt>
      <trkpt lat="40.256972" lon="-4.998144">
        <ele>685.864</ele>
        <time>2021-10-16T09:57:44Z</time>
      </trkpt>
      <trkpt lat="40.256853" lon="-4.998471">
        <ele>688.106</ele>
        <time>2021-10-16T09:57:46Z</time>
      </trkpt>
      <trkpt lat="40.256810" lon="-4.998819">
        <ele>687.716</ele>
        <time>2021-10-16T09:57:48Z</time>
      </trkpt>
      <trkpt lat="40.256822" lon="-4.999000">
        <ele>687.408</ele>
        <time>2021-10-16T09:57:49Z</time>
      </trkpt>
      <trkpt lat="40.256847" lon="-4.999379">
        <ele>689.424</ele>
        <time>2021-10-16T09:57:51Z</time>
      </trkpt>
      <trkpt lat="40.256826" lon="-4.999572">
        <ele>689.612</ele>
        <time>2021-10-16T09:57:52Z</time>
      </trkpt>
      <trkpt lat="40.256774" lon="-4.999744">
        <ele>688.991</ele>
        <time>2021-10-16T09:57:53Z</time>
      </trkpt>
      <trkpt lat="40.256695" lon="-4.999886">
        <ele>688.935</ele>
        <time>2021-10-16T09:57:54Z</time>
      </trkpt>
      <trkpt lat="40.256475" lon="-5.000064">
        <ele>689.350</ele>
        <time>2021-10-16T09:57:56Z</time>
      </trkpt>
      <trkpt lat="40.256236" lon="-5.000208">
        <ele>689.669</ele>
        <time>2021-10-16T09:57:58Z</time>
      </trkpt>
      <trkpt lat="40.256124" lon="-5.000307">
        <ele>687.971</ele>
        <time>2021-10-16T09:57:59Z</time>
      </trkpt>
      <trkpt lat="40.255916" lon="-5.000524">
        <ele>688.128</ele>
        <time>2021-10-16T09:58:01Z</time>
      </trkpt>
      <trkpt lat="40.255714" lon="-5.000728">
        <ele>687.241</ele>
        <time>2021-10-16T09:58:03Z</time>
      </trkpt>
      <trkpt lat="40.255615" lon="-5.000831">
        <ele>685.881</ele>
        <time>2021-10-16T09:58:04Z</time>
      </trkpt>
      <trkpt lat="40.255410" lon="-5.001031">
        <ele>686.209</ele>
        <time>2021-10-16T09:58:06Z</time>
      </trkpt>
      <trkpt lat="40.255188" lon="-5.001225">
        <ele>683.308</ele>
        <time>2021-10-16T09:58:08Z</time>
      </trkpt>
      <trkpt lat="40.254956" lon="-5.001413">
        <ele>681.632</ele>
        <time>2021-10-16T09:58:10Z</time>
      </trkpt>
      <trkpt lat="40.254832" lon="-5.001513">
        <ele>678.380</ele>
        <time>2021-10-16T09:58:11Z</time>
      </trkpt>
      <trkpt lat="40.254575" lon="-5.001718">
        <ele>679.769</ele>
        <time>2021-10-16T09:58:13Z</time>
      </trkpt>
      <trkpt lat="40.254452" lon="-5.001815">
        <ele>678.143</ele>
        <time>2021-10-16T09:58:14Z</time>
      </trkpt>
      <trkpt lat="40.254227" lon="-5.001995">
        <ele>674.658</ele>
        <time>2021-10-16T09:58:16Z</time>
      </trkpt>
      <trkpt lat="40.254025" lon="-5.002168">
        <ele>675.177</ele>
        <time>2021-10-16T09:58:18Z</time>
      </trkpt>
      <trkpt lat="40.253846" lon="-5.002364">
        <ele>674.399</ele>
        <time>2021-10-16T09:58:20Z</time>
      </trkpt>
      <trkpt lat="40.253688" lon="-5.002604">
        <ele>674.126</ele>
        <time>2021-10-16T09:58:22Z</time>
      </trkpt>
      <trkpt lat="40.253552" lon="-5.002832">
        <ele>674.126</ele>
        <time>2021-10-16T09:58:24Z</time>
      </trkpt>
      <trkpt lat="40.253410" lon="-5.002992">
        <ele>674.247</ele>
        <time>2021-10-16T09:58:26Z</time>
      </trkpt>
      <trkpt lat="40.253331" lon="-5.003023">
        <ele>674.211</ele>
        <time>2021-10-16T09:58:27Z</time>
      </trkpt>
      <trkpt lat="40.253244" lon="-5.003011">
        <ele>674.308</ele>
        <time>2021-10-16T09:58:28Z</time>
      </trkpt>
      <trkpt lat="40.253059" lon="-5.002847">
        <ele>675.190</ele>
        <time>2021-10-16T09:58:30Z</time>
      </trkpt>
      <trkpt lat="40.252971" lon="-5.002717">
        <ele>674.248</ele>
        <time>2021-10-16T09:58:31Z</time>
      </trkpt>
      <trkpt lat="40.252798" lon="-5.002448">
        <ele>674.237</ele>
        <time>2021-10-16T09:58:33Z</time>
      </trkpt>
      <trkpt lat="40.252718" lon="-5.002324">
        <ele>673.811</ele>
        <time>2021-10-16T09:58:34Z</time>
      </trkpt>
      <trkpt lat="40.252567" lon="-5.002100">
        <ele>671.866</ele>
        <time>2021-10-16T09:58:36Z</time>
      </trkpt>
      <trkpt lat="40.252494" lon="-5.002017">
        <ele>670.265</ele>
        <time>2021-10-16T09:58:37Z</time>
      </trkpt>
      <trkpt lat="40.252418" lon="-5.001965">
        <ele>670.227</ele>
        <time>2021-10-16T09:58:38Z</time>
      </trkpt>
      <trkpt lat="40.252269" lon="-5.001969">
        <ele>668.644</ele>
        <time>2021-10-16T09:58:40Z</time>
      </trkpt>
      <trkpt lat="40.252205" lon="-5.002023">
        <ele>667.178</ele>
        <time>2021-10-16T09:58:41Z</time>
      </trkpt>
      <trkpt lat="40.252124" lon="-5.002217">
        <ele>666.133</ele>
        <time>2021-10-16T09:58:43Z</time>
      </trkpt>
      <trkpt lat="40.252099" lon="-5.002351">
        <ele>665.726</ele>
        <time>2021-10-16T09:58:44Z</time>
      </trkpt>
      <trkpt lat="40.252036" lon="-5.002652">
        <ele>665.808</ele>
        <time>2021-10-16T09:58:46Z</time>
      </trkpt>
      <trkpt lat="40.251985" lon="-5.002812">
        <ele>666.125</ele>
        <time>2021-10-16T09:58:47Z</time>
      </trkpt>
      <trkpt lat="40.251825" lon="-5.003112">
        <ele>666.723</ele>
        <time>2021-10-16T09:58:49Z</time>
      </trkpt>
      <trkpt lat="40.251737" lon="-5.003253">
        <ele>666.032</ele>
        <time>2021-10-16T09:58:50Z</time>
      </trkpt>
      <trkpt lat="40.251536" lon="-5.003485">
        <ele>665.976</ele>
        <time>2021-10-16T09:58:52Z</time>
      </trkpt>
      <trkpt lat="40.251440" lon="-5.003589">
        <ele>666.411</ele>
        <time>2021-10-16T09:58:53Z</time>
      </trkpt>
      <trkpt lat="40.251282" lon="-5.003777">
        <ele>668.430</ele>
        <time>2021-10-16T09:58:55Z</time>
      </trkpt>
      <trkpt lat="40.251190" lon="-5.003983">
        <ele>669.162</ele>
        <time>2021-10-16T09:58:57Z</time>
      </trkpt>
      <trkpt lat="40.251170" lon="-5.004103">
        <ele>668.269</ele>
        <time>2021-10-16T09:58:58Z</time>
      </trkpt>
      <trkpt lat="40.251157" lon="-5.004233">
        <ele>668.226</ele>
        <time>2021-10-16T09:58:59Z</time>
      </trkpt>
      <trkpt lat="40.251144" lon="-5.004373">
        <ele>668.247</ele>
        <time>2021-10-16T09:59:00Z</time>
      </trkpt>
      <trkpt lat="40.251128" lon="-5.004524">
        <ele>669.511</ele>
        <time>2021-10-16T09:59:01Z</time>
      </trkpt>
      <trkpt lat="40.251104" lon="-5.004682">
        <ele>668.208</ele>
        <time>2021-10-16T09:59:02Z</time>
      </trkpt>
      <trkpt lat="40.251047" lon="-5.005003">
        <ele>667.960</ele>
        <time>2021-10-16T09:59:04Z</time>
      </trkpt>
      <trkpt lat="40.250970" lon="-5.005300">
        <ele>667.928</ele>
        <time>2021-10-16T09:59:06Z</time>
      </trkpt>
      <trkpt lat="40.250926" lon="-5.005423">
        <ele>667.817</ele>
        <time>2021-10-16T09:59:07Z</time>
      </trkpt>
      <trkpt lat="40.250878" lon="-5.005529">
        <ele>666.451</ele>
        <time>2021-10-16T09:59:08Z</time>
      </trkpt>
      <trkpt lat="40.250818" lon="-5.005694">
        <ele>666.546</ele>
        <time>2021-10-16T09:59:10Z</time>
      </trkpt>
      <trkpt lat="40.250817" lon="-5.005755">
        <ele>666.475</ele>
        <time>2021-10-16T09:59:11Z</time>
      </trkpt>
      <trkpt lat="40.250867" lon="-5.005801">
        <ele>666.597</ele>
        <time>2021-10-16T09:59:13Z</time>
      </trkpt>
      <trkpt lat="40.250974" lon="-5.005750">
        <ele>664.414</ele>
        <time>2021-10-16T09:59:15Z</time>
      </trkpt>
      <trkpt lat="40.251048" lon="-5.005686">
        <ele>664.148</ele>
        <time>2021-10-16T09:59:16Z</time>
      </trkpt>
      <trkpt lat="40.251119" lon="-5.005621">
        <ele>664.161</ele>
        <time>2021-10-16T09:59:17Z</time>
      </trkpt>
      <trkpt lat="40.251245" lon="-5.005502">
        <ele>662.517</ele>
        <time>2021-10-16T09:59:19Z</time>
      </trkpt>
      <trkpt lat="40.251304" lon="-5.005464">
        <ele>661.008</ele>
        <time>2021-10-16T09:59:20Z</time>
      </trkpt>
      <trkpt lat="40.251403" lon="-5.005501">
        <ele>659.542</ele>
        <time>2021-10-16T09:59:22Z</time>
      </trkpt>
      <trkpt lat="40.251422" lon="-5.005631">
        <ele>658.890</ele>
        <time>2021-10-16T09:59:24Z</time>
      </trkpt>
      <trkpt lat="40.251379" lon="-5.005706">
        <ele>657.049</ele>
        <time>2021-10-16T09:59:25Z</time>
      </trkpt>
      <trkpt lat="40.251310" lon="-5.005784">
        <ele>657.043</ele>
        <time>2021-10-16T09:59:26Z</time>
      </trkpt>
      <trkpt lat="40.251141" lon="-5.005966">
        <ele>653.818</ele>
        <time>2021-10-16T09:59:28Z</time>
      </trkpt>
      <trkpt lat="40.250973" lon="-5.006206">
        <ele>651.917</ele>
        <time>2021-10-16T09:59:30Z</time>
      </trkpt>
      <trkpt lat="40.250865" lon="-5.006518">
        <ele>650.379</ele>
        <time>2021-10-16T09:59:32Z</time>
      </trkpt>
      <trkpt lat="40.250801" lon="-5.006878">
        <ele>646.736</ele>
        <time>2021-10-16T09:59:34Z</time>
      </trkpt>
      <trkpt lat="40.250697" lon="-5.007232">
        <ele>642.992</ele>
        <time>2021-10-16T09:59:36Z</time>
      </trkpt>
      <trkpt lat="40.250646" lon="-5.007403">
        <ele>640.773</ele>
        <time>2021-10-16T09:59:37Z</time>
      </trkpt>
      <trkpt lat="40.250569" lon="-5.007748">
        <ele>639.120</ele>
        <time>2021-10-16T09:59:39Z</time>
      </trkpt>
      <trkpt lat="40.250529" lon="-5.007912">
        <ele>637.708</ele>
        <time>2021-10-16T09:59:40Z</time>
      </trkpt>
      <trkpt lat="40.250379" lon="-5.008198">
        <ele>633.917</ele>
        <time>2021-10-16T09:59:42Z</time>
      </trkpt>
      <trkpt lat="40.250271" lon="-5.008323">
        <ele>633.135</ele>
        <time>2021-10-16T09:59:43Z</time>
      </trkpt>
      <trkpt lat="40.250026" lon="-5.008560">
        <ele>630.784</ele>
        <time>2021-10-16T09:59:45Z</time>
      </trkpt>
      <trkpt lat="40.249755" lon="-5.008783">
        <ele>629.158</ele>
        <time>2021-10-16T09:59:47Z</time>
      </trkpt>
      <trkpt lat="40.249465" lon="-5.008982">
        <ele>625.443</ele>
        <time>2021-10-16T09:59:49Z</time>
      </trkpt>
      <trkpt lat="40.249324" lon="-5.009085">
        <ele>625.462</ele>
        <time>2021-10-16T09:59:50Z</time>
      </trkpt>
      <trkpt lat="40.249186" lon="-5.009198">
        <ele>624.224</ele>
        <time>2021-10-16T09:59:51Z</time>
      </trkpt>
      <trkpt lat="40.248933" lon="-5.009453">
        <ele>618.771</ele>
        <time>2021-10-16T09:59:53Z</time>
      </trkpt>
      <trkpt lat="40.248817" lon="-5.009596">
        <ele>617.722</ele>
        <time>2021-10-16T09:59:54Z</time>
      </trkpt>
      <trkpt lat="40.248583" lon="-5.009908">
        <ele>614.962</ele>
        <time>2021-10-16T09:59:56Z</time>
      </trkpt>
      <trkpt lat="40.248364" lon="-5.010217">
        <ele>611.108</ele>
        <time>2021-10-16T09:59:58Z</time>
      </trkpt>
      <trkpt lat="40.248178" lon="-5.010549">
        <ele>606.808</ele>
        <time>2021-10-16T10:00:00Z</time>
      </trkpt>
      <trkpt lat="40.248103" lon="-5.010708">
        <ele>607.580</ele>
        <time>2021-10-16T10:00:01Z</time>
      </trkpt>
      <trkpt lat="40.248044" lon="-5.010862">
        <ele>605.688</ele>
        <time>2021-10-16T10:00:02Z</time>
      </trkpt>
      <trkpt lat="40.247953" lon="-5.011123">
        <ele>600.947</ele>
        <time>2021-10-16T10:00:04Z</time>
      </trkpt>
      <trkpt lat="40.247917" lon="-5.011225">
        <ele>599.121</ele>
        <time>2021-10-16T10:00:05Z</time>
      </trkpt>
      <trkpt lat="40.247887" lon="-5.011310">
        <ele>596.416</ele>
        <time>2021-10-16T10:00:06Z</time>
      </trkpt>
      <trkpt lat="40.247861" lon="-5.011388">
        <ele>597.755</ele>
        <time>2021-10-16T10:00:07Z</time>
      </trkpt>
      <trkpt lat="40.247829" lon="-5.011534">
        <ele>597.737</ele>
        <time>2021-10-16T10:00:09Z</time>
      </trkpt>
      <trkpt lat="40.247867" lon="-5.011611">
        <ele>597.434</ele>
        <time>2021-10-16T10:00:11Z</time>
      </trkpt>
      <trkpt lat="40.247951" lon="-5.011577">
        <ele>596.089</ele>
        <time>2021-10-16T10:00:13Z</time>
      </trkpt>
      <trkpt lat="40.247989" lon="-5.011513">
        <ele>595.006</ele>
        <time>2021-10-16T10:00:14Z</time>
      </trkpt>
      <trkpt lat="40.248026" lon="-5.011419">
        <ele>594.226</ele>
        <time>2021-10-16T10:00:15Z</time>
      </trkpt>
      <trkpt lat="40.248068" lon="-5.011294">
        <ele>594.008</ele>
        <time>2021-10-16T10:00:16Z</time>
      </trkpt>
      <trkpt lat="40.248168" lon="-5.011009">
        <ele>592.586</ele>
        <time>2021-10-16T10:00:18Z</time>
      </trkpt>
      <trkpt lat="40.248287" lon="-5.010780">
        <ele>591.624</ele>
        <time>2021-10-16T10:00:20Z</time>
      </trkpt>
      <trkpt lat="40.248354" lon="-5.010683">
        <ele>591.633</ele>
        <time>2021-10-16T10:00:21Z</time>
      </trkpt>
      <trkpt lat="40.248496" lon="-5.010558">
        <ele>589.237</ele>
        <time>2021-10-16T10:00:23Z</time>
      </trkpt>
      <trkpt lat="40.248609" lon="-5.010569">
        <ele>588.572</ele>
        <time>2021-10-16T10:00:25Z</time>
      </trkpt>
      <trkpt lat="40.248646" lon="-5.010643">
        <ele>588.351</ele>
        <time>2021-10-16T10:00:26Z</time>
      </trkpt>
      <trkpt lat="40.248626" lon="-5.010893">
        <ele>589.093</ele>
        <time>2021-10-16T10:00:28Z</time>
      </trkpt>
      <trkpt lat="40.248467" lon="-5.011255">
        <ele>587.890</ele>
        <time>2021-10-16T10:00:30Z</time>
      </trkpt>
      <trkpt lat="40.248306" lon="-5.011671">
        <ele>583.696</ele>
        <time>2021-10-16T10:00:32Z</time>
      </trkpt>
      <trkpt lat="40.248270" lon="-5.011907">
        <ele>582.131</ele>
        <time>2021-10-16T10:00:33Z</time>
      </trkpt>
      <trkpt lat="40.248240" lon="-5.012145">
        <ele>581.224</ele>
        <time>2021-10-16T10:00:34Z</time>
      </trkpt>
      <trkpt lat="40.248139" lon="-5.012576">
        <ele>578.808</ele>
        <time>2021-10-16T10:00:36Z</time>
      </trkpt>
      <trkpt lat="40.248067" lon="-5.012768">
        <ele>576.957</ele>
        <time>2021-10-16T10:00:37Z</time>
      </trkpt>
      <trkpt lat="40.247888" lon="-5.013093">
        <ele>575.315</ele>
        <time>2021-10-16T10:00:39Z</time>
      </trkpt>
      <trkpt lat="40.247643" lon="-5.013286">
        <ele>572.274</ele>
        <time>2021-10-16T10:00:41Z</time>
      </trkpt>
      <trkpt lat="40.247491" lon="-5.013326">
        <ele>569.958</ele>
        <time>2021-10-16T10:00:42Z</time>
      </trkpt>
      <trkpt lat="40.247158" lon="-5.013381">
        <ele>565.853</ele>
        <time>2021-10-16T10:00:44Z</time>
      </trkpt>
      <trkpt lat="40.246800" lon="-5.013407">
        <ele>564.152</ele>
        <time>2021-10-16T10:00:46Z</time>
      </trkpt>
      <trkpt lat="40.246616" lon="-5.013400">
        <ele>563.694</ele>
        <time>2021-10-16T10:00:47Z</time>
      </trkpt>
      <trkpt lat="40.246276" lon="-5.013361">
        <ele>560.281</ele>
        <time>2021-10-16T10:00:49Z</time>
      </trkpt>
      <trkpt lat="40.245971" lon="-5.013439">
        <ele>556.719</ele>
        <time>2021-10-16T10:00:51Z</time>
      </trkpt>
      <trkpt lat="40.245833" lon="-5.013538">
        <ele>555.809</ele>
        <time>2021-10-16T10:00:52Z</time>
      </trkpt>
      <trkpt lat="40.245551" lon="-5.013739">
        <ele>551.919</ele>
        <time>2021-10-16T10:00:54Z</time>
      </trkpt>
      <trkpt lat="40.245260" lon="-5.013853">
        <ele>550.808</ele>
        <time>2021-10-16T10:00:56Z</time>
      </trkpt>
      <trkpt lat="40.245007" lon="-5.013840">
        <ele>548.389</ele>
        <time>2021-10-16T10:00:58Z</time>
      </trkpt>
      <trkpt lat="40.244899" lon="-5.013789">
        <ele>547.567</ele>
        <time>2021-10-16T10:00:59Z</time>
      </trkpt>
      <trkpt lat="40.244722" lon="-5.013586">
        <ele>547.586</ele>
        <time>2021-10-16T10:01:01Z</time>
      </trkpt>
      <trkpt lat="40.244617" lon="-5.013494">
        <ele>544.040</ele>
        <time>2021-10-16T10:01:02Z</time>
      </trkpt>
      <trkpt lat="40.244365" lon="-5.013453">
        <ele>540.795</ele>
        <time>2021-10-16T10:01:04Z</time>
      </trkpt>
      <trkpt lat="40.244231" lon="-5.013497">
        <ele>539.324</ele>
        <time>2021-10-16T10:01:05Z</time>
      </trkpt>
      <trkpt lat="40.243940" lon="-5.013658">
        <ele>536.416</ele>
        <time>2021-10-16T10:01:07Z</time>
      </trkpt>
      <trkpt lat="40.243791" lon="-5.013762">
        <ele>536.683</ele>
        <time>2021-10-16T10:01:08Z</time>
      </trkpt>
      <trkpt lat="40.243646" lon="-5.013875">
        <ele>535.432</ele>
        <time>2021-10-16T10:01:09Z</time>
      </trkpt>
      <trkpt lat="40.243335" lon="-5.014066">
        <ele>532.592</ele>
        <time>2021-10-16T10:01:11Z</time>
      </trkpt>
      <trkpt lat="40.243000" lon="-5.014235">
        <ele>528.511</ele>
        <time>2021-10-16T10:01:13Z</time>
      </trkpt>
      <trkpt lat="40.242837" lon="-5.014337">
        <ele>527.008</ele>
        <time>2021-10-16T10:01:14Z</time>
      </trkpt>
      <trkpt lat="40.242682" lon="-5.014453">
        <ele>526.431</ele>
        <time>2021-10-16T10:01:15Z</time>
      </trkpt>
      <trkpt lat="40.242533" lon="-5.014573">
        <ele>525.789</ele>
        <time>2021-10-16T10:01:16Z</time>
      </trkpt>
      <trkpt lat="40.242253" lon="-5.014834">
        <ele>521.578</ele>
        <time>2021-10-16T10:01:18Z</time>
      </trkpt>
      <trkpt lat="40.242036" lon="-5.015167">
        <ele>517.492</ele>
        <time>2021-10-16T10:01:20Z</time>
      </trkpt>
      <trkpt lat="40.241903" lon="-5.015574">
        <ele>515.577</ele>
        <time>2021-10-16T10:01:22Z</time>
      </trkpt>
      <trkpt lat="40.241844" lon="-5.015771">
        <ele>513.456</ele>
        <time>2021-10-16T10:01:23Z</time>
      </trkpt>
      <trkpt lat="40.241735" lon="-5.016100">
        <ele>511.258</ele>
        <time>2021-10-16T10:01:25Z</time>
      </trkpt>
      <trkpt lat="40.241706" lon="-5.016239">
        <ele>509.485</ele>
        <time>2021-10-16T10:01:26Z</time>
      </trkpt>
      <trkpt lat="40.241725" lon="-5.016446">
        <ele>506.428</ele>
        <time>2021-10-16T10:01:28Z</time>
      </trkpt>
      <trkpt lat="40.241775" lon="-5.016530">
        <ele>506.389</ele>
        <time>2021-10-16T10:01:29Z</time>
      </trkpt>
      <trkpt lat="40.241992" lon="-5.016639">
        <ele>505.417</ele>
        <time>2021-10-16T10:01:31Z</time>
      </trkpt>
      <trkpt lat="40.242143" lon="-5.016676">
        <ele>504.408</ele>
        <time>2021-10-16T10:01:32Z</time>
      </trkpt>
      <trkpt lat="40.242418" lon="-5.016839">
        <ele>501.330</ele>
        <time>2021-10-16T10:01:34Z</time>
      </trkpt>
      <trkpt lat="40.242629" lon="-5.017144">
        <ele>501.228</ele>
        <time>2021-10-16T10:01:36Z</time>
      </trkpt>
      <trkpt lat="40.242736" lon="-5.017316">
        <ele>501.257</ele>
        <time>2021-10-16T10:01:37Z</time>
      </trkpt>
      <trkpt lat="40.242852" lon="-5.017478">
        <ele>498.431</ele>
        <time>2021-10-16T10:01:38Z</time>
      </trkpt>
      <trkpt lat="40.243109" lon="-5.017764">
        <ele>495.676</ele>
        <time>2021-10-16T10:01:40Z</time>
      </trkpt>
      <trkpt lat="40.243354" lon="-5.018053">
        <ele>492.175</ele>
        <time>2021-10-16T10:01:42Z</time>
      </trkpt>
      <trkpt lat="40.243542" lon="-5.018388">
        <ele>488.137</ele>
        <time>2021-10-16T10:01:44Z</time>
      </trkpt>
      <trkpt lat="40.243621" lon="-5.018581">
        <ele>486.854</ele>
        <time>2021-10-16T10:01:45Z</time>
      </trkpt>
      <trkpt lat="40.243778" lon="-5.018989">
        <ele>483.268</ele>
        <time>2021-10-16T10:01:47Z</time>
      </trkpt>
      <trkpt lat="40.243928" lon="-5.019411">
        <ele>482.242</ele>
        <time>2021-10-16T10:01:49Z</time>
      </trkpt>
      <trkpt lat="40.244114" lon="-5.019801">
        <ele>481.226</ele>
        <time>2021-10-16T10:01:51Z</time>
      </trkpt>
      <trkpt lat="40.244349" lon="-5.020124">
        <ele>481.208</ele>
        <time>2021-10-16T10:01:53Z</time>
      </trkpt>
      <trkpt lat="40.244477" lon="-5.020250">
        <ele>480.584</ele>
        <time>2021-10-16T10:01:54Z</time>
      </trkpt>
      <trkpt lat="40.244736" lon="-5.020447">
        <ele>479.022</ele>
        <time>2021-10-16T10:01:56Z</time>
      </trkpt>
      <trkpt lat="40.244860" lon="-5.020533">
        <ele>479.361</ele>
        <time>2021-10-16T10:01:57Z</time>
      </trkpt>
      <trkpt lat="40.244976" lon="-5.020609">
        <ele>479.765</ele>
        <time>2021-10-16T10:01:58Z</time>
      </trkpt>
      <trkpt lat="40.245194" lon="-5.020717">
        <ele>477.320</ele>
        <time>2021-10-16T10:02:00Z</time>
      </trkpt>
      <trkpt lat="40.245289" lon="-5.020750">
        <ele>477.189</ele>
        <time>2021-10-16T10:02:01Z</time>
      </trkpt>
      <trkpt lat="40.245441" lon="-5.020810">
        <ele>477.011</ele>
        <time>2021-10-16T10:02:03Z</time>
      </trkpt>
      <trkpt lat="40.245540" lon="-5.020852">
        <ele>477.478</ele>
        <time>2021-10-16T10:02:05Z</time>
      </trkpt>
      <trkpt lat="40.245585" lon="-5.020868">
        <ele>478.721</ele>
        <time>2021-10-16T10:02:07Z</time>
      </trkpt>
      <trkpt lat="40.245634" lon="-5.020887">
        <ele>479.141</ele>
        <time>2021-10-16T10:02:10Z</time>
      </trkpt>
      <trkpt lat="40.245679" lon="-5.020925">
        <ele>478.905</ele>
        <time>2021-10-16T10:02:44Z</time>
      </trkpt>
      <trkpt lat="40.245696" lon="-5.021065">
        <ele>478.908</ele>
        <time>2021-10-16T10:02:46Z</time>
      </trkpt>
      <trkpt lat="40.245614" lon="-5.021293">
        <ele>479.070</ele>
        <time>2021-10-16T10:02:48Z</time>
      </trkpt>
      <trkpt lat="40.245550" lon="-5.021413">
        <ele>478.358</ele>
        <time>2021-10-16T10:02:49Z</time>
      </trkpt>
      <trkpt lat="40.245474" lon="-5.021545">
        <ele>477.797</ele>
        <time>2021-10-16T10:02:50Z</time>
      </trkpt>
      <trkpt lat="40.245321" lon="-5.021858">
        <ele>476.251</ele>
        <time>2021-10-16T10:02:52Z</time>
      </trkpt>
      <trkpt lat="40.245180" lon="-5.022141">
        <ele>476.366</ele>
        <time>2021-10-16T10:02:54Z</time>
      </trkpt>
      <trkpt lat="40.245017" lon="-5.022357">
        <ele>475.475</ele>
        <time>2021-10-16T10:02:56Z</time>
      </trkpt>
      <trkpt lat="40.244918" lon="-5.022453">
        <ele>475.137</ele>
        <time>2021-10-16T10:02:57Z</time>
      </trkpt>
      <trkpt lat="40.244692" lon="-5.022671">
        <ele>475.194</ele>
        <time>2021-10-16T10:02:59Z</time>
      </trkpt>
      <trkpt lat="40.244452" lon="-5.022936">
        <ele>473.958</ele>
        <time>2021-10-16T10:03:01Z</time>
      </trkpt>
      <trkpt lat="40.244225" lon="-5.023309">
        <ele>473.252</ele>
        <time>2021-10-16T10:03:03Z</time>
      </trkpt>
      <trkpt lat="40.244115" lon="-5.023541">
        <ele>473.217</ele>
        <time>2021-10-16T10:03:04Z</time>
      </trkpt>
      <trkpt lat="40.244012" lon="-5.023780">
        <ele>472.208</ele>
        <time>2021-10-16T10:03:05Z</time>
      </trkpt>
      <trkpt lat="40.243814" lon="-5.024232">
        <ele>468.823</ele>
        <time>2021-10-16T10:03:07Z</time>
      </trkpt>
      <trkpt lat="40.243713" lon="-5.024456">
        <ele>468.841</ele>
        <time>2021-10-16T10:03:08Z</time>
      </trkpt>
      <trkpt lat="40.243511" lon="-5.024897">
        <ele>468.570</ele>
        <time>2021-10-16T10:03:10Z</time>
      </trkpt>
      <trkpt lat="40.243311" lon="-5.025344">
        <ele>468.344</ele>
        <time>2021-10-16T10:03:12Z</time>
      </trkpt>
      <trkpt lat="40.243118" lon="-5.025783">
        <ele>467.989</ele>
        <time>2021-10-16T10:03:14Z</time>
      </trkpt>
      <trkpt lat="40.243017" lon="-5.025996">
        <ele>469.348</ele>
        <time>2021-10-16T10:03:15Z</time>
      </trkpt>
      <trkpt lat="40.242796" lon="-5.026404">
        <ele>470.070</ele>
        <time>2021-10-16T10:03:17Z</time>
      </trkpt>
      <trkpt lat="40.242665" lon="-5.026594">
        <ele>469.917</ele>
        <time>2021-10-16T10:03:18Z</time>
      </trkpt>
      <trkpt lat="40.242342" lon="-5.026916">
        <ele>469.948</ele>
        <time>2021-10-16T10:03:20Z</time>
      </trkpt>
      <trkpt lat="40.242149" lon="-5.027046">
        <ele>468.261</ele>
        <time>2021-10-16T10:03:21Z</time>
      </trkpt>
      <trkpt lat="40.241744" lon="-5.027266">
        <ele>466.317</ele>
        <time>2021-10-16T10:03:23Z</time>
      </trkpt>
      <trkpt lat="40.241346" lon="-5.027485">
        <ele>466.608</ele>
        <time>2021-10-16T10:03:25Z</time>
      </trkpt>
      <trkpt lat="40.241160" lon="-5.027594">
        <ele>467.012</ele>
        <time>2021-10-16T10:03:26Z</time>
      </trkpt>
      <trkpt lat="40.240988" lon="-5.027718">
        <ele>466.930</ele>
        <time>2021-10-16T10:03:27Z</time>
      </trkpt>
      <trkpt lat="40.240697" lon="-5.028042">
        <ele>468.679</ele>
        <time>2021-10-16T10:03:29Z</time>
      </trkpt>
      <trkpt lat="40.240571" lon="-5.028236">
        <ele>468.563</ele>
        <time>2021-10-16T10:03:30Z</time>
      </trkpt>
      <trkpt lat="40.240440" lon="-5.028425">
        <ele>467.928</ele>
        <time>2021-10-16T10:03:31Z</time>
      </trkpt>
      <trkpt lat="40.240290" lon="-5.028598">
        <ele>468.797</ele>
        <time>2021-10-16T10:03:32Z</time>
      </trkpt>
      <trkpt lat="40.240121" lon="-5.028745">
        <ele>468.179</ele>
        <time>2021-10-16T10:03:33Z</time>
      </trkpt>
      <trkpt lat="40.239727" lon="-5.028953">
        <ele>467.646</ele>
        <time>2021-10-16T10:03:35Z</time>
      </trkpt>
      <trkpt lat="40.239515" lon="-5.029050">
        <ele>466.381</ele>
        <time>2021-10-16T10:03:36Z</time>
      </trkpt>
      <trkpt lat="40.239083" lon="-5.029258">
        <ele>464.461</ele>
        <time>2021-10-16T10:03:38Z</time>
      </trkpt>
      <trkpt lat="40.238635" lon="-5.029482">
        <ele>463.617</ele>
        <time>2021-10-16T10:03:40Z</time>
      </trkpt>
      <trkpt lat="40.238206" lon="-5.029702">
        <ele>462.508</ele>
        <time>2021-10-16T10:03:42Z</time>
      </trkpt>
      <trkpt lat="40.237994" lon="-5.029817">
        <ele>461.876</ele>
        <time>2021-10-16T10:03:43Z</time>
      </trkpt>
      <trkpt lat="40.237586" lon="-5.030067">
        <ele>463.344</ele>
        <time>2021-10-16T10:03:45Z</time>
      </trkpt>
      <trkpt lat="40.237200" lon="-5.030341">
        <ele>464.143</ele>
        <time>2021-10-16T10:03:47Z</time>
      </trkpt>
      <trkpt lat="40.236822" lon="-5.030613">
        <ele>464.277</ele>
        <time>2021-10-16T10:03:49Z</time>
      </trkpt>
      <trkpt lat="40.236632" lon="-5.030747">
        <ele>464.192</ele>
        <time>2021-10-16T10:03:50Z</time>
      </trkpt>
      <trkpt lat="40.236440" lon="-5.030878">
        <ele>464.821</ele>
        <time>2021-10-16T10:03:51Z</time>
      </trkpt>
      <trkpt lat="40.236246" lon="-5.031009">
        <ele>465.323</ele>
        <time>2021-10-16T10:03:52Z</time>
      </trkpt>
      <trkpt lat="40.235850" lon="-5.031259">
        <ele>463.760</ele>
        <time>2021-10-16T10:03:54Z</time>
      </trkpt>
      <trkpt lat="40.235636" lon="-5.031382">
        <ele>463.843</ele>
        <time>2021-10-16T10:03:55Z</time>
      </trkpt>
      <trkpt lat="40.235403" lon="-5.031504">
        <ele>462.864</ele>
        <time>2021-10-16T10:03:56Z</time>
      </trkpt>
      <trkpt lat="40.234934" lon="-5.031731">
        <ele>462.410</ele>
        <time>2021-10-16T10:03:58Z</time>
      </trkpt>
      <trkpt lat="40.234695" lon="-5.031846">
        <ele>462.208</ele>
        <time>2021-10-16T10:03:59Z</time>
      </trkpt>
      <trkpt lat="40.234455" lon="-5.031962">
        <ele>461.382</ele>
        <time>2021-10-16T10:04:00Z</time>
      </trkpt>
      <trkpt lat="40.233996" lon="-5.032188">
        <ele>459.870</ele>
        <time>2021-10-16T10:04:02Z</time>
      </trkpt>
      <trkpt lat="40.233534" lon="-5.032416">
        <ele>459.499</ele>
        <time>2021-10-16T10:04:04Z</time>
      </trkpt>
      <trkpt lat="40.233071" lon="-5.032646">
        <ele>458.383</ele>
        <time>2021-10-16T10:04:06Z</time>
      </trkpt>
      <trkpt lat="40.232838" lon="-5.032758">
        <ele>458.088</ele>
        <time>2021-10-16T10:04:07Z</time>
      </trkpt>
      <trkpt lat="40.232605" lon="-5.032872">
        <ele>457.667</ele>
        <time>2021-10-16T10:04:08Z</time>
      </trkpt>
      <trkpt lat="40.232145" lon="-5.033103">
        <ele>455.639</ele>
        <time>2021-10-16T10:04:10Z</time>
      </trkpt>
      <trkpt lat="40.231923" lon="-5.033215">
        <ele>454.446</ele>
        <time>2021-10-16T10:04:11Z</time>
      </trkpt>
      <trkpt lat="40.231707" lon="-5.033324">
        <ele>454.959</ele>
        <time>2021-10-16T10:04:12Z</time>
      </trkpt>
      <trkpt lat="40.231497" lon="-5.033427">
        <ele>454.203</ele>
        <time>2021-10-16T10:04:13Z</time>
      </trkpt>
      <trkpt lat="40.231292" lon="-5.033527">
        <ele>453.123</ele>
        <time>2021-10-16T10:04:14Z</time>
      </trkpt>
      <trkpt lat="40.230886" lon="-5.033731">
        <ele>452.208</ele>
        <time>2021-10-16T10:04:16Z</time>
      </trkpt>
      <trkpt lat="40.230478" lon="-5.033930">
        <ele>449.673</ele>
        <time>2021-10-16T10:04:18Z</time>
      </trkpt>
      <trkpt lat="40.230270" lon="-5.034032">
        <ele>448.561</ele>
        <time>2021-10-16T10:04:19Z</time>
      </trkpt>
      <trkpt lat="40.230059" lon="-5.034140">
        <ele>448.550</ele>
        <time>2021-10-16T10:04:20Z</time>
      </trkpt>
      <trkpt lat="40.229623" lon="-5.034332">
        <ele>448.014</ele>
        <time>2021-10-16T10:04:22Z</time>
      </trkpt>
      <trkpt lat="40.229144" lon="-5.034419">
        <ele>446.149</ele>
        <time>2021-10-16T10:04:24Z</time>
      </trkpt>
      <trkpt lat="40.228612" lon="-5.034383">
        <ele>445.568</ele>
        <time>2021-10-16T10:04:26Z</time>
      </trkpt>
      <trkpt lat="40.228080" lon="-5.034317">
        <ele>445.320</ele>
        <time>2021-10-16T10:04:28Z</time>
      </trkpt>
      <trkpt lat="40.227804" lon="-5.034284">
        <ele>444.917</ele>
        <time>2021-10-16T10:04:29Z</time>
      </trkpt>
      <trkpt lat="40.227278" lon="-5.034225">
        <ele>445.831</ele>
        <time>2021-10-16T10:04:31Z</time>
      </trkpt>
      <trkpt lat="40.227018" lon="-5.034197">
        <ele>446.161</ele>
        <time>2021-10-16T10:04:32Z</time>
      </trkpt>
      <trkpt lat="40.226576" lon="-5.034152">
        <ele>448.707</ele>
        <time>2021-10-16T10:04:34Z</time>
      </trkpt>
      <trkpt lat="40.226351" lon="-5.034130">
        <ele>449.908</ele>
        <time>2021-10-16T10:04:35Z</time>
      </trkpt>
      <trkpt lat="40.226125" lon="-5.034114">
        <ele>450.391</ele>
        <time>2021-10-16T10:04:36Z</time>
      </trkpt>
      <trkpt lat="40.225671" lon="-5.034125">
        <ele>453.479</ele>
        <time>2021-10-16T10:04:38Z</time>
      </trkpt>
      <trkpt lat="40.225205" lon="-5.034206">
        <ele>451.828</ele>
        <time>2021-10-16T10:04:40Z</time>
      </trkpt>
      <trkpt lat="40.224734" lon="-5.034364">
        <ele>450.392</ele>
        <time>2021-10-16T10:04:42Z</time>
      </trkpt>
      <trkpt lat="40.224271" lon="-5.034612">
        <ele>447.427</ele>
        <time>2021-10-16T10:04:44Z</time>
      </trkpt>
      <trkpt lat="40.223807" lon="-5.034917">
        <ele>446.196</ele>
        <time>2021-10-16T10:04:46Z</time>
      </trkpt>
      <trkpt lat="40.223566" lon="-5.035073">
        <ele>444.868</ele>
        <time>2021-10-16T10:04:47Z</time>
      </trkpt>
      <trkpt lat="40.223325" lon="-5.035224">
        <ele>443.435</ele>
        <time>2021-10-16T10:04:48Z</time>
      </trkpt>
      <trkpt lat="40.223085" lon="-5.035376">
        <ele>441.692</ele>
        <time>2021-10-16T10:04:49Z</time>
      </trkpt>
      <trkpt lat="40.222609" lon="-5.035683">
        <ele>439.273</ele>
        <time>2021-10-16T10:04:51Z</time>
      </trkpt>
      <trkpt lat="40.222378" lon="-5.035834">
        <ele>437.720</ele>
        <time>2021-10-16T10:04:52Z</time>
      </trkpt>
      <trkpt lat="40.222155" lon="-5.035978">
        <ele>435.108</ele>
        <time>2021-10-16T10:04:53Z</time>
      </trkpt>
      <trkpt lat="40.221745" lon="-5.036222">
        <ele>433.237</ele>
        <time>2021-10-16T10:04:55Z</time>
      </trkpt>
      <trkpt lat="40.221554" lon="-5.036303">
        <ele>432.685</ele>
        <time>2021-10-16T10:04:56Z</time>
      </trkpt>
      <trkpt lat="40.221219" lon="-5.036310">
        <ele>432.124</ele>
        <time>2021-10-16T10:04:58Z</time>
      </trkpt>
      <trkpt lat="40.220890" lon="-5.036136">
        <ele>431.648</ele>
        <time>2021-10-16T10:05:00Z</time>
      </trkpt>
      <trkpt lat="40.220545" lon="-5.035949">
        <ele>432.823</ele>
        <time>2021-10-16T10:05:02Z</time>
      </trkpt>
      <trkpt lat="40.220194" lon="-5.035926">
        <ele>434.072</ele>
        <time>2021-10-16T10:05:04Z</time>
      </trkpt>
      <trkpt lat="40.220032" lon="-5.036028">
        <ele>434.194</ele>
        <time>2021-10-16T10:05:05Z</time>
      </trkpt>
      <trkpt lat="40.219880" lon="-5.036196">
        <ele>434.181</ele>
        <time>2021-10-16T10:05:06Z</time>
      </trkpt>
      <trkpt lat="40.219649" lon="-5.036634">
        <ele>437.898</ele>
        <time>2021-10-16T10:05:08Z</time>
      </trkpt>
      <trkpt lat="40.219479" lon="-5.037092">
        <ele>439.415</ele>
        <time>2021-10-16T10:05:10Z</time>
      </trkpt>
      <trkpt lat="40.219226" lon="-5.037395">
        <ele>443.126</ele>
        <time>2021-10-16T10:05:12Z</time>
      </trkpt>
      <trkpt lat="40.219049" lon="-5.037474">
        <ele>443.308</ele>
        <time>2021-10-16T10:05:13Z</time>
      </trkpt>
      <trkpt lat="40.218849" lon="-5.037514">
        <ele>443.927</ele>
        <time>2021-10-16T10:05:14Z</time>
      </trkpt>
      <trkpt lat="40.218406" lon="-5.037578">
        <ele>447.775</ele>
        <time>2021-10-16T10:05:16Z</time>
      </trkpt>
      <trkpt lat="40.218173" lon="-5.037625">
        <ele>448.844</ele>
        <time>2021-10-16T10:05:17Z</time>
      </trkpt>
      <trkpt lat="40.217933" lon="-5.037672">
        <ele>449.528</ele>
        <time>2021-10-16T10:05:18Z</time>
      </trkpt>
      <trkpt lat="40.217451" lon="-5.037770">
        <ele>451.043</ele>
        <time>2021-10-16T10:05:20Z</time>
      </trkpt>
      <trkpt lat="40.217003" lon="-5.037863">
        <ele>451.232</ele>
        <time>2021-10-16T10:05:22Z</time>
      </trkpt>
      <trkpt lat="40.216634" lon="-5.038074">
        <ele>452.034</ele>
        <time>2021-10-16T10:05:24Z</time>
      </trkpt>
      <trkpt lat="40.216335" lon="-5.038465">
        <ele>452.391</ele>
        <time>2021-10-16T10:05:26Z</time>
      </trkpt>
      <trkpt lat="40.216023" lon="-5.038905">
        <ele>450.238</ele>
        <time>2021-10-16T10:05:28Z</time>
      </trkpt>
      <trkpt lat="40.215828" lon="-5.039102">
        <ele>451.470</ele>
        <time>2021-10-16T10:05:29Z</time>
      </trkpt>
      <trkpt lat="40.215379" lon="-5.039410">
        <ele>449.417</ele>
        <time>2021-10-16T10:05:31Z</time>
      </trkpt>
      <trkpt lat="40.214862" lon="-5.039602">
        <ele>450.708</ele>
        <time>2021-10-16T10:05:33Z</time>
      </trkpt>
      <trkpt lat="40.214592" lon="-5.039681">
        <ele>451.581</ele>
        <time>2021-10-16T10:05:34Z</time>
      </trkpt>
      <trkpt lat="40.214048" lon="-5.039849">
        <ele>449.369</ele>
        <time>2021-10-16T10:05:36Z</time>
      </trkpt>
      <trkpt lat="40.213482" lon="-5.040032">
        <ele>447.878</ele>
        <time>2021-10-16T10:05:38Z</time>
      </trkpt>
      <trkpt lat="40.212923" lon="-5.040208">
        <ele>444.962</ele>
        <time>2021-10-16T10:05:40Z</time>
      </trkpt>
      <trkpt lat="40.212659" lon="-5.040299">
        <ele>444.627</ele>
        <time>2021-10-16T10:05:41Z</time>
      </trkpt>
      <trkpt lat="40.212145" lon="-5.040547">
        <ele>443.266</ele>
        <time>2021-10-16T10:05:43Z</time>
      </trkpt>
      <trkpt lat="40.211897" lon="-5.040707">
        <ele>441.758</ele>
        <time>2021-10-16T10:05:44Z</time>
      </trkpt>
      <trkpt lat="40.211661" lon="-5.040861">
        <ele>440.345</ele>
        <time>2021-10-16T10:05:45Z</time>
      </trkpt>
      <trkpt lat="40.211433" lon="-5.041006">
        <ele>438.821</ele>
        <time>2021-10-16T10:05:46Z</time>
      </trkpt>
      <trkpt lat="40.210998" lon="-5.041269">
        <ele>434.541</ele>
        <time>2021-10-16T10:05:48Z</time>
      </trkpt>
      <trkpt lat="40.210802" lon="-5.041384">
        <ele>433.705</ele>
        <time>2021-10-16T10:05:49Z</time>
      </trkpt>
      <trkpt lat="40.210447" lon="-5.041555">
        <ele>431.308</ele>
        <time>2021-10-16T10:05:51Z</time>
      </trkpt>
      <trkpt lat="40.210083" lon="-5.041575">
        <ele>429.150</ele>
        <time>2021-10-16T10:05:53Z</time>
      </trkpt>
      <trkpt lat="40.209905" lon="-5.041498">
        <ele>428.098</ele>
        <time>2021-10-16T10:05:54Z</time>
      </trkpt>
      <trkpt lat="40.209746" lon="-5.041353">
        <ele>427.817</ele>
        <time>2021-10-16T10:05:55Z</time>
      </trkpt>
      <trkpt lat="40.209481" lon="-5.040946">
        <ele>428.241</ele>
        <time>2021-10-16T10:05:57Z</time>
      </trkpt>
      <trkpt lat="40.209182" lon="-5.040637">
        <ele>426.536</ele>
        <time>2021-10-16T10:05:59Z</time>
      </trkpt>
      <trkpt lat="40.208840" lon="-5.040544">
        <ele>425.655</ele>
        <time>2021-10-16T10:06:01Z</time>
      </trkpt>
      <trkpt lat="40.208653" lon="-5.040589">
        <ele>425.747</ele>
        <time>2021-10-16T10:06:02Z</time>
      </trkpt>
      <trkpt lat="40.208456" lon="-5.040693">
        <ele>425.644</ele>
        <time>2021-10-16T10:06:03Z</time>
      </trkpt>
      <trkpt lat="40.208027" lon="-5.041019">
        <ele>425.116</ele>
        <time>2021-10-16T10:06:05Z</time>
      </trkpt>
      <trkpt lat="40.207584" lon="-5.041447">
        <ele>424.176</ele>
        <time>2021-10-16T10:06:07Z</time>
      </trkpt>
      <trkpt lat="40.207129" lon="-5.041910">
        <ele>424.913</ele>
        <time>2021-10-16T10:06:09Z</time>
      </trkpt>
      <trkpt lat="40.206908" lon="-5.042140">
        <ele>424.808</ele>
        <time>2021-10-16T10:06:10Z</time>
      </trkpt>
      <trkpt lat="40.206506" lon="-5.042558">
        <ele>426.489</ele>
        <time>2021-10-16T10:06:12Z</time>
      </trkpt>
      <trkpt lat="40.206317" lon="-5.042746">
        <ele>426.567</ele>
        <time>2021-10-16T10:06:13Z</time>
      </trkpt>
      <trkpt lat="40.205943" lon="-5.043038">
        <ele>427.266</ele>
        <time>2021-10-16T10:06:15Z</time>
      </trkpt>
      <trkpt lat="40.205498" lon="-5.043154">
        <ele>429.330</ele>
        <time>2021-10-16T10:06:17Z</time>
      </trkpt>
      <trkpt lat="40.205245" lon="-5.043149">
        <ele>430.075</ele>
        <time>2021-10-16T10:06:18Z</time>
      </trkpt>
      <trkpt lat="40.204711" lon="-5.043123">
        <ele>430.034</ele>
        <time>2021-10-16T10:06:20Z</time>
      </trkpt>
      <trkpt lat="40.204440" lon="-5.043109">
        <ele>430.956</ele>
        <time>2021-10-16T10:06:21Z</time>
      </trkpt>
      <trkpt lat="40.204173" lon="-5.043098">
        <ele>431.863</ele>
        <time>2021-10-16T10:06:22Z</time>
      </trkpt>
      <trkpt lat="40.203916" lon="-5.043099">
        <ele>433.316</ele>
        <time>2021-10-16T10:06:23Z</time>
      </trkpt>
      <trkpt lat="40.203454" lon="-5.043096">
        <ele>433.876</ele>
        <time>2021-10-16T10:06:25Z</time>
      </trkpt>
      <trkpt lat="40.203234" lon="-5.043097">
        <ele>433.913</ele>
        <time>2021-10-16T10:06:26Z</time>
      </trkpt>
      <trkpt lat="40.202813" lon="-5.043210">
        <ele>435.508</ele>
        <time>2021-10-16T10:06:28Z</time>
      </trkpt>
      <trkpt lat="40.202591" lon="-5.043329">
        <ele>436.039</ele>
        <time>2021-10-16T10:06:29Z</time>
      </trkpt>
      <trkpt lat="40.202376" lon="-5.043470">
        <ele>437.247</ele>
        <time>2021-10-16T10:06:30Z</time>
      </trkpt>
      <trkpt lat="40.202178" lon="-5.043602">
        <ele>438.296</ele>
        <time>2021-10-16T10:06:31Z</time>
      </trkpt>
      <trkpt lat="40.201982" lon="-5.043697">
        <ele>439.040</ele>
        <time>2021-10-16T10:06:32Z</time>
      </trkpt>
      <trkpt lat="40.201568" lon="-5.043753">
        <ele>440.965</ele>
        <time>2021-10-16T10:06:34Z</time>
      </trkpt>
      <trkpt lat="40.201141" lon="-5.043629">
        <ele>442.464</ele>
        <time>2021-10-16T10:06:36Z</time>
      </trkpt>
      <trkpt lat="40.200749" lon="-5.043558">
        <ele>443.716</ele>
        <time>2021-10-16T10:06:38Z</time>
      </trkpt>
      <trkpt lat="40.200558" lon="-5.043612">
        <ele>444.643</ele>
        <time>2021-10-16T10:06:39Z</time>
      </trkpt>
      <trkpt lat="40.200175" lon="-5.043789">
        <ele>445.861</ele>
        <time>2021-10-16T10:06:41Z</time>
      </trkpt>
      <trkpt lat="40.199988" lon="-5.043877">
        <ele>446.221</ele>
        <time>2021-10-16T10:06:42Z</time>
      </trkpt>
      <trkpt lat="40.199639" lon="-5.044124">
        <ele>446.513</ele>
        <time>2021-10-16T10:06:44Z</time>
      </trkpt>
      <trkpt lat="40.199367" lon="-5.044558">
        <ele>444.208</ele>
        <time>2021-10-16T10:06:46Z</time>
      </trkpt>
      <trkpt lat="40.199250" lon="-5.044802">
        <ele>443.984</ele>
        <time>2021-10-16T10:06:47Z</time>
      </trkpt>
      <trkpt lat="40.199015" lon="-5.045200">
        <ele>441.292</ele>
        <time>2021-10-16T10:06:49Z</time>
      </trkpt>
      <trkpt lat="40.198893" lon="-5.045336">
        <ele>440.561</ele>
        <time>2021-10-16T10:06:50Z</time>
      </trkpt>
      <trkpt lat="40.198617" lon="-5.045442">
        <ele>436.545</ele>
        <time>2021-10-16T10:06:52Z</time>
      </trkpt>
      <trkpt lat="40.198257" lon="-5.045249">
        <ele>435.370</ele>
        <time>2021-10-16T10:06:54Z</time>
      </trkpt>
      <trkpt lat="40.198064" lon="-5.045130">
        <ele>435.279</ele>
        <time>2021-10-16T10:06:55Z</time>
      </trkpt>
      <trkpt lat="40.197880" lon="-5.045050">
        <ele>433.471</ele>
        <time>2021-10-16T10:06:56Z</time>
      </trkpt>
      <trkpt lat="40.197538" lon="-5.045049">
        <ele>432.818</ele>
        <time>2021-10-16T10:06:58Z</time>
      </trkpt>
      <trkpt lat="40.197359" lon="-5.045121">
        <ele>431.463</ele>
        <time>2021-10-16T10:06:59Z</time>
      </trkpt>
      <trkpt lat="40.197170" lon="-5.045220">
        <ele>432.044</ele>
        <time>2021-10-16T10:07:00Z</time>
      </trkpt>
      <trkpt lat="40.196769" lon="-5.045456">
        <ele>433.018</ele>
        <time>2021-10-16T10:07:02Z</time>
      </trkpt>
      <trkpt lat="40.196412" lon="-5.045755">
        <ele>432.008</ele>
        <time>2021-10-16T10:07:04Z</time>
      </trkpt>
      <trkpt lat="40.196197" lon="-5.046183">
        <ele>431.584</ele>
        <time>2021-10-16T10:07:06Z</time>
      </trkpt>
      <trkpt lat="40.196059" lon="-5.046667">
        <ele>430.272</ele>
        <time>2021-10-16T10:07:08Z</time>
      </trkpt>
      <trkpt lat="40.195858" lon="-5.047073">
        <ele>428.131</ele>
        <time>2021-10-16T10:07:10Z</time>
      </trkpt>
      <trkpt lat="40.195507" lon="-5.047279">
        <ele>426.435</ele>
        <time>2021-10-16T10:07:12Z</time>
      </trkpt>
      <trkpt lat="40.195036" lon="-5.047383">
        <ele>423.640</ele>
        <time>2021-10-16T10:07:14Z</time>
      </trkpt>
      <trkpt lat="40.194598" lon="-5.047405">
        <ele>423.549</ele>
        <time>2021-10-16T10:07:16Z</time>
      </trkpt>
      <trkpt lat="40.194393" lon="-5.047339">
        <ele>422.571</ele>
        <time>2021-10-16T10:07:17Z</time>
      </trkpt>
      <trkpt lat="40.194189" lon="-5.047227">
        <ele>421.858</ele>
        <time>2021-10-16T10:07:18Z</time>
      </trkpt>
      <trkpt lat="40.193981" lon="-5.047103">
        <ele>420.651</ele>
        <time>2021-10-16T10:07:19Z</time>
      </trkpt>
      <trkpt lat="40.193772" lon="-5.046989">
        <ele>420.501</ele>
        <time>2021-10-16T10:07:20Z</time>
      </trkpt>
      <trkpt lat="40.193370" lon="-5.046851">
        <ele>420.411</ele>
        <time>2021-10-16T10:07:22Z</time>
      </trkpt>
      <trkpt lat="40.193159" lon="-5.046816">
        <ele>420.008</ele>
        <time>2021-10-16T10:07:23Z</time>
      </trkpt>
      <trkpt lat="40.192661" lon="-5.046773">
        <ele>417.493</ele>
        <time>2021-10-16T10:07:25Z</time>
      </trkpt>
      <trkpt lat="40.192367" lon="-5.046747">
        <ele>416.291</ele>
        <time>2021-10-16T10:07:26Z</time>
      </trkpt>
      <trkpt lat="40.191788" lon="-5.046691">
        <ele>410.860</ele>
        <time>2021-10-16T10:07:28Z</time>
      </trkpt>
      <trkpt lat="40.191496" lon="-5.046663">
        <ele>408.864</ele>
        <time>2021-10-16T10:07:29Z</time>
      </trkpt>
      <trkpt lat="40.190914" lon="-5.046617">
        <ele>403.419</ele>
        <time>2021-10-16T10:07:31Z</time>
      </trkpt>
      <trkpt lat="40.190626" lon="-5.046597">
        <ele>401.818</ele>
        <time>2021-10-16T10:07:32Z</time>
      </trkpt>
      <trkpt lat="40.190059" lon="-5.046600">
        <ele>397.940</ele>
        <time>2021-10-16T10:07:34Z</time>
      </trkpt>
      <trkpt lat="40.189496" lon="-5.046642">
        <ele>392.597</ele>
        <time>2021-10-16T10:07:36Z</time>
      </trkpt>
      <trkpt lat="40.189220" lon="-5.046666">
        <ele>391.821</ele>
        <time>2021-10-16T10:07:37Z</time>
      </trkpt>
      <trkpt lat="40.188952" lon="-5.046690">
        <ele>390.941</ele>
        <time>2021-10-16T10:07:38Z</time>
      </trkpt>
      <trkpt lat="40.188694" lon="-5.046711">
        <ele>388.705</ele>
        <time>2021-10-16T10:07:39Z</time>
      </trkpt>
      <trkpt lat="40.188215" lon="-5.046743">
        <ele>384.008</ele>
        <time>2021-10-16T10:07:41Z</time>
      </trkpt>
      <trkpt lat="40.187994" lon="-5.046761">
        <ele>383.070</ele>
        <time>2021-10-16T10:07:42Z</time>
      </trkpt>
      <trkpt lat="40.187589" lon="-5.046792">
        <ele>379.998</ele>
        <time>2021-10-16T10:07:44Z</time>
      </trkpt>
      <trkpt lat="40.187223" lon="-5.046818">
        <ele>377.667</ele>
        <time>2021-10-16T10:07:46Z</time>
      </trkpt>
      <trkpt lat="40.187060" lon="-5.046838">
        <ele>377.171</ele>
        <time>2021-10-16T10:07:47Z</time>
      </trkpt>
      <trkpt lat="40.186782" lon="-5.046944">
        <ele>375.116</ele>
        <time>2021-10-16T10:07:49Z</time>
      </trkpt>
      <trkpt lat="40.186573" lon="-5.047160">
        <ele>372.945</ele>
        <time>2021-10-16T10:07:51Z</time>
      </trkpt>
      <trkpt lat="40.186491" lon="-5.047296">
        <ele>372.437</ele>
        <time>2021-10-16T10:07:52Z</time>
      </trkpt>
      <trkpt lat="40.186406" lon="-5.047564">
        <ele>370.174</ele>
        <time>2021-10-16T10:07:54Z</time>
      </trkpt>
      <trkpt lat="40.186418" lon="-5.047810">
        <ele>366.267</ele>
        <time>2021-10-16T10:07:56Z</time>
      </trkpt>
      <trkpt lat="40.186441" lon="-5.048022">
        <ele>366.381</ele>
        <time>2021-10-16T10:07:58Z</time>
      </trkpt>
      <trkpt lat="40.186423" lon="-5.048113">
        <ele>366.319</ele>
        <time>2021-10-16T10:07:59Z</time>
      </trkpt>
      <trkpt lat="40.186378" lon="-5.048184">
        <ele>366.408</ele>
        <time>2021-10-16T10:08:00Z</time>
      </trkpt>
      <trkpt lat="40.186307" lon="-5.048222">
        <ele>366.334</ele>
        <time>2021-10-16T10:08:01Z</time>
      </trkpt>
      <trkpt lat="40.186154" lon="-5.048159">
        <ele>366.442</ele>
        <time>2021-10-16T10:08:03Z</time>
      </trkpt>
      <trkpt lat="40.186102" lon="-5.048062">
        <ele>365.321</ele>
        <time>2021-10-16T10:08:04Z</time>
      </trkpt>
      <trkpt lat="40.185981" lon="-5.047839">
        <ele>362.635</ele>
        <time>2021-10-16T10:08:06Z</time>
      </trkpt>
      <trkpt lat="40.185756" lon="-5.047696">
        <ele>362.350</ele>
        <time>2021-10-16T10:08:08Z</time>
      </trkpt>
      <trkpt lat="40.185478" lon="-5.047585">
        <ele>358.859</ele>
        <time>2021-10-16T10:08:10Z</time>
      </trkpt>
      <trkpt lat="40.185342" lon="-5.047530">
        <ele>357.331</ele>
        <time>2021-10-16T10:08:11Z</time>
      </trkpt>
      <trkpt lat="40.185084" lon="-5.047430">
        <ele>355.968</ele>
        <time>2021-10-16T10:08:13Z</time>
      </trkpt>
      <trkpt lat="40.184966" lon="-5.047373">
        <ele>355.939</ele>
        <time>2021-10-16T10:08:14Z</time>
      </trkpt>
      <trkpt lat="40.184853" lon="-5.047302">
        <ele>355.601</ele>
        <time>2021-10-16T10:08:15Z</time>
      </trkpt>
      <trkpt lat="40.184638" lon="-5.047097">
        <ele>353.321</ele>
        <time>2021-10-16T10:08:17Z</time>
      </trkpt>
      <trkpt lat="40.184443" lon="-5.046805">
        <ele>354.008</ele>
        <time>2021-10-16T10:08:19Z</time>
      </trkpt>
      <trkpt lat="40.184353" lon="-5.046638">
        <ele>354.191</ele>
        <time>2021-10-16T10:08:20Z</time>
      </trkpt>
      <trkpt lat="40.184265" lon="-5.046468">
        <ele>353.949</ele>
        <time>2021-10-16T10:08:21Z</time>
      </trkpt>
      <trkpt lat="40.184086" lon="-5.046121">
        <ele>354.198</ele>
        <time>2021-10-16T10:08:23Z</time>
      </trkpt>
      <trkpt lat="40.183992" lon="-5.045941">
        <ele>353.012</ele>
        <time>2021-10-16T10:08:24Z</time>
      </trkpt>
      <trkpt lat="40.183885" lon="-5.045752">
        <ele>352.277</ele>
        <time>2021-10-16T10:08:25Z</time>
      </trkpt>
      <trkpt lat="40.183644" lon="-5.045380">
        <ele>352.926</ele>
        <time>2021-10-16T10:08:27Z</time>
      </trkpt>
      <trkpt lat="40.183361" lon="-5.045041">
        <ele>352.418</ele>
        <time>2021-10-16T10:08:29Z</time>
      </trkpt>
      <trkpt lat="40.183218" lon="-5.044868">
        <ele>352.195</ele>
        <time>2021-10-16T10:08:30Z</time>
      </trkpt>
      <trkpt lat="40.183079" lon="-5.044695">
        <ele>352.372</ele>
        <time>2021-10-16T10:08:31Z</time>
      </trkpt>
      <trkpt lat="40.182941" lon="-5.044524">
        <ele>351.913</ele>
        <time>2021-10-16T10:08:32Z</time>
      </trkpt>
      <trkpt lat="40.182655" lon="-5.044175">
        <ele>351.814</ele>
        <time>2021-10-16T10:08:34Z</time>
      </trkpt>
      <trkpt lat="40.182350" lon="-5.043808">
        <ele>352.108</ele>
        <time>2021-10-16T10:08:36Z</time>
      </trkpt>
      <trkpt lat="40.182189" lon="-5.043612">
        <ele>351.965</ele>
        <time>2021-10-16T10:08:37Z</time>
      </trkpt>
      <trkpt lat="40.182022" lon="-5.043412">
        <ele>352.213</ele>
        <time>2021-10-16T10:08:38Z</time>
      </trkpt>
      <trkpt lat="40.181684" lon="-5.043006">
        <ele>354.122</ele>
        <time>2021-10-16T10:08:40Z</time>
      </trkpt>
      <trkpt lat="40.181364" lon="-5.042623">
        <ele>354.736</ele>
        <time>2021-10-16T10:08:42Z</time>
      </trkpt>
      <trkpt lat="40.181096" lon="-5.042297">
        <ele>355.511</ele>
        <time>2021-10-16T10:08:44Z</time>
      </trkpt>
      <trkpt lat="40.180841" lon="-5.041990">
        <ele>356.630</ele>
        <time>2021-10-16T10:08:46Z</time>
      </trkpt>
      <trkpt lat="40.180714" lon="-5.041837">
        <ele>356.952</ele>
        <time>2021-10-16T10:08:47Z</time>
      </trkpt>
      <trkpt lat="40.180590" lon="-5.041684">
        <ele>355.449</ele>
        <time>2021-10-16T10:08:48Z</time>
      </trkpt>
      <trkpt lat="40.180357" lon="-5.041406">
        <ele>356.595</ele>
        <time>2021-10-16T10:08:50Z</time>
      </trkpt>
      <trkpt lat="40.180145" lon="-5.041157">
        <ele>356.849</ele>
        <time>2021-10-16T10:08:52Z</time>
      </trkpt>
      <trkpt lat="40.180043" lon="-5.041042">
        <ele>356.723</ele>
        <time>2021-10-16T10:08:53Z</time>
      </trkpt>
      <trkpt lat="40.179830" lon="-5.040878">
        <ele>356.408</ele>
        <time>2021-10-16T10:08:55Z</time>
      </trkpt>
      <trkpt lat="40.179720" lon="-5.040843">
        <ele>356.627</ele>
        <time>2021-10-16T10:08:56Z</time>
      </trkpt>
      <trkpt lat="40.179614" lon="-5.040814">
        <ele>356.675</ele>
        <time>2021-10-16T10:08:57Z</time>
      </trkpt>
      <trkpt lat="40.179513" lon="-5.040754">
        <ele>356.624</ele>
        <time>2021-10-16T10:08:58Z</time>
      </trkpt>
      <trkpt lat="40.179427" lon="-5.040657">
        <ele>356.958</ele>
        <time>2021-10-16T10:08:59Z</time>
      </trkpt>
      <trkpt lat="40.179321" lon="-5.040361">
        <ele>356.133</ele>
        <time>2021-10-16T10:09:01Z</time>
      </trkpt>
      <trkpt lat="40.179268" lon="-5.040184">
        <ele>356.192</ele>
        <time>2021-10-16T10:09:02Z</time>
      </trkpt>
      <trkpt lat="40.179079" lon="-5.039862">
        <ele>358.034</ele>
        <time>2021-10-16T10:09:04Z</time>
      </trkpt>
      <trkpt lat="40.178951" lon="-5.039702">
        <ele>357.591</ele>
        <time>2021-10-16T10:09:05Z</time>
      </trkpt>
      <trkpt lat="40.178675" lon="-5.039375">
        <ele>358.843</ele>
        <time>2021-10-16T10:09:07Z</time>
      </trkpt>
      <trkpt lat="40.178529" lon="-5.039195">
        <ele>359.264</ele>
        <time>2021-10-16T10:09:08Z</time>
      </trkpt>
      <trkpt lat="40.178212" lon="-5.038810">
        <ele>358.110</ele>
        <time>2021-10-16T10:09:10Z</time>
      </trkpt>
      <trkpt lat="40.177867" lon="-5.038398">
        <ele>358.808</ele>
        <time>2021-10-16T10:09:12Z</time>
      </trkpt>
      <trkpt lat="40.177690" lon="-5.038183">
        <ele>358.372</ele>
        <time>2021-10-16T10:09:13Z</time>
      </trkpt>
      <trkpt lat="40.177518" lon="-5.037974">
        <ele>357.040</ele>
        <time>2021-10-16T10:09:14Z</time>
      </trkpt>
      <trkpt lat="40.177180" lon="-5.037576">
        <ele>355.729</ele>
        <time>2021-10-16T10:09:16Z</time>
      </trkpt>
      <trkpt lat="40.177010" lon="-5.037395">
        <ele>355.023</ele>
        <time>2021-10-16T10:09:17Z</time>
      </trkpt>
      <trkpt lat="40.176685" lon="-5.037069">
        <ele>355.198</ele>
        <time>2021-10-16T10:09:19Z</time>
      </trkpt>
      <trkpt lat="40.176531" lon="-5.036922">
        <ele>355.397</ele>
        <time>2021-10-16T10:09:20Z</time>
      </trkpt>
      <trkpt lat="40.176223" lon="-5.036620">
        <ele>353.919</ele>
        <time>2021-10-16T10:09:22Z</time>
      </trkpt>
      <trkpt lat="40.176056" lon="-5.036453">
        <ele>353.436</ele>
        <time>2021-10-16T10:09:23Z</time>
      </trkpt>
      <trkpt lat="40.175694" lon="-5.036094">
        <ele>353.623</ele>
        <time>2021-10-16T10:09:25Z</time>
      </trkpt>
      <trkpt lat="40.175506" lon="-5.035909">
        <ele>354.383</ele>
        <time>2021-10-16T10:09:26Z</time>
      </trkpt>
      <trkpt lat="40.175115" lon="-5.035531">
        <ele>352.911</ele>
        <time>2021-10-16T10:09:28Z</time>
      </trkpt>
      <trkpt lat="40.174918" lon="-5.035348">
        <ele>353.008</ele>
        <time>2021-10-16T10:09:29Z</time>
      </trkpt>
      <trkpt lat="40.174549" lon="-5.034994">
        <ele>353.480</ele>
        <time>2021-10-16T10:09:31Z</time>
      </trkpt>
      <trkpt lat="40.174183" lon="-5.034640">
        <ele>352.848</ele>
        <time>2021-10-16T10:09:33Z</time>
      </trkpt>
      <trkpt lat="40.174001" lon="-5.034462">
        <ele>353.777</ele>
        <time>2021-10-16T10:09:34Z</time>
      </trkpt>
      <trkpt lat="40.173639" lon="-5.034111">
        <ele>352.471</ele>
        <time>2021-10-16T10:09:36Z</time>
      </trkpt>
      <trkpt lat="40.173456" lon="-5.033935">
        <ele>350.916</ele>
        <time>2021-10-16T10:09:37Z</time>
      </trkpt>
      <trkpt lat="40.173088" lon="-5.033588">
        <ele>350.035</ele>
        <time>2021-10-16T10:09:39Z</time>
      </trkpt>
      <trkpt lat="40.172737" lon="-5.033247">
        <ele>349.277</ele>
        <time>2021-10-16T10:09:41Z</time>
      </trkpt>
      <trkpt lat="40.172400" lon="-5.032929">
        <ele>347.234</ele>
        <time>2021-10-16T10:09:43Z</time>
      </trkpt>
      <trkpt lat="40.172238" lon="-5.032774">
        <ele>346.432</ele>
        <time>2021-10-16T10:09:44Z</time>
      </trkpt>
      <trkpt lat="40.171915" lon="-5.032462">
        <ele>345.492</ele>
        <time>2021-10-16T10:09:46Z</time>
      </trkpt>
      <trkpt lat="40.171741" lon="-5.032294">
        <ele>344.311</ele>
        <time>2021-10-16T10:09:47Z</time>
      </trkpt>
      <trkpt lat="40.171383" lon="-5.031947">
        <ele>340.908</ele>
        <time>2021-10-16T10:09:49Z</time>
      </trkpt>
      <trkpt lat="40.171198" lon="-5.031765">
        <ele>339.431</ele>
        <time>2021-10-16T10:09:50Z</time>
      </trkpt>
      <trkpt lat="40.170832" lon="-5.031365">
        <ele>338.249</ele>
        <time>2021-10-16T10:09:52Z</time>
      </trkpt>
      <trkpt lat="40.170477" lon="-5.030901">
        <ele>337.238</ele>
        <time>2021-10-16T10:09:54Z</time>
      </trkpt>
      <trkpt lat="40.170302" lon="-5.030656">
        <ele>337.182</ele>
        <time>2021-10-16T10:09:55Z</time>
      </trkpt>
      <trkpt lat="40.170124" lon="-5.030402">
        <ele>336.617</ele>
        <time>2021-10-16T10:09:56Z</time>
      </trkpt>
      <trkpt lat="40.169783" lon="-5.029927">
        <ele>336.126</ele>
        <time>2021-10-16T10:09:58Z</time>
      </trkpt>
      <trkpt lat="40.169438" lon="-5.029433">
        <ele>335.848</ele>
        <time>2021-10-16T10:10:00Z</time>
      </trkpt>
      <trkpt lat="40.169261" lon="-5.029184">
        <ele>335.535</ele>
        <time>2021-10-16T10:10:01Z</time>
      </trkpt>
      <trkpt lat="40.169077" lon="-5.028931">
        <ele>334.573</ele>
        <time>2021-10-16T10:10:02Z</time>
      </trkpt>
      <trkpt lat="40.168702" lon="-5.028413">
        <ele>331.885</ele>
        <time>2021-10-16T10:10:04Z</time>
      </trkpt>
      <trkpt lat="40.168509" lon="-5.028147">
        <ele>332.013</ele>
        <time>2021-10-16T10:10:05Z</time>
      </trkpt>
      <trkpt lat="40.168326" lon="-5.027894">
        <ele>331.908</ele>
        <time>2021-10-16T10:10:06Z</time>
      </trkpt>
      <trkpt lat="40.167973" lon="-5.027404">
        <ele>330.865</ele>
        <time>2021-10-16T10:10:08Z</time>
      </trkpt>
      <trkpt lat="40.167618" lon="-5.026907">
        <ele>330.593</ele>
        <time>2021-10-16T10:10:10Z</time>
      </trkpt>
      <trkpt lat="40.167250" lon="-5.026397">
        <ele>329.492</ele>
        <time>2021-10-16T10:10:12Z</time>
      </trkpt>
      <trkpt lat="40.166876" lon="-5.025879">
        <ele>328.726</ele>
        <time>2021-10-16T10:10:14Z</time>
      </trkpt>
      <trkpt lat="40.166507" lon="-5.025354">
        <ele>327.461</ele>
        <time>2021-10-16T10:10:16Z</time>
      </trkpt>
      <trkpt lat="40.166324" lon="-5.025095">
        <ele>327.990</ele>
        <time>2021-10-16T10:10:17Z</time>
      </trkpt>
      <trkpt lat="40.165977" lon="-5.024615">
        <ele>326.562</ele>
        <time>2021-10-16T10:10:19Z</time>
      </trkpt>
      <trkpt lat="40.165656" lon="-5.024170">
        <ele>326.749</ele>
        <time>2021-10-16T10:10:21Z</time>
      </trkpt>
      <trkpt lat="40.165489" lon="-5.023937">
        <ele>326.466</ele>
        <time>2021-10-16T10:10:22Z</time>
      </trkpt>
      <trkpt lat="40.165321" lon="-5.023703">
        <ele>325.829</ele>
        <time>2021-10-16T10:10:23Z</time>
      </trkpt>
      <trkpt lat="40.165147" lon="-5.023462">
        <ele>326.121</ele>
        <time>2021-10-16T10:10:24Z</time>
      </trkpt>
      <trkpt lat="40.164785" lon="-5.022960">
        <ele>326.308</ele>
        <time>2021-10-16T10:10:26Z</time>
      </trkpt>
      <trkpt lat="40.164434" lon="-5.022474">
        <ele>325.694</ele>
        <time>2021-10-16T10:10:28Z</time>
      </trkpt>
      <trkpt lat="40.164080" lon="-5.021979">
        <ele>326.872</ele>
        <time>2021-10-16T10:10:30Z</time>
      </trkpt>
      <trkpt lat="40.163722" lon="-5.021481">
        <ele>325.631</ele>
        <time>2021-10-16T10:10:32Z</time>
      </trkpt>
      <trkpt lat="40.163370" lon="-5.021000">
        <ele>327.155</ele>
        <time>2021-10-16T10:10:34Z</time>
      </trkpt>
      <trkpt lat="40.163194" lon="-5.020766">
        <ele>326.770</ele>
        <time>2021-10-16T10:10:35Z</time>
      </trkpt>
      <trkpt lat="40.163021" lon="-5.020532">
        <ele>325.499</ele>
        <time>2021-10-16T10:10:36Z</time>
      </trkpt>
      <trkpt lat="40.162687" lon="-5.020053">
        <ele>326.071</ele>
        <time>2021-10-16T10:10:38Z</time>
      </trkpt>
      <trkpt lat="40.162535" lon="-5.019794">
        <ele>325.628</ele>
        <time>2021-10-16T10:10:39Z</time>
      </trkpt>
      <trkpt lat="40.162268" lon="-5.019227">
        <ele>324.659</ele>
        <time>2021-10-16T10:10:41Z</time>
      </trkpt>
      <trkpt lat="40.162144" lon="-5.018928">
        <ele>325.403</ele>
        <time>2021-10-16T10:10:42Z</time>
      </trkpt>
      <trkpt lat="40.162012" lon="-5.018642">
        <ele>325.823</ele>
        <time>2021-10-16T10:10:43Z</time>
      </trkpt>
      <trkpt lat="40.161871" lon="-5.018381">
        <ele>326.908</ele>
        <time>2021-10-16T10:10:44Z</time>
      </trkpt>
      <trkpt lat="40.161538" lon="-5.017939">
        <ele>326.723</ele>
        <time>2021-10-16T10:10:46Z</time>
      </trkpt>
      <trkpt lat="40.161344" lon="-5.017748">
        <ele>327.461</ele>
        <time>2021-10-16T10:10:47Z</time>
      </trkpt>
      <trkpt lat="40.161131" lon="-5.017587">
        <ele>327.290</ele>
        <time>2021-10-16T10:10:48Z</time>
      </trkpt>
      <trkpt lat="40.160634" lon="-5.017376">
        <ele>328.924</ele>
        <time>2021-10-16T10:10:50Z</time>
      </trkpt>
      <trkpt lat="40.160094" lon="-5.017257">
        <ele>329.129</ele>
        <time>2021-10-16T10:10:52Z</time>
      </trkpt>
      <trkpt lat="40.159821" lon="-5.017202">
        <ele>328.678</ele>
        <time>2021-10-16T10:10:53Z</time>
      </trkpt>
      <trkpt lat="40.159303" lon="-5.017098">
        <ele>329.490</ele>
        <time>2021-10-16T10:10:55Z</time>
      </trkpt>
      <trkpt lat="40.158785" lon="-5.016984">
        <ele>329.637</ele>
        <time>2021-10-16T10:10:57Z</time>
      </trkpt>
      <trkpt lat="40.158520" lon="-5.016924">
        <ele>330.049</ele>
        <time>2021-10-16T10:10:58Z</time>
      </trkpt>
      <trkpt lat="40.158244" lon="-5.016866">
        <ele>330.102</ele>
        <time>2021-10-16T10:10:59Z</time>
      </trkpt>
      <trkpt lat="40.157664" lon="-5.016723">
        <ele>331.222</ele>
        <time>2021-10-16T10:11:01Z</time>
      </trkpt>
      <trkpt lat="40.157115" lon="-5.016552">
        <ele>332.108</ele>
        <time>2021-10-16T10:11:03Z</time>
      </trkpt>
      <trkpt lat="40.156615" lon="-5.016368">
        <ele>332.642</ele>
        <time>2021-10-16T10:11:05Z</time>
      </trkpt>
      <trkpt lat="40.156365" lon="-5.016273">
        <ele>333.210</ele>
        <time>2021-10-16T10:11:06Z</time>
      </trkpt>
      <trkpt lat="40.155879" lon="-5.016085">
        <ele>335.239</ele>
        <time>2021-10-16T10:11:08Z</time>
      </trkpt>
      <trkpt lat="40.155411" lon="-5.015918">
        <ele>336.983</ele>
        <time>2021-10-16T10:11:10Z</time>
      </trkpt>
      <trkpt lat="40.155178" lon="-5.015835">
        <ele>338.348</ele>
        <time>2021-10-16T10:11:11Z</time>
      </trkpt>
      <trkpt lat="40.154713" lon="-5.015676">
        <ele>339.437</ele>
        <time>2021-10-16T10:11:13Z</time>
      </trkpt>
      <trkpt lat="40.154475" lon="-5.015605">
        <ele>340.069</ele>
        <time>2021-10-16T10:11:14Z</time>
      </trkpt>
      <trkpt lat="40.153997" lon="-5.015501">
        <ele>341.656</ele>
        <time>2021-10-16T10:11:16Z</time>
      </trkpt>
      <trkpt lat="40.153749" lon="-5.015462">
        <ele>342.612</ele>
        <time>2021-10-16T10:11:17Z</time>
      </trkpt>
      <trkpt lat="40.153501" lon="-5.015422">
        <ele>342.632</ele>
        <time>2021-10-16T10:11:18Z</time>
      </trkpt>
      <trkpt lat="40.153251" lon="-5.015381">
        <ele>343.205</ele>
        <time>2021-10-16T10:11:19Z</time>
      </trkpt>
      <trkpt lat="40.153000" lon="-5.015341">
        <ele>344.608</ele>
        <time>2021-10-16T10:11:20Z</time>
      </trkpt>
      <trkpt lat="40.152746" lon="-5.015300">
        <ele>345.589</ele>
        <time>2021-10-16T10:11:21Z</time>
      </trkpt>
      <trkpt lat="40.152224" lon="-5.015233">
        <ele>346.657</ele>
        <time>2021-10-16T10:11:23Z</time>
      </trkpt>
      <trkpt lat="40.151680" lon="-5.015252">
        <ele>349.086</ele>
        <time>2021-10-16T10:11:25Z</time>
      </trkpt>
      <trkpt lat="40.151399" lon="-5.015312">
        <ele>349.290</ele>
        <time>2021-10-16T10:11:26Z</time>
      </trkpt>
      <trkpt lat="40.150856" lon="-5.015438">
        <ele>350.195</ele>
        <time>2021-10-16T10:11:28Z</time>
      </trkpt>
      <trkpt lat="40.150586" lon="-5.015499">
        <ele>350.964</ele>
        <time>2021-10-16T10:11:29Z</time>
      </trkpt>
      <trkpt lat="40.150051" lon="-5.015615">
        <ele>351.166</ele>
        <time>2021-10-16T10:11:31Z</time>
      </trkpt>
      <trkpt lat="40.149782" lon="-5.015671">
        <ele>352.453</ele>
        <time>2021-10-16T10:11:32Z</time>
      </trkpt>
      <trkpt lat="40.149294" lon="-5.015771">
        <ele>354.627</ele>
        <time>2021-10-16T10:11:34Z</time>
      </trkpt>
      <trkpt lat="40.149068" lon="-5.015816">
        <ele>356.268</ele>
        <time>2021-10-16T10:11:35Z</time>
      </trkpt>
      <trkpt lat="40.148636" lon="-5.015901">
        <ele>358.114</ele>
        <time>2021-10-16T10:11:37Z</time>
      </trkpt>
      <trkpt lat="40.148430" lon="-5.015941">
        <ele>359.208</ele>
        <time>2021-10-16T10:11:38Z</time>
      </trkpt>
      <trkpt lat="40.148239" lon="-5.015977">
        <ele>360.210</ele>
        <time>2021-10-16T10:11:39Z</time>
      </trkpt>
      <trkpt lat="40.148057" lon="-5.016003">
        <ele>360.888</ele>
        <time>2021-10-16T10:11:40Z</time>
      </trkpt>
      <trkpt lat="40.147689" lon="-5.015969">
        <ele>362.037</ele>
        <time>2021-10-16T10:11:42Z</time>
      </trkpt>
      <trkpt lat="40.147496" lon="-5.015899">
        <ele>362.981</ele>
        <time>2021-10-16T10:11:43Z</time>
      </trkpt>
      <trkpt lat="40.147287" lon="-5.015798">
        <ele>362.436</ele>
        <time>2021-10-16T10:11:44Z</time>
      </trkpt>
      <trkpt lat="40.146850" lon="-5.015586">
        <ele>362.055</ele>
        <time>2021-10-16T10:11:46Z</time>
      </trkpt>
      <trkpt lat="40.146630" lon="-5.015481">
        <ele>361.817</ele>
        <time>2021-10-16T10:11:47Z</time>
      </trkpt>
      <trkpt lat="40.146196" lon="-5.015279">
        <ele>364.054</ele>
        <time>2021-10-16T10:11:49Z</time>
      </trkpt>
      <trkpt lat="40.145821" lon="-5.015090">
        <ele>366.168</ele>
        <time>2021-10-16T10:11:51Z</time>
      </trkpt>
      <trkpt lat="40.145497" lon="-5.014826">
        <ele>367.842</ele>
        <time>2021-10-16T10:11:53Z</time>
      </trkpt>
      <trkpt lat="40.145350" lon="-5.014629">
        <ele>368.626</ele>
        <time>2021-10-16T10:11:54Z</time>
      </trkpt>
      <trkpt lat="40.145066" lon="-5.014166">
        <ele>370.808</ele>
        <time>2021-10-16T10:11:56Z</time>
      </trkpt>
      <trkpt lat="40.144914" lon="-5.013924">
        <ele>371.944</ele>
        <time>2021-10-16T10:11:57Z</time>
      </trkpt>
      <trkpt lat="40.144610" lon="-5.013456">
        <ele>374.592</ele>
        <time>2021-10-16T10:11:59Z</time>
      </trkpt>
      <trkpt lat="40.144476" lon="-5.013237">
        <ele>376.291</ele>
        <time>2021-10-16T10:12:00Z</time>
      </trkpt>
      <trkpt lat="40.144361" lon="-5.013010">
        <ele>377.825</ele>
        <time>2021-10-16T10:12:01Z</time>
      </trkpt>
      <trkpt lat="40.144265" lon="-5.012779">
        <ele>379.190</ele>
        <time>2021-10-16T10:12:02Z</time>
      </trkpt>
      <trkpt lat="40.144118" lon="-5.012335">
        <ele>377.739</ele>
        <time>2021-10-16T10:12:04Z</time>
      </trkpt>
      <trkpt lat="40.144028" lon="-5.012115">
        <ele>376.961</ele>
        <time>2021-10-16T10:12:05Z</time>
      </trkpt>
      <trkpt lat="40.143762" lon="-5.011721">
        <ele>374.448</ele>
        <time>2021-10-16T10:12:07Z</time>
      </trkpt>
      <trkpt lat="40.143586" lon="-5.011563">
        <ele>372.656</ele>
        <time>2021-10-16T10:12:08Z</time>
      </trkpt>
      <trkpt lat="40.143203" lon="-5.011317">
        <ele>368.359</ele>
        <time>2021-10-16T10:12:10Z</time>
      </trkpt>
      <trkpt lat="40.143000" lon="-5.011225">
        <ele>366.714</ele>
        <time>2021-10-16T10:12:11Z</time>
      </trkpt>
      <trkpt lat="40.142787" lon="-5.011169">
        <ele>365.308</ele>
        <time>2021-10-16T10:12:12Z</time>
      </trkpt>
      <trkpt lat="40.142562" lon="-5.011135">
        <ele>363.393</ele>
        <time>2021-10-16T10:12:13Z</time>
      </trkpt>
      <trkpt lat="40.142094" lon="-5.011005">
        <ele>360.881</ele>
        <time>2021-10-16T10:12:15Z</time>
      </trkpt>
      <trkpt lat="40.141844" lon="-5.010910">
        <ele>358.630</ele>
        <time>2021-10-16T10:12:16Z</time>
      </trkpt>
      <trkpt lat="40.141320" lon="-5.010713">
        <ele>357.324</ele>
        <time>2021-10-16T10:12:18Z</time>
      </trkpt>
      <trkpt lat="40.140808" lon="-5.010523">
        <ele>357.569</ele>
        <time>2021-10-16T10:12:20Z</time>
      </trkpt>
      <trkpt lat="40.140358" lon="-5.010344">
        <ele>359.648</ele>
        <time>2021-10-16T10:12:22Z</time>
      </trkpt>
      <trkpt lat="40.139947" lon="-5.010152">
        <ele>360.870</ele>
        <time>2021-10-16T10:12:24Z</time>
      </trkpt>
      <trkpt lat="40.139541" lon="-5.009883">
        <ele>361.247</ele>
        <time>2021-10-16T10:12:26Z</time>
      </trkpt>
      <trkpt lat="40.139133" lon="-5.009592">
        <ele>364.838</ele>
        <time>2021-10-16T10:12:28Z</time>
      </trkpt>
      <trkpt lat="40.138907" lon="-5.009459">
        <ele>365.670</ele>
        <time>2021-10-16T10:12:29Z</time>
      </trkpt>
      <trkpt lat="40.138429" lon="-5.009281">
        <ele>366.417</ele>
        <time>2021-10-16T10:12:31Z</time>
      </trkpt>
      <trkpt lat="40.137946" lon="-5.009132">
        <ele>369.508</ele>
        <time>2021-10-16T10:12:33Z</time>
      </trkpt>
      <trkpt lat="40.137709" lon="-5.009039">
        <ele>370.511</ele>
        <time>2021-10-16T10:12:34Z</time>
      </trkpt>
      <trkpt lat="40.137256" lon="-5.008804">
        <ele>372.469</ele>
        <time>2021-10-16T10:12:36Z</time>
      </trkpt>
      <trkpt lat="40.137030" lon="-5.008682">
        <ele>372.778</ele>
        <time>2021-10-16T10:12:37Z</time>
      </trkpt>
      <trkpt lat="40.136795" lon="-5.008570">
        <ele>373.322</ele>
        <time>2021-10-16T10:12:38Z</time>
      </trkpt>
      <trkpt lat="40.136291" lon="-5.008380">
        <ele>376.187</ele>
        <time>2021-10-16T10:12:40Z</time>
      </trkpt>
      <trkpt lat="40.135764" lon="-5.008182">
        <ele>377.416</ele>
        <time>2021-10-16T10:12:42Z</time>
      </trkpt>
      <trkpt lat="40.135509" lon="-5.008056">
        <ele>378.628</ele>
        <time>2021-10-16T10:12:43Z</time>
      </trkpt>
      <trkpt lat="40.135266" lon="-5.007908">
        <ele>379.815</ele>
        <time>2021-10-16T10:12:44Z</time>
      </trkpt>
      <trkpt lat="40.134814" lon="-5.007561">
        <ele>382.796</ele>
        <time>2021-10-16T10:12:46Z</time>
      </trkpt>
      <trkpt lat="40.134597" lon="-5.007372">
        <ele>383.831</ele>
        <time>2021-10-16T10:12:47Z</time>
      </trkpt>
      <trkpt lat="40.134174" lon="-5.007002">
        <ele>386.324</ele>
        <time>2021-10-16T10:12:49Z</time>
      </trkpt>
      <trkpt lat="40.133954" lon="-5.006848">
        <ele>386.408</ele>
        <time>2021-10-16T10:12:50Z</time>
      </trkpt>
      <trkpt lat="40.133506" lon="-5.006637">
        <ele>388.267</ele>
        <time>2021-10-16T10:12:52Z</time>
      </trkpt>
      <trkpt lat="40.133046" lon="-5.006438">
        <ele>389.535</ele>
        <time>2021-10-16T10:12:54Z</time>
      </trkpt>
      <trkpt lat="40.132808" lon="-5.006335">
        <ele>390.714</ele>
        <time>2021-10-16T10:12:55Z</time>
      </trkpt>
      <trkpt lat="40.132563" lon="-5.006228">
        <ele>391.238</ele>
        <time>2021-10-16T10:12:56Z</time>
      </trkpt>
      <trkpt lat="40.132100" lon="-5.006015">
        <ele>392.493</ele>
        <time>2021-10-16T10:12:58Z</time>
      </trkpt>
      <trkpt lat="40.131650" lon="-5.005840">
        <ele>393.962</ele>
        <time>2021-10-16T10:13:00Z</time>
      </trkpt>
      <trkpt lat="40.131183" lon="-5.005718">
        <ele>393.924</ele>
        <time>2021-10-16T10:13:02Z</time>
      </trkpt>
      <trkpt lat="40.130934" lon="-5.005669">
        <ele>393.291</ele>
        <time>2021-10-16T10:13:03Z</time>
      </trkpt>
      <trkpt lat="40.130411" lon="-5.005588">
        <ele>393.215</ele>
        <time>2021-10-16T10:13:05Z</time>
      </trkpt>
      <trkpt lat="40.129871" lon="-5.005613">
        <ele>394.265</ele>
        <time>2021-10-16T10:13:07Z</time>
      </trkpt>
      <trkpt lat="40.129589" lon="-5.005666">
        <ele>393.611</ele>
        <time>2021-10-16T10:13:08Z</time>
      </trkpt>
      <trkpt lat="40.129297" lon="-5.005731">
        <ele>393.908</ele>
        <time>2021-10-16T10:13:09Z</time>
      </trkpt>
      <trkpt lat="40.129001" lon="-5.005795">
        <ele>395.499</ele>
        <time>2021-10-16T10:13:10Z</time>
      </trkpt>
      <trkpt lat="40.128420" lon="-5.005918">
        <ele>396.637</ele>
        <time>2021-10-16T10:13:12Z</time>
      </trkpt>
      <trkpt lat="40.128133" lon="-5.005978">
        <ele>397.156</ele>
        <time>2021-10-16T10:13:13Z</time>
      </trkpt>
      <trkpt lat="40.127848" lon="-5.006038">
        <ele>397.280</ele>
        <time>2021-10-16T10:13:14Z</time>
      </trkpt>
      <trkpt lat="40.127335" lon="-5.006188">
        <ele>398.695</ele>
        <time>2021-10-16T10:13:16Z</time>
      </trkpt>
      <trkpt lat="40.127105" lon="-5.006290">
        <ele>399.084</ele>
        <time>2021-10-16T10:13:17Z</time>
      </trkpt>
      <trkpt lat="40.126884" lon="-5.006402">
        <ele>399.466</ele>
        <time>2021-10-16T10:13:18Z</time>
      </trkpt>
      <trkpt lat="40.126663" lon="-5.006521">
        <ele>400.073</ele>
        <time>2021-10-16T10:13:19Z</time>
      </trkpt>
      <trkpt lat="40.126444" lon="-5.006636">
        <ele>399.978</ele>
        <time>2021-10-16T10:13:20Z</time>
      </trkpt>
      <trkpt lat="40.126007" lon="-5.006857">
        <ele>402.633</ele>
        <time>2021-10-16T10:13:22Z</time>
      </trkpt>
      <trkpt lat="40.125785" lon="-5.006971">
        <ele>404.626</ele>
        <time>2021-10-16T10:13:23Z</time>
      </trkpt>
      <trkpt lat="40.125342" lon="-5.007142">
        <ele>405.208</ele>
        <time>2021-10-16T10:13:25Z</time>
      </trkpt>
      <trkpt lat="40.125109" lon="-5.007179">
        <ele>406.455</ele>
        <time>2021-10-16T10:13:26Z</time>
      </trkpt>
      <trkpt lat="40.124659" lon="-5.007136">
        <ele>409.723</ele>
        <time>2021-10-16T10:13:28Z</time>
      </trkpt>
      <trkpt lat="40.124435" lon="-5.007090">
        <ele>411.122</ele>
        <time>2021-10-16T10:13:29Z</time>
      </trkpt>
      <trkpt lat="40.124218" lon="-5.007054">
        <ele>412.576</ele>
        <time>2021-10-16T10:13:30Z</time>
      </trkpt>
      <trkpt lat="40.123787" lon="-5.007022">
        <ele>413.441</ele>
        <time>2021-10-16T10:13:32Z</time>
      </trkpt>
      <trkpt lat="40.123379" lon="-5.007124">
        <ele>415.660</ele>
        <time>2021-10-16T10:13:34Z</time>
      </trkpt>
      <trkpt lat="40.122982" lon="-5.007354">
        <ele>416.952</ele>
        <time>2021-10-16T10:13:36Z</time>
      </trkpt>
      <trkpt lat="40.122785" lon="-5.007504">
        <ele>417.859</ele>
        <time>2021-10-16T10:13:37Z</time>
      </trkpt>
      <trkpt lat="40.122583" lon="-5.007668">
        <ele>419.134</ele>
        <time>2021-10-16T10:13:38Z</time>
      </trkpt>
      <trkpt lat="40.122151" lon="-5.008035">
        <ele>417.155</ele>
        <time>2021-10-16T10:13:40Z</time>
      </trkpt>
      <trkpt lat="40.121906" lon="-5.008204">
        <ele>416.010</ele>
        <time>2021-10-16T10:13:41Z</time>
      </trkpt>
      <trkpt lat="40.121392" lon="-5.008452">
        <ele>426.708</ele>
        <time>2021-10-16T10:13:43Z</time>
      </trkpt>
      <trkpt lat="40.121116" lon="-5.008567">
        <ele>428.881</ele>
        <time>2021-10-16T10:13:44Z</time>
      </trkpt>
      <trkpt lat="40.120580" lon="-5.008791">
        <ele>431.789</ele>
        <time>2021-10-16T10:13:46Z</time>
      </trkpt>
      <trkpt lat="40.120094" lon="-5.009000">
        <ele>433.778</ele>
        <time>2021-10-16T10:13:48Z</time>
      </trkpt>
      <trkpt lat="40.119630" lon="-5.009203">
        <ele>435.472</ele>
        <time>2021-10-16T10:13:50Z</time>
      </trkpt>
      <trkpt lat="40.119160" lon="-5.009422">
        <ele>436.587</ele>
        <time>2021-10-16T10:13:52Z</time>
      </trkpt>
      <trkpt lat="40.118697" lon="-5.009663">
        <ele>437.846</ele>
        <time>2021-10-16T10:13:54Z</time>
      </trkpt>
      <trkpt lat="40.118193" lon="-5.009950">
        <ele>440.528</ele>
        <time>2021-10-16T10:13:56Z</time>
      </trkpt>
      <trkpt lat="40.117645" lon="-5.010243">
        <ele>442.985</ele>
        <time>2021-10-16T10:13:58Z</time>
      </trkpt>
      <trkpt lat="40.117043" lon="-5.010501">
        <ele>446.048</ele>
        <time>2021-10-16T10:14:00Z</time>
      </trkpt>
      <trkpt lat="40.116443" lon="-5.010758">
        <ele>448.561</ele>
        <time>2021-10-16T10:14:02Z</time>
      </trkpt>
      <trkpt lat="40.115850" lon="-5.011013">
        <ele>452.917</ele>
        <time>2021-10-16T10:14:04Z</time>
      </trkpt>
      <trkpt lat="40.115263" lon="-5.011264">
        <ele>456.108</ele>
        <time>2021-10-16T10:14:06Z</time>
      </trkpt>
      <trkpt lat="40.114987" lon="-5.011381">
        <ele>459.172</ele>
        <time>2021-10-16T10:14:07Z</time>
      </trkpt>
      <trkpt lat="40.114724" lon="-5.011487">
        <ele>461.270</ele>
        <time>2021-10-16T10:14:08Z</time>
      </trkpt>
      <trkpt lat="40.114193" lon="-5.011707">
        <ele>465.199</ele>
        <time>2021-10-16T10:14:10Z</time>
      </trkpt>
      <trkpt lat="40.113937" lon="-5.011821">
        <ele>467.893</ele>
        <time>2021-10-16T10:14:11Z</time>
      </trkpt>
      <trkpt lat="40.113457" lon="-5.012034">
        <ele>471.138</ele>
        <time>2021-10-16T10:14:13Z</time>
      </trkpt>
      <trkpt lat="40.113239" lon="-5.012131">
        <ele>472.847</ele>
        <time>2021-10-16T10:14:14Z</time>
      </trkpt>
      <trkpt lat="40.112850" lon="-5.012310">
        <ele>476.669</ele>
        <time>2021-10-16T10:14:16Z</time>
      </trkpt>
      <trkpt lat="40.112471" lon="-5.012498">
        <ele>480.766</ele>
        <time>2021-10-16T10:14:18Z</time>
      </trkpt>
      <trkpt lat="40.112282" lon="-5.012589">
        <ele>482.136</ele>
        <time>2021-10-16T10:14:19Z</time>
      </trkpt>
      <trkpt lat="40.112090" lon="-5.012671">
        <ele>482.717</ele>
        <time>2021-10-16T10:14:20Z</time>
      </trkpt>
      <trkpt lat="40.111691" lon="-5.012853">
        <ele>483.818</ele>
        <time>2021-10-16T10:14:22Z</time>
      </trkpt>
      <trkpt lat="40.111485" lon="-5.012954">
        <ele>484.208</ele>
        <time>2021-10-16T10:14:23Z</time>
      </trkpt>
      <trkpt lat="40.111037" lon="-5.013113">
        <ele>482.671</ele>
        <time>2021-10-16T10:14:25Z</time>
      </trkpt>
      <trkpt lat="40.110774" lon="-5.013149">
        <ele>482.329</ele>
        <time>2021-10-16T10:14:26Z</time>
      </trkpt>
      <trkpt lat="40.110488" lon="-5.013155">
        <ele>481.998</ele>
        <time>2021-10-16T10:14:27Z</time>
      </trkpt>
      <trkpt lat="40.109855" lon="-5.013194">
        <ele>479.992</ele>
        <time>2021-10-16T10:14:29Z</time>
      </trkpt>
      <trkpt lat="40.109517" lon="-5.013238">
        <ele>477.937</ele>
        <time>2021-10-16T10:14:30Z</time>
      </trkpt>
      <trkpt lat="40.108868" lon="-5.013285">
        <ele>474.756</ele>
        <time>2021-10-16T10:14:32Z</time>
      </trkpt>
      <trkpt lat="40.108285" lon="-5.013324">
        <ele>471.418</ele>
        <time>2021-10-16T10:14:34Z</time>
      </trkpt>
      <trkpt lat="40.107995" lon="-5.013344">
        <ele>470.365</ele>
        <time>2021-10-16T10:14:35Z</time>
      </trkpt>
      <trkpt lat="40.107416" lon="-5.013380">
        <ele>469.489</ele>
        <time>2021-10-16T10:14:37Z</time>
      </trkpt>
      <trkpt lat="40.107124" lon="-5.013400">
        <ele>468.806</ele>
        <time>2021-10-16T10:14:38Z</time>
      </trkpt>
      <trkpt lat="40.106549" lon="-5.013486">
        <ele>466.826</ele>
        <time>2021-10-16T10:14:40Z</time>
      </trkpt>
      <trkpt lat="40.106269" lon="-5.013574">
        <ele>466.008</ele>
        <time>2021-10-16T10:14:41Z</time>
      </trkpt>
      <trkpt lat="40.105737" lon="-5.013805">
        <ele>462.876</ele>
        <time>2021-10-16T10:14:43Z</time>
      </trkpt>
      <trkpt lat="40.105473" lon="-5.013901">
        <ele>461.974</ele>
        <time>2021-10-16T10:14:44Z</time>
      </trkpt>
      <trkpt lat="40.104929" lon="-5.014000">
        <ele>459.993</ele>
        <time>2021-10-16T10:14:46Z</time>
      </trkpt>
      <trkpt lat="40.104648" lon="-5.014019">
        <ele>458.427</ele>
        <time>2021-10-16T10:14:47Z</time>
      </trkpt>
      <trkpt lat="40.104085" lon="-5.014057">
        <ele>457.162</ele>
        <time>2021-10-16T10:14:49Z</time>
      </trkpt>
      <trkpt lat="40.103802" lon="-5.014081">
        <ele>455.611</ele>
        <time>2021-10-16T10:14:50Z</time>
      </trkpt>
      <trkpt lat="40.103240" lon="-5.014123">
        <ele>454.143</ele>
        <time>2021-10-16T10:14:52Z</time>
      </trkpt>
      <trkpt lat="40.102677" lon="-5.014175">
        <ele>453.910</ele>
        <time>2021-10-16T10:14:54Z</time>
      </trkpt>
      <trkpt lat="40.102401" lon="-5.014207">
        <ele>452.831</ele>
        <time>2021-10-16T10:14:55Z</time>
      </trkpt>
      <trkpt lat="40.102124" lon="-5.014248">
        <ele>451.161</ele>
        <time>2021-10-16T10:14:56Z</time>
      </trkpt>
      <trkpt lat="40.101609" lon="-5.014419">
        <ele>448.707</ele>
        <time>2021-10-16T10:14:58Z</time>
      </trkpt>
      <trkpt lat="40.101363" lon="-5.014577">
        <ele>449.108</ele>
        <time>2021-10-16T10:14:59Z</time>
      </trkpt>
      <trkpt lat="40.101129" lon="-5.014782">
        <ele>448.531</ele>
        <time>2021-10-16T10:15:00Z</time>
      </trkpt>
      <trkpt lat="40.100894" lon="-5.014993">
        <ele>446.889</ele>
        <time>2021-10-16T10:15:01Z</time>
      </trkpt>
      <trkpt lat="40.100655" lon="-5.015201">
        <ele>446.338</ele>
        <time>2021-10-16T10:15:02Z</time>
      </trkpt>
      <trkpt lat="40.100139" lon="-5.015628">
        <ele>446.992</ele>
        <time>2021-10-16T10:15:04Z</time>
      </trkpt>
      <trkpt lat="40.099864" lon="-5.015848">
        <ele>446.087</ele>
        <time>2021-10-16T10:15:05Z</time>
      </trkpt>
      <trkpt lat="40.099586" lon="-5.016071">
        <ele>445.426</ele>
        <time>2021-10-16T10:15:06Z</time>
      </trkpt>
      <trkpt lat="40.099316" lon="-5.016289">
        <ele>445.328</ele>
        <time>2021-10-16T10:15:07Z</time>
      </trkpt>
      <trkpt lat="40.099050" lon="-5.016502">
        <ele>444.745</ele>
        <time>2021-10-16T10:15:08Z</time>
      </trkpt>
      <trkpt lat="40.098523" lon="-5.016881">
        <ele>445.349</ele>
        <time>2021-10-16T10:15:10Z</time>
      </trkpt>
      <trkpt lat="40.098244" lon="-5.017031">
        <ele>445.702</ele>
        <time>2021-10-16T10:15:11Z</time>
      </trkpt>
      <trkpt lat="40.097682" lon="-5.017277">
        <ele>444.522</ele>
        <time>2021-10-16T10:15:13Z</time>
      </trkpt>
      <trkpt lat="40.097400" lon="-5.017393">
        <ele>444.408</ele>
        <time>2021-10-16T10:15:14Z</time>
      </trkpt>
      <trkpt lat="40.096831" lon="-5.017556">
        <ele>444.672</ele>
        <time>2021-10-16T10:15:16Z</time>
      </trkpt>
      <trkpt lat="40.096255" lon="-5.017640">
        <ele>444.310</ele>
        <time>2021-10-16T10:15:18Z</time>
      </trkpt>
      <trkpt lat="40.095967" lon="-5.017680">
        <ele>443.239</ele>
        <time>2021-10-16T10:15:19Z</time>
      </trkpt>
      <trkpt lat="40.095682" lon="-5.017727">
        <ele>441.743</ele>
        <time>2021-10-16T10:15:20Z</time>
      </trkpt>
      <trkpt lat="40.095139" lon="-5.017803">
        <ele>439.818</ele>
        <time>2021-10-16T10:15:22Z</time>
      </trkpt>
      <trkpt lat="40.094630" lon="-5.017797">
        <ele>436.747</ele>
        <time>2021-10-16T10:15:24Z</time>
      </trkpt>
      <trkpt lat="40.094152" lon="-5.017679">
        <ele>433.189</ele>
        <time>2021-10-16T10:15:26Z</time>
      </trkpt>
      <trkpt lat="40.093702" lon="-5.017480">
        <ele>429.466</ele>
        <time>2021-10-16T10:15:28Z</time>
      </trkpt>
      <trkpt lat="40.093263" lon="-5.017276">
        <ele>427.892</ele>
        <time>2021-10-16T10:15:30Z</time>
      </trkpt>
      <trkpt lat="40.092849" lon="-5.017186">
        <ele>424.773</ele>
        <time>2021-10-16T10:15:32Z</time>
      </trkpt>
      <trkpt lat="40.092452" lon="-5.017298">
        <ele>422.020</ele>
        <time>2021-10-16T10:15:34Z</time>
      </trkpt>
      <trkpt lat="40.092246" lon="-5.017445">
        <ele>420.008</ele>
        <time>2021-10-16T10:15:35Z</time>
      </trkpt>
      <trkpt lat="40.092047" lon="-5.017642">
        <ele>417.877</ele>
        <time>2021-10-16T10:15:36Z</time>
      </trkpt>
      <trkpt lat="40.091655" lon="-5.018023">
        <ele>414.065</ele>
        <time>2021-10-16T10:15:38Z</time>
      </trkpt>
      <trkpt lat="40.091245" lon="-5.018199">
        <ele>411.094</ele>
        <time>2021-10-16T10:15:40Z</time>
      </trkpt>
      <trkpt lat="40.091021" lon="-5.018200">
        <ele>410.368</ele>
        <time>2021-10-16T10:15:41Z</time>
      </trkpt>
      <trkpt lat="40.090778" lon="-5.018143">
        <ele>408.543</ele>
        <time>2021-10-16T10:15:42Z</time>
      </trkpt>
      <trkpt lat="40.090524" lon="-5.018059">
        <ele>407.422</ele>
        <time>2021-10-16T10:15:43Z</time>
      </trkpt>
      <trkpt lat="40.089988" lon="-5.017906">
        <ele>404.524</ele>
        <time>2021-10-16T10:15:45Z</time>
      </trkpt>
      <trkpt lat="40.089718" lon="-5.017834">
        <ele>402.661</ele>
        <time>2021-10-16T10:15:46Z</time>
      </trkpt>
      <trkpt lat="40.089463" lon="-5.017770">
        <ele>400.931</ele>
        <time>2021-10-16T10:15:47Z</time>
      </trkpt>
      <trkpt lat="40.089220" lon="-5.017721">
        <ele>400.361</ele>
        <time>2021-10-16T10:15:48Z</time>
      </trkpt>
      <trkpt lat="40.088758" lon="-5.017766">
        <ele>399.807</ele>
        <time>2021-10-16T10:15:50Z</time>
      </trkpt>
      <trkpt lat="40.088302" lon="-5.017999">
        <ele>400.908</ele>
        <time>2021-10-16T10:15:52Z</time>
      </trkpt>
      <trkpt lat="40.088063" lon="-5.018122">
        <ele>400.951</ele>
        <time>2021-10-16T10:15:53Z</time>
      </trkpt>
      <trkpt lat="40.087816" lon="-5.018235">
        <ele>400.379</ele>
        <time>2021-10-16T10:15:54Z</time>
      </trkpt>
      <trkpt lat="40.087311" lon="-5.018372">
        <ele>400.758</ele>
        <time>2021-10-16T10:15:56Z</time>
      </trkpt>
      <trkpt lat="40.087051" lon="-5.018374">
        <ele>400.562</ele>
        <time>2021-10-16T10:15:57Z</time>
      </trkpt>
      <trkpt lat="40.086525" lon="-5.018317">
        <ele>399.087</ele>
        <time>2021-10-16T10:15:59Z</time>
      </trkpt>
      <trkpt lat="40.086269" lon="-5.018291">
        <ele>398.596</ele>
        <time>2021-10-16T10:16:00Z</time>
      </trkpt>
      <trkpt lat="40.085809" lon="-5.018225">
        <ele>395.668</ele>
        <time>2021-10-16T10:16:02Z</time>
      </trkpt>
      <trkpt lat="40.085427" lon="-5.018086">
        <ele>395.515</ele>
        <time>2021-10-16T10:16:04Z</time>
      </trkpt>
      <trkpt lat="40.085249" lon="-5.017965">
        <ele>395.441</ele>
        <time>2021-10-16T10:16:05Z</time>
      </trkpt>
      <trkpt lat="40.085084" lon="-5.017799">
        <ele>394.781</ele>
        <time>2021-10-16T10:16:06Z</time>
      </trkpt>
      <trkpt lat="40.084939" lon="-5.017583">
        <ele>393.709</ele>
        <time>2021-10-16T10:16:07Z</time>
      </trkpt>
      <trkpt lat="40.084811" lon="-5.017324">
        <ele>394.008</ele>
        <time>2021-10-16T10:16:08Z</time>
      </trkpt>
      <trkpt lat="40.084551" lon="-5.016709">
        <ele>390.852</ele>
        <time>2021-10-16T10:16:10Z</time>
      </trkpt>
      <trkpt lat="40.084405" lon="-5.016366">
        <ele>389.810</ele>
        <time>2021-10-16T10:16:11Z</time>
      </trkpt>
      <trkpt lat="40.084094" lon="-5.015662">
        <ele>386.559</ele>
        <time>2021-10-16T10:16:13Z</time>
      </trkpt>
      <trkpt lat="40.083946" lon="-5.015332">
        <ele>386.353</ele>
        <time>2021-10-16T10:16:14Z</time>
      </trkpt>
      <trkpt lat="40.083670" lon="-5.014728">
        <ele>384.958</ele>
        <time>2021-10-16T10:16:16Z</time>
      </trkpt>
      <trkpt lat="40.083394" lon="-5.014162">
        <ele>384.637</ele>
        <time>2021-10-16T10:16:18Z</time>
      </trkpt>
      <trkpt lat="40.083034" lon="-5.013681">
        <ele>383.969</ele>
        <time>2021-10-16T10:16:20Z</time>
      </trkpt>
      <trkpt lat="40.082816" lon="-5.013497">
        <ele>384.076</ele>
        <time>2021-10-16T10:16:21Z</time>
      </trkpt>
      <trkpt lat="40.082330" lon="-5.013176">
        <ele>382.892</ele>
        <time>2021-10-16T10:16:23Z</time>
      </trkpt>
      <trkpt lat="40.082076" lon="-5.013000">
        <ele>382.473</ele>
        <time>2021-10-16T10:16:24Z</time>
      </trkpt>
      <trkpt lat="40.081540" lon="-5.012625">
        <ele>379.620</ele>
        <time>2021-10-16T10:16:26Z</time>
      </trkpt>
      <trkpt lat="40.081025" lon="-5.012261">
        <ele>375.308</ele>
        <time>2021-10-16T10:16:28Z</time>
      </trkpt>
      <trkpt lat="40.080539" lon="-5.011891">
        <ele>371.867</ele>
        <time>2021-10-16T10:16:30Z</time>
      </trkpt>
      <trkpt lat="40.080131" lon="-5.011442">
        <ele>369.625</ele>
        <time>2021-10-16T10:16:32Z</time>
      </trkpt>
      <trkpt lat="40.079948" lon="-5.011154">
        <ele>368.894</ele>
        <time>2021-10-16T10:16:33Z</time>
      </trkpt>
      <trkpt lat="40.079776" lon="-5.010827">
        <ele>368.268</ele>
        <time>2021-10-16T10:16:34Z</time>
      </trkpt>
      <trkpt lat="40.079436" lon="-5.010138">
        <ele>366.833</ele>
        <time>2021-10-16T10:16:36Z</time>
      </trkpt>
      <trkpt lat="40.079259" lon="-5.009781">
        <ele>366.022</ele>
        <time>2021-10-16T10:16:37Z</time>
      </trkpt>
      <trkpt lat="40.079083" lon="-5.009430">
        <ele>365.454</ele>
        <time>2021-10-16T10:16:38Z</time>
      </trkpt>
      <trkpt lat="40.078724" lon="-5.008718">
        <ele>364.351</ele>
        <time>2021-10-16T10:16:40Z</time>
      </trkpt>
      <trkpt lat="40.078367" lon="-5.008003">
        <ele>362.596</ele>
        <time>2021-10-16T10:16:42Z</time>
      </trkpt>
      <trkpt lat="40.078048" lon="-5.007349">
        <ele>362.131</ele>
        <time>2021-10-16T10:16:44Z</time>
      </trkpt>
      <trkpt lat="40.077744" lon="-5.006748">
        <ele>360.624</ele>
        <time>2021-10-16T10:16:46Z</time>
      </trkpt>
      <trkpt lat="40.077451" lon="-5.006137">
        <ele>360.508</ele>
        <time>2021-10-16T10:16:48Z</time>
      </trkpt>
      <trkpt lat="40.077304" lon="-5.005838">
        <ele>360.737</ele>
        <time>2021-10-16T10:16:49Z</time>
      </trkpt>
      <trkpt lat="40.077158" lon="-5.005554">
        <ele>360.795</ele>
        <time>2021-10-16T10:16:50Z</time>
      </trkpt>
      <trkpt lat="40.076857" lon="-5.005073">
        <ele>359.414</ele>
        <time>2021-10-16T10:16:52Z</time>
      </trkpt>
      <trkpt lat="40.076695" lon="-5.004904">
        <ele>359.598</ele>
        <time>2021-10-16T10:16:53Z</time>
      </trkpt>
      <trkpt lat="40.076505" lon="-5.004780">
        <ele>360.513</ele>
        <time>2021-10-16T10:16:54Z</time>
      </trkpt>
      <trkpt lat="40.076282" lon="-5.004685">
        <ele>360.272</ele>
        <time>2021-10-16T10:16:55Z</time>
      </trkpt>
      <trkpt lat="40.076033" lon="-5.004602">
        <ele>358.984</ele>
        <time>2021-10-16T10:16:56Z</time>
      </trkpt>
      <trkpt lat="40.075564" lon="-5.004409">
        <ele>357.281</ele>
        <time>2021-10-16T10:16:58Z</time>
      </trkpt>
      <trkpt lat="40.075130" lon="-5.004196">
        <ele>354.755</ele>
        <time>2021-10-16T10:17:00Z</time>
      </trkpt>
      <trkpt lat="40.074748" lon="-5.003892">
        <ele>355.407</ele>
        <time>2021-10-16T10:17:02Z</time>
      </trkpt>
      <trkpt lat="40.074447" lon="-5.003418">
        <ele>356.317</ele>
        <time>2021-10-16T10:17:04Z</time>
      </trkpt>
      <trkpt lat="40.074315" lon="-5.003159">
        <ele>356.708</ele>
        <time>2021-10-16T10:17:05Z</time>
      </trkpt>
      <trkpt lat="40.074189" lon="-5.002927">
        <ele>357.623</ele>
        <time>2021-10-16T10:17:06Z</time>
      </trkpt>
      <trkpt lat="40.073900" lon="-5.002562">
        <ele>360.191</ele>
        <time>2021-10-16T10:17:08Z</time>
      </trkpt>
      <trkpt lat="40.073552" lon="-5.002374">
        <ele>360.430</ele>
        <time>2021-10-16T10:17:10Z</time>
      </trkpt>
      <trkpt lat="40.073361" lon="-5.002355">
        <ele>360.914</ele>
        <time>2021-10-16T10:17:11Z</time>
      </trkpt>
      <trkpt lat="40.072981" lon="-5.002451">
        <ele>362.259</ele>
        <time>2021-10-16T10:17:13Z</time>
      </trkpt>
      <trkpt lat="40.072793" lon="-5.002556">
        <ele>363.688</ele>
        <time>2021-10-16T10:17:14Z</time>
      </trkpt>
      <trkpt lat="40.072433" lon="-5.002787">
        <ele>364.830</ele>
        <time>2021-10-16T10:17:16Z</time>
      </trkpt>
      <trkpt lat="40.072084" lon="-5.002994">
        <ele>364.887</ele>
        <time>2021-10-16T10:17:18Z</time>
      </trkpt>
      <trkpt lat="40.071709" lon="-5.003126">
        <ele>365.192</ele>
        <time>2021-10-16T10:17:20Z</time>
      </trkpt>
      <trkpt lat="40.071278" lon="-5.003126">
        <ele>365.773</ele>
        <time>2021-10-16T10:17:22Z</time>
      </trkpt>
      <trkpt lat="40.071019" lon="-5.003046">
        <ele>367.620</ele>
        <time>2021-10-16T10:17:23Z</time>
      </trkpt>
      <trkpt lat="40.070448" lon="-5.002844">
        <ele>368.608</ele>
        <time>2021-10-16T10:17:25Z</time>
      </trkpt>
      <trkpt lat="40.070154" lon="-5.002758">
        <ele>369.467</ele>
        <time>2021-10-16T10:17:26Z</time>
      </trkpt>
      <trkpt lat="40.069603" lon="-5.002618">
        <ele>370.935</ele>
        <time>2021-10-16T10:17:28Z</time>
      </trkpt>
      <trkpt lat="40.069315" lon="-5.002558">
        <ele>371.744</ele>
        <time>2021-10-16T10:17:29Z</time>
      </trkpt>
      <trkpt lat="40.069026" lon="-5.002501">
        <ele>373.278</ele>
        <time>2021-10-16T10:17:30Z</time>
      </trkpt>
      <trkpt lat="40.068450" lon="-5.002360">
        <ele>375.893</ele>
        <time>2021-10-16T10:17:32Z</time>
      </trkpt>
      <trkpt lat="40.068169" lon="-5.002283">
        <ele>378.022</ele>
        <time>2021-10-16T10:17:33Z</time>
      </trkpt>
      <trkpt lat="40.067903" lon="-5.002212">
        <ele>379.254</ele>
        <time>2021-10-16T10:17:34Z</time>
      </trkpt>
      <trkpt lat="40.067425" lon="-5.002100">
        <ele>381.431</ele>
        <time>2021-10-16T10:17:36Z</time>
      </trkpt>
      <trkpt lat="40.066993" lon="-5.002091">
        <ele>383.633</ele>
        <time>2021-10-16T10:17:38Z</time>
      </trkpt>
      <trkpt lat="40.066592" lon="-5.002263">
        <ele>385.123</ele>
        <time>2021-10-16T10:17:40Z</time>
      </trkpt>
      <trkpt lat="40.066380" lon="-5.002401">
        <ele>385.215</ele>
        <time>2021-10-16T10:17:41Z</time>
      </trkpt>
      <trkpt lat="40.065915" lon="-5.002653">
        <ele>384.608</ele>
        <time>2021-10-16T10:17:43Z</time>
      </trkpt>
      <trkpt lat="40.065662" lon="-5.002785">
        <ele>385.611</ele>
        <time>2021-10-16T10:17:44Z</time>
      </trkpt>
      <trkpt lat="40.065174" lon="-5.003102">
        <ele>386.759</ele>
        <time>2021-10-16T10:17:46Z</time>
      </trkpt>
      <trkpt lat="40.064931" lon="-5.003290">
        <ele>387.558</ele>
        <time>2021-10-16T10:17:47Z</time>
      </trkpt>
      <trkpt lat="40.064715" lon="-5.003473">
        <ele>389.012</ele>
        <time>2021-10-16T10:17:48Z</time>
      </trkpt>
      <trkpt lat="40.064346" lon="-5.003759">
        <ele>391.887</ele>
        <time>2021-10-16T10:17:50Z</time>
      </trkpt>
      <trkpt lat="40.063964" lon="-5.003916">
        <ele>392.756</ele>
        <time>2021-10-16T10:17:52Z</time>
      </trkpt>
      <trkpt lat="40.063493" lon="-5.003856">
        <ele>392.078</ele>
        <time>2021-10-16T10:17:54Z</time>
      </trkpt>
      <trkpt lat="40.063225" lon="-5.003747">
        <ele>390.645</ele>
        <time>2021-10-16T10:17:55Z</time>
      </trkpt>
      <trkpt lat="40.062931" lon="-5.003608">
        <ele>388.583</ele>
        <time>2021-10-16T10:17:56Z</time>
      </trkpt>
      <trkpt lat="40.062341" lon="-5.003340">
        <ele>385.625</ele>
        <time>2021-10-16T10:17:58Z</time>
      </trkpt>
      <trkpt lat="40.062037" lon="-5.003207">
        <ele>384.017</ele>
        <time>2021-10-16T10:17:59Z</time>
      </trkpt>
      <trkpt lat="40.061726" lon="-5.003081">
        <ele>381.608</ele>
        <time>2021-10-16T10:18:00Z</time>
      </trkpt>
      <trkpt lat="40.061421" lon="-5.002959">
        <ele>379.966</ele>
        <time>2021-10-16T10:18:01Z</time>
      </trkpt>
      <trkpt lat="40.061129" lon="-5.002841">
        <ele>378.664</ele>
        <time>2021-10-16T10:18:02Z</time>
      </trkpt>
      <trkpt lat="40.060583" lon="-5.002613">
        <ele>375.073</ele>
        <time>2021-10-16T10:18:04Z</time>
      </trkpt>
      <trkpt lat="40.060309" lon="-5.002501">
        <ele>372.527</ele>
        <time>2021-10-16T10:18:05Z</time>
      </trkpt>
      <trkpt lat="40.059754" lon="-5.002272">
        <ele>368.912</ele>
        <time>2021-10-16T10:18:07Z</time>
      </trkpt>
      <trkpt lat="40.059470" lon="-5.002156">
        <ele>367.261</ele>
        <time>2021-10-16T10:18:08Z</time>
      </trkpt>
      <trkpt lat="40.058944" lon="-5.001950">
        <ele>364.273</ele>
        <time>2021-10-16T10:18:10Z</time>
      </trkpt>
      <trkpt lat="40.058689" lon="-5.001850">
        <ele>362.320</ele>
        <time>2021-10-16T10:18:11Z</time>
      </trkpt>
      <trkpt lat="40.058174" lon="-5.001666">
        <ele>359.069</ele>
        <time>2021-10-16T10:18:13Z</time>
      </trkpt>
      <trkpt lat="40.057909" lon="-5.001620">
        <ele>357.704</ele>
        <time>2021-10-16T10:18:14Z</time>
      </trkpt>
      <trkpt lat="40.057374" lon="-5.001663">
        <ele>355.324</ele>
        <time>2021-10-16T10:18:16Z</time>
      </trkpt>
      <trkpt lat="40.057093" lon="-5.001716">
        <ele>355.108</ele>
        <time>2021-10-16T10:18:17Z</time>
      </trkpt>
      <trkpt lat="40.056799" lon="-5.001764">
        <ele>354.164</ele>
        <time>2021-10-16T10:18:18Z</time>
      </trkpt>
      <trkpt lat="40.056498" lon="-5.001808">
        <ele>353.732</ele>
        <time>2021-10-16T10:18:19Z</time>
      </trkpt>
      <trkpt lat="40.056188" lon="-5.001857">
        <ele>352.461</ele>
        <time>2021-10-16T10:18:20Z</time>
      </trkpt>
      <trkpt lat="40.055579" lon="-5.001952">
        <ele>350.935</ele>
        <time>2021-10-16T10:18:22Z</time>
      </trkpt>
      <trkpt lat="40.055024" lon="-5.002046">
        <ele>350.430</ele>
        <time>2021-10-16T10:18:24Z</time>
      </trkpt>
      <trkpt lat="40.054747" lon="-5.002087">
        <ele>349.889</ele>
        <time>2021-10-16T10:18:25Z</time>
      </trkpt>
      <trkpt lat="40.054187" lon="-5.002171">
        <ele>348.711</ele>
        <time>2021-10-16T10:18:27Z</time>
      </trkpt>
      <trkpt lat="40.053912" lon="-5.002211">
        <ele>347.428</ele>
        <time>2021-10-16T10:18:28Z</time>
      </trkpt>
      <trkpt lat="40.053395" lon="-5.002287">
        <ele>346.097</ele>
        <time>2021-10-16T10:18:30Z</time>
      </trkpt>
      <trkpt lat="40.052925" lon="-5.002314">
        <ele>344.823</ele>
        <time>2021-10-16T10:18:32Z</time>
      </trkpt>
      <trkpt lat="40.052693" lon="-5.002278">
        <ele>344.125</ele>
        <time>2021-10-16T10:18:33Z</time>
      </trkpt>
      <trkpt lat="40.052225" lon="-5.002035">
        <ele>344.008</ele>
        <time>2021-10-16T10:18:35Z</time>
      </trkpt>
      <trkpt lat="40.051735" lon="-5.001593">
        <ele>341.867</ele>
        <time>2021-10-16T10:18:37Z</time>
      </trkpt>
      <trkpt lat="40.051471" lon="-5.001362">
        <ele>341.225</ele>
        <time>2021-10-16T10:18:38Z</time>
      </trkpt>
      <trkpt lat="40.050959" lon="-5.000934">
        <ele>338.584</ele>
        <time>2021-10-16T10:18:40Z</time>
      </trkpt>
      <trkpt lat="40.050703" lon="-5.000725">
        <ele>337.698</ele>
        <time>2021-10-16T10:18:41Z</time>
      </trkpt>
      <trkpt lat="40.050183" lon="-5.000301">
        <ele>336.753</ele>
        <time>2021-10-16T10:18:43Z</time>
      </trkpt>
      <trkpt lat="40.049921" lon="-5.000082">
        <ele>336.772</ele>
        <time>2021-10-16T10:18:44Z</time>
      </trkpt>
      <trkpt lat="40.049405" lon="-4.999651">
        <ele>335.524</ele>
        <time>2021-10-16T10:18:46Z</time>
      </trkpt>
      <trkpt lat="40.049147" lon="-4.999440">
        <ele>335.921</ele>
        <time>2021-10-16T10:18:47Z</time>
      </trkpt>
      <trkpt lat="40.048617" lon="-4.999081">
        <ele>335.655</ele>
        <time>2021-10-16T10:18:49Z</time>
      </trkpt>
      <trkpt lat="40.048338" lon="-4.998920">
        <ele>336.507</ele>
        <time>2021-10-16T10:18:50Z</time>
      </trkpt>
      <trkpt lat="40.047780" lon="-4.998608">
        <ele>336.417</ele>
        <time>2021-10-16T10:18:52Z</time>
      </trkpt>
      <trkpt lat="40.047209" lon="-4.998288">
        <ele>335.008</ele>
        <time>2021-10-16T10:18:54Z</time>
      </trkpt>
      <trkpt lat="40.046625" lon="-4.997958">
        <ele>336.113</ele>
        <time>2021-10-16T10:18:56Z</time>
      </trkpt>
      <trkpt lat="40.046067" lon="-4.997641">
        <ele>335.551</ele>
        <time>2021-10-16T10:18:58Z</time>
      </trkpt>
      <trkpt lat="40.045507" lon="-4.997323">
        <ele>335.260</ele>
        <time>2021-10-16T10:19:00Z</time>
      </trkpt>
      <trkpt lat="40.044955" lon="-4.997010">
        <ele>337.414</ele>
        <time>2021-10-16T10:19:02Z</time>
      </trkpt>
      <trkpt lat="40.044427" lon="-4.996713">
        <ele>338.849</ele>
        <time>2021-10-16T10:19:04Z</time>
      </trkpt>
      <trkpt lat="40.044179" lon="-4.996575">
        <ele>339.038</ele>
        <time>2021-10-16T10:19:05Z</time>
      </trkpt>
      <trkpt lat="40.043929" lon="-4.996442">
        <ele>340.490</ele>
        <time>2021-10-16T10:19:06Z</time>
      </trkpt>
      <trkpt lat="40.043416" lon="-4.996179">
        <ele>341.347</ele>
        <time>2021-10-16T10:19:08Z</time>
      </trkpt>
      <trkpt lat="40.042891" lon="-4.995899">
        <ele>342.293</ele>
        <time>2021-10-16T10:19:10Z</time>
      </trkpt>
      <trkpt lat="40.042333" lon="-4.995616">
        <ele>342.665</ele>
        <time>2021-10-16T10:19:12Z</time>
      </trkpt>
      <trkpt lat="40.041776" lon="-4.995331">
        <ele>343.221</ele>
        <time>2021-10-16T10:19:14Z</time>
      </trkpt>
      <trkpt lat="40.041262" lon="-4.995067">
        <ele>343.208</ele>
        <time>2021-10-16T10:19:16Z</time>
      </trkpt>
      <trkpt lat="40.041007" lon="-4.994931">
        <ele>343.177</ele>
        <time>2021-10-16T10:19:17Z</time>
      </trkpt>
      <trkpt lat="40.040506" lon="-4.994673">
        <ele>344.085</ele>
        <time>2021-10-16T10:19:19Z</time>
      </trkpt>
      <trkpt lat="40.040263" lon="-4.994545">
        <ele>344.164</ele>
        <time>2021-10-16T10:19:20Z</time>
      </trkpt>
      <trkpt lat="40.039807" lon="-4.994301">
        <ele>345.558</ele>
        <time>2021-10-16T10:19:22Z</time>
      </trkpt>
      <trkpt lat="40.039576" lon="-4.994178">
        <ele>345.143</ele>
        <time>2021-10-16T10:19:23Z</time>
      </trkpt>
      <trkpt lat="40.039117" lon="-4.993930">
        <ele>346.642</ele>
        <time>2021-10-16T10:19:25Z</time>
      </trkpt>
      <trkpt lat="40.038880" lon="-4.993805">
        <ele>346.944</ele>
        <time>2021-10-16T10:19:26Z</time>
      </trkpt>
      <trkpt lat="40.038424" lon="-4.993565">
        <ele>347.071</ele>
        <time>2021-10-16T10:19:28Z</time>
      </trkpt>
      <trkpt lat="40.037959" lon="-4.993315">
        <ele>346.633</ele>
        <time>2021-10-16T10:19:30Z</time>
      </trkpt>
      <trkpt lat="40.037724" lon="-4.993191">
        <ele>346.623</ele>
        <time>2021-10-16T10:19:31Z</time>
      </trkpt>
      <trkpt lat="40.037258" lon="-4.992949">
        <ele>347.315</ele>
        <time>2021-10-16T10:19:33Z</time>
      </trkpt>
      <trkpt lat="40.037021" lon="-4.992826">
        <ele>347.508</ele>
        <time>2021-10-16T10:19:34Z</time>
      </trkpt>
      <trkpt lat="40.036546" lon="-4.992576">
        <ele>347.811</ele>
        <time>2021-10-16T10:19:36Z</time>
      </trkpt>
      <trkpt lat="40.036064" lon="-4.992327">
        <ele>347.969</ele>
        <time>2021-10-16T10:19:38Z</time>
      </trkpt>
      <trkpt lat="40.035568" lon="-4.992071">
        <ele>349.398</ele>
        <time>2021-10-16T10:19:40Z</time>
      </trkpt>
      <trkpt lat="40.035063" lon="-4.991801">
        <ele>349.652</ele>
        <time>2021-10-16T10:19:42Z</time>
      </trkpt>
      <trkpt lat="40.034596" lon="-4.991564">
        <ele>349.777</ele>
        <time>2021-10-16T10:19:44Z</time>
      </trkpt>
      <trkpt lat="40.034165" lon="-4.991341">
        <ele>350.746</ele>
        <time>2021-10-16T10:19:46Z</time>
      </trkpt>
      <trkpt lat="40.033945" lon="-4.991227">
        <ele>352.138</ele>
        <time>2021-10-16T10:19:47Z</time>
      </trkpt>
      <trkpt lat="40.033493" lon="-4.990994">
        <ele>352.765</ele>
        <time>2021-10-16T10:19:49Z</time>
      </trkpt>
      <trkpt lat="40.033259" lon="-4.990873">
        <ele>352.731</ele>
        <time>2021-10-16T10:19:50Z</time>
      </trkpt>
      <trkpt lat="40.032786" lon="-4.990626">
        <ele>352.361</ele>
        <time>2021-10-16T10:19:52Z</time>
      </trkpt>
      <trkpt lat="40.032539" lon="-4.990496">
        <ele>351.907</ele>
        <time>2021-10-16T10:19:53Z</time>
      </trkpt>
      <trkpt lat="40.032040" lon="-4.990234">
        <ele>351.608</ele>
        <time>2021-10-16T10:19:55Z</time>
      </trkpt>
      <trkpt lat="40.031783" lon="-4.990100">
        <ele>351.321</ele>
        <time>2021-10-16T10:19:56Z</time>
      </trkpt>
      <trkpt lat="40.031294" lon="-4.989847">
        <ele>350.429</ele>
        <time>2021-10-16T10:19:58Z</time>
      </trkpt>
      <trkpt lat="40.030798" lon="-4.989584">
        <ele>351.928</ele>
        <time>2021-10-16T10:20:00Z</time>
      </trkpt>
      <trkpt lat="40.030550" lon="-4.989456">
        <ele>352.532</ele>
        <time>2021-10-16T10:20:01Z</time>
      </trkpt>
      <trkpt lat="40.030308" lon="-4.989331">
        <ele>353.147</ele>
        <time>2021-10-16T10:20:02Z</time>
      </trkpt>
      <trkpt lat="40.030069" lon="-4.989208">
        <ele>354.246</ele>
        <time>2021-10-16T10:20:03Z</time>
      </trkpt>
      <trkpt lat="40.029830" lon="-4.989085">
        <ele>354.238</ele>
        <time>2021-10-16T10:20:04Z</time>
      </trkpt>
      <trkpt lat="40.029352" lon="-4.988836">
        <ele>355.715</ele>
        <time>2021-10-16T10:20:06Z</time>
      </trkpt>
      <trkpt lat="40.028867" lon="-4.988582">
        <ele>355.769</ele>
        <time>2021-10-16T10:20:08Z</time>
      </trkpt>
      <trkpt lat="40.028386" lon="-4.988333">
        <ele>356.404</ele>
        <time>2021-10-16T10:20:10Z</time>
      </trkpt>
      <trkpt lat="40.028141" lon="-4.988206">
        <ele>357.024</ele>
        <time>2021-10-16T10:20:11Z</time>
      </trkpt>
      <trkpt lat="40.027897" lon="-4.988079">
        <ele>357.008</ele>
        <time>2021-10-16T10:20:12Z</time>
      </trkpt>
      <trkpt lat="40.027661" lon="-4.987956">
        <ele>356.314</ele>
        <time>2021-10-16T10:20:13Z</time>
      </trkpt>
      <trkpt lat="40.027426" lon="-4.987833">
        <ele>356.292</ele>
        <time>2021-10-16T10:20:14Z</time>
      </trkpt>
      <trkpt lat="40.026968" lon="-4.987597">
        <ele>357.161</ele>
        <time>2021-10-16T10:20:16Z</time>
      </trkpt>
      <trkpt lat="40.026506" lon="-4.987358">
        <ele>357.665</ele>
        <time>2021-10-16T10:20:18Z</time>
      </trkpt>
      <trkpt lat="40.026034" lon="-4.987111">
        <ele>358.940</ele>
        <time>2021-10-16T10:20:20Z</time>
      </trkpt>
      <trkpt lat="40.025573" lon="-4.986874">
        <ele>360.449</ele>
        <time>2021-10-16T10:20:22Z</time>
      </trkpt>
      <trkpt lat="40.025346" lon="-4.986757">
        <ele>360.671</ele>
        <time>2021-10-16T10:20:23Z</time>
      </trkpt>
      <trkpt lat="40.024898" lon="-4.986521">
        <ele>361.568</ele>
        <time>2021-10-16T10:20:25Z</time>
      </trkpt>
      <trkpt lat="40.024663" lon="-4.986400">
        <ele>361.269</ele>
        <time>2021-10-16T10:20:26Z</time>
      </trkpt>
      <trkpt lat="40.024204" lon="-4.986164">
        <ele>361.104</ele>
        <time>2021-10-16T10:20:28Z</time>
      </trkpt>
      <trkpt lat="40.023957" lon="-4.986036">
        <ele>361.724</ele>
        <time>2021-10-16T10:20:29Z</time>
      </trkpt>
      <trkpt lat="40.023432" lon="-4.985764">
        <ele>362.708</ele>
        <time>2021-10-16T10:20:31Z</time>
      </trkpt>
      <trkpt lat="40.023152" lon="-4.985618">
        <ele>363.714</ele>
        <time>2021-10-16T10:20:32Z</time>
      </trkpt>
      <trkpt lat="40.022884" lon="-4.985479">
        <ele>364.562</ele>
        <time>2021-10-16T10:20:33Z</time>
      </trkpt>
      <trkpt lat="40.022629" lon="-4.985347">
        <ele>364.591</ele>
        <time>2021-10-16T10:20:34Z</time>
      </trkpt>
      <trkpt lat="40.022120" lon="-4.985082">
        <ele>364.735</ele>
        <time>2021-10-16T10:20:36Z</time>
      </trkpt>
      <trkpt lat="40.021607" lon="-4.984819">
        <ele>366.850</ele>
        <time>2021-10-16T10:20:38Z</time>
      </trkpt>
      <trkpt lat="40.021125" lon="-4.984572">
        <ele>367.999</ele>
        <time>2021-10-16T10:20:40Z</time>
      </trkpt>
      <trkpt lat="40.020885" lon="-4.984449">
        <ele>367.771</ele>
        <time>2021-10-16T10:20:41Z</time>
      </trkpt>
      <trkpt lat="40.020405" lon="-4.984200">
        <ele>366.868</ele>
        <time>2021-10-16T10:20:43Z</time>
      </trkpt>
      <trkpt lat="40.020158" lon="-4.984072">
        <ele>366.377</ele>
        <time>2021-10-16T10:20:44Z</time>
      </trkpt>
      <trkpt lat="40.019661" lon="-4.983815">
        <ele>366.161</ele>
        <time>2021-10-16T10:20:46Z</time>
      </trkpt>
      <trkpt lat="40.019408" lon="-4.983684">
        <ele>366.727</ele>
        <time>2021-10-16T10:20:47Z</time>
      </trkpt>
      <trkpt lat="40.019153" lon="-4.983551">
        <ele>366.608</ele>
        <time>2021-10-16T10:20:48Z</time>
      </trkpt>
      <trkpt lat="40.018642" lon="-4.983287">
        <ele>367.425</ele>
        <time>2021-10-16T10:20:50Z</time>
      </trkpt>
      <trkpt lat="40.018135" lon="-4.983025">
        <ele>367.433</ele>
        <time>2021-10-16T10:20:52Z</time>
      </trkpt>
      <trkpt lat="40.017626" lon="-4.982763">
        <ele>367.532</ele>
        <time>2021-10-16T10:20:54Z</time>
      </trkpt>
      <trkpt lat="40.017374" lon="-4.982632">
        <ele>368.276</ele>
        <time>2021-10-16T10:20:55Z</time>
      </trkpt>
      <trkpt lat="40.017117" lon="-4.982498">
        <ele>368.411</ele>
        <time>2021-10-16T10:20:56Z</time>
      </trkpt>
      <trkpt lat="40.016635" lon="-4.982247">
        <ele>369.180</ele>
        <time>2021-10-16T10:20:58Z</time>
      </trkpt>
      <trkpt lat="40.016388" lon="-4.982119">
        <ele>368.982</ele>
        <time>2021-10-16T10:20:59Z</time>
      </trkpt>
      <trkpt lat="40.016141" lon="-4.981990">
        <ele>368.839</ele>
        <time>2021-10-16T10:21:00Z</time>
      </trkpt>
      <trkpt lat="40.015650" lon="-4.981730">
        <ele>370.043</ele>
        <time>2021-10-16T10:21:02Z</time>
      </trkpt>
      <trkpt lat="40.015155" lon="-4.981476">
        <ele>370.664</ele>
        <time>2021-10-16T10:21:04Z</time>
      </trkpt>
      <trkpt lat="40.014658" lon="-4.981221">
        <ele>370.010</ele>
        <time>2021-10-16T10:21:06Z</time>
      </trkpt>
      <trkpt lat="40.014403" lon="-4.981089">
        <ele>370.608</ele>
        <time>2021-10-16T10:21:07Z</time>
      </trkpt>
      <trkpt lat="40.014147" lon="-4.980956">
        <ele>370.852</ele>
        <time>2021-10-16T10:21:08Z</time>
      </trkpt>
      <trkpt lat="40.013636" lon="-4.980688">
        <ele>370.740</ele>
        <time>2021-10-16T10:21:10Z</time>
      </trkpt>
      <trkpt lat="40.013115" lon="-4.980415">
        <ele>371.629</ele>
        <time>2021-10-16T10:21:12Z</time>
      </trkpt>
      <trkpt lat="40.012852" lon="-4.980280">
        <ele>372.393</ele>
        <time>2021-10-16T10:21:13Z</time>
      </trkpt>
      <trkpt lat="40.012585" lon="-4.980143">
        <ele>372.498</ele>
        <time>2021-10-16T10:21:14Z</time>
      </trkpt>
      <trkpt lat="40.012083" lon="-4.979887">
        <ele>372.847</ele>
        <time>2021-10-16T10:21:16Z</time>
      </trkpt>
      <trkpt lat="40.011600" lon="-4.979637">
        <ele>373.229</ele>
        <time>2021-10-16T10:21:18Z</time>
      </trkpt>
      <trkpt lat="40.011357" lon="-4.979506">
        <ele>371.826</ele>
        <time>2021-10-16T10:21:19Z</time>
      </trkpt>
      <trkpt lat="40.011113" lon="-4.979377">
        <ele>372.241</ele>
        <time>2021-10-16T10:21:20Z</time>
      </trkpt>
      <trkpt lat="40.010624" lon="-4.979126">
        <ele>373.281</ele>
        <time>2021-10-16T10:21:22Z</time>
      </trkpt>
      <trkpt lat="40.010372" lon="-4.978997">
        <ele>373.209</ele>
        <time>2021-10-16T10:21:23Z</time>
      </trkpt>
      <trkpt lat="40.009858" lon="-4.978736">
        <ele>373.708</ele>
        <time>2021-10-16T10:21:25Z</time>
      </trkpt>
      <trkpt lat="40.009341" lon="-4.978472">
        <ele>373.552</ele>
        <time>2021-10-16T10:21:27Z</time>
      </trkpt>
      <trkpt lat="40.008836" lon="-4.978210">
        <ele>373.580</ele>
        <time>2021-10-16T10:21:29Z</time>
      </trkpt>
      <trkpt lat="40.008352" lon="-4.977963">
        <ele>373.639</ele>
        <time>2021-10-16T10:21:31Z</time>
      </trkpt>
      <trkpt lat="40.007884" lon="-4.977723">
        <ele>373.913</ele>
        <time>2021-10-16T10:21:33Z</time>
      </trkpt>
      <trkpt lat="40.007420" lon="-4.977485">
        <ele>375.568</ele>
        <time>2021-10-16T10:21:35Z</time>
      </trkpt>
      <trkpt lat="40.007186" lon="-4.977364">
        <ele>374.997</ele>
        <time>2021-10-16T10:21:36Z</time>
      </trkpt>
      <trkpt lat="40.006713" lon="-4.977115">
        <ele>374.339</ele>
        <time>2021-10-16T10:21:38Z</time>
      </trkpt>
      <trkpt lat="40.006239" lon="-4.976872">
        <ele>376.366</ele>
        <time>2021-10-16T10:21:40Z</time>
      </trkpt>
      <trkpt lat="40.005996" lon="-4.976747">
        <ele>376.246</ele>
        <time>2021-10-16T10:21:41Z</time>
      </trkpt>
      <trkpt lat="40.005493" lon="-4.976490">
        <ele>376.488</ele>
        <time>2021-10-16T10:21:43Z</time>
      </trkpt>
      <trkpt lat="40.005232" lon="-4.976356">
        <ele>375.916</ele>
        <time>2021-10-16T10:21:44Z</time>
      </trkpt>
      <trkpt lat="40.004712" lon="-4.976087">
        <ele>376.208</ele>
        <time>2021-10-16T10:21:46Z</time>
      </trkpt>
      <trkpt lat="40.004448" lon="-4.975950">
        <ele>376.712</ele>
        <time>2021-10-16T10:21:47Z</time>
      </trkpt>
      <trkpt lat="40.004190" lon="-4.975816">
        <ele>377.640</ele>
        <time>2021-10-16T10:21:48Z</time>
      </trkpt>
      <trkpt lat="40.003934" lon="-4.975683">
        <ele>377.859</ele>
        <time>2021-10-16T10:21:49Z</time>
      </trkpt>
      <trkpt lat="40.003677" lon="-4.975549">
        <ele>377.793</ele>
        <time>2021-10-16T10:21:50Z</time>
      </trkpt>
      <trkpt lat="40.003173" lon="-4.975288">
        <ele>378.068</ele>
        <time>2021-10-16T10:21:52Z</time>
      </trkpt>
      <trkpt lat="40.002914" lon="-4.975154">
        <ele>378.427</ele>
        <time>2021-10-16T10:21:53Z</time>
      </trkpt>
      <trkpt lat="40.002405" lon="-4.974897">
        <ele>378.439</ele>
        <time>2021-10-16T10:21:55Z</time>
      </trkpt>
      <trkpt lat="40.002150" lon="-4.974763">
        <ele>379.316</ele>
        <time>2021-10-16T10:21:56Z</time>
      </trkpt>
      <trkpt lat="40.001646" lon="-4.974496">
        <ele>380.217</ele>
        <time>2021-10-16T10:21:58Z</time>
      </trkpt>
      <trkpt lat="40.001398" lon="-4.974369">
        <ele>379.987</ele>
        <time>2021-10-16T10:21:59Z</time>
      </trkpt>
      <trkpt lat="40.000937" lon="-4.974134">
        <ele>380.815</ele>
        <time>2021-10-16T10:22:01Z</time>
      </trkpt>
      <trkpt lat="40.000708" lon="-4.974017">
        <ele>381.308</ele>
        <time>2021-10-16T10:22:02Z</time>
      </trkpt>
      <trkpt lat="40.000236" lon="-4.973775">
        <ele>381.599</ele>
        <time>2021-10-16T10:22:04Z</time>
      </trkpt>
      <trkpt lat="39.999744" lon="-4.973523">
        <ele>383.277</ele>
        <time>2021-10-16T10:22:06Z</time>
      </trkpt>
      <trkpt lat="39.999228" lon="-4.973253">
        <ele>382.446</ele>
        <time>2021-10-16T10:22:08Z</time>
      </trkpt>
      <trkpt lat="39.998704" lon="-4.972982">
        <ele>383.570</ele>
        <time>2021-10-16T10:22:10Z</time>
      </trkpt>
      <trkpt lat="39.998435" lon="-4.972845">
        <ele>382.925</ele>
        <time>2021-10-16T10:22:11Z</time>
      </trkpt>
      <trkpt lat="39.998165" lon="-4.972707">
        <ele>382.844</ele>
        <time>2021-10-16T10:22:12Z</time>
      </trkpt>
      <trkpt lat="39.997630" lon="-4.972433">
        <ele>384.316</ele>
        <time>2021-10-16T10:22:14Z</time>
      </trkpt>
      <trkpt lat="39.997119" lon="-4.972172">
        <ele>384.963</ele>
        <time>2021-10-16T10:22:16Z</time>
      </trkpt>
      <trkpt lat="39.996626" lon="-4.971922">
        <ele>386.332</ele>
        <time>2021-10-16T10:22:18Z</time>
      </trkpt>
      <trkpt lat="39.996381" lon="-4.971797">
        <ele>386.192</ele>
        <time>2021-10-16T10:22:19Z</time>
      </trkpt>
      <trkpt lat="39.996138" lon="-4.971673">
        <ele>386.711</ele>
        <time>2021-10-16T10:22:20Z</time>
      </trkpt>
      <trkpt lat="39.995672" lon="-4.971432">
        <ele>389.908</ele>
        <time>2021-10-16T10:22:22Z</time>
      </trkpt>
      <trkpt lat="39.995439" lon="-4.971312">
        <ele>390.321</ele>
        <time>2021-10-16T10:22:23Z</time>
      </trkpt>
      <trkpt lat="39.994985" lon="-4.971078">
        <ele>392.549</ele>
        <time>2021-10-16T10:22:25Z</time>
      </trkpt>
      <trkpt lat="39.994754" lon="-4.970961">
        <ele>394.568</ele>
        <time>2021-10-16T10:22:26Z</time>
      </trkpt>
      <trkpt lat="39.994309" lon="-4.970736">
        <ele>396.052</ele>
        <time>2021-10-16T10:22:28Z</time>
      </trkpt>
      <trkpt lat="39.994078" lon="-4.970616">
        <ele>397.247</ele>
        <time>2021-10-16T10:22:29Z</time>
      </trkpt>
      <trkpt lat="39.993612" lon="-4.970372">
        <ele>400.536</ele>
        <time>2021-10-16T10:22:31Z</time>
      </trkpt>
      <trkpt lat="39.993372" lon="-4.970246">
        <ele>401.268</ele>
        <time>2021-10-16T10:22:32Z</time>
      </trkpt>
      <trkpt lat="39.992918" lon="-4.970009">
        <ele>402.335</ele>
        <time>2021-10-16T10:22:34Z</time>
      </trkpt>
      <trkpt lat="39.992459" lon="-4.969771">
        <ele>404.788</ele>
        <time>2021-10-16T10:22:36Z</time>
      </trkpt>
      <trkpt lat="39.992012" lon="-4.969541">
        <ele>407.624</ele>
        <time>2021-10-16T10:22:38Z</time>
      </trkpt>
      <trkpt lat="39.991574" lon="-4.969324">
        <ele>409.226</ele>
        <time>2021-10-16T10:22:40Z</time>
      </trkpt>
      <trkpt lat="39.991355" lon="-4.969227">
        <ele>410.108</ele>
        <time>2021-10-16T10:22:41Z</time>
      </trkpt>
      <trkpt lat="39.990892" lon="-4.969076">
        <ele>413.156</ele>
        <time>2021-10-16T10:22:43Z</time>
      </trkpt>
      <trkpt lat="39.990642" lon="-4.969019">
        <ele>415.434</ele>
        <time>2021-10-16T10:22:44Z</time>
      </trkpt>
      <trkpt lat="39.990130" lon="-4.968904">
        <ele>418.373</ele>
        <time>2021-10-16T10:22:46Z</time>
      </trkpt>
      <trkpt lat="39.989646" lon="-4.968785">
        <ele>420.977</ele>
        <time>2021-10-16T10:22:48Z</time>
      </trkpt>
      <trkpt lat="39.989422" lon="-4.968717">
        <ele>421.762</ele>
        <time>2021-10-16T10:22:49Z</time>
      </trkpt>
      <trkpt lat="39.989207" lon="-4.968621">
        <ele>421.831</ele>
        <time>2021-10-16T10:22:50Z</time>
      </trkpt>
      <trkpt lat="39.988807" lon="-4.968381">
        <ele>422.863</ele>
        <time>2021-10-16T10:22:52Z</time>
      </trkpt>
      <trkpt lat="39.988424" lon="-4.968182">
        <ele>423.140</ele>
        <time>2021-10-16T10:22:54Z</time>
      </trkpt>
      <trkpt lat="39.988221" lon="-4.968111">
        <ele>421.891</ele>
        <time>2021-10-16T10:22:55Z</time>
      </trkpt>
      <trkpt lat="39.988001" lon="-4.968070">
        <ele>421.681</ele>
        <time>2021-10-16T10:22:56Z</time>
      </trkpt>
      <trkpt lat="39.987532" lon="-4.968052">
        <ele>420.319</ele>
        <time>2021-10-16T10:22:58Z</time>
      </trkpt>
      <trkpt lat="39.987024" lon="-4.968031">
        <ele>416.608</ele>
        <time>2021-10-16T10:23:00Z</time>
      </trkpt>
      <trkpt lat="39.986760" lon="-4.968012">
        <ele>416.757</ele>
        <time>2021-10-16T10:23:01Z</time>
      </trkpt>
      <trkpt lat="39.986494" lon="-4.967998">
        <ele>415.265</ele>
        <time>2021-10-16T10:23:02Z</time>
      </trkpt>
      <trkpt lat="39.985964" lon="-4.967969">
        <ele>412.334</ele>
        <time>2021-10-16T10:23:04Z</time>
      </trkpt>
      <trkpt lat="39.985695" lon="-4.967956">
        <ele>411.718</ele>
        <time>2021-10-16T10:23:05Z</time>
      </trkpt>
      <trkpt lat="39.985433" lon="-4.967944">
        <ele>410.883</ele>
        <time>2021-10-16T10:23:06Z</time>
      </trkpt>
      <trkpt lat="39.984920" lon="-4.967921">
        <ele>409.442</ele>
        <time>2021-10-16T10:23:08Z</time>
      </trkpt>
      <trkpt lat="39.984457" lon="-4.967893">
        <ele>408.254</ele>
        <time>2021-10-16T10:23:10Z</time>
      </trkpt>
      <trkpt lat="39.984019" lon="-4.967866">
        <ele>406.691</ele>
        <time>2021-10-16T10:23:12Z</time>
      </trkpt>
      <trkpt lat="39.983577" lon="-4.967840">
        <ele>406.236</ele>
        <time>2021-10-16T10:23:14Z</time>
      </trkpt>
      <trkpt lat="39.983132" lon="-4.967814">
        <ele>405.517</ele>
        <time>2021-10-16T10:23:16Z</time>
      </trkpt>
      <trkpt lat="39.982903" lon="-4.967800">
        <ele>404.818</ele>
        <time>2021-10-16T10:23:17Z</time>
      </trkpt>
      <trkpt lat="39.982440" lon="-4.967768">
        <ele>405.408</ele>
        <time>2021-10-16T10:23:19Z</time>
      </trkpt>
      <trkpt lat="39.982205" lon="-4.967755">
        <ele>405.061</ele>
        <time>2021-10-16T10:23:20Z</time>
      </trkpt>
      <trkpt lat="39.981754" lon="-4.967732">
        <ele>405.489</ele>
        <time>2021-10-16T10:23:22Z</time>
      </trkpt>
      <trkpt lat="39.981527" lon="-4.967721">
        <ele>405.868</ele>
        <time>2021-10-16T10:23:23Z</time>
      </trkpt>
      <trkpt lat="39.981077" lon="-4.967696">
        <ele>405.592</ele>
        <time>2021-10-16T10:23:25Z</time>
      </trkpt>
      <trkpt lat="39.980647" lon="-4.967669">
        <ele>405.697</ele>
        <time>2021-10-16T10:23:27Z</time>
      </trkpt>
      <trkpt lat="39.980450" lon="-4.967656">
        <ele>405.566</ele>
        <time>2021-10-16T10:23:28Z</time>
      </trkpt>
      <trkpt lat="39.980266" lon="-4.967644">
        <ele>406.188</ele>
        <time>2021-10-16T10:23:29Z</time>
      </trkpt>
      <trkpt lat="39.979940" lon="-4.967623">
        <ele>406.755</ele>
        <time>2021-10-16T10:23:31Z</time>
      </trkpt>
      <trkpt lat="39.979820" lon="-4.967617">
        <ele>406.539</ele>
        <time>2021-10-16T10:23:32Z</time>
      </trkpt>
      <trkpt lat="39.979683" lon="-4.967617">
        <ele>407.201</ele>
        <time>2021-10-16T10:23:34Z</time>
      </trkpt>
      <trkpt lat="39.979611" lon="-4.967620">
        <ele>408.121</ele>
        <time>2021-10-16T10:23:36Z</time>
      </trkpt>
      <trkpt lat="39.979565" lon="-4.967622">
        <ele>408.408</ele>
        <time>2021-10-16T10:23:38Z</time>
      </trkpt>
      <trkpt lat="39.979500" lon="-4.967628">
        <ele>408.841</ele>
        <time>2021-10-16T10:23:41Z</time>
      </trkpt>
      <trkpt lat="39.979442" lon="-4.967622">
        <ele>409.139</ele>
        <time>2021-10-16T10:23:43Z</time>
      </trkpt>
      <trkpt lat="39.979394" lon="-4.967615">
        <ele>409.718</ele>
        <time>2021-10-16T10:23:45Z</time>
      </trkpt>
      <trkpt lat="39.979336" lon="-4.967616">
        <ele>428.962</ele>
        <time>2021-10-16T10:23:47Z</time>
      </trkpt>
      <trkpt lat="39.979290" lon="-4.967638">
        <ele>445.297</ele>
        <time>2021-10-16T10:23:50Z</time>
      </trkpt>
      <trkpt lat="39.979244" lon="-4.967632">
        <ele>458.226</ele>
        <time>2021-10-16T10:27:37Z</time>
      </trkpt>
      <trkpt lat="39.979199" lon="-4.967612">
        <ele>458.298</ele>
        <time>2021-10-16T10:27:40Z</time>
      </trkpt>
      <trkpt lat="39.979352" lon="-4.967470">
        <ele>458.275</ele>
        <time>2021-10-16T11:08:35Z</time>
      </trkpt>
      <trkpt lat="39.979310" lon="-4.967444">
        <ele>458.252</ele>
        <time>2021-10-16T11:08:57Z</time>
      </trkpt>
      <trkpt lat="39.979296" lon="-4.967500">
        <ele>458.153</ele>
        <time>2021-10-16T11:09:05Z</time>
      </trkpt>
      <trkpt lat="39.979265" lon="-4.967553">
        <ele>458.208</ele>
        <time>2021-10-16T11:09:57Z</time>
      </trkpt>
      <trkpt lat="39.979248" lon="-4.967609">
        <ele>458.208</ele>
        <time>2021-10-16T11:10:15Z</time>
      </trkpt>
      <trkpt lat="39.979199" lon="-4.967583">
        <ele>458.243</ele>
        <time>2021-10-16T11:14:13Z</time>
      </trkpt>
      <trkpt lat="39.979250" lon="-4.967571">
        <ele>458.251</ele>
        <time>2021-10-16T11:15:01Z</time>
      </trkpt>
      <trkpt lat="39.979200" lon="-4.967563">
        <ele>458.260</ele>
        <time>2021-10-16T11:17:08Z</time>
      </trkpt>
      <trkpt lat="39.979081" lon="-4.967528">
        <ele>458.284</ele>
        <time>2021-10-16T11:17:10Z</time>
      </trkpt>
      <trkpt lat="39.978878" lon="-4.967487">
        <ele>458.469</ele>
        <time>2021-10-16T11:17:12Z</time>
      </trkpt>
      <trkpt lat="39.978780" lon="-4.967454">
        <ele>458.568</ele>
        <time>2021-10-16T11:17:13Z</time>
      </trkpt>
      <trkpt lat="39.978674" lon="-4.967418">
        <ele>458.520</ele>
        <time>2021-10-16T11:17:14Z</time>
      </trkpt>
      <trkpt lat="39.978450" lon="-4.967335">
        <ele>458.587</ele>
        <time>2021-10-16T11:17:16Z</time>
      </trkpt>
      <trkpt lat="39.978200" lon="-4.967233">
        <ele>458.537</ele>
        <time>2021-10-16T11:17:18Z</time>
      </trkpt>
      <trkpt lat="39.978066" lon="-4.967174">
        <ele>458.549</ele>
        <time>2021-10-16T11:17:19Z</time>
      </trkpt>
      <trkpt lat="39.977926" lon="-4.967109">
        <ele>458.513</ele>
        <time>2021-10-16T11:17:20Z</time>
      </trkpt>
      <trkpt lat="39.977651" lon="-4.966984">
        <ele>458.508</ele>
        <time>2021-10-16T11:17:22Z</time>
      </trkpt>
      <trkpt lat="39.977362" lon="-4.966865">
        <ele>458.411</ele>
        <time>2021-10-16T11:17:24Z</time>
      </trkpt>
      <trkpt lat="39.977217" lon="-4.966806">
        <ele>458.429</ele>
        <time>2021-10-16T11:17:25Z</time>
      </trkpt>
      <trkpt lat="39.977064" lon="-4.966742">
        <ele>458.488</ele>
        <time>2021-10-16T11:17:26Z</time>
      </trkpt>
      <trkpt lat="39.976774" lon="-4.966602">
        <ele>458.472</ele>
        <time>2021-10-16T11:17:28Z</time>
      </trkpt>
      <trkpt lat="39.976621" lon="-4.966528">
        <ele>458.467</ele>
        <time>2021-10-16T11:17:29Z</time>
      </trkpt>
      <trkpt lat="39.976310" lon="-4.966386">
        <ele>458.446</ele>
        <time>2021-10-16T11:17:31Z</time>
      </trkpt>
      <trkpt lat="39.976151" lon="-4.966317">
        <ele>458.478</ele>
        <time>2021-10-16T11:17:32Z</time>
      </trkpt>
      <trkpt lat="39.975834" lon="-4.966175">
        <ele>458.415</ele>
        <time>2021-10-16T11:17:34Z</time>
      </trkpt>
      <trkpt lat="39.975672" lon="-4.966101">
        <ele>458.481</ele>
        <time>2021-10-16T11:17:35Z</time>
      </trkpt>
      <trkpt lat="39.975350" lon="-4.965959">
        <ele>458.461</ele>
        <time>2021-10-16T11:17:37Z</time>
      </trkpt>
      <trkpt lat="39.975180" lon="-4.965884">
        <ele>458.417</ele>
        <time>2021-10-16T11:17:38Z</time>
      </trkpt>
      <trkpt lat="39.974856" lon="-4.965742">
        <ele>458.408</ele>
        <time>2021-10-16T11:17:40Z</time>
      </trkpt>
      <trkpt lat="39.974689" lon="-4.965665">
        <ele>458.426</ele>
        <time>2021-10-16T11:17:41Z</time>
      </trkpt>
      <trkpt lat="39.974362" lon="-4.965516">
        <ele>458.494</ele>
        <time>2021-10-16T11:17:43Z</time>
      </trkpt>
      <trkpt lat="39.974192" lon="-4.965440">
        <ele>458.453</ele>
        <time>2021-10-16T11:17:44Z</time>
      </trkpt>
      <trkpt lat="39.973861" lon="-4.965294">
        <ele>458.457</ele>
        <time>2021-10-16T11:17:46Z</time>
      </trkpt>
      <trkpt lat="39.973685" lon="-4.965210">
        <ele>458.432</ele>
        <time>2021-10-16T11:17:47Z</time>
      </trkpt>
      <trkpt lat="39.973298" lon="-4.965029">
        <ele>458.321</ele>
        <time>2021-10-16T11:17:49Z</time>
      </trkpt>
      <trkpt lat="39.973086" lon="-4.964947">
        <ele>458.343</ele>
        <time>2021-10-16T11:17:50Z</time>
      </trkpt>
      <trkpt lat="39.972679" lon="-4.964760">
        <ele>458.320</ele>
        <time>2021-10-16T11:17:52Z</time>
      </trkpt>
      <trkpt lat="39.972254" lon="-4.964576">
        <ele>458.328</ele>
        <time>2021-10-16T11:17:54Z</time>
      </trkpt>
      <trkpt lat="39.972037" lon="-4.964483">
        <ele>458.389</ele>
        <time>2021-10-16T11:17:55Z</time>
      </trkpt>
      <trkpt lat="39.971597" lon="-4.964286">
        <ele>458.317</ele>
        <time>2021-10-16T11:17:57Z</time>
      </trkpt>
      <trkpt lat="39.971375" lon="-4.964183">
        <ele>458.308</ele>
        <time>2021-10-16T11:17:58Z</time>
      </trkpt>
      <trkpt lat="39.970931" lon="-4.963986">
        <ele>458.350</ele>
        <time>2021-10-16T11:18:00Z</time>
      </trkpt>
      <trkpt lat="39.970506" lon="-4.963776">
        <ele>458.398</ele>
        <time>2021-10-16T11:18:02Z</time>
      </trkpt>
      <trkpt lat="39.970328" lon="-4.963656">
        <ele>458.377</ele>
        <time>2021-10-16T11:18:03Z</time>
      </trkpt>
      <trkpt lat="39.970031" lon="-4.963343">
        <ele>458.361</ele>
        <time>2021-10-16T11:18:05Z</time>
      </trkpt>
      <trkpt lat="39.969891" lon="-4.963136">
        <ele>438.226</ele>
        <time>2021-10-16T11:18:06Z</time>
      </trkpt>
      <trkpt lat="39.969743" lon="-4.962903">
        <ele>418.165</ele>
        <time>2021-10-16T11:18:07Z</time>
      </trkpt>
      <trkpt lat="39.969582" lon="-4.962658">
        <ele>418.197</ele>
        <time>2021-10-16T11:18:08Z</time>
      </trkpt>
      <trkpt lat="39.969295" lon="-4.962228">
        <ele>417.534</ele>
        <time>2021-10-16T11:18:10Z</time>
      </trkpt>
      <trkpt lat="39.969027" lon="-4.961831">
        <ele>417.729</ele>
        <time>2021-10-16T11:18:12Z</time>
      </trkpt>
      <trkpt lat="39.968891" lon="-4.961622">
        <ele>417.000</ele>
        <time>2021-10-16T11:18:13Z</time>
      </trkpt>
      <trkpt lat="39.968758" lon="-4.961391">
        <ele>416.820</ele>
        <time>2021-10-16T11:18:14Z</time>
      </trkpt>
      <trkpt lat="39.968508" lon="-4.960866">
        <ele>418.208</ele>
        <time>2021-10-16T11:18:16Z</time>
      </trkpt>
      <trkpt lat="39.968378" lon="-4.960562">
        <ele>417.720</ele>
        <time>2021-10-16T11:18:17Z</time>
      </trkpt>
      <trkpt lat="39.968150" lon="-4.959930">
        <ele>417.778</ele>
        <time>2021-10-16T11:18:19Z</time>
      </trkpt>
      <trkpt lat="39.968056" lon="-4.959572">
        <ele>416.577</ele>
        <time>2021-10-16T11:18:20Z</time>
      </trkpt>
      <trkpt lat="39.967931" lon="-4.958854">
        <ele>412.881</ele>
        <time>2021-10-16T11:18:22Z</time>
      </trkpt>
      <trkpt lat="39.967872" lon="-4.958494">
        <ele>412.756</ele>
        <time>2021-10-16T11:18:23Z</time>
      </trkpt>
      <trkpt lat="39.967767" lon="-4.957827">
        <ele>411.195</ele>
        <time>2021-10-16T11:18:25Z</time>
      </trkpt>
      <trkpt lat="39.967723" lon="-4.957514">
        <ele>411.087</ele>
        <time>2021-10-16T11:18:26Z</time>
      </trkpt>
      <trkpt lat="39.967688" lon="-4.957209">
        <ele>411.794</ele>
        <time>2021-10-16T11:18:27Z</time>
      </trkpt>
      <trkpt lat="39.967657" lon="-4.956909">
        <ele>410.996</ele>
        <time>2021-10-16T11:18:28Z</time>
      </trkpt>
      <trkpt lat="39.967602" lon="-4.956320">
        <ele>409.131</ele>
        <time>2021-10-16T11:18:30Z</time>
      </trkpt>
      <trkpt lat="39.967545" lon="-4.955739">
        <ele>405.424</ele>
        <time>2021-10-16T11:18:32Z</time>
      </trkpt>
      <trkpt lat="39.967514" lon="-4.955449">
        <ele>404.808</ele>
        <time>2021-10-16T11:18:33Z</time>
      </trkpt>
      <trkpt lat="39.967484" lon="-4.955163">
        <ele>403.067</ele>
        <time>2021-10-16T11:18:34Z</time>
      </trkpt>
      <trkpt lat="39.967410" lon="-4.954642">
        <ele>400.845</ele>
        <time>2021-10-16T11:18:36Z</time>
      </trkpt>
      <trkpt lat="39.967260" lon="-4.954164">
        <ele>398.624</ele>
        <time>2021-10-16T11:18:38Z</time>
      </trkpt>
      <trkpt lat="39.967017" lon="-4.953732">
        <ele>393.828</ele>
        <time>2021-10-16T11:18:40Z</time>
      </trkpt>
      <trkpt lat="39.966877" lon="-4.953514">
        <ele>392.353</ele>
        <time>2021-10-16T11:18:41Z</time>
      </trkpt>
      <trkpt lat="39.966608" lon="-4.953075">
        <ele>388.342</ele>
        <time>2021-10-16T11:18:43Z</time>
      </trkpt>
      <trkpt lat="39.966482" lon="-4.952852">
        <ele>387.184</ele>
        <time>2021-10-16T11:18:44Z</time>
      </trkpt>
      <trkpt lat="39.966293" lon="-4.952402">
        <ele>385.571</ele>
        <time>2021-10-16T11:18:46Z</time>
      </trkpt>
      <trkpt lat="39.966199" lon="-4.951868">
        <ele>383.158</ele>
        <time>2021-10-16T11:18:48Z</time>
      </trkpt>
      <trkpt lat="39.966176" lon="-4.951565">
        <ele>381.952</ele>
        <time>2021-10-16T11:18:49Z</time>
      </trkpt>
      <trkpt lat="39.966151" lon="-4.951239">
        <ele>381.217</ele>
        <time>2021-10-16T11:18:50Z</time>
      </trkpt>
      <trkpt lat="39.966100" lon="-4.950579">
        <ele>382.408</ele>
        <time>2021-10-16T11:18:52Z</time>
      </trkpt>
      <trkpt lat="39.966073" lon="-4.950229">
        <ele>382.123</ele>
        <time>2021-10-16T11:18:53Z</time>
      </trkpt>
      <trkpt lat="39.966014" lon="-4.949518">
        <ele>381.861</ele>
        <time>2021-10-16T11:18:55Z</time>
      </trkpt>
      <trkpt lat="39.965955" lon="-4.948835">
        <ele>381.830</ele>
        <time>2021-10-16T11:18:57Z</time>
      </trkpt>
      <trkpt lat="39.965927" lon="-4.948514">
        <ele>380.924</ele>
        <time>2021-10-16T11:18:58Z</time>
      </trkpt>
      <trkpt lat="39.965872" lon="-4.947887">
        <ele>379.589</ele>
        <time>2021-10-16T11:19:00Z</time>
      </trkpt>
      <trkpt lat="39.965815" lon="-4.947273">
        <ele>379.738</ele>
        <time>2021-10-16T11:19:02Z</time>
      </trkpt>
      <trkpt lat="39.965787" lon="-4.946965">
        <ele>378.810</ele>
        <time>2021-10-16T11:19:03Z</time>
      </trkpt>
      <trkpt lat="39.965732" lon="-4.946346">
        <ele>379.047</ele>
        <time>2021-10-16T11:19:05Z</time>
      </trkpt>
      <trkpt lat="39.965705" lon="-4.946034">
        <ele>379.297</ele>
        <time>2021-10-16T11:19:06Z</time>
      </trkpt>
      <trkpt lat="39.965649" lon="-4.945403">
        <ele>378.223</ele>
        <time>2021-10-16T11:19:08Z</time>
      </trkpt>
      <trkpt lat="39.965591" lon="-4.944784">
        <ele>377.525</ele>
        <time>2021-10-16T11:19:10Z</time>
      </trkpt>
      <trkpt lat="39.965532" lon="-4.944139">
        <ele>377.908</ele>
        <time>2021-10-16T11:19:12Z</time>
      </trkpt>
      <trkpt lat="39.965500" lon="-4.943790">
        <ele>378.177</ele>
        <time>2021-10-16T11:19:13Z</time>
      </trkpt>
      <trkpt lat="39.965467" lon="-4.943420">
        <ele>378.775</ele>
        <time>2021-10-16T11:19:14Z</time>
      </trkpt>
      <trkpt lat="39.965399" lon="-4.942657">
        <ele>378.834</ele>
        <time>2021-10-16T11:19:16Z</time>
      </trkpt>
      <trkpt lat="39.965362" lon="-4.942245">
        <ele>379.358</ele>
        <time>2021-10-16T11:19:17Z</time>
      </trkpt>
      <trkpt lat="39.965325" lon="-4.941827">
        <ele>378.283</ele>
        <time>2021-10-16T11:19:18Z</time>
      </trkpt>
      <trkpt lat="39.965255" lon="-4.941040">
        <ele>376.132</ele>
        <time>2021-10-16T11:19:20Z</time>
      </trkpt>
      <trkpt lat="39.965192" lon="-4.940351">
        <ele>375.134</ele>
        <time>2021-10-16T11:19:22Z</time>
      </trkpt>
      <trkpt lat="39.965163" lon="-4.940010">
        <ele>374.641</ele>
        <time>2021-10-16T11:19:23Z</time>
      </trkpt>
      <trkpt lat="39.965139" lon="-4.939674">
        <ele>374.393</ele>
        <time>2021-10-16T11:19:24Z</time>
      </trkpt>
      <trkpt lat="39.965081" lon="-4.939007">
        <ele>373.665</ele>
        <time>2021-10-16T11:19:26Z</time>
      </trkpt>
      <trkpt lat="39.965046" lon="-4.938676">
        <ele>373.221</ele>
        <time>2021-10-16T11:19:27Z</time>
      </trkpt>
      <trkpt lat="39.965013" lon="-4.938347">
        <ele>373.108</ele>
        <time>2021-10-16T11:19:28Z</time>
      </trkpt>
      <trkpt lat="39.964955" lon="-4.937697">
        <ele>372.847</ele>
        <time>2021-10-16T11:19:30Z</time>
      </trkpt>
      <trkpt lat="39.964927" lon="-4.937379">
        <ele>371.855</ele>
        <time>2021-10-16T11:19:31Z</time>
      </trkpt>
      <trkpt lat="39.964899" lon="-4.937062">
        <ele>371.124</ele>
        <time>2021-10-16T11:19:32Z</time>
      </trkpt>
      <trkpt lat="39.964841" lon="-4.936437">
        <ele>370.578</ele>
        <time>2021-10-16T11:19:34Z</time>
      </trkpt>
      <trkpt lat="39.964811" lon="-4.936119">
        <ele>370.513</ele>
        <time>2021-10-16T11:19:35Z</time>
      </trkpt>
      <trkpt lat="39.964781" lon="-4.935797">
        <ele>369.522</ele>
        <time>2021-10-16T11:19:36Z</time>
      </trkpt>
      <trkpt lat="39.964752" lon="-4.935474">
        <ele>369.234</ele>
        <time>2021-10-16T11:19:37Z</time>
      </trkpt>
      <trkpt lat="39.964723" lon="-4.935141">
        <ele>368.411</ele>
        <time>2021-10-16T11:19:38Z</time>
      </trkpt>
      <trkpt lat="39.964669" lon="-4.934512">
        <ele>368.073</ele>
        <time>2021-10-16T11:19:40Z</time>
      </trkpt>
      <trkpt lat="39.964643" lon="-4.934209">
        <ele>367.485</ele>
        <time>2021-10-16T11:19:41Z</time>
      </trkpt>
      <trkpt lat="39.964590" lon="-4.933639">
        <ele>367.313</ele>
        <time>2021-10-16T11:19:43Z</time>
      </trkpt>
      <trkpt lat="39.964565" lon="-4.933350">
        <ele>366.908</ele>
        <time>2021-10-16T11:19:44Z</time>
      </trkpt>
      <trkpt lat="39.964516" lon="-4.932788">
        <ele>365.965</ele>
        <time>2021-10-16T11:19:46Z</time>
      </trkpt>
      <trkpt lat="39.964462" lon="-4.932182">
        <ele>365.593</ele>
        <time>2021-10-16T11:19:48Z</time>
      </trkpt>
      <trkpt lat="39.964435" lon="-4.931878">
        <ele>365.912</ele>
        <time>2021-10-16T11:19:49Z</time>
      </trkpt>
      <trkpt lat="39.964406" lon="-4.931565">
        <ele>366.146</ele>
        <time>2021-10-16T11:19:50Z</time>
      </trkpt>
      <trkpt lat="39.964352" lon="-4.930961">
        <ele>366.731</ele>
        <time>2021-10-16T11:19:52Z</time>
      </trkpt>
      <trkpt lat="39.964298" lon="-4.930349">
        <ele>365.480</ele>
        <time>2021-10-16T11:19:54Z</time>
      </trkpt>
      <trkpt lat="39.964243" lon="-4.929724">
        <ele>365.942</ele>
        <time>2021-10-16T11:19:56Z</time>
      </trkpt>
      <trkpt lat="39.964187" lon="-4.929133">
        <ele>365.029</ele>
        <time>2021-10-16T11:19:58Z</time>
      </trkpt>
      <trkpt lat="39.964160" lon="-4.928831">
        <ele>365.275</ele>
        <time>2021-10-16T11:19:59Z</time>
      </trkpt>
      <trkpt lat="39.964133" lon="-4.928530">
        <ele>365.028</ele>
        <time>2021-10-16T11:20:00Z</time>
      </trkpt>
      <trkpt lat="39.964082" lon="-4.927932">
        <ele>364.720</ele>
        <time>2021-10-16T11:20:02Z</time>
      </trkpt>
      <trkpt lat="39.964057" lon="-4.927630">
        <ele>364.308</ele>
        <time>2021-10-16T11:20:03Z</time>
      </trkpt>
      <trkpt lat="39.964005" lon="-4.927033">
        <ele>363.035</ele>
        <time>2021-10-16T11:20:05Z</time>
      </trkpt>
      <trkpt lat="39.963953" lon="-4.926434">
        <ele>362.833</ele>
        <time>2021-10-16T11:20:07Z</time>
      </trkpt>
      <trkpt lat="39.963926" lon="-4.926124">
        <ele>362.752</ele>
        <time>2021-10-16T11:20:08Z</time>
      </trkpt>
      <trkpt lat="39.963873" lon="-4.925534">
        <ele>361.996</ele>
        <time>2021-10-16T11:20:10Z</time>
      </trkpt>
      <trkpt lat="39.963818" lon="-4.924923">
        <ele>361.841</ele>
        <time>2021-10-16T11:20:12Z</time>
      </trkpt>
      <trkpt lat="39.963764" lon="-4.924299">
        <ele>360.690</ele>
        <time>2021-10-16T11:20:14Z</time>
      </trkpt>
      <trkpt lat="39.963710" lon="-4.923696">
        <ele>359.452</ele>
        <time>2021-10-16T11:20:16Z</time>
      </trkpt>
      <trkpt lat="39.963689" lon="-4.923389">
        <ele>359.979</ele>
        <time>2021-10-16T11:20:17Z</time>
      </trkpt>
      <trkpt lat="39.963676" lon="-4.922770">
        <ele>358.919</ele>
        <time>2021-10-16T11:20:19Z</time>
      </trkpt>
      <trkpt lat="39.963681" lon="-4.922446">
        <ele>359.009</ele>
        <time>2021-10-16T11:20:20Z</time>
      </trkpt>
      <trkpt lat="39.963695" lon="-4.921832">
        <ele>358.819</ele>
        <time>2021-10-16T11:20:22Z</time>
      </trkpt>
      <trkpt lat="39.963702" lon="-4.921516">
        <ele>357.408</ele>
        <time>2021-10-16T11:20:23Z</time>
      </trkpt>
      <trkpt lat="39.963710" lon="-4.920901">
        <ele>356.729</ele>
        <time>2021-10-16T11:20:25Z</time>
      </trkpt>
      <trkpt lat="39.963716" lon="-4.920615">
        <ele>356.497</ele>
        <time>2021-10-16T11:20:26Z</time>
      </trkpt>
      <trkpt lat="39.963722" lon="-4.920342">
        <ele>356.726</ele>
        <time>2021-10-16T11:20:27Z</time>
      </trkpt>
      <trkpt lat="39.963732" lon="-4.919833">
        <ele>357.490</ele>
        <time>2021-10-16T11:20:29Z</time>
      </trkpt>
      <trkpt lat="39.963736" lon="-4.919596">
        <ele>356.345</ele>
        <time>2021-10-16T11:20:30Z</time>
      </trkpt>
      <trkpt lat="39.963744" lon="-4.919175">
        <ele>356.544</ele>
        <time>2021-10-16T11:20:32Z</time>
      </trkpt>
      <trkpt lat="39.963755" lon="-4.918791">
        <ele>356.366</ele>
        <time>2021-10-16T11:20:34Z</time>
      </trkpt>
      <trkpt lat="39.963758" lon="-4.918415">
        <ele>358.133</ele>
        <time>2021-10-16T11:20:36Z</time>
      </trkpt>
      <trkpt lat="39.963746" lon="-4.918044">
        <ele>356.732</ele>
        <time>2021-10-16T11:20:38Z</time>
      </trkpt>
      <trkpt lat="39.963707" lon="-4.917695">
        <ele>358.392</ele>
        <time>2021-10-16T11:20:40Z</time>
      </trkpt>
      <trkpt lat="39.963641" lon="-4.917369">
        <ele>358.811</ele>
        <time>2021-10-16T11:20:42Z</time>
      </trkpt>
      <trkpt lat="39.963607" lon="-4.917233">
        <ele>358.708</ele>
        <time>2021-10-16T11:20:43Z</time>
      </trkpt>
      <trkpt lat="39.963574" lon="-4.917117">
        <ele>357.721</ele>
        <time>2021-10-16T11:20:44Z</time>
      </trkpt>
      <trkpt lat="39.963514" lon="-4.916908">
        <ele>358.469</ele>
        <time>2021-10-16T11:20:46Z</time>
      </trkpt>
      <trkpt lat="39.963475" lon="-4.916784">
        <ele>358.528</ele>
        <time>2021-10-16T11:20:47Z</time>
      </trkpt>
      <trkpt lat="39.963390" lon="-4.916508">
        <ele>358.832</ele>
        <time>2021-10-16T11:20:49Z</time>
      </trkpt>
      <trkpt lat="39.963349" lon="-4.916367">
        <ele>359.517</ele>
        <time>2021-10-16T11:20:50Z</time>
      </trkpt>
      <trkpt lat="39.963284" lon="-4.916124">
        <ele>359.436</ele>
        <time>2021-10-16T11:20:52Z</time>
      </trkpt>
      <trkpt lat="39.963252" lon="-4.916010">
        <ele>359.098</ele>
        <time>2021-10-16T11:20:53Z</time>
      </trkpt>
      <trkpt lat="39.963194" lon="-4.915798">
        <ele>359.055</ele>
        <time>2021-10-16T11:20:55Z</time>
      </trkpt>
      <trkpt lat="39.963167" lon="-4.915711">
        <ele>358.915</ele>
        <time>2021-10-16T11:20:56Z</time>
      </trkpt>
      <trkpt lat="39.963122" lon="-4.915556">
        <ele>359.165</ele>
        <time>2021-10-16T11:20:58Z</time>
      </trkpt>
      <trkpt lat="39.963099" lon="-4.915477">
        <ele>359.111</ele>
        <time>2021-10-16T11:20:59Z</time>
      </trkpt>
      <trkpt lat="39.963074" lon="-4.915390">
        <ele>358.808</ele>
        <time>2021-10-16T11:21:00Z</time>
      </trkpt>
      <trkpt lat="39.963022" lon="-4.915173">
        <ele>357.559</ele>
        <time>2021-10-16T11:21:02Z</time>
      </trkpt>
      <trkpt lat="39.962956" lon="-4.914928">
        <ele>358.977</ele>
        <time>2021-10-16T11:21:04Z</time>
      </trkpt>
      <trkpt lat="39.962890" lon="-4.914704">
        <ele>358.286</ele>
        <time>2021-10-16T11:21:06Z</time>
      </trkpt>
      <trkpt lat="39.962859" lon="-4.914600">
        <ele>356.940</ele>
        <time>2021-10-16T11:21:07Z</time>
      </trkpt>
      <trkpt lat="39.962825" lon="-4.914485">
        <ele>356.955</ele>
        <time>2021-10-16T11:21:08Z</time>
      </trkpt>
      <trkpt lat="39.962753" lon="-4.914213">
        <ele>356.994</ele>
        <time>2021-10-16T11:21:10Z</time>
      </trkpt>
      <trkpt lat="39.962668" lon="-4.913906">
        <ele>356.986</ele>
        <time>2021-10-16T11:21:12Z</time>
      </trkpt>
      <trkpt lat="39.962623" lon="-4.913745">
        <ele>357.313</ele>
        <time>2021-10-16T11:21:13Z</time>
      </trkpt>
      <trkpt lat="39.962577" lon="-4.913576">
        <ele>357.382</ele>
        <time>2021-10-16T11:21:14Z</time>
      </trkpt>
      <trkpt lat="39.962491" lon="-4.913260">
        <ele>356.043</ele>
        <time>2021-10-16T11:21:16Z</time>
      </trkpt>
      <trkpt lat="39.962446" lon="-4.913096">
        <ele>355.717</ele>
        <time>2021-10-16T11:21:17Z</time>
      </trkpt>
      <trkpt lat="39.962401" lon="-4.912934">
        <ele>355.708</ele>
        <time>2021-10-16T11:21:18Z</time>
      </trkpt>
      <trkpt lat="39.962357" lon="-4.912771">
        <ele>356.016</ele>
        <time>2021-10-16T11:21:19Z</time>
      </trkpt>
      <trkpt lat="39.962309" lon="-4.912594">
        <ele>356.754</ele>
        <time>2021-10-16T11:21:20Z</time>
      </trkpt>
      <trkpt lat="39.962217" lon="-4.912242">
        <ele>357.063</ele>
        <time>2021-10-16T11:21:22Z</time>
      </trkpt>
      <trkpt lat="39.962121" lon="-4.911890">
        <ele>357.097</ele>
        <time>2021-10-16T11:21:24Z</time>
      </trkpt>
      <trkpt lat="39.962073" lon="-4.911714">
        <ele>356.582</ele>
        <time>2021-10-16T11:21:25Z</time>
      </trkpt>
      <trkpt lat="39.962027" lon="-4.911548">
        <ele>356.691</ele>
        <time>2021-10-16T11:21:26Z</time>
      </trkpt>
      <trkpt lat="39.961952" lon="-4.911296">
        <ele>357.283</ele>
        <time>2021-10-16T11:21:28Z</time>
      </trkpt>
      <trkpt lat="39.961883" lon="-4.911108">
        <ele>356.390</ele>
        <time>2021-10-16T11:21:30Z</time>
      </trkpt>
      <trkpt lat="39.961851" lon="-4.911041">
        <ele>355.992</ele>
        <time>2021-10-16T11:21:31Z</time>
      </trkpt>
      <trkpt lat="39.961810" lon="-4.910986">
        <ele>355.573</ele>
        <time>2021-10-16T11:21:32Z</time>
      </trkpt>
      <trkpt lat="39.961690" lon="-4.910923">
        <ele>355.520</ele>
        <time>2021-10-16T11:21:34Z</time>
      </trkpt>
      <trkpt lat="39.961518" lon="-4.910884">
        <ele>357.408</ele>
        <time>2021-10-16T11:21:36Z</time>
      </trkpt>
      <trkpt lat="39.961439" lon="-4.910835">
        <ele>357.417</ele>
        <time>2021-10-16T11:21:37Z</time>
      </trkpt>
      <trkpt lat="39.961375" lon="-4.910761">
        <ele>357.515</ele>
        <time>2021-10-16T11:21:38Z</time>
      </trkpt>
      <trkpt lat="39.961312" lon="-4.910578">
        <ele>357.184</ele>
        <time>2021-10-16T11:21:40Z</time>
      </trkpt>
      <trkpt lat="39.961312" lon="-4.910478">
        <ele>357.068</ele>
        <time>2021-10-16T11:21:41Z</time>
      </trkpt>
      <trkpt lat="39.961381" lon="-4.910271">
        <ele>356.853</ele>
        <time>2021-10-16T11:21:43Z</time>
      </trkpt>
      <trkpt lat="39.961432" lon="-4.910156">
        <ele>356.622</ele>
        <time>2021-10-16T11:21:44Z</time>
      </trkpt>
      <trkpt lat="39.961498" lon="-4.909901">
        <ele>355.714</ele>
        <time>2021-10-16T11:21:46Z</time>
      </trkpt>
      <trkpt lat="39.961500" lon="-4.909600">
        <ele>354.651</ele>
        <time>2021-10-16T11:21:48Z</time>
      </trkpt>
      <trkpt lat="39.961490" lon="-4.909434">
        <ele>354.628</ele>
        <time>2021-10-16T11:21:49Z</time>
      </trkpt>
      <trkpt lat="39.961479" lon="-4.909251">
        <ele>354.789</ele>
        <time>2021-10-16T11:21:50Z</time>
      </trkpt>
      <trkpt lat="39.961460" lon="-4.908857">
        <ele>353.417</ele>
        <time>2021-10-16T11:21:52Z</time>
      </trkpt>
      <trkpt lat="39.961450" lon="-4.908627">
        <ele>352.308</ele>
        <time>2021-10-16T11:21:53Z</time>
      </trkpt>
      <trkpt lat="39.961439" lon="-4.908377">
        <ele>352.320</ele>
        <time>2021-10-16T11:21:54Z</time>
      </trkpt>
      <trkpt lat="39.961398" lon="-4.907848">
        <ele>350.398</ele>
        <time>2021-10-16T11:21:56Z</time>
      </trkpt>
      <trkpt lat="39.961337" lon="-4.907308">
        <ele>348.857</ele>
        <time>2021-10-16T11:21:58Z</time>
      </trkpt>
      <trkpt lat="39.961305" lon="-4.907020">
        <ele>348.151</ele>
        <time>2021-10-16T11:21:59Z</time>
      </trkpt>
      <trkpt lat="39.961238" lon="-4.906437">
        <ele>345.446</ele>
        <time>2021-10-16T11:22:01Z</time>
      </trkpt>
      <trkpt lat="39.961204" lon="-4.906143">
        <ele>344.495</ele>
        <time>2021-10-16T11:22:02Z</time>
      </trkpt>
      <trkpt lat="39.961137" lon="-4.905593">
        <ele>342.837</ele>
        <time>2021-10-16T11:22:04Z</time>
      </trkpt>
      <trkpt lat="39.961072" lon="-4.905057">
        <ele>340.834</ele>
        <time>2021-10-16T11:22:06Z</time>
      </trkpt>
      <trkpt lat="39.961043" lon="-4.904808">
        <ele>339.786</ele>
        <time>2021-10-16T11:22:07Z</time>
      </trkpt>
      <trkpt lat="39.961016" lon="-4.904566">
        <ele>339.560</ele>
        <time>2021-10-16T11:22:08Z</time>
      </trkpt>
      <trkpt lat="39.960968" lon="-4.904155">
        <ele>337.826</ele>
        <time>2021-10-16T11:22:10Z</time>
      </trkpt>
      <trkpt lat="39.960946" lon="-4.903958">
        <ele>337.808</ele>
        <time>2021-10-16T11:22:11Z</time>
      </trkpt>
      <trkpt lat="39.960908" lon="-4.903585">
        <ele>336.616</ele>
        <time>2021-10-16T11:22:13Z</time>
      </trkpt>
      <trkpt lat="39.960888" lon="-4.903400">
        <ele>336.494</ele>
        <time>2021-10-16T11:22:14Z</time>
      </trkpt>
      <trkpt lat="39.960849" lon="-4.903054">
        <ele>334.783</ele>
        <time>2021-10-16T11:22:16Z</time>
      </trkpt>
      <trkpt lat="39.960824" lon="-4.902873">
        <ele>333.957</ele>
        <time>2021-10-16T11:22:17Z</time>
      </trkpt>
      <trkpt lat="39.960768" lon="-4.902502">
        <ele>333.212</ele>
        <time>2021-10-16T11:22:19Z</time>
      </trkpt>
      <trkpt lat="39.960737" lon="-4.902304">
        <ele>333.721</ele>
        <time>2021-10-16T11:22:20Z</time>
      </trkpt>
      <trkpt lat="39.960684" lon="-4.901928">
        <ele>332.623</ele>
        <time>2021-10-16T11:22:22Z</time>
      </trkpt>
      <trkpt lat="39.960637" lon="-4.901536">
        <ele>332.480</ele>
        <time>2021-10-16T11:22:24Z</time>
      </trkpt>
      <trkpt lat="39.960559" lon="-4.901124">
        <ele>331.537</ele>
        <time>2021-10-16T11:22:26Z</time>
      </trkpt>
      <trkpt lat="39.960426" lon="-4.900734">
        <ele>330.649</ele>
        <time>2021-10-16T11:22:28Z</time>
      </trkpt>
      <trkpt lat="39.960330" lon="-4.900536">
        <ele>330.513</ele>
        <time>2021-10-16T11:22:29Z</time>
      </trkpt>
      <trkpt lat="39.960213" lon="-4.900347">
        <ele>330.408</ele>
        <time>2021-10-16T11:22:30Z</time>
      </trkpt>
      <trkpt lat="39.959937" lon="-4.900008">
        <ele>331.381</ele>
        <time>2021-10-16T11:22:32Z</time>
      </trkpt>
      <trkpt lat="39.959694" lon="-4.899710">
        <ele>328.459</ele>
        <time>2021-10-16T11:22:34Z</time>
      </trkpt>
      <trkpt lat="39.959505" lon="-4.899361">
        <ele>328.748</ele>
        <time>2021-10-16T11:22:36Z</time>
      </trkpt>
      <trkpt lat="39.959392" lon="-4.898937">
        <ele>326.662</ele>
        <time>2021-10-16T11:22:38Z</time>
      </trkpt>
      <trkpt lat="39.959387" lon="-4.898494">
        <ele>326.527</ele>
        <time>2021-10-16T11:22:40Z</time>
      </trkpt>
      <trkpt lat="39.959418" lon="-4.898290">
        <ele>326.286</ele>
        <time>2021-10-16T11:22:41Z</time>
      </trkpt>
      <trkpt lat="39.959526" lon="-4.897955">
        <ele>326.098</ele>
        <time>2021-10-16T11:22:43Z</time>
      </trkpt>
      <trkpt lat="39.959585" lon="-4.897806">
        <ele>326.855</ele>
        <time>2021-10-16T11:22:44Z</time>
      </trkpt>
      <trkpt lat="39.959643" lon="-4.897580">
        <ele>328.494</ele>
        <time>2021-10-16T11:22:46Z</time>
      </trkpt>
      <trkpt lat="39.959632" lon="-4.897476">
        <ele>328.757</ele>
        <time>2021-10-16T11:22:47Z</time>
      </trkpt>
      <trkpt lat="39.959595" lon="-4.897381">
        <ele>328.722</ele>
        <time>2021-10-16T11:22:48Z</time>
      </trkpt>
      <trkpt lat="39.959492" lon="-4.897148">
        <ele>329.708</ele>
        <time>2021-10-16T11:22:50Z</time>
      </trkpt>
      <trkpt lat="39.959442" lon="-4.896840">
        <ele>328.367</ele>
        <time>2021-10-16T11:22:52Z</time>
      </trkpt>
      <trkpt lat="39.959426" lon="-4.896682">
        <ele>328.365</ele>
        <time>2021-10-16T11:22:53Z</time>
      </trkpt>
      <trkpt lat="39.959336" lon="-4.896420">
        <ele>329.364</ele>
        <time>2021-10-16T11:22:55Z</time>
      </trkpt>
      <trkpt lat="39.959245" lon="-4.896324">
        <ele>328.618</ele>
        <time>2021-10-16T11:22:56Z</time>
      </trkpt>
      <trkpt lat="39.959009" lon="-4.896208">
        <ele>328.163</ele>
        <time>2021-10-16T11:22:58Z</time>
      </trkpt>
      <trkpt lat="39.958851" lon="-4.896173">
        <ele>327.482</ele>
        <time>2021-10-16T11:22:59Z</time>
      </trkpt>
      <trkpt lat="39.958464" lon="-4.896123">
        <ele>327.514</ele>
        <time>2021-10-16T11:23:01Z</time>
      </trkpt>
      <trkpt lat="39.958035" lon="-4.896105">
        <ele>326.421</ele>
        <time>2021-10-16T11:23:03Z</time>
      </trkpt>
      <trkpt lat="39.957817" lon="-4.896111">
        <ele>326.979</ele>
        <time>2021-10-16T11:23:04Z</time>
      </trkpt>
      <trkpt lat="39.957390" lon="-4.896149">
        <ele>327.505</ele>
        <time>2021-10-16T11:23:06Z</time>
      </trkpt>
      <trkpt lat="39.957186" lon="-4.896169">
        <ele>327.825</ele>
        <time>2021-10-16T11:23:07Z</time>
      </trkpt>
      <trkpt lat="39.956990" lon="-4.896191">
        <ele>327.308</ele>
        <time>2021-10-16T11:23:08Z</time>
      </trkpt>
      <trkpt lat="39.956626" lon="-4.896221">
        <ele>329.465</ele>
        <time>2021-10-16T11:23:10Z</time>
      </trkpt>
      <trkpt lat="39.956433" lon="-4.896234">
        <ele>329.453</ele>
        <time>2021-10-16T11:23:11Z</time>
      </trkpt>
      <trkpt lat="39.956235" lon="-4.896238">
        <ele>329.372</ele>
        <time>2021-10-16T11:23:12Z</time>
      </trkpt>
      <trkpt lat="39.956030" lon="-4.896238">
        <ele>329.716</ele>
        <time>2021-10-16T11:23:13Z</time>
      </trkpt>
      <trkpt lat="39.955824" lon="-4.896233">
        <ele>330.261</ele>
        <time>2021-10-16T11:23:14Z</time>
      </trkpt>
      <trkpt lat="39.955416" lon="-4.896200">
        <ele>330.980</ele>
        <time>2021-10-16T11:23:16Z</time>
      </trkpt>
      <trkpt lat="39.954996" lon="-4.896131">
        <ele>330.792</ele>
        <time>2021-10-16T11:23:18Z</time>
      </trkpt>
      <trkpt lat="39.954783" lon="-4.896086">
        <ele>331.219</ele>
        <time>2021-10-16T11:23:19Z</time>
      </trkpt>
      <trkpt lat="39.954563" lon="-4.896035">
        <ele>330.776</ele>
        <time>2021-10-16T11:23:20Z</time>
      </trkpt>
      <trkpt lat="39.954139" lon="-4.895915">
        <ele>330.390</ele>
        <time>2021-10-16T11:23:22Z</time>
      </trkpt>
      <trkpt lat="39.953922" lon="-4.895838">
        <ele>329.819</ele>
        <time>2021-10-16T11:23:23Z</time>
      </trkpt>
      <trkpt lat="39.953490" lon="-4.895661">
        <ele>330.208</ele>
        <time>2021-10-16T11:23:25Z</time>
      </trkpt>
      <trkpt lat="39.953270" lon="-4.895557">
        <ele>330.965</ele>
        <time>2021-10-16T11:23:26Z</time>
      </trkpt>
      <trkpt lat="39.952838" lon="-4.895324">
        <ele>330.673</ele>
        <time>2021-10-16T11:23:28Z</time>
      </trkpt>
      <trkpt lat="39.952411" lon="-4.895042">
        <ele>330.542</ele>
        <time>2021-10-16T11:23:30Z</time>
      </trkpt>
      <trkpt lat="39.952199" lon="-4.894884">
        <ele>330.446</ele>
        <time>2021-10-16T11:23:31Z</time>
      </trkpt>
      <trkpt lat="39.951994" lon="-4.894717">
        <ele>330.051</ele>
        <time>2021-10-16T11:23:32Z</time>
      </trkpt>
      <trkpt lat="39.951791" lon="-4.894538">
        <ele>329.420</ele>
        <time>2021-10-16T11:23:33Z</time>
      </trkpt>
      <trkpt lat="39.951591" lon="-4.894345">
        <ele>329.182</ele>
        <time>2021-10-16T11:23:34Z</time>
      </trkpt>
      <trkpt lat="39.951209" lon="-4.893936">
        <ele>327.549</ele>
        <time>2021-10-16T11:23:36Z</time>
      </trkpt>
      <trkpt lat="39.951029" lon="-4.893716">
        <ele>327.354</ele>
        <time>2021-10-16T11:23:37Z</time>
      </trkpt>
      <trkpt lat="39.950850" lon="-4.893485">
        <ele>326.756</ele>
        <time>2021-10-16T11:23:38Z</time>
      </trkpt>
      <trkpt lat="39.950520" lon="-4.893021">
        <ele>326.311</ele>
        <time>2021-10-16T11:23:40Z</time>
      </trkpt>
      <trkpt lat="39.950213" lon="-4.892510">
        <ele>325.308</ele>
        <time>2021-10-16T11:23:42Z</time>
      </trkpt>
      <trkpt lat="39.950059" lon="-4.892251">
        <ele>325.353</ele>
        <time>2021-10-16T11:23:43Z</time>
      </trkpt>
      <trkpt lat="39.949898" lon="-4.891985">
        <ele>324.741</ele>
        <time>2021-10-16T11:23:44Z</time>
      </trkpt>
      <trkpt lat="39.949590" lon="-4.891489">
        <ele>324.120</ele>
        <time>2021-10-16T11:23:46Z</time>
      </trkpt>
      <trkpt lat="39.949432" lon="-4.891239">
        <ele>322.534</ele>
        <time>2021-10-16T11:23:47Z</time>
      </trkpt>
      <trkpt lat="39.949131" lon="-4.890780">
        <ele>322.149</ele>
        <time>2021-10-16T11:23:49Z</time>
      </trkpt>
      <trkpt lat="39.948980" lon="-4.890552">
        <ele>321.728</ele>
        <time>2021-10-16T11:23:50Z</time>
      </trkpt>
      <trkpt lat="39.948691" lon="-4.890112">
        <ele>322.370</ele>
        <time>2021-10-16T11:23:52Z</time>
      </trkpt>
      <trkpt lat="39.948392" lon="-4.889666">
        <ele>321.847</ele>
        <time>2021-10-16T11:23:54Z</time>
      </trkpt>
      <trkpt lat="39.948078" lon="-4.889219">
        <ele>321.129</ele>
        <time>2021-10-16T11:23:56Z</time>
      </trkpt>
      <trkpt lat="39.947761" lon="-4.888772">
        <ele>323.900</ele>
        <time>2021-10-16T11:23:58Z</time>
      </trkpt>
      <trkpt lat="39.947439" lon="-4.888319">
        <ele>322.620</ele>
        <time>2021-10-16T11:24:00Z</time>
      </trkpt>
      <trkpt lat="39.947103" lon="-4.887863">
        <ele>323.108</ele>
        <time>2021-10-16T11:24:02Z</time>
      </trkpt>
      <trkpt lat="39.946927" lon="-4.887635">
        <ele>323.630</ele>
        <time>2021-10-16T11:24:03Z</time>
      </trkpt>
      <trkpt lat="39.946574" lon="-4.887175">
        <ele>324.468</ele>
        <time>2021-10-16T11:24:05Z</time>
      </trkpt>
      <trkpt lat="39.946214" lon="-4.886719">
        <ele>324.117</ele>
        <time>2021-10-16T11:24:07Z</time>
      </trkpt>
      <trkpt lat="39.946031" lon="-4.886488">
        <ele>324.871</ele>
        <time>2021-10-16T11:24:08Z</time>
      </trkpt>
      <trkpt lat="39.945681" lon="-4.886045">
        <ele>325.196</ele>
        <time>2021-10-16T11:24:10Z</time>
      </trkpt>
      <trkpt lat="39.945349" lon="-4.885561">
        <ele>325.785</ele>
        <time>2021-10-16T11:24:12Z</time>
      </trkpt>
      <trkpt lat="39.945193" lon="-4.885306">
        <ele>326.127</ele>
        <time>2021-10-16T11:24:13Z</time>
      </trkpt>
      <trkpt lat="39.945038" lon="-4.885032">
        <ele>326.644</ele>
        <time>2021-10-16T11:24:14Z</time>
      </trkpt>
      <trkpt lat="39.944760" lon="-4.884477">
        <ele>327.646</ele>
        <time>2021-10-16T11:24:16Z</time>
      </trkpt>
      <trkpt lat="39.944501" lon="-4.883878">
        <ele>327.888</ele>
        <time>2021-10-16T11:24:18Z</time>
      </trkpt>
      <trkpt lat="39.944268" lon="-4.883234">
        <ele>327.916</ele>
        <time>2021-10-16T11:24:20Z</time>
      </trkpt>
      <trkpt lat="39.944060" lon="-4.882583">
        <ele>326.208</ele>
        <time>2021-10-16T11:24:22Z</time>
      </trkpt>
      <trkpt lat="39.943840" lon="-4.881908">
        <ele>324.512</ele>
        <time>2021-10-16T11:24:24Z</time>
      </trkpt>
      <trkpt lat="39.943585" lon="-4.881261">
        <ele>323.690</ele>
        <time>2021-10-16T11:24:26Z</time>
      </trkpt>
      <trkpt lat="39.943444" lon="-4.880951">
        <ele>323.729</ele>
        <time>2021-10-16T11:24:27Z</time>
      </trkpt>
      <trkpt lat="39.943290" lon="-4.880649">
        <ele>323.733</ele>
        <time>2021-10-16T11:24:28Z</time>
      </trkpt>
      <trkpt lat="39.943128" lon="-4.880354">
        <ele>323.398</ele>
        <time>2021-10-16T11:24:29Z</time>
      </trkpt>
      <trkpt lat="39.942786" lon="-4.879800">
        <ele>321.147</ele>
        <time>2021-10-16T11:24:31Z</time>
      </trkpt>
      <trkpt lat="39.942424" lon="-4.879287">
        <ele>319.759</ele>
        <time>2021-10-16T11:24:33Z</time>
      </trkpt>
      <trkpt lat="39.942245" lon="-4.879037">
        <ele>319.716</ele>
        <time>2021-10-16T11:24:34Z</time>
      </trkpt>
      <trkpt lat="39.942070" lon="-4.878782">
        <ele>319.435</ele>
        <time>2021-10-16T11:24:35Z</time>
      </trkpt>
      <trkpt lat="39.941728" lon="-4.878251">
        <ele>318.386</ele>
        <time>2021-10-16T11:24:37Z</time>
      </trkpt>
      <trkpt lat="39.941560" lon="-4.877969">
        <ele>318.914</ele>
        <time>2021-10-16T11:24:38Z</time>
      </trkpt>
      <trkpt lat="39.941261" lon="-4.877398">
        <ele>319.908</ele>
        <time>2021-10-16T11:24:40Z</time>
      </trkpt>
      <trkpt lat="39.940984" lon="-4.876781">
        <ele>321.421</ele>
        <time>2021-10-16T11:24:42Z</time>
      </trkpt>
      <trkpt lat="39.940857" lon="-4.876461">
        <ele>321.919</ele>
        <time>2021-10-16T11:24:43Z</time>
      </trkpt>
      <trkpt lat="39.940736" lon="-4.876127">
        <ele>322.678</ele>
        <time>2021-10-16T11:24:44Z</time>
      </trkpt>
      <trkpt lat="39.940530" lon="-4.875467">
        <ele>322.012</ele>
        <time>2021-10-16T11:24:46Z</time>
      </trkpt>
      <trkpt lat="39.940358" lon="-4.874774">
        <ele>322.457</ele>
        <time>2021-10-16T11:24:48Z</time>
      </trkpt>
      <trkpt lat="39.940283" lon="-4.874423">
        <ele>322.786</ele>
        <time>2021-10-16T11:24:49Z</time>
      </trkpt>
      <trkpt lat="39.940215" lon="-4.874062">
        <ele>322.598</ele>
        <time>2021-10-16T11:24:50Z</time>
      </trkpt>
      <trkpt lat="39.940097" lon="-4.873370">
        <ele>323.215</ele>
        <time>2021-10-16T11:24:52Z</time>
      </trkpt>
      <trkpt lat="39.939990" lon="-4.872671">
        <ele>322.884</ele>
        <time>2021-10-16T11:24:54Z</time>
      </trkpt>
      <trkpt lat="39.939907" lon="-4.871996">
        <ele>324.007</ele>
        <time>2021-10-16T11:24:56Z</time>
      </trkpt>
      <trkpt lat="39.939828" lon="-4.871356">
        <ele>322.917</ele>
        <time>2021-10-16T11:24:58Z</time>
      </trkpt>
      <trkpt lat="39.939787" lon="-4.871022">
        <ele>323.908</ele>
        <time>2021-10-16T11:24:59Z</time>
      </trkpt>
      <trkpt lat="39.939713" lon="-4.870349">
        <ele>323.336</ele>
        <time>2021-10-16T11:25:01Z</time>
      </trkpt>
      <trkpt lat="39.939681" lon="-4.870008">
        <ele>323.224</ele>
        <time>2021-10-16T11:25:02Z</time>
      </trkpt>
      <trkpt lat="39.939630" lon="-4.869319">
        <ele>322.673</ele>
        <time>2021-10-16T11:25:04Z</time>
      </trkpt>
      <trkpt lat="39.939606" lon="-4.868970">
        <ele>322.457</ele>
        <time>2021-10-16T11:25:05Z</time>
      </trkpt>
      <trkpt lat="39.939558" lon="-4.868287">
        <ele>322.662</ele>
        <time>2021-10-16T11:25:07Z</time>
      </trkpt>
      <trkpt lat="39.939539" lon="-4.867930">
        <ele>321.741</ele>
        <time>2021-10-16T11:25:08Z</time>
      </trkpt>
      <trkpt lat="39.939518" lon="-4.867267">
        <ele>320.773</ele>
        <time>2021-10-16T11:25:10Z</time>
      </trkpt>
      <trkpt lat="39.939507" lon="-4.866927">
        <ele>320.860</ele>
        <time>2021-10-16T11:25:11Z</time>
      </trkpt>
      <trkpt lat="39.939496" lon="-4.866590">
        <ele>320.751</ele>
        <time>2021-10-16T11:25:12Z</time>
      </trkpt>
      <trkpt lat="39.939486" lon="-4.866252">
        <ele>319.701</ele>
        <time>2021-10-16T11:25:13Z</time>
      </trkpt>
      <trkpt lat="39.939481" lon="-4.865905">
        <ele>319.811</ele>
        <time>2021-10-16T11:25:14Z</time>
      </trkpt>
      <trkpt lat="39.939484" lon="-4.865231">
        <ele>320.008</ele>
        <time>2021-10-16T11:25:16Z</time>
      </trkpt>
      <trkpt lat="39.939497" lon="-4.864512">
        <ele>319.533</ele>
        <time>2021-10-16T11:25:18Z</time>
      </trkpt>
      <trkpt lat="39.939505" lon="-4.864148">
        <ele>319.831</ele>
        <time>2021-10-16T11:25:19Z</time>
      </trkpt>
      <trkpt lat="39.939514" lon="-4.863771">
        <ele>319.450</ele>
        <time>2021-10-16T11:25:20Z</time>
      </trkpt>
      <trkpt lat="39.939539" lon="-4.863049">
        <ele>317.434</ele>
        <time>2021-10-16T11:25:22Z</time>
      </trkpt>
      <trkpt lat="39.939579" lon="-4.862314">
        <ele>317.029</ele>
        <time>2021-10-16T11:25:24Z</time>
      </trkpt>
      <trkpt lat="39.939631" lon="-4.861589">
        <ele>317.718</ele>
        <time>2021-10-16T11:25:26Z</time>
      </trkpt>
      <trkpt lat="39.939686" lon="-4.860865">
        <ele>316.930</ele>
        <time>2021-10-16T11:25:28Z</time>
      </trkpt>
      <trkpt lat="39.939716" lon="-4.860504">
        <ele>317.567</ele>
        <time>2021-10-16T11:25:29Z</time>
      </trkpt>
      <trkpt lat="39.939789" lon="-4.859790">
        <ele>317.711</ele>
        <time>2021-10-16T11:25:31Z</time>
      </trkpt>
      <trkpt lat="39.939858" lon="-4.859105">
        <ele>316.821</ele>
        <time>2021-10-16T11:25:33Z</time>
      </trkpt>
      <trkpt lat="39.939892" lon="-4.858765">
        <ele>316.503</ele>
        <time>2021-10-16T11:25:34Z</time>
      </trkpt>
      <trkpt lat="39.939965" lon="-4.858073">
        <ele>316.508</ele>
        <time>2021-10-16T11:25:36Z</time>
      </trkpt>
      <trkpt lat="39.940037" lon="-4.857359">
        <ele>316.069</ele>
        <time>2021-10-16T11:25:38Z</time>
      </trkpt>
      <trkpt lat="39.940109" lon="-4.856666">
        <ele>315.737</ele>
        <time>2021-10-16T11:25:40Z</time>
      </trkpt>
      <trkpt lat="39.940146" lon="-4.856306">
        <ele>314.746</ele>
        <time>2021-10-16T11:25:41Z</time>
      </trkpt>
      <trkpt lat="39.940179" lon="-4.855945">
        <ele>314.580</ele>
        <time>2021-10-16T11:25:42Z</time>
      </trkpt>
      <trkpt lat="39.940210" lon="-4.855585">
        <ele>315.065</ele>
        <time>2021-10-16T11:25:43Z</time>
      </trkpt>
      <trkpt lat="39.940238" lon="-4.855212">
        <ele>314.444</ele>
        <time>2021-10-16T11:25:44Z</time>
      </trkpt>
      <trkpt lat="39.940280" lon="-4.854500">
        <ele>313.466</ele>
        <time>2021-10-16T11:25:46Z</time>
      </trkpt>
      <trkpt lat="39.940291" lon="-4.854126">
        <ele>313.523</ele>
        <time>2021-10-16T11:25:47Z</time>
      </trkpt>
      <trkpt lat="39.940306" lon="-4.853398">
        <ele>312.353</ele>
        <time>2021-10-16T11:25:49Z</time>
      </trkpt>
      <trkpt lat="39.940299" lon="-4.853030">
        <ele>313.004</ele>
        <time>2021-10-16T11:25:50Z</time>
      </trkpt>
      <trkpt lat="39.940275" lon="-4.852349">
        <ele>316.014</ele>
        <time>2021-10-16T11:25:52Z</time>
      </trkpt>
      <trkpt lat="39.940257" lon="-4.852005">
        <ele>316.708</ele>
        <time>2021-10-16T11:25:53Z</time>
      </trkpt>
      <trkpt lat="39.940211" lon="-4.851324">
        <ele>317.133</ele>
        <time>2021-10-16T11:25:55Z</time>
      </trkpt>
      <trkpt lat="39.940183" lon="-4.850981">
        <ele>317.861</ele>
        <time>2021-10-16T11:25:56Z</time>
      </trkpt>
      <trkpt lat="39.940120" lon="-4.850304">
        <ele>317.880</ele>
        <time>2021-10-16T11:25:58Z</time>
      </trkpt>
      <trkpt lat="39.940038" lon="-4.849620">
        <ele>319.084</ele>
        <time>2021-10-16T11:26:00Z</time>
      </trkpt>
      <trkpt lat="39.939939" lon="-4.848935">
        <ele>320.279</ele>
        <time>2021-10-16T11:26:02Z</time>
      </trkpt>
      <trkpt lat="39.939883" lon="-4.848592">
        <ele>320.758</ele>
        <time>2021-10-16T11:26:03Z</time>
      </trkpt>
      <trkpt lat="39.939758" lon="-4.847912">
        <ele>321.210</ele>
        <time>2021-10-16T11:26:05Z</time>
      </trkpt>
      <trkpt lat="39.939689" lon="-4.847571">
        <ele>321.227</ele>
        <time>2021-10-16T11:26:06Z</time>
      </trkpt>
      <trkpt lat="39.939536" lon="-4.846891">
        <ele>322.665</ele>
        <time>2021-10-16T11:26:08Z</time>
      </trkpt>
      <trkpt lat="39.939368" lon="-4.846240">
        <ele>323.168</ele>
        <time>2021-10-16T11:26:10Z</time>
      </trkpt>
      <trkpt lat="39.939185" lon="-4.845582">
        <ele>323.414</ele>
        <time>2021-10-16T11:26:12Z</time>
      </trkpt>
      <trkpt lat="39.938985" lon="-4.844927">
        <ele>323.108</ele>
        <time>2021-10-16T11:26:14Z</time>
      </trkpt>
      <trkpt lat="39.938777" lon="-4.844310">
        <ele>323.054</ele>
        <time>2021-10-16T11:26:16Z</time>
      </trkpt>
      <trkpt lat="39.938562" lon="-4.843727">
        <ele>321.962</ele>
        <time>2021-10-16T11:26:18Z</time>
      </trkpt>
      <trkpt lat="39.938454" lon="-4.843441">
        <ele>321.411</ele>
        <time>2021-10-16T11:26:19Z</time>
      </trkpt>
      <trkpt lat="39.938339" lon="-4.843150">
        <ele>320.385</ele>
        <time>2021-10-16T11:26:20Z</time>
      </trkpt>
      <trkpt lat="39.938114" lon="-4.842615">
        <ele>319.210</ele>
        <time>2021-10-16T11:26:22Z</time>
      </trkpt>
      <trkpt lat="39.937891" lon="-4.842115">
        <ele>318.289</ele>
        <time>2021-10-16T11:26:24Z</time>
      </trkpt>
      <trkpt lat="39.937787" lon="-4.841878">
        <ele>316.911</ele>
        <time>2021-10-16T11:26:25Z</time>
      </trkpt>
      <trkpt lat="39.937685" lon="-4.841656">
        <ele>317.298</ele>
        <time>2021-10-16T11:26:26Z</time>
      </trkpt>
      <trkpt lat="39.937584" lon="-4.841446">
        <ele>317.295</ele>
        <time>2021-10-16T11:26:27Z</time>
      </trkpt>
      <trkpt lat="39.937484" lon="-4.841248">
        <ele>317.249</ele>
        <time>2021-10-16T11:26:28Z</time>
      </trkpt>
      <trkpt lat="39.937295" lon="-4.840886">
        <ele>317.423</ele>
        <time>2021-10-16T11:26:30Z</time>
      </trkpt>
      <trkpt lat="39.937118" lon="-4.840564">
        <ele>316.308</ele>
        <time>2021-10-16T11:26:32Z</time>
      </trkpt>
      <trkpt lat="39.937033" lon="-4.840411">
        <ele>317.437</ele>
        <time>2021-10-16T11:26:33Z</time>
      </trkpt>
      <trkpt lat="39.936950" lon="-4.840265">
        <ele>317.185</ele>
        <time>2021-10-16T11:26:34Z</time>
      </trkpt>
      <trkpt lat="39.936792" lon="-4.840003">
        <ele>316.194</ele>
        <time>2021-10-16T11:26:36Z</time>
      </trkpt>
      <trkpt lat="39.936629" lon="-4.839788">
        <ele>315.548</ele>
        <time>2021-10-16T11:26:38Z</time>
      </trkpt>
      <trkpt lat="39.936450" lon="-4.839641">
        <ele>315.873</ele>
        <time>2021-10-16T11:26:40Z</time>
      </trkpt>
      <trkpt lat="39.936340" lon="-4.839593">
        <ele>315.882</ele>
        <time>2021-10-16T11:26:41Z</time>
      </trkpt>
      <trkpt lat="39.936089" lon="-4.839551">
        <ele>315.444</ele>
        <time>2021-10-16T11:26:43Z</time>
      </trkpt>
      <trkpt lat="39.935952" lon="-4.839579">
        <ele>314.341</ele>
        <time>2021-10-16T11:26:44Z</time>
      </trkpt>
      <trkpt lat="39.935696" lon="-4.839744">
        <ele>315.351</ele>
        <time>2021-10-16T11:26:46Z</time>
      </trkpt>
      <trkpt lat="39.935564" lon="-4.839854">
        <ele>314.601</ele>
        <time>2021-10-16T11:26:47Z</time>
      </trkpt>
      <trkpt lat="39.935269" lon="-4.840082">
        <ele>313.511</ele>
        <time>2021-10-16T11:26:49Z</time>
      </trkpt>
      <trkpt lat="39.935094" lon="-4.840206">
        <ele>312.208</ele>
        <time>2021-10-16T11:26:50Z</time>
      </trkpt>
      <trkpt lat="39.934734" lon="-4.840448">
        <ele>312.273</ele>
        <time>2021-10-16T11:26:52Z</time>
      </trkpt>
      <trkpt lat="39.934344" lon="-4.840720">
        <ele>312.771</ele>
        <time>2021-10-16T11:26:54Z</time>
      </trkpt>
      <trkpt lat="39.933927" lon="-4.841007">
        <ele>312.050</ele>
        <time>2021-10-16T11:26:56Z</time>
      </trkpt>
      <trkpt lat="39.933510" lon="-4.841291">
        <ele>311.844</ele>
        <time>2021-10-16T11:26:58Z</time>
      </trkpt>
      <trkpt lat="39.933102" lon="-4.841571">
        <ele>311.629</ele>
        <time>2021-10-16T11:27:00Z</time>
      </trkpt>
      <trkpt lat="39.932894" lon="-4.841714">
        <ele>312.918</ele>
        <time>2021-10-16T11:27:01Z</time>
      </trkpt>
      <trkpt lat="39.932685" lon="-4.841863">
        <ele>312.960</ele>
        <time>2021-10-16T11:27:02Z</time>
      </trkpt>
      <trkpt lat="39.932260" lon="-4.842161">
        <ele>313.047</ele>
        <time>2021-10-16T11:27:04Z</time>
      </trkpt>
      <trkpt lat="39.932046" lon="-4.842311">
        <ele>313.496</ele>
        <time>2021-10-16T11:27:05Z</time>
      </trkpt>
      <trkpt lat="39.931614" lon="-4.842613">
        <ele>313.631</ele>
        <time>2021-10-16T11:27:07Z</time>
      </trkpt>
      <trkpt lat="39.931391" lon="-4.842765">
        <ele>313.624</ele>
        <time>2021-10-16T11:27:08Z</time>
      </trkpt>
      <trkpt lat="39.930972" lon="-4.843057">
        <ele>312.708</ele>
        <time>2021-10-16T11:27:10Z</time>
      </trkpt>
      <trkpt lat="39.930761" lon="-4.843208">
        <ele>313.017</ele>
        <time>2021-10-16T11:27:11Z</time>
      </trkpt>
      <trkpt lat="39.930331" lon="-4.843504">
        <ele>313.175</ele>
        <time>2021-10-16T11:27:13Z</time>
      </trkpt>
      <trkpt lat="39.930107" lon="-4.843657">
        <ele>313.374</ele>
        <time>2021-10-16T11:27:14Z</time>
      </trkpt>
      <trkpt lat="39.929674" lon="-4.843959">
        <ele>313.048</ele>
        <time>2021-10-16T11:27:16Z</time>
      </trkpt>
      <trkpt lat="39.929448" lon="-4.844113">
        <ele>312.423</ele>
        <time>2021-10-16T11:27:17Z</time>
      </trkpt>
      <trkpt lat="39.928998" lon="-4.844426">
        <ele>311.782</ele>
        <time>2021-10-16T11:27:19Z</time>
      </trkpt>
      <trkpt lat="39.928763" lon="-4.844588">
        <ele>311.194</ele>
        <time>2021-10-16T11:27:20Z</time>
      </trkpt>
      <trkpt lat="39.928316" lon="-4.844889">
        <ele>311.441</ele>
        <time>2021-10-16T11:27:22Z</time>
      </trkpt>
      <trkpt lat="39.927866" lon="-4.845203">
        <ele>310.562</ele>
        <time>2021-10-16T11:27:24Z</time>
      </trkpt>
      <trkpt lat="39.927417" lon="-4.845522">
        <ele>310.783</ele>
        <time>2021-10-16T11:27:26Z</time>
      </trkpt>
      <trkpt lat="39.927005" lon="-4.845836">
        <ele>311.311</ele>
        <time>2021-10-16T11:27:28Z</time>
      </trkpt>
      <trkpt lat="39.926805" lon="-4.846014">
        <ele>311.008</ele>
        <time>2021-10-16T11:27:29Z</time>
      </trkpt>
      <trkpt lat="39.926428" lon="-4.846400">
        <ele>310.974</ele>
        <time>2021-10-16T11:27:31Z</time>
      </trkpt>
      <trkpt lat="39.926050" lon="-4.846814">
        <ele>311.352</ele>
        <time>2021-10-16T11:27:33Z</time>
      </trkpt>
      <trkpt lat="39.925853" lon="-4.847029">
        <ele>311.471</ele>
        <time>2021-10-16T11:27:34Z</time>
      </trkpt>
      <trkpt lat="39.925450" lon="-4.847465">
        <ele>310.525</ele>
        <time>2021-10-16T11:27:36Z</time>
      </trkpt>
      <trkpt lat="39.925031" lon="-4.847907">
        <ele>310.480</ele>
        <time>2021-10-16T11:27:38Z</time>
      </trkpt>
      <trkpt lat="39.924629" lon="-4.848327">
        <ele>309.699</ele>
        <time>2021-10-16T11:27:40Z</time>
      </trkpt>
      <trkpt lat="39.924229" lon="-4.848758">
        <ele>310.361</ele>
        <time>2021-10-16T11:27:42Z</time>
      </trkpt>
      <trkpt lat="39.923818" lon="-4.849191">
        <ele>310.888</ele>
        <time>2021-10-16T11:27:44Z</time>
      </trkpt>
      <trkpt lat="39.923420" lon="-4.849615">
        <ele>310.025</ele>
        <time>2021-10-16T11:27:46Z</time>
      </trkpt>
      <trkpt lat="39.923003" lon="-4.850056">
        <ele>311.926</ele>
        <time>2021-10-16T11:27:48Z</time>
      </trkpt>
      <trkpt lat="39.922795" lon="-4.850276">
        <ele>311.508</ele>
        <time>2021-10-16T11:27:49Z</time>
      </trkpt>
      <trkpt lat="39.922581" lon="-4.850501">
        <ele>311.008</ele>
        <time>2021-10-16T11:27:50Z</time>
      </trkpt>
      <trkpt lat="39.922175" lon="-4.850930">
        <ele>311.790</ele>
        <time>2021-10-16T11:27:52Z</time>
      </trkpt>
      <trkpt lat="39.921759" lon="-4.851367">
        <ele>310.878</ele>
        <time>2021-10-16T11:27:54Z</time>
      </trkpt>
      <trkpt lat="39.921344" lon="-4.851801">
        <ele>310.787</ele>
        <time>2021-10-16T11:27:56Z</time>
      </trkpt>
      <trkpt lat="39.920935" lon="-4.852242">
        <ele>310.221</ele>
        <time>2021-10-16T11:27:58Z</time>
      </trkpt>
      <trkpt lat="39.920522" lon="-4.852678">
        <ele>312.136</ele>
        <time>2021-10-16T11:28:00Z</time>
      </trkpt>
      <trkpt lat="39.920315" lon="-4.852896">
        <ele>312.185</ele>
        <time>2021-10-16T11:28:01Z</time>
      </trkpt>
      <trkpt lat="39.920110" lon="-4.853118">
        <ele>311.767</ele>
        <time>2021-10-16T11:28:02Z</time>
      </trkpt>
      <trkpt lat="39.919904" lon="-4.853341">
        <ele>312.684</ele>
        <time>2021-10-16T11:28:03Z</time>
      </trkpt>
      <trkpt lat="39.919698" lon="-4.853563">
        <ele>312.519</ele>
        <time>2021-10-16T11:28:04Z</time>
      </trkpt>
      <trkpt lat="39.919280" lon="-4.854016">
        <ele>312.009</ele>
        <time>2021-10-16T11:28:06Z</time>
      </trkpt>
      <trkpt lat="39.919065" lon="-4.854246">
        <ele>311.819</ele>
        <time>2021-10-16T11:28:07Z</time>
      </trkpt>
      <trkpt lat="39.918840" lon="-4.854484">
        <ele>311.908</ele>
        <time>2021-10-16T11:28:08Z</time>
      </trkpt>
      <trkpt lat="39.918405" lon="-4.854942">
        <ele>311.059</ele>
        <time>2021-10-16T11:28:10Z</time>
      </trkpt>
      <trkpt lat="39.918182" lon="-4.855179">
        <ele>311.547</ele>
        <time>2021-10-16T11:28:11Z</time>
      </trkpt>
      <trkpt lat="39.917736" lon="-4.855643">
        <ele>310.926</ele>
        <time>2021-10-16T11:28:13Z</time>
      </trkpt>
      <trkpt lat="39.917507" lon="-4.855884">
        <ele>311.540</ele>
        <time>2021-10-16T11:28:14Z</time>
      </trkpt>
      <trkpt lat="39.917082" lon="-4.856329">
        <ele>310.595</ele>
        <time>2021-10-16T11:28:16Z</time>
      </trkpt>
      <trkpt lat="39.916651" lon="-4.856785">
        <ele>310.934</ele>
        <time>2021-10-16T11:28:18Z</time>
      </trkpt>
      <trkpt lat="39.916224" lon="-4.857245">
        <ele>311.566</ele>
        <time>2021-10-16T11:28:20Z</time>
      </trkpt>
      <trkpt lat="39.915816" lon="-4.857684">
        <ele>310.663</ele>
        <time>2021-10-16T11:28:22Z</time>
      </trkpt>
      <trkpt lat="39.915398" lon="-4.858127">
        <ele>311.298</ele>
        <time>2021-10-16T11:28:24Z</time>
      </trkpt>
      <trkpt lat="39.914982" lon="-4.858568">
        <ele>311.115</ele>
        <time>2021-10-16T11:28:26Z</time>
      </trkpt>
      <trkpt lat="39.914593" lon="-4.858977">
        <ele>311.926</ele>
        <time>2021-10-16T11:28:28Z</time>
      </trkpt>
      <trkpt lat="39.914224" lon="-4.859368">
        <ele>311.008</ele>
        <time>2021-10-16T11:28:30Z</time>
      </trkpt>
      <trkpt lat="39.913846" lon="-4.859768">
        <ele>310.187</ele>
        <time>2021-10-16T11:28:32Z</time>
      </trkpt>
      <trkpt lat="39.913650" lon="-4.859970">
        <ele>309.995</ele>
        <time>2021-10-16T11:28:33Z</time>
      </trkpt>
      <trkpt lat="39.913267" lon="-4.860372">
        <ele>310.094</ele>
        <time>2021-10-16T11:28:35Z</time>
      </trkpt>
      <trkpt lat="39.913077" lon="-4.860570">
        <ele>309.918</ele>
        <time>2021-10-16T11:28:36Z</time>
      </trkpt>
      <trkpt lat="39.912893" lon="-4.860769">
        <ele>309.233</ele>
        <time>2021-10-16T11:28:37Z</time>
      </trkpt>
      <trkpt lat="39.912704" lon="-4.860976">
        <ele>308.832</ele>
        <time>2021-10-16T11:28:38Z</time>
      </trkpt>
      <trkpt lat="39.912342" lon="-4.861372">
        <ele>310.364</ele>
        <time>2021-10-16T11:28:40Z</time>
      </trkpt>
      <trkpt lat="39.912156" lon="-4.861573">
        <ele>308.511</ele>
        <time>2021-10-16T11:28:41Z</time>
      </trkpt>
      <trkpt lat="39.911783" lon="-4.861973">
        <ele>308.986</ele>
        <time>2021-10-16T11:28:43Z</time>
      </trkpt>
      <trkpt lat="39.911591" lon="-4.862180">
        <ele>309.060</ele>
        <time>2021-10-16T11:28:44Z</time>
      </trkpt>
      <trkpt lat="39.911217" lon="-4.862573">
        <ele>308.226</ele>
        <time>2021-10-16T11:28:46Z</time>
      </trkpt>
      <trkpt lat="39.911023" lon="-4.862776">
        <ele>308.508</ele>
        <time>2021-10-16T11:28:47Z</time>
      </trkpt>
      <trkpt lat="39.910827" lon="-4.862981">
        <ele>309.236</ele>
        <time>2021-10-16T11:28:48Z</time>
      </trkpt>
      <trkpt lat="39.910632" lon="-4.863190">
        <ele>309.954</ele>
        <time>2021-10-16T11:28:49Z</time>
      </trkpt>
      <trkpt lat="39.910429" lon="-4.863402">
        <ele>310.423</ele>
        <time>2021-10-16T11:28:50Z</time>
      </trkpt>
      <trkpt lat="39.910043" lon="-4.863817">
        <ele>309.467</ele>
        <time>2021-10-16T11:28:52Z</time>
      </trkpt>
      <trkpt lat="39.909846" lon="-4.864028">
        <ele>309.812</ele>
        <time>2021-10-16T11:28:53Z</time>
      </trkpt>
      <trkpt lat="39.909649" lon="-4.864238">
        <ele>309.981</ele>
        <time>2021-10-16T11:28:54Z</time>
      </trkpt>
      <trkpt lat="39.909254" lon="-4.864657">
        <ele>309.523</ele>
        <time>2021-10-16T11:28:56Z</time>
      </trkpt>
      <trkpt lat="39.909057" lon="-4.864867">
        <ele>309.260</ele>
        <time>2021-10-16T11:28:57Z</time>
      </trkpt>
      <trkpt lat="39.908664" lon="-4.865288">
        <ele>308.675</ele>
        <time>2021-10-16T11:28:59Z</time>
      </trkpt>
      <trkpt lat="39.908465" lon="-4.865500">
        <ele>308.628</ele>
        <time>2021-10-16T11:29:00Z</time>
      </trkpt>
      <trkpt lat="39.908265" lon="-4.865713">
        <ele>309.020</ele>
        <time>2021-10-16T11:29:01Z</time>
      </trkpt>
      <trkpt lat="39.908065" lon="-4.865926">
        <ele>309.008</ele>
        <time>2021-10-16T11:29:02Z</time>
      </trkpt>
      <trkpt lat="39.907658" lon="-4.866357">
        <ele>308.415</ele>
        <time>2021-10-16T11:29:04Z</time>
      </trkpt>
      <trkpt lat="39.907250" lon="-4.866791">
        <ele>310.033</ele>
        <time>2021-10-16T11:29:06Z</time>
      </trkpt>
      <trkpt lat="39.907045" lon="-4.867008">
        <ele>309.412</ele>
        <time>2021-10-16T11:29:07Z</time>
      </trkpt>
      <trkpt lat="39.906830" lon="-4.867231">
        <ele>308.996</ele>
        <time>2021-10-16T11:29:08Z</time>
      </trkpt>
      <trkpt lat="39.906424" lon="-4.867663">
        <ele>309.561</ele>
        <time>2021-10-16T11:29:10Z</time>
      </trkpt>
      <trkpt lat="39.906211" lon="-4.867884">
        <ele>309.520</ele>
        <time>2021-10-16T11:29:11Z</time>
      </trkpt>
      <trkpt lat="39.905787" lon="-4.868329">
        <ele>309.212</ele>
        <time>2021-10-16T11:29:13Z</time>
      </trkpt>
      <trkpt lat="39.905572" lon="-4.868558">
        <ele>309.819</ele>
        <time>2021-10-16T11:29:14Z</time>
      </trkpt>
      <trkpt lat="39.905159" lon="-4.869002">
        <ele>309.676</ele>
        <time>2021-10-16T11:29:16Z</time>
      </trkpt>
      <trkpt lat="39.904738" lon="-4.869457">
        <ele>309.590</ele>
        <time>2021-10-16T11:29:18Z</time>
      </trkpt>
      <trkpt lat="39.904526" lon="-4.869681">
        <ele>309.319</ele>
        <time>2021-10-16T11:29:19Z</time>
      </trkpt>
      <trkpt lat="39.904310" lon="-4.869904">
        <ele>310.108</ele>
        <time>2021-10-16T11:29:20Z</time>
      </trkpt>
      <trkpt lat="39.903926" lon="-4.870303">
        <ele>310.565</ele>
        <time>2021-10-16T11:29:22Z</time>
      </trkpt>
      <trkpt lat="39.903733" lon="-4.870495">
        <ele>311.173</ele>
        <time>2021-10-16T11:29:23Z</time>
      </trkpt>
      <trkpt lat="39.903539" lon="-4.870677">
        <ele>311.262</ele>
        <time>2021-10-16T11:29:24Z</time>
      </trkpt>
      <trkpt lat="39.903142" lon="-4.871018">
        <ele>311.956</ele>
        <time>2021-10-16T11:29:26Z</time>
      </trkpt>
      <trkpt lat="39.902945" lon="-4.871186">
        <ele>312.311</ele>
        <time>2021-10-16T11:29:27Z</time>
      </trkpt>
      <trkpt lat="39.902571" lon="-4.871506">
        <ele>312.860</ele>
        <time>2021-10-16T11:29:29Z</time>
      </trkpt>
      <trkpt lat="39.902208" lon="-4.871846">
        <ele>313.652</ele>
        <time>2021-10-16T11:29:31Z</time>
      </trkpt>
      <trkpt lat="39.902027" lon="-4.872032">
        <ele>313.469</ele>
        <time>2021-10-16T11:29:32Z</time>
      </trkpt>
      <trkpt lat="39.901674" lon="-4.872425">
        <ele>313.332</ele>
        <time>2021-10-16T11:29:34Z</time>
      </trkpt>
      <trkpt lat="39.901488" lon="-4.872633">
        <ele>313.992</ele>
        <time>2021-10-16T11:29:35Z</time>
      </trkpt>
      <trkpt lat="39.901298" lon="-4.872842">
        <ele>313.311</ele>
        <time>2021-10-16T11:29:36Z</time>
      </trkpt>
      <trkpt lat="39.900902" lon="-4.873276">
        <ele>312.108</ele>
        <time>2021-10-16T11:29:38Z</time>
      </trkpt>
      <trkpt lat="39.900500" lon="-4.873705">
        <ele>313.161</ele>
        <time>2021-10-16T11:29:40Z</time>
      </trkpt>
      <trkpt lat="39.900288" lon="-4.873930">
        <ele>311.859</ele>
        <time>2021-10-16T11:29:41Z</time>
      </trkpt>
      <trkpt lat="39.899851" lon="-4.874393">
        <ele>312.478</ele>
        <time>2021-10-16T11:29:43Z</time>
      </trkpt>
      <trkpt lat="39.899624" lon="-4.874638">
        <ele>312.062</ele>
        <time>2021-10-16T11:29:44Z</time>
      </trkpt>
      <trkpt lat="39.899191" lon="-4.875116">
        <ele>311.717</ele>
        <time>2021-10-16T11:29:46Z</time>
      </trkpt>
      <trkpt lat="39.898971" lon="-4.875357">
        <ele>311.266</ele>
        <time>2021-10-16T11:29:47Z</time>
      </trkpt>
      <trkpt lat="39.898755" lon="-4.875593">
        <ele>310.068</ele>
        <time>2021-10-16T11:29:48Z</time>
      </trkpt>
      <trkpt lat="39.898547" lon="-4.875814">
        <ele>310.545</ele>
        <time>2021-10-16T11:29:49Z</time>
      </trkpt>
      <trkpt lat="39.898342" lon="-4.876034">
        <ele>311.793</ele>
        <time>2021-10-16T11:29:50Z</time>
      </trkpt>
      <trkpt lat="39.897953" lon="-4.876450">
        <ele>311.265</ele>
        <time>2021-10-16T11:29:52Z</time>
      </trkpt>
      <trkpt lat="39.897549" lon="-4.876889">
        <ele>310.821</ele>
        <time>2021-10-16T11:29:54Z</time>
      </trkpt>
      <trkpt lat="39.897346" lon="-4.877112">
        <ele>310.408</ele>
        <time>2021-10-16T11:29:55Z</time>
      </trkpt>
      <trkpt lat="39.897132" lon="-4.877346">
        <ele>310.897</ele>
        <time>2021-10-16T11:29:56Z</time>
      </trkpt>
      <trkpt lat="39.896724" lon="-4.877785">
        <ele>309.585</ele>
        <time>2021-10-16T11:29:58Z</time>
      </trkpt>
      <trkpt lat="39.896314" lon="-4.878234">
        <ele>309.144</ele>
        <time>2021-10-16T11:30:00Z</time>
      </trkpt>
      <trkpt lat="39.895898" lon="-4.878686">
        <ele>309.758</ele>
        <time>2021-10-16T11:30:02Z</time>
      </trkpt>
      <trkpt lat="39.895491" lon="-4.879131">
        <ele>309.663</ele>
        <time>2021-10-16T11:30:04Z</time>
      </trkpt>
      <trkpt lat="39.895080" lon="-4.879617">
        <ele>310.372</ele>
        <time>2021-10-16T11:30:06Z</time>
      </trkpt>
      <trkpt lat="39.894643" lon="-4.880145">
        <ele>310.384</ele>
        <time>2021-10-16T11:30:08Z</time>
      </trkpt>
      <trkpt lat="39.894174" lon="-4.880666">
        <ele>310.441</ele>
        <time>2021-10-16T11:30:10Z</time>
      </trkpt>
      <trkpt lat="39.893657" lon="-4.881213">
        <ele>310.023</ele>
        <time>2021-10-16T11:30:12Z</time>
      </trkpt>
      <trkpt lat="39.893393" lon="-4.881492">
        <ele>310.483</ele>
        <time>2021-10-16T11:30:13Z</time>
      </trkpt>
      <trkpt lat="39.893134" lon="-4.881765">
        <ele>310.311</ele>
        <time>2021-10-16T11:30:14Z</time>
      </trkpt>
      <trkpt lat="39.892632" lon="-4.882299">
        <ele>309.208</ele>
        <time>2021-10-16T11:30:16Z</time>
      </trkpt>
      <trkpt lat="39.892374" lon="-4.882576">
        <ele>310.060</ele>
        <time>2021-10-16T11:30:17Z</time>
      </trkpt>
      <trkpt lat="39.891886" lon="-4.883105">
        <ele>310.298</ele>
        <time>2021-10-16T11:30:19Z</time>
      </trkpt>
      <trkpt lat="39.891655" lon="-4.883355">
        <ele>309.497</ele>
        <time>2021-10-16T11:30:20Z</time>
      </trkpt>
      <trkpt lat="39.891233" lon="-4.883798">
        <ele>308.421</ele>
        <time>2021-10-16T11:30:22Z</time>
      </trkpt>
      <trkpt lat="39.891005" lon="-4.884015">
        <ele>308.336</ele>
        <time>2021-10-16T11:30:23Z</time>
      </trkpt>
      <trkpt lat="39.890764" lon="-4.884220">
        <ele>308.395</ele>
        <time>2021-10-16T11:30:24Z</time>
      </trkpt>
      <trkpt lat="39.890248" lon="-4.884629">
        <ele>307.937</ele>
        <time>2021-10-16T11:30:26Z</time>
      </trkpt>
      <trkpt lat="39.889742" lon="-4.885105">
        <ele>307.834</ele>
        <time>2021-10-16T11:30:28Z</time>
      </trkpt>
      <trkpt lat="39.889231" lon="-4.885538">
        <ele>307.611</ele>
        <time>2021-10-16T11:30:30Z</time>
      </trkpt>
      <trkpt lat="39.888745" lon="-4.885927">
        <ele>308.121</ele>
        <time>2021-10-16T11:30:32Z</time>
      </trkpt>
      <trkpt lat="39.888299" lon="-4.886310">
        <ele>308.303</ele>
        <time>2021-10-16T11:30:34Z</time>
      </trkpt>
      <trkpt lat="39.888084" lon="-4.886496">
        <ele>308.608</ele>
        <time>2021-10-16T11:30:35Z</time>
      </trkpt>
      <trkpt lat="39.887621" lon="-4.886872">
        <ele>308.999</ele>
        <time>2021-10-16T11:30:37Z</time>
      </trkpt>
      <trkpt lat="39.887356" lon="-4.887072">
        <ele>308.857</ele>
        <time>2021-10-16T11:30:38Z</time>
      </trkpt>
      <trkpt lat="39.886824" lon="-4.887513">
        <ele>309.026</ele>
        <time>2021-10-16T11:30:40Z</time>
      </trkpt>
      <trkpt lat="39.886299" lon="-4.887981">
        <ele>308.550</ele>
        <time>2021-10-16T11:30:42Z</time>
      </trkpt>
      <trkpt lat="39.886054" lon="-4.888184">
        <ele>308.845</ele>
        <time>2021-10-16T11:30:43Z</time>
      </trkpt>
      <trkpt lat="39.885819" lon="-4.888384">
        <ele>309.234</ele>
        <time>2021-10-16T11:30:44Z</time>
      </trkpt>
      <trkpt lat="39.885394" lon="-4.888722">
        <ele>308.586</ele>
        <time>2021-10-16T11:30:46Z</time>
      </trkpt>
      <trkpt lat="39.884934" lon="-4.888984">
        <ele>309.753</ele>
        <time>2021-10-16T11:30:48Z</time>
      </trkpt>
      <trkpt lat="39.884668" lon="-4.889066">
        <ele>310.837</ele>
        <time>2021-10-16T11:30:49Z</time>
      </trkpt>
      <trkpt lat="39.884371" lon="-4.889129">
        <ele>312.649</ele>
        <time>2021-10-16T11:30:50Z</time>
      </trkpt>
      <trkpt lat="39.883772" lon="-4.889249">
        <ele>315.513</ele>
        <time>2021-10-16T11:30:52Z</time>
      </trkpt>
      <trkpt lat="39.883139" lon="-4.889388">
        <ele>319.208</ele>
        <time>2021-10-16T11:30:54Z</time>
      </trkpt>
      <trkpt lat="39.882494" lon="-4.889532">
        <ele>324.771</ele>
        <time>2021-10-16T11:30:56Z</time>
      </trkpt>
      <trkpt lat="39.882172" lon="-4.889607">
        <ele>326.739</ele>
        <time>2021-10-16T11:30:57Z</time>
      </trkpt>
      <trkpt lat="39.881529" lon="-4.889753">
        <ele>331.188</ele>
        <time>2021-10-16T11:30:59Z</time>
      </trkpt>
      <trkpt lat="39.881217" lon="-4.889827">
        <ele>332.292</ele>
        <time>2021-10-16T11:31:00Z</time>
      </trkpt>
      <trkpt lat="39.880634" lon="-4.889960">
        <ele>333.767</ele>
        <time>2021-10-16T11:31:02Z</time>
      </trkpt>
      <trkpt lat="39.880356" lon="-4.890024">
        <ele>333.596</ele>
        <time>2021-10-16T11:31:03Z</time>
      </trkpt>
      <trkpt lat="39.879808" lon="-4.890150">
        <ele>332.788</ele>
        <time>2021-10-16T11:31:05Z</time>
      </trkpt>
      <trkpt lat="39.879533" lon="-4.890210">
        <ele>332.685</ele>
        <time>2021-10-16T11:31:06Z</time>
      </trkpt>
      <trkpt lat="39.878980" lon="-4.890327">
        <ele>331.267</ele>
        <time>2021-10-16T11:31:08Z</time>
      </trkpt>
      <trkpt lat="39.878432" lon="-4.890379">
        <ele>330.581</ele>
        <time>2021-10-16T11:31:10Z</time>
      </trkpt>
      <trkpt lat="39.878146" lon="-4.890365">
        <ele>329.119</ele>
        <time>2021-10-16T11:31:11Z</time>
      </trkpt>
      <trkpt lat="39.877864" lon="-4.890325">
        <ele>328.408</ele>
        <time>2021-10-16T11:31:12Z</time>
      </trkpt>
      <trkpt lat="39.877587" lon="-4.890266">
        <ele>327.594</ele>
        <time>2021-10-16T11:31:13Z</time>
      </trkpt>
      <trkpt lat="39.877316" lon="-4.890193">
        <ele>326.892</ele>
        <time>2021-10-16T11:31:14Z</time>
      </trkpt>
      <trkpt lat="39.876843" lon="-4.890059">
        <ele>327.261</ele>
        <time>2021-10-16T11:31:16Z</time>
      </trkpt>
      <trkpt lat="39.876618" lon="-4.889978">
        <ele>326.655</ele>
        <time>2021-10-16T11:31:17Z</time>
      </trkpt>
      <trkpt lat="39.876209" lon="-4.889709">
        <ele>328.090</ele>
        <time>2021-10-16T11:31:19Z</time>
      </trkpt>
      <trkpt lat="39.876021" lon="-4.889498">
        <ele>327.969</ele>
        <time>2021-10-16T11:31:20Z</time>
      </trkpt>
      <trkpt lat="39.875693" lon="-4.889006">
        <ele>328.061</ele>
        <time>2021-10-16T11:31:22Z</time>
      </trkpt>
      <trkpt lat="39.875378" lon="-4.888478">
        <ele>329.248</ele>
        <time>2021-10-16T11:31:24Z</time>
      </trkpt>
      <trkpt lat="39.875070" lon="-4.887971">
        <ele>330.991</ele>
        <time>2021-10-16T11:31:26Z</time>
      </trkpt>
      <trkpt lat="39.874918" lon="-4.887721">
        <ele>331.481</ele>
        <time>2021-10-16T11:31:27Z</time>
      </trkpt>
      <trkpt lat="39.874611" lon="-4.887224">
        <ele>332.019</ele>
        <time>2021-10-16T11:31:29Z</time>
      </trkpt>
      <trkpt lat="39.874293" lon="-4.886738">
        <ele>332.408</ele>
        <time>2021-10-16T11:31:31Z</time>
      </trkpt>
      <trkpt lat="39.873945" lon="-4.886299">
        <ele>333.437</ele>
        <time>2021-10-16T11:31:33Z</time>
      </trkpt>
      <trkpt lat="39.873747" lon="-4.886108">
        <ele>333.925</ele>
        <time>2021-10-16T11:31:34Z</time>
      </trkpt>
      <trkpt lat="39.873300" lon="-4.885741">
        <ele>333.714</ele>
        <time>2021-10-16T11:31:36Z</time>
      </trkpt>
      <trkpt lat="39.873058" lon="-4.885560">
        <ele>335.288</ele>
        <time>2021-10-16T11:31:37Z</time>
      </trkpt>
      <trkpt lat="39.872806" lon="-4.885372">
        <ele>336.693</ele>
        <time>2021-10-16T11:31:38Z</time>
      </trkpt>
      <trkpt lat="39.872300" lon="-4.885002">
        <ele>340.292</ele>
        <time>2021-10-16T11:31:40Z</time>
      </trkpt>
      <trkpt lat="39.872032" lon="-4.884802">
        <ele>342.094</ele>
        <time>2021-10-16T11:31:41Z</time>
      </trkpt>
      <trkpt lat="39.871759" lon="-4.884594">
        <ele>342.771</ele>
        <time>2021-10-16T11:31:42Z</time>
      </trkpt>
      <trkpt lat="39.871174" lon="-4.884163">
        <ele>343.475</ele>
        <time>2021-10-16T11:31:44Z</time>
      </trkpt>
      <trkpt lat="39.870626" lon="-4.883760">
        <ele>343.328</ele>
        <time>2021-10-16T11:31:46Z</time>
      </trkpt>
      <trkpt lat="39.870105" lon="-4.883377">
        <ele>346.220</ele>
        <time>2021-10-16T11:31:48Z</time>
      </trkpt>
      <trkpt lat="39.869846" lon="-4.883186">
        <ele>347.908</ele>
        <time>2021-10-16T11:31:49Z</time>
      </trkpt>
      <trkpt lat="39.869582" lon="-4.882991">
        <ele>348.615</ele>
        <time>2021-10-16T11:31:50Z</time>
      </trkpt>
      <trkpt lat="39.869090" lon="-4.882628">
        <ele>350.033</ele>
        <time>2021-10-16T11:31:52Z</time>
      </trkpt>
      <trkpt lat="39.868600" lon="-4.882266">
        <ele>354.292</ele>
        <time>2021-10-16T11:31:54Z</time>
      </trkpt>
      <trkpt lat="39.868362" lon="-4.882089">
        <ele>354.226</ele>
        <time>2021-10-16T11:31:55Z</time>
      </trkpt>
      <trkpt lat="39.868120" lon="-4.881910">
        <ele>355.481</ele>
        <time>2021-10-16T11:31:56Z</time>
      </trkpt>
      <trkpt lat="39.867685" lon="-4.881586">
        <ele>356.950</ele>
        <time>2021-10-16T11:31:58Z</time>
      </trkpt>
      <trkpt lat="39.867470" lon="-4.881420">
        <ele>356.712</ele>
        <time>2021-10-16T11:31:59Z</time>
      </trkpt>
      <trkpt lat="39.867031" lon="-4.881098">
        <ele>357.259</ele>
        <time>2021-10-16T11:32:01Z</time>
      </trkpt>
      <trkpt lat="39.866789" lon="-4.880954">
        <ele>357.057</ele>
        <time>2021-10-16T11:32:02Z</time>
      </trkpt>
      <trkpt lat="39.866295" lon="-4.880803">
        <ele>357.200</ele>
        <time>2021-10-16T11:32:04Z</time>
      </trkpt>
      <trkpt lat="39.866021" lon="-4.880773">
        <ele>356.520</ele>
        <time>2021-10-16T11:32:05Z</time>
      </trkpt>
      <trkpt lat="39.865460" lon="-4.880717">
        <ele>354.808</ele>
        <time>2021-10-16T11:32:07Z</time>
      </trkpt>
      <trkpt lat="39.865174" lon="-4.880674">
        <ele>354.963</ele>
        <time>2021-10-16T11:32:08Z</time>
      </trkpt>
      <trkpt lat="39.864672" lon="-4.880530">
        <ele>356.481</ele>
        <time>2021-10-16T11:32:10Z</time>
      </trkpt>
      <trkpt lat="39.864182" lon="-4.880238">
        <ele>355.710</ele>
        <time>2021-10-16T11:32:12Z</time>
      </trkpt>
      <trkpt lat="39.863671" lon="-4.879838">
        <ele>356.094</ele>
        <time>2021-10-16T11:32:14Z</time>
      </trkpt>
      <trkpt lat="39.863151" lon="-4.879451">
        <ele>355.559</ele>
        <time>2021-10-16T11:32:16Z</time>
      </trkpt>
      <trkpt lat="39.862891" lon="-4.879273">
        <ele>355.158</ele>
        <time>2021-10-16T11:32:17Z</time>
      </trkpt>
      <trkpt lat="39.862354" lon="-4.878990">
        <ele>355.960</ele>
        <time>2021-10-16T11:32:19Z</time>
      </trkpt>
      <trkpt lat="39.862065" lon="-4.878882">
        <ele>355.737</ele>
        <time>2021-10-16T11:32:20Z</time>
      </trkpt>
      <trkpt lat="39.861503" lon="-4.878711">
        <ele>357.646</ele>
        <time>2021-10-16T11:32:22Z</time>
      </trkpt>
      <trkpt lat="39.861215" lon="-4.878625">
        <ele>358.088</ele>
        <time>2021-10-16T11:32:23Z</time>
      </trkpt>
      <trkpt lat="39.860930" lon="-4.878538">
        <ele>358.316</ele>
        <time>2021-10-16T11:32:24Z</time>
      </trkpt>
      <trkpt lat="39.860646" lon="-4.878450">
        <ele>358.808</ele>
        <time>2021-10-16T11:32:25Z</time>
      </trkpt>
      <trkpt lat="39.860355" lon="-4.878360">
        <ele>359.622</ele>
        <time>2021-10-16T11:32:26Z</time>
      </trkpt>
      <trkpt lat="39.859815" lon="-4.878180">
        <ele>360.280</ele>
        <time>2021-10-16T11:32:28Z</time>
      </trkpt>
      <trkpt lat="39.859305" lon="-4.877905">
        <ele>361.159</ele>
        <time>2021-10-16T11:32:30Z</time>
      </trkpt>
      <trkpt lat="39.859073" lon="-4.877711">
        <ele>361.613</ele>
        <time>2021-10-16T11:32:31Z</time>
      </trkpt>
      <trkpt lat="39.858628" lon="-4.877294">
        <ele>363.778</ele>
        <time>2021-10-16T11:32:33Z</time>
      </trkpt>
      <trkpt lat="39.858184" lon="-4.876898">
        <ele>366.367</ele>
        <time>2021-10-16T11:32:35Z</time>
      </trkpt>
      <trkpt lat="39.857735" lon="-4.876527">
        <ele>370.269</ele>
        <time>2021-10-16T11:32:37Z</time>
      </trkpt>
      <trkpt lat="39.857497" lon="-4.876360">
        <ele>370.876</ele>
        <time>2021-10-16T11:32:38Z</time>
      </trkpt>
      <trkpt lat="39.857038" lon="-4.876082">
        <ele>373.556</ele>
        <time>2021-10-16T11:32:40Z</time>
      </trkpt>
      <trkpt lat="39.856805" lon="-4.875954">
        <ele>374.559</ele>
        <time>2021-10-16T11:32:41Z</time>
      </trkpt>
      <trkpt lat="39.856573" lon="-4.875834">
        <ele>375.414</ele>
        <time>2021-10-16T11:32:42Z</time>
      </trkpt>
      <trkpt lat="39.856112" lon="-4.875641">
        <ele>378.008</ele>
        <time>2021-10-16T11:32:44Z</time>
      </trkpt>
      <trkpt lat="39.855702" lon="-4.875503">
        <ele>378.883</ele>
        <time>2021-10-16T11:32:46Z</time>
      </trkpt>
      <trkpt lat="39.855507" lon="-4.875443">
        <ele>379.861</ele>
        <time>2021-10-16T11:32:47Z</time>
      </trkpt>
      <trkpt lat="39.855120" lon="-4.875366">
        <ele>381.440</ele>
        <time>2021-10-16T11:32:49Z</time>
      </trkpt>
      <trkpt lat="39.854900" lon="-4.875344">
        <ele>381.544</ele>
        <time>2021-10-16T11:32:50Z</time>
      </trkpt>
      <trkpt lat="39.854438" lon="-4.875304">
        <ele>381.059</ele>
        <time>2021-10-16T11:32:52Z</time>
      </trkpt>
      <trkpt lat="39.854183" lon="-4.875285">
        <ele>381.778</ele>
        <time>2021-10-16T11:32:53Z</time>
      </trkpt>
      <trkpt lat="39.853647" lon="-4.875241">
        <ele>383.950</ele>
        <time>2021-10-16T11:32:55Z</time>
      </trkpt>
      <trkpt lat="39.853103" lon="-4.875198">
        <ele>385.167</ele>
        <time>2021-10-16T11:32:57Z</time>
      </trkpt>
      <trkpt lat="39.852582" lon="-4.875156">
        <ele>387.367</ele>
        <time>2021-10-16T11:32:59Z</time>
      </trkpt>
      <trkpt lat="39.852324" lon="-4.875131">
        <ele>388.281</ele>
        <time>2021-10-16T11:33:00Z</time>
      </trkpt>
      <trkpt lat="39.851820" lon="-4.875094">
        <ele>389.619</ele>
        <time>2021-10-16T11:33:02Z</time>
      </trkpt>
      <trkpt lat="39.851352" lon="-4.875062">
        <ele>391.508</ele>
        <time>2021-10-16T11:33:04Z</time>
      </trkpt>
      <trkpt lat="39.850907" lon="-4.875067">
        <ele>393.094</ele>
        <time>2021-10-16T11:33:06Z</time>
      </trkpt>
      <trkpt lat="39.850668" lon="-4.875101">
        <ele>393.772</ele>
        <time>2021-10-16T11:33:07Z</time>
      </trkpt>
      <trkpt lat="39.850413" lon="-4.875167">
        <ele>395.051</ele>
        <time>2021-10-16T11:33:08Z</time>
      </trkpt>
      <trkpt lat="39.849915" lon="-4.875327">
        <ele>396.535</ele>
        <time>2021-10-16T11:33:10Z</time>
      </trkpt>
      <trkpt lat="39.849659" lon="-4.875402">
        <ele>397.360</ele>
        <time>2021-10-16T11:33:11Z</time>
      </trkpt>
      <trkpt lat="39.849407" lon="-4.875475">
        <ele>398.289</ele>
        <time>2021-10-16T11:33:12Z</time>
      </trkpt>
      <trkpt lat="39.848907" lon="-4.875621">
        <ele>399.871</ele>
        <time>2021-10-16T11:33:14Z</time>
      </trkpt>
      <trkpt lat="39.848432" lon="-4.875672">
        <ele>402.548</ele>
        <time>2021-10-16T11:33:16Z</time>
      </trkpt>
      <trkpt lat="39.848190" lon="-4.875638">
        <ele>402.884</ele>
        <time>2021-10-16T11:33:17Z</time>
      </trkpt>
      <trkpt lat="39.847955" lon="-4.875551">
        <ele>403.907</ele>
        <time>2021-10-16T11:33:18Z</time>
      </trkpt>
      <trkpt lat="39.847507" lon="-4.875282">
        <ele>406.617</ele>
        <time>2021-10-16T11:33:20Z</time>
      </trkpt>
      <trkpt lat="39.847097" lon="-4.875044">
        <ele>409.408</ele>
        <time>2021-10-16T11:33:22Z</time>
      </trkpt>
      <trkpt lat="39.846698" lon="-4.874810">
        <ele>412.376</ele>
        <time>2021-10-16T11:33:24Z</time>
      </trkpt>
      <trkpt lat="39.846508" lon="-4.874661">
        <ele>414.184</ele>
        <time>2021-10-16T11:33:25Z</time>
      </trkpt>
      <trkpt lat="39.846323" lon="-4.874483">
        <ele>416.933</ele>
        <time>2021-10-16T11:33:26Z</time>
      </trkpt>
      <trkpt lat="39.845969" lon="-4.874099">
        <ele>417.637</ele>
        <time>2021-10-16T11:33:28Z</time>
      </trkpt>
      <trkpt lat="39.845789" lon="-4.873904">
        <ele>418.592</ele>
        <time>2021-10-16T11:33:29Z</time>
      </trkpt>
      <trkpt lat="39.845611" lon="-4.873711">
        <ele>419.941</ele>
        <time>2021-10-16T11:33:30Z</time>
      </trkpt>
      <trkpt lat="39.845257" lon="-4.873331">
        <ele>422.663</ele>
        <time>2021-10-16T11:33:32Z</time>
      </trkpt>
      <trkpt lat="39.844907" lon="-4.872982">
        <ele>423.870</ele>
        <time>2021-10-16T11:33:34Z</time>
      </trkpt>
      <trkpt lat="39.844521" lon="-4.872672">
        <ele>424.126</ele>
        <time>2021-10-16T11:33:36Z</time>
      </trkpt>
      <trkpt lat="39.844083" lon="-4.872378">
        <ele>424.047</ele>
        <time>2021-10-16T11:33:38Z</time>
      </trkpt>
      <trkpt lat="39.843616" lon="-4.872076">
        <ele>422.711</ele>
        <time>2021-10-16T11:33:40Z</time>
      </trkpt>
      <trkpt lat="39.843369" lon="-4.871915">
        <ele>421.808</ele>
        <time>2021-10-16T11:33:41Z</time>
      </trkpt>
      <trkpt lat="39.843122" lon="-4.871754">
        <ele>421.220</ele>
        <time>2021-10-16T11:33:42Z</time>
      </trkpt>
      <trkpt lat="39.842879" lon="-4.871590">
        <ele>421.878</ele>
        <time>2021-10-16T11:33:43Z</time>
      </trkpt>
      <trkpt lat="39.842632" lon="-4.871422">
        <ele>422.037</ele>
        <time>2021-10-16T11:33:44Z</time>
      </trkpt>
      <trkpt lat="39.842187" lon="-4.871127">
        <ele>420.371</ele>
        <time>2021-10-16T11:33:46Z</time>
      </trkpt>
      <trkpt lat="39.841969" lon="-4.870985">
        <ele>420.536</ele>
        <time>2021-10-16T11:33:47Z</time>
      </trkpt>
      <trkpt lat="39.841749" lon="-4.870835">
        <ele>421.135</ele>
        <time>2021-10-16T11:33:48Z</time>
      </trkpt>
      <trkpt lat="39.841291" lon="-4.870523">
        <ele>420.547</ele>
        <time>2021-10-16T11:33:50Z</time>
      </trkpt>
      <trkpt lat="39.840852" lon="-4.870224">
        <ele>421.524</ele>
        <time>2021-10-16T11:33:52Z</time>
      </trkpt>
      <trkpt lat="39.840454" lon="-4.869961">
        <ele>423.222</ele>
        <time>2021-10-16T11:33:54Z</time>
      </trkpt>
      <trkpt lat="39.840108" lon="-4.869739">
        <ele>423.662</ele>
        <time>2021-10-16T11:33:56Z</time>
      </trkpt>
      <trkpt lat="39.839815" lon="-4.869576">
        <ele>425.808</ele>
        <time>2021-10-16T11:33:58Z</time>
      </trkpt>
      <trkpt lat="39.839516" lon="-4.869490">
        <ele>425.708</ele>
        <time>2021-10-16T11:34:00Z</time>
      </trkpt>
      <trkpt lat="39.839354" lon="-4.869489">
        <ele>425.040</ele>
        <time>2021-10-16T11:34:01Z</time>
      </trkpt>
      <trkpt lat="39.839180" lon="-4.869513">
        <ele>424.278</ele>
        <time>2021-10-16T11:34:02Z</time>
      </trkpt>
      <trkpt lat="39.838840" lon="-4.869590">
        <ele>421.937</ele>
        <time>2021-10-16T11:34:04Z</time>
      </trkpt>
      <trkpt lat="39.838517" lon="-4.869659">
        <ele>419.211</ele>
        <time>2021-10-16T11:34:06Z</time>
      </trkpt>
      <trkpt lat="39.838349" lon="-4.869690">
        <ele>417.966</ele>
        <time>2021-10-16T11:34:07Z</time>
      </trkpt>
      <trkpt lat="39.838176" lon="-4.869722">
        <ele>416.715</ele>
        <time>2021-10-16T11:34:08Z</time>
      </trkpt>
      <trkpt lat="39.837841" lon="-4.869788">
        <ele>414.787</ele>
        <time>2021-10-16T11:34:10Z</time>
      </trkpt>
      <trkpt lat="39.837504" lon="-4.869854">
        <ele>413.874</ele>
        <time>2021-10-16T11:34:12Z</time>
      </trkpt>
      <trkpt lat="39.837333" lon="-4.869887">
        <ele>413.131</ele>
        <time>2021-10-16T11:34:13Z</time>
      </trkpt>
      <trkpt lat="39.837155" lon="-4.869921">
        <ele>413.661</ele>
        <time>2021-10-16T11:34:14Z</time>
      </trkpt>
      <trkpt lat="39.836809" lon="-4.869987">
        <ele>411.507</ele>
        <time>2021-10-16T11:34:16Z</time>
      </trkpt>
      <trkpt lat="39.836452" lon="-4.870055">
        <ele>411.208</ele>
        <time>2021-10-16T11:34:18Z</time>
      </trkpt>
      <trkpt lat="39.836280" lon="-4.870089">
        <ele>411.031</ele>
        <time>2021-10-16T11:34:19Z</time>
      </trkpt>
      <trkpt lat="39.836110" lon="-4.870121">
        <ele>411.649</ele>
        <time>2021-10-16T11:34:20Z</time>
      </trkpt>
      <trkpt lat="39.835831" lon="-4.870134">
        <ele>412.228</ele>
        <time>2021-10-16T11:34:22Z</time>
      </trkpt>
      <trkpt lat="39.835690" lon="-4.870098">
        <ele>412.352</ele>
        <time>2021-10-16T11:34:23Z</time>
      </trkpt>
      <trkpt lat="39.835427" lon="-4.869910">
        <ele>413.017</ele>
        <time>2021-10-16T11:34:25Z</time>
      </trkpt>
      <trkpt lat="39.835308" lon="-4.869763">
        <ele>413.126</ele>
        <time>2021-10-16T11:34:26Z</time>
      </trkpt>
      <trkpt lat="39.835092" lon="-4.869450">
        <ele>412.378</ele>
        <time>2021-10-16T11:34:28Z</time>
      </trkpt>
      <trkpt lat="39.834889" lon="-4.869169">
        <ele>414.115</ele>
        <time>2021-10-16T11:34:30Z</time>
      </trkpt>
      <trkpt lat="39.834685" lon="-4.868921">
        <ele>413.594</ele>
        <time>2021-10-16T11:34:32Z</time>
      </trkpt>
      <trkpt lat="39.834446" lon="-4.868732">
        <ele>413.457</ele>
        <time>2021-10-16T11:34:34Z</time>
      </trkpt>
      <trkpt lat="39.834158" lon="-4.868656">
        <ele>415.322</ele>
        <time>2021-10-16T11:34:36Z</time>
      </trkpt>
      <trkpt lat="39.833870" lon="-4.868731">
        <ele>415.408</ele>
        <time>2021-10-16T11:34:38Z</time>
      </trkpt>
      <trkpt lat="39.833605" lon="-4.868890">
        <ele>415.027</ele>
        <time>2021-10-16T11:34:40Z</time>
      </trkpt>
      <trkpt lat="39.833464" lon="-4.868976">
        <ele>414.815</ele>
        <time>2021-10-16T11:34:41Z</time>
      </trkpt>
      <trkpt lat="39.833167" lon="-4.869149">
        <ele>416.434</ele>
        <time>2021-10-16T11:34:43Z</time>
      </trkpt>
      <trkpt lat="39.833009" lon="-4.869239">
        <ele>415.448</ele>
        <time>2021-10-16T11:34:44Z</time>
      </trkpt>
      <trkpt lat="39.832703" lon="-4.869404">
        <ele>417.553</ele>
        <time>2021-10-16T11:34:46Z</time>
      </trkpt>
      <trkpt lat="39.832391" lon="-4.869564">
        <ele>416.172</ele>
        <time>2021-10-16T11:34:48Z</time>
      </trkpt>
      <trkpt lat="39.832097" lon="-4.869707">
        <ele>416.454</ele>
        <time>2021-10-16T11:34:50Z</time>
      </trkpt>
      <trkpt lat="39.831820" lon="-4.869819">
        <ele>414.151</ele>
        <time>2021-10-16T11:34:52Z</time>
      </trkpt>
      <trkpt lat="39.831544" lon="-4.869928">
        <ele>412.593</ele>
        <time>2021-10-16T11:34:54Z</time>
      </trkpt>
      <trkpt lat="39.831269" lon="-4.870041">
        <ele>410.265</ele>
        <time>2021-10-16T11:34:56Z</time>
      </trkpt>
      <trkpt lat="39.831003" lon="-4.870154">
        <ele>408.921</ele>
        <time>2021-10-16T11:34:58Z</time>
      </trkpt>
      <trkpt lat="39.830712" lon="-4.870270">
        <ele>407.208</ele>
        <time>2021-10-16T11:35:00Z</time>
      </trkpt>
      <trkpt lat="39.830567" lon="-4.870316">
        <ele>407.127</ele>
        <time>2021-10-16T11:35:01Z</time>
      </trkpt>
      <trkpt lat="39.830420" lon="-4.870350">
        <ele>407.015</ele>
        <time>2021-10-16T11:35:02Z</time>
      </trkpt>
      <trkpt lat="39.830146" lon="-4.870364">
        <ele>405.914</ele>
        <time>2021-10-16T11:35:04Z</time>
      </trkpt>
      <trkpt lat="39.830002" lon="-4.870345">
        <ele>406.548</ele>
        <time>2021-10-16T11:35:05Z</time>
      </trkpt>
      <trkpt lat="39.829657" lon="-4.870238">
        <ele>403.253</ele>
        <time>2021-10-16T11:35:07Z</time>
      </trkpt>
      <trkpt lat="39.829440" lon="-4.870136">
        <ele>401.952</ele>
        <time>2021-10-16T11:35:08Z</time>
      </trkpt>
      <trkpt lat="39.828954" lon="-4.869886">
        <ele>400.844</ele>
        <time>2021-10-16T11:35:10Z</time>
      </trkpt>
      <trkpt lat="39.828674" lon="-4.869738">
        <ele>399.291</ele>
        <time>2021-10-16T11:35:11Z</time>
      </trkpt>
      <trkpt lat="39.828101" lon="-4.869453">
        <ele>396.412</ele>
        <time>2021-10-16T11:35:13Z</time>
      </trkpt>
      <trkpt lat="39.827806" lon="-4.869314">
        <ele>395.132</ele>
        <time>2021-10-16T11:35:14Z</time>
      </trkpt>
      <trkpt lat="39.827313" lon="-4.869092">
        <ele>391.605</ele>
        <time>2021-10-16T11:35:16Z</time>
      </trkpt>
      <trkpt lat="39.827082" lon="-4.868991">
        <ele>391.008</ele>
        <time>2021-10-16T11:35:17Z</time>
      </trkpt>
      <trkpt lat="39.826866" lon="-4.868894">
        <ele>390.559</ele>
        <time>2021-10-16T11:35:18Z</time>
      </trkpt>
      <trkpt lat="39.826660" lon="-4.868796">
        <ele>389.877</ele>
        <time>2021-10-16T11:35:19Z</time>
      </trkpt>
      <trkpt lat="39.826457" lon="-4.868695">
        <ele>389.226</ele>
        <time>2021-10-16T11:35:20Z</time>
      </trkpt>
      <trkpt lat="39.826067" lon="-4.868505">
        <ele>387.720</ele>
        <time>2021-10-16T11:35:22Z</time>
      </trkpt>
      <trkpt lat="39.825864" lon="-4.868413">
        <ele>386.975</ele>
        <time>2021-10-16T11:35:23Z</time>
      </trkpt>
      <trkpt lat="39.825670" lon="-4.868324">
        <ele>386.074</ele>
        <time>2021-10-16T11:35:24Z</time>
      </trkpt>
      <trkpt lat="39.825488" lon="-4.868235">
        <ele>385.276</ele>
        <time>2021-10-16T11:35:25Z</time>
      </trkpt>
      <trkpt lat="39.825316" lon="-4.868147">
        <ele>384.033</ele>
        <time>2021-10-16T11:35:26Z</time>
      </trkpt>
      <trkpt lat="39.824972" lon="-4.867963">
        <ele>383.926</ele>
        <time>2021-10-16T11:35:28Z</time>
      </trkpt>
      <trkpt lat="39.824757" lon="-4.867860">
        <ele>383.547</ele>
        <time>2021-10-16T11:35:29Z</time>
      </trkpt>
      <trkpt lat="39.824514" lon="-4.867746">
        <ele>383.011</ele>
        <time>2021-10-16T11:35:30Z</time>
      </trkpt>
      <trkpt lat="39.824241" lon="-4.867617">
        <ele>382.708</ele>
        <time>2021-10-16T11:35:31Z</time>
      </trkpt>
      <trkpt lat="39.823946" lon="-4.867477">
        <ele>381.520</ele>
        <time>2021-10-16T11:35:32Z</time>
      </trkpt>
      <trkpt lat="39.823397" lon="-4.867220">
        <ele>378.268</ele>
        <time>2021-10-16T11:35:34Z</time>
      </trkpt>
      <trkpt lat="39.822926" lon="-4.867020">
        <ele>376.887</ele>
        <time>2021-10-16T11:35:36Z</time>
      </trkpt>
      <trkpt lat="39.822715" lon="-4.866940">
        <ele>376.541</ele>
        <time>2021-10-16T11:35:37Z</time>
      </trkpt>
      <trkpt lat="39.822515" lon="-4.866855">
        <ele>375.726</ele>
        <time>2021-10-16T11:35:38Z</time>
      </trkpt>
      <trkpt lat="39.822196" lon="-4.866696">
        <ele>375.545</ele>
        <time>2021-10-16T11:35:40Z</time>
      </trkpt>
      <trkpt lat="39.822041" lon="-4.866623">
        <ele>375.527</ele>
        <time>2021-10-16T11:35:41Z</time>
      </trkpt>
      <trkpt lat="39.821885" lon="-4.866553">
        <ele>373.774</ele>
        <time>2021-10-16T11:35:42Z</time>
      </trkpt>
      <trkpt lat="39.821580" lon="-4.866411">
        <ele>373.039</ele>
        <time>2021-10-16T11:35:44Z</time>
      </trkpt>
      <trkpt lat="39.821335" lon="-4.866291">
        <ele>371.901</ele>
        <time>2021-10-16T11:35:46Z</time>
      </trkpt>
      <trkpt lat="39.821223" lon="-4.866236">
        <ele>371.921</ele>
        <time>2021-10-16T11:35:47Z</time>
      </trkpt>
      <trkpt lat="39.821116" lon="-4.866185">
        <ele>371.708</ele>
        <time>2021-10-16T11:35:48Z</time>
      </trkpt>
      <trkpt lat="39.820910" lon="-4.866088">
        <ele>371.231</ele>
        <time>2021-10-16T11:35:50Z</time>
      </trkpt>
      <trkpt lat="39.820723" lon="-4.865998">
        <ele>370.479</ele>
        <time>2021-10-16T11:35:52Z</time>
      </trkpt>
      <trkpt lat="39.820542" lon="-4.865911">
        <ele>370.218</ele>
        <time>2021-10-16T11:35:54Z</time>
      </trkpt>
      <trkpt lat="39.820330" lon="-4.865813">
        <ele>368.782</ele>
        <time>2021-10-16T11:35:56Z</time>
      </trkpt>
      <trkpt lat="39.820075" lon="-4.865681">
        <ele>368.067</ele>
        <time>2021-10-16T11:35:58Z</time>
      </trkpt>
      <trkpt lat="39.819947" lon="-4.865615">
        <ele>367.316</ele>
        <time>2021-10-16T11:35:59Z</time>
      </trkpt>
      <trkpt lat="39.819700" lon="-4.865494">
        <ele>365.728</ele>
        <time>2021-10-16T11:36:01Z</time>
      </trkpt>
      <trkpt lat="39.819446" lon="-4.865377">
        <ele>366.185</ele>
        <time>2021-10-16T11:36:03Z</time>
      </trkpt>
      <trkpt lat="39.819179" lon="-4.865246">
        <ele>363.851</ele>
        <time>2021-10-16T11:36:05Z</time>
      </trkpt>
      <trkpt lat="39.818933" lon="-4.865136">
        <ele>362.601</ele>
        <time>2021-10-16T11:36:07Z</time>
      </trkpt>
      <trkpt lat="39.818821" lon="-4.865084">
        <ele>362.511</ele>
        <time>2021-10-16T11:36:08Z</time>
      </trkpt>
      <trkpt lat="39.818628" lon="-4.864991">
        <ele>362.008</ele>
        <time>2021-10-16T11:36:10Z</time>
      </trkpt>
      <trkpt lat="39.818407" lon="-4.864884">
        <ele>361.473</ele>
        <time>2021-10-16T11:36:12Z</time>
      </trkpt>
      <trkpt lat="39.818151" lon="-4.864766">
        <ele>359.871</ele>
        <time>2021-10-16T11:36:14Z</time>
      </trkpt>
      <trkpt lat="39.817905" lon="-4.864655">
        <ele>359.260</ele>
        <time>2021-10-16T11:36:16Z</time>
      </trkpt>
      <trkpt lat="39.817650" lon="-4.864534">
        <ele>357.854</ele>
        <time>2021-10-16T11:36:18Z</time>
      </trkpt>
      <trkpt lat="39.817500" lon="-4.864461">
        <ele>356.959</ele>
        <time>2021-10-16T11:36:19Z</time>
      </trkpt>
      <trkpt lat="39.817322" lon="-4.864373">
        <ele>356.238</ele>
        <time>2021-10-16T11:36:20Z</time>
      </trkpt>
      <trkpt lat="39.816904" lon="-4.864164">
        <ele>355.910</ele>
        <time>2021-10-16T11:36:22Z</time>
      </trkpt>
      <trkpt lat="39.816667" lon="-4.864048">
        <ele>354.967</ele>
        <time>2021-10-16T11:36:23Z</time>
      </trkpt>
      <trkpt lat="39.816217" lon="-4.863855">
        <ele>355.752</ele>
        <time>2021-10-16T11:36:25Z</time>
      </trkpt>
      <trkpt lat="39.816011" lon="-4.863768">
        <ele>355.553</ele>
        <time>2021-10-16T11:36:26Z</time>
      </trkpt>
      <trkpt lat="39.815629" lon="-4.863591">
        <ele>355.708</ele>
        <time>2021-10-16T11:36:28Z</time>
      </trkpt>
      <trkpt lat="39.815445" lon="-4.863505">
        <ele>355.708</ele>
        <time>2021-10-16T11:36:29Z</time>
      </trkpt>
      <trkpt lat="39.815084" lon="-4.863334">
        <ele>356.523</ele>
        <time>2021-10-16T11:36:31Z</time>
      </trkpt>
      <trkpt lat="39.814896" lon="-4.863247">
        <ele>356.581</ele>
        <time>2021-10-16T11:36:32Z</time>
      </trkpt>
      <trkpt lat="39.814481" lon="-4.863044">
        <ele>355.570</ele>
        <time>2021-10-16T11:36:34Z</time>
      </trkpt>
      <trkpt lat="39.814069" lon="-4.862839">
        <ele>356.124</ele>
        <time>2021-10-16T11:36:36Z</time>
      </trkpt>
      <trkpt lat="39.813860" lon="-4.862740">
        <ele>356.169</ele>
        <time>2021-10-16T11:36:37Z</time>
      </trkpt>
      <trkpt lat="39.813647" lon="-4.862640">
        <ele>356.598</ele>
        <time>2021-10-16T11:36:38Z</time>
      </trkpt>
      <trkpt lat="39.813241" lon="-4.862449">
        <ele>357.430</ele>
        <time>2021-10-16T11:36:40Z</time>
      </trkpt>
      <trkpt lat="39.812832" lon="-4.862256">
        <ele>355.767</ele>
        <time>2021-10-16T11:36:42Z</time>
      </trkpt>
      <trkpt lat="39.812630" lon="-4.862161">
        <ele>356.651</ele>
        <time>2021-10-16T11:36:43Z</time>
      </trkpt>
      <trkpt lat="39.812425" lon="-4.862067">
        <ele>356.501</ele>
        <time>2021-10-16T11:36:44Z</time>
      </trkpt>
      <trkpt lat="39.812059" lon="-4.861893">
        <ele>355.811</ele>
        <time>2021-10-16T11:36:46Z</time>
      </trkpt>
      <trkpt lat="39.811882" lon="-4.861808">
        <ele>355.808</ele>
        <time>2021-10-16T11:36:47Z</time>
      </trkpt>
      <trkpt lat="39.811526" lon="-4.861642">
        <ele>356.063</ele>
        <time>2021-10-16T11:36:49Z</time>
      </trkpt>
      <trkpt lat="39.811338" lon="-4.861552">
        <ele>355.721</ele>
        <time>2021-10-16T11:36:50Z</time>
      </trkpt>
      <trkpt lat="39.810971" lon="-4.861385">
        <ele>356.230</ele>
        <time>2021-10-16T11:36:52Z</time>
      </trkpt>
      <trkpt lat="39.810781" lon="-4.861297">
        <ele>356.644</ele>
        <time>2021-10-16T11:36:53Z</time>
      </trkpt>
      <trkpt lat="39.810404" lon="-4.861116">
        <ele>356.129</ele>
        <time>2021-10-16T11:36:55Z</time>
      </trkpt>
      <trkpt lat="39.810217" lon="-4.861027">
        <ele>356.338</ele>
        <time>2021-10-16T11:36:56Z</time>
      </trkpt>
      <trkpt lat="39.809845" lon="-4.860855">
        <ele>356.570</ele>
        <time>2021-10-16T11:36:58Z</time>
      </trkpt>
      <trkpt lat="39.809475" lon="-4.860677">
        <ele>356.127</ele>
        <time>2021-10-16T11:37:00Z</time>
      </trkpt>
      <trkpt lat="39.809110" lon="-4.860492">
        <ele>356.721</ele>
        <time>2021-10-16T11:37:02Z</time>
      </trkpt>
      <trkpt lat="39.808739" lon="-4.860329">
        <ele>356.341</ele>
        <time>2021-10-16T11:37:04Z</time>
      </trkpt>
      <trkpt lat="39.808555" lon="-4.860252">
        <ele>356.105</ele>
        <time>2021-10-16T11:37:05Z</time>
      </trkpt>
      <trkpt lat="39.808372" lon="-4.860167">
        <ele>356.608</ele>
        <time>2021-10-16T11:37:06Z</time>
      </trkpt>
      <trkpt lat="39.808005" lon="-4.859991">
        <ele>357.580</ele>
        <time>2021-10-16T11:37:08Z</time>
      </trkpt>
      <trkpt lat="39.807637" lon="-4.859817">
        <ele>357.078</ele>
        <time>2021-10-16T11:37:10Z</time>
      </trkpt>
      <trkpt lat="39.807249" lon="-4.859629">
        <ele>357.717</ele>
        <time>2021-10-16T11:37:12Z</time>
      </trkpt>
      <trkpt lat="39.806855" lon="-4.859439">
        <ele>358.951</ele>
        <time>2021-10-16T11:37:14Z</time>
      </trkpt>
      <trkpt lat="39.806476" lon="-4.859258">
        <ele>358.286</ele>
        <time>2021-10-16T11:37:16Z</time>
      </trkpt>
      <trkpt lat="39.806077" lon="-4.859074">
        <ele>357.835</ele>
        <time>2021-10-16T11:37:18Z</time>
      </trkpt>
      <trkpt lat="39.805865" lon="-4.858975">
        <ele>357.087</ele>
        <time>2021-10-16T11:37:19Z</time>
      </trkpt>
      <trkpt lat="39.805645" lon="-4.858869">
        <ele>357.194</ele>
        <time>2021-10-16T11:37:20Z</time>
      </trkpt>
      <trkpt lat="39.805212" lon="-4.858663">
        <ele>357.543</ele>
        <time>2021-10-16T11:37:22Z</time>
      </trkpt>
      <trkpt lat="39.804982" lon="-4.858553">
        <ele>356.864</ele>
        <time>2021-10-16T11:37:23Z</time>
      </trkpt>
      <trkpt lat="39.804751" lon="-4.858442">
        <ele>357.410</ele>
        <time>2021-10-16T11:37:24Z</time>
      </trkpt>
      <trkpt lat="39.804268" lon="-4.858220">
        <ele>357.308</ele>
        <time>2021-10-16T11:37:26Z</time>
      </trkpt>
      <trkpt lat="39.803801" lon="-4.858003">
        <ele>359.242</ele>
        <time>2021-10-16T11:37:28Z</time>
      </trkpt>
      <trkpt lat="39.803345" lon="-4.857783">
        <ele>358.690</ele>
        <time>2021-10-16T11:37:30Z</time>
      </trkpt>
      <trkpt lat="39.802920" lon="-4.857588">
        <ele>360.929</ele>
        <time>2021-10-16T11:37:32Z</time>
      </trkpt>
      <trkpt lat="39.802722" lon="-4.857497">
        <ele>361.363</ele>
        <time>2021-10-16T11:37:33Z</time>
      </trkpt>
      <trkpt lat="39.802356" lon="-4.857330">
        <ele>361.348</ele>
        <time>2021-10-16T11:37:35Z</time>
      </trkpt>
      <trkpt lat="39.802169" lon="-4.857256">
        <ele>361.417</ele>
        <time>2021-10-16T11:37:36Z</time>
      </trkpt>
      <trkpt lat="39.801766" lon="-4.857139">
        <ele>361.339</ele>
        <time>2021-10-16T11:37:38Z</time>
      </trkpt>
      <trkpt lat="39.801339" lon="-4.857087">
        <ele>362.666</ele>
        <time>2021-10-16T11:37:40Z</time>
      </trkpt>
      <trkpt lat="39.800849" lon="-4.857080">
        <ele>362.574</ele>
        <time>2021-10-16T11:37:42Z</time>
      </trkpt>
      <trkpt lat="39.800586" lon="-4.857103">
        <ele>362.556</ele>
        <time>2021-10-16T11:37:43Z</time>
      </trkpt>
      <trkpt lat="39.800313" lon="-4.857155">
        <ele>363.521</ele>
        <time>2021-10-16T11:37:44Z</time>
      </trkpt>
      <trkpt lat="39.799805" lon="-4.857343">
        <ele>364.108</ele>
        <time>2021-10-16T11:37:46Z</time>
      </trkpt>
      <trkpt lat="39.799546" lon="-4.857485">
        <ele>364.755</ele>
        <time>2021-10-16T11:37:47Z</time>
      </trkpt>
      <trkpt lat="39.799053" lon="-4.857843">
        <ele>363.953</ele>
        <time>2021-10-16T11:37:49Z</time>
      </trkpt>
      <trkpt lat="39.798822" lon="-4.858062">
        <ele>364.152</ele>
        <time>2021-10-16T11:37:50Z</time>
      </trkpt>
      <trkpt lat="39.798449" lon="-4.858457">
        <ele>364.626</ele>
        <time>2021-10-16T11:37:52Z</time>
      </trkpt>
      <trkpt lat="39.798088" lon="-4.858815">
        <ele>364.241</ele>
        <time>2021-10-16T11:37:54Z</time>
      </trkpt>
      <trkpt lat="39.797901" lon="-4.858997">
        <ele>363.710</ele>
        <time>2021-10-16T11:37:55Z</time>
      </trkpt>
      <trkpt lat="39.797491" lon="-4.859363">
        <ele>361.752</ele>
        <time>2021-10-16T11:37:57Z</time>
      </trkpt>
      <trkpt lat="39.797047" lon="-4.859790">
        <ele>361.029</ele>
        <time>2021-10-16T11:37:59Z</time>
      </trkpt>
      <trkpt lat="39.796633" lon="-4.860221">
        <ele>360.053</ele>
        <time>2021-10-16T11:38:01Z</time>
      </trkpt>
      <trkpt lat="39.796276" lon="-4.860552">
        <ele>358.404</ele>
        <time>2021-10-16T11:38:03Z</time>
      </trkpt>
      <trkpt lat="39.796014" lon="-4.860810">
        <ele>357.214</ele>
        <time>2021-10-16T11:38:05Z</time>
      </trkpt>
      <trkpt lat="39.795798" lon="-4.861023">
        <ele>355.108</ele>
        <time>2021-10-16T11:38:07Z</time>
      </trkpt>
      <trkpt lat="39.795691" lon="-4.861129">
        <ele>356.863</ele>
        <time>2021-10-16T11:38:08Z</time>
      </trkpt>
      <trkpt lat="39.795480" lon="-4.861345">
        <ele>356.291</ele>
        <time>2021-10-16T11:38:10Z</time>
      </trkpt>
      <trkpt lat="39.795364" lon="-4.861466">
        <ele>356.290</ele>
        <time>2021-10-16T11:38:11Z</time>
      </trkpt>
      <trkpt lat="39.795135" lon="-4.861735">
        <ele>355.534</ele>
        <time>2021-10-16T11:38:13Z</time>
      </trkpt>
      <trkpt lat="39.795030" lon="-4.861897">
        <ele>355.949</ele>
        <time>2021-10-16T11:38:14Z</time>
      </trkpt>
      <trkpt lat="39.794870" lon="-4.862237">
        <ele>355.148</ele>
        <time>2021-10-16T11:38:16Z</time>
      </trkpt>
      <trkpt lat="39.794758" lon="-4.862616">
        <ele>355.330</ele>
        <time>2021-10-16T11:38:18Z</time>
      </trkpt>
      <trkpt lat="39.794693" lon="-4.863006">
        <ele>357.277</ele>
        <time>2021-10-16T11:38:20Z</time>
      </trkpt>
      <trkpt lat="39.794649" lon="-4.863369">
        <ele>357.756</ele>
        <time>2021-10-16T11:38:22Z</time>
      </trkpt>
      <trkpt lat="39.794625" lon="-4.863565">
        <ele>357.559</ele>
        <time>2021-10-16T11:38:23Z</time>
      </trkpt>
      <trkpt lat="39.794601" lon="-4.863762">
        <ele>358.014</ele>
        <time>2021-10-16T11:38:24Z</time>
      </trkpt>
      <trkpt lat="39.794576" lon="-4.863957">
        <ele>359.108</ele>
        <time>2021-10-16T11:38:25Z</time>
      </trkpt>
      <trkpt lat="39.794528" lon="-4.864332">
        <ele>358.233</ele>
        <time>2021-10-16T11:38:27Z</time>
      </trkpt>
      <trkpt lat="39.794482" lon="-4.864700">
        <ele>359.321</ele>
        <time>2021-10-16T11:38:29Z</time>
      </trkpt>
      <trkpt lat="39.794440" lon="-4.865050">
        <ele>357.840</ele>
        <time>2021-10-16T11:38:31Z</time>
      </trkpt>
      <trkpt lat="39.794404" lon="-4.865338">
        <ele>357.994</ele>
        <time>2021-10-16T11:38:33Z</time>
      </trkpt>
      <trkpt lat="39.794387" lon="-4.865466">
        <ele>358.899</ele>
        <time>2021-10-16T11:38:34Z</time>
      </trkpt>
      <trkpt lat="39.794354" lon="-4.865710">
        <ele>358.218</ele>
        <time>2021-10-16T11:38:36Z</time>
      </trkpt>
      <trkpt lat="39.794337" lon="-4.865828">
        <ele>358.220</ele>
        <time>2021-10-16T11:38:37Z</time>
      </trkpt>
      <trkpt lat="39.794323" lon="-4.865945">
        <ele>358.247</ele>
        <time>2021-10-16T11:38:38Z</time>
      </trkpt>
      <trkpt lat="39.794296" lon="-4.866165">
        <ele>357.776</ele>
        <time>2021-10-16T11:38:40Z</time>
      </trkpt>
      <trkpt lat="39.794267" lon="-4.866401">
        <ele>358.390</ele>
        <time>2021-10-16T11:38:42Z</time>
      </trkpt>
      <trkpt lat="39.794252" lon="-4.866525">
        <ele>358.319</ele>
        <time>2021-10-16T11:38:43Z</time>
      </trkpt>
      <trkpt lat="39.794236" lon="-4.866652">
        <ele>358.708</ele>
        <time>2021-10-16T11:38:44Z</time>
      </trkpt>
      <trkpt lat="39.794208" lon="-4.866870">
        <ele>357.445</ele>
        <time>2021-10-16T11:38:46Z</time>
      </trkpt>
      <trkpt lat="39.794196" lon="-4.866972">
        <ele>357.973</ele>
        <time>2021-10-16T11:38:47Z</time>
      </trkpt>
      <trkpt lat="39.794185" lon="-4.867066">
        <ele>357.932</ele>
        <time>2021-10-16T11:38:48Z</time>
      </trkpt>
      <trkpt lat="39.794165" lon="-4.867250">
        <ele>357.916</ele>
        <time>2021-10-16T11:38:50Z</time>
      </trkpt>
      <trkpt lat="39.794142" lon="-4.867431">
        <ele>357.331</ele>
        <time>2021-10-16T11:38:52Z</time>
      </trkpt>
      <trkpt lat="39.794114" lon="-4.867629">
        <ele>358.580</ele>
        <time>2021-10-16T11:38:54Z</time>
      </trkpt>
      <trkpt lat="39.794102" lon="-4.867729">
        <ele>358.592</ele>
        <time>2021-10-16T11:38:55Z</time>
      </trkpt>
      <trkpt lat="39.794091" lon="-4.867834">
        <ele>358.419</ele>
        <time>2021-10-16T11:38:56Z</time>
      </trkpt>
      <trkpt lat="39.794067" lon="-4.868036">
        <ele>358.067</ele>
        <time>2021-10-16T11:38:58Z</time>
      </trkpt>
      <trkpt lat="39.794054" lon="-4.868126">
        <ele>357.881</ele>
        <time>2021-10-16T11:38:59Z</time>
      </trkpt>
      <trkpt lat="39.794031" lon="-4.868289">
        <ele>359.419</ele>
        <time>2021-10-16T11:39:01Z</time>
      </trkpt>
      <trkpt lat="39.794010" lon="-4.868455">
        <ele>359.408</ele>
        <time>2021-10-16T11:39:03Z</time>
      </trkpt>
      <trkpt lat="39.793998" lon="-4.868550">
        <ele>359.494</ele>
        <time>2021-10-16T11:39:04Z</time>
      </trkpt>
      <trkpt lat="39.793969" lon="-4.868757">
        <ele>357.732</ele>
        <time>2021-10-16T11:39:06Z</time>
      </trkpt>
      <trkpt lat="39.793944" lon="-4.868963">
        <ele>357.191</ele>
        <time>2021-10-16T11:39:08Z</time>
      </trkpt>
      <trkpt lat="39.793918" lon="-4.869160">
        <ele>356.835</ele>
        <time>2021-10-16T11:39:10Z</time>
      </trkpt>
      <trkpt lat="39.793891" lon="-4.869375">
        <ele>357.440</ele>
        <time>2021-10-16T11:39:12Z</time>
      </trkpt>
      <trkpt lat="39.793877" lon="-4.869490">
        <ele>357.559</ele>
        <time>2021-10-16T11:39:13Z</time>
      </trkpt>
      <trkpt lat="39.793865" lon="-4.869610">
        <ele>358.171</ele>
        <time>2021-10-16T11:39:14Z</time>
      </trkpt>
      <trkpt lat="39.793837" lon="-4.869860">
        <ele>358.228</ele>
        <time>2021-10-16T11:39:16Z</time>
      </trkpt>
      <trkpt lat="39.793819" lon="-4.869997">
        <ele>358.759</ele>
        <time>2021-10-16T11:39:17Z</time>
      </trkpt>
      <trkpt lat="39.793774" lon="-4.870288">
        <ele>357.803</ele>
        <time>2021-10-16T11:39:19Z</time>
      </trkpt>
      <trkpt lat="39.793749" lon="-4.870447">
        <ele>357.823</ele>
        <time>2021-10-16T11:39:20Z</time>
      </trkpt>
      <trkpt lat="39.793713" lon="-4.870754">
        <ele>357.808</ele>
        <time>2021-10-16T11:39:22Z</time>
      </trkpt>
      <trkpt lat="39.793698" lon="-4.870914">
        <ele>357.833</ele>
        <time>2021-10-16T11:39:23Z</time>
      </trkpt>
      <trkpt lat="39.793661" lon="-4.871263">
        <ele>358.551</ele>
        <time>2021-10-16T11:39:25Z</time>
      </trkpt>
      <trkpt lat="39.793636" lon="-4.871462">
        <ele>357.350</ele>
        <time>2021-10-16T11:39:26Z</time>
      </trkpt>
      <trkpt lat="39.793580" lon="-4.871856">
        <ele>357.024</ele>
        <time>2021-10-16T11:39:28Z</time>
      </trkpt>
      <trkpt lat="39.793557" lon="-4.872049">
        <ele>356.389</ele>
        <time>2021-10-16T11:39:29Z</time>
      </trkpt>
      <trkpt lat="39.793533" lon="-4.872238">
        <ele>356.748</ele>
        <time>2021-10-16T11:39:30Z</time>
      </trkpt>
      <trkpt lat="39.793508" lon="-4.872436">
        <ele>357.460</ele>
        <time>2021-10-16T11:39:31Z</time>
      </trkpt>
      <trkpt lat="39.793484" lon="-4.872638">
        <ele>357.427</ele>
        <time>2021-10-16T11:39:32Z</time>
      </trkpt>
      <trkpt lat="39.793457" lon="-4.872855">
        <ele>357.923</ele>
        <time>2021-10-16T11:39:33Z</time>
      </trkpt>
      <trkpt lat="39.793429" lon="-4.873078">
        <ele>358.683</ele>
        <time>2021-10-16T11:39:34Z</time>
      </trkpt>
      <trkpt lat="39.793373" lon="-4.873517">
        <ele>360.811</ele>
        <time>2021-10-16T11:39:36Z</time>
      </trkpt>
      <trkpt lat="39.793348" lon="-4.873723">
        <ele>362.108</ele>
        <time>2021-10-16T11:39:37Z</time>
      </trkpt>
      <trkpt lat="39.793326" lon="-4.873923">
        <ele>363.560</ele>
        <time>2021-10-16T11:39:38Z</time>
      </trkpt>
      <trkpt lat="39.793287" lon="-4.874277">
        <ele>365.128</ele>
        <time>2021-10-16T11:39:40Z</time>
      </trkpt>
      <trkpt lat="39.793238" lon="-4.874656">
        <ele>365.887</ele>
        <time>2021-10-16T11:39:42Z</time>
      </trkpt>
      <trkpt lat="39.793213" lon="-4.874853">
        <ele>367.521</ele>
        <time>2021-10-16T11:39:43Z</time>
      </trkpt>
      <trkpt lat="39.793188" lon="-4.875054">
        <ele>369.886</ele>
        <time>2021-10-16T11:39:44Z</time>
      </trkpt>
      <trkpt lat="39.793144" lon="-4.875423">
        <ele>370.555</ele>
        <time>2021-10-16T11:39:46Z</time>
      </trkpt>
      <trkpt lat="39.793119" lon="-4.875607">
        <ele>371.737</ele>
        <time>2021-10-16T11:39:47Z</time>
      </trkpt>
      <trkpt lat="39.793092" lon="-4.875787">
        <ele>373.054</ele>
        <time>2021-10-16T11:39:48Z</time>
      </trkpt>
      <trkpt lat="39.793067" lon="-4.875972">
        <ele>373.666</ele>
        <time>2021-10-16T11:39:49Z</time>
      </trkpt>
      <trkpt lat="39.793047" lon="-4.876174">
        <ele>374.429</ele>
        <time>2021-10-16T11:39:50Z</time>
      </trkpt>
      <trkpt lat="39.792997" lon="-4.876583">
        <ele>378.021</ele>
        <time>2021-10-16T11:39:52Z</time>
      </trkpt>
      <trkpt lat="39.792936" lon="-4.877009">
        <ele>379.208</ele>
        <time>2021-10-16T11:39:54Z</time>
      </trkpt>
      <trkpt lat="39.792907" lon="-4.877221">
        <ele>381.024</ele>
        <time>2021-10-16T11:39:55Z</time>
      </trkpt>
      <trkpt lat="39.792881" lon="-4.877442">
        <ele>382.292</ele>
        <time>2021-10-16T11:39:56Z</time>
      </trkpt>
      <trkpt lat="39.792828" lon="-4.877846">
        <ele>383.411</ele>
        <time>2021-10-16T11:39:58Z</time>
      </trkpt>
      <trkpt lat="39.792778" lon="-4.878242">
        <ele>385.815</ele>
        <time>2021-10-16T11:40:00Z</time>
      </trkpt>
      <trkpt lat="39.792733" lon="-4.878633">
        <ele>386.850</ele>
        <time>2021-10-16T11:40:02Z</time>
      </trkpt>
      <trkpt lat="39.792710" lon="-4.878828">
        <ele>387.699</ele>
        <time>2021-10-16T11:40:03Z</time>
      </trkpt>
      <trkpt lat="39.792685" lon="-4.879022">
        <ele>388.871</ele>
        <time>2021-10-16T11:40:04Z</time>
      </trkpt>
      <trkpt lat="39.792615" lon="-4.879397">
        <ele>391.348</ele>
        <time>2021-10-16T11:40:06Z</time>
      </trkpt>
      <trkpt lat="39.792499" lon="-4.879770">
        <ele>391.845</ele>
        <time>2021-10-16T11:40:08Z</time>
      </trkpt>
      <trkpt lat="39.792335" lon="-4.880119">
        <ele>393.647</ele>
        <time>2021-10-16T11:40:10Z</time>
      </trkpt>
      <trkpt lat="39.792231" lon="-4.880286">
        <ele>393.511</ele>
        <time>2021-10-16T11:40:11Z</time>
      </trkpt>
      <trkpt lat="39.792113" lon="-4.880440">
        <ele>394.408</ele>
        <time>2021-10-16T11:40:12Z</time>
      </trkpt>
      <trkpt lat="39.791848" lon="-4.880736">
        <ele>394.732</ele>
        <time>2021-10-16T11:40:14Z</time>
      </trkpt>
      <trkpt lat="39.791580" lon="-4.881042">
        <ele>393.550</ele>
        <time>2021-10-16T11:40:16Z</time>
      </trkpt>
      <trkpt lat="39.791290" lon="-4.881380">
        <ele>392.489</ele>
        <time>2021-10-16T11:40:18Z</time>
      </trkpt>
      <trkpt lat="39.790980" lon="-4.881731">
        <ele>391.723</ele>
        <time>2021-10-16T11:40:20Z</time>
      </trkpt>
      <trkpt lat="39.790676" lon="-4.882087">
        <ele>390.668</ele>
        <time>2021-10-16T11:40:22Z</time>
      </trkpt>
      <trkpt lat="39.790514" lon="-4.882277">
        <ele>390.797</ele>
        <time>2021-10-16T11:40:23Z</time>
      </trkpt>
      <trkpt lat="39.790138" lon="-4.882714">
        <ele>391.889</ele>
        <time>2021-10-16T11:40:25Z</time>
      </trkpt>
      <trkpt lat="39.789748" lon="-4.883289">
        <ele>392.436</ele>
        <time>2021-10-16T11:40:27Z</time>
      </trkpt>
      <trkpt lat="39.789392" lon="-4.883924">
        <ele>396.263</ele>
        <time>2021-10-16T11:40:29Z</time>
      </trkpt>
      <trkpt lat="39.789222" lon="-4.884223">
        <ele>396.544</ele>
        <time>2021-10-16T11:40:30Z</time>
      </trkpt>
      <trkpt lat="39.789050" lon="-4.884512">
        <ele>397.718</ele>
        <time>2021-10-16T11:40:31Z</time>
      </trkpt>
      <trkpt lat="39.788758" lon="-4.885002">
        <ele>400.708</ele>
        <time>2021-10-16T11:40:33Z</time>
      </trkpt>
      <trkpt lat="39.788617" lon="-4.885249">
        <ele>401.244</ele>
        <time>2021-10-16T11:40:34Z</time>
      </trkpt>
      <trkpt lat="39.788376" lon="-4.885809">
        <ele>402.092</ele>
        <time>2021-10-16T11:40:36Z</time>
      </trkpt>
      <trkpt lat="39.788288" lon="-4.886126">
        <ele>402.291</ele>
        <time>2021-10-16T11:40:37Z</time>
      </trkpt>
      <trkpt lat="39.788223" lon="-4.886469">
        <ele>402.555</ele>
        <time>2021-10-16T11:40:38Z</time>
      </trkpt>
      <trkpt lat="39.788137" lon="-4.887158">
        <ele>404.490</ele>
        <time>2021-10-16T11:40:40Z</time>
      </trkpt>
      <trkpt lat="39.788086" lon="-4.887517">
        <ele>405.459</ele>
        <time>2021-10-16T11:40:41Z</time>
      </trkpt>
      <trkpt lat="39.787984" lon="-4.888240">
        <ele>409.051</ele>
        <time>2021-10-16T11:40:43Z</time>
      </trkpt>
      <trkpt lat="39.787932" lon="-4.888617">
        <ele>409.918</ele>
        <time>2021-10-16T11:40:44Z</time>
      </trkpt>
      <trkpt lat="39.787831" lon="-4.889354">
        <ele>413.147</ele>
        <time>2021-10-16T11:40:46Z</time>
      </trkpt>
      <trkpt lat="39.787776" lon="-4.889738">
        <ele>415.029</ele>
        <time>2021-10-16T11:40:47Z</time>
      </trkpt>
      <trkpt lat="39.787668" lon="-4.890490">
        <ele>418.221</ele>
        <time>2021-10-16T11:40:49Z</time>
      </trkpt>
      <trkpt lat="39.787615" lon="-4.890861">
        <ele>419.808</ele>
        <time>2021-10-16T11:40:50Z</time>
      </trkpt>
      <trkpt lat="39.787519" lon="-4.891519">
        <ele>423.592</ele>
        <time>2021-10-16T11:40:52Z</time>
      </trkpt>
      <trkpt lat="39.787469" lon="-4.891838">
        <ele>425.040</ele>
        <time>2021-10-16T11:40:53Z</time>
      </trkpt>
      <trkpt lat="39.787421" lon="-4.892152">
        <ele>426.459</ele>
        <time>2021-10-16T11:40:54Z</time>
      </trkpt>
      <trkpt lat="39.787326" lon="-4.892785">
        <ele>428.113</ele>
        <time>2021-10-16T11:40:56Z</time>
      </trkpt>
      <trkpt lat="39.787277" lon="-4.893115">
        <ele>428.658</ele>
        <time>2021-10-16T11:40:57Z</time>
      </trkpt>
      <trkpt lat="39.787179" lon="-4.893791">
        <ele>429.617</ele>
        <time>2021-10-16T11:40:59Z</time>
      </trkpt>
      <trkpt lat="39.787097" lon="-4.894485">
        <ele>431.229</ele>
        <time>2021-10-16T11:41:01Z</time>
      </trkpt>
      <trkpt lat="39.787034" lon="-4.895188">
        <ele>430.666</ele>
        <time>2021-10-16T11:41:03Z</time>
      </trkpt>
      <trkpt lat="39.786985" lon="-4.895898">
        <ele>432.094</ele>
        <time>2021-10-16T11:41:05Z</time>
      </trkpt>
      <trkpt lat="39.786960" lon="-4.896258">
        <ele>432.057</ele>
        <time>2021-10-16T11:41:06Z</time>
      </trkpt>
      <trkpt lat="39.786908" lon="-4.896992">
        <ele>432.922</ele>
        <time>2021-10-16T11:41:08Z</time>
      </trkpt>
      <trkpt lat="39.786859" lon="-4.897707">
        <ele>433.408</ele>
        <time>2021-10-16T11:41:10Z</time>
      </trkpt>
      <trkpt lat="39.786804" lon="-4.898447">
        <ele>433.587</ele>
        <time>2021-10-16T11:41:12Z</time>
      </trkpt>
      <trkpt lat="39.786777" lon="-4.898818">
        <ele>434.065</ele>
        <time>2021-10-16T11:41:13Z</time>
      </trkpt>
      <trkpt lat="39.786748" lon="-4.899204">
        <ele>434.164</ele>
        <time>2021-10-16T11:41:14Z</time>
      </trkpt>
      <trkpt lat="39.786695" lon="-4.899937">
        <ele>433.238</ele>
        <time>2021-10-16T11:41:16Z</time>
      </trkpt>
      <trkpt lat="39.786669" lon="-4.900303">
        <ele>432.963</ele>
        <time>2021-10-16T11:41:17Z</time>
      </trkpt>
      <trkpt lat="39.786644" lon="-4.900650">
        <ele>432.722</ele>
        <time>2021-10-16T11:41:18Z</time>
      </trkpt>
      <trkpt lat="39.786596" lon="-4.901319">
        <ele>432.954</ele>
        <time>2021-10-16T11:41:20Z</time>
      </trkpt>
      <trkpt lat="39.786556" lon="-4.901960">
        <ele>433.661</ele>
        <time>2021-10-16T11:41:22Z</time>
      </trkpt>
      <trkpt lat="39.786530" lon="-4.902294">
        <ele>432.753</ele>
        <time>2021-10-16T11:41:23Z</time>
      </trkpt>
      <trkpt lat="39.786478" lon="-4.902980">
        <ele>433.604</ele>
        <time>2021-10-16T11:41:25Z</time>
      </trkpt>
      <trkpt lat="39.786425" lon="-4.903688">
        <ele>433.414</ele>
        <time>2021-10-16T11:41:27Z</time>
      </trkpt>
      <trkpt lat="39.786376" lon="-4.904366">
        <ele>433.308</ele>
        <time>2021-10-16T11:41:29Z</time>
      </trkpt>
      <trkpt lat="39.786322" lon="-4.904961">
        <ele>433.773</ele>
        <time>2021-10-16T11:41:31Z</time>
      </trkpt>
      <trkpt lat="39.786290" lon="-4.905215">
        <ele>434.431</ele>
        <time>2021-10-16T11:41:32Z</time>
      </trkpt>
      <trkpt lat="39.786184" lon="-4.905666">
        <ele>433.250</ele>
        <time>2021-10-16T11:41:34Z</time>
      </trkpt>
      <trkpt lat="39.786092" lon="-4.905870">
        <ele>432.784</ele>
        <time>2021-10-16T11:41:35Z</time>
      </trkpt>
      <trkpt lat="39.785831" lon="-4.906196">
        <ele>431.989</ele>
        <time>2021-10-16T11:41:37Z</time>
      </trkpt>
      <trkpt lat="39.785648" lon="-4.906304">
        <ele>430.948</ele>
        <time>2021-10-16T11:41:38Z</time>
      </trkpt>
      <trkpt lat="39.785226" lon="-4.906426">
        <ele>427.750</ele>
        <time>2021-10-16T11:41:40Z</time>
      </trkpt>
      <trkpt lat="39.785000" lon="-4.906487">
        <ele>427.197</ele>
        <time>2021-10-16T11:41:41Z</time>
      </trkpt>
      <trkpt lat="39.784780" lon="-4.906550">
        <ele>425.743</ele>
        <time>2021-10-16T11:41:42Z</time>
      </trkpt>
      <trkpt lat="39.784349" lon="-4.906683">
        <ele>421.164</ele>
        <time>2021-10-16T11:41:44Z</time>
      </trkpt>
      <trkpt lat="39.783960" lon="-4.906859">
        <ele>417.710</ele>
        <time>2021-10-16T11:41:46Z</time>
      </trkpt>
      <trkpt lat="39.783781" lon="-4.906998">
        <ele>415.608</ele>
        <time>2021-10-16T11:41:47Z</time>
      </trkpt>
      <trkpt lat="39.783626" lon="-4.907175">
        <ele>414.572</ele>
        <time>2021-10-16T11:41:48Z</time>
      </trkpt>
      <trkpt lat="39.783404" lon="-4.907616">
        <ele>411.280</ele>
        <time>2021-10-16T11:41:50Z</time>
      </trkpt>
      <trkpt lat="39.783345" lon="-4.908106">
        <ele>410.189</ele>
        <time>2021-10-16T11:41:52Z</time>
      </trkpt>
      <trkpt lat="39.783377" lon="-4.908372">
        <ele>409.063</ele>
        <time>2021-10-16T11:41:53Z</time>
      </trkpt>
      <trkpt lat="39.783441" lon="-4.908639">
        <ele>408.828</ele>
        <time>2021-10-16T11:41:54Z</time>
      </trkpt>
      <trkpt lat="39.783523" lon="-4.908907">
        <ele>408.947</ele>
        <time>2021-10-16T11:41:55Z</time>
      </trkpt>
      <trkpt lat="39.783698" lon="-4.909479">
        <ele>409.319</ele>
        <time>2021-10-16T11:41:57Z</time>
      </trkpt>
      <trkpt lat="39.783889" lon="-4.910104">
        <ele>411.226</ele>
        <time>2021-10-16T11:41:59Z</time>
      </trkpt>
      <trkpt lat="39.784056" lon="-4.910717">
        <ele>413.935</ele>
        <time>2021-10-16T11:42:01Z</time>
      </trkpt>
      <trkpt lat="39.784082" lon="-4.911277">
        <ele>416.186</ele>
        <time>2021-10-16T11:42:03Z</time>
      </trkpt>
      <trkpt lat="39.784033" lon="-4.911553">
        <ele>416.014</ele>
        <time>2021-10-16T11:42:04Z</time>
      </trkpt>
      <trkpt lat="39.783887" lon="-4.912130">
        <ele>416.008</ele>
        <time>2021-10-16T11:42:06Z</time>
      </trkpt>
      <trkpt lat="39.783734" lon="-4.912766">
        <ele>415.521</ele>
        <time>2021-10-16T11:42:08Z</time>
      </trkpt>
      <trkpt lat="39.783597" lon="-4.913387">
        <ele>412.969</ele>
        <time>2021-10-16T11:42:10Z</time>
      </trkpt>
      <trkpt lat="39.783531" lon="-4.913687">
        <ele>411.848</ele>
        <time>2021-10-16T11:42:11Z</time>
      </trkpt>
      <trkpt lat="39.783466" lon="-4.913970">
        <ele>411.052</ele>
        <time>2021-10-16T11:42:12Z</time>
      </trkpt>
      <trkpt lat="39.783328" lon="-4.914504">
        <ele>409.627</ele>
        <time>2021-10-16T11:42:14Z</time>
      </trkpt>
      <trkpt lat="39.783108" lon="-4.914975">
        <ele>409.436</ele>
        <time>2021-10-16T11:42:16Z</time>
      </trkpt>
      <trkpt lat="39.782763" lon="-4.915387">
        <ele>408.968</ele>
        <time>2021-10-16T11:42:18Z</time>
      </trkpt>
      <trkpt lat="39.782550" lon="-4.915579">
        <ele>408.285</ele>
        <time>2021-10-16T11:42:19Z</time>
      </trkpt>
      <trkpt lat="39.782319" lon="-4.915783">
        <ele>408.351</ele>
        <time>2021-10-16T11:42:20Z</time>
      </trkpt>
      <trkpt lat="39.781862" lon="-4.916201">
        <ele>408.401</ele>
        <time>2021-10-16T11:42:22Z</time>
      </trkpt>
      <trkpt lat="39.781412" lon="-4.916624">
        <ele>410.111</ele>
        <time>2021-10-16T11:42:24Z</time>
      </trkpt>
      <trkpt lat="39.781193" lon="-4.916832">
        <ele>410.308</ele>
        <time>2021-10-16T11:42:25Z</time>
      </trkpt>
      <trkpt lat="39.780965" lon="-4.917049">
        <ele>410.783</ele>
        <time>2021-10-16T11:42:26Z</time>
      </trkpt>
      <trkpt lat="39.780521" lon="-4.917472">
        <ele>410.811</ele>
        <time>2021-10-16T11:42:28Z</time>
      </trkpt>
      <trkpt lat="39.780057" lon="-4.917917">
        <ele>408.980</ele>
        <time>2021-10-16T11:42:30Z</time>
      </trkpt>
      <trkpt lat="39.779822" lon="-4.918142">
        <ele>408.764</ele>
        <time>2021-10-16T11:42:31Z</time>
      </trkpt>
      <trkpt lat="39.779579" lon="-4.918375">
        <ele>408.879</ele>
        <time>2021-10-16T11:42:32Z</time>
      </trkpt>
      <trkpt lat="39.779114" lon="-4.918811">
        <ele>409.918</ele>
        <time>2021-10-16T11:42:34Z</time>
      </trkpt>
      <trkpt lat="39.778652" lon="-4.919250">
        <ele>411.020</ele>
        <time>2021-10-16T11:42:36Z</time>
      </trkpt>
      <trkpt lat="39.778211" lon="-4.919673">
        <ele>412.017</ele>
        <time>2021-10-16T11:42:38Z</time>
      </trkpt>
      <trkpt lat="39.777801" lon="-4.920070">
        <ele>414.343</ele>
        <time>2021-10-16T11:42:40Z</time>
      </trkpt>
      <trkpt lat="39.777398" lon="-4.920468">
        <ele>416.564</ele>
        <time>2021-10-16T11:42:42Z</time>
      </trkpt>
      <trkpt lat="39.777021" lon="-4.920906">
        <ele>417.810</ele>
        <time>2021-10-16T11:42:44Z</time>
      </trkpt>
      <trkpt lat="39.776688" lon="-4.921352">
        <ele>419.308</ele>
        <time>2021-10-16T11:42:46Z</time>
      </trkpt>
      <trkpt lat="39.776527" lon="-4.921577">
        <ele>420.022</ele>
        <time>2021-10-16T11:42:47Z</time>
      </trkpt>
      <trkpt lat="39.776380" lon="-4.921786">
        <ele>421.390</ele>
        <time>2021-10-16T11:42:48Z</time>
      </trkpt>
      <trkpt lat="39.776238" lon="-4.921987">
        <ele>422.359</ele>
        <time>2021-10-16T11:42:49Z</time>
      </trkpt>
      <trkpt lat="39.776101" lon="-4.922182">
        <ele>422.593</ele>
        <time>2021-10-16T11:42:50Z</time>
      </trkpt>
      <trkpt lat="39.775857" lon="-4.922537">
        <ele>423.138</ele>
        <time>2021-10-16T11:42:52Z</time>
      </trkpt>
      <trkpt lat="39.775735" lon="-4.922722">
        <ele>423.477</ele>
        <time>2021-10-16T11:42:53Z</time>
      </trkpt>
      <trkpt lat="39.775535" lon="-4.923139">
        <ele>424.739</ele>
        <time>2021-10-16T11:42:55Z</time>
      </trkpt>
      <trkpt lat="39.775478" lon="-4.923380">
        <ele>426.086</ele>
        <time>2021-10-16T11:42:56Z</time>
      </trkpt>
      <trkpt lat="39.775489" lon="-4.923889">
        <ele>428.293</ele>
        <time>2021-10-16T11:42:58Z</time>
      </trkpt>
      <trkpt lat="39.775702" lon="-4.924357">
        <ele>431.065</ele>
        <time>2021-10-16T11:43:00Z</time>
      </trkpt>
      <trkpt lat="39.776084" lon="-4.924662">
        <ele>432.521</ele>
        <time>2021-10-16T11:43:02Z</time>
      </trkpt>
      <trkpt lat="39.776564" lon="-4.924842">
        <ele>436.308</ele>
        <time>2021-10-16T11:43:04Z</time>
      </trkpt>
      <trkpt lat="39.777036" lon="-4.925022">
        <ele>440.127</ele>
        <time>2021-10-16T11:43:06Z</time>
      </trkpt>
      <trkpt lat="39.777426" lon="-4.925226">
        <ele>443.875</ele>
        <time>2021-10-16T11:43:08Z</time>
      </trkpt>
      <trkpt lat="39.777697" lon="-4.925509">
        <ele>446.634</ele>
        <time>2021-10-16T11:43:10Z</time>
      </trkpt>
      <trkpt lat="39.777841" lon="-4.925913">
        <ele>448.918</ele>
        <time>2021-10-16T11:43:12Z</time>
      </trkpt>
      <trkpt lat="39.777842" lon="-4.926143">
        <ele>450.453</ele>
        <time>2021-10-16T11:43:13Z</time>
      </trkpt>
      <trkpt lat="39.777793" lon="-4.926388">
        <ele>452.182</ele>
        <time>2021-10-16T11:43:14Z</time>
      </trkpt>
      <trkpt lat="39.777585" lon="-4.926790">
        <ele>455.664</ele>
        <time>2021-10-16T11:43:16Z</time>
      </trkpt>
      <trkpt lat="39.777285" lon="-4.927048">
        <ele>457.381</ele>
        <time>2021-10-16T11:43:18Z</time>
      </trkpt>
      <trkpt lat="39.776878" lon="-4.927084">
        <ele>458.668</ele>
        <time>2021-10-16T11:43:20Z</time>
      </trkpt>
      <trkpt lat="39.776409" lon="-4.926987">
        <ele>455.842</ele>
        <time>2021-10-16T11:43:22Z</time>
      </trkpt>
      <trkpt lat="39.775878" lon="-4.926872">
        <ele>453.926</ele>
        <time>2021-10-16T11:43:24Z</time>
      </trkpt>
      <trkpt lat="39.775349" lon="-4.926773">
        <ele>450.908</ele>
        <time>2021-10-16T11:43:26Z</time>
      </trkpt>
      <trkpt lat="39.774825" lon="-4.926697">
        <ele>448.264</ele>
        <time>2021-10-16T11:43:28Z</time>
      </trkpt>
      <trkpt lat="39.774574" lon="-4.926671">
        <ele>447.062</ele>
        <time>2021-10-16T11:43:29Z</time>
      </trkpt>
      <trkpt lat="39.774105" lon="-4.926657">
        <ele>445.141</ele>
        <time>2021-10-16T11:43:31Z</time>
      </trkpt>
      <trkpt lat="39.773877" lon="-4.926668">
        <ele>444.215</ele>
        <time>2021-10-16T11:43:32Z</time>
      </trkpt>
      <trkpt lat="39.773650" lon="-4.926701">
        <ele>443.370</ele>
        <time>2021-10-16T11:43:33Z</time>
      </trkpt>
      <trkpt lat="39.773213" lon="-4.926873">
        <ele>442.129</ele>
        <time>2021-10-16T11:43:35Z</time>
      </trkpt>
      <trkpt lat="39.773022" lon="-4.927034">
        <ele>441.481</ele>
        <time>2021-10-16T11:43:36Z</time>
      </trkpt>
      <trkpt lat="39.772725" lon="-4.927490">
        <ele>439.338</ele>
        <time>2021-10-16T11:43:38Z</time>
      </trkpt>
      <trkpt lat="39.772567" lon="-4.928014">
        <ele>436.987</ele>
        <time>2021-10-16T11:43:40Z</time>
      </trkpt>
      <trkpt lat="39.772541" lon="-4.928612">
        <ele>435.842</ele>
        <time>2021-10-16T11:43:42Z</time>
      </trkpt>
      <trkpt lat="39.772672" lon="-4.929228">
        <ele>433.226</ele>
        <time>2021-10-16T11:43:44Z</time>
      </trkpt>
      <trkpt lat="39.772878" lon="-4.929789">
        <ele>432.508</ele>
        <time>2021-10-16T11:43:46Z</time>
      </trkpt>
      <trkpt lat="39.773004" lon="-4.930330">
        <ele>432.686</ele>
        <time>2021-10-16T11:43:48Z</time>
      </trkpt>
      <trkpt lat="39.773004" lon="-4.930874">
        <ele>431.894</ele>
        <time>2021-10-16T11:43:50Z</time>
      </trkpt>
      <trkpt lat="39.772952" lon="-4.931413">
        <ele>429.673</ele>
        <time>2021-10-16T11:43:52Z</time>
      </trkpt>
      <trkpt lat="39.772929" lon="-4.931699">
        <ele>428.457</ele>
        <time>2021-10-16T11:43:53Z</time>
      </trkpt>
      <trkpt lat="39.772911" lon="-4.931987">
        <ele>427.992</ele>
        <time>2021-10-16T11:43:54Z</time>
      </trkpt>
      <trkpt lat="39.772893" lon="-4.932278">
        <ele>426.961</ele>
        <time>2021-10-16T11:43:55Z</time>
      </trkpt>
      <trkpt lat="39.772856" lon="-4.932856">
        <ele>426.553</ele>
        <time>2021-10-16T11:43:57Z</time>
      </trkpt>
      <trkpt lat="39.772817" lon="-4.933421">
        <ele>425.780</ele>
        <time>2021-10-16T11:43:59Z</time>
      </trkpt>
      <trkpt lat="39.772800" lon="-4.933689">
        <ele>425.657</ele>
        <time>2021-10-16T11:44:00Z</time>
      </trkpt>
      <trkpt lat="39.772784" lon="-4.933941">
        <ele>425.900</ele>
        <time>2021-10-16T11:44:01Z</time>
      </trkpt>
      <trkpt lat="39.772733" lon="-4.934409">
        <ele>424.520</ele>
        <time>2021-10-16T11:44:03Z</time>
      </trkpt>
      <trkpt lat="39.772641" lon="-4.934863">
        <ele>422.408</ele>
        <time>2021-10-16T11:44:05Z</time>
      </trkpt>
      <trkpt lat="39.772580" lon="-4.935102">
        <ele>420.743</ele>
        <time>2021-10-16T11:44:06Z</time>
      </trkpt>
      <trkpt lat="39.772515" lon="-4.935348">
        <ele>419.231</ele>
        <time>2021-10-16T11:44:07Z</time>
      </trkpt>
      <trkpt lat="39.772442" lon="-4.935611">
        <ele>417.720</ele>
        <time>2021-10-16T11:44:08Z</time>
      </trkpt>
      <trkpt lat="39.772291" lon="-4.936132">
        <ele>417.254</ele>
        <time>2021-10-16T11:44:10Z</time>
      </trkpt>
      <trkpt lat="39.772135" lon="-4.936670">
        <ele>417.259</ele>
        <time>2021-10-16T11:44:12Z</time>
      </trkpt>
      <trkpt lat="39.771976" lon="-4.937215">
        <ele>418.538</ele>
        <time>2021-10-16T11:44:14Z</time>
      </trkpt>
      <trkpt lat="39.771804" lon="-4.937779">
        <ele>418.170</ele>
        <time>2021-10-16T11:44:16Z</time>
      </trkpt>
      <trkpt lat="39.771708" lon="-4.938098">
        <ele>418.517</ele>
        <time>2021-10-16T11:44:17Z</time>
      </trkpt>
      <trkpt lat="39.771533" lon="-4.938761">
        <ele>418.313</ele>
        <time>2021-10-16T11:44:19Z</time>
      </trkpt>
      <trkpt lat="39.771448" lon="-4.939111">
        <ele>417.843</ele>
        <time>2021-10-16T11:44:20Z</time>
      </trkpt>
      <trkpt lat="39.771261" lon="-4.939775">
        <ele>418.007</ele>
        <time>2021-10-16T11:44:22Z</time>
      </trkpt>
      <trkpt lat="39.771164" lon="-4.940128">
        <ele>418.408</ele>
        <time>2021-10-16T11:44:23Z</time>
      </trkpt>
      <trkpt lat="39.770965" lon="-4.940848">
        <ele>415.629</ele>
        <time>2021-10-16T11:44:25Z</time>
      </trkpt>
      <trkpt lat="39.770867" lon="-4.941198">
        <ele>416.287</ele>
        <time>2021-10-16T11:44:26Z</time>
      </trkpt>
      <trkpt lat="39.770678" lon="-4.941794">
        <ele>415.756</ele>
        <time>2021-10-16T11:44:28Z</time>
      </trkpt>
      <trkpt lat="39.770462" lon="-4.942296">
        <ele>415.270</ele>
        <time>2021-10-16T11:44:30Z</time>
      </trkpt>
      <trkpt lat="39.770206" lon="-4.942763">
        <ele>414.485</ele>
        <time>2021-10-16T11:44:32Z</time>
      </trkpt>
      <trkpt lat="39.769930" lon="-4.943230">
        <ele>411.134</ele>
        <time>2021-10-16T11:44:34Z</time>
      </trkpt>
      <trkpt lat="39.769627" lon="-4.943701">
        <ele>409.736</ele>
        <time>2021-10-16T11:44:36Z</time>
      </trkpt>
      <trkpt lat="39.769469" lon="-4.943949">
        <ele>407.463</ele>
        <time>2021-10-16T11:44:37Z</time>
      </trkpt>
      <trkpt lat="39.769298" lon="-4.944224">
        <ele>404.445</ele>
        <time>2021-10-16T11:44:38Z</time>
      </trkpt>
      <trkpt lat="39.768947" lon="-4.944789">
        <ele>401.947</ele>
        <time>2021-10-16T11:44:40Z</time>
      </trkpt>
      <trkpt lat="39.768569" lon="-4.945388">
        <ele>398.211</ele>
        <time>2021-10-16T11:44:42Z</time>
      </trkpt>
      <trkpt lat="39.768386" lon="-4.945679">
        <ele>397.008</ele>
        <time>2021-10-16T11:44:43Z</time>
      </trkpt>
      <trkpt lat="39.768210" lon="-4.945966">
        <ele>395.322</ele>
        <time>2021-10-16T11:44:44Z</time>
      </trkpt>
      <trkpt lat="39.767868" lon="-4.946520">
        <ele>393.530</ele>
        <time>2021-10-16T11:44:46Z</time>
      </trkpt>
      <trkpt lat="39.767690" lon="-4.946808">
        <ele>392.449</ele>
        <time>2021-10-16T11:44:47Z</time>
      </trkpt>
      <trkpt lat="39.767336" lon="-4.947399">
        <ele>389.653</ele>
        <time>2021-10-16T11:44:49Z</time>
      </trkpt>
      <trkpt lat="39.767154" lon="-4.947704">
        <ele>389.388</ele>
        <time>2021-10-16T11:44:50Z</time>
      </trkpt>
      <trkpt lat="39.766805" lon="-4.948277">
        <ele>388.487</ele>
        <time>2021-10-16T11:44:52Z</time>
      </trkpt>
      <trkpt lat="39.766454" lon="-4.948853">
        <ele>387.059</ele>
        <time>2021-10-16T11:44:54Z</time>
      </trkpt>
      <trkpt lat="39.766100" lon="-4.949430">
        <ele>386.836</ele>
        <time>2021-10-16T11:44:56Z</time>
      </trkpt>
      <trkpt lat="39.765763" lon="-4.949979">
        <ele>387.699</ele>
        <time>2021-10-16T11:44:58Z</time>
      </trkpt>
      <trkpt lat="39.765422" lon="-4.950534">
        <ele>387.707</ele>
        <time>2021-10-16T11:45:00Z</time>
      </trkpt>
      <trkpt lat="39.765250" lon="-4.950817">
        <ele>388.327</ele>
        <time>2021-10-16T11:45:01Z</time>
      </trkpt>
      <trkpt lat="39.765079" lon="-4.951099">
        <ele>388.908</ele>
        <time>2021-10-16T11:45:02Z</time>
      </trkpt>
      <trkpt lat="39.764907" lon="-4.951383">
        <ele>389.057</ele>
        <time>2021-10-16T11:45:03Z</time>
      </trkpt>
      <trkpt lat="39.764550" lon="-4.951969">
        <ele>390.165</ele>
        <time>2021-10-16T11:45:05Z</time>
      </trkpt>
      <trkpt lat="39.764195" lon="-4.952540">
        <ele>390.694</ele>
        <time>2021-10-16T11:45:07Z</time>
      </trkpt>
      <trkpt lat="39.764016" lon="-4.952835">
        <ele>392.758</ele>
        <time>2021-10-16T11:45:08Z</time>
      </trkpt>
      <trkpt lat="39.763678" lon="-4.953392">
        <ele>395.543</ele>
        <time>2021-10-16T11:45:10Z</time>
      </trkpt>
      <trkpt lat="39.763319" lon="-4.953983">
        <ele>398.872</ele>
        <time>2021-10-16T11:45:12Z</time>
      </trkpt>
      <trkpt lat="39.762937" lon="-4.954610">
        <ele>403.514</ele>
        <time>2021-10-16T11:45:14Z</time>
      </trkpt>
      <trkpt lat="39.762560" lon="-4.955232">
        <ele>406.451</ele>
        <time>2021-10-16T11:45:16Z</time>
      </trkpt>
      <trkpt lat="39.762365" lon="-4.955551">
        <ele>408.166</ele>
        <time>2021-10-16T11:45:17Z</time>
      </trkpt>
      <trkpt lat="39.762172" lon="-4.955866">
        <ele>410.529</ele>
        <time>2021-10-16T11:45:18Z</time>
      </trkpt>
      <trkpt lat="39.761784" lon="-4.956500">
        <ele>414.121</ele>
        <time>2021-10-16T11:45:20Z</time>
      </trkpt>
      <trkpt lat="39.761410" lon="-4.957106">
        <ele>418.908</ele>
        <time>2021-10-16T11:45:22Z</time>
      </trkpt>
      <trkpt lat="39.761034" lon="-4.957713">
        <ele>424.224</ele>
        <time>2021-10-16T11:45:24Z</time>
      </trkpt>
      <trkpt lat="39.760668" lon="-4.958309">
        <ele>429.292</ele>
        <time>2021-10-16T11:45:26Z</time>
      </trkpt>
      <trkpt lat="39.760314" lon="-4.958888">
        <ele>433.141</ele>
        <time>2021-10-16T11:45:28Z</time>
      </trkpt>
      <trkpt lat="39.759988" lon="-4.959421">
        <ele>437.175</ele>
        <time>2021-10-16T11:45:30Z</time>
      </trkpt>
      <trkpt lat="39.759829" lon="-4.959680">
        <ele>438.420</ele>
        <time>2021-10-16T11:45:31Z</time>
      </trkpt>
      <trkpt lat="39.759672" lon="-4.959937">
        <ele>440.179</ele>
        <time>2021-10-16T11:45:32Z</time>
      </trkpt>
      <trkpt lat="39.759362" lon="-4.960449">
        <ele>441.651</ele>
        <time>2021-10-16T11:45:34Z</time>
      </trkpt>
      <trkpt lat="39.759206" lon="-4.960707">
        <ele>442.658</ele>
        <time>2021-10-16T11:45:35Z</time>
      </trkpt>
      <trkpt lat="39.759047" lon="-4.960968">
        <ele>443.351</ele>
        <time>2021-10-16T11:45:36Z</time>
      </trkpt>
      <trkpt lat="39.758712" lon="-4.961514">
        <ele>445.601</ele>
        <time>2021-10-16T11:45:38Z</time>
      </trkpt>
      <trkpt lat="39.758377" lon="-4.962062">
        <ele>447.711</ele>
        <time>2021-10-16T11:45:40Z</time>
      </trkpt>
      <trkpt lat="39.758203" lon="-4.962349">
        <ele>447.508</ele>
        <time>2021-10-16T11:45:41Z</time>
      </trkpt>
      <trkpt lat="39.757844" lon="-4.962937">
        <ele>451.363</ele>
        <time>2021-10-16T11:45:43Z</time>
      </trkpt>
      <trkpt lat="39.757655" lon="-4.963243">
        <ele>452.741</ele>
        <time>2021-10-16T11:45:44Z</time>
      </trkpt>
      <trkpt lat="39.757295" lon="-4.963827">
        <ele>456.820</ele>
        <time>2021-10-16T11:45:46Z</time>
      </trkpt>
      <trkpt lat="39.756947" lon="-4.964399">
        <ele>460.574</ele>
        <time>2021-10-16T11:45:48Z</time>
      </trkpt>
      <trkpt lat="39.756620" lon="-4.964935">
        <ele>464.259</ele>
        <time>2021-10-16T11:45:50Z</time>
      </trkpt>
      <trkpt lat="39.756324" lon="-4.965416">
        <ele>467.118</ele>
        <time>2021-10-16T11:45:52Z</time>
      </trkpt>
      <trkpt lat="39.756184" lon="-4.965643">
        <ele>469.610</ele>
        <time>2021-10-16T11:45:53Z</time>
      </trkpt>
      <trkpt lat="39.755925" lon="-4.966068">
        <ele>472.347</ele>
        <time>2021-10-16T11:45:55Z</time>
      </trkpt>
      <trkpt lat="39.755794" lon="-4.966281">
        <ele>473.564</ele>
        <time>2021-10-16T11:45:56Z</time>
      </trkpt>
      <trkpt lat="39.755509" lon="-4.966648">
        <ele>475.506</ele>
        <time>2021-10-16T11:45:58Z</time>
      </trkpt>
      <trkpt lat="39.755127" lon="-4.966867">
        <ele>479.916</ele>
        <time>2021-10-16T11:46:00Z</time>
      </trkpt>
      <trkpt lat="39.754897" lon="-4.966910">
        <ele>480.508</ele>
        <time>2021-10-16T11:46:01Z</time>
      </trkpt>
      <trkpt lat="39.754652" lon="-4.966911">
        <ele>482.424</ele>
        <time>2021-10-16T11:46:02Z</time>
      </trkpt>
      <trkpt lat="39.754144" lon="-4.966774">
        <ele>486.792</ele>
        <time>2021-10-16T11:46:04Z</time>
      </trkpt>
      <trkpt lat="39.753870" lon="-4.966671">
        <ele>487.521</ele>
        <time>2021-10-16T11:46:05Z</time>
      </trkpt>
      <trkpt lat="39.753320" lon="-4.966488">
        <ele>493.115</ele>
        <time>2021-10-16T11:46:07Z</time>
      </trkpt>
      <trkpt lat="39.753046" lon="-4.966402">
        <ele>494.990</ele>
        <time>2021-10-16T11:46:08Z</time>
      </trkpt>
      <trkpt lat="39.752561" lon="-4.966263">
        <ele>498.869</ele>
        <time>2021-10-16T11:46:10Z</time>
      </trkpt>
      <trkpt lat="39.752104" lon="-4.966170">
        <ele>502.191</ele>
        <time>2021-10-16T11:46:12Z</time>
      </trkpt>
      <trkpt lat="39.751627" lon="-4.966178">
        <ele>505.188</ele>
        <time>2021-10-16T11:46:14Z</time>
      </trkpt>
      <trkpt lat="39.751150" lon="-4.966373">
        <ele>508.646</ele>
        <time>2021-10-16T11:46:16Z</time>
      </trkpt>
      <trkpt lat="39.750898" lon="-4.966515">
        <ele>510.688</ele>
        <time>2021-10-16T11:46:17Z</time>
      </trkpt>
      <trkpt lat="39.750646" lon="-4.966667">
        <ele>513.416</ele>
        <time>2021-10-16T11:46:18Z</time>
      </trkpt>
      <trkpt lat="39.750394" lon="-4.966813">
        <ele>516.308</ele>
        <time>2021-10-16T11:46:19Z</time>
      </trkpt>
      <trkpt lat="39.750146" lon="-4.966951">
        <ele>518.162</ele>
        <time>2021-10-16T11:46:20Z</time>
      </trkpt>
      <trkpt lat="39.749710" lon="-4.967185">
        <ele>522.230</ele>
        <time>2021-10-16T11:46:22Z</time>
      </trkpt>
      <trkpt lat="39.749497" lon="-4.967303">
        <ele>524.529</ele>
        <time>2021-10-16T11:46:23Z</time>
      </trkpt>
      <trkpt lat="39.749079" lon="-4.967531">
        <ele>527.053</ele>
        <time>2021-10-16T11:46:25Z</time>
      </trkpt>
      <trkpt lat="39.748882" lon="-4.967632">
        <ele>528.938</ele>
        <time>2021-10-16T11:46:26Z</time>
      </trkpt>
      <trkpt lat="39.748530" lon="-4.967779">
        <ele>531.997</ele>
        <time>2021-10-16T11:46:28Z</time>
      </trkpt>
      <trkpt lat="39.748173" lon="-4.967810">
        <ele>535.219</ele>
        <time>2021-10-16T11:46:30Z</time>
      </trkpt>
      <trkpt lat="39.747982" lon="-4.967783">
        <ele>536.716</ele>
        <time>2021-10-16T11:46:31Z</time>
      </trkpt>
      <trkpt lat="39.747793" lon="-4.967745">
        <ele>537.599</ele>
        <time>2021-10-16T11:46:32Z</time>
      </trkpt>
      <trkpt lat="39.747398" lon="-4.967658">
        <ele>540.907</ele>
        <time>2021-10-16T11:46:34Z</time>
      </trkpt>
      <trkpt lat="39.747005" lon="-4.967577">
        <ele>542.727</ele>
        <time>2021-10-16T11:46:36Z</time>
      </trkpt>
      <trkpt lat="39.746815" lon="-4.967538">
        <ele>544.408</ele>
        <time>2021-10-16T11:46:37Z</time>
      </trkpt>
      <trkpt lat="39.746626" lon="-4.967499">
        <ele>545.947</ele>
        <time>2021-10-16T11:46:38Z</time>
      </trkpt>
      <trkpt lat="39.746291" lon="-4.967431">
        <ele>548.075</ele>
        <time>2021-10-16T11:46:40Z</time>
      </trkpt>
      <trkpt lat="39.745957" lon="-4.967364">
        <ele>551.284</ele>
        <time>2021-10-16T11:46:42Z</time>
      </trkpt>
      <trkpt lat="39.745786" lon="-4.967334">
        <ele>552.338</ele>
        <time>2021-10-16T11:46:43Z</time>
      </trkpt>
      <trkpt lat="39.745611" lon="-4.967309">
        <ele>553.313</ele>
        <time>2021-10-16T11:46:44Z</time>
      </trkpt>
      <trkpt lat="39.745262" lon="-4.967291">
        <ele>555.962</ele>
        <time>2021-10-16T11:46:46Z</time>
      </trkpt>
      <trkpt lat="39.745075" lon="-4.967294">
        <ele>556.614</ele>
        <time>2021-10-16T11:46:47Z</time>
      </trkpt>
      <trkpt lat="39.744886" lon="-4.967297">
        <ele>557.431</ele>
        <time>2021-10-16T11:46:48Z</time>
      </trkpt>
      <trkpt lat="39.744693" lon="-4.967299">
        <ele>558.711</ele>
        <time>2021-10-16T11:46:49Z</time>
      </trkpt>
      <trkpt lat="39.744494" lon="-4.967302">
        <ele>560.821</ele>
        <time>2021-10-16T11:46:50Z</time>
      </trkpt>
      <trkpt lat="39.744106" lon="-4.967307">
        <ele>563.403</ele>
        <time>2021-10-16T11:46:52Z</time>
      </trkpt>
      <trkpt lat="39.743737" lon="-4.967293">
        <ele>565.408</ele>
        <time>2021-10-16T11:46:54Z</time>
      </trkpt>
      <trkpt lat="39.743410" lon="-4.967195">
        <ele>569.499</ele>
        <time>2021-10-16T11:46:56Z</time>
      </trkpt>
      <trkpt lat="39.743123" lon="-4.966951">
        <ele>572.287</ele>
        <time>2021-10-16T11:46:58Z</time>
      </trkpt>
      <trkpt lat="39.742880" lon="-4.966523">
        <ele>574.216</ele>
        <time>2021-10-16T11:47:00Z</time>
      </trkpt>
      <trkpt lat="39.742686" lon="-4.966019">
        <ele>575.950</ele>
        <time>2021-10-16T11:47:02Z</time>
      </trkpt>
      <trkpt lat="39.742480" lon="-4.965565">
        <ele>577.945</ele>
        <time>2021-10-16T11:47:04Z</time>
      </trkpt>
      <trkpt lat="39.742355" lon="-4.965368">
        <ele>579.244</ele>
        <time>2021-10-16T11:47:05Z</time>
      </trkpt>
      <trkpt lat="39.742049" lon="-4.965069">
        <ele>580.626</ele>
        <time>2021-10-16T11:47:07Z</time>
      </trkpt>
      <trkpt lat="39.741862" lon="-4.964973">
        <ele>582.423</ele>
        <time>2021-10-16T11:47:08Z</time>
      </trkpt>
      <trkpt lat="39.741454" lon="-4.964909">
        <ele>583.338</ele>
        <time>2021-10-16T11:47:10Z</time>
      </trkpt>
      <trkpt lat="39.741022" lon="-4.964906">
        <ele>584.970</ele>
        <time>2021-10-16T11:47:12Z</time>
      </trkpt>
      <trkpt lat="39.740574" lon="-4.964893">
        <ele>585.217</ele>
        <time>2021-10-16T11:47:14Z</time>
      </trkpt>
      <trkpt lat="39.740145" lon="-4.964872">
        <ele>586.008</ele>
        <time>2021-10-16T11:47:16Z</time>
      </trkpt>
      <trkpt lat="39.739714" lon="-4.964861">
        <ele>587.631</ele>
        <time>2021-10-16T11:47:18Z</time>
      </trkpt>
      <trkpt lat="39.739488" lon="-4.964854">
        <ele>588.089</ele>
        <time>2021-10-16T11:47:19Z</time>
      </trkpt>
      <trkpt lat="39.739254" lon="-4.964847">
        <ele>587.848</ele>
        <time>2021-10-16T11:47:20Z</time>
      </trkpt>
      <trkpt lat="39.738793" lon="-4.964833">
        <ele>587.052</ele>
        <time>2021-10-16T11:47:22Z</time>
      </trkpt>
      <trkpt lat="39.738554" lon="-4.964825">
        <ele>586.537</ele>
        <time>2021-10-16T11:47:23Z</time>
      </trkpt>
      <trkpt lat="39.738074" lon="-4.964808">
        <ele>586.186</ele>
        <time>2021-10-16T11:47:25Z</time>
      </trkpt>
      <trkpt lat="39.737828" lon="-4.964800">
        <ele>587.098</ele>
        <time>2021-10-16T11:47:26Z</time>
      </trkpt>
      <trkpt lat="39.737357" lon="-4.964783">
        <ele>587.425</ele>
        <time>2021-10-16T11:47:28Z</time>
      </trkpt>
      <trkpt lat="39.737120" lon="-4.964775">
        <ele>587.086</ele>
        <time>2021-10-16T11:47:29Z</time>
      </trkpt>
      <trkpt lat="39.736646" lon="-4.964758">
        <ele>586.260</ele>
        <time>2021-10-16T11:47:31Z</time>
      </trkpt>
      <trkpt lat="39.736401" lon="-4.964749">
        <ele>586.526</ele>
        <time>2021-10-16T11:47:32Z</time>
      </trkpt>
      <trkpt lat="39.735906" lon="-4.964721">
        <ele>586.508</ele>
        <time>2021-10-16T11:47:34Z</time>
      </trkpt>
      <trkpt lat="39.735639" lon="-4.964706">
        <ele>587.546</ele>
        <time>2021-10-16T11:47:35Z</time>
      </trkpt>
      <trkpt lat="39.735087" lon="-4.964687">
        <ele>586.114</ele>
        <time>2021-10-16T11:47:37Z</time>
      </trkpt>
      <trkpt lat="39.734801" lon="-4.964691">
        <ele>586.453</ele>
        <time>2021-10-16T11:47:38Z</time>
      </trkpt>
      <trkpt lat="39.734242" lon="-4.964756">
        <ele>586.367</ele>
        <time>2021-10-16T11:47:40Z</time>
      </trkpt>
      <trkpt lat="39.733956" lon="-4.964812">
        <ele>586.262</ele>
        <time>2021-10-16T11:47:41Z</time>
      </trkpt>
      <trkpt lat="39.733676" lon="-4.964876">
        <ele>586.851</ele>
        <time>2021-10-16T11:47:42Z</time>
      </trkpt>
      <trkpt lat="39.733101" lon="-4.964997">
        <ele>587.033</ele>
        <time>2021-10-16T11:47:44Z</time>
      </trkpt>
      <trkpt lat="39.732507" lon="-4.965114">
        <ele>587.910</ele>
        <time>2021-10-16T11:47:46Z</time>
      </trkpt>
      <trkpt lat="39.731870" lon="-4.965234">
        <ele>587.294</ele>
        <time>2021-10-16T11:47:48Z</time>
      </trkpt>
      <trkpt lat="39.731207" lon="-4.965360">
        <ele>589.057</ele>
        <time>2021-10-16T11:47:50Z</time>
      </trkpt>
      <trkpt lat="39.730610" lon="-4.965489">
        <ele>588.722</ele>
        <time>2021-10-16T11:47:52Z</time>
      </trkpt>
      <trkpt lat="39.730327" lon="-4.965554">
        <ele>588.808</ele>
        <time>2021-10-16T11:47:53Z</time>
      </trkpt>
      <trkpt lat="39.729783" lon="-4.965684">
        <ele>588.967</ele>
        <time>2021-10-16T11:47:55Z</time>
      </trkpt>
      <trkpt lat="39.729510" lon="-4.965740">
        <ele>588.435</ele>
        <time>2021-10-16T11:47:56Z</time>
      </trkpt>
      <trkpt lat="39.728971" lon="-4.965843">
        <ele>587.884</ele>
        <time>2021-10-16T11:47:58Z</time>
      </trkpt>
      <trkpt lat="39.728693" lon="-4.965899">
        <ele>588.748</ele>
        <time>2021-10-16T11:47:59Z</time>
      </trkpt>
      <trkpt lat="39.728415" lon="-4.965960">
        <ele>589.143</ele>
        <time>2021-10-16T11:48:00Z</time>
      </trkpt>
      <trkpt lat="39.728135" lon="-4.966019">
        <ele>589.012</ele>
        <time>2021-10-16T11:48:01Z</time>
      </trkpt>
      <trkpt lat="39.727567" lon="-4.966129">
        <ele>588.414</ele>
        <time>2021-10-16T11:48:03Z</time>
      </trkpt>
      <trkpt lat="39.726950" lon="-4.966248">
        <ele>588.711</ele>
        <time>2021-10-16T11:48:05Z</time>
      </trkpt>
      <trkpt lat="39.726309" lon="-4.966374">
        <ele>588.893</ele>
        <time>2021-10-16T11:48:07Z</time>
      </trkpt>
      <trkpt lat="39.725989" lon="-4.966442">
        <ele>589.565</ele>
        <time>2021-10-16T11:48:08Z</time>
      </trkpt>
      <trkpt lat="39.725400" lon="-4.966558">
        <ele>588.821</ele>
        <time>2021-10-16T11:48:10Z</time>
      </trkpt>
      <trkpt lat="39.725111" lon="-4.966621">
        <ele>588.908</ele>
        <time>2021-10-16T11:48:11Z</time>
      </trkpt>
      <trkpt lat="39.724836" lon="-4.966680">
        <ele>589.357</ele>
        <time>2021-10-16T11:48:12Z</time>
      </trkpt>
      <trkpt lat="39.724572" lon="-4.966735">
        <ele>589.555</ele>
        <time>2021-10-16T11:48:13Z</time>
      </trkpt>
      <trkpt lat="39.724304" lon="-4.966786">
        <ele>589.524</ele>
        <time>2021-10-16T11:48:14Z</time>
      </trkpt>
      <trkpt lat="39.723795" lon="-4.966886">
        <ele>590.778</ele>
        <time>2021-10-16T11:48:16Z</time>
      </trkpt>
      <trkpt lat="39.723267" lon="-4.966990">
        <ele>591.573</ele>
        <time>2021-10-16T11:48:18Z</time>
      </trkpt>
      <trkpt lat="39.722989" lon="-4.967050">
        <ele>592.562</ele>
        <time>2021-10-16T11:48:19Z</time>
      </trkpt>
      <trkpt lat="39.722706" lon="-4.967110">
        <ele>592.984</ele>
        <time>2021-10-16T11:48:20Z</time>
      </trkpt>
      <trkpt lat="39.722176" lon="-4.967217">
        <ele>593.561</ele>
        <time>2021-10-16T11:48:22Z</time>
      </trkpt>
      <trkpt lat="39.721675" lon="-4.967293">
        <ele>594.592</ele>
        <time>2021-10-16T11:48:24Z</time>
      </trkpt>
      <trkpt lat="39.721185" lon="-4.967313">
        <ele>595.673</ele>
        <time>2021-10-16T11:48:26Z</time>
      </trkpt>
      <trkpt lat="39.720644" lon="-4.967288">
        <ele>596.320</ele>
        <time>2021-10-16T11:48:28Z</time>
      </trkpt>
      <trkpt lat="39.720363" lon="-4.967276">
        <ele>596.008</ele>
        <time>2021-10-16T11:48:29Z</time>
      </trkpt>
      <trkpt lat="39.719803" lon="-4.967262">
        <ele>597.397</ele>
        <time>2021-10-16T11:48:31Z</time>
      </trkpt>
      <trkpt lat="39.719521" lon="-4.967251">
        <ele>597.075</ele>
        <time>2021-10-16T11:48:32Z</time>
      </trkpt>
      <trkpt lat="39.718939" lon="-4.967223">
        <ele>597.234</ele>
        <time>2021-10-16T11:48:34Z</time>
      </trkpt>
      <trkpt lat="39.718337" lon="-4.967186">
        <ele>597.678</ele>
        <time>2021-10-16T11:48:36Z</time>
      </trkpt>
      <trkpt lat="39.718023" lon="-4.967169">
        <ele>598.293</ele>
        <time>2021-10-16T11:48:37Z</time>
      </trkpt>
      <trkpt lat="39.717704" lon="-4.967157">
        <ele>598.362</ele>
        <time>2021-10-16T11:48:38Z</time>
      </trkpt>
      <trkpt lat="39.717087" lon="-4.967137">
        <ele>599.624</ele>
        <time>2021-10-16T11:48:40Z</time>
      </trkpt>
      <trkpt lat="39.716425" lon="-4.967118">
        <ele>600.261</ele>
        <time>2021-10-16T11:48:42Z</time>
      </trkpt>
      <trkpt lat="39.715759" lon="-4.967110">
        <ele>600.881</ele>
        <time>2021-10-16T11:48:44Z</time>
      </trkpt>
      <trkpt lat="39.715151" lon="-4.967109">
        <ele>601.061</ele>
        <time>2021-10-16T11:48:46Z</time>
      </trkpt>
      <trkpt lat="39.714859" lon="-4.967110">
        <ele>601.617</ele>
        <time>2021-10-16T11:48:47Z</time>
      </trkpt>
      <trkpt lat="39.714310" lon="-4.967094">
        <ele>602.908</ele>
        <time>2021-10-16T11:48:49Z</time>
      </trkpt>
      <trkpt lat="39.714025" lon="-4.967088">
        <ele>603.356</ele>
        <time>2021-10-16T11:48:50Z</time>
      </trkpt>
      <trkpt lat="39.713473" lon="-4.967139">
        <ele>603.044</ele>
        <time>2021-10-16T11:48:52Z</time>
      </trkpt>
      <trkpt lat="39.713182" lon="-4.967199">
        <ele>603.413</ele>
        <time>2021-10-16T11:48:53Z</time>
      </trkpt>
      <trkpt lat="39.712613" lon="-4.967414">
        <ele>604.327</ele>
        <time>2021-10-16T11:48:55Z</time>
      </trkpt>
      <trkpt lat="39.712338" lon="-4.967564">
        <ele>604.882</ele>
        <time>2021-10-16T11:48:56Z</time>
      </trkpt>
      <trkpt lat="39.711816" lon="-4.967893">
        <ele>606.371</ele>
        <time>2021-10-16T11:48:58Z</time>
      </trkpt>
      <trkpt lat="39.711559" lon="-4.968059">
        <ele>606.863</ele>
        <time>2021-10-16T11:48:59Z</time>
      </trkpt>
      <trkpt lat="39.711305" lon="-4.968220">
        <ele>607.860</ele>
        <time>2021-10-16T11:49:00Z</time>
      </trkpt>
      <trkpt lat="39.710805" lon="-4.968526">
        <ele>609.232</ele>
        <time>2021-10-16T11:49:02Z</time>
      </trkpt>
      <trkpt lat="39.710329" lon="-4.968817">
        <ele>610.192</ele>
        <time>2021-10-16T11:49:04Z</time>
      </trkpt>
      <trkpt lat="39.710091" lon="-4.968959">
        <ele>610.511</ele>
        <time>2021-10-16T11:49:05Z</time>
      </trkpt>
      <trkpt lat="39.709619" lon="-4.969240">
        <ele>611.508</ele>
        <time>2021-10-16T11:49:07Z</time>
      </trkpt>
      <trkpt lat="39.709376" lon="-4.969385">
        <ele>612.761</ele>
        <time>2021-10-16T11:49:08Z</time>
      </trkpt>
      <trkpt lat="39.708909" lon="-4.969641">
        <ele>614.879</ele>
        <time>2021-10-16T11:49:10Z</time>
      </trkpt>
      <trkpt lat="39.708664" lon="-4.969744">
        <ele>616.198</ele>
        <time>2021-10-16T11:49:11Z</time>
      </trkpt>
      <trkpt lat="39.708160" lon="-4.969857">
        <ele>619.212</ele>
        <time>2021-10-16T11:49:13Z</time>
      </trkpt>
      <trkpt lat="39.707893" lon="-4.969870">
        <ele>620.797</ele>
        <time>2021-10-16T11:49:14Z</time>
      </trkpt>
      <trkpt lat="39.707358" lon="-4.969816">
        <ele>624.556</ele>
        <time>2021-10-16T11:49:16Z</time>
      </trkpt>
      <trkpt lat="39.707067" lon="-4.969773">
        <ele>625.118</ele>
        <time>2021-10-16T11:49:17Z</time>
      </trkpt>
      <trkpt lat="39.706767" lon="-4.969725">
        <ele>625.925</ele>
        <time>2021-10-16T11:49:18Z</time>
      </trkpt>
      <trkpt lat="39.706156" lon="-4.969637">
        <ele>626.717</ele>
        <time>2021-10-16T11:49:20Z</time>
      </trkpt>
      <trkpt lat="39.705571" lon="-4.969554">
        <ele>628.587</ele>
        <time>2021-10-16T11:49:22Z</time>
      </trkpt>
      <trkpt lat="39.704974" lon="-4.969469">
        <ele>630.215</ele>
        <time>2021-10-16T11:49:24Z</time>
      </trkpt>
      <trkpt lat="39.704678" lon="-4.969431">
        <ele>631.308</ele>
        <time>2021-10-16T11:49:25Z</time>
      </trkpt>
      <trkpt lat="39.704385" lon="-4.969393">
        <ele>632.019</ele>
        <time>2021-10-16T11:49:26Z</time>
      </trkpt>
      <trkpt lat="39.703819" lon="-4.969317">
        <ele>633.067</ele>
        <time>2021-10-16T11:49:28Z</time>
      </trkpt>
      <trkpt lat="39.703540" lon="-4.969276">
        <ele>633.216</ele>
        <time>2021-10-16T11:49:29Z</time>
      </trkpt>
      <trkpt lat="39.702986" lon="-4.969202">
        <ele>634.270</ele>
        <time>2021-10-16T11:49:31Z</time>
      </trkpt>
      <trkpt lat="39.702711" lon="-4.969167">
        <ele>635.135</ele>
        <time>2021-10-16T11:49:32Z</time>
      </trkpt>
      <trkpt lat="39.702160" lon="-4.969089">
        <ele>636.724</ele>
        <time>2021-10-16T11:49:34Z</time>
      </trkpt>
      <trkpt lat="39.701881" lon="-4.969048">
        <ele>637.116</ele>
        <time>2021-10-16T11:49:35Z</time>
      </trkpt>
      <trkpt lat="39.701308" lon="-4.968972">
        <ele>637.223</ele>
        <time>2021-10-16T11:49:37Z</time>
      </trkpt>
      <trkpt lat="39.701004" lon="-4.968933">
        <ele>638.518</ele>
        <time>2021-10-16T11:49:38Z</time>
      </trkpt>
      <trkpt lat="39.700405" lon="-4.968855">
        <ele>640.198</ele>
        <time>2021-10-16T11:49:40Z</time>
      </trkpt>
      <trkpt lat="39.700090" lon="-4.968814">
        <ele>640.817</ele>
        <time>2021-10-16T11:49:41Z</time>
      </trkpt>
      <trkpt lat="39.699773" lon="-4.968771">
        <ele>641.808</ele>
        <time>2021-10-16T11:49:42Z</time>
      </trkpt>
      <trkpt lat="39.699133" lon="-4.968676">
        <ele>643.979</ele>
        <time>2021-10-16T11:49:44Z</time>
      </trkpt>
      <trkpt lat="39.698521" lon="-4.968590">
        <ele>645.727</ele>
        <time>2021-10-16T11:49:46Z</time>
      </trkpt>
      <trkpt lat="39.698214" lon="-4.968552">
        <ele>646.486</ele>
        <time>2021-10-16T11:49:47Z</time>
      </trkpt>
      <trkpt lat="39.697611" lon="-4.968476">
        <ele>648.440</ele>
        <time>2021-10-16T11:49:49Z</time>
      </trkpt>
      <trkpt lat="39.697301" lon="-4.968435">
        <ele>648.985</ele>
        <time>2021-10-16T11:49:50Z</time>
      </trkpt>
      <trkpt lat="39.696718" lon="-4.968360">
        <ele>649.684</ele>
        <time>2021-10-16T11:49:52Z</time>
      </trkpt>
      <trkpt lat="39.696431" lon="-4.968322">
        <ele>649.836</ele>
        <time>2021-10-16T11:49:53Z</time>
      </trkpt>
      <trkpt lat="39.695891" lon="-4.968242">
        <ele>651.533</ele>
        <time>2021-10-16T11:49:55Z</time>
      </trkpt>
      <trkpt lat="39.695610" lon="-4.968200">
        <ele>651.966</ele>
        <time>2021-10-16T11:49:56Z</time>
      </trkpt>
      <trkpt lat="39.695063" lon="-4.968131">
        <ele>652.429</ele>
        <time>2021-10-16T11:49:58Z</time>
      </trkpt>
      <trkpt lat="39.694765" lon="-4.968092">
        <ele>652.821</ele>
        <time>2021-10-16T11:49:59Z</time>
      </trkpt>
      <trkpt lat="39.694178" lon="-4.968011">
        <ele>654.308</ele>
        <time>2021-10-16T11:50:01Z</time>
      </trkpt>
      <trkpt lat="39.693903" lon="-4.967976">
        <ele>654.424</ele>
        <time>2021-10-16T11:50:02Z</time>
      </trkpt>
      <trkpt lat="39.693402" lon="-4.967913">
        <ele>657.022</ele>
        <time>2021-10-16T11:50:04Z</time>
      </trkpt>
      <trkpt lat="39.693162" lon="-4.967883">
        <ele>657.831</ele>
        <time>2021-10-16T11:50:05Z</time>
      </trkpt>
      <trkpt lat="39.692682" lon="-4.967822">
        <ele>657.075</ele>
        <time>2021-10-16T11:50:07Z</time>
      </trkpt>
      <trkpt lat="39.692436" lon="-4.967785">
        <ele>657.820</ele>
        <time>2021-10-16T11:50:08Z</time>
      </trkpt>
      <trkpt lat="39.691993" lon="-4.967729">
        <ele>658.919</ele>
        <time>2021-10-16T11:50:10Z</time>
      </trkpt>
      <trkpt lat="39.691778" lon="-4.967703">
        <ele>659.921</ele>
        <time>2021-10-16T11:50:11Z</time>
      </trkpt>
      <trkpt lat="39.691369" lon="-4.967649">
        <ele>659.878</ele>
        <time>2021-10-16T11:50:13Z</time>
      </trkpt>
      <trkpt lat="39.691176" lon="-4.967625">
        <ele>659.756</ele>
        <time>2021-10-16T11:50:14Z</time>
      </trkpt>
      <trkpt lat="39.690826" lon="-4.967582">
        <ele>659.859</ele>
        <time>2021-10-16T11:50:16Z</time>
      </trkpt>
      <trkpt lat="39.690474" lon="-4.967531">
        <ele>660.214</ele>
        <time>2021-10-16T11:50:18Z</time>
      </trkpt>
      <trkpt lat="39.690133" lon="-4.967447">
        <ele>659.708</ele>
        <time>2021-10-16T11:50:20Z</time>
      </trkpt>
      <trkpt lat="39.689834" lon="-4.967281">
        <ele>658.723</ele>
        <time>2021-10-16T11:50:22Z</time>
      </trkpt>
      <trkpt lat="39.689544" lon="-4.967028">
        <ele>657.041</ele>
        <time>2021-10-16T11:50:24Z</time>
      </trkpt>
      <trkpt lat="39.689410" lon="-4.966891">
        <ele>657.080</ele>
        <time>2021-10-16T11:50:25Z</time>
      </trkpt>
      <trkpt lat="39.689272" lon="-4.966745">
        <ele>656.184</ele>
        <time>2021-10-16T11:50:26Z</time>
      </trkpt>
      <trkpt lat="39.689012" lon="-4.966399">
        <ele>653.799</ele>
        <time>2021-10-16T11:50:28Z</time>
      </trkpt>
      <trkpt lat="39.688883" lon="-4.966172">
        <ele>652.598</ele>
        <time>2021-10-16T11:50:29Z</time>
      </trkpt>
      <trkpt lat="39.688746" lon="-4.965903">
        <ele>652.390</ele>
        <time>2021-10-16T11:50:30Z</time>
      </trkpt>
      <trkpt lat="39.688590" lon="-4.965610">
        <ele>651.387</ele>
        <time>2021-10-16T11:50:31Z</time>
      </trkpt>
      <trkpt lat="39.688410" lon="-4.965302">
        <ele>649.978</ele>
        <time>2021-10-16T11:50:32Z</time>
      </trkpt>
      <trkpt lat="39.688021" lon="-4.964660">
        <ele>647.333</ele>
        <time>2021-10-16T11:50:34Z</time>
      </trkpt>
      <trkpt lat="39.687617" lon="-4.963999">
        <ele>642.926</ele>
        <time>2021-10-16T11:50:36Z</time>
      </trkpt>
      <trkpt lat="39.687406" lon="-4.963701">
        <ele>641.108</ele>
        <time>2021-10-16T11:50:37Z</time>
      </trkpt>
      <trkpt lat="39.687195" lon="-4.963421">
        <ele>640.215</ele>
        <time>2021-10-16T11:50:38Z</time>
      </trkpt>
      <trkpt lat="39.686806" lon="-4.962945">
        <ele>635.733</ele>
        <time>2021-10-16T11:50:40Z</time>
      </trkpt>
      <trkpt lat="39.686436" lon="-4.962525">
        <ele>632.882</ele>
        <time>2021-10-16T11:50:42Z</time>
      </trkpt>
      <trkpt lat="39.686091" lon="-4.962158">
        <ele>629.266</ele>
        <time>2021-10-16T11:50:44Z</time>
      </trkpt>
      <trkpt lat="39.685786" lon="-4.961876">
        <ele>625.291</ele>
        <time>2021-10-16T11:50:46Z</time>
      </trkpt>
      <trkpt lat="39.685494" lon="-4.961644">
        <ele>621.780</ele>
        <time>2021-10-16T11:50:48Z</time>
      </trkpt>
      <trkpt lat="39.685245" lon="-4.961501">
        <ele>619.782</ele>
        <time>2021-10-16T11:50:50Z</time>
      </trkpt>
      <trkpt lat="39.685063" lon="-4.961466">
        <ele>617.339</ele>
        <time>2021-10-16T11:50:52Z</time>
      </trkpt>
      <trkpt lat="39.684896" lon="-4.961560">
        <ele>613.977</ele>
        <time>2021-10-16T11:50:54Z</time>
      </trkpt>
      <trkpt lat="39.684845" lon="-4.961669">
        <ele>613.961</ele>
        <time>2021-10-16T11:50:55Z</time>
      </trkpt>
      <trkpt lat="39.684838" lon="-4.961812">
        <ele>613.327</ele>
        <time>2021-10-16T11:50:56Z</time>
      </trkpt>
      <trkpt lat="39.684882" lon="-4.961964">
        <ele>612.108</ele>
        <time>2021-10-16T11:50:57Z</time>
      </trkpt>
      <trkpt lat="39.685051" lon="-4.962264">
        <ele>610.565</ele>
        <time>2021-10-16T11:50:59Z</time>
      </trkpt>
      <trkpt lat="39.685282" lon="-4.962606">
        <ele>610.273</ele>
        <time>2021-10-16T11:51:01Z</time>
      </trkpt>
      <trkpt lat="39.685413" lon="-4.962815">
        <ele>610.132</ele>
        <time>2021-10-16T11:51:02Z</time>
      </trkpt>
      <trkpt lat="39.685554" lon="-4.963057">
        <ele>610.676</ele>
        <time>2021-10-16T11:51:03Z</time>
      </trkpt>
      <trkpt lat="39.685691" lon="-4.963322">
        <ele>611.931</ele>
        <time>2021-10-16T11:51:04Z</time>
      </trkpt>
      <trkpt lat="39.685938" lon="-4.963884">
        <ele>616.560</ele>
        <time>2021-10-16T11:51:06Z</time>
      </trkpt>
      <trkpt lat="39.686154" lon="-4.964539">
        <ele>620.232</ele>
        <time>2021-10-16T11:51:08Z</time>
      </trkpt>
      <trkpt lat="39.686338" lon="-4.965117">
        <ele>623.719</ele>
        <time>2021-10-16T11:51:10Z</time>
      </trkpt>
      <trkpt lat="39.686414" lon="-4.965359">
        <ele>625.416</ele>
        <time>2021-10-16T11:51:11Z</time>
      </trkpt>
      <trkpt lat="39.686498" lon="-4.965752">
        <ele>630.076</ele>
        <time>2021-10-16T11:51:13Z</time>
      </trkpt>
      <trkpt lat="39.686498" lon="-4.965955">
        <ele>631.513</ele>
        <time>2021-10-16T11:51:14Z</time>
      </trkpt>
      <trkpt lat="39.686416" lon="-4.966347">
        <ele>634.808</ele>
        <time>2021-10-16T11:51:16Z</time>
      </trkpt>
      <trkpt lat="39.686350" lon="-4.966702">
        <ele>635.919</ele>
        <time>2021-10-16T11:51:18Z</time>
      </trkpt>
      <trkpt lat="39.686427" lon="-4.967003">
        <ele>637.017</ele>
        <time>2021-10-16T11:51:20Z</time>
      </trkpt>
      <trkpt lat="39.686550" lon="-4.967327">
        <ele>640.866</ele>
        <time>2021-10-16T11:51:22Z</time>
      </trkpt>
      <trkpt lat="39.686550" lon="-4.967689">
        <ele>641.050</ele>
        <time>2021-10-16T11:51:24Z</time>
      </trkpt>
      <trkpt lat="39.686500" lon="-4.967855">
        <ele>642.095</ele>
        <time>2021-10-16T11:51:25Z</time>
      </trkpt>
      <trkpt lat="39.686453" lon="-4.967997">
        <ele>643.114</ele>
        <time>2021-10-16T11:51:26Z</time>
      </trkpt>
      <trkpt lat="39.686459" lon="-4.968249">
        <ele>644.876</ele>
        <time>2021-10-16T11:51:28Z</time>
      </trkpt>
      <trkpt lat="39.686597" lon="-4.968437">
        <ele>646.163</ele>
        <time>2021-10-16T11:51:30Z</time>
      </trkpt>
      <trkpt lat="39.686803" lon="-4.968603">
        <ele>646.812</ele>
        <time>2021-10-16T11:51:32Z</time>
      </trkpt>
      <trkpt lat="39.687008" lon="-4.968925">
        <ele>647.532</ele>
        <time>2021-10-16T11:51:34Z</time>
      </trkpt>
      <trkpt lat="39.687152" lon="-4.969386">
        <ele>650.905</ele>
        <time>2021-10-16T11:51:36Z</time>
      </trkpt>
      <trkpt lat="39.687241" lon="-4.969868">
        <ele>652.908</ele>
        <time>2021-10-16T11:51:38Z</time>
      </trkpt>
      <trkpt lat="39.687290" lon="-4.970269">
        <ele>656.079</ele>
        <time>2021-10-16T11:51:40Z</time>
      </trkpt>
      <trkpt lat="39.687291" lon="-4.970470">
        <ele>656.547</ele>
        <time>2021-10-16T11:51:41Z</time>
      </trkpt>
      <trkpt lat="39.687200" lon="-4.970869">
        <ele>658.056</ele>
        <time>2021-10-16T11:51:43Z</time>
      </trkpt>
      <trkpt lat="39.687106" lon="-4.971065">
        <ele>658.780</ele>
        <time>2021-10-16T11:51:44Z</time>
      </trkpt>
      <trkpt lat="39.686836" lon="-4.971410">
        <ele>659.655</ele>
        <time>2021-10-16T11:51:46Z</time>
      </trkpt>
      <trkpt lat="39.686447" lon="-4.971768">
        <ele>659.424</ele>
        <time>2021-10-16T11:51:48Z</time>
      </trkpt>
      <trkpt lat="39.685994" lon="-4.972196">
        <ele>659.346</ele>
        <time>2021-10-16T11:51:50Z</time>
      </trkpt>
      <trkpt lat="39.685567" lon="-4.972594">
        <ele>660.493</ele>
        <time>2021-10-16T11:51:52Z</time>
      </trkpt>
      <trkpt lat="39.685369" lon="-4.972780">
        <ele>661.147</ele>
        <time>2021-10-16T11:51:53Z</time>
      </trkpt>
      <trkpt lat="39.685003" lon="-4.973128">
        <ele>661.229</ele>
        <time>2021-10-16T11:51:55Z</time>
      </trkpt>
      <trkpt lat="39.684812" lon="-4.973300">
        <ele>661.621</ele>
        <time>2021-10-16T11:51:56Z</time>
      </trkpt>
      <trkpt lat="39.684422" lon="-4.973576">
        <ele>663.408</ele>
        <time>2021-10-16T11:51:58Z</time>
      </trkpt>
      <trkpt lat="39.684199" lon="-4.973676">
        <ele>663.752</ele>
        <time>2021-10-16T11:51:59Z</time>
      </trkpt>
      <trkpt lat="39.683950" lon="-4.973748">
        <ele>663.750</ele>
        <time>2021-10-16T11:52:00Z</time>
      </trkpt>
      <trkpt lat="39.683420" lon="-4.973873">
        <ele>666.499</ele>
        <time>2021-10-16T11:52:02Z</time>
      </trkpt>
      <trkpt lat="39.683148" lon="-4.973940">
        <ele>667.153</ele>
        <time>2021-10-16T11:52:03Z</time>
      </trkpt>
      <trkpt lat="39.682872" lon="-4.974009">
        <ele>667.488</ele>
        <time>2021-10-16T11:52:04Z</time>
      </trkpt>
      <trkpt lat="39.682308" lon="-4.974151">
        <ele>669.947</ele>
        <time>2021-10-16T11:52:06Z</time>
      </trkpt>
      <trkpt lat="39.682027" lon="-4.974223">
        <ele>671.259</ele>
        <time>2021-10-16T11:52:07Z</time>
      </trkpt>
      <trkpt lat="39.681745" lon="-4.974295">
        <ele>673.486</ele>
        <time>2021-10-16T11:52:08Z</time>
      </trkpt>
      <trkpt lat="39.681246" lon="-4.974422">
        <ele>674.916</ele>
        <time>2021-10-16T11:52:10Z</time>
      </trkpt>
      <trkpt lat="39.680994" lon="-4.974486">
        <ele>674.276</ele>
        <time>2021-10-16T11:52:11Z</time>
      </trkpt>
      <trkpt lat="39.680463" lon="-4.974621">
        <ele>675.513</ele>
        <time>2021-10-16T11:52:13Z</time>
      </trkpt>
      <trkpt lat="39.680176" lon="-4.974696">
        <ele>675.708</ele>
        <time>2021-10-16T11:52:14Z</time>
      </trkpt>
      <trkpt lat="39.679592" lon="-4.974847">
        <ele>674.859</ele>
        <time>2021-10-16T11:52:16Z</time>
      </trkpt>
      <trkpt lat="39.678969" lon="-4.974997">
        <ele>673.257</ele>
        <time>2021-10-16T11:52:18Z</time>
      </trkpt>
      <trkpt lat="39.678655" lon="-4.975078">
        <ele>672.326</ele>
        <time>2021-10-16T11:52:19Z</time>
      </trkpt>
      <trkpt lat="39.678348" lon="-4.975157">
        <ele>671.320</ele>
        <time>2021-10-16T11:52:20Z</time>
      </trkpt>
      <trkpt lat="39.677787" lon="-4.975297">
        <ele>667.835</ele>
        <time>2021-10-16T11:52:22Z</time>
      </trkpt>
      <trkpt lat="39.677510" lon="-4.975367">
        <ele>667.174</ele>
        <time>2021-10-16T11:52:23Z</time>
      </trkpt>
      <trkpt lat="39.676966" lon="-4.975505">
        <ele>665.396</ele>
        <time>2021-10-16T11:52:25Z</time>
      </trkpt>
      <trkpt lat="39.676703" lon="-4.975573">
        <ele>665.113</ele>
        <time>2021-10-16T11:52:26Z</time>
      </trkpt>
      <trkpt lat="39.676240" lon="-4.975688">
        <ele>665.143</ele>
        <time>2021-10-16T11:52:28Z</time>
      </trkpt>
      <trkpt lat="39.675811" lon="-4.975800">
        <ele>665.464</ele>
        <time>2021-10-16T11:52:30Z</time>
      </trkpt>
      <trkpt lat="39.675614" lon="-4.975852">
        <ele>665.210</ele>
        <time>2021-10-16T11:52:31Z</time>
      </trkpt>
      <trkpt lat="39.675441" lon="-4.975896">
        <ele>664.808</ele>
        <time>2021-10-16T11:52:32Z</time>
      </trkpt>
      <trkpt lat="39.675130" lon="-4.975963">
        <ele>663.092</ele>
        <time>2021-10-16T11:52:34Z</time>
      </trkpt>
      <trkpt lat="39.674831" lon="-4.975938">
        <ele>663.320</ele>
        <time>2021-10-16T11:52:36Z</time>
      </trkpt>
      <trkpt lat="39.674523" lon="-4.975729">
        <ele>661.599</ele>
        <time>2021-10-16T11:52:38Z</time>
      </trkpt>
      <trkpt lat="39.674239" lon="-4.975448">
        <ele>659.223</ele>
        <time>2021-10-16T11:52:40Z</time>
      </trkpt>
      <trkpt lat="39.674089" lon="-4.975333">
        <ele>657.018</ele>
        <time>2021-10-16T11:52:41Z</time>
      </trkpt>
      <trkpt lat="39.673936" lon="-4.975275">
        <ele>655.187</ele>
        <time>2021-10-16T11:52:42Z</time>
      </trkpt>
      <trkpt lat="39.673786" lon="-4.975274">
        <ele>653.099</ele>
        <time>2021-10-16T11:52:43Z</time>
      </trkpt>
      <trkpt lat="39.673637" lon="-4.975324">
        <ele>650.916</ele>
        <time>2021-10-16T11:52:44Z</time>
      </trkpt>
      <trkpt lat="39.673329" lon="-4.975495">
        <ele>649.612</ele>
        <time>2021-10-16T11:52:46Z</time>
      </trkpt>
      <trkpt lat="39.673160" lon="-4.975552">
        <ele>648.932</ele>
        <time>2021-10-16T11:52:47Z</time>
      </trkpt>
      <trkpt lat="39.672814" lon="-4.975552">
        <ele>648.705</ele>
        <time>2021-10-16T11:52:49Z</time>
      </trkpt>
      <trkpt lat="39.672632" lon="-4.975483">
        <ele>648.008</ele>
        <time>2021-10-16T11:52:50Z</time>
      </trkpt>
      <trkpt lat="39.672287" lon="-4.975246">
        <ele>646.479</ele>
        <time>2021-10-16T11:52:52Z</time>
      </trkpt>
      <trkpt lat="39.672108" lon="-4.975106">
        <ele>645.837</ele>
        <time>2021-10-16T11:52:53Z</time>
      </trkpt>
      <trkpt lat="39.671743" lon="-4.974863">
        <ele>644.066</ele>
        <time>2021-10-16T11:52:55Z</time>
      </trkpt>
      <trkpt lat="39.671539" lon="-4.974773">
        <ele>643.350</ele>
        <time>2021-10-16T11:52:56Z</time>
      </trkpt>
      <trkpt lat="39.671101" lon="-4.974694">
        <ele>641.595</ele>
        <time>2021-10-16T11:52:58Z</time>
      </trkpt>
      <trkpt lat="39.670653" lon="-4.974762">
        <ele>640.084</ele>
        <time>2021-10-16T11:53:00Z</time>
      </trkpt>
      <trkpt lat="39.670431" lon="-4.974833">
        <ele>639.496</ele>
        <time>2021-10-16T11:53:01Z</time>
      </trkpt>
      <trkpt lat="39.670018" lon="-4.974971">
        <ele>636.383</ele>
        <time>2021-10-16T11:53:03Z</time>
      </trkpt>
      <trkpt lat="39.669818" lon="-4.975037">
        <ele>634.798</ele>
        <time>2021-10-16T11:53:04Z</time>
      </trkpt>
      <trkpt lat="39.669622" lon="-4.975100">
        <ele>633.415</ele>
        <time>2021-10-16T11:53:05Z</time>
      </trkpt>
      <trkpt lat="39.669225" lon="-4.975218">
        <ele>628.926</ele>
        <time>2021-10-16T11:53:07Z</time>
      </trkpt>
      <trkpt lat="39.669010" lon="-4.975284">
        <ele>626.908</ele>
        <time>2021-10-16T11:53:08Z</time>
      </trkpt>
      <trkpt lat="39.668649" lon="-4.975508">
        <ele>624.727</ele>
        <time>2021-10-16T11:53:10Z</time>
      </trkpt>
      <trkpt lat="39.668489" lon="-4.975679">
        <ele>623.985</ele>
        <time>2021-10-16T11:53:11Z</time>
      </trkpt>
      <trkpt lat="39.668317" lon="-4.975845">
        <ele>622.894</ele>
        <time>2021-10-16T11:53:12Z</time>
      </trkpt>
      <trkpt lat="39.667914" lon="-4.976145">
        <ele>620.178</ele>
        <time>2021-10-16T11:53:14Z</time>
      </trkpt>
      <trkpt lat="39.667489" lon="-4.976444">
        <ele>617.633</ele>
        <time>2021-10-16T11:53:16Z</time>
      </trkpt>
      <trkpt lat="39.667045" lon="-4.976750">
        <ele>613.852</ele>
        <time>2021-10-16T11:53:18Z</time>
      </trkpt>
      <trkpt lat="39.666827" lon="-4.976899">
        <ele>610.964</ele>
        <time>2021-10-16T11:53:19Z</time>
      </trkpt>
      <trkpt lat="39.666615" lon="-4.977046">
        <ele>608.931</ele>
        <time>2021-10-16T11:53:20Z</time>
      </trkpt>
      <trkpt lat="39.666244" lon="-4.977351">
        <ele>604.347</ele>
        <time>2021-10-16T11:53:22Z</time>
      </trkpt>
      <trkpt lat="39.665944" lon="-4.977741">
        <ele>601.729</ele>
        <time>2021-10-16T11:53:24Z</time>
      </trkpt>
      <trkpt lat="39.665756" lon="-4.978207">
        <ele>599.621</ele>
        <time>2021-10-16T11:53:26Z</time>
      </trkpt>
      <trkpt lat="39.665669" lon="-4.978458">
        <ele>598.708</ele>
        <time>2021-10-16T11:53:27Z</time>
      </trkpt>
      <trkpt lat="39.665425" lon="-4.978958">
        <ele>596.612</ele>
        <time>2021-10-16T11:53:29Z</time>
      </trkpt>
      <trkpt lat="39.665120" lon="-4.979454">
        <ele>594.520</ele>
        <time>2021-10-16T11:53:31Z</time>
      </trkpt>
      <trkpt lat="39.664956" lon="-4.979676">
        <ele>593.949</ele>
        <time>2021-10-16T11:53:32Z</time>
      </trkpt>
      <trkpt lat="39.664633" lon="-4.980061">
        <ele>592.993</ele>
        <time>2021-10-16T11:53:34Z</time>
      </trkpt>
      <trkpt lat="39.664322" lon="-4.980399">
        <ele>593.418</ele>
        <time>2021-10-16T11:53:36Z</time>
      </trkpt>
      <trkpt lat="39.663985" lon="-4.980632">
        <ele>592.157</ele>
        <time>2021-10-16T11:53:38Z</time>
      </trkpt>
      <trkpt lat="39.663559" lon="-4.980728">
        <ele>591.519</ele>
        <time>2021-10-16T11:53:40Z</time>
      </trkpt>
      <trkpt lat="39.663313" lon="-4.980761">
        <ele>591.146</ele>
        <time>2021-10-16T11:53:41Z</time>
      </trkpt>
      <trkpt lat="39.662807" lon="-4.980788">
        <ele>591.577</ele>
        <time>2021-10-16T11:53:43Z</time>
      </trkpt>
      <trkpt lat="39.662547" lon="-4.980759">
        <ele>591.661</ele>
        <time>2021-10-16T11:53:44Z</time>
      </trkpt>
      <trkpt lat="39.662084" lon="-4.980644">
        <ele>591.127</ele>
        <time>2021-10-16T11:53:46Z</time>
      </trkpt>
      <trkpt lat="39.661860" lon="-4.980564">
        <ele>590.808</ele>
        <time>2021-10-16T11:53:47Z</time>
      </trkpt>
      <trkpt lat="39.661398" lon="-4.980307">
        <ele>589.335</ele>
        <time>2021-10-16T11:53:49Z</time>
      </trkpt>
      <trkpt lat="39.661152" lon="-4.980137">
        <ele>588.593</ele>
        <time>2021-10-16T11:53:50Z</time>
      </trkpt>
      <trkpt lat="39.660673" lon="-4.979790">
        <ele>585.552</ele>
        <time>2021-10-16T11:53:52Z</time>
      </trkpt>
      <trkpt lat="39.660425" lon="-4.979614">
        <ele>584.236</ele>
        <time>2021-10-16T11:53:53Z</time>
      </trkpt>
      <trkpt lat="39.659937" lon="-4.979270">
        <ele>581.941</ele>
        <time>2021-10-16T11:53:55Z</time>
      </trkpt>
      <trkpt lat="39.659696" lon="-4.979106">
        <ele>580.450</ele>
        <time>2021-10-16T11:53:56Z</time>
      </trkpt>
      <trkpt lat="39.659241" lon="-4.978790">
        <ele>580.242</ele>
        <time>2021-10-16T11:53:58Z</time>
      </trkpt>
      <trkpt lat="39.659026" lon="-4.978640">
        <ele>580.799</ele>
        <time>2021-10-16T11:53:59Z</time>
      </trkpt>
      <trkpt lat="39.658819" lon="-4.978490">
        <ele>582.152</ele>
        <time>2021-10-16T11:54:00Z</time>
      </trkpt>
      <trkpt lat="39.658433" lon="-4.978203">
        <ele>585.853</ele>
        <time>2021-10-16T11:54:02Z</time>
      </trkpt>
      <trkpt lat="39.658093" lon="-4.977961">
        <ele>588.308</ele>
        <time>2021-10-16T11:54:04Z</time>
      </trkpt>
      <trkpt lat="39.657791" lon="-4.977792">
        <ele>591.508</ele>
        <time>2021-10-16T11:54:06Z</time>
      </trkpt>
      <trkpt lat="39.657631" lon="-4.977754">
        <ele>593.643</ele>
        <time>2021-10-16T11:54:07Z</time>
      </trkpt>
      <trkpt lat="39.657458" lon="-4.977744">
        <ele>595.631</ele>
        <time>2021-10-16T11:54:08Z</time>
      </trkpt>
      <trkpt lat="39.657120" lon="-4.977858">
        <ele>600.610</ele>
        <time>2021-10-16T11:54:10Z</time>
      </trkpt>
      <trkpt lat="39.656967" lon="-4.978006">
        <ele>602.894</ele>
        <time>2021-10-16T11:54:11Z</time>
      </trkpt>
      <trkpt lat="39.656736" lon="-4.978453">
        <ele>606.319</ele>
        <time>2021-10-16T11:54:13Z</time>
      </trkpt>
      <trkpt lat="39.656644" lon="-4.978741">
        <ele>608.028</ele>
        <time>2021-10-16T11:54:14Z</time>
      </trkpt>
      <trkpt lat="39.656478" lon="-4.979337">
        <ele>611.130</ele>
        <time>2021-10-16T11:54:16Z</time>
      </trkpt>
      <trkpt lat="39.656301" lon="-4.979909">
        <ele>614.537</ele>
        <time>2021-10-16T11:54:18Z</time>
      </trkpt>
      <trkpt lat="39.656111" lon="-4.980452">
        <ele>619.289</ele>
        <time>2021-10-16T11:54:20Z</time>
      </trkpt>
      <trkpt lat="39.655946" lon="-4.980947">
        <ele>621.806</ele>
        <time>2021-10-16T11:54:22Z</time>
      </trkpt>
      <trkpt lat="39.655865" lon="-4.981191">
        <ele>623.126</ele>
        <time>2021-10-16T11:54:23Z</time>
      </trkpt>
      <trkpt lat="39.655779" lon="-4.981409">
        <ele>625.308</ele>
        <time>2021-10-16T11:54:24Z</time>
      </trkpt>
      <trkpt lat="39.655582" lon="-4.981778">
        <ele>627.146</ele>
        <time>2021-10-16T11:54:26Z</time>
      </trkpt>
      <trkpt lat="39.655366" lon="-4.982082">
        <ele>626.984</ele>
        <time>2021-10-16T11:54:28Z</time>
      </trkpt>
      <trkpt lat="39.655253" lon="-4.982223">
        <ele>626.393</ele>
        <time>2021-10-16T11:54:29Z</time>
      </trkpt>
      <trkpt lat="39.655142" lon="-4.982359">
        <ele>624.897</ele>
        <time>2021-10-16T11:54:30Z</time>
      </trkpt>
      <trkpt lat="39.655030" lon="-4.982498">
        <ele>624.112</ele>
        <time>2021-10-16T11:54:31Z</time>
      </trkpt>
      <trkpt lat="39.654807" lon="-4.982777">
        <ele>622.641</ele>
        <time>2021-10-16T11:54:33Z</time>
      </trkpt>
      <trkpt lat="39.654596" lon="-4.983031">
        <ele>620.463</ele>
        <time>2021-10-16T11:54:35Z</time>
      </trkpt>
      <trkpt lat="39.654494" lon="-4.983153">
        <ele>619.140</ele>
        <time>2021-10-16T11:54:36Z</time>
      </trkpt>
      <trkpt lat="39.654394" lon="-4.983275">
        <ele>617.634</ele>
        <time>2021-10-16T11:54:37Z</time>
      </trkpt>
      <trkpt lat="39.654295" lon="-4.983406">
        <ele>617.555</ele>
        <time>2021-10-16T11:54:38Z</time>
      </trkpt>
      <trkpt lat="39.654126" lon="-4.983666">
        <ele>614.710</ele>
        <time>2021-10-16T11:54:40Z</time>
      </trkpt>
      <trkpt lat="39.654005" lon="-4.983934">
        <ele>614.008</ele>
        <time>2021-10-16T11:54:42Z</time>
      </trkpt>
      <trkpt lat="39.653938" lon="-4.984215">
        <ele>612.451</ele>
        <time>2021-10-16T11:54:44Z</time>
      </trkpt>
      <trkpt lat="39.653876" lon="-4.984525">
        <ele>610.939</ele>
        <time>2021-10-16T11:54:46Z</time>
      </trkpt>
      <trkpt lat="39.653797" lon="-4.984881">
        <ele>609.688</ele>
        <time>2021-10-16T11:54:48Z</time>
      </trkpt>
      <trkpt lat="39.653756" lon="-4.985062">
        <ele>609.692</ele>
        <time>2021-10-16T11:54:49Z</time>
      </trkpt>
      <trkpt lat="39.653714" lon="-4.985248">
        <ele>609.657</ele>
        <time>2021-10-16T11:54:50Z</time>
      </trkpt>
      <trkpt lat="39.653639" lon="-4.985616">
        <ele>608.626</ele>
        <time>2021-10-16T11:54:52Z</time>
      </trkpt>
      <trkpt lat="39.653605" lon="-4.985798">
        <ele>608.728</ele>
        <time>2021-10-16T11:54:53Z</time>
      </trkpt>
      <trkpt lat="39.653533" lon="-4.986146">
        <ele>606.495</ele>
        <time>2021-10-16T11:54:55Z</time>
      </trkpt>
      <trkpt lat="39.653495" lon="-4.986323">
        <ele>606.124</ele>
        <time>2021-10-16T11:54:56Z</time>
      </trkpt>
      <trkpt lat="39.653421" lon="-4.986663">
        <ele>604.504</ele>
        <time>2021-10-16T11:54:58Z</time>
      </trkpt>
      <trkpt lat="39.653383" lon="-4.986839">
        <ele>604.114</ele>
        <time>2021-10-16T11:54:59Z</time>
      </trkpt>
      <trkpt lat="39.653311" lon="-4.987186">
        <ele>601.308</ele>
        <time>2021-10-16T11:55:01Z</time>
      </trkpt>
      <trkpt lat="39.653276" lon="-4.987361">
        <ele>601.240</ele>
        <time>2021-10-16T11:55:02Z</time>
      </trkpt>
      <trkpt lat="39.653206" lon="-4.987696">
        <ele>599.418</ele>
        <time>2021-10-16T11:55:04Z</time>
      </trkpt>
      <trkpt lat="39.653170" lon="-4.987859">
        <ele>599.437</ele>
        <time>2021-10-16T11:55:05Z</time>
      </trkpt>
      <trkpt lat="39.653108" lon="-4.988149">
        <ele>597.081</ele>
        <time>2021-10-16T11:55:07Z</time>
      </trkpt>
      <trkpt lat="39.653079" lon="-4.988290">
        <ele>596.526</ele>
        <time>2021-10-16T11:55:08Z</time>
      </trkpt>
      <trkpt lat="39.653027" lon="-4.988545">
        <ele>595.865</ele>
        <time>2021-10-16T11:55:10Z</time>
      </trkpt>
      <trkpt lat="39.653000" lon="-4.988675">
        <ele>594.917</ele>
        <time>2021-10-16T11:55:11Z</time>
      </trkpt>
      <trkpt lat="39.652976" lon="-4.988802">
        <ele>593.894</ele>
        <time>2021-10-16T11:55:12Z</time>
      </trkpt>
      <trkpt lat="39.652925" lon="-4.989051">
        <ele>593.452</ele>
        <time>2021-10-16T11:55:14Z</time>
      </trkpt>
      <trkpt lat="39.652874" lon="-4.989278">
        <ele>592.353</ele>
        <time>2021-10-16T11:55:16Z</time>
      </trkpt>
      <trkpt lat="39.652850" lon="-4.989391">
        <ele>592.308</ele>
        <time>2021-10-16T11:55:17Z</time>
      </trkpt>
      <trkpt lat="39.652803" lon="-4.989602">
        <ele>592.308</ele>
        <time>2021-10-16T11:55:19Z</time>
      </trkpt>
      <trkpt lat="39.652780" lon="-4.989710">
        <ele>592.553</ele>
        <time>2021-10-16T11:55:20Z</time>
      </trkpt>
      <trkpt lat="39.652744" lon="-4.989913">
        <ele>592.751</ele>
        <time>2021-10-16T11:55:22Z</time>
      </trkpt>
      <trkpt lat="39.652709" lon="-4.990097">
        <ele>593.080</ele>
        <time>2021-10-16T11:55:24Z</time>
      </trkpt>
      <trkpt lat="39.652672" lon="-4.990261">
        <ele>593.014</ele>
        <time>2021-10-16T11:55:26Z</time>
      </trkpt>
      <trkpt lat="39.652642" lon="-4.990408">
        <ele>592.849</ele>
        <time>2021-10-16T11:55:28Z</time>
      </trkpt>
      <trkpt lat="39.652631" lon="-4.990468">
        <ele>592.888</ele>
        <time>2021-10-16T11:55:29Z</time>
      </trkpt>
      <trkpt lat="39.652619" lon="-4.990528">
        <ele>592.460</ele>
        <time>2021-10-16T11:55:31Z</time>
      </trkpt>
      <trkpt lat="39.652602" lon="-4.990598">
        <ele>592.427</ele>
        <time>2021-10-16T11:55:34Z</time>
      </trkpt>
      <trkpt lat="39.652554" lon="-4.990709">
        <ele>625.188</ele>
        <time>2021-10-16T11:55:42Z</time>
      </trkpt>
      <trkpt lat="39.652512" lon="-4.990800">
        <ele>650.224</ele>
        <time>2021-10-16T11:55:43Z</time>
      </trkpt>
      <trkpt lat="39.652465" lon="-4.990901">
        <ele>650.226</ele>
        <time>2021-10-16T11:55:44Z</time>
      </trkpt>
      <trkpt lat="39.652374" lon="-4.991074">
        <ele>658.408</ele>
        <time>2021-10-16T11:55:46Z</time>
      </trkpt>
      <trkpt lat="39.652323" lon="-4.991158">
        <ele>658.416</ele>
        <time>2021-10-16T11:55:47Z</time>
      </trkpt>
      <trkpt lat="39.652177" lon="-4.991348">
        <ele>658.424</ele>
        <time>2021-10-16T11:55:49Z</time>
      </trkpt>
      <trkpt lat="39.652080" lon="-4.991457">
        <ele>658.413</ele>
        <time>2021-10-16T11:55:50Z</time>
      </trkpt>
      <trkpt lat="39.651872" lon="-4.991649">
        <ele>658.447</ele>
        <time>2021-10-16T11:55:52Z</time>
      </trkpt>
      <trkpt lat="39.651760" lon="-4.991733">
        <ele>658.472</ele>
        <time>2021-10-16T11:55:53Z</time>
      </trkpt>
      <trkpt lat="39.651644" lon="-4.991820">
        <ele>658.421</ele>
        <time>2021-10-16T11:55:54Z</time>
      </trkpt>
      <trkpt lat="39.651413" lon="-4.992004">
        <ele>658.483</ele>
        <time>2021-10-16T11:55:56Z</time>
      </trkpt>
      <trkpt lat="39.651296" lon="-4.992097">
        <ele>658.410</ele>
        <time>2021-10-16T11:55:57Z</time>
      </trkpt>
      <trkpt lat="39.651178" lon="-4.992193">
        <ele>658.423</ele>
        <time>2021-10-16T11:55:58Z</time>
      </trkpt>
      <trkpt lat="39.651056" lon="-4.992289">
        <ele>658.483</ele>
        <time>2021-10-16T11:55:59Z</time>
      </trkpt>
      <trkpt lat="39.650825" lon="-4.992469">
        <ele>658.411</ele>
        <time>2021-10-16T11:56:01Z</time>
      </trkpt>
      <trkpt lat="39.650619" lon="-4.992628">
        <ele>658.408</ele>
        <time>2021-10-16T11:56:03Z</time>
      </trkpt>
      <trkpt lat="39.650521" lon="-4.992703">
        <ele>658.440</ele>
        <time>2021-10-16T11:56:04Z</time>
      </trkpt>
      <trkpt lat="39.650327" lon="-4.992853">
        <ele>658.458</ele>
        <time>2021-10-16T11:56:06Z</time>
      </trkpt>
      <trkpt lat="39.650226" lon="-4.992936">
        <ele>658.417</ele>
        <time>2021-10-16T11:56:07Z</time>
      </trkpt>
      <trkpt lat="39.650114" lon="-4.993023">
        <ele>658.431</ele>
        <time>2021-10-16T11:56:08Z</time>
      </trkpt>
      <trkpt lat="39.649882" lon="-4.993202">
        <ele>658.436</ele>
        <time>2021-10-16T11:56:10Z</time>
      </trkpt>
      <trkpt lat="39.649683" lon="-4.993356">
        <ele>658.455</ele>
        <time>2021-10-16T11:56:12Z</time>
      </trkpt>
      <trkpt lat="39.649602" lon="-4.993420">
        <ele>658.457</ele>
        <time>2021-10-16T11:56:13Z</time>
      </trkpt>
      <trkpt lat="39.649522" lon="-4.993484">
        <ele>658.464</ele>
        <time>2021-10-16T11:56:14Z</time>
      </trkpt>
      <trkpt lat="39.649354" lon="-4.993616">
        <ele>658.438</ele>
        <time>2021-10-16T11:56:16Z</time>
      </trkpt>
      <trkpt lat="39.649160" lon="-4.993769">
        <ele>658.470</ele>
        <time>2021-10-16T11:56:18Z</time>
      </trkpt>
      <trkpt lat="39.649055" lon="-4.993859">
        <ele>658.417</ele>
        <time>2021-10-16T11:56:19Z</time>
      </trkpt>
      <trkpt lat="39.648938" lon="-4.993958">
        <ele>658.408</ele>
        <time>2021-10-16T11:56:20Z</time>
      </trkpt>
      <trkpt lat="39.648696" lon="-4.994160">
        <ele>658.411</ele>
        <time>2021-10-16T11:56:22Z</time>
      </trkpt>
      <trkpt lat="39.648568" lon="-4.994266">
        <ele>658.449</ele>
        <time>2021-10-16T11:56:23Z</time>
      </trkpt>
      <trkpt lat="39.648437" lon="-4.994372">
        <ele>658.478</ele>
        <time>2021-10-16T11:56:24Z</time>
      </trkpt>
      <trkpt lat="39.648163" lon="-4.994586">
        <ele>658.472</ele>
        <time>2021-10-16T11:56:26Z</time>
      </trkpt>
      <trkpt lat="39.647888" lon="-4.994802">
        <ele>658.497</ele>
        <time>2021-10-16T11:56:28Z</time>
      </trkpt>
      <trkpt lat="39.647757" lon="-4.994906">
        <ele>658.446</ele>
        <time>2021-10-16T11:56:29Z</time>
      </trkpt>
      <trkpt lat="39.647628" lon="-4.995006">
        <ele>658.488</ele>
        <time>2021-10-16T11:56:30Z</time>
      </trkpt>
      <trkpt lat="39.647491" lon="-4.995105">
        <ele>658.485</ele>
        <time>2021-10-16T11:56:31Z</time>
      </trkpt>
      <trkpt lat="39.647194" lon="-4.995308">
        <ele>658.577</ele>
        <time>2021-10-16T11:56:33Z</time>
      </trkpt>
      <trkpt lat="39.646848" lon="-4.995482">
        <ele>658.561</ele>
        <time>2021-10-16T11:56:35Z</time>
      </trkpt>
      <trkpt lat="39.646447" lon="-4.995614">
        <ele>658.527</ele>
        <time>2021-10-16T11:56:37Z</time>
      </trkpt>
      <trkpt lat="39.646236" lon="-4.995676">
        <ele>658.508</ele>
        <time>2021-10-16T11:56:38Z</time>
      </trkpt>
      <trkpt lat="39.645869" lon="-4.995785">
        <ele>658.565</ele>
        <time>2021-10-16T11:56:40Z</time>
      </trkpt>
      <trkpt lat="39.645683" lon="-4.995840">
        <ele>617.883</ele>
        <time>2021-10-16T11:56:41Z</time>
      </trkpt>
      <trkpt lat="39.645311" lon="-4.995952">
        <ele>575.652</ele>
        <time>2021-10-16T11:56:43Z</time>
      </trkpt>
      <trkpt lat="39.645115" lon="-4.996012">
        <ele>575.746</ele>
        <time>2021-10-16T11:56:44Z</time>
      </trkpt>
      <trkpt lat="39.644715" lon="-4.996128">
        <ele>574.671</ele>
        <time>2021-10-16T11:56:46Z</time>
      </trkpt>
      <trkpt lat="39.644276" lon="-4.996227">
        <ele>572.210</ele>
        <time>2021-10-16T11:56:48Z</time>
      </trkpt>
      <trkpt lat="39.643815" lon="-4.996276">
        <ele>572.272</ele>
        <time>2021-10-16T11:56:50Z</time>
      </trkpt>
      <trkpt lat="39.643368" lon="-4.996289">
        <ele>569.419</ele>
        <time>2021-10-16T11:56:52Z</time>
      </trkpt>
      <trkpt lat="39.642886" lon="-4.996301">
        <ele>568.813</ele>
        <time>2021-10-16T11:56:54Z</time>
      </trkpt>
      <trkpt lat="39.642381" lon="-4.996287">
        <ele>569.043</ele>
        <time>2021-10-16T11:56:56Z</time>
      </trkpt>
      <trkpt lat="39.641900" lon="-4.996246">
        <ele>569.107</ele>
        <time>2021-10-16T11:56:58Z</time>
      </trkpt>
      <trkpt lat="39.641429" lon="-4.996183">
        <ele>568.808</ele>
        <time>2021-10-16T11:57:00Z</time>
      </trkpt>
      <trkpt lat="39.641203" lon="-4.996154">
        <ele>569.439</ele>
        <time>2021-10-16T11:57:01Z</time>
      </trkpt>
      <trkpt lat="39.640984" lon="-4.996126">
        <ele>568.967</ele>
        <time>2021-10-16T11:57:02Z</time>
      </trkpt>
      <trkpt lat="39.640597" lon="-4.996076">
        <ele>569.036</ele>
        <time>2021-10-16T11:57:04Z</time>
      </trkpt>
      <trkpt lat="39.640403" lon="-4.996044">
        <ele>569.490</ele>
        <time>2021-10-16T11:57:05Z</time>
      </trkpt>
      <trkpt lat="39.640024" lon="-4.995946">
        <ele>570.025</ele>
        <time>2021-10-16T11:57:07Z</time>
      </trkpt>
      <trkpt lat="39.639828" lon="-4.995863">
        <ele>569.864</ele>
        <time>2021-10-16T11:57:08Z</time>
      </trkpt>
      <trkpt lat="39.639448" lon="-4.995639">
        <ele>568.716</ele>
        <time>2021-10-16T11:57:10Z</time>
      </trkpt>
      <trkpt lat="39.639029" lon="-4.995370">
        <ele>569.923</ele>
        <time>2021-10-16T11:57:12Z</time>
      </trkpt>
      <trkpt lat="39.638577" lon="-4.995078">
        <ele>569.277</ele>
        <time>2021-10-16T11:57:14Z</time>
      </trkpt>
      <trkpt lat="39.638118" lon="-4.994793">
        <ele>568.561</ele>
        <time>2021-10-16T11:57:16Z</time>
      </trkpt>
      <trkpt lat="39.637613" lon="-4.994579">
        <ele>568.427</ele>
        <time>2021-10-16T11:57:18Z</time>
      </trkpt>
      <trkpt lat="39.637351" lon="-4.994528">
        <ele>568.908</ele>
        <time>2021-10-16T11:57:19Z</time>
      </trkpt>
      <trkpt lat="39.637085" lon="-4.994505">
        <ele>569.675</ele>
        <time>2021-10-16T11:57:20Z</time>
      </trkpt>
      <trkpt lat="39.636619" lon="-4.994483">
        <ele>571.473</ele>
        <time>2021-10-16T11:57:22Z</time>
      </trkpt>
      <trkpt lat="39.636398" lon="-4.994454">
        <ele>572.292</ele>
        <time>2021-10-16T11:57:23Z</time>
      </trkpt>
      <trkpt lat="39.635976" lon="-4.994327">
        <ele>572.876</ele>
        <time>2021-10-16T11:57:25Z</time>
      </trkpt>
      <trkpt lat="39.635763" lon="-4.994215">
        <ele>572.931</ele>
        <time>2021-10-16T11:57:26Z</time>
      </trkpt>
      <trkpt lat="39.635344" lon="-4.993927">
        <ele>573.780</ele>
        <time>2021-10-16T11:57:28Z</time>
      </trkpt>
      <trkpt lat="39.634879" lon="-4.993602">
        <ele>572.882</ele>
        <time>2021-10-16T11:57:30Z</time>
      </trkpt>
      <trkpt lat="39.634385" lon="-4.993266">
        <ele>572.829</ele>
        <time>2021-10-16T11:57:32Z</time>
      </trkpt>
      <trkpt lat="39.634132" lon="-4.993105">
        <ele>572.417</ele>
        <time>2021-10-16T11:57:33Z</time>
      </trkpt>
      <trkpt lat="39.633635" lon="-4.992849">
        <ele>572.987</ele>
        <time>2021-10-16T11:57:35Z</time>
      </trkpt>
      <trkpt lat="39.633162" lon="-4.992670">
        <ele>573.515</ele>
        <time>2021-10-16T11:57:37Z</time>
      </trkpt>
      <trkpt lat="39.632937" lon="-4.992597">
        <ele>573.908</ele>
        <time>2021-10-16T11:57:38Z</time>
      </trkpt>
      <trkpt lat="39.632513" lon="-4.992446">
        <ele>574.989</ele>
        <time>2021-10-16T11:57:40Z</time>
      </trkpt>
      <trkpt lat="39.632092" lon="-4.992286">
        <ele>575.277</ele>
        <time>2021-10-16T11:57:42Z</time>
      </trkpt>
      <trkpt lat="39.631665" lon="-4.992081">
        <ele>575.626</ele>
        <time>2021-10-16T11:57:44Z</time>
      </trkpt>
      <trkpt lat="39.631271" lon="-4.991782">
        <ele>575.270</ele>
        <time>2021-10-16T11:57:46Z</time>
      </trkpt>
      <trkpt lat="39.631076" lon="-4.991579">
        <ele>575.535</ele>
        <time>2021-10-16T11:57:47Z</time>
      </trkpt>
      <trkpt lat="39.630882" lon="-4.991364">
        <ele>575.974</ele>
        <time>2021-10-16T11:57:48Z</time>
      </trkpt>
      <trkpt lat="39.630465" lon="-4.990957">
        <ele>575.846</ele>
        <time>2021-10-16T11:57:50Z</time>
      </trkpt>
      <trkpt lat="39.630006" lon="-4.990658">
        <ele>575.833</ele>
        <time>2021-10-16T11:57:52Z</time>
      </trkpt>
      <trkpt lat="39.629755" lon="-4.990556">
        <ele>576.661</ele>
        <time>2021-10-16T11:57:53Z</time>
      </trkpt>
      <trkpt lat="39.629236" lon="-4.990439">
        <ele>577.321</ele>
        <time>2021-10-16T11:57:55Z</time>
      </trkpt>
      <trkpt lat="39.628743" lon="-4.990345">
        <ele>579.513</ele>
        <time>2021-10-16T11:57:57Z</time>
      </trkpt>
      <trkpt lat="39.628507" lon="-4.990273">
        <ele>580.108</ele>
        <time>2021-10-16T11:57:58Z</time>
      </trkpt>
      <trkpt lat="39.628050" lon="-4.990056">
        <ele>581.144</ele>
        <time>2021-10-16T11:58:00Z</time>
      </trkpt>
      <trkpt lat="39.627649" lon="-4.989739">
        <ele>583.032</ele>
        <time>2021-10-16T11:58:02Z</time>
      </trkpt>
      <trkpt lat="39.627460" lon="-4.989555">
        <ele>583.671</ele>
        <time>2021-10-16T11:58:03Z</time>
      </trkpt>
      <trkpt lat="39.627275" lon="-4.989370">
        <ele>584.395</ele>
        <time>2021-10-16T11:58:04Z</time>
      </trkpt>
      <trkpt lat="39.626901" lon="-4.988995">
        <ele>586.480</ele>
        <time>2021-10-16T11:58:06Z</time>
      </trkpt>
      <trkpt lat="39.626516" lon="-4.988609">
        <ele>586.689</ele>
        <time>2021-10-16T11:58:08Z</time>
      </trkpt>
      <trkpt lat="39.626121" lon="-4.988242">
        <ele>586.351</ele>
        <time>2021-10-16T11:58:10Z</time>
      </trkpt>
      <trkpt lat="39.625686" lon="-4.987900">
        <ele>586.678</ele>
        <time>2021-10-16T11:58:12Z</time>
      </trkpt>
      <trkpt lat="39.625459" lon="-4.987744">
        <ele>587.029</ele>
        <time>2021-10-16T11:58:13Z</time>
      </trkpt>
      <trkpt lat="39.625223" lon="-4.987586">
        <ele>587.000</ele>
        <time>2021-10-16T11:58:14Z</time>
      </trkpt>
      <trkpt lat="39.624799" lon="-4.987299">
        <ele>589.320</ele>
        <time>2021-10-16T11:58:16Z</time>
      </trkpt>
      <trkpt lat="39.624416" lon="-4.987002">
        <ele>590.908</ele>
        <time>2021-10-16T11:58:18Z</time>
      </trkpt>
      <trkpt lat="39.624233" lon="-4.986823">
        <ele>591.850</ele>
        <time>2021-10-16T11:58:19Z</time>
      </trkpt>
      <trkpt lat="39.624054" lon="-4.986618">
        <ele>592.868</ele>
        <time>2021-10-16T11:58:20Z</time>
      </trkpt>
      <trkpt lat="39.623736" lon="-4.986184">
        <ele>594.317</ele>
        <time>2021-10-16T11:58:22Z</time>
      </trkpt>
      <trkpt lat="39.623386" lon="-4.985713">
        <ele>595.271</ele>
        <time>2021-10-16T11:58:24Z</time>
      </trkpt>
      <trkpt lat="39.623198" lon="-4.985464">
        <ele>595.316</ele>
        <time>2021-10-16T11:58:25Z</time>
      </trkpt>
      <trkpt lat="39.623004" lon="-4.985207">
        <ele>595.455</ele>
        <time>2021-10-16T11:58:26Z</time>
      </trkpt>
      <trkpt lat="39.622598" lon="-4.984666">
        <ele>596.177</ele>
        <time>2021-10-16T11:58:28Z</time>
      </trkpt>
      <trkpt lat="39.622179" lon="-4.984134">
        <ele>596.624</ele>
        <time>2021-10-16T11:58:30Z</time>
      </trkpt>
      <trkpt lat="39.621727" lon="-4.983649">
        <ele>596.524</ele>
        <time>2021-10-16T11:58:32Z</time>
      </trkpt>
      <trkpt lat="39.621260" lon="-4.983229">
        <ele>596.804</ele>
        <time>2021-10-16T11:58:34Z</time>
      </trkpt>
      <trkpt lat="39.621026" lon="-4.983024">
        <ele>597.314</ele>
        <time>2021-10-16T11:58:35Z</time>
      </trkpt>
      <trkpt lat="39.620599" lon="-4.982637">
        <ele>598.008</ele>
        <time>2021-10-16T11:58:37Z</time>
      </trkpt>
      <trkpt lat="39.620382" lon="-4.982433">
        <ele>599.010</ele>
        <time>2021-10-16T11:58:38Z</time>
      </trkpt>
      <trkpt lat="39.619979" lon="-4.982003">
        <ele>600.258</ele>
        <time>2021-10-16T11:58:40Z</time>
      </trkpt>
      <trkpt lat="39.619780" lon="-4.981757">
        <ele>600.527</ele>
        <time>2021-10-16T11:58:41Z</time>
      </trkpt>
      <trkpt lat="39.619395" lon="-4.981233">
        <ele>602.581</ele>
        <time>2021-10-16T11:58:43Z</time>
      </trkpt>
      <trkpt lat="39.619195" lon="-4.980950">
        <ele>602.746</ele>
        <time>2021-10-16T11:58:44Z</time>
      </trkpt>
      <trkpt lat="39.618827" lon="-4.980418">
        <ele>604.225</ele>
        <time>2021-10-16T11:58:46Z</time>
      </trkpt>
      <trkpt lat="39.618645" lon="-4.980139">
        <ele>605.047</ele>
        <time>2021-10-16T11:58:47Z</time>
      </trkpt>
      <trkpt lat="39.618298" lon="-4.979577">
        <ele>606.954</ele>
        <time>2021-10-16T11:58:49Z</time>
      </trkpt>
      <trkpt lat="39.618125" lon="-4.979291">
        <ele>608.171</ele>
        <time>2021-10-16T11:58:50Z</time>
      </trkpt>
      <trkpt lat="39.617801" lon="-4.978761">
        <ele>610.141</ele>
        <time>2021-10-16T11:58:52Z</time>
      </trkpt>
      <trkpt lat="39.617641" lon="-4.978505">
        <ele>610.415</ele>
        <time>2021-10-16T11:58:53Z</time>
      </trkpt>
      <trkpt lat="39.617306" lon="-4.978039">
        <ele>612.308</ele>
        <time>2021-10-16T11:58:55Z</time>
      </trkpt>
      <trkpt lat="39.617111" lon="-4.977828">
        <ele>613.455</ele>
        <time>2021-10-16T11:58:56Z</time>
      </trkpt>
      <trkpt lat="39.616687" lon="-4.977462">
        <ele>614.763</ele>
        <time>2021-10-16T11:58:58Z</time>
      </trkpt>
      <trkpt lat="39.616245" lon="-4.977094">
        <ele>617.812</ele>
        <time>2021-10-16T11:59:00Z</time>
      </trkpt>
      <trkpt lat="39.616030" lon="-4.976912">
        <ele>618.426</ele>
        <time>2021-10-16T11:59:01Z</time>
      </trkpt>
      <trkpt lat="39.615822" lon="-4.976737">
        <ele>618.781</ele>
        <time>2021-10-16T11:59:02Z</time>
      </trkpt>
      <trkpt lat="39.615408" lon="-4.976432">
        <ele>619.860</ele>
        <time>2021-10-16T11:59:04Z</time>
      </trkpt>
      <trkpt lat="39.614938" lon="-4.976202">
        <ele>621.282</ele>
        <time>2021-10-16T11:59:06Z</time>
      </trkpt>
      <trkpt lat="39.614688" lon="-4.976136">
        <ele>621.439</ele>
        <time>2021-10-16T11:59:07Z</time>
      </trkpt>
      <trkpt lat="39.614425" lon="-4.976107">
        <ele>620.926</ele>
        <time>2021-10-16T11:59:08Z</time>
      </trkpt>
      <trkpt lat="39.613917" lon="-4.976134">
        <ele>619.347</ele>
        <time>2021-10-16T11:59:10Z</time>
      </trkpt>
      <trkpt lat="39.613388" lon="-4.976166">
        <ele>616.311</ele>
        <time>2021-10-16T11:59:12Z</time>
      </trkpt>
      <trkpt lat="39.612829" lon="-4.976186">
        <ele>612.108</ele>
        <time>2021-10-16T11:59:14Z</time>
      </trkpt>
      <trkpt lat="39.612263" lon="-4.976205">
        <ele>607.470</ele>
        <time>2021-10-16T11:59:16Z</time>
      </trkpt>
      <trkpt lat="39.611669" lon="-4.976223">
        <ele>603.178</ele>
        <time>2021-10-16T11:59:18Z</time>
      </trkpt>
      <trkpt lat="39.611369" lon="-4.976232">
        <ele>600.817</ele>
        <time>2021-10-16T11:59:19Z</time>
      </trkpt>
      <trkpt lat="39.611074" lon="-4.976241">
        <ele>598.681</ele>
        <time>2021-10-16T11:59:20Z</time>
      </trkpt>
      <trkpt lat="39.610544" lon="-4.976253">
        <ele>596.156</ele>
        <time>2021-10-16T11:59:22Z</time>
      </trkpt>
      <trkpt lat="39.610291" lon="-4.976265">
        <ele>595.325</ele>
        <time>2021-10-16T11:59:23Z</time>
      </trkpt>
      <trkpt lat="39.609829" lon="-4.976359">
        <ele>595.027</ele>
        <time>2021-10-16T11:59:25Z</time>
      </trkpt>
      <trkpt lat="39.609611" lon="-4.976457">
        <ele>594.774</ele>
        <time>2021-10-16T11:59:26Z</time>
      </trkpt>
      <trkpt lat="39.609200" lon="-4.976745">
        <ele>596.841</ele>
        <time>2021-10-16T11:59:28Z</time>
      </trkpt>
      <trkpt lat="39.608998" lon="-4.976927">
        <ele>598.381</ele>
        <time>2021-10-16T11:59:29Z</time>
      </trkpt>
      <trkpt lat="39.608799" lon="-4.977122">
        <ele>599.309</ele>
        <time>2021-10-16T11:59:30Z</time>
      </trkpt>
      <trkpt lat="39.608382" lon="-4.977504">
        <ele>603.308</ele>
        <time>2021-10-16T11:59:32Z</time>
      </trkpt>
      <trkpt lat="39.607935" lon="-4.977783">
        <ele>607.592</ele>
        <time>2021-10-16T11:59:34Z</time>
      </trkpt>
      <trkpt lat="39.607454" lon="-4.977918">
        <ele>611.350</ele>
        <time>2021-10-16T11:59:36Z</time>
      </trkpt>
      <trkpt lat="39.607201" lon="-4.977927">
        <ele>612.989</ele>
        <time>2021-10-16T11:59:37Z</time>
      </trkpt>
      <trkpt lat="39.606705" lon="-4.977860">
        <ele>614.933</ele>
        <time>2021-10-16T11:59:39Z</time>
      </trkpt>
      <trkpt lat="39.606198" lon="-4.977638">
        <ele>617.188</ele>
        <time>2021-10-16T11:59:41Z</time>
      </trkpt>
      <trkpt lat="39.605946" lon="-4.977513">
        <ele>617.397</ele>
        <time>2021-10-16T11:59:42Z</time>
      </trkpt>
      <trkpt lat="39.605691" lon="-4.977410">
        <ele>616.799</ele>
        <time>2021-10-16T11:59:43Z</time>
      </trkpt>
      <trkpt lat="39.605164" lon="-4.977313">
        <ele>616.236</ele>
        <time>2021-10-16T11:59:45Z</time>
      </trkpt>
      <trkpt lat="39.604621" lon="-4.977378">
        <ele>616.534</ele>
        <time>2021-10-16T11:59:47Z</time>
      </trkpt>
      <trkpt lat="39.604121" lon="-4.977611">
        <ele>617.755</ele>
        <time>2021-10-16T11:59:49Z</time>
      </trkpt>
      <trkpt lat="39.603882" lon="-4.977766">
        <ele>618.810</ele>
        <time>2021-10-16T11:59:50Z</time>
      </trkpt>
      <trkpt lat="39.603412" lon="-4.978073">
        <ele>622.508</ele>
        <time>2021-10-16T11:59:52Z</time>
      </trkpt>
      <trkpt lat="39.603180" lon="-4.978221">
        <ele>624.521</ele>
        <time>2021-10-16T11:59:53Z</time>
      </trkpt>
      <trkpt lat="39.602751" lon="-4.978480">
        <ele>626.569</ele>
        <time>2021-10-16T11:59:55Z</time>
      </trkpt>
      <trkpt lat="39.602529" lon="-4.978585">
        <ele>627.518</ele>
        <time>2021-10-16T11:59:56Z</time>
      </trkpt>
      <trkpt lat="39.602081" lon="-4.978685">
        <ele>629.182</ele>
        <time>2021-10-16T11:59:58Z</time>
      </trkpt>
      <trkpt lat="39.601610" lon="-4.978713">
        <ele>629.637</ele>
        <time>2021-10-16T12:00:00Z</time>
      </trkpt>
      <trkpt lat="39.601102" lon="-4.978709">
        <ele>628.736</ele>
        <time>2021-10-16T12:00:02Z</time>
      </trkpt>
      <trkpt lat="39.600575" lon="-4.978707">
        <ele>626.638</ele>
        <time>2021-10-16T12:00:04Z</time>
      </trkpt>
      <trkpt lat="39.600297" lon="-4.978705">
        <ele>626.065</ele>
        <time>2021-10-16T12:00:05Z</time>
      </trkpt>
      <trkpt lat="39.599724" lon="-4.978702">
        <ele>624.483</ele>
        <time>2021-10-16T12:00:07Z</time>
      </trkpt>
      <trkpt lat="39.599139" lon="-4.978697">
        <ele>624.025</ele>
        <time>2021-10-16T12:00:09Z</time>
      </trkpt>
      <trkpt lat="39.598556" lon="-4.978725">
        <ele>624.117</ele>
        <time>2021-10-16T12:00:11Z</time>
      </trkpt>
      <trkpt lat="39.598272" lon="-4.978770">
        <ele>624.608</ele>
        <time>2021-10-16T12:00:12Z</time>
      </trkpt>
      <trkpt lat="39.597994" lon="-4.978844">
        <ele>625.416</ele>
        <time>2021-10-16T12:00:13Z</time>
      </trkpt>
      <trkpt lat="39.597489" lon="-4.978982">
        <ele>627.164</ele>
        <time>2021-10-16T12:00:15Z</time>
      </trkpt>
      <trkpt lat="39.597010" lon="-4.979040">
        <ele>627.573</ele>
        <time>2021-10-16T12:00:17Z</time>
      </trkpt>
      <trkpt lat="39.596543" lon="-4.978977">
        <ele>629.077</ele>
        <time>2021-10-16T12:00:19Z</time>
      </trkpt>
      <trkpt lat="39.596319" lon="-4.978888">
        <ele>629.462</ele>
        <time>2021-10-16T12:00:20Z</time>
      </trkpt>
      <trkpt lat="39.596101" lon="-4.978774">
        <ele>630.331</ele>
        <time>2021-10-16T12:00:21Z</time>
      </trkpt>
      <trkpt lat="39.595687" lon="-4.978467">
        <ele>632.243</ele>
        <time>2021-10-16T12:00:23Z</time>
      </trkpt>
      <trkpt lat="39.595484" lon="-4.978296">
        <ele>632.170</ele>
        <time>2021-10-16T12:00:24Z</time>
      </trkpt>
      <trkpt lat="39.595065" lon="-4.977963">
        <ele>632.026</ele>
        <time>2021-10-16T12:00:26Z</time>
      </trkpt>
      <trkpt lat="39.594612" lon="-4.977711">
        <ele>632.247</ele>
        <time>2021-10-16T12:00:28Z</time>
      </trkpt>
      <trkpt lat="39.594098" lon="-4.977584">
        <ele>632.811</ele>
        <time>2021-10-16T12:00:30Z</time>
      </trkpt>
      <trkpt lat="39.593830" lon="-4.977581">
        <ele>633.108</ele>
        <time>2021-10-16T12:00:31Z</time>
      </trkpt>
      <trkpt lat="39.593556" lon="-4.977609">
        <ele>633.360</ele>
        <time>2021-10-16T12:00:32Z</time>
      </trkpt>
      <trkpt lat="39.593005" lon="-4.977695">
        <ele>633.138</ele>
        <time>2021-10-16T12:00:34Z</time>
      </trkpt>
      <trkpt lat="39.592729" lon="-4.977735">
        <ele>632.967</ele>
        <time>2021-10-16T12:00:35Z</time>
      </trkpt>
      <trkpt lat="39.592185" lon="-4.977808">
        <ele>631.771</ele>
        <time>2021-10-16T12:00:37Z</time>
      </trkpt>
      <trkpt lat="39.591670" lon="-4.977875">
        <ele>628.796</ele>
        <time>2021-10-16T12:00:39Z</time>
      </trkpt>
      <trkpt lat="39.591424" lon="-4.977888">
        <ele>627.765</ele>
        <time>2021-10-16T12:00:40Z</time>
      </trkpt>
      <trkpt lat="39.591184" lon="-4.977880">
        <ele>626.947</ele>
        <time>2021-10-16T12:00:41Z</time>
      </trkpt>
      <trkpt lat="39.590946" lon="-4.977840">
        <ele>626.824</ele>
        <time>2021-10-16T12:00:42Z</time>
      </trkpt>
      <trkpt lat="39.590483" lon="-4.977646">
        <ele>625.091</ele>
        <time>2021-10-16T12:00:44Z</time>
      </trkpt>
      <trkpt lat="39.590064" lon="-4.977299">
        <ele>623.381</ele>
        <time>2021-10-16T12:00:46Z</time>
      </trkpt>
      <trkpt lat="39.589863" lon="-4.977099">
        <ele>623.219</ele>
        <time>2021-10-16T12:00:47Z</time>
      </trkpt>
      <trkpt lat="39.589453" lon="-4.976695">
        <ele>621.308</ele>
        <time>2021-10-16T12:00:49Z</time>
      </trkpt>
      <trkpt lat="39.589028" lon="-4.976278">
        <ele>619.737</ele>
        <time>2021-10-16T12:00:51Z</time>
      </trkpt>
      <trkpt lat="39.588809" lon="-4.976065">
        <ele>619.075</ele>
        <time>2021-10-16T12:00:52Z</time>
      </trkpt>
      <trkpt lat="39.588587" lon="-4.975850">
        <ele>617.734</ele>
        <time>2021-10-16T12:00:53Z</time>
      </trkpt>
      <trkpt lat="39.588366" lon="-4.975634">
        <ele>616.668</ele>
        <time>2021-10-16T12:00:54Z</time>
      </trkpt>
      <trkpt lat="39.587921" lon="-4.975190">
        <ele>615.973</ele>
        <time>2021-10-16T12:00:56Z</time>
      </trkpt>
      <trkpt lat="39.587694" lon="-4.974972">
        <ele>615.032</ele>
        <time>2021-10-16T12:00:57Z</time>
      </trkpt>
      <trkpt lat="39.587239" lon="-4.974534">
        <ele>614.494</ele>
        <time>2021-10-16T12:00:59Z</time>
      </trkpt>
      <trkpt lat="39.586798" lon="-4.974102">
        <ele>612.871</ele>
        <time>2021-10-16T12:01:01Z</time>
      </trkpt>
      <trkpt lat="39.586371" lon="-4.973747">
        <ele>611.226</ele>
        <time>2021-10-16T12:01:03Z</time>
      </trkpt>
      <trkpt lat="39.585902" lon="-4.973499">
        <ele>609.347</ele>
        <time>2021-10-16T12:01:05Z</time>
      </trkpt>
      <trkpt lat="39.585387" lon="-4.973405">
        <ele>609.511</ele>
        <time>2021-10-16T12:01:07Z</time>
      </trkpt>
      <trkpt lat="39.585116" lon="-4.973412">
        <ele>609.008</ele>
        <time>2021-10-16T12:01:08Z</time>
      </trkpt>
      <trkpt lat="39.584844" lon="-4.973441">
        <ele>609.620</ele>
        <time>2021-10-16T12:01:09Z</time>
      </trkpt>
      <trkpt lat="39.584297" lon="-4.973506">
        <ele>610.698</ele>
        <time>2021-10-16T12:01:11Z</time>
      </trkpt>
      <trkpt lat="39.583757" lon="-4.973483">
        <ele>613.177</ele>
        <time>2021-10-16T12:01:13Z</time>
      </trkpt>
      <trkpt lat="39.583496" lon="-4.973417">
        <ele>613.721</ele>
        <time>2021-10-16T12:01:14Z</time>
      </trkpt>
      <trkpt lat="39.583244" lon="-4.973313">
        <ele>613.846</ele>
        <time>2021-10-16T12:01:15Z</time>
      </trkpt>
      <trkpt lat="39.582778" lon="-4.972980">
        <ele>614.725</ele>
        <time>2021-10-16T12:01:17Z</time>
      </trkpt>
      <trkpt lat="39.582569" lon="-4.972751">
        <ele>615.167</ele>
        <time>2021-10-16T12:01:18Z</time>
      </trkpt>
      <trkpt lat="39.582205" lon="-4.972218">
        <ele>614.654</ele>
        <time>2021-10-16T12:01:20Z</time>
      </trkpt>
      <trkpt lat="39.581858" lon="-4.971671">
        <ele>614.494</ele>
        <time>2021-10-16T12:01:22Z</time>
      </trkpt>
      <trkpt lat="39.581505" lon="-4.971126">
        <ele>613.757</ele>
        <time>2021-10-16T12:01:24Z</time>
      </trkpt>
      <trkpt lat="39.581325" lon="-4.970848">
        <ele>613.522</ele>
        <time>2021-10-16T12:01:25Z</time>
      </trkpt>
      <trkpt lat="39.581147" lon="-4.970567">
        <ele>613.608</ele>
        <time>2021-10-16T12:01:26Z</time>
      </trkpt>
      <trkpt lat="39.580783" lon="-4.970012">
        <ele>615.277</ele>
        <time>2021-10-16T12:01:28Z</time>
      </trkpt>
      <trkpt lat="39.580607" lon="-4.969743">
        <ele>615.265</ele>
        <time>2021-10-16T12:01:29Z</time>
      </trkpt>
      <trkpt lat="39.580441" lon="-4.969492">
        <ele>615.174</ele>
        <time>2021-10-16T12:01:30Z</time>
      </trkpt>
      <trkpt lat="39.580284" lon="-4.969257">
        <ele>615.468</ele>
        <time>2021-10-16T12:01:31Z</time>
      </trkpt>
      <trkpt lat="39.579957" lon="-4.968849">
        <ele>616.313</ele>
        <time>2021-10-16T12:01:33Z</time>
      </trkpt>
      <trkpt lat="39.579575" lon="-4.968514">
        <ele>616.092</ele>
        <time>2021-10-16T12:01:35Z</time>
      </trkpt>
      <trkpt lat="39.579138" lon="-4.968267">
        <ele>616.914</ele>
        <time>2021-10-16T12:01:37Z</time>
      </trkpt>
      <trkpt lat="39.578896" lon="-4.968185">
        <ele>616.421</ele>
        <time>2021-10-16T12:01:38Z</time>
      </trkpt>
      <trkpt lat="39.578643" lon="-4.968130">
        <ele>616.423</ele>
        <time>2021-10-16T12:01:39Z</time>
      </trkpt>
      <trkpt lat="39.578120" lon="-4.968108">
        <ele>614.783</ele>
        <time>2021-10-16T12:01:41Z</time>
      </trkpt>
      <trkpt lat="39.577582" lon="-4.968203">
        <ele>612.611</ele>
        <time>2021-10-16T12:01:43Z</time>
      </trkpt>
      <trkpt lat="39.577310" lon="-4.968285">
        <ele>611.808</ele>
        <time>2021-10-16T12:01:44Z</time>
      </trkpt>
      <trkpt lat="39.576753" lon="-4.968463">
        <ele>607.980</ele>
        <time>2021-10-16T12:01:46Z</time>
      </trkpt>
      <trkpt lat="39.576467" lon="-4.968548">
        <ele>605.968</ele>
        <time>2021-10-16T12:01:47Z</time>
      </trkpt>
      <trkpt lat="39.576176" lon="-4.968634">
        <ele>604.177</ele>
        <time>2021-10-16T12:01:48Z</time>
      </trkpt>
      <trkpt lat="39.575579" lon="-4.968809">
        <ele>600.951</ele>
        <time>2021-10-16T12:01:50Z</time>
      </trkpt>
      <trkpt lat="39.575279" lon="-4.968901">
        <ele>599.876</ele>
        <time>2021-10-16T12:01:51Z</time>
      </trkpt>
      <trkpt lat="39.574979" lon="-4.968987">
        <ele>598.245</ele>
        <time>2021-10-16T12:01:52Z</time>
      </trkpt>
      <trkpt lat="39.574396" lon="-4.969157">
        <ele>596.857</ele>
        <time>2021-10-16T12:01:54Z</time>
      </trkpt>
      <trkpt lat="39.574119" lon="-4.969238">
        <ele>595.624</ele>
        <time>2021-10-16T12:01:55Z</time>
      </trkpt>
      <trkpt lat="39.573607" lon="-4.969389">
        <ele>593.348</ele>
        <time>2021-10-16T12:01:57Z</time>
      </trkpt>
      <trkpt lat="39.573369" lon="-4.969458">
        <ele>592.361</ele>
        <time>2021-10-16T12:01:58Z</time>
      </trkpt>
      <trkpt lat="39.572906" lon="-4.969566">
        <ele>590.917</ele>
        <time>2021-10-16T12:02:00Z</time>
      </trkpt>
      <trkpt lat="39.572423" lon="-4.969575">
        <ele>591.208</ele>
        <time>2021-10-16T12:02:02Z</time>
      </trkpt>
      <trkpt lat="39.572172" lon="-4.969525">
        <ele>590.292</ele>
        <time>2021-10-16T12:02:03Z</time>
      </trkpt>
      <trkpt lat="39.571670" lon="-4.969303">
        <ele>588.230</ele>
        <time>2021-10-16T12:02:05Z</time>
      </trkpt>
      <trkpt lat="39.571199" lon="-4.968944">
        <ele>586.489</ele>
        <time>2021-10-16T12:02:07Z</time>
      </trkpt>
      <trkpt lat="39.570977" lon="-4.968715">
        <ele>586.093</ele>
        <time>2021-10-16T12:02:08Z</time>
      </trkpt>
      <trkpt lat="39.570759" lon="-4.968466">
        <ele>584.938</ele>
        <time>2021-10-16T12:02:09Z</time>
      </trkpt>
      <trkpt lat="39.570332" lon="-4.967959">
        <ele>582.767</ele>
        <time>2021-10-16T12:02:11Z</time>
      </trkpt>
      <trkpt lat="39.570114" lon="-4.967705">
        <ele>583.289</ele>
        <time>2021-10-16T12:02:12Z</time>
      </trkpt>
      <trkpt lat="39.569895" lon="-4.967457">
        <ele>583.736</ele>
        <time>2021-10-16T12:02:13Z</time>
      </trkpt>
      <trkpt lat="39.569682" lon="-4.967209">
        <ele>582.999</ele>
        <time>2021-10-16T12:02:14Z</time>
      </trkpt>
      <trkpt lat="39.569473" lon="-4.966968">
        <ele>583.007</ele>
        <time>2021-10-16T12:02:15Z</time>
      </trkpt>
      <trkpt lat="39.569065" lon="-4.966500">
        <ele>585.027</ele>
        <time>2021-10-16T12:02:17Z</time>
      </trkpt>
      <trkpt lat="39.568863" lon="-4.966269">
        <ele>586.108</ele>
        <time>2021-10-16T12:02:18Z</time>
      </trkpt>
      <trkpt lat="39.568468" lon="-4.965823">
        <ele>587.827</ele>
        <time>2021-10-16T12:02:20Z</time>
      </trkpt>
      <trkpt lat="39.568076" lon="-4.965414">
        <ele>590.525</ele>
        <time>2021-10-16T12:02:22Z</time>
      </trkpt>
      <trkpt lat="39.567654" lon="-4.965099">
        <ele>592.974</ele>
        <time>2021-10-16T12:02:24Z</time>
      </trkpt>
      <trkpt lat="39.567430" lon="-4.964986">
        <ele>593.538</ele>
        <time>2021-10-16T12:02:25Z</time>
      </trkpt>
      <trkpt lat="39.567191" lon="-4.964895">
        <ele>593.833</ele>
        <time>2021-10-16T12:02:26Z</time>
      </trkpt>
      <trkpt lat="39.566718" lon="-4.964793">
        <ele>595.382</ele>
        <time>2021-10-16T12:02:28Z</time>
      </trkpt>
      <trkpt lat="39.566464" lon="-4.964783">
        <ele>595.044</ele>
        <time>2021-10-16T12:02:29Z</time>
      </trkpt>
      <trkpt lat="39.565955" lon="-4.964849">
        <ele>594.811</ele>
        <time>2021-10-16T12:02:31Z</time>
      </trkpt>
      <trkpt lat="39.565697" lon="-4.964899">
        <ele>593.322</ele>
        <time>2021-10-16T12:02:32Z</time>
      </trkpt>
      <trkpt lat="39.565175" lon="-4.964992">
        <ele>592.062</ele>
        <time>2021-10-16T12:02:34Z</time>
      </trkpt>
      <trkpt lat="39.564911" lon="-4.965046">
        <ele>590.808</ele>
        <time>2021-10-16T12:02:35Z</time>
      </trkpt>
      <trkpt lat="39.564385" lon="-4.965183">
        <ele>590.008</ele>
        <time>2021-10-16T12:02:37Z</time>
      </trkpt>
      <trkpt lat="39.563866" lon="-4.965358">
        <ele>589.090</ele>
        <time>2021-10-16T12:02:39Z</time>
      </trkpt>
      <trkpt lat="39.563622" lon="-4.965448">
        <ele>588.758</ele>
        <time>2021-10-16T12:02:40Z</time>
      </trkpt>
      <trkpt lat="39.563170" lon="-4.965613">
        <ele>587.277</ele>
        <time>2021-10-16T12:02:42Z</time>
      </trkpt>
      <trkpt lat="39.562736" lon="-4.965773">
        <ele>587.031</ele>
        <time>2021-10-16T12:02:44Z</time>
      </trkpt>
      <trkpt lat="39.562312" lon="-4.965934">
        <ele>584.946</ele>
        <time>2021-10-16T12:02:46Z</time>
      </trkpt>
      <trkpt lat="39.562100" lon="-4.966014">
        <ele>584.665</ele>
        <time>2021-10-16T12:02:47Z</time>
      </trkpt>
      <trkpt lat="39.561885" lon="-4.966091">
        <ele>584.367</ele>
        <time>2021-10-16T12:02:48Z</time>
      </trkpt>
      <trkpt lat="39.561666" lon="-4.966170">
        <ele>583.444</ele>
        <time>2021-10-16T12:02:49Z</time>
      </trkpt>
      <trkpt lat="39.561215" lon="-4.966335">
        <ele>581.792</ele>
        <time>2021-10-16T12:02:51Z</time>
      </trkpt>
      <trkpt lat="39.560758" lon="-4.966541">
        <ele>579.373</ele>
        <time>2021-10-16T12:02:53Z</time>
      </trkpt>
      <trkpt lat="39.560342" lon="-4.966845">
        <ele>575.820</ele>
        <time>2021-10-16T12:02:55Z</time>
      </trkpt>
      <trkpt lat="39.560171" lon="-4.967046">
        <ele>574.308</ele>
        <time>2021-10-16T12:02:56Z</time>
      </trkpt>
      <trkpt lat="39.559886" lon="-4.967553">
        <ele>571.737</ele>
        <time>2021-10-16T12:02:58Z</time>
      </trkpt>
      <trkpt lat="39.559750" lon="-4.967836">
        <ele>570.495</ele>
        <time>2021-10-16T12:02:59Z</time>
      </trkpt>
      <trkpt lat="39.559608" lon="-4.968124">
        <ele>570.074</ele>
        <time>2021-10-16T12:03:00Z</time>
      </trkpt>
      <trkpt lat="39.559274" lon="-4.968659">
        <ele>567.768</ele>
        <time>2021-10-16T12:03:02Z</time>
      </trkpt>
      <trkpt lat="39.558857" lon="-4.969087">
        <ele>566.753</ele>
        <time>2021-10-16T12:03:04Z</time>
      </trkpt>
      <trkpt lat="39.558621" lon="-4.969247">
        <ele>567.372</ele>
        <time>2021-10-16T12:03:05Z</time>
      </trkpt>
      <trkpt lat="39.558358" lon="-4.969360">
        <ele>566.964</ele>
        <time>2021-10-16T12:03:06Z</time>
      </trkpt>
      <trkpt lat="39.557780" lon="-4.969491">
        <ele>570.271</ele>
        <time>2021-10-16T12:03:08Z</time>
      </trkpt>
      <trkpt lat="39.557235" lon="-4.969620">
        <ele>574.911</ele>
        <time>2021-10-16T12:03:10Z</time>
      </trkpt>
      <trkpt lat="39.556720" lon="-4.969753">
        <ele>579.221</ele>
        <time>2021-10-16T12:03:12Z</time>
      </trkpt>
      <trkpt lat="39.556475" lon="-4.969818">
        <ele>581.503</ele>
        <time>2021-10-16T12:03:13Z</time>
      </trkpt>
      <trkpt lat="39.556007" lon="-4.969923">
        <ele>586.508</ele>
        <time>2021-10-16T12:03:15Z</time>
      </trkpt>
      <trkpt lat="39.555765" lon="-4.969933">
        <ele>587.979</ele>
        <time>2021-10-16T12:03:16Z</time>
      </trkpt>
      <trkpt lat="39.555516" lon="-4.969904">
        <ele>589.697</ele>
        <time>2021-10-16T12:03:17Z</time>
      </trkpt>
      <trkpt lat="39.555009" lon="-4.969764">
        <ele>593.346</ele>
        <time>2021-10-16T12:03:19Z</time>
      </trkpt>
      <trkpt lat="39.554747" lon="-4.969697">
        <ele>595.570</ele>
        <time>2021-10-16T12:03:20Z</time>
      </trkpt>
      <trkpt lat="39.554210" lon="-4.969605">
        <ele>599.355</ele>
        <time>2021-10-16T12:03:22Z</time>
      </trkpt>
      <trkpt lat="39.553677" lon="-4.969545">
        <ele>602.884</ele>
        <time>2021-10-16T12:03:24Z</time>
      </trkpt>
      <trkpt lat="39.553199" lon="-4.969504">
        <ele>606.036</ele>
        <time>2021-10-16T12:03:26Z</time>
      </trkpt>
      <trkpt lat="39.552776" lon="-4.969512">
        <ele>608.753</ele>
        <time>2021-10-16T12:03:28Z</time>
      </trkpt>
      <trkpt lat="39.552426" lon="-4.969659">
        <ele>611.446</ele>
        <time>2021-10-16T12:03:30Z</time>
      </trkpt>
      <trkpt lat="39.552295" lon="-4.969811">
        <ele>612.488</ele>
        <time>2021-10-16T12:03:31Z</time>
      </trkpt>
      <trkpt lat="39.552108" lon="-4.970250">
        <ele>615.516</ele>
        <time>2021-10-16T12:03:33Z</time>
      </trkpt>
      <trkpt lat="39.551947" lon="-4.970734">
        <ele>618.908</ele>
        <time>2021-10-16T12:03:35Z</time>
      </trkpt>
      <trkpt lat="39.551718" lon="-4.971078">
        <ele>621.592</ele>
        <time>2021-10-16T12:03:37Z</time>
      </trkpt>
      <trkpt lat="39.551362" lon="-4.971151">
        <ele>624.320</ele>
        <time>2021-10-16T12:03:39Z</time>
      </trkpt>
      <trkpt lat="39.550987" lon="-4.970984">
        <ele>625.829</ele>
        <time>2021-10-16T12:03:41Z</time>
      </trkpt>
      <trkpt lat="39.550815" lon="-4.970833">
        <ele>626.853</ele>
        <time>2021-10-16T12:03:42Z</time>
      </trkpt>
      <trkpt lat="39.550661" lon="-4.970628">
        <ele>627.998</ele>
        <time>2021-10-16T12:03:43Z</time>
      </trkpt>
      <trkpt lat="39.550526" lon="-4.970370">
        <ele>628.457</ele>
        <time>2021-10-16T12:03:44Z</time>
      </trkpt>
      <trkpt lat="39.550267" lon="-4.969821">
        <ele>630.789</ele>
        <time>2021-10-16T12:03:46Z</time>
      </trkpt>
      <trkpt lat="39.550118" lon="-4.969575">
        <ele>632.616</ele>
        <time>2021-10-16T12:03:47Z</time>
      </trkpt>
      <trkpt lat="39.549792" lon="-4.969205">
        <ele>634.117</ele>
        <time>2021-10-16T12:03:49Z</time>
      </trkpt>
      <trkpt lat="39.549608" lon="-4.969107">
        <ele>635.887</ele>
        <time>2021-10-16T12:03:50Z</time>
      </trkpt>
      <trkpt lat="39.549198" lon="-4.969077">
        <ele>636.615</ele>
        <time>2021-10-16T12:03:52Z</time>
      </trkpt>
      <trkpt lat="39.548766" lon="-4.969225">
        <ele>638.108</ele>
        <time>2021-10-16T12:03:54Z</time>
      </trkpt>
      <trkpt lat="39.548316" lon="-4.969510">
        <ele>637.449</ele>
        <time>2021-10-16T12:03:56Z</time>
      </trkpt>
      <trkpt lat="39.548075" lon="-4.969672">
        <ele>636.937</ele>
        <time>2021-10-16T12:03:57Z</time>
      </trkpt>
      <trkpt lat="39.547815" lon="-4.969853">
        <ele>635.216</ele>
        <time>2021-10-16T12:03:58Z</time>
      </trkpt>
      <trkpt lat="39.547539" lon="-4.970043">
        <ele>632.990</ele>
        <time>2021-10-16T12:03:59Z</time>
      </trkpt>
      <trkpt lat="39.547259" lon="-4.970232">
        <ele>630.915</ele>
        <time>2021-10-16T12:04:00Z</time>
      </trkpt>
      <trkpt lat="39.546983" lon="-4.970417">
        <ele>628.554</ele>
        <time>2021-10-16T12:04:01Z</time>
      </trkpt>
      <trkpt lat="39.546481" lon="-4.970753">
        <ele>625.396</ele>
        <time>2021-10-16T12:04:03Z</time>
      </trkpt>
      <trkpt lat="39.546030" lon="-4.971053">
        <ele>623.493</ele>
        <time>2021-10-16T12:04:05Z</time>
      </trkpt>
      <trkpt lat="39.545812" lon="-4.971199">
        <ele>621.825</ele>
        <time>2021-10-16T12:04:06Z</time>
      </trkpt>
      <trkpt lat="39.545382" lon="-4.971483">
        <ele>619.726</ele>
        <time>2021-10-16T12:04:08Z</time>
      </trkpt>
      <trkpt lat="39.544948" lon="-4.971767">
        <ele>617.608</ele>
        <time>2021-10-16T12:04:10Z</time>
      </trkpt>
      <trkpt lat="39.544728" lon="-4.971910">
        <ele>616.708</ele>
        <time>2021-10-16T12:04:11Z</time>
      </trkpt>
      <trkpt lat="39.544295" lon="-4.972193">
        <ele>615.550</ele>
        <time>2021-10-16T12:04:13Z</time>
      </trkpt>
      <trkpt lat="39.544076" lon="-4.972338">
        <ele>614.258</ele>
        <time>2021-10-16T12:04:14Z</time>
      </trkpt>
      <trkpt lat="39.543856" lon="-4.972487">
        <ele>613.517</ele>
        <time>2021-10-16T12:04:15Z</time>
      </trkpt>
      <trkpt lat="39.543634" lon="-4.972632">
        <ele>613.061</ele>
        <time>2021-10-16T12:04:16Z</time>
      </trkpt>
      <trkpt lat="39.543194" lon="-4.972920">
        <ele>611.416</ele>
        <time>2021-10-16T12:04:18Z</time>
      </trkpt>
      <trkpt lat="39.542977" lon="-4.973067">
        <ele>610.385</ele>
        <time>2021-10-16T12:04:19Z</time>
      </trkpt>
      <trkpt lat="39.542549" lon="-4.973349">
        <ele>609.417</ele>
        <time>2021-10-16T12:04:21Z</time>
      </trkpt>
      <trkpt lat="39.542123" lon="-4.973627">
        <ele>608.774</ele>
        <time>2021-10-16T12:04:23Z</time>
      </trkpt>
      <trkpt lat="39.541694" lon="-4.973905">
        <ele>608.638</ele>
        <time>2021-10-16T12:04:25Z</time>
      </trkpt>
      <trkpt lat="39.541471" lon="-4.974049">
        <ele>608.670</ele>
        <time>2021-10-16T12:04:26Z</time>
      </trkpt>
      <trkpt lat="39.541045" lon="-4.974327">
        <ele>607.517</ele>
        <time>2021-10-16T12:04:28Z</time>
      </trkpt>
      <trkpt lat="39.540607" lon="-4.974617">
        <ele>605.208</ele>
        <time>2021-10-16T12:04:30Z</time>
      </trkpt>
      <trkpt lat="39.540381" lon="-4.974762">
        <ele>604.231</ele>
        <time>2021-10-16T12:04:31Z</time>
      </trkpt>
      <trkpt lat="39.540159" lon="-4.974900">
        <ele>603.119</ele>
        <time>2021-10-16T12:04:32Z</time>
      </trkpt>
      <trkpt lat="39.539724" lon="-4.975184">
        <ele>602.058</ele>
        <time>2021-10-16T12:04:34Z</time>
      </trkpt>
      <trkpt lat="39.539286" lon="-4.975474">
        <ele>601.942</ele>
        <time>2021-10-16T12:04:36Z</time>
      </trkpt>
      <trkpt lat="39.538866" lon="-4.975750">
        <ele>602.177</ele>
        <time>2021-10-16T12:04:38Z</time>
      </trkpt>
      <trkpt lat="39.538671" lon="-4.975877">
        <ele>602.646</ele>
        <time>2021-10-16T12:04:39Z</time>
      </trkpt>
      <trkpt lat="39.538482" lon="-4.975999">
        <ele>602.818</ele>
        <time>2021-10-16T12:04:40Z</time>
      </trkpt>
      <trkpt lat="39.538094" lon="-4.976251">
        <ele>600.285</ele>
        <time>2021-10-16T12:04:42Z</time>
      </trkpt>
      <trkpt lat="39.537700" lon="-4.976527">
        <ele>599.219</ele>
        <time>2021-10-16T12:04:44Z</time>
      </trkpt>
      <trkpt lat="39.537332" lon="-4.976866">
        <ele>598.009</ele>
        <time>2021-10-16T12:04:46Z</time>
      </trkpt>
      <trkpt lat="39.537168" lon="-4.977078">
        <ele>597.619</ele>
        <time>2021-10-16T12:04:47Z</time>
      </trkpt>
      <trkpt lat="39.537016" lon="-4.977311">
        <ele>597.808</ele>
        <time>2021-10-16T12:04:48Z</time>
      </trkpt>
      <trkpt lat="39.536718" lon="-4.977804">
        <ele>597.959</ele>
        <time>2021-10-16T12:04:50Z</time>
      </trkpt>
      <trkpt lat="39.536552" lon="-4.978042">
        <ele>598.397</ele>
        <time>2021-10-16T12:04:51Z</time>
      </trkpt>
      <trkpt lat="39.536162" lon="-4.978464">
        <ele>597.886</ele>
        <time>2021-10-16T12:04:53Z</time>
      </trkpt>
      <trkpt lat="39.535939" lon="-4.978643">
        <ele>598.560</ele>
        <time>2021-10-16T12:04:54Z</time>
      </trkpt>
      <trkpt lat="39.535706" lon="-4.978816">
        <ele>598.835</ele>
        <time>2021-10-16T12:04:55Z</time>
      </trkpt>
      <trkpt lat="39.535465" lon="-4.979000">
        <ele>599.474</ele>
        <time>2021-10-16T12:04:56Z</time>
      </trkpt>
      <trkpt lat="39.534985" lon="-4.979349">
        <ele>599.666</ele>
        <time>2021-10-16T12:04:58Z</time>
      </trkpt>
      <trkpt lat="39.534487" lon="-4.979697">
        <ele>601.273</ele>
        <time>2021-10-16T12:05:00Z</time>
      </trkpt>
      <trkpt lat="39.533998" lon="-4.980033">
        <ele>602.793</ele>
        <time>2021-10-16T12:05:02Z</time>
      </trkpt>
      <trkpt lat="39.533543" lon="-4.980353">
        <ele>600.365</ele>
        <time>2021-10-16T12:05:04Z</time>
      </trkpt>
      <trkpt lat="39.533312" lon="-4.980514">
        <ele>599.921</ele>
        <time>2021-10-16T12:05:05Z</time>
      </trkpt>
      <trkpt lat="39.532847" lon="-4.980851">
        <ele>598.008</ele>
        <time>2021-10-16T12:05:07Z</time>
      </trkpt>
      <trkpt lat="39.532611" lon="-4.981021">
        <ele>597.637</ele>
        <time>2021-10-16T12:05:08Z</time>
      </trkpt>
      <trkpt lat="39.532373" lon="-4.981192">
        <ele>596.935</ele>
        <time>2021-10-16T12:05:09Z</time>
      </trkpt>
      <trkpt lat="39.532134" lon="-4.981358">
        <ele>596.554</ele>
        <time>2021-10-16T12:05:10Z</time>
      </trkpt>
      <trkpt lat="39.531677" lon="-4.981688">
        <ele>596.698</ele>
        <time>2021-10-16T12:05:12Z</time>
      </trkpt>
      <trkpt lat="39.531460" lon="-4.981846">
        <ele>596.323</ele>
        <time>2021-10-16T12:05:13Z</time>
      </trkpt>
      <trkpt lat="39.531018" lon="-4.982155">
        <ele>592.972</ele>
        <time>2021-10-16T12:05:15Z</time>
      </trkpt>
      <trkpt lat="39.530568" lon="-4.982468">
        <ele>592.094</ele>
        <time>2021-10-16T12:05:17Z</time>
      </trkpt>
      <trkpt lat="39.530121" lon="-4.982780">
        <ele>592.181</ele>
        <time>2021-10-16T12:05:19Z</time>
      </trkpt>
      <trkpt lat="39.529714" lon="-4.983070">
        <ele>593.336</ele>
        <time>2021-10-16T12:05:21Z</time>
      </trkpt>
      <trkpt lat="39.529328" lon="-4.983351">
        <ele>595.517</ele>
        <time>2021-10-16T12:05:23Z</time>
      </trkpt>
      <trkpt lat="39.529130" lon="-4.983493">
        <ele>596.618</ele>
        <time>2021-10-16T12:05:24Z</time>
      </trkpt>
      <trkpt lat="39.528725" lon="-4.983783">
        <ele>598.908</ele>
        <time>2021-10-16T12:05:26Z</time>
      </trkpt>
      <trkpt lat="39.528319" lon="-4.984071">
        <ele>600.991</ele>
        <time>2021-10-16T12:05:28Z</time>
      </trkpt>
      <trkpt lat="39.527901" lon="-4.984367">
        <ele>602.349</ele>
        <time>2021-10-16T12:05:30Z</time>
      </trkpt>
      <trkpt lat="39.527449" lon="-4.984683">
        <ele>602.628</ele>
        <time>2021-10-16T12:05:32Z</time>
      </trkpt>
      <trkpt lat="39.526969" lon="-4.985026">
        <ele>602.652</ele>
        <time>2021-10-16T12:05:34Z</time>
      </trkpt>
      <trkpt lat="39.526478" lon="-4.985382">
        <ele>603.167</ele>
        <time>2021-10-16T12:05:36Z</time>
      </trkpt>
      <trkpt lat="39.525972" lon="-4.985740">
        <ele>604.596</ele>
        <time>2021-10-16T12:05:38Z</time>
      </trkpt>
      <trkpt lat="39.525478" lon="-4.986091">
        <ele>606.288</ele>
        <time>2021-10-16T12:05:40Z</time>
      </trkpt>
      <trkpt lat="39.525242" lon="-4.986263">
        <ele>606.965</ele>
        <time>2021-10-16T12:05:41Z</time>
      </trkpt>
      <trkpt lat="39.524790" lon="-4.986583">
        <ele>608.659</ele>
        <time>2021-10-16T12:05:43Z</time>
      </trkpt>
      <trkpt lat="39.524357" lon="-4.986893">
        <ele>609.503</ele>
        <time>2021-10-16T12:05:45Z</time>
      </trkpt>
      <trkpt lat="39.524146" lon="-4.987050">
        <ele>610.323</ele>
        <time>2021-10-16T12:05:46Z</time>
      </trkpt>
      <trkpt lat="39.523748" lon="-4.987373">
        <ele>611.708</ele>
        <time>2021-10-16T12:05:48Z</time>
      </trkpt>
      <trkpt lat="39.523373" lon="-4.987723">
        <ele>614.563</ele>
        <time>2021-10-16T12:05:50Z</time>
      </trkpt>
      <trkpt lat="39.523186" lon="-4.987913">
        <ele>616.091</ele>
        <time>2021-10-16T12:05:51Z</time>
      </trkpt>
      <trkpt lat="39.522829" lon="-4.988276">
        <ele>616.540</ele>
        <time>2021-10-16T12:05:53Z</time>
      </trkpt>
      <trkpt lat="39.522460" lon="-4.988597">
        <ele>617.194</ele>
        <time>2021-10-16T12:05:55Z</time>
      </trkpt>
      <trkpt lat="39.522032" lon="-4.988863">
        <ele>615.199</ele>
        <time>2021-10-16T12:05:57Z</time>
      </trkpt>
      <trkpt lat="39.521792" lon="-4.988977">
        <ele>614.028</ele>
        <time>2021-10-16T12:05:58Z</time>
      </trkpt>
      <trkpt lat="39.521279" lon="-4.989195">
        <ele>610.930</ele>
        <time>2021-10-16T12:06:00Z</time>
      </trkpt>
      <trkpt lat="39.520748" lon="-4.989422">
        <ele>607.347</ele>
        <time>2021-10-16T12:06:02Z</time>
      </trkpt>
      <trkpt lat="39.520478" lon="-4.989539">
        <ele>606.281</ele>
        <time>2021-10-16T12:06:03Z</time>
      </trkpt>
      <trkpt lat="39.519944" lon="-4.989774">
        <ele>604.761</ele>
        <time>2021-10-16T12:06:05Z</time>
      </trkpt>
      <trkpt lat="39.519678" lon="-4.989891">
        <ele>603.817</ele>
        <time>2021-10-16T12:06:06Z</time>
      </trkpt>
      <trkpt lat="39.519148" lon="-4.990121">
        <ele>601.808</ele>
        <time>2021-10-16T12:06:08Z</time>
      </trkpt>
      <trkpt lat="39.518881" lon="-4.990237">
        <ele>601.246</ele>
        <time>2021-10-16T12:06:09Z</time>
      </trkpt>
      <trkpt lat="39.518352" lon="-4.990466">
        <ele>599.324</ele>
        <time>2021-10-16T12:06:11Z</time>
      </trkpt>
      <trkpt lat="39.517831" lon="-4.990693">
        <ele>600.093</ele>
        <time>2021-10-16T12:06:13Z</time>
      </trkpt>
      <trkpt lat="39.517575" lon="-4.990805">
        <ele>600.117</ele>
        <time>2021-10-16T12:06:14Z</time>
      </trkpt>
      <trkpt lat="39.517320" lon="-4.990915">
        <ele>600.092</ele>
        <time>2021-10-16T12:06:15Z</time>
      </trkpt>
      <trkpt lat="39.516822" lon="-4.991130">
        <ele>599.921</ele>
        <time>2021-10-16T12:06:17Z</time>
      </trkpt>
      <trkpt lat="39.516322" lon="-4.991347">
        <ele>599.593</ele>
        <time>2021-10-16T12:06:19Z</time>
      </trkpt>
      <trkpt lat="39.516068" lon="-4.991457">
        <ele>598.910</ele>
        <time>2021-10-16T12:06:20Z</time>
      </trkpt>
      <trkpt lat="39.515549" lon="-4.991682">
        <ele>598.157</ele>
        <time>2021-10-16T12:06:22Z</time>
      </trkpt>
      <trkpt lat="39.515281" lon="-4.991797">
        <ele>597.300</ele>
        <time>2021-10-16T12:06:23Z</time>
      </trkpt>
      <trkpt lat="39.514757" lon="-4.992021">
        <ele>595.420</ele>
        <time>2021-10-16T12:06:25Z</time>
      </trkpt>
      <trkpt lat="39.514492" lon="-4.992130">
        <ele>595.508</ele>
        <time>2021-10-16T12:06:26Z</time>
      </trkpt>
      <trkpt lat="39.514225" lon="-4.992240">
        <ele>595.693</ele>
        <time>2021-10-16T12:06:27Z</time>
      </trkpt>
      <trkpt lat="39.513696" lon="-4.992463">
        <ele>596.591</ele>
        <time>2021-10-16T12:06:29Z</time>
      </trkpt>
      <trkpt lat="39.513168" lon="-4.992687">
        <ele>597.490</ele>
        <time>2021-10-16T12:06:31Z</time>
      </trkpt>
      <trkpt lat="39.512657" lon="-4.992895">
        <ele>600.454</ele>
        <time>2021-10-16T12:06:33Z</time>
      </trkpt>
      <trkpt lat="39.512422" lon="-4.992992">
        <ele>601.059</ele>
        <time>2021-10-16T12:06:34Z</time>
      </trkpt>
      <trkpt lat="39.512200" lon="-4.993094">
        <ele>602.378</ele>
        <time>2021-10-16T12:06:35Z</time>
      </trkpt>
      <trkpt lat="39.511768" lon="-4.993345">
        <ele>603.510</ele>
        <time>2021-10-16T12:06:37Z</time>
      </trkpt>
      <trkpt lat="39.511565" lon="-4.993521">
        <ele>604.237</ele>
        <time>2021-10-16T12:06:38Z</time>
      </trkpt>
      <trkpt lat="39.511230" lon="-4.993988">
        <ele>605.032</ele>
        <time>2021-10-16T12:06:40Z</time>
      </trkpt>
      <trkpt lat="39.511095" lon="-4.994257">
        <ele>605.592</ele>
        <time>2021-10-16T12:06:41Z</time>
      </trkpt>
      <trkpt lat="39.510834" lon="-4.994741">
        <ele>605.311</ele>
        <time>2021-10-16T12:06:43Z</time>
      </trkpt>
      <trkpt lat="39.510681" lon="-4.994961">
        <ele>604.708</ele>
        <time>2021-10-16T12:06:44Z</time>
      </trkpt>
      <trkpt lat="39.510279" lon="-4.995350">
        <ele>604.671</ele>
        <time>2021-10-16T12:06:46Z</time>
      </trkpt>
      <trkpt lat="39.510028" lon="-4.995503">
        <ele>604.049</ele>
        <time>2021-10-16T12:06:47Z</time>
      </trkpt>
      <trkpt lat="39.509760" lon="-4.995640">
        <ele>604.248</ele>
        <time>2021-10-16T12:06:48Z</time>
      </trkpt>
      <trkpt lat="39.509237" lon="-4.995897">
        <ele>604.182</ele>
        <time>2021-10-16T12:06:50Z</time>
      </trkpt>
      <trkpt lat="39.508981" lon="-4.996029">
        <ele>604.737</ele>
        <time>2021-10-16T12:06:51Z</time>
      </trkpt>
      <trkpt lat="39.508726" lon="-4.996163">
        <ele>605.026</ele>
        <time>2021-10-16T12:06:52Z</time>
      </trkpt>
      <trkpt lat="39.508244" lon="-4.996418">
        <ele>605.098</ele>
        <time>2021-10-16T12:06:54Z</time>
      </trkpt>
      <trkpt lat="39.508012" lon="-4.996541">
        <ele>605.335</ele>
        <time>2021-10-16T12:06:55Z</time>
      </trkpt>
      <trkpt lat="39.507783" lon="-4.996661">
        <ele>605.639</ele>
        <time>2021-10-16T12:06:56Z</time>
      </trkpt>
      <trkpt lat="39.507315" lon="-4.996863">
        <ele>606.401</ele>
        <time>2021-10-16T12:06:58Z</time>
      </trkpt>
      <trkpt lat="39.507079" lon="-4.996934">
        <ele>605.921</ele>
        <time>2021-10-16T12:06:59Z</time>
      </trkpt>
      <trkpt lat="39.506841" lon="-4.996990">
        <ele>605.308</ele>
        <time>2021-10-16T12:07:00Z</time>
      </trkpt>
      <trkpt lat="39.506339" lon="-4.997090">
        <ele>605.841</ele>
        <time>2021-10-16T12:07:02Z</time>
      </trkpt>
      <trkpt lat="39.505808" lon="-4.997189">
        <ele>605.339</ele>
        <time>2021-10-16T12:07:04Z</time>
      </trkpt>
      <trkpt lat="39.505281" lon="-4.997286">
        <ele>606.348</ele>
        <time>2021-10-16T12:07:06Z</time>
      </trkpt>
      <trkpt lat="39.504776" lon="-4.997329">
        <ele>606.872</ele>
        <time>2021-10-16T12:07:08Z</time>
      </trkpt>
      <trkpt lat="39.504533" lon="-4.997309">
        <ele>607.657</ele>
        <time>2021-10-16T12:07:09Z</time>
      </trkpt>
      <trkpt lat="39.504296" lon="-4.997250">
        <ele>608.846</ele>
        <time>2021-10-16T12:07:10Z</time>
      </trkpt>
      <trkpt lat="39.504065" lon="-4.997164">
        <ele>610.358</ele>
        <time>2021-10-16T12:07:11Z</time>
      </trkpt>
      <trkpt lat="39.503831" lon="-4.997068">
        <ele>611.325</ele>
        <time>2021-10-16T12:07:12Z</time>
      </trkpt>
      <trkpt lat="39.503354" lon="-4.996884">
        <ele>613.985</ele>
        <time>2021-10-16T12:07:14Z</time>
      </trkpt>
      <trkpt lat="39.502860" lon="-4.996704">
        <ele>615.689</ele>
        <time>2021-10-16T12:07:16Z</time>
      </trkpt>
      <trkpt lat="39.502608" lon="-4.996612">
        <ele>615.317</ele>
        <time>2021-10-16T12:07:17Z</time>
      </trkpt>
      <trkpt lat="39.502355" lon="-4.996518">
        <ele>615.408</ele>
        <time>2021-10-16T12:07:18Z</time>
      </trkpt>
      <trkpt lat="39.501877" lon="-4.996340">
        <ele>615.726</ele>
        <time>2021-10-16T12:07:20Z</time>
      </trkpt>
      <trkpt lat="39.501649" lon="-4.996276">
        <ele>616.194</ele>
        <time>2021-10-16T12:07:21Z</time>
      </trkpt>
      <trkpt lat="39.501418" lon="-4.996239">
        <ele>616.243</ele>
        <time>2021-10-16T12:07:22Z</time>
      </trkpt>
      <trkpt lat="39.500941" lon="-4.996235">
        <ele>617.697</ele>
        <time>2021-10-16T12:07:24Z</time>
      </trkpt>
      <trkpt lat="39.500696" lon="-4.996281">
        <ele>618.272</ele>
        <time>2021-10-16T12:07:25Z</time>
      </trkpt>
      <trkpt lat="39.500442" lon="-4.996364">
        <ele>619.571</ele>
        <time>2021-10-16T12:07:26Z</time>
      </trkpt>
      <trkpt lat="39.499921" lon="-4.996547">
        <ele>621.923</ele>
        <time>2021-10-16T12:07:28Z</time>
      </trkpt>
      <trkpt lat="39.499370" lon="-4.996722">
        <ele>622.160</ele>
        <time>2021-10-16T12:07:30Z</time>
      </trkpt>
      <trkpt lat="39.498831" lon="-4.996895">
        <ele>622.347</ele>
        <time>2021-10-16T12:07:32Z</time>
      </trkpt>
      <trkpt lat="39.498335" lon="-4.997059">
        <ele>623.229</ele>
        <time>2021-10-16T12:07:34Z</time>
      </trkpt>
      <trkpt lat="39.498074" lon="-4.997147">
        <ele>623.621</ele>
        <time>2021-10-16T12:07:35Z</time>
      </trkpt>
      <trkpt lat="39.497811" lon="-4.997234">
        <ele>624.008</ele>
        <time>2021-10-16T12:07:36Z</time>
      </trkpt>
      <trkpt lat="39.497541" lon="-4.997323">
        <ele>625.012</ele>
        <time>2021-10-16T12:07:37Z</time>
      </trkpt>
      <trkpt lat="39.496999" lon="-4.997493">
        <ele>625.470</ele>
        <time>2021-10-16T12:07:39Z</time>
      </trkpt>
      <trkpt lat="39.496453" lon="-4.997665">
        <ele>627.929</ele>
        <time>2021-10-16T12:07:41Z</time>
      </trkpt>
      <trkpt lat="39.496183" lon="-4.997749">
        <ele>629.263</ele>
        <time>2021-10-16T12:07:42Z</time>
      </trkpt>
      <trkpt lat="39.495912" lon="-4.997834">
        <ele>630.238</ele>
        <time>2021-10-16T12:07:43Z</time>
      </trkpt>
      <trkpt lat="39.495371" lon="-4.998001">
        <ele>632.987</ele>
        <time>2021-10-16T12:07:45Z</time>
      </trkpt>
      <trkpt lat="39.494831" lon="-4.998154">
        <ele>635.049</ele>
        <time>2021-10-16T12:07:47Z</time>
      </trkpt>
      <trkpt lat="39.494558" lon="-4.998204">
        <ele>637.276</ele>
        <time>2021-10-16T12:07:48Z</time>
      </trkpt>
      <trkpt lat="39.494005" lon="-4.998215">
        <ele>639.433</ele>
        <time>2021-10-16T12:07:50Z</time>
      </trkpt>
      <trkpt lat="39.493440" lon="-4.998149">
        <ele>640.123</ele>
        <time>2021-10-16T12:07:52Z</time>
      </trkpt>
      <trkpt lat="39.493155" lon="-4.998117">
        <ele>640.215</ele>
        <time>2021-10-16T12:07:53Z</time>
      </trkpt>
      <trkpt lat="39.492623" lon="-4.998061">
        <ele>638.808</ele>
        <time>2021-10-16T12:07:55Z</time>
      </trkpt>
      <trkpt lat="39.492364" lon="-4.998033">
        <ele>637.831</ele>
        <time>2021-10-16T12:07:56Z</time>
      </trkpt>
      <trkpt lat="39.491889" lon="-4.997970">
        <ele>636.239</ele>
        <time>2021-10-16T12:07:58Z</time>
      </trkpt>
      <trkpt lat="39.491429" lon="-4.997823">
        <ele>636.038</ele>
        <time>2021-10-16T12:08:00Z</time>
      </trkpt>
      <trkpt lat="39.491207" lon="-4.997697">
        <ele>634.762</ele>
        <time>2021-10-16T12:08:01Z</time>
      </trkpt>
      <trkpt lat="39.490769" lon="-4.997416">
        <ele>633.117</ele>
        <time>2021-10-16T12:08:03Z</time>
      </trkpt>
      <trkpt lat="39.490334" lon="-4.997260">
        <ele>631.766</ele>
        <time>2021-10-16T12:08:05Z</time>
      </trkpt>
      <trkpt lat="39.489911" lon="-4.997318">
        <ele>629.828</ele>
        <time>2021-10-16T12:08:07Z</time>
      </trkpt>
      <trkpt lat="39.489715" lon="-4.997450">
        <ele>628.985</ele>
        <time>2021-10-16T12:08:08Z</time>
      </trkpt>
      <trkpt lat="39.489354" lon="-4.997782">
        <ele>626.388</ele>
        <time>2021-10-16T12:08:10Z</time>
      </trkpt>
      <trkpt lat="39.488953" lon="-4.997994">
        <ele>623.924</ele>
        <time>2021-10-16T12:08:12Z</time>
      </trkpt>
      <trkpt lat="39.488736" lon="-4.998025">
        <ele>622.326</ele>
        <time>2021-10-16T12:08:13Z</time>
      </trkpt>
      <trkpt lat="39.488294" lon="-4.997880">
        <ele>620.408</ele>
        <time>2021-10-16T12:08:15Z</time>
      </trkpt>
      <trkpt lat="39.488080" lon="-4.997715">
        <ele>618.666</ele>
        <time>2021-10-16T12:08:16Z</time>
      </trkpt>
      <trkpt lat="39.487713" lon="-4.997352">
        <ele>617.054</ele>
        <time>2021-10-16T12:08:18Z</time>
      </trkpt>
      <trkpt lat="39.487305" lon="-4.997137">
        <ele>615.283</ele>
        <time>2021-10-16T12:08:20Z</time>
      </trkpt>
      <trkpt lat="39.487065" lon="-4.997079">
        <ele>613.197</ele>
        <time>2021-10-16T12:08:21Z</time>
      </trkpt>
      <trkpt lat="39.486566" lon="-4.996982">
        <ele>609.362</ele>
        <time>2021-10-16T12:08:23Z</time>
      </trkpt>
      <trkpt lat="39.486323" lon="-4.996940">
        <ele>607.471</ele>
        <time>2021-10-16T12:08:24Z</time>
      </trkpt>
      <trkpt lat="39.485868" lon="-4.996907">
        <ele>603.573</ele>
        <time>2021-10-16T12:08:26Z</time>
      </trkpt>
      <trkpt lat="39.485439" lon="-4.997045">
        <ele>599.720</ele>
        <time>2021-10-16T12:08:28Z</time>
      </trkpt>
      <trkpt lat="39.485077" lon="-4.997407">
        <ele>595.372</ele>
        <time>2021-10-16T12:08:30Z</time>
      </trkpt>
      <trkpt lat="39.484920" lon="-4.997646">
        <ele>594.013</ele>
        <time>2021-10-16T12:08:31Z</time>
      </trkpt>
      <trkpt lat="39.484644" lon="-4.998145">
        <ele>593.014</ele>
        <time>2021-10-16T12:08:33Z</time>
      </trkpt>
      <trkpt lat="39.484513" lon="-4.998378">
        <ele>591.308</ele>
        <time>2021-10-16T12:08:34Z</time>
      </trkpt>
      <trkpt lat="39.484236" lon="-4.998778">
        <ele>590.445</ele>
        <time>2021-10-16T12:08:36Z</time>
      </trkpt>
      <trkpt lat="39.483876" lon="-4.999103">
        <ele>589.113</ele>
        <time>2021-10-16T12:08:38Z</time>
      </trkpt>
      <trkpt lat="39.483682" lon="-4.999226">
        <ele>588.312</ele>
        <time>2021-10-16T12:08:39Z</time>
      </trkpt>
      <trkpt lat="39.483490" lon="-4.999344">
        <ele>587.516</ele>
        <time>2021-10-16T12:08:40Z</time>
      </trkpt>
      <trkpt lat="39.483135" lon="-4.999664">
        <ele>584.191</ele>
        <time>2021-10-16T12:08:42Z</time>
      </trkpt>
      <trkpt lat="39.482989" lon="-4.999892">
        <ele>582.260</ele>
        <time>2021-10-16T12:08:43Z</time>
      </trkpt>
      <trkpt lat="39.482865" lon="-5.000161">
        <ele>580.582</ele>
        <time>2021-10-16T12:08:44Z</time>
      </trkpt>
      <trkpt lat="39.482647" lon="-5.000699">
        <ele>579.659</ele>
        <time>2021-10-16T12:08:46Z</time>
      </trkpt>
      <trkpt lat="39.482374" lon="-5.001162">
        <ele>579.235</ele>
        <time>2021-10-16T12:08:48Z</time>
      </trkpt>
      <trkpt lat="39.482199" lon="-5.001374">
        <ele>579.086</ele>
        <time>2021-10-16T12:08:49Z</time>
      </trkpt>
      <trkpt lat="39.481792" lon="-5.001782">
        <ele>578.214</ele>
        <time>2021-10-16T12:08:51Z</time>
      </trkpt>
      <trkpt lat="39.481383" lon="-5.002179">
        <ele>575.808</ele>
        <time>2021-10-16T12:08:53Z</time>
      </trkpt>
      <trkpt lat="39.480999" lon="-5.002544">
        <ele>573.881</ele>
        <time>2021-10-16T12:08:55Z</time>
      </trkpt>
      <trkpt lat="39.480819" lon="-5.002707">
        <ele>572.879</ele>
        <time>2021-10-16T12:08:56Z</time>
      </trkpt>
      <trkpt lat="39.480437" lon="-5.002999">
        <ele>571.268</ele>
        <time>2021-10-16T12:08:58Z</time>
      </trkpt>
      <trkpt lat="39.479976" lon="-5.003190">
        <ele>568.272</ele>
        <time>2021-10-16T12:09:00Z</time>
      </trkpt>
      <trkpt lat="39.479723" lon="-5.003244">
        <ele>566.677</ele>
        <time>2021-10-16T12:09:01Z</time>
      </trkpt>
      <trkpt lat="39.479239" lon="-5.003324">
        <ele>564.046</ele>
        <time>2021-10-16T12:09:03Z</time>
      </trkpt>
      <trkpt lat="39.479013" lon="-5.003358">
        <ele>562.828</ele>
        <time>2021-10-16T12:09:04Z</time>
      </trkpt>
      <trkpt lat="39.478593" lon="-5.003321">
        <ele>560.235</ele>
        <time>2021-10-16T12:09:06Z</time>
      </trkpt>
      <trkpt lat="39.478203" lon="-5.003113">
        <ele>558.016</ele>
        <time>2021-10-16T12:09:08Z</time>
      </trkpt>
      <trkpt lat="39.478019" lon="-5.002973">
        <ele>556.276</ele>
        <time>2021-10-16T12:09:09Z</time>
      </trkpt>
      <trkpt lat="39.477654" lon="-5.002740">
        <ele>552.613</ele>
        <time>2021-10-16T12:09:11Z</time>
      </trkpt>
      <trkpt lat="39.477454" lon="-5.002669">
        <ele>550.908</ele>
        <time>2021-10-16T12:09:12Z</time>
      </trkpt>
      <trkpt lat="39.477028" lon="-5.002666">
        <ele>547.889</ele>
        <time>2021-10-16T12:09:14Z</time>
      </trkpt>
      <trkpt lat="39.476817" lon="-5.002758">
        <ele>546.127</ele>
        <time>2021-10-16T12:09:15Z</time>
      </trkpt>
      <trkpt lat="39.476451" lon="-5.003086">
        <ele>543.426</ele>
        <time>2021-10-16T12:09:17Z</time>
      </trkpt>
      <trkpt lat="39.476131" lon="-5.003420">
        <ele>539.660</ele>
        <time>2021-10-16T12:09:19Z</time>
      </trkpt>
      <trkpt lat="39.475961" lon="-5.003540">
        <ele>537.895</ele>
        <time>2021-10-16T12:09:20Z</time>
      </trkpt>
      <trkpt lat="39.475585" lon="-5.003661">
        <ele>534.684</ele>
        <time>2021-10-16T12:09:22Z</time>
      </trkpt>
      <trkpt lat="39.475150" lon="-5.003601">
        <ele>531.416</ele>
        <time>2021-10-16T12:09:24Z</time>
      </trkpt>
      <trkpt lat="39.474916" lon="-5.003509">
        <ele>529.733</ele>
        <time>2021-10-16T12:09:25Z</time>
      </trkpt>
      <trkpt lat="39.474685" lon="-5.003428">
        <ele>527.442</ele>
        <time>2021-10-16T12:09:26Z</time>
      </trkpt>
      <trkpt lat="39.474243" lon="-5.003403">
        <ele>523.822</ele>
        <time>2021-10-16T12:09:28Z</time>
      </trkpt>
      <trkpt lat="39.474024" lon="-5.003463">
        <ele>522.414</ele>
        <time>2021-10-16T12:09:29Z</time>
      </trkpt>
      <trkpt lat="39.473644" lon="-5.003790">
        <ele>518.808</ele>
        <time>2021-10-16T12:09:31Z</time>
      </trkpt>
      <trkpt lat="39.473481" lon="-5.004020">
        <ele>517.012</ele>
        <time>2021-10-16T12:09:32Z</time>
      </trkpt>
      <trkpt lat="39.473174" lon="-5.004475">
        <ele>514.480</ele>
        <time>2021-10-16T12:09:34Z</time>
      </trkpt>
      <trkpt lat="39.472817" lon="-5.004835">
        <ele>510.459</ele>
        <time>2021-10-16T12:09:36Z</time>
      </trkpt>
      <trkpt lat="39.472633" lon="-5.004976">
        <ele>509.493</ele>
        <time>2021-10-16T12:09:37Z</time>
      </trkpt>
      <trkpt lat="39.472462" lon="-5.005124">
        <ele>508.158</ele>
        <time>2021-10-16T12:09:38Z</time>
      </trkpt>
      <trkpt lat="39.472174" lon="-5.005507">
        <ele>504.647</ele>
        <time>2021-10-16T12:09:40Z</time>
      </trkpt>
      <trkpt lat="39.472012" lon="-5.006017">
        <ele>502.329</ele>
        <time>2021-10-16T12:09:42Z</time>
      </trkpt>
      <trkpt lat="39.471993" lon="-5.006589">
        <ele>501.136</ele>
        <time>2021-10-16T12:09:44Z</time>
      </trkpt>
      <trkpt lat="39.472092" lon="-5.007139">
        <ele>500.811</ele>
        <time>2021-10-16T12:09:46Z</time>
      </trkpt>
      <trkpt lat="39.472105" lon="-5.007387">
        <ele>500.621</ele>
        <time>2021-10-16T12:09:47Z</time>
      </trkpt>
      <trkpt lat="39.472082" lon="-5.007631">
        <ele>500.203</ele>
        <time>2021-10-16T12:09:48Z</time>
      </trkpt>
      <trkpt lat="39.471931" lon="-5.008117">
        <ele>500.208</ele>
        <time>2021-10-16T12:09:50Z</time>
      </trkpt>
      <trkpt lat="39.471690" lon="-5.008581">
        <ele>498.839</ele>
        <time>2021-10-16T12:09:52Z</time>
      </trkpt>
      <trkpt lat="39.471573" lon="-5.008804">
        <ele>497.837</ele>
        <time>2021-10-16T12:09:53Z</time>
      </trkpt>
      <trkpt lat="39.471459" lon="-5.009016">
        <ele>497.426</ele>
        <time>2021-10-16T12:09:54Z</time>
      </trkpt>
      <trkpt lat="39.471179" lon="-5.009398">
        <ele>494.920</ele>
        <time>2021-10-16T12:09:56Z</time>
      </trkpt>
      <trkpt lat="39.470806" lon="-5.009627">
        <ele>493.045</ele>
        <time>2021-10-16T12:09:58Z</time>
      </trkpt>
      <trkpt lat="39.470340" lon="-5.009669">
        <ele>490.344</ele>
        <time>2021-10-16T12:10:00Z</time>
      </trkpt>
      <trkpt lat="39.470077" lon="-5.009632">
        <ele>488.336</ele>
        <time>2021-10-16T12:10:01Z</time>
      </trkpt>
      <trkpt lat="39.469500" lon="-5.009544">
        <ele>483.873</ele>
        <time>2021-10-16T12:10:03Z</time>
      </trkpt>
      <trkpt lat="39.469205" lon="-5.009514">
        <ele>481.429</ele>
        <time>2021-10-16T12:10:04Z</time>
      </trkpt>
      <trkpt lat="39.468912" lon="-5.009488">
        <ele>479.200</ele>
        <time>2021-10-16T12:10:05Z</time>
      </trkpt>
      <trkpt lat="39.468369" lon="-5.009477">
        <ele>474.320</ele>
        <time>2021-10-16T12:10:07Z</time>
      </trkpt>
      <trkpt lat="39.468100" lon="-5.009515">
        <ele>473.208</ele>
        <time>2021-10-16T12:10:08Z</time>
      </trkpt>
      <trkpt lat="39.467839" lon="-5.009603">
        <ele>471.640</ele>
        <time>2021-10-16T12:10:09Z</time>
      </trkpt>
      <trkpt lat="39.467589" lon="-5.009729">
        <ele>470.068</ele>
        <time>2021-10-16T12:10:10Z</time>
      </trkpt>
      <trkpt lat="39.467347" lon="-5.009876">
        <ele>469.277</ele>
        <time>2021-10-16T12:10:11Z</time>
      </trkpt>
      <trkpt lat="39.466904" lon="-5.010184">
        <ele>467.191</ele>
        <time>2021-10-16T12:10:13Z</time>
      </trkpt>
      <trkpt lat="39.466492" lon="-5.010408">
        <ele>466.376</ele>
        <time>2021-10-16T12:10:15Z</time>
      </trkpt>
      <trkpt lat="39.466008" lon="-5.010496">
        <ele>464.295</ele>
        <time>2021-10-16T12:10:17Z</time>
      </trkpt>
      <trkpt lat="39.465733" lon="-5.010491">
        <ele>464.247</ele>
        <time>2021-10-16T12:10:18Z</time>
      </trkpt>
      <trkpt lat="39.465134" lon="-5.010478">
        <ele>462.894</ele>
        <time>2021-10-16T12:10:20Z</time>
      </trkpt>
      <trkpt lat="39.464533" lon="-5.010481">
        <ele>463.583</ele>
        <time>2021-10-16T12:10:22Z</time>
      </trkpt>
      <trkpt lat="39.464260" lon="-5.010485">
        <ele>464.725</ele>
        <time>2021-10-16T12:10:23Z</time>
      </trkpt>
      <trkpt lat="39.463753" lon="-5.010511">
        <ele>467.117</ele>
        <time>2021-10-16T12:10:25Z</time>
      </trkpt>
      <trkpt lat="39.463516" lon="-5.010532">
        <ele>468.108</ele>
        <time>2021-10-16T12:10:26Z</time>
      </trkpt>
      <trkpt lat="39.463276" lon="-5.010566">
        <ele>469.726</ele>
        <time>2021-10-16T12:10:27Z</time>
      </trkpt>
      <trkpt lat="39.463027" lon="-5.010620">
        <ele>470.484</ele>
        <time>2021-10-16T12:10:28Z</time>
      </trkpt>
      <trkpt lat="39.462504" lon="-5.010804">
        <ele>471.643</ele>
        <time>2021-10-16T12:10:30Z</time>
      </trkpt>
      <trkpt lat="39.461972" lon="-5.011074">
        <ele>472.617</ele>
        <time>2021-10-16T12:10:32Z</time>
      </trkpt>
      <trkpt lat="39.461497" lon="-5.011394">
        <ele>473.012</ele>
        <time>2021-10-16T12:10:34Z</time>
      </trkpt>
      <trkpt lat="39.461016" lon="-5.011779">
        <ele>472.431</ele>
        <time>2021-10-16T12:10:36Z</time>
      </trkpt>
      <trkpt lat="39.460763" lon="-5.011988">
        <ele>471.083</ele>
        <time>2021-10-16T12:10:37Z</time>
      </trkpt>
      <trkpt lat="39.460287" lon="-5.012376">
        <ele>469.550</ele>
        <time>2021-10-16T12:10:39Z</time>
      </trkpt>
      <trkpt lat="39.460054" lon="-5.012566">
        <ele>468.536</ele>
        <time>2021-10-16T12:10:40Z</time>
      </trkpt>
      <trkpt lat="39.459590" lon="-5.012974">
        <ele>466.417</ele>
        <time>2021-10-16T12:10:42Z</time>
      </trkpt>
      <trkpt lat="39.459369" lon="-5.013210">
        <ele>464.718</ele>
        <time>2021-10-16T12:10:43Z</time>
      </trkpt>
      <trkpt lat="39.458988" lon="-5.013735">
        <ele>461.808</ele>
        <time>2021-10-16T12:10:45Z</time>
      </trkpt>
      <trkpt lat="39.458817" lon="-5.014001">
        <ele>460.811</ele>
        <time>2021-10-16T12:10:46Z</time>
      </trkpt>
      <trkpt lat="39.458524" lon="-5.014510">
        <ele>460.559</ele>
        <time>2021-10-16T12:10:48Z</time>
      </trkpt>
      <trkpt lat="39.458328" lon="-5.015070">
        <ele>462.678</ele>
        <time>2021-10-16T12:10:50Z</time>
      </trkpt>
      <trkpt lat="39.458273" lon="-5.015368">
        <ele>462.912</ele>
        <time>2021-10-16T12:10:51Z</time>
      </trkpt>
      <trkpt lat="39.458240" lon="-5.015678">
        <ele>463.557</ele>
        <time>2021-10-16T12:10:52Z</time>
      </trkpt>
      <trkpt lat="39.458196" lon="-5.016321">
        <ele>466.796</ele>
        <time>2021-10-16T12:10:54Z</time>
      </trkpt>
      <trkpt lat="39.458151" lon="-5.016644">
        <ele>469.048</ele>
        <time>2021-10-16T12:10:55Z</time>
      </trkpt>
      <trkpt lat="39.458083" lon="-5.016965">
        <ele>471.025</ele>
        <time>2021-10-16T12:10:56Z</time>
      </trkpt>
      <trkpt lat="39.458011" lon="-5.017277">
        <ele>472.687</ele>
        <time>2021-10-16T12:10:57Z</time>
      </trkpt>
      <trkpt lat="39.457914" lon="-5.017873">
        <ele>476.842</ele>
        <time>2021-10-16T12:10:59Z</time>
      </trkpt>
      <trkpt lat="39.457919" lon="-5.018503">
        <ele>479.726</ele>
        <time>2021-10-16T12:11:01Z</time>
      </trkpt>
      <trkpt lat="39.457971" lon="-5.018830">
        <ele>481.808</ele>
        <time>2021-10-16T12:11:02Z</time>
      </trkpt>
      <trkpt lat="39.458136" lon="-5.019501">
        <ele>485.566</ele>
        <time>2021-10-16T12:11:04Z</time>
      </trkpt>
      <trkpt lat="39.458268" lon="-5.020155">
        <ele>489.114</ele>
        <time>2021-10-16T12:11:06Z</time>
      </trkpt>
      <trkpt lat="39.458298" lon="-5.020784">
        <ele>492.493</ele>
        <time>2021-10-16T12:11:08Z</time>
      </trkpt>
      <trkpt lat="39.458189" lon="-5.021392">
        <ele>497.497</ele>
        <time>2021-10-16T12:11:10Z</time>
      </trkpt>
      <trkpt lat="39.458083" lon="-5.021671">
        <ele>499.812</ele>
        <time>2021-10-16T12:11:11Z</time>
      </trkpt>
      <trkpt lat="39.457778" lon="-5.022156">
        <ele>502.841</ele>
        <time>2021-10-16T12:11:13Z</time>
      </trkpt>
      <trkpt lat="39.457585" lon="-5.022353">
        <ele>504.683</ele>
        <time>2021-10-16T12:11:14Z</time>
      </trkpt>
      <trkpt lat="39.457152" lon="-5.022629">
        <ele>509.040</ele>
        <time>2021-10-16T12:11:16Z</time>
      </trkpt>
      <trkpt lat="39.456914" lon="-5.022711">
        <ele>510.548</ele>
        <time>2021-10-16T12:11:17Z</time>
      </trkpt>
      <trkpt lat="39.456662" lon="-5.022755">
        <ele>511.861</ele>
        <time>2021-10-16T12:11:18Z</time>
      </trkpt>
      <trkpt lat="39.456146" lon="-5.022754">
        <ele>515.617</ele>
        <time>2021-10-16T12:11:20Z</time>
      </trkpt>
      <trkpt lat="39.455887" lon="-5.022713">
        <ele>517.108</ele>
        <time>2021-10-16T12:11:21Z</time>
      </trkpt>
      <trkpt lat="39.455378" lon="-5.022565">
        <ele>520.542</ele>
        <time>2021-10-16T12:11:23Z</time>
      </trkpt>
      <trkpt lat="39.455133" lon="-5.022449">
        <ele>522.470</ele>
        <time>2021-10-16T12:11:24Z</time>
      </trkpt>
      <trkpt lat="39.454907" lon="-5.022281">
        <ele>523.759</ele>
        <time>2021-10-16T12:11:25Z</time>
      </trkpt>
      <trkpt lat="39.454684" lon="-5.022111">
        <ele>526.233</ele>
        <time>2021-10-16T12:11:26Z</time>
      </trkpt>
      <trkpt lat="39.454228" lon="-5.021841">
        <ele>528.668</ele>
        <time>2021-10-16T12:11:28Z</time>
      </trkpt>
      <trkpt lat="39.453983" lon="-5.021737">
        <ele>529.767</ele>
        <time>2021-10-16T12:11:29Z</time>
      </trkpt>
      <trkpt lat="39.453487" lon="-5.021560">
        <ele>533.479</ele>
        <time>2021-10-16T12:11:31Z</time>
      </trkpt>
      <trkpt lat="39.453220" lon="-5.021475">
        <ele>535.396</ele>
        <time>2021-10-16T12:11:32Z</time>
      </trkpt>
      <trkpt lat="39.452687" lon="-5.021344">
        <ele>539.339</ele>
        <time>2021-10-16T12:11:34Z</time>
      </trkpt>
      <trkpt lat="39.452123" lon="-5.021213">
        <ele>541.801</ele>
        <time>2021-10-16T12:11:36Z</time>
      </trkpt>
      <trkpt lat="39.451586" lon="-5.021086">
        <ele>545.521</ele>
        <time>2021-10-16T12:11:38Z</time>
      </trkpt>
      <trkpt lat="39.451086" lon="-5.021010">
        <ele>548.708</ele>
        <time>2021-10-16T12:11:40Z</time>
      </trkpt>
      <trkpt lat="39.450849" lon="-5.021018">
        <ele>550.231</ele>
        <time>2021-10-16T12:11:41Z</time>
      </trkpt>
      <trkpt lat="39.450377" lon="-5.021163">
        <ele>554.189</ele>
        <time>2021-10-16T12:11:43Z</time>
      </trkpt>
      <trkpt lat="39.449987" lon="-5.021488">
        <ele>556.418</ele>
        <time>2021-10-16T12:11:45Z</time>
      </trkpt>
      <trkpt lat="39.449824" lon="-5.021670">
        <ele>557.782</ele>
        <time>2021-10-16T12:11:46Z</time>
      </trkpt>
      <trkpt lat="39.449519" lon="-5.021975">
        <ele>559.937</ele>
        <time>2021-10-16T12:11:48Z</time>
      </trkpt>
      <trkpt lat="39.449371" lon="-5.022076">
        <ele>561.566</ele>
        <time>2021-10-16T12:11:49Z</time>
      </trkpt>
      <trkpt lat="39.449084" lon="-5.022157">
        <ele>564.428</ele>
        <time>2021-10-16T12:11:51Z</time>
      </trkpt>
      <trkpt lat="39.448940" lon="-5.022103">
        <ele>565.285</ele>
        <time>2021-10-16T12:11:52Z</time>
      </trkpt>
      <trkpt lat="39.448619" lon="-5.021937">
        <ele>567.161</ele>
        <time>2021-10-16T12:11:54Z</time>
      </trkpt>
      <trkpt lat="39.448298" lon="-5.021821">
        <ele>568.921</ele>
        <time>2021-10-16T12:11:56Z</time>
      </trkpt>
      <trkpt lat="39.447985" lon="-5.021750">
        <ele>570.913</ele>
        <time>2021-10-16T12:11:58Z</time>
      </trkpt>
      <trkpt lat="39.447825" lon="-5.021725">
        <ele>572.108</ele>
        <time>2021-10-16T12:11:59Z</time>
      </trkpt>
      <trkpt lat="39.447540" lon="-5.021736">
        <ele>573.364</ele>
        <time>2021-10-16T12:12:01Z</time>
      </trkpt>
      <trkpt lat="39.447407" lon="-5.021786">
        <ele>573.592</ele>
        <time>2021-10-16T12:12:02Z</time>
      </trkpt>
      <trkpt lat="39.447192" lon="-5.021996">
        <ele>574.261</ele>
        <time>2021-10-16T12:12:04Z</time>
      </trkpt>
      <trkpt lat="39.447127" lon="-5.022167">
        <ele>574.185</ele>
        <time>2021-10-16T12:12:05Z</time>
      </trkpt>
      <trkpt lat="39.447093" lon="-5.022365">
        <ele>574.470</ele>
        <time>2021-10-16T12:12:06Z</time>
      </trkpt>
      <trkpt lat="39.447083" lon="-5.022591">
        <ele>574.849</ele>
        <time>2021-10-16T12:12:07Z</time>
      </trkpt>
      <trkpt lat="39.447111" lon="-5.023145">
        <ele>575.431</ele>
        <time>2021-10-16T12:12:09Z</time>
      </trkpt>
      <trkpt lat="39.447140" lon="-5.023682">
        <ele>576.628</ele>
        <time>2021-10-16T12:12:11Z</time>
      </trkpt>
      <trkpt lat="39.447163" lon="-5.024151">
        <ele>578.288</ele>
        <time>2021-10-16T12:12:13Z</time>
      </trkpt>
      <trkpt lat="39.447187" lon="-5.024561">
        <ele>580.624</ele>
        <time>2021-10-16T12:12:15Z</time>
      </trkpt>
      <trkpt lat="39.447213" lon="-5.024897">
        <ele>581.826</ele>
        <time>2021-10-16T12:12:17Z</time>
      </trkpt>
      <trkpt lat="39.447235" lon="-5.025173">
        <ele>582.908</ele>
        <time>2021-10-16T12:12:19Z</time>
      </trkpt>
      <trkpt lat="39.447246" lon="-5.025313">
        <ele>583.196</ele>
        <time>2021-10-16T12:12:20Z</time>
      </trkpt>
      <trkpt lat="39.447258" lon="-5.025449">
        <ele>583.654</ele>
        <time>2021-10-16T12:12:21Z</time>
      </trkpt>
      <trkpt lat="39.447277" lon="-5.025697">
        <ele>584.283</ele>
        <time>2021-10-16T12:12:23Z</time>
      </trkpt>
      <trkpt lat="39.447287" lon="-5.025828">
        <ele>585.087</ele>
        <time>2021-10-16T12:12:24Z</time>
      </trkpt>
      <trkpt lat="39.447297" lon="-5.025962">
        <ele>586.082</ele>
        <time>2021-10-16T12:12:25Z</time>
      </trkpt>
      <trkpt lat="39.447310" lon="-5.026102">
        <ele>586.111</ele>
        <time>2021-10-16T12:12:26Z</time>
      </trkpt>
      <trkpt lat="39.447335" lon="-5.026372">
        <ele>587.453</ele>
        <time>2021-10-16T12:12:28Z</time>
      </trkpt>
      <trkpt lat="39.447360" lon="-5.026644">
        <ele>587.390</ele>
        <time>2021-10-16T12:12:30Z</time>
      </trkpt>
      <trkpt lat="39.447375" lon="-5.026774">
        <ele>587.889</ele>
        <time>2021-10-16T12:12:31Z</time>
      </trkpt>
      <trkpt lat="39.447395" lon="-5.026900">
        <ele>587.506</ele>
        <time>2021-10-16T12:12:32Z</time>
      </trkpt>
      <trkpt lat="39.447442" lon="-5.027131">
        <ele>587.526</ele>
        <time>2021-10-16T12:12:34Z</time>
      </trkpt>
      <trkpt lat="39.447471" lon="-5.027241">
        <ele>587.608</ele>
        <time>2021-10-16T12:12:35Z</time>
      </trkpt>
      <trkpt lat="39.447503" lon="-5.027355">
        <ele>587.616</ele>
        <time>2021-10-16T12:12:36Z</time>
      </trkpt>
      <trkpt lat="39.447572" lon="-5.027582">
        <ele>588.744</ele>
        <time>2021-10-16T12:12:38Z</time>
      </trkpt>
      <trkpt lat="39.447641" lon="-5.027775">
        <ele>589.313</ele>
        <time>2021-10-16T12:12:40Z</time>
      </trkpt>
      <trkpt lat="39.447673" lon="-5.027867">
        <ele>589.127</ele>
        <time>2021-10-16T12:12:41Z</time>
      </trkpt>
      <trkpt lat="39.447738" lon="-5.028067">
        <ele>589.182</ele>
        <time>2021-10-16T12:12:43Z</time>
      </trkpt>
      <trkpt lat="39.447803" lon="-5.028308">
        <ele>588.381</ele>
        <time>2021-10-16T12:12:45Z</time>
      </trkpt>
      <trkpt lat="39.447827" lon="-5.028446">
        <ele>587.623</ele>
        <time>2021-10-16T12:12:46Z</time>
      </trkpt>
      <trkpt lat="39.447855" lon="-5.028751">
        <ele>587.110</ele>
        <time>2021-10-16T12:12:48Z</time>
      </trkpt>
      <trkpt lat="39.447851" lon="-5.028927">
        <ele>587.138</ele>
        <time>2021-10-16T12:12:49Z</time>
      </trkpt>
      <trkpt lat="39.447769" lon="-5.029330">
        <ele>585.570</ele>
        <time>2021-10-16T12:12:51Z</time>
      </trkpt>
      <trkpt lat="39.447578" lon="-5.029725">
        <ele>584.317</ele>
        <time>2021-10-16T12:12:53Z</time>
      </trkpt>
      <trkpt lat="39.447336" lon="-5.030091">
        <ele>584.308</ele>
        <time>2021-10-16T12:12:55Z</time>
      </trkpt>
      <trkpt lat="39.447209" lon="-5.030291">
        <ele>583.831</ele>
        <time>2021-10-16T12:12:56Z</time>
      </trkpt>
      <trkpt lat="39.446955" lon="-5.030704">
        <ele>584.219</ele>
        <time>2021-10-16T12:12:58Z</time>
      </trkpt>
      <trkpt lat="39.446828" lon="-5.030908">
        <ele>583.428</ele>
        <time>2021-10-16T12:12:59Z</time>
      </trkpt>
      <trkpt lat="39.446570" lon="-5.031313">
        <ele>582.762</ele>
        <time>2021-10-16T12:13:01Z</time>
      </trkpt>
      <trkpt lat="39.446294" lon="-5.031730">
        <ele>582.327</ele>
        <time>2021-10-16T12:13:03Z</time>
      </trkpt>
      <trkpt lat="39.446149" lon="-5.031942">
        <ele>581.726</ele>
        <time>2021-10-16T12:13:04Z</time>
      </trkpt>
      <trkpt lat="39.446006" lon="-5.032151">
        <ele>581.448</ele>
        <time>2021-10-16T12:13:05Z</time>
      </trkpt>
      <trkpt lat="39.445733" lon="-5.032543">
        <ele>580.345</ele>
        <time>2021-10-16T12:13:07Z</time>
      </trkpt>
      <trkpt lat="39.445484" lon="-5.032909">
        <ele>579.748</ele>
        <time>2021-10-16T12:13:09Z</time>
      </trkpt>
      <trkpt lat="39.445362" lon="-5.033089">
        <ele>579.761</ele>
        <time>2021-10-16T12:13:10Z</time>
      </trkpt>
      <trkpt lat="39.445237" lon="-5.033273">
        <ele>579.717</ele>
        <time>2021-10-16T12:13:11Z</time>
      </trkpt>
      <trkpt lat="39.444981" lon="-5.033649">
        <ele>578.608</ele>
        <time>2021-10-16T12:13:13Z</time>
      </trkpt>
      <trkpt lat="39.444854" lon="-5.033843">
        <ele>577.442</ele>
        <time>2021-10-16T12:13:14Z</time>
      </trkpt>
      <trkpt lat="39.444725" lon="-5.034037">
        <ele>576.590</ele>
        <time>2021-10-16T12:13:15Z</time>
      </trkpt>
      <trkpt lat="39.444590" lon="-5.034221">
        <ele>576.099</ele>
        <time>2021-10-16T12:13:16Z</time>
      </trkpt>
      <trkpt lat="39.444444" lon="-5.034396">
        <ele>575.973</ele>
        <time>2021-10-16T12:13:17Z</time>
      </trkpt>
      <trkpt lat="39.444106" lon="-5.034716">
        <ele>574.768</ele>
        <time>2021-10-16T12:13:19Z</time>
      </trkpt>
      <trkpt lat="39.443908" lon="-5.034864">
        <ele>573.597</ele>
        <time>2021-10-16T12:13:20Z</time>
      </trkpt>
      <trkpt lat="39.443693" lon="-5.035002">
        <ele>572.219</ele>
        <time>2021-10-16T12:13:21Z</time>
      </trkpt>
      <trkpt lat="39.443230" lon="-5.035267">
        <ele>569.636</ele>
        <time>2021-10-16T12:13:23Z</time>
      </trkpt>
      <trkpt lat="39.442740" lon="-5.035547">
        <ele>568.486</ele>
        <time>2021-10-16T12:13:25Z</time>
      </trkpt>
      <trkpt lat="39.442268" lon="-5.035817">
        <ele>566.960</ele>
        <time>2021-10-16T12:13:27Z</time>
      </trkpt>
      <trkpt lat="39.441841" lon="-5.036058">
        <ele>566.426</ele>
        <time>2021-10-16T12:13:29Z</time>
      </trkpt>
      <trkpt lat="39.441414" lon="-5.036304">
        <ele>566.908</ele>
        <time>2021-10-16T12:13:31Z</time>
      </trkpt>
      <trkpt lat="39.440986" lon="-5.036555">
        <ele>567.186</ele>
        <time>2021-10-16T12:13:33Z</time>
      </trkpt>
      <trkpt lat="39.440553" lon="-5.036805">
        <ele>567.984</ele>
        <time>2021-10-16T12:13:35Z</time>
      </trkpt>
      <trkpt lat="39.440124" lon="-5.037049">
        <ele>568.483</ele>
        <time>2021-10-16T12:13:37Z</time>
      </trkpt>
      <trkpt lat="39.439913" lon="-5.037172">
        <ele>568.477</ele>
        <time>2021-10-16T12:13:38Z</time>
      </trkpt>
      <trkpt lat="39.439495" lon="-5.037416">
        <ele>567.992</ele>
        <time>2021-10-16T12:13:40Z</time>
      </trkpt>
      <trkpt lat="39.439062" lon="-5.037662">
        <ele>566.311</ele>
        <time>2021-10-16T12:13:42Z</time>
      </trkpt>
      <trkpt lat="39.438613" lon="-5.037919">
        <ele>566.023</ele>
        <time>2021-10-16T12:13:44Z</time>
      </trkpt>
      <trkpt lat="39.438384" lon="-5.038049">
        <ele>566.040</ele>
        <time>2021-10-16T12:13:45Z</time>
      </trkpt>
      <trkpt lat="39.438155" lon="-5.038180">
        <ele>565.284</ele>
        <time>2021-10-16T12:13:46Z</time>
      </trkpt>
      <trkpt lat="39.437707" lon="-5.038437">
        <ele>564.207</ele>
        <time>2021-10-16T12:13:48Z</time>
      </trkpt>
      <trkpt lat="39.437276" lon="-5.038687">
        <ele>563.917</ele>
        <time>2021-10-16T12:13:50Z</time>
      </trkpt>
      <trkpt lat="39.436852" lon="-5.038939">
        <ele>563.208</ele>
        <time>2021-10-16T12:13:52Z</time>
      </trkpt>
      <trkpt lat="39.436638" lon="-5.039065">
        <ele>562.866</ele>
        <time>2021-10-16T12:13:53Z</time>
      </trkpt>
      <trkpt lat="39.436421" lon="-5.039188">
        <ele>562.854</ele>
        <time>2021-10-16T12:13:54Z</time>
      </trkpt>
      <trkpt lat="39.436199" lon="-5.039313">
        <ele>563.253</ele>
        <time>2021-10-16T12:13:55Z</time>
      </trkpt>
      <trkpt lat="39.435737" lon="-5.039573">
        <ele>562.617</ele>
        <time>2021-10-16T12:13:57Z</time>
      </trkpt>
      <trkpt lat="39.435263" lon="-5.039849">
        <ele>562.142</ele>
        <time>2021-10-16T12:13:59Z</time>
      </trkpt>
      <trkpt lat="39.434776" lon="-5.040137">
        <ele>561.651</ele>
        <time>2021-10-16T12:14:01Z</time>
      </trkpt>
      <trkpt lat="39.434283" lon="-5.040426">
        <ele>561.113</ele>
        <time>2021-10-16T12:14:03Z</time>
      </trkpt>
      <trkpt lat="39.433802" lon="-5.040709">
        <ele>560.710</ele>
        <time>2021-10-16T12:14:05Z</time>
      </trkpt>
      <trkpt lat="39.433574" lon="-5.040843">
        <ele>560.097</ele>
        <time>2021-10-16T12:14:06Z</time>
      </trkpt>
      <trkpt lat="39.433143" lon="-5.041098">
        <ele>559.223</ele>
        <time>2021-10-16T12:14:08Z</time>
      </trkpt>
      <trkpt lat="39.432935" lon="-5.041222">
        <ele>558.325</ele>
        <time>2021-10-16T12:14:09Z</time>
      </trkpt>
      <trkpt lat="39.432527" lon="-5.041455">
        <ele>557.408</ele>
        <time>2021-10-16T12:14:11Z</time>
      </trkpt>
      <trkpt lat="39.432112" lon="-5.041694">
        <ele>556.237</ele>
        <time>2021-10-16T12:14:13Z</time>
      </trkpt>
      <trkpt lat="39.431682" lon="-5.041942">
        <ele>556.055</ele>
        <time>2021-10-16T12:14:15Z</time>
      </trkpt>
      <trkpt lat="39.431237" lon="-5.042193">
        <ele>554.734</ele>
        <time>2021-10-16T12:14:17Z</time>
      </trkpt>
      <trkpt lat="39.430782" lon="-5.042459">
        <ele>553.798</ele>
        <time>2021-10-16T12:14:19Z</time>
      </trkpt>
      <trkpt lat="39.430543" lon="-5.042599">
        <ele>552.663</ele>
        <time>2021-10-16T12:14:20Z</time>
      </trkpt>
      <trkpt lat="39.430057" lon="-5.042883">
        <ele>551.892</ele>
        <time>2021-10-16T12:14:22Z</time>
      </trkpt>
      <trkpt lat="39.429805" lon="-5.043030">
        <ele>551.274</ele>
        <time>2021-10-16T12:14:23Z</time>
      </trkpt>
      <trkpt lat="39.429311" lon="-5.043304">
        <ele>550.881</ele>
        <time>2021-10-16T12:14:25Z</time>
      </trkpt>
      <trkpt lat="39.429071" lon="-5.043428">
        <ele>550.443</ele>
        <time>2021-10-16T12:14:26Z</time>
      </trkpt>
      <trkpt lat="39.428612" lon="-5.043610">
        <ele>549.564</ele>
        <time>2021-10-16T12:14:28Z</time>
      </trkpt>
      <trkpt lat="39.428387" lon="-5.043671">
        <ele>549.810</ele>
        <time>2021-10-16T12:14:29Z</time>
      </trkpt>
      <trkpt lat="39.428158" lon="-5.043704">
        <ele>549.708</ele>
        <time>2021-10-16T12:14:30Z</time>
      </trkpt>
      <trkpt lat="39.427925" lon="-5.043713">
        <ele>549.072</ele>
        <time>2021-10-16T12:14:31Z</time>
      </trkpt>
      <trkpt lat="39.427456" lon="-5.043712">
        <ele>548.320</ele>
        <time>2021-10-16T12:14:33Z</time>
      </trkpt>
      <trkpt lat="39.427218" lon="-5.043717">
        <ele>548.329</ele>
        <time>2021-10-16T12:14:34Z</time>
      </trkpt>
      <trkpt lat="39.426976" lon="-5.043723">
        <ele>547.573</ele>
        <time>2021-10-16T12:14:35Z</time>
      </trkpt>
      <trkpt lat="39.426495" lon="-5.043732">
        <ele>546.458</ele>
        <time>2021-10-16T12:14:37Z</time>
      </trkpt>
      <trkpt lat="39.426010" lon="-5.043746">
        <ele>544.447</ele>
        <time>2021-10-16T12:14:39Z</time>
      </trkpt>
      <trkpt lat="39.425766" lon="-5.043753">
        <ele>544.219</ele>
        <time>2021-10-16T12:14:40Z</time>
      </trkpt>
      <trkpt lat="39.425277" lon="-5.043766">
        <ele>543.216</ele>
        <time>2021-10-16T12:14:42Z</time>
      </trkpt>
      <trkpt lat="39.425027" lon="-5.043768">
        <ele>542.434</ele>
        <time>2021-10-16T12:14:43Z</time>
      </trkpt>
      <trkpt lat="39.424513" lon="-5.043778">
        <ele>540.355</ele>
        <time>2021-10-16T12:14:45Z</time>
      </trkpt>
      <trkpt lat="39.423979" lon="-5.043784">
        <ele>539.310</ele>
        <time>2021-10-16T12:14:47Z</time>
      </trkpt>
      <trkpt lat="39.423709" lon="-5.043788">
        <ele>538.208</ele>
        <time>2021-10-16T12:14:48Z</time>
      </trkpt>
      <trkpt lat="39.423436" lon="-5.043797">
        <ele>537.261</ele>
        <time>2021-10-16T12:14:49Z</time>
      </trkpt>
      <trkpt lat="39.422885" lon="-5.043808">
        <ele>535.229</ele>
        <time>2021-10-16T12:14:51Z</time>
      </trkpt>
      <trkpt lat="39.422342" lon="-5.043817">
        <ele>535.168</ele>
        <time>2021-10-16T12:14:53Z</time>
      </trkpt>
      <trkpt lat="39.422088" lon="-5.043827">
        <ele>534.662</ele>
        <time>2021-10-16T12:14:54Z</time>
      </trkpt>
      <trkpt lat="39.421610" lon="-5.043838">
        <ele>534.667</ele>
        <time>2021-10-16T12:14:56Z</time>
      </trkpt>
      <trkpt lat="39.421177" lon="-5.043849">
        <ele>533.836</ele>
        <time>2021-10-16T12:14:58Z</time>
      </trkpt>
      <trkpt lat="39.420957" lon="-5.043856">
        <ele>533.948</ele>
        <time>2021-10-16T12:14:59Z</time>
      </trkpt>
      <trkpt lat="39.420739" lon="-5.043862">
        <ele>533.995</ele>
        <time>2021-10-16T12:15:00Z</time>
      </trkpt>
      <trkpt lat="39.420522" lon="-5.043870">
        <ele>534.062</ele>
        <time>2021-10-16T12:15:01Z</time>
      </trkpt>
      <trkpt lat="39.420300" lon="-5.043873">
        <ele>534.083</ele>
        <time>2021-10-16T12:15:02Z</time>
      </trkpt>
      <trkpt lat="39.420075" lon="-5.043876">
        <ele>533.411</ele>
        <time>2021-10-16T12:15:03Z</time>
      </trkpt>
      <trkpt lat="39.419845" lon="-5.043879">
        <ele>532.608</ele>
        <time>2021-10-16T12:15:04Z</time>
      </trkpt>
      <trkpt lat="39.419375" lon="-5.043890">
        <ele>531.764</ele>
        <time>2021-10-16T12:15:06Z</time>
      </trkpt>
      <trkpt lat="39.418896" lon="-5.043899">
        <ele>530.612</ele>
        <time>2021-10-16T12:15:08Z</time>
      </trkpt>
      <trkpt lat="39.418406" lon="-5.043906">
        <ele>529.421</ele>
        <time>2021-10-16T12:15:10Z</time>
      </trkpt>
      <trkpt lat="39.418158" lon="-5.043914">
        <ele>528.735</ele>
        <time>2021-10-16T12:15:11Z</time>
      </trkpt>
      <trkpt lat="39.417657" lon="-5.043930">
        <ele>526.890</ele>
        <time>2021-10-16T12:15:13Z</time>
      </trkpt>
      <trkpt lat="39.417403" lon="-5.043933">
        <ele>526.739</ele>
        <time>2021-10-16T12:15:14Z</time>
      </trkpt>
      <trkpt lat="39.417150" lon="-5.043939">
        <ele>526.421</ele>
        <time>2021-10-16T12:15:15Z</time>
      </trkpt>
      <trkpt lat="39.416643" lon="-5.043945">
        <ele>526.568</ele>
        <time>2021-10-16T12:15:17Z</time>
      </trkpt>
      <trkpt lat="39.416388" lon="-5.043949">
        <ele>525.927</ele>
        <time>2021-10-16T12:15:18Z</time>
      </trkpt>
      <trkpt lat="39.415881" lon="-5.043958">
        <ele>525.768</ele>
        <time>2021-10-16T12:15:20Z</time>
      </trkpt>
      <trkpt lat="39.415397" lon="-5.043968">
        <ele>525.614</ele>
        <time>2021-10-16T12:15:22Z</time>
      </trkpt>
      <trkpt lat="39.415156" lon="-5.043972">
        <ele>525.208</ele>
        <time>2021-10-16T12:15:23Z</time>
      </trkpt>
      <trkpt lat="39.414914" lon="-5.043975">
        <ele>524.740</ele>
        <time>2021-10-16T12:15:24Z</time>
      </trkpt>
      <trkpt lat="39.414675" lon="-5.043976">
        <ele>524.028</ele>
        <time>2021-10-16T12:15:25Z</time>
      </trkpt>
      <trkpt lat="39.414435" lon="-5.043969">
        <ele>523.657</ele>
        <time>2021-10-16T12:15:26Z</time>
      </trkpt>
      <trkpt lat="39.413962" lon="-5.043906">
        <ele>523.121</ele>
        <time>2021-10-16T12:15:28Z</time>
      </trkpt>
      <trkpt lat="39.413723" lon="-5.043844">
        <ele>522.676</ele>
        <time>2021-10-16T12:15:29Z</time>
      </trkpt>
      <trkpt lat="39.413481" lon="-5.043760">
        <ele>522.025</ele>
        <time>2021-10-16T12:15:30Z</time>
      </trkpt>
      <trkpt lat="39.412998" lon="-5.043558">
        <ele>520.917</ele>
        <time>2021-10-16T12:15:32Z</time>
      </trkpt>
      <trkpt lat="39.412513" lon="-5.043360">
        <ele>519.844</ele>
        <time>2021-10-16T12:15:34Z</time>
      </trkpt>
      <trkpt lat="39.412266" lon="-5.043259">
        <ele>519.838</ele>
        <time>2021-10-16T12:15:35Z</time>
      </trkpt>
      <trkpt lat="39.411754" lon="-5.043048">
        <ele>519.170</ele>
        <time>2021-10-16T12:15:37Z</time>
      </trkpt>
      <trkpt lat="39.411486" lon="-5.042941">
        <ele>517.917</ele>
        <time>2021-10-16T12:15:38Z</time>
      </trkpt>
      <trkpt lat="39.410935" lon="-5.042718">
        <ele>515.808</ele>
        <time>2021-10-16T12:15:40Z</time>
      </trkpt>
      <trkpt lat="39.410369" lon="-5.042499">
        <ele>513.871</ele>
        <time>2021-10-16T12:15:42Z</time>
      </trkpt>
      <trkpt lat="39.409807" lon="-5.042333">
        <ele>514.179</ele>
        <time>2021-10-16T12:15:44Z</time>
      </trkpt>
      <trkpt lat="39.409528" lon="-5.042284">
        <ele>514.058</ele>
        <time>2021-10-16T12:15:45Z</time>
      </trkpt>
      <trkpt lat="39.409248" lon="-5.042263">
        <ele>515.022</ele>
        <time>2021-10-16T12:15:46Z</time>
      </trkpt>
      <trkpt lat="39.408970" lon="-5.042269">
        <ele>515.567</ele>
        <time>2021-10-16T12:15:47Z</time>
      </trkpt>
      <trkpt lat="39.408694" lon="-5.042295">
        <ele>515.946</ele>
        <time>2021-10-16T12:15:48Z</time>
      </trkpt>
      <trkpt lat="39.408152" lon="-5.042369">
        <ele>517.148</ele>
        <time>2021-10-16T12:15:50Z</time>
      </trkpt>
      <trkpt lat="39.407881" lon="-5.042406">
        <ele>517.395</ele>
        <time>2021-10-16T12:15:51Z</time>
      </trkpt>
      <trkpt lat="39.407344" lon="-5.042486">
        <ele>516.665</ele>
        <time>2021-10-16T12:15:53Z</time>
      </trkpt>
      <trkpt lat="39.407074" lon="-5.042522">
        <ele>516.468</ele>
        <time>2021-10-16T12:15:54Z</time>
      </trkpt>
      <trkpt lat="39.406531" lon="-5.042595">
        <ele>515.714</ele>
        <time>2021-10-16T12:15:56Z</time>
      </trkpt>
      <trkpt lat="39.406261" lon="-5.042636">
        <ele>515.308</ele>
        <time>2021-10-16T12:15:57Z</time>
      </trkpt>
      <trkpt lat="39.405712" lon="-5.042714">
        <ele>514.534</ele>
        <time>2021-10-16T12:15:59Z</time>
      </trkpt>
      <trkpt lat="39.405433" lon="-5.042748">
        <ele>514.052</ele>
        <time>2021-10-16T12:16:00Z</time>
      </trkpt>
      <trkpt lat="39.404881" lon="-5.042818">
        <ele>512.671</ele>
        <time>2021-10-16T12:16:02Z</time>
      </trkpt>
      <trkpt lat="39.404623" lon="-5.042854">
        <ele>511.985</ele>
        <time>2021-10-16T12:16:03Z</time>
      </trkpt>
      <trkpt lat="39.404373" lon="-5.042896">
        <ele>511.530</ele>
        <time>2021-10-16T12:16:04Z</time>
      </trkpt>
      <trkpt lat="39.403877" lon="-5.043025">
        <ele>510.149</ele>
        <time>2021-10-16T12:16:06Z</time>
      </trkpt>
      <trkpt lat="39.403381" lon="-5.043238">
        <ele>508.951</ele>
        <time>2021-10-16T12:16:08Z</time>
      </trkpt>
      <trkpt lat="39.403130" lon="-5.043363">
        <ele>508.368</ele>
        <time>2021-10-16T12:16:09Z</time>
      </trkpt>
      <trkpt lat="39.402612" lon="-5.043616">
        <ele>507.665</ele>
        <time>2021-10-16T12:16:11Z</time>
      </trkpt>
      <trkpt lat="39.402347" lon="-5.043744">
        <ele>507.168</ele>
        <time>2021-10-16T12:16:12Z</time>
      </trkpt>
      <trkpt lat="39.401811" lon="-5.044005">
        <ele>505.814</ele>
        <time>2021-10-16T12:16:14Z</time>
      </trkpt>
      <trkpt lat="39.401287" lon="-5.044259">
        <ele>505.608</ele>
        <time>2021-10-16T12:16:16Z</time>
      </trkpt>
      <trkpt lat="39.401035" lon="-5.044382">
        <ele>505.734</ele>
        <time>2021-10-16T12:16:17Z</time>
      </trkpt>
      <trkpt lat="39.400565" lon="-5.044609">
        <ele>505.452</ele>
        <time>2021-10-16T12:16:19Z</time>
      </trkpt>
      <trkpt lat="39.400126" lon="-5.044795">
        <ele>506.891</ele>
        <time>2021-10-16T12:16:21Z</time>
      </trkpt>
      <trkpt lat="39.399685" lon="-5.044885">
        <ele>508.855</ele>
        <time>2021-10-16T12:16:23Z</time>
      </trkpt>
      <trkpt lat="39.399243" lon="-5.044850">
        <ele>510.170</ele>
        <time>2021-10-16T12:16:25Z</time>
      </trkpt>
      <trkpt lat="39.398785" lon="-5.044748">
        <ele>510.319</ele>
        <time>2021-10-16T12:16:27Z</time>
      </trkpt>
      <trkpt lat="39.398550" lon="-5.044704">
        <ele>510.661</ele>
        <time>2021-10-16T12:16:28Z</time>
      </trkpt>
      <trkpt lat="39.398086" lon="-5.044618">
        <ele>510.478</ele>
        <time>2021-10-16T12:16:30Z</time>
      </trkpt>
      <trkpt lat="39.397857" lon="-5.044570">
        <ele>510.053</ele>
        <time>2021-10-16T12:16:31Z</time>
      </trkpt>
      <trkpt lat="39.397431" lon="-5.044458">
        <ele>508.804</ele>
        <time>2021-10-16T12:16:33Z</time>
      </trkpt>
      <trkpt lat="39.397017" lon="-5.044263">
        <ele>508.714</ele>
        <time>2021-10-16T12:16:35Z</time>
      </trkpt>
      <trkpt lat="39.396819" lon="-5.044109">
        <ele>508.708</ele>
        <time>2021-10-16T12:16:36Z</time>
      </trkpt>
      <trkpt lat="39.396476" lon="-5.043679">
        <ele>508.383</ele>
        <time>2021-10-16T12:16:38Z</time>
      </trkpt>
      <trkpt lat="39.396330" lon="-5.043412">
        <ele>507.541</ele>
        <time>2021-10-16T12:16:39Z</time>
      </trkpt>
      <trkpt lat="39.396198" lon="-5.043122">
        <ele>507.240</ele>
        <time>2021-10-16T12:16:40Z</time>
      </trkpt>
      <trkpt lat="39.395936" lon="-5.042520">
        <ele>507.014</ele>
        <time>2021-10-16T12:16:42Z</time>
      </trkpt>
      <trkpt lat="39.395799" lon="-5.042209">
        <ele>507.779</ele>
        <time>2021-10-16T12:16:43Z</time>
      </trkpt>
      <trkpt lat="39.395660" lon="-5.041898">
        <ele>508.448</ele>
        <time>2021-10-16T12:16:44Z</time>
      </trkpt>
      <trkpt lat="39.395522" lon="-5.041590">
        <ele>508.430</ele>
        <time>2021-10-16T12:16:45Z</time>
      </trkpt>
      <trkpt lat="39.395253" lon="-5.040985">
        <ele>507.747</ele>
        <time>2021-10-16T12:16:47Z</time>
      </trkpt>
      <trkpt lat="39.395120" lon="-5.040693">
        <ele>507.224</ele>
        <time>2021-10-16T12:16:48Z</time>
      </trkpt>
      <trkpt lat="39.394990" lon="-5.040407">
        <ele>505.504</ele>
        <time>2021-10-16T12:16:49Z</time>
      </trkpt>
      <trkpt lat="39.394859" lon="-5.040126">
        <ele>504.114</ele>
        <time>2021-10-16T12:16:50Z</time>
      </trkpt>
      <trkpt lat="39.394572" lon="-5.039582">
        <ele>502.108</ele>
        <time>2021-10-16T12:16:52Z</time>
      </trkpt>
      <trkpt lat="39.394228" lon="-5.039080">
        <ele>498.350</ele>
        <time>2021-10-16T12:16:54Z</time>
      </trkpt>
      <trkpt lat="39.393857" lon="-5.038591">
        <ele>494.918</ele>
        <time>2021-10-16T12:16:56Z</time>
      </trkpt>
      <trkpt lat="39.393530" lon="-5.038085">
        <ele>492.857</ele>
        <time>2021-10-16T12:16:58Z</time>
      </trkpt>
      <trkpt lat="39.393382" lon="-5.037802">
        <ele>491.321</ele>
        <time>2021-10-16T12:16:59Z</time>
      </trkpt>
      <trkpt lat="39.393253" lon="-5.037512">
        <ele>489.656</ele>
        <time>2021-10-16T12:17:00Z</time>
      </trkpt>
      <trkpt lat="39.393039" lon="-5.036927">
        <ele>487.515</ele>
        <time>2021-10-16T12:17:02Z</time>
      </trkpt>
      <trkpt lat="39.392847" lon="-5.036372">
        <ele>485.067</ele>
        <time>2021-10-16T12:17:04Z</time>
      </trkpt>
      <trkpt lat="39.392695" lon="-5.035805">
        <ele>482.694</ele>
        <time>2021-10-16T12:17:06Z</time>
      </trkpt>
      <trkpt lat="39.392580" lon="-5.035221">
        <ele>479.851</ele>
        <time>2021-10-16T12:17:08Z</time>
      </trkpt>
      <trkpt lat="39.392461" lon="-5.034630">
        <ele>477.301</ele>
        <time>2021-10-16T12:17:10Z</time>
      </trkpt>
      <trkpt lat="39.392382" lon="-5.034331">
        <ele>476.311</ele>
        <time>2021-10-16T12:17:11Z</time>
      </trkpt>
      <trkpt lat="39.392280" lon="-5.034041">
        <ele>475.108</ele>
        <time>2021-10-16T12:17:12Z</time>
      </trkpt>
      <trkpt lat="39.391993" lon="-5.033492">
        <ele>473.013</ele>
        <time>2021-10-16T12:17:14Z</time>
      </trkpt>
      <trkpt lat="39.391810" lon="-5.033229">
        <ele>471.861</ele>
        <time>2021-10-16T12:17:15Z</time>
      </trkpt>
      <trkpt lat="39.391616" lon="-5.032972">
        <ele>470.060</ele>
        <time>2021-10-16T12:17:16Z</time>
      </trkpt>
      <trkpt lat="39.391217" lon="-5.032448">
        <ele>467.944</ele>
        <time>2021-10-16T12:17:18Z</time>
      </trkpt>
      <trkpt lat="39.390811" lon="-5.031904">
        <ele>465.159</ele>
        <time>2021-10-16T12:17:20Z</time>
      </trkpt>
      <trkpt lat="39.390391" lon="-5.031354">
        <ele>461.388</ele>
        <time>2021-10-16T12:17:22Z</time>
      </trkpt>
      <trkpt lat="39.390182" lon="-5.031077">
        <ele>459.610</ele>
        <time>2021-10-16T12:17:23Z</time>
      </trkpt>
      <trkpt lat="39.389973" lon="-5.030794">
        <ele>458.897</ele>
        <time>2021-10-16T12:17:24Z</time>
      </trkpt>
      <trkpt lat="39.389552" lon="-5.030218">
        <ele>456.483</ele>
        <time>2021-10-16T12:17:26Z</time>
      </trkpt>
      <trkpt lat="39.389168" lon="-5.029643">
        <ele>454.525</ele>
        <time>2021-10-16T12:17:28Z</time>
      </trkpt>
      <trkpt lat="39.388987" lon="-5.029344">
        <ele>453.317</ele>
        <time>2021-10-16T12:17:29Z</time>
      </trkpt>
      <trkpt lat="39.388818" lon="-5.029051">
        <ele>452.308</ele>
        <time>2021-10-16T12:17:30Z</time>
      </trkpt>
      <trkpt lat="39.388664" lon="-5.028763">
        <ele>452.186</ele>
        <time>2021-10-16T12:17:31Z</time>
      </trkpt>
      <trkpt lat="39.388387" lon="-5.028193">
        <ele>449.964</ele>
        <time>2021-10-16T12:17:33Z</time>
      </trkpt>
      <trkpt lat="39.388128" lon="-5.027615">
        <ele>448.613</ele>
        <time>2021-10-16T12:17:35Z</time>
      </trkpt>
      <trkpt lat="39.387999" lon="-5.027328">
        <ele>448.187</ele>
        <time>2021-10-16T12:17:36Z</time>
      </trkpt>
      <trkpt lat="39.387750" lon="-5.026749">
        <ele>446.462</ele>
        <time>2021-10-16T12:17:38Z</time>
      </trkpt>
      <trkpt lat="39.387512" lon="-5.026189">
        <ele>444.751</ele>
        <time>2021-10-16T12:17:40Z</time>
      </trkpt>
      <trkpt lat="39.387395" lon="-5.025921">
        <ele>444.653</ele>
        <time>2021-10-16T12:17:41Z</time>
      </trkpt>
      <trkpt lat="39.387161" lon="-5.025384">
        <ele>441.410</ele>
        <time>2021-10-16T12:17:43Z</time>
      </trkpt>
      <trkpt lat="39.387038" lon="-5.025106">
        <ele>440.813</ele>
        <time>2021-10-16T12:17:44Z</time>
      </trkpt>
      <trkpt lat="39.386776" lon="-5.024585">
        <ele>439.243</ele>
        <time>2021-10-16T12:17:46Z</time>
      </trkpt>
      <trkpt lat="39.386461" lon="-5.024113">
        <ele>437.507</ele>
        <time>2021-10-16T12:17:48Z</time>
      </trkpt>
      <trkpt lat="39.386098" lon="-5.023711">
        <ele>435.508</ele>
        <time>2021-10-16T12:17:50Z</time>
      </trkpt>
      <trkpt lat="39.385691" lon="-5.023423">
        <ele>432.999</ele>
        <time>2021-10-16T12:17:52Z</time>
      </trkpt>
      <trkpt lat="39.385267" lon="-5.023235">
        <ele>430.257</ele>
        <time>2021-10-16T12:17:54Z</time>
      </trkpt>
      <trkpt lat="39.384826" lon="-5.023126">
        <ele>427.626</ele>
        <time>2021-10-16T12:17:56Z</time>
      </trkpt>
      <trkpt lat="39.384603" lon="-5.023093">
        <ele>425.910</ele>
        <time>2021-10-16T12:17:57Z</time>
      </trkpt>
      <trkpt lat="39.384381" lon="-5.023068">
        <ele>423.855</ele>
        <time>2021-10-16T12:17:58Z</time>
      </trkpt>
      <trkpt lat="39.383955" lon="-5.022997">
        <ele>421.964</ele>
        <time>2021-10-16T12:18:00Z</time>
      </trkpt>
      <trkpt lat="39.383533" lon="-5.022861">
        <ele>419.446</ele>
        <time>2021-10-16T12:18:02Z</time>
      </trkpt>
      <trkpt lat="39.383116" lon="-5.022649">
        <ele>417.283</ele>
        <time>2021-10-16T12:18:04Z</time>
      </trkpt>
      <trkpt lat="39.382913" lon="-5.022516">
        <ele>416.513</ele>
        <time>2021-10-16T12:18:05Z</time>
      </trkpt>
      <trkpt lat="39.382532" lon="-5.022226">
        <ele>414.643</ele>
        <time>2021-10-16T12:18:07Z</time>
      </trkpt>
      <trkpt lat="39.382346" lon="-5.022076">
        <ele>413.907</ele>
        <time>2021-10-16T12:18:08Z</time>
      </trkpt>
      <trkpt lat="39.381990" lon="-5.021791">
        <ele>411.608</ele>
        <time>2021-10-16T12:18:10Z</time>
      </trkpt>
      <trkpt lat="39.381658" lon="-5.021469">
        <ele>409.459</ele>
        <time>2021-10-16T12:18:12Z</time>
      </trkpt>
      <trkpt lat="39.381506" lon="-5.021277">
        <ele>407.417</ele>
        <time>2021-10-16T12:18:13Z</time>
      </trkpt>
      <trkpt lat="39.381369" lon="-5.021069">
        <ele>405.996</ele>
        <time>2021-10-16T12:18:14Z</time>
      </trkpt>
      <trkpt lat="39.381239" lon="-5.020854">
        <ele>404.440</ele>
        <time>2021-10-16T12:18:15Z</time>
      </trkpt>
      <trkpt lat="39.381114" lon="-5.020638">
        <ele>402.885</ele>
        <time>2021-10-16T12:18:16Z</time>
      </trkpt>
      <trkpt lat="39.380994" lon="-5.020425">
        <ele>401.524</ele>
        <time>2021-10-16T12:18:17Z</time>
      </trkpt>
      <trkpt lat="39.380754" lon="-5.020014">
        <ele>399.266</ele>
        <time>2021-10-16T12:18:19Z</time>
      </trkpt>
      <trkpt lat="39.380473" lon="-5.019614">
        <ele>397.643</ele>
        <time>2021-10-16T12:18:21Z</time>
      </trkpt>
      <trkpt lat="39.380152" lon="-5.019251">
        <ele>395.139</ele>
        <time>2021-10-16T12:18:23Z</time>
      </trkpt>
      <trkpt lat="39.379981" lon="-5.019101">
        <ele>394.201</ele>
        <time>2021-10-16T12:18:24Z</time>
      </trkpt>
      <trkpt lat="39.379607" lon="-5.018830">
        <ele>392.921</ele>
        <time>2021-10-16T12:18:26Z</time>
      </trkpt>
      <trkpt lat="39.379183" lon="-5.018582">
        <ele>393.208</ele>
        <time>2021-10-16T12:18:28Z</time>
      </trkpt>
      <trkpt lat="39.378737" lon="-5.018361">
        <ele>394.191</ele>
        <time>2021-10-16T12:18:30Z</time>
      </trkpt>
      <trkpt lat="39.378330" lon="-5.018156">
        <ele>394.449</ele>
        <time>2021-10-16T12:18:32Z</time>
      </trkpt>
      <trkpt lat="39.378131" lon="-5.018055">
        <ele>394.798</ele>
        <time>2021-10-16T12:18:33Z</time>
      </trkpt>
      <trkpt lat="39.377934" lon="-5.017955">
        <ele>394.952</ele>
        <time>2021-10-16T12:18:34Z</time>
      </trkpt>
      <trkpt lat="39.377538" lon="-5.017755">
        <ele>393.987</ele>
        <time>2021-10-16T12:18:36Z</time>
      </trkpt>
      <trkpt lat="39.377332" lon="-5.017666">
        <ele>394.016</ele>
        <time>2021-10-16T12:18:37Z</time>
      </trkpt>
      <trkpt lat="39.377122" lon="-5.017587">
        <ele>393.888</ele>
        <time>2021-10-16T12:18:38Z</time>
      </trkpt>
      <trkpt lat="39.376690" lon="-5.017448">
        <ele>392.225</ele>
        <time>2021-10-16T12:18:40Z</time>
      </trkpt>
      <trkpt lat="39.376467" lon="-5.017391">
        <ele>391.769</ele>
        <time>2021-10-16T12:18:41Z</time>
      </trkpt>
      <trkpt lat="39.376017" lon="-5.017307">
        <ele>391.704</ele>
        <time>2021-10-16T12:18:43Z</time>
      </trkpt>
      <trkpt lat="39.375806" lon="-5.017281">
        <ele>391.724</ele>
        <time>2021-10-16T12:18:44Z</time>
      </trkpt>
      <trkpt lat="39.375417" lon="-5.017248">
        <ele>391.908</ele>
        <time>2021-10-16T12:18:46Z</time>
      </trkpt>
      <trkpt lat="39.375087" lon="-5.017236">
        <ele>391.494</ele>
        <time>2021-10-16T12:18:48Z</time>
      </trkpt>
      <trkpt lat="39.374819" lon="-5.017244">
        <ele>390.412</ele>
        <time>2021-10-16T12:18:50Z</time>
      </trkpt>
      <trkpt lat="39.374578" lon="-5.017256">
        <ele>389.661</ele>
        <time>2021-10-16T12:18:52Z</time>
      </trkpt>
      <trkpt lat="39.374467" lon="-5.017253">
        <ele>389.465</ele>
        <time>2021-10-16T12:18:53Z</time>
      </trkpt>
      <trkpt lat="39.374283" lon="-5.017202">
        <ele>388.890</ele>
        <time>2021-10-16T12:18:55Z</time>
      </trkpt>
      <trkpt lat="39.374138" lon="-5.017185">
        <ele>388.629</ele>
        <time>2021-10-16T12:18:57Z</time>
      </trkpt>
      <trkpt lat="39.374016" lon="-5.017242">
        <ele>388.081</ele>
        <time>2021-10-16T12:18:59Z</time>
      </trkpt>
      <trkpt lat="39.373970" lon="-5.017300">
        <ele>387.578</ele>
        <time>2021-10-16T12:19:00Z</time>
      </trkpt>
      <trkpt lat="39.373914" lon="-5.017424">
        <ele>386.276</ele>
        <time>2021-10-16T12:19:02Z</time>
      </trkpt>
      <trkpt lat="39.373885" lon="-5.017477">
        <ele>386.290</ele>
        <time>2021-10-16T12:19:03Z</time>
      </trkpt>
      <trkpt lat="39.373850" lon="-5.017529">
        <ele>386.219</ele>
        <time>2021-10-16T12:19:04Z</time>
      </trkpt>
      <trkpt lat="39.373766" lon="-5.017643">
        <ele>385.608</ele>
        <time>2021-10-16T12:19:06Z</time>
      </trkpt>
      <trkpt lat="39.373723" lon="-5.017701">
        <ele>384.885</ele>
        <time>2021-10-16T12:19:07Z</time>
      </trkpt>
      <trkpt lat="39.373683" lon="-5.017762">
        <ele>384.623</ele>
        <time>2021-10-16T12:19:08Z</time>
      </trkpt>
      <trkpt lat="39.373605" lon="-5.017900">
        <ele>383.772</ele>
        <time>2021-10-16T12:19:10Z</time>
      </trkpt>
      <trkpt lat="39.373558" lon="-5.017989">
        <ele>383.796</ele>
        <time>2021-10-16T12:19:11Z</time>
      </trkpt>
      <trkpt lat="39.373508" lon="-5.018090">
        <ele>383.891</ele>
        <time>2021-10-16T12:19:12Z</time>
      </trkpt>
      <trkpt lat="39.373411" lon="-5.018316">
        <ele>382.530</ele>
        <time>2021-10-16T12:19:14Z</time>
      </trkpt>
      <trkpt lat="39.373308" lon="-5.018572">
        <ele>380.162</ele>
        <time>2021-10-16T12:19:16Z</time>
      </trkpt>
      <trkpt lat="39.373260" lon="-5.018711">
        <ele>379.779</ele>
        <time>2021-10-16T12:19:17Z</time>
      </trkpt>
      <trkpt lat="39.373217" lon="-5.018854">
        <ele>378.636</ele>
        <time>2021-10-16T12:19:18Z</time>
      </trkpt>
      <trkpt lat="39.373183" lon="-5.019001">
        <ele>377.717</ele>
        <time>2021-10-16T12:19:19Z</time>
      </trkpt>
      <trkpt lat="39.373162" lon="-5.019154">
        <ele>376.618</ele>
        <time>2021-10-16T12:19:20Z</time>
      </trkpt>
      <trkpt lat="39.373159" lon="-5.019307">
        <ele>375.008</ele>
        <time>2021-10-16T12:19:21Z</time>
      </trkpt>
      <trkpt lat="39.373201" lon="-5.019597">
        <ele>372.641</ele>
        <time>2021-10-16T12:19:23Z</time>
      </trkpt>
      <trkpt lat="39.373243" lon="-5.019742">
        <ele>370.679</ele>
        <time>2021-10-16T12:19:24Z</time>
      </trkpt>
      <trkpt lat="39.373294" lon="-5.019892">
        <ele>369.798</ele>
        <time>2021-10-16T12:19:25Z</time>
      </trkpt>
      <trkpt lat="39.373419" lon="-5.020236">
        <ele>365.672</ele>
        <time>2021-10-16T12:19:27Z</time>
      </trkpt>
      <trkpt lat="39.373547" lon="-5.020624">
        <ele>364.117</ele>
        <time>2021-10-16T12:19:29Z</time>
      </trkpt>
      <trkpt lat="39.373662" lon="-5.021061">
        <ele>362.836</ele>
        <time>2021-10-16T12:19:31Z</time>
      </trkpt>
      <trkpt lat="39.373758" lon="-5.021552">
        <ele>361.058</ele>
        <time>2021-10-16T12:19:33Z</time>
      </trkpt>
      <trkpt lat="39.373806" lon="-5.021817">
        <ele>359.435</ele>
        <time>2021-10-16T12:19:34Z</time>
      </trkpt>
      <trkpt lat="39.373853" lon="-5.022092">
        <ele>357.638</ele>
        <time>2021-10-16T12:19:35Z</time>
      </trkpt>
      <trkpt lat="39.373904" lon="-5.022377">
        <ele>356.170</ele>
        <time>2021-10-16T12:19:36Z</time>
      </trkpt>
      <trkpt lat="39.374027" lon="-5.022955">
        <ele>353.517</ele>
        <time>2021-10-16T12:19:38Z</time>
      </trkpt>
      <trkpt lat="39.374171" lon="-5.023506">
        <ele>350.608</ele>
        <time>2021-10-16T12:19:40Z</time>
      </trkpt>
      <trkpt lat="39.374312" lon="-5.024013">
        <ele>347.661</ele>
        <time>2021-10-16T12:19:42Z</time>
      </trkpt>
      <trkpt lat="39.374377" lon="-5.024242">
        <ele>345.959</ele>
        <time>2021-10-16T12:19:43Z</time>
      </trkpt>
      <trkpt lat="39.374439" lon="-5.024455">
        <ele>344.698</ele>
        <time>2021-10-16T12:19:44Z</time>
      </trkpt>
      <trkpt lat="39.374495" lon="-5.024650">
        <ele>343.782</ele>
        <time>2021-10-16T12:19:45Z</time>
      </trkpt>
      <trkpt lat="39.374595" lon="-5.025011">
        <ele>342.337</ele>
        <time>2021-10-16T12:19:47Z</time>
      </trkpt>
      <trkpt lat="39.374646" lon="-5.025187">
        <ele>340.976</ele>
        <time>2021-10-16T12:19:48Z</time>
      </trkpt>
      <trkpt lat="39.374694" lon="-5.025362">
        <ele>340.458</ele>
        <time>2021-10-16T12:19:49Z</time>
      </trkpt>
      <trkpt lat="39.374788" lon="-5.025706">
        <ele>339.925</ele>
        <time>2021-10-16T12:19:51Z</time>
      </trkpt>
      <trkpt lat="39.374880" lon="-5.026056">
        <ele>337.963</ele>
        <time>2021-10-16T12:19:53Z</time>
      </trkpt>
      <trkpt lat="39.374983" lon="-5.026398">
        <ele>336.644</ele>
        <time>2021-10-16T12:19:55Z</time>
      </trkpt>
      <trkpt lat="39.375044" lon="-5.026578">
        <ele>335.218</ele>
        <time>2021-10-16T12:19:56Z</time>
      </trkpt>
      <trkpt lat="39.375202" lon="-5.026928">
        <ele>332.908</ele>
        <time>2021-10-16T12:19:58Z</time>
      </trkpt>
      <trkpt lat="39.375416" lon="-5.027299">
        <ele>331.194</ele>
        <time>2021-10-16T12:20:00Z</time>
      </trkpt>
      <trkpt lat="39.375537" lon="-5.027493">
        <ele>330.112</ele>
        <time>2021-10-16T12:20:01Z</time>
      </trkpt>
      <trkpt lat="39.375663" lon="-5.027691">
        <ele>329.391</ele>
        <time>2021-10-16T12:20:02Z</time>
      </trkpt>
      <trkpt lat="39.375902" lon="-5.028098">
        <ele>327.585</ele>
        <time>2021-10-16T12:20:04Z</time>
      </trkpt>
      <trkpt lat="39.376010" lon="-5.028334">
        <ele>326.730</ele>
        <time>2021-10-16T12:20:05Z</time>
      </trkpt>
      <trkpt lat="39.376171" lon="-5.028842">
        <ele>324.259</ele>
        <time>2021-10-16T12:20:07Z</time>
      </trkpt>
      <trkpt lat="39.376255" lon="-5.029369">
        <ele>323.281</ele>
        <time>2021-10-16T12:20:09Z</time>
      </trkpt>
      <trkpt lat="39.376270" lon="-5.029642">
        <ele>323.128</ele>
        <time>2021-10-16T12:20:10Z</time>
      </trkpt>
      <trkpt lat="39.376243" lon="-5.030194">
        <ele>322.488</ele>
        <time>2021-10-16T12:20:12Z</time>
      </trkpt>
      <trkpt lat="39.376195" lon="-5.030476">
        <ele>321.924</ele>
        <time>2021-10-16T12:20:13Z</time>
      </trkpt>
      <trkpt lat="39.376032" lon="-5.031036">
        <ele>322.926</ele>
        <time>2021-10-16T12:20:15Z</time>
      </trkpt>
      <trkpt lat="39.375767" lon="-5.031575">
        <ele>324.108</ele>
        <time>2021-10-16T12:20:17Z</time>
      </trkpt>
      <trkpt lat="39.375592" lon="-5.031829">
        <ele>324.826</ele>
        <time>2021-10-16T12:20:18Z</time>
      </trkpt>
      <trkpt lat="39.375216" lon="-5.032324">
        <ele>326.014</ele>
        <time>2021-10-16T12:20:20Z</time>
      </trkpt>
      <trkpt lat="39.375027" lon="-5.032576">
        <ele>327.113</ele>
        <time>2021-10-16T12:20:21Z</time>
      </trkpt>
      <trkpt lat="39.374655" lon="-5.033086">
        <ele>329.287</ele>
        <time>2021-10-16T12:20:23Z</time>
      </trkpt>
      <trkpt lat="39.374285" lon="-5.033595">
        <ele>332.652</ele>
        <time>2021-10-16T12:20:25Z</time>
      </trkpt>
      <trkpt lat="39.374097" lon="-5.033856">
        <ele>334.411</ele>
        <time>2021-10-16T12:20:26Z</time>
      </trkpt>
      <trkpt lat="39.373735" lon="-5.034345">
        <ele>337.243</ele>
        <time>2021-10-16T12:20:28Z</time>
      </trkpt>
      <trkpt lat="39.373555" lon="-5.034598">
        <ele>338.340</ele>
        <time>2021-10-16T12:20:29Z</time>
      </trkpt>
      <trkpt lat="39.373218" lon="-5.035066">
        <ele>341.725</ele>
        <time>2021-10-16T12:20:31Z</time>
      </trkpt>
      <trkpt lat="39.373078" lon="-5.035287">
        <ele>343.726</ele>
        <time>2021-10-16T12:20:32Z</time>
      </trkpt>
      <trkpt lat="39.372879" lon="-5.035760">
        <ele>346.708</ele>
        <time>2021-10-16T12:20:34Z</time>
      </trkpt>
      <trkpt lat="39.372832" lon="-5.036033">
        <ele>348.008</ele>
        <time>2021-10-16T12:20:35Z</time>
      </trkpt>
      <trkpt lat="39.372840" lon="-5.036631">
        <ele>350.590</ele>
        <time>2021-10-16T12:20:37Z</time>
      </trkpt>
      <trkpt lat="39.372856" lon="-5.036945">
        <ele>351.858</ele>
        <time>2021-10-16T12:20:38Z</time>
      </trkpt>
      <trkpt lat="39.372868" lon="-5.037266">
        <ele>352.757</ele>
        <time>2021-10-16T12:20:39Z</time>
      </trkpt>
      <trkpt lat="39.372883" lon="-5.037918">
        <ele>354.221</ele>
        <time>2021-10-16T12:20:41Z</time>
      </trkpt>
      <trkpt lat="39.372887" lon="-5.038248">
        <ele>356.116</ele>
        <time>2021-10-16T12:20:42Z</time>
      </trkpt>
      <trkpt lat="39.372899" lon="-5.038913">
        <ele>361.125</ele>
        <time>2021-10-16T12:20:44Z</time>
      </trkpt>
      <trkpt lat="39.372907" lon="-5.039257">
        <ele>362.797</ele>
        <time>2021-10-16T12:20:45Z</time>
      </trkpt>
      <trkpt lat="39.372916" lon="-5.039604">
        <ele>363.964</ele>
        <time>2021-10-16T12:20:46Z</time>
      </trkpt>
      <trkpt lat="39.372925" lon="-5.039951">
        <ele>365.385</ele>
        <time>2021-10-16T12:20:47Z</time>
      </trkpt>
      <trkpt lat="39.372933" lon="-5.040274">
        <ele>367.289</ele>
        <time>2021-10-16T12:20:48Z</time>
      </trkpt>
      <trkpt lat="39.372947" lon="-5.040867">
        <ele>369.017</ele>
        <time>2021-10-16T12:20:50Z</time>
      </trkpt>
      <trkpt lat="39.372946" lon="-5.041149">
        <ele>369.508</ele>
        <time>2021-10-16T12:20:51Z</time>
      </trkpt>
      <trkpt lat="39.372929" lon="-5.041430">
        <ele>370.796</ele>
        <time>2021-10-16T12:20:52Z</time>
      </trkpt>
      <trkpt lat="39.372824" lon="-5.041968">
        <ele>372.624</ele>
        <time>2021-10-16T12:20:54Z</time>
      </trkpt>
      <trkpt lat="39.372577" lon="-5.042433">
        <ele>372.653</ele>
        <time>2021-10-16T12:20:56Z</time>
      </trkpt>
      <trkpt lat="39.372403" lon="-5.042622">
        <ele>372.717</ele>
        <time>2021-10-16T12:20:57Z</time>
      </trkpt>
      <trkpt lat="39.371982" lon="-5.042901">
        <ele>373.692</ele>
        <time>2021-10-16T12:20:59Z</time>
      </trkpt>
      <trkpt lat="39.371518" lon="-5.043101">
        <ele>371.631</ele>
        <time>2021-10-16T12:21:01Z</time>
      </trkpt>
      <trkpt lat="39.371283" lon="-5.043207">
        <ele>370.043</ele>
        <time>2021-10-16T12:21:02Z</time>
      </trkpt>
      <trkpt lat="39.370806" lon="-5.043418">
        <ele>366.530</ele>
        <time>2021-10-16T12:21:04Z</time>
      </trkpt>
      <trkpt lat="39.370568" lon="-5.043532">
        <ele>365.359</ele>
        <time>2021-10-16T12:21:05Z</time>
      </trkpt>
      <trkpt lat="39.370098" lon="-5.043780">
        <ele>366.903</ele>
        <time>2021-10-16T12:21:07Z</time>
      </trkpt>
      <trkpt lat="39.369640" lon="-5.044052">
        <ele>368.423</ele>
        <time>2021-10-16T12:21:09Z</time>
      </trkpt>
      <trkpt lat="39.369410" lon="-5.044202">
        <ele>369.908</ele>
        <time>2021-10-16T12:21:10Z</time>
      </trkpt>
      <trkpt lat="39.369183" lon="-5.044355">
        <ele>371.973</ele>
        <time>2021-10-16T12:21:11Z</time>
      </trkpt>
      <trkpt lat="39.368957" lon="-5.044508">
        <ele>374.791</ele>
        <time>2021-10-16T12:21:12Z</time>
      </trkpt>
      <trkpt lat="39.368733" lon="-5.044659">
        <ele>377.480</ele>
        <time>2021-10-16T12:21:13Z</time>
      </trkpt>
      <trkpt lat="39.368312" lon="-5.044925">
        <ele>379.914</ele>
        <time>2021-10-16T12:21:15Z</time>
      </trkpt>
      <trkpt lat="39.367890" lon="-5.045086">
        <ele>383.719</ele>
        <time>2021-10-16T12:21:17Z</time>
      </trkpt>
      <trkpt lat="39.367475" lon="-5.045027">
        <ele>387.048</ele>
        <time>2021-10-16T12:21:19Z</time>
      </trkpt>
      <trkpt lat="39.367271" lon="-5.044899">
        <ele>389.570</ele>
        <time>2021-10-16T12:21:20Z</time>
      </trkpt>
      <trkpt lat="39.366888" lon="-5.044522">
        <ele>393.787</ele>
        <time>2021-10-16T12:21:22Z</time>
      </trkpt>
      <trkpt lat="39.366541" lon="-5.044187">
        <ele>395.762</ele>
        <time>2021-10-16T12:21:24Z</time>
      </trkpt>
      <trkpt lat="39.366376" lon="-5.044079">
        <ele>396.583</ele>
        <time>2021-10-16T12:21:25Z</time>
      </trkpt>
      <trkpt lat="39.366031" lon="-5.044031">
        <ele>397.411</ele>
        <time>2021-10-16T12:21:27Z</time>
      </trkpt>
      <trkpt lat="39.365649" lon="-5.044189">
        <ele>397.508</ele>
        <time>2021-10-16T12:21:29Z</time>
      </trkpt>
      <trkpt lat="39.365277" lon="-5.044535">
        <ele>398.064</ele>
        <time>2021-10-16T12:21:31Z</time>
      </trkpt>
      <trkpt lat="39.365120" lon="-5.044764">
        <ele>397.672</ele>
        <time>2021-10-16T12:21:32Z</time>
      </trkpt>
      <trkpt lat="39.364824" lon="-5.045251">
        <ele>395.541</ele>
        <time>2021-10-16T12:21:34Z</time>
      </trkpt>
      <trkpt lat="39.364670" lon="-5.045499">
        <ele>394.565</ele>
        <time>2021-10-16T12:21:35Z</time>
      </trkpt>
      <trkpt lat="39.364344" lon="-5.045993">
        <ele>392.630</ele>
        <time>2021-10-16T12:21:37Z</time>
      </trkpt>
      <trkpt lat="39.364178" lon="-5.046241">
        <ele>391.999</ele>
        <time>2021-10-16T12:21:38Z</time>
      </trkpt>
      <trkpt lat="39.363853" lon="-5.046700">
        <ele>391.361</ele>
        <time>2021-10-16T12:21:40Z</time>
      </trkpt>
      <trkpt lat="39.363688" lon="-5.046903">
        <ele>391.038</ele>
        <time>2021-10-16T12:21:41Z</time>
      </trkpt>
      <trkpt lat="39.363325" lon="-5.047248">
        <ele>392.165</ele>
        <time>2021-10-16T12:21:43Z</time>
      </trkpt>
      <trkpt lat="39.363121" lon="-5.047388">
        <ele>392.668</ele>
        <time>2021-10-16T12:21:44Z</time>
      </trkpt>
      <trkpt lat="39.362687" lon="-5.047587">
        <ele>394.314</ele>
        <time>2021-10-16T12:21:46Z</time>
      </trkpt>
      <trkpt lat="39.362219" lon="-5.047663">
        <ele>396.308</ele>
        <time>2021-10-16T12:21:48Z</time>
      </trkpt>
      <trkpt lat="39.361974" lon="-5.047649">
        <ele>397.454</ele>
        <time>2021-10-16T12:21:49Z</time>
      </trkpt>
      <trkpt lat="39.361721" lon="-5.047602">
        <ele>398.172</ele>
        <time>2021-10-16T12:21:50Z</time>
      </trkpt>
      <trkpt lat="39.361237" lon="-5.047449">
        <ele>398.911</ele>
        <time>2021-10-16T12:21:52Z</time>
      </trkpt>
      <trkpt lat="39.360996" lon="-5.047365">
        <ele>399.515</ele>
        <time>2021-10-16T12:21:53Z</time>
      </trkpt>
      <trkpt lat="39.360514" lon="-5.047274">
        <ele>401.080</ele>
        <time>2021-10-16T12:21:55Z</time>
      </trkpt>
      <trkpt lat="39.360262" lon="-5.047268">
        <ele>401.119</ele>
        <time>2021-10-16T12:21:56Z</time>
      </trkpt>
      <trkpt lat="39.359788" lon="-5.047381">
        <ele>402.751</ele>
        <time>2021-10-16T12:21:58Z</time>
      </trkpt>
      <trkpt lat="39.359550" lon="-5.047476">
        <ele>403.748</ele>
        <time>2021-10-16T12:21:59Z</time>
      </trkpt>
      <trkpt lat="39.359313" lon="-5.047567">
        <ele>404.238</ele>
        <time>2021-10-16T12:22:00Z</time>
      </trkpt>
      <trkpt lat="39.358840" lon="-5.047758">
        <ele>406.070</ele>
        <time>2021-10-16T12:22:02Z</time>
      </trkpt>
      <trkpt lat="39.358434" lon="-5.047970">
        <ele>407.717</ele>
        <time>2021-10-16T12:22:04Z</time>
      </trkpt>
      <trkpt lat="39.358248" lon="-5.048119">
        <ele>408.708</ele>
        <time>2021-10-16T12:22:05Z</time>
      </trkpt>
      <trkpt lat="39.357941" lon="-5.048518">
        <ele>409.631</ele>
        <time>2021-10-16T12:22:07Z</time>
      </trkpt>
      <trkpt lat="39.357820" lon="-5.048760">
        <ele>410.369</ele>
        <time>2021-10-16T12:22:08Z</time>
      </trkpt>
      <trkpt lat="39.357688" lon="-5.049320">
        <ele>410.638</ele>
        <time>2021-10-16T12:22:10Z</time>
      </trkpt>
      <trkpt lat="39.357672" lon="-5.049621">
        <ele>410.592</ele>
        <time>2021-10-16T12:22:11Z</time>
      </trkpt>
      <trkpt lat="39.357715" lon="-5.050234">
        <ele>408.657</ele>
        <time>2021-10-16T12:22:13Z</time>
      </trkpt>
      <trkpt lat="39.357746" lon="-5.050553">
        <ele>408.066</ele>
        <time>2021-10-16T12:22:14Z</time>
      </trkpt>
      <trkpt lat="39.357774" lon="-5.050875">
        <ele>407.358</ele>
        <time>2021-10-16T12:22:15Z</time>
      </trkpt>
      <trkpt lat="39.357824" lon="-5.051536">
        <ele>406.775</ele>
        <time>2021-10-16T12:22:17Z</time>
      </trkpt>
      <trkpt lat="39.357849" lon="-5.051870">
        <ele>408.171</ele>
        <time>2021-10-16T12:22:18Z</time>
      </trkpt>
      <trkpt lat="39.357895" lon="-5.052535">
        <ele>406.041</ele>
        <time>2021-10-16T12:22:20Z</time>
      </trkpt>
      <trkpt lat="39.357897" lon="-5.053167">
        <ele>405.815</ele>
        <time>2021-10-16T12:22:22Z</time>
      </trkpt>
      <trkpt lat="39.357866" lon="-5.053459">
        <ele>404.708</ele>
        <time>2021-10-16T12:22:23Z</time>
      </trkpt>
      <trkpt lat="39.357689" lon="-5.053974">
        <ele>405.085</ele>
        <time>2021-10-16T12:22:25Z</time>
      </trkpt>
      <trkpt lat="39.357543" lon="-5.054219">
        <ele>405.423</ele>
        <time>2021-10-16T12:22:26Z</time>
      </trkpt>
      <trkpt lat="39.357200" lon="-5.054652">
        <ele>407.772</ele>
        <time>2021-10-16T12:22:28Z</time>
      </trkpt>
      <trkpt lat="39.357011" lon="-5.054864">
        <ele>409.346</ele>
        <time>2021-10-16T12:22:29Z</time>
      </trkpt>
      <trkpt lat="39.356643" lon="-5.055305">
        <ele>411.541</ele>
        <time>2021-10-16T12:22:31Z</time>
      </trkpt>
      <trkpt lat="39.356282" lon="-5.055736">
        <ele>416.110</ele>
        <time>2021-10-16T12:22:33Z</time>
      </trkpt>
      <trkpt lat="39.356105" lon="-5.055944">
        <ele>417.192</ele>
        <time>2021-10-16T12:22:34Z</time>
      </trkpt>
      <trkpt lat="39.355719" lon="-5.056311">
        <ele>419.849</ele>
        <time>2021-10-16T12:22:36Z</time>
      </trkpt>
      <trkpt lat="39.355494" lon="-5.056445">
        <ele>422.042</ele>
        <time>2021-10-16T12:22:37Z</time>
      </trkpt>
      <trkpt lat="39.355018" lon="-5.056584">
        <ele>426.422</ele>
        <time>2021-10-16T12:22:39Z</time>
      </trkpt>
      <trkpt lat="39.354534" lon="-5.056497">
        <ele>430.614</ele>
        <time>2021-10-16T12:22:41Z</time>
      </trkpt>
      <trkpt lat="39.354055" lon="-5.056179">
        <ele>434.508</ele>
        <time>2021-10-16T12:22:43Z</time>
      </trkpt>
      <trkpt lat="39.353820" lon="-5.055971">
        <ele>435.762</ele>
        <time>2021-10-16T12:22:44Z</time>
      </trkpt>
      <trkpt lat="39.353582" lon="-5.055754">
        <ele>437.160</ele>
        <time>2021-10-16T12:22:45Z</time>
      </trkpt>
      <trkpt lat="39.353110" lon="-5.055340">
        <ele>438.129</ele>
        <time>2021-10-16T12:22:47Z</time>
      </trkpt>
      <trkpt lat="39.352874" lon="-5.055130">
        <ele>437.193</ele>
        <time>2021-10-16T12:22:48Z</time>
      </trkpt>
      <trkpt lat="39.352643" lon="-5.054917">
        <ele>435.868</ele>
        <time>2021-10-16T12:22:49Z</time>
      </trkpt>
      <trkpt lat="39.352416" lon="-5.054702">
        <ele>434.137</ele>
        <time>2021-10-16T12:22:50Z</time>
      </trkpt>
      <trkpt lat="39.352193" lon="-5.054490">
        <ele>432.579</ele>
        <time>2021-10-16T12:22:51Z</time>
      </trkpt>
      <trkpt lat="39.351731" lon="-5.054120">
        <ele>429.466</ele>
        <time>2021-10-16T12:22:53Z</time>
      </trkpt>
      <trkpt lat="39.351482" lon="-5.053977">
        <ele>428.299</ele>
        <time>2021-10-16T12:22:54Z</time>
      </trkpt>
      <trkpt lat="39.350948" lon="-5.053787">
        <ele>424.607</ele>
        <time>2021-10-16T12:22:56Z</time>
      </trkpt>
      <trkpt lat="39.350389" lon="-5.053617">
        <ele>420.727</ele>
        <time>2021-10-16T12:22:58Z</time>
      </trkpt>
      <trkpt lat="39.349815" lon="-5.053435">
        <ele>417.108</ele>
        <time>2021-10-16T12:23:00Z</time>
      </trkpt>
      <trkpt lat="39.349525" lon="-5.053342">
        <ele>415.987</ele>
        <time>2021-10-16T12:23:01Z</time>
      </trkpt>
      <trkpt lat="39.348951" lon="-5.053157">
        <ele>412.385</ele>
        <time>2021-10-16T12:23:03Z</time>
      </trkpt>
      <trkpt lat="39.348663" lon="-5.053064">
        <ele>410.864</ele>
        <time>2021-10-16T12:23:04Z</time>
      </trkpt>
      <trkpt lat="39.348106" lon="-5.052883">
        <ele>407.468</ele>
        <time>2021-10-16T12:23:06Z</time>
      </trkpt>
      <trkpt lat="39.347834" lon="-5.052794">
        <ele>405.883</ele>
        <time>2021-10-16T12:23:07Z</time>
      </trkpt>
      <trkpt lat="39.347567" lon="-5.052708">
        <ele>404.152</ele>
        <time>2021-10-16T12:23:08Z</time>
      </trkpt>
      <trkpt lat="39.347033" lon="-5.052536">
        <ele>401.344</ele>
        <time>2021-10-16T12:23:10Z</time>
      </trkpt>
      <trkpt lat="39.346759" lon="-5.052452">
        <ele>400.381</ele>
        <time>2021-10-16T12:23:11Z</time>
      </trkpt>
      <trkpt lat="39.346212" lon="-5.052287">
        <ele>397.358</ele>
        <time>2021-10-16T12:23:13Z</time>
      </trkpt>
      <trkpt lat="39.345932" lon="-5.052220">
        <ele>396.452</ele>
        <time>2021-10-16T12:23:14Z</time>
      </trkpt>
      <trkpt lat="39.345654" lon="-5.052174">
        <ele>396.617</ele>
        <time>2021-10-16T12:23:15Z</time>
      </trkpt>
      <trkpt lat="39.345112" lon="-5.052124">
        <ele>397.508</ele>
        <time>2021-10-16T12:23:17Z</time>
      </trkpt>
      <trkpt lat="39.344843" lon="-5.052109">
        <ele>397.083</ele>
        <time>2021-10-16T12:23:18Z</time>
      </trkpt>
      <trkpt lat="39.344322" lon="-5.052126">
        <ele>398.091</ele>
        <time>2021-10-16T12:23:20Z</time>
      </trkpt>
      <trkpt lat="39.344061" lon="-5.052166">
        <ele>398.840</ele>
        <time>2021-10-16T12:23:21Z</time>
      </trkpt>
      <trkpt lat="39.343804" lon="-5.052233">
        <ele>398.984</ele>
        <time>2021-10-16T12:23:22Z</time>
      </trkpt>
      <trkpt lat="39.343300" lon="-5.052400">
        <ele>399.889</ele>
        <time>2021-10-16T12:23:24Z</time>
      </trkpt>
      <trkpt lat="39.343052" lon="-5.052494">
        <ele>399.988</ele>
        <time>2021-10-16T12:23:25Z</time>
      </trkpt>
      <trkpt lat="39.342607" lon="-5.052744">
        <ele>401.320</ele>
        <time>2021-10-16T12:23:27Z</time>
      </trkpt>
      <trkpt lat="39.342231" lon="-5.053106">
        <ele>402.577</ele>
        <time>2021-10-16T12:23:29Z</time>
      </trkpt>
      <trkpt lat="39.342065" lon="-5.053330">
        <ele>403.868</ele>
        <time>2021-10-16T12:23:30Z</time>
      </trkpt>
      <trkpt lat="39.341801" lon="-5.053871">
        <ele>404.742</ele>
        <time>2021-10-16T12:23:32Z</time>
      </trkpt>
      <trkpt lat="39.341642" lon="-5.054478">
        <ele>407.226</ele>
        <time>2021-10-16T12:23:34Z</time>
      </trkpt>
      <trkpt lat="39.341606" lon="-5.054808">
        <ele>407.408</ele>
        <time>2021-10-16T12:23:35Z</time>
      </trkpt>
      <trkpt lat="39.341611" lon="-5.055481">
        <ele>409.554</ele>
        <time>2021-10-16T12:23:37Z</time>
      </trkpt>
      <trkpt lat="39.341649" lon="-5.055819">
        <ele>410.142</ele>
        <time>2021-10-16T12:23:38Z</time>
      </trkpt>
      <trkpt lat="39.341770" lon="-5.056485">
        <ele>412.341</ele>
        <time>2021-10-16T12:23:40Z</time>
      </trkpt>
      <trkpt lat="39.341895" lon="-5.057149">
        <ele>412.965</ele>
        <time>2021-10-16T12:23:42Z</time>
      </trkpt>
      <trkpt lat="39.341958" lon="-5.057493">
        <ele>412.770</ele>
        <time>2021-10-16T12:23:43Z</time>
      </trkpt>
      <trkpt lat="39.342080" lon="-5.058180">
        <ele>412.049</ele>
        <time>2021-10-16T12:23:45Z</time>
      </trkpt>
      <trkpt lat="39.342202" lon="-5.058887">
        <ele>410.681</ele>
        <time>2021-10-16T12:23:47Z</time>
      </trkpt>
      <trkpt lat="39.342324" lon="-5.059591">
        <ele>409.438</ele>
        <time>2021-10-16T12:23:49Z</time>
      </trkpt>
      <trkpt lat="39.342441" lon="-5.060282">
        <ele>407.983</ele>
        <time>2021-10-16T12:23:51Z</time>
      </trkpt>
      <trkpt lat="39.342502" lon="-5.060631">
        <ele>406.925</ele>
        <time>2021-10-16T12:23:52Z</time>
      </trkpt>
      <trkpt lat="39.342621" lon="-5.061324">
        <ele>406.117</ele>
        <time>2021-10-16T12:23:54Z</time>
      </trkpt>
      <trkpt lat="39.342674" lon="-5.061677">
        <ele>405.908</ele>
        <time>2021-10-16T12:23:55Z</time>
      </trkpt>
      <trkpt lat="39.342721" lon="-5.062040">
        <ele>405.296</ele>
        <time>2021-10-16T12:23:56Z</time>
      </trkpt>
      <trkpt lat="39.342757" lon="-5.062748">
        <ele>404.054</ele>
        <time>2021-10-16T12:23:58Z</time>
      </trkpt>
      <trkpt lat="39.342753" lon="-5.063117">
        <ele>403.083</ele>
        <time>2021-10-16T12:23:59Z</time>
      </trkpt>
      <trkpt lat="39.342709" lon="-5.063859">
        <ele>401.237</ele>
        <time>2021-10-16T12:24:01Z</time>
      </trkpt>
      <trkpt lat="39.342665" lon="-5.064240">
        <ele>400.732</ele>
        <time>2021-10-16T12:24:02Z</time>
      </trkpt>
      <trkpt lat="39.342538" lon="-5.064970">
        <ele>399.021</ele>
        <time>2021-10-16T12:24:04Z</time>
      </trkpt>
      <trkpt lat="39.342335" lon="-5.065673">
        <ele>398.493</ele>
        <time>2021-10-16T12:24:06Z</time>
      </trkpt>
      <trkpt lat="39.342078" lon="-5.066326">
        <ele>397.390</ele>
        <time>2021-10-16T12:24:08Z</time>
      </trkpt>
      <trkpt lat="39.341781" lon="-5.066928">
        <ele>395.263</ele>
        <time>2021-10-16T12:24:10Z</time>
      </trkpt>
      <trkpt lat="39.341469" lon="-5.067492">
        <ele>392.244</ele>
        <time>2021-10-16T12:24:12Z</time>
      </trkpt>
      <trkpt lat="39.341310" lon="-5.067771">
        <ele>391.518</ele>
        <time>2021-10-16T12:24:13Z</time>
      </trkpt>
      <trkpt lat="39.341010" lon="-5.068275">
        <ele>390.708</ele>
        <time>2021-10-16T12:24:15Z</time>
      </trkpt>
      <trkpt lat="39.340678" lon="-5.068735">
        <ele>388.254</ele>
        <time>2021-10-16T12:24:17Z</time>
      </trkpt>
      <trkpt lat="39.340482" lon="-5.068942">
        <ele>387.592</ele>
        <time>2021-10-16T12:24:18Z</time>
      </trkpt>
      <trkpt lat="39.340271" lon="-5.069134">
        <ele>386.641</ele>
        <time>2021-10-16T12:24:19Z</time>
      </trkpt>
      <trkpt lat="39.339799" lon="-5.069445">
        <ele>384.125</ele>
        <time>2021-10-16T12:24:21Z</time>
      </trkpt>
      <trkpt lat="39.339278" lon="-5.069672">
        <ele>380.120</ele>
        <time>2021-10-16T12:24:23Z</time>
      </trkpt>
      <trkpt lat="39.338739" lon="-5.069876">
        <ele>378.079</ele>
        <time>2021-10-16T12:24:25Z</time>
      </trkpt>
      <trkpt lat="39.338463" lon="-5.069984">
        <ele>376.571</ele>
        <time>2021-10-16T12:24:26Z</time>
      </trkpt>
      <trkpt lat="39.337946" lon="-5.070194">
        <ele>373.458</ele>
        <time>2021-10-16T12:24:28Z</time>
      </trkpt>
      <trkpt lat="39.337692" lon="-5.070314">
        <ele>372.083</ele>
        <time>2021-10-16T12:24:29Z</time>
      </trkpt>
      <trkpt lat="39.337202" lon="-5.070597">
        <ele>369.225</ele>
        <time>2021-10-16T12:24:31Z</time>
      </trkpt>
      <trkpt lat="39.336956" lon="-5.070773">
        <ele>368.017</ele>
        <time>2021-10-16T12:24:32Z</time>
      </trkpt>
      <trkpt lat="39.336524" lon="-5.071173">
        <ele>366.408</ele>
        <time>2021-10-16T12:24:34Z</time>
      </trkpt>
      <trkpt lat="39.336126" lon="-5.071653">
        <ele>366.776</ele>
        <time>2021-10-16T12:24:36Z</time>
      </trkpt>
      <trkpt lat="39.335749" lon="-5.072157">
        <ele>369.174</ele>
        <time>2021-10-16T12:24:38Z</time>
      </trkpt>
      <trkpt lat="39.335565" lon="-5.072409">
        <ele>370.793</ele>
        <time>2021-10-16T12:24:39Z</time>
      </trkpt>
      <trkpt lat="39.335182" lon="-5.072886">
        <ele>372.227</ele>
        <time>2021-10-16T12:24:41Z</time>
      </trkpt>
      <trkpt lat="39.334741" lon="-5.073297">
        <ele>372.882</ele>
        <time>2021-10-16T12:24:43Z</time>
      </trkpt>
      <trkpt lat="39.334487" lon="-5.073482">
        <ele>372.441</ele>
        <time>2021-10-16T12:24:44Z</time>
      </trkpt>
      <trkpt lat="39.333949" lon="-5.073819">
        <ele>372.513</ele>
        <time>2021-10-16T12:24:46Z</time>
      </trkpt>
      <trkpt lat="39.333395" lon="-5.074096">
        <ele>373.850</ele>
        <time>2021-10-16T12:24:48Z</time>
      </trkpt>
      <trkpt lat="39.332823" lon="-5.074247">
        <ele>375.433</ele>
        <time>2021-10-16T12:24:50Z</time>
      </trkpt>
      <trkpt lat="39.332541" lon="-5.074277">
        <ele>377.023</ele>
        <time>2021-10-16T12:24:51Z</time>
      </trkpt>
      <trkpt lat="39.332004" lon="-5.074294">
        <ele>380.215</ele>
        <time>2021-10-16T12:24:53Z</time>
      </trkpt>
      <trkpt lat="39.331749" lon="-5.074320">
        <ele>381.608</ele>
        <time>2021-10-16T12:24:54Z</time>
      </trkpt>
      <trkpt lat="39.331264" lon="-5.074457">
        <ele>385.591</ele>
        <time>2021-10-16T12:24:56Z</time>
      </trkpt>
      <trkpt lat="39.330835" lon="-5.074722">
        <ele>388.869</ele>
        <time>2021-10-16T12:24:58Z</time>
      </trkpt>
      <trkpt lat="39.330631" lon="-5.074898">
        <ele>389.348</ele>
        <time>2021-10-16T12:24:59Z</time>
      </trkpt>
      <trkpt lat="39.330428" lon="-5.075075">
        <ele>389.372</ele>
        <time>2021-10-16T12:25:00Z</time>
      </trkpt>
      <trkpt lat="39.329977" lon="-5.075351">
        <ele>389.567</ele>
        <time>2021-10-16T12:25:02Z</time>
      </trkpt>
      <trkpt lat="39.329471" lon="-5.075461">
        <ele>388.316</ele>
        <time>2021-10-16T12:25:04Z</time>
      </trkpt>
      <trkpt lat="39.329194" lon="-5.075467">
        <ele>388.218</ele>
        <time>2021-10-16T12:25:05Z</time>
      </trkpt>
      <trkpt lat="39.328635" lon="-5.075470">
        <ele>389.235</ele>
        <time>2021-10-16T12:25:07Z</time>
      </trkpt>
      <trkpt lat="39.328351" lon="-5.075482">
        <ele>389.413</ele>
        <time>2021-10-16T12:25:08Z</time>
      </trkpt>
      <trkpt lat="39.328070" lon="-5.075490">
        <ele>389.843</ele>
        <time>2021-10-16T12:25:09Z</time>
      </trkpt>
      <trkpt lat="39.327530" lon="-5.075521">
        <ele>391.507</ele>
        <time>2021-10-16T12:25:11Z</time>
      </trkpt>
      <trkpt lat="39.327005" lon="-5.075615">
        <ele>394.308</ele>
        <time>2021-10-16T12:25:13Z</time>
      </trkpt>
      <trkpt lat="39.326754" lon="-5.075710">
        <ele>395.759</ele>
        <time>2021-10-16T12:25:14Z</time>
      </trkpt>
      <trkpt lat="39.326313" lon="-5.076039">
        <ele>398.667</ele>
        <time>2021-10-16T12:25:16Z</time>
      </trkpt>
      <trkpt lat="39.326127" lon="-5.076281">
        <ele>400.076</ele>
        <time>2021-10-16T12:25:17Z</time>
      </trkpt>
      <trkpt lat="39.325823" lon="-5.076863">
        <ele>402.630</ele>
        <time>2021-10-16T12:25:19Z</time>
      </trkpt>
      <trkpt lat="39.325686" lon="-5.077163">
        <ele>404.695</ele>
        <time>2021-10-16T12:25:20Z</time>
      </trkpt>
      <trkpt lat="39.325392" lon="-5.077719">
        <ele>407.814</ele>
        <time>2021-10-16T12:25:22Z</time>
      </trkpt>
      <trkpt lat="39.325047" lon="-5.078161">
        <ele>410.496</ele>
        <time>2021-10-16T12:25:24Z</time>
      </trkpt>
      <trkpt lat="39.324844" lon="-5.078337">
        <ele>411.713</ele>
        <time>2021-10-16T12:25:25Z</time>
      </trkpt>
      <trkpt lat="39.324616" lon="-5.078502">
        <ele>413.124</ele>
        <time>2021-10-16T12:25:26Z</time>
      </trkpt>
      <trkpt lat="39.324157" lon="-5.078815">
        <ele>416.104</ele>
        <time>2021-10-16T12:25:28Z</time>
      </trkpt>
      <trkpt lat="39.323703" lon="-5.079133">
        <ele>419.614</ele>
        <time>2021-10-16T12:25:30Z</time>
      </trkpt>
      <trkpt lat="39.323485" lon="-5.079275">
        <ele>420.508</ele>
        <time>2021-10-16T12:25:31Z</time>
      </trkpt>
      <trkpt lat="39.323075" lon="-5.079486">
        <ele>423.260</ele>
        <time>2021-10-16T12:25:33Z</time>
      </trkpt>
      <trkpt lat="39.322872" lon="-5.079538">
        <ele>423.948</ele>
        <time>2021-10-16T12:25:34Z</time>
      </trkpt>
      <trkpt lat="39.322454" lon="-5.079496">
        <ele>426.577</ele>
        <time>2021-10-16T12:25:36Z</time>
      </trkpt>
      <trkpt lat="39.322032" lon="-5.079244">
        <ele>429.841</ele>
        <time>2021-10-16T12:25:38Z</time>
      </trkpt>
      <trkpt lat="39.321652" lon="-5.078850">
        <ele>433.236</ele>
        <time>2021-10-16T12:25:40Z</time>
      </trkpt>
      <trkpt lat="39.321243" lon="-5.078525">
        <ele>435.435</ele>
        <time>2021-10-16T12:25:42Z</time>
      </trkpt>
      <trkpt lat="39.321016" lon="-5.078420">
        <ele>436.767</ele>
        <time>2021-10-16T12:25:43Z</time>
      </trkpt>
      <trkpt lat="39.320783" lon="-5.078334">
        <ele>438.154</ele>
        <time>2021-10-16T12:25:44Z</time>
      </trkpt>
      <trkpt lat="39.320305" lon="-5.078171">
        <ele>441.437</ele>
        <time>2021-10-16T12:25:46Z</time>
      </trkpt>
      <trkpt lat="39.320071" lon="-5.078096">
        <ele>443.449</ele>
        <time>2021-10-16T12:25:47Z</time>
      </trkpt>
      <trkpt lat="39.319649" lon="-5.077997">
        <ele>446.513</ele>
        <time>2021-10-16T12:25:49Z</time>
      </trkpt>
      <trkpt lat="39.319444" lon="-5.077983">
        <ele>448.108</ele>
        <time>2021-10-16T12:25:50Z</time>
      </trkpt>
      <trkpt lat="39.319241" lon="-5.078000">
        <ele>450.121</ele>
        <time>2021-10-16T12:25:51Z</time>
      </trkpt>
      <trkpt lat="39.318865" lon="-5.078211">
        <ele>453.579</ele>
        <time>2021-10-16T12:25:53Z</time>
      </trkpt>
      <trkpt lat="39.318695" lon="-5.078421">
        <ele>455.248</ele>
        <time>2021-10-16T12:25:54Z</time>
      </trkpt>
      <trkpt lat="39.318546" lon="-5.078682">
        <ele>455.932</ele>
        <time>2021-10-16T12:25:55Z</time>
      </trkpt>
      <trkpt lat="39.318256" lon="-5.079255">
        <ele>457.487</ele>
        <time>2021-10-16T12:25:57Z</time>
      </trkpt>
      <trkpt lat="39.317941" lon="-5.079784">
        <ele>461.096</ele>
        <time>2021-10-16T12:25:59Z</time>
      </trkpt>
      <trkpt lat="39.317566" lon="-5.080173">
        <ele>465.828</ele>
        <time>2021-10-16T12:26:01Z</time>
      </trkpt>
      <trkpt lat="39.317107" lon="-5.080358">
        <ele>469.395</ele>
        <time>2021-10-16T12:26:03Z</time>
      </trkpt>
      <trkpt lat="39.316862" lon="-5.080374">
        <ele>470.024</ele>
        <time>2021-10-16T12:26:04Z</time>
      </trkpt>
      <trkpt lat="39.316614" lon="-5.080345">
        <ele>471.304</ele>
        <time>2021-10-16T12:26:05Z</time>
      </trkpt>
      <trkpt lat="39.316361" lon="-5.080289">
        <ele>472.214</ele>
        <time>2021-10-16T12:26:06Z</time>
      </trkpt>
      <trkpt lat="39.315842" lon="-5.080167">
        <ele>471.008</ele>
        <time>2021-10-16T12:26:08Z</time>
      </trkpt>
      <trkpt lat="39.315572" lon="-5.080110">
        <ele>470.630</ele>
        <time>2021-10-16T12:26:09Z</time>
      </trkpt>
      <trkpt lat="39.315016" lon="-5.079989">
        <ele>470.848</ele>
        <time>2021-10-16T12:26:11Z</time>
      </trkpt>
      <trkpt lat="39.314444" lon="-5.079866">
        <ele>469.527</ele>
        <time>2021-10-16T12:26:13Z</time>
      </trkpt>
      <trkpt lat="39.314153" lon="-5.079805">
        <ele>469.251</ele>
        <time>2021-10-16T12:26:14Z</time>
      </trkpt>
      <trkpt lat="39.313572" lon="-5.079701">
        <ele>466.266</ele>
        <time>2021-10-16T12:26:16Z</time>
      </trkpt>
      <trkpt lat="39.312993" lon="-5.079645">
        <ele>462.765</ele>
        <time>2021-10-16T12:26:18Z</time>
      </trkpt>
      <trkpt lat="39.312399" lon="-5.079660">
        <ele>458.817</ele>
        <time>2021-10-16T12:26:20Z</time>
      </trkpt>
      <trkpt lat="39.312098" lon="-5.079683">
        <ele>457.654</ele>
        <time>2021-10-16T12:26:21Z</time>
      </trkpt>
      <trkpt lat="39.311493" lon="-5.079783">
        <ele>453.616</ele>
        <time>2021-10-16T12:26:23Z</time>
      </trkpt>
      <trkpt lat="39.311193" lon="-5.079839">
        <ele>452.076</ele>
        <time>2021-10-16T12:26:24Z</time>
      </trkpt>
      <trkpt lat="39.310643" lon="-5.079940">
        <ele>448.813</ele>
        <time>2021-10-16T12:26:26Z</time>
      </trkpt>
      <trkpt lat="39.310381" lon="-5.079988">
        <ele>447.708</ele>
        <time>2021-10-16T12:26:27Z</time>
      </trkpt>
      <trkpt lat="39.309867" lon="-5.080088">
        <ele>445.139</ele>
        <time>2021-10-16T12:26:29Z</time>
      </trkpt>
      <trkpt lat="39.309333" lon="-5.080194">
        <ele>440.777</ele>
        <time>2021-10-16T12:26:31Z</time>
      </trkpt>
      <trkpt lat="39.308792" lon="-5.080313">
        <ele>436.956</ele>
        <time>2021-10-16T12:26:33Z</time>
      </trkpt>
      <trkpt lat="39.308295" lon="-5.080466">
        <ele>432.540</ele>
        <time>2021-10-16T12:26:35Z</time>
      </trkpt>
      <trkpt lat="39.308054" lon="-5.080566">
        <ele>431.035</ele>
        <time>2021-10-16T12:26:36Z</time>
      </trkpt>
      <trkpt lat="39.307558" lon="-5.080834">
        <ele>428.264</ele>
        <time>2021-10-16T12:26:38Z</time>
      </trkpt>
      <trkpt lat="39.307045" lon="-5.081240">
        <ele>425.686</ele>
        <time>2021-10-16T12:26:40Z</time>
      </trkpt>
      <trkpt lat="39.306538" lon="-5.081692">
        <ele>423.593</ele>
        <time>2021-10-16T12:26:42Z</time>
      </trkpt>
      <trkpt lat="39.306274" lon="-5.081905">
        <ele>421.962</ele>
        <time>2021-10-16T12:26:43Z</time>
      </trkpt>
      <trkpt lat="39.306003" lon="-5.082105">
        <ele>420.383</ele>
        <time>2021-10-16T12:26:44Z</time>
      </trkpt>
      <trkpt lat="39.305440" lon="-5.082495">
        <ele>417.611</ele>
        <time>2021-10-16T12:26:46Z</time>
      </trkpt>
      <trkpt lat="39.305156" lon="-5.082687">
        <ele>416.708</ele>
        <time>2021-10-16T12:26:47Z</time>
      </trkpt>
      <trkpt lat="39.304598" lon="-5.083056">
        <ele>413.924</ele>
        <time>2021-10-16T12:26:49Z</time>
      </trkpt>
      <trkpt lat="39.304054" lon="-5.083421">
        <ele>411.532</ele>
        <time>2021-10-16T12:26:51Z</time>
      </trkpt>
      <trkpt lat="39.303787" lon="-5.083600">
        <ele>410.321</ele>
        <time>2021-10-16T12:26:52Z</time>
      </trkpt>
      <trkpt lat="39.303521" lon="-5.083778">
        <ele>409.345</ele>
        <time>2021-10-16T12:26:53Z</time>
      </trkpt>
      <trkpt lat="39.302998" lon="-5.084126">
        <ele>409.180</ele>
        <time>2021-10-16T12:26:55Z</time>
      </trkpt>
      <trkpt lat="39.302470" lon="-5.084450">
        <ele>407.779</ele>
        <time>2021-10-16T12:26:57Z</time>
      </trkpt>
      <trkpt lat="39.302195" lon="-5.084598">
        <ele>407.291</ele>
        <time>2021-10-16T12:26:58Z</time>
      </trkpt>
      <trkpt lat="39.301630" lon="-5.084858">
        <ele>404.248</ele>
        <time>2021-10-16T12:27:00Z</time>
      </trkpt>
      <trkpt lat="39.301341" lon="-5.084979">
        <ele>403.366</ele>
        <time>2021-10-16T12:27:01Z</time>
      </trkpt>
      <trkpt lat="39.300758" lon="-5.085210">
        <ele>401.629</ele>
        <time>2021-10-16T12:27:03Z</time>
      </trkpt>
      <trkpt lat="39.300466" lon="-5.085321">
        <ele>400.321</ele>
        <time>2021-10-16T12:27:04Z</time>
      </trkpt>
      <trkpt lat="39.299896" lon="-5.085540">
        <ele>399.308</ele>
        <time>2021-10-16T12:27:06Z</time>
      </trkpt>
      <trkpt lat="39.299613" lon="-5.085649">
        <ele>399.114</ele>
        <time>2021-10-16T12:27:07Z</time>
      </trkpt>
      <trkpt lat="39.299345" lon="-5.085753">
        <ele>398.492</ele>
        <time>2021-10-16T12:27:08Z</time>
      </trkpt>
      <trkpt lat="39.298848" lon="-5.085944">
        <ele>398.351</ele>
        <time>2021-10-16T12:27:10Z</time>
      </trkpt>
      <trkpt lat="39.298393" lon="-5.086124">
        <ele>398.645</ele>
        <time>2021-10-16T12:27:12Z</time>
      </trkpt>
      <trkpt lat="39.298171" lon="-5.086207">
        <ele>399.190</ele>
        <time>2021-10-16T12:27:13Z</time>
      </trkpt>
      <trkpt lat="39.297730" lon="-5.086383">
        <ele>400.389</ele>
        <time>2021-10-16T12:27:15Z</time>
      </trkpt>
      <trkpt lat="39.297315" lon="-5.086610">
        <ele>402.091</ele>
        <time>2021-10-16T12:27:17Z</time>
      </trkpt>
      <trkpt lat="39.296919" lon="-5.086943">
        <ele>403.958</ele>
        <time>2021-10-16T12:27:19Z</time>
      </trkpt>
      <trkpt lat="39.296719" lon="-5.087159">
        <ele>405.574</ele>
        <time>2021-10-16T12:27:20Z</time>
      </trkpt>
      <trkpt lat="39.296530" lon="-5.087406">
        <ele>407.756</ele>
        <time>2021-10-16T12:27:21Z</time>
      </trkpt>
      <trkpt lat="39.296353" lon="-5.087673">
        <ele>409.621</ele>
        <time>2021-10-16T12:27:22Z</time>
      </trkpt>
      <trkpt lat="39.296021" lon="-5.088186">
        <ele>413.608</ele>
        <time>2021-10-16T12:27:24Z</time>
      </trkpt>
      <trkpt lat="39.295852" lon="-5.088427">
        <ele>415.725</ele>
        <time>2021-10-16T12:27:25Z</time>
      </trkpt>
      <trkpt lat="39.295673" lon="-5.088669">
        <ele>417.663</ele>
        <time>2021-10-16T12:27:26Z</time>
      </trkpt>
      <trkpt lat="39.295308" lon="-5.089107">
        <ele>421.712</ele>
        <time>2021-10-16T12:27:28Z</time>
      </trkpt>
      <trkpt lat="39.295121" lon="-5.089321">
        <ele>423.636</ele>
        <time>2021-10-16T12:27:29Z</time>
      </trkpt>
      <trkpt lat="39.294770" lon="-5.089726">
        <ele>426.811</ele>
        <time>2021-10-16T12:27:31Z</time>
      </trkpt>
      <trkpt lat="39.294458" lon="-5.090177">
        <ele>428.180</ele>
        <time>2021-10-16T12:27:33Z</time>
      </trkpt>
      <trkpt lat="39.294326" lon="-5.090438">
        <ele>429.082</ele>
        <time>2021-10-16T12:27:34Z</time>
      </trkpt>
      <trkpt lat="39.294146" lon="-5.091017">
        <ele>429.979</ele>
        <time>2021-10-16T12:27:36Z</time>
      </trkpt>
      <trkpt lat="39.294116" lon="-5.091313">
        <ele>430.154</ele>
        <time>2021-10-16T12:27:37Z</time>
      </trkpt>
      <trkpt lat="39.294141" lon="-5.091937">
        <ele>430.556</ele>
        <time>2021-10-16T12:27:39Z</time>
      </trkpt>
      <trkpt lat="39.294192" lon="-5.092264">
        <ele>429.511</ele>
        <time>2021-10-16T12:27:40Z</time>
      </trkpt>
      <trkpt lat="39.294253" lon="-5.092595">
        <ele>428.708</ele>
        <time>2021-10-16T12:27:41Z</time>
      </trkpt>
      <trkpt lat="39.294355" lon="-5.093257">
        <ele>426.353</ele>
        <time>2021-10-16T12:27:43Z</time>
      </trkpt>
      <trkpt lat="39.294383" lon="-5.093884">
        <ele>423.671</ele>
        <time>2021-10-16T12:27:45Z</time>
      </trkpt>
      <trkpt lat="39.294298" lon="-5.094481">
        <ele>421.430</ele>
        <time>2021-10-16T12:27:47Z</time>
      </trkpt>
      <trkpt lat="39.294207" lon="-5.094752">
        <ele>420.384</ele>
        <time>2021-10-16T12:27:48Z</time>
      </trkpt>
      <trkpt lat="39.293943" lon="-5.095246">
        <ele>417.489</ele>
        <time>2021-10-16T12:27:50Z</time>
      </trkpt>
      <trkpt lat="39.293557" lon="-5.095670">
        <ele>415.768</ele>
        <time>2021-10-16T12:27:52Z</time>
      </trkpt>
      <trkpt lat="39.293334" lon="-5.095861">
        <ele>414.090</ele>
        <time>2021-10-16T12:27:53Z</time>
      </trkpt>
      <trkpt lat="39.293100" lon="-5.096047">
        <ele>412.637</ele>
        <time>2021-10-16T12:27:54Z</time>
      </trkpt>
      <trkpt lat="39.292618" lon="-5.096423">
        <ele>410.158</ele>
        <time>2021-10-16T12:27:56Z</time>
      </trkpt>
      <trkpt lat="39.292145" lon="-5.096787">
        <ele>407.752</ele>
        <time>2021-10-16T12:27:58Z</time>
      </trkpt>
      <trkpt lat="39.291907" lon="-5.096975">
        <ele>406.617</ele>
        <time>2021-10-16T12:27:59Z</time>
      </trkpt>
      <trkpt lat="39.291435" lon="-5.097358">
        <ele>403.608</ele>
        <time>2021-10-16T12:28:01Z</time>
      </trkpt>
      <trkpt lat="39.291192" lon="-5.097553">
        <ele>402.243</ele>
        <time>2021-10-16T12:28:02Z</time>
      </trkpt>
      <trkpt lat="39.290949" lon="-5.097749">
        <ele>401.451</ele>
        <time>2021-10-16T12:28:03Z</time>
      </trkpt>
      <trkpt lat="39.290458" lon="-5.098146">
        <ele>398.950</ele>
        <time>2021-10-16T12:28:05Z</time>
      </trkpt>
      <trkpt lat="39.290214" lon="-5.098344">
        <ele>398.584</ele>
        <time>2021-10-16T12:28:06Z</time>
      </trkpt>
      <trkpt lat="39.289733" lon="-5.098732">
        <ele>399.179</ele>
        <time>2021-10-16T12:28:08Z</time>
      </trkpt>
      <trkpt lat="39.289263" lon="-5.099111">
        <ele>398.538</ele>
        <time>2021-10-16T12:28:10Z</time>
      </trkpt>
      <trkpt lat="39.288820" lon="-5.099466">
        <ele>398.940</ele>
        <time>2021-10-16T12:28:12Z</time>
      </trkpt>
      <trkpt lat="39.288403" lon="-5.099804">
        <ele>399.147</ele>
        <time>2021-10-16T12:28:14Z</time>
      </trkpt>
      <trkpt lat="39.288194" lon="-5.099971">
        <ele>399.142</ele>
        <time>2021-10-16T12:28:15Z</time>
      </trkpt>
      <trkpt lat="39.287779" lon="-5.100299">
        <ele>398.722</ele>
        <time>2021-10-16T12:28:17Z</time>
      </trkpt>
      <trkpt lat="39.287570" lon="-5.100471">
        <ele>398.614</ele>
        <time>2021-10-16T12:28:18Z</time>
      </trkpt>
      <trkpt lat="39.287359" lon="-5.100641">
        <ele>397.808</ele>
        <time>2021-10-16T12:28:19Z</time>
      </trkpt>
      <trkpt lat="39.287149" lon="-5.100814">
        <ele>397.382</ele>
        <time>2021-10-16T12:28:20Z</time>
      </trkpt>
      <trkpt lat="39.286939" lon="-5.100988">
        <ele>397.080</ele>
        <time>2021-10-16T12:28:21Z</time>
      </trkpt>
      <trkpt lat="39.286517" lon="-5.101337">
        <ele>395.639</ele>
        <time>2021-10-16T12:28:23Z</time>
      </trkpt>
      <trkpt lat="39.286091" lon="-5.101688">
        <ele>394.643</ele>
        <time>2021-10-16T12:28:25Z</time>
      </trkpt>
      <trkpt lat="39.285876" lon="-5.101863">
        <ele>394.238</ele>
        <time>2021-10-16T12:28:26Z</time>
      </trkpt>
      <trkpt lat="39.285464" lon="-5.102191">
        <ele>394.477</ele>
        <time>2021-10-16T12:28:28Z</time>
      </trkpt>
      <trkpt lat="39.285272" lon="-5.102343">
        <ele>394.089</ele>
        <time>2021-10-16T12:28:29Z</time>
      </trkpt>
      <trkpt lat="39.284913" lon="-5.102633">
        <ele>393.266</ele>
        <time>2021-10-16T12:28:31Z</time>
      </trkpt>
      <trkpt lat="39.284596" lon="-5.102895">
        <ele>392.335</ele>
        <time>2021-10-16T12:28:33Z</time>
      </trkpt>
      <trkpt lat="39.284309" lon="-5.103130">
        <ele>391.986</ele>
        <time>2021-10-16T12:28:35Z</time>
      </trkpt>
      <trkpt lat="39.284038" lon="-5.103343">
        <ele>392.214</ele>
        <time>2021-10-16T12:28:37Z</time>
      </trkpt>
      <trkpt lat="39.283785" lon="-5.103535">
        <ele>392.208</ele>
        <time>2021-10-16T12:28:39Z</time>
      </trkpt>
      <trkpt lat="39.283662" lon="-5.103620">
        <ele>392.011</ele>
        <time>2021-10-16T12:28:40Z</time>
      </trkpt>
      <trkpt lat="39.283422" lon="-5.103765">
        <ele>391.449</ele>
        <time>2021-10-16T12:28:42Z</time>
      </trkpt>
      <trkpt lat="39.283306" lon="-5.103825">
        <ele>391.418</ele>
        <time>2021-10-16T12:28:43Z</time>
      </trkpt>
      <trkpt lat="39.283191" lon="-5.103879">
        <ele>391.412</ele>
        <time>2021-10-16T12:28:44Z</time>
      </trkpt>
      <trkpt lat="39.282963" lon="-5.103976">
        <ele>390.587</ele>
        <time>2021-10-16T12:28:46Z</time>
      </trkpt>
      <trkpt lat="39.282746" lon="-5.104087">
        <ele>390.496</ele>
        <time>2021-10-16T12:28:48Z</time>
      </trkpt>
      <trkpt lat="39.282573" lon="-5.104263">
        <ele>390.158</ele>
        <time>2021-10-16T12:28:50Z</time>
      </trkpt>
      <trkpt lat="39.282468" lon="-5.104498">
        <ele>390.615</ele>
        <time>2021-10-16T12:28:52Z</time>
      </trkpt>
      <trkpt lat="39.282364" lon="-5.104720">
        <ele>390.932</ele>
        <time>2021-10-16T12:28:54Z</time>
      </trkpt>
      <trkpt lat="39.282294" lon="-5.104802">
        <ele>390.992</ele>
        <time>2021-10-16T12:28:55Z</time>
      </trkpt>
      <trkpt lat="39.282215" lon="-5.104865">
        <ele>390.711</ele>
        <time>2021-10-16T12:28:56Z</time>
      </trkpt>
      <trkpt lat="39.282059" lon="-5.104979">
        <ele>390.508</ele>
        <time>2021-10-16T12:28:58Z</time>
      </trkpt>
      <trkpt lat="39.281980" lon="-5.105036">
        <ele>390.491</ele>
        <time>2021-10-16T12:28:59Z</time>
      </trkpt>
      <trkpt lat="39.281826" lon="-5.105152">
        <ele>390.339</ele>
        <time>2021-10-16T12:29:01Z</time>
      </trkpt>
      <trkpt lat="39.281749" lon="-5.105213">
        <ele>390.558</ele>
        <time>2021-10-16T12:29:02Z</time>
      </trkpt>
      <trkpt lat="39.281601" lon="-5.105337">
        <ele>390.682</ele>
        <time>2021-10-16T12:29:04Z</time>
      </trkpt>
      <trkpt lat="39.281442" lon="-5.105479">
        <ele>390.567</ele>
        <time>2021-10-16T12:29:06Z</time>
      </trkpt>
      <trkpt lat="39.281355" lon="-5.105551">
        <ele>390.746</ele>
        <time>2021-10-16T12:29:07Z</time>
      </trkpt>
      <trkpt lat="39.281170" lon="-5.105692">
        <ele>391.188</ele>
        <time>2021-10-16T12:29:09Z</time>
      </trkpt>
      <trkpt lat="39.281071" lon="-5.105769">
        <ele>391.145</ele>
        <time>2021-10-16T12:29:10Z</time>
      </trkpt>
      <trkpt lat="39.280969" lon="-5.105851">
        <ele>391.147</ele>
        <time>2021-10-16T12:29:11Z</time>
      </trkpt>
      <trkpt lat="39.280760" lon="-5.106025">
        <ele>392.029</ele>
        <time>2021-10-16T12:29:13Z</time>
      </trkpt>
      <trkpt lat="39.280539" lon="-5.106204">
        <ele>391.821</ele>
        <time>2021-10-16T12:29:15Z</time>
      </trkpt>
      <trkpt lat="39.280311" lon="-5.106389">
        <ele>392.608</ele>
        <time>2021-10-16T12:29:17Z</time>
      </trkpt>
      <trkpt lat="39.280198" lon="-5.106481">
        <ele>392.722</ele>
        <time>2021-10-16T12:29:18Z</time>
      </trkpt>
      <trkpt lat="39.280096" lon="-5.106562">
        <ele>392.730</ele>
        <time>2021-10-16T12:29:19Z</time>
      </trkpt>
      <trkpt lat="39.279937" lon="-5.106688">
        <ele>392.659</ele>
        <time>2021-10-16T12:29:21Z</time>
      </trkpt>
      <trkpt lat="39.279811" lon="-5.106796">
        <ele>393.543</ele>
        <time>2021-10-16T12:29:23Z</time>
      </trkpt>
      <trkpt lat="39.279747" lon="-5.106851">
        <ele>393.748</ele>
        <time>2021-10-16T12:29:24Z</time>
      </trkpt>
      <trkpt lat="39.279590" lon="-5.106979">
        <ele>394.757</ele>
        <time>2021-10-16T12:29:26Z</time>
      </trkpt>
      <trkpt lat="39.279427" lon="-5.107108">
        <ele>394.579</ele>
        <time>2021-10-16T12:29:28Z</time>
      </trkpt>
      <trkpt lat="39.279285" lon="-5.107221">
        <ele>394.856</ele>
        <time>2021-10-16T12:29:30Z</time>
      </trkpt>
      <trkpt lat="39.279221" lon="-5.107269">
        <ele>394.972</ele>
        <time>2021-10-16T12:29:31Z</time>
      </trkpt>
      <trkpt lat="39.279162" lon="-5.107315">
        <ele>395.413</ele>
        <time>2021-10-16T12:29:32Z</time>
      </trkpt>
      <trkpt lat="39.279050" lon="-5.107414">
        <ele>396.214</ele>
        <time>2021-10-16T12:29:34Z</time>
      </trkpt>
      <trkpt lat="39.278925" lon="-5.107517">
        <ele>397.208</ele>
        <time>2021-10-16T12:29:36Z</time>
      </trkpt>
      <trkpt lat="39.278785" lon="-5.107626">
        <ele>397.625</ele>
        <time>2021-10-16T12:29:38Z</time>
      </trkpt>
      <trkpt lat="39.278712" lon="-5.107684">
        <ele>398.163</ele>
        <time>2021-10-16T12:29:39Z</time>
      </trkpt>
      <trkpt lat="39.278567" lon="-5.107805">
        <ele>398.712</ele>
        <time>2021-10-16T12:29:41Z</time>
      </trkpt>
      <trkpt lat="39.278487" lon="-5.107870">
        <ele>398.746</ele>
        <time>2021-10-16T12:29:42Z</time>
      </trkpt>
      <trkpt lat="39.278325" lon="-5.108044">
        <ele>400.191</ele>
        <time>2021-10-16T12:29:44Z</time>
      </trkpt>
      <trkpt lat="39.278164" lon="-5.108309">
        <ele>400.150</ele>
        <time>2021-10-16T12:29:46Z</time>
      </trkpt>
      <trkpt lat="39.278093" lon="-5.108483">
        <ele>400.782</ele>
        <time>2021-10-16T12:29:47Z</time>
      </trkpt>
      <trkpt lat="39.277955" lon="-5.108869">
        <ele>402.239</ele>
        <time>2021-10-16T12:29:49Z</time>
      </trkpt>
      <trkpt lat="39.277885" lon="-5.109064">
        <ele>402.277</ele>
        <time>2021-10-16T12:29:50Z</time>
      </trkpt>
      <trkpt lat="39.277746" lon="-5.109449">
        <ele>403.061</ele>
        <time>2021-10-16T12:29:52Z</time>
      </trkpt>
      <trkpt lat="39.277670" lon="-5.109657">
        <ele>402.927</ele>
        <time>2021-10-16T12:29:53Z</time>
      </trkpt>
      <trkpt lat="39.277590" lon="-5.109872">
        <ele>402.608</ele>
        <time>2021-10-16T12:29:54Z</time>
      </trkpt>
      <trkpt lat="39.277505" lon="-5.110089">
        <ele>402.975</ele>
        <time>2021-10-16T12:29:55Z</time>
      </trkpt>
      <trkpt lat="39.277407" lon="-5.110315">
        <ele>402.823</ele>
        <time>2021-10-16T12:29:56Z</time>
      </trkpt>
      <trkpt lat="39.277177" lon="-5.110741">
        <ele>402.652</ele>
        <time>2021-10-16T12:29:58Z</time>
      </trkpt>
      <trkpt lat="39.276920" lon="-5.111157">
        <ele>401.296</ele>
        <time>2021-10-16T12:30:00Z</time>
      </trkpt>
      <trkpt lat="39.276790" lon="-5.111366">
        <ele>400.611</ele>
        <time>2021-10-16T12:30:01Z</time>
      </trkpt>
      <trkpt lat="39.276534" lon="-5.111780">
        <ele>400.150</ele>
        <time>2021-10-16T12:30:03Z</time>
      </trkpt>
      <trkpt lat="39.276406" lon="-5.111990">
        <ele>400.032</ele>
        <time>2021-10-16T12:30:04Z</time>
      </trkpt>
      <trkpt lat="39.276283" lon="-5.112197">
        <ele>399.149</ele>
        <time>2021-10-16T12:30:05Z</time>
      </trkpt>
      <trkpt lat="39.276071" lon="-5.112607">
        <ele>398.159</ele>
        <time>2021-10-16T12:30:07Z</time>
      </trkpt>
      <trkpt lat="39.275975" lon="-5.112829">
        <ele>397.903</ele>
        <time>2021-10-16T12:30:08Z</time>
      </trkpt>
      <trkpt lat="39.275813" lon="-5.113304">
        <ele>396.823</ele>
        <time>2021-10-16T12:30:10Z</time>
      </trkpt>
      <trkpt lat="39.275743" lon="-5.113560">
        <ele>396.408</ele>
        <time>2021-10-16T12:30:11Z</time>
      </trkpt>
      <trkpt lat="39.275632" lon="-5.114074">
        <ele>395.353</ele>
        <time>2021-10-16T12:30:13Z</time>
      </trkpt>
      <trkpt lat="39.275593" lon="-5.114337">
        <ele>394.851</ele>
        <time>2021-10-16T12:30:14Z</time>
      </trkpt>
      <trkpt lat="39.275559" lon="-5.114888">
        <ele>395.170</ele>
        <time>2021-10-16T12:30:16Z</time>
      </trkpt>
      <trkpt lat="39.275514" lon="-5.115468">
        <ele>393.914</ele>
        <time>2021-10-16T12:30:18Z</time>
      </trkpt>
      <trkpt lat="39.275403" lon="-5.116062">
        <ele>392.189</ele>
        <time>2021-10-16T12:30:20Z</time>
      </trkpt>
      <trkpt lat="39.275340" lon="-5.116351">
        <ele>390.788</ele>
        <time>2021-10-16T12:30:21Z</time>
      </trkpt>
      <trkpt lat="39.275241" lon="-5.116906">
        <ele>386.940</ele>
        <time>2021-10-16T12:30:23Z</time>
      </trkpt>
      <trkpt lat="39.275202" lon="-5.117173">
        <ele>385.697</ele>
        <time>2021-10-16T12:30:24Z</time>
      </trkpt>
      <trkpt lat="39.275171" lon="-5.117439">
        <ele>384.398</ele>
        <time>2021-10-16T12:30:25Z</time>
      </trkpt>
      <trkpt lat="39.275112" lon="-5.117978">
        <ele>381.315</ele>
        <time>2021-10-16T12:30:27Z</time>
      </trkpt>
      <trkpt lat="39.275071" lon="-5.118255">
        <ele>380.026</ele>
        <time>2021-10-16T12:30:28Z</time>
      </trkpt>
      <trkpt lat="39.274956" lon="-5.118808">
        <ele>376.908</ele>
        <time>2021-10-16T12:30:30Z</time>
      </trkpt>
      <trkpt lat="39.274890" lon="-5.119093">
        <ele>375.067</ele>
        <time>2021-10-16T12:30:31Z</time>
      </trkpt>
      <trkpt lat="39.274823" lon="-5.119377">
        <ele>374.125</ele>
        <time>2021-10-16T12:30:32Z</time>
      </trkpt>
      <trkpt lat="39.274753" lon="-5.119658">
        <ele>375.044</ele>
        <time>2021-10-16T12:30:33Z</time>
      </trkpt>
      <trkpt lat="39.274583" lon="-5.120181">
        <ele>376.658</ele>
        <time>2021-10-16T12:30:35Z</time>
      </trkpt>
      <trkpt lat="39.274472" lon="-5.120414">
        <ele>378.233</ele>
        <time>2021-10-16T12:30:36Z</time>
      </trkpt>
      <trkpt lat="39.274349" lon="-5.120628">
        <ele>380.482</ele>
        <time>2021-10-16T12:30:37Z</time>
      </trkpt>
      <trkpt lat="39.274219" lon="-5.120836">
        <ele>382.284</ele>
        <time>2021-10-16T12:30:38Z</time>
      </trkpt>
      <trkpt lat="39.273964" lon="-5.121265">
        <ele>384.641</ele>
        <time>2021-10-16T12:30:40Z</time>
      </trkpt>
      <trkpt lat="39.273747" lon="-5.121736">
        <ele>385.775</ele>
        <time>2021-10-16T12:30:42Z</time>
      </trkpt>
      <trkpt lat="39.273658" lon="-5.121988">
        <ele>386.328</ele>
        <time>2021-10-16T12:30:43Z</time>
      </trkpt>
      <trkpt lat="39.273571" lon="-5.122242">
        <ele>386.720</ele>
        <time>2021-10-16T12:30:44Z</time>
      </trkpt>
      <trkpt lat="39.273382" lon="-5.122745">
        <ele>385.808</ele>
        <time>2021-10-16T12:30:46Z</time>
      </trkpt>
      <trkpt lat="39.273261" lon="-5.122982">
        <ele>386.175</ele>
        <time>2021-10-16T12:30:47Z</time>
      </trkpt>
      <trkpt lat="39.272974" lon="-5.123430">
        <ele>385.793</ele>
        <time>2021-10-16T12:30:49Z</time>
      </trkpt>
      <trkpt lat="39.272813" lon="-5.123654">
        <ele>384.482</ele>
        <time>2021-10-16T12:30:50Z</time>
      </trkpt>
      <trkpt lat="39.272643" lon="-5.123879">
        <ele>384.026</ele>
        <time>2021-10-16T12:30:51Z</time>
      </trkpt>
      <trkpt lat="39.272465" lon="-5.124107">
        <ele>383.961</ele>
        <time>2021-10-16T12:30:52Z</time>
      </trkpt>
      <trkpt lat="39.272106" lon="-5.124559">
        <ele>384.470</ele>
        <time>2021-10-16T12:30:54Z</time>
      </trkpt>
      <trkpt lat="39.271915" lon="-5.124771">
        <ele>384.982</ele>
        <time>2021-10-16T12:30:55Z</time>
      </trkpt>
      <trkpt lat="39.271507" lon="-5.125141">
        <ele>385.969</ele>
        <time>2021-10-16T12:30:57Z</time>
      </trkpt>
      <trkpt lat="39.271298" lon="-5.125315">
        <ele>386.753</ele>
        <time>2021-10-16T12:30:58Z</time>
      </trkpt>
      <trkpt lat="39.271095" lon="-5.125494">
        <ele>387.604</ele>
        <time>2021-10-16T12:30:59Z</time>
      </trkpt>
      <trkpt lat="39.270700" lon="-5.125870">
        <ele>390.114</ele>
        <time>2021-10-16T12:31:01Z</time>
      </trkpt>
      <trkpt lat="39.270351" lon="-5.126302">
        <ele>392.408</ele>
        <time>2021-10-16T12:31:03Z</time>
      </trkpt>
      <trkpt lat="39.270197" lon="-5.126541">
        <ele>393.173</ele>
        <time>2021-10-16T12:31:04Z</time>
      </trkpt>
      <trkpt lat="39.270054" lon="-5.126775">
        <ele>394.641</ele>
        <time>2021-10-16T12:31:05Z</time>
      </trkpt>
      <trkpt lat="39.269929" lon="-5.127000">
        <ele>396.320</ele>
        <time>2021-10-16T12:31:06Z</time>
      </trkpt>
      <trkpt lat="39.269739" lon="-5.127449">
        <ele>399.574</ele>
        <time>2021-10-16T12:31:08Z</time>
      </trkpt>
      <trkpt lat="39.269593" lon="-5.127935">
        <ele>401.379</ele>
        <time>2021-10-16T12:31:10Z</time>
      </trkpt>
      <trkpt lat="39.269498" lon="-5.128446">
        <ele>404.248</ele>
        <time>2021-10-16T12:31:12Z</time>
      </trkpt>
      <trkpt lat="39.269483" lon="-5.128694">
        <ele>405.670</ele>
        <time>2021-10-16T12:31:13Z</time>
      </trkpt>
      <trkpt lat="39.269476" lon="-5.128915">
        <ele>406.967</ele>
        <time>2021-10-16T12:31:14Z</time>
      </trkpt>
      <trkpt lat="39.269465" lon="-5.129112">
        <ele>408.225</ele>
        <time>2021-10-16T12:31:15Z</time>
      </trkpt>
      <trkpt lat="39.269410" lon="-5.129494">
        <ele>409.026</ele>
        <time>2021-10-16T12:31:17Z</time>
      </trkpt>
      <trkpt lat="39.269368" lon="-5.129696">
        <ele>408.608</ele>
        <time>2021-10-16T12:31:18Z</time>
      </trkpt>
      <trkpt lat="39.269266" lon="-5.130133">
        <ele>406.608</ele>
        <time>2021-10-16T12:31:20Z</time>
      </trkpt>
      <trkpt lat="39.269151" lon="-5.130621">
        <ele>404.430</ele>
        <time>2021-10-16T12:31:22Z</time>
      </trkpt>
      <trkpt lat="39.268999" lon="-5.131128">
        <ele>402.728</ele>
        <time>2021-10-16T12:31:24Z</time>
      </trkpt>
      <trkpt lat="39.268901" lon="-5.131376">
        <ele>400.817</ele>
        <time>2021-10-16T12:31:25Z</time>
      </trkpt>
      <trkpt lat="39.268789" lon="-5.131624">
        <ele>399.141</ele>
        <time>2021-10-16T12:31:26Z</time>
      </trkpt>
      <trkpt lat="39.268666" lon="-5.131875">
        <ele>397.636</ele>
        <time>2021-10-16T12:31:27Z</time>
      </trkpt>
      <trkpt lat="39.268414" lon="-5.132409">
        <ele>394.545</ele>
        <time>2021-10-16T12:31:29Z</time>
      </trkpt>
      <trkpt lat="39.268149" lon="-5.132968">
        <ele>391.387</ele>
        <time>2021-10-16T12:31:31Z</time>
      </trkpt>
      <trkpt lat="39.268011" lon="-5.133251">
        <ele>390.384</ele>
        <time>2021-10-16T12:31:32Z</time>
      </trkpt>
      <trkpt lat="39.267729" lon="-5.133759">
        <ele>388.526</ele>
        <time>2021-10-16T12:31:34Z</time>
      </trkpt>
      <trkpt lat="39.267427" lon="-5.134193">
        <ele>386.747</ele>
        <time>2021-10-16T12:31:36Z</time>
      </trkpt>
      <trkpt lat="39.267132" lon="-5.134611">
        <ele>385.211</ele>
        <time>2021-10-16T12:31:38Z</time>
      </trkpt>
      <trkpt lat="39.266990" lon="-5.134823">
        <ele>383.808</ele>
        <time>2021-10-16T12:31:39Z</time>
      </trkpt>
      <trkpt lat="39.266713" lon="-5.135257">
        <ele>381.890</ele>
        <time>2021-10-16T12:31:41Z</time>
      </trkpt>
      <trkpt lat="39.266583" lon="-5.135495">
        <ele>380.488</ele>
        <time>2021-10-16T12:31:42Z</time>
      </trkpt>
      <trkpt lat="39.266351" lon="-5.136014">
        <ele>378.947</ele>
        <time>2021-10-16T12:31:44Z</time>
      </trkpt>
      <trkpt lat="39.266136" lon="-5.136554">
        <ele>376.611</ele>
        <time>2021-10-16T12:31:46Z</time>
      </trkpt>
      <trkpt lat="39.266034" lon="-5.136840">
        <ele>376.296</ele>
        <time>2021-10-16T12:31:47Z</time>
      </trkpt>
      <trkpt lat="39.265879" lon="-5.137428">
        <ele>374.375</ele>
        <time>2021-10-16T12:31:49Z</time>
      </trkpt>
      <trkpt lat="39.265779" lon="-5.138036">
        <ele>375.147</ele>
        <time>2021-10-16T12:31:51Z</time>
      </trkpt>
      <trkpt lat="39.265727" lon="-5.138340">
        <ele>374.984</ele>
        <time>2021-10-16T12:31:52Z</time>
      </trkpt>
      <trkpt lat="39.265671" lon="-5.138646">
        <ele>374.396</ele>
        <time>2021-10-16T12:31:53Z</time>
      </trkpt>
      <trkpt lat="39.265556" lon="-5.139267">
        <ele>375.231</ele>
        <time>2021-10-16T12:31:55Z</time>
      </trkpt>
      <trkpt lat="39.265434" lon="-5.139888">
        <ele>375.124</ele>
        <time>2021-10-16T12:31:57Z</time>
      </trkpt>
      <trkpt lat="39.265367" lon="-5.140198">
        <ele>375.008</ele>
        <time>2021-10-16T12:31:58Z</time>
      </trkpt>
      <trkpt lat="39.265213" lon="-5.140804">
        <ele>375.047</ele>
        <time>2021-10-16T12:32:00Z</time>
      </trkpt>
      <trkpt lat="39.265051" lon="-5.141351">
        <ele>375.685</ele>
        <time>2021-10-16T12:32:02Z</time>
      </trkpt>
      <trkpt lat="39.264982" lon="-5.141607">
        <ele>375.614</ele>
        <time>2021-10-16T12:32:03Z</time>
      </trkpt>
      <trkpt lat="39.264923" lon="-5.141860">
        <ele>375.368</ele>
        <time>2021-10-16T12:32:04Z</time>
      </trkpt>
      <trkpt lat="39.264832" lon="-5.142380">
        <ele>373.613</ele>
        <time>2021-10-16T12:32:06Z</time>
      </trkpt>
      <trkpt lat="39.264797" lon="-5.142646">
        <ele>372.832</ele>
        <time>2021-10-16T12:32:07Z</time>
      </trkpt>
      <trkpt lat="39.264743" lon="-5.143220">
        <ele>370.294</ele>
        <time>2021-10-16T12:32:09Z</time>
      </trkpt>
      <trkpt lat="39.264721" lon="-5.143498">
        <ele>368.341</ele>
        <time>2021-10-16T12:32:10Z</time>
      </trkpt>
      <trkpt lat="39.264683" lon="-5.144028">
        <ele>365.322</ele>
        <time>2021-10-16T12:32:12Z</time>
      </trkpt>
      <trkpt lat="39.264662" lon="-5.144284">
        <ele>364.262</ele>
        <time>2021-10-16T12:32:13Z</time>
      </trkpt>
      <trkpt lat="39.264636" lon="-5.144543">
        <ele>363.108</ele>
        <time>2021-10-16T12:32:14Z</time>
      </trkpt>
      <trkpt lat="39.264529" lon="-5.145068">
        <ele>360.508</ele>
        <time>2021-10-16T12:32:16Z</time>
      </trkpt>
      <trkpt lat="39.264429" lon="-5.145328">
        <ele>358.820</ele>
        <time>2021-10-16T12:32:17Z</time>
      </trkpt>
      <trkpt lat="39.264122" lon="-5.145786">
        <ele>354.528</ele>
        <time>2021-10-16T12:32:19Z</time>
      </trkpt>
      <trkpt lat="39.263938" lon="-5.146002">
        <ele>352.867</ele>
        <time>2021-10-16T12:32:20Z</time>
      </trkpt>
      <trkpt lat="39.263629" lon="-5.146478">
        <ele>352.181</ele>
        <time>2021-10-16T12:32:22Z</time>
      </trkpt>
      <trkpt lat="39.263504" lon="-5.146741">
        <ele>352.016</ele>
        <time>2021-10-16T12:32:23Z</time>
      </trkpt>
      <trkpt lat="39.263289" lon="-5.147259">
        <ele>351.375</ele>
        <time>2021-10-16T12:32:25Z</time>
      </trkpt>
      <trkpt lat="39.263178" lon="-5.147511">
        <ele>350.997</ele>
        <time>2021-10-16T12:32:26Z</time>
      </trkpt>
      <trkpt lat="39.262963" lon="-5.147961">
        <ele>350.394</ele>
        <time>2021-10-16T12:32:28Z</time>
      </trkpt>
      <trkpt lat="39.262746" lon="-5.148397">
        <ele>348.757</ele>
        <time>2021-10-16T12:32:30Z</time>
      </trkpt>
      <trkpt lat="39.262664" lon="-5.148624">
        <ele>347.300</ele>
        <time>2021-10-16T12:32:31Z</time>
      </trkpt>
      <trkpt lat="39.262612" lon="-5.148864">
        <ele>346.020</ele>
        <time>2021-10-16T12:32:32Z</time>
      </trkpt>
      <trkpt lat="39.262555" lon="-5.149315">
        <ele>344.308</ele>
        <time>2021-10-16T12:32:34Z</time>
      </trkpt>
      <trkpt lat="39.262496" lon="-5.149534">
        <ele>343.093</ele>
        <time>2021-10-16T12:32:35Z</time>
      </trkpt>
      <trkpt lat="39.262261" lon="-5.149920">
        <ele>341.871</ele>
        <time>2021-10-16T12:32:37Z</time>
      </trkpt>
      <trkpt lat="39.261925" lon="-5.150208">
        <ele>338.790</ele>
        <time>2021-10-16T12:32:39Z</time>
      </trkpt>
      <trkpt lat="39.261640" lon="-5.150522">
        <ele>337.354</ele>
        <time>2021-10-16T12:32:41Z</time>
      </trkpt>
      <trkpt lat="39.261466" lon="-5.150948">
        <ele>333.989</ele>
        <time>2021-10-16T12:32:43Z</time>
      </trkpt>
      <trkpt lat="39.261397" lon="-5.151200">
        <ele>332.578</ele>
        <time>2021-10-16T12:32:44Z</time>
      </trkpt>
      <trkpt lat="39.261210" lon="-5.151676">
        <ele>330.970</ele>
        <time>2021-10-16T12:32:46Z</time>
      </trkpt>
      <trkpt lat="39.261001" lon="-5.152102">
        <ele>328.347</ele>
        <time>2021-10-16T12:32:48Z</time>
      </trkpt>
      <trkpt lat="39.260779" lon="-5.152479">
        <ele>325.165</ele>
        <time>2021-10-16T12:32:50Z</time>
      </trkpt>
      <trkpt lat="39.260642" lon="-5.152625">
        <ele>324.068</ele>
        <time>2021-10-16T12:32:51Z</time>
      </trkpt>
      <trkpt lat="39.260479" lon="-5.152729">
        <ele>323.114</ele>
        <time>2021-10-16T12:32:52Z</time>
      </trkpt>
      <trkpt lat="39.260113" lon="-5.152836">
        <ele>320.908</ele>
        <time>2021-10-16T12:32:54Z</time>
      </trkpt>
      <trkpt lat="39.259938" lon="-5.152873">
        <ele>320.834</ele>
        <time>2021-10-16T12:32:55Z</time>
      </trkpt>
      <trkpt lat="39.259765" lon="-5.152931">
        <ele>320.632</ele>
        <time>2021-10-16T12:32:56Z</time>
      </trkpt>
      <trkpt lat="39.259477" lon="-5.153145">
        <ele>319.351</ele>
        <time>2021-10-16T12:32:58Z</time>
      </trkpt>
      <trkpt lat="39.259356" lon="-5.153311">
        <ele>318.675</ele>
        <time>2021-10-16T12:32:59Z</time>
      </trkpt>
      <trkpt lat="39.259167" lon="-5.153724">
        <ele>317.510</ele>
        <time>2021-10-16T12:33:01Z</time>
      </trkpt>
      <trkpt lat="39.259088" lon="-5.153943">
        <ele>317.569</ele>
        <time>2021-10-16T12:33:02Z</time>
      </trkpt>
      <trkpt lat="39.258959" lon="-5.154378">
        <ele>317.681</ele>
        <time>2021-10-16T12:33:04Z</time>
      </trkpt>
      <trkpt lat="39.258938" lon="-5.154846">
        <ele>317.188</ele>
        <time>2021-10-16T12:33:06Z</time>
      </trkpt>
      <trkpt lat="39.259058" lon="-5.155298">
        <ele>316.358</ele>
        <time>2021-10-16T12:33:08Z</time>
      </trkpt>
      <trkpt lat="39.259167" lon="-5.155516">
        <ele>316.852</ele>
        <time>2021-10-16T12:33:09Z</time>
      </trkpt>
      <trkpt lat="39.259282" lon="-5.155730">
        <ele>317.017</ele>
        <time>2021-10-16T12:33:10Z</time>
      </trkpt>
      <trkpt lat="39.259472" lon="-5.156192">
        <ele>318.208</ele>
        <time>2021-10-16T12:33:12Z</time>
      </trkpt>
      <trkpt lat="39.259579" lon="-5.156744">
        <ele>319.183</ele>
        <time>2021-10-16T12:33:14Z</time>
      </trkpt>
      <trkpt lat="39.259607" lon="-5.157052">
        <ele>319.161</ele>
        <time>2021-10-16T12:33:15Z</time>
      </trkpt>
      <trkpt lat="39.259655" lon="-5.157701">
        <ele>320.120</ele>
        <time>2021-10-16T12:33:17Z</time>
      </trkpt>
      <trkpt lat="39.259703" lon="-5.158344">
        <ele>320.494</ele>
        <time>2021-10-16T12:33:19Z</time>
      </trkpt>
      <trkpt lat="39.259748" lon="-5.158958">
        <ele>319.959</ele>
        <time>2021-10-16T12:33:21Z</time>
      </trkpt>
      <trkpt lat="39.259770" lon="-5.159257">
        <ele>319.948</ele>
        <time>2021-10-16T12:33:22Z</time>
      </trkpt>
      <trkpt lat="39.259817" lon="-5.159833">
        <ele>321.090</ele>
        <time>2021-10-16T12:33:24Z</time>
      </trkpt>
      <trkpt lat="39.259860" lon="-5.160389">
        <ele>321.347</ele>
        <time>2021-10-16T12:33:26Z</time>
      </trkpt>
      <trkpt lat="39.259896" lon="-5.160933">
        <ele>322.496</ele>
        <time>2021-10-16T12:33:28Z</time>
      </trkpt>
      <trkpt lat="39.259917" lon="-5.161199">
        <ele>323.031</ele>
        <time>2021-10-16T12:33:29Z</time>
      </trkpt>
      <trkpt lat="39.259942" lon="-5.161465">
        <ele>322.124</ele>
        <time>2021-10-16T12:33:30Z</time>
      </trkpt>
      <trkpt lat="39.259966" lon="-5.161735">
        <ele>321.508</ele>
        <time>2021-10-16T12:33:31Z</time>
      </trkpt>
      <trkpt lat="39.260009" lon="-5.162305">
        <ele>321.917</ele>
        <time>2021-10-16T12:33:33Z</time>
      </trkpt>
      <trkpt lat="39.260051" lon="-5.162896">
        <ele>323.185</ele>
        <time>2021-10-16T12:33:35Z</time>
      </trkpt>
      <trkpt lat="39.260031" lon="-5.163430">
        <ele>323.894</ele>
        <time>2021-10-16T12:33:37Z</time>
      </trkpt>
      <trkpt lat="39.259893" lon="-5.163911">
        <ele>325.488</ele>
        <time>2021-10-16T12:33:39Z</time>
      </trkpt>
      <trkpt lat="39.259641" lon="-5.164325">
        <ele>328.773</ele>
        <time>2021-10-16T12:33:41Z</time>
      </trkpt>
      <trkpt lat="39.259487" lon="-5.164513">
        <ele>330.832</ele>
        <time>2021-10-16T12:33:42Z</time>
      </trkpt>
      <trkpt lat="39.259227" lon="-5.164935">
        <ele>334.374</ele>
        <time>2021-10-16T12:33:44Z</time>
      </trkpt>
      <trkpt lat="39.259144" lon="-5.165183">
        <ele>335.981</ele>
        <time>2021-10-16T12:33:45Z</time>
      </trkpt>
      <trkpt lat="39.259093" lon="-5.165738">
        <ele>340.698</ele>
        <time>2021-10-16T12:33:47Z</time>
      </trkpt>
      <trkpt lat="39.259113" lon="-5.166037">
        <ele>341.515</ele>
        <time>2021-10-16T12:33:48Z</time>
      </trkpt>
      <trkpt lat="39.259163" lon="-5.166337">
        <ele>343.426</ele>
        <time>2021-10-16T12:33:49Z</time>
      </trkpt>
      <trkpt lat="39.259241" lon="-5.166636">
        <ele>345.408</ele>
        <time>2021-10-16T12:33:50Z</time>
      </trkpt>
      <trkpt lat="39.259451" lon="-5.167211">
        <ele>349.247</ele>
        <time>2021-10-16T12:33:52Z</time>
      </trkpt>
      <trkpt lat="39.259685" lon="-5.167787">
        <ele>353.065</ele>
        <time>2021-10-16T12:33:54Z</time>
      </trkpt>
      <trkpt lat="39.259799" lon="-5.168075">
        <ele>355.084</ele>
        <time>2021-10-16T12:33:55Z</time>
      </trkpt>
      <trkpt lat="39.259909" lon="-5.168348">
        <ele>357.028</ele>
        <time>2021-10-16T12:33:56Z</time>
      </trkpt>
      <trkpt lat="39.260080" lon="-5.168851">
        <ele>361.513</ele>
        <time>2021-10-16T12:33:58Z</time>
      </trkpt>
      <trkpt lat="39.260153" lon="-5.169343">
        <ele>364.582</ele>
        <time>2021-10-16T12:34:00Z</time>
      </trkpt>
      <trkpt lat="39.260093" lon="-5.169865">
        <ele>368.914</ele>
        <time>2021-10-16T12:34:02Z</time>
      </trkpt>
      <trkpt lat="39.260032" lon="-5.170129">
        <ele>370.741</ele>
        <time>2021-10-16T12:34:03Z</time>
      </trkpt>
      <trkpt lat="39.259931" lon="-5.170639">
        <ele>372.039</ele>
        <time>2021-10-16T12:34:05Z</time>
      </trkpt>
      <trkpt lat="39.259885" lon="-5.170897">
        <ele>372.901</ele>
        <time>2021-10-16T12:34:06Z</time>
      </trkpt>
      <trkpt lat="39.259782" lon="-5.171437">
        <ele>373.421</ele>
        <time>2021-10-16T12:34:08Z</time>
      </trkpt>
      <trkpt lat="39.259710" lon="-5.171724">
        <ele>372.808</ele>
        <time>2021-10-16T12:34:09Z</time>
      </trkpt>
      <trkpt lat="39.259625" lon="-5.172014">
        <ele>372.641</ele>
        <time>2021-10-16T12:34:10Z</time>
      </trkpt>
      <trkpt lat="39.259452" lon="-5.172584">
        <ele>371.339</ele>
        <time>2021-10-16T12:34:12Z</time>
      </trkpt>
      <trkpt lat="39.259372" lon="-5.172856">
        <ele>371.568</ele>
        <time>2021-10-16T12:34:13Z</time>
      </trkpt>
      <trkpt lat="39.259222" lon="-5.173363">
        <ele>370.542</ele>
        <time>2021-10-16T12:34:15Z</time>
      </trkpt>
      <trkpt lat="39.259087" lon="-5.173826">
        <ele>370.577</ele>
        <time>2021-10-16T12:34:17Z</time>
      </trkpt>
      <trkpt lat="39.259023" lon="-5.174047">
        <ele>370.096</ele>
        <time>2021-10-16T12:34:18Z</time>
      </trkpt>
      <trkpt lat="39.258902" lon="-5.174468">
        <ele>369.438</ele>
        <time>2021-10-16T12:34:20Z</time>
      </trkpt>
      <trkpt lat="39.258784" lon="-5.174869">
        <ele>367.125</ele>
        <time>2021-10-16T12:34:22Z</time>
      </trkpt>
      <trkpt lat="39.258670" lon="-5.175254">
        <ele>365.079</ele>
        <time>2021-10-16T12:34:24Z</time>
      </trkpt>
      <trkpt lat="39.258558" lon="-5.175657">
        <ele>364.105</ele>
        <time>2021-10-16T12:34:26Z</time>
      </trkpt>
      <trkpt lat="39.258443" lon="-5.176073">
        <ele>362.625</ele>
        <time>2021-10-16T12:34:28Z</time>
      </trkpt>
      <trkpt lat="39.258322" lon="-5.176489">
        <ele>360.508</ele>
        <time>2021-10-16T12:34:30Z</time>
      </trkpt>
      <trkpt lat="39.258263" lon="-5.176692">
        <ele>359.975</ele>
        <time>2021-10-16T12:34:31Z</time>
      </trkpt>
      <trkpt lat="39.258202" lon="-5.176903">
        <ele>358.813</ele>
        <time>2021-10-16T12:34:32Z</time>
      </trkpt>
      <trkpt lat="39.258083" lon="-5.177312">
        <ele>357.972</ele>
        <time>2021-10-16T12:34:34Z</time>
      </trkpt>
      <trkpt lat="39.258021" lon="-5.177523">
        <ele>357.066</ele>
        <time>2021-10-16T12:34:35Z</time>
      </trkpt>
      <trkpt lat="39.257963" lon="-5.177721">
        <ele>356.271</ele>
        <time>2021-10-16T12:34:36Z</time>
      </trkpt>
      <trkpt lat="39.257856" lon="-5.178081">
        <ele>354.580</ele>
        <time>2021-10-16T12:34:38Z</time>
      </trkpt>
      <trkpt lat="39.257764" lon="-5.178394">
        <ele>353.912</ele>
        <time>2021-10-16T12:34:40Z</time>
      </trkpt>
      <trkpt lat="39.257721" lon="-5.178531">
        <ele>354.099</ele>
        <time>2021-10-16T12:34:41Z</time>
      </trkpt>
      <trkpt lat="39.257654" lon="-5.178756">
        <ele>352.487</ele>
        <time>2021-10-16T12:34:43Z</time>
      </trkpt>
      <trkpt lat="39.257613" lon="-5.178919">
        <ele>352.142</ele>
        <time>2021-10-16T12:34:45Z</time>
      </trkpt>
      <trkpt lat="39.257601" lon="-5.179015">
        <ele>351.126</ele>
        <time>2021-10-16T12:34:47Z</time>
      </trkpt>
      <trkpt lat="39.257611" lon="-5.179083">
        <ele>351.008</ele>
        <time>2021-10-16T12:34:49Z</time>
      </trkpt>
      <trkpt lat="39.257638" lon="-5.179163">
        <ele>350.816</ele>
        <time>2021-10-16T12:34:51Z</time>
      </trkpt>
      <trkpt lat="39.257661" lon="-5.179226">
        <ele>350.784</ele>
        <time>2021-10-16T12:34:53Z</time>
      </trkpt>
      <trkpt lat="39.257682" lon="-5.179279">
        <ele>351.153</ele>
        <time>2021-10-16T12:34:56Z</time>
      </trkpt>
      <trkpt lat="39.257689" lon="-5.179355">
        <ele>351.397</ele>
        <time>2021-10-16T12:34:58Z</time>
      </trkpt>
      <trkpt lat="39.257664" lon="-5.179415">
        <ele>351.992</ele>
        <time>2021-10-16T12:35:00Z</time>
      </trkpt>
      <trkpt lat="39.257603" lon="-5.179461">
        <ele>375.651</ele>
        <time>2021-10-16T12:44:21Z</time>
      </trkpt>
      <trkpt lat="39.257548" lon="-5.179465">
        <ele>390.373</ele>
        <time>2021-10-16T12:44:23Z</time>
      </trkpt>
      <trkpt lat="39.257506" lon="-5.179491">
        <ele>390.390</ele>
        <time>2021-10-16T12:44:26Z</time>
      </trkpt>
      <trkpt lat="39.257562" lon="-5.179508">
        <ele>390.324</ele>
        <time>2021-10-16T12:53:27Z</time>
      </trkpt>
      <trkpt lat="39.257563" lon="-5.179570">
        <ele>390.304</ele>
        <time>2021-10-16T13:07:22Z</time>
      </trkpt>
      <trkpt lat="39.257518" lon="-5.179594">
        <ele>390.314</ele>
        <time>2021-10-16T13:07:24Z</time>
      </trkpt>
      <trkpt lat="39.257464" lon="-5.179632">
        <ele>390.308</ele>
        <time>2021-10-16T13:07:26Z</time>
      </trkpt>
      <trkpt lat="39.257425" lon="-5.179685">
        <ele>390.350</ele>
        <time>2021-10-16T13:07:28Z</time>
      </trkpt>
      <trkpt lat="39.257396" lon="-5.179751">
        <ele>390.338</ele>
        <time>2021-10-16T13:07:30Z</time>
      </trkpt>
      <trkpt lat="39.257375" lon="-5.179807">
        <ele>390.357</ele>
        <time>2021-10-16T13:07:31Z</time>
      </trkpt>
      <trkpt lat="39.257348" lon="-5.179893">
        <ele>390.311</ele>
        <time>2021-10-16T13:07:32Z</time>
      </trkpt>
      <trkpt lat="39.257286" lon="-5.180123">
        <ele>390.376</ele>
        <time>2021-10-16T13:07:34Z</time>
      </trkpt>
      <trkpt lat="39.257253" lon="-5.180242">
        <ele>390.325</ele>
        <time>2021-10-16T13:07:35Z</time>
      </trkpt>
      <trkpt lat="39.257197" lon="-5.180455">
        <ele>390.317</ele>
        <time>2021-10-16T13:07:37Z</time>
      </trkpt>
      <trkpt lat="39.257169" lon="-5.180566">
        <ele>390.314</ele>
        <time>2021-10-16T13:07:38Z</time>
      </trkpt>
      <trkpt lat="39.257101" lon="-5.180802">
        <ele>390.385</ele>
        <time>2021-10-16T13:07:40Z</time>
      </trkpt>
      <trkpt lat="39.257017" lon="-5.181072">
        <ele>390.389</ele>
        <time>2021-10-16T13:07:42Z</time>
      </trkpt>
      <trkpt lat="39.256911" lon="-5.181387">
        <ele>390.317</ele>
        <time>2021-10-16T13:07:44Z</time>
      </trkpt>
      <trkpt lat="39.256789" lon="-5.181762">
        <ele>390.308</ele>
        <time>2021-10-16T13:07:46Z</time>
      </trkpt>
      <trkpt lat="39.256663" lon="-5.182134">
        <ele>390.386</ele>
        <time>2021-10-16T13:07:48Z</time>
      </trkpt>
      <trkpt lat="39.256587" lon="-5.182312">
        <ele>390.314</ele>
        <time>2021-10-16T13:07:49Z</time>
      </trkpt>
      <trkpt lat="39.256500" lon="-5.182475">
        <ele>390.313</ele>
        <time>2021-10-16T13:07:50Z</time>
      </trkpt>
      <trkpt lat="39.256350" lon="-5.182709">
        <ele>390.357</ele>
        <time>2021-10-16T13:07:52Z</time>
      </trkpt>
      <trkpt lat="39.256285" lon="-5.182807">
        <ele>390.352</ele>
        <time>2021-10-16T13:07:53Z</time>
      </trkpt>
      <trkpt lat="39.256166" lon="-5.182992">
        <ele>390.271</ele>
        <time>2021-10-16T13:07:55Z</time>
      </trkpt>
      <trkpt lat="39.256040" lon="-5.183185">
        <ele>390.283</ele>
        <time>2021-10-16T13:07:57Z</time>
      </trkpt>
      <trkpt lat="39.255880" lon="-5.183420">
        <ele>390.240</ele>
        <time>2021-10-16T13:07:59Z</time>
      </trkpt>
      <trkpt lat="39.255714" lon="-5.183673">
        <ele>390.368</ele>
        <time>2021-10-16T13:08:01Z</time>
      </trkpt>
      <trkpt lat="39.255626" lon="-5.183810">
        <ele>390.342</ele>
        <time>2021-10-16T13:08:02Z</time>
      </trkpt>
      <trkpt lat="39.255456" lon="-5.184075">
        <ele>390.326</ele>
        <time>2021-10-16T13:08:04Z</time>
      </trkpt>
      <trkpt lat="39.255286" lon="-5.184331">
        <ele>390.308</ele>
        <time>2021-10-16T13:08:06Z</time>
      </trkpt>
      <trkpt lat="39.255207" lon="-5.184450">
        <ele>390.384</ele>
        <time>2021-10-16T13:08:07Z</time>
      </trkpt>
      <trkpt lat="39.255125" lon="-5.184565">
        <ele>390.342</ele>
        <time>2021-10-16T13:08:08Z</time>
      </trkpt>
      <trkpt lat="39.254953" lon="-5.184777">
        <ele>390.341</ele>
        <time>2021-10-16T13:08:10Z</time>
      </trkpt>
      <trkpt lat="39.254851" lon="-5.184892">
        <ele>390.395</ele>
        <time>2021-10-16T13:08:11Z</time>
      </trkpt>
      <trkpt lat="39.254612" lon="-5.185128">
        <ele>390.340</ele>
        <time>2021-10-16T13:08:13Z</time>
      </trkpt>
      <trkpt lat="39.254489" lon="-5.185246">
        <ele>390.359</ele>
        <time>2021-10-16T13:08:14Z</time>
      </trkpt>
      <trkpt lat="39.254273" lon="-5.185463">
        <ele>390.391</ele>
        <time>2021-10-16T13:08:16Z</time>
      </trkpt>
      <trkpt lat="39.254174" lon="-5.185582">
        <ele>390.338</ele>
        <time>2021-10-16T13:08:17Z</time>
      </trkpt>
      <trkpt lat="39.253988" lon="-5.185836">
        <ele>390.329</ele>
        <time>2021-10-16T13:08:19Z</time>
      </trkpt>
      <trkpt lat="39.253892" lon="-5.185979">
        <ele>390.300</ele>
        <time>2021-10-16T13:08:20Z</time>
      </trkpt>
      <trkpt lat="39.253696" lon="-5.186275">
        <ele>325.620</ele>
        <time>2021-10-16T13:08:22Z</time>
      </trkpt>
      <trkpt lat="39.253595" lon="-5.186431">
        <ele>325.408</ele>
        <time>2021-10-16T13:08:23Z</time>
      </trkpt>
      <trkpt lat="39.253494" lon="-5.186586">
        <ele>325.150</ele>
        <time>2021-10-16T13:08:24Z</time>
      </trkpt>
      <trkpt lat="39.253398" lon="-5.186735">
        <ele>324.278</ele>
        <time>2021-10-16T13:08:25Z</time>
      </trkpt>
      <trkpt lat="39.253305" lon="-5.186882">
        <ele>323.817</ele>
        <time>2021-10-16T13:08:26Z</time>
      </trkpt>
      <trkpt lat="39.253133" lon="-5.187152">
        <ele>323.321</ele>
        <time>2021-10-16T13:08:28Z</time>
      </trkpt>
      <trkpt lat="39.252953" lon="-5.187434">
        <ele>322.626</ele>
        <time>2021-10-16T13:08:30Z</time>
      </trkpt>
      <trkpt lat="39.252855" lon="-5.187582">
        <ele>322.325</ele>
        <time>2021-10-16T13:08:31Z</time>
      </trkpt>
      <trkpt lat="39.252655" lon="-5.187886">
        <ele>321.757</ele>
        <time>2021-10-16T13:08:33Z</time>
      </trkpt>
      <trkpt lat="39.252454" lon="-5.188189">
        <ele>320.974</ele>
        <time>2021-10-16T13:08:35Z</time>
      </trkpt>
      <trkpt lat="39.252271" lon="-5.188464">
        <ele>321.394</ele>
        <time>2021-10-16T13:08:37Z</time>
      </trkpt>
      <trkpt lat="39.252183" lon="-5.188595">
        <ele>321.957</ele>
        <time>2021-10-16T13:08:38Z</time>
      </trkpt>
      <trkpt lat="39.252011" lon="-5.188839">
        <ele>322.022</ele>
        <time>2021-10-16T13:08:40Z</time>
      </trkpt>
      <trkpt lat="39.251909" lon="-5.188968">
        <ele>322.508</ele>
        <time>2021-10-16T13:08:41Z</time>
      </trkpt>
      <trkpt lat="39.251692" lon="-5.189188">
        <ele>321.647</ele>
        <time>2021-10-16T13:08:43Z</time>
      </trkpt>
      <trkpt lat="39.251578" lon="-5.189279">
        <ele>321.455</ele>
        <time>2021-10-16T13:08:44Z</time>
      </trkpt>
      <trkpt lat="39.251375" lon="-5.189420">
        <ele>321.494</ele>
        <time>2021-10-16T13:08:46Z</time>
      </trkpt>
      <trkpt lat="39.251193" lon="-5.189545">
        <ele>321.728</ele>
        <time>2021-10-16T13:08:48Z</time>
      </trkpt>
      <trkpt lat="39.251062" lon="-5.189642">
        <ele>322.133</ele>
        <time>2021-10-16T13:08:50Z</time>
      </trkpt>
      <trkpt lat="39.250956" lon="-5.189692">
        <ele>322.032</ele>
        <time>2021-10-16T13:08:52Z</time>
      </trkpt>
      <trkpt lat="39.250843" lon="-5.189642">
        <ele>322.224</ele>
        <time>2021-10-16T13:08:54Z</time>
      </trkpt>
      <trkpt lat="39.250791" lon="-5.189569">
        <ele>321.841</ele>
        <time>2021-10-16T13:08:55Z</time>
      </trkpt>
      <trkpt lat="39.250737" lon="-5.189463">
        <ele>321.884</ele>
        <time>2021-10-16T13:08:56Z</time>
      </trkpt>
      <trkpt lat="39.250575" lon="-5.189273">
        <ele>322.307</ele>
        <time>2021-10-16T13:08:58Z</time>
      </trkpt>
      <trkpt lat="39.250314" lon="-5.189138">
        <ele>322.817</ele>
        <time>2021-10-16T13:09:00Z</time>
      </trkpt>
      <trkpt lat="39.249980" lon="-5.188996">
        <ele>322.608</ele>
        <time>2021-10-16T13:09:02Z</time>
      </trkpt>
      <trkpt lat="39.249672" lon="-5.188862">
        <ele>322.456</ele>
        <time>2021-10-16T13:09:04Z</time>
      </trkpt>
      <trkpt lat="39.249531" lon="-5.188803">
        <ele>322.734</ele>
        <time>2021-10-16T13:09:05Z</time>
      </trkpt>
      <trkpt lat="39.249398" lon="-5.188744">
        <ele>323.563</ele>
        <time>2021-10-16T13:09:06Z</time>
      </trkpt>
      <trkpt lat="39.249138" lon="-5.188629">
        <ele>324.667</ele>
        <time>2021-10-16T13:09:08Z</time>
      </trkpt>
      <trkpt lat="39.248882" lon="-5.188519">
        <ele>325.072</ele>
        <time>2021-10-16T13:09:10Z</time>
      </trkpt>
      <trkpt lat="39.248615" lon="-5.188392">
        <ele>324.721</ele>
        <time>2021-10-16T13:09:12Z</time>
      </trkpt>
      <trkpt lat="39.248474" lon="-5.188324">
        <ele>324.453</ele>
        <time>2021-10-16T13:09:13Z</time>
      </trkpt>
      <trkpt lat="39.248323" lon="-5.188253">
        <ele>324.150</ele>
        <time>2021-10-16T13:09:14Z</time>
      </trkpt>
      <trkpt lat="39.248013" lon="-5.188106">
        <ele>322.958</ele>
        <time>2021-10-16T13:09:16Z</time>
      </trkpt>
      <trkpt lat="39.247654" lon="-5.187953">
        <ele>323.952</ele>
        <time>2021-10-16T13:09:18Z</time>
      </trkpt>
      <trkpt lat="39.247459" lon="-5.187867">
        <ele>324.217</ele>
        <time>2021-10-16T13:09:19Z</time>
      </trkpt>
      <trkpt lat="39.247258" lon="-5.187776">
        <ele>323.608</ele>
        <time>2021-10-16T13:09:20Z</time>
      </trkpt>
      <trkpt lat="39.246876" lon="-5.187592">
        <ele>322.583</ele>
        <time>2021-10-16T13:09:22Z</time>
      </trkpt>
      <trkpt lat="39.246485" lon="-5.187417">
        <ele>321.791</ele>
        <time>2021-10-16T13:09:24Z</time>
      </trkpt>
      <trkpt lat="39.246089" lon="-5.187246">
        <ele>322.460</ele>
        <time>2021-10-16T13:09:26Z</time>
      </trkpt>
      <trkpt lat="39.245718" lon="-5.187079">
        <ele>322.334</ele>
        <time>2021-10-16T13:09:28Z</time>
      </trkpt>
      <trkpt lat="39.245349" lon="-5.186903">
        <ele>322.429</ele>
        <time>2021-10-16T13:09:30Z</time>
      </trkpt>
      <trkpt lat="39.245164" lon="-5.186816">
        <ele>321.788</ele>
        <time>2021-10-16T13:09:31Z</time>
      </trkpt>
      <trkpt lat="39.244983" lon="-5.186728">
        <ele>321.120</ele>
        <time>2021-10-16T13:09:32Z</time>
      </trkpt>
      <trkpt lat="39.244664" lon="-5.186578">
        <ele>319.777</ele>
        <time>2021-10-16T13:09:34Z</time>
      </trkpt>
      <trkpt lat="39.244504" lon="-5.186502">
        <ele>319.523</ele>
        <time>2021-10-16T13:09:35Z</time>
      </trkpt>
      <trkpt lat="39.244355" lon="-5.186431">
        <ele>319.083</ele>
        <time>2021-10-16T13:09:36Z</time>
      </trkpt>
      <trkpt lat="39.244083" lon="-5.186313">
        <ele>319.211</ele>
        <time>2021-10-16T13:09:38Z</time>
      </trkpt>
      <trkpt lat="39.243837" lon="-5.186204">
        <ele>318.908</ele>
        <time>2021-10-16T13:09:40Z</time>
      </trkpt>
      <trkpt lat="39.243573" lon="-5.186087">
        <ele>318.880</ele>
        <time>2021-10-16T13:09:42Z</time>
      </trkpt>
      <trkpt lat="39.243434" lon="-5.186030">
        <ele>319.658</ele>
        <time>2021-10-16T13:09:43Z</time>
      </trkpt>
      <trkpt lat="39.243286" lon="-5.185968">
        <ele>320.157</ele>
        <time>2021-10-16T13:09:44Z</time>
      </trkpt>
      <trkpt lat="39.242993" lon="-5.185841">
        <ele>320.661</ele>
        <time>2021-10-16T13:09:46Z</time>
      </trkpt>
      <trkpt lat="39.242687" lon="-5.185700">
        <ele>321.496</ele>
        <time>2021-10-16T13:09:48Z</time>
      </trkpt>
      <trkpt lat="39.242355" lon="-5.185520">
        <ele>323.335</ele>
        <time>2021-10-16T13:09:50Z</time>
      </trkpt>
      <trkpt lat="39.242033" lon="-5.185286">
        <ele>324.827</ele>
        <time>2021-10-16T13:09:52Z</time>
      </trkpt>
      <trkpt lat="39.241881" lon="-5.185144">
        <ele>325.694</ele>
        <time>2021-10-16T13:09:53Z</time>
      </trkpt>
      <trkpt lat="39.241586" lon="-5.184854">
        <ele>326.042</ele>
        <time>2021-10-16T13:09:55Z</time>
      </trkpt>
      <trkpt lat="39.241434" lon="-5.184705">
        <ele>326.622</ele>
        <time>2021-10-16T13:09:56Z</time>
      </trkpt>
      <trkpt lat="39.241141" lon="-5.184418">
        <ele>327.414</ele>
        <time>2021-10-16T13:09:58Z</time>
      </trkpt>
      <trkpt lat="39.240842" lon="-5.184116">
        <ele>327.708</ele>
        <time>2021-10-16T13:10:00Z</time>
      </trkpt>
      <trkpt lat="39.240521" lon="-5.183806">
        <ele>326.942</ele>
        <time>2021-10-16T13:10:02Z</time>
      </trkpt>
      <trkpt lat="39.240198" lon="-5.183498">
        <ele>325.030</ele>
        <time>2021-10-16T13:10:04Z</time>
      </trkpt>
      <trkpt lat="39.240031" lon="-5.183337">
        <ele>325.589</ele>
        <time>2021-10-16T13:10:05Z</time>
      </trkpt>
      <trkpt lat="39.239711" lon="-5.183011">
        <ele>326.453</ele>
        <time>2021-10-16T13:10:07Z</time>
      </trkpt>
      <trkpt lat="39.239557" lon="-5.182828">
        <ele>326.558</ele>
        <time>2021-10-16T13:10:08Z</time>
      </trkpt>
      <trkpt lat="39.239285" lon="-5.182437">
        <ele>326.317</ele>
        <time>2021-10-16T13:10:10Z</time>
      </trkpt>
      <trkpt lat="39.239150" lon="-5.182218">
        <ele>326.239</ele>
        <time>2021-10-16T13:10:11Z</time>
      </trkpt>
      <trkpt lat="39.238900" lon="-5.181805">
        <ele>326.496</ele>
        <time>2021-10-16T13:10:13Z</time>
      </trkpt>
      <trkpt lat="39.238768" lon="-5.181589">
        <ele>326.364</ele>
        <time>2021-10-16T13:10:14Z</time>
      </trkpt>
      <trkpt lat="39.238516" lon="-5.181179">
        <ele>326.606</ele>
        <time>2021-10-16T13:10:16Z</time>
      </trkpt>
      <trkpt lat="39.238261" lon="-5.180762">
        <ele>325.816</ele>
        <time>2021-10-16T13:10:18Z</time>
      </trkpt>
      <trkpt lat="39.238132" lon="-5.180552">
        <ele>325.608</ele>
        <time>2021-10-16T13:10:19Z</time>
      </trkpt>
      <trkpt lat="39.238001" lon="-5.180338">
        <ele>325.674</ele>
        <time>2021-10-16T13:10:20Z</time>
      </trkpt>
      <trkpt lat="39.237755" lon="-5.179937">
        <ele>324.072</ele>
        <time>2021-10-16T13:10:22Z</time>
      </trkpt>
      <trkpt lat="39.237506" lon="-5.179534">
        <ele>322.571</ele>
        <time>2021-10-16T13:10:24Z</time>
      </trkpt>
      <trkpt lat="39.237382" lon="-5.179333">
        <ele>322.315</ele>
        <time>2021-10-16T13:10:25Z</time>
      </trkpt>
      <trkpt lat="39.237257" lon="-5.179131">
        <ele>322.290</ele>
        <time>2021-10-16T13:10:26Z</time>
      </trkpt>
      <trkpt lat="39.237031" lon="-5.178770">
        <ele>322.559</ele>
        <time>2021-10-16T13:10:28Z</time>
      </trkpt>
      <trkpt lat="39.236814" lon="-5.178438">
        <ele>323.291</ele>
        <time>2021-10-16T13:10:30Z</time>
      </trkpt>
      <trkpt lat="39.236700" lon="-5.178286">
        <ele>323.658</ele>
        <time>2021-10-16T13:10:31Z</time>
      </trkpt>
      <trkpt lat="39.236573" lon="-5.178147">
        <ele>323.817</ele>
        <time>2021-10-16T13:10:32Z</time>
      </trkpt>
      <trkpt lat="39.236283" lon="-5.177985">
        <ele>324.187</ele>
        <time>2021-10-16T13:10:34Z</time>
      </trkpt>
      <trkpt lat="39.235941" lon="-5.177944">
        <ele>324.115</ele>
        <time>2021-10-16T13:10:36Z</time>
      </trkpt>
      <trkpt lat="39.235754" lon="-5.177950">
        <ele>323.708</ele>
        <time>2021-10-16T13:10:37Z</time>
      </trkpt>
      <trkpt lat="39.235557" lon="-5.177950">
        <ele>323.879</ele>
        <time>2021-10-16T13:10:38Z</time>
      </trkpt>
      <trkpt lat="39.235192" lon="-5.177938">
        <ele>322.427</ele>
        <time>2021-10-16T13:10:40Z</time>
      </trkpt>
      <trkpt lat="39.235016" lon="-5.177924">
        <ele>322.066</ele>
        <time>2021-10-16T13:10:41Z</time>
      </trkpt>
      <trkpt lat="39.234679" lon="-5.177846">
        <ele>322.170</ele>
        <time>2021-10-16T13:10:43Z</time>
      </trkpt>
      <trkpt lat="39.234515" lon="-5.177764">
        <ele>322.545</ele>
        <time>2021-10-16T13:10:44Z</time>
      </trkpt>
      <trkpt lat="39.234228" lon="-5.177528">
        <ele>323.454</ele>
        <time>2021-10-16T13:10:46Z</time>
      </trkpt>
      <trkpt lat="39.233962" lon="-5.177251">
        <ele>323.266</ele>
        <time>2021-10-16T13:10:48Z</time>
      </trkpt>
      <trkpt lat="39.233695" lon="-5.176995">
        <ele>324.283</ele>
        <time>2021-10-16T13:10:50Z</time>
      </trkpt>
      <trkpt lat="39.233454" lon="-5.176756">
        <ele>324.995</ele>
        <time>2021-10-16T13:10:52Z</time>
      </trkpt>
      <trkpt lat="39.233328" lon="-5.176641">
        <ele>324.249</ele>
        <time>2021-10-16T13:10:53Z</time>
      </trkpt>
      <trkpt lat="39.233092" lon="-5.176459">
        <ele>322.723</ele>
        <time>2021-10-16T13:10:55Z</time>
      </trkpt>
      <trkpt lat="39.232987" lon="-5.176391">
        <ele>322.508</ele>
        <time>2021-10-16T13:10:56Z</time>
      </trkpt>
      <trkpt lat="39.232785" lon="-5.176264">
        <ele>321.817</ele>
        <time>2021-10-16T13:10:58Z</time>
      </trkpt>
      <trkpt lat="39.232583" lon="-5.176118">
        <ele>321.875</ele>
        <time>2021-10-16T13:11:00Z</time>
      </trkpt>
      <trkpt lat="39.232473" lon="-5.176043">
        <ele>321.694</ele>
        <time>2021-10-16T13:11:01Z</time>
      </trkpt>
      <trkpt lat="39.232356" lon="-5.175963">
        <ele>320.988</ele>
        <time>2021-10-16T13:11:02Z</time>
      </trkpt>
      <trkpt lat="39.232119" lon="-5.175797">
        <ele>320.353</ele>
        <time>2021-10-16T13:11:04Z</time>
      </trkpt>
      <trkpt lat="39.231849" lon="-5.175607">
        <ele>319.862</ele>
        <time>2021-10-16T13:11:06Z</time>
      </trkpt>
      <trkpt lat="39.231699" lon="-5.175501">
        <ele>320.114</ele>
        <time>2021-10-16T13:11:07Z</time>
      </trkpt>
      <trkpt lat="39.231535" lon="-5.175388">
        <ele>320.091</ele>
        <time>2021-10-16T13:11:08Z</time>
      </trkpt>
      <trkpt lat="39.231208" lon="-5.175155">
        <ele>319.152</ele>
        <time>2021-10-16T13:11:10Z</time>
      </trkpt>
      <trkpt lat="39.231034" lon="-5.175033">
        <ele>318.853</ele>
        <time>2021-10-16T13:11:11Z</time>
      </trkpt>
      <trkpt lat="39.230858" lon="-5.174915">
        <ele>318.608</ele>
        <time>2021-10-16T13:11:12Z</time>
      </trkpt>
      <trkpt lat="39.230504" lon="-5.174675">
        <ele>319.008</ele>
        <time>2021-10-16T13:11:14Z</time>
      </trkpt>
      <trkpt lat="39.230176" lon="-5.174441">
        <ele>318.833</ele>
        <time>2021-10-16T13:11:16Z</time>
      </trkpt>
      <trkpt lat="39.230012" lon="-5.174318">
        <ele>318.531</ele>
        <time>2021-10-16T13:11:17Z</time>
      </trkpt>
      <trkpt lat="39.229688" lon="-5.174071">
        <ele>318.970</ele>
        <time>2021-10-16T13:11:19Z</time>
      </trkpt>
      <trkpt lat="39.229525" lon="-5.173941">
        <ele>319.114</ele>
        <time>2021-10-16T13:11:20Z</time>
      </trkpt>
      <trkpt lat="39.229217" lon="-5.173693">
        <ele>320.199</ele>
        <time>2021-10-16T13:11:22Z</time>
      </trkpt>
      <trkpt lat="39.229061" lon="-5.173564">
        <ele>320.148</ele>
        <time>2021-10-16T13:11:23Z</time>
      </trkpt>
      <trkpt lat="39.228905" lon="-5.173439">
        <ele>320.330</ele>
        <time>2021-10-16T13:11:24Z</time>
      </trkpt>
      <trkpt lat="39.228589" lon="-5.173188">
        <ele>320.587</ele>
        <time>2021-10-16T13:11:26Z</time>
      </trkpt>
      <trkpt lat="39.228286" lon="-5.172949">
        <ele>320.242</ele>
        <time>2021-10-16T13:11:28Z</time>
      </trkpt>
      <trkpt lat="39.228131" lon="-5.172826">
        <ele>320.822</ele>
        <time>2021-10-16T13:11:29Z</time>
      </trkpt>
      <trkpt lat="39.227976" lon="-5.172702">
        <ele>321.314</ele>
        <time>2021-10-16T13:11:30Z</time>
      </trkpt>
      <trkpt lat="39.227659" lon="-5.172440">
        <ele>322.108</ele>
        <time>2021-10-16T13:11:32Z</time>
      </trkpt>
      <trkpt lat="39.227343" lon="-5.172180">
        <ele>323.182</ele>
        <time>2021-10-16T13:11:34Z</time>
      </trkpt>
      <trkpt lat="39.227021" lon="-5.171917">
        <ele>324.070</ele>
        <time>2021-10-16T13:11:36Z</time>
      </trkpt>
      <trkpt lat="39.226856" lon="-5.171790">
        <ele>324.789</ele>
        <time>2021-10-16T13:11:37Z</time>
      </trkpt>
      <trkpt lat="39.226684" lon="-5.171656">
        <ele>324.623</ele>
        <time>2021-10-16T13:11:38Z</time>
      </trkpt>
      <trkpt lat="39.226354" lon="-5.171391">
        <ele>325.498</ele>
        <time>2021-10-16T13:11:40Z</time>
      </trkpt>
      <trkpt lat="39.226180" lon="-5.171249">
        <ele>325.057</ele>
        <time>2021-10-16T13:11:41Z</time>
      </trkpt>
      <trkpt lat="39.226003" lon="-5.171103">
        <ele>324.129</ele>
        <time>2021-10-16T13:11:42Z</time>
      </trkpt>
      <trkpt lat="39.225650" lon="-5.170815">
        <ele>321.746</ele>
        <time>2021-10-16T13:11:44Z</time>
      </trkpt>
      <trkpt lat="39.225295" lon="-5.170564">
        <ele>320.247</ele>
        <time>2021-10-16T13:11:46Z</time>
      </trkpt>
      <trkpt lat="39.225110" lon="-5.170447">
        <ele>320.029</ele>
        <time>2021-10-16T13:11:47Z</time>
      </trkpt>
      <trkpt lat="39.224926" lon="-5.170331">
        <ele>321.021</ele>
        <time>2021-10-16T13:11:48Z</time>
      </trkpt>
      <trkpt lat="39.224576" lon="-5.170083">
        <ele>323.008</ele>
        <time>2021-10-16T13:11:50Z</time>
      </trkpt>
      <trkpt lat="39.224260" lon="-5.169787">
        <ele>324.412</ele>
        <time>2021-10-16T13:11:52Z</time>
      </trkpt>
      <trkpt lat="39.223930" lon="-5.169484">
        <ele>325.850</ele>
        <time>2021-10-16T13:11:54Z</time>
      </trkpt>
      <trkpt lat="39.223569" lon="-5.169164">
        <ele>324.799</ele>
        <time>2021-10-16T13:11:56Z</time>
      </trkpt>
      <trkpt lat="39.223200" lon="-5.168860">
        <ele>324.153</ele>
        <time>2021-10-16T13:11:58Z</time>
      </trkpt>
      <trkpt lat="39.223009" lon="-5.168705">
        <ele>323.478</ele>
        <time>2021-10-16T13:11:59Z</time>
      </trkpt>
      <trkpt lat="39.222821" lon="-5.168552">
        <ele>323.097</ele>
        <time>2021-10-16T13:12:00Z</time>
      </trkpt>
      <trkpt lat="39.222454" lon="-5.168256">
        <ele>323.299</ele>
        <time>2021-10-16T13:12:02Z</time>
      </trkpt>
      <trkpt lat="39.222111" lon="-5.167979">
        <ele>322.836</ele>
        <time>2021-10-16T13:12:04Z</time>
      </trkpt>
      <trkpt lat="39.221742" lon="-5.167712">
        <ele>322.358</ele>
        <time>2021-10-16T13:12:06Z</time>
      </trkpt>
      <trkpt lat="39.221354" lon="-5.167492">
        <ele>322.352</ele>
        <time>2021-10-16T13:12:08Z</time>
      </trkpt>
      <trkpt lat="39.220949" lon="-5.167335">
        <ele>322.117</ele>
        <time>2021-10-16T13:12:10Z</time>
      </trkpt>
      <trkpt lat="39.220524" lon="-5.167207">
        <ele>323.208</ele>
        <time>2021-10-16T13:12:12Z</time>
      </trkpt>
      <trkpt lat="39.220093" lon="-5.167074">
        <ele>324.233</ele>
        <time>2021-10-16T13:12:14Z</time>
      </trkpt>
      <trkpt lat="39.219680" lon="-5.166949">
        <ele>325.351</ele>
        <time>2021-10-16T13:12:16Z</time>
      </trkpt>
      <trkpt lat="39.219471" lon="-5.166886">
        <ele>326.040</ele>
        <time>2021-10-16T13:12:17Z</time>
      </trkpt>
      <trkpt lat="39.219058" lon="-5.166758">
        <ele>328.314</ele>
        <time>2021-10-16T13:12:19Z</time>
      </trkpt>
      <trkpt lat="39.218850" lon="-5.166693">
        <ele>328.639</ele>
        <time>2021-10-16T13:12:20Z</time>
      </trkpt>
      <trkpt lat="39.218455" lon="-5.166569">
        <ele>329.678</ele>
        <time>2021-10-16T13:12:22Z</time>
      </trkpt>
      <trkpt lat="39.218253" lon="-5.166505">
        <ele>330.340</ele>
        <time>2021-10-16T13:12:23Z</time>
      </trkpt>
      <trkpt lat="39.217847" lon="-5.166371">
        <ele>331.587</ele>
        <time>2021-10-16T13:12:25Z</time>
      </trkpt>
      <trkpt lat="39.217635" lon="-5.166299">
        <ele>331.195</ele>
        <time>2021-10-16T13:12:26Z</time>
      </trkpt>
      <trkpt lat="39.217228" lon="-5.166165">
        <ele>330.749</ele>
        <time>2021-10-16T13:12:28Z</time>
      </trkpt>
      <trkpt lat="39.217016" lon="-5.166100">
        <ele>331.323</ele>
        <time>2021-10-16T13:12:29Z</time>
      </trkpt>
      <trkpt lat="39.216616" lon="-5.165976">
        <ele>331.908</ele>
        <time>2021-10-16T13:12:31Z</time>
      </trkpt>
      <trkpt lat="39.216426" lon="-5.165919">
        <ele>332.347</ele>
        <time>2021-10-16T13:12:32Z</time>
      </trkpt>
      <trkpt lat="39.216086" lon="-5.165825">
        <ele>334.025</ele>
        <time>2021-10-16T13:12:34Z</time>
      </trkpt>
      <trkpt lat="39.215909" lon="-5.165795">
        <ele>334.644</ele>
        <time>2021-10-16T13:12:35Z</time>
      </trkpt>
      <trkpt lat="39.215725" lon="-5.165783">
        <ele>335.038</ele>
        <time>2021-10-16T13:12:36Z</time>
      </trkpt>
      <trkpt lat="39.215331" lon="-5.165822">
        <ele>333.643</ele>
        <time>2021-10-16T13:12:38Z</time>
      </trkpt>
      <trkpt lat="39.214926" lon="-5.165858">
        <ele>332.782</ele>
        <time>2021-10-16T13:12:40Z</time>
      </trkpt>
      <trkpt lat="39.214507" lon="-5.165879">
        <ele>332.974</ele>
        <time>2021-10-16T13:12:42Z</time>
      </trkpt>
      <trkpt lat="39.214080" lon="-5.165886">
        <ele>333.961</ele>
        <time>2021-10-16T13:12:44Z</time>
      </trkpt>
      <trkpt lat="39.213670" lon="-5.165904">
        <ele>334.775</ele>
        <time>2021-10-16T13:12:46Z</time>
      </trkpt>
      <trkpt lat="39.213245" lon="-5.165921">
        <ele>334.828</ele>
        <time>2021-10-16T13:12:48Z</time>
      </trkpt>
      <trkpt lat="39.213033" lon="-5.165929">
        <ele>335.120</ele>
        <time>2021-10-16T13:12:49Z</time>
      </trkpt>
      <trkpt lat="39.212816" lon="-5.165940">
        <ele>335.908</ele>
        <time>2021-10-16T13:12:50Z</time>
      </trkpt>
      <trkpt lat="39.212396" lon="-5.165973">
        <ele>336.225</ele>
        <time>2021-10-16T13:12:52Z</time>
      </trkpt>
      <trkpt lat="39.211970" lon="-5.166072">
        <ele>337.213</ele>
        <time>2021-10-16T13:12:54Z</time>
      </trkpt>
      <trkpt lat="39.211568" lon="-5.166217">
        <ele>337.132</ele>
        <time>2021-10-16T13:12:56Z</time>
      </trkpt>
      <trkpt lat="39.211221" lon="-5.166402">
        <ele>338.626</ele>
        <time>2021-10-16T13:12:58Z</time>
      </trkpt>
      <trkpt lat="39.211064" lon="-5.166538">
        <ele>339.041</ele>
        <time>2021-10-16T13:12:59Z</time>
      </trkpt>
      <trkpt lat="39.210762" lon="-5.166865">
        <ele>339.850</ele>
        <time>2021-10-16T13:13:01Z</time>
      </trkpt>
      <trkpt lat="39.210606" lon="-5.167044">
        <ele>339.432</ele>
        <time>2021-10-16T13:13:02Z</time>
      </trkpt>
      <trkpt lat="39.210305" lon="-5.167392">
        <ele>339.469</ele>
        <time>2021-10-16T13:13:04Z</time>
      </trkpt>
      <trkpt lat="39.210147" lon="-5.167578">
        <ele>338.935</ele>
        <time>2021-10-16T13:13:05Z</time>
      </trkpt>
      <trkpt lat="39.209985" lon="-5.167763">
        <ele>338.686</ele>
        <time>2021-10-16T13:13:06Z</time>
      </trkpt>
      <trkpt lat="39.209659" lon="-5.168137">
        <ele>337.114</ele>
        <time>2021-10-16T13:13:08Z</time>
      </trkpt>
      <trkpt lat="39.209348" lon="-5.168494">
        <ele>335.108</ele>
        <time>2021-10-16T13:13:10Z</time>
      </trkpt>
      <trkpt lat="39.209194" lon="-5.168676">
        <ele>334.631</ele>
        <time>2021-10-16T13:13:11Z</time>
      </trkpt>
      <trkpt lat="39.208895" lon="-5.169028">
        <ele>333.329</ele>
        <time>2021-10-16T13:13:13Z</time>
      </trkpt>
      <trkpt lat="39.208745" lon="-5.169208">
        <ele>332.668</ele>
        <time>2021-10-16T13:13:14Z</time>
      </trkpt>
      <trkpt lat="39.208448" lon="-5.169552">
        <ele>330.512</ele>
        <time>2021-10-16T13:13:16Z</time>
      </trkpt>
      <trkpt lat="39.208132" lon="-5.169911">
        <ele>329.677</ele>
        <time>2021-10-16T13:13:18Z</time>
      </trkpt>
      <trkpt lat="39.207809" lon="-5.170266">
        <ele>327.346</ele>
        <time>2021-10-16T13:13:20Z</time>
      </trkpt>
      <trkpt lat="39.207506" lon="-5.170637">
        <ele>326.318</ele>
        <time>2021-10-16T13:13:22Z</time>
      </trkpt>
      <trkpt lat="39.207364" lon="-5.170848">
        <ele>326.235</ele>
        <time>2021-10-16T13:13:23Z</time>
      </trkpt>
      <trkpt lat="39.207117" lon="-5.171308">
        <ele>325.273</ele>
        <time>2021-10-16T13:13:25Z</time>
      </trkpt>
      <trkpt lat="39.206996" lon="-5.171563">
        <ele>326.285</ele>
        <time>2021-10-16T13:13:26Z</time>
      </trkpt>
      <trkpt lat="39.206762" lon="-5.172051">
        <ele>326.313</ele>
        <time>2021-10-16T13:13:28Z</time>
      </trkpt>
      <trkpt lat="39.206642" lon="-5.172307">
        <ele>326.308</ele>
        <time>2021-10-16T13:13:29Z</time>
      </trkpt>
      <trkpt lat="39.206518" lon="-5.172563">
        <ele>325.925</ele>
        <time>2021-10-16T13:13:30Z</time>
      </trkpt>
      <trkpt lat="39.206274" lon="-5.173058">
        <ele>325.873</ele>
        <time>2021-10-16T13:13:32Z</time>
      </trkpt>
      <trkpt lat="39.206049" lon="-5.173520">
        <ele>326.272</ele>
        <time>2021-10-16T13:13:34Z</time>
      </trkpt>
      <trkpt lat="39.205858" lon="-5.173990">
        <ele>324.866</ele>
        <time>2021-10-16T13:13:36Z</time>
      </trkpt>
      <trkpt lat="39.205744" lon="-5.174477">
        <ele>323.421</ele>
        <time>2021-10-16T13:13:38Z</time>
      </trkpt>
      <trkpt lat="39.205695" lon="-5.174992">
        <ele>322.920</ele>
        <time>2021-10-16T13:13:40Z</time>
      </trkpt>
      <trkpt lat="39.205655" lon="-5.175532">
        <ele>321.922</ele>
        <time>2021-10-16T13:13:42Z</time>
      </trkpt>
      <trkpt lat="39.205688" lon="-5.176096">
        <ele>321.579</ele>
        <time>2021-10-16T13:13:44Z</time>
      </trkpt>
      <trkpt lat="39.205777" lon="-5.176651">
        <ele>319.465</ele>
        <time>2021-10-16T13:13:46Z</time>
      </trkpt>
      <trkpt lat="39.205832" lon="-5.176937">
        <ele>318.068</ele>
        <time>2021-10-16T13:13:47Z</time>
      </trkpt>
      <trkpt lat="39.205892" lon="-5.177223">
        <ele>315.214</ele>
        <time>2021-10-16T13:13:48Z</time>
      </trkpt>
      <trkpt lat="39.205994" lon="-5.177787">
        <ele>312.308</ele>
        <time>2021-10-16T13:13:50Z</time>
      </trkpt>
      <trkpt lat="39.206076" lon="-5.178288">
        <ele>312.664</ele>
        <time>2021-10-16T13:13:52Z</time>
      </trkpt>
      <trkpt lat="39.206132" lon="-5.178542">
        <ele>312.912</ele>
        <time>2021-10-16T13:13:53Z</time>
      </trkpt>
      <trkpt lat="39.206284" lon="-5.179041">
        <ele>313.921</ele>
        <time>2021-10-16T13:13:55Z</time>
      </trkpt>
      <trkpt lat="39.206382" lon="-5.179297">
        <ele>314.785</ele>
        <time>2021-10-16T13:13:56Z</time>
      </trkpt>
      <trkpt lat="39.206589" lon="-5.179787">
        <ele>315.130</ele>
        <time>2021-10-16T13:13:58Z</time>
      </trkpt>
      <trkpt lat="39.206696" lon="-5.180041">
        <ele>314.979</ele>
        <time>2021-10-16T13:13:59Z</time>
      </trkpt>
      <trkpt lat="39.206900" lon="-5.180540">
        <ele>315.151</ele>
        <time>2021-10-16T13:14:01Z</time>
      </trkpt>
      <trkpt lat="39.207001" lon="-5.180790">
        <ele>315.848</ele>
        <time>2021-10-16T13:14:02Z</time>
      </trkpt>
      <trkpt lat="39.207198" lon="-5.181261">
        <ele>316.761</ele>
        <time>2021-10-16T13:14:04Z</time>
      </trkpt>
      <trkpt lat="39.207396" lon="-5.181737">
        <ele>317.021</ele>
        <time>2021-10-16T13:14:06Z</time>
      </trkpt>
      <trkpt lat="39.207594" lon="-5.182218">
        <ele>317.613</ele>
        <time>2021-10-16T13:14:08Z</time>
      </trkpt>
      <trkpt lat="39.207792" lon="-5.182687">
        <ele>317.408</ele>
        <time>2021-10-16T13:14:10Z</time>
      </trkpt>
      <trkpt lat="39.207989" lon="-5.183169">
        <ele>318.164</ele>
        <time>2021-10-16T13:14:12Z</time>
      </trkpt>
      <trkpt lat="39.208090" lon="-5.183417">
        <ele>317.412</ele>
        <time>2021-10-16T13:14:13Z</time>
      </trkpt>
      <trkpt lat="39.208191" lon="-5.183665">
        <ele>317.211</ele>
        <time>2021-10-16T13:14:14Z</time>
      </trkpt>
      <trkpt lat="39.208380" lon="-5.184116">
        <ele>319.785</ele>
        <time>2021-10-16T13:14:16Z</time>
      </trkpt>
      <trkpt lat="39.208475" lon="-5.184341">
        <ele>321.010</ele>
        <time>2021-10-16T13:14:17Z</time>
      </trkpt>
      <trkpt lat="39.208571" lon="-5.184567">
        <ele>321.559</ele>
        <time>2021-10-16T13:14:18Z</time>
      </trkpt>
      <trkpt lat="39.208667" lon="-5.184795">
        <ele>322.461</ele>
        <time>2021-10-16T13:14:19Z</time>
      </trkpt>
      <trkpt lat="39.208763" lon="-5.185031">
        <ele>323.688</ele>
        <time>2021-10-16T13:14:20Z</time>
      </trkpt>
      <trkpt lat="39.208952" lon="-5.185493">
        <ele>325.621</ele>
        <time>2021-10-16T13:14:22Z</time>
      </trkpt>
      <trkpt lat="39.209147" lon="-5.185958">
        <ele>327.541</ele>
        <time>2021-10-16T13:14:24Z</time>
      </trkpt>
      <trkpt lat="39.209242" lon="-5.186184">
        <ele>328.505</ele>
        <time>2021-10-16T13:14:25Z</time>
      </trkpt>
      <trkpt lat="39.209338" lon="-5.186414">
        <ele>328.408</ele>
        <time>2021-10-16T13:14:26Z</time>
      </trkpt>
      <trkpt lat="39.209525" lon="-5.186864">
        <ele>327.720</ele>
        <time>2021-10-16T13:14:28Z</time>
      </trkpt>
      <trkpt lat="39.209715" lon="-5.187315">
        <ele>325.698</ele>
        <time>2021-10-16T13:14:30Z</time>
      </trkpt>
      <trkpt lat="39.209799" lon="-5.187537">
        <ele>324.967</ele>
        <time>2021-10-16T13:14:31Z</time>
      </trkpt>
      <trkpt lat="39.209878" lon="-5.187771">
        <ele>324.641</ele>
        <time>2021-10-16T13:14:32Z</time>
      </trkpt>
      <trkpt lat="39.209998" lon="-5.188228">
        <ele>322.346</ele>
        <time>2021-10-16T13:14:34Z</time>
      </trkpt>
      <trkpt lat="39.210077" lon="-5.188718">
        <ele>320.385</ele>
        <time>2021-10-16T13:14:36Z</time>
      </trkpt>
      <trkpt lat="39.210109" lon="-5.188970">
        <ele>319.017</ele>
        <time>2021-10-16T13:14:37Z</time>
      </trkpt>
      <trkpt lat="39.210146" lon="-5.189227">
        <ele>318.024</ele>
        <time>2021-10-16T13:14:38Z</time>
      </trkpt>
      <trkpt lat="39.210218" lon="-5.189726">
        <ele>318.597</ele>
        <time>2021-10-16T13:14:40Z</time>
      </trkpt>
      <trkpt lat="39.210254" lon="-5.189986">
        <ele>319.223</ele>
        <time>2021-10-16T13:14:41Z</time>
      </trkpt>
      <trkpt lat="39.210304" lon="-5.190505">
        <ele>321.525</ele>
        <time>2021-10-16T13:14:43Z</time>
      </trkpt>
      <trkpt lat="39.210312" lon="-5.190778">
        <ele>322.608</ele>
        <time>2021-10-16T13:14:44Z</time>
      </trkpt>
      <trkpt lat="39.210295" lon="-5.191316">
        <ele>325.577</ele>
        <time>2021-10-16T13:14:46Z</time>
      </trkpt>
      <trkpt lat="39.210255" lon="-5.191895">
        <ele>328.255</ele>
        <time>2021-10-16T13:14:48Z</time>
      </trkpt>
      <trkpt lat="39.210215" lon="-5.192496">
        <ele>332.634</ele>
        <time>2021-10-16T13:14:50Z</time>
      </trkpt>
      <trkpt lat="39.210179" lon="-5.193074">
        <ele>334.928</ele>
        <time>2021-10-16T13:14:52Z</time>
      </trkpt>
      <trkpt lat="39.210162" lon="-5.193628">
        <ele>337.473</ele>
        <time>2021-10-16T13:14:54Z</time>
      </trkpt>
      <trkpt lat="39.210213" lon="-5.194141">
        <ele>338.382</ele>
        <time>2021-10-16T13:14:56Z</time>
      </trkpt>
      <trkpt lat="39.210356" lon="-5.194585">
        <ele>339.434</ele>
        <time>2021-10-16T13:14:58Z</time>
      </trkpt>
      <trkpt lat="39.210556" lon="-5.195024">
        <ele>339.381</ele>
        <time>2021-10-16T13:15:00Z</time>
      </trkpt>
      <trkpt lat="39.210764" lon="-5.195492">
        <ele>338.791</ele>
        <time>2021-10-16T13:15:02Z</time>
      </trkpt>
      <trkpt lat="39.210972" lon="-5.195966">
        <ele>337.981</ele>
        <time>2021-10-16T13:15:04Z</time>
      </trkpt>
      <trkpt lat="39.211193" lon="-5.196473">
        <ele>335.319</ele>
        <time>2021-10-16T13:15:06Z</time>
      </trkpt>
      <trkpt lat="39.211406" lon="-5.196967">
        <ele>332.408</ele>
        <time>2021-10-16T13:15:08Z</time>
      </trkpt>
      <trkpt lat="39.211593" lon="-5.197417">
        <ele>330.477</ele>
        <time>2021-10-16T13:15:10Z</time>
      </trkpt>
      <trkpt lat="39.211682" lon="-5.197635">
        <ele>329.955</ele>
        <time>2021-10-16T13:15:11Z</time>
      </trkpt>
      <trkpt lat="39.211772" lon="-5.197846">
        <ele>328.864</ele>
        <time>2021-10-16T13:15:12Z</time>
      </trkpt>
      <trkpt lat="39.211951" lon="-5.198260">
        <ele>326.878</ele>
        <time>2021-10-16T13:15:14Z</time>
      </trkpt>
      <trkpt lat="39.212119" lon="-5.198648">
        <ele>324.673</ele>
        <time>2021-10-16T13:15:16Z</time>
      </trkpt>
      <trkpt lat="39.212239" lon="-5.199073">
        <ele>322.372</ele>
        <time>2021-10-16T13:15:18Z</time>
      </trkpt>
      <trkpt lat="39.212233" lon="-5.199569">
        <ele>318.874</ele>
        <time>2021-10-16T13:15:20Z</time>
      </trkpt>
      <trkpt lat="39.212111" lon="-5.200074">
        <ele>318.091</ele>
        <time>2021-10-16T13:15:22Z</time>
      </trkpt>
      <trkpt lat="39.212038" lon="-5.200335">
        <ele>316.937</ele>
        <time>2021-10-16T13:15:23Z</time>
      </trkpt>
      <trkpt lat="39.211965" lon="-5.200594">
        <ele>316.549</ele>
        <time>2021-10-16T13:15:24Z</time>
      </trkpt>
      <trkpt lat="39.211812" lon="-5.201133">
        <ele>317.213</ele>
        <time>2021-10-16T13:15:26Z</time>
      </trkpt>
      <trkpt lat="39.211652" lon="-5.201683">
        <ele>317.108</ele>
        <time>2021-10-16T13:15:28Z</time>
      </trkpt>
      <trkpt lat="39.211561" lon="-5.201970">
        <ele>317.551</ele>
        <time>2021-10-16T13:15:29Z</time>
      </trkpt>
      <trkpt lat="39.211464" lon="-5.202259">
        <ele>317.479</ele>
        <time>2021-10-16T13:15:30Z</time>
      </trkpt>
      <trkpt lat="39.211363" lon="-5.202549">
        <ele>317.988</ele>
        <time>2021-10-16T13:15:31Z</time>
      </trkpt>
      <trkpt lat="39.211255" lon="-5.202848">
        <ele>318.462</ele>
        <time>2021-10-16T13:15:32Z</time>
      </trkpt>
      <trkpt lat="39.211047" lon="-5.203427">
        <ele>319.867</ele>
        <time>2021-10-16T13:15:34Z</time>
      </trkpt>
      <trkpt lat="39.210939" lon="-5.203727">
        <ele>320.366</ele>
        <time>2021-10-16T13:15:35Z</time>
      </trkpt>
      <trkpt lat="39.210725" lon="-5.204336">
        <ele>321.458</ele>
        <time>2021-10-16T13:15:37Z</time>
      </trkpt>
      <trkpt lat="39.210616" lon="-5.204649">
        <ele>321.875</ele>
        <time>2021-10-16T13:15:38Z</time>
      </trkpt>
      <trkpt lat="39.210419" lon="-5.205217">
        <ele>323.189</ele>
        <time>2021-10-16T13:15:40Z</time>
      </trkpt>
      <trkpt lat="39.210232" lon="-5.205744">
        <ele>324.206</ele>
        <time>2021-10-16T13:15:42Z</time>
      </trkpt>
      <trkpt lat="39.210050" lon="-5.206279">
        <ele>325.126</ele>
        <time>2021-10-16T13:15:44Z</time>
      </trkpt>
      <trkpt lat="39.209873" lon="-5.206803">
        <ele>326.508</ele>
        <time>2021-10-16T13:15:46Z</time>
      </trkpt>
      <trkpt lat="39.209694" lon="-5.207326">
        <ele>329.226</ele>
        <time>2021-10-16T13:15:48Z</time>
      </trkpt>
      <trkpt lat="39.209606" lon="-5.207588">
        <ele>330.414</ele>
        <time>2021-10-16T13:15:49Z</time>
      </trkpt>
      <trkpt lat="39.209517" lon="-5.207849">
        <ele>331.543</ele>
        <time>2021-10-16T13:15:50Z</time>
      </trkpt>
      <trkpt lat="39.209345" lon="-5.208336">
        <ele>333.517</ele>
        <time>2021-10-16T13:15:52Z</time>
      </trkpt>
      <trkpt lat="39.209249" lon="-5.208585">
        <ele>334.952</ele>
        <time>2021-10-16T13:15:53Z</time>
      </trkpt>
      <trkpt lat="39.209025" lon="-5.209070">
        <ele>337.481</ele>
        <time>2021-10-16T13:15:55Z</time>
      </trkpt>
      <trkpt lat="39.208883" lon="-5.209320">
        <ele>337.563</ele>
        <time>2021-10-16T13:15:56Z</time>
      </trkpt>
      <trkpt lat="39.208603" lon="-5.209787">
        <ele>339.850</ele>
        <time>2021-10-16T13:15:58Z</time>
      </trkpt>
      <trkpt lat="39.208457" lon="-5.210027">
        <ele>340.058</ele>
        <time>2021-10-16T13:15:59Z</time>
      </trkpt>
      <trkpt lat="39.208162" lon="-5.210521">
        <ele>340.152</ele>
        <time>2021-10-16T13:16:01Z</time>
      </trkpt>
      <trkpt lat="39.208011" lon="-5.210775">
        <ele>338.917</ele>
        <time>2021-10-16T13:16:02Z</time>
      </trkpt>
      <trkpt lat="39.207719" lon="-5.211267">
        <ele>336.908</ele>
        <time>2021-10-16T13:16:04Z</time>
      </trkpt>
      <trkpt lat="39.207570" lon="-5.211518">
        <ele>336.123</ele>
        <time>2021-10-16T13:16:05Z</time>
      </trkpt>
      <trkpt lat="39.207281" lon="-5.212009">
        <ele>335.711</ele>
        <time>2021-10-16T13:16:07Z</time>
      </trkpt>
      <trkpt lat="39.207133" lon="-5.212259">
        <ele>336.480</ele>
        <time>2021-10-16T13:16:08Z</time>
      </trkpt>
      <trkpt lat="39.206863" lon="-5.212724">
        <ele>337.534</ele>
        <time>2021-10-16T13:16:10Z</time>
      </trkpt>
      <trkpt lat="39.206598" lon="-5.213185">
        <ele>338.289</ele>
        <time>2021-10-16T13:16:12Z</time>
      </trkpt>
      <trkpt lat="39.206333" lon="-5.213643">
        <ele>339.358</ele>
        <time>2021-10-16T13:16:14Z</time>
      </trkpt>
      <trkpt lat="39.206071" lon="-5.214094">
        <ele>340.420</ele>
        <time>2021-10-16T13:16:16Z</time>
      </trkpt>
      <trkpt lat="39.205800" lon="-5.214558">
        <ele>342.137</ele>
        <time>2021-10-16T13:16:18Z</time>
      </trkpt>
      <trkpt lat="39.205665" lon="-5.214792">
        <ele>342.693</ele>
        <time>2021-10-16T13:16:19Z</time>
      </trkpt>
      <trkpt lat="39.205527" lon="-5.215028">
        <ele>342.465</ele>
        <time>2021-10-16T13:16:20Z</time>
      </trkpt>
      <trkpt lat="39.205242" lon="-5.215462">
        <ele>343.821</ele>
        <time>2021-10-16T13:16:22Z</time>
      </trkpt>
      <trkpt lat="39.205077" lon="-5.215674">
        <ele>344.408</ele>
        <time>2021-10-16T13:16:23Z</time>
      </trkpt>
      <trkpt lat="39.204727" lon="-5.216075">
        <ele>344.597</ele>
        <time>2021-10-16T13:16:25Z</time>
      </trkpt>
      <trkpt lat="39.204540" lon="-5.216275">
        <ele>344.775</ele>
        <time>2021-10-16T13:16:26Z</time>
      </trkpt>
      <trkpt lat="39.204184" lon="-5.216671">
        <ele>346.024</ele>
        <time>2021-10-16T13:16:28Z</time>
      </trkpt>
      <trkpt lat="39.204002" lon="-5.216877">
        <ele>346.628</ele>
        <time>2021-10-16T13:16:29Z</time>
      </trkpt>
      <trkpt lat="39.203641" lon="-5.217279">
        <ele>347.573</ele>
        <time>2021-10-16T13:16:31Z</time>
      </trkpt>
      <trkpt lat="39.203283" lon="-5.217671">
        <ele>348.482</ele>
        <time>2021-10-16T13:16:33Z</time>
      </trkpt>
      <trkpt lat="39.202936" lon="-5.218057">
        <ele>349.524</ele>
        <time>2021-10-16T13:16:35Z</time>
      </trkpt>
      <trkpt lat="39.202767" lon="-5.218246">
        <ele>350.061</ele>
        <time>2021-10-16T13:16:36Z</time>
      </trkpt>
      <trkpt lat="39.202426" lon="-5.218623">
        <ele>350.898</ele>
        <time>2021-10-16T13:16:38Z</time>
      </trkpt>
      <trkpt lat="39.202100" lon="-5.218969">
        <ele>352.215</ele>
        <time>2021-10-16T13:16:40Z</time>
      </trkpt>
      <trkpt lat="39.201926" lon="-5.219123">
        <ele>353.126</ele>
        <time>2021-10-16T13:16:41Z</time>
      </trkpt>
      <trkpt lat="39.201739" lon="-5.219253">
        <ele>353.308</ele>
        <time>2021-10-16T13:16:42Z</time>
      </trkpt>
      <trkpt lat="39.201322" lon="-5.219445">
        <ele>355.337</ele>
        <time>2021-10-16T13:16:44Z</time>
      </trkpt>
      <trkpt lat="39.200864" lon="-5.219519">
        <ele>356.595</ele>
        <time>2021-10-16T13:16:46Z</time>
      </trkpt>
      <trkpt lat="39.200384" lon="-5.219474">
        <ele>359.314</ele>
        <time>2021-10-16T13:16:48Z</time>
      </trkpt>
      <trkpt lat="39.199897" lon="-5.219340">
        <ele>361.518</ele>
        <time>2021-10-16T13:16:50Z</time>
      </trkpt>
      <trkpt lat="39.199423" lon="-5.219185">
        <ele>364.973</ele>
        <time>2021-10-16T13:16:52Z</time>
      </trkpt>
      <trkpt lat="39.198939" lon="-5.219035">
        <ele>366.932</ele>
        <time>2021-10-16T13:16:54Z</time>
      </trkpt>
      <trkpt lat="39.198454" lon="-5.218884">
        <ele>369.654</ele>
        <time>2021-10-16T13:16:56Z</time>
      </trkpt>
      <trkpt lat="39.198004" lon="-5.218744">
        <ele>371.471</ele>
        <time>2021-10-16T13:16:58Z</time>
      </trkpt>
      <trkpt lat="39.197552" lon="-5.218600">
        <ele>372.997</ele>
        <time>2021-10-16T13:17:00Z</time>
      </trkpt>
      <trkpt lat="39.197329" lon="-5.218530">
        <ele>374.423</ele>
        <time>2021-10-16T13:17:01Z</time>
      </trkpt>
      <trkpt lat="39.197107" lon="-5.218461">
        <ele>375.525</ele>
        <time>2021-10-16T13:17:02Z</time>
      </trkpt>
      <trkpt lat="39.196664" lon="-5.218322">
        <ele>377.108</ele>
        <time>2021-10-16T13:17:04Z</time>
      </trkpt>
      <trkpt lat="39.196222" lon="-5.218187">
        <ele>379.357</ele>
        <time>2021-10-16T13:17:06Z</time>
      </trkpt>
      <trkpt lat="39.196004" lon="-5.218120">
        <ele>380.155</ele>
        <time>2021-10-16T13:17:07Z</time>
      </trkpt>
      <trkpt lat="39.195791" lon="-5.218055">
        <ele>381.084</ele>
        <time>2021-10-16T13:17:08Z</time>
      </trkpt>
      <trkpt lat="39.195409" lon="-5.217951">
        <ele>382.538</ele>
        <time>2021-10-16T13:17:10Z</time>
      </trkpt>
      <trkpt lat="39.195214" lon="-5.217916">
        <ele>383.583</ele>
        <time>2021-10-16T13:17:11Z</time>
      </trkpt>
      <trkpt lat="39.194855" lon="-5.217943">
        <ele>386.162</ele>
        <time>2021-10-16T13:17:13Z</time>
      </trkpt>
      <trkpt lat="39.194688" lon="-5.218019">
        <ele>387.474</ele>
        <time>2021-10-16T13:17:14Z</time>
      </trkpt>
      <trkpt lat="39.194410" lon="-5.218268">
        <ele>390.391</ele>
        <time>2021-10-16T13:17:16Z</time>
      </trkpt>
      <trkpt lat="39.194271" lon="-5.218418">
        <ele>391.039</ele>
        <time>2021-10-16T13:17:17Z</time>
      </trkpt>
      <trkpt lat="39.194124" lon="-5.218570">
        <ele>392.001</ele>
        <time>2021-10-16T13:17:18Z</time>
      </trkpt>
      <trkpt lat="39.193803" lon="-5.218882">
        <ele>394.121</ele>
        <time>2021-10-16T13:17:20Z</time>
      </trkpt>
      <trkpt lat="39.193487" lon="-5.219204">
        <ele>396.308</ele>
        <time>2021-10-16T13:17:22Z</time>
      </trkpt>
      <trkpt lat="39.193331" lon="-5.219392">
        <ele>397.471</ele>
        <time>2021-10-16T13:17:23Z</time>
      </trkpt>
      <trkpt lat="39.193066" lon="-5.219799">
        <ele>400.699</ele>
        <time>2021-10-16T13:17:25Z</time>
      </trkpt>
      <trkpt lat="39.192943" lon="-5.219992">
        <ele>402.018</ele>
        <time>2021-10-16T13:17:26Z</time>
      </trkpt>
      <trkpt lat="39.192700" lon="-5.220300">
        <ele>403.232</ele>
        <time>2021-10-16T13:17:28Z</time>
      </trkpt>
      <trkpt lat="39.192560" lon="-5.220417">
        <ele>403.757</ele>
        <time>2021-10-16T13:17:29Z</time>
      </trkpt>
      <trkpt lat="39.192231" lon="-5.220520">
        <ele>403.646</ele>
        <time>2021-10-16T13:17:31Z</time>
      </trkpt>
      <trkpt lat="39.192052" lon="-5.220512">
        <ele>404.678</ele>
        <time>2021-10-16T13:17:32Z</time>
      </trkpt>
      <trkpt lat="39.191716" lon="-5.220387">
        <ele>405.135</ele>
        <time>2021-10-16T13:17:34Z</time>
      </trkpt>
      <trkpt lat="39.191560" lon="-5.220257">
        <ele>405.547</ele>
        <time>2021-10-16T13:17:35Z</time>
      </trkpt>
      <trkpt lat="39.191317" lon="-5.219862">
        <ele>405.529</ele>
        <time>2021-10-16T13:17:37Z</time>
      </trkpt>
      <trkpt lat="39.191211" lon="-5.219619">
        <ele>406.521</ele>
        <time>2021-10-16T13:17:38Z</time>
      </trkpt>
      <trkpt lat="39.190982" lon="-5.219148">
        <ele>407.608</ele>
        <time>2021-10-16T13:17:40Z</time>
      </trkpt>
      <trkpt lat="39.190853" lon="-5.218901">
        <ele>408.942</ele>
        <time>2021-10-16T13:17:41Z</time>
      </trkpt>
      <trkpt lat="39.190593" lon="-5.218408">
        <ele>411.690</ele>
        <time>2021-10-16T13:17:43Z</time>
      </trkpt>
      <trkpt lat="39.190470" lon="-5.218173">
        <ele>412.579</ele>
        <time>2021-10-16T13:17:44Z</time>
      </trkpt>
      <trkpt lat="39.190239" lon="-5.217738">
        <ele>414.193</ele>
        <time>2021-10-16T13:17:46Z</time>
      </trkpt>
      <trkpt lat="39.189967" lon="-5.217308">
        <ele>416.248</ele>
        <time>2021-10-16T13:17:48Z</time>
      </trkpt>
      <trkpt lat="39.189660" lon="-5.216916">
        <ele>418.517</ele>
        <time>2021-10-16T13:17:50Z</time>
      </trkpt>
      <trkpt lat="39.189377" lon="-5.216604">
        <ele>422.099</ele>
        <time>2021-10-16T13:17:52Z</time>
      </trkpt>
      <trkpt lat="39.189075" lon="-5.216405">
        <ele>422.916</ele>
        <time>2021-10-16T13:17:54Z</time>
      </trkpt>
      <trkpt lat="39.188906" lon="-5.216373">
        <ele>423.182</ele>
        <time>2021-10-16T13:17:55Z</time>
      </trkpt>
      <trkpt lat="39.188729" lon="-5.216389">
        <ele>423.243</ele>
        <time>2021-10-16T13:17:56Z</time>
      </trkpt>
      <trkpt lat="39.188357" lon="-5.216525">
        <ele>422.517</ele>
        <time>2021-10-16T13:17:58Z</time>
      </trkpt>
      <trkpt lat="39.188149" lon="-5.216612">
        <ele>421.808</ele>
        <time>2021-10-16T13:17:59Z</time>
      </trkpt>
      <trkpt lat="39.187699" lon="-5.216783">
        <ele>420.356</ele>
        <time>2021-10-16T13:18:01Z</time>
      </trkpt>
      <trkpt lat="39.187458" lon="-5.216871">
        <ele>418.554</ele>
        <time>2021-10-16T13:18:02Z</time>
      </trkpt>
      <trkpt lat="39.186970" lon="-5.217045">
        <ele>415.053</ele>
        <time>2021-10-16T13:18:04Z</time>
      </trkpt>
      <trkpt lat="39.186513" lon="-5.217205">
        <ele>411.727</ele>
        <time>2021-10-16T13:18:06Z</time>
      </trkpt>
      <trkpt lat="39.186081" lon="-5.217349">
        <ele>408.282</ele>
        <time>2021-10-16T13:18:08Z</time>
      </trkpt>
      <trkpt lat="39.185699" lon="-5.217521">
        <ele>405.661</ele>
        <time>2021-10-16T13:18:10Z</time>
      </trkpt>
      <trkpt lat="39.185338" lon="-5.217783">
        <ele>402.893</ele>
        <time>2021-10-16T13:18:12Z</time>
      </trkpt>
      <trkpt lat="39.185166" lon="-5.217949">
        <ele>401.440</ele>
        <time>2021-10-16T13:18:13Z</time>
      </trkpt>
      <trkpt lat="39.185005" lon="-5.218152">
        <ele>400.034</ele>
        <time>2021-10-16T13:18:14Z</time>
      </trkpt>
      <trkpt lat="39.184735" lon="-5.218567">
        <ele>397.255</ele>
        <time>2021-10-16T13:18:16Z</time>
      </trkpt>
      <trkpt lat="39.184625" lon="-5.218784">
        <ele>396.410</ele>
        <time>2021-10-16T13:18:17Z</time>
      </trkpt>
      <trkpt lat="39.184554" lon="-5.219005">
        <ele>394.908</ele>
        <time>2021-10-16T13:18:18Z</time>
      </trkpt>
      <trkpt lat="39.184509" lon="-5.219241">
        <ele>393.571</ele>
        <time>2021-10-16T13:18:19Z</time>
      </trkpt>
      <trkpt lat="39.184483" lon="-5.219504">
        <ele>392.179</ele>
        <time>2021-10-16T13:18:20Z</time>
      </trkpt>
      <trkpt lat="39.184454" lon="-5.220054">
        <ele>388.458</ele>
        <time>2021-10-16T13:18:22Z</time>
      </trkpt>
      <trkpt lat="39.184413" lon="-5.220684">
        <ele>386.292</ele>
        <time>2021-10-16T13:18:24Z</time>
      </trkpt>
      <trkpt lat="39.184388" lon="-5.221013">
        <ele>384.817</ele>
        <time>2021-10-16T13:18:25Z</time>
      </trkpt>
      <trkpt lat="39.184366" lon="-5.221343">
        <ele>383.856</ele>
        <time>2021-10-16T13:18:26Z</time>
      </trkpt>
      <trkpt lat="39.184323" lon="-5.221936">
        <ele>380.988</ele>
        <time>2021-10-16T13:18:28Z</time>
      </trkpt>
      <trkpt lat="39.184298" lon="-5.222226">
        <ele>380.435</ele>
        <time>2021-10-16T13:18:29Z</time>
      </trkpt>
      <trkpt lat="39.184270" lon="-5.222501">
        <ele>379.485</ele>
        <time>2021-10-16T13:18:30Z</time>
      </trkpt>
      <trkpt lat="39.184239" lon="-5.222755">
        <ele>378.289</ele>
        <time>2021-10-16T13:18:31Z</time>
      </trkpt>
      <trkpt lat="39.184202" lon="-5.222992">
        <ele>377.517</ele>
        <time>2021-10-16T13:18:32Z</time>
      </trkpt>
      <trkpt lat="39.184089" lon="-5.223402">
        <ele>375.508</ele>
        <time>2021-10-16T13:18:34Z</time>
      </trkpt>
      <trkpt lat="39.183877" lon="-5.223754">
        <ele>374.066</ele>
        <time>2021-10-16T13:18:36Z</time>
      </trkpt>
      <trkpt lat="39.183730" lon="-5.223882">
        <ele>372.994</ele>
        <time>2021-10-16T13:18:37Z</time>
      </trkpt>
      <trkpt lat="39.183540" lon="-5.223968">
        <ele>371.843</ele>
        <time>2021-10-16T13:18:38Z</time>
      </trkpt>
      <trkpt lat="39.183090" lon="-5.224076">
        <ele>369.827</ele>
        <time>2021-10-16T13:18:40Z</time>
      </trkpt>
      <trkpt lat="39.182846" lon="-5.224144">
        <ele>368.072</ele>
        <time>2021-10-16T13:18:41Z</time>
      </trkpt>
      <trkpt lat="39.182376" lon="-5.224298">
        <ele>364.961</ele>
        <time>2021-10-16T13:18:43Z</time>
      </trkpt>
      <trkpt lat="39.182147" lon="-5.224368">
        <ele>364.013</ele>
        <time>2021-10-16T13:18:44Z</time>
      </trkpt>
      <trkpt lat="39.181729" lon="-5.224497">
        <ele>362.010</ele>
        <time>2021-10-16T13:18:46Z</time>
      </trkpt>
      <trkpt lat="39.181526" lon="-5.224565">
        <ele>361.135</ele>
        <time>2021-10-16T13:18:47Z</time>
      </trkpt>
      <trkpt lat="39.181136" lon="-5.224713">
        <ele>357.586</ele>
        <time>2021-10-16T13:18:49Z</time>
      </trkpt>
      <trkpt lat="39.180954" lon="-5.224810">
        <ele>356.914</ele>
        <time>2021-10-16T13:18:50Z</time>
      </trkpt>
      <trkpt lat="39.180653" lon="-5.225077">
        <ele>355.708</ele>
        <time>2021-10-16T13:18:52Z</time>
      </trkpt>
      <trkpt lat="39.180520" lon="-5.225250">
        <ele>355.111</ele>
        <time>2021-10-16T13:18:53Z</time>
      </trkpt>
      <trkpt lat="39.180394" lon="-5.225442">
        <ele>354.339</ele>
        <time>2021-10-16T13:18:54Z</time>
      </trkpt>
      <trkpt lat="39.180128" lon="-5.225852">
        <ele>353.448</ele>
        <time>2021-10-16T13:18:56Z</time>
      </trkpt>
      <trkpt lat="39.179848" lon="-5.226259">
        <ele>352.482</ele>
        <time>2021-10-16T13:18:58Z</time>
      </trkpt>
      <trkpt lat="39.179709" lon="-5.226458">
        <ele>351.757</ele>
        <time>2021-10-16T13:18:59Z</time>
      </trkpt>
      <trkpt lat="39.179422" lon="-5.226793">
        <ele>348.236</ele>
        <time>2021-10-16T13:19:01Z</time>
      </trkpt>
      <trkpt lat="39.179257" lon="-5.226934">
        <ele>346.648</ele>
        <time>2021-10-16T13:19:02Z</time>
      </trkpt>
      <trkpt lat="39.178879" lon="-5.227150">
        <ele>343.535</ele>
        <time>2021-10-16T13:19:04Z</time>
      </trkpt>
      <trkpt lat="39.178658" lon="-5.227254">
        <ele>342.554</ele>
        <time>2021-10-16T13:19:05Z</time>
      </trkpt>
      <trkpt lat="39.178431" lon="-5.227368">
        <ele>341.956</ele>
        <time>2021-10-16T13:19:06Z</time>
      </trkpt>
      <trkpt lat="39.177960" lon="-5.227615">
        <ele>338.811</ele>
        <time>2021-10-16T13:19:08Z</time>
      </trkpt>
      <trkpt lat="39.177492" lon="-5.227868">
        <ele>336.908</ele>
        <time>2021-10-16T13:19:10Z</time>
      </trkpt>
      <trkpt lat="39.177246" lon="-5.228001">
        <ele>335.963</ele>
        <time>2021-10-16T13:19:11Z</time>
      </trkpt>
      <trkpt lat="39.176998" lon="-5.228134">
        <ele>334.851</ele>
        <time>2021-10-16T13:19:12Z</time>
      </trkpt>
      <trkpt lat="39.176503" lon="-5.228400">
        <ele>332.820</ele>
        <time>2021-10-16T13:19:14Z</time>
      </trkpt>
      <trkpt lat="39.176060" lon="-5.228632">
        <ele>332.514</ele>
        <time>2021-10-16T13:19:16Z</time>
      </trkpt>
      <trkpt lat="39.175642" lon="-5.228863">
        <ele>331.599</ele>
        <time>2021-10-16T13:19:18Z</time>
      </trkpt>
      <trkpt lat="39.175233" lon="-5.229095">
        <ele>330.678</ele>
        <time>2021-10-16T13:19:20Z</time>
      </trkpt>
      <trkpt lat="39.174829" lon="-5.229312">
        <ele>330.470</ele>
        <time>2021-10-16T13:19:22Z</time>
      </trkpt>
      <trkpt lat="39.174617" lon="-5.229418">
        <ele>330.177</ele>
        <time>2021-10-16T13:19:23Z</time>
      </trkpt>
      <trkpt lat="39.174401" lon="-5.229518">
        <ele>329.611</ele>
        <time>2021-10-16T13:19:24Z</time>
      </trkpt>
      <trkpt lat="39.173941" lon="-5.229666">
        <ele>329.221</ele>
        <time>2021-10-16T13:19:26Z</time>
      </trkpt>
      <trkpt lat="39.173483" lon="-5.229768">
        <ele>327.603</ele>
        <time>2021-10-16T13:19:28Z</time>
      </trkpt>
      <trkpt lat="39.173243" lon="-5.229821">
        <ele>326.708</ele>
        <time>2021-10-16T13:19:29Z</time>
      </trkpt>
      <trkpt lat="39.172762" lon="-5.229921">
        <ele>324.629</ele>
        <time>2021-10-16T13:19:31Z</time>
      </trkpt>
      <trkpt lat="39.172519" lon="-5.229968">
        <ele>323.257</ele>
        <time>2021-10-16T13:19:32Z</time>
      </trkpt>
      <trkpt lat="39.172064" lon="-5.230066">
        <ele>321.386</ele>
        <time>2021-10-16T13:19:34Z</time>
      </trkpt>
      <trkpt lat="39.171635" lon="-5.230156">
        <ele>320.060</ele>
        <time>2021-10-16T13:19:36Z</time>
      </trkpt>
      <trkpt lat="39.171203" lon="-5.230246">
        <ele>318.655</ele>
        <time>2021-10-16T13:19:38Z</time>
      </trkpt>
      <trkpt lat="39.170792" lon="-5.230337">
        <ele>320.074</ele>
        <time>2021-10-16T13:19:40Z</time>
      </trkpt>
      <trkpt lat="39.170584" lon="-5.230381">
        <ele>320.096</ele>
        <time>2021-10-16T13:19:41Z</time>
      </trkpt>
      <trkpt lat="39.170379" lon="-5.230424">
        <ele>320.263</ele>
        <time>2021-10-16T13:19:42Z</time>
      </trkpt>
      <trkpt lat="39.169975" lon="-5.230497">
        <ele>321.024</ele>
        <time>2021-10-16T13:19:44Z</time>
      </trkpt>
      <trkpt lat="39.169582" lon="-5.230489">
        <ele>321.504</ele>
        <time>2021-10-16T13:19:46Z</time>
      </trkpt>
      <trkpt lat="39.169372" lon="-5.230439">
        <ele>321.814</ele>
        <time>2021-10-16T13:19:47Z</time>
      </trkpt>
      <trkpt lat="39.168959" lon="-5.230233">
        <ele>323.908</ele>
        <time>2021-10-16T13:19:49Z</time>
      </trkpt>
      <trkpt lat="39.168761" lon="-5.230064">
        <ele>324.150</ele>
        <time>2021-10-16T13:19:50Z</time>
      </trkpt>
      <trkpt lat="39.168446" lon="-5.229597">
        <ele>326.918</ele>
        <time>2021-10-16T13:19:52Z</time>
      </trkpt>
      <trkpt lat="39.168312" lon="-5.229315">
        <ele>328.057</ele>
        <time>2021-10-16T13:19:53Z</time>
      </trkpt>
      <trkpt lat="39.168184" lon="-5.229045">
        <ele>329.711</ele>
        <time>2021-10-16T13:19:54Z</time>
      </trkpt>
      <trkpt lat="39.167930" lon="-5.228542">
        <ele>332.736</ele>
        <time>2021-10-16T13:19:56Z</time>
      </trkpt>
      <trkpt lat="39.167694" lon="-5.228087">
        <ele>334.615</ele>
        <time>2021-10-16T13:19:58Z</time>
      </trkpt>
      <trkpt lat="39.167579" lon="-5.227847">
        <ele>336.087</ele>
        <time>2021-10-16T13:19:59Z</time>
      </trkpt>
      <trkpt lat="39.167474" lon="-5.227594">
        <ele>337.794</ele>
        <time>2021-10-16T13:20:00Z</time>
      </trkpt>
      <trkpt lat="39.167277" lon="-5.227047">
        <ele>339.052</ele>
        <time>2021-10-16T13:20:02Z</time>
      </trkpt>
      <trkpt lat="39.167180" lon="-5.226766">
        <ele>339.753</ele>
        <time>2021-10-16T13:20:03Z</time>
      </trkpt>
      <trkpt lat="39.167086" lon="-5.226483">
        <ele>340.408</ele>
        <time>2021-10-16T13:20:04Z</time>
      </trkpt>
      <trkpt lat="39.166892" lon="-5.225918">
        <ele>341.408</ele>
        <time>2021-10-16T13:20:06Z</time>
      </trkpt>
      <trkpt lat="39.166693" lon="-5.225342">
        <ele>342.873</ele>
        <time>2021-10-16T13:20:08Z</time>
      </trkpt>
      <trkpt lat="39.166504" lon="-5.224781">
        <ele>344.891</ele>
        <time>2021-10-16T13:20:10Z</time>
      </trkpt>
      <trkpt lat="39.166325" lon="-5.224256">
        <ele>346.560</ele>
        <time>2021-10-16T13:20:12Z</time>
      </trkpt>
      <trkpt lat="39.166240" lon="-5.224004">
        <ele>347.474</ele>
        <time>2021-10-16T13:20:13Z</time>
      </trkpt>
      <trkpt lat="39.166160" lon="-5.223734">
        <ele>348.139</ele>
        <time>2021-10-16T13:20:14Z</time>
      </trkpt>
      <trkpt lat="39.166033" lon="-5.223189">
        <ele>349.748</ele>
        <time>2021-10-16T13:20:16Z</time>
      </trkpt>
      <trkpt lat="39.165923" lon="-5.222616">
        <ele>350.460</ele>
        <time>2021-10-16T13:20:18Z</time>
      </trkpt>
      <trkpt lat="39.165868" lon="-5.222326">
        <ele>351.217</ele>
        <time>2021-10-16T13:20:19Z</time>
      </trkpt>
      <trkpt lat="39.165811" lon="-5.222033">
        <ele>352.891</ele>
        <time>2021-10-16T13:20:20Z</time>
      </trkpt>
      <trkpt lat="39.165702" lon="-5.221474">
        <ele>355.181</ele>
        <time>2021-10-16T13:20:22Z</time>
      </trkpt>
      <trkpt lat="39.165595" lon="-5.220920">
        <ele>357.319</ele>
        <time>2021-10-16T13:20:24Z</time>
      </trkpt>
      <trkpt lat="39.165546" lon="-5.220670">
        <ele>358.908</ele>
        <time>2021-10-16T13:20:25Z</time>
      </trkpt>
      <trkpt lat="39.165454" lon="-5.220186">
        <ele>360.517</ele>
        <time>2021-10-16T13:20:27Z</time>
      </trkpt>
      <trkpt lat="39.165404" lon="-5.219935">
        <ele>361.375</ele>
        <time>2021-10-16T13:20:28Z</time>
      </trkpt>
      <trkpt lat="39.165304" lon="-5.219415">
        <ele>362.444</ele>
        <time>2021-10-16T13:20:30Z</time>
      </trkpt>
      <trkpt lat="39.165254" lon="-5.219158">
        <ele>362.548</ele>
        <time>2021-10-16T13:20:31Z</time>
      </trkpt>
      <trkpt lat="39.165204" lon="-5.218893">
        <ele>362.613</ele>
        <time>2021-10-16T13:20:32Z</time>
      </trkpt>
      <trkpt lat="39.165107" lon="-5.218394">
        <ele>361.242</ele>
        <time>2021-10-16T13:20:34Z</time>
      </trkpt>
      <trkpt lat="39.165059" lon="-5.218151">
        <ele>360.594</ele>
        <time>2021-10-16T13:20:35Z</time>
      </trkpt>
      <trkpt lat="39.164950" lon="-5.217654">
        <ele>358.361</ele>
        <time>2021-10-16T13:20:37Z</time>
      </trkpt>
      <trkpt lat="39.164885" lon="-5.217397">
        <ele>357.928</ele>
        <time>2021-10-16T13:20:38Z</time>
      </trkpt>
      <trkpt lat="39.164727" lon="-5.216915">
        <ele>354.889</ele>
        <time>2021-10-16T13:20:40Z</time>
      </trkpt>
      <trkpt lat="39.164628" lon="-5.216675">
        <ele>354.217</ele>
        <time>2021-10-16T13:20:41Z</time>
      </trkpt>
      <trkpt lat="39.164526" lon="-5.216436">
        <ele>353.808</ele>
        <time>2021-10-16T13:20:42Z</time>
      </trkpt>
      <trkpt lat="39.164306" lon="-5.215951">
        <ele>352.130</ele>
        <time>2021-10-16T13:20:44Z</time>
      </trkpt>
      <trkpt lat="39.164082" lon="-5.215462">
        <ele>351.258</ele>
        <time>2021-10-16T13:20:46Z</time>
      </trkpt>
      <trkpt lat="39.163963" lon="-5.215212">
        <ele>349.817</ele>
        <time>2021-10-16T13:20:47Z</time>
      </trkpt>
      <trkpt lat="39.163740" lon="-5.214736">
        <ele>348.061</ele>
        <time>2021-10-16T13:20:49Z</time>
      </trkpt>
      <trkpt lat="39.163629" lon="-5.214504">
        <ele>346.616</ele>
        <time>2021-10-16T13:20:50Z</time>
      </trkpt>
      <trkpt lat="39.163439" lon="-5.214086">
        <ele>345.825</ele>
        <time>2021-10-16T13:20:52Z</time>
      </trkpt>
      <trkpt lat="39.163344" lon="-5.213881">
        <ele>344.747</ele>
        <time>2021-10-16T13:20:53Z</time>
      </trkpt>
      <trkpt lat="39.163146" lon="-5.213471">
        <ele>343.334</ele>
        <time>2021-10-16T13:20:55Z</time>
      </trkpt>
      <trkpt lat="39.163044" lon="-5.213262">
        <ele>342.072</ele>
        <time>2021-10-16T13:20:56Z</time>
      </trkpt>
      <trkpt lat="39.162854" lon="-5.212836">
        <ele>339.913</ele>
        <time>2021-10-16T13:20:58Z</time>
      </trkpt>
      <trkpt lat="39.162767" lon="-5.212596">
        <ele>339.314</ele>
        <time>2021-10-16T13:20:59Z</time>
      </trkpt>
      <trkpt lat="39.162635" lon="-5.212090">
        <ele>337.208</ele>
        <time>2021-10-16T13:21:01Z</time>
      </trkpt>
      <trkpt lat="39.162534" lon="-5.211538">
        <ele>335.245</ele>
        <time>2021-10-16T13:21:03Z</time>
      </trkpt>
      <trkpt lat="39.162487" lon="-5.211267">
        <ele>333.963</ele>
        <time>2021-10-16T13:21:04Z</time>
      </trkpt>
      <trkpt lat="39.162409" lon="-5.210761">
        <ele>330.112</ele>
        <time>2021-10-16T13:21:06Z</time>
      </trkpt>
      <trkpt lat="39.162369" lon="-5.210540">
        <ele>329.596</ele>
        <time>2021-10-16T13:21:07Z</time>
      </trkpt>
      <trkpt lat="39.162316" lon="-5.210332">
        <ele>329.151</ele>
        <time>2021-10-16T13:21:08Z</time>
      </trkpt>
      <trkpt lat="39.162160" lon="-5.209970">
        <ele>326.940</ele>
        <time>2021-10-16T13:21:10Z</time>
      </trkpt>
      <trkpt lat="39.161911" lon="-5.209711">
        <ele>325.562</ele>
        <time>2021-10-16T13:21:12Z</time>
      </trkpt>
      <trkpt lat="39.161581" lon="-5.209599">
        <ele>324.119</ele>
        <time>2021-10-16T13:21:14Z</time>
      </trkpt>
      <trkpt lat="39.161227" lon="-5.209650">
        <ele>322.999</ele>
        <time>2021-10-16T13:21:16Z</time>
      </trkpt>
      <trkpt lat="39.160886" lon="-5.209868">
        <ele>320.807</ele>
        <time>2021-10-16T13:21:18Z</time>
      </trkpt>
      <trkpt lat="39.160655" lon="-5.210238">
        <ele>320.627</ele>
        <time>2021-10-16T13:21:20Z</time>
      </trkpt>
      <trkpt lat="39.160549" lon="-5.210695">
        <ele>318.708</ele>
        <time>2021-10-16T13:21:22Z</time>
      </trkpt>
      <trkpt lat="39.160515" lon="-5.210945">
        <ele>318.947</ele>
        <time>2021-10-16T13:21:23Z</time>
      </trkpt>
      <trkpt lat="39.160457" lon="-5.211463">
        <ele>318.645</ele>
        <time>2021-10-16T13:21:25Z</time>
      </trkpt>
      <trkpt lat="39.160455" lon="-5.211735">
        <ele>318.754</ele>
        <time>2021-10-16T13:21:26Z</time>
      </trkpt>
      <trkpt lat="39.160537" lon="-5.212246">
        <ele>317.478</ele>
        <time>2021-10-16T13:21:28Z</time>
      </trkpt>
      <trkpt lat="39.160624" lon="-5.212503">
        <ele>317.733</ele>
        <time>2021-10-16T13:21:29Z</time>
      </trkpt>
      <trkpt lat="39.160726" lon="-5.212747">
        <ele>318.672</ele>
        <time>2021-10-16T13:21:30Z</time>
      </trkpt>
      <trkpt lat="39.160821" lon="-5.212979">
        <ele>318.764</ele>
        <time>2021-10-16T13:21:31Z</time>
      </trkpt>
      <trkpt lat="39.160891" lon="-5.213214">
        <ele>318.071</ele>
        <time>2021-10-16T13:21:32Z</time>
      </trkpt>
      <trkpt lat="39.160923" lon="-5.213696">
        <ele>319.197</ele>
        <time>2021-10-16T13:21:34Z</time>
      </trkpt>
      <trkpt lat="39.160837" lon="-5.214206">
        <ele>319.823</ele>
        <time>2021-10-16T13:21:36Z</time>
      </trkpt>
      <trkpt lat="39.160763" lon="-5.214468">
        <ele>320.025</ele>
        <time>2021-10-16T13:21:37Z</time>
      </trkpt>
      <trkpt lat="39.160673" lon="-5.214735">
        <ele>320.508</ele>
        <time>2021-10-16T13:21:38Z</time>
      </trkpt>
      <trkpt lat="39.160476" lon="-5.215217">
        <ele>321.547</ele>
        <time>2021-10-16T13:21:40Z</time>
      </trkpt>
      <trkpt lat="39.160226" lon="-5.215600">
        <ele>323.035</ele>
        <time>2021-10-16T13:21:42Z</time>
      </trkpt>
      <trkpt lat="39.160082" lon="-5.215760">
        <ele>324.384</ele>
        <time>2021-10-16T13:21:43Z</time>
      </trkpt>
      <trkpt lat="39.159920" lon="-5.215895">
        <ele>325.778</ele>
        <time>2021-10-16T13:21:44Z</time>
      </trkpt>
      <trkpt lat="39.159522" lon="-5.216041">
        <ele>327.153</ele>
        <time>2021-10-16T13:21:46Z</time>
      </trkpt>
      <trkpt lat="39.159283" lon="-5.216083">
        <ele>329.082</ele>
        <time>2021-10-16T13:21:47Z</time>
      </trkpt>
      <trkpt lat="39.159046" lon="-5.216126">
        <ele>331.294</ele>
        <time>2021-10-16T13:21:48Z</time>
      </trkpt>
      <trkpt lat="39.158817" lon="-5.216173">
        <ele>333.021</ele>
        <time>2021-10-16T13:21:49Z</time>
      </trkpt>
      <trkpt lat="39.158593" lon="-5.216226">
        <ele>334.521</ele>
        <time>2021-10-16T13:21:50Z</time>
      </trkpt>
      <trkpt lat="39.158175" lon="-5.216286">
        <ele>337.941</ele>
        <time>2021-10-16T13:21:52Z</time>
      </trkpt>
      <trkpt lat="39.157967" lon="-5.216280">
        <ele>339.205</ele>
        <time>2021-10-16T13:21:53Z</time>
      </trkpt>
      <trkpt lat="39.157567" lon="-5.216174">
        <ele>341.108</ele>
        <time>2021-10-16T13:21:55Z</time>
      </trkpt>
      <trkpt lat="39.157368" lon="-5.216072">
        <ele>342.030</ele>
        <time>2021-10-16T13:21:56Z</time>
      </trkpt>
      <trkpt lat="39.157014" lon="-5.215778">
        <ele>343.058</ele>
        <time>2021-10-16T13:21:58Z</time>
      </trkpt>
      <trkpt lat="39.156855" lon="-5.215581">
        <ele>343.817</ele>
        <time>2021-10-16T13:21:59Z</time>
      </trkpt>
      <trkpt lat="39.156602" lon="-5.215095">
        <ele>345.681</ele>
        <time>2021-10-16T13:22:01Z</time>
      </trkpt>
      <trkpt lat="39.156506" lon="-5.214814">
        <ele>346.376</ele>
        <time>2021-10-16T13:22:02Z</time>
      </trkpt>
      <trkpt lat="39.156382" lon="-5.214235">
        <ele>347.595</ele>
        <time>2021-10-16T13:22:04Z</time>
      </trkpt>
      <trkpt lat="39.156328" lon="-5.213933">
        <ele>348.387</ele>
        <time>2021-10-16T13:22:05Z</time>
      </trkpt>
      <trkpt lat="39.156270" lon="-5.213634">
        <ele>349.024</ele>
        <time>2021-10-16T13:22:06Z</time>
      </trkpt>
      <trkpt lat="39.156213" lon="-5.213337">
        <ele>349.827</ele>
        <time>2021-10-16T13:22:07Z</time>
      </trkpt>
      <trkpt lat="39.156149" lon="-5.213031">
        <ele>350.068</ele>
        <time>2021-10-16T13:22:08Z</time>
      </trkpt>
      <trkpt lat="39.156028" lon="-5.212433">
        <ele>349.814</ele>
        <time>2021-10-16T13:22:10Z</time>
      </trkpt>
      <trkpt lat="39.155902" lon="-5.211813">
        <ele>348.008</ele>
        <time>2021-10-16T13:22:12Z</time>
      </trkpt>
      <trkpt lat="39.155768" lon="-5.211181">
        <ele>346.990</ele>
        <time>2021-10-16T13:22:14Z</time>
      </trkpt>
      <trkpt lat="39.155647" lon="-5.210603">
        <ele>346.988</ele>
        <time>2021-10-16T13:22:16Z</time>
      </trkpt>
      <trkpt lat="39.155588" lon="-5.210330">
        <ele>347.577</ele>
        <time>2021-10-16T13:22:17Z</time>
      </trkpt>
      <trkpt lat="39.155474" lon="-5.209786">
        <ele>348.681</ele>
        <time>2021-10-16T13:22:19Z</time>
      </trkpt>
      <trkpt lat="39.155415" lon="-5.209492">
        <ele>348.776</ele>
        <time>2021-10-16T13:22:20Z</time>
      </trkpt>
      <trkpt lat="39.155301" lon="-5.208923">
        <ele>350.015</ele>
        <time>2021-10-16T13:22:22Z</time>
      </trkpt>
      <trkpt lat="39.155244" lon="-5.208639">
        <ele>350.457</ele>
        <time>2021-10-16T13:22:23Z</time>
      </trkpt>
      <trkpt lat="39.155186" lon="-5.208362">
        <ele>350.564</ele>
        <time>2021-10-16T13:22:24Z</time>
      </trkpt>
      <trkpt lat="39.155066" lon="-5.207813">
        <ele>351.411</ele>
        <time>2021-10-16T13:22:26Z</time>
      </trkpt>
      <trkpt lat="39.154954" lon="-5.207270">
        <ele>352.421</ele>
        <time>2021-10-16T13:22:28Z</time>
      </trkpt>
      <trkpt lat="39.154893" lon="-5.206986">
        <ele>352.403</ele>
        <time>2021-10-16T13:22:29Z</time>
      </trkpt>
      <trkpt lat="39.154780" lon="-5.206415">
        <ele>352.708</ele>
        <time>2021-10-16T13:22:31Z</time>
      </trkpt>
      <trkpt lat="39.154721" lon="-5.206124">
        <ele>353.289</ele>
        <time>2021-10-16T13:22:32Z</time>
      </trkpt>
      <trkpt lat="39.154601" lon="-5.205574">
        <ele>353.687</ele>
        <time>2021-10-16T13:22:34Z</time>
      </trkpt>
      <trkpt lat="39.154469" lon="-5.205012">
        <ele>353.946</ele>
        <time>2021-10-16T13:22:36Z</time>
      </trkpt>
      <trkpt lat="39.154311" lon="-5.204461">
        <ele>354.670</ele>
        <time>2021-10-16T13:22:38Z</time>
      </trkpt>
      <trkpt lat="39.154151" lon="-5.203922">
        <ele>354.725</ele>
        <time>2021-10-16T13:22:40Z</time>
      </trkpt>
      <trkpt lat="39.153983" lon="-5.203356">
        <ele>353.564</ele>
        <time>2021-10-16T13:22:42Z</time>
      </trkpt>
      <trkpt lat="39.153897" lon="-5.203063">
        <ele>352.686</ele>
        <time>2021-10-16T13:22:43Z</time>
      </trkpt>
      <trkpt lat="39.153811" lon="-5.202767">
        <ele>350.883</ele>
        <time>2021-10-16T13:22:44Z</time>
      </trkpt>
      <trkpt lat="39.153649" lon="-5.202205">
        <ele>350.871</ele>
        <time>2021-10-16T13:22:46Z</time>
      </trkpt>
      <trkpt lat="39.153563" lon="-5.201912">
        <ele>351.941</ele>
        <time>2021-10-16T13:22:47Z</time>
      </trkpt>
      <trkpt lat="39.153480" lon="-5.201620">
        <ele>353.015</ele>
        <time>2021-10-16T13:22:48Z</time>
      </trkpt>
      <trkpt lat="39.153313" lon="-5.201026">
        <ele>355.908</ele>
        <time>2021-10-16T13:22:50Z</time>
      </trkpt>
      <trkpt lat="39.153154" lon="-5.200464">
        <ele>358.775</ele>
        <time>2021-10-16T13:22:52Z</time>
      </trkpt>
      <trkpt lat="39.153075" lon="-5.200191">
        <ele>360.193</ele>
        <time>2021-10-16T13:22:53Z</time>
      </trkpt>
      <trkpt lat="39.153001" lon="-5.199925">
        <ele>361.422</ele>
        <time>2021-10-16T13:22:54Z</time>
      </trkpt>
      <trkpt lat="39.152930" lon="-5.199682">
        <ele>362.396</ele>
        <time>2021-10-16T13:22:55Z</time>
      </trkpt>
      <trkpt lat="39.152855" lon="-5.199429">
        <ele>363.451</ele>
        <time>2021-10-16T13:22:56Z</time>
      </trkpt>
      <trkpt lat="39.152696" lon="-5.198940">
        <ele>364.830</ele>
        <time>2021-10-16T13:22:58Z</time>
      </trkpt>
      <trkpt lat="39.152602" lon="-5.198691">
        <ele>366.162</ele>
        <time>2021-10-16T13:22:59Z</time>
      </trkpt>
      <trkpt lat="39.152495" lon="-5.198457">
        <ele>367.349</ele>
        <time>2021-10-16T13:23:00Z</time>
      </trkpt>
      <trkpt lat="39.152235" lon="-5.198026">
        <ele>368.884</ele>
        <time>2021-10-16T13:23:02Z</time>
      </trkpt>
      <trkpt lat="39.151949" lon="-5.197696">
        <ele>369.407</ele>
        <time>2021-10-16T13:23:04Z</time>
      </trkpt>
      <trkpt lat="39.151792" lon="-5.197559">
        <ele>369.117</ele>
        <time>2021-10-16T13:23:05Z</time>
      </trkpt>
      <trkpt lat="39.151428" lon="-5.197302">
        <ele>368.008</ele>
        <time>2021-10-16T13:23:07Z</time>
      </trkpt>
      <trkpt lat="39.151223" lon="-5.197174">
        <ele>366.636</ele>
        <time>2021-10-16T13:23:08Z</time>
      </trkpt>
      <trkpt lat="39.150825" lon="-5.196919">
        <ele>364.284</ele>
        <time>2021-10-16T13:23:10Z</time>
      </trkpt>
      <trkpt lat="39.150631" lon="-5.196795">
        <ele>362.993</ele>
        <time>2021-10-16T13:23:11Z</time>
      </trkpt>
      <trkpt lat="39.150256" lon="-5.196567">
        <ele>360.847</ele>
        <time>2021-10-16T13:23:13Z</time>
      </trkpt>
      <trkpt lat="39.150078" lon="-5.196445">
        <ele>359.972</ele>
        <time>2021-10-16T13:23:14Z</time>
      </trkpt>
      <trkpt lat="39.149772" lon="-5.196178">
        <ele>358.171</ele>
        <time>2021-10-16T13:23:16Z</time>
      </trkpt>
      <trkpt lat="39.149628" lon="-5.196008">
        <ele>357.733</ele>
        <time>2021-10-16T13:23:17Z</time>
      </trkpt>
      <trkpt lat="39.149501" lon="-5.195807">
        <ele>356.840</ele>
        <time>2021-10-16T13:23:18Z</time>
      </trkpt>
      <trkpt lat="39.149324" lon="-5.195292">
        <ele>355.237</ele>
        <time>2021-10-16T13:23:20Z</time>
      </trkpt>
      <trkpt lat="39.149204" lon="-5.194728">
        <ele>353.249</ele>
        <time>2021-10-16T13:23:22Z</time>
      </trkpt>
      <trkpt lat="39.149148" lon="-5.194438">
        <ele>352.213</ele>
        <time>2021-10-16T13:23:23Z</time>
      </trkpt>
      <trkpt lat="39.149090" lon="-5.194154">
        <ele>350.908</ele>
        <time>2021-10-16T13:23:24Z</time>
      </trkpt>
      <trkpt lat="39.148968" lon="-5.193619">
        <ele>349.321</ele>
        <time>2021-10-16T13:23:26Z</time>
      </trkpt>
      <trkpt lat="39.148806" lon="-5.193153">
        <ele>347.379</ele>
        <time>2021-10-16T13:23:28Z</time>
      </trkpt>
      <trkpt lat="39.148573" lon="-5.192699">
        <ele>345.888</ele>
        <time>2021-10-16T13:23:30Z</time>
      </trkpt>
      <trkpt lat="39.148442" lon="-5.192464">
        <ele>344.732</ele>
        <time>2021-10-16T13:23:31Z</time>
      </trkpt>
      <trkpt lat="39.148304" lon="-5.192213">
        <ele>344.157</ele>
        <time>2021-10-16T13:23:32Z</time>
      </trkpt>
      <trkpt lat="39.148037" lon="-5.191720">
        <ele>342.126</ele>
        <time>2021-10-16T13:23:34Z</time>
      </trkpt>
      <trkpt lat="39.147767" lon="-5.191202">
        <ele>338.958</ele>
        <time>2021-10-16T13:23:36Z</time>
      </trkpt>
      <trkpt lat="39.147482" lon="-5.190676">
        <ele>336.135</ele>
        <time>2021-10-16T13:23:38Z</time>
      </trkpt>
      <trkpt lat="39.147201" lon="-5.190165">
        <ele>333.534</ele>
        <time>2021-10-16T13:23:40Z</time>
      </trkpt>
      <trkpt lat="39.146943" lon="-5.189657">
        <ele>331.855</ele>
        <time>2021-10-16T13:23:42Z</time>
      </trkpt>
      <trkpt lat="39.146700" lon="-5.189180">
        <ele>330.310</ele>
        <time>2021-10-16T13:23:44Z</time>
      </trkpt>
      <trkpt lat="39.146481" lon="-5.188744">
        <ele>328.008</ele>
        <time>2021-10-16T13:23:46Z</time>
      </trkpt>
      <trkpt lat="39.146269" lon="-5.188328">
        <ele>327.311</ele>
        <time>2021-10-16T13:23:48Z</time>
      </trkpt>
      <trkpt lat="39.146165" lon="-5.188119">
        <ele>326.349</ele>
        <time>2021-10-16T13:23:49Z</time>
      </trkpt>
      <trkpt lat="39.146059" lon="-5.187909">
        <ele>325.558</ele>
        <time>2021-10-16T13:23:50Z</time>
      </trkpt>
      <trkpt lat="39.145861" lon="-5.187521">
        <ele>323.882</ele>
        <time>2021-10-16T13:23:52Z</time>
      </trkpt>
      <trkpt lat="39.145762" lon="-5.187332">
        <ele>323.167</ele>
        <time>2021-10-16T13:23:53Z</time>
      </trkpt>
      <trkpt lat="39.145552" lon="-5.186992">
        <ele>321.876</ele>
        <time>2021-10-16T13:23:55Z</time>
      </trkpt>
      <trkpt lat="39.145427" lon="-5.186837">
        <ele>321.988</ele>
        <time>2021-10-16T13:23:56Z</time>
      </trkpt>
      <trkpt lat="39.145157" lon="-5.186609">
        <ele>320.695</ele>
        <time>2021-10-16T13:23:58Z</time>
      </trkpt>
      <trkpt lat="39.144991" lon="-5.186521">
        <ele>319.833</ele>
        <time>2021-10-16T13:23:59Z</time>
      </trkpt>
      <trkpt lat="39.144817" lon="-5.186438">
        <ele>318.423</ele>
        <time>2021-10-16T13:24:00Z</time>
      </trkpt>
      <trkpt lat="39.144506" lon="-5.186244">
        <ele>317.415</ele>
        <time>2021-10-16T13:24:02Z</time>
      </trkpt>
      <trkpt lat="39.144306" lon="-5.186029">
        <ele>317.108</ele>
        <time>2021-10-16T13:24:04Z</time>
      </trkpt>
      <trkpt lat="39.144241" lon="-5.185925">
        <ele>317.571</ele>
        <time>2021-10-16T13:24:05Z</time>
      </trkpt>
      <trkpt lat="39.144140" lon="-5.185772">
        <ele>317.529</ele>
        <time>2021-10-16T13:24:07Z</time>
      </trkpt>
      <trkpt lat="39.144092" lon="-5.185710">
        <ele>317.768</ele>
        <time>2021-10-16T13:24:08Z</time>
      </trkpt>
      <trkpt lat="39.144031" lon="-5.185615">
        <ele>317.852</ele>
        <time>2021-10-16T13:24:10Z</time>
      </trkpt>
      <trkpt lat="39.144044" lon="-5.185530">
        <ele>317.767</ele>
        <time>2021-10-16T13:24:12Z</time>
      </trkpt>
      <trkpt lat="39.144062" lon="-5.185472">
        <ele>317.756</ele>
        <time>2021-10-16T13:24:13Z</time>
      </trkpt>
      <trkpt lat="39.144098" lon="-5.185374">
        <ele>317.768</ele>
        <time>2021-10-16T13:24:15Z</time>
      </trkpt>
      <trkpt lat="39.144121" lon="-5.185316">
        <ele>317.795</ele>
        <time>2021-10-16T13:24:16Z</time>
      </trkpt>
      <trkpt lat="39.144140" lon="-5.185257">
        <ele>317.741</ele>
        <time>2021-10-16T13:24:17Z</time>
      </trkpt>
      <trkpt lat="39.144174" lon="-5.185148">
        <ele>317.581</ele>
        <time>2021-10-16T13:24:19Z</time>
      </trkpt>
      <trkpt lat="39.144195" lon="-5.185095">
        <ele>317.309</ele>
        <time>2021-10-16T13:24:21Z</time>
      </trkpt>
      <trkpt lat="39.144217" lon="-5.185013">
        <ele>317.308</ele>
        <time>2021-10-16T13:24:22Z</time>
      </trkpt>
      <trkpt lat="39.144247" lon="-5.184901">
        <ele>317.312</ele>
        <time>2021-10-16T13:24:24Z</time>
      </trkpt>
      <trkpt lat="39.144287" lon="-5.184783">
        <ele>317.490</ele>
        <time>2021-10-16T13:24:26Z</time>
      </trkpt>
      <trkpt lat="39.144328" lon="-5.184643">
        <ele>317.579</ele>
        <time>2021-10-16T13:24:28Z</time>
      </trkpt>
      <trkpt lat="39.144347" lon="-5.184566">
        <ele>317.893</ele>
        <time>2021-10-16T13:24:29Z</time>
      </trkpt>
      <trkpt lat="39.144393" lon="-5.184397">
        <ele>318.148</ele>
        <time>2021-10-16T13:24:31Z</time>
      </trkpt>
      <trkpt lat="39.144421" lon="-5.184306">
        <ele>318.117</ele>
        <time>2021-10-16T13:24:32Z</time>
      </trkpt>
      <trkpt lat="39.144469" lon="-5.184140">
        <ele>317.179</ele>
        <time>2021-10-16T13:24:34Z</time>
      </trkpt>
      <trkpt lat="39.144515" lon="-5.183970">
        <ele>317.156</ele>
        <time>2021-10-16T13:24:36Z</time>
      </trkpt>
      <trkpt lat="39.144564" lon="-5.183783">
        <ele>316.697</ele>
        <time>2021-10-16T13:24:38Z</time>
      </trkpt>
      <trkpt lat="39.144616" lon="-5.183603">
        <ele>316.423</ele>
        <time>2021-10-16T13:24:40Z</time>
      </trkpt>
      <trkpt lat="39.144689" lon="-5.183432">
        <ele>316.425</ele>
        <time>2021-10-16T13:24:42Z</time>
      </trkpt>
      <trkpt lat="39.144819" lon="-5.183291">
        <ele>315.608</ele>
        <time>2021-10-16T13:24:44Z</time>
      </trkpt>
      <trkpt lat="39.144994" lon="-5.183176">
        <ele>315.667</ele>
        <time>2021-10-16T13:24:46Z</time>
      </trkpt>
      <trkpt lat="39.145099" lon="-5.183107">
        <ele>315.565</ele>
        <time>2021-10-16T13:24:47Z</time>
      </trkpt>
      <trkpt lat="39.145202" lon="-5.183026">
        <ele>315.274</ele>
        <time>2021-10-16T13:24:48Z</time>
      </trkpt>
      <trkpt lat="39.145413" lon="-5.182797">
        <ele>315.288</ele>
        <time>2021-10-16T13:24:50Z</time>
      </trkpt>
      <trkpt lat="39.145533" lon="-5.182489">
        <ele>314.953</ele>
        <time>2021-10-16T13:24:52Z</time>
      </trkpt>
      <trkpt lat="39.145557" lon="-5.182314">
        <ele>314.972</ele>
        <time>2021-10-16T13:24:53Z</time>
      </trkpt>
      <trkpt lat="39.145549" lon="-5.181926">
        <ele>316.184</ele>
        <time>2021-10-16T13:24:55Z</time>
      </trkpt>
      <trkpt lat="39.145530" lon="-5.181712">
        <ele>316.711</ele>
        <time>2021-10-16T13:24:56Z</time>
      </trkpt>
      <trkpt lat="39.145492" lon="-5.181365">
        <ele>318.113</ele>
        <time>2021-10-16T13:24:58Z</time>
      </trkpt>
      <trkpt lat="39.145482" lon="-5.181240">
        <ele>319.043</ele>
        <time>2021-10-16T13:24:59Z</time>
      </trkpt>
      <trkpt lat="39.145469" lon="-5.181095">
        <ele>318.607</ele>
        <time>2021-10-16T13:25:01Z</time>
      </trkpt>
      <trkpt lat="39.145427" lon="-5.181043">
        <ele>319.308</ele>
        <time>2021-10-16T13:25:03Z</time>
      </trkpt>
      <trkpt lat="39.145364" lon="-5.181033">
        <ele>320.059</ele>
        <time>2021-10-16T13:25:05Z</time>
      </trkpt>
      <trkpt lat="39.145278" lon="-5.181096">
        <ele>320.537</ele>
        <time>2021-10-16T13:25:07Z</time>
      </trkpt>
      <trkpt lat="39.145254" lon="-5.181178">
        <ele>321.566</ele>
        <time>2021-10-16T13:25:08Z</time>
      </trkpt>
      <trkpt lat="39.145256" lon="-5.181403">
        <ele>323.030</ele>
        <time>2021-10-16T13:25:10Z</time>
      </trkpt>
      <trkpt lat="39.145277" lon="-5.181683">
        <ele>324.795</ele>
        <time>2021-10-16T13:25:12Z</time>
      </trkpt>
      <trkpt lat="39.145288" lon="-5.181840">
        <ele>325.244</ele>
        <time>2021-10-16T13:25:13Z</time>
      </trkpt>
      <trkpt lat="39.145303" lon="-5.182008">
        <ele>325.386</ele>
        <time>2021-10-16T13:25:14Z</time>
      </trkpt>
      <trkpt lat="39.145323" lon="-5.182307">
        <ele>326.783</ele>
        <time>2021-10-16T13:25:16Z</time>
      </trkpt>
      <trkpt lat="39.145320" lon="-5.182442">
        <ele>326.643</ele>
        <time>2021-10-16T13:25:17Z</time>
      </trkpt>
      <trkpt lat="39.145250" lon="-5.182648">
        <ele>326.164</ele>
        <time>2021-10-16T13:25:19Z</time>
      </trkpt>
      <trkpt lat="39.145187" lon="-5.182709">
        <ele>326.110</ele>
        <time>2021-10-16T13:25:20Z</time>
      </trkpt>
      <trkpt lat="39.145030" lon="-5.182746">
        <ele>326.008</ele>
        <time>2021-10-16T13:25:22Z</time>
      </trkpt>
      <trkpt lat="39.144929" lon="-5.182732">
        <ele>326.012</ele>
        <time>2021-10-16T13:25:23Z</time>
      </trkpt>
      <trkpt lat="39.144823" lon="-5.182702">
        <ele>326.280</ele>
        <time>2021-10-16T13:25:24Z</time>
      </trkpt>
      <trkpt lat="39.144618" lon="-5.182636">
        <ele>326.239</ele>
        <time>2021-10-16T13:25:26Z</time>
      </trkpt>
      <trkpt lat="39.144444" lon="-5.182581">
        <ele>325.223</ele>
        <time>2021-10-16T13:25:28Z</time>
      </trkpt>
      <trkpt lat="39.144360" lon="-5.182551">
        <ele>325.028</ele>
        <time>2021-10-16T13:25:29Z</time>
      </trkpt>
      <trkpt lat="39.144266" lon="-5.182512">
        <ele>324.917</ele>
        <time>2021-10-16T13:25:30Z</time>
      </trkpt>
      <trkpt lat="39.143991" lon="-5.182390">
        <ele>324.819</ele>
        <time>2021-10-16T13:25:32Z</time>
      </trkpt>
      <trkpt lat="39.143664" lon="-5.182213">
        <ele>324.566</ele>
        <time>2021-10-16T13:25:34Z</time>
      </trkpt>
      <trkpt lat="39.143304" lon="-5.181999">
        <ele>321.969</ele>
        <time>2021-10-16T13:25:36Z</time>
      </trkpt>
      <trkpt lat="39.143145" lon="-5.181903">
        <ele>320.304</ele>
        <time>2021-10-16T13:25:37Z</time>
      </trkpt>
      <trkpt lat="39.143002" lon="-5.181815">
        <ele>319.024</ele>
        <time>2021-10-16T13:25:38Z</time>
      </trkpt>
      <trkpt lat="39.142788" lon="-5.181687">
        <ele>317.008</ele>
        <time>2021-10-16T13:25:40Z</time>
      </trkpt>
      <trkpt lat="39.142697" lon="-5.181635">
        <ele>316.864</ele>
        <time>2021-10-16T13:25:41Z</time>
      </trkpt>
      <trkpt lat="39.142534" lon="-5.181545">
        <ele>314.042</ele>
        <time>2021-10-16T13:25:43Z</time>
      </trkpt>
      <trkpt lat="39.142450" lon="-5.181498">
        <ele>313.731</ele>
        <time>2021-10-16T13:25:44Z</time>
      </trkpt>
      <trkpt lat="39.142280" lon="-5.181403">
        <ele>312.085</ele>
        <time>2021-10-16T13:25:46Z</time>
      </trkpt>
      <trkpt lat="39.142088" lon="-5.181323">
        <ele>309.590</ele>
        <time>2021-10-16T13:25:48Z</time>
      </trkpt>
      <trkpt lat="39.141983" lon="-5.181302">
        <ele>309.239</ele>
        <time>2021-10-16T13:25:49Z</time>
      </trkpt>
      <trkpt lat="39.141873" lon="-5.181293">
        <ele>308.711</ele>
        <time>2021-10-16T13:25:50Z</time>
      </trkpt>
      <trkpt lat="39.141671" lon="-5.181284">
        <ele>307.368</ele>
        <time>2021-10-16T13:25:52Z</time>
      </trkpt>
      <trkpt lat="39.141472" lon="-5.181271">
        <ele>305.337</ele>
        <time>2021-10-16T13:25:54Z</time>
      </trkpt>
      <trkpt lat="39.141376" lon="-5.181264">
        <ele>305.149</ele>
        <time>2021-10-16T13:25:55Z</time>
      </trkpt>
      <trkpt lat="39.141279" lon="-5.181257">
        <ele>304.013</ele>
        <time>2021-10-16T13:25:56Z</time>
      </trkpt>
      <trkpt lat="39.141100" lon="-5.181247">
        <ele>302.808</ele>
        <time>2021-10-16T13:25:58Z</time>
      </trkpt>
      <trkpt lat="39.141007" lon="-5.181239">
        <ele>302.071</ele>
        <time>2021-10-16T13:25:59Z</time>
      </trkpt>
      <trkpt lat="39.140903" lon="-5.181227">
        <ele>300.849</ele>
        <time>2021-10-16T13:26:00Z</time>
      </trkpt>
      <trkpt lat="39.140655" lon="-5.181202">
        <ele>300.228</ele>
        <time>2021-10-16T13:26:02Z</time>
      </trkpt>
      <trkpt lat="39.140379" lon="-5.181182">
        <ele>297.832</ele>
        <time>2021-10-16T13:26:04Z</time>
      </trkpt>
      <trkpt lat="39.140061" lon="-5.181135">
        <ele>295.377</ele>
        <time>2021-10-16T13:26:06Z</time>
      </trkpt>
      <trkpt lat="39.139732" lon="-5.181055">
        <ele>293.466</ele>
        <time>2021-10-16T13:26:08Z</time>
      </trkpt>
      <trkpt lat="39.139397" lon="-5.180969">
        <ele>291.718</ele>
        <time>2021-10-16T13:26:10Z</time>
      </trkpt>
      <trkpt lat="39.139030" lon="-5.180891">
        <ele>288.355</ele>
        <time>2021-10-16T13:26:12Z</time>
      </trkpt>
      <trkpt lat="39.138641" lon="-5.180834">
        <ele>286.641</ele>
        <time>2021-10-16T13:26:14Z</time>
      </trkpt>
      <trkpt lat="39.138284" lon="-5.180781">
        <ele>284.181</ele>
        <time>2021-10-16T13:26:16Z</time>
      </trkpt>
      <trkpt lat="39.138112" lon="-5.180754">
        <ele>283.209</ele>
        <time>2021-10-16T13:26:17Z</time>
      </trkpt>
      <trkpt lat="39.137944" lon="-5.180727">
        <ele>282.708</ele>
        <time>2021-10-16T13:26:18Z</time>
      </trkpt>
      <trkpt lat="39.137780" lon="-5.180702">
        <ele>282.012</ele>
        <time>2021-10-16T13:26:19Z</time>
      </trkpt>
      <trkpt lat="39.137610" lon="-5.180685">
        <ele>281.010</ele>
        <time>2021-10-16T13:26:20Z</time>
      </trkpt>
      <trkpt lat="39.137284" lon="-5.180713">
        <ele>279.369</ele>
        <time>2021-10-16T13:26:22Z</time>
      </trkpt>
      <trkpt lat="39.136942" lon="-5.180774">
        <ele>277.033</ele>
        <time>2021-10-16T13:26:24Z</time>
      </trkpt>
      <trkpt lat="39.136589" lon="-5.180839">
        <ele>274.358</ele>
        <time>2021-10-16T13:26:26Z</time>
      </trkpt>
      <trkpt lat="39.136225" lon="-5.180855">
        <ele>274.127</ele>
        <time>2021-10-16T13:26:28Z</time>
      </trkpt>
      <trkpt lat="39.136029" lon="-5.180841">
        <ele>273.789</ele>
        <time>2021-10-16T13:26:29Z</time>
      </trkpt>
      <trkpt lat="39.135610" lon="-5.180804">
        <ele>273.266</ele>
        <time>2021-10-16T13:26:31Z</time>
      </trkpt>
      <trkpt lat="39.135392" lon="-5.180787">
        <ele>273.713</ele>
        <time>2021-10-16T13:26:32Z</time>
      </trkpt>
      <trkpt lat="39.134975" lon="-5.180759">
        <ele>273.643</ele>
        <time>2021-10-16T13:26:34Z</time>
      </trkpt>
      <trkpt lat="39.134535" lon="-5.180731">
        <ele>274.007</ele>
        <time>2021-10-16T13:26:36Z</time>
      </trkpt>
      <trkpt lat="39.134088" lon="-5.180697">
        <ele>274.608</ele>
        <time>2021-10-16T13:26:38Z</time>
      </trkpt>
      <trkpt lat="39.133703" lon="-5.180660">
        <ele>276.739</ele>
        <time>2021-10-16T13:26:40Z</time>
      </trkpt>
      <trkpt lat="39.133519" lon="-5.180648">
        <ele>277.687</ele>
        <time>2021-10-16T13:26:41Z</time>
      </trkpt>
      <trkpt lat="39.133347" lon="-5.180633">
        <ele>278.456</ele>
        <time>2021-10-16T13:26:42Z</time>
      </trkpt>
      <trkpt lat="39.133009" lon="-5.180604">
        <ele>279.710</ele>
        <time>2021-10-16T13:26:44Z</time>
      </trkpt>
      <trkpt lat="39.132680" lon="-5.180574">
        <ele>280.375</ele>
        <time>2021-10-16T13:26:46Z</time>
      </trkpt>
      <trkpt lat="39.132313" lon="-5.180579">
        <ele>280.934</ele>
        <time>2021-10-16T13:26:48Z</time>
      </trkpt>
      <trkpt lat="39.132128" lon="-5.180613">
        <ele>281.786</ele>
        <time>2021-10-16T13:26:49Z</time>
      </trkpt>
      <trkpt lat="39.131937" lon="-5.180681">
        <ele>282.273</ele>
        <time>2021-10-16T13:26:50Z</time>
      </trkpt>
      <trkpt lat="39.131604" lon="-5.180906">
        <ele>281.075</ele>
        <time>2021-10-16T13:26:52Z</time>
      </trkpt>
      <trkpt lat="39.131264" lon="-5.181179">
        <ele>279.928</ele>
        <time>2021-10-16T13:26:54Z</time>
      </trkpt>
      <trkpt lat="39.131079" lon="-5.181317">
        <ele>280.020</ele>
        <time>2021-10-16T13:26:55Z</time>
      </trkpt>
      <trkpt lat="39.130878" lon="-5.181463">
        <ele>278.608</ele>
        <time>2021-10-16T13:26:56Z</time>
      </trkpt>
      <trkpt lat="39.130488" lon="-5.181736">
        <ele>277.815</ele>
        <time>2021-10-16T13:26:58Z</time>
      </trkpt>
      <trkpt lat="39.130083" lon="-5.182006">
        <ele>276.983</ele>
        <time>2021-10-16T13:27:00Z</time>
      </trkpt>
      <trkpt lat="39.129877" lon="-5.182144">
        <ele>277.972</ele>
        <time>2021-10-16T13:27:01Z</time>
      </trkpt>
      <trkpt lat="39.129671" lon="-5.182287">
        <ele>278.956</ele>
        <time>2021-10-16T13:27:02Z</time>
      </trkpt>
      <trkpt lat="39.129292" lon="-5.182542">
        <ele>281.841</ele>
        <time>2021-10-16T13:27:04Z</time>
      </trkpt>
      <trkpt lat="39.129111" lon="-5.182666">
        <ele>283.230</ele>
        <time>2021-10-16T13:27:05Z</time>
      </trkpt>
      <trkpt lat="39.128939" lon="-5.182768">
        <ele>283.672</ele>
        <time>2021-10-16T13:27:06Z</time>
      </trkpt>
      <trkpt lat="39.128594" lon="-5.182868">
        <ele>285.869</ele>
        <time>2021-10-16T13:27:08Z</time>
      </trkpt>
      <trkpt lat="39.128249" lon="-5.182794">
        <ele>288.456</ele>
        <time>2021-10-16T13:27:10Z</time>
      </trkpt>
      <trkpt lat="39.128071" lon="-5.182686">
        <ele>289.559</ele>
        <time>2021-10-16T13:27:11Z</time>
      </trkpt>
      <trkpt lat="39.127767" lon="-5.182353">
        <ele>291.914</ele>
        <time>2021-10-16T13:27:13Z</time>
      </trkpt>
      <trkpt lat="39.127641" lon="-5.182132">
        <ele>293.208</ele>
        <time>2021-10-16T13:27:14Z</time>
      </trkpt>
      <trkpt lat="39.127422" lon="-5.181697">
        <ele>297.193</ele>
        <time>2021-10-16T13:27:16Z</time>
      </trkpt>
      <trkpt lat="39.127183" lon="-5.181269">
        <ele>298.281</ele>
        <time>2021-10-16T13:27:18Z</time>
      </trkpt>
      <trkpt lat="39.126959" lon="-5.180901">
        <ele>299.740</ele>
        <time>2021-10-16T13:27:20Z</time>
      </trkpt>
      <trkpt lat="39.126741" lon="-5.180570">
        <ele>300.334</ele>
        <time>2021-10-16T13:27:22Z</time>
      </trkpt>
      <trkpt lat="39.126605" lon="-5.180393">
        <ele>299.729</ele>
        <time>2021-10-16T13:27:23Z</time>
      </trkpt>
      <trkpt lat="39.126282" lon="-5.180023">
        <ele>300.298</ele>
        <time>2021-10-16T13:27:25Z</time>
      </trkpt>
      <trkpt lat="39.126098" lon="-5.179822">
        <ele>301.820</ele>
        <time>2021-10-16T13:27:26Z</time>
      </trkpt>
      <trkpt lat="39.125745" lon="-5.179439">
        <ele>305.497</ele>
        <time>2021-10-16T13:27:28Z</time>
      </trkpt>
      <trkpt lat="39.125562" lon="-5.179236">
        <ele>307.222</ele>
        <time>2021-10-16T13:27:29Z</time>
      </trkpt>
      <trkpt lat="39.125187" lon="-5.178822">
        <ele>309.262</ele>
        <time>2021-10-16T13:27:31Z</time>
      </trkpt>
      <trkpt lat="39.124989" lon="-5.178603">
        <ele>310.908</ele>
        <time>2021-10-16T13:27:32Z</time>
      </trkpt>
      <trkpt lat="39.124644" lon="-5.178217">
        <ele>314.108</ele>
        <time>2021-10-16T13:27:34Z</time>
      </trkpt>
      <trkpt lat="39.124306" lon="-5.177833">
        <ele>316.630</ele>
        <time>2021-10-16T13:27:36Z</time>
      </trkpt>
      <trkpt lat="39.124130" lon="-5.177648">
        <ele>317.248</ele>
        <time>2021-10-16T13:27:37Z</time>
      </trkpt>
      <trkpt lat="39.123941" lon="-5.177470">
        <ele>318.637</ele>
        <time>2021-10-16T13:27:38Z</time>
      </trkpt>
      <trkpt lat="39.123616" lon="-5.177195">
        <ele>321.511</ele>
        <time>2021-10-16T13:27:40Z</time>
      </trkpt>
      <trkpt lat="39.123471" lon="-5.177087">
        <ele>322.446</ele>
        <time>2021-10-16T13:27:41Z</time>
      </trkpt>
      <trkpt lat="39.123168" lon="-5.176965">
        <ele>324.865</ele>
        <time>2021-10-16T13:27:43Z</time>
      </trkpt>
      <trkpt lat="39.122994" lon="-5.176948">
        <ele>325.947</ele>
        <time>2021-10-16T13:27:44Z</time>
      </trkpt>
      <trkpt lat="39.122677" lon="-5.176946">
        <ele>327.354</ele>
        <time>2021-10-16T13:27:46Z</time>
      </trkpt>
      <trkpt lat="39.122520" lon="-5.176897">
        <ele>327.617</ele>
        <time>2021-10-16T13:27:47Z</time>
      </trkpt>
      <trkpt lat="39.122196" lon="-5.176644">
        <ele>330.287</ele>
        <time>2021-10-16T13:27:49Z</time>
      </trkpt>
      <trkpt lat="39.122019" lon="-5.176460">
        <ele>330.515</ele>
        <time>2021-10-16T13:27:50Z</time>
      </trkpt>
      <trkpt lat="39.121684" lon="-5.176109">
        <ele>332.408</ele>
        <time>2021-10-16T13:27:52Z</time>
      </trkpt>
      <trkpt lat="39.121520" lon="-5.175938">
        <ele>333.069</ele>
        <time>2021-10-16T13:27:53Z</time>
      </trkpt>
      <trkpt lat="39.121362" lon="-5.175775">
        <ele>333.087</ele>
        <time>2021-10-16T13:27:54Z</time>
      </trkpt>
      <trkpt lat="39.121050" lon="-5.175444">
        <ele>335.246</ele>
        <time>2021-10-16T13:27:56Z</time>
      </trkpt>
      <trkpt lat="39.120813" lon="-5.175081">
        <ele>337.210</ele>
        <time>2021-10-16T13:27:58Z</time>
      </trkpt>
      <trkpt lat="39.120724" lon="-5.174850">
        <ele>337.595</ele>
        <time>2021-10-16T13:27:59Z</time>
      </trkpt>
      <trkpt lat="39.120651" lon="-5.174606">
        <ele>338.044</ele>
        <time>2021-10-16T13:28:00Z</time>
      </trkpt>
      <trkpt lat="39.120485" lon="-5.174133">
        <ele>339.456</ele>
        <time>2021-10-16T13:28:02Z</time>
      </trkpt>
      <trkpt lat="39.120254" lon="-5.173728">
        <ele>340.293</ele>
        <time>2021-10-16T13:28:04Z</time>
      </trkpt>
      <trkpt lat="39.120117" lon="-5.173518">
        <ele>340.194</ele>
        <time>2021-10-16T13:28:05Z</time>
      </trkpt>
      <trkpt lat="39.119830" lon="-5.173072">
        <ele>339.857</ele>
        <time>2021-10-16T13:28:07Z</time>
      </trkpt>
      <trkpt lat="39.119671" lon="-5.172819">
        <ele>340.022</ele>
        <time>2021-10-16T13:28:08Z</time>
      </trkpt>
      <trkpt lat="39.119357" lon="-5.172344">
        <ele>341.108</ele>
        <time>2021-10-16T13:28:10Z</time>
      </trkpt>
      <trkpt lat="39.119034" lon="-5.171865">
        <ele>344.557</ele>
        <time>2021-10-16T13:28:12Z</time>
      </trkpt>
      <trkpt lat="39.118879" lon="-5.171633">
        <ele>345.985</ele>
        <time>2021-10-16T13:28:13Z</time>
      </trkpt>
      <trkpt lat="39.118714" lon="-5.171390">
        <ele>347.254</ele>
        <time>2021-10-16T13:28:14Z</time>
      </trkpt>
      <trkpt lat="39.118416" lon="-5.170964">
        <ele>351.178</ele>
        <time>2021-10-16T13:28:16Z</time>
      </trkpt>
      <trkpt lat="39.118137" lon="-5.170558">
        <ele>353.623</ele>
        <time>2021-10-16T13:28:18Z</time>
      </trkpt>
      <trkpt lat="39.117999" lon="-5.170355">
        <ele>354.222</ele>
        <time>2021-10-16T13:28:19Z</time>
      </trkpt>
      <trkpt lat="39.117855" lon="-5.170146">
        <ele>355.284</ele>
        <time>2021-10-16T13:28:20Z</time>
      </trkpt>
      <trkpt lat="39.117601" lon="-5.169732">
        <ele>356.691</ele>
        <time>2021-10-16T13:28:22Z</time>
      </trkpt>
      <trkpt lat="39.117475" lon="-5.169507">
        <ele>356.852</ele>
        <time>2021-10-16T13:28:23Z</time>
      </trkpt>
      <trkpt lat="39.117351" lon="-5.169277">
        <ele>356.853</ele>
        <time>2021-10-16T13:28:24Z</time>
      </trkpt>
      <trkpt lat="39.117233" lon="-5.169049">
        <ele>356.908</ele>
        <time>2021-10-16T13:28:25Z</time>
      </trkpt>
      <trkpt lat="39.117120" lon="-5.168824">
        <ele>357.308</ele>
        <time>2021-10-16T13:28:26Z</time>
      </trkpt>
      <trkpt lat="39.116911" lon="-5.168425">
        <ele>358.513</ele>
        <time>2021-10-16T13:28:28Z</time>
      </trkpt>
      <trkpt lat="39.116778" lon="-5.168233">
        <ele>358.971</ele>
        <time>2021-10-16T13:28:29Z</time>
      </trkpt>
      <trkpt lat="39.116612" lon="-5.168066">
        <ele>359.410</ele>
        <time>2021-10-16T13:28:30Z</time>
      </trkpt>
      <trkpt lat="39.116417" lon="-5.167918">
        <ele>360.014</ele>
        <time>2021-10-16T13:28:31Z</time>
      </trkpt>
      <trkpt lat="39.116209" lon="-5.167772">
        <ele>360.749</ele>
        <time>2021-10-16T13:28:32Z</time>
      </trkpt>
      <trkpt lat="39.115805" lon="-5.167477">
        <ele>360.388</ele>
        <time>2021-10-16T13:28:34Z</time>
      </trkpt>
      <trkpt lat="39.115374" lon="-5.167142">
        <ele>358.710</ele>
        <time>2021-10-16T13:28:36Z</time>
      </trkpt>
      <trkpt lat="39.114924" lon="-5.166801">
        <ele>357.997</ele>
        <time>2021-10-16T13:28:38Z</time>
      </trkpt>
      <trkpt lat="39.114520" lon="-5.166496">
        <ele>359.933</ele>
        <time>2021-10-16T13:28:40Z</time>
      </trkpt>
      <trkpt lat="39.114326" lon="-5.166365">
        <ele>360.923</ele>
        <time>2021-10-16T13:28:41Z</time>
      </trkpt>
      <trkpt lat="39.113927" lon="-5.166127">
        <ele>359.515</ele>
        <time>2021-10-16T13:28:43Z</time>
      </trkpt>
      <trkpt lat="39.113716" lon="-5.166005">
        <ele>359.608</ele>
        <time>2021-10-16T13:28:44Z</time>
      </trkpt>
      <trkpt lat="39.113362" lon="-5.165808">
        <ele>360.131</ele>
        <time>2021-10-16T13:28:46Z</time>
      </trkpt>
      <trkpt lat="39.113209" lon="-5.165741">
        <ele>360.279</ele>
        <time>2021-10-16T13:28:47Z</time>
      </trkpt>
      <trkpt lat="39.112911" lon="-5.165715">
        <ele>359.818</ele>
        <time>2021-10-16T13:28:49Z</time>
      </trkpt>
      <trkpt lat="39.112741" lon="-5.165763">
        <ele>359.372</ele>
        <time>2021-10-16T13:28:50Z</time>
      </trkpt>
      <trkpt lat="39.112430" lon="-5.165950">
        <ele>356.087</ele>
        <time>2021-10-16T13:28:52Z</time>
      </trkpt>
      <trkpt lat="39.112311" lon="-5.166074">
        <ele>354.896</ele>
        <time>2021-10-16T13:28:53Z</time>
      </trkpt>
      <trkpt lat="39.112148" lon="-5.166413">
        <ele>352.838</ele>
        <time>2021-10-16T13:28:55Z</time>
      </trkpt>
      <trkpt lat="39.112093" lon="-5.166638">
        <ele>351.715</ele>
        <time>2021-10-16T13:28:56Z</time>
      </trkpt>
      <trkpt lat="39.111979" lon="-5.167127">
        <ele>349.278</ele>
        <time>2021-10-16T13:28:58Z</time>
      </trkpt>
      <trkpt lat="39.111798" lon="-5.167656">
        <ele>348.533</ele>
        <time>2021-10-16T13:29:00Z</time>
      </trkpt>
      <trkpt lat="39.111591" lon="-5.168193">
        <ele>350.126</ele>
        <time>2021-10-16T13:29:02Z</time>
      </trkpt>
      <trkpt lat="39.111375" lon="-5.168724">
        <ele>352.908</ele>
        <time>2021-10-16T13:29:04Z</time>
      </trkpt>
      <trkpt lat="39.111174" lon="-5.169214">
        <ele>354.515</ele>
        <time>2021-10-16T13:29:06Z</time>
      </trkpt>
      <trkpt lat="39.111001" lon="-5.169638">
        <ele>356.373</ele>
        <time>2021-10-16T13:29:08Z</time>
      </trkpt>
      <trkpt lat="39.110845" lon="-5.169941">
        <ele>358.572</ele>
        <time>2021-10-16T13:29:10Z</time>
      </trkpt>
      <trkpt lat="39.110626" lon="-5.170101">
        <ele>358.716</ele>
        <time>2021-10-16T13:29:12Z</time>
      </trkpt>
      <trkpt lat="39.110329" lon="-5.170072">
        <ele>360.661</ele>
        <time>2021-10-16T13:29:14Z</time>
      </trkpt>
      <trkpt lat="39.110017" lon="-5.169880">
        <ele>360.920</ele>
        <time>2021-10-16T13:29:16Z</time>
      </trkpt>
      <trkpt lat="39.109659" lon="-5.169655">
        <ele>361.722</ele>
        <time>2021-10-16T13:29:18Z</time>
      </trkpt>
      <trkpt lat="39.109469" lon="-5.169546">
        <ele>362.439</ele>
        <time>2021-10-16T13:29:19Z</time>
      </trkpt>
      <trkpt lat="39.109285" lon="-5.169449">
        <ele>362.922</ele>
        <time>2021-10-16T13:29:20Z</time>
      </trkpt>
      <trkpt lat="39.108938" lon="-5.169350">
        <ele>363.462</ele>
        <time>2021-10-16T13:29:22Z</time>
      </trkpt>
      <trkpt lat="39.108567" lon="-5.169436">
        <ele>366.108</ele>
        <time>2021-10-16T13:29:24Z</time>
      </trkpt>
      <trkpt lat="39.108375" lon="-5.169514">
        <ele>367.008</ele>
        <time>2021-10-16T13:29:25Z</time>
      </trkpt>
      <trkpt lat="39.108167" lon="-5.169586">
        <ele>368.370</ele>
        <time>2021-10-16T13:29:26Z</time>
      </trkpt>
      <trkpt lat="39.107754" lon="-5.169703">
        <ele>369.888</ele>
        <time>2021-10-16T13:29:28Z</time>
      </trkpt>
      <trkpt lat="39.107545" lon="-5.169760">
        <ele>370.237</ele>
        <time>2021-10-16T13:29:29Z</time>
      </trkpt>
      <trkpt lat="39.107125" lon="-5.169908">
        <ele>368.791</ele>
        <time>2021-10-16T13:29:31Z</time>
      </trkpt>
      <trkpt lat="39.106694" lon="-5.170071">
        <ele>365.436</ele>
        <time>2021-10-16T13:29:33Z</time>
      </trkpt>
      <trkpt lat="39.106456" lon="-5.170158">
        <ele>363.115</ele>
        <time>2021-10-16T13:29:34Z</time>
      </trkpt>
      <trkpt lat="39.106209" lon="-5.170249">
        <ele>360.537</ele>
        <time>2021-10-16T13:29:35Z</time>
      </trkpt>
      <trkpt lat="39.105713" lon="-5.170434">
        <ele>357.134</ele>
        <time>2021-10-16T13:29:37Z</time>
      </trkpt>
      <trkpt lat="39.105446" lon="-5.170540">
        <ele>355.617</ele>
        <time>2021-10-16T13:29:38Z</time>
      </trkpt>
      <trkpt lat="39.104959" lon="-5.170731">
        <ele>354.287</ele>
        <time>2021-10-16T13:29:40Z</time>
      </trkpt>
      <trkpt lat="39.104492" lon="-5.170908">
        <ele>353.315</ele>
        <time>2021-10-16T13:29:42Z</time>
      </trkpt>
      <trkpt lat="39.104265" lon="-5.170992">
        <ele>353.108</ele>
        <time>2021-10-16T13:29:43Z</time>
      </trkpt>
      <trkpt lat="39.104037" lon="-5.171077">
        <ele>352.129</ele>
        <time>2021-10-16T13:29:44Z</time>
      </trkpt>
      <trkpt lat="39.103606" lon="-5.171237">
        <ele>349.717</ele>
        <time>2021-10-16T13:29:46Z</time>
      </trkpt>
      <trkpt lat="39.103386" lon="-5.171323">
        <ele>348.836</ele>
        <time>2021-10-16T13:29:47Z</time>
      </trkpt>
      <trkpt lat="39.103161" lon="-5.171411">
        <ele>348.250</ele>
        <time>2021-10-16T13:29:48Z</time>
      </trkpt>
      <trkpt lat="39.102933" lon="-5.171499">
        <ele>347.245</ele>
        <time>2021-10-16T13:29:49Z</time>
      </trkpt>
      <trkpt lat="39.102696" lon="-5.171590">
        <ele>346.634</ele>
        <time>2021-10-16T13:29:50Z</time>
      </trkpt>
      <trkpt lat="39.102252" lon="-5.171752">
        <ele>346.556</ele>
        <time>2021-10-16T13:29:52Z</time>
      </trkpt>
      <trkpt lat="39.102026" lon="-5.171836">
        <ele>347.793</ele>
        <time>2021-10-16T13:29:53Z</time>
      </trkpt>
      <trkpt lat="39.101806" lon="-5.171923">
        <ele>348.892</ele>
        <time>2021-10-16T13:29:54Z</time>
      </trkpt>
      <trkpt lat="39.101601" lon="-5.172003">
        <ele>349.673</ele>
        <time>2021-10-16T13:29:55Z</time>
      </trkpt>
      <trkpt lat="39.101406" lon="-5.172077">
        <ele>350.720</ele>
        <time>2021-10-16T13:29:56Z</time>
      </trkpt>
      <trkpt lat="39.101101" lon="-5.172200">
        <ele>350.708</ele>
        <time>2021-10-16T13:29:58Z</time>
      </trkpt>
      <trkpt lat="39.100865" lon="-5.172332">
        <ele>351.327</ele>
        <time>2021-10-16T13:30:00Z</time>
      </trkpt>
      <trkpt lat="39.100754" lon="-5.172438">
        <ele>351.875</ele>
        <time>2021-10-16T13:30:01Z</time>
      </trkpt>
      <trkpt lat="39.100640" lon="-5.172582">
        <ele>351.884</ele>
        <time>2021-10-16T13:30:02Z</time>
      </trkpt>
      <trkpt lat="39.100396" lon="-5.172902">
        <ele>351.648</ele>
        <time>2021-10-16T13:30:04Z</time>
      </trkpt>
      <trkpt lat="39.100231" lon="-5.173053">
        <ele>352.433</ele>
        <time>2021-10-16T13:30:05Z</time>
      </trkpt>
      <trkpt lat="39.099825" lon="-5.173284">
        <ele>352.232</ele>
        <time>2021-10-16T13:30:07Z</time>
      </trkpt>
      <trkpt lat="39.099592" lon="-5.173401">
        <ele>353.194</ele>
        <time>2021-10-16T13:30:08Z</time>
      </trkpt>
      <trkpt lat="39.099123" lon="-5.173626">
        <ele>354.851</ele>
        <time>2021-10-16T13:30:10Z</time>
      </trkpt>
      <trkpt lat="39.098645" lon="-5.173862">
        <ele>355.936</ele>
        <time>2021-10-16T13:30:12Z</time>
      </trkpt>
      <trkpt lat="39.098212" lon="-5.174094">
        <ele>357.217</ele>
        <time>2021-10-16T13:30:14Z</time>
      </trkpt>
      <trkpt lat="39.097814" lon="-5.174371">
        <ele>358.718</ele>
        <time>2021-10-16T13:30:16Z</time>
      </trkpt>
      <trkpt lat="39.097615" lon="-5.174540">
        <ele>359.008</ele>
        <time>2021-10-16T13:30:17Z</time>
      </trkpt>
      <trkpt lat="39.097234" lon="-5.174899">
        <ele>361.611</ele>
        <time>2021-10-16T13:30:19Z</time>
      </trkpt>
      <trkpt lat="39.097042" lon="-5.175089">
        <ele>363.669</ele>
        <time>2021-10-16T13:30:20Z</time>
      </trkpt>
      <trkpt lat="39.096694" lon="-5.175481">
        <ele>367.188</ele>
        <time>2021-10-16T13:30:22Z</time>
      </trkpt>
      <trkpt lat="39.096344" lon="-5.175875">
        <ele>370.042</ele>
        <time>2021-10-16T13:30:24Z</time>
      </trkpt>
      <trkpt lat="39.096015" lon="-5.176239">
        <ele>373.427</ele>
        <time>2021-10-16T13:30:26Z</time>
      </trkpt>
      <trkpt lat="39.095730" lon="-5.176556">
        <ele>376.916</ele>
        <time>2021-10-16T13:30:28Z</time>
      </trkpt>
      <trkpt lat="39.095508" lon="-5.176901">
        <ele>379.648</ele>
        <time>2021-10-16T13:30:30Z</time>
      </trkpt>
      <trkpt lat="39.095342" lon="-5.177293">
        <ele>382.155</ele>
        <time>2021-10-16T13:30:32Z</time>
      </trkpt>
      <trkpt lat="39.095155" lon="-5.177597">
        <ele>384.065</ele>
        <time>2021-10-16T13:30:34Z</time>
      </trkpt>
      <trkpt lat="39.094879" lon="-5.177731">
        <ele>385.668</ele>
        <time>2021-10-16T13:30:36Z</time>
      </trkpt>
      <trkpt lat="39.094702" lon="-5.177737">
        <ele>386.814</ele>
        <time>2021-10-16T13:30:37Z</time>
      </trkpt>
      <trkpt lat="39.094505" lon="-5.177726">
        <ele>387.808</ele>
        <time>2021-10-16T13:30:38Z</time>
      </trkpt>
      <trkpt lat="39.094150" lon="-5.177765">
        <ele>389.474</ele>
        <time>2021-10-16T13:30:40Z</time>
      </trkpt>
      <trkpt lat="39.093980" lon="-5.177848">
        <ele>390.162</ele>
        <time>2021-10-16T13:30:41Z</time>
      </trkpt>
      <trkpt lat="39.093693" lon="-5.178133">
        <ele>392.831</ele>
        <time>2021-10-16T13:30:43Z</time>
      </trkpt>
      <trkpt lat="39.093565" lon="-5.178313">
        <ele>394.225</ele>
        <time>2021-10-16T13:30:44Z</time>
      </trkpt>
      <trkpt lat="39.093365" lon="-5.178704">
        <ele>397.630</ele>
        <time>2021-10-16T13:30:46Z</time>
      </trkpt>
      <trkpt lat="39.093289" lon="-5.178929">
        <ele>399.029</ele>
        <time>2021-10-16T13:30:47Z</time>
      </trkpt>
      <trkpt lat="39.093234" lon="-5.179147">
        <ele>400.081</ele>
        <time>2021-10-16T13:30:48Z</time>
      </trkpt>
      <trkpt lat="39.093191" lon="-5.179346">
        <ele>401.088</ele>
        <time>2021-10-16T13:30:49Z</time>
      </trkpt>
      <trkpt lat="39.093151" lon="-5.179520">
        <ele>401.775</ele>
        <time>2021-10-16T13:30:50Z</time>
      </trkpt>
      <trkpt lat="39.093040" lon="-5.179738">
        <ele>403.028</ele>
        <time>2021-10-16T13:30:52Z</time>
      </trkpt>
      <trkpt lat="39.092953" lon="-5.179808">
        <ele>403.120</ele>
        <time>2021-10-16T13:30:53Z</time>
      </trkpt>
      <trkpt lat="39.092843" lon="-5.179848">
        <ele>403.608</ele>
        <time>2021-10-16T13:30:54Z</time>
      </trkpt>
      <trkpt lat="39.092565" lon="-5.179920">
        <ele>403.985</ele>
        <time>2021-10-16T13:30:56Z</time>
      </trkpt>
      <trkpt lat="39.092251" lon="-5.180026">
        <ele>404.873</ele>
        <time>2021-10-16T13:30:58Z</time>
      </trkpt>
      <trkpt lat="39.092070" lon="-5.180084">
        <ele>404.612</ele>
        <time>2021-10-16T13:30:59Z</time>
      </trkpt>
      <trkpt lat="39.091692" lon="-5.180253">
        <ele>405.356</ele>
        <time>2021-10-16T13:31:01Z</time>
      </trkpt>
      <trkpt lat="39.091491" lon="-5.180391">
        <ele>405.531</ele>
        <time>2021-10-16T13:31:02Z</time>
      </trkpt>
      <trkpt lat="39.091119" lon="-5.180751">
        <ele>404.350</ele>
        <time>2021-10-16T13:31:04Z</time>
      </trkpt>
      <trkpt lat="39.090920" lon="-5.180948">
        <ele>404.152</ele>
        <time>2021-10-16T13:31:05Z</time>
      </trkpt>
      <trkpt lat="39.090710" lon="-5.181142">
        <ele>403.369</ele>
        <time>2021-10-16T13:31:06Z</time>
      </trkpt>
      <trkpt lat="39.090503" lon="-5.181328">
        <ele>402.858</ele>
        <time>2021-10-16T13:31:07Z</time>
      </trkpt>
      <trkpt lat="39.090293" lon="-5.181523">
        <ele>403.352</ele>
        <time>2021-10-16T13:31:08Z</time>
      </trkpt>
      <trkpt lat="39.089904" lon="-5.181893">
        <ele>404.217</ele>
        <time>2021-10-16T13:31:10Z</time>
      </trkpt>
      <trkpt lat="39.089704" lon="-5.182086">
        <ele>404.908</ele>
        <time>2021-10-16T13:31:11Z</time>
      </trkpt>
      <trkpt lat="39.089311" lon="-5.182497">
        <ele>405.923</ele>
        <time>2021-10-16T13:31:13Z</time>
      </trkpt>
      <trkpt lat="39.089111" lon="-5.182718">
        <ele>406.021</ele>
        <time>2021-10-16T13:31:14Z</time>
      </trkpt>
      <trkpt lat="39.088730" lon="-5.183142">
        <ele>406.240</ele>
        <time>2021-10-16T13:31:16Z</time>
      </trkpt>
      <trkpt lat="39.088528" lon="-5.183363">
        <ele>406.374</ele>
        <time>2021-10-16T13:31:17Z</time>
      </trkpt>
      <trkpt lat="39.088325" lon="-5.183591">
        <ele>405.999</ele>
        <time>2021-10-16T13:31:18Z</time>
      </trkpt>
      <trkpt lat="39.087871" lon="-5.184088">
        <ele>404.978</ele>
        <time>2021-10-16T13:31:20Z</time>
      </trkpt>
      <trkpt lat="39.087384" lon="-5.184611">
        <ele>404.810</ele>
        <time>2021-10-16T13:31:22Z</time>
      </trkpt>
      <trkpt lat="39.087126" lon="-5.184896">
        <ele>403.927</ele>
        <time>2021-10-16T13:31:23Z</time>
      </trkpt>
      <trkpt lat="39.086636" lon="-5.185439">
        <ele>404.172</ele>
        <time>2021-10-16T13:31:25Z</time>
      </trkpt>
      <trkpt lat="39.086419" lon="-5.185688">
        <ele>404.713</ele>
        <time>2021-10-16T13:31:26Z</time>
      </trkpt>
      <trkpt lat="39.086032" lon="-5.186118">
        <ele>405.514</ele>
        <time>2021-10-16T13:31:28Z</time>
      </trkpt>
      <trkpt lat="39.085834" lon="-5.186337">
        <ele>405.508</ele>
        <time>2021-10-16T13:31:29Z</time>
      </trkpt>
      <trkpt lat="39.085425" lon="-5.186777">
        <ele>405.415</ele>
        <time>2021-10-16T13:31:31Z</time>
      </trkpt>
      <trkpt lat="39.085193" lon="-5.187000">
        <ele>405.573</ele>
        <time>2021-10-16T13:31:32Z</time>
      </trkpt>
      <trkpt lat="39.084758" lon="-5.187432">
        <ele>406.022</ele>
        <time>2021-10-16T13:31:34Z</time>
      </trkpt>
      <trkpt lat="39.084535" lon="-5.187659">
        <ele>405.996</ele>
        <time>2021-10-16T13:31:35Z</time>
      </trkpt>
      <trkpt lat="39.084103" lon="-5.188130">
        <ele>406.031</ele>
        <time>2021-10-16T13:31:37Z</time>
      </trkpt>
      <trkpt lat="39.083882" lon="-5.188377">
        <ele>405.830</ele>
        <time>2021-10-16T13:31:38Z</time>
      </trkpt>
      <trkpt lat="39.083461" lon="-5.188824">
        <ele>406.272</ele>
        <time>2021-10-16T13:31:40Z</time>
      </trkpt>
      <trkpt lat="39.083251" lon="-5.189057">
        <ele>407.089</ele>
        <time>2021-10-16T13:31:41Z</time>
      </trkpt>
      <trkpt lat="39.082843" lon="-5.189515">
        <ele>407.279</ele>
        <time>2021-10-16T13:31:43Z</time>
      </trkpt>
      <trkpt lat="39.082641" lon="-5.189748">
        <ele>407.405</ele>
        <time>2021-10-16T13:31:44Z</time>
      </trkpt>
      <trkpt lat="39.082250" lon="-5.190182">
        <ele>408.125</ele>
        <time>2021-10-16T13:31:46Z</time>
      </trkpt>
      <trkpt lat="39.082041" lon="-5.190382">
        <ele>407.808</ele>
        <time>2021-10-16T13:31:47Z</time>
      </trkpt>
      <trkpt lat="39.081834" lon="-5.190565">
        <ele>407.315</ele>
        <time>2021-10-16T13:31:48Z</time>
      </trkpt>
      <trkpt lat="39.081418" lon="-5.190931">
        <ele>406.723</ele>
        <time>2021-10-16T13:31:50Z</time>
      </trkpt>
      <trkpt lat="39.081035" lon="-5.191255">
        <ele>406.542</ele>
        <time>2021-10-16T13:31:52Z</time>
      </trkpt>
      <trkpt lat="39.080843" lon="-5.191421">
        <ele>405.896</ele>
        <time>2021-10-16T13:31:53Z</time>
      </trkpt>
      <trkpt lat="39.080460" lon="-5.191756">
        <ele>404.731</ele>
        <time>2021-10-16T13:31:55Z</time>
      </trkpt>
      <trkpt lat="39.080259" lon="-5.191928">
        <ele>404.890</ele>
        <time>2021-10-16T13:31:56Z</time>
      </trkpt>
      <trkpt lat="39.079860" lon="-5.192277">
        <ele>405.222</ele>
        <time>2021-10-16T13:31:58Z</time>
      </trkpt>
      <trkpt lat="39.079663" lon="-5.192452">
        <ele>405.519</ele>
        <time>2021-10-16T13:31:59Z</time>
      </trkpt>
      <trkpt lat="39.079477" lon="-5.192619">
        <ele>406.272</ele>
        <time>2021-10-16T13:32:00Z</time>
      </trkpt>
      <trkpt lat="39.079140" lon="-5.192927">
        <ele>406.313</ele>
        <time>2021-10-16T13:32:02Z</time>
      </trkpt>
      <trkpt lat="39.078839" lon="-5.193207">
        <ele>406.814</ele>
        <time>2021-10-16T13:32:04Z</time>
      </trkpt>
      <trkpt lat="39.078689" lon="-5.193341">
        <ele>406.908</ele>
        <time>2021-10-16T13:32:05Z</time>
      </trkpt>
      <trkpt lat="39.078358" lon="-5.193636">
        <ele>407.755</ele>
        <time>2021-10-16T13:32:07Z</time>
      </trkpt>
      <trkpt lat="39.078165" lon="-5.193807">
        <ele>407.583</ele>
        <time>2021-10-16T13:32:08Z</time>
      </trkpt>
      <trkpt lat="39.077788" lon="-5.194149">
        <ele>407.982</ele>
        <time>2021-10-16T13:32:10Z</time>
      </trkpt>
      <trkpt lat="39.077451" lon="-5.194466">
        <ele>407.036</ele>
        <time>2021-10-16T13:32:12Z</time>
      </trkpt>
      <trkpt lat="39.077295" lon="-5.194615">
        <ele>407.771</ele>
        <time>2021-10-16T13:32:13Z</time>
      </trkpt>
      <trkpt lat="39.077139" lon="-5.194759">
        <ele>407.730</ele>
        <time>2021-10-16T13:32:14Z</time>
      </trkpt>
      <trkpt lat="39.076863" lon="-5.195013">
        <ele>407.352</ele>
        <time>2021-10-16T13:32:16Z</time>
      </trkpt>
      <trkpt lat="39.076717" lon="-5.195146">
        <ele>407.729</ele>
        <time>2021-10-16T13:32:17Z</time>
      </trkpt>
      <trkpt lat="39.076395" lon="-5.195420">
        <ele>406.987</ele>
        <time>2021-10-16T13:32:19Z</time>
      </trkpt>
      <trkpt lat="39.076200" lon="-5.195548">
        <ele>406.842</ele>
        <time>2021-10-16T13:32:20Z</time>
      </trkpt>
      <trkpt lat="39.075772" lon="-5.195749">
        <ele>406.826</ele>
        <time>2021-10-16T13:32:22Z</time>
      </trkpt>
      <trkpt lat="39.075537" lon="-5.195862">
        <ele>405.908</ele>
        <time>2021-10-16T13:32:23Z</time>
      </trkpt>
      <trkpt lat="39.075299" lon="-5.195973">
        <ele>405.726</ele>
        <time>2021-10-16T13:32:24Z</time>
      </trkpt>
      <trkpt lat="39.075067" lon="-5.196082">
        <ele>405.844</ele>
        <time>2021-10-16T13:32:25Z</time>
      </trkpt>
      <trkpt lat="39.074835" lon="-5.196186">
        <ele>406.083</ele>
        <time>2021-10-16T13:32:26Z</time>
      </trkpt>
      <trkpt lat="39.074435" lon="-5.196373">
        <ele>406.347</ele>
        <time>2021-10-16T13:32:28Z</time>
      </trkpt>
      <trkpt lat="39.074243" lon="-5.196468">
        <ele>406.322</ele>
        <time>2021-10-16T13:32:29Z</time>
      </trkpt>
      <trkpt lat="39.073871" lon="-5.196648">
        <ele>406.311</ele>
        <time>2021-10-16T13:32:31Z</time>
      </trkpt>
      <trkpt lat="39.073676" lon="-5.196741">
        <ele>406.373</ele>
        <time>2021-10-16T13:32:32Z</time>
      </trkpt>
      <trkpt lat="39.073275" lon="-5.196927">
        <ele>406.960</ele>
        <time>2021-10-16T13:32:34Z</time>
      </trkpt>
      <trkpt lat="39.073071" lon="-5.197020">
        <ele>406.471</ele>
        <time>2021-10-16T13:32:35Z</time>
      </trkpt>
      <trkpt lat="39.072871" lon="-5.197115">
        <ele>406.041</ele>
        <time>2021-10-16T13:32:36Z</time>
      </trkpt>
      <trkpt lat="39.072481" lon="-5.197305">
        <ele>406.215</ele>
        <time>2021-10-16T13:32:38Z</time>
      </trkpt>
      <trkpt lat="39.072119" lon="-5.197479">
        <ele>405.208</ele>
        <time>2021-10-16T13:32:40Z</time>
      </trkpt>
      <trkpt lat="39.071937" lon="-5.197565">
        <ele>405.535</ele>
        <time>2021-10-16T13:32:41Z</time>
      </trkpt>
      <trkpt lat="39.071757" lon="-5.197650">
        <ele>404.653</ele>
        <time>2021-10-16T13:32:42Z</time>
      </trkpt>
      <trkpt lat="39.071579" lon="-5.197735">
        <ele>405.082</ele>
        <time>2021-10-16T13:32:43Z</time>
      </trkpt>
      <trkpt lat="39.071398" lon="-5.197823">
        <ele>405.246</ele>
        <time>2021-10-16T13:32:44Z</time>
      </trkpt>
      <trkpt lat="39.071065" lon="-5.197985">
        <ele>404.761</ele>
        <time>2021-10-16T13:32:46Z</time>
      </trkpt>
      <trkpt lat="39.070896" lon="-5.198057">
        <ele>404.510</ele>
        <time>2021-10-16T13:32:47Z</time>
      </trkpt>
      <trkpt lat="39.070732" lon="-5.198132">
        <ele>404.092</ele>
        <time>2021-10-16T13:32:48Z</time>
      </trkpt>
      <trkpt lat="39.070574" lon="-5.198210">
        <ele>404.569</ele>
        <time>2021-10-16T13:32:49Z</time>
      </trkpt>
      <trkpt lat="39.070415" lon="-5.198295">
        <ele>405.048</ele>
        <time>2021-10-16T13:32:50Z</time>
      </trkpt>
      <trkpt lat="39.070105" lon="-5.198440">
        <ele>405.161</ele>
        <time>2021-10-16T13:32:52Z</time>
      </trkpt>
      <trkpt lat="39.069941" lon="-5.198514">
        <ele>404.917</ele>
        <time>2021-10-16T13:32:53Z</time>
      </trkpt>
      <trkpt lat="39.069610" lon="-5.198686">
        <ele>404.508</ele>
        <time>2021-10-16T13:32:55Z</time>
      </trkpt>
      <trkpt lat="39.069431" lon="-5.198771">
        <ele>404.222</ele>
        <time>2021-10-16T13:32:56Z</time>
      </trkpt>
      <trkpt lat="39.069242" lon="-5.198856">
        <ele>404.310</ele>
        <time>2021-10-16T13:32:57Z</time>
      </trkpt>
      <trkpt lat="39.069045" lon="-5.198946">
        <ele>404.529</ele>
        <time>2021-10-16T13:32:58Z</time>
      </trkpt>
      <trkpt lat="39.068639" lon="-5.199153">
        <ele>404.683</ele>
        <time>2021-10-16T13:33:00Z</time>
      </trkpt>
      <trkpt lat="39.068206" lon="-5.199370">
        <ele>405.258</ele>
        <time>2021-10-16T13:33:02Z</time>
      </trkpt>
      <trkpt lat="39.067771" lon="-5.199572">
        <ele>404.717</ele>
        <time>2021-10-16T13:33:04Z</time>
      </trkpt>
      <trkpt lat="39.067545" lon="-5.199677">
        <ele>404.579</ele>
        <time>2021-10-16T13:33:05Z</time>
      </trkpt>
      <trkpt lat="39.067095" lon="-5.199875">
        <ele>405.166</ele>
        <time>2021-10-16T13:33:07Z</time>
      </trkpt>
      <trkpt lat="39.066867" lon="-5.199975">
        <ele>404.335</ele>
        <time>2021-10-16T13:33:08Z</time>
      </trkpt>
      <trkpt lat="39.066439" lon="-5.200170">
        <ele>405.586</ele>
        <time>2021-10-16T13:33:10Z</time>
      </trkpt>
      <trkpt lat="39.066226" lon="-5.200277">
        <ele>405.614</ele>
        <time>2021-10-16T13:33:11Z</time>
      </trkpt>
      <trkpt lat="39.065813" lon="-5.200506">
        <ele>405.308</ele>
        <time>2021-10-16T13:33:13Z</time>
      </trkpt>
      <trkpt lat="39.065597" lon="-5.200618">
        <ele>405.781</ele>
        <time>2021-10-16T13:33:14Z</time>
      </trkpt>
      <trkpt lat="39.065182" lon="-5.200820">
        <ele>406.119</ele>
        <time>2021-10-16T13:33:16Z</time>
      </trkpt>
      <trkpt lat="39.064968" lon="-5.200925">
        <ele>406.328</ele>
        <time>2021-10-16T13:33:17Z</time>
      </trkpt>
      <trkpt lat="39.064755" lon="-5.201030">
        <ele>406.352</ele>
        <time>2021-10-16T13:33:18Z</time>
      </trkpt>
      <trkpt lat="39.064537" lon="-5.201132">
        <ele>406.977</ele>
        <time>2021-10-16T13:33:19Z</time>
      </trkpt>
      <trkpt lat="39.064313" lon="-5.201233">
        <ele>407.696</ele>
        <time>2021-10-16T13:33:20Z</time>
      </trkpt>
      <trkpt lat="39.063882" lon="-5.201432">
        <ele>409.018</ele>
        <time>2021-10-16T13:33:22Z</time>
      </trkpt>
      <trkpt lat="39.063679" lon="-5.201530">
        <ele>409.265</ele>
        <time>2021-10-16T13:33:23Z</time>
      </trkpt>
      <trkpt lat="39.063303" lon="-5.201711">
        <ele>408.477</ele>
        <time>2021-10-16T13:33:25Z</time>
      </trkpt>
      <trkpt lat="39.063105" lon="-5.201790">
        <ele>409.161</ele>
        <time>2021-10-16T13:33:26Z</time>
      </trkpt>
      <trkpt lat="39.062682" lon="-5.201865">
        <ele>408.727</ele>
        <time>2021-10-16T13:33:28Z</time>
      </trkpt>
      <trkpt lat="39.062212" lon="-5.201905">
        <ele>407.608</ele>
        <time>2021-10-16T13:33:30Z</time>
      </trkpt>
      <trkpt lat="39.061971" lon="-5.201927">
        <ele>406.645</ele>
        <time>2021-10-16T13:33:31Z</time>
      </trkpt>
      <trkpt lat="39.061495" lon="-5.201978">
        <ele>403.473</ele>
        <time>2021-10-16T13:33:33Z</time>
      </trkpt>
      <trkpt lat="39.061037" lon="-5.202037">
        <ele>401.612</ele>
        <time>2021-10-16T13:33:35Z</time>
      </trkpt>
      <trkpt lat="39.060806" lon="-5.202055">
        <ele>400.916</ele>
        <time>2021-10-16T13:33:36Z</time>
      </trkpt>
      <trkpt lat="39.060575" lon="-5.202068">
        <ele>400.431</ele>
        <time>2021-10-16T13:33:37Z</time>
      </trkpt>
      <trkpt lat="39.060337" lon="-5.202084">
        <ele>399.420</ele>
        <time>2021-10-16T13:33:38Z</time>
      </trkpt>
      <trkpt lat="39.059917" lon="-5.202161">
        <ele>398.122</ele>
        <time>2021-10-16T13:33:40Z</time>
      </trkpt>
      <trkpt lat="39.059519" lon="-5.202353">
        <ele>395.889</ele>
        <time>2021-10-16T13:33:42Z</time>
      </trkpt>
      <trkpt lat="39.059330" lon="-5.202509">
        <ele>395.184</ele>
        <time>2021-10-16T13:33:43Z</time>
      </trkpt>
      <trkpt lat="39.059144" lon="-5.202702">
        <ele>394.007</ele>
        <time>2021-10-16T13:33:44Z</time>
      </trkpt>
      <trkpt lat="39.058785" lon="-5.203083">
        <ele>392.517</ele>
        <time>2021-10-16T13:33:46Z</time>
      </trkpt>
      <trkpt lat="39.058597" lon="-5.203277">
        <ele>392.408</ele>
        <time>2021-10-16T13:33:47Z</time>
      </trkpt>
      <trkpt lat="39.058408" lon="-5.203468">
        <ele>392.186</ele>
        <time>2021-10-16T13:33:48Z</time>
      </trkpt>
      <trkpt lat="39.058031" lon="-5.203836">
        <ele>392.134</ele>
        <time>2021-10-16T13:33:50Z</time>
      </trkpt>
      <trkpt lat="39.057671" lon="-5.204160">
        <ele>391.933</ele>
        <time>2021-10-16T13:33:52Z</time>
      </trkpt>
      <trkpt lat="39.057491" lon="-5.204324">
        <ele>392.087</ele>
        <time>2021-10-16T13:33:53Z</time>
      </trkpt>
      <trkpt lat="39.057315" lon="-5.204491">
        <ele>392.012</ele>
        <time>2021-10-16T13:33:54Z</time>
      </trkpt>
      <trkpt lat="39.056962" lon="-5.204836">
        <ele>391.621</ele>
        <time>2021-10-16T13:33:56Z</time>
      </trkpt>
      <trkpt lat="39.056625" lon="-5.205155">
        <ele>391.963</ele>
        <time>2021-10-16T13:33:58Z</time>
      </trkpt>
      <trkpt lat="39.056453" lon="-5.205323">
        <ele>392.180</ele>
        <time>2021-10-16T13:33:59Z</time>
      </trkpt>
      <trkpt lat="39.056120" lon="-5.205662">
        <ele>392.698</ele>
        <time>2021-10-16T13:34:01Z</time>
      </trkpt>
      <trkpt lat="39.055944" lon="-5.205835">
        <ele>392.915</ele>
        <time>2021-10-16T13:34:02Z</time>
      </trkpt>
      <trkpt lat="39.055600" lon="-5.206160">
        <ele>391.926</ele>
        <time>2021-10-16T13:34:04Z</time>
      </trkpt>
      <trkpt lat="39.055419" lon="-5.206330">
        <ele>390.908</ele>
        <time>2021-10-16T13:34:05Z</time>
      </trkpt>
      <trkpt lat="39.055238" lon="-5.206501">
        <ele>391.487</ele>
        <time>2021-10-16T13:34:06Z</time>
      </trkpt>
      <trkpt lat="39.054883" lon="-5.206843">
        <ele>391.785</ele>
        <time>2021-10-16T13:34:08Z</time>
      </trkpt>
      <trkpt lat="39.054574" lon="-5.207147">
        <ele>391.284</ele>
        <time>2021-10-16T13:34:10Z</time>
      </trkpt>
      <trkpt lat="39.054239" lon="-5.207445">
        <ele>391.318</ele>
        <time>2021-10-16T13:34:12Z</time>
      </trkpt>
      <trkpt lat="39.054047" lon="-5.207556">
        <ele>391.183</ele>
        <time>2021-10-16T13:34:13Z</time>
      </trkpt>
      <trkpt lat="39.053830" lon="-5.207627">
        <ele>389.782</ele>
        <time>2021-10-16T13:34:14Z</time>
      </trkpt>
      <trkpt lat="39.053390" lon="-5.207676">
        <ele>387.934</ele>
        <time>2021-10-16T13:34:16Z</time>
      </trkpt>
      <trkpt lat="39.052906" lon="-5.207736">
        <ele>387.091</ele>
        <time>2021-10-16T13:34:18Z</time>
      </trkpt>
      <trkpt lat="39.052651" lon="-5.207774">
        <ele>386.682</ele>
        <time>2021-10-16T13:34:19Z</time>
      </trkpt>
      <trkpt lat="39.052385" lon="-5.207819">
        <ele>386.143</ele>
        <time>2021-10-16T13:34:20Z</time>
      </trkpt>
      <trkpt lat="39.051870" lon="-5.207901">
        <ele>385.917</ele>
        <time>2021-10-16T13:34:22Z</time>
      </trkpt>
      <trkpt lat="39.051372" lon="-5.207995">
        <ele>386.708</ele>
        <time>2021-10-16T13:34:24Z</time>
      </trkpt>
      <trkpt lat="39.051158" lon="-5.208036">
        <ele>386.476</ele>
        <time>2021-10-16T13:34:25Z</time>
      </trkpt>
      <trkpt lat="39.050959" lon="-5.208078">
        <ele>386.754</ele>
        <time>2021-10-16T13:34:26Z</time>
      </trkpt>
      <trkpt lat="39.050617" lon="-5.208141">
        <ele>386.233</ele>
        <time>2021-10-16T13:34:28Z</time>
      </trkpt>
      <trkpt lat="39.050260" lon="-5.208210">
        <ele>386.947</ele>
        <time>2021-10-16T13:34:30Z</time>
      </trkpt>
      <trkpt lat="39.050078" lon="-5.208246">
        <ele>386.832</ele>
        <time>2021-10-16T13:34:31Z</time>
      </trkpt>
      <trkpt lat="39.049884" lon="-5.208284">
        <ele>386.691</ele>
        <time>2021-10-16T13:34:32Z</time>
      </trkpt>
      <trkpt lat="39.049501" lon="-5.208358">
        <ele>387.483</ele>
        <time>2021-10-16T13:34:34Z</time>
      </trkpt>
      <trkpt lat="39.049294" lon="-5.208397">
        <ele>387.130</ele>
        <time>2021-10-16T13:34:35Z</time>
      </trkpt>
      <trkpt lat="39.048874" lon="-5.208468">
        <ele>387.883</ele>
        <time>2021-10-16T13:34:37Z</time>
      </trkpt>
      <trkpt lat="39.048653" lon="-5.208511">
        <ele>387.525</ele>
        <time>2021-10-16T13:34:38Z</time>
      </trkpt>
      <trkpt lat="39.048227" lon="-5.208606">
        <ele>387.517</ele>
        <time>2021-10-16T13:34:40Z</time>
      </trkpt>
      <trkpt lat="39.047779" lon="-5.208695">
        <ele>387.808</ele>
        <time>2021-10-16T13:34:42Z</time>
      </trkpt>
      <trkpt lat="39.047308" lon="-5.208763">
        <ele>387.536</ele>
        <time>2021-10-16T13:34:44Z</time>
      </trkpt>
      <trkpt lat="39.046867" lon="-5.208842">
        <ele>388.994</ele>
        <time>2021-10-16T13:34:46Z</time>
      </trkpt>
      <trkpt lat="39.046648" lon="-5.208891">
        <ele>389.493</ele>
        <time>2021-10-16T13:34:47Z</time>
      </trkpt>
      <trkpt lat="39.046436" lon="-5.208941">
        <ele>389.987</ele>
        <time>2021-10-16T13:34:48Z</time>
      </trkpt>
      <trkpt lat="39.046231" lon="-5.208984">
        <ele>390.742</ele>
        <time>2021-10-16T13:34:49Z</time>
      </trkpt>
      <trkpt lat="39.046024" lon="-5.209026">
        <ele>391.991</ele>
        <time>2021-10-16T13:34:50Z</time>
      </trkpt>
      <trkpt lat="39.045667" lon="-5.209090">
        <ele>393.123</ele>
        <time>2021-10-16T13:34:52Z</time>
      </trkpt>
      <trkpt lat="39.045505" lon="-5.209120">
        <ele>393.520</ele>
        <time>2021-10-16T13:34:53Z</time>
      </trkpt>
      <trkpt lat="39.045226" lon="-5.209176">
        <ele>396.463</ele>
        <time>2021-10-16T13:34:55Z</time>
      </trkpt>
      <trkpt lat="39.045102" lon="-5.209198">
        <ele>396.644</ele>
        <time>2021-10-16T13:34:56Z</time>
      </trkpt>
      <trkpt lat="39.044914" lon="-5.209231">
        <ele>397.418</ele>
        <time>2021-10-16T13:34:58Z</time>
      </trkpt>
      <trkpt lat="39.044703" lon="-5.209263">
        <ele>398.508</ele>
        <time>2021-10-16T13:35:00Z</time>
      </trkpt>
      <trkpt lat="39.044460" lon="-5.209317">
        <ele>399.634</ele>
        <time>2021-10-16T13:35:02Z</time>
      </trkpt>
      <trkpt lat="39.044207" lon="-5.209403">
        <ele>400.732</ele>
        <time>2021-10-16T13:35:04Z</time>
      </trkpt>
      <trkpt lat="39.043942" lon="-5.209553">
        <ele>401.871</ele>
        <time>2021-10-16T13:35:06Z</time>
      </trkpt>
      <trkpt lat="39.043805" lon="-5.209641">
        <ele>401.925</ele>
        <time>2021-10-16T13:35:07Z</time>
      </trkpt>
      <trkpt lat="39.043657" lon="-5.209737">
        <ele>401.680</ele>
        <time>2021-10-16T13:35:08Z</time>
      </trkpt>
      <trkpt lat="39.043351" lon="-5.209935">
        <ele>401.469</ele>
        <time>2021-10-16T13:35:10Z</time>
      </trkpt>
      <trkpt lat="39.043173" lon="-5.210046">
        <ele>401.411</ele>
        <time>2021-10-16T13:35:11Z</time>
      </trkpt>
      <trkpt lat="39.042854" lon="-5.210254">
        <ele>402.468</ele>
        <time>2021-10-16T13:35:13Z</time>
      </trkpt>
      <trkpt lat="39.042707" lon="-5.210350">
        <ele>402.131</ele>
        <time>2021-10-16T13:35:14Z</time>
      </trkpt>
      <trkpt lat="39.042440" lon="-5.210516">
        <ele>402.561</ele>
        <time>2021-10-16T13:35:16Z</time>
      </trkpt>
      <trkpt lat="39.042298" lon="-5.210599">
        <ele>402.407</ele>
        <time>2021-10-16T13:35:17Z</time>
      </trkpt>
      <trkpt lat="39.041978" lon="-5.210787">
        <ele>401.708</ele>
        <time>2021-10-16T13:35:19Z</time>
      </trkpt>
      <trkpt lat="39.041803" lon="-5.210891">
        <ele>401.441</ele>
        <time>2021-10-16T13:35:20Z</time>
      </trkpt>
      <trkpt lat="39.041471" lon="-5.211103">
        <ele>400.819</ele>
        <time>2021-10-16T13:35:22Z</time>
      </trkpt>
      <trkpt lat="39.041298" lon="-5.211210">
        <ele>400.528</ele>
        <time>2021-10-16T13:35:23Z</time>
      </trkpt>
      <trkpt lat="39.040949" lon="-5.211425">
        <ele>400.242</ele>
        <time>2021-10-16T13:35:25Z</time>
      </trkpt>
      <trkpt lat="39.040767" lon="-5.211540">
        <ele>400.417</ele>
        <time>2021-10-16T13:35:26Z</time>
      </trkpt>
      <trkpt lat="39.040426" lon="-5.211753">
        <ele>400.466</ele>
        <time>2021-10-16T13:35:28Z</time>
      </trkpt>
      <trkpt lat="39.040063" lon="-5.211981">
        <ele>401.178</ele>
        <time>2021-10-16T13:35:30Z</time>
      </trkpt>
      <trkpt lat="39.039865" lon="-5.212104">
        <ele>401.845</ele>
        <time>2021-10-16T13:35:31Z</time>
      </trkpt>
      <trkpt lat="39.039648" lon="-5.212234">
        <ele>402.356</ele>
        <time>2021-10-16T13:35:32Z</time>
      </trkpt>
      <trkpt lat="39.039220" lon="-5.212493">
        <ele>404.559</ele>
        <time>2021-10-16T13:35:34Z</time>
      </trkpt>
      <trkpt lat="39.038809" lon="-5.212735">
        <ele>404.914</ele>
        <time>2021-10-16T13:35:36Z</time>
      </trkpt>
      <trkpt lat="39.038618" lon="-5.212849">
        <ele>405.908</ele>
        <time>2021-10-16T13:35:37Z</time>
      </trkpt>
      <trkpt lat="39.038420" lon="-5.212969">
        <ele>406.313</ele>
        <time>2021-10-16T13:35:38Z</time>
      </trkpt>
      <trkpt lat="39.038055" lon="-5.213207">
        <ele>407.131</ele>
        <time>2021-10-16T13:35:40Z</time>
      </trkpt>
      <trkpt lat="39.037712" lon="-5.213515">
        <ele>407.230</ele>
        <time>2021-10-16T13:35:42Z</time>
      </trkpt>
      <trkpt lat="39.037382" lon="-5.213912">
        <ele>407.434</ele>
        <time>2021-10-16T13:35:44Z</time>
      </trkpt>
      <trkpt lat="39.037083" lon="-5.214367">
        <ele>408.169</ele>
        <time>2021-10-16T13:35:46Z</time>
      </trkpt>
      <trkpt lat="39.036928" lon="-5.214622">
        <ele>408.438</ele>
        <time>2021-10-16T13:35:47Z</time>
      </trkpt>
      <trkpt lat="39.036771" lon="-5.214879">
        <ele>409.120</ele>
        <time>2021-10-16T13:35:48Z</time>
      </trkpt>
      <trkpt lat="39.036618" lon="-5.215128">
        <ele>409.447</ele>
        <time>2021-10-16T13:35:49Z</time>
      </trkpt>
      <trkpt lat="39.036465" lon="-5.215380">
        <ele>409.598</ele>
        <time>2021-10-16T13:35:50Z</time>
      </trkpt>
      <trkpt lat="39.036182" lon="-5.215854">
        <ele>409.915</ele>
        <time>2021-10-16T13:35:52Z</time>
      </trkpt>
      <trkpt lat="39.035900" lon="-5.216307">
        <ele>409.726</ele>
        <time>2021-10-16T13:35:54Z</time>
      </trkpt>
      <trkpt lat="39.035622" lon="-5.216732">
        <ele>409.608</ele>
        <time>2021-10-16T13:35:56Z</time>
      </trkpt>
      <trkpt lat="39.035361" lon="-5.217134">
        <ele>409.327</ele>
        <time>2021-10-16T13:35:58Z</time>
      </trkpt>
      <trkpt lat="39.035225" lon="-5.217339">
        <ele>408.775</ele>
        <time>2021-10-16T13:35:59Z</time>
      </trkpt>
      <trkpt lat="39.035093" lon="-5.217547">
        <ele>408.764</ele>
        <time>2021-10-16T13:36:00Z</time>
      </trkpt>
      <trkpt lat="39.034831" lon="-5.217963">
        <ele>409.028</ele>
        <time>2021-10-16T13:36:02Z</time>
      </trkpt>
      <trkpt lat="39.034577" lon="-5.218363">
        <ele>409.283</ele>
        <time>2021-10-16T13:36:04Z</time>
      </trkpt>
      <trkpt lat="39.034445" lon="-5.218564">
        <ele>409.182</ele>
        <time>2021-10-16T13:36:05Z</time>
      </trkpt>
      <trkpt lat="39.034313" lon="-5.218767">
        <ele>408.734</ele>
        <time>2021-10-16T13:36:06Z</time>
      </trkpt>
      <trkpt lat="39.034050" lon="-5.219185">
        <ele>408.691</ele>
        <time>2021-10-16T13:36:08Z</time>
      </trkpt>
      <trkpt lat="39.033803" lon="-5.219575">
        <ele>408.114</ele>
        <time>2021-10-16T13:36:10Z</time>
      </trkpt>
      <trkpt lat="39.033682" lon="-5.219756">
        <ele>408.154</ele>
        <time>2021-10-16T13:36:11Z</time>
      </trkpt>
      <trkpt lat="39.033564" lon="-5.219927">
        <ele>408.309</ele>
        <time>2021-10-16T13:36:12Z</time>
      </trkpt>
      <trkpt lat="39.033331" lon="-5.220255">
        <ele>407.508</ele>
        <time>2021-10-16T13:36:14Z</time>
      </trkpt>
      <trkpt lat="39.033098" lon="-5.220522">
        <ele>405.789</ele>
        <time>2021-10-16T13:36:16Z</time>
      </trkpt>
      <trkpt lat="39.032975" lon="-5.220648">
        <ele>405.167</ele>
        <time>2021-10-16T13:36:17Z</time>
      </trkpt>
      <trkpt lat="39.032736" lon="-5.220887">
        <ele>404.526</ele>
        <time>2021-10-16T13:36:19Z</time>
      </trkpt>
      <trkpt lat="39.032614" lon="-5.221001">
        <ele>404.140</ele>
        <time>2021-10-16T13:36:20Z</time>
      </trkpt>
      <trkpt lat="39.032352" lon="-5.221207">
        <ele>402.575</ele>
        <time>2021-10-16T13:36:22Z</time>
      </trkpt>
      <trkpt lat="39.032206" lon="-5.221308">
        <ele>402.254</ele>
        <time>2021-10-16T13:36:23Z</time>
      </trkpt>
      <trkpt lat="39.031901" lon="-5.221531">
        <ele>401.456</ele>
        <time>2021-10-16T13:36:25Z</time>
      </trkpt>
      <trkpt lat="39.031734" lon="-5.221650">
        <ele>400.863</ele>
        <time>2021-10-16T13:36:26Z</time>
      </trkpt>
      <trkpt lat="39.031407" lon="-5.221873">
        <ele>401.019</ele>
        <time>2021-10-16T13:36:28Z</time>
      </trkpt>
      <trkpt lat="39.031051" lon="-5.222099">
        <ele>400.709</ele>
        <time>2021-10-16T13:36:30Z</time>
      </trkpt>
      <trkpt lat="39.030865" lon="-5.222217">
        <ele>400.619</ele>
        <time>2021-10-16T13:36:31Z</time>
      </trkpt>
      <trkpt lat="39.030669" lon="-5.222349">
        <ele>400.508</ele>
        <time>2021-10-16T13:36:32Z</time>
      </trkpt>
      <trkpt lat="39.030302" lon="-5.222604">
        <ele>400.599</ele>
        <time>2021-10-16T13:36:34Z</time>
      </trkpt>
      <trkpt lat="39.029935" lon="-5.222864">
        <ele>399.927</ele>
        <time>2021-10-16T13:36:36Z</time>
      </trkpt>
      <trkpt lat="39.029568" lon="-5.223130">
        <ele>400.666</ele>
        <time>2021-10-16T13:36:38Z</time>
      </trkpt>
      <trkpt lat="39.029211" lon="-5.223379">
        <ele>399.510</ele>
        <time>2021-10-16T13:36:40Z</time>
      </trkpt>
      <trkpt lat="39.029028" lon="-5.223509">
        <ele>399.765</ele>
        <time>2021-10-16T13:36:41Z</time>
      </trkpt>
      <trkpt lat="39.028841" lon="-5.223644">
        <ele>399.974</ele>
        <time>2021-10-16T13:36:42Z</time>
      </trkpt>
      <trkpt lat="39.028453" lon="-5.223933">
        <ele>399.786</ele>
        <time>2021-10-16T13:36:44Z</time>
      </trkpt>
      <trkpt lat="39.028073" lon="-5.224221">
        <ele>399.723</ele>
        <time>2021-10-16T13:36:46Z</time>
      </trkpt>
      <trkpt lat="39.027878" lon="-5.224366">
        <ele>400.032</ele>
        <time>2021-10-16T13:36:47Z</time>
      </trkpt>
      <trkpt lat="39.027491" lon="-5.224647">
        <ele>400.092</ele>
        <time>2021-10-16T13:36:49Z</time>
      </trkpt>
      <trkpt lat="39.027297" lon="-5.224787">
        <ele>399.411</ele>
        <time>2021-10-16T13:36:50Z</time>
      </trkpt>
      <trkpt lat="39.026938" lon="-5.225045">
        <ele>400.108</ele>
        <time>2021-10-16T13:36:52Z</time>
      </trkpt>
      <trkpt lat="39.026587" lon="-5.225306">
        <ele>399.211</ele>
        <time>2021-10-16T13:36:54Z</time>
      </trkpt>
      <trkpt lat="39.026413" lon="-5.225436">
        <ele>399.389</ele>
        <time>2021-10-16T13:36:55Z</time>
      </trkpt>
      <trkpt lat="39.026228" lon="-5.225574">
        <ele>399.228</ele>
        <time>2021-10-16T13:36:56Z</time>
      </trkpt>
      <trkpt lat="39.025868" lon="-5.225834">
        <ele>397.772</ele>
        <time>2021-10-16T13:36:58Z</time>
      </trkpt>
      <trkpt lat="39.025675" lon="-5.225969">
        <ele>397.447</ele>
        <time>2021-10-16T13:36:59Z</time>
      </trkpt>
      <trkpt lat="39.025477" lon="-5.226104">
        <ele>396.626</ele>
        <time>2021-10-16T13:37:00Z</time>
      </trkpt>
      <trkpt lat="39.025066" lon="-5.226383">
        <ele>395.638</ele>
        <time>2021-10-16T13:37:02Z</time>
      </trkpt>
      <trkpt lat="39.024677" lon="-5.226661">
        <ele>394.815</ele>
        <time>2021-10-16T13:37:04Z</time>
      </trkpt>
      <trkpt lat="39.024292" lon="-5.226939">
        <ele>394.185</ele>
        <time>2021-10-16T13:37:06Z</time>
      </trkpt>
      <trkpt lat="39.023941" lon="-5.227194">
        <ele>394.389</ele>
        <time>2021-10-16T13:37:08Z</time>
      </trkpt>
      <trkpt lat="39.023609" lon="-5.227437">
        <ele>394.317</ele>
        <time>2021-10-16T13:37:10Z</time>
      </trkpt>
      <trkpt lat="39.023274" lon="-5.227695">
        <ele>393.708</ele>
        <time>2021-10-16T13:37:12Z</time>
      </trkpt>
      <trkpt lat="39.022926" lon="-5.227952">
        <ele>393.016</ele>
        <time>2021-10-16T13:37:14Z</time>
      </trkpt>
      <trkpt lat="39.022581" lon="-5.228204">
        <ele>392.194</ele>
        <time>2021-10-16T13:37:16Z</time>
      </trkpt>
      <trkpt lat="39.022239" lon="-5.228451">
        <ele>391.613</ele>
        <time>2021-10-16T13:37:18Z</time>
      </trkpt>
      <trkpt lat="39.022068" lon="-5.228573">
        <ele>391.947</ele>
        <time>2021-10-16T13:37:19Z</time>
      </trkpt>
      <trkpt lat="39.021893" lon="-5.228701">
        <ele>391.312</ele>
        <time>2021-10-16T13:37:20Z</time>
      </trkpt>
      <trkpt lat="39.021559" lon="-5.228945">
        <ele>391.291</ele>
        <time>2021-10-16T13:37:22Z</time>
      </trkpt>
      <trkpt lat="39.021381" lon="-5.229078">
        <ele>391.383</ele>
        <time>2021-10-16T13:37:23Z</time>
      </trkpt>
      <trkpt lat="39.021015" lon="-5.229350">
        <ele>390.990</ele>
        <time>2021-10-16T13:37:25Z</time>
      </trkpt>
      <trkpt lat="39.020812" lon="-5.229494">
        <ele>391.357</ele>
        <time>2021-10-16T13:37:26Z</time>
      </trkpt>
      <trkpt lat="39.020410" lon="-5.229780">
        <ele>391.300</ele>
        <time>2021-10-16T13:37:28Z</time>
      </trkpt>
      <trkpt lat="39.019995" lon="-5.230077">
        <ele>392.320</ele>
        <time>2021-10-16T13:37:30Z</time>
      </trkpt>
      <trkpt lat="39.019799" lon="-5.230214">
        <ele>392.708</ele>
        <time>2021-10-16T13:37:31Z</time>
      </trkpt>
      <trkpt lat="39.019602" lon="-5.230352">
        <ele>393.093</ele>
        <time>2021-10-16T13:37:32Z</time>
      </trkpt>
      <trkpt lat="39.019261" lon="-5.230595">
        <ele>393.381</ele>
        <time>2021-10-16T13:37:34Z</time>
      </trkpt>
      <trkpt lat="39.018943" lon="-5.230845">
        <ele>395.070</ele>
        <time>2021-10-16T13:37:36Z</time>
      </trkpt>
      <trkpt lat="39.018619" lon="-5.231169">
        <ele>395.594</ele>
        <time>2021-10-16T13:37:38Z</time>
      </trkpt>
      <trkpt lat="39.018297" lon="-5.231531">
        <ele>395.739</ele>
        <time>2021-10-16T13:37:40Z</time>
      </trkpt>
      <trkpt lat="39.018127" lon="-5.231739">
        <ele>396.228</ele>
        <time>2021-10-16T13:37:41Z</time>
      </trkpt>
      <trkpt lat="39.017780" lon="-5.232175">
        <ele>395.220</ele>
        <time>2021-10-16T13:37:43Z</time>
      </trkpt>
      <trkpt lat="39.017592" lon="-5.232405">
        <ele>395.297</ele>
        <time>2021-10-16T13:37:44Z</time>
      </trkpt>
      <trkpt lat="39.017225" lon="-5.232862">
        <ele>393.731</ele>
        <time>2021-10-16T13:37:46Z</time>
      </trkpt>
      <trkpt lat="39.017034" lon="-5.233108">
        <ele>392.661</ele>
        <time>2021-10-16T13:37:47Z</time>
      </trkpt>
      <trkpt lat="39.016839" lon="-5.233352">
        <ele>392.607</ele>
        <time>2021-10-16T13:37:48Z</time>
      </trkpt>
      <trkpt lat="39.016459" lon="-5.233779">
        <ele>392.108</ele>
        <time>2021-10-16T13:37:50Z</time>
      </trkpt>
      <trkpt lat="39.016096" lon="-5.234118">
        <ele>391.391</ele>
        <time>2021-10-16T13:37:52Z</time>
      </trkpt>
      <trkpt lat="39.015899" lon="-5.234268">
        <ele>390.639</ele>
        <time>2021-10-16T13:37:53Z</time>
      </trkpt>
      <trkpt lat="39.015467" lon="-5.234528">
        <ele>390.768</ele>
        <time>2021-10-16T13:37:55Z</time>
      </trkpt>
      <trkpt lat="39.015230" lon="-5.234663">
        <ele>390.712</ele>
        <time>2021-10-16T13:37:56Z</time>
      </trkpt>
      <trkpt lat="39.014786" lon="-5.234932">
        <ele>390.777</ele>
        <time>2021-10-16T13:37:58Z</time>
      </trkpt>
      <trkpt lat="39.014556" lon="-5.235072">
        <ele>390.446</ele>
        <time>2021-10-16T13:37:59Z</time>
      </trkpt>
      <trkpt lat="39.014331" lon="-5.235215">
        <ele>390.188</ele>
        <time>2021-10-16T13:38:00Z</time>
      </trkpt>
      <trkpt lat="39.013885" lon="-5.235494">
        <ele>390.475</ele>
        <time>2021-10-16T13:38:02Z</time>
      </trkpt>
      <trkpt lat="39.013484" lon="-5.235742">
        <ele>388.865</ele>
        <time>2021-10-16T13:38:04Z</time>
      </trkpt>
      <trkpt lat="39.013289" lon="-5.235864">
        <ele>387.768</ele>
        <time>2021-10-16T13:38:05Z</time>
      </trkpt>
      <trkpt lat="39.012915" lon="-5.236100">
        <ele>386.014</ele>
        <time>2021-10-16T13:38:07Z</time>
      </trkpt>
      <trkpt lat="39.012716" lon="-5.236227">
        <ele>384.308</ele>
        <time>2021-10-16T13:38:08Z</time>
      </trkpt>
      <trkpt lat="39.012313" lon="-5.236484">
        <ele>384.054</ele>
        <time>2021-10-16T13:38:10Z</time>
      </trkpt>
      <trkpt lat="39.012096" lon="-5.236616">
        <ele>384.762</ele>
        <time>2021-10-16T13:38:11Z</time>
      </trkpt>
      <trkpt lat="39.011874" lon="-5.236752">
        <ele>384.931</ele>
        <time>2021-10-16T13:38:12Z</time>
      </trkpt>
      <trkpt lat="39.011443" lon="-5.237024">
        <ele>385.125</ele>
        <time>2021-10-16T13:38:14Z</time>
      </trkpt>
      <trkpt lat="39.011071" lon="-5.237266">
        <ele>386.150</ele>
        <time>2021-10-16T13:38:16Z</time>
      </trkpt>
      <trkpt lat="39.010887" lon="-5.237384">
        <ele>386.719</ele>
        <time>2021-10-16T13:38:17Z</time>
      </trkpt>
      <trkpt lat="39.010706" lon="-5.237506">
        <ele>386.761</ele>
        <time>2021-10-16T13:38:18Z</time>
      </trkpt>
      <trkpt lat="39.010524" lon="-5.237636">
        <ele>386.738</ele>
        <time>2021-10-16T13:38:19Z</time>
      </trkpt>
      <trkpt lat="39.010339" lon="-5.237782">
        <ele>386.913</ele>
        <time>2021-10-16T13:38:20Z</time>
      </trkpt>
      <trkpt lat="39.009996" lon="-5.238105">
        <ele>386.243</ele>
        <time>2021-10-16T13:38:22Z</time>
      </trkpt>
      <trkpt lat="39.009645" lon="-5.238463">
        <ele>384.307</ele>
        <time>2021-10-16T13:38:24Z</time>
      </trkpt>
      <trkpt lat="39.009468" lon="-5.238643">
        <ele>383.808</ele>
        <time>2021-10-16T13:38:25Z</time>
      </trkpt>
      <trkpt lat="39.009282" lon="-5.238830">
        <ele>383.649</ele>
        <time>2021-10-16T13:38:26Z</time>
      </trkpt>
      <trkpt lat="39.008954" lon="-5.239166">
        <ele>384.287</ele>
        <time>2021-10-16T13:38:28Z</time>
      </trkpt>
      <trkpt lat="39.008668" lon="-5.239465">
        <ele>383.186</ele>
        <time>2021-10-16T13:38:30Z</time>
      </trkpt>
      <trkpt lat="39.008377" lon="-5.239761">
        <ele>384.540</ele>
        <time>2021-10-16T13:38:32Z</time>
      </trkpt>
      <trkpt lat="39.008087" lon="-5.240053">
        <ele>385.655</ele>
        <time>2021-10-16T13:38:34Z</time>
      </trkpt>
      <trkpt lat="39.007931" lon="-5.240208">
        <ele>386.464</ele>
        <time>2021-10-16T13:38:35Z</time>
      </trkpt>
      <trkpt lat="39.007639" lon="-5.240505">
        <ele>388.876</ele>
        <time>2021-10-16T13:38:37Z</time>
      </trkpt>
      <trkpt lat="39.007484" lon="-5.240658">
        <ele>389.993</ele>
        <time>2021-10-16T13:38:38Z</time>
      </trkpt>
      <trkpt lat="39.007176" lon="-5.240935">
        <ele>391.411</ele>
        <time>2021-10-16T13:38:40Z</time>
      </trkpt>
      <trkpt lat="39.006867" lon="-5.241189">
        <ele>393.021</ele>
        <time>2021-10-16T13:38:42Z</time>
      </trkpt>
      <trkpt lat="39.006712" lon="-5.241307">
        <ele>393.003</ele>
        <time>2021-10-16T13:38:43Z</time>
      </trkpt>
      <trkpt lat="39.006551" lon="-5.241425">
        <ele>393.308</ele>
        <time>2021-10-16T13:38:44Z</time>
      </trkpt>
      <trkpt lat="39.006241" lon="-5.241642">
        <ele>392.889</ele>
        <time>2021-10-16T13:38:46Z</time>
      </trkpt>
      <trkpt lat="39.006081" lon="-5.241754">
        <ele>392.637</ele>
        <time>2021-10-16T13:38:47Z</time>
      </trkpt>
      <trkpt lat="39.005758" lon="-5.241981">
        <ele>391.846</ele>
        <time>2021-10-16T13:38:49Z</time>
      </trkpt>
      <trkpt lat="39.005584" lon="-5.242103">
        <ele>391.320</ele>
        <time>2021-10-16T13:38:50Z</time>
      </trkpt>
      <trkpt lat="39.005258" lon="-5.242331">
        <ele>389.775</ele>
        <time>2021-10-16T13:38:52Z</time>
      </trkpt>
      <trkpt lat="39.004909" lon="-5.242586">
        <ele>389.774</ele>
        <time>2021-10-16T13:38:54Z</time>
      </trkpt>
      <trkpt lat="39.004741" lon="-5.242711">
        <ele>389.316</ele>
        <time>2021-10-16T13:38:55Z</time>
      </trkpt>
      <trkpt lat="39.004569" lon="-5.242838">
        <ele>388.583</ele>
        <time>2021-10-16T13:38:56Z</time>
      </trkpt>
      <trkpt lat="39.004195" lon="-5.243102">
        <ele>387.323</ele>
        <time>2021-10-16T13:38:58Z</time>
      </trkpt>
      <trkpt lat="39.003740" lon="-5.243408">
        <ele>386.983</ele>
        <time>2021-10-16T13:39:00Z</time>
      </trkpt>
      <trkpt lat="39.003502" lon="-5.243569">
        <ele>386.611</ele>
        <time>2021-10-16T13:39:01Z</time>
      </trkpt>
      <trkpt lat="39.003258" lon="-5.243736">
        <ele>385.708</ele>
        <time>2021-10-16T13:39:02Z</time>
      </trkpt>
      <trkpt lat="39.002793" lon="-5.244068">
        <ele>385.630</ele>
        <time>2021-10-16T13:39:04Z</time>
      </trkpt>
      <trkpt lat="39.002330" lon="-5.244405">
        <ele>386.668</ele>
        <time>2021-10-16T13:39:06Z</time>
      </trkpt>
      <trkpt lat="39.001874" lon="-5.244744">
        <ele>387.617</ele>
        <time>2021-10-16T13:39:08Z</time>
      </trkpt>
      <trkpt lat="39.001463" lon="-5.245062">
        <ele>389.741</ele>
        <time>2021-10-16T13:39:10Z</time>
      </trkpt>
      <trkpt lat="39.001250" lon="-5.245234">
        <ele>390.016</ele>
        <time>2021-10-16T13:39:11Z</time>
      </trkpt>
      <trkpt lat="39.001030" lon="-5.245420">
        <ele>390.865</ele>
        <time>2021-10-16T13:39:12Z</time>
      </trkpt>
      <trkpt lat="39.000582" lon="-5.245818">
        <ele>391.987</ele>
        <time>2021-10-16T13:39:14Z</time>
      </trkpt>
      <trkpt lat="39.000206" lon="-5.246230">
        <ele>394.864</ele>
        <time>2021-10-16T13:39:16Z</time>
      </trkpt>
      <trkpt lat="39.000036" lon="-5.246426">
        <ele>396.258</ele>
        <time>2021-10-16T13:39:17Z</time>
      </trkpt>
      <trkpt lat="38.999712" lon="-5.246755">
        <ele>397.552</ele>
        <time>2021-10-16T13:39:19Z</time>
      </trkpt>
      <trkpt lat="38.999549" lon="-5.246912">
        <ele>398.717</ele>
        <time>2021-10-16T13:39:20Z</time>
      </trkpt>
      <trkpt lat="38.999242" lon="-5.247221">
        <ele>400.508</ele>
        <time>2021-10-16T13:39:22Z</time>
      </trkpt>
      <trkpt lat="38.999082" lon="-5.247381">
        <ele>401.483</ele>
        <time>2021-10-16T13:39:23Z</time>
      </trkpt>
      <trkpt lat="38.998750" lon="-5.247707">
        <ele>402.861</ele>
        <time>2021-10-16T13:39:25Z</time>
      </trkpt>
      <trkpt lat="38.998574" lon="-5.247879">
        <ele>403.510</ele>
        <time>2021-10-16T13:39:26Z</time>
      </trkpt>
      <trkpt lat="38.998246" lon="-5.248202">
        <ele>404.684</ele>
        <time>2021-10-16T13:39:28Z</time>
      </trkpt>
      <trkpt lat="38.998085" lon="-5.248360">
        <ele>405.389</ele>
        <time>2021-10-16T13:39:29Z</time>
      </trkpt>
      <trkpt lat="38.997932" lon="-5.248510">
        <ele>406.028</ele>
        <time>2021-10-16T13:39:30Z</time>
      </trkpt>
      <trkpt lat="38.997642" lon="-5.248795">
        <ele>407.350</ele>
        <time>2021-10-16T13:39:32Z</time>
      </trkpt>
      <trkpt lat="38.997352" lon="-5.249078">
        <ele>408.367</ele>
        <time>2021-10-16T13:39:34Z</time>
      </trkpt>
      <trkpt lat="38.997199" lon="-5.249228">
        <ele>408.661</ele>
        <time>2021-10-16T13:39:35Z</time>
      </trkpt>
      <trkpt lat="38.996883" lon="-5.249542">
        <ele>408.621</ele>
        <time>2021-10-16T13:39:37Z</time>
      </trkpt>
      <trkpt lat="38.996716" lon="-5.249707">
        <ele>408.513</ele>
        <time>2021-10-16T13:39:38Z</time>
      </trkpt>
      <trkpt lat="38.996388" lon="-5.250015">
        <ele>408.408</ele>
        <time>2021-10-16T13:39:40Z</time>
      </trkpt>
      <trkpt lat="38.996058" lon="-5.250325">
        <ele>408.774</ele>
        <time>2021-10-16T13:39:42Z</time>
      </trkpt>
      <trkpt lat="38.995748" lon="-5.250612">
        <ele>408.712</ele>
        <time>2021-10-16T13:39:44Z</time>
      </trkpt>
      <trkpt lat="38.995458" lon="-5.250885">
        <ele>408.351</ele>
        <time>2021-10-16T13:39:46Z</time>
      </trkpt>
      <trkpt lat="38.995308" lon="-5.251026">
        <ele>408.655</ele>
        <time>2021-10-16T13:39:47Z</time>
      </trkpt>
      <trkpt lat="38.994994" lon="-5.251314">
        <ele>408.350</ele>
        <time>2021-10-16T13:39:49Z</time>
      </trkpt>
      <trkpt lat="38.994823" lon="-5.251467">
        <ele>409.189</ele>
        <time>2021-10-16T13:39:50Z</time>
      </trkpt>
      <trkpt lat="38.994501" lon="-5.251766">
        <ele>409.461</ele>
        <time>2021-10-16T13:39:52Z</time>
      </trkpt>
      <trkpt lat="38.994192" lon="-5.252048">
        <ele>410.468</ele>
        <time>2021-10-16T13:39:54Z</time>
      </trkpt>
      <trkpt lat="38.993903" lon="-5.252306">
        <ele>411.984</ele>
        <time>2021-10-16T13:39:56Z</time>
      </trkpt>
      <trkpt lat="38.993660" lon="-5.252522">
        <ele>412.907</ele>
        <time>2021-10-16T13:39:58Z</time>
      </trkpt>
      <trkpt lat="38.993446" lon="-5.252716">
        <ele>413.817</ele>
        <time>2021-10-16T13:40:00Z</time>
      </trkpt>
      <trkpt lat="38.993345" lon="-5.252806">
        <ele>414.308</ele>
        <time>2021-10-16T13:40:01Z</time>
      </trkpt>
      <trkpt lat="38.993240" lon="-5.252903">
        <ele>415.296</ele>
        <time>2021-10-16T13:40:02Z</time>
      </trkpt>
      <trkpt lat="38.993044" lon="-5.253087">
        <ele>415.474</ele>
        <time>2021-10-16T13:40:04Z</time>
      </trkpt>
      <trkpt lat="38.992858" lon="-5.253264">
        <ele>416.223</ele>
        <time>2021-10-16T13:40:06Z</time>
      </trkpt>
      <trkpt lat="38.992679" lon="-5.253440">
        <ele>417.417</ele>
        <time>2021-10-16T13:40:08Z</time>
      </trkpt>
      <trkpt lat="38.992542" lon="-5.253570">
        <ele>418.742</ele>
        <time>2021-10-16T13:40:10Z</time>
      </trkpt>
      <trkpt lat="38.992457" lon="-5.253653">
        <ele>419.361</ele>
        <time>2021-10-16T13:40:12Z</time>
      </trkpt>
      <trkpt lat="38.992420" lon="-5.253691">
        <ele>420.263</ele>
        <time>2021-10-16T13:40:15Z</time>
      </trkpt>
      <trkpt lat="38.992342" lon="-5.253740">
        <ele>420.290</ele>
        <time>2021-10-16T13:40:17Z</time>
      </trkpt>
      <trkpt lat="38.992197" lon="-5.253765">
        <ele>420.783</ele>
        <time>2021-10-16T13:40:19Z</time>
      </trkpt>
      <trkpt lat="38.992096" lon="-5.253758">
        <ele>420.725</ele>
        <time>2021-10-16T13:40:20Z</time>
      </trkpt>
      <trkpt lat="38.991891" lon="-5.253727">
        <ele>421.817</ele>
        <time>2021-10-16T13:40:22Z</time>
      </trkpt>
      <trkpt lat="38.991779" lon="-5.253710">
        <ele>421.808</ele>
        <time>2021-10-16T13:40:23Z</time>
      </trkpt>
      <trkpt lat="38.991546" lon="-5.253682">
        <ele>422.276</ele>
        <time>2021-10-16T13:40:25Z</time>
      </trkpt>
      <trkpt lat="38.991421" lon="-5.253667">
        <ele>422.524</ele>
        <time>2021-10-16T13:40:26Z</time>
      </trkpt>
      <trkpt lat="38.991168" lon="-5.253630">
        <ele>422.943</ele>
        <time>2021-10-16T13:40:28Z</time>
      </trkpt>
      <trkpt lat="38.990906" lon="-5.253602">
        <ele>423.527</ele>
        <time>2021-10-16T13:40:30Z</time>
      </trkpt>
      <trkpt lat="38.990772" lon="-5.253592">
        <ele>424.172</ele>
        <time>2021-10-16T13:40:31Z</time>
      </trkpt>
      <trkpt lat="38.990628" lon="-5.253577">
        <ele>425.061</ele>
        <time>2021-10-16T13:40:32Z</time>
      </trkpt>
      <trkpt lat="38.990330" lon="-5.253538">
        <ele>424.193</ele>
        <time>2021-10-16T13:40:34Z</time>
      </trkpt>
      <trkpt lat="38.990181" lon="-5.253520">
        <ele>424.990</ele>
        <time>2021-10-16T13:40:35Z</time>
      </trkpt>
      <trkpt lat="38.989918" lon="-5.253492">
        <ele>426.419</ele>
        <time>2021-10-16T13:40:37Z</time>
      </trkpt>
      <trkpt lat="38.989800" lon="-5.253482">
        <ele>426.709</ele>
        <time>2021-10-16T13:40:38Z</time>
      </trkpt>
      <trkpt lat="38.989608" lon="-5.253466">
        <ele>427.419</ele>
        <time>2021-10-16T13:40:40Z</time>
      </trkpt>
      <trkpt lat="38.989518" lon="-5.253455">
        <ele>427.408</ele>
        <time>2021-10-16T13:40:41Z</time>
      </trkpt>
      <trkpt lat="38.989332" lon="-5.253431">
        <ele>428.639</ele>
        <time>2021-10-16T13:40:43Z</time>
      </trkpt>
      <trkpt lat="38.989221" lon="-5.253417">
        <ele>429.327</ele>
        <time>2021-10-16T13:40:44Z</time>
      </trkpt>
      <trkpt lat="38.988991" lon="-5.253360">
        <ele>429.486</ele>
        <time>2021-10-16T13:40:46Z</time>
      </trkpt>
      <trkpt lat="38.988741" lon="-5.253212">
        <ele>430.790</ele>
        <time>2021-10-16T13:40:48Z</time>
      </trkpt>
      <trkpt lat="38.988507" lon="-5.252938">
        <ele>430.675</ele>
        <time>2021-10-16T13:40:50Z</time>
      </trkpt>
      <trkpt lat="38.988313" lon="-5.252595">
        <ele>429.934</ele>
        <time>2021-10-16T13:40:52Z</time>
      </trkpt>
      <trkpt lat="38.988228" lon="-5.252415">
        <ele>430.726</ele>
        <time>2021-10-16T13:40:53Z</time>
      </trkpt>
      <trkpt lat="38.988149" lon="-5.252244">
        <ele>430.853</ele>
        <time>2021-10-16T13:40:54Z</time>
      </trkpt>
      <trkpt lat="38.987997" lon="-5.251932">
        <ele>430.372</ele>
        <time>2021-10-16T13:40:56Z</time>
      </trkpt>
      <trkpt lat="38.987854" lon="-5.251640">
        <ele>430.413</ele>
        <time>2021-10-16T13:40:58Z</time>
      </trkpt>
      <trkpt lat="38.987690" lon="-5.251309">
        <ele>431.014</ele>
        <time>2021-10-16T13:41:00Z</time>
      </trkpt>
      <trkpt lat="38.987601" lon="-5.251131">
        <ele>430.608</ele>
        <time>2021-10-16T13:41:01Z</time>
      </trkpt>
      <trkpt lat="38.987504" lon="-5.250944">
        <ele>430.525</ele>
        <time>2021-10-16T13:41:02Z</time>
      </trkpt>
      <trkpt lat="38.987316" lon="-5.250558">
        <ele>429.743</ele>
        <time>2021-10-16T13:41:04Z</time>
      </trkpt>
      <trkpt lat="38.987219" lon="-5.250352">
        <ele>429.312</ele>
        <time>2021-10-16T13:41:05Z</time>
      </trkpt>
      <trkpt lat="38.987117" lon="-5.250145">
        <ele>429.096</ele>
        <time>2021-10-16T13:41:06Z</time>
      </trkpt>
      <trkpt lat="38.986915" lon="-5.249743">
        <ele>429.981</ele>
        <time>2021-10-16T13:41:08Z</time>
      </trkpt>
      <trkpt lat="38.986727" lon="-5.249374">
        <ele>429.540</ele>
        <time>2021-10-16T13:41:10Z</time>
      </trkpt>
      <trkpt lat="38.986528" lon="-5.248988">
        <ele>430.532</ele>
        <time>2021-10-16T13:41:12Z</time>
      </trkpt>
      <trkpt lat="38.986306" lon="-5.248559">
        <ele>430.039</ele>
        <time>2021-10-16T13:41:14Z</time>
      </trkpt>
      <trkpt lat="38.986088" lon="-5.248151">
        <ele>431.219</ele>
        <time>2021-10-16T13:41:16Z</time>
      </trkpt>
      <trkpt lat="38.985973" lon="-5.247938">
        <ele>430.609</ele>
        <time>2021-10-16T13:41:17Z</time>
      </trkpt>
      <trkpt lat="38.985734" lon="-5.247484">
        <ele>430.619</ele>
        <time>2021-10-16T13:41:19Z</time>
      </trkpt>
      <trkpt lat="38.985606" lon="-5.247233">
        <ele>430.308</ele>
        <time>2021-10-16T13:41:20Z</time>
      </trkpt>
      <trkpt lat="38.985360" lon="-5.246738">
        <ele>430.659</ele>
        <time>2021-10-16T13:41:22Z</time>
      </trkpt>
      <trkpt lat="38.985237" lon="-5.246482">
        <ele>431.267</ele>
        <time>2021-10-16T13:41:23Z</time>
      </trkpt>
      <trkpt lat="38.985114" lon="-5.246230">
        <ele>430.756</ele>
        <time>2021-10-16T13:41:24Z</time>
      </trkpt>
      <trkpt lat="38.984858" lon="-5.245729">
        <ele>430.990</ele>
        <time>2021-10-16T13:41:26Z</time>
      </trkpt>
      <trkpt lat="38.984586" lon="-5.245280">
        <ele>431.425</ele>
        <time>2021-10-16T13:41:28Z</time>
      </trkpt>
      <trkpt lat="38.984429" lon="-5.245054">
        <ele>432.274</ele>
        <time>2021-10-16T13:41:29Z</time>
      </trkpt>
      <trkpt lat="38.984083" lon="-5.244637">
        <ele>433.366</ele>
        <time>2021-10-16T13:41:31Z</time>
      </trkpt>
      <trkpt lat="38.983884" lon="-5.244452">
        <ele>434.173</ele>
        <time>2021-10-16T13:41:32Z</time>
      </trkpt>
      <trkpt lat="38.983448" lon="-5.244146">
        <ele>436.251</ele>
        <time>2021-10-16T13:41:34Z</time>
      </trkpt>
      <trkpt lat="38.983216" lon="-5.244006">
        <ele>437.901</ele>
        <time>2021-10-16T13:41:35Z</time>
      </trkpt>
      <trkpt lat="38.982734" lon="-5.243756">
        <ele>440.911</ele>
        <time>2021-10-16T13:41:37Z</time>
      </trkpt>
      <trkpt lat="38.982469" lon="-5.243667">
        <ele>441.608</ele>
        <time>2021-10-16T13:41:38Z</time>
      </trkpt>
      <trkpt lat="38.981953" lon="-5.243598">
        <ele>445.563</ele>
        <time>2021-10-16T13:41:40Z</time>
      </trkpt>
      <trkpt lat="38.981423" lon="-5.243598">
        <ele>448.721</ele>
        <time>2021-10-16T13:41:42Z</time>
      </trkpt>
      <trkpt lat="38.980896" lon="-5.243608">
        <ele>449.910</ele>
        <time>2021-10-16T13:41:44Z</time>
      </trkpt>
      <trkpt lat="38.980401" lon="-5.243604">
        <ele>451.234</ele>
        <time>2021-10-16T13:41:46Z</time>
      </trkpt>
      <trkpt lat="38.979908" lon="-5.243611">
        <ele>452.269</ele>
        <time>2021-10-16T13:41:48Z</time>
      </trkpt>
      <trkpt lat="38.979669" lon="-5.243613">
        <ele>452.818</ele>
        <time>2021-10-16T13:41:49Z</time>
      </trkpt>
      <trkpt lat="38.979446" lon="-5.243613">
        <ele>453.620</ele>
        <time>2021-10-16T13:41:50Z</time>
      </trkpt>
      <trkpt lat="38.979028" lon="-5.243597">
        <ele>453.037</ele>
        <time>2021-10-16T13:41:52Z</time>
      </trkpt>
      <trkpt lat="38.978611" lon="-5.243575">
        <ele>451.921</ele>
        <time>2021-10-16T13:41:54Z</time>
      </trkpt>
      <trkpt lat="38.978411" lon="-5.243572">
        <ele>452.241</ele>
        <time>2021-10-16T13:41:55Z</time>
      </trkpt>
      <trkpt lat="38.978216" lon="-5.243574">
        <ele>452.205</ele>
        <time>2021-10-16T13:41:56Z</time>
      </trkpt>
      <trkpt lat="38.977853" lon="-5.243633">
        <ele>451.108</ele>
        <time>2021-10-16T13:41:58Z</time>
      </trkpt>
      <trkpt lat="38.977663" lon="-5.243699">
        <ele>450.260</ele>
        <time>2021-10-16T13:41:59Z</time>
      </trkpt>
      <trkpt lat="38.977286" lon="-5.243896">
        <ele>447.258</ele>
        <time>2021-10-16T13:42:01Z</time>
      </trkpt>
      <trkpt lat="38.977101" lon="-5.244034">
        <ele>445.697</ele>
        <time>2021-10-16T13:42:02Z</time>
      </trkpt>
      <trkpt lat="38.976748" lon="-5.244328">
        <ele>442.171</ele>
        <time>2021-10-16T13:42:04Z</time>
      </trkpt>
      <trkpt lat="38.976579" lon="-5.244466">
        <ele>440.536</ele>
        <time>2021-10-16T13:42:05Z</time>
      </trkpt>
      <trkpt lat="38.976242" lon="-5.244722">
        <ele>437.025</ele>
        <time>2021-10-16T13:42:07Z</time>
      </trkpt>
      <trkpt lat="38.976059" lon="-5.244849">
        <ele>435.847</ele>
        <time>2021-10-16T13:42:08Z</time>
      </trkpt>
      <trkpt lat="38.975689" lon="-5.245057">
        <ele>432.184</ele>
        <time>2021-10-16T13:42:10Z</time>
      </trkpt>
      <trkpt lat="38.975484" lon="-5.245133">
        <ele>430.827</ele>
        <time>2021-10-16T13:42:11Z</time>
      </trkpt>
      <trkpt lat="38.975274" lon="-5.245181">
        <ele>428.668</ele>
        <time>2021-10-16T13:42:12Z</time>
      </trkpt>
      <trkpt lat="38.974826" lon="-5.245221">
        <ele>425.414</ele>
        <time>2021-10-16T13:42:14Z</time>
      </trkpt>
      <trkpt lat="38.974380" lon="-5.245181">
        <ele>421.208</ele>
        <time>2021-10-16T13:42:16Z</time>
      </trkpt>
      <trkpt lat="38.973922" lon="-5.245071">
        <ele>418.110</ele>
        <time>2021-10-16T13:42:18Z</time>
      </trkpt>
      <trkpt lat="38.973463" lon="-5.244937">
        <ele>414.948</ele>
        <time>2021-10-16T13:42:20Z</time>
      </trkpt>
      <trkpt lat="38.973116" lon="-5.244830">
        <ele>412.167</ele>
        <time>2021-10-16T13:42:22Z</time>
      </trkpt>
      <trkpt lat="38.972970" lon="-5.244790">
        <ele>411.151</ele>
        <time>2021-10-16T13:42:23Z</time>
      </trkpt>
      <trkpt lat="38.972663" lon="-5.244717">
        <ele>408.786</ele>
        <time>2021-10-16T13:42:25Z</time>
      </trkpt>
      <trkpt lat="38.972480" lon="-5.244674">
        <ele>407.625</ele>
        <time>2021-10-16T13:42:26Z</time>
      </trkpt>
      <trkpt lat="38.972101" lon="-5.244584">
        <ele>404.837</ele>
        <time>2021-10-16T13:42:28Z</time>
      </trkpt>
      <trkpt lat="38.971894" lon="-5.244528">
        <ele>403.864</ele>
        <time>2021-10-16T13:42:29Z</time>
      </trkpt>
      <trkpt lat="38.971469" lon="-5.244385">
        <ele>402.415</ele>
        <time>2021-10-16T13:42:31Z</time>
      </trkpt>
      <trkpt lat="38.971247" lon="-5.244272">
        <ele>402.065</ele>
        <time>2021-10-16T13:42:32Z</time>
      </trkpt>
      <trkpt lat="38.970829" lon="-5.243971">
        <ele>400.011</ele>
        <time>2021-10-16T13:42:34Z</time>
      </trkpt>
      <trkpt lat="38.970615" lon="-5.243762">
        <ele>399.608</ele>
        <time>2021-10-16T13:42:35Z</time>
      </trkpt>
      <trkpt lat="38.970212" lon="-5.243254">
        <ele>397.799</ele>
        <time>2021-10-16T13:42:37Z</time>
      </trkpt>
      <trkpt lat="38.970011" lon="-5.242937">
        <ele>396.217</ele>
        <time>2021-10-16T13:42:38Z</time>
      </trkpt>
      <trkpt lat="38.969642" lon="-5.242290">
        <ele>395.596</ele>
        <time>2021-10-16T13:42:40Z</time>
      </trkpt>
      <trkpt lat="38.969453" lon="-5.241961">
        <ele>394.610</ele>
        <time>2021-10-16T13:42:41Z</time>
      </trkpt>
      <trkpt lat="38.969264" lon="-5.241639">
        <ele>393.825</ele>
        <time>2021-10-16T13:42:42Z</time>
      </trkpt>
      <trkpt lat="38.969073" lon="-5.241325">
        <ele>393.674</ele>
        <time>2021-10-16T13:42:43Z</time>
      </trkpt>
      <trkpt lat="38.968882" lon="-5.241001">
        <ele>393.096</ele>
        <time>2021-10-16T13:42:44Z</time>
      </trkpt>
      <trkpt lat="38.968531" lon="-5.240396">
        <ele>392.273</ele>
        <time>2021-10-16T13:42:46Z</time>
      </trkpt>
      <trkpt lat="38.968160" lon="-5.239798">
        <ele>390.846</ele>
        <time>2021-10-16T13:42:48Z</time>
      </trkpt>
      <trkpt lat="38.967973" lon="-5.239499">
        <ele>390.788</ele>
        <time>2021-10-16T13:42:49Z</time>
      </trkpt>
      <trkpt lat="38.967784" lon="-5.239186">
        <ele>390.116</ele>
        <time>2021-10-16T13:42:50Z</time>
      </trkpt>
      <trkpt lat="38.967419" lon="-5.238582">
        <ele>389.708</ele>
        <time>2021-10-16T13:42:52Z</time>
      </trkpt>
      <trkpt lat="38.967229" lon="-5.238258">
        <ele>390.082</ele>
        <time>2021-10-16T13:42:53Z</time>
      </trkpt>
      <trkpt lat="38.967039" lon="-5.237936">
        <ele>389.290</ele>
        <time>2021-10-16T13:42:54Z</time>
      </trkpt>
      <trkpt lat="38.966650" lon="-5.237282">
        <ele>387.989</ele>
        <time>2021-10-16T13:42:56Z</time>
      </trkpt>
      <trkpt lat="38.966281" lon="-5.236671">
        <ele>388.813</ele>
        <time>2021-10-16T13:42:58Z</time>
      </trkpt>
      <trkpt lat="38.965906" lon="-5.236056">
        <ele>388.488</ele>
        <time>2021-10-16T13:43:00Z</time>
      </trkpt>
      <trkpt lat="38.965718" lon="-5.235753">
        <ele>388.357</ele>
        <time>2021-10-16T13:43:01Z</time>
      </trkpt>
      <trkpt lat="38.965534" lon="-5.235453">
        <ele>388.379</ele>
        <time>2021-10-16T13:43:02Z</time>
      </trkpt>
      <trkpt lat="38.965183" lon="-5.234881">
        <ele>391.126</ele>
        <time>2021-10-16T13:43:04Z</time>
      </trkpt>
      <trkpt lat="38.964858" lon="-5.234362">
        <ele>394.514</ele>
        <time>2021-10-16T13:43:06Z</time>
      </trkpt>
      <trkpt lat="38.964517" lon="-5.233864">
        <ele>396.354</ele>
        <time>2021-10-16T13:43:08Z</time>
      </trkpt>
      <trkpt lat="38.964149" lon="-5.233422">
        <ele>397.409</ele>
        <time>2021-10-16T13:43:10Z</time>
      </trkpt>
      <trkpt lat="38.963951" lon="-5.233226">
        <ele>397.108</ele>
        <time>2021-10-16T13:43:11Z</time>
      </trkpt>
      <trkpt lat="38.963574" lon="-5.232904">
        <ele>396.169</ele>
        <time>2021-10-16T13:43:13Z</time>
      </trkpt>
      <trkpt lat="38.963393" lon="-5.232751">
        <ele>395.157</ele>
        <time>2021-10-16T13:43:14Z</time>
      </trkpt>
      <trkpt lat="38.963073" lon="-5.232456">
        <ele>392.346</ele>
        <time>2021-10-16T13:43:16Z</time>
      </trkpt>
      <trkpt lat="38.962759" lon="-5.232128">
        <ele>390.360</ele>
        <time>2021-10-16T13:43:18Z</time>
      </trkpt>
      <trkpt lat="38.962443" lon="-5.231740">
        <ele>387.345</ele>
        <time>2021-10-16T13:43:20Z</time>
      </trkpt>
      <trkpt lat="38.962178" lon="-5.231300">
        <ele>384.424</ele>
        <time>2021-10-16T13:43:22Z</time>
      </trkpt>
      <trkpt lat="38.961951" lon="-5.230838">
        <ele>382.576</ele>
        <time>2021-10-16T13:43:24Z</time>
      </trkpt>
      <trkpt lat="38.961845" lon="-5.230616">
        <ele>381.383</ele>
        <time>2021-10-16T13:43:25Z</time>
      </trkpt>
      <trkpt lat="38.961739" lon="-5.230392">
        <ele>381.228</ele>
        <time>2021-10-16T13:43:26Z</time>
      </trkpt>
      <trkpt lat="38.961551" lon="-5.230003">
        <ele>381.089</ele>
        <time>2021-10-16T13:43:28Z</time>
      </trkpt>
      <trkpt lat="38.961464" lon="-5.229824">
        <ele>381.417</ele>
        <time>2021-10-16T13:43:29Z</time>
      </trkpt>
      <trkpt lat="38.961381" lon="-5.229654">
        <ele>380.708</ele>
        <time>2021-10-16T13:43:30Z</time>
      </trkpt>
      <trkpt lat="38.961297" lon="-5.229492">
        <ele>380.420</ele>
        <time>2021-10-16T13:43:31Z</time>
      </trkpt>
      <trkpt lat="38.961205" lon="-5.229324">
        <ele>380.578</ele>
        <time>2021-10-16T13:43:32Z</time>
      </trkpt>
      <trkpt lat="38.961005" lon="-5.229011">
        <ele>380.097</ele>
        <time>2021-10-16T13:43:34Z</time>
      </trkpt>
      <trkpt lat="38.960890" lon="-5.228858">
        <ele>379.731</ele>
        <time>2021-10-16T13:43:35Z</time>
      </trkpt>
      <trkpt lat="38.960764" lon="-5.228719">
        <ele>379.686</ele>
        <time>2021-10-16T13:43:36Z</time>
      </trkpt>
      <trkpt lat="38.960468" lon="-5.228463">
        <ele>378.095</ele>
        <time>2021-10-16T13:43:38Z</time>
      </trkpt>
      <trkpt lat="38.960117" lon="-5.228182">
        <ele>378.787</ele>
        <time>2021-10-16T13:43:40Z</time>
      </trkpt>
      <trkpt lat="38.959719" lon="-5.227842">
        <ele>379.744</ele>
        <time>2021-10-16T13:43:42Z</time>
      </trkpt>
      <trkpt lat="38.959533" lon="-5.227622">
        <ele>379.934</ele>
        <time>2021-10-16T13:43:43Z</time>
      </trkpt>
      <trkpt lat="38.959370" lon="-5.227362">
        <ele>380.355</ele>
        <time>2021-10-16T13:43:44Z</time>
      </trkpt>
      <trkpt lat="38.959101" lon="-5.226754">
        <ele>380.710</ele>
        <time>2021-10-16T13:43:46Z</time>
      </trkpt>
      <trkpt lat="38.958826" lon="-5.226080">
        <ele>381.708</ele>
        <time>2021-10-16T13:43:48Z</time>
      </trkpt>
      <trkpt lat="38.958684" lon="-5.225758">
        <ele>382.551</ele>
        <time>2021-10-16T13:43:49Z</time>
      </trkpt>
      <trkpt lat="38.958543" lon="-5.225456">
        <ele>383.099</ele>
        <time>2021-10-16T13:43:50Z</time>
      </trkpt>
      <trkpt lat="38.958243" lon="-5.224966">
        <ele>383.898</ele>
        <time>2021-10-16T13:43:52Z</time>
      </trkpt>
      <trkpt lat="38.958060" lon="-5.224781">
        <ele>384.212</ele>
        <time>2021-10-16T13:43:53Z</time>
      </trkpt>
      <trkpt lat="38.957671" lon="-5.224598">
        <ele>385.017</ele>
        <time>2021-10-16T13:43:55Z</time>
      </trkpt>
      <trkpt lat="38.957452" lon="-5.224576">
        <ele>384.876</ele>
        <time>2021-10-16T13:43:56Z</time>
      </trkpt>
      <trkpt lat="38.957000" lon="-5.224626">
        <ele>385.898</ele>
        <time>2021-10-16T13:43:58Z</time>
      </trkpt>
      <trkpt lat="38.956480" lon="-5.224631">
        <ele>385.635</ele>
        <time>2021-10-16T13:44:00Z</time>
      </trkpt>
      <trkpt lat="38.956225" lon="-5.224608">
        <ele>385.159</ele>
        <time>2021-10-16T13:44:01Z</time>
      </trkpt>
      <trkpt lat="38.955978" lon="-5.224578">
        <ele>384.503</ele>
        <time>2021-10-16T13:44:02Z</time>
      </trkpt>
      <trkpt lat="38.955499" lon="-5.224435">
        <ele>382.723</ele>
        <time>2021-10-16T13:44:04Z</time>
      </trkpt>
      <trkpt lat="38.955050" lon="-5.224106">
        <ele>379.508</ele>
        <time>2021-10-16T13:44:06Z</time>
      </trkpt>
      <trkpt lat="38.954856" lon="-5.223852">
        <ele>378.673</ele>
        <time>2021-10-16T13:44:07Z</time>
      </trkpt>
      <trkpt lat="38.954676" lon="-5.223548">
        <ele>377.451</ele>
        <time>2021-10-16T13:44:08Z</time>
      </trkpt>
      <trkpt lat="38.954362" lon="-5.222989">
        <ele>373.550</ele>
        <time>2021-10-16T13:44:10Z</time>
      </trkpt>
      <trkpt lat="38.954045" lon="-5.222562">
        <ele>371.444</ele>
        <time>2021-10-16T13:44:12Z</time>
      </trkpt>
      <trkpt lat="38.953879" lon="-5.222413">
        <ele>370.339</ele>
        <time>2021-10-16T13:44:13Z</time>
      </trkpt>
      <trkpt lat="38.953691" lon="-5.222305">
        <ele>368.458</ele>
        <time>2021-10-16T13:44:14Z</time>
      </trkpt>
      <trkpt lat="38.953250" lon="-5.222184">
        <ele>364.780</ele>
        <time>2021-10-16T13:44:16Z</time>
      </trkpt>
      <trkpt lat="38.952990" lon="-5.222131">
        <ele>362.687</ele>
        <time>2021-10-16T13:44:17Z</time>
      </trkpt>
      <trkpt lat="38.952718" lon="-5.222059">
        <ele>360.515</ele>
        <time>2021-10-16T13:44:18Z</time>
      </trkpt>
      <trkpt lat="38.952191" lon="-5.221817">
        <ele>358.065</ele>
        <time>2021-10-16T13:44:20Z</time>
      </trkpt>
      <trkpt lat="38.951730" lon="-5.221475">
        <ele>352.711</ele>
        <time>2021-10-16T13:44:22Z</time>
      </trkpt>
      <trkpt lat="38.951275" lon="-5.221176">
        <ele>349.408</ele>
        <time>2021-10-16T13:44:24Z</time>
      </trkpt>
      <trkpt lat="38.950794" lon="-5.221011">
        <ele>344.919</ele>
        <time>2021-10-16T13:44:26Z</time>
      </trkpt>
      <trkpt lat="38.950334" lon="-5.220956">
        <ele>340.447</ele>
        <time>2021-10-16T13:44:28Z</time>
      </trkpt>
      <trkpt lat="38.950094" lon="-5.220942">
        <ele>339.076</ele>
        <time>2021-10-16T13:44:29Z</time>
      </trkpt>
      <trkpt lat="38.949851" lon="-5.220948">
        <ele>338.140</ele>
        <time>2021-10-16T13:44:30Z</time>
      </trkpt>
      <trkpt lat="38.949360" lon="-5.221037">
        <ele>335.035</ele>
        <time>2021-10-16T13:44:32Z</time>
      </trkpt>
      <trkpt lat="38.948869" lon="-5.221210">
        <ele>332.034</ele>
        <time>2021-10-16T13:44:34Z</time>
      </trkpt>
      <trkpt lat="38.948376" lon="-5.221420">
        <ele>328.296</ele>
        <time>2021-10-16T13:44:36Z</time>
      </trkpt>
      <trkpt lat="38.948137" lon="-5.221522">
        <ele>326.493</ele>
        <time>2021-10-16T13:44:37Z</time>
      </trkpt>
      <trkpt lat="38.947901" lon="-5.221620">
        <ele>325.074</ele>
        <time>2021-10-16T13:44:38Z</time>
      </trkpt>
      <trkpt lat="38.947466" lon="-5.221781">
        <ele>322.056</ele>
        <time>2021-10-16T13:44:40Z</time>
      </trkpt>
      <trkpt lat="38.947255" lon="-5.221857">
        <ele>320.321</ele>
        <time>2021-10-16T13:44:41Z</time>
      </trkpt>
      <trkpt lat="38.947055" lon="-5.221930">
        <ele>319.608</ele>
        <time>2021-10-16T13:44:42Z</time>
      </trkpt>
      <trkpt lat="38.946864" lon="-5.221991">
        <ele>319.695</ele>
        <time>2021-10-16T13:44:43Z</time>
      </trkpt>
      <trkpt lat="38.946674" lon="-5.222026">
        <ele>318.963</ele>
        <time>2021-10-16T13:44:44Z</time>
      </trkpt>
      <trkpt lat="38.946315" lon="-5.221959">
        <ele>318.012</ele>
        <time>2021-10-16T13:44:46Z</time>
      </trkpt>
      <trkpt lat="38.946145" lon="-5.221847">
        <ele>318.466</ele>
        <time>2021-10-16T13:44:47Z</time>
      </trkpt>
      <trkpt lat="38.946004" lon="-5.221681">
        <ele>318.171</ele>
        <time>2021-10-16T13:44:48Z</time>
      </trkpt>
      <trkpt lat="38.945814" lon="-5.221204">
        <ele>318.020</ele>
        <time>2021-10-16T13:44:50Z</time>
      </trkpt>
      <trkpt lat="38.945792" lon="-5.220694">
        <ele>317.322</ele>
        <time>2021-10-16T13:44:52Z</time>
      </trkpt>
      <trkpt lat="38.945851" lon="-5.220456">
        <ele>317.159</ele>
        <time>2021-10-16T13:44:53Z</time>
      </trkpt>
      <trkpt lat="38.945950" lon="-5.220219">
        <ele>316.477</ele>
        <time>2021-10-16T13:44:54Z</time>
      </trkpt>
      <trkpt lat="38.946201" lon="-5.219692">
        <ele>316.361</ele>
        <time>2021-10-16T13:44:56Z</time>
      </trkpt>
      <trkpt lat="38.946432" lon="-5.219135">
        <ele>316.627</ele>
        <time>2021-10-16T13:44:58Z</time>
      </trkpt>
      <trkpt lat="38.946583" lon="-5.218610">
        <ele>316.108</ele>
        <time>2021-10-16T13:45:00Z</time>
      </trkpt>
      <trkpt lat="38.946607" lon="-5.218367">
        <ele>316.225</ele>
        <time>2021-10-16T13:45:01Z</time>
      </trkpt>
      <trkpt lat="38.946587" lon="-5.218133">
        <ele>316.273</ele>
        <time>2021-10-16T13:45:02Z</time>
      </trkpt>
      <trkpt lat="38.946417" lon="-5.217765">
        <ele>317.492</ele>
        <time>2021-10-16T13:45:04Z</time>
      </trkpt>
      <trkpt lat="38.946265" lon="-5.217619">
        <ele>317.186</ele>
        <time>2021-10-16T13:45:05Z</time>
      </trkpt>
      <trkpt lat="38.946072" lon="-5.217500">
        <ele>317.671</ele>
        <time>2021-10-16T13:45:06Z</time>
      </trkpt>
      <trkpt lat="38.945623" lon="-5.217285">
        <ele>318.040</ele>
        <time>2021-10-16T13:45:08Z</time>
      </trkpt>
      <trkpt lat="38.945171" lon="-5.217022">
        <ele>318.662</ele>
        <time>2021-10-16T13:45:10Z</time>
      </trkpt>
      <trkpt lat="38.944959" lon="-5.216869">
        <ele>318.779</ele>
        <time>2021-10-16T13:45:11Z</time>
      </trkpt>
      <trkpt lat="38.944587" lon="-5.216470">
        <ele>318.463</ele>
        <time>2021-10-16T13:45:13Z</time>
      </trkpt>
      <trkpt lat="38.944440" lon="-5.216209">
        <ele>318.644</ele>
        <time>2021-10-16T13:45:14Z</time>
      </trkpt>
      <trkpt lat="38.944230" lon="-5.215610">
        <ele>316.218</ele>
        <time>2021-10-16T13:45:16Z</time>
      </trkpt>
      <trkpt lat="38.944012" lon="-5.214946">
        <ele>314.108</ele>
        <time>2021-10-16T13:45:18Z</time>
      </trkpt>
      <trkpt lat="38.943778" lon="-5.214310">
        <ele>311.464</ele>
        <time>2021-10-16T13:45:20Z</time>
      </trkpt>
      <trkpt lat="38.943547" lon="-5.213732">
        <ele>309.062</ele>
        <time>2021-10-16T13:45:22Z</time>
      </trkpt>
      <trkpt lat="38.943319" lon="-5.213160">
        <ele>307.691</ele>
        <time>2021-10-16T13:45:24Z</time>
      </trkpt>
      <trkpt lat="38.943208" lon="-5.212873">
        <ele>307.035</ele>
        <time>2021-10-16T13:45:25Z</time>
      </trkpt>
      <trkpt lat="38.942977" lon="-5.212319">
        <ele>305.890</ele>
        <time>2021-10-16T13:45:27Z</time>
      </trkpt>
      <trkpt lat="38.942842" lon="-5.212069">
        <ele>306.199</ele>
        <time>2021-10-16T13:45:28Z</time>
      </trkpt>
      <trkpt lat="38.942677" lon="-5.211862">
        <ele>306.561</ele>
        <time>2021-10-16T13:45:29Z</time>
      </trkpt>
      <trkpt lat="38.942491" lon="-5.211711">
        <ele>306.268</ele>
        <time>2021-10-16T13:45:30Z</time>
      </trkpt>
      <trkpt lat="38.942288" lon="-5.211612">
        <ele>306.288</ele>
        <time>2021-10-16T13:45:31Z</time>
      </trkpt>
      <trkpt lat="38.942064" lon="-5.211554">
        <ele>306.124</ele>
        <time>2021-10-16T13:45:32Z</time>
      </trkpt>
      <trkpt lat="38.941606" lon="-5.211548">
        <ele>306.126</ele>
        <time>2021-10-16T13:45:34Z</time>
      </trkpt>
      <trkpt lat="38.941145" lon="-5.211531">
        <ele>305.808</ele>
        <time>2021-10-16T13:45:36Z</time>
      </trkpt>
      <trkpt lat="38.940746" lon="-5.211498">
        <ele>305.526</ele>
        <time>2021-10-16T13:45:38Z</time>
      </trkpt>
      <trkpt lat="38.940443" lon="-5.211430">
        <ele>305.324</ele>
        <time>2021-10-16T13:45:40Z</time>
      </trkpt>
      <trkpt lat="38.940192" lon="-5.211306">
        <ele>305.343</ele>
        <time>2021-10-16T13:45:42Z</time>
      </trkpt>
      <trkpt lat="38.939985" lon="-5.211144">
        <ele>305.827</ele>
        <time>2021-10-16T13:45:44Z</time>
      </trkpt>
      <trkpt lat="38.939803" lon="-5.210997">
        <ele>304.932</ele>
        <time>2021-10-16T13:45:46Z</time>
      </trkpt>
      <trkpt lat="38.939709" lon="-5.210923">
        <ele>306.211</ele>
        <time>2021-10-16T13:45:47Z</time>
      </trkpt>
      <trkpt lat="38.939611" lon="-5.210850">
        <ele>306.233</ele>
        <time>2021-10-16T13:45:48Z</time>
      </trkpt>
      <trkpt lat="38.939511" lon="-5.210779">
        <ele>305.630</ele>
        <time>2021-10-16T13:45:49Z</time>
      </trkpt>
      <trkpt lat="38.939413" lon="-5.210710">
        <ele>305.593</ele>
        <time>2021-10-16T13:45:50Z</time>
      </trkpt>
      <trkpt lat="38.939232" lon="-5.210596">
        <ele>305.565</ele>
        <time>2021-10-16T13:45:52Z</time>
      </trkpt>
      <trkpt lat="38.939033" lon="-5.210490">
        <ele>305.821</ele>
        <time>2021-10-16T13:45:54Z</time>
      </trkpt>
      <trkpt lat="38.938814" lon="-5.210383">
        <ele>305.208</ele>
        <time>2021-10-16T13:45:56Z</time>
      </trkpt>
      <trkpt lat="38.938587" lon="-5.210278">
        <ele>305.247</ele>
        <time>2021-10-16T13:45:58Z</time>
      </trkpt>
      <trkpt lat="38.938465" lon="-5.210232">
        <ele>305.625</ele>
        <time>2021-10-16T13:45:59Z</time>
      </trkpt>
      <trkpt lat="38.938222" lon="-5.210144">
        <ele>305.854</ele>
        <time>2021-10-16T13:46:01Z</time>
      </trkpt>
      <trkpt lat="38.938107" lon="-5.210102">
        <ele>305.778</ele>
        <time>2021-10-16T13:46:02Z</time>
      </trkpt>
      <trkpt lat="38.937998" lon="-5.210065">
        <ele>305.723</ele>
        <time>2021-10-16T13:46:03Z</time>
      </trkpt>
      <trkpt lat="38.937792" lon="-5.210018">
        <ele>305.642</ele>
        <time>2021-10-16T13:46:05Z</time>
      </trkpt>
      <trkpt lat="38.937688" lon="-5.210018">
        <ele>305.644</ele>
        <time>2021-10-16T13:46:06Z</time>
      </trkpt>
      <trkpt lat="38.937489" lon="-5.210103">
        <ele>305.491</ele>
        <time>2021-10-16T13:46:08Z</time>
      </trkpt>
      <trkpt lat="38.937314" lon="-5.210299">
        <ele>304.762</ele>
        <time>2021-10-16T13:46:10Z</time>
      </trkpt>
      <trkpt lat="38.937152" lon="-5.210602">
        <ele>304.983</ele>
        <time>2021-10-16T13:46:12Z</time>
      </trkpt>
      <trkpt lat="38.937066" lon="-5.210764">
        <ele>305.011</ele>
        <time>2021-10-16T13:46:13Z</time>
      </trkpt>
      <trkpt lat="38.936963" lon="-5.210927">
        <ele>304.308</ele>
        <time>2021-10-16T13:46:14Z</time>
      </trkpt>
      <trkpt lat="38.936736" lon="-5.211192">
        <ele>304.784</ele>
        <time>2021-10-16T13:46:16Z</time>
      </trkpt>
      <trkpt lat="38.936609" lon="-5.211307">
        <ele>304.942</ele>
        <time>2021-10-16T13:46:17Z</time>
      </trkpt>
      <trkpt lat="38.936481" lon="-5.211421">
        <ele>305.721</ele>
        <time>2021-10-16T13:46:18Z</time>
      </trkpt>
      <trkpt lat="38.936232" lon="-5.211650">
        <ele>306.665</ele>
        <time>2021-10-16T13:46:20Z</time>
      </trkpt>
      <trkpt lat="38.935998" lon="-5.211886">
        <ele>306.380</ele>
        <time>2021-10-16T13:46:22Z</time>
      </trkpt>
      <trkpt lat="38.935764" lon="-5.212128">
        <ele>306.889</ele>
        <time>2021-10-16T13:46:24Z</time>
      </trkpt>
      <trkpt lat="38.935644" lon="-5.212232">
        <ele>306.971</ele>
        <time>2021-10-16T13:46:25Z</time>
      </trkpt>
      <trkpt lat="38.935513" lon="-5.212323">
        <ele>307.898</ele>
        <time>2021-10-16T13:46:26Z</time>
      </trkpt>
      <trkpt lat="38.935254" lon="-5.212458">
        <ele>307.974</ele>
        <time>2021-10-16T13:46:28Z</time>
      </trkpt>
      <trkpt lat="38.935111" lon="-5.212522">
        <ele>308.556</ele>
        <time>2021-10-16T13:46:29Z</time>
      </trkpt>
      <trkpt lat="38.934960" lon="-5.212587">
        <ele>309.121</ele>
        <time>2021-10-16T13:46:30Z</time>
      </trkpt>
      <trkpt lat="38.934804" lon="-5.212645">
        <ele>309.008</ele>
        <time>2021-10-16T13:46:31Z</time>
      </trkpt>
      <trkpt lat="38.934635" lon="-5.212690">
        <ele>308.915</ele>
        <time>2021-10-16T13:46:32Z</time>
      </trkpt>
      <trkpt lat="38.934307" lon="-5.212723">
        <ele>310.093</ele>
        <time>2021-10-16T13:46:34Z</time>
      </trkpt>
      <trkpt lat="38.933992" lon="-5.212708">
        <ele>310.132</ele>
        <time>2021-10-16T13:46:36Z</time>
      </trkpt>
      <trkpt lat="38.933841" lon="-5.212691">
        <ele>310.466</ele>
        <time>2021-10-16T13:46:37Z</time>
      </trkpt>
      <trkpt lat="38.933683" lon="-5.212662">
        <ele>310.471</ele>
        <time>2021-10-16T13:46:38Z</time>
      </trkpt>
      <trkpt lat="38.933393" lon="-5.212578">
        <ele>311.040</ele>
        <time>2021-10-16T13:46:40Z</time>
      </trkpt>
      <trkpt lat="38.933245" lon="-5.212528">
        <ele>310.882</ele>
        <time>2021-10-16T13:46:41Z</time>
      </trkpt>
      <trkpt lat="38.932965" lon="-5.212425">
        <ele>310.079</ele>
        <time>2021-10-16T13:46:43Z</time>
      </trkpt>
      <trkpt lat="38.932824" lon="-5.212374">
        <ele>309.436</ele>
        <time>2021-10-16T13:46:44Z</time>
      </trkpt>
      <trkpt lat="38.932571" lon="-5.212268">
        <ele>309.517</ele>
        <time>2021-10-16T13:46:46Z</time>
      </trkpt>
      <trkpt lat="38.932320" lon="-5.212106">
        <ele>309.418</ele>
        <time>2021-10-16T13:46:48Z</time>
      </trkpt>
      <trkpt lat="38.932192" lon="-5.212007">
        <ele>309.308</ele>
        <time>2021-10-16T13:46:49Z</time>
      </trkpt>
      <trkpt lat="38.932062" lon="-5.211894">
        <ele>309.341</ele>
        <time>2021-10-16T13:46:50Z</time>
      </trkpt>
      <trkpt lat="38.931813" lon="-5.211647">
        <ele>309.819</ele>
        <time>2021-10-16T13:46:52Z</time>
      </trkpt>
      <trkpt lat="38.931581" lon="-5.211341">
        <ele>309.738</ele>
        <time>2021-10-16T13:46:54Z</time>
      </trkpt>
      <trkpt lat="38.931481" lon="-5.211169">
        <ele>309.262</ele>
        <time>2021-10-16T13:46:55Z</time>
      </trkpt>
      <trkpt lat="38.931389" lon="-5.210977">
        <ele>308.577</ele>
        <time>2021-10-16T13:46:56Z</time>
      </trkpt>
      <trkpt lat="38.931243" lon="-5.210608">
        <ele>308.596</ele>
        <time>2021-10-16T13:46:58Z</time>
      </trkpt>
      <trkpt lat="38.931179" lon="-5.210428">
        <ele>308.698</ele>
        <time>2021-10-16T13:46:59Z</time>
      </trkpt>
      <trkpt lat="38.931056" lon="-5.210100">
        <ele>309.195</ele>
        <time>2021-10-16T13:47:01Z</time>
      </trkpt>
      <trkpt lat="38.930994" lon="-5.209946">
        <ele>310.479</ele>
        <time>2021-10-16T13:47:02Z</time>
      </trkpt>
      <trkpt lat="38.930892" lon="-5.209676">
        <ele>311.105</ele>
        <time>2021-10-16T13:47:04Z</time>
      </trkpt>
      <trkpt lat="38.930820" lon="-5.209449">
        <ele>310.525</ele>
        <time>2021-10-16T13:47:06Z</time>
      </trkpt>
      <trkpt lat="38.930771" lon="-5.209238">
        <ele>311.408</ele>
        <time>2021-10-16T13:47:08Z</time>
      </trkpt>
      <trkpt lat="38.930716" lon="-5.208992">
        <ele>311.395</ele>
        <time>2021-10-16T13:47:10Z</time>
      </trkpt>
      <trkpt lat="38.930637" lon="-5.208703">
        <ele>311.313</ele>
        <time>2021-10-16T13:47:12Z</time>
      </trkpt>
      <trkpt lat="38.930596" lon="-5.208557">
        <ele>311.482</ele>
        <time>2021-10-16T13:47:13Z</time>
      </trkpt>
      <trkpt lat="38.930560" lon="-5.208417">
        <ele>311.486</ele>
        <time>2021-10-16T13:47:14Z</time>
      </trkpt>
      <trkpt lat="38.930515" lon="-5.208180">
        <ele>311.041</ele>
        <time>2021-10-16T13:47:16Z</time>
      </trkpt>
      <trkpt lat="38.930502" lon="-5.208075">
        <ele>310.970</ele>
        <time>2021-10-16T13:47:17Z</time>
      </trkpt>
      <trkpt lat="38.930481" lon="-5.207885">
        <ele>311.212</ele>
        <time>2021-10-16T13:47:19Z</time>
      </trkpt>
      <trkpt lat="38.930474" lon="-5.207805">
        <ele>311.169</ele>
        <time>2021-10-16T13:47:20Z</time>
      </trkpt>
      <trkpt lat="38.930462" lon="-5.207682">
        <ele>311.172</ele>
        <time>2021-10-16T13:47:22Z</time>
      </trkpt>
      <trkpt lat="38.930453" lon="-5.207603">
        <ele>310.413</ele>
        <time>2021-10-16T13:47:24Z</time>
      </trkpt>
      <trkpt lat="38.930485" lon="-5.207556">
        <ele>310.914</ele>
        <time>2021-10-16T13:47:36Z</time>
      </trkpt>
      <trkpt lat="38.930459" lon="-5.207498">
        <ele>311.008</ele>
        <time>2021-10-16T13:47:47Z</time>
      </trkpt>
      <trkpt lat="38.930420" lon="-5.207465">
        <ele>311.125</ele>
        <time>2021-10-16T13:48:53Z</time>
      </trkpt>
      <trkpt lat="38.930385" lon="-5.207425">
        <ele>311.253</ele>
        <time>2021-10-16T13:48:56Z</time>
      </trkpt>
      <trkpt lat="38.930310" lon="-5.207438">
        <ele>312.372</ele>
        <time>2021-10-16T14:02:40Z</time>
      </trkpt>
      <trkpt lat="38.930200" lon="-5.207473">
        <ele>312.316</ele>
        <time>2021-10-16T14:02:42Z</time>
      </trkpt>
      <trkpt lat="38.930062" lon="-5.207473">
        <ele>312.051</ele>
        <time>2021-10-16T14:02:44Z</time>
      </trkpt>
      <trkpt lat="38.929926" lon="-5.207468">
        <ele>308.850</ele>
        <time>2021-10-16T14:02:46Z</time>
      </trkpt>
      <trkpt lat="38.929778" lon="-5.207466">
        <ele>309.112</ele>
        <time>2021-10-16T14:02:48Z</time>
      </trkpt>
      <trkpt lat="38.929609" lon="-5.207463">
        <ele>308.939</ele>
        <time>2021-10-16T14:02:50Z</time>
      </trkpt>
      <trkpt lat="38.929515" lon="-5.207461">
        <ele>308.983</ele>
        <time>2021-10-16T14:02:51Z</time>
      </trkpt>
      <trkpt lat="38.929325" lon="-5.207463">
        <ele>308.325</ele>
        <time>2021-10-16T14:02:53Z</time>
      </trkpt>
      <trkpt lat="38.929233" lon="-5.207462">
        <ele>308.917</ele>
        <time>2021-10-16T14:02:54Z</time>
      </trkpt>
      <trkpt lat="38.929036" lon="-5.207456">
        <ele>309.408</ele>
        <time>2021-10-16T14:02:56Z</time>
      </trkpt>
      <trkpt lat="38.928824" lon="-5.207453">
        <ele>310.496</ele>
        <time>2021-10-16T14:02:58Z</time>
      </trkpt>
      <trkpt lat="38.928713" lon="-5.207452">
        <ele>310.014</ele>
        <time>2021-10-16T14:02:59Z</time>
      </trkpt>
      <trkpt lat="38.928494" lon="-5.207444">
        <ele>309.623</ele>
        <time>2021-10-16T14:03:01Z</time>
      </trkpt>
      <trkpt lat="38.928375" lon="-5.207439">
        <ele>309.567</ele>
        <time>2021-10-16T14:03:02Z</time>
      </trkpt>
      <trkpt lat="38.928125" lon="-5.207428">
        <ele>310.152</ele>
        <time>2021-10-16T14:03:04Z</time>
      </trkpt>
      <trkpt lat="38.927983" lon="-5.207424">
        <ele>310.121</ele>
        <time>2021-10-16T14:03:05Z</time>
      </trkpt>
      <trkpt lat="38.927691" lon="-5.207408">
        <ele>309.453</ele>
        <time>2021-10-16T14:03:07Z</time>
      </trkpt>
      <trkpt lat="38.927430" lon="-5.207400">
        <ele>310.020</ele>
        <time>2021-10-16T14:03:09Z</time>
      </trkpt>
      <trkpt lat="38.927165" lon="-5.207391">
        <ele>310.123</ele>
        <time>2021-10-16T14:03:11Z</time>
      </trkpt>
      <trkpt lat="38.927019" lon="-5.207383">
        <ele>310.283</ele>
        <time>2021-10-16T14:03:12Z</time>
      </trkpt>
      <trkpt lat="38.926701" lon="-5.207373">
        <ele>309.811</ele>
        <time>2021-10-16T14:03:14Z</time>
      </trkpt>
      <trkpt lat="38.926526" lon="-5.207367">
        <ele>309.308</ele>
        <time>2021-10-16T14:03:15Z</time>
      </trkpt>
      <trkpt lat="38.926154" lon="-5.207355">
        <ele>309.450</ele>
        <time>2021-10-16T14:03:17Z</time>
      </trkpt>
      <trkpt lat="38.925955" lon="-5.207352">
        <ele>308.878</ele>
        <time>2021-10-16T14:03:18Z</time>
      </trkpt>
      <trkpt lat="38.925566" lon="-5.207351">
        <ele>309.777</ele>
        <time>2021-10-16T14:03:20Z</time>
      </trkpt>
      <trkpt lat="38.925368" lon="-5.207348">
        <ele>309.711</ele>
        <time>2021-10-16T14:03:21Z</time>
      </trkpt>
      <trkpt lat="38.924962" lon="-5.207338">
        <ele>308.866</ele>
        <time>2021-10-16T14:03:23Z</time>
      </trkpt>
      <trkpt lat="38.924752" lon="-5.207330">
        <ele>309.315</ele>
        <time>2021-10-16T14:03:24Z</time>
      </trkpt>
      <trkpt lat="38.924541" lon="-5.207322">
        <ele>309.567</ele>
        <time>2021-10-16T14:03:25Z</time>
      </trkpt>
      <trkpt lat="38.924324" lon="-5.207314">
        <ele>309.114</ele>
        <time>2021-10-16T14:03:26Z</time>
      </trkpt>
      <trkpt lat="38.923910" lon="-5.207289">
        <ele>308.728</ele>
        <time>2021-10-16T14:03:28Z</time>
      </trkpt>
      <trkpt lat="38.923508" lon="-5.207171">
        <ele>309.289</ele>
        <time>2021-10-16T14:03:30Z</time>
      </trkpt>
      <trkpt lat="38.923319" lon="-5.207050">
        <ele>309.217</ele>
        <time>2021-10-16T14:03:31Z</time>
      </trkpt>
      <trkpt lat="38.923133" lon="-5.206898">
        <ele>309.108</ele>
        <time>2021-10-16T14:03:32Z</time>
      </trkpt>
      <trkpt lat="38.922774" lon="-5.206583">
        <ele>310.250</ele>
        <time>2021-10-16T14:03:34Z</time>
      </trkpt>
      <trkpt lat="38.922573" lon="-5.206438">
        <ele>311.128</ele>
        <time>2021-10-16T14:03:35Z</time>
      </trkpt>
      <trkpt lat="38.922365" lon="-5.206309">
        <ele>312.187</ele>
        <time>2021-10-16T14:03:36Z</time>
      </trkpt>
      <trkpt lat="38.921955" lon="-5.206058">
        <ele>313.111</ele>
        <time>2021-10-16T14:03:38Z</time>
      </trkpt>
      <trkpt lat="38.921775" lon="-5.205928">
        <ele>312.956</ele>
        <time>2021-10-16T14:03:39Z</time>
      </trkpt>
      <trkpt lat="38.921428" lon="-5.205672">
        <ele>312.715</ele>
        <time>2021-10-16T14:03:41Z</time>
      </trkpt>
      <trkpt lat="38.921252" lon="-5.205557">
        <ele>312.567</ele>
        <time>2021-10-16T14:03:42Z</time>
      </trkpt>
      <trkpt lat="38.920892" lon="-5.205413">
        <ele>312.634</ele>
        <time>2021-10-16T14:03:44Z</time>
      </trkpt>
      <trkpt lat="38.920701" lon="-5.205396">
        <ele>313.738</ele>
        <time>2021-10-16T14:03:45Z</time>
      </trkpt>
      <trkpt lat="38.920507" lon="-5.205415">
        <ele>314.170</ele>
        <time>2021-10-16T14:03:46Z</time>
      </trkpt>
      <trkpt lat="38.920311" lon="-5.205440">
        <ele>314.817</ele>
        <time>2021-10-16T14:03:47Z</time>
      </trkpt>
      <trkpt lat="38.920123" lon="-5.205437">
        <ele>315.108</ele>
        <time>2021-10-16T14:03:48Z</time>
      </trkpt>
      <trkpt lat="38.919778" lon="-5.205306">
        <ele>315.721</ele>
        <time>2021-10-16T14:03:50Z</time>
      </trkpt>
      <trkpt lat="38.919491" lon="-5.205006">
        <ele>316.379</ele>
        <time>2021-10-16T14:03:52Z</time>
      </trkpt>
      <trkpt lat="38.919273" lon="-5.204577">
        <ele>315.778</ele>
        <time>2021-10-16T14:03:54Z</time>
      </trkpt>
      <trkpt lat="38.919082" lon="-5.204060">
        <ele>317.252</ele>
        <time>2021-10-16T14:03:56Z</time>
      </trkpt>
      <trkpt lat="38.918954" lon="-5.203524">
        <ele>319.387</ele>
        <time>2021-10-16T14:03:58Z</time>
      </trkpt>
      <trkpt lat="38.918910" lon="-5.202956">
        <ele>321.536</ele>
        <time>2021-10-16T14:04:00Z</time>
      </trkpt>
      <trkpt lat="38.918904" lon="-5.202688">
        <ele>322.818</ele>
        <time>2021-10-16T14:04:01Z</time>
      </trkpt>
      <trkpt lat="38.918892" lon="-5.202432">
        <ele>324.315</ele>
        <time>2021-10-16T14:04:02Z</time>
      </trkpt>
      <trkpt lat="38.918822" lon="-5.201983">
        <ele>327.662</ele>
        <time>2021-10-16T14:04:04Z</time>
      </trkpt>
      <trkpt lat="38.918747" lon="-5.201765">
        <ele>328.683</ele>
        <time>2021-10-16T14:04:05Z</time>
      </trkpt>
      <trkpt lat="38.918518" lon="-5.201342">
        <ele>330.211</ele>
        <time>2021-10-16T14:04:07Z</time>
      </trkpt>
      <trkpt lat="38.918266" lon="-5.200890">
        <ele>330.808</ele>
        <time>2021-10-16T14:04:09Z</time>
      </trkpt>
      <trkpt lat="38.918164" lon="-5.200623">
        <ele>331.694</ele>
        <time>2021-10-16T14:04:10Z</time>
      </trkpt>
      <trkpt lat="38.918074" lon="-5.200047">
        <ele>334.722</ele>
        <time>2021-10-16T14:04:12Z</time>
      </trkpt>
      <trkpt lat="38.918060" lon="-5.199482">
        <ele>336.141</ele>
        <time>2021-10-16T14:04:14Z</time>
      </trkpt>
      <trkpt lat="38.918036" lon="-5.199209">
        <ele>337.395</ele>
        <time>2021-10-16T14:04:15Z</time>
      </trkpt>
      <trkpt lat="38.917940" lon="-5.198696">
        <ele>339.950</ele>
        <time>2021-10-16T14:04:17Z</time>
      </trkpt>
      <trkpt lat="38.917855" lon="-5.198458">
        <ele>340.549</ele>
        <time>2021-10-16T14:04:18Z</time>
      </trkpt>
      <trkpt lat="38.917736" lon="-5.198241">
        <ele>340.711</ele>
        <time>2021-10-16T14:04:19Z</time>
      </trkpt>
      <trkpt lat="38.917439" lon="-5.197825">
        <ele>341.788</ele>
        <time>2021-10-16T14:04:21Z</time>
      </trkpt>
      <trkpt lat="38.917098" lon="-5.197375">
        <ele>342.098</ele>
        <time>2021-10-16T14:04:23Z</time>
      </trkpt>
      <trkpt lat="38.916913" lon="-5.197125">
        <ele>341.815</ele>
        <time>2021-10-16T14:04:24Z</time>
      </trkpt>
      <trkpt lat="38.916720" lon="-5.196869">
        <ele>342.526</ele>
        <time>2021-10-16T14:04:25Z</time>
      </trkpt>
      <trkpt lat="38.916521" lon="-5.196607">
        <ele>343.208</ele>
        <time>2021-10-16T14:04:26Z</time>
      </trkpt>
      <trkpt lat="38.916132" lon="-5.196163">
        <ele>345.827</ele>
        <time>2021-10-16T14:04:28Z</time>
      </trkpt>
      <trkpt lat="38.915683" lon="-5.195833">
        <ele>348.045</ele>
        <time>2021-10-16T14:04:30Z</time>
      </trkpt>
      <trkpt lat="38.915192" lon="-5.195632">
        <ele>348.964</ele>
        <time>2021-10-16T14:04:32Z</time>
      </trkpt>
      <trkpt lat="38.914738" lon="-5.195448">
        <ele>349.438</ele>
        <time>2021-10-16T14:04:34Z</time>
      </trkpt>
      <trkpt lat="38.914313" lon="-5.195149">
        <ele>348.943</ele>
        <time>2021-10-16T14:04:36Z</time>
      </trkpt>
      <trkpt lat="38.914112" lon="-5.194948">
        <ele>349.382</ele>
        <time>2021-10-16T14:04:37Z</time>
      </trkpt>
      <trkpt lat="38.913932" lon="-5.194713">
        <ele>349.574</ele>
        <time>2021-10-16T14:04:38Z</time>
      </trkpt>
      <trkpt lat="38.913630" lon="-5.194171">
        <ele>351.411</ele>
        <time>2021-10-16T14:04:40Z</time>
      </trkpt>
      <trkpt lat="38.913499" lon="-5.193885">
        <ele>351.694</ele>
        <time>2021-10-16T14:04:41Z</time>
      </trkpt>
      <trkpt lat="38.913370" lon="-5.193598">
        <ele>351.857</ele>
        <time>2021-10-16T14:04:42Z</time>
      </trkpt>
      <trkpt lat="38.913093" lon="-5.193064">
        <ele>351.422</ele>
        <time>2021-10-16T14:04:44Z</time>
      </trkpt>
      <trkpt lat="38.912787" lon="-5.192595">
        <ele>351.608</ele>
        <time>2021-10-16T14:04:46Z</time>
      </trkpt>
      <trkpt lat="38.912619" lon="-5.192377">
        <ele>352.057</ele>
        <time>2021-10-16T14:04:47Z</time>
      </trkpt>
      <trkpt lat="38.912447" lon="-5.192159">
        <ele>352.235</ele>
        <time>2021-10-16T14:04:48Z</time>
      </trkpt>
      <trkpt lat="38.912273" lon="-5.191932">
        <ele>351.784</ele>
        <time>2021-10-16T14:04:49Z</time>
      </trkpt>
      <trkpt lat="38.911914" lon="-5.191484">
        <ele>351.468</ele>
        <time>2021-10-16T14:04:51Z</time>
      </trkpt>
      <trkpt lat="38.911728" lon="-5.191255">
        <ele>350.893</ele>
        <time>2021-10-16T14:04:52Z</time>
      </trkpt>
      <trkpt lat="38.911336" lon="-5.190803">
        <ele>349.782</ele>
        <time>2021-10-16T14:04:54Z</time>
      </trkpt>
      <trkpt lat="38.910905" lon="-5.190374">
        <ele>350.964</ele>
        <time>2021-10-16T14:04:56Z</time>
      </trkpt>
      <trkpt lat="38.910479" lon="-5.190061">
        <ele>352.041</ele>
        <time>2021-10-16T14:04:58Z</time>
      </trkpt>
      <trkpt lat="38.910039" lon="-5.189872">
        <ele>351.773</ele>
        <time>2021-10-16T14:05:00Z</time>
      </trkpt>
      <trkpt lat="38.909824" lon="-5.189794">
        <ele>351.585</ele>
        <time>2021-10-16T14:05:01Z</time>
      </trkpt>
      <trkpt lat="38.909619" lon="-5.189707">
        <ele>352.113</ele>
        <time>2021-10-16T14:05:02Z</time>
      </trkpt>
      <trkpt lat="38.909276" lon="-5.189490">
        <ele>352.308</ele>
        <time>2021-10-16T14:05:04Z</time>
      </trkpt>
      <trkpt lat="38.909032" lon="-5.189142">
        <ele>351.665</ele>
        <time>2021-10-16T14:05:06Z</time>
      </trkpt>
      <trkpt lat="38.908890" lon="-5.188659">
        <ele>350.753</ele>
        <time>2021-10-16T14:05:08Z</time>
      </trkpt>
      <trkpt lat="38.908715" lon="-5.188126">
        <ele>349.952</ele>
        <time>2021-10-16T14:05:10Z</time>
      </trkpt>
      <trkpt lat="38.908454" lon="-5.187619">
        <ele>349.956</ele>
        <time>2021-10-16T14:05:12Z</time>
      </trkpt>
      <trkpt lat="38.908086" lon="-5.187230">
        <ele>350.531</ele>
        <time>2021-10-16T14:05:14Z</time>
      </trkpt>
      <trkpt lat="38.907658" lon="-5.186960">
        <ele>351.940</ele>
        <time>2021-10-16T14:05:16Z</time>
      </trkpt>
      <trkpt lat="38.907430" lon="-5.186871">
        <ele>352.652</ele>
        <time>2021-10-16T14:05:17Z</time>
      </trkpt>
      <trkpt lat="38.907200" lon="-5.186789">
        <ele>353.139</ele>
        <time>2021-10-16T14:05:18Z</time>
      </trkpt>
      <trkpt lat="38.906751" lon="-5.186580">
        <ele>354.476</ele>
        <time>2021-10-16T14:05:20Z</time>
      </trkpt>
      <trkpt lat="38.906330" lon="-5.186230">
        <ele>354.790</ele>
        <time>2021-10-16T14:05:22Z</time>
      </trkpt>
      <trkpt lat="38.906144" lon="-5.185989">
        <ele>354.319</ele>
        <time>2021-10-16T14:05:23Z</time>
      </trkpt>
      <trkpt lat="38.905831" lon="-5.185424">
        <ele>355.508</ele>
        <time>2021-10-16T14:05:25Z</time>
      </trkpt>
      <trkpt lat="38.905678" lon="-5.185112">
        <ele>355.825</ele>
        <time>2021-10-16T14:05:26Z</time>
      </trkpt>
      <trkpt lat="38.905382" lon="-5.184522">
        <ele>356.873</ele>
        <time>2021-10-16T14:05:28Z</time>
      </trkpt>
      <trkpt lat="38.905227" lon="-5.184230">
        <ele>357.752</ele>
        <time>2021-10-16T14:05:29Z</time>
      </trkpt>
      <trkpt lat="38.904930" lon="-5.183659">
        <ele>360.616</ele>
        <time>2021-10-16T14:05:31Z</time>
      </trkpt>
      <trkpt lat="38.904785" lon="-5.183368">
        <ele>362.291</ele>
        <time>2021-10-16T14:05:32Z</time>
      </trkpt>
      <trkpt lat="38.904568" lon="-5.182817">
        <ele>365.020</ele>
        <time>2021-10-16T14:05:34Z</time>
      </trkpt>
      <trkpt lat="38.904483" lon="-5.182529">
        <ele>366.382</ele>
        <time>2021-10-16T14:05:35Z</time>
      </trkpt>
      <trkpt lat="38.904411" lon="-5.182233">
        <ele>367.779</ele>
        <time>2021-10-16T14:05:36Z</time>
      </trkpt>
      <trkpt lat="38.904301" lon="-5.181657">
        <ele>368.966</ele>
        <time>2021-10-16T14:05:38Z</time>
      </trkpt>
      <trkpt lat="38.904214" lon="-5.181157">
        <ele>367.729</ele>
        <time>2021-10-16T14:05:40Z</time>
      </trkpt>
      <trkpt lat="38.904128" lon="-5.180702">
        <ele>366.921</ele>
        <time>2021-10-16T14:05:42Z</time>
      </trkpt>
      <trkpt lat="38.904026" lon="-5.180275">
        <ele>365.008</ele>
        <time>2021-10-16T14:05:44Z</time>
      </trkpt>
      <trkpt lat="38.903844" lon="-5.179875">
        <ele>363.754</ele>
        <time>2021-10-16T14:05:46Z</time>
      </trkpt>
      <trkpt lat="38.903557" lon="-5.179564">
        <ele>362.392</ele>
        <time>2021-10-16T14:05:48Z</time>
      </trkpt>
      <trkpt lat="38.903390" lon="-5.179470">
        <ele>362.661</ele>
        <time>2021-10-16T14:05:49Z</time>
      </trkpt>
      <trkpt lat="38.903209" lon="-5.179414">
        <ele>362.955</ele>
        <time>2021-10-16T14:05:50Z</time>
      </trkpt>
      <trkpt lat="38.902797" lon="-5.179370">
        <ele>364.320</ele>
        <time>2021-10-16T14:05:52Z</time>
      </trkpt>
      <trkpt lat="38.902345" lon="-5.179336">
        <ele>367.639</ele>
        <time>2021-10-16T14:05:54Z</time>
      </trkpt>
      <trkpt lat="38.901875" lon="-5.179206">
        <ele>371.011</ele>
        <time>2021-10-16T14:05:56Z</time>
      </trkpt>
      <trkpt lat="38.901470" lon="-5.178919">
        <ele>374.368</ele>
        <time>2021-10-16T14:05:58Z</time>
      </trkpt>
      <trkpt lat="38.901118" lon="-5.178528">
        <ele>377.095</ele>
        <time>2021-10-16T14:06:00Z</time>
      </trkpt>
      <trkpt lat="38.900739" lon="-5.178227">
        <ele>379.049</ele>
        <time>2021-10-16T14:06:02Z</time>
      </trkpt>
      <trkpt lat="38.900303" lon="-5.178066">
        <ele>380.123</ele>
        <time>2021-10-16T14:06:04Z</time>
      </trkpt>
      <trkpt lat="38.900060" lon="-5.178016">
        <ele>379.708</ele>
        <time>2021-10-16T14:06:05Z</time>
      </trkpt>
      <trkpt lat="38.899571" lon="-5.177933">
        <ele>377.427</ele>
        <time>2021-10-16T14:06:07Z</time>
      </trkpt>
      <trkpt lat="38.899040" lon="-5.177826">
        <ele>374.435</ele>
        <time>2021-10-16T14:06:09Z</time>
      </trkpt>
      <trkpt lat="38.898764" lon="-5.177769">
        <ele>372.454</ele>
        <time>2021-10-16T14:06:10Z</time>
      </trkpt>
      <trkpt lat="38.898208" lon="-5.177662">
        <ele>367.898</ele>
        <time>2021-10-16T14:06:12Z</time>
      </trkpt>
      <trkpt lat="38.897936" lon="-5.177602">
        <ele>365.323</ele>
        <time>2021-10-16T14:06:13Z</time>
      </trkpt>
      <trkpt lat="38.897672" lon="-5.177539">
        <ele>363.152</ele>
        <time>2021-10-16T14:06:14Z</time>
      </trkpt>
      <trkpt lat="38.897171" lon="-5.177429">
        <ele>359.454</ele>
        <time>2021-10-16T14:06:16Z</time>
      </trkpt>
      <trkpt lat="38.896935" lon="-5.177380">
        <ele>357.071</ele>
        <time>2021-10-16T14:06:17Z</time>
      </trkpt>
      <trkpt lat="38.896705" lon="-5.177332">
        <ele>355.132</ele>
        <time>2021-10-16T14:06:18Z</time>
      </trkpt>
      <trkpt lat="38.896281" lon="-5.177268">
        <ele>352.692</ele>
        <time>2021-10-16T14:06:20Z</time>
      </trkpt>
      <trkpt lat="38.895921" lon="-5.177303">
        <ele>349.211</ele>
        <time>2021-10-16T14:06:22Z</time>
      </trkpt>
      <trkpt lat="38.895763" lon="-5.177376">
        <ele>347.708</ele>
        <time>2021-10-16T14:06:23Z</time>
      </trkpt>
      <trkpt lat="38.895618" lon="-5.177498">
        <ele>346.631</ele>
        <time>2021-10-16T14:06:24Z</time>
      </trkpt>
      <trkpt lat="38.895490" lon="-5.177673">
        <ele>345.739</ele>
        <time>2021-10-16T14:06:25Z</time>
      </trkpt>
      <trkpt lat="38.895374" lon="-5.177905">
        <ele>344.628</ele>
        <time>2021-10-16T14:06:26Z</time>
      </trkpt>
      <trkpt lat="38.895154" lon="-5.178429">
        <ele>341.992</ele>
        <time>2021-10-16T14:06:28Z</time>
      </trkpt>
      <trkpt lat="38.895026" lon="-5.178718">
        <ele>340.067</ele>
        <time>2021-10-16T14:06:29Z</time>
      </trkpt>
      <trkpt lat="38.894770" lon="-5.179270">
        <ele>335.966</ele>
        <time>2021-10-16T14:06:31Z</time>
      </trkpt>
      <trkpt lat="38.894526" lon="-5.179797">
        <ele>331.698</ele>
        <time>2021-10-16T14:06:33Z</time>
      </trkpt>
      <trkpt lat="38.894331" lon="-5.180306">
        <ele>327.615</ele>
        <time>2021-10-16T14:06:35Z</time>
      </trkpt>
      <trkpt lat="38.894236" lon="-5.180838">
        <ele>323.932</ele>
        <time>2021-10-16T14:06:37Z</time>
      </trkpt>
      <trkpt lat="38.894238" lon="-5.181117">
        <ele>322.492</ele>
        <time>2021-10-16T14:06:38Z</time>
      </trkpt>
      <trkpt lat="38.894300" lon="-5.181675">
        <ele>321.211</ele>
        <time>2021-10-16T14:06:40Z</time>
      </trkpt>
      <trkpt lat="38.894338" lon="-5.181955">
        <ele>320.608</ele>
        <time>2021-10-16T14:06:41Z</time>
      </trkpt>
      <trkpt lat="38.894390" lon="-5.182483">
        <ele>320.361</ele>
        <time>2021-10-16T14:06:43Z</time>
      </trkpt>
      <trkpt lat="38.894351" lon="-5.182961">
        <ele>320.019</ele>
        <time>2021-10-16T14:06:45Z</time>
      </trkpt>
      <trkpt lat="38.894197" lon="-5.183327">
        <ele>319.538</ele>
        <time>2021-10-16T14:06:47Z</time>
      </trkpt>
      <trkpt lat="38.894076" lon="-5.183463">
        <ele>319.282</ele>
        <time>2021-10-16T14:06:48Z</time>
      </trkpt>
      <trkpt lat="38.893925" lon="-5.183577">
        <ele>318.527</ele>
        <time>2021-10-16T14:06:49Z</time>
      </trkpt>
      <trkpt lat="38.893743" lon="-5.183675">
        <ele>317.966</ele>
        <time>2021-10-16T14:06:50Z</time>
      </trkpt>
      <trkpt lat="38.893333" lon="-5.183894">
        <ele>315.078</ele>
        <time>2021-10-16T14:06:52Z</time>
      </trkpt>
      <trkpt lat="38.892922" lon="-5.184198">
        <ele>314.645</ele>
        <time>2021-10-16T14:06:54Z</time>
      </trkpt>
      <trkpt lat="38.892723" lon="-5.184370">
        <ele>314.664</ele>
        <time>2021-10-16T14:06:55Z</time>
      </trkpt>
      <trkpt lat="38.892522" lon="-5.184551">
        <ele>313.806</ele>
        <time>2021-10-16T14:06:56Z</time>
      </trkpt>
      <trkpt lat="38.892144" lon="-5.184894">
        <ele>312.916</ele>
        <time>2021-10-16T14:06:58Z</time>
      </trkpt>
      <trkpt lat="38.891949" lon="-5.185072">
        <ele>312.108</ele>
        <time>2021-10-16T14:06:59Z</time>
      </trkpt>
      <trkpt lat="38.891752" lon="-5.185247">
        <ele>312.444</ele>
        <time>2021-10-16T14:07:00Z</time>
      </trkpt>
      <trkpt lat="38.891363" lon="-5.185604">
        <ele>312.492</ele>
        <time>2021-10-16T14:07:02Z</time>
      </trkpt>
      <trkpt lat="38.890973" lon="-5.185961">
        <ele>312.221</ele>
        <time>2021-10-16T14:07:04Z</time>
      </trkpt>
      <trkpt lat="38.890773" lon="-5.186141">
        <ele>311.955</ele>
        <time>2021-10-16T14:07:05Z</time>
      </trkpt>
      <trkpt lat="38.890574" lon="-5.186325">
        <ele>312.230</ele>
        <time>2021-10-16T14:07:06Z</time>
      </trkpt>
      <trkpt lat="38.890376" lon="-5.186508">
        <ele>312.169</ele>
        <time>2021-10-16T14:07:07Z</time>
      </trkpt>
      <trkpt lat="38.889978" lon="-5.186874">
        <ele>312.761</ele>
        <time>2021-10-16T14:07:09Z</time>
      </trkpt>
      <trkpt lat="38.889569" lon="-5.187233">
        <ele>312.488</ele>
        <time>2021-10-16T14:07:11Z</time>
      </trkpt>
      <trkpt lat="38.889156" lon="-5.187601">
        <ele>311.918</ele>
        <time>2021-10-16T14:07:13Z</time>
      </trkpt>
      <trkpt lat="38.888952" lon="-5.187784">
        <ele>311.898</ele>
        <time>2021-10-16T14:07:14Z</time>
      </trkpt>
      <trkpt lat="38.888582" lon="-5.188125">
        <ele>312.117</ele>
        <time>2021-10-16T14:07:16Z</time>
      </trkpt>
      <trkpt lat="38.888259" lon="-5.188437">
        <ele>311.008</ele>
        <time>2021-10-16T14:07:18Z</time>
      </trkpt>
      <trkpt lat="38.888106" lon="-5.188583">
        <ele>311.359</ele>
        <time>2021-10-16T14:07:19Z</time>
      </trkpt>
      <trkpt lat="38.887784" lon="-5.188825">
        <ele>312.437</ele>
        <time>2021-10-16T14:07:21Z</time>
      </trkpt>
      <trkpt lat="38.887606" lon="-5.188901">
        <ele>312.886</ele>
        <time>2021-10-16T14:07:22Z</time>
      </trkpt>
      <trkpt lat="38.887244" lon="-5.188935">
        <ele>314.270</ele>
        <time>2021-10-16T14:07:24Z</time>
      </trkpt>
      <trkpt lat="38.887055" lon="-5.188882">
        <ele>315.875</ele>
        <time>2021-10-16T14:07:25Z</time>
      </trkpt>
      <trkpt lat="38.886845" lon="-5.188780">
        <ele>317.194</ele>
        <time>2021-10-16T14:07:26Z</time>
      </trkpt>
      <trkpt lat="38.886431" lon="-5.188529">
        <ele>318.376</ele>
        <time>2021-10-16T14:07:28Z</time>
      </trkpt>
      <trkpt lat="38.886208" lon="-5.188403">
        <ele>318.393</ele>
        <time>2021-10-16T14:07:29Z</time>
      </trkpt>
      <trkpt lat="38.885981" lon="-5.188281">
        <ele>318.463</ele>
        <time>2021-10-16T14:07:30Z</time>
      </trkpt>
      <trkpt lat="38.885512" lon="-5.188054">
        <ele>319.144</ele>
        <time>2021-10-16T14:07:32Z</time>
      </trkpt>
      <trkpt lat="38.885056" lon="-5.187859">
        <ele>319.418</ele>
        <time>2021-10-16T14:07:34Z</time>
      </trkpt>
      <trkpt lat="38.884827" lon="-5.187779">
        <ele>320.408</ele>
        <time>2021-10-16T14:07:35Z</time>
      </trkpt>
      <trkpt lat="38.884595" lon="-5.187726">
        <ele>321.944</ele>
        <time>2021-10-16T14:07:36Z</time>
      </trkpt>
      <trkpt lat="38.884117" lon="-5.187716">
        <ele>325.742</ele>
        <time>2021-10-16T14:07:38Z</time>
      </trkpt>
      <trkpt lat="38.883865" lon="-5.187734">
        <ele>327.621</ele>
        <time>2021-10-16T14:07:39Z</time>
      </trkpt>
      <trkpt lat="38.883340" lon="-5.187779">
        <ele>330.565</ele>
        <time>2021-10-16T14:07:41Z</time>
      </trkpt>
      <trkpt lat="38.883078" lon="-5.187798">
        <ele>331.830</ele>
        <time>2021-10-16T14:07:42Z</time>
      </trkpt>
      <trkpt lat="38.882611" lon="-5.187823">
        <ele>335.369</ele>
        <time>2021-10-16T14:07:44Z</time>
      </trkpt>
      <trkpt lat="38.882166" lon="-5.187826">
        <ele>337.751</ele>
        <time>2021-10-16T14:07:46Z</time>
      </trkpt>
      <trkpt lat="38.881754" lon="-5.187738">
        <ele>340.988</ele>
        <time>2021-10-16T14:07:48Z</time>
      </trkpt>
      <trkpt lat="38.881366" lon="-5.187486">
        <ele>343.931</ele>
        <time>2021-10-16T14:07:50Z</time>
      </trkpt>
      <trkpt lat="38.881016" lon="-5.187093">
        <ele>347.461</ele>
        <time>2021-10-16T14:07:52Z</time>
      </trkpt>
      <trkpt lat="38.880659" lon="-5.186727">
        <ele>350.107</ele>
        <time>2021-10-16T14:07:54Z</time>
      </trkpt>
      <trkpt lat="38.880271" lon="-5.186477">
        <ele>354.008</ele>
        <time>2021-10-16T14:07:56Z</time>
      </trkpt>
      <trkpt lat="38.879873" lon="-5.186296">
        <ele>356.251</ele>
        <time>2021-10-16T14:07:58Z</time>
      </trkpt>
      <trkpt lat="38.879461" lon="-5.186045">
        <ele>360.139</ele>
        <time>2021-10-16T14:08:00Z</time>
      </trkpt>
      <trkpt lat="38.879080" lon="-5.185675">
        <ele>363.648</ele>
        <time>2021-10-16T14:08:02Z</time>
      </trkpt>
      <trkpt lat="38.878736" lon="-5.185216">
        <ele>366.552</ele>
        <time>2021-10-16T14:08:04Z</time>
      </trkpt>
      <trkpt lat="38.878390" lon="-5.184711">
        <ele>368.797</ele>
        <time>2021-10-16T14:08:06Z</time>
      </trkpt>
      <trkpt lat="38.878010" lon="-5.184243">
        <ele>371.466</ele>
        <time>2021-10-16T14:08:08Z</time>
      </trkpt>
      <trkpt lat="38.877598" lon="-5.183838">
        <ele>373.388</ele>
        <time>2021-10-16T14:08:10Z</time>
      </trkpt>
      <trkpt lat="38.877377" lon="-5.183673">
        <ele>374.325</ele>
        <time>2021-10-16T14:08:11Z</time>
      </trkpt>
      <trkpt lat="38.876959" lon="-5.183411">
        <ele>374.118</ele>
        <time>2021-10-16T14:08:13Z</time>
      </trkpt>
      <trkpt lat="38.876747" lon="-5.183296">
        <ele>373.798</ele>
        <time>2021-10-16T14:08:14Z</time>
      </trkpt>
      <trkpt lat="38.876284" lon="-5.183106">
        <ele>372.417</ele>
        <time>2021-10-16T14:08:16Z</time>
      </trkpt>
      <trkpt lat="38.875766" lon="-5.182956">
        <ele>369.608</ele>
        <time>2021-10-16T14:08:18Z</time>
      </trkpt>
      <trkpt lat="38.875488" lon="-5.182909">
        <ele>368.869</ele>
        <time>2021-10-16T14:08:19Z</time>
      </trkpt>
      <trkpt lat="38.875197" lon="-5.182877">
        <ele>368.047</ele>
        <time>2021-10-16T14:08:20Z</time>
      </trkpt>
      <trkpt lat="38.874896" lon="-5.182843">
        <ele>366.916</ele>
        <time>2021-10-16T14:08:21Z</time>
      </trkpt>
      <trkpt lat="38.874298" lon="-5.182772">
        <ele>366.430</ele>
        <time>2021-10-16T14:08:23Z</time>
      </trkpt>
      <trkpt lat="38.873994" lon="-5.182706">
        <ele>367.125</ele>
        <time>2021-10-16T14:08:24Z</time>
      </trkpt>
      <trkpt lat="38.873692" lon="-5.182608">
        <ele>368.164</ele>
        <time>2021-10-16T14:08:25Z</time>
      </trkpt>
      <trkpt lat="38.873387" lon="-5.182474">
        <ele>368.656</ele>
        <time>2021-10-16T14:08:26Z</time>
      </trkpt>
      <trkpt lat="38.872833" lon="-5.182132">
        <ele>372.393</ele>
        <time>2021-10-16T14:08:28Z</time>
      </trkpt>
      <trkpt lat="38.872549" lon="-5.181926">
        <ele>374.717</ele>
        <time>2021-10-16T14:08:29Z</time>
      </trkpt>
      <trkpt lat="38.872281" lon="-5.181710">
        <ele>377.187</ele>
        <time>2021-10-16T14:08:30Z</time>
      </trkpt>
      <trkpt lat="38.871744" lon="-5.181268">
        <ele>380.915</ele>
        <time>2021-10-16T14:08:32Z</time>
      </trkpt>
      <trkpt lat="38.871236" lon="-5.180858">
        <ele>383.408</ele>
        <time>2021-10-16T14:08:34Z</time>
      </trkpt>
      <trkpt lat="38.870725" lon="-5.180439">
        <ele>385.789</ele>
        <time>2021-10-16T14:08:36Z</time>
      </trkpt>
      <trkpt lat="38.870468" lon="-5.180240">
        <ele>387.967</ele>
        <time>2021-10-16T14:08:37Z</time>
      </trkpt>
      <trkpt lat="38.870217" lon="-5.180055">
        <ele>389.666</ele>
        <time>2021-10-16T14:08:38Z</time>
      </trkpt>
      <trkpt lat="38.869712" lon="-5.179737">
        <ele>390.740</ele>
        <time>2021-10-16T14:08:40Z</time>
      </trkpt>
      <trkpt lat="38.869165" lon="-5.179472">
        <ele>392.055</ele>
        <time>2021-10-16T14:08:42Z</time>
      </trkpt>
      <trkpt lat="38.868572" lon="-5.179267">
        <ele>393.084</ele>
        <time>2021-10-16T14:08:44Z</time>
      </trkpt>
      <trkpt lat="38.867958" lon="-5.179073">
        <ele>394.676</ele>
        <time>2021-10-16T14:08:46Z</time>
      </trkpt>
      <trkpt lat="38.867349" lon="-5.178875">
        <ele>395.833</ele>
        <time>2021-10-16T14:08:48Z</time>
      </trkpt>
      <trkpt lat="38.866748" lon="-5.178675">
        <ele>398.222</ele>
        <time>2021-10-16T14:08:50Z</time>
      </trkpt>
      <trkpt lat="38.866444" lon="-5.178572">
        <ele>399.962</ele>
        <time>2021-10-16T14:08:51Z</time>
      </trkpt>
      <trkpt lat="38.866140" lon="-5.178469">
        <ele>400.808</ele>
        <time>2021-10-16T14:08:52Z</time>
      </trkpt>
      <trkpt lat="38.865536" lon="-5.178274">
        <ele>403.808</ele>
        <time>2021-10-16T14:08:54Z</time>
      </trkpt>
      <trkpt lat="38.864914" lon="-5.178066">
        <ele>405.450</ele>
        <time>2021-10-16T14:08:56Z</time>
      </trkpt>
      <trkpt lat="38.864270" lon="-5.177842">
        <ele>405.648</ele>
        <time>2021-10-16T14:08:58Z</time>
      </trkpt>
      <trkpt lat="38.863927" lon="-5.177720">
        <ele>405.387</ele>
        <time>2021-10-16T14:08:59Z</time>
      </trkpt>
      <trkpt lat="38.863228" lon="-5.177476">
        <ele>406.811</ele>
        <time>2021-10-16T14:09:01Z</time>
      </trkpt>
      <trkpt lat="38.862864" lon="-5.177349">
        <ele>407.286</ele>
        <time>2021-10-16T14:09:02Z</time>
      </trkpt>
      <trkpt lat="38.862179" lon="-5.177112">
        <ele>408.455</ele>
        <time>2021-10-16T14:09:04Z</time>
      </trkpt>
      <trkpt lat="38.861490" lon="-5.176877">
        <ele>410.447</ele>
        <time>2021-10-16T14:09:06Z</time>
      </trkpt>
      <trkpt lat="38.860838" lon="-5.176690">
        <ele>411.294</ele>
        <time>2021-10-16T14:09:08Z</time>
      </trkpt>
      <trkpt lat="38.860520" lon="-5.176630">
        <ele>412.479</ele>
        <time>2021-10-16T14:09:09Z</time>
      </trkpt>
      <trkpt lat="38.860210" lon="-5.176593">
        <ele>413.505</ele>
        <time>2021-10-16T14:09:10Z</time>
      </trkpt>
      <trkpt lat="38.859600" lon="-5.176597">
        <ele>414.325</ele>
        <time>2021-10-16T14:09:12Z</time>
      </trkpt>
      <trkpt lat="38.859002" lon="-5.176715">
        <ele>416.708</ele>
        <time>2021-10-16T14:09:14Z</time>
      </trkpt>
      <trkpt lat="38.858705" lon="-5.176818">
        <ele>417.525</ele>
        <time>2021-10-16T14:09:15Z</time>
      </trkpt>
      <trkpt lat="38.858408" lon="-5.176937">
        <ele>418.293</ele>
        <time>2021-10-16T14:09:16Z</time>
      </trkpt>
      <trkpt lat="38.857866" lon="-5.177243">
        <ele>420.732</ele>
        <time>2021-10-16T14:09:18Z</time>
      </trkpt>
      <trkpt lat="38.857376" lon="-5.177638">
        <ele>423.026</ele>
        <time>2021-10-16T14:09:20Z</time>
      </trkpt>
      <trkpt lat="38.857153" lon="-5.177872">
        <ele>424.151</ele>
        <time>2021-10-16T14:09:21Z</time>
      </trkpt>
      <trkpt lat="38.856742" lon="-5.178399">
        <ele>426.640</ele>
        <time>2021-10-16T14:09:23Z</time>
      </trkpt>
      <trkpt lat="38.856551" lon="-5.178689">
        <ele>427.812</ele>
        <time>2021-10-16T14:09:24Z</time>
      </trkpt>
      <trkpt lat="38.856366" lon="-5.178985">
        <ele>428.669</ele>
        <time>2021-10-16T14:09:25Z</time>
      </trkpt>
      <trkpt lat="38.856179" lon="-5.179290">
        <ele>430.079</ele>
        <time>2021-10-16T14:09:26Z</time>
      </trkpt>
      <trkpt lat="38.855835" lon="-5.179842">
        <ele>432.405</ele>
        <time>2021-10-16T14:09:28Z</time>
      </trkpt>
      <trkpt lat="38.855441" lon="-5.180348">
        <ele>434.125</ele>
        <time>2021-10-16T14:09:30Z</time>
      </trkpt>
      <trkpt lat="38.855229" lon="-5.180575">
        <ele>434.908</ele>
        <time>2021-10-16T14:09:31Z</time>
      </trkpt>
      <trkpt lat="38.854775" lon="-5.180941">
        <ele>436.935</ele>
        <time>2021-10-16T14:09:33Z</time>
      </trkpt>
      <trkpt lat="38.854534" lon="-5.181074">
        <ele>437.583</ele>
        <time>2021-10-16T14:09:34Z</time>
      </trkpt>
      <trkpt lat="38.854043" lon="-5.181283">
        <ele>438.042</ele>
        <time>2021-10-16T14:09:36Z</time>
      </trkpt>
      <trkpt lat="38.853787" lon="-5.181362">
        <ele>438.696</ele>
        <time>2021-10-16T14:09:37Z</time>
      </trkpt>
      <trkpt lat="38.853526" lon="-5.181424">
        <ele>439.421</ele>
        <time>2021-10-16T14:09:38Z</time>
      </trkpt>
      <trkpt lat="38.853255" lon="-5.181471">
        <ele>440.260</ele>
        <time>2021-10-16T14:09:39Z</time>
      </trkpt>
      <trkpt lat="38.852693" lon="-5.181558">
        <ele>440.782</ele>
        <time>2021-10-16T14:09:41Z</time>
      </trkpt>
      <trkpt lat="38.852104" lon="-5.181653">
        <ele>440.769</ele>
        <time>2021-10-16T14:09:43Z</time>
      </trkpt>
      <trkpt lat="38.851808" lon="-5.181702">
        <ele>440.823</ele>
        <time>2021-10-16T14:09:44Z</time>
      </trkpt>
      <trkpt lat="38.851225" lon="-5.181795">
        <ele>441.083</ele>
        <time>2021-10-16T14:09:46Z</time>
      </trkpt>
      <trkpt lat="38.850932" lon="-5.181845">
        <ele>441.511</ele>
        <time>2021-10-16T14:09:47Z</time>
      </trkpt>
      <trkpt lat="38.850638" lon="-5.181895">
        <ele>442.308</ele>
        <time>2021-10-16T14:09:48Z</time>
      </trkpt>
      <trkpt lat="38.850342" lon="-5.181946">
        <ele>441.990</ele>
        <time>2021-10-16T14:09:49Z</time>
      </trkpt>
      <trkpt lat="38.849748" lon="-5.182050">
        <ele>442.098</ele>
        <time>2021-10-16T14:09:51Z</time>
      </trkpt>
      <trkpt lat="38.849151" lon="-5.182148">
        <ele>442.347</ele>
        <time>2021-10-16T14:09:53Z</time>
      </trkpt>
      <trkpt lat="38.848848" lon="-5.182197">
        <ele>442.531</ele>
        <time>2021-10-16T14:09:54Z</time>
      </trkpt>
      <trkpt lat="38.848543" lon="-5.182245">
        <ele>442.436</ele>
        <time>2021-10-16T14:09:55Z</time>
      </trkpt>
      <trkpt lat="38.848221" lon="-5.182296">
        <ele>442.795</ele>
        <time>2021-10-16T14:09:56Z</time>
      </trkpt>
      <trkpt lat="38.847607" lon="-5.182406">
        <ele>443.377</ele>
        <time>2021-10-16T14:09:58Z</time>
      </trkpt>
      <trkpt lat="38.846965" lon="-5.182521">
        <ele>443.534</ele>
        <time>2021-10-16T14:10:00Z</time>
      </trkpt>
      <trkpt lat="38.846327" lon="-5.182642">
        <ele>444.566</ele>
        <time>2021-10-16T14:10:02Z</time>
      </trkpt>
      <trkpt lat="38.845749" lon="-5.182754">
        <ele>444.729</ele>
        <time>2021-10-16T14:10:04Z</time>
      </trkpt>
      <trkpt lat="38.845155" lon="-5.182853">
        <ele>445.021</ele>
        <time>2021-10-16T14:10:06Z</time>
      </trkpt>
      <trkpt lat="38.844856" lon="-5.182909">
        <ele>445.608</ele>
        <time>2021-10-16T14:10:07Z</time>
      </trkpt>
      <trkpt lat="38.844552" lon="-5.182965">
        <ele>445.694</ele>
        <time>2021-10-16T14:10:08Z</time>
      </trkpt>
      <trkpt lat="38.843935" lon="-5.183061">
        <ele>444.792</ele>
        <time>2021-10-16T14:10:10Z</time>
      </trkpt>
      <trkpt lat="38.843309" lon="-5.183165">
        <ele>442.471</ele>
        <time>2021-10-16T14:10:12Z</time>
      </trkpt>
      <trkpt lat="38.842693" lon="-5.183274">
        <ele>442.695</ele>
        <time>2021-10-16T14:10:14Z</time>
      </trkpt>
      <trkpt lat="38.842386" lon="-5.183327">
        <ele>443.270</ele>
        <time>2021-10-16T14:10:15Z</time>
      </trkpt>
      <trkpt lat="38.842084" lon="-5.183379">
        <ele>444.389</ele>
        <time>2021-10-16T14:10:16Z</time>
      </trkpt>
      <trkpt lat="38.841486" lon="-5.183482">
        <ele>446.021</ele>
        <time>2021-10-16T14:10:18Z</time>
      </trkpt>
      <trkpt lat="38.840899" lon="-5.183585">
        <ele>446.718</ele>
        <time>2021-10-16T14:10:20Z</time>
      </trkpt>
      <trkpt lat="38.840301" lon="-5.183690">
        <ele>444.436</ele>
        <time>2021-10-16T14:10:22Z</time>
      </trkpt>
      <trkpt lat="38.840000" lon="-5.183743">
        <ele>443.217</ele>
        <time>2021-10-16T14:10:23Z</time>
      </trkpt>
      <trkpt lat="38.839395" lon="-5.183847">
        <ele>441.218</ele>
        <time>2021-10-16T14:10:25Z</time>
      </trkpt>
      <trkpt lat="38.839072" lon="-5.183896">
        <ele>439.808</ele>
        <time>2021-10-16T14:10:26Z</time>
      </trkpt>
      <trkpt lat="38.838467" lon="-5.184001">
        <ele>438.351</ele>
        <time>2021-10-16T14:10:28Z</time>
      </trkpt>
      <trkpt lat="38.838155" lon="-5.184055">
        <ele>437.129</ele>
        <time>2021-10-16T14:10:29Z</time>
      </trkpt>
      <trkpt lat="38.837844" lon="-5.184109">
        <ele>437.088</ele>
        <time>2021-10-16T14:10:30Z</time>
      </trkpt>
      <trkpt lat="38.837532" lon="-5.184163">
        <ele>437.842</ele>
        <time>2021-10-16T14:10:31Z</time>
      </trkpt>
      <trkpt lat="38.837211" lon="-5.184219">
        <ele>438.157</ele>
        <time>2021-10-16T14:10:32Z</time>
      </trkpt>
      <trkpt lat="38.836614" lon="-5.184314">
        <ele>439.726</ele>
        <time>2021-10-16T14:10:34Z</time>
      </trkpt>
      <trkpt lat="38.836008" lon="-5.184414">
        <ele>441.438</ele>
        <time>2021-10-16T14:10:36Z</time>
      </trkpt>
      <trkpt lat="38.835389" lon="-5.184517">
        <ele>441.795</ele>
        <time>2021-10-16T14:10:38Z</time>
      </trkpt>
      <trkpt lat="38.834771" lon="-5.184623">
        <ele>441.959</ele>
        <time>2021-10-16T14:10:40Z</time>
      </trkpt>
      <trkpt lat="38.834456" lon="-5.184678">
        <ele>441.903</ele>
        <time>2021-10-16T14:10:41Z</time>
      </trkpt>
      <trkpt lat="38.834140" lon="-5.184733">
        <ele>441.923</ele>
        <time>2021-10-16T14:10:42Z</time>
      </trkpt>
      <trkpt lat="38.833825" lon="-5.184788">
        <ele>441.308</ele>
        <time>2021-10-16T14:10:43Z</time>
      </trkpt>
      <trkpt lat="38.833194" lon="-5.184899">
        <ele>440.353</ele>
        <time>2021-10-16T14:10:45Z</time>
      </trkpt>
      <trkpt lat="38.832564" lon="-5.185010">
        <ele>439.271</ele>
        <time>2021-10-16T14:10:47Z</time>
      </trkpt>
      <trkpt lat="38.832246" lon="-5.185071">
        <ele>439.820</ele>
        <time>2021-10-16T14:10:48Z</time>
      </trkpt>
      <trkpt lat="38.831929" lon="-5.185130">
        <ele>439.424</ele>
        <time>2021-10-16T14:10:49Z</time>
      </trkpt>
      <trkpt lat="38.831287" lon="-5.185248">
        <ele>438.889</ele>
        <time>2021-10-16T14:10:51Z</time>
      </trkpt>
      <trkpt lat="38.830963" lon="-5.185307">
        <ele>438.678</ele>
        <time>2021-10-16T14:10:52Z</time>
      </trkpt>
      <trkpt lat="38.830311" lon="-5.185425">
        <ele>438.820</ele>
        <time>2021-10-16T14:10:54Z</time>
      </trkpt>
      <trkpt lat="38.829647" lon="-5.185533">
        <ele>439.857</ele>
        <time>2021-10-16T14:10:56Z</time>
      </trkpt>
      <trkpt lat="38.829015" lon="-5.185639">
        <ele>441.441</ele>
        <time>2021-10-16T14:10:58Z</time>
      </trkpt>
      <trkpt lat="38.828388" lon="-5.185737">
        <ele>444.381</ele>
        <time>2021-10-16T14:11:00Z</time>
      </trkpt>
      <trkpt lat="38.828091" lon="-5.185782">
        <ele>444.409</ele>
        <time>2021-10-16T14:11:01Z</time>
      </trkpt>
      <trkpt lat="38.827810" lon="-5.185827">
        <ele>443.908</ele>
        <time>2021-10-16T14:11:02Z</time>
      </trkpt>
      <trkpt lat="38.827253" lon="-5.185929">
        <ele>442.352</ele>
        <time>2021-10-16T14:11:04Z</time>
      </trkpt>
      <trkpt lat="38.826688" lon="-5.186041">
        <ele>440.410</ele>
        <time>2021-10-16T14:11:06Z</time>
      </trkpt>
      <trkpt lat="38.826411" lon="-5.186093">
        <ele>439.539</ele>
        <time>2021-10-16T14:11:07Z</time>
      </trkpt>
      <trkpt lat="38.826145" lon="-5.186145">
        <ele>438.893</ele>
        <time>2021-10-16T14:11:08Z</time>
      </trkpt>
      <trkpt lat="38.825882" lon="-5.186209">
        <ele>438.518</ele>
        <time>2021-10-16T14:11:09Z</time>
      </trkpt>
      <trkpt lat="38.825364" lon="-5.186382">
        <ele>437.997</ele>
        <time>2021-10-16T14:11:11Z</time>
      </trkpt>
      <trkpt lat="38.825104" lon="-5.186502">
        <ele>436.979</ele>
        <time>2021-10-16T14:11:12Z</time>
      </trkpt>
      <trkpt lat="38.824588" lon="-5.186798">
        <ele>436.116</ele>
        <time>2021-10-16T14:11:14Z</time>
      </trkpt>
      <trkpt lat="38.824082" lon="-5.187114">
        <ele>434.715</ele>
        <time>2021-10-16T14:11:16Z</time>
      </trkpt>
      <trkpt lat="38.823826" lon="-5.187292">
        <ele>434.065</ele>
        <time>2021-10-16T14:11:17Z</time>
      </trkpt>
      <trkpt lat="38.823350" lon="-5.187700">
        <ele>435.511</ele>
        <time>2021-10-16T14:11:19Z</time>
      </trkpt>
      <trkpt lat="38.823119" lon="-5.187933">
        <ele>436.908</ele>
        <time>2021-10-16T14:11:20Z</time>
      </trkpt>
      <trkpt lat="38.822687" lon="-5.188440">
        <ele>440.619</ele>
        <time>2021-10-16T14:11:22Z</time>
      </trkpt>
      <trkpt lat="38.822484" lon="-5.188713">
        <ele>442.657</ele>
        <time>2021-10-16T14:11:23Z</time>
      </trkpt>
      <trkpt lat="38.822290" lon="-5.188994">
        <ele>444.016</ele>
        <time>2021-10-16T14:11:24Z</time>
      </trkpt>
      <trkpt lat="38.821926" lon="-5.189594">
        <ele>446.570</ele>
        <time>2021-10-16T14:11:26Z</time>
      </trkpt>
      <trkpt lat="38.821651" lon="-5.190210">
        <ele>447.085</ele>
        <time>2021-10-16T14:11:28Z</time>
      </trkpt>
      <trkpt lat="38.821396" lon="-5.190865">
        <ele>446.144</ele>
        <time>2021-10-16T14:11:30Z</time>
      </trkpt>
      <trkpt lat="38.821293" lon="-5.191210">
        <ele>445.836</ele>
        <time>2021-10-16T14:11:31Z</time>
      </trkpt>
      <trkpt lat="38.821204" lon="-5.191575">
        <ele>445.533</ele>
        <time>2021-10-16T14:11:32Z</time>
      </trkpt>
      <trkpt lat="38.821070" lon="-5.192283">
        <ele>444.797</ele>
        <time>2021-10-16T14:11:34Z</time>
      </trkpt>
      <trkpt lat="38.821018" lon="-5.192651">
        <ele>445.223</ele>
        <time>2021-10-16T14:11:35Z</time>
      </trkpt>
      <trkpt lat="38.820952" lon="-5.193378">
        <ele>447.125</ele>
        <time>2021-10-16T14:11:37Z</time>
      </trkpt>
      <trkpt lat="38.820926" lon="-5.194100">
        <ele>449.808</ele>
        <time>2021-10-16T14:11:39Z</time>
      </trkpt>
      <trkpt lat="38.820902" lon="-5.194464">
        <ele>450.327</ele>
        <time>2021-10-16T14:11:40Z</time>
      </trkpt>
      <trkpt lat="38.820814" lon="-5.195151">
        <ele>451.665</ele>
        <time>2021-10-16T14:11:42Z</time>
      </trkpt>
      <trkpt lat="38.820655" lon="-5.195746">
        <ele>451.244</ele>
        <time>2021-10-16T14:11:44Z</time>
      </trkpt>
      <trkpt lat="38.820542" lon="-5.196007">
        <ele>451.348</ele>
        <time>2021-10-16T14:11:45Z</time>
      </trkpt>
      <trkpt lat="38.820258" lon="-5.196464">
        <ele>450.833</ele>
        <time>2021-10-16T14:11:47Z</time>
      </trkpt>
      <trkpt lat="38.819873" lon="-5.196859">
        <ele>449.782</ele>
        <time>2021-10-16T14:11:49Z</time>
      </trkpt>
      <trkpt lat="38.819384" lon="-5.197179">
        <ele>447.954</ele>
        <time>2021-10-16T14:11:51Z</time>
      </trkpt>
      <trkpt lat="38.818836" lon="-5.197463">
        <ele>445.171</ele>
        <time>2021-10-16T14:11:53Z</time>
      </trkpt>
      <trkpt lat="38.818552" lon="-5.197605">
        <ele>444.853</ele>
        <time>2021-10-16T14:11:54Z</time>
      </trkpt>
      <trkpt lat="38.818272" lon="-5.197748">
        <ele>444.104</ele>
        <time>2021-10-16T14:11:55Z</time>
      </trkpt>
      <trkpt lat="38.817983" lon="-5.197898">
        <ele>442.814</ele>
        <time>2021-10-16T14:11:56Z</time>
      </trkpt>
      <trkpt lat="38.817448" lon="-5.198181">
        <ele>442.308</ele>
        <time>2021-10-16T14:11:58Z</time>
      </trkpt>
      <trkpt lat="38.816909" lon="-5.198475">
        <ele>441.583</ele>
        <time>2021-10-16T14:12:00Z</time>
      </trkpt>
      <trkpt lat="38.816645" lon="-5.198622">
        <ele>441.231</ele>
        <time>2021-10-16T14:12:01Z</time>
      </trkpt>
      <trkpt lat="38.816375" lon="-5.198772">
        <ele>441.420</ele>
        <time>2021-10-16T14:12:02Z</time>
      </trkpt>
      <trkpt lat="38.815863" lon="-5.199062">
        <ele>441.034</ele>
        <time>2021-10-16T14:12:04Z</time>
      </trkpt>
      <trkpt lat="38.815600" lon="-5.199210">
        <ele>441.879</ele>
        <time>2021-10-16T14:12:05Z</time>
      </trkpt>
      <trkpt lat="38.815068" lon="-5.199499">
        <ele>443.688</ele>
        <time>2021-10-16T14:12:07Z</time>
      </trkpt>
      <trkpt lat="38.814793" lon="-5.199644">
        <ele>443.960</ele>
        <time>2021-10-16T14:12:08Z</time>
      </trkpt>
      <trkpt lat="38.814520" lon="-5.199796">
        <ele>443.737</ele>
        <time>2021-10-16T14:12:09Z</time>
      </trkpt>
      <trkpt lat="38.813985" lon="-5.200092">
        <ele>443.293</ele>
        <time>2021-10-16T14:12:11Z</time>
      </trkpt>
      <trkpt lat="38.813718" lon="-5.200240">
        <ele>442.965</ele>
        <time>2021-10-16T14:12:12Z</time>
      </trkpt>
      <trkpt lat="38.813192" lon="-5.200539">
        <ele>442.921</ele>
        <time>2021-10-16T14:12:14Z</time>
      </trkpt>
      <trkpt lat="38.812680" lon="-5.200831">
        <ele>442.908</ele>
        <time>2021-10-16T14:12:16Z</time>
      </trkpt>
      <trkpt lat="38.812420" lon="-5.200977">
        <ele>443.027</ele>
        <time>2021-10-16T14:12:17Z</time>
      </trkpt>
      <trkpt lat="38.811911" lon="-5.201265">
        <ele>442.195</ele>
        <time>2021-10-16T14:12:19Z</time>
      </trkpt>
      <trkpt lat="38.811652" lon="-5.201414">
        <ele>441.764</ele>
        <time>2021-10-16T14:12:20Z</time>
      </trkpt>
      <trkpt lat="38.811130" lon="-5.201713">
        <ele>440.878</ele>
        <time>2021-10-16T14:12:22Z</time>
      </trkpt>
      <trkpt lat="38.810596" lon="-5.202004">
        <ele>439.233</ele>
        <time>2021-10-16T14:12:24Z</time>
      </trkpt>
      <trkpt lat="38.810037" lon="-5.202299">
        <ele>439.122</ele>
        <time>2021-10-16T14:12:26Z</time>
      </trkpt>
      <trkpt lat="38.809481" lon="-5.202510">
        <ele>438.924</ele>
        <time>2021-10-16T14:12:28Z</time>
      </trkpt>
      <trkpt lat="38.808875" lon="-5.202596">
        <ele>439.861</ele>
        <time>2021-10-16T14:12:30Z</time>
      </trkpt>
      <trkpt lat="38.808561" lon="-5.202599">
        <ele>440.573</ele>
        <time>2021-10-16T14:12:31Z</time>
      </trkpt>
      <trkpt lat="38.808237" lon="-5.202590">
        <ele>441.485</ele>
        <time>2021-10-16T14:12:32Z</time>
      </trkpt>
      <trkpt lat="38.807629" lon="-5.202579">
        <ele>443.513</ele>
        <time>2021-10-16T14:12:34Z</time>
      </trkpt>
      <trkpt lat="38.807026" lon="-5.202578">
        <ele>444.008</ele>
        <time>2021-10-16T14:12:36Z</time>
      </trkpt>
      <trkpt lat="38.806725" lon="-5.202594">
        <ele>444.355</ele>
        <time>2021-10-16T14:12:37Z</time>
      </trkpt>
      <trkpt lat="38.806128" lon="-5.202672">
        <ele>444.873</ele>
        <time>2021-10-16T14:12:39Z</time>
      </trkpt>
      <trkpt lat="38.805826" lon="-5.202708">
        <ele>445.012</ele>
        <time>2021-10-16T14:12:40Z</time>
      </trkpt>
      <trkpt lat="38.805224" lon="-5.202772">
        <ele>446.276</ele>
        <time>2021-10-16T14:12:42Z</time>
      </trkpt>
      <trkpt lat="38.804621" lon="-5.202817">
        <ele>447.481</ele>
        <time>2021-10-16T14:12:44Z</time>
      </trkpt>
      <trkpt lat="38.804018" lon="-5.202870">
        <ele>448.010</ele>
        <time>2021-10-16T14:12:46Z</time>
      </trkpt>
      <trkpt lat="38.803715" lon="-5.202895">
        <ele>448.572</ele>
        <time>2021-10-16T14:12:47Z</time>
      </trkpt>
      <trkpt lat="38.803109" lon="-5.202947">
        <ele>449.139</ele>
        <time>2021-10-16T14:12:49Z</time>
      </trkpt>
      <trkpt lat="38.802798" lon="-5.202977">
        <ele>449.135</ele>
        <time>2021-10-16T14:12:50Z</time>
      </trkpt>
      <trkpt lat="38.802488" lon="-5.203014">
        <ele>449.286</ele>
        <time>2021-10-16T14:12:51Z</time>
      </trkpt>
      <trkpt lat="38.801867" lon="-5.203078">
        <ele>449.114</ele>
        <time>2021-10-16T14:12:53Z</time>
      </trkpt>
      <trkpt lat="38.801248" lon="-5.203131">
        <ele>449.208</ele>
        <time>2021-10-16T14:12:55Z</time>
      </trkpt>
      <trkpt lat="38.800926" lon="-5.203169">
        <ele>449.041</ele>
        <time>2021-10-16T14:12:56Z</time>
      </trkpt>
      <trkpt lat="38.800331" lon="-5.203247">
        <ele>448.559</ele>
        <time>2021-10-16T14:12:58Z</time>
      </trkpt>
      <trkpt lat="38.799726" lon="-5.203309">
        <ele>448.428</ele>
        <time>2021-10-16T14:13:00Z</time>
      </trkpt>
      <trkpt lat="38.799424" lon="-5.203340">
        <ele>448.612</ele>
        <time>2021-10-16T14:13:01Z</time>
      </trkpt>
      <trkpt lat="38.799109" lon="-5.203373">
        <ele>448.977</ele>
        <time>2021-10-16T14:13:02Z</time>
      </trkpt>
      <trkpt lat="38.798510" lon="-5.203442">
        <ele>449.416</ele>
        <time>2021-10-16T14:13:04Z</time>
      </trkpt>
      <trkpt lat="38.797891" lon="-5.203506">
        <ele>449.278</ele>
        <time>2021-10-16T14:13:06Z</time>
      </trkpt>
      <trkpt lat="38.797573" lon="-5.203534">
        <ele>449.785</ele>
        <time>2021-10-16T14:13:07Z</time>
      </trkpt>
      <trkpt lat="38.796945" lon="-5.203591">
        <ele>449.015</ele>
        <time>2021-10-16T14:13:09Z</time>
      </trkpt>
      <trkpt lat="38.796319" lon="-5.203642">
        <ele>448.765</ele>
        <time>2021-10-16T14:13:11Z</time>
      </trkpt>
      <trkpt lat="38.796009" lon="-5.203673">
        <ele>449.111</ele>
        <time>2021-10-16T14:13:12Z</time>
      </trkpt>
      <trkpt lat="38.795390" lon="-5.203737">
        <ele>449.708</ele>
        <time>2021-10-16T14:13:14Z</time>
      </trkpt>
      <trkpt lat="38.794771" lon="-5.203812">
        <ele>449.349</ele>
        <time>2021-10-16T14:13:16Z</time>
      </trkpt>
      <trkpt lat="38.794152" lon="-5.203882">
        <ele>450.597</ele>
        <time>2021-10-16T14:13:18Z</time>
      </trkpt>
      <trkpt lat="38.793538" lon="-5.203957">
        <ele>449.786</ele>
        <time>2021-10-16T14:13:20Z</time>
      </trkpt>
      <trkpt lat="38.793231" lon="-5.203995">
        <ele>449.540</ele>
        <time>2021-10-16T14:13:21Z</time>
      </trkpt>
      <trkpt lat="38.792613" lon="-5.204058">
        <ele>450.065</ele>
        <time>2021-10-16T14:13:23Z</time>
      </trkpt>
      <trkpt lat="38.791989" lon="-5.204116">
        <ele>449.574</ele>
        <time>2021-10-16T14:13:25Z</time>
      </trkpt>
      <trkpt lat="38.791663" lon="-5.204144">
        <ele>448.896</ele>
        <time>2021-10-16T14:13:26Z</time>
      </trkpt>
      <trkpt lat="38.791067" lon="-5.204204">
        <ele>449.213</ele>
        <time>2021-10-16T14:13:28Z</time>
      </trkpt>
      <trkpt lat="38.790453" lon="-5.204257">
        <ele>449.727</ele>
        <time>2021-10-16T14:13:30Z</time>
      </trkpt>
      <trkpt lat="38.790148" lon="-5.204288">
        <ele>449.768</ele>
        <time>2021-10-16T14:13:31Z</time>
      </trkpt>
      <trkpt lat="38.789833" lon="-5.204319">
        <ele>449.614</ele>
        <time>2021-10-16T14:13:32Z</time>
      </trkpt>
      <trkpt lat="38.789236" lon="-5.204389">
        <ele>449.108</ele>
        <time>2021-10-16T14:13:34Z</time>
      </trkpt>
      <trkpt lat="38.788936" lon="-5.204423">
        <ele>449.070</ele>
        <time>2021-10-16T14:13:35Z</time>
      </trkpt>
      <trkpt lat="38.788640" lon="-5.204456">
        <ele>448.588</ele>
        <time>2021-10-16T14:13:36Z</time>
      </trkpt>
      <trkpt lat="38.788060" lon="-5.204519">
        <ele>449.047</ele>
        <time>2021-10-16T14:13:38Z</time>
      </trkpt>
      <trkpt lat="38.787492" lon="-5.204579">
        <ele>450.351</ele>
        <time>2021-10-16T14:13:40Z</time>
      </trkpt>
      <trkpt lat="38.787210" lon="-5.204611">
        <ele>451.126</ele>
        <time>2021-10-16T14:13:41Z</time>
      </trkpt>
      <trkpt lat="38.786936" lon="-5.204642">
        <ele>451.935</ele>
        <time>2021-10-16T14:13:42Z</time>
      </trkpt>
      <trkpt lat="38.786398" lon="-5.204704">
        <ele>453.667</ele>
        <time>2021-10-16T14:13:44Z</time>
      </trkpt>
      <trkpt lat="38.785863" lon="-5.204767">
        <ele>456.074</ele>
        <time>2021-10-16T14:13:46Z</time>
      </trkpt>
      <trkpt lat="38.785594" lon="-5.204820">
        <ele>457.098</ele>
        <time>2021-10-16T14:13:47Z</time>
      </trkpt>
      <trkpt lat="38.785323" lon="-5.204884">
        <ele>457.915</ele>
        <time>2021-10-16T14:13:48Z</time>
      </trkpt>
      <trkpt lat="38.785052" lon="-5.204957">
        <ele>458.826</ele>
        <time>2021-10-16T14:13:49Z</time>
      </trkpt>
      <trkpt lat="38.784782" lon="-5.205031">
        <ele>459.208</ele>
        <time>2021-10-16T14:13:50Z</time>
      </trkpt>
      <trkpt lat="38.784252" lon="-5.205158">
        <ele>460.167</ele>
        <time>2021-10-16T14:13:52Z</time>
      </trkpt>
      <trkpt lat="38.783985" lon="-5.205209">
        <ele>460.075</ele>
        <time>2021-10-16T14:13:53Z</time>
      </trkpt>
      <trkpt lat="38.783462" lon="-5.205313">
        <ele>459.684</ele>
        <time>2021-10-16T14:13:55Z</time>
      </trkpt>
      <trkpt lat="38.783192" lon="-5.205369">
        <ele>460.128</ele>
        <time>2021-10-16T14:13:56Z</time>
      </trkpt>
      <trkpt lat="38.782692" lon="-5.205477">
        <ele>460.153</ele>
        <time>2021-10-16T14:13:58Z</time>
      </trkpt>
      <trkpt lat="38.782183" lon="-5.205585">
        <ele>459.592</ele>
        <time>2021-10-16T14:14:00Z</time>
      </trkpt>
      <trkpt lat="38.781926" lon="-5.205637">
        <ele>459.814</ele>
        <time>2021-10-16T14:14:01Z</time>
      </trkpt>
      <trkpt lat="38.781661" lon="-5.205692">
        <ele>460.141</ele>
        <time>2021-10-16T14:14:02Z</time>
      </trkpt>
      <trkpt lat="38.781165" lon="-5.205797">
        <ele>462.152</ele>
        <time>2021-10-16T14:14:04Z</time>
      </trkpt>
      <trkpt lat="38.780656" lon="-5.205913">
        <ele>464.553</ele>
        <time>2021-10-16T14:14:06Z</time>
      </trkpt>
      <trkpt lat="38.780153" lon="-5.206124">
        <ele>466.208</ele>
        <time>2021-10-16T14:14:08Z</time>
      </trkpt>
      <trkpt lat="38.779893" lon="-5.206290">
        <ele>467.508</ele>
        <time>2021-10-16T14:14:09Z</time>
      </trkpt>
      <trkpt lat="38.779378" lon="-5.206721">
        <ele>469.493</ele>
        <time>2021-10-16T14:14:11Z</time>
      </trkpt>
      <trkpt lat="38.779130" lon="-5.206993">
        <ele>469.631</ele>
        <time>2021-10-16T14:14:12Z</time>
      </trkpt>
      <trkpt lat="38.778687" lon="-5.207531">
        <ele>470.540</ele>
        <time>2021-10-16T14:14:14Z</time>
      </trkpt>
      <trkpt lat="38.778279" lon="-5.208049">
        <ele>471.094</ele>
        <time>2021-10-16T14:14:16Z</time>
      </trkpt>
      <trkpt lat="38.777862" lon="-5.208568">
        <ele>469.729</ele>
        <time>2021-10-16T14:14:18Z</time>
      </trkpt>
      <trkpt lat="38.777653" lon="-5.208828">
        <ele>469.498</ele>
        <time>2021-10-16T14:14:19Z</time>
      </trkpt>
      <trkpt lat="38.777245" lon="-5.209338">
        <ele>467.730</ele>
        <time>2021-10-16T14:14:21Z</time>
      </trkpt>
      <trkpt lat="38.777044" lon="-5.209589">
        <ele>467.197</ele>
        <time>2021-10-16T14:14:22Z</time>
      </trkpt>
      <trkpt lat="38.776657" lon="-5.210072">
        <ele>465.784</ele>
        <time>2021-10-16T14:14:24Z</time>
      </trkpt>
      <trkpt lat="38.776459" lon="-5.210300">
        <ele>464.907</ele>
        <time>2021-10-16T14:14:25Z</time>
      </trkpt>
      <trkpt lat="38.776245" lon="-5.210516">
        <ele>464.117</ele>
        <time>2021-10-16T14:14:26Z</time>
      </trkpt>
      <trkpt lat="38.775807" lon="-5.210861">
        <ele>463.708</ele>
        <time>2021-10-16T14:14:28Z</time>
      </trkpt>
      <trkpt lat="38.775559" lon="-5.211003">
        <ele>463.016</ele>
        <time>2021-10-16T14:14:29Z</time>
      </trkpt>
      <trkpt lat="38.775034" lon="-5.211224">
        <ele>462.644</ele>
        <time>2021-10-16T14:14:31Z</time>
      </trkpt>
      <trkpt lat="38.774743" lon="-5.211285">
        <ele>462.473</ele>
        <time>2021-10-16T14:14:32Z</time>
      </trkpt>
      <trkpt lat="38.774189" lon="-5.211315">
        <ele>462.787</ele>
        <time>2021-10-16T14:14:34Z</time>
      </trkpt>
      <trkpt lat="38.773897" lon="-5.211292">
        <ele>463.332</ele>
        <time>2021-10-16T14:14:35Z</time>
      </trkpt>
      <trkpt lat="38.773314" lon="-5.211157">
        <ele>465.931</ele>
        <time>2021-10-16T14:14:37Z</time>
      </trkpt>
      <trkpt lat="38.773027" lon="-5.211056">
        <ele>467.023</ele>
        <time>2021-10-16T14:14:38Z</time>
      </trkpt>
      <trkpt lat="38.772746" lon="-5.210942">
        <ele>468.350</ele>
        <time>2021-10-16T14:14:39Z</time>
      </trkpt>
      <trkpt lat="38.772207" lon="-5.210692">
        <ele>469.644</ele>
        <time>2021-10-16T14:14:41Z</time>
      </trkpt>
      <trkpt lat="38.771959" lon="-5.210573">
        <ele>470.505</ele>
        <time>2021-10-16T14:14:42Z</time>
      </trkpt>
      <trkpt lat="38.771491" lon="-5.210364">
        <ele>471.915</ele>
        <time>2021-10-16T14:14:44Z</time>
      </trkpt>
      <trkpt lat="38.771254" lon="-5.210266">
        <ele>472.708</ele>
        <time>2021-10-16T14:14:45Z</time>
      </trkpt>
      <trkpt lat="38.770770" lon="-5.210116">
        <ele>473.172</ele>
        <time>2021-10-16T14:14:47Z</time>
      </trkpt>
      <trkpt lat="38.770510" lon="-5.210066">
        <ele>473.690</ele>
        <time>2021-10-16T14:14:48Z</time>
      </trkpt>
      <trkpt lat="38.770246" lon="-5.210042">
        <ele>473.899</ele>
        <time>2021-10-16T14:14:49Z</time>
      </trkpt>
      <trkpt lat="38.769702" lon="-5.210070">
        <ele>474.163</ele>
        <time>2021-10-16T14:14:51Z</time>
      </trkpt>
      <trkpt lat="38.769127" lon="-5.210113">
        <ele>474.818</ele>
        <time>2021-10-16T14:14:53Z</time>
      </trkpt>
      <trkpt lat="38.768541" lon="-5.210181">
        <ele>474.487</ele>
        <time>2021-10-16T14:14:55Z</time>
      </trkpt>
      <trkpt lat="38.768231" lon="-5.210218">
        <ele>475.279</ele>
        <time>2021-10-16T14:14:56Z</time>
      </trkpt>
      <trkpt lat="38.767633" lon="-5.210299">
        <ele>476.146</ele>
        <time>2021-10-16T14:14:58Z</time>
      </trkpt>
      <trkpt lat="38.767016" lon="-5.210380">
        <ele>476.792</ele>
        <time>2021-10-16T14:15:00Z</time>
      </trkpt>
      <trkpt lat="38.766380" lon="-5.210449">
        <ele>478.573</ele>
        <time>2021-10-16T14:15:02Z</time>
      </trkpt>
      <trkpt lat="38.765771" lon="-5.210517">
        <ele>480.120</ele>
        <time>2021-10-16T14:15:04Z</time>
      </trkpt>
      <trkpt lat="38.765168" lon="-5.210581">
        <ele>481.408</ele>
        <time>2021-10-16T14:15:06Z</time>
      </trkpt>
      <trkpt lat="38.764873" lon="-5.210615">
        <ele>482.167</ele>
        <time>2021-10-16T14:15:07Z</time>
      </trkpt>
      <trkpt lat="38.764583" lon="-5.210649">
        <ele>482.345</ele>
        <time>2021-10-16T14:15:08Z</time>
      </trkpt>
      <trkpt lat="38.764024" lon="-5.210714">
        <ele>483.734</ele>
        <time>2021-10-16T14:15:10Z</time>
      </trkpt>
      <trkpt lat="38.763483" lon="-5.210776">
        <ele>485.188</ele>
        <time>2021-10-16T14:15:12Z</time>
      </trkpt>
      <trkpt lat="38.762954" lon="-5.210818">
        <ele>487.263</ele>
        <time>2021-10-16T14:15:14Z</time>
      </trkpt>
      <trkpt lat="38.762431" lon="-5.210763">
        <ele>487.692</ele>
        <time>2021-10-16T14:15:16Z</time>
      </trkpt>
      <trkpt lat="38.761913" lon="-5.210602">
        <ele>488.264</ele>
        <time>2021-10-16T14:15:18Z</time>
      </trkpt>
      <trkpt lat="38.761656" lon="-5.210500">
        <ele>487.651</ele>
        <time>2021-10-16T14:15:19Z</time>
      </trkpt>
      <trkpt lat="38.761399" lon="-5.210394">
        <ele>487.372</ele>
        <time>2021-10-16T14:15:20Z</time>
      </trkpt>
      <trkpt lat="38.760894" lon="-5.210190">
        <ele>485.913</ele>
        <time>2021-10-16T14:15:22Z</time>
      </trkpt>
      <trkpt lat="38.760640" lon="-5.210088">
        <ele>485.614</ele>
        <time>2021-10-16T14:15:23Z</time>
      </trkpt>
      <trkpt lat="38.760389" lon="-5.209988">
        <ele>485.008</ele>
        <time>2021-10-16T14:15:24Z</time>
      </trkpt>
      <trkpt lat="38.759883" lon="-5.209787">
        <ele>483.265</ele>
        <time>2021-10-16T14:15:26Z</time>
      </trkpt>
      <trkpt lat="38.759396" lon="-5.209596">
        <ele>480.733</ele>
        <time>2021-10-16T14:15:28Z</time>
      </trkpt>
      <trkpt lat="38.759141" lon="-5.209496">
        <ele>479.822</ele>
        <time>2021-10-16T14:15:29Z</time>
      </trkpt>
      <trkpt lat="38.758626" lon="-5.209303">
        <ele>477.836</ele>
        <time>2021-10-16T14:15:31Z</time>
      </trkpt>
      <trkpt lat="38.758359" lon="-5.209219">
        <ele>476.731</ele>
        <time>2021-10-16T14:15:32Z</time>
      </trkpt>
      <trkpt lat="38.757856" lon="-5.209128">
        <ele>475.940</ele>
        <time>2021-10-16T14:15:34Z</time>
      </trkpt>
      <trkpt lat="38.757321" lon="-5.209193">
        <ele>476.952</ele>
        <time>2021-10-16T14:15:36Z</time>
      </trkpt>
      <trkpt lat="38.757052" lon="-5.209282">
        <ele>476.569</ele>
        <time>2021-10-16T14:15:37Z</time>
      </trkpt>
      <trkpt lat="38.756780" lon="-5.209399">
        <ele>476.144</ele>
        <time>2021-10-16T14:15:38Z</time>
      </trkpt>
      <trkpt lat="38.756242" lon="-5.209683">
        <ele>475.405</ele>
        <time>2021-10-16T14:15:40Z</time>
      </trkpt>
      <trkpt lat="38.755693" lon="-5.209980">
        <ele>474.315</ele>
        <time>2021-10-16T14:15:42Z</time>
      </trkpt>
      <trkpt lat="38.755131" lon="-5.210279">
        <ele>472.308</ele>
        <time>2021-10-16T14:15:44Z</time>
      </trkpt>
      <trkpt lat="38.754848" lon="-5.210436">
        <ele>471.732</ele>
        <time>2021-10-16T14:15:45Z</time>
      </trkpt>
      <trkpt lat="38.754567" lon="-5.210592">
        <ele>470.710</ele>
        <time>2021-10-16T14:15:46Z</time>
      </trkpt>
      <trkpt lat="38.754017" lon="-5.210886">
        <ele>468.669</ele>
        <time>2021-10-16T14:15:48Z</time>
      </trkpt>
      <trkpt lat="38.753477" lon="-5.211170">
        <ele>469.443</ele>
        <time>2021-10-16T14:15:50Z</time>
      </trkpt>
      <trkpt lat="38.753206" lon="-5.211312">
        <ele>468.978</ele>
        <time>2021-10-16T14:15:51Z</time>
      </trkpt>
      <trkpt lat="38.752680" lon="-5.211589">
        <ele>469.237</ele>
        <time>2021-10-16T14:15:53Z</time>
      </trkpt>
      <trkpt lat="38.752432" lon="-5.211726">
        <ele>468.939</ele>
        <time>2021-10-16T14:15:54Z</time>
      </trkpt>
      <trkpt lat="38.751969" lon="-5.211981">
        <ele>470.856</ele>
        <time>2021-10-16T14:15:56Z</time>
      </trkpt>
      <trkpt lat="38.751575" lon="-5.212189">
        <ele>472.322</ele>
        <time>2021-10-16T14:15:58Z</time>
      </trkpt>
      <trkpt lat="38.751206" lon="-5.212407">
        <ele>473.062</ele>
        <time>2021-10-16T14:16:00Z</time>
      </trkpt>
      <trkpt lat="38.750888" lon="-5.212647">
        <ele>472.308</ele>
        <time>2021-10-16T14:16:02Z</time>
      </trkpt>
      <trkpt lat="38.750587" lon="-5.212901">
        <ele>471.608</ele>
        <time>2021-10-16T14:16:04Z</time>
      </trkpt>
      <trkpt lat="38.750437" lon="-5.213036">
        <ele>471.340</ele>
        <time>2021-10-16T14:16:05Z</time>
      </trkpt>
      <trkpt lat="38.750290" lon="-5.213166">
        <ele>470.618</ele>
        <time>2021-10-16T14:16:06Z</time>
      </trkpt>
      <trkpt lat="38.750138" lon="-5.213300">
        <ele>469.927</ele>
        <time>2021-10-16T14:16:07Z</time>
      </trkpt>
      <trkpt lat="38.749813" lon="-5.213585">
        <ele>468.431</ele>
        <time>2021-10-16T14:16:09Z</time>
      </trkpt>
      <trkpt lat="38.749448" lon="-5.213903">
        <ele>466.216</ele>
        <time>2021-10-16T14:16:11Z</time>
      </trkpt>
      <trkpt lat="38.749047" lon="-5.214244">
        <ele>464.165</ele>
        <time>2021-10-16T14:16:13Z</time>
      </trkpt>
      <trkpt lat="38.748833" lon="-5.214423">
        <ele>463.327</ele>
        <time>2021-10-16T14:16:14Z</time>
      </trkpt>
      <trkpt lat="38.748404" lon="-5.214793">
        <ele>460.034</ele>
        <time>2021-10-16T14:16:16Z</time>
      </trkpt>
      <trkpt lat="38.747971" lon="-5.215156">
        <ele>456.937</ele>
        <time>2021-10-16T14:16:18Z</time>
      </trkpt>
      <trkpt lat="38.747748" lon="-5.215342">
        <ele>455.349</ele>
        <time>2021-10-16T14:16:19Z</time>
      </trkpt>
      <trkpt lat="38.747525" lon="-5.215524">
        <ele>454.213</ele>
        <time>2021-10-16T14:16:20Z</time>
      </trkpt>
      <trkpt lat="38.747285" lon="-5.215714">
        <ele>452.508</ele>
        <time>2021-10-16T14:16:21Z</time>
      </trkpt>
      <trkpt lat="38.746796" lon="-5.216103">
        <ele>450.391</ele>
        <time>2021-10-16T14:16:23Z</time>
      </trkpt>
      <trkpt lat="38.746292" lon="-5.216410">
        <ele>449.239</ele>
        <time>2021-10-16T14:16:25Z</time>
      </trkpt>
      <trkpt lat="38.746022" lon="-5.216517">
        <ele>449.078</ele>
        <time>2021-10-16T14:16:26Z</time>
      </trkpt>
      <trkpt lat="38.745492" lon="-5.216598">
        <ele>450.332</ele>
        <time>2021-10-16T14:16:28Z</time>
      </trkpt>
      <trkpt lat="38.744945" lon="-5.216525">
        <ele>451.417</ele>
        <time>2021-10-16T14:16:30Z</time>
      </trkpt>
      <trkpt lat="38.744401" lon="-5.216308">
        <ele>452.396</ele>
        <time>2021-10-16T14:16:32Z</time>
      </trkpt>
      <trkpt lat="38.743896" lon="-5.216013">
        <ele>453.398</ele>
        <time>2021-10-16T14:16:34Z</time>
      </trkpt>
      <trkpt lat="38.743411" lon="-5.215753">
        <ele>453.635</ele>
        <time>2021-10-16T14:16:36Z</time>
      </trkpt>
      <trkpt lat="38.742950" lon="-5.215577">
        <ele>454.255</ele>
        <time>2021-10-16T14:16:38Z</time>
      </trkpt>
      <trkpt lat="38.742488" lon="-5.215518">
        <ele>455.707</ele>
        <time>2021-10-16T14:16:40Z</time>
      </trkpt>
      <trkpt lat="38.742016" lon="-5.215600">
        <ele>456.317</ele>
        <time>2021-10-16T14:16:42Z</time>
      </trkpt>
      <trkpt lat="38.741554" lon="-5.215799">
        <ele>456.108</ele>
        <time>2021-10-16T14:16:44Z</time>
      </trkpt>
      <trkpt lat="38.741108" lon="-5.216092">
        <ele>454.163</ele>
        <time>2021-10-16T14:16:46Z</time>
      </trkpt>
      <trkpt lat="38.740656" lon="-5.216392">
        <ele>452.471</ele>
        <time>2021-10-16T14:16:48Z</time>
      </trkpt>
      <trkpt lat="38.740432" lon="-5.216537">
        <ele>451.530</ele>
        <time>2021-10-16T14:16:49Z</time>
      </trkpt>
      <trkpt lat="38.740217" lon="-5.216668">
        <ele>450.454</ele>
        <time>2021-10-16T14:16:50Z</time>
      </trkpt>
      <trkpt lat="38.740012" lon="-5.216791">
        <ele>449.649</ele>
        <time>2021-10-16T14:16:51Z</time>
      </trkpt>
      <trkpt lat="38.739607" lon="-5.217010">
        <ele>448.968</ele>
        <time>2021-10-16T14:16:53Z</time>
      </trkpt>
      <trkpt lat="38.739399" lon="-5.217106">
        <ele>448.860</ele>
        <time>2021-10-16T14:16:54Z</time>
      </trkpt>
      <trkpt lat="38.738977" lon="-5.217296">
        <ele>448.887</ele>
        <time>2021-10-16T14:16:56Z</time>
      </trkpt>
      <trkpt lat="38.738600" lon="-5.217472">
        <ele>449.769</ele>
        <time>2021-10-16T14:16:58Z</time>
      </trkpt>
      <trkpt lat="38.738252" lon="-5.217637">
        <ele>449.904</ele>
        <time>2021-10-16T14:17:00Z</time>
      </trkpt>
      <trkpt lat="38.738090" lon="-5.217708">
        <ele>449.824</ele>
        <time>2021-10-16T14:17:01Z</time>
      </trkpt>
      <trkpt lat="38.737923" lon="-5.217781">
        <ele>450.008</ele>
        <time>2021-10-16T14:17:02Z</time>
      </trkpt>
      <trkpt lat="38.737605" lon="-5.217922">
        <ele>450.394</ele>
        <time>2021-10-16T14:17:04Z</time>
      </trkpt>
      <trkpt lat="38.737440" lon="-5.217996">
        <ele>450.512</ele>
        <time>2021-10-16T14:17:05Z</time>
      </trkpt>
      <trkpt lat="38.737271" lon="-5.218078">
        <ele>450.381</ele>
        <time>2021-10-16T14:17:06Z</time>
      </trkpt>
      <trkpt lat="38.736934" lon="-5.218283">
        <ele>450.585</ele>
        <time>2021-10-16T14:17:08Z</time>
      </trkpt>
      <trkpt lat="38.736593" lon="-5.218575">
        <ele>450.670</ele>
        <time>2021-10-16T14:17:10Z</time>
      </trkpt>
      <trkpt lat="38.736427" lon="-5.218761">
        <ele>450.339</ele>
        <time>2021-10-16T14:17:11Z</time>
      </trkpt>
      <trkpt lat="38.736267" lon="-5.218977">
        <ele>450.741</ele>
        <time>2021-10-16T14:17:12Z</time>
      </trkpt>
      <trkpt lat="38.736003" lon="-5.219492">
        <ele>449.928</ele>
        <time>2021-10-16T14:17:14Z</time>
      </trkpt>
      <trkpt lat="38.735798" lon="-5.220065">
        <ele>449.446</ele>
        <time>2021-10-16T14:17:16Z</time>
      </trkpt>
      <trkpt lat="38.735710" lon="-5.220361">
        <ele>449.088</ele>
        <time>2021-10-16T14:17:17Z</time>
      </trkpt>
      <trkpt lat="38.735627" lon="-5.220647">
        <ele>448.916</ele>
        <time>2021-10-16T14:17:18Z</time>
      </trkpt>
      <trkpt lat="38.735548" lon="-5.220916">
        <ele>448.608</ele>
        <time>2021-10-16T14:17:19Z</time>
      </trkpt>
      <trkpt lat="38.735399" lon="-5.221416">
        <ele>448.292</ele>
        <time>2021-10-16T14:17:21Z</time>
      </trkpt>
      <trkpt lat="38.735324" lon="-5.221649">
        <ele>448.550</ele>
        <time>2021-10-16T14:17:22Z</time>
      </trkpt>
      <trkpt lat="38.735242" lon="-5.221882">
        <ele>448.239</ele>
        <time>2021-10-16T14:17:23Z</time>
      </trkpt>
      <trkpt lat="38.735028" lon="-5.222330">
        <ele>447.643</ele>
        <time>2021-10-16T14:17:25Z</time>
      </trkpt>
      <trkpt lat="38.734889" lon="-5.222558">
        <ele>447.958</ele>
        <time>2021-10-16T14:17:26Z</time>
      </trkpt>
      <trkpt lat="38.734576" lon="-5.222940">
        <ele>447.477</ele>
        <time>2021-10-16T14:17:28Z</time>
      </trkpt>
      <trkpt lat="38.734385" lon="-5.223114">
        <ele>447.479</ele>
        <time>2021-10-16T14:17:29Z</time>
      </trkpt>
      <trkpt lat="38.733967" lon="-5.223377">
        <ele>448.526</ele>
        <time>2021-10-16T14:17:31Z</time>
      </trkpt>
      <trkpt lat="38.733746" lon="-5.223465">
        <ele>449.074</ele>
        <time>2021-10-16T14:17:32Z</time>
      </trkpt>
      <trkpt lat="38.733358" lon="-5.223528">
        <ele>449.556</ele>
        <time>2021-10-16T14:17:34Z</time>
      </trkpt>
      <trkpt lat="38.733177" lon="-5.223532">
        <ele>449.521</ele>
        <time>2021-10-16T14:17:35Z</time>
      </trkpt>
      <trkpt lat="38.733006" lon="-5.223523">
        <ele>450.408</ele>
        <time>2021-10-16T14:17:36Z</time>
      </trkpt>
      <trkpt lat="38.732686" lon="-5.223490">
        <ele>451.515</ele>
        <time>2021-10-16T14:17:38Z</time>
      </trkpt>
      <trkpt lat="38.732398" lon="-5.223481">
        <ele>452.513</ele>
        <time>2021-10-16T14:17:40Z</time>
      </trkpt>
      <trkpt lat="38.732122" lon="-5.223476">
        <ele>453.922</ele>
        <time>2021-10-16T14:17:42Z</time>
      </trkpt>
      <trkpt lat="38.731875" lon="-5.223477">
        <ele>454.366</ele>
        <time>2021-10-16T14:17:44Z</time>
      </trkpt>
      <trkpt lat="38.731749" lon="-5.223474">
        <ele>454.531</ele>
        <time>2021-10-16T14:17:45Z</time>
      </trkpt>
      <trkpt lat="38.731618" lon="-5.223476">
        <ele>454.860</ele>
        <time>2021-10-16T14:17:46Z</time>
      </trkpt>
      <trkpt lat="38.731342" lon="-5.223478">
        <ele>455.472</ele>
        <time>2021-10-16T14:17:48Z</time>
      </trkpt>
      <trkpt lat="38.731208" lon="-5.223475">
        <ele>455.419</ele>
        <time>2021-10-16T14:17:49Z</time>
      </trkpt>
      <trkpt lat="38.731081" lon="-5.223474">
        <ele>455.756</ele>
        <time>2021-10-16T14:17:50Z</time>
      </trkpt>
      <trkpt lat="38.730849" lon="-5.223465">
        <ele>455.659</ele>
        <time>2021-10-16T14:17:52Z</time>
      </trkpt>
      <trkpt lat="38.730599" lon="-5.223434">
        <ele>456.314</ele>
        <time>2021-10-16T14:17:54Z</time>
      </trkpt>
      <trkpt lat="38.730438" lon="-5.223400">
        <ele>456.308</ele>
        <time>2021-10-16T14:17:55Z</time>
      </trkpt>
      <trkpt lat="38.730249" lon="-5.223352">
        <ele>456.533</ele>
        <time>2021-10-16T14:17:56Z</time>
      </trkpt>
      <trkpt lat="38.729928" lon="-5.223256">
        <ele>458.011</ele>
        <time>2021-10-16T14:17:58Z</time>
      </trkpt>
      <trkpt lat="38.729630" lon="-5.223157">
        <ele>457.280</ele>
        <time>2021-10-16T14:18:00Z</time>
      </trkpt>
      <trkpt lat="38.729334" lon="-5.223054">
        <ele>458.834</ele>
        <time>2021-10-16T14:18:02Z</time>
      </trkpt>
      <trkpt lat="38.729048" lon="-5.222972">
        <ele>459.849</ele>
        <time>2021-10-16T14:18:04Z</time>
      </trkpt>
      <trkpt lat="38.728796" lon="-5.222938">
        <ele>461.938</ele>
        <time>2021-10-16T14:18:06Z</time>
      </trkpt>
      <trkpt lat="38.728689" lon="-5.222938">
        <ele>462.670</ele>
        <time>2021-10-16T14:18:07Z</time>
      </trkpt>
      <trkpt lat="38.728504" lon="-5.222960">
        <ele>463.317</ele>
        <time>2021-10-16T14:18:09Z</time>
      </trkpt>
      <trkpt lat="38.728364" lon="-5.223026">
        <ele>463.814</ele>
        <time>2021-10-16T14:18:11Z</time>
      </trkpt>
      <trkpt lat="38.728271" lon="-5.223143">
        <ele>464.154</ele>
        <time>2021-10-16T14:18:13Z</time>
      </trkpt>
      <trkpt lat="38.728184" lon="-5.223199">
        <ele>464.309</ele>
        <time>2021-10-16T14:18:15Z</time>
      </trkpt>
      <trkpt lat="38.728113" lon="-5.223186">
        <ele>464.708</ele>
        <time>2021-10-16T14:18:17Z</time>
      </trkpt>
      <trkpt lat="38.728071" lon="-5.223161">
        <ele>464.789</ele>
        <time>2021-10-16T14:18:19Z</time>
      </trkpt>
      <trkpt lat="38.728010" lon="-5.223156">
        <ele>464.997</ele>
        <time>2021-10-16T14:18:23Z</time>
      </trkpt>
      <trkpt lat="38.727964" lon="-5.223126">
        <ele>465.686</ele>
        <time>2021-10-16T14:18:26Z</time>
      </trkpt>
      <trkpt lat="38.727914" lon="-5.223169">
        <ele>485.630</ele>
        <time>2021-10-16T14:18:29Z</time>
      </trkpt>
      <trkpt lat="38.727895" lon="-5.223222">
        <ele>501.045</ele>
        <time>2021-10-16T14:18:33Z</time>
      </trkpt>
      <trkpt lat="38.727930" lon="-5.223269">
        <ele>514.914</ele>
        <time>2021-10-16T14:18:37Z</time>
      </trkpt>
      <trkpt lat="38.727982" lon="-5.223315">
        <ele>514.916</ele>
        <time>2021-10-16T14:18:44Z</time>
      </trkpt>
      <trkpt lat="38.728028" lon="-5.223317">
        <ele>514.933</ele>
        <time>2021-10-16T14:18:55Z</time>
      </trkpt>
      <trkpt lat="38.728051" lon="-5.223379">
        <ele>515.637</ele>
        <time>2021-10-16T16:12:37Z</time>
      </trkpt>
      <trkpt lat="38.728017" lon="-5.223320">
        <ele>515.249</ele>
        <time>2021-10-16T16:16:41Z</time>
      </trkpt>
      <trkpt lat="38.727977" lon="-5.223285">
        <ele>515.213</ele>
        <time>2021-10-16T16:16:43Z</time>
      </trkpt>
      <trkpt lat="38.727922" lon="-5.223275">
        <ele>515.208</ele>
        <time>2021-10-16T16:16:45Z</time>
      </trkpt>
      <trkpt lat="38.727868" lon="-5.223253">
        <ele>496.481</ele>
        <time>2021-10-16T16:16:47Z</time>
      </trkpt>
      <trkpt lat="38.727831" lon="-5.223190">
        <ele>475.969</ele>
        <time>2021-10-16T16:16:50Z</time>
      </trkpt>
      <trkpt lat="38.727853" lon="-5.223130">
        <ele>459.728</ele>
        <time>2021-10-16T16:16:52Z</time>
      </trkpt>
      <trkpt lat="38.727925" lon="-5.223083">
        <ele>459.732</ele>
        <time>2021-10-16T16:16:54Z</time>
      </trkpt>
      <trkpt lat="38.727972" lon="-5.223053">
        <ele>459.767</ele>
        <time>2021-10-16T16:16:55Z</time>
      </trkpt>
      <trkpt lat="38.728019" lon="-5.223017">
        <ele>459.776</ele>
        <time>2021-10-16T16:16:56Z</time>
      </trkpt>
      <trkpt lat="38.728109" lon="-5.222942">
        <ele>459.528</ele>
        <time>2021-10-16T16:16:58Z</time>
      </trkpt>
      <trkpt lat="38.728161" lon="-5.222914">
        <ele>459.775</ele>
        <time>2021-10-16T16:16:59Z</time>
      </trkpt>
      <trkpt lat="38.728239" lon="-5.222913">
        <ele>459.335</ele>
        <time>2021-10-16T16:17:01Z</time>
      </trkpt>
      <trkpt lat="38.728298" lon="-5.222968">
        <ele>459.686</ele>
        <time>2021-10-16T16:17:03Z</time>
      </trkpt>
      <trkpt lat="38.728316" lon="-5.223063">
        <ele>460.014</ele>
        <time>2021-10-16T16:17:05Z</time>
      </trkpt>
      <trkpt lat="38.728300" lon="-5.223181">
        <ele>460.008</ele>
        <time>2021-10-16T16:17:07Z</time>
      </trkpt>
      <trkpt lat="38.728282" lon="-5.223236">
        <ele>460.221</ele>
        <time>2021-10-16T16:17:08Z</time>
      </trkpt>
      <trkpt lat="38.728260" lon="-5.223288">
        <ele>460.369</ele>
        <time>2021-10-16T16:17:10Z</time>
      </trkpt>
      <trkpt lat="38.728213" lon="-5.223286">
        <ele>460.388</ele>
        <time>2021-10-16T16:17:13Z</time>
      </trkpt>
      <trkpt lat="38.728176" lon="-5.223228">
        <ele>460.182</ele>
        <time>2021-10-16T16:17:27Z</time>
      </trkpt>
      <trkpt lat="38.728137" lon="-5.223144">
        <ele>460.187</ele>
        <time>2021-10-16T16:17:28Z</time>
      </trkpt>
      <trkpt lat="38.728112" lon="-5.222957">
        <ele>460.216</ele>
        <time>2021-10-16T16:17:30Z</time>
      </trkpt>
      <trkpt lat="38.728129" lon="-5.222866">
        <ele>461.438</ele>
        <time>2021-10-16T16:17:31Z</time>
      </trkpt>
      <trkpt lat="38.728151" lon="-5.222766">
        <ele>461.515</ele>
        <time>2021-10-16T16:17:32Z</time>
      </trkpt>
      <trkpt lat="38.728165" lon="-5.222553">
        <ele>460.411</ele>
        <time>2021-10-16T16:17:34Z</time>
      </trkpt>
      <trkpt lat="38.728147" lon="-5.222326">
        <ele>460.021</ele>
        <time>2021-10-16T16:17:36Z</time>
      </trkpt>
      <trkpt lat="38.728127" lon="-5.222064">
        <ele>459.303</ele>
        <time>2021-10-16T16:17:38Z</time>
      </trkpt>
      <trkpt lat="38.728107" lon="-5.221740">
        <ele>458.908</ele>
        <time>2021-10-16T16:17:40Z</time>
      </trkpt>
      <trkpt lat="38.728086" lon="-5.221361">
        <ele>458.189</ele>
        <time>2021-10-16T16:17:42Z</time>
      </trkpt>
      <trkpt lat="38.728076" lon="-5.221153">
        <ele>457.187</ele>
        <time>2021-10-16T16:17:43Z</time>
      </trkpt>
      <trkpt lat="38.728066" lon="-5.220931">
        <ele>455.526</ele>
        <time>2021-10-16T16:17:44Z</time>
      </trkpt>
      <trkpt lat="38.728061" lon="-5.220475">
        <ele>453.810</ele>
        <time>2021-10-16T16:17:46Z</time>
      </trkpt>
      <trkpt lat="38.728075" lon="-5.220238">
        <ele>452.725</ele>
        <time>2021-10-16T16:17:47Z</time>
      </trkpt>
      <trkpt lat="38.728176" lon="-5.219776">
        <ele>449.844</ele>
        <time>2021-10-16T16:17:49Z</time>
      </trkpt>
      <trkpt lat="38.728268" lon="-5.219552">
        <ele>448.936</ele>
        <time>2021-10-16T16:17:50Z</time>
      </trkpt>
      <trkpt lat="38.728512" lon="-5.219174">
        <ele>447.593</ele>
        <time>2021-10-16T16:17:52Z</time>
      </trkpt>
      <trkpt lat="38.728650" lon="-5.218996">
        <ele>447.985</ele>
        <time>2021-10-16T16:17:53Z</time>
      </trkpt>
      <trkpt lat="38.728907" lon="-5.218665">
        <ele>450.789</ele>
        <time>2021-10-16T16:17:55Z</time>
      </trkpt>
      <trkpt lat="38.729019" lon="-5.218514">
        <ele>451.317</ele>
        <time>2021-10-16T16:17:56Z</time>
      </trkpt>
      <trkpt lat="38.729188" lon="-5.218276">
        <ele>452.708</ele>
        <time>2021-10-16T16:17:58Z</time>
      </trkpt>
      <trkpt lat="38.729293" lon="-5.218045">
        <ele>453.476</ele>
        <time>2021-10-16T16:18:00Z</time>
      </trkpt>
      <trkpt lat="38.729421" lon="-5.217845">
        <ele>455.194</ele>
        <time>2021-10-16T16:18:02Z</time>
      </trkpt>
      <trkpt lat="38.729575" lon="-5.217631">
        <ele>457.413</ele>
        <time>2021-10-16T16:18:04Z</time>
      </trkpt>
      <trkpt lat="38.729637" lon="-5.217482">
        <ele>457.797</ele>
        <time>2021-10-16T16:18:05Z</time>
      </trkpt>
      <trkpt lat="38.729708" lon="-5.217112">
        <ele>458.712</ele>
        <time>2021-10-16T16:18:07Z</time>
      </trkpt>
      <trkpt lat="38.729714" lon="-5.216895">
        <ele>459.691</ele>
        <time>2021-10-16T16:18:08Z</time>
      </trkpt>
      <trkpt lat="38.729682" lon="-5.216454">
        <ele>461.263</ele>
        <time>2021-10-16T16:18:10Z</time>
      </trkpt>
      <trkpt lat="38.729658" lon="-5.216239">
        <ele>461.520</ele>
        <time>2021-10-16T16:18:11Z</time>
      </trkpt>
      <trkpt lat="38.729622" lon="-5.215916">
        <ele>463.327</ele>
        <time>2021-10-16T16:18:13Z</time>
      </trkpt>
      <trkpt lat="38.729610" lon="-5.215808">
        <ele>463.468</ele>
        <time>2021-10-16T16:18:14Z</time>
      </trkpt>
      <trkpt lat="38.729586" lon="-5.215589">
        <ele>463.614</ele>
        <time>2021-10-16T16:18:16Z</time>
      </trkpt>
      <trkpt lat="38.729540" lon="-5.215265">
        <ele>464.008</ele>
        <time>2021-10-16T16:18:18Z</time>
      </trkpt>
      <trkpt lat="38.729510" lon="-5.215069">
        <ele>464.090</ele>
        <time>2021-10-16T16:18:19Z</time>
      </trkpt>
      <trkpt lat="38.729468" lon="-5.214851">
        <ele>463.878</ele>
        <time>2021-10-16T16:18:20Z</time>
      </trkpt>
      <trkpt lat="38.729334" lon="-5.214411">
        <ele>463.457</ele>
        <time>2021-10-16T16:18:22Z</time>
      </trkpt>
      <trkpt lat="38.729230" lon="-5.214196">
        <ele>462.321</ele>
        <time>2021-10-16T16:18:23Z</time>
      </trkpt>
      <trkpt lat="38.729094" lon="-5.213998">
        <ele>461.266</ele>
        <time>2021-10-16T16:18:24Z</time>
      </trkpt>
      <trkpt lat="38.728927" lon="-5.213822">
        <ele>460.925</ele>
        <time>2021-10-16T16:18:25Z</time>
      </trkpt>
      <trkpt lat="38.728728" lon="-5.213670">
        <ele>460.977</ele>
        <time>2021-10-16T16:18:26Z</time>
      </trkpt>
      <trkpt lat="38.728276" lon="-5.213482">
        <ele>460.714</ele>
        <time>2021-10-16T16:18:28Z</time>
      </trkpt>
      <trkpt lat="38.727775" lon="-5.213355">
        <ele>460.637</ele>
        <time>2021-10-16T16:18:30Z</time>
      </trkpt>
      <trkpt lat="38.727245" lon="-5.213191">
        <ele>460.449</ele>
        <time>2021-10-16T16:18:32Z</time>
      </trkpt>
      <trkpt lat="38.726758" lon="-5.213001">
        <ele>458.713</ele>
        <time>2021-10-16T16:18:34Z</time>
      </trkpt>
      <trkpt lat="38.726539" lon="-5.212872">
        <ele>459.008</ele>
        <time>2021-10-16T16:18:35Z</time>
      </trkpt>
      <trkpt lat="38.726336" lon="-5.212706">
        <ele>459.021</ele>
        <time>2021-10-16T16:18:36Z</time>
      </trkpt>
      <trkpt lat="38.725997" lon="-5.212227">
        <ele>460.399</ele>
        <time>2021-10-16T16:18:38Z</time>
      </trkpt>
      <trkpt lat="38.725790" lon="-5.211596">
        <ele>460.748</ele>
        <time>2021-10-16T16:18:40Z</time>
      </trkpt>
      <trkpt lat="38.725728" lon="-5.211241">
        <ele>461.532</ele>
        <time>2021-10-16T16:18:41Z</time>
      </trkpt>
      <trkpt lat="38.725684" lon="-5.210877">
        <ele>462.257</ele>
        <time>2021-10-16T16:18:42Z</time>
      </trkpt>
      <trkpt lat="38.725638" lon="-5.210507">
        <ele>462.956</ele>
        <time>2021-10-16T16:18:43Z</time>
      </trkpt>
      <trkpt lat="38.725578" lon="-5.210128">
        <ele>463.568</ele>
        <time>2021-10-16T16:18:44Z</time>
      </trkpt>
      <trkpt lat="38.725443" lon="-5.209400">
        <ele>465.315</ele>
        <time>2021-10-16T16:18:46Z</time>
      </trkpt>
      <trkpt lat="38.725315" lon="-5.208724">
        <ele>468.062</ele>
        <time>2021-10-16T16:18:48Z</time>
      </trkpt>
      <trkpt lat="38.725259" lon="-5.208426">
        <ele>469.783</ele>
        <time>2021-10-16T16:18:49Z</time>
      </trkpt>
      <trkpt lat="38.725205" lon="-5.208152">
        <ele>470.911</ele>
        <time>2021-10-16T16:18:50Z</time>
      </trkpt>
      <trkpt lat="38.725091" lon="-5.207666">
        <ele>474.108</ele>
        <time>2021-10-16T16:18:52Z</time>
      </trkpt>
      <trkpt lat="38.725019" lon="-5.207424">
        <ele>475.014</ele>
        <time>2021-10-16T16:18:53Z</time>
      </trkpt>
      <trkpt lat="38.724818" lon="-5.206956">
        <ele>476.842</ele>
        <time>2021-10-16T16:18:55Z</time>
      </trkpt>
      <trkpt lat="38.724692" lon="-5.206707">
        <ele>477.781</ele>
        <time>2021-10-16T16:18:56Z</time>
      </trkpt>
      <trkpt lat="38.724421" lon="-5.206209">
        <ele>479.365</ele>
        <time>2021-10-16T16:18:58Z</time>
      </trkpt>
      <trkpt lat="38.724267" lon="-5.205953">
        <ele>479.890</ele>
        <time>2021-10-16T16:18:59Z</time>
      </trkpt>
      <trkpt lat="38.723935" lon="-5.205448">
        <ele>482.959</ele>
        <time>2021-10-16T16:19:01Z</time>
      </trkpt>
      <trkpt lat="38.723753" lon="-5.205184">
        <ele>484.171</ele>
        <time>2021-10-16T16:19:02Z</time>
      </trkpt>
      <trkpt lat="38.723409" lon="-5.204681">
        <ele>487.068</ele>
        <time>2021-10-16T16:19:04Z</time>
      </trkpt>
      <trkpt lat="38.723237" lon="-5.204430">
        <ele>488.737</ele>
        <time>2021-10-16T16:19:05Z</time>
      </trkpt>
      <trkpt lat="38.723078" lon="-5.204208">
        <ele>489.749</ele>
        <time>2021-10-16T16:19:06Z</time>
      </trkpt>
      <trkpt lat="38.722743" lon="-5.203800">
        <ele>491.113</ele>
        <time>2021-10-16T16:19:08Z</time>
      </trkpt>
      <trkpt lat="38.722358" lon="-5.203463">
        <ele>491.808</ele>
        <time>2021-10-16T16:19:10Z</time>
      </trkpt>
      <trkpt lat="38.722136" lon="-5.203334">
        <ele>491.421</ele>
        <time>2021-10-16T16:19:11Z</time>
      </trkpt>
      <trkpt lat="38.721651" lon="-5.203170">
        <ele>490.389</ele>
        <time>2021-10-16T16:19:13Z</time>
      </trkpt>
      <trkpt lat="38.721385" lon="-5.203133">
        <ele>489.728</ele>
        <time>2021-10-16T16:19:14Z</time>
      </trkpt>
      <trkpt lat="38.720866" lon="-5.203178">
        <ele>489.132</ele>
        <time>2021-10-16T16:19:16Z</time>
      </trkpt>
      <trkpt lat="38.720593" lon="-5.203251">
        <ele>489.447</ele>
        <time>2021-10-16T16:19:17Z</time>
      </trkpt>
      <trkpt lat="38.720307" lon="-5.203349">
        <ele>490.466</ele>
        <time>2021-10-16T16:19:18Z</time>
      </trkpt>
      <trkpt lat="38.720015" lon="-5.203458">
        <ele>491.328</ele>
        <time>2021-10-16T16:19:19Z</time>
      </trkpt>
      <trkpt lat="38.719706" lon="-5.203571">
        <ele>492.185</ele>
        <time>2021-10-16T16:19:20Z</time>
      </trkpt>
      <trkpt lat="38.719100" lon="-5.203780">
        <ele>495.352</ele>
        <time>2021-10-16T16:19:22Z</time>
      </trkpt>
      <trkpt lat="38.718806" lon="-5.203872">
        <ele>497.353</ele>
        <time>2021-10-16T16:19:23Z</time>
      </trkpt>
      <trkpt lat="38.718521" lon="-5.203932">
        <ele>499.108</ele>
        <time>2021-10-16T16:19:24Z</time>
      </trkpt>
      <trkpt lat="38.717927" lon="-5.203953">
        <ele>502.208</ele>
        <time>2021-10-16T16:19:26Z</time>
      </trkpt>
      <trkpt lat="38.717330" lon="-5.203824">
        <ele>506.223</ele>
        <time>2021-10-16T16:19:28Z</time>
      </trkpt>
      <trkpt lat="38.717030" lon="-5.203711">
        <ele>507.191</ele>
        <time>2021-10-16T16:19:29Z</time>
      </trkpt>
      <trkpt lat="38.716443" lon="-5.203397">
        <ele>508.520</ele>
        <time>2021-10-16T16:19:31Z</time>
      </trkpt>
      <trkpt lat="38.716148" lon="-5.203187">
        <ele>509.334</ele>
        <time>2021-10-16T16:19:32Z</time>
      </trkpt>
      <trkpt lat="38.715003" lon="-5.202071">
        <ele>508.519</ele>
        <time>2021-10-16T16:19:36Z</time>
      </trkpt>
      <trkpt lat="38.713836" lon="-5.200944">
        <ele>507.898</ele>
        <time>2021-10-16T16:19:40Z</time>
      </trkpt>
      <trkpt lat="38.713562" lon="-5.200684">
        <ele>505.680</ele>
        <time>2021-10-16T16:19:41Z</time>
      </trkpt>
      <trkpt lat="38.713050" lon="-5.200210">
        <ele>504.237</ele>
        <time>2021-10-16T16:19:43Z</time>
      </trkpt>
      <trkpt lat="38.712789" lon="-5.199996">
        <ele>502.935</ele>
        <time>2021-10-16T16:19:44Z</time>
      </trkpt>
      <trkpt lat="38.712255" lon="-5.199673">
        <ele>501.586</ele>
        <time>2021-10-16T16:19:46Z</time>
      </trkpt>
      <trkpt lat="38.711678" lon="-5.199463">
        <ele>500.014</ele>
        <time>2021-10-16T16:19:48Z</time>
      </trkpt>
      <trkpt lat="38.711404" lon="-5.199377">
        <ele>499.008</ele>
        <time>2021-10-16T16:19:49Z</time>
      </trkpt>
      <trkpt lat="38.711134" lon="-5.199286">
        <ele>497.911</ele>
        <time>2021-10-16T16:19:50Z</time>
      </trkpt>
      <trkpt lat="38.710620" lon="-5.199118">
        <ele>492.849</ele>
        <time>2021-10-16T16:19:52Z</time>
      </trkpt>
      <trkpt lat="38.710351" lon="-5.199033">
        <ele>491.338</ele>
        <time>2021-10-16T16:19:53Z</time>
      </trkpt>
      <trkpt lat="38.710077" lon="-5.198964">
        <ele>489.642</ele>
        <time>2021-10-16T16:19:54Z</time>
      </trkpt>
      <trkpt lat="38.709505" lon="-5.198904">
        <ele>486.437</ele>
        <time>2021-10-16T16:19:56Z</time>
      </trkpt>
      <trkpt lat="38.708935" lon="-5.198958">
        <ele>484.536</ele>
        <time>2021-10-16T16:19:58Z</time>
      </trkpt>
      <trkpt lat="38.708642" lon="-5.199017">
        <ele>484.088</ele>
        <time>2021-10-16T16:19:59Z</time>
      </trkpt>
      <trkpt lat="38.708064" lon="-5.199147">
        <ele>481.925</ele>
        <time>2021-10-16T16:20:01Z</time>
      </trkpt>
      <trkpt lat="38.707768" lon="-5.199210">
        <ele>481.089</ele>
        <time>2021-10-16T16:20:02Z</time>
      </trkpt>
      <trkpt lat="38.707198" lon="-5.199319">
        <ele>479.406</ele>
        <time>2021-10-16T16:20:04Z</time>
      </trkpt>
      <trkpt lat="38.706657" lon="-5.199377">
        <ele>476.726</ele>
        <time>2021-10-16T16:20:06Z</time>
      </trkpt>
      <trkpt lat="38.706386" lon="-5.199361">
        <ele>475.708</ele>
        <time>2021-10-16T16:20:07Z</time>
      </trkpt>
      <trkpt lat="38.706109" lon="-5.199312">
        <ele>475.036</ele>
        <time>2021-10-16T16:20:08Z</time>
      </trkpt>
      <trkpt lat="38.705571" lon="-5.199121">
        <ele>473.024</ele>
        <time>2021-10-16T16:20:10Z</time>
      </trkpt>
      <trkpt lat="38.705036" lon="-5.198870">
        <ele>469.833</ele>
        <time>2021-10-16T16:20:12Z</time>
      </trkpt>
      <trkpt lat="38.704785" lon="-5.198744">
        <ele>467.797</ele>
        <time>2021-10-16T16:20:13Z</time>
      </trkpt>
      <trkpt lat="38.704547" lon="-5.198617">
        <ele>465.132</ele>
        <time>2021-10-16T16:20:14Z</time>
      </trkpt>
      <trkpt lat="38.704148" lon="-5.198332">
        <ele>462.111</ele>
        <time>2021-10-16T16:20:16Z</time>
      </trkpt>
      <trkpt lat="38.703973" lon="-5.198152">
        <ele>460.553</ele>
        <time>2021-10-16T16:20:17Z</time>
      </trkpt>
      <trkpt lat="38.703681" lon="-5.197693">
        <ele>456.870</ele>
        <time>2021-10-16T16:20:19Z</time>
      </trkpt>
      <trkpt lat="38.703560" lon="-5.197417">
        <ele>455.298</ele>
        <time>2021-10-16T16:20:20Z</time>
      </trkpt>
      <trkpt lat="38.703363" lon="-5.196844">
        <ele>451.215</ele>
        <time>2021-10-16T16:20:22Z</time>
      </trkpt>
      <trkpt lat="38.703143" lon="-5.196315">
        <ele>447.526</ele>
        <time>2021-10-16T16:20:24Z</time>
      </trkpt>
      <trkpt lat="38.702842" lon="-5.195861">
        <ele>443.308</ele>
        <time>2021-10-16T16:20:26Z</time>
      </trkpt>
      <trkpt lat="38.702464" lon="-5.195491">
        <ele>439.447</ele>
        <time>2021-10-16T16:20:28Z</time>
      </trkpt>
      <trkpt lat="38.702022" lon="-5.195207">
        <ele>435.565</ele>
        <time>2021-10-16T16:20:30Z</time>
      </trkpt>
      <trkpt lat="38.701802" lon="-5.195085">
        <ele>433.874</ele>
        <time>2021-10-16T16:20:31Z</time>
      </trkpt>
      <trkpt lat="38.701583" lon="-5.194947">
        <ele>432.278</ele>
        <time>2021-10-16T16:20:32Z</time>
      </trkpt>
      <trkpt lat="38.701205" lon="-5.194585">
        <ele>428.673</ele>
        <time>2021-10-16T16:20:34Z</time>
      </trkpt>
      <trkpt lat="38.700893" lon="-5.194120">
        <ele>426.112</ele>
        <time>2021-10-16T16:20:36Z</time>
      </trkpt>
      <trkpt lat="38.700764" lon="-5.193864">
        <ele>425.424</ele>
        <time>2021-10-16T16:20:37Z</time>
      </trkpt>
      <trkpt lat="38.700653" lon="-5.193583">
        <ele>422.771</ele>
        <time>2021-10-16T16:20:38Z</time>
      </trkpt>
      <trkpt lat="38.700506" lon="-5.193002">
        <ele>421.866</ele>
        <time>2021-10-16T16:20:40Z</time>
      </trkpt>
      <trkpt lat="38.700380" lon="-5.192377">
        <ele>418.829</ele>
        <time>2021-10-16T16:20:42Z</time>
      </trkpt>
      <trkpt lat="38.700202" lon="-5.191760">
        <ele>416.221</ele>
        <time>2021-10-16T16:20:44Z</time>
      </trkpt>
      <trkpt lat="38.699982" lon="-5.191171">
        <ele>411.208</ele>
        <time>2021-10-16T16:20:46Z</time>
      </trkpt>
      <trkpt lat="38.699679" lon="-5.190619">
        <ele>408.474</ele>
        <time>2021-10-16T16:20:48Z</time>
      </trkpt>
      <trkpt lat="38.699284" lon="-5.190170">
        <ele>406.762</ele>
        <time>2021-10-16T16:20:50Z</time>
      </trkpt>
      <trkpt lat="38.698815" lon="-5.189854">
        <ele>406.751</ele>
        <time>2021-10-16T16:20:52Z</time>
      </trkpt>
      <trkpt lat="38.698554" lon="-5.189734">
        <ele>406.975</ele>
        <time>2021-10-16T16:20:53Z</time>
      </trkpt>
      <trkpt lat="38.698041" lon="-5.189531">
        <ele>407.040</ele>
        <time>2021-10-16T16:20:55Z</time>
      </trkpt>
      <trkpt lat="38.697791" lon="-5.189421">
        <ele>406.679</ele>
        <time>2021-10-16T16:20:56Z</time>
      </trkpt>
      <trkpt lat="38.697351" lon="-5.189144">
        <ele>405.711</ele>
        <time>2021-10-16T16:20:58Z</time>
      </trkpt>
      <trkpt lat="38.697135" lon="-5.188961">
        <ele>405.478</ele>
        <time>2021-10-16T16:20:59Z</time>
      </trkpt>
      <trkpt lat="38.696730" lon="-5.188515">
        <ele>405.718</ele>
        <time>2021-10-16T16:21:01Z</time>
      </trkpt>
      <trkpt lat="38.696531" lon="-5.188263">
        <ele>405.898</ele>
        <time>2021-10-16T16:21:02Z</time>
      </trkpt>
      <trkpt lat="38.696150" lon="-5.187760">
        <ele>405.217</ele>
        <time>2021-10-16T16:21:04Z</time>
      </trkpt>
      <trkpt lat="38.695954" lon="-5.187497">
        <ele>405.208</ele>
        <time>2021-10-16T16:21:05Z</time>
      </trkpt>
      <trkpt lat="38.695559" lon="-5.186981">
        <ele>406.489</ele>
        <time>2021-10-16T16:21:07Z</time>
      </trkpt>
      <trkpt lat="38.695357" lon="-5.186721">
        <ele>407.227</ele>
        <time>2021-10-16T16:21:08Z</time>
      </trkpt>
      <trkpt lat="38.694986" lon="-5.186224">
        <ele>409.876</ele>
        <time>2021-10-16T16:21:10Z</time>
      </trkpt>
      <trkpt lat="38.694810" lon="-5.185958">
        <ele>410.430</ele>
        <time>2021-10-16T16:21:11Z</time>
      </trkpt>
      <trkpt lat="38.694508" lon="-5.185380">
        <ele>409.925</ele>
        <time>2021-10-16T16:21:13Z</time>
      </trkpt>
      <trkpt lat="38.694377" lon="-5.185056">
        <ele>409.734</ele>
        <time>2021-10-16T16:21:14Z</time>
      </trkpt>
      <trkpt lat="38.694167" lon="-5.184402">
        <ele>408.496</ele>
        <time>2021-10-16T16:21:16Z</time>
      </trkpt>
      <trkpt lat="38.694059" lon="-5.184062">
        <ele>407.743</ele>
        <time>2021-10-16T16:21:17Z</time>
      </trkpt>
      <trkpt lat="38.693822" lon="-5.183393">
        <ele>405.446</ele>
        <time>2021-10-16T16:21:19Z</time>
      </trkpt>
      <trkpt lat="38.693683" lon="-5.183058">
        <ele>404.388</ele>
        <time>2021-10-16T16:21:20Z</time>
      </trkpt>
      <trkpt lat="38.693353" lon="-5.182445">
        <ele>401.816</ele>
        <time>2021-10-16T16:21:22Z</time>
      </trkpt>
      <trkpt lat="38.693163" lon="-5.182141">
        <ele>399.908</ele>
        <time>2021-10-16T16:21:23Z</time>
      </trkpt>
      <trkpt lat="38.692970" lon="-5.181839">
        <ele>397.142</ele>
        <time>2021-10-16T16:21:24Z</time>
      </trkpt>
      <trkpt lat="38.692576" lon="-5.181217">
        <ele>392.360</ele>
        <time>2021-10-16T16:21:26Z</time>
      </trkpt>
      <trkpt lat="38.692170" lon="-5.180633">
        <ele>388.219</ele>
        <time>2021-10-16T16:21:28Z</time>
      </trkpt>
      <trkpt lat="38.691954" lon="-5.180349">
        <ele>387.263</ele>
        <time>2021-10-16T16:21:29Z</time>
      </trkpt>
      <trkpt lat="38.691529" lon="-5.179813">
        <ele>382.768</ele>
        <time>2021-10-16T16:21:31Z</time>
      </trkpt>
      <trkpt lat="38.691319" lon="-5.179553">
        <ele>381.537</ele>
        <time>2021-10-16T16:21:32Z</time>
      </trkpt>
      <trkpt lat="38.690924" lon="-5.179093">
        <ele>381.619</ele>
        <time>2021-10-16T16:21:34Z</time>
      </trkpt>
      <trkpt lat="38.690719" lon="-5.178881">
        <ele>381.686</ele>
        <time>2021-10-16T16:21:35Z</time>
      </trkpt>
      <trkpt lat="38.690279" lon="-5.178546">
        <ele>380.859</ele>
        <time>2021-10-16T16:21:37Z</time>
      </trkpt>
      <trkpt lat="38.690031" lon="-5.178413">
        <ele>380.303</ele>
        <time>2021-10-16T16:21:38Z</time>
      </trkpt>
      <trkpt lat="38.689532" lon="-5.178231">
        <ele>379.723</ele>
        <time>2021-10-16T16:21:40Z</time>
      </trkpt>
      <trkpt lat="38.688994" lon="-5.178157">
        <ele>377.808</ele>
        <time>2021-10-16T16:21:42Z</time>
      </trkpt>
      <trkpt lat="38.688428" lon="-5.178170">
        <ele>375.673</ele>
        <time>2021-10-16T16:21:44Z</time>
      </trkpt>
      <trkpt lat="38.687873" lon="-5.178184">
        <ele>372.771</ele>
        <time>2021-10-16T16:21:46Z</time>
      </trkpt>
      <trkpt lat="38.687585" lon="-5.178189">
        <ele>371.360</ele>
        <time>2021-10-16T16:21:47Z</time>
      </trkpt>
      <trkpt lat="38.687298" lon="-5.178193">
        <ele>369.374</ele>
        <time>2021-10-16T16:21:48Z</time>
      </trkpt>
      <trkpt lat="38.686736" lon="-5.178202">
        <ele>366.499</ele>
        <time>2021-10-16T16:21:50Z</time>
      </trkpt>
      <trkpt lat="38.686229" lon="-5.178211">
        <ele>365.178</ele>
        <time>2021-10-16T16:21:52Z</time>
      </trkpt>
      <trkpt lat="38.685738" lon="-5.178172">
        <ele>362.720</ele>
        <time>2021-10-16T16:21:54Z</time>
      </trkpt>
      <trkpt lat="38.685282" lon="-5.178006">
        <ele>361.677</ele>
        <time>2021-10-16T16:21:56Z</time>
      </trkpt>
      <trkpt lat="38.684881" lon="-5.177685">
        <ele>359.943</ele>
        <time>2021-10-16T16:21:58Z</time>
      </trkpt>
      <trkpt lat="38.684546" lon="-5.177253">
        <ele>358.864</ele>
        <time>2021-10-16T16:22:00Z</time>
      </trkpt>
      <trkpt lat="38.684411" lon="-5.176995">
        <ele>357.310</ele>
        <time>2021-10-16T16:22:01Z</time>
      </trkpt>
      <trkpt lat="38.684298" lon="-5.176699">
        <ele>355.808</ele>
        <time>2021-10-16T16:22:02Z</time>
      </trkpt>
      <trkpt lat="38.684163" lon="-5.176038">
        <ele>353.512</ele>
        <time>2021-10-16T16:22:04Z</time>
      </trkpt>
      <trkpt lat="38.684123" lon="-5.175674">
        <ele>352.220</ele>
        <time>2021-10-16T16:22:05Z</time>
      </trkpt>
      <trkpt lat="38.684060" lon="-5.174936">
        <ele>349.759</ele>
        <time>2021-10-16T16:22:07Z</time>
      </trkpt>
      <trkpt lat="38.684030" lon="-5.174560">
        <ele>349.463</ele>
        <time>2021-10-16T16:22:08Z</time>
      </trkpt>
      <trkpt lat="38.683960" lon="-5.173833">
        <ele>347.448</ele>
        <time>2021-10-16T16:22:10Z</time>
      </trkpt>
      <trkpt lat="38.683919" lon="-5.173467">
        <ele>345.877</ele>
        <time>2021-10-16T16:22:11Z</time>
      </trkpt>
      <trkpt lat="38.683878" lon="-5.173103">
        <ele>344.589</ele>
        <time>2021-10-16T16:22:12Z</time>
      </trkpt>
      <trkpt lat="38.683799" lon="-5.172368">
        <ele>342.596</ele>
        <time>2021-10-16T16:22:14Z</time>
      </trkpt>
      <trkpt lat="38.683712" lon="-5.171662">
        <ele>339.691</ele>
        <time>2021-10-16T16:22:16Z</time>
      </trkpt>
      <trkpt lat="38.683560" lon="-5.170951">
        <ele>336.181</ele>
        <time>2021-10-16T16:22:18Z</time>
      </trkpt>
      <trkpt lat="38.683455" lon="-5.170603">
        <ele>334.319</ele>
        <time>2021-10-16T16:22:19Z</time>
      </trkpt>
      <trkpt lat="38.683337" lon="-5.170256">
        <ele>332.408</ele>
        <time>2021-10-16T16:22:20Z</time>
      </trkpt>
      <trkpt lat="38.683094" lon="-5.169591">
        <ele>332.287</ele>
        <time>2021-10-16T16:22:22Z</time>
      </trkpt>
      <trkpt lat="38.682969" lon="-5.169251">
        <ele>332.315</ele>
        <time>2021-10-16T16:22:23Z</time>
      </trkpt>
      <trkpt lat="38.682846" lon="-5.168913">
        <ele>332.194</ele>
        <time>2021-10-16T16:22:24Z</time>
      </trkpt>
      <trkpt lat="38.682593" lon="-5.168269">
        <ele>332.438</ele>
        <time>2021-10-16T16:22:26Z</time>
      </trkpt>
      <trkpt lat="38.682283" lon="-5.167722">
        <ele>329.823</ele>
        <time>2021-10-16T16:22:28Z</time>
      </trkpt>
      <trkpt lat="38.681894" lon="-5.167251">
        <ele>328.142</ele>
        <time>2021-10-16T16:22:30Z</time>
      </trkpt>
      <trkpt lat="38.681668" lon="-5.167061">
        <ele>328.484</ele>
        <time>2021-10-16T16:22:31Z</time>
      </trkpt>
      <trkpt lat="38.681418" lon="-5.166898">
        <ele>329.161</ele>
        <time>2021-10-16T16:22:32Z</time>
      </trkpt>
      <trkpt lat="38.680904" lon="-5.166640">
        <ele>328.436</ele>
        <time>2021-10-16T16:22:34Z</time>
      </trkpt>
      <trkpt lat="38.680378" lon="-5.166317">
        <ele>329.417</ele>
        <time>2021-10-16T16:22:36Z</time>
      </trkpt>
      <trkpt lat="38.679873" lon="-5.165882">
        <ele>327.518</ele>
        <time>2021-10-16T16:22:38Z</time>
      </trkpt>
      <trkpt lat="38.679434" lon="-5.165342">
        <ele>326.908</ele>
        <time>2021-10-16T16:22:40Z</time>
      </trkpt>
      <trkpt lat="38.679045" lon="-5.164722">
        <ele>325.071</ele>
        <time>2021-10-16T16:22:42Z</time>
      </trkpt>
      <trkpt lat="38.678874" lon="-5.164425">
        <ele>324.389</ele>
        <time>2021-10-16T16:22:43Z</time>
      </trkpt>
      <trkpt lat="38.678704" lon="-5.164141">
        <ele>324.048</ele>
        <time>2021-10-16T16:22:44Z</time>
      </trkpt>
      <trkpt lat="38.678389" lon="-5.163671">
        <ele>322.892</ele>
        <time>2021-10-16T16:22:46Z</time>
      </trkpt>
      <trkpt lat="38.678060" lon="-5.163363">
        <ele>322.557</ele>
        <time>2021-10-16T16:22:48Z</time>
      </trkpt>
      <trkpt lat="38.677880" lon="-5.163286">
        <ele>322.196</ele>
        <time>2021-10-16T16:22:49Z</time>
      </trkpt>
      <trkpt lat="38.677681" lon="-5.163246">
        <ele>322.058</ele>
        <time>2021-10-16T16:22:50Z</time>
      </trkpt>
      <trkpt lat="38.677254" lon="-5.163260">
        <ele>321.365</ele>
        <time>2021-10-16T16:22:52Z</time>
      </trkpt>
      <trkpt lat="38.676785" lon="-5.163270">
        <ele>322.129</ele>
        <time>2021-10-16T16:22:54Z</time>
      </trkpt>
      <trkpt lat="38.676540" lon="-5.163271">
        <ele>322.200</ele>
        <time>2021-10-16T16:22:55Z</time>
      </trkpt>
      <trkpt lat="38.676283" lon="-5.163271">
        <ele>321.620</ele>
        <time>2021-10-16T16:22:56Z</time>
      </trkpt>
      <trkpt lat="38.675764" lon="-5.163277">
        <ele>322.308</ele>
        <time>2021-10-16T16:22:58Z</time>
      </trkpt>
      <trkpt lat="38.675493" lon="-5.163280">
        <ele>322.510</ele>
        <time>2021-10-16T16:22:59Z</time>
      </trkpt>
      <trkpt lat="38.674956" lon="-5.163289">
        <ele>323.258</ele>
        <time>2021-10-16T16:23:01Z</time>
      </trkpt>
      <trkpt lat="38.674682" lon="-5.163308">
        <ele>323.937</ele>
        <time>2021-10-16T16:23:02Z</time>
      </trkpt>
      <trkpt lat="38.674147" lon="-5.163396">
        <ele>327.491</ele>
        <time>2021-10-16T16:23:04Z</time>
      </trkpt>
      <trkpt lat="38.673873" lon="-5.163451">
        <ele>328.736</ele>
        <time>2021-10-16T16:23:05Z</time>
      </trkpt>
      <trkpt lat="38.673321" lon="-5.163541">
        <ele>330.535</ele>
        <time>2021-10-16T16:23:07Z</time>
      </trkpt>
      <trkpt lat="38.673037" lon="-5.163616">
        <ele>331.617</ele>
        <time>2021-10-16T16:23:08Z</time>
      </trkpt>
      <trkpt lat="38.672514" lon="-5.163875">
        <ele>333.724</ele>
        <time>2021-10-16T16:23:10Z</time>
      </trkpt>
      <trkpt lat="38.672003" lon="-5.164230">
        <ele>335.481</ele>
        <time>2021-10-16T16:23:12Z</time>
      </trkpt>
      <trkpt lat="38.671473" lon="-5.164593">
        <ele>336.761</ele>
        <time>2021-10-16T16:23:14Z</time>
      </trkpt>
      <trkpt lat="38.670948" lon="-5.164939">
        <ele>337.917</ele>
        <time>2021-10-16T16:23:16Z</time>
      </trkpt>
      <trkpt lat="38.670682" lon="-5.165119">
        <ele>337.908</ele>
        <time>2021-10-16T16:23:17Z</time>
      </trkpt>
      <trkpt lat="38.670155" lon="-5.165474">
        <ele>340.076</ele>
        <time>2021-10-16T16:23:19Z</time>
      </trkpt>
      <trkpt lat="38.669891" lon="-5.165652">
        <ele>341.294</ele>
        <time>2021-10-16T16:23:20Z</time>
      </trkpt>
      <trkpt lat="38.669403" lon="-5.165953">
        <ele>344.223</ele>
        <time>2021-10-16T16:23:22Z</time>
      </trkpt>
      <trkpt lat="38.668881" lon="-5.166148">
        <ele>346.997</ele>
        <time>2021-10-16T16:23:24Z</time>
      </trkpt>
      <trkpt lat="38.668335" lon="-5.166184">
        <ele>349.922</ele>
        <time>2021-10-16T16:23:26Z</time>
      </trkpt>
      <trkpt lat="38.667807" lon="-5.166023">
        <ele>353.571</ele>
        <time>2021-10-16T16:23:28Z</time>
      </trkpt>
      <trkpt lat="38.667550" lon="-5.165878">
        <ele>354.693</ele>
        <time>2021-10-16T16:23:29Z</time>
      </trkpt>
      <trkpt lat="38.667304" lon="-5.165700">
        <ele>356.050</ele>
        <time>2021-10-16T16:23:30Z</time>
      </trkpt>
      <trkpt lat="38.667073" lon="-5.165492">
        <ele>357.671</ele>
        <time>2021-10-16T16:23:31Z</time>
      </trkpt>
      <trkpt lat="38.666858" lon="-5.165238">
        <ele>358.741</ele>
        <time>2021-10-16T16:23:32Z</time>
      </trkpt>
      <trkpt lat="38.666498" lon="-5.164664">
        <ele>361.215</ele>
        <time>2021-10-16T16:23:34Z</time>
      </trkpt>
      <trkpt lat="38.666320" lon="-5.164358">
        <ele>362.908</ele>
        <time>2021-10-16T16:23:35Z</time>
      </trkpt>
      <trkpt lat="38.665950" lon="-5.163765">
        <ele>366.055</ele>
        <time>2021-10-16T16:23:37Z</time>
      </trkpt>
      <trkpt lat="38.665753" lon="-5.163454">
        <ele>367.893</ele>
        <time>2021-10-16T16:23:38Z</time>
      </trkpt>
      <trkpt lat="38.665384" lon="-5.162870">
        <ele>370.722</ele>
        <time>2021-10-16T16:23:40Z</time>
      </trkpt>
      <trkpt lat="38.665009" lon="-5.162282">
        <ele>374.076</ele>
        <time>2021-10-16T16:23:42Z</time>
      </trkpt>
      <trkpt lat="38.664833" lon="-5.162005">
        <ele>375.081</ele>
        <time>2021-10-16T16:23:43Z</time>
      </trkpt>
      <trkpt lat="38.664667" lon="-5.161735">
        <ele>376.020</ele>
        <time>2021-10-16T16:23:44Z</time>
      </trkpt>
      <trkpt lat="38.664383" lon="-5.161205">
        <ele>378.442</ele>
        <time>2021-10-16T16:23:46Z</time>
      </trkpt>
      <trkpt lat="38.664262" lon="-5.160902">
        <ele>379.259</ele>
        <time>2021-10-16T16:23:47Z</time>
      </trkpt>
      <trkpt lat="38.664083" lon="-5.160232">
        <ele>382.663</ele>
        <time>2021-10-16T16:23:49Z</time>
      </trkpt>
      <trkpt lat="38.664012" lon="-5.159869">
        <ele>383.944</ele>
        <time>2021-10-16T16:23:50Z</time>
      </trkpt>
      <trkpt lat="38.663868" lon="-5.159164">
        <ele>387.218</ele>
        <time>2021-10-16T16:23:52Z</time>
      </trkpt>
      <trkpt lat="38.663700" lon="-5.158449">
        <ele>390.208</ele>
        <time>2021-10-16T16:23:54Z</time>
      </trkpt>
      <trkpt lat="38.663517" lon="-5.157760">
        <ele>392.374</ele>
        <time>2021-10-16T16:23:56Z</time>
      </trkpt>
      <trkpt lat="38.663296" lon="-5.157132">
        <ele>395.492</ele>
        <time>2021-10-16T16:23:58Z</time>
      </trkpt>
      <trkpt lat="38.663039" lon="-5.156527">
        <ele>397.751</ele>
        <time>2021-10-16T16:24:00Z</time>
      </trkpt>
      <trkpt lat="38.662729" lon="-5.155972">
        <ele>399.835</ele>
        <time>2021-10-16T16:24:02Z</time>
      </trkpt>
      <trkpt lat="38.662387" lon="-5.155482">
        <ele>401.840</ele>
        <time>2021-10-16T16:24:04Z</time>
      </trkpt>
      <trkpt lat="38.662024" lon="-5.155016">
        <ele>405.429</ele>
        <time>2021-10-16T16:24:06Z</time>
      </trkpt>
      <trkpt lat="38.661844" lon="-5.154775">
        <ele>406.341</ele>
        <time>2021-10-16T16:24:07Z</time>
      </trkpt>
      <trkpt lat="38.661666" lon="-5.154528">
        <ele>407.448</ele>
        <time>2021-10-16T16:24:08Z</time>
      </trkpt>
      <trkpt lat="38.661323" lon="-5.154054">
        <ele>408.853</ele>
        <time>2021-10-16T16:24:10Z</time>
      </trkpt>
      <trkpt lat="38.661143" lon="-5.153814">
        <ele>409.104</ele>
        <time>2021-10-16T16:24:11Z</time>
      </trkpt>
      <trkpt lat="38.660961" lon="-5.153572">
        <ele>408.914</ele>
        <time>2021-10-16T16:24:12Z</time>
      </trkpt>
      <trkpt lat="38.660585" lon="-5.153068">
        <ele>408.608</ele>
        <time>2021-10-16T16:24:14Z</time>
      </trkpt>
      <trkpt lat="38.660212" lon="-5.152571">
        <ele>408.623</ele>
        <time>2021-10-16T16:24:16Z</time>
      </trkpt>
      <trkpt lat="38.659831" lon="-5.152065">
        <ele>407.221</ele>
        <time>2021-10-16T16:24:18Z</time>
      </trkpt>
      <trkpt lat="38.659636" lon="-5.151817">
        <ele>406.390</ele>
        <time>2021-10-16T16:24:19Z</time>
      </trkpt>
      <trkpt lat="38.659446" lon="-5.151572">
        <ele>405.944</ele>
        <time>2021-10-16T16:24:20Z</time>
      </trkpt>
      <trkpt lat="38.659085" lon="-5.151159">
        <ele>405.639</ele>
        <time>2021-10-16T16:24:22Z</time>
      </trkpt>
      <trkpt lat="38.658884" lon="-5.150985">
        <ele>404.898</ele>
        <time>2021-10-16T16:24:23Z</time>
      </trkpt>
      <trkpt lat="38.658662" lon="-5.150835">
        <ele>404.440</ele>
        <time>2021-10-16T16:24:24Z</time>
      </trkpt>
      <trkpt lat="38.658178" lon="-5.150630">
        <ele>404.117</ele>
        <time>2021-10-16T16:24:26Z</time>
      </trkpt>
      <trkpt lat="38.657663" lon="-5.150592">
        <ele>403.574</ele>
        <time>2021-10-16T16:24:28Z</time>
      </trkpt>
      <trkpt lat="38.657137" lon="-5.150717">
        <ele>403.756</ele>
        <time>2021-10-16T16:24:30Z</time>
      </trkpt>
      <trkpt lat="38.656884" lon="-5.150844">
        <ele>403.721</ele>
        <time>2021-10-16T16:24:31Z</time>
      </trkpt>
      <trkpt lat="38.656634" lon="-5.151003">
        <ele>404.108</ele>
        <time>2021-10-16T16:24:32Z</time>
      </trkpt>
      <trkpt lat="38.656195" lon="-5.151397">
        <ele>404.675</ele>
        <time>2021-10-16T16:24:34Z</time>
      </trkpt>
      <trkpt lat="38.655826" lon="-5.151899">
        <ele>405.323</ele>
        <time>2021-10-16T16:24:36Z</time>
      </trkpt>
      <trkpt lat="38.655661" lon="-5.152146">
        <ele>405.612</ele>
        <time>2021-10-16T16:24:37Z</time>
      </trkpt>
      <trkpt lat="38.655485" lon="-5.152381">
        <ele>406.546</ele>
        <time>2021-10-16T16:24:38Z</time>
      </trkpt>
      <trkpt lat="38.655152" lon="-5.152769">
        <ele>407.071</ele>
        <time>2021-10-16T16:24:40Z</time>
      </trkpt>
      <trkpt lat="38.654764" lon="-5.153135">
        <ele>407.290</ele>
        <time>2021-10-16T16:24:42Z</time>
      </trkpt>
      <trkpt lat="38.654542" lon="-5.153308">
        <ele>407.892</ele>
        <time>2021-10-16T16:24:43Z</time>
      </trkpt>
      <trkpt lat="38.654295" lon="-5.153471">
        <ele>408.089</ele>
        <time>2021-10-16T16:24:44Z</time>
      </trkpt>
      <trkpt lat="38.653779" lon="-5.153738">
        <ele>408.444</ele>
        <time>2021-10-16T16:24:46Z</time>
      </trkpt>
      <trkpt lat="38.653497" lon="-5.153846">
        <ele>408.505</ele>
        <time>2021-10-16T16:24:47Z</time>
      </trkpt>
      <trkpt lat="38.652903" lon="-5.153976">
        <ele>409.615</ele>
        <time>2021-10-16T16:24:49Z</time>
      </trkpt>
      <trkpt lat="38.652584" lon="-5.154000">
        <ele>408.908</ele>
        <time>2021-10-16T16:24:50Z</time>
      </trkpt>
      <trkpt lat="38.651978" lon="-5.153965">
        <ele>407.252</ele>
        <time>2021-10-16T16:24:52Z</time>
      </trkpt>
      <trkpt lat="38.651681" lon="-5.153908">
        <ele>406.840</ele>
        <time>2021-10-16T16:24:53Z</time>
      </trkpt>
      <trkpt lat="38.651125" lon="-5.153743">
        <ele>404.229</ele>
        <time>2021-10-16T16:24:55Z</time>
      </trkpt>
      <trkpt lat="38.650850" lon="-5.153644">
        <ele>403.723</ele>
        <time>2021-10-16T16:24:56Z</time>
      </trkpt>
      <trkpt lat="38.650348" lon="-5.153462">
        <ele>401.038</ele>
        <time>2021-10-16T16:24:58Z</time>
      </trkpt>
      <trkpt lat="38.650100" lon="-5.153380">
        <ele>400.037</ele>
        <time>2021-10-16T16:24:59Z</time>
      </trkpt>
      <trkpt lat="38.649628" lon="-5.153210">
        <ele>398.669</ele>
        <time>2021-10-16T16:25:01Z</time>
      </trkpt>
      <trkpt lat="38.649389" lon="-5.153120">
        <ele>397.966</ele>
        <time>2021-10-16T16:25:02Z</time>
      </trkpt>
      <trkpt lat="38.648954" lon="-5.152942">
        <ele>395.516</ele>
        <time>2021-10-16T16:25:04Z</time>
      </trkpt>
      <trkpt lat="38.648748" lon="-5.152818">
        <ele>395.476</ele>
        <time>2021-10-16T16:25:05Z</time>
      </trkpt>
      <trkpt lat="38.648556" lon="-5.152673">
        <ele>394.713</ele>
        <time>2021-10-16T16:25:06Z</time>
      </trkpt>
      <trkpt lat="38.648208" lon="-5.152342">
        <ele>393.808</ele>
        <time>2021-10-16T16:25:08Z</time>
      </trkpt>
      <trkpt lat="38.647836" lon="-5.151948">
        <ele>393.099</ele>
        <time>2021-10-16T16:25:10Z</time>
      </trkpt>
      <trkpt lat="38.647622" lon="-5.151737">
        <ele>392.867</ele>
        <time>2021-10-16T16:25:11Z</time>
      </trkpt>
      <trkpt lat="38.647398" lon="-5.151526">
        <ele>392.946</ele>
        <time>2021-10-16T16:25:12Z</time>
      </trkpt>
      <trkpt lat="38.647180" lon="-5.151331">
        <ele>392.930</ele>
        <time>2021-10-16T16:25:13Z</time>
      </trkpt>
      <trkpt lat="38.646955" lon="-5.151146">
        <ele>393.685</ele>
        <time>2021-10-16T16:25:14Z</time>
      </trkpt>
      <trkpt lat="38.646480" lon="-5.150865">
        <ele>394.984</ele>
        <time>2021-10-16T16:25:16Z</time>
      </trkpt>
      <trkpt lat="38.646200" lon="-5.150769">
        <ele>395.716</ele>
        <time>2021-10-16T16:25:17Z</time>
      </trkpt>
      <trkpt lat="38.645579" lon="-5.150640">
        <ele>396.613</ele>
        <time>2021-10-16T16:25:19Z</time>
      </trkpt>
      <trkpt lat="38.645264" lon="-5.150594">
        <ele>397.387</ele>
        <time>2021-10-16T16:25:20Z</time>
      </trkpt>
      <trkpt lat="38.644663" lon="-5.150606">
        <ele>396.842</ele>
        <time>2021-10-16T16:25:22Z</time>
      </trkpt>
      <trkpt lat="38.644341" lon="-5.150680">
        <ele>397.526</ele>
        <time>2021-10-16T16:25:23Z</time>
      </trkpt>
      <trkpt lat="38.643715" lon="-5.150859">
        <ele>398.508</ele>
        <time>2021-10-16T16:25:25Z</time>
      </trkpt>
      <trkpt lat="38.643420" lon="-5.150938">
        <ele>399.056</ele>
        <time>2021-10-16T16:25:26Z</time>
      </trkpt>
      <trkpt lat="38.642865" lon="-5.151180">
        <ele>398.544</ele>
        <time>2021-10-16T16:25:28Z</time>
      </trkpt>
      <trkpt lat="38.642571" lon="-5.151373">
        <ele>398.993</ele>
        <time>2021-10-16T16:25:29Z</time>
      </trkpt>
      <trkpt lat="38.641991" lon="-5.151807">
        <ele>400.287</ele>
        <time>2021-10-16T16:25:31Z</time>
      </trkpt>
      <trkpt lat="38.641690" lon="-5.152030">
        <ele>401.222</ele>
        <time>2021-10-16T16:25:32Z</time>
      </trkpt>
      <trkpt lat="38.641125" lon="-5.152444">
        <ele>403.061</ele>
        <time>2021-10-16T16:25:34Z</time>
      </trkpt>
      <trkpt lat="38.640545" lon="-5.152864">
        <ele>404.723</ele>
        <time>2021-10-16T16:25:36Z</time>
      </trkpt>
      <trkpt lat="38.639954" lon="-5.153291">
        <ele>406.230</ele>
        <time>2021-10-16T16:25:38Z</time>
      </trkpt>
      <trkpt lat="38.639378" lon="-5.153705">
        <ele>407.429</ele>
        <time>2021-10-16T16:25:40Z</time>
      </trkpt>
      <trkpt lat="38.639080" lon="-5.153918">
        <ele>407.700</ele>
        <time>2021-10-16T16:25:41Z</time>
      </trkpt>
      <trkpt lat="38.638783" lon="-5.154132">
        <ele>408.720</ele>
        <time>2021-10-16T16:25:42Z</time>
      </trkpt>
      <trkpt lat="38.638489" lon="-5.154346">
        <ele>409.608</ele>
        <time>2021-10-16T16:25:43Z</time>
      </trkpt>
      <trkpt lat="38.638192" lon="-5.154568">
        <ele>410.310</ele>
        <time>2021-10-16T16:25:44Z</time>
      </trkpt>
      <trkpt lat="38.637626" lon="-5.154977">
        <ele>410.928</ele>
        <time>2021-10-16T16:25:46Z</time>
      </trkpt>
      <trkpt lat="38.637048" lon="-5.155303">
        <ele>411.967</ele>
        <time>2021-10-16T16:25:48Z</time>
      </trkpt>
      <trkpt lat="38.636409" lon="-5.155474">
        <ele>414.241</ele>
        <time>2021-10-16T16:25:50Z</time>
      </trkpt>
      <trkpt lat="38.635743" lon="-5.155492">
        <ele>415.346</ele>
        <time>2021-10-16T16:25:52Z</time>
      </trkpt>
      <trkpt lat="38.635397" lon="-5.155466">
        <ele>417.285</ele>
        <time>2021-10-16T16:25:53Z</time>
      </trkpt>
      <trkpt lat="38.635050" lon="-5.155428">
        <ele>419.097</ele>
        <time>2021-10-16T16:25:54Z</time>
      </trkpt>
      <trkpt lat="38.633648" lon="-5.155175">
        <ele>425.084</ele>
        <time>2021-10-16T16:25:58Z</time>
      </trkpt>
      <trkpt lat="38.632944" lon="-5.155029">
        <ele>430.529</ele>
        <time>2021-10-16T16:26:00Z</time>
      </trkpt>
      <trkpt lat="38.632291" lon="-5.154892">
        <ele>434.200</ele>
        <time>2021-10-16T16:26:02Z</time>
      </trkpt>
      <trkpt lat="38.631726" lon="-5.154769">
        <ele>436.620</ele>
        <time>2021-10-16T16:26:04Z</time>
      </trkpt>
      <trkpt lat="38.631442" lon="-5.154708">
        <ele>438.008</ele>
        <time>2021-10-16T16:26:05Z</time>
      </trkpt>
      <trkpt lat="38.630885" lon="-5.154590">
        <ele>440.170</ele>
        <time>2021-10-16T16:26:07Z</time>
      </trkpt>
      <trkpt lat="38.630596" lon="-5.154525">
        <ele>440.878</ele>
        <time>2021-10-16T16:26:08Z</time>
      </trkpt>
      <trkpt lat="38.630036" lon="-5.154402">
        <ele>443.117</ele>
        <time>2021-10-16T16:26:10Z</time>
      </trkpt>
      <trkpt lat="38.629461" lon="-5.154279">
        <ele>444.191</ele>
        <time>2021-10-16T16:26:12Z</time>
      </trkpt>
      <trkpt lat="38.628899" lon="-5.154158">
        <ele>445.116</ele>
        <time>2021-10-16T16:26:14Z</time>
      </trkpt>
      <trkpt lat="38.628378" lon="-5.154045">
        <ele>445.995</ele>
        <time>2021-10-16T16:26:16Z</time>
      </trkpt>
      <trkpt lat="38.628117" lon="-5.153989">
        <ele>446.867</ele>
        <time>2021-10-16T16:26:17Z</time>
      </trkpt>
      <trkpt lat="38.627599" lon="-5.153880">
        <ele>447.094</ele>
        <time>2021-10-16T16:26:19Z</time>
      </trkpt>
      <trkpt lat="38.627334" lon="-5.153824">
        <ele>447.959</ele>
        <time>2021-10-16T16:26:20Z</time>
      </trkpt>
      <trkpt lat="38.626824" lon="-5.153717">
        <ele>449.103</ele>
        <time>2021-10-16T16:26:22Z</time>
      </trkpt>
      <trkpt lat="38.626306" lon="-5.153575">
        <ele>450.623</ele>
        <time>2021-10-16T16:26:24Z</time>
      </trkpt>
      <trkpt lat="38.625781" lon="-5.153365">
        <ele>451.208</ele>
        <time>2021-10-16T16:26:26Z</time>
      </trkpt>
      <trkpt lat="38.625271" lon="-5.153118">
        <ele>451.433</ele>
        <time>2021-10-16T16:26:28Z</time>
      </trkpt>
      <trkpt lat="38.625010" lon="-5.152991">
        <ele>451.881</ele>
        <time>2021-10-16T16:26:29Z</time>
      </trkpt>
      <trkpt lat="38.624484" lon="-5.152728">
        <ele>452.080</ele>
        <time>2021-10-16T16:26:31Z</time>
      </trkpt>
      <trkpt lat="38.624210" lon="-5.152581">
        <ele>452.274</ele>
        <time>2021-10-16T16:26:32Z</time>
      </trkpt>
      <trkpt lat="38.623677" lon="-5.152271">
        <ele>453.399</ele>
        <time>2021-10-16T16:26:34Z</time>
      </trkpt>
      <trkpt lat="38.623141" lon="-5.151931">
        <ele>454.068</ele>
        <time>2021-10-16T16:26:36Z</time>
      </trkpt>
      <trkpt lat="38.622875" lon="-5.151754">
        <ele>454.550</ele>
        <time>2021-10-16T16:26:37Z</time>
      </trkpt>
      <trkpt lat="38.622603" lon="-5.151572">
        <ele>454.887</ele>
        <time>2021-10-16T16:26:38Z</time>
      </trkpt>
      <trkpt lat="38.622093" lon="-5.151230">
        <ele>455.369</ele>
        <time>2021-10-16T16:26:40Z</time>
      </trkpt>
      <trkpt lat="38.621585" lon="-5.150890">
        <ele>456.304</ele>
        <time>2021-10-16T16:26:42Z</time>
      </trkpt>
      <trkpt lat="38.621076" lon="-5.150548">
        <ele>457.424</ele>
        <time>2021-10-16T16:26:44Z</time>
      </trkpt>
      <trkpt lat="38.620586" lon="-5.150221">
        <ele>458.608</ele>
        <time>2021-10-16T16:26:46Z</time>
      </trkpt>
      <trkpt lat="38.620335" lon="-5.150053">
        <ele>459.084</ele>
        <time>2021-10-16T16:26:47Z</time>
      </trkpt>
      <trkpt lat="38.620084" lon="-5.149885">
        <ele>458.752</ele>
        <time>2021-10-16T16:26:48Z</time>
      </trkpt>
      <trkpt lat="38.619835" lon="-5.149719">
        <ele>459.111</ele>
        <time>2021-10-16T16:26:49Z</time>
      </trkpt>
      <trkpt lat="38.619583" lon="-5.149553">
        <ele>460.115</ele>
        <time>2021-10-16T16:26:50Z</time>
      </trkpt>
      <trkpt lat="38.619095" lon="-5.149279">
        <ele>460.580</ele>
        <time>2021-10-16T16:26:52Z</time>
      </trkpt>
      <trkpt lat="38.618836" lon="-5.149184">
        <ele>461.319</ele>
        <time>2021-10-16T16:26:53Z</time>
      </trkpt>
      <trkpt lat="38.618303" lon="-5.149137">
        <ele>462.111</ele>
        <time>2021-10-16T16:26:55Z</time>
      </trkpt>
      <trkpt lat="38.618025" lon="-5.149175">
        <ele>462.898</ele>
        <time>2021-10-16T16:26:56Z</time>
      </trkpt>
      <trkpt lat="38.617491" lon="-5.149272">
        <ele>464.619</ele>
        <time>2021-10-16T16:26:58Z</time>
      </trkpt>
      <trkpt lat="38.617211" lon="-5.149313">
        <ele>466.209</ele>
        <time>2021-10-16T16:26:59Z</time>
      </trkpt>
      <trkpt lat="38.616647" lon="-5.149392">
        <ele>467.519</ele>
        <time>2021-10-16T16:27:01Z</time>
      </trkpt>
      <trkpt lat="38.616352" lon="-5.149438">
        <ele>468.308</ele>
        <time>2021-10-16T16:27:02Z</time>
      </trkpt>
      <trkpt lat="38.615784" lon="-5.149527">
        <ele>469.669</ele>
        <time>2021-10-16T16:27:04Z</time>
      </trkpt>
      <trkpt lat="38.615220" lon="-5.149612">
        <ele>470.827</ele>
        <time>2021-10-16T16:27:06Z</time>
      </trkpt>
      <trkpt lat="38.614678" lon="-5.149702">
        <ele>471.916</ele>
        <time>2021-10-16T16:27:08Z</time>
      </trkpt>
      <trkpt lat="38.614140" lon="-5.149779">
        <ele>469.980</ele>
        <time>2021-10-16T16:27:10Z</time>
      </trkpt>
      <trkpt lat="38.613861" lon="-5.149819">
        <ele>469.555</ele>
        <time>2021-10-16T16:27:11Z</time>
      </trkpt>
      <trkpt lat="38.613581" lon="-5.149858">
        <ele>468.814</ele>
        <time>2021-10-16T16:27:12Z</time>
      </trkpt>
      <trkpt lat="38.613033" lon="-5.149935">
        <ele>467.366</ele>
        <time>2021-10-16T16:27:14Z</time>
      </trkpt>
      <trkpt lat="38.612537" lon="-5.150010">
        <ele>464.183</ele>
        <time>2021-10-16T16:27:16Z</time>
      </trkpt>
      <trkpt lat="38.612293" lon="-5.150052">
        <ele>462.415</ele>
        <time>2021-10-16T16:27:17Z</time>
      </trkpt>
      <trkpt lat="38.611840" lon="-5.150142">
        <ele>460.765</ele>
        <time>2021-10-16T16:27:19Z</time>
      </trkpt>
      <trkpt lat="38.611627" lon="-5.150199">
        <ele>459.811</ele>
        <time>2021-10-16T16:27:20Z</time>
      </trkpt>
      <trkpt lat="38.611238" lon="-5.150345">
        <ele>457.208</ele>
        <time>2021-10-16T16:27:22Z</time>
      </trkpt>
      <trkpt lat="38.610868" lon="-5.150559">
        <ele>455.329</ele>
        <time>2021-10-16T16:27:24Z</time>
      </trkpt>
      <trkpt lat="38.610689" lon="-5.150700">
        <ele>454.477</ele>
        <time>2021-10-16T16:27:25Z</time>
      </trkpt>
      <trkpt lat="38.610509" lon="-5.150866">
        <ele>453.736</ele>
        <time>2021-10-16T16:27:26Z</time>
      </trkpt>
      <trkpt lat="38.610164" lon="-5.151229">
        <ele>451.440</ele>
        <time>2021-10-16T16:27:28Z</time>
      </trkpt>
      <trkpt lat="38.609979" lon="-5.151439">
        <ele>450.365</ele>
        <time>2021-10-16T16:27:29Z</time>
      </trkpt>
      <trkpt lat="38.609606" lon="-5.151869">
        <ele>447.034</ele>
        <time>2021-10-16T16:27:31Z</time>
      </trkpt>
      <trkpt lat="38.609411" lon="-5.152091">
        <ele>445.926</ele>
        <time>2021-10-16T16:27:32Z</time>
      </trkpt>
      <trkpt lat="38.609032" lon="-5.152530">
        <ele>443.663</ele>
        <time>2021-10-16T16:27:34Z</time>
      </trkpt>
      <trkpt lat="38.608848" lon="-5.152756">
        <ele>441.597</ele>
        <time>2021-10-16T16:27:35Z</time>
      </trkpt>
      <trkpt lat="38.608528" lon="-5.153239">
        <ele>439.123</ele>
        <time>2021-10-16T16:27:37Z</time>
      </trkpt>
      <trkpt lat="38.608402" lon="-5.153510">
        <ele>438.225</ele>
        <time>2021-10-16T16:27:38Z</time>
      </trkpt>
      <trkpt lat="38.608234" lon="-5.154081">
        <ele>437.308</ele>
        <time>2021-10-16T16:27:40Z</time>
      </trkpt>
      <trkpt lat="38.608177" lon="-5.154391">
        <ele>436.787</ele>
        <time>2021-10-16T16:27:41Z</time>
      </trkpt>
      <trkpt lat="38.608067" lon="-5.155020">
        <ele>434.725</ele>
        <time>2021-10-16T16:27:43Z</time>
      </trkpt>
      <trkpt lat="38.608006" lon="-5.155346">
        <ele>434.014</ele>
        <time>2021-10-16T16:27:44Z</time>
      </trkpt>
      <trkpt lat="38.607859" lon="-5.155975">
        <ele>432.838</ele>
        <time>2021-10-16T16:27:46Z</time>
      </trkpt>
      <trkpt lat="38.607626" lon="-5.156586">
        <ele>430.313</ele>
        <time>2021-10-16T16:27:48Z</time>
      </trkpt>
      <trkpt lat="38.607471" lon="-5.156858">
        <ele>428.922</ele>
        <time>2021-10-16T16:27:49Z</time>
      </trkpt>
      <trkpt lat="38.607284" lon="-5.157099">
        <ele>427.684</ele>
        <time>2021-10-16T16:27:50Z</time>
      </trkpt>
      <trkpt lat="38.606868" lon="-5.157474">
        <ele>425.671</ele>
        <time>2021-10-16T16:27:52Z</time>
      </trkpt>
      <trkpt lat="38.606630" lon="-5.157618">
        <ele>424.641</ele>
        <time>2021-10-16T16:27:53Z</time>
      </trkpt>
      <trkpt lat="38.606120" lon="-5.157793">
        <ele>422.881</ele>
        <time>2021-10-16T16:27:55Z</time>
      </trkpt>
      <trkpt lat="38.605846" lon="-5.157828">
        <ele>422.409</ele>
        <time>2021-10-16T16:27:56Z</time>
      </trkpt>
      <trkpt lat="38.605320" lon="-5.157805">
        <ele>420.708</ele>
        <time>2021-10-16T16:27:58Z</time>
      </trkpt>
      <trkpt lat="38.604781" lon="-5.157717">
        <ele>419.132</ele>
        <time>2021-10-16T16:28:00Z</time>
      </trkpt>
      <trkpt lat="38.604233" lon="-5.157643">
        <ele>418.210</ele>
        <time>2021-10-16T16:28:02Z</time>
      </trkpt>
      <trkpt lat="38.603690" lon="-5.157566">
        <ele>416.099</ele>
        <time>2021-10-16T16:28:04Z</time>
      </trkpt>
      <trkpt lat="38.603407" lon="-5.157524">
        <ele>415.013</ele>
        <time>2021-10-16T16:28:05Z</time>
      </trkpt>
      <trkpt lat="38.603124" lon="-5.157484">
        <ele>414.678</ele>
        <time>2021-10-16T16:28:06Z</time>
      </trkpt>
      <trkpt lat="38.602550" lon="-5.157413">
        <ele>413.427</ele>
        <time>2021-10-16T16:28:08Z</time>
      </trkpt>
      <trkpt lat="38.601990" lon="-5.157342">
        <ele>413.379</ele>
        <time>2021-10-16T16:28:10Z</time>
      </trkpt>
      <trkpt lat="38.601425" lon="-5.157267">
        <ele>413.566</ele>
        <time>2021-10-16T16:28:12Z</time>
      </trkpt>
      <trkpt lat="38.601143" lon="-5.157225">
        <ele>413.172</ele>
        <time>2021-10-16T16:28:13Z</time>
      </trkpt>
      <trkpt lat="38.600854" lon="-5.157184">
        <ele>412.613</ele>
        <time>2021-10-16T16:28:14Z</time>
      </trkpt>
      <trkpt lat="38.600299" lon="-5.157115">
        <ele>413.114</ele>
        <time>2021-10-16T16:28:16Z</time>
      </trkpt>
      <trkpt lat="38.600016" lon="-5.157079">
        <ele>412.708</ele>
        <time>2021-10-16T16:28:17Z</time>
      </trkpt>
      <trkpt lat="38.599462" lon="-5.157014">
        <ele>412.625</ele>
        <time>2021-10-16T16:28:19Z</time>
      </trkpt>
      <trkpt lat="38.599174" lon="-5.156997">
        <ele>412.343</ele>
        <time>2021-10-16T16:28:20Z</time>
      </trkpt>
      <trkpt lat="38.598622" lon="-5.157015">
        <ele>411.642</ele>
        <time>2021-10-16T16:28:22Z</time>
      </trkpt>
      <trkpt lat="38.598061" lon="-5.157118">
        <ele>411.146</ele>
        <time>2021-10-16T16:28:24Z</time>
      </trkpt>
      <trkpt lat="38.597782" lon="-5.157201">
        <ele>411.581</ele>
        <time>2021-10-16T16:28:25Z</time>
      </trkpt>
      <trkpt lat="38.597502" lon="-5.157295">
        <ele>411.730</ele>
        <time>2021-10-16T16:28:26Z</time>
      </trkpt>
      <trkpt lat="38.596949" lon="-5.157494">
        <ele>411.212</ele>
        <time>2021-10-16T16:28:28Z</time>
      </trkpt>
      <trkpt lat="38.596384" lon="-5.157689">
        <ele>410.249</ele>
        <time>2021-10-16T16:28:30Z</time>
      </trkpt>
      <trkpt lat="38.596103" lon="-5.157788">
        <ele>409.888</ele>
        <time>2021-10-16T16:28:31Z</time>
      </trkpt>
      <trkpt lat="38.595824" lon="-5.157887">
        <ele>410.524</ele>
        <time>2021-10-16T16:28:32Z</time>
      </trkpt>
      <trkpt lat="38.595328" lon="-5.158061">
        <ele>411.126</ele>
        <time>2021-10-16T16:28:34Z</time>
      </trkpt>
      <trkpt lat="38.595080" lon="-5.158148">
        <ele>410.808</ele>
        <time>2021-10-16T16:28:35Z</time>
      </trkpt>
      <trkpt lat="38.594580" lon="-5.158315">
        <ele>409.876</ele>
        <time>2021-10-16T16:28:37Z</time>
      </trkpt>
      <trkpt lat="38.594323" lon="-5.158406">
        <ele>409.634</ele>
        <time>2021-10-16T16:28:38Z</time>
      </trkpt>
      <trkpt lat="38.593830" lon="-5.158569">
        <ele>409.313</ele>
        <time>2021-10-16T16:28:40Z</time>
      </trkpt>
      <trkpt lat="38.593577" lon="-5.158646">
        <ele>408.837</ele>
        <time>2021-10-16T16:28:41Z</time>
      </trkpt>
      <trkpt lat="38.593320" lon="-5.158722">
        <ele>408.732</ele>
        <time>2021-10-16T16:28:42Z</time>
      </trkpt>
      <trkpt lat="38.592789" lon="-5.158849">
        <ele>408.791</ele>
        <time>2021-10-16T16:28:44Z</time>
      </trkpt>
      <trkpt lat="38.592266" lon="-5.158960">
        <ele>408.283</ele>
        <time>2021-10-16T16:28:46Z</time>
      </trkpt>
      <trkpt lat="38.591996" lon="-5.159008">
        <ele>407.670</ele>
        <time>2021-10-16T16:28:47Z</time>
      </trkpt>
      <trkpt lat="38.591450" lon="-5.159090">
        <ele>409.226</ele>
        <time>2021-10-16T16:28:49Z</time>
      </trkpt>
      <trkpt lat="38.591163" lon="-5.159131">
        <ele>410.247</ele>
        <time>2021-10-16T16:28:50Z</time>
      </trkpt>
      <trkpt lat="38.590626" lon="-5.159212">
        <ele>413.511</ele>
        <time>2021-10-16T16:28:52Z</time>
      </trkpt>
      <trkpt lat="38.590101" lon="-5.159292">
        <ele>416.408</ele>
        <time>2021-10-16T16:28:54Z</time>
      </trkpt>
      <trkpt lat="38.589852" lon="-5.159329">
        <ele>417.860</ele>
        <time>2021-10-16T16:28:55Z</time>
      </trkpt>
      <trkpt lat="38.589603" lon="-5.159367">
        <ele>418.768</ele>
        <time>2021-10-16T16:28:56Z</time>
      </trkpt>
      <trkpt lat="38.589148" lon="-5.159436">
        <ele>421.387</ele>
        <time>2021-10-16T16:28:58Z</time>
      </trkpt>
      <trkpt lat="38.588695" lon="-5.159504">
        <ele>422.911</ele>
        <time>2021-10-16T16:29:00Z</time>
      </trkpt>
      <trkpt lat="38.588471" lon="-5.159536">
        <ele>424.456</ele>
        <time>2021-10-16T16:29:01Z</time>
      </trkpt>
      <trkpt lat="38.588242" lon="-5.159564">
        <ele>425.525</ele>
        <time>2021-10-16T16:29:02Z</time>
      </trkpt>
      <trkpt lat="38.587809" lon="-5.159628">
        <ele>427.827</ele>
        <time>2021-10-16T16:29:04Z</time>
      </trkpt>
      <trkpt lat="38.587583" lon="-5.159668">
        <ele>428.884</ele>
        <time>2021-10-16T16:29:05Z</time>
      </trkpt>
      <trkpt lat="38.587126" lon="-5.159747">
        <ele>431.127</ele>
        <time>2021-10-16T16:29:07Z</time>
      </trkpt>
      <trkpt lat="38.586887" lon="-5.159782">
        <ele>432.268</ele>
        <time>2021-10-16T16:29:08Z</time>
      </trkpt>
      <trkpt lat="38.586422" lon="-5.159850">
        <ele>434.514</ele>
        <time>2021-10-16T16:29:10Z</time>
      </trkpt>
      <trkpt lat="38.585935" lon="-5.159919">
        <ele>436.208</ele>
        <time>2021-10-16T16:29:12Z</time>
      </trkpt>
      <trkpt lat="38.585690" lon="-5.159955">
        <ele>437.020</ele>
        <time>2021-10-16T16:29:13Z</time>
      </trkpt>
      <trkpt lat="38.585437" lon="-5.159993">
        <ele>438.868</ele>
        <time>2021-10-16T16:29:14Z</time>
      </trkpt>
      <trkpt lat="38.584952" lon="-5.160071">
        <ele>440.977</ele>
        <time>2021-10-16T16:29:16Z</time>
      </trkpt>
      <trkpt lat="38.584468" lon="-5.160145">
        <ele>441.851</ele>
        <time>2021-10-16T16:29:18Z</time>
      </trkpt>
      <trkpt lat="38.583996" lon="-5.160226">
        <ele>443.756</ele>
        <time>2021-10-16T16:29:20Z</time>
      </trkpt>
      <trkpt lat="38.583546" lon="-5.160332">
        <ele>442.895</ele>
        <time>2021-10-16T16:29:22Z</time>
      </trkpt>
      <trkpt lat="38.583076" lon="-5.160487">
        <ele>442.397</ele>
        <time>2021-10-16T16:29:24Z</time>
      </trkpt>
      <trkpt lat="38.582840" lon="-5.160574">
        <ele>441.434</ele>
        <time>2021-10-16T16:29:25Z</time>
      </trkpt>
      <trkpt lat="38.582607" lon="-5.160658">
        <ele>440.246</ele>
        <time>2021-10-16T16:29:26Z</time>
      </trkpt>
      <trkpt lat="38.582167" lon="-5.160818">
        <ele>438.788</ele>
        <time>2021-10-16T16:29:28Z</time>
      </trkpt>
      <trkpt lat="38.581729" lon="-5.160984">
        <ele>436.816</ele>
        <time>2021-10-16T16:29:30Z</time>
      </trkpt>
      <trkpt lat="38.581522" lon="-5.161064">
        <ele>436.308</ele>
        <time>2021-10-16T16:29:31Z</time>
      </trkpt>
      <trkpt lat="38.581319" lon="-5.161150">
        <ele>435.732</ele>
        <time>2021-10-16T16:29:32Z</time>
      </trkpt>
      <trkpt lat="38.580953" lon="-5.161351">
        <ele>435.420</ele>
        <time>2021-10-16T16:29:34Z</time>
      </trkpt>
      <trkpt lat="38.580773" lon="-5.161484">
        <ele>435.149</ele>
        <time>2021-10-16T16:29:35Z</time>
      </trkpt>
      <trkpt lat="38.580431" lon="-5.161774">
        <ele>435.243</ele>
        <time>2021-10-16T16:29:37Z</time>
      </trkpt>
      <trkpt lat="38.580257" lon="-5.161921">
        <ele>434.888</ele>
        <time>2021-10-16T16:29:38Z</time>
      </trkpt>
      <trkpt lat="38.579928" lon="-5.162173">
        <ele>435.067</ele>
        <time>2021-10-16T16:29:40Z</time>
      </trkpt>
      <trkpt lat="38.579610" lon="-5.162380">
        <ele>434.659</ele>
        <time>2021-10-16T16:29:42Z</time>
      </trkpt>
      <trkpt lat="38.579456" lon="-5.162468">
        <ele>434.476</ele>
        <time>2021-10-16T16:29:43Z</time>
      </trkpt>
      <trkpt lat="38.579305" lon="-5.162549">
        <ele>434.562</ele>
        <time>2021-10-16T16:29:44Z</time>
      </trkpt>
      <trkpt lat="38.579036" lon="-5.162668">
        <ele>433.783</ele>
        <time>2021-10-16T16:29:46Z</time>
      </trkpt>
      <trkpt lat="38.578907" lon="-5.162717">
        <ele>434.311</ele>
        <time>2021-10-16T16:29:47Z</time>
      </trkpt>
      <trkpt lat="38.578669" lon="-5.162804">
        <ele>434.908</ele>
        <time>2021-10-16T16:29:49Z</time>
      </trkpt>
      <trkpt lat="38.578547" lon="-5.162842">
        <ele>433.734</ele>
        <time>2021-10-16T16:29:50Z</time>
      </trkpt>
      <trkpt lat="38.578300" lon="-5.162908">
        <ele>433.862</ele>
        <time>2021-10-16T16:29:52Z</time>
      </trkpt>
      <trkpt lat="38.578047" lon="-5.162973">
        <ele>434.041</ele>
        <time>2021-10-16T16:29:54Z</time>
      </trkpt>
      <trkpt lat="38.577812" lon="-5.163034">
        <ele>434.085</ele>
        <time>2021-10-16T16:29:56Z</time>
      </trkpt>
      <trkpt lat="38.577602" lon="-5.163088">
        <ele>433.990</ele>
        <time>2021-10-16T16:29:58Z</time>
      </trkpt>
      <trkpt lat="38.577497" lon="-5.163114">
        <ele>433.739</ele>
        <time>2021-10-16T16:29:59Z</time>
      </trkpt>
      <trkpt lat="38.577394" lon="-5.163140">
        <ele>433.821</ele>
        <time>2021-10-16T16:30:00Z</time>
      </trkpt>
      <trkpt lat="38.577201" lon="-5.163181">
        <ele>433.868</ele>
        <time>2021-10-16T16:30:02Z</time>
      </trkpt>
      <trkpt lat="38.577013" lon="-5.163221">
        <ele>433.974</ele>
        <time>2021-10-16T16:30:04Z</time>
      </trkpt>
      <trkpt lat="38.576910" lon="-5.163246">
        <ele>434.056</ele>
        <time>2021-10-16T16:30:05Z</time>
      </trkpt>
      <trkpt lat="38.576814" lon="-5.163275">
        <ele>434.921</ele>
        <time>2021-10-16T16:30:06Z</time>
      </trkpt>
      <trkpt lat="38.576722" lon="-5.163302">
        <ele>434.908</ele>
        <time>2021-10-16T16:30:07Z</time>
      </trkpt>
      <trkpt lat="38.576634" lon="-5.163323">
        <ele>435.195</ele>
        <time>2021-10-16T16:30:08Z</time>
      </trkpt>
      <trkpt lat="38.576476" lon="-5.163359">
        <ele>434.653</ele>
        <time>2021-10-16T16:30:10Z</time>
      </trkpt>
      <trkpt lat="38.576391" lon="-5.163379">
        <ele>435.162</ele>
        <time>2021-10-16T16:30:11Z</time>
      </trkpt>
      <trkpt lat="38.576203" lon="-5.163428">
        <ele>435.376</ele>
        <time>2021-10-16T16:30:13Z</time>
      </trkpt>
      <trkpt lat="38.576097" lon="-5.163455">
        <ele>435.441</ele>
        <time>2021-10-16T16:30:14Z</time>
      </trkpt>
      <trkpt lat="38.575899" lon="-5.163507">
        <ele>435.070</ele>
        <time>2021-10-16T16:30:16Z</time>
      </trkpt>
      <trkpt lat="38.575810" lon="-5.163532">
        <ele>435.012</ele>
        <time>2021-10-16T16:30:17Z</time>
      </trkpt>
      <trkpt lat="38.575725" lon="-5.163552">
        <ele>436.179</ele>
        <time>2021-10-16T16:30:18Z</time>
      </trkpt>
      <trkpt lat="38.575547" lon="-5.163600">
        <ele>436.991</ele>
        <time>2021-10-16T16:30:20Z</time>
      </trkpt>
      <trkpt lat="38.575354" lon="-5.163649">
        <ele>436.981</ele>
        <time>2021-10-16T16:30:22Z</time>
      </trkpt>
      <trkpt lat="38.575179" lon="-5.163694">
        <ele>437.019</ele>
        <time>2021-10-16T16:30:24Z</time>
      </trkpt>
      <trkpt lat="38.575104" lon="-5.163711">
        <ele>437.108</ele>
        <time>2021-10-16T16:30:25Z</time>
      </trkpt>
      <trkpt lat="38.575034" lon="-5.163731">
        <ele>437.257</ele>
        <time>2021-10-16T16:30:26Z</time>
      </trkpt>
      <trkpt lat="38.574926" lon="-5.163761">
        <ele>437.055</ele>
        <time>2021-10-16T16:30:28Z</time>
      </trkpt>
      <trkpt lat="38.574876" lon="-5.163775">
        <ele>436.954</ele>
        <time>2021-10-16T16:30:30Z</time>
      </trkpt>
      <trkpt lat="38.574825" lon="-5.163792">
        <ele>436.168</ele>
        <time>2021-10-16T16:30:32Z</time>
      </trkpt>
      <trkpt lat="38.574770" lon="-5.163810">
        <ele>435.783</ele>
        <time>2021-10-16T16:30:35Z</time>
      </trkpt>
      <trkpt lat="38.574725" lon="-5.163838">
        <ele>452.412</ele>
        <time>2021-10-16T16:30:44Z</time>
      </trkpt>
      <trkpt lat="38.574664" lon="-5.163855">
        <ele>473.344</ele>
        <time>2021-10-16T16:30:46Z</time>
      </trkpt>
      <trkpt lat="38.574544" lon="-5.163869">
        <ele>490.881</ele>
        <time>2021-10-16T16:30:47Z</time>
      </trkpt>
      <trkpt lat="38.574382" lon="-5.163877">
        <ele>490.993</ele>
        <time>2021-10-16T16:30:49Z</time>
      </trkpt>
      <trkpt lat="38.574280" lon="-5.163865">
        <ele>490.965</ele>
        <time>2021-10-16T16:30:50Z</time>
      </trkpt>
      <trkpt lat="38.574071" lon="-5.163818">
        <ele>490.921</ele>
        <time>2021-10-16T16:30:52Z</time>
      </trkpt>
      <trkpt lat="38.573822" lon="-5.163759">
        <ele>490.908</ele>
        <time>2021-10-16T16:30:54Z</time>
      </trkpt>
      <trkpt lat="38.573572" lon="-5.163698">
        <ele>490.947</ele>
        <time>2021-10-16T16:30:56Z</time>
      </trkpt>
      <trkpt lat="38.573344" lon="-5.163641">
        <ele>491.015</ele>
        <time>2021-10-16T16:30:58Z</time>
      </trkpt>
      <trkpt lat="38.573221" lon="-5.163610">
        <ele>491.034</ele>
        <time>2021-10-16T16:30:59Z</time>
      </trkpt>
      <trkpt lat="38.572971" lon="-5.163551">
        <ele>491.098</ele>
        <time>2021-10-16T16:31:01Z</time>
      </trkpt>
      <trkpt lat="38.572841" lon="-5.163523">
        <ele>491.093</ele>
        <time>2021-10-16T16:31:02Z</time>
      </trkpt>
      <trkpt lat="38.572598" lon="-5.163473">
        <ele>491.032</ele>
        <time>2021-10-16T16:31:04Z</time>
      </trkpt>
      <trkpt lat="38.572485" lon="-5.163448">
        <ele>491.034</ele>
        <time>2021-10-16T16:31:05Z</time>
      </trkpt>
      <trkpt lat="38.572379" lon="-5.163422">
        <ele>491.051</ele>
        <time>2021-10-16T16:31:06Z</time>
      </trkpt>
      <trkpt lat="38.572279" lon="-5.163398">
        <ele>491.058</ele>
        <time>2021-10-16T16:31:07Z</time>
      </trkpt>
      <trkpt lat="38.572175" lon="-5.163374">
        <ele>491.052</ele>
        <time>2021-10-16T16:31:08Z</time>
      </trkpt>
      <trkpt lat="38.571967" lon="-5.163323">
        <ele>491.017</ele>
        <time>2021-10-16T16:31:10Z</time>
      </trkpt>
      <trkpt lat="38.571855" lon="-5.163295">
        <ele>491.008</ele>
        <time>2021-10-16T16:31:11Z</time>
      </trkpt>
      <trkpt lat="38.571734" lon="-5.163266">
        <ele>491.083</ele>
        <time>2021-10-16T16:31:12Z</time>
      </trkpt>
      <trkpt lat="38.571471" lon="-5.163203">
        <ele>491.051</ele>
        <time>2021-10-16T16:31:14Z</time>
      </trkpt>
      <trkpt lat="38.571179" lon="-5.163134">
        <ele>490.930</ele>
        <time>2021-10-16T16:31:16Z</time>
      </trkpt>
      <trkpt lat="38.571019" lon="-5.163092">
        <ele>490.924</ele>
        <time>2021-10-16T16:31:17Z</time>
      </trkpt>
      <trkpt lat="38.570700" lon="-5.163009">
        <ele>490.969</ele>
        <time>2021-10-16T16:31:19Z</time>
      </trkpt>
      <trkpt lat="38.570540" lon="-5.162967">
        <ele>490.978</ele>
        <time>2021-10-16T16:31:20Z</time>
      </trkpt>
      <trkpt lat="38.570203" lon="-5.162886">
        <ele>490.920</ele>
        <time>2021-10-16T16:31:22Z</time>
      </trkpt>
      <trkpt lat="38.569814" lon="-5.162786">
        <ele>490.957</ele>
        <time>2021-10-16T16:31:24Z</time>
      </trkpt>
      <trkpt lat="38.569604" lon="-5.162731">
        <ele>490.963</ele>
        <time>2021-10-16T16:31:25Z</time>
      </trkpt>
      <trkpt lat="38.569381" lon="-5.162673">
        <ele>490.944</ele>
        <time>2021-10-16T16:31:26Z</time>
      </trkpt>
      <trkpt lat="38.568959" lon="-5.162565">
        <ele>490.818</ele>
        <time>2021-10-16T16:31:28Z</time>
      </trkpt>
      <trkpt lat="38.568508" lon="-5.162454">
        <ele>490.708</ele>
        <time>2021-10-16T16:31:30Z</time>
      </trkpt>
      <trkpt lat="38.568035" lon="-5.162342">
        <ele>490.654</ele>
        <time>2021-10-16T16:31:32Z</time>
      </trkpt>
      <trkpt lat="38.567560" lon="-5.162221">
        <ele>490.652</ele>
        <time>2021-10-16T16:31:34Z</time>
      </trkpt>
      <trkpt lat="38.567315" lon="-5.162163">
        <ele>490.641</ele>
        <time>2021-10-16T16:31:35Z</time>
      </trkpt>
      <trkpt lat="38.566820" lon="-5.162040">
        <ele>490.795</ele>
        <time>2021-10-16T16:31:37Z</time>
      </trkpt>
      <trkpt lat="38.566566" lon="-5.161975">
        <ele>490.740</ele>
        <time>2021-10-16T16:31:38Z</time>
      </trkpt>
      <trkpt lat="38.566101" lon="-5.161859">
        <ele>471.279</ele>
        <time>2021-10-16T16:31:40Z</time>
      </trkpt>
      <trkpt lat="38.565868" lon="-5.161805">
        <ele>451.381</ele>
        <time>2021-10-16T16:31:41Z</time>
      </trkpt>
      <trkpt lat="38.565637" lon="-5.161751">
        <ele>451.228</ele>
        <time>2021-10-16T16:31:42Z</time>
      </trkpt>
      <trkpt lat="38.565196" lon="-5.161647">
        <ele>450.977</ele>
        <time>2021-10-16T16:31:44Z</time>
      </trkpt>
      <trkpt lat="38.564790" lon="-5.161550">
        <ele>450.861</ele>
        <time>2021-10-16T16:31:46Z</time>
      </trkpt>
      <trkpt lat="38.564378" lon="-5.161450">
        <ele>450.727</ele>
        <time>2021-10-16T16:31:48Z</time>
      </trkpt>
      <trkpt lat="38.564168" lon="-5.161399">
        <ele>450.708</ele>
        <time>2021-10-16T16:31:49Z</time>
      </trkpt>
      <trkpt lat="38.563952" lon="-5.161346">
        <ele>450.295</ele>
        <time>2021-10-16T16:31:50Z</time>
      </trkpt>
      <trkpt lat="38.563529" lon="-5.161242">
        <ele>450.613</ele>
        <time>2021-10-16T16:31:52Z</time>
      </trkpt>
      <trkpt lat="38.563308" lon="-5.161184">
        <ele>450.172</ele>
        <time>2021-10-16T16:31:53Z</time>
      </trkpt>
      <trkpt lat="38.562859" lon="-5.161075">
        <ele>450.186</ele>
        <time>2021-10-16T16:31:55Z</time>
      </trkpt>
      <trkpt lat="38.562619" lon="-5.161018">
        <ele>450.071</ele>
        <time>2021-10-16T16:31:56Z</time>
      </trkpt>
      <trkpt lat="38.562153" lon="-5.160907">
        <ele>450.070</ele>
        <time>2021-10-16T16:31:58Z</time>
      </trkpt>
      <trkpt lat="38.561659" lon="-5.160790">
        <ele>449.682</ele>
        <time>2021-10-16T16:32:00Z</time>
      </trkpt>
      <trkpt lat="38.561148" lon="-5.160667">
        <ele>449.139</ele>
        <time>2021-10-16T16:32:02Z</time>
      </trkpt>
      <trkpt lat="38.560651" lon="-5.160545">
        <ele>450.043</ele>
        <time>2021-10-16T16:32:04Z</time>
      </trkpt>
      <trkpt lat="38.560171" lon="-5.160424">
        <ele>450.164</ele>
        <time>2021-10-16T16:32:06Z</time>
      </trkpt>
      <trkpt lat="38.559723" lon="-5.160317">
        <ele>450.510</ele>
        <time>2021-10-16T16:32:08Z</time>
      </trkpt>
      <trkpt lat="38.559296" lon="-5.160214">
        <ele>451.008</ele>
        <time>2021-10-16T16:32:10Z</time>
      </trkpt>
      <trkpt lat="38.558856" lon="-5.160101">
        <ele>451.062</ele>
        <time>2021-10-16T16:32:12Z</time>
      </trkpt>
      <trkpt lat="38.558629" lon="-5.160044">
        <ele>451.870</ele>
        <time>2021-10-16T16:32:13Z</time>
      </trkpt>
      <trkpt lat="38.558391" lon="-5.159984">
        <ele>451.829</ele>
        <time>2021-10-16T16:32:14Z</time>
      </trkpt>
      <trkpt lat="38.557920" lon="-5.159873">
        <ele>452.123</ele>
        <time>2021-10-16T16:32:16Z</time>
      </trkpt>
      <trkpt lat="38.557427" lon="-5.159756">
        <ele>451.398</ele>
        <time>2021-10-16T16:32:18Z</time>
      </trkpt>
      <trkpt lat="38.556926" lon="-5.159635">
        <ele>451.927</ele>
        <time>2021-10-16T16:32:20Z</time>
      </trkpt>
      <trkpt lat="38.556449" lon="-5.159513">
        <ele>450.629</ele>
        <time>2021-10-16T16:32:22Z</time>
      </trkpt>
      <trkpt lat="38.555968" lon="-5.159393">
        <ele>449.146</ele>
        <time>2021-10-16T16:32:24Z</time>
      </trkpt>
      <trkpt lat="38.555725" lon="-5.159332">
        <ele>448.412</ele>
        <time>2021-10-16T16:32:25Z</time>
      </trkpt>
      <trkpt lat="38.555476" lon="-5.159269">
        <ele>448.232</ele>
        <time>2021-10-16T16:32:26Z</time>
      </trkpt>
      <trkpt lat="38.555000" lon="-5.159153">
        <ele>447.105</ele>
        <time>2021-10-16T16:32:28Z</time>
      </trkpt>
      <trkpt lat="38.554504" lon="-5.159033">
        <ele>446.508</ele>
        <time>2021-10-16T16:32:30Z</time>
      </trkpt>
      <trkpt lat="38.553998" lon="-5.158902">
        <ele>446.679</ele>
        <time>2021-10-16T16:32:32Z</time>
      </trkpt>
      <trkpt lat="38.553517" lon="-5.158782">
        <ele>446.667</ele>
        <time>2021-10-16T16:32:34Z</time>
      </trkpt>
      <trkpt lat="38.553062" lon="-5.158675">
        <ele>446.816</ele>
        <time>2021-10-16T16:32:36Z</time>
      </trkpt>
      <trkpt lat="38.552840" lon="-5.158618">
        <ele>446.420</ele>
        <time>2021-10-16T16:32:37Z</time>
      </trkpt>
      <trkpt lat="38.552615" lon="-5.158561">
        <ele>446.825</ele>
        <time>2021-10-16T16:32:38Z</time>
      </trkpt>
      <trkpt lat="38.552164" lon="-5.158463">
        <ele>449.064</ele>
        <time>2021-10-16T16:32:40Z</time>
      </trkpt>
      <trkpt lat="38.551688" lon="-5.158352">
        <ele>450.116</ele>
        <time>2021-10-16T16:32:42Z</time>
      </trkpt>
      <trkpt lat="38.551444" lon="-5.158288">
        <ele>451.113</ele>
        <time>2021-10-16T16:32:43Z</time>
      </trkpt>
      <trkpt lat="38.551193" lon="-5.158223">
        <ele>451.542</ele>
        <time>2021-10-16T16:32:44Z</time>
      </trkpt>
      <trkpt lat="38.550712" lon="-5.158102">
        <ele>451.722</ele>
        <time>2021-10-16T16:32:46Z</time>
      </trkpt>
      <trkpt lat="38.550219" lon="-5.157985">
        <ele>453.214</ele>
        <time>2021-10-16T16:32:48Z</time>
      </trkpt>
      <trkpt lat="38.549715" lon="-5.157863">
        <ele>452.808</ele>
        <time>2021-10-16T16:32:50Z</time>
      </trkpt>
      <trkpt lat="38.549231" lon="-5.157748">
        <ele>453.622</ele>
        <time>2021-10-16T16:32:52Z</time>
      </trkpt>
      <trkpt lat="38.548775" lon="-5.157634">
        <ele>453.860</ele>
        <time>2021-10-16T16:32:54Z</time>
      </trkpt>
      <trkpt lat="38.548325" lon="-5.157524">
        <ele>453.919</ele>
        <time>2021-10-16T16:32:56Z</time>
      </trkpt>
      <trkpt lat="38.547893" lon="-5.157417">
        <ele>454.153</ele>
        <time>2021-10-16T16:32:58Z</time>
      </trkpt>
      <trkpt lat="38.547672" lon="-5.157365">
        <ele>454.788</ele>
        <time>2021-10-16T16:32:59Z</time>
      </trkpt>
      <trkpt lat="38.547235" lon="-5.157258">
        <ele>455.247</ele>
        <time>2021-10-16T16:33:01Z</time>
      </trkpt>
      <trkpt lat="38.547010" lon="-5.157205">
        <ele>455.959</ele>
        <time>2021-10-16T16:33:02Z</time>
      </trkpt>
      <trkpt lat="38.546574" lon="-5.157102">
        <ele>457.756</ele>
        <time>2021-10-16T16:33:04Z</time>
      </trkpt>
      <trkpt lat="38.546111" lon="-5.156993">
        <ele>459.444</ele>
        <time>2021-10-16T16:33:06Z</time>
      </trkpt>
      <trkpt lat="38.545624" lon="-5.156877">
        <ele>458.905</ele>
        <time>2021-10-16T16:33:08Z</time>
      </trkpt>
      <trkpt lat="38.545130" lon="-5.156759">
        <ele>458.315</ele>
        <time>2021-10-16T16:33:10Z</time>
      </trkpt>
      <trkpt lat="38.544613" lon="-5.156635">
        <ele>457.908</ele>
        <time>2021-10-16T16:33:12Z</time>
      </trkpt>
      <trkpt lat="38.544087" lon="-5.156508">
        <ele>458.242</ele>
        <time>2021-10-16T16:33:14Z</time>
      </trkpt>
      <trkpt lat="38.543575" lon="-5.156379">
        <ele>458.570</ele>
        <time>2021-10-16T16:33:16Z</time>
      </trkpt>
      <trkpt lat="38.543310" lon="-5.156315">
        <ele>458.369</ele>
        <time>2021-10-16T16:33:17Z</time>
      </trkpt>
      <trkpt lat="38.542789" lon="-5.156183">
        <ele>459.683</ele>
        <time>2021-10-16T16:33:19Z</time>
      </trkpt>
      <trkpt lat="38.542522" lon="-5.156114">
        <ele>459.728</ele>
        <time>2021-10-16T16:33:20Z</time>
      </trkpt>
      <trkpt lat="38.542019" lon="-5.155991">
        <ele>460.887</ele>
        <time>2021-10-16T16:33:22Z</time>
      </trkpt>
      <trkpt lat="38.541515" lon="-5.155871">
        <ele>461.829</ele>
        <time>2021-10-16T16:33:24Z</time>
      </trkpt>
      <trkpt lat="38.541004" lon="-5.155743">
        <ele>462.616</ele>
        <time>2021-10-16T16:33:26Z</time>
      </trkpt>
      <trkpt lat="38.540507" lon="-5.155618">
        <ele>463.593</ele>
        <time>2021-10-16T16:33:28Z</time>
      </trkpt>
      <trkpt lat="38.539998" lon="-5.155496">
        <ele>464.765</ele>
        <time>2021-10-16T16:33:30Z</time>
      </trkpt>
      <trkpt lat="38.539741" lon="-5.155434">
        <ele>465.621</ele>
        <time>2021-10-16T16:33:31Z</time>
      </trkpt>
      <trkpt lat="38.539476" lon="-5.155370">
        <ele>466.108</ele>
        <time>2021-10-16T16:33:32Z</time>
      </trkpt>
      <trkpt lat="38.538967" lon="-5.155241">
        <ele>467.857</ele>
        <time>2021-10-16T16:33:34Z</time>
      </trkpt>
      <trkpt lat="38.538707" lon="-5.155175">
        <ele>467.965</ele>
        <time>2021-10-16T16:33:35Z</time>
      </trkpt>
      <trkpt lat="38.538447" lon="-5.155109">
        <ele>468.314</ele>
        <time>2021-10-16T16:33:36Z</time>
      </trkpt>
      <trkpt lat="38.537932" lon="-5.154980">
        <ele>469.448</ele>
        <time>2021-10-16T16:33:38Z</time>
      </trkpt>
      <trkpt lat="38.537469" lon="-5.154873">
        <ele>471.083</ele>
        <time>2021-10-16T16:33:40Z</time>
      </trkpt>
      <trkpt lat="38.537244" lon="-5.154818">
        <ele>471.492</ele>
        <time>2021-10-16T16:33:41Z</time>
      </trkpt>
      <trkpt lat="38.537024" lon="-5.154764">
        <ele>471.664</ele>
        <time>2021-10-16T16:33:42Z</time>
      </trkpt>
      <trkpt lat="38.536589" lon="-5.154649">
        <ele>472.671</ele>
        <time>2021-10-16T16:33:44Z</time>
      </trkpt>
      <trkpt lat="38.536172" lon="-5.154542">
        <ele>474.276</ele>
        <time>2021-10-16T16:33:46Z</time>
      </trkpt>
      <trkpt lat="38.535952" lon="-5.154490">
        <ele>474.190</ele>
        <time>2021-10-16T16:33:47Z</time>
      </trkpt>
      <trkpt lat="38.535729" lon="-5.154437">
        <ele>473.919</ele>
        <time>2021-10-16T16:33:48Z</time>
      </trkpt>
      <trkpt lat="38.535261" lon="-5.154317">
        <ele>474.608</ele>
        <time>2021-10-16T16:33:50Z</time>
      </trkpt>
      <trkpt lat="38.534791" lon="-5.154200">
        <ele>474.795</ele>
        <time>2021-10-16T16:33:52Z</time>
      </trkpt>
      <trkpt lat="38.534549" lon="-5.154138">
        <ele>474.633</ele>
        <time>2021-10-16T16:33:53Z</time>
      </trkpt>
      <trkpt lat="38.534067" lon="-5.154015">
        <ele>473.862</ele>
        <time>2021-10-16T16:33:55Z</time>
      </trkpt>
      <trkpt lat="38.533818" lon="-5.153955">
        <ele>474.356</ele>
        <time>2021-10-16T16:33:56Z</time>
      </trkpt>
      <trkpt lat="38.533345" lon="-5.153834">
        <ele>473.891</ele>
        <time>2021-10-16T16:33:58Z</time>
      </trkpt>
      <trkpt lat="38.533103" lon="-5.153773">
        <ele>474.330</ele>
        <time>2021-10-16T16:33:59Z</time>
      </trkpt>
      <trkpt lat="38.532861" lon="-5.153717">
        <ele>474.952</ele>
        <time>2021-10-16T16:34:00Z</time>
      </trkpt>
      <trkpt lat="38.532374" lon="-5.153602">
        <ele>474.949</ele>
        <time>2021-10-16T16:34:02Z</time>
      </trkpt>
      <trkpt lat="38.531908" lon="-5.153488">
        <ele>475.529</ele>
        <time>2021-10-16T16:34:04Z</time>
      </trkpt>
      <trkpt lat="38.531672" lon="-5.153428">
        <ele>475.900</ele>
        <time>2021-10-16T16:34:05Z</time>
      </trkpt>
      <trkpt lat="38.531438" lon="-5.153370">
        <ele>475.820</ele>
        <time>2021-10-16T16:34:06Z</time>
      </trkpt>
      <trkpt lat="38.530972" lon="-5.153260">
        <ele>475.108</ele>
        <time>2021-10-16T16:34:08Z</time>
      </trkpt>
      <trkpt lat="38.530534" lon="-5.153150">
        <ele>475.930</ele>
        <time>2021-10-16T16:34:10Z</time>
      </trkpt>
      <trkpt lat="38.530315" lon="-5.153095">
        <ele>475.978</ele>
        <time>2021-10-16T16:34:11Z</time>
      </trkpt>
      <trkpt lat="38.530097" lon="-5.153044">
        <ele>475.847</ele>
        <time>2021-10-16T16:34:12Z</time>
      </trkpt>
      <trkpt lat="38.529658" lon="-5.152939">
        <ele>474.811</ele>
        <time>2021-10-16T16:34:14Z</time>
      </trkpt>
      <trkpt lat="38.529241" lon="-5.152835">
        <ele>474.726</ele>
        <time>2021-10-16T16:34:16Z</time>
      </trkpt>
      <trkpt lat="38.528820" lon="-5.152732">
        <ele>474.815</ele>
        <time>2021-10-16T16:34:18Z</time>
      </trkpt>
      <trkpt lat="38.528394" lon="-5.152630">
        <ele>474.957</ele>
        <time>2021-10-16T16:34:20Z</time>
      </trkpt>
      <trkpt lat="38.527977" lon="-5.152524">
        <ele>475.384</ele>
        <time>2021-10-16T16:34:22Z</time>
      </trkpt>
      <trkpt lat="38.527763" lon="-5.152474">
        <ele>475.442</ele>
        <time>2021-10-16T16:34:23Z</time>
      </trkpt>
      <trkpt lat="38.527546" lon="-5.152422">
        <ele>475.322</ele>
        <time>2021-10-16T16:34:24Z</time>
      </trkpt>
      <trkpt lat="38.527102" lon="-5.152314">
        <ele>474.414</ele>
        <time>2021-10-16T16:34:26Z</time>
      </trkpt>
      <trkpt lat="38.526664" lon="-5.152213">
        <ele>474.508</ele>
        <time>2021-10-16T16:34:28Z</time>
      </trkpt>
      <trkpt lat="38.526439" lon="-5.152160">
        <ele>474.612</ele>
        <time>2021-10-16T16:34:29Z</time>
      </trkpt>
      <trkpt lat="38.526213" lon="-5.152107">
        <ele>474.250</ele>
        <time>2021-10-16T16:34:30Z</time>
      </trkpt>
      <trkpt lat="38.525986" lon="-5.152053">
        <ele>474.299</ele>
        <time>2021-10-16T16:34:31Z</time>
      </trkpt>
      <trkpt lat="38.525749" lon="-5.151995">
        <ele>474.473</ele>
        <time>2021-10-16T16:34:32Z</time>
      </trkpt>
      <trkpt lat="38.525282" lon="-5.151877">
        <ele>474.738</ele>
        <time>2021-10-16T16:34:34Z</time>
      </trkpt>
      <trkpt lat="38.525037" lon="-5.151815">
        <ele>473.937</ele>
        <time>2021-10-16T16:34:35Z</time>
      </trkpt>
      <trkpt lat="38.524791" lon="-5.151754">
        <ele>473.799</ele>
        <time>2021-10-16T16:34:36Z</time>
      </trkpt>
      <trkpt lat="38.524295" lon="-5.151637">
        <ele>473.356</ele>
        <time>2021-10-16T16:34:38Z</time>
      </trkpt>
      <trkpt lat="38.523809" lon="-5.151523">
        <ele>473.167</ele>
        <time>2021-10-16T16:34:40Z</time>
      </trkpt>
      <trkpt lat="38.523561" lon="-5.151465">
        <ele>473.181</ele>
        <time>2021-10-16T16:34:41Z</time>
      </trkpt>
      <trkpt lat="38.523073" lon="-5.151349">
        <ele>472.919</ele>
        <time>2021-10-16T16:34:43Z</time>
      </trkpt>
      <trkpt lat="38.522831" lon="-5.151292">
        <ele>473.508</ele>
        <time>2021-10-16T16:34:44Z</time>
      </trkpt>
      <trkpt lat="38.522374" lon="-5.151182">
        <ele>475.054</ele>
        <time>2021-10-16T16:34:46Z</time>
      </trkpt>
      <trkpt lat="38.522141" lon="-5.151126">
        <ele>474.812</ele>
        <time>2021-10-16T16:34:47Z</time>
      </trkpt>
      <trkpt lat="38.521910" lon="-5.151070">
        <ele>474.831</ele>
        <time>2021-10-16T16:34:48Z</time>
      </trkpt>
      <trkpt lat="38.521444" lon="-5.150958">
        <ele>475.335</ele>
        <time>2021-10-16T16:34:50Z</time>
      </trkpt>
      <trkpt lat="38.520988" lon="-5.150850">
        <ele>476.790</ele>
        <time>2021-10-16T16:34:52Z</time>
      </trkpt>
      <trkpt lat="38.520752" lon="-5.150793">
        <ele>477.589</ele>
        <time>2021-10-16T16:34:53Z</time>
      </trkpt>
      <trkpt lat="38.520282" lon="-5.150672">
        <ele>477.221</ele>
        <time>2021-10-16T16:34:55Z</time>
      </trkpt>
      <trkpt lat="38.520036" lon="-5.150610">
        <ele>478.378</ele>
        <time>2021-10-16T16:34:56Z</time>
      </trkpt>
      <trkpt lat="38.519571" lon="-5.150502">
        <ele>478.847</ele>
        <time>2021-10-16T16:34:58Z</time>
      </trkpt>
      <trkpt lat="38.519335" lon="-5.150446">
        <ele>479.329</ele>
        <time>2021-10-16T16:34:59Z</time>
      </trkpt>
      <trkpt lat="38.518866" lon="-5.150333">
        <ele>481.421</ele>
        <time>2021-10-16T16:35:01Z</time>
      </trkpt>
      <trkpt lat="38.518629" lon="-5.150275">
        <ele>481.708</ele>
        <time>2021-10-16T16:35:02Z</time>
      </trkpt>
      <trkpt lat="38.518174" lon="-5.150167">
        <ele>483.472</ele>
        <time>2021-10-16T16:35:04Z</time>
      </trkpt>
      <trkpt lat="38.517942" lon="-5.150111">
        <ele>484.270</ele>
        <time>2021-10-16T16:35:05Z</time>
      </trkpt>
      <trkpt lat="38.517477" lon="-5.149996">
        <ele>485.989</ele>
        <time>2021-10-16T16:35:07Z</time>
      </trkpt>
      <trkpt lat="38.517238" lon="-5.149935">
        <ele>486.563</ele>
        <time>2021-10-16T16:35:08Z</time>
      </trkpt>
      <trkpt lat="38.516781" lon="-5.149821">
        <ele>486.538</ele>
        <time>2021-10-16T16:35:10Z</time>
      </trkpt>
      <trkpt lat="38.516543" lon="-5.149766">
        <ele>486.537</ele>
        <time>2021-10-16T16:35:11Z</time>
      </trkpt>
      <trkpt lat="38.516065" lon="-5.149646">
        <ele>486.619</ele>
        <time>2021-10-16T16:35:13Z</time>
      </trkpt>
      <trkpt lat="38.515814" lon="-5.149588">
        <ele>486.596</ele>
        <time>2021-10-16T16:35:14Z</time>
      </trkpt>
      <trkpt lat="38.515331" lon="-5.149474">
        <ele>485.677</ele>
        <time>2021-10-16T16:35:16Z</time>
      </trkpt>
      <trkpt lat="38.515081" lon="-5.149410">
        <ele>485.361</ele>
        <time>2021-10-16T16:35:17Z</time>
      </trkpt>
      <trkpt lat="38.514585" lon="-5.149283">
        <ele>485.927</ele>
        <time>2021-10-16T16:35:19Z</time>
      </trkpt>
      <trkpt lat="38.514327" lon="-5.149218">
        <ele>486.008</ele>
        <time>2021-10-16T16:35:20Z</time>
      </trkpt>
      <trkpt lat="38.513830" lon="-5.149099">
        <ele>485.885</ele>
        <time>2021-10-16T16:35:22Z</time>
      </trkpt>
      <trkpt lat="38.513574" lon="-5.149037">
        <ele>485.723</ele>
        <time>2021-10-16T16:35:23Z</time>
      </trkpt>
      <trkpt lat="38.513064" lon="-5.148912">
        <ele>486.342</ele>
        <time>2021-10-16T16:35:25Z</time>
      </trkpt>
      <trkpt lat="38.512804" lon="-5.148851">
        <ele>486.356</ele>
        <time>2021-10-16T16:35:26Z</time>
      </trkpt>
      <trkpt lat="38.512331" lon="-5.148741">
        <ele>486.511</ele>
        <time>2021-10-16T16:35:28Z</time>
      </trkpt>
      <trkpt lat="38.511867" lon="-5.148626">
        <ele>486.520</ele>
        <time>2021-10-16T16:35:30Z</time>
      </trkpt>
      <trkpt lat="38.511633" lon="-5.148567">
        <ele>486.742</ele>
        <time>2021-10-16T16:35:31Z</time>
      </trkpt>
      <trkpt lat="38.511394" lon="-5.148510">
        <ele>487.379</ele>
        <time>2021-10-16T16:35:32Z</time>
      </trkpt>
      <trkpt lat="38.510938" lon="-5.148401">
        <ele>487.839</ele>
        <time>2021-10-16T16:35:34Z</time>
      </trkpt>
      <trkpt lat="38.510466" lon="-5.148286">
        <ele>488.601</ele>
        <time>2021-10-16T16:35:36Z</time>
      </trkpt>
      <trkpt lat="38.510229" lon="-5.148224">
        <ele>489.221</ele>
        <time>2021-10-16T16:35:37Z</time>
      </trkpt>
      <trkpt lat="38.509986" lon="-5.148160">
        <ele>489.508</ele>
        <time>2021-10-16T16:35:38Z</time>
      </trkpt>
      <trkpt lat="38.509529" lon="-5.148050">
        <ele>490.571</ele>
        <time>2021-10-16T16:35:40Z</time>
      </trkpt>
      <trkpt lat="38.509087" lon="-5.147948">
        <ele>490.689</ele>
        <time>2021-10-16T16:35:42Z</time>
      </trkpt>
      <trkpt lat="38.508676" lon="-5.147851">
        <ele>491.468</ele>
        <time>2021-10-16T16:35:44Z</time>
      </trkpt>
      <trkpt lat="38.508281" lon="-5.147749">
        <ele>492.742</ele>
        <time>2021-10-16T16:35:46Z</time>
      </trkpt>
      <trkpt lat="38.508078" lon="-5.147700">
        <ele>493.177</ele>
        <time>2021-10-16T16:35:47Z</time>
      </trkpt>
      <trkpt lat="38.507875" lon="-5.147647">
        <ele>493.186</ele>
        <time>2021-10-16T16:35:48Z</time>
      </trkpt>
      <trkpt lat="38.507462" lon="-5.147542">
        <ele>494.378</ele>
        <time>2021-10-16T16:35:50Z</time>
      </trkpt>
      <trkpt lat="38.507074" lon="-5.147443">
        <ele>493.855</ele>
        <time>2021-10-16T16:35:52Z</time>
      </trkpt>
      <trkpt lat="38.506890" lon="-5.147398">
        <ele>493.736</ele>
        <time>2021-10-16T16:35:53Z</time>
      </trkpt>
      <trkpt lat="38.506721" lon="-5.147354">
        <ele>493.317</ele>
        <time>2021-10-16T16:35:54Z</time>
      </trkpt>
      <trkpt lat="38.506401" lon="-5.147272">
        <ele>491.718</ele>
        <time>2021-10-16T16:35:56Z</time>
      </trkpt>
      <trkpt lat="38.506116" lon="-5.147203">
        <ele>491.408</ele>
        <time>2021-10-16T16:35:58Z</time>
      </trkpt>
      <trkpt lat="38.505841" lon="-5.147132">
        <ele>490.751</ele>
        <time>2021-10-16T16:36:00Z</time>
      </trkpt>
      <trkpt lat="38.505586" lon="-5.147058">
        <ele>490.419</ele>
        <time>2021-10-16T16:36:02Z</time>
      </trkpt>
      <trkpt lat="38.505372" lon="-5.147002">
        <ele>490.668</ele>
        <time>2021-10-16T16:36:04Z</time>
      </trkpt>
      <trkpt lat="38.505165" lon="-5.146949">
        <ele>490.412</ele>
        <time>2021-10-16T16:36:06Z</time>
      </trkpt>
      <trkpt lat="38.504941" lon="-5.146890">
        <ele>489.787</ele>
        <time>2021-10-16T16:36:08Z</time>
      </trkpt>
      <trkpt lat="38.504716" lon="-5.146827">
        <ele>489.056</ele>
        <time>2021-10-16T16:36:10Z</time>
      </trkpt>
      <trkpt lat="38.504489" lon="-5.146742">
        <ele>488.448</ele>
        <time>2021-10-16T16:36:12Z</time>
      </trkpt>
      <trkpt lat="38.504278" lon="-5.146611">
        <ele>488.475</ele>
        <time>2021-10-16T16:36:14Z</time>
      </trkpt>
      <trkpt lat="38.504096" lon="-5.146428">
        <ele>488.948</ele>
        <time>2021-10-16T16:36:16Z</time>
      </trkpt>
      <trkpt lat="38.503916" lon="-5.146223">
        <ele>488.861</ele>
        <time>2021-10-16T16:36:18Z</time>
      </trkpt>
      <trkpt lat="38.503729" lon="-5.146017">
        <ele>488.817</ele>
        <time>2021-10-16T16:36:20Z</time>
      </trkpt>
      <trkpt lat="38.503546" lon="-5.145811">
        <ele>489.008</ele>
        <time>2021-10-16T16:36:22Z</time>
      </trkpt>
      <trkpt lat="38.503454" lon="-5.145712">
        <ele>489.042</ele>
        <time>2021-10-16T16:36:23Z</time>
      </trkpt>
      <trkpt lat="38.503367" lon="-5.145616">
        <ele>489.250</ele>
        <time>2021-10-16T16:36:24Z</time>
      </trkpt>
      <trkpt lat="38.503281" lon="-5.145518">
        <ele>489.279</ele>
        <time>2021-10-16T16:36:25Z</time>
      </trkpt>
      <trkpt lat="38.503192" lon="-5.145417">
        <ele>489.293</ele>
        <time>2021-10-16T16:36:26Z</time>
      </trkpt>
      <trkpt lat="38.503018" lon="-5.145219">
        <ele>489.748</ele>
        <time>2021-10-16T16:36:28Z</time>
      </trkpt>
      <trkpt lat="38.502925" lon="-5.145116">
        <ele>490.477</ele>
        <time>2021-10-16T16:36:29Z</time>
      </trkpt>
      <trkpt lat="38.502736" lon="-5.144914">
        <ele>490.119</ele>
        <time>2021-10-16T16:36:31Z</time>
      </trkpt>
      <trkpt lat="38.502633" lon="-5.144808">
        <ele>489.766</ele>
        <time>2021-10-16T16:36:32Z</time>
      </trkpt>
      <trkpt lat="38.502436" lon="-5.144596">
        <ele>489.547</ele>
        <time>2021-10-16T16:36:34Z</time>
      </trkpt>
      <trkpt lat="38.502237" lon="-5.144365">
        <ele>489.529</ele>
        <time>2021-10-16T16:36:36Z</time>
      </trkpt>
      <trkpt lat="38.502029" lon="-5.144128">
        <ele>490.421</ele>
        <time>2021-10-16T16:36:38Z</time>
      </trkpt>
      <trkpt lat="38.501841" lon="-5.143920">
        <ele>489.708</ele>
        <time>2021-10-16T16:36:40Z</time>
      </trkpt>
      <trkpt lat="38.501673" lon="-5.143728">
        <ele>490.052</ele>
        <time>2021-10-16T16:36:42Z</time>
      </trkpt>
      <trkpt lat="38.501528" lon="-5.143552">
        <ele>490.010</ele>
        <time>2021-10-16T16:36:44Z</time>
      </trkpt>
      <trkpt lat="38.501394" lon="-5.143406">
        <ele>491.159</ele>
        <time>2021-10-16T16:36:46Z</time>
      </trkpt>
      <trkpt lat="38.501242" lon="-5.143248">
        <ele>492.963</ele>
        <time>2021-10-16T16:36:48Z</time>
      </trkpt>
      <trkpt lat="38.501164" lon="-5.143159">
        <ele>492.948</ele>
        <time>2021-10-16T16:36:49Z</time>
      </trkpt>
      <trkpt lat="38.501080" lon="-5.143066">
        <ele>493.397</ele>
        <time>2021-10-16T16:36:50Z</time>
      </trkpt>
      <trkpt lat="38.500899" lon="-5.142868">
        <ele>494.119</ele>
        <time>2021-10-16T16:36:52Z</time>
      </trkpt>
      <trkpt lat="38.500691" lon="-5.142635">
        <ele>494.146</ele>
        <time>2021-10-16T16:36:54Z</time>
      </trkpt>
      <trkpt lat="38.500490" lon="-5.142404">
        <ele>495.624</ele>
        <time>2021-10-16T16:36:56Z</time>
      </trkpt>
      <trkpt lat="38.500291" lon="-5.142183">
        <ele>495.704</ele>
        <time>2021-10-16T16:36:58Z</time>
      </trkpt>
      <trkpt lat="38.500189" lon="-5.142065">
        <ele>496.914</ele>
        <time>2021-10-16T16:36:59Z</time>
      </trkpt>
      <trkpt lat="38.499982" lon="-5.141836">
        <ele>498.408</ele>
        <time>2021-10-16T16:37:01Z</time>
      </trkpt>
      <trkpt lat="38.499876" lon="-5.141719">
        <ele>498.570</ele>
        <time>2021-10-16T16:37:02Z</time>
      </trkpt>
      <trkpt lat="38.499676" lon="-5.141497">
        <ele>498.778</ele>
        <time>2021-10-16T16:37:04Z</time>
      </trkpt>
      <trkpt lat="38.499482" lon="-5.141274">
        <ele>500.227</ele>
        <time>2021-10-16T16:37:06Z</time>
      </trkpt>
      <trkpt lat="38.499298" lon="-5.141073">
        <ele>500.531</ele>
        <time>2021-10-16T16:37:08Z</time>
      </trkpt>
      <trkpt lat="38.499122" lon="-5.140878">
        <ele>501.516</ele>
        <time>2021-10-16T16:37:10Z</time>
      </trkpt>
      <trkpt lat="38.499031" lon="-5.140773">
        <ele>501.575</ele>
        <time>2021-10-16T16:37:11Z</time>
      </trkpt>
      <trkpt lat="38.498842" lon="-5.140561">
        <ele>500.767</ele>
        <time>2021-10-16T16:37:13Z</time>
      </trkpt>
      <trkpt lat="38.498748" lon="-5.140457">
        <ele>500.764</ele>
        <time>2021-10-16T16:37:14Z</time>
      </trkpt>
      <trkpt lat="38.498576" lon="-5.140271">
        <ele>500.327</ele>
        <time>2021-10-16T16:37:16Z</time>
      </trkpt>
      <trkpt lat="38.498414" lon="-5.140088">
        <ele>500.368</ele>
        <time>2021-10-16T16:37:18Z</time>
      </trkpt>
      <trkpt lat="38.498253" lon="-5.139904">
        <ele>500.314</ele>
        <time>2021-10-16T16:37:20Z</time>
      </trkpt>
      <trkpt lat="38.498079" lon="-5.139708">
        <ele>499.208</ele>
        <time>2021-10-16T16:37:22Z</time>
      </trkpt>
      <trkpt lat="38.497981" lon="-5.139595">
        <ele>499.250</ele>
        <time>2021-10-16T16:37:23Z</time>
      </trkpt>
      <trkpt lat="38.497880" lon="-5.139481">
        <ele>499.988</ele>
        <time>2021-10-16T16:37:24Z</time>
      </trkpt>
      <trkpt lat="38.497668" lon="-5.139248">
        <ele>498.047</ele>
        <time>2021-10-16T16:37:26Z</time>
      </trkpt>
      <trkpt lat="38.497481" lon="-5.139034">
        <ele>496.891</ele>
        <time>2021-10-16T16:37:28Z</time>
      </trkpt>
      <trkpt lat="38.497302" lon="-5.138834">
        <ele>496.176</ele>
        <time>2021-10-16T16:37:30Z</time>
      </trkpt>
      <trkpt lat="38.497208" lon="-5.138730">
        <ele>496.155</ele>
        <time>2021-10-16T16:37:31Z</time>
      </trkpt>
      <trkpt lat="38.497110" lon="-5.138618">
        <ele>495.477</ele>
        <time>2021-10-16T16:37:32Z</time>
      </trkpt>
      <trkpt lat="38.496908" lon="-5.138394">
        <ele>494.324</ele>
        <time>2021-10-16T16:37:34Z</time>
      </trkpt>
      <trkpt lat="38.496706" lon="-5.138167">
        <ele>494.938</ele>
        <time>2021-10-16T16:37:36Z</time>
      </trkpt>
      <trkpt lat="38.496609" lon="-5.138057">
        <ele>495.470</ele>
        <time>2021-10-16T16:37:37Z</time>
      </trkpt>
      <trkpt lat="38.496517" lon="-5.137959">
        <ele>495.417</ele>
        <time>2021-10-16T16:37:38Z</time>
      </trkpt>
      <trkpt lat="38.496340" lon="-5.137771">
        <ele>495.608</ele>
        <time>2021-10-16T16:37:40Z</time>
      </trkpt>
      <trkpt lat="38.496249" lon="-5.137671">
        <ele>495.441</ele>
        <time>2021-10-16T16:37:41Z</time>
      </trkpt>
      <trkpt lat="38.496156" lon="-5.137569">
        <ele>496.349</ele>
        <time>2021-10-16T16:37:42Z</time>
      </trkpt>
      <trkpt lat="38.496060" lon="-5.137464">
        <ele>496.388</ele>
        <time>2021-10-16T16:37:43Z</time>
      </trkpt>
      <trkpt lat="38.495958" lon="-5.137355">
        <ele>496.872</ele>
        <time>2021-10-16T16:37:44Z</time>
      </trkpt>
      <trkpt lat="38.495760" lon="-5.137145">
        <ele>496.087</ele>
        <time>2021-10-16T16:37:46Z</time>
      </trkpt>
      <trkpt lat="38.495558" lon="-5.136912">
        <ele>496.976</ele>
        <time>2021-10-16T16:37:48Z</time>
      </trkpt>
      <trkpt lat="38.495457" lon="-5.136794">
        <ele>497.198</ele>
        <time>2021-10-16T16:37:49Z</time>
      </trkpt>
      <trkpt lat="38.495354" lon="-5.136676">
        <ele>497.635</ele>
        <time>2021-10-16T16:37:50Z</time>
      </trkpt>
      <trkpt lat="38.495160" lon="-5.136459">
        <ele>498.523</ele>
        <time>2021-10-16T16:37:52Z</time>
      </trkpt>
      <trkpt lat="38.494986" lon="-5.136268">
        <ele>498.583</ele>
        <time>2021-10-16T16:37:54Z</time>
      </trkpt>
      <trkpt lat="38.494905" lon="-5.136178">
        <ele>499.511</ele>
        <time>2021-10-16T16:37:55Z</time>
      </trkpt>
      <trkpt lat="38.494824" lon="-5.136094">
        <ele>499.808</ele>
        <time>2021-10-16T16:37:56Z</time>
      </trkpt>
      <trkpt lat="38.494674" lon="-5.135934">
        <ele>499.850</ele>
        <time>2021-10-16T16:37:58Z</time>
      </trkpt>
      <trkpt lat="38.494515" lon="-5.135755">
        <ele>501.318</ele>
        <time>2021-10-16T16:38:00Z</time>
      </trkpt>
      <trkpt lat="38.494431" lon="-5.135660">
        <ele>501.497</ele>
        <time>2021-10-16T16:38:01Z</time>
      </trkpt>
      <trkpt lat="38.494343" lon="-5.135561">
        <ele>501.611</ele>
        <time>2021-10-16T16:38:02Z</time>
      </trkpt>
      <trkpt lat="38.494163" lon="-5.135360">
        <ele>502.846</ele>
        <time>2021-10-16T16:38:04Z</time>
      </trkpt>
      <trkpt lat="38.494067" lon="-5.135252">
        <ele>502.825</ele>
        <time>2021-10-16T16:38:05Z</time>
      </trkpt>
      <trkpt lat="38.493878" lon="-5.135040">
        <ele>503.497</ele>
        <time>2021-10-16T16:38:07Z</time>
      </trkpt>
      <trkpt lat="38.493783" lon="-5.134937">
        <ele>503.584</ele>
        <time>2021-10-16T16:38:08Z</time>
      </trkpt>
      <trkpt lat="38.493599" lon="-5.134731">
        <ele>504.699</ele>
        <time>2021-10-16T16:38:10Z</time>
      </trkpt>
      <trkpt lat="38.493412" lon="-5.134527">
        <ele>504.007</ele>
        <time>2021-10-16T16:38:12Z</time>
      </trkpt>
      <trkpt lat="38.493216" lon="-5.134306">
        <ele>503.927</ele>
        <time>2021-10-16T16:38:14Z</time>
      </trkpt>
      <trkpt lat="38.493010" lon="-5.134080">
        <ele>505.208</ele>
        <time>2021-10-16T16:38:16Z</time>
      </trkpt>
      <trkpt lat="38.492906" lon="-5.133966">
        <ele>504.967</ele>
        <time>2021-10-16T16:38:17Z</time>
      </trkpt>
      <trkpt lat="38.492703" lon="-5.133736">
        <ele>504.095</ele>
        <time>2021-10-16T16:38:19Z</time>
      </trkpt>
      <trkpt lat="38.492599" lon="-5.133616">
        <ele>503.914</ele>
        <time>2021-10-16T16:38:20Z</time>
      </trkpt>
      <trkpt lat="38.492386" lon="-5.133375">
        <ele>501.938</ele>
        <time>2021-10-16T16:38:22Z</time>
      </trkpt>
      <trkpt lat="38.492268" lon="-5.133248">
        <ele>501.543</ele>
        <time>2021-10-16T16:38:23Z</time>
      </trkpt>
      <trkpt lat="38.492029" lon="-5.132983">
        <ele>500.882</ele>
        <time>2021-10-16T16:38:25Z</time>
      </trkpt>
      <trkpt lat="38.491906" lon="-5.132846">
        <ele>499.994</ele>
        <time>2021-10-16T16:38:26Z</time>
      </trkpt>
      <trkpt lat="38.491662" lon="-5.132571">
        <ele>499.011</ele>
        <time>2021-10-16T16:38:28Z</time>
      </trkpt>
      <trkpt lat="38.491536" lon="-5.132430">
        <ele>498.679</ele>
        <time>2021-10-16T16:38:29Z</time>
      </trkpt>
      <trkpt lat="38.491280" lon="-5.132144">
        <ele>498.005</ele>
        <time>2021-10-16T16:38:31Z</time>
      </trkpt>
      <trkpt lat="38.491140" lon="-5.131988">
        <ele>498.025</ele>
        <time>2021-10-16T16:38:32Z</time>
      </trkpt>
      <trkpt lat="38.490867" lon="-5.131685">
        <ele>499.008</ele>
        <time>2021-10-16T16:38:34Z</time>
      </trkpt>
      <trkpt lat="38.490723" lon="-5.131529">
        <ele>499.155</ele>
        <time>2021-10-16T16:38:35Z</time>
      </trkpt>
      <trkpt lat="38.490436" lon="-5.131217">
        <ele>498.923</ele>
        <time>2021-10-16T16:38:37Z</time>
      </trkpt>
      <trkpt lat="38.490289" lon="-5.131052">
        <ele>500.142</ele>
        <time>2021-10-16T16:38:38Z</time>
      </trkpt>
      <trkpt lat="38.490010" lon="-5.130733">
        <ele>502.196</ele>
        <time>2021-10-16T16:38:40Z</time>
      </trkpt>
      <trkpt lat="38.489725" lon="-5.130413">
        <ele>503.281</ele>
        <time>2021-10-16T16:38:42Z</time>
      </trkpt>
      <trkpt lat="38.489584" lon="-5.130254">
        <ele>502.950</ele>
        <time>2021-10-16T16:38:43Z</time>
      </trkpt>
      <trkpt lat="38.489442" lon="-5.130097">
        <ele>503.112</ele>
        <time>2021-10-16T16:38:44Z</time>
      </trkpt>
      <trkpt lat="38.489171" lon="-5.129803">
        <ele>504.589</ele>
        <time>2021-10-16T16:38:46Z</time>
      </trkpt>
      <trkpt lat="38.489032" lon="-5.129652">
        <ele>505.123</ele>
        <time>2021-10-16T16:38:47Z</time>
      </trkpt>
      <trkpt lat="38.488749" lon="-5.129343">
        <ele>505.283</ele>
        <time>2021-10-16T16:38:49Z</time>
      </trkpt>
      <trkpt lat="38.488602" lon="-5.129177">
        <ele>505.011</ele>
        <time>2021-10-16T16:38:50Z</time>
      </trkpt>
      <trkpt lat="38.488316" lon="-5.128856">
        <ele>505.008</ele>
        <time>2021-10-16T16:38:52Z</time>
      </trkpt>
      <trkpt lat="38.488015" lon="-5.128526">
        <ele>505.630</ele>
        <time>2021-10-16T16:38:54Z</time>
      </trkpt>
      <trkpt lat="38.487703" lon="-5.128180">
        <ele>505.278</ele>
        <time>2021-10-16T16:38:56Z</time>
      </trkpt>
      <trkpt lat="38.487391" lon="-5.127839">
        <ele>505.117</ele>
        <time>2021-10-16T16:38:58Z</time>
      </trkpt>
      <trkpt lat="38.487067" lon="-5.127483">
        <ele>505.441</ele>
        <time>2021-10-16T16:39:00Z</time>
      </trkpt>
      <trkpt lat="38.486735" lon="-5.127116">
        <ele>504.236</ele>
        <time>2021-10-16T16:39:02Z</time>
      </trkpt>
      <trkpt lat="38.486402" lon="-5.126754">
        <ele>505.255</ele>
        <time>2021-10-16T16:39:04Z</time>
      </trkpt>
      <trkpt lat="38.486051" lon="-5.126371">
        <ele>504.127</ele>
        <time>2021-10-16T16:39:06Z</time>
      </trkpt>
      <trkpt lat="38.485874" lon="-5.126172">
        <ele>504.174</ele>
        <time>2021-10-16T16:39:07Z</time>
      </trkpt>
      <trkpt lat="38.485692" lon="-5.125968">
        <ele>504.526</ele>
        <time>2021-10-16T16:39:08Z</time>
      </trkpt>
      <trkpt lat="38.485341" lon="-5.125581">
        <ele>503.847</ele>
        <time>2021-10-16T16:39:10Z</time>
      </trkpt>
      <trkpt lat="38.484977" lon="-5.125187">
        <ele>503.011</ele>
        <time>2021-10-16T16:39:12Z</time>
      </trkpt>
      <trkpt lat="38.484643" lon="-5.124826">
        <ele>503.108</ele>
        <time>2021-10-16T16:39:14Z</time>
      </trkpt>
      <trkpt lat="38.484351" lon="-5.124501">
        <ele>503.670</ele>
        <time>2021-10-16T16:39:16Z</time>
      </trkpt>
      <trkpt lat="38.484196" lon="-5.124326">
        <ele>504.178</ele>
        <time>2021-10-16T16:39:17Z</time>
      </trkpt>
      <trkpt lat="38.483871" lon="-5.123966">
        <ele>504.777</ele>
        <time>2021-10-16T16:39:19Z</time>
      </trkpt>
      <trkpt lat="38.483698" lon="-5.123775">
        <ele>505.141</ele>
        <time>2021-10-16T16:39:20Z</time>
      </trkpt>
      <trkpt lat="38.483357" lon="-5.123399">
        <ele>505.616</ele>
        <time>2021-10-16T16:39:22Z</time>
      </trkpt>
      <trkpt lat="38.483007" lon="-5.123014">
        <ele>505.175</ele>
        <time>2021-10-16T16:39:24Z</time>
      </trkpt>
      <trkpt lat="38.482673" lon="-5.122649">
        <ele>505.637</ele>
        <time>2021-10-16T16:39:26Z</time>
      </trkpt>
      <trkpt lat="38.482349" lon="-5.122293">
        <ele>506.024</ele>
        <time>2021-10-16T16:39:28Z</time>
      </trkpt>
      <trkpt lat="38.482177" lon="-5.122106">
        <ele>505.422</ele>
        <time>2021-10-16T16:39:29Z</time>
      </trkpt>
      <trkpt lat="38.481836" lon="-5.121732">
        <ele>505.662</ele>
        <time>2021-10-16T16:39:31Z</time>
      </trkpt>
      <trkpt lat="38.481668" lon="-5.121542">
        <ele>505.808</ele>
        <time>2021-10-16T16:39:32Z</time>
      </trkpt>
      <trkpt lat="38.481348" lon="-5.121184">
        <ele>504.408</ele>
        <time>2021-10-16T16:39:34Z</time>
      </trkpt>
      <trkpt lat="38.481174" lon="-5.120994">
        <ele>504.970</ele>
        <time>2021-10-16T16:39:35Z</time>
      </trkpt>
      <trkpt lat="38.480820" lon="-5.120606">
        <ele>504.768</ele>
        <time>2021-10-16T16:39:37Z</time>
      </trkpt>
      <trkpt lat="38.480635" lon="-5.120396">
        <ele>504.497</ele>
        <time>2021-10-16T16:39:38Z</time>
      </trkpt>
      <trkpt lat="38.480277" lon="-5.119998">
        <ele>504.381</ele>
        <time>2021-10-16T16:39:40Z</time>
      </trkpt>
      <trkpt lat="38.480090" lon="-5.119793">
        <ele>503.366</ele>
        <time>2021-10-16T16:39:41Z</time>
      </trkpt>
      <trkpt lat="38.479713" lon="-5.119380">
        <ele>503.575</ele>
        <time>2021-10-16T16:39:43Z</time>
      </trkpt>
      <trkpt lat="38.479518" lon="-5.119166">
        <ele>503.257</ele>
        <time>2021-10-16T16:39:44Z</time>
      </trkpt>
      <trkpt lat="38.479146" lon="-5.118755">
        <ele>503.144</ele>
        <time>2021-10-16T16:39:46Z</time>
      </trkpt>
      <trkpt lat="38.478771" lon="-5.118335">
        <ele>502.287</ele>
        <time>2021-10-16T16:39:48Z</time>
      </trkpt>
      <trkpt lat="38.478582" lon="-5.118126">
        <ele>502.142</ele>
        <time>2021-10-16T16:39:49Z</time>
      </trkpt>
      <trkpt lat="38.478389" lon="-5.117912">
        <ele>501.726</ele>
        <time>2021-10-16T16:39:50Z</time>
      </trkpt>
      <trkpt lat="38.478015" lon="-5.117503">
        <ele>501.508</ele>
        <time>2021-10-16T16:39:52Z</time>
      </trkpt>
      <trkpt lat="38.477821" lon="-5.117291">
        <ele>500.936</ele>
        <time>2021-10-16T16:39:53Z</time>
      </trkpt>
      <trkpt lat="38.477442" lon="-5.116867">
        <ele>500.264</ele>
        <time>2021-10-16T16:39:55Z</time>
      </trkpt>
      <trkpt lat="38.477239" lon="-5.116643">
        <ele>500.293</ele>
        <time>2021-10-16T16:39:56Z</time>
      </trkpt>
      <trkpt lat="38.476861" lon="-5.116215">
        <ele>499.657</ele>
        <time>2021-10-16T16:39:58Z</time>
      </trkpt>
      <trkpt lat="38.476670" lon="-5.116002">
        <ele>499.582</ele>
        <time>2021-10-16T16:39:59Z</time>
      </trkpt>
      <trkpt lat="38.476295" lon="-5.115588">
        <ele>499.351</ele>
        <time>2021-10-16T16:40:01Z</time>
      </trkpt>
      <trkpt lat="38.476109" lon="-5.115385">
        <ele>499.523</ele>
        <time>2021-10-16T16:40:02Z</time>
      </trkpt>
      <trkpt lat="38.475748" lon="-5.114983">
        <ele>499.510</ele>
        <time>2021-10-16T16:40:04Z</time>
      </trkpt>
      <trkpt lat="38.475384" lon="-5.114582">
        <ele>499.856</ele>
        <time>2021-10-16T16:40:06Z</time>
      </trkpt>
      <trkpt lat="38.475012" lon="-5.114177">
        <ele>499.859</ele>
        <time>2021-10-16T16:40:08Z</time>
      </trkpt>
      <trkpt lat="38.474649" lon="-5.113782">
        <ele>500.414</ele>
        <time>2021-10-16T16:40:10Z</time>
      </trkpt>
      <trkpt lat="38.474464" lon="-5.113580">
        <ele>500.808</ele>
        <time>2021-10-16T16:40:11Z</time>
      </trkpt>
      <trkpt lat="38.474282" lon="-5.113375">
        <ele>501.283</ele>
        <time>2021-10-16T16:40:12Z</time>
      </trkpt>
      <trkpt lat="38.474102" lon="-5.113172">
        <ele>501.391</ele>
        <time>2021-10-16T16:40:13Z</time>
      </trkpt>
      <trkpt lat="38.473918" lon="-5.112966">
        <ele>501.340</ele>
        <time>2021-10-16T16:40:14Z</time>
      </trkpt>
      <trkpt lat="38.473578" lon="-5.112597">
        <ele>501.674</ele>
        <time>2021-10-16T16:40:16Z</time>
      </trkpt>
      <trkpt lat="38.473408" lon="-5.112410">
        <ele>501.949</ele>
        <time>2021-10-16T16:40:17Z</time>
      </trkpt>
      <trkpt lat="38.473234" lon="-5.112219">
        <ele>502.088</ele>
        <time>2021-10-16T16:40:18Z</time>
      </trkpt>
      <trkpt lat="38.472879" lon="-5.111831">
        <ele>502.760</ele>
        <time>2021-10-16T16:40:20Z</time>
      </trkpt>
      <trkpt lat="38.472528" lon="-5.111441">
        <ele>503.487</ele>
        <time>2021-10-16T16:40:22Z</time>
      </trkpt>
      <trkpt lat="38.472343" lon="-5.111240">
        <ele>504.283</ele>
        <time>2021-10-16T16:40:23Z</time>
      </trkpt>
      <trkpt lat="38.471964" lon="-5.110829">
        <ele>505.225</ele>
        <time>2021-10-16T16:40:25Z</time>
      </trkpt>
      <trkpt lat="38.471764" lon="-5.110611">
        <ele>505.417</ele>
        <time>2021-10-16T16:40:26Z</time>
      </trkpt>
      <trkpt lat="38.471372" lon="-5.110179">
        <ele>505.508</ele>
        <time>2021-10-16T16:40:28Z</time>
      </trkpt>
      <trkpt lat="38.470967" lon="-5.109726">
        <ele>505.966</ele>
        <time>2021-10-16T16:40:30Z</time>
      </trkpt>
      <trkpt lat="38.470758" lon="-5.109495">
        <ele>506.784</ele>
        <time>2021-10-16T16:40:31Z</time>
      </trkpt>
      <trkpt lat="38.470545" lon="-5.109255">
        <ele>507.333</ele>
        <time>2021-10-16T16:40:32Z</time>
      </trkpt>
      <trkpt lat="38.470133" lon="-5.108800">
        <ele>508.217</ele>
        <time>2021-10-16T16:40:34Z</time>
      </trkpt>
      <trkpt lat="38.469714" lon="-5.108332">
        <ele>509.062</ele>
        <time>2021-10-16T16:40:36Z</time>
      </trkpt>
      <trkpt lat="38.469300" lon="-5.107883">
        <ele>509.131</ele>
        <time>2021-10-16T16:40:38Z</time>
      </trkpt>
      <trkpt lat="38.468919" lon="-5.107462">
        <ele>509.563</ele>
        <time>2021-10-16T16:40:40Z</time>
      </trkpt>
      <trkpt lat="38.468731" lon="-5.107253">
        <ele>509.550</ele>
        <time>2021-10-16T16:40:41Z</time>
      </trkpt>
      <trkpt lat="38.468543" lon="-5.107047">
        <ele>510.318</ele>
        <time>2021-10-16T16:40:42Z</time>
      </trkpt>
      <trkpt lat="38.468174" lon="-5.106632">
        <ele>511.498</ele>
        <time>2021-10-16T16:40:44Z</time>
      </trkpt>
      <trkpt lat="38.467819" lon="-5.106236">
        <ele>511.317</ele>
        <time>2021-10-16T16:40:46Z</time>
      </trkpt>
      <trkpt lat="38.467634" lon="-5.106037">
        <ele>511.408</ele>
        <time>2021-10-16T16:40:47Z</time>
      </trkpt>
      <trkpt lat="38.467451" lon="-5.105839">
        <ele>511.389</ele>
        <time>2021-10-16T16:40:48Z</time>
      </trkpt>
      <trkpt lat="38.467081" lon="-5.105440">
        <ele>512.177</ele>
        <time>2021-10-16T16:40:50Z</time>
      </trkpt>
      <trkpt lat="38.466725" lon="-5.105055">
        <ele>512.526</ele>
        <time>2021-10-16T16:40:52Z</time>
      </trkpt>
      <trkpt lat="38.466375" lon="-5.104663">
        <ele>512.750</ele>
        <time>2021-10-16T16:40:54Z</time>
      </trkpt>
      <trkpt lat="38.466203" lon="-5.104466">
        <ele>512.475</ele>
        <time>2021-10-16T16:40:55Z</time>
      </trkpt>
      <trkpt lat="38.466031" lon="-5.104270">
        <ele>512.234</ele>
        <time>2021-10-16T16:40:56Z</time>
      </trkpt>
      <trkpt lat="38.465687" lon="-5.103882">
        <ele>512.616</ele>
        <time>2021-10-16T16:40:58Z</time>
      </trkpt>
      <trkpt lat="38.465330" lon="-5.103496">
        <ele>512.443</ele>
        <time>2021-10-16T16:41:00Z</time>
      </trkpt>
      <trkpt lat="38.465150" lon="-5.103303">
        <ele>512.443</ele>
        <time>2021-10-16T16:41:01Z</time>
      </trkpt>
      <trkpt lat="38.464967" lon="-5.103106">
        <ele>512.664</ele>
        <time>2021-10-16T16:41:02Z</time>
      </trkpt>
      <trkpt lat="38.464605" lon="-5.102704">
        <ele>512.710</ele>
        <time>2021-10-16T16:41:04Z</time>
      </trkpt>
      <trkpt lat="38.464414" lon="-5.102492">
        <ele>512.608</ele>
        <time>2021-10-16T16:41:05Z</time>
      </trkpt>
      <trkpt lat="38.464220" lon="-5.102275">
        <ele>512.812</ele>
        <time>2021-10-16T16:41:06Z</time>
      </trkpt>
      <trkpt lat="38.463821" lon="-5.101834">
        <ele>512.920</ele>
        <time>2021-10-16T16:41:08Z</time>
      </trkpt>
      <trkpt lat="38.463427" lon="-5.101390">
        <ele>513.299</ele>
        <time>2021-10-16T16:41:10Z</time>
      </trkpt>
      <trkpt lat="38.463220" lon="-5.101157">
        <ele>513.353</ele>
        <time>2021-10-16T16:41:11Z</time>
      </trkpt>
      <trkpt lat="38.462805" lon="-5.100694">
        <ele>513.168</ele>
        <time>2021-10-16T16:41:13Z</time>
      </trkpt>
      <trkpt lat="38.462591" lon="-5.100455">
        <ele>513.017</ele>
        <time>2021-10-16T16:41:14Z</time>
      </trkpt>
      <trkpt lat="38.462191" lon="-5.100011">
        <ele>512.219</ele>
        <time>2021-10-16T16:41:16Z</time>
      </trkpt>
      <trkpt lat="38.461988" lon="-5.099787">
        <ele>511.966</ele>
        <time>2021-10-16T16:41:17Z</time>
      </trkpt>
      <trkpt lat="38.461585" lon="-5.099349">
        <ele>510.968</ele>
        <time>2021-10-16T16:41:19Z</time>
      </trkpt>
      <trkpt lat="38.461377" lon="-5.099121">
        <ele>510.742</ele>
        <time>2021-10-16T16:41:20Z</time>
      </trkpt>
      <trkpt lat="38.460978" lon="-5.098676">
        <ele>510.226</ele>
        <time>2021-10-16T16:41:22Z</time>
      </trkpt>
      <trkpt lat="38.460771" lon="-5.098451">
        <ele>509.508</ele>
        <time>2021-10-16T16:41:23Z</time>
      </trkpt>
      <trkpt lat="38.460567" lon="-5.098222">
        <ele>509.344</ele>
        <time>2021-10-16T16:41:24Z</time>
      </trkpt>
      <trkpt lat="38.460156" lon="-5.097761">
        <ele>509.662</ele>
        <time>2021-10-16T16:41:26Z</time>
      </trkpt>
      <trkpt lat="38.459765" lon="-5.097332">
        <ele>510.091</ele>
        <time>2021-10-16T16:41:28Z</time>
      </trkpt>
      <trkpt lat="38.459379" lon="-5.096899">
        <ele>510.195</ele>
        <time>2021-10-16T16:41:30Z</time>
      </trkpt>
      <trkpt lat="38.459185" lon="-5.096682">
        <ele>510.130</ele>
        <time>2021-10-16T16:41:31Z</time>
      </trkpt>
      <trkpt lat="38.458985" lon="-5.096460">
        <ele>509.889</ele>
        <time>2021-10-16T16:41:32Z</time>
      </trkpt>
      <trkpt lat="38.458594" lon="-5.096033">
        <ele>510.741</ele>
        <time>2021-10-16T16:41:34Z</time>
      </trkpt>
      <trkpt lat="38.458392" lon="-5.095812">
        <ele>510.998</ele>
        <time>2021-10-16T16:41:35Z</time>
      </trkpt>
      <trkpt lat="38.457990" lon="-5.095365">
        <ele>511.512</ele>
        <time>2021-10-16T16:41:37Z</time>
      </trkpt>
      <trkpt lat="38.457781" lon="-5.095136">
        <ele>511.832</ele>
        <time>2021-10-16T16:41:38Z</time>
      </trkpt>
      <trkpt lat="38.457378" lon="-5.094684">
        <ele>512.805</ele>
        <time>2021-10-16T16:41:40Z</time>
      </trkpt>
      <trkpt lat="38.457172" lon="-5.094454">
        <ele>513.008</ele>
        <time>2021-10-16T16:41:41Z</time>
      </trkpt>
      <trkpt lat="38.456759" lon="-5.094003">
        <ele>511.259</ele>
        <time>2021-10-16T16:41:43Z</time>
      </trkpt>
      <trkpt lat="38.456548" lon="-5.093773">
        <ele>510.637</ele>
        <time>2021-10-16T16:41:44Z</time>
      </trkpt>
      <trkpt lat="38.456154" lon="-5.093328">
        <ele>510.136</ele>
        <time>2021-10-16T16:41:46Z</time>
      </trkpt>
      <trkpt lat="38.455954" lon="-5.093101">
        <ele>509.630</ele>
        <time>2021-10-16T16:41:47Z</time>
      </trkpt>
      <trkpt lat="38.455753" lon="-5.092875">
        <ele>509.185</ele>
        <time>2021-10-16T16:41:48Z</time>
      </trkpt>
      <trkpt lat="38.455342" lon="-5.092416">
        <ele>507.844</ele>
        <time>2021-10-16T16:41:50Z</time>
      </trkpt>
      <trkpt lat="38.454935" lon="-5.091975">
        <ele>507.026</ele>
        <time>2021-10-16T16:41:52Z</time>
      </trkpt>
      <trkpt lat="38.454731" lon="-5.091746">
        <ele>506.593</ele>
        <time>2021-10-16T16:41:53Z</time>
      </trkpt>
      <trkpt lat="38.454526" lon="-5.091518">
        <ele>506.356</ele>
        <time>2021-10-16T16:41:54Z</time>
      </trkpt>
      <trkpt lat="38.454110" lon="-5.091053">
        <ele>504.759</ele>
        <time>2021-10-16T16:41:56Z</time>
      </trkpt>
      <trkpt lat="38.453720" lon="-5.090626">
        <ele>503.814</ele>
        <time>2021-10-16T16:41:58Z</time>
      </trkpt>
      <trkpt lat="38.453532" lon="-5.090421">
        <ele>503.508</ele>
        <time>2021-10-16T16:41:59Z</time>
      </trkpt>
      <trkpt lat="38.453168" lon="-5.090013">
        <ele>503.093</ele>
        <time>2021-10-16T16:42:01Z</time>
      </trkpt>
      <trkpt lat="38.452984" lon="-5.089806">
        <ele>502.851</ele>
        <time>2021-10-16T16:42:02Z</time>
      </trkpt>
      <trkpt lat="38.452629" lon="-5.089407">
        <ele>503.080</ele>
        <time>2021-10-16T16:42:04Z</time>
      </trkpt>
      <trkpt lat="38.452450" lon="-5.089198">
        <ele>502.324</ele>
        <time>2021-10-16T16:42:05Z</time>
      </trkpt>
      <trkpt lat="38.452273" lon="-5.088988">
        <ele>502.039</ele>
        <time>2021-10-16T16:42:06Z</time>
      </trkpt>
      <trkpt lat="38.452101" lon="-5.088771">
        <ele>502.158</ele>
        <time>2021-10-16T16:42:07Z</time>
      </trkpt>
      <trkpt lat="38.451933" lon="-5.088552">
        <ele>502.220</ele>
        <time>2021-10-16T16:42:08Z</time>
      </trkpt>
      <trkpt lat="38.451613" lon="-5.088126">
        <ele>501.537</ele>
        <time>2021-10-16T16:42:10Z</time>
      </trkpt>
      <trkpt lat="38.451449" lon="-5.087902">
        <ele>501.425</ele>
        <time>2021-10-16T16:42:11Z</time>
      </trkpt>
      <trkpt lat="38.451121" lon="-5.087429">
        <ele>500.526</ele>
        <time>2021-10-16T16:42:13Z</time>
      </trkpt>
      <trkpt lat="38.450945" lon="-5.087177">
        <ele>499.908</ele>
        <time>2021-10-16T16:42:14Z</time>
      </trkpt>
      <trkpt lat="38.450597" lon="-5.086691">
        <ele>498.508</ele>
        <time>2021-10-16T16:42:16Z</time>
      </trkpt>
      <trkpt lat="38.450235" lon="-5.086175">
        <ele>496.690</ele>
        <time>2021-10-16T16:42:18Z</time>
      </trkpt>
      <trkpt lat="38.449861" lon="-5.085639">
        <ele>494.488</ele>
        <time>2021-10-16T16:42:20Z</time>
      </trkpt>
      <trkpt lat="38.449495" lon="-5.085113">
        <ele>492.927</ele>
        <time>2021-10-16T16:42:22Z</time>
      </trkpt>
      <trkpt lat="38.449304" lon="-5.084850">
        <ele>492.471</ele>
        <time>2021-10-16T16:42:23Z</time>
      </trkpt>
      <trkpt lat="38.448934" lon="-5.084339">
        <ele>490.826</ele>
        <time>2021-10-16T16:42:25Z</time>
      </trkpt>
      <trkpt lat="38.448748" lon="-5.084070">
        <ele>490.175</ele>
        <time>2021-10-16T16:42:26Z</time>
      </trkpt>
      <trkpt lat="38.448403" lon="-5.083574">
        <ele>488.627</ele>
        <time>2021-10-16T16:42:28Z</time>
      </trkpt>
      <trkpt lat="38.448227" lon="-5.083323">
        <ele>488.144</ele>
        <time>2021-10-16T16:42:29Z</time>
      </trkpt>
      <trkpt lat="38.447874" lon="-5.082832">
        <ele>486.871</ele>
        <time>2021-10-16T16:42:31Z</time>
      </trkpt>
      <trkpt lat="38.447698" lon="-5.082579">
        <ele>485.541</ele>
        <time>2021-10-16T16:42:32Z</time>
      </trkpt>
      <trkpt lat="38.447358" lon="-5.082095">
        <ele>484.615</ele>
        <time>2021-10-16T16:42:34Z</time>
      </trkpt>
      <trkpt lat="38.447180" lon="-5.081849">
        <ele>483.408</ele>
        <time>2021-10-16T16:42:35Z</time>
      </trkpt>
      <trkpt lat="38.446833" lon="-5.081358">
        <ele>482.315</ele>
        <time>2021-10-16T16:42:37Z</time>
      </trkpt>
      <trkpt lat="38.446654" lon="-5.081100">
        <ele>481.723</ele>
        <time>2021-10-16T16:42:38Z</time>
      </trkpt>
      <trkpt lat="38.446305" lon="-5.080607">
        <ele>480.222</ele>
        <time>2021-10-16T16:42:40Z</time>
      </trkpt>
      <trkpt lat="38.445942" lon="-5.080101">
        <ele>480.086</ele>
        <time>2021-10-16T16:42:42Z</time>
      </trkpt>
      <trkpt lat="38.445577" lon="-5.079584">
        <ele>479.661</ele>
        <time>2021-10-16T16:42:44Z</time>
      </trkpt>
      <trkpt lat="38.445217" lon="-5.079076">
        <ele>479.610</ele>
        <time>2021-10-16T16:42:46Z</time>
      </trkpt>
      <trkpt lat="38.444846" lon="-5.078558">
        <ele>478.642</ele>
        <time>2021-10-16T16:42:48Z</time>
      </trkpt>
      <trkpt lat="38.444471" lon="-5.078032">
        <ele>478.569</ele>
        <time>2021-10-16T16:42:50Z</time>
      </trkpt>
      <trkpt lat="38.444117" lon="-5.077523">
        <ele>477.482</ele>
        <time>2021-10-16T16:42:52Z</time>
      </trkpt>
      <trkpt lat="38.443933" lon="-5.077260">
        <ele>476.743</ele>
        <time>2021-10-16T16:42:53Z</time>
      </trkpt>
      <trkpt lat="38.443576" lon="-5.076752">
        <ele>476.017</ele>
        <time>2021-10-16T16:42:55Z</time>
      </trkpt>
      <trkpt lat="38.443389" lon="-5.076484">
        <ele>475.508</ele>
        <time>2021-10-16T16:42:56Z</time>
      </trkpt>
      <trkpt lat="38.443042" lon="-5.075986">
        <ele>475.226</ele>
        <time>2021-10-16T16:42:58Z</time>
      </trkpt>
      <trkpt lat="38.442862" lon="-5.075728">
        <ele>475.534</ele>
        <time>2021-10-16T16:42:59Z</time>
      </trkpt>
      <trkpt lat="38.442682" lon="-5.075476">
        <ele>474.863</ele>
        <time>2021-10-16T16:43:00Z</time>
      </trkpt>
      <trkpt lat="38.442502" lon="-5.075224">
        <ele>474.367</ele>
        <time>2021-10-16T16:43:01Z</time>
      </trkpt>
      <trkpt lat="38.442318" lon="-5.074966">
        <ele>474.142</ele>
        <time>2021-10-16T16:43:02Z</time>
      </trkpt>
      <trkpt lat="38.441970" lon="-5.074472">
        <ele>473.041</ele>
        <time>2021-10-16T16:43:04Z</time>
      </trkpt>
      <trkpt lat="38.441799" lon="-5.074226">
        <ele>473.273</ele>
        <time>2021-10-16T16:43:05Z</time>
      </trkpt>
      <trkpt lat="38.441631" lon="-5.073986">
        <ele>473.240</ele>
        <time>2021-10-16T16:43:06Z</time>
      </trkpt>
      <trkpt lat="38.441290" lon="-5.073512">
        <ele>473.621</ele>
        <time>2021-10-16T16:43:08Z</time>
      </trkpt>
      <trkpt lat="38.440965" lon="-5.073057">
        <ele>473.341</ele>
        <time>2021-10-16T16:43:10Z</time>
      </trkpt>
      <trkpt lat="38.440803" lon="-5.072824">
        <ele>473.105</ele>
        <time>2021-10-16T16:43:11Z</time>
      </trkpt>
      <trkpt lat="38.440640" lon="-5.072591">
        <ele>473.008</ele>
        <time>2021-10-16T16:43:12Z</time>
      </trkpt>
      <trkpt lat="38.440309" lon="-5.072128">
        <ele>473.550</ele>
        <time>2021-10-16T16:43:14Z</time>
      </trkpt>
      <trkpt lat="38.439985" lon="-5.071668">
        <ele>473.218</ele>
        <time>2021-10-16T16:43:16Z</time>
      </trkpt>
      <trkpt lat="38.439820" lon="-5.071431">
        <ele>472.987</ele>
        <time>2021-10-16T16:43:17Z</time>
      </trkpt>
      <trkpt lat="38.439488" lon="-5.070957">
        <ele>473.141</ele>
        <time>2021-10-16T16:43:19Z</time>
      </trkpt>
      <trkpt lat="38.439314" lon="-5.070716">
        <ele>473.016</ele>
        <time>2021-10-16T16:43:20Z</time>
      </trkpt>
      <trkpt lat="38.438979" lon="-5.070252">
        <ele>472.345</ele>
        <time>2021-10-16T16:43:22Z</time>
      </trkpt>
      <trkpt lat="38.438636" lon="-5.069772">
        <ele>471.737</ele>
        <time>2021-10-16T16:43:24Z</time>
      </trkpt>
      <trkpt lat="38.438464" lon="-5.069529">
        <ele>471.314</ele>
        <time>2021-10-16T16:43:25Z</time>
      </trkpt>
      <trkpt lat="38.438288" lon="-5.069276">
        <ele>471.263</ele>
        <time>2021-10-16T16:43:26Z</time>
      </trkpt>
      <trkpt lat="38.437945" lon="-5.068786">
        <ele>470.044</ele>
        <time>2021-10-16T16:43:28Z</time>
      </trkpt>
      <trkpt lat="38.437596" lon="-5.068297">
        <ele>467.718</ele>
        <time>2021-10-16T16:43:30Z</time>
      </trkpt>
      <trkpt lat="38.437270" lon="-5.067834">
        <ele>465.808</ele>
        <time>2021-10-16T16:43:32Z</time>
      </trkpt>
      <trkpt lat="38.436969" lon="-5.067412">
        <ele>463.254</ele>
        <time>2021-10-16T16:43:34Z</time>
      </trkpt>
      <trkpt lat="38.436666" lon="-5.066976">
        <ele>460.452</ele>
        <time>2021-10-16T16:43:36Z</time>
      </trkpt>
      <trkpt lat="38.436342" lon="-5.066527">
        <ele>458.561</ele>
        <time>2021-10-16T16:43:38Z</time>
      </trkpt>
      <trkpt lat="38.436013" lon="-5.066068">
        <ele>458.135</ele>
        <time>2021-10-16T16:43:40Z</time>
      </trkpt>
      <trkpt lat="38.435677" lon="-5.065587">
        <ele>458.680</ele>
        <time>2021-10-16T16:43:42Z</time>
      </trkpt>
      <trkpt lat="38.435330" lon="-5.065094">
        <ele>461.289</ele>
        <time>2021-10-16T16:43:44Z</time>
      </trkpt>
      <trkpt lat="38.434987" lon="-5.064620">
        <ele>463.351</ele>
        <time>2021-10-16T16:43:46Z</time>
      </trkpt>
      <trkpt lat="38.434812" lon="-5.064375">
        <ele>464.388</ele>
        <time>2021-10-16T16:43:47Z</time>
      </trkpt>
      <trkpt lat="38.434640" lon="-5.064127">
        <ele>465.645</ele>
        <time>2021-10-16T16:43:48Z</time>
      </trkpt>
      <trkpt lat="38.434289" lon="-5.063628">
        <ele>467.647</ele>
        <time>2021-10-16T16:43:50Z</time>
      </trkpt>
      <trkpt lat="38.433944" lon="-5.063138">
        <ele>469.811</ele>
        <time>2021-10-16T16:43:52Z</time>
      </trkpt>
      <trkpt lat="38.433766" lon="-5.062882">
        <ele>471.408</ele>
        <time>2021-10-16T16:43:53Z</time>
      </trkpt>
      <trkpt lat="38.433409" lon="-5.062371">
        <ele>472.462</ele>
        <time>2021-10-16T16:43:55Z</time>
      </trkpt>
      <trkpt lat="38.433224" lon="-5.062104">
        <ele>473.580</ele>
        <time>2021-10-16T16:43:56Z</time>
      </trkpt>
      <trkpt lat="38.432867" lon="-5.061592">
        <ele>474.779</ele>
        <time>2021-10-16T16:43:58Z</time>
      </trkpt>
      <trkpt lat="38.432495" lon="-5.061059">
        <ele>476.953</ele>
        <time>2021-10-16T16:44:00Z</time>
      </trkpt>
      <trkpt lat="38.432306" lon="-5.060791">
        <ele>477.518</ele>
        <time>2021-10-16T16:44:01Z</time>
      </trkpt>
      <trkpt lat="38.432110" lon="-5.060519">
        <ele>478.597</ele>
        <time>2021-10-16T16:44:02Z</time>
      </trkpt>
      <trkpt lat="38.431740" lon="-5.059987">
        <ele>479.979</ele>
        <time>2021-10-16T16:44:04Z</time>
      </trkpt>
      <trkpt lat="38.431371" lon="-5.059457">
        <ele>480.716</ele>
        <time>2021-10-16T16:44:06Z</time>
      </trkpt>
      <trkpt lat="38.431197" lon="-5.059209">
        <ele>481.515</ele>
        <time>2021-10-16T16:44:07Z</time>
      </trkpt>
      <trkpt lat="38.431024" lon="-5.058967">
        <ele>482.265</ele>
        <time>2021-10-16T16:44:08Z</time>
      </trkpt>
      <trkpt lat="38.430695" lon="-5.058498">
        <ele>483.811</ele>
        <time>2021-10-16T16:44:10Z</time>
      </trkpt>
      <trkpt lat="38.430527" lon="-5.058258">
        <ele>484.308</ele>
        <time>2021-10-16T16:44:11Z</time>
      </trkpt>
      <trkpt lat="38.430182" lon="-5.057773">
        <ele>485.529</ele>
        <time>2021-10-16T16:44:13Z</time>
      </trkpt>
      <trkpt lat="38.430003" lon="-5.057522">
        <ele>485.937</ele>
        <time>2021-10-16T16:44:14Z</time>
      </trkpt>
      <trkpt lat="38.429661" lon="-5.057042">
        <ele>486.826</ele>
        <time>2021-10-16T16:44:16Z</time>
      </trkpt>
      <trkpt lat="38.429488" lon="-5.056799">
        <ele>487.130</ele>
        <time>2021-10-16T16:44:17Z</time>
      </trkpt>
      <trkpt lat="38.429151" lon="-5.056318">
        <ele>488.035</ele>
        <time>2021-10-16T16:44:19Z</time>
      </trkpt>
      <trkpt lat="38.428976" lon="-5.056067">
        <ele>488.354</ele>
        <time>2021-10-16T16:44:20Z</time>
      </trkpt>
      <trkpt lat="38.428642" lon="-5.055599">
        <ele>489.736</ele>
        <time>2021-10-16T16:44:22Z</time>
      </trkpt>
      <trkpt lat="38.428471" lon="-5.055361">
        <ele>489.943</ele>
        <time>2021-10-16T16:44:23Z</time>
      </trkpt>
      <trkpt lat="38.428135" lon="-5.054883">
        <ele>491.083</ele>
        <time>2021-10-16T16:44:25Z</time>
      </trkpt>
      <trkpt lat="38.427962" lon="-5.054638">
        <ele>491.425</ele>
        <time>2021-10-16T16:44:26Z</time>
      </trkpt>
      <trkpt lat="38.427629" lon="-5.054180">
        <ele>492.217</ele>
        <time>2021-10-16T16:44:28Z</time>
      </trkpt>
      <trkpt lat="38.427294" lon="-5.053704">
        <ele>492.908</ele>
        <time>2021-10-16T16:44:30Z</time>
      </trkpt>
      <trkpt lat="38.426953" lon="-5.053214">
        <ele>494.076</ele>
        <time>2021-10-16T16:44:32Z</time>
      </trkpt>
      <trkpt lat="38.426613" lon="-5.052737">
        <ele>494.424</ele>
        <time>2021-10-16T16:44:34Z</time>
      </trkpt>
      <trkpt lat="38.426261" lon="-5.052243">
        <ele>494.963</ele>
        <time>2021-10-16T16:44:36Z</time>
      </trkpt>
      <trkpt lat="38.425904" lon="-5.051736">
        <ele>496.737</ele>
        <time>2021-10-16T16:44:38Z</time>
      </trkpt>
      <trkpt lat="38.425556" lon="-5.051249">
        <ele>497.572</ele>
        <time>2021-10-16T16:44:40Z</time>
      </trkpt>
      <trkpt lat="38.425225" lon="-5.050784">
        <ele>498.631</ele>
        <time>2021-10-16T16:44:42Z</time>
      </trkpt>
      <trkpt lat="38.424931" lon="-5.050366">
        <ele>499.653</ele>
        <time>2021-10-16T16:44:44Z</time>
      </trkpt>
      <trkpt lat="38.424695" lon="-5.050034">
        <ele>500.980</ele>
        <time>2021-10-16T16:44:46Z</time>
      </trkpt>
      <trkpt lat="38.424596" lon="-5.049895">
        <ele>501.067</ele>
        <time>2021-10-16T16:44:47Z</time>
      </trkpt>
      <trkpt lat="38.424502" lon="-5.049765">
        <ele>501.281</ele>
        <time>2021-10-16T16:44:48Z</time>
      </trkpt>
      <trkpt lat="38.424328" lon="-5.049523">
        <ele>501.319</ele>
        <time>2021-10-16T16:44:50Z</time>
      </trkpt>
      <trkpt lat="38.424174" lon="-5.049302">
        <ele>502.408</ele>
        <time>2021-10-16T16:44:52Z</time>
      </trkpt>
      <trkpt lat="38.424037" lon="-5.049104">
        <ele>502.924</ele>
        <time>2021-10-16T16:44:54Z</time>
      </trkpt>
      <trkpt lat="38.423973" lon="-5.049015">
        <ele>502.912</ele>
        <time>2021-10-16T16:44:55Z</time>
      </trkpt>
      <trkpt lat="38.423911" lon="-5.048930">
        <ele>503.371</ele>
        <time>2021-10-16T16:44:56Z</time>
      </trkpt>
      <trkpt lat="38.423790" lon="-5.048754">
        <ele>503.345</ele>
        <time>2021-10-16T16:44:58Z</time>
      </trkpt>
      <trkpt lat="38.423648" lon="-5.048559">
        <ele>503.470</ele>
        <time>2021-10-16T16:45:00Z</time>
      </trkpt>
      <trkpt lat="38.423572" lon="-5.048453">
        <ele>503.429</ele>
        <time>2021-10-16T16:45:01Z</time>
      </trkpt>
      <trkpt lat="38.423492" lon="-5.048339">
        <ele>503.531</ele>
        <time>2021-10-16T16:45:02Z</time>
      </trkpt>
      <trkpt lat="38.423325" lon="-5.048103">
        <ele>504.158</ele>
        <time>2021-10-16T16:45:04Z</time>
      </trkpt>
      <trkpt lat="38.423239" lon="-5.047979">
        <ele>504.173</ele>
        <time>2021-10-16T16:45:05Z</time>
      </trkpt>
      <trkpt lat="38.423064" lon="-5.047733">
        <ele>505.185</ele>
        <time>2021-10-16T16:45:07Z</time>
      </trkpt>
      <trkpt lat="38.422970" lon="-5.047602">
        <ele>505.713</ele>
        <time>2021-10-16T16:45:08Z</time>
      </trkpt>
      <trkpt lat="38.422794" lon="-5.047345">
        <ele>506.708</ele>
        <time>2021-10-16T16:45:10Z</time>
      </trkpt>
      <trkpt lat="38.422702" lon="-5.047212">
        <ele>507.165</ele>
        <time>2021-10-16T16:45:11Z</time>
      </trkpt>
      <trkpt lat="38.422615" lon="-5.047087">
        <ele>508.293</ele>
        <time>2021-10-16T16:45:12Z</time>
      </trkpt>
      <trkpt lat="38.422533" lon="-5.046973">
        <ele>508.862</ele>
        <time>2021-10-16T16:45:13Z</time>
      </trkpt>
      <trkpt lat="38.422452" lon="-5.046864">
        <ele>508.976</ele>
        <time>2021-10-16T16:45:14Z</time>
      </trkpt>
      <trkpt lat="38.422306" lon="-5.046664">
        <ele>509.271</ele>
        <time>2021-10-16T16:45:16Z</time>
      </trkpt>
      <trkpt lat="38.422137" lon="-5.046441">
        <ele>508.420</ele>
        <time>2021-10-16T16:45:18Z</time>
      </trkpt>
      <trkpt lat="38.422048" lon="-5.046311">
        <ele>508.692</ele>
        <time>2021-10-16T16:45:19Z</time>
      </trkpt>
      <trkpt lat="38.421953" lon="-5.046174">
        <ele>508.849</ele>
        <time>2021-10-16T16:45:20Z</time>
      </trkpt>
      <trkpt lat="38.421770" lon="-5.045906">
        <ele>509.424</ele>
        <time>2021-10-16T16:45:22Z</time>
      </trkpt>
      <trkpt lat="38.421574" lon="-5.045626">
        <ele>509.604</ele>
        <time>2021-10-16T16:45:24Z</time>
      </trkpt>
      <trkpt lat="38.421389" lon="-5.045370">
        <ele>509.814</ele>
        <time>2021-10-16T16:45:26Z</time>
      </trkpt>
      <trkpt lat="38.421231" lon="-5.045145">
        <ele>510.808</ele>
        <time>2021-10-16T16:45:28Z</time>
      </trkpt>
      <trkpt lat="38.421092" lon="-5.044941">
        <ele>511.240</ele>
        <time>2021-10-16T16:45:30Z</time>
      </trkpt>
      <trkpt lat="38.420942" lon="-5.044722">
        <ele>511.398</ele>
        <time>2021-10-16T16:45:32Z</time>
      </trkpt>
      <trkpt lat="38.420787" lon="-5.044480">
        <ele>511.077</ele>
        <time>2021-10-16T16:45:34Z</time>
      </trkpt>
      <trkpt lat="38.420622" lon="-5.044219">
        <ele>510.531</ele>
        <time>2021-10-16T16:45:36Z</time>
      </trkpt>
      <trkpt lat="38.420447" lon="-5.043932">
        <ele>511.766</ele>
        <time>2021-10-16T16:45:38Z</time>
      </trkpt>
      <trkpt lat="38.420266" lon="-5.043622">
        <ele>511.675</ele>
        <time>2021-10-16T16:45:40Z</time>
      </trkpt>
      <trkpt lat="38.420174" lon="-5.043456">
        <ele>511.897</ele>
        <time>2021-10-16T16:45:41Z</time>
      </trkpt>
      <trkpt lat="38.420086" lon="-5.043294">
        <ele>511.664</ele>
        <time>2021-10-16T16:45:42Z</time>
      </trkpt>
      <trkpt lat="38.419920" lon="-5.042998">
        <ele>511.064</ele>
        <time>2021-10-16T16:45:44Z</time>
      </trkpt>
      <trkpt lat="38.419757" lon="-5.042709">
        <ele>511.506</ele>
        <time>2021-10-16T16:45:46Z</time>
      </trkpt>
      <trkpt lat="38.419668" lon="-5.042544">
        <ele>511.616</ele>
        <time>2021-10-16T16:45:47Z</time>
      </trkpt>
      <trkpt lat="38.419479" lon="-5.042196">
        <ele>510.408</ele>
        <time>2021-10-16T16:45:49Z</time>
      </trkpt>
      <trkpt lat="38.419376" lon="-5.042005">
        <ele>510.644</ele>
        <time>2021-10-16T16:45:50Z</time>
      </trkpt>
      <trkpt lat="38.419167" lon="-5.041625">
        <ele>509.622</ele>
        <time>2021-10-16T16:45:52Z</time>
      </trkpt>
      <trkpt lat="38.419052" lon="-5.041424">
        <ele>509.411</ele>
        <time>2021-10-16T16:45:53Z</time>
      </trkpt>
      <trkpt lat="38.418934" lon="-5.041217">
        <ele>508.875</ele>
        <time>2021-10-16T16:45:54Z</time>
      </trkpt>
      <trkpt lat="38.418699" lon="-5.040792">
        <ele>508.680</ele>
        <time>2021-10-16T16:45:56Z</time>
      </trkpt>
      <trkpt lat="38.418467" lon="-5.040376">
        <ele>508.339</ele>
        <time>2021-10-16T16:45:58Z</time>
      </trkpt>
      <trkpt lat="38.418349" lon="-5.040163">
        <ele>507.521</ele>
        <time>2021-10-16T16:45:59Z</time>
      </trkpt>
      <trkpt lat="38.418229" lon="-5.039942">
        <ele>507.118</ele>
        <time>2021-10-16T16:46:00Z</time>
      </trkpt>
      <trkpt lat="38.417980" lon="-5.039485">
        <ele>506.919</ele>
        <time>2021-10-16T16:46:02Z</time>
      </trkpt>
      <trkpt lat="38.417726" lon="-5.039029">
        <ele>506.609</ele>
        <time>2021-10-16T16:46:04Z</time>
      </trkpt>
      <trkpt lat="38.417597" lon="-5.038792">
        <ele>506.019</ele>
        <time>2021-10-16T16:46:05Z</time>
      </trkpt>
      <trkpt lat="38.417468" lon="-5.038559">
        <ele>505.908</ele>
        <time>2021-10-16T16:46:06Z</time>
      </trkpt>
      <trkpt lat="38.417210" lon="-5.038094">
        <ele>505.739</ele>
        <time>2021-10-16T16:46:08Z</time>
      </trkpt>
      <trkpt lat="38.416968" lon="-5.037650">
        <ele>505.817</ele>
        <time>2021-10-16T16:46:10Z</time>
      </trkpt>
      <trkpt lat="38.416721" lon="-5.037203">
        <ele>505.476</ele>
        <time>2021-10-16T16:46:12Z</time>
      </trkpt>
      <trkpt lat="38.416597" lon="-5.036982">
        <ele>505.650</ele>
        <time>2021-10-16T16:46:13Z</time>
      </trkpt>
      <trkpt lat="38.416473" lon="-5.036758">
        <ele>506.585</ele>
        <time>2021-10-16T16:46:14Z</time>
      </trkpt>
      <trkpt lat="38.416236" lon="-5.036330">
        <ele>505.914</ele>
        <time>2021-10-16T16:46:16Z</time>
      </trkpt>
      <trkpt lat="38.416116" lon="-5.036116">
        <ele>506.326</ele>
        <time>2021-10-16T16:46:17Z</time>
      </trkpt>
      <trkpt lat="38.415872" lon="-5.035681">
        <ele>506.133</ele>
        <time>2021-10-16T16:46:19Z</time>
      </trkpt>
      <trkpt lat="38.415742" lon="-5.035449">
        <ele>505.469</ele>
        <time>2021-10-16T16:46:20Z</time>
      </trkpt>
      <trkpt lat="38.415478" lon="-5.034975">
        <ele>504.604</ele>
        <time>2021-10-16T16:46:22Z</time>
      </trkpt>
      <trkpt lat="38.415337" lon="-5.034721">
        <ele>504.024</ele>
        <time>2021-10-16T16:46:23Z</time>
      </trkpt>
      <trkpt lat="38.415042" lon="-5.034195">
        <ele>502.408</ele>
        <time>2021-10-16T16:46:25Z</time>
      </trkpt>
      <trkpt lat="38.414885" lon="-5.033915">
        <ele>501.714</ele>
        <time>2021-10-16T16:46:26Z</time>
      </trkpt>
      <trkpt lat="38.414581" lon="-5.033369">
        <ele>501.022</ele>
        <time>2021-10-16T16:46:28Z</time>
      </trkpt>
      <trkpt lat="38.414424" lon="-5.033086">
        <ele>500.371</ele>
        <time>2021-10-16T16:46:29Z</time>
      </trkpt>
      <trkpt lat="38.414102" lon="-5.032514">
        <ele>498.735</ele>
        <time>2021-10-16T16:46:31Z</time>
      </trkpt>
      <trkpt lat="38.413932" lon="-5.032221">
        <ele>497.960</ele>
        <time>2021-10-16T16:46:32Z</time>
      </trkpt>
      <trkpt lat="38.413612" lon="-5.031652">
        <ele>496.389</ele>
        <time>2021-10-16T16:46:34Z</time>
      </trkpt>
      <trkpt lat="38.413286" lon="-5.031067">
        <ele>494.511</ele>
        <time>2021-10-16T16:46:36Z</time>
      </trkpt>
      <trkpt lat="38.413123" lon="-5.030775">
        <ele>493.098</ele>
        <time>2021-10-16T16:46:37Z</time>
      </trkpt>
      <trkpt lat="38.412957" lon="-5.030478">
        <ele>492.238</ele>
        <time>2021-10-16T16:46:38Z</time>
      </trkpt>
      <trkpt lat="38.412637" lon="-5.029906">
        <ele>490.970</ele>
        <time>2021-10-16T16:46:40Z</time>
      </trkpt>
      <trkpt lat="38.412314" lon="-5.029330">
        <ele>489.417</ele>
        <time>2021-10-16T16:46:42Z</time>
      </trkpt>
      <trkpt lat="38.412151" lon="-5.029041">
        <ele>489.008</ele>
        <time>2021-10-16T16:46:43Z</time>
      </trkpt>
      <trkpt lat="38.411986" lon="-5.028747">
        <ele>488.161</ele>
        <time>2021-10-16T16:46:44Z</time>
      </trkpt>
      <trkpt lat="38.411673" lon="-5.028189">
        <ele>486.579</ele>
        <time>2021-10-16T16:46:46Z</time>
      </trkpt>
      <trkpt lat="38.411516" lon="-5.027910">
        <ele>486.218</ele>
        <time>2021-10-16T16:46:47Z</time>
      </trkpt>
      <trkpt lat="38.411210" lon="-5.027361">
        <ele>486.152</ele>
        <time>2021-10-16T16:46:49Z</time>
      </trkpt>
      <trkpt lat="38.411053" lon="-5.027079">
        <ele>486.717</ele>
        <time>2021-10-16T16:46:50Z</time>
      </trkpt>
      <trkpt lat="38.410752" lon="-5.026539">
        <ele>486.026</ele>
        <time>2021-10-16T16:46:52Z</time>
      </trkpt>
      <trkpt lat="38.410597" lon="-5.026261">
        <ele>485.558</ele>
        <time>2021-10-16T16:46:53Z</time>
      </trkpt>
      <trkpt lat="38.410286" lon="-5.025705">
        <ele>486.285</ele>
        <time>2021-10-16T16:46:55Z</time>
      </trkpt>
      <trkpt lat="38.410128" lon="-5.025422">
        <ele>486.292</ele>
        <time>2021-10-16T16:46:56Z</time>
      </trkpt>
      <trkpt lat="38.409828" lon="-5.024870">
        <ele>486.273</ele>
        <time>2021-10-16T16:46:58Z</time>
      </trkpt>
      <trkpt lat="38.409521" lon="-5.024311">
        <ele>487.520</ele>
        <time>2021-10-16T16:47:00Z</time>
      </trkpt>
      <trkpt lat="38.409369" lon="-5.024034">
        <ele>488.508</ele>
        <time>2021-10-16T16:47:01Z</time>
      </trkpt>
      <trkpt lat="38.409214" lon="-5.023750">
        <ele>489.427</ele>
        <time>2021-10-16T16:47:02Z</time>
      </trkpt>
      <trkpt lat="38.408914" lon="-5.023210">
        <ele>491.385</ele>
        <time>2021-10-16T16:47:04Z</time>
      </trkpt>
      <trkpt lat="38.408765" lon="-5.022936">
        <ele>492.464</ele>
        <time>2021-10-16T16:47:05Z</time>
      </trkpt>
      <trkpt lat="38.408472" lon="-5.022398">
        <ele>494.618</ele>
        <time>2021-10-16T16:47:07Z</time>
      </trkpt>
      <trkpt lat="38.408322" lon="-5.022122">
        <ele>495.843</ele>
        <time>2021-10-16T16:47:08Z</time>
      </trkpt>
      <trkpt lat="38.408038" lon="-5.021598">
        <ele>497.692</ele>
        <time>2021-10-16T16:47:10Z</time>
      </trkpt>
      <trkpt lat="38.407894" lon="-5.021331">
        <ele>497.654</ele>
        <time>2021-10-16T16:47:11Z</time>
      </trkpt>
      <trkpt lat="38.407750" lon="-5.021068">
        <ele>498.791</ele>
        <time>2021-10-16T16:47:12Z</time>
      </trkpt>
      <trkpt lat="38.407607" lon="-5.020808">
        <ele>500.034</ele>
        <time>2021-10-16T16:47:13Z</time>
      </trkpt>
      <trkpt lat="38.407462" lon="-5.020544">
        <ele>500.455</ele>
        <time>2021-10-16T16:47:14Z</time>
      </trkpt>
      <trkpt lat="38.407186" lon="-5.020044">
        <ele>501.410</ele>
        <time>2021-10-16T16:47:16Z</time>
      </trkpt>
      <trkpt lat="38.407048" lon="-5.019790">
        <ele>502.108</ele>
        <time>2021-10-16T16:47:17Z</time>
      </trkpt>
      <trkpt lat="38.406772" lon="-5.019281">
        <ele>503.761</ele>
        <time>2021-10-16T16:47:19Z</time>
      </trkpt>
      <trkpt lat="38.406625" lon="-5.019018">
        <ele>504.049</ele>
        <time>2021-10-16T16:47:20Z</time>
      </trkpt>
      <trkpt lat="38.406349" lon="-5.018513">
        <ele>505.678</ele>
        <time>2021-10-16T16:47:22Z</time>
      </trkpt>
      <trkpt lat="38.406206" lon="-5.018250">
        <ele>506.232</ele>
        <time>2021-10-16T16:47:23Z</time>
      </trkpt>
      <trkpt lat="38.406063" lon="-5.017987">
        <ele>507.227</ele>
        <time>2021-10-16T16:47:24Z</time>
      </trkpt>
      <trkpt lat="38.405772" lon="-5.017457">
        <ele>508.686</ele>
        <time>2021-10-16T16:47:26Z</time>
      </trkpt>
      <trkpt lat="38.405492" lon="-5.016944">
        <ele>510.198</ele>
        <time>2021-10-16T16:47:28Z</time>
      </trkpt>
      <trkpt lat="38.405212" lon="-5.016429">
        <ele>510.665</ele>
        <time>2021-10-16T16:47:30Z</time>
      </trkpt>
      <trkpt lat="38.404929" lon="-5.015917">
        <ele>511.046</ele>
        <time>2021-10-16T16:47:32Z</time>
      </trkpt>
      <trkpt lat="38.404658" lon="-5.015421">
        <ele>512.188</ele>
        <time>2021-10-16T16:47:34Z</time>
      </trkpt>
      <trkpt lat="38.404384" lon="-5.014911">
        <ele>512.116</ele>
        <time>2021-10-16T16:47:36Z</time>
      </trkpt>
      <trkpt lat="38.404109" lon="-5.014410">
        <ele>512.408</ele>
        <time>2021-10-16T16:47:38Z</time>
      </trkpt>
      <trkpt lat="38.403846" lon="-5.013928">
        <ele>512.432</ele>
        <time>2021-10-16T16:47:40Z</time>
      </trkpt>
      <trkpt lat="38.403709" lon="-5.013682">
        <ele>512.520</ele>
        <time>2021-10-16T16:47:41Z</time>
      </trkpt>
      <trkpt lat="38.403573" lon="-5.013437">
        <ele>512.569</ele>
        <time>2021-10-16T16:47:42Z</time>
      </trkpt>
      <trkpt lat="38.403302" lon="-5.012946">
        <ele>512.953</ele>
        <time>2021-10-16T16:47:44Z</time>
      </trkpt>
      <trkpt lat="38.403047" lon="-5.012469">
        <ele>513.198</ele>
        <time>2021-10-16T16:47:46Z</time>
      </trkpt>
      <trkpt lat="38.402790" lon="-5.011996">
        <ele>513.257</ele>
        <time>2021-10-16T16:47:48Z</time>
      </trkpt>
      <trkpt lat="38.402660" lon="-5.011757">
        <ele>513.689</ele>
        <time>2021-10-16T16:47:49Z</time>
      </trkpt>
      <trkpt lat="38.402522" lon="-5.011509">
        <ele>513.946</ele>
        <time>2021-10-16T16:47:50Z</time>
      </trkpt>
      <trkpt lat="38.402252" lon="-5.011013">
        <ele>514.252</ele>
        <time>2021-10-16T16:47:52Z</time>
      </trkpt>
      <trkpt lat="38.401972" lon="-5.010500">
        <ele>514.853</ele>
        <time>2021-10-16T16:47:54Z</time>
      </trkpt>
      <trkpt lat="38.401691" lon="-5.009980">
        <ele>516.208</ele>
        <time>2021-10-16T16:47:56Z</time>
      </trkpt>
      <trkpt lat="38.401416" lon="-5.009476">
        <ele>517.008</ele>
        <time>2021-10-16T16:47:58Z</time>
      </trkpt>
      <trkpt lat="38.401272" lon="-5.009219">
        <ele>517.933</ele>
        <time>2021-10-16T16:47:59Z</time>
      </trkpt>
      <trkpt lat="38.401131" lon="-5.008960">
        <ele>519.311</ele>
        <time>2021-10-16T16:48:00Z</time>
      </trkpt>
      <trkpt lat="38.400990" lon="-5.008701">
        <ele>520.270</ele>
        <time>2021-10-16T16:48:01Z</time>
      </trkpt>
      <trkpt lat="38.400845" lon="-5.008435">
        <ele>520.964</ele>
        <time>2021-10-16T16:48:02Z</time>
      </trkpt>
      <trkpt lat="38.400566" lon="-5.007920">
        <ele>522.359</ele>
        <time>2021-10-16T16:48:04Z</time>
      </trkpt>
      <trkpt lat="38.400422" lon="-5.007657">
        <ele>522.978</ele>
        <time>2021-10-16T16:48:05Z</time>
      </trkpt>
      <trkpt lat="38.400276" lon="-5.007394">
        <ele>523.790</ele>
        <time>2021-10-16T16:48:06Z</time>
      </trkpt>
      <trkpt lat="38.399989" lon="-5.006860">
        <ele>526.367</ele>
        <time>2021-10-16T16:48:08Z</time>
      </trkpt>
      <trkpt lat="38.399710" lon="-5.006347">
        <ele>527.454</ele>
        <time>2021-10-16T16:48:10Z</time>
      </trkpt>
      <trkpt lat="38.399570" lon="-5.006090">
        <ele>527.956</ele>
        <time>2021-10-16T16:48:11Z</time>
      </trkpt>
      <trkpt lat="38.399310" lon="-5.005617">
        <ele>528.111</ele>
        <time>2021-10-16T16:48:13Z</time>
      </trkpt>
      <trkpt lat="38.399185" lon="-5.005390">
        <ele>528.108</ele>
        <time>2021-10-16T16:48:14Z</time>
      </trkpt>
      <trkpt lat="38.398961" lon="-5.004992">
        <ele>528.153</ele>
        <time>2021-10-16T16:48:16Z</time>
      </trkpt>
      <trkpt lat="38.398852" lon="-5.004800">
        <ele>527.731</ele>
        <time>2021-10-16T16:48:17Z</time>
      </trkpt>
      <trkpt lat="38.398647" lon="-5.004439">
        <ele>528.160</ele>
        <time>2021-10-16T16:48:19Z</time>
      </trkpt>
      <trkpt lat="38.398535" lon="-5.004250">
        <ele>528.064</ele>
        <time>2021-10-16T16:48:20Z</time>
      </trkpt>
      <trkpt lat="38.398309" lon="-5.003886">
        <ele>527.679</ele>
        <time>2021-10-16T16:48:22Z</time>
      </trkpt>
      <trkpt lat="38.398079" lon="-5.003492">
        <ele>527.958</ele>
        <time>2021-10-16T16:48:24Z</time>
      </trkpt>
      <trkpt lat="38.397967" lon="-5.003289">
        <ele>527.580</ele>
        <time>2021-10-16T16:48:25Z</time>
      </trkpt>
      <trkpt lat="38.397856" lon="-5.003079">
        <ele>527.567</ele>
        <time>2021-10-16T16:48:26Z</time>
      </trkpt>
      <trkpt lat="38.397641" lon="-5.002675">
        <ele>527.318</ele>
        <time>2021-10-16T16:48:28Z</time>
      </trkpt>
      <trkpt lat="38.397416" lon="-5.002259">
        <ele>527.798</ele>
        <time>2021-10-16T16:48:30Z</time>
      </trkpt>
      <trkpt lat="38.397194" lon="-5.001831">
        <ele>527.917</ele>
        <time>2021-10-16T16:48:32Z</time>
      </trkpt>
      <trkpt lat="38.397010" lon="-5.001448">
        <ele>528.608</ele>
        <time>2021-10-16T16:48:34Z</time>
      </trkpt>
      <trkpt lat="38.396839" lon="-5.001128">
        <ele>528.869</ele>
        <time>2021-10-16T16:48:36Z</time>
      </trkpt>
      <trkpt lat="38.396687" lon="-5.000857">
        <ele>530.747</ele>
        <time>2021-10-16T16:48:38Z</time>
      </trkpt>
      <trkpt lat="38.396564" lon="-5.000633">
        <ele>531.026</ele>
        <time>2021-10-16T16:48:40Z</time>
      </trkpt>
      <trkpt lat="38.396507" lon="-5.000525">
        <ele>531.170</ele>
        <time>2021-10-16T16:48:41Z</time>
      </trkpt>
      <trkpt lat="38.396454" lon="-5.000425">
        <ele>531.115</ele>
        <time>2021-10-16T16:48:42Z</time>
      </trkpt>
      <trkpt lat="38.396353" lon="-5.000239">
        <ele>530.444</ele>
        <time>2021-10-16T16:48:44Z</time>
      </trkpt>
      <trkpt lat="38.396243" lon="-5.000043">
        <ele>530.346</ele>
        <time>2021-10-16T16:48:46Z</time>
      </trkpt>
      <trkpt lat="38.396185" lon="-4.999937">
        <ele>530.663</ele>
        <time>2021-10-16T16:48:47Z</time>
      </trkpt>
      <trkpt lat="38.396060" lon="-4.999708">
        <ele>530.564</ele>
        <time>2021-10-16T16:48:49Z</time>
      </trkpt>
      <trkpt lat="38.395985" lon="-4.999575">
        <ele>530.306</ele>
        <time>2021-10-16T16:48:50Z</time>
      </trkpt>
      <trkpt lat="38.395842" lon="-4.999319">
        <ele>530.616</ele>
        <time>2021-10-16T16:48:52Z</time>
      </trkpt>
      <trkpt lat="38.395777" lon="-4.999199">
        <ele>531.308</ele>
        <time>2021-10-16T16:48:53Z</time>
      </trkpt>
      <trkpt lat="38.395647" lon="-4.998963">
        <ele>531.284</ele>
        <time>2021-10-16T16:48:55Z</time>
      </trkpt>
      <trkpt lat="38.395585" lon="-4.998848">
        <ele>531.272</ele>
        <time>2021-10-16T16:48:56Z</time>
      </trkpt>
      <trkpt lat="38.395475" lon="-4.998650">
        <ele>531.661</ele>
        <time>2021-10-16T16:48:58Z</time>
      </trkpt>
      <trkpt lat="38.395380" lon="-4.998473">
        <ele>531.515</ele>
        <time>2021-10-16T16:49:00Z</time>
      </trkpt>
      <trkpt lat="38.395339" lon="-4.998392">
        <ele>531.740</ele>
        <time>2021-10-16T16:49:01Z</time>
      </trkpt>
      <trkpt lat="38.395291" lon="-4.998310">
        <ele>532.239</ele>
        <time>2021-10-16T16:49:02Z</time>
      </trkpt>
      <trkpt lat="38.395194" lon="-4.998131">
        <ele>533.511</ele>
        <time>2021-10-16T16:49:04Z</time>
      </trkpt>
      <trkpt lat="38.395139" lon="-4.998028">
        <ele>533.668</ele>
        <time>2021-10-16T16:49:05Z</time>
      </trkpt>
      <trkpt lat="38.395078" lon="-4.997922">
        <ele>534.161</ele>
        <time>2021-10-16T16:49:06Z</time>
      </trkpt>
      <trkpt lat="38.394954" lon="-4.997682">
        <ele>534.121</ele>
        <time>2021-10-16T16:49:08Z</time>
      </trkpt>
      <trkpt lat="38.394854" lon="-4.997420">
        <ele>534.813</ele>
        <time>2021-10-16T16:49:10Z</time>
      </trkpt>
      <trkpt lat="38.394817" lon="-4.997272">
        <ele>534.808</ele>
        <time>2021-10-16T16:49:11Z</time>
      </trkpt>
      <trkpt lat="38.394793" lon="-4.997120">
        <ele>535.064</ele>
        <time>2021-10-16T16:49:12Z</time>
      </trkpt>
      <trkpt lat="38.394770" lon="-4.996968">
        <ele>534.832</ele>
        <time>2021-10-16T16:49:13Z</time>
      </trkpt>
      <trkpt lat="38.394749" lon="-4.996814">
        <ele>534.831</ele>
        <time>2021-10-16T16:49:14Z</time>
      </trkpt>
      <trkpt lat="38.394704" lon="-4.996533">
        <ele>534.765</ele>
        <time>2021-10-16T16:49:16Z</time>
      </trkpt>
      <trkpt lat="38.394664" lon="-4.996278">
        <ele>535.670</ele>
        <time>2021-10-16T16:49:18Z</time>
      </trkpt>
      <trkpt lat="38.394624" lon="-4.996077">
        <ele>535.789</ele>
        <time>2021-10-16T16:49:20Z</time>
      </trkpt>
      <trkpt lat="38.394572" lon="-4.995973">
        <ele>537.461</ele>
        <time>2021-10-16T16:49:22Z</time>
      </trkpt>
      <trkpt lat="38.394490" lon="-4.995971">
        <ele>538.268</ele>
        <time>2021-10-16T16:49:24Z</time>
      </trkpt>
      <trkpt lat="38.394420" lon="-4.995990">
        <ele>538.455</ele>
        <time>2021-10-16T16:49:25Z</time>
      </trkpt>
      <trkpt lat="38.394324" lon="-4.996020">
        <ele>538.607</ele>
        <time>2021-10-16T16:49:26Z</time>
      </trkpt>
      <trkpt lat="38.394114" lon="-4.996065">
        <ele>539.617</ele>
        <time>2021-10-16T16:49:28Z</time>
      </trkpt>
      <trkpt lat="38.393911" lon="-4.996084">
        <ele>538.908</ele>
        <time>2021-10-16T16:49:30Z</time>
      </trkpt>
      <trkpt lat="38.393683" lon="-4.996069">
        <ele>538.123</ele>
        <time>2021-10-16T16:49:32Z</time>
      </trkpt>
      <trkpt lat="38.393479" lon="-4.996068">
        <ele>538.121</ele>
        <time>2021-10-16T16:49:34Z</time>
      </trkpt>
      <trkpt lat="38.393302" lon="-4.996028">
        <ele>539.370</ele>
        <time>2021-10-16T16:49:36Z</time>
      </trkpt>
      <trkpt lat="38.393233" lon="-4.995975">
        <ele>541.284</ele>
        <time>2021-10-16T16:49:37Z</time>
      </trkpt>
      <trkpt lat="38.393175" lon="-4.995909">
        <ele>540.939</ele>
        <time>2021-10-16T16:49:38Z</time>
      </trkpt>
      <trkpt lat="38.393069" lon="-4.995783">
        <ele>540.498</ele>
        <time>2021-10-16T16:49:40Z</time>
      </trkpt>
      <trkpt lat="38.393000" lon="-4.995746">
        <ele>540.450</ele>
        <time>2021-10-16T16:49:41Z</time>
      </trkpt>
      <trkpt lat="38.392820" lon="-4.995725">
        <ele>539.927</ele>
        <time>2021-10-16T16:49:43Z</time>
      </trkpt>
      <trkpt lat="38.392714" lon="-4.995731">
        <ele>539.897</ele>
        <time>2021-10-16T16:49:44Z</time>
      </trkpt>
      <trkpt lat="38.392528" lon="-4.995744">
        <ele>538.823</ele>
        <time>2021-10-16T16:49:46Z</time>
      </trkpt>
      <trkpt lat="38.392430" lon="-4.995755">
        <ele>537.925</ele>
        <time>2021-10-16T16:49:47Z</time>
      </trkpt>
      <trkpt lat="38.392221" lon="-4.995818">
        <ele>537.908</ele>
        <time>2021-10-16T16:49:49Z</time>
      </trkpt>
      <trkpt lat="38.392101" lon="-4.995869">
        <ele>538.667</ele>
        <time>2021-10-16T16:49:50Z</time>
      </trkpt>
      <trkpt lat="38.391841" lon="-4.995993">
        <ele>538.785</ele>
        <time>2021-10-16T16:49:52Z</time>
      </trkpt>
      <trkpt lat="38.391701" lon="-4.996070">
        <ele>539.074</ele>
        <time>2021-10-16T16:49:53Z</time>
      </trkpt>
      <trkpt lat="38.391428" lon="-4.996231">
        <ele>537.898</ele>
        <time>2021-10-16T16:49:55Z</time>
      </trkpt>
      <trkpt lat="38.391304" lon="-4.996301">
        <ele>537.653</ele>
        <time>2021-10-16T16:49:56Z</time>
      </trkpt>
      <trkpt lat="38.391086" lon="-4.996408">
        <ele>537.732</ele>
        <time>2021-10-16T16:49:58Z</time>
      </trkpt>
      <trkpt lat="38.390877" lon="-4.996510">
        <ele>536.974</ele>
        <time>2021-10-16T16:50:00Z</time>
      </trkpt>
      <trkpt lat="38.390678" lon="-4.996610">
        <ele>536.271</ele>
        <time>2021-10-16T16:50:02Z</time>
      </trkpt>
      <trkpt lat="38.390487" lon="-4.996703">
        <ele>535.657</ele>
        <time>2021-10-16T16:50:04Z</time>
      </trkpt>
      <trkpt lat="38.390284" lon="-4.996798">
        <ele>535.200</ele>
        <time>2021-10-16T16:50:06Z</time>
      </trkpt>
      <trkpt lat="38.390064" lon="-4.996812">
        <ele>534.720</ele>
        <time>2021-10-16T16:50:08Z</time>
      </trkpt>
      <trkpt lat="38.389854" lon="-4.996751">
        <ele>534.708</ele>
        <time>2021-10-16T16:50:10Z</time>
      </trkpt>
      <trkpt lat="38.389758" lon="-4.996722">
        <ele>535.553</ele>
        <time>2021-10-16T16:50:11Z</time>
      </trkpt>
      <trkpt lat="38.389675" lon="-4.996700">
        <ele>535.981</ele>
        <time>2021-10-16T16:50:12Z</time>
      </trkpt>
      <trkpt lat="38.389527" lon="-4.996643">
        <ele>537.240</ele>
        <time>2021-10-16T16:50:14Z</time>
      </trkpt>
      <trkpt lat="38.389374" lon="-4.996529">
        <ele>537.814</ele>
        <time>2021-10-16T16:50:16Z</time>
      </trkpt>
      <trkpt lat="38.389291" lon="-4.996458">
        <ele>538.779</ele>
        <time>2021-10-16T16:50:17Z</time>
      </trkpt>
      <trkpt lat="38.389211" lon="-4.996393">
        <ele>539.938</ele>
        <time>2021-10-16T16:50:18Z</time>
      </trkpt>
      <trkpt lat="38.389138" lon="-4.996334">
        <ele>540.090</ele>
        <time>2021-10-16T16:50:19Z</time>
      </trkpt>
      <trkpt lat="38.389055" lon="-4.996274">
        <ele>541.087</ele>
        <time>2021-10-16T16:50:20Z</time>
      </trkpt>
      <trkpt lat="38.388871" lon="-4.996186">
        <ele>541.778</ele>
        <time>2021-10-16T16:50:22Z</time>
      </trkpt>
      <trkpt lat="38.388770" lon="-4.996148">
        <ele>544.333</ele>
        <time>2021-10-16T16:50:23Z</time>
      </trkpt>
      <trkpt lat="38.388566" lon="-4.996055">
        <ele>545.826</ele>
        <time>2021-10-16T16:50:25Z</time>
      </trkpt>
      <trkpt lat="38.388465" lon="-4.995982">
        <ele>547.008</ele>
        <time>2021-10-16T16:50:26Z</time>
      </trkpt>
      <trkpt lat="38.388277" lon="-4.995818">
        <ele>550.115</ele>
        <time>2021-10-16T16:50:28Z</time>
      </trkpt>
      <trkpt lat="38.388066" lon="-4.995654">
        <ele>551.633</ele>
        <time>2021-10-16T16:50:30Z</time>
      </trkpt>
      <trkpt lat="38.387819" lon="-4.995521">
        <ele>553.522</ele>
        <time>2021-10-16T16:50:32Z</time>
      </trkpt>
      <trkpt lat="38.387558" lon="-4.995395">
        <ele>557.346</ele>
        <time>2021-10-16T16:50:34Z</time>
      </trkpt>
      <trkpt lat="38.387420" lon="-4.995320">
        <ele>558.841</ele>
        <time>2021-10-16T16:50:35Z</time>
      </trkpt>
      <trkpt lat="38.387131" lon="-4.995119">
        <ele>562.570</ele>
        <time>2021-10-16T16:50:37Z</time>
      </trkpt>
      <trkpt lat="38.386979" lon="-4.994985">
        <ele>563.942</ele>
        <time>2021-10-16T16:50:38Z</time>
      </trkpt>
      <trkpt lat="38.386707" lon="-4.994682">
        <ele>567.129</ele>
        <time>2021-10-16T16:50:40Z</time>
      </trkpt>
      <trkpt lat="38.386458" lon="-4.994311">
        <ele>567.781</ele>
        <time>2021-10-16T16:50:42Z</time>
      </trkpt>
      <trkpt lat="38.386326" lon="-4.994111">
        <ele>567.561</ele>
        <time>2021-10-16T16:50:43Z</time>
      </trkpt>
      <trkpt lat="38.386188" lon="-4.993905">
        <ele>567.817</ele>
        <time>2021-10-16T16:50:44Z</time>
      </trkpt>
      <trkpt lat="38.385925" lon="-4.993524">
        <ele>567.808</ele>
        <time>2021-10-16T16:50:46Z</time>
      </trkpt>
      <trkpt lat="38.385800" lon="-4.993347">
        <ele>569.166</ele>
        <time>2021-10-16T16:50:47Z</time>
      </trkpt>
      <trkpt lat="38.385564" lon="-4.993022">
        <ele>570.454</ele>
        <time>2021-10-16T16:50:49Z</time>
      </trkpt>
      <trkpt lat="38.385437" lon="-4.992870">
        <ele>571.263</ele>
        <time>2021-10-16T16:50:50Z</time>
      </trkpt>
      <trkpt lat="38.385166" lon="-4.992579">
        <ele>572.627</ele>
        <time>2021-10-16T16:50:52Z</time>
      </trkpt>
      <trkpt lat="38.385024" lon="-4.992423">
        <ele>573.032</ele>
        <time>2021-10-16T16:50:53Z</time>
      </trkpt>
      <trkpt lat="38.384749" lon="-4.992084">
        <ele>572.981</ele>
        <time>2021-10-16T16:50:55Z</time>
      </trkpt>
      <trkpt lat="38.384606" lon="-4.991899">
        <ele>572.623</ele>
        <time>2021-10-16T16:50:56Z</time>
      </trkpt>
      <trkpt lat="38.384321" lon="-4.991541">
        <ele>573.250</ele>
        <time>2021-10-16T16:50:58Z</time>
      </trkpt>
      <trkpt lat="38.384057" lon="-4.991200">
        <ele>572.844</ele>
        <time>2021-10-16T16:51:00Z</time>
      </trkpt>
      <trkpt lat="38.383934" lon="-4.991039">
        <ele>573.105</ele>
        <time>2021-10-16T16:51:01Z</time>
      </trkpt>
      <trkpt lat="38.383808" lon="-4.990874">
        <ele>572.715</ele>
        <time>2021-10-16T16:51:02Z</time>
      </trkpt>
      <trkpt lat="38.383560" lon="-4.990552">
        <ele>572.408</ele>
        <time>2021-10-16T16:51:04Z</time>
      </trkpt>
      <trkpt lat="38.383430" lon="-4.990384">
        <ele>572.472</ele>
        <time>2021-10-16T16:51:05Z</time>
      </trkpt>
      <trkpt lat="38.383300" lon="-4.990216">
        <ele>572.310</ele>
        <time>2021-10-16T16:51:06Z</time>
      </trkpt>
      <trkpt lat="38.383167" lon="-4.990050">
        <ele>572.069</ele>
        <time>2021-10-16T16:51:07Z</time>
      </trkpt>
      <trkpt lat="38.383029" lon="-4.989876">
        <ele>572.473</ele>
        <time>2021-10-16T16:51:08Z</time>
      </trkpt>
      <trkpt lat="38.382753" lon="-4.989542">
        <ele>571.878</ele>
        <time>2021-10-16T16:51:10Z</time>
      </trkpt>
      <trkpt lat="38.382601" lon="-4.989376">
        <ele>571.337</ele>
        <time>2021-10-16T16:51:11Z</time>
      </trkpt>
      <trkpt lat="38.382284" lon="-4.989038">
        <ele>570.339</ele>
        <time>2021-10-16T16:51:13Z</time>
      </trkpt>
      <trkpt lat="38.382121" lon="-4.988859">
        <ele>570.016</ele>
        <time>2021-10-16T16:51:14Z</time>
      </trkpt>
      <trkpt lat="38.381821" lon="-4.988490">
        <ele>569.536</ele>
        <time>2021-10-16T16:51:16Z</time>
      </trkpt>
      <trkpt lat="38.381677" lon="-4.988293">
        <ele>569.217</ele>
        <time>2021-10-16T16:51:17Z</time>
      </trkpt>
      <trkpt lat="38.381404" lon="-4.987892">
        <ele>568.618</ele>
        <time>2021-10-16T16:51:19Z</time>
      </trkpt>
      <trkpt lat="38.381264" lon="-4.987693">
        <ele>568.208</ele>
        <time>2021-10-16T16:51:20Z</time>
      </trkpt>
      <trkpt lat="38.380994" lon="-4.987340">
        <ele>566.881</ele>
        <time>2021-10-16T16:51:22Z</time>
      </trkpt>
      <trkpt lat="38.380852" lon="-4.987167">
        <ele>566.969</ele>
        <time>2021-10-16T16:51:23Z</time>
      </trkpt>
      <trkpt lat="38.380573" lon="-4.986823">
        <ele>567.848</ele>
        <time>2021-10-16T16:51:25Z</time>
      </trkpt>
      <trkpt lat="38.380444" lon="-4.986627">
        <ele>567.792</ele>
        <time>2021-10-16T16:51:26Z</time>
      </trkpt>
      <trkpt lat="38.380253" lon="-4.986211">
        <ele>568.247</ele>
        <time>2021-10-16T16:51:28Z</time>
      </trkpt>
      <trkpt lat="38.380177" lon="-4.985982">
        <ele>567.796</ele>
        <time>2021-10-16T16:51:29Z</time>
      </trkpt>
      <trkpt lat="38.380002" lon="-4.985532">
        <ele>567.318</ele>
        <time>2021-10-16T16:51:31Z</time>
      </trkpt>
      <trkpt lat="38.379885" lon="-4.985319">
        <ele>567.635</ele>
        <time>2021-10-16T16:51:32Z</time>
      </trkpt>
      <trkpt lat="38.379642" lon="-4.984946">
        <ele>569.949</ele>
        <time>2021-10-16T16:51:34Z</time>
      </trkpt>
      <trkpt lat="38.379408" lon="-4.984601">
        <ele>572.002</ele>
        <time>2021-10-16T16:51:36Z</time>
      </trkpt>
      <trkpt lat="38.379292" lon="-4.984443">
        <ele>573.522</ele>
        <time>2021-10-16T16:51:37Z</time>
      </trkpt>
      <trkpt lat="38.379166" lon="-4.984286">
        <ele>574.108</ele>
        <time>2021-10-16T16:51:38Z</time>
      </trkpt>
      <trkpt lat="38.378920" lon="-4.983969">
        <ele>573.292</ele>
        <time>2021-10-16T16:51:40Z</time>
      </trkpt>
      <trkpt lat="38.378693" lon="-4.983597">
        <ele>572.140</ele>
        <time>2021-10-16T16:51:42Z</time>
      </trkpt>
      <trkpt lat="38.378580" lon="-4.983405">
        <ele>571.759</ele>
        <time>2021-10-16T16:51:43Z</time>
      </trkpt>
      <trkpt lat="38.378461" lon="-4.983218">
        <ele>571.453</ele>
        <time>2021-10-16T16:51:44Z</time>
      </trkpt>
      <trkpt lat="38.378223" lon="-4.982882">
        <ele>570.548</ele>
        <time>2021-10-16T16:51:46Z</time>
      </trkpt>
      <trkpt lat="38.377960" lon="-4.982606">
        <ele>569.057</ele>
        <time>2021-10-16T16:51:48Z</time>
      </trkpt>
      <trkpt lat="38.377824" lon="-4.982499">
        <ele>568.899</ele>
        <time>2021-10-16T16:51:49Z</time>
      </trkpt>
      <trkpt lat="38.377679" lon="-4.982413">
        <ele>568.886</ele>
        <time>2021-10-16T16:51:50Z</time>
      </trkpt>
      <trkpt lat="38.377411" lon="-4.982268">
        <ele>569.128</ele>
        <time>2021-10-16T16:51:52Z</time>
      </trkpt>
      <trkpt lat="38.377147" lon="-4.982052">
        <ele>568.889</ele>
        <time>2021-10-16T16:51:54Z</time>
      </trkpt>
      <trkpt lat="38.377001" lon="-4.981916">
        <ele>568.517</ele>
        <time>2021-10-16T16:51:55Z</time>
      </trkpt>
      <trkpt lat="38.376848" lon="-4.981771">
        <ele>568.308</ele>
        <time>2021-10-16T16:51:56Z</time>
      </trkpt>
      <trkpt lat="38.376574" lon="-4.981518">
        <ele>568.680</ele>
        <time>2021-10-16T16:51:58Z</time>
      </trkpt>
      <trkpt lat="38.376443" lon="-4.981410">
        <ele>569.248</ele>
        <time>2021-10-16T16:51:59Z</time>
      </trkpt>
      <trkpt lat="38.376326" lon="-4.981336">
        <ele>569.127</ele>
        <time>2021-10-16T16:52:00Z</time>
      </trkpt>
      <trkpt lat="38.376133" lon="-4.981313">
        <ele>568.811</ele>
        <time>2021-10-16T16:52:02Z</time>
      </trkpt>
      <trkpt lat="38.375946" lon="-4.981428">
        <ele>569.036</ele>
        <time>2021-10-16T16:52:04Z</time>
      </trkpt>
      <trkpt lat="38.375837" lon="-4.981490">
        <ele>569.875</ele>
        <time>2021-10-16T16:52:05Z</time>
      </trkpt>
      <trkpt lat="38.375589" lon="-4.981523">
        <ele>569.967</ele>
        <time>2021-10-16T16:52:07Z</time>
      </trkpt>
      <trkpt lat="38.375447" lon="-4.981492">
        <ele>570.574</ele>
        <time>2021-10-16T16:52:08Z</time>
      </trkpt>
      <trkpt lat="38.375147" lon="-4.981398">
        <ele>572.036</ele>
        <time>2021-10-16T16:52:10Z</time>
      </trkpt>
      <trkpt lat="38.374812" lon="-4.981308">
        <ele>573.917</ele>
        <time>2021-10-16T16:52:12Z</time>
      </trkpt>
      <trkpt lat="38.374637" lon="-4.981264">
        <ele>574.318</ele>
        <time>2021-10-16T16:52:13Z</time>
      </trkpt>
      <trkpt lat="38.374461" lon="-4.981224">
        <ele>574.708</ele>
        <time>2021-10-16T16:52:14Z</time>
      </trkpt>
      <trkpt lat="38.374166" lon="-4.981157">
        <ele>576.031</ele>
        <time>2021-10-16T16:52:16Z</time>
      </trkpt>
      <trkpt lat="38.374025" lon="-4.981113">
        <ele>577.149</ele>
        <time>2021-10-16T16:52:17Z</time>
      </trkpt>
      <trkpt lat="38.373891" lon="-4.981052">
        <ele>577.868</ele>
        <time>2021-10-16T16:52:18Z</time>
      </trkpt>
      <trkpt lat="38.373631" lon="-4.980888">
        <ele>580.322</ele>
        <time>2021-10-16T16:52:20Z</time>
      </trkpt>
      <trkpt lat="38.373369" lon="-4.980723">
        <ele>580.337</ele>
        <time>2021-10-16T16:52:22Z</time>
      </trkpt>
      <trkpt lat="38.373101" lon="-4.980520">
        <ele>579.986</ele>
        <time>2021-10-16T16:52:24Z</time>
      </trkpt>
      <trkpt lat="38.372976" lon="-4.980386">
        <ele>579.888</ele>
        <time>2021-10-16T16:52:25Z</time>
      </trkpt>
      <trkpt lat="38.372857" lon="-4.980229">
        <ele>580.145</ele>
        <time>2021-10-16T16:52:26Z</time>
      </trkpt>
      <trkpt lat="38.372664" lon="-4.979940">
        <ele>580.169</ele>
        <time>2021-10-16T16:52:28Z</time>
      </trkpt>
      <trkpt lat="38.372580" lon="-4.979825">
        <ele>580.004</ele>
        <time>2021-10-16T16:52:29Z</time>
      </trkpt>
      <trkpt lat="38.372507" lon="-4.979733">
        <ele>579.824</ele>
        <time>2021-10-16T16:52:30Z</time>
      </trkpt>
      <trkpt lat="38.372379" lon="-4.979584">
        <ele>579.508</ele>
        <time>2021-10-16T16:52:32Z</time>
      </trkpt>
      <trkpt lat="38.372282" lon="-4.979458">
        <ele>578.864</ele>
        <time>2021-10-16T16:52:34Z</time>
      </trkpt>
      <trkpt lat="38.372205" lon="-4.979357">
        <ele>578.552</ele>
        <time>2021-10-16T16:52:36Z</time>
      </trkpt>
      <trkpt lat="38.372150" lon="-4.979302">
        <ele>578.521</ele>
        <time>2021-10-16T16:52:38Z</time>
      </trkpt>
      <trkpt lat="38.372075" lon="-4.979296">
        <ele>578.885</ele>
        <time>2021-10-16T16:52:40Z</time>
      </trkpt>
      <trkpt lat="38.372011" lon="-4.979317">
        <ele>578.740</ele>
        <time>2021-10-16T16:52:41Z</time>
      </trkpt>
      <trkpt lat="38.371832" lon="-4.979397">
        <ele>579.489</ele>
        <time>2021-10-16T16:52:43Z</time>
      </trkpt>
      <trkpt lat="38.371732" lon="-4.979435">
        <ele>579.421</ele>
        <time>2021-10-16T16:52:44Z</time>
      </trkpt>
      <trkpt lat="38.371502" lon="-4.979520">
        <ele>579.198</ele>
        <time>2021-10-16T16:52:46Z</time>
      </trkpt>
      <trkpt lat="38.371247" lon="-4.979623">
        <ele>578.144</ele>
        <time>2021-10-16T16:52:48Z</time>
      </trkpt>
      <trkpt lat="38.370968" lon="-4.979740">
        <ele>578.605</ele>
        <time>2021-10-16T16:52:50Z</time>
      </trkpt>
      <trkpt lat="38.370651" lon="-4.979869">
        <ele>578.015</ele>
        <time>2021-10-16T16:52:52Z</time>
      </trkpt>
      <trkpt lat="38.370482" lon="-4.979938">
        <ele>578.208</ele>
        <time>2021-10-16T16:52:53Z</time>
      </trkpt>
      <trkpt lat="38.370120" lon="-4.980085">
        <ele>578.342</ele>
        <time>2021-10-16T16:52:55Z</time>
      </trkpt>
      <trkpt lat="38.369909" lon="-4.980171">
        <ele>578.390</ele>
        <time>2021-10-16T16:52:56Z</time>
      </trkpt>
      <trkpt lat="38.369499" lon="-4.980341">
        <ele>577.669</ele>
        <time>2021-10-16T16:52:58Z</time>
      </trkpt>
      <trkpt lat="38.369278" lon="-4.980431">
        <ele>577.743</ele>
        <time>2021-10-16T16:52:59Z</time>
      </trkpt>
      <trkpt lat="38.369059" lon="-4.980519">
        <ele>577.788</ele>
        <time>2021-10-16T16:53:00Z</time>
      </trkpt>
      <trkpt lat="38.368648" lon="-4.980682">
        <ele>577.347</ele>
        <time>2021-10-16T16:53:02Z</time>
      </trkpt>
      <trkpt lat="38.368258" lon="-4.980825">
        <ele>576.379</ele>
        <time>2021-10-16T16:53:04Z</time>
      </trkpt>
      <trkpt lat="38.367849" lon="-4.980962">
        <ele>575.126</ele>
        <time>2021-10-16T16:53:06Z</time>
      </trkpt>
      <trkpt lat="38.367436" lon="-4.981107">
        <ele>573.916</ele>
        <time>2021-10-16T16:53:08Z</time>
      </trkpt>
      <trkpt lat="38.367038" lon="-4.981253">
        <ele>572.776</ele>
        <time>2021-10-16T16:53:10Z</time>
      </trkpt>
      <trkpt lat="38.366639" lon="-4.981395">
        <ele>572.813</ele>
        <time>2021-10-16T16:53:12Z</time>
      </trkpt>
      <trkpt lat="38.366227" lon="-4.981542">
        <ele>571.808</ele>
        <time>2021-10-16T16:53:14Z</time>
      </trkpt>
      <trkpt lat="38.365805" lon="-4.981689">
        <ele>570.589</ele>
        <time>2021-10-16T16:53:16Z</time>
      </trkpt>
      <trkpt lat="38.365572" lon="-4.981770">
        <ele>569.737</ele>
        <time>2021-10-16T16:53:17Z</time>
      </trkpt>
      <trkpt lat="38.365082" lon="-4.981941">
        <ele>569.726</ele>
        <time>2021-10-16T16:53:19Z</time>
      </trkpt>
      <trkpt lat="38.364819" lon="-4.982034">
        <ele>569.010</ele>
        <time>2021-10-16T16:53:20Z</time>
      </trkpt>
      <trkpt lat="38.364301" lon="-4.982218">
        <ele>566.815</ele>
        <time>2021-10-16T16:53:22Z</time>
      </trkpt>
      <trkpt lat="38.364031" lon="-4.982319">
        <ele>566.154</ele>
        <time>2021-10-16T16:53:23Z</time>
      </trkpt>
      <trkpt lat="38.363484" lon="-4.982515">
        <ele>563.746</ele>
        <time>2021-10-16T16:53:25Z</time>
      </trkpt>
      <trkpt lat="38.363202" lon="-4.982614">
        <ele>563.253</ele>
        <time>2021-10-16T16:53:26Z</time>
      </trkpt>
      <trkpt lat="38.362642" lon="-4.982810">
        <ele>562.164</ele>
        <time>2021-10-16T16:53:28Z</time>
      </trkpt>
      <trkpt lat="38.362356" lon="-4.982911">
        <ele>561.706</ele>
        <time>2021-10-16T16:53:29Z</time>
      </trkpt>
      <trkpt lat="38.362068" lon="-4.983013">
        <ele>561.416</ele>
        <time>2021-10-16T16:53:30Z</time>
      </trkpt>
      <trkpt lat="38.361488" lon="-4.983218">
        <ele>560.808</ele>
        <time>2021-10-16T16:53:32Z</time>
      </trkpt>
      <trkpt lat="38.360922" lon="-4.983421">
        <ele>560.094</ele>
        <time>2021-10-16T16:53:34Z</time>
      </trkpt>
      <trkpt lat="38.360637" lon="-4.983523">
        <ele>560.142</ele>
        <time>2021-10-16T16:53:35Z</time>
      </trkpt>
      <trkpt lat="38.360355" lon="-4.983624">
        <ele>559.621</ele>
        <time>2021-10-16T16:53:36Z</time>
      </trkpt>
      <trkpt lat="38.360076" lon="-4.983723">
        <ele>559.285</ele>
        <time>2021-10-16T16:53:37Z</time>
      </trkpt>
      <trkpt lat="38.359796" lon="-4.983822">
        <ele>559.210</ele>
        <time>2021-10-16T16:53:38Z</time>
      </trkpt>
      <trkpt lat="38.359288" lon="-4.984002">
        <ele>559.189</ele>
        <time>2021-10-16T16:53:40Z</time>
      </trkpt>
      <trkpt lat="38.358802" lon="-4.984182">
        <ele>558.241</ele>
        <time>2021-10-16T16:53:42Z</time>
      </trkpt>
      <trkpt lat="38.358328" lon="-4.984361">
        <ele>557.588</ele>
        <time>2021-10-16T16:53:44Z</time>
      </trkpt>
      <trkpt lat="38.357874" lon="-4.984519">
        <ele>556.999</ele>
        <time>2021-10-16T16:53:46Z</time>
      </trkpt>
      <trkpt lat="38.357639" lon="-4.984597">
        <ele>556.507</ele>
        <time>2021-10-16T16:53:47Z</time>
      </trkpt>
      <trkpt lat="38.357400" lon="-4.984680">
        <ele>555.927</ele>
        <time>2021-10-16T16:53:48Z</time>
      </trkpt>
      <trkpt lat="38.357155" lon="-4.984758">
        <ele>555.908</ele>
        <time>2021-10-16T16:53:49Z</time>
      </trkpt>
      <trkpt lat="38.356905" lon="-4.984832">
        <ele>556.427</ele>
        <time>2021-10-16T16:53:50Z</time>
      </trkpt>
      <trkpt lat="38.356410" lon="-4.984953">
        <ele>557.445</ele>
        <time>2021-10-16T16:53:52Z</time>
      </trkpt>
      <trkpt lat="38.356157" lon="-4.985004">
        <ele>558.344</ele>
        <time>2021-10-16T16:53:53Z</time>
      </trkpt>
      <trkpt lat="38.355917" lon="-4.985047">
        <ele>559.248</ele>
        <time>2021-10-16T16:53:54Z</time>
      </trkpt>
      <trkpt lat="38.355692" lon="-4.985082">
        <ele>559.973</ele>
        <time>2021-10-16T16:53:55Z</time>
      </trkpt>
      <trkpt lat="38.355469" lon="-4.985106">
        <ele>560.232</ele>
        <time>2021-10-16T16:53:56Z</time>
      </trkpt>
      <trkpt lat="38.355065" lon="-4.985137">
        <ele>560.834</ele>
        <time>2021-10-16T16:53:58Z</time>
      </trkpt>
      <trkpt lat="38.354653" lon="-4.985167">
        <ele>560.671</ele>
        <time>2021-10-16T16:54:00Z</time>
      </trkpt>
      <trkpt lat="38.354439" lon="-4.985182">
        <ele>559.867</ele>
        <time>2021-10-16T16:54:01Z</time>
      </trkpt>
      <trkpt lat="38.354217" lon="-4.985198">
        <ele>559.281</ele>
        <time>2021-10-16T16:54:02Z</time>
      </trkpt>
      <trkpt lat="38.353781" lon="-4.985227">
        <ele>558.119</ele>
        <time>2021-10-16T16:54:04Z</time>
      </trkpt>
      <trkpt lat="38.353320" lon="-4.985262">
        <ele>557.108</ele>
        <time>2021-10-16T16:54:06Z</time>
      </trkpt>
      <trkpt lat="38.352844" lon="-4.985298">
        <ele>556.854</ele>
        <time>2021-10-16T16:54:08Z</time>
      </trkpt>
      <trkpt lat="38.352381" lon="-4.985328">
        <ele>557.332</ele>
        <time>2021-10-16T16:54:10Z</time>
      </trkpt>
      <trkpt lat="38.352146" lon="-4.985340">
        <ele>558.031</ele>
        <time>2021-10-16T16:54:11Z</time>
      </trkpt>
      <trkpt lat="38.351675" lon="-4.985338">
        <ele>558.955</ele>
        <time>2021-10-16T16:54:13Z</time>
      </trkpt>
      <trkpt lat="38.351435" lon="-4.985320">
        <ele>559.640</ele>
        <time>2021-10-16T16:54:14Z</time>
      </trkpt>
      <trkpt lat="38.350978" lon="-4.985248">
        <ele>561.249</ele>
        <time>2021-10-16T16:54:16Z</time>
      </trkpt>
      <trkpt lat="38.350508" lon="-4.985119">
        <ele>561.061</ele>
        <time>2021-10-16T16:54:18Z</time>
      </trkpt>
      <trkpt lat="38.350040" lon="-4.984937">
        <ele>562.428</ele>
        <time>2021-10-16T16:54:20Z</time>
      </trkpt>
      <trkpt lat="38.349591" lon="-4.984706">
        <ele>563.351</ele>
        <time>2021-10-16T16:54:22Z</time>
      </trkpt>
      <trkpt lat="38.349146" lon="-4.984415">
        <ele>563.701</ele>
        <time>2021-10-16T16:54:24Z</time>
      </trkpt>
      <trkpt lat="38.348916" lon="-4.984251">
        <ele>563.311</ele>
        <time>2021-10-16T16:54:25Z</time>
      </trkpt>
      <trkpt lat="38.348677" lon="-4.984072">
        <ele>562.108</ele>
        <time>2021-10-16T16:54:26Z</time>
      </trkpt>
      <trkpt lat="38.348207" lon="-4.983715">
        <ele>562.093</ele>
        <time>2021-10-16T16:54:28Z</time>
      </trkpt>
      <trkpt lat="38.347962" lon="-4.983532">
        <ele>561.771</ele>
        <time>2021-10-16T16:54:29Z</time>
      </trkpt>
      <trkpt lat="38.347474" lon="-4.983176">
        <ele>561.150</ele>
        <time>2021-10-16T16:54:31Z</time>
      </trkpt>
      <trkpt lat="38.347231" lon="-4.982993">
        <ele>561.454</ele>
        <time>2021-10-16T16:54:32Z</time>
      </trkpt>
      <trkpt lat="38.346777" lon="-4.982649">
        <ele>561.589</ele>
        <time>2021-10-16T16:54:34Z</time>
      </trkpt>
      <trkpt lat="38.346550" lon="-4.982477">
        <ele>561.698</ele>
        <time>2021-10-16T16:54:35Z</time>
      </trkpt>
      <trkpt lat="38.346108" lon="-4.982135">
        <ele>560.480</ele>
        <time>2021-10-16T16:54:37Z</time>
      </trkpt>
      <trkpt lat="38.345879" lon="-4.981961">
        <ele>559.547</ele>
        <time>2021-10-16T16:54:38Z</time>
      </trkpt>
      <trkpt lat="38.345439" lon="-4.981630">
        <ele>556.918</ele>
        <time>2021-10-16T16:54:40Z</time>
      </trkpt>
      <trkpt lat="38.345212" lon="-4.981461">
        <ele>556.398</ele>
        <time>2021-10-16T16:54:41Z</time>
      </trkpt>
      <trkpt lat="38.344758" lon="-4.981120">
        <ele>554.617</ele>
        <time>2021-10-16T16:54:43Z</time>
      </trkpt>
      <trkpt lat="38.344525" lon="-4.980945">
        <ele>554.208</ele>
        <time>2021-10-16T16:54:44Z</time>
      </trkpt>
      <trkpt lat="38.344078" lon="-4.980610">
        <ele>553.679</ele>
        <time>2021-10-16T16:54:46Z</time>
      </trkpt>
      <trkpt lat="38.343621" lon="-4.980267">
        <ele>552.287</ele>
        <time>2021-10-16T16:54:48Z</time>
      </trkpt>
      <trkpt lat="38.343161" lon="-4.979921">
        <ele>553.276</ele>
        <time>2021-10-16T16:54:50Z</time>
      </trkpt>
      <trkpt lat="38.342713" lon="-4.979576">
        <ele>552.920</ele>
        <time>2021-10-16T16:54:52Z</time>
      </trkpt>
      <trkpt lat="38.342478" lon="-4.979403">
        <ele>552.465</ele>
        <time>2021-10-16T16:54:53Z</time>
      </trkpt>
      <trkpt lat="38.341998" lon="-4.979075">
        <ele>551.664</ele>
        <time>2021-10-16T16:54:55Z</time>
      </trkpt>
      <trkpt lat="38.341737" lon="-4.978923">
        <ele>550.816</ele>
        <time>2021-10-16T16:54:56Z</time>
      </trkpt>
      <trkpt lat="38.341219" lon="-4.978663">
        <ele>550.313</ele>
        <time>2021-10-16T16:54:58Z</time>
      </trkpt>
      <trkpt lat="38.340938" lon="-4.978546">
        <ele>549.337</ele>
        <time>2021-10-16T16:54:59Z</time>
      </trkpt>
      <trkpt lat="38.340360" lon="-4.978359">
        <ele>546.849</ele>
        <time>2021-10-16T16:55:01Z</time>
      </trkpt>
      <trkpt lat="38.340062" lon="-4.978280">
        <ele>545.213</ele>
        <time>2021-10-16T16:55:02Z</time>
      </trkpt>
      <trkpt lat="38.339471" lon="-4.978135">
        <ele>542.908</ele>
        <time>2021-10-16T16:55:04Z</time>
      </trkpt>
      <trkpt lat="38.338868" lon="-4.977984">
        <ele>541.441</ele>
        <time>2021-10-16T16:55:06Z</time>
      </trkpt>
      <trkpt lat="38.338570" lon="-4.977908">
        <ele>540.969</ele>
        <time>2021-10-16T16:55:07Z</time>
      </trkpt>
      <trkpt lat="38.338269" lon="-4.977834">
        <ele>540.098</ele>
        <time>2021-10-16T16:55:08Z</time>
      </trkpt>
      <trkpt lat="38.337702" lon="-4.977700">
        <ele>539.612</ele>
        <time>2021-10-16T16:55:10Z</time>
      </trkpt>
      <trkpt lat="38.337421" lon="-4.977628">
        <ele>539.937</ele>
        <time>2021-10-16T16:55:11Z</time>
      </trkpt>
      <trkpt lat="38.336870" lon="-4.977498">
        <ele>541.046</ele>
        <time>2021-10-16T16:55:13Z</time>
      </trkpt>
      <trkpt lat="38.336594" lon="-4.977432">
        <ele>541.958</ele>
        <time>2021-10-16T16:55:14Z</time>
      </trkpt>
      <trkpt lat="38.336067" lon="-4.977298">
        <ele>543.655</ele>
        <time>2021-10-16T16:55:16Z</time>
      </trkpt>
      <trkpt lat="38.335794" lon="-4.977234">
        <ele>544.462</ele>
        <time>2021-10-16T16:55:17Z</time>
      </trkpt>
      <trkpt lat="38.335242" lon="-4.977116">
        <ele>544.583</ele>
        <time>2021-10-16T16:55:19Z</time>
      </trkpt>
      <trkpt lat="38.334956" lon="-4.977071">
        <ele>544.911</ele>
        <time>2021-10-16T16:55:20Z</time>
      </trkpt>
      <trkpt lat="38.334408" lon="-4.977015">
        <ele>545.608</ele>
        <time>2021-10-16T16:55:22Z</time>
      </trkpt>
      <trkpt lat="38.334124" lon="-4.977006">
        <ele>545.924</ele>
        <time>2021-10-16T16:55:23Z</time>
      </trkpt>
      <trkpt lat="38.333567" lon="-4.977034">
        <ele>545.052</ele>
        <time>2021-10-16T16:55:25Z</time>
      </trkpt>
      <trkpt lat="38.333281" lon="-4.977076">
        <ele>545.161</ele>
        <time>2021-10-16T16:55:26Z</time>
      </trkpt>
      <trkpt lat="38.332745" lon="-4.977199">
        <ele>545.435</ele>
        <time>2021-10-16T16:55:28Z</time>
      </trkpt>
      <trkpt lat="38.332470" lon="-4.977275">
        <ele>544.790</ele>
        <time>2021-10-16T16:55:29Z</time>
      </trkpt>
      <trkpt lat="38.331921" lon="-4.977445">
        <ele>542.839</ele>
        <time>2021-10-16T16:55:31Z</time>
      </trkpt>
      <trkpt lat="38.331635" lon="-4.977541">
        <ele>541.841</ele>
        <time>2021-10-16T16:55:32Z</time>
      </trkpt>
      <trkpt lat="38.331092" lon="-4.977729">
        <ele>539.278</ele>
        <time>2021-10-16T16:55:34Z</time>
      </trkpt>
      <trkpt lat="38.330815" lon="-4.977821">
        <ele>538.274</ele>
        <time>2021-10-16T16:55:35Z</time>
      </trkpt>
      <trkpt lat="38.330266" lon="-4.978007">
        <ele>536.156</ele>
        <time>2021-10-16T16:55:37Z</time>
      </trkpt>
      <trkpt lat="38.329985" lon="-4.978107">
        <ele>534.821</ele>
        <time>2021-10-16T16:55:38Z</time>
      </trkpt>
      <trkpt lat="38.329448" lon="-4.978307">
        <ele>532.308</ele>
        <time>2021-10-16T16:55:40Z</time>
      </trkpt>
      <trkpt lat="38.328914" lon="-4.978543">
        <ele>530.645</ele>
        <time>2021-10-16T16:55:42Z</time>
      </trkpt>
      <trkpt lat="38.328393" lon="-4.978803">
        <ele>530.163</ele>
        <time>2021-10-16T16:55:44Z</time>
      </trkpt>
      <trkpt lat="38.327911" lon="-4.979046">
        <ele>530.422</ele>
        <time>2021-10-16T16:55:46Z</time>
      </trkpt>
      <trkpt lat="38.327436" lon="-4.979274">
        <ele>530.786</ele>
        <time>2021-10-16T16:55:48Z</time>
      </trkpt>
      <trkpt lat="38.327204" lon="-4.979386">
        <ele>531.031</ele>
        <time>2021-10-16T16:55:49Z</time>
      </trkpt>
      <trkpt lat="38.326970" lon="-4.979503">
        <ele>531.770</ele>
        <time>2021-10-16T16:55:50Z</time>
      </trkpt>
      <trkpt lat="38.326514" lon="-4.979725">
        <ele>533.892</ele>
        <time>2021-10-16T16:55:52Z</time>
      </trkpt>
      <trkpt lat="38.326047" lon="-4.979949">
        <ele>535.859</ele>
        <time>2021-10-16T16:55:54Z</time>
      </trkpt>
      <trkpt lat="38.325573" lon="-4.980164">
        <ele>537.413</ele>
        <time>2021-10-16T16:55:56Z</time>
      </trkpt>
      <trkpt lat="38.325103" lon="-4.980341">
        <ele>539.143</ele>
        <time>2021-10-16T16:55:58Z</time>
      </trkpt>
      <trkpt lat="38.324855" lon="-4.980410">
        <ele>539.807</ele>
        <time>2021-10-16T16:55:59Z</time>
      </trkpt>
      <trkpt lat="38.324602" lon="-4.980462">
        <ele>540.308</ele>
        <time>2021-10-16T16:56:00Z</time>
      </trkpt>
      <trkpt lat="38.324344" lon="-4.980495">
        <ele>540.769</ele>
        <time>2021-10-16T16:56:01Z</time>
      </trkpt>
      <trkpt lat="38.324074" lon="-4.980506">
        <ele>541.397</ele>
        <time>2021-10-16T16:56:02Z</time>
      </trkpt>
      <trkpt lat="38.323542" lon="-4.980467">
        <ele>542.546</ele>
        <time>2021-10-16T16:56:04Z</time>
      </trkpt>
      <trkpt lat="38.323267" lon="-4.980418">
        <ele>542.380</ele>
        <time>2021-10-16T16:56:05Z</time>
      </trkpt>
      <trkpt lat="38.322714" lon="-4.980253">
        <ele>542.695</ele>
        <time>2021-10-16T16:56:07Z</time>
      </trkpt>
      <trkpt lat="38.322432" lon="-4.980150">
        <ele>542.274</ele>
        <time>2021-10-16T16:56:08Z</time>
      </trkpt>
      <trkpt lat="38.321881" lon="-4.979929">
        <ele>543.286</ele>
        <time>2021-10-16T16:56:10Z</time>
      </trkpt>
      <trkpt lat="38.321320" lon="-4.979702">
        <ele>544.793</ele>
        <time>2021-10-16T16:56:12Z</time>
      </trkpt>
      <trkpt lat="38.321043" lon="-4.979592">
        <ele>545.589</ele>
        <time>2021-10-16T16:56:13Z</time>
      </trkpt>
      <trkpt lat="38.320762" lon="-4.979479">
        <ele>546.906</ele>
        <time>2021-10-16T16:56:14Z</time>
      </trkpt>
      <trkpt lat="38.320231" lon="-4.979265">
        <ele>548.426</ele>
        <time>2021-10-16T16:56:16Z</time>
      </trkpt>
      <trkpt lat="38.319970" lon="-4.979166">
        <ele>549.308</ele>
        <time>2021-10-16T16:56:17Z</time>
      </trkpt>
      <trkpt lat="38.319706" lon="-4.979095">
        <ele>549.556</ele>
        <time>2021-10-16T16:56:18Z</time>
      </trkpt>
      <trkpt lat="38.319437" lon="-4.979058">
        <ele>550.344</ele>
        <time>2021-10-16T16:56:19Z</time>
      </trkpt>
      <trkpt lat="38.319158" lon="-4.979049">
        <ele>551.573</ele>
        <time>2021-10-16T16:56:20Z</time>
      </trkpt>
      <trkpt lat="38.318615" lon="-4.979060">
        <ele>554.017</ele>
        <time>2021-10-16T16:56:22Z</time>
      </trkpt>
      <trkpt lat="38.318341" lon="-4.979061">
        <ele>554.222</ele>
        <time>2021-10-16T16:56:23Z</time>
      </trkpt>
      <trkpt lat="38.317808" lon="-4.979060">
        <ele>556.691</ele>
        <time>2021-10-16T16:56:25Z</time>
      </trkpt>
      <trkpt lat="38.317545" lon="-4.979058">
        <ele>557.193</ele>
        <time>2021-10-16T16:56:26Z</time>
      </trkpt>
      <trkpt lat="38.317070" lon="-4.979054">
        <ele>558.410</ele>
        <time>2021-10-16T16:56:28Z</time>
      </trkpt>
      <trkpt lat="38.316828" lon="-4.979052">
        <ele>559.476</ele>
        <time>2021-10-16T16:56:29Z</time>
      </trkpt>
      <trkpt lat="38.316584" lon="-4.979050">
        <ele>560.090</ele>
        <time>2021-10-16T16:56:30Z</time>
      </trkpt>
      <trkpt lat="38.316336" lon="-4.979047">
        <ele>560.819</ele>
        <time>2021-10-16T16:56:31Z</time>
      </trkpt>
      <trkpt lat="38.316078" lon="-4.979035">
        <ele>561.808</ele>
        <time>2021-10-16T16:56:32Z</time>
      </trkpt>
      <trkpt lat="38.315576" lon="-4.978974">
        <ele>563.895</ele>
        <time>2021-10-16T16:56:34Z</time>
      </trkpt>
      <trkpt lat="38.315316" lon="-4.978907">
        <ele>565.183</ele>
        <time>2021-10-16T16:56:35Z</time>
      </trkpt>
      <trkpt lat="38.314820" lon="-4.978705">
        <ele>565.392</ele>
        <time>2021-10-16T16:56:37Z</time>
      </trkpt>
      <trkpt lat="38.314572" lon="-4.978594">
        <ele>565.096</ele>
        <time>2021-10-16T16:56:38Z</time>
      </trkpt>
      <trkpt lat="38.314107" lon="-4.978408">
        <ele>564.171</ele>
        <time>2021-10-16T16:56:40Z</time>
      </trkpt>
      <trkpt lat="38.313865" lon="-4.978340">
        <ele>563.690</ele>
        <time>2021-10-16T16:56:41Z</time>
      </trkpt>
      <trkpt lat="38.313386" lon="-4.978299">
        <ele>562.472</ele>
        <time>2021-10-16T16:56:43Z</time>
      </trkpt>
      <trkpt lat="38.313138" lon="-4.978326">
        <ele>561.419</ele>
        <time>2021-10-16T16:56:44Z</time>
      </trkpt>
      <trkpt lat="38.312663" lon="-4.978433">
        <ele>560.161</ele>
        <time>2021-10-16T16:56:46Z</time>
      </trkpt>
      <trkpt lat="38.312174" lon="-4.978550">
        <ele>560.721</ele>
        <time>2021-10-16T16:56:48Z</time>
      </trkpt>
      <trkpt lat="38.311679" lon="-4.978649">
        <ele>559.413</ele>
        <time>2021-10-16T16:56:50Z</time>
      </trkpt>
      <trkpt lat="38.311211" lon="-4.978692">
        <ele>559.908</ele>
        <time>2021-10-16T16:56:52Z</time>
      </trkpt>
      <trkpt lat="38.310973" lon="-4.978677">
        <ele>559.544</ele>
        <time>2021-10-16T16:56:53Z</time>
      </trkpt>
      <trkpt lat="38.310496" lon="-4.978529">
        <ele>558.242</ele>
        <time>2021-10-16T16:56:55Z</time>
      </trkpt>
      <trkpt lat="38.310257" lon="-4.978397">
        <ele>556.781</ele>
        <time>2021-10-16T16:56:56Z</time>
      </trkpt>
      <trkpt lat="38.309841" lon="-4.978049">
        <ele>554.395</ele>
        <time>2021-10-16T16:56:58Z</time>
      </trkpt>
      <trkpt lat="38.309642" lon="-4.977837">
        <ele>553.080</ele>
        <time>2021-10-16T16:56:59Z</time>
      </trkpt>
      <trkpt lat="38.309458" lon="-4.977604">
        <ele>551.899</ele>
        <time>2021-10-16T16:57:00Z</time>
      </trkpt>
      <trkpt lat="38.309114" lon="-4.977099">
        <ele>549.141</ele>
        <time>2021-10-16T16:57:02Z</time>
      </trkpt>
      <trkpt lat="38.308793" lon="-4.976634">
        <ele>545.338</ele>
        <time>2021-10-16T16:57:04Z</time>
      </trkpt>
      <trkpt lat="38.308441" lon="-4.976195">
        <ele>541.871</ele>
        <time>2021-10-16T16:57:06Z</time>
      </trkpt>
      <trkpt lat="38.308053" lon="-4.975808">
        <ele>537.741</ele>
        <time>2021-10-16T16:57:08Z</time>
      </trkpt>
      <trkpt lat="38.307629" lon="-4.975511">
        <ele>535.715</ele>
        <time>2021-10-16T16:57:10Z</time>
      </trkpt>
      <trkpt lat="38.307155" lon="-4.975270">
        <ele>534.908</ele>
        <time>2021-10-16T16:57:12Z</time>
      </trkpt>
      <trkpt lat="38.306908" lon="-4.975188">
        <ele>535.075</ele>
        <time>2021-10-16T16:57:13Z</time>
      </trkpt>
      <trkpt lat="38.306647" lon="-4.975127">
        <ele>535.013</ele>
        <time>2021-10-16T16:57:14Z</time>
      </trkpt>
      <trkpt lat="38.306131" lon="-4.975088">
        <ele>537.042</ele>
        <time>2021-10-16T16:57:16Z</time>
      </trkpt>
      <trkpt lat="38.305584" lon="-4.975123">
        <ele>538.036</ele>
        <time>2021-10-16T16:57:18Z</time>
      </trkpt>
      <trkpt lat="38.305013" lon="-4.975186">
        <ele>539.941</ele>
        <time>2021-10-16T16:57:20Z</time>
      </trkpt>
      <trkpt lat="38.304446" lon="-4.975261">
        <ele>541.440</ele>
        <time>2021-10-16T16:57:22Z</time>
      </trkpt>
      <trkpt lat="38.303881" lon="-4.975368">
        <ele>543.822</ele>
        <time>2021-10-16T16:57:24Z</time>
      </trkpt>
      <trkpt lat="38.303378" lon="-4.975569">
        <ele>546.849</ele>
        <time>2021-10-16T16:57:26Z</time>
      </trkpt>
      <trkpt lat="38.302940" lon="-4.975890">
        <ele>550.299</ele>
        <time>2021-10-16T16:57:28Z</time>
      </trkpt>
      <trkpt lat="38.302733" lon="-4.976099">
        <ele>552.207</ele>
        <time>2021-10-16T16:57:29Z</time>
      </trkpt>
      <trkpt lat="38.302541" lon="-4.976322">
        <ele>553.927</ele>
        <time>2021-10-16T16:57:30Z</time>
      </trkpt>
      <trkpt lat="38.302353" lon="-4.976546">
        <ele>555.808</ele>
        <time>2021-10-16T16:57:31Z</time>
      </trkpt>
      <trkpt lat="38.302158" lon="-4.976762">
        <ele>557.567</ele>
        <time>2021-10-16T16:57:32Z</time>
      </trkpt>
      <trkpt lat="38.301751" lon="-4.977108">
        <ele>560.465</ele>
        <time>2021-10-16T16:57:34Z</time>
      </trkpt>
      <trkpt lat="38.301522" lon="-4.977240">
        <ele>561.494</ele>
        <time>2021-10-16T16:57:35Z</time>
      </trkpt>
      <trkpt lat="38.301044" lon="-4.977402">
        <ele>564.658</ele>
        <time>2021-10-16T16:57:37Z</time>
      </trkpt>
      <trkpt lat="38.300790" lon="-4.977429">
        <ele>565.643</ele>
        <time>2021-10-16T16:57:38Z</time>
      </trkpt>
      <trkpt lat="38.300299" lon="-4.977388">
        <ele>567.622</ele>
        <time>2021-10-16T16:57:40Z</time>
      </trkpt>
      <trkpt lat="38.300046" lon="-4.977327">
        <ele>567.724</ele>
        <time>2021-10-16T16:57:41Z</time>
      </trkpt>
      <trkpt lat="38.299537" lon="-4.977164">
        <ele>567.611</ele>
        <time>2021-10-16T16:57:43Z</time>
      </trkpt>
      <trkpt lat="38.299268" lon="-4.977075">
        <ele>567.634</ele>
        <time>2021-10-16T16:57:44Z</time>
      </trkpt>
      <trkpt lat="38.298741" lon="-4.976910">
        <ele>567.155</ele>
        <time>2021-10-16T16:57:46Z</time>
      </trkpt>
      <trkpt lat="38.298194" lon="-4.976744">
        <ele>567.210</ele>
        <time>2021-10-16T16:57:48Z</time>
      </trkpt>
      <trkpt lat="38.297923" lon="-4.976661">
        <ele>567.508</ele>
        <time>2021-10-16T16:57:49Z</time>
      </trkpt>
      <trkpt lat="38.297658" lon="-4.976581">
        <ele>567.531</ele>
        <time>2021-10-16T16:57:50Z</time>
      </trkpt>
      <trkpt lat="38.297157" lon="-4.976429">
        <ele>568.769</ele>
        <time>2021-10-16T16:57:52Z</time>
      </trkpt>
      <trkpt lat="38.296900" lon="-4.976346">
        <ele>568.438</ele>
        <time>2021-10-16T16:57:53Z</time>
      </trkpt>
      <trkpt lat="38.296393" lon="-4.976192">
        <ele>570.622</ele>
        <time>2021-10-16T16:57:55Z</time>
      </trkpt>
      <trkpt lat="38.296134" lon="-4.976120">
        <ele>571.487</ele>
        <time>2021-10-16T16:57:56Z</time>
      </trkpt>
      <trkpt lat="38.295641" lon="-4.976004">
        <ele>572.296</ele>
        <time>2021-10-16T16:57:58Z</time>
      </trkpt>
      <trkpt lat="38.295138" lon="-4.975966">
        <ele>573.528</ele>
        <time>2021-10-16T16:58:00Z</time>
      </trkpt>
      <trkpt lat="38.294622" lon="-4.976037">
        <ele>573.375</ele>
        <time>2021-10-16T16:58:02Z</time>
      </trkpt>
      <trkpt lat="38.294116" lon="-4.976205">
        <ele>573.686</ele>
        <time>2021-10-16T16:58:04Z</time>
      </trkpt>
      <trkpt lat="38.293593" lon="-4.976384">
        <ele>573.360</ele>
        <time>2021-10-16T16:58:06Z</time>
      </trkpt>
      <trkpt lat="38.293062" lon="-4.976554">
        <ele>575.026</ele>
        <time>2021-10-16T16:58:08Z</time>
      </trkpt>
      <trkpt lat="38.292547" lon="-4.976732">
        <ele>576.908</ele>
        <time>2021-10-16T16:58:10Z</time>
      </trkpt>
      <trkpt lat="38.292032" lon="-4.976905">
        <ele>577.736</ele>
        <time>2021-10-16T16:58:12Z</time>
      </trkpt>
      <trkpt lat="38.291772" lon="-4.976993">
        <ele>578.864</ele>
        <time>2021-10-16T16:58:13Z</time>
      </trkpt>
      <trkpt lat="38.291507" lon="-4.977083">
        <ele>580.023</ele>
        <time>2021-10-16T16:58:14Z</time>
      </trkpt>
      <trkpt lat="38.291003" lon="-4.977247">
        <ele>580.797</ele>
        <time>2021-10-16T16:58:16Z</time>
      </trkpt>
      <trkpt lat="38.290741" lon="-4.977321">
        <ele>580.872</ele>
        <time>2021-10-16T16:58:17Z</time>
      </trkpt>
      <trkpt lat="38.290218" lon="-4.977422">
        <ele>582.991</ele>
        <time>2021-10-16T16:58:19Z</time>
      </trkpt>
      <trkpt lat="38.289948" lon="-4.977446">
        <ele>583.523</ele>
        <time>2021-10-16T16:58:20Z</time>
      </trkpt>
      <trkpt lat="38.289428" lon="-4.977439">
        <ele>583.340</ele>
        <time>2021-10-16T16:58:22Z</time>
      </trkpt>
      <trkpt lat="38.289158" lon="-4.977416">
        <ele>584.046</ele>
        <time>2021-10-16T16:58:23Z</time>
      </trkpt>
      <trkpt lat="38.288633" lon="-4.977355">
        <ele>585.488</ele>
        <time>2021-10-16T16:58:25Z</time>
      </trkpt>
      <trkpt lat="38.288360" lon="-4.977322">
        <ele>586.216</ele>
        <time>2021-10-16T16:58:26Z</time>
      </trkpt>
      <trkpt lat="38.287831" lon="-4.977261">
        <ele>587.708</ele>
        <time>2021-10-16T16:58:28Z</time>
      </trkpt>
      <trkpt lat="38.287279" lon="-4.977192">
        <ele>589.692</ele>
        <time>2021-10-16T16:58:30Z</time>
      </trkpt>
      <trkpt lat="38.287001" lon="-4.977160">
        <ele>590.820</ele>
        <time>2021-10-16T16:58:31Z</time>
      </trkpt>
      <trkpt lat="38.286714" lon="-4.977126">
        <ele>591.949</ele>
        <time>2021-10-16T16:58:32Z</time>
      </trkpt>
      <trkpt lat="38.286172" lon="-4.977067">
        <ele>593.683</ele>
        <time>2021-10-16T16:58:34Z</time>
      </trkpt>
      <trkpt lat="38.285626" lon="-4.977011">
        <ele>595.498</ele>
        <time>2021-10-16T16:58:36Z</time>
      </trkpt>
      <trkpt lat="38.285355" lon="-4.976977">
        <ele>596.337</ele>
        <time>2021-10-16T16:58:37Z</time>
      </trkpt>
      <trkpt lat="38.285085" lon="-4.976943">
        <ele>597.119</ele>
        <time>2021-10-16T16:58:38Z</time>
      </trkpt>
      <trkpt lat="38.284608" lon="-4.976885">
        <ele>598.016</ele>
        <time>2021-10-16T16:58:40Z</time>
      </trkpt>
      <trkpt lat="38.284366" lon="-4.976853">
        <ele>598.937</ele>
        <time>2021-10-16T16:58:41Z</time>
      </trkpt>
      <trkpt lat="38.283881" lon="-4.976748">
        <ele>600.149</ele>
        <time>2021-10-16T16:58:43Z</time>
      </trkpt>
      <trkpt lat="38.283631" lon="-4.976661">
        <ele>600.813</ele>
        <time>2021-10-16T16:58:44Z</time>
      </trkpt>
      <trkpt lat="38.283160" lon="-4.976433">
        <ele>600.908</ele>
        <time>2021-10-16T16:58:46Z</time>
      </trkpt>
      <trkpt lat="38.282683" lon="-4.976124">
        <ele>600.481</ele>
        <time>2021-10-16T16:58:48Z</time>
      </trkpt>
      <trkpt lat="38.282453" lon="-4.975946">
        <ele>599.829</ele>
        <time>2021-10-16T16:58:49Z</time>
      </trkpt>
      <trkpt lat="38.282225" lon="-4.975740">
        <ele>599.088</ele>
        <time>2021-10-16T16:58:50Z</time>
      </trkpt>
      <trkpt lat="38.281813" lon="-4.975289">
        <ele>597.752</ele>
        <time>2021-10-16T16:58:52Z</time>
      </trkpt>
      <trkpt lat="38.281612" lon="-4.975044">
        <ele>596.767</ele>
        <time>2021-10-16T16:58:53Z</time>
      </trkpt>
      <trkpt lat="38.281214" lon="-4.974556">
        <ele>594.046</ele>
        <time>2021-10-16T16:58:55Z</time>
      </trkpt>
      <trkpt lat="38.281005" lon="-4.974314">
        <ele>593.698</ele>
        <time>2021-10-16T16:58:56Z</time>
      </trkpt>
      <trkpt lat="38.280595" lon="-4.973895">
        <ele>594.285</ele>
        <time>2021-10-16T16:58:58Z</time>
      </trkpt>
      <trkpt lat="38.280375" lon="-4.973697">
        <ele>594.084</ele>
        <time>2021-10-16T16:58:59Z</time>
      </trkpt>
      <trkpt lat="38.279919" lon="-4.973351">
        <ele>593.707</ele>
        <time>2021-10-16T16:59:01Z</time>
      </trkpt>
      <trkpt lat="38.279678" lon="-4.973192">
        <ele>593.017</ele>
        <time>2021-10-16T16:59:02Z</time>
      </trkpt>
      <trkpt lat="38.279209" lon="-4.972936">
        <ele>593.808</ele>
        <time>2021-10-16T16:59:04Z</time>
      </trkpt>
      <trkpt lat="38.278966" lon="-4.972818">
        <ele>593.586</ele>
        <time>2021-10-16T16:59:05Z</time>
      </trkpt>
      <trkpt lat="38.278485" lon="-4.972583">
        <ele>593.474</ele>
        <time>2021-10-16T16:59:07Z</time>
      </trkpt>
      <trkpt lat="38.278235" lon="-4.972459">
        <ele>593.473</ele>
        <time>2021-10-16T16:59:08Z</time>
      </trkpt>
      <trkpt lat="38.277752" lon="-4.972221">
        <ele>592.517</ele>
        <time>2021-10-16T16:59:10Z</time>
      </trkpt>
      <trkpt lat="38.277247" lon="-4.971972">
        <ele>592.962</ele>
        <time>2021-10-16T16:59:12Z</time>
      </trkpt>
      <trkpt lat="38.276991" lon="-4.971845">
        <ele>592.221</ele>
        <time>2021-10-16T16:59:13Z</time>
      </trkpt>
      <trkpt lat="38.276731" lon="-4.971716">
        <ele>591.293</ele>
        <time>2021-10-16T16:59:14Z</time>
      </trkpt>
      <trkpt lat="38.276259" lon="-4.971482">
        <ele>590.990</ele>
        <time>2021-10-16T16:59:16Z</time>
      </trkpt>
      <trkpt lat="38.276028" lon="-4.971367">
        <ele>590.873</ele>
        <time>2021-10-16T16:59:17Z</time>
      </trkpt>
      <trkpt lat="38.275569" lon="-4.971156">
        <ele>590.185</ele>
        <time>2021-10-16T16:59:19Z</time>
      </trkpt>
      <trkpt lat="38.275327" lon="-4.971055">
        <ele>589.913</ele>
        <time>2021-10-16T16:59:20Z</time>
      </trkpt>
      <trkpt lat="38.274842" lon="-4.970898">
        <ele>590.508</ele>
        <time>2021-10-16T16:59:22Z</time>
      </trkpt>
      <trkpt lat="38.274583" lon="-4.970847">
        <ele>589.775</ele>
        <time>2021-10-16T16:59:23Z</time>
      </trkpt>
      <trkpt lat="38.274047" lon="-4.970824">
        <ele>590.023</ele>
        <time>2021-10-16T16:59:25Z</time>
      </trkpt>
      <trkpt lat="38.273765" lon="-4.970855">
        <ele>591.022</ele>
        <time>2021-10-16T16:59:26Z</time>
      </trkpt>
      <trkpt lat="38.273240" lon="-4.971003">
        <ele>592.016</ele>
        <time>2021-10-16T16:59:28Z</time>
      </trkpt>
      <trkpt lat="38.272727" lon="-4.971251">
        <ele>593.261</ele>
        <time>2021-10-16T16:59:30Z</time>
      </trkpt>
      <trkpt lat="38.272480" lon="-4.971410">
        <ele>594.210</ele>
        <time>2021-10-16T16:59:31Z</time>
      </trkpt>
      <trkpt lat="38.272243" lon="-4.971594">
        <ele>594.882</ele>
        <time>2021-10-16T16:59:32Z</time>
      </trkpt>
      <trkpt lat="38.271828" lon="-4.972001">
        <ele>596.379</ele>
        <time>2021-10-16T16:59:34Z</time>
      </trkpt>
      <trkpt lat="38.271634" lon="-4.972231">
        <ele>597.269</ele>
        <time>2021-10-16T16:59:35Z</time>
      </trkpt>
      <trkpt lat="38.271269" lon="-4.972707">
        <ele>598.604</ele>
        <time>2021-10-16T16:59:37Z</time>
      </trkpt>
      <trkpt lat="38.271084" lon="-4.972949">
        <ele>599.824</ele>
        <time>2021-10-16T16:59:38Z</time>
      </trkpt>
      <trkpt lat="38.270724" lon="-4.973402">
        <ele>601.908</ele>
        <time>2021-10-16T16:59:40Z</time>
      </trkpt>
      <trkpt lat="38.270532" lon="-4.973617">
        <ele>602.654</ele>
        <time>2021-10-16T16:59:41Z</time>
      </trkpt>
      <trkpt lat="38.270108" lon="-4.973981">
        <ele>605.042</ele>
        <time>2021-10-16T16:59:43Z</time>
      </trkpt>
      <trkpt lat="38.269871" lon="-4.974118">
        <ele>605.921</ele>
        <time>2021-10-16T16:59:44Z</time>
      </trkpt>
      <trkpt lat="38.269399" lon="-4.974289">
        <ele>608.245</ele>
        <time>2021-10-16T16:59:46Z</time>
      </trkpt>
      <trkpt lat="38.269149" lon="-4.974336">
        <ele>609.780</ele>
        <time>2021-10-16T16:59:47Z</time>
      </trkpt>
      <trkpt lat="38.268637" lon="-4.974371">
        <ele>613.329</ele>
        <time>2021-10-16T16:59:49Z</time>
      </trkpt>
      <trkpt lat="38.268367" lon="-4.974388">
        <ele>614.611</ele>
        <time>2021-10-16T16:59:50Z</time>
      </trkpt>
      <trkpt lat="38.267850" lon="-4.974437">
        <ele>617.348</ele>
        <time>2021-10-16T16:59:52Z</time>
      </trkpt>
      <trkpt lat="38.267331" lon="-4.974499">
        <ele>620.785</ele>
        <time>2021-10-16T16:59:54Z</time>
      </trkpt>
      <trkpt lat="38.266815" lon="-4.974649">
        <ele>623.089</ele>
        <time>2021-10-16T16:59:56Z</time>
      </trkpt>
      <trkpt lat="38.266337" lon="-4.974908">
        <ele>628.017</ele>
        <time>2021-10-16T16:59:58Z</time>
      </trkpt>
      <trkpt lat="38.266093" lon="-4.975060">
        <ele>629.708</ele>
        <time>2021-10-16T16:59:59Z</time>
      </trkpt>
      <trkpt lat="38.265604" lon="-4.975368">
        <ele>632.976</ele>
        <time>2021-10-16T17:00:01Z</time>
      </trkpt>
      <trkpt lat="38.265349" lon="-4.975525">
        <ele>634.914</ele>
        <time>2021-10-16T17:00:02Z</time>
      </trkpt>
      <trkpt lat="38.264867" lon="-4.975819">
        <ele>639.853</ele>
        <time>2021-10-16T17:00:04Z</time>
      </trkpt>
      <trkpt lat="38.264619" lon="-4.975971">
        <ele>641.447</ele>
        <time>2021-10-16T17:00:05Z</time>
      </trkpt>
      <trkpt lat="38.264368" lon="-4.976122">
        <ele>643.352</ele>
        <time>2021-10-16T17:00:06Z</time>
      </trkpt>
      <trkpt lat="38.263848" lon="-4.976421">
        <ele>647.671</ele>
        <time>2021-10-16T17:00:08Z</time>
      </trkpt>
      <trkpt lat="38.263325" lon="-4.976676">
        <ele>651.853</ele>
        <time>2021-10-16T17:00:10Z</time>
      </trkpt>
      <trkpt lat="38.263047" lon="-4.976778">
        <ele>654.380</ele>
        <time>2021-10-16T17:00:11Z</time>
      </trkpt>
      <trkpt lat="38.262491" lon="-4.976913">
        <ele>657.827</ele>
        <time>2021-10-16T17:00:13Z</time>
      </trkpt>
      <trkpt lat="38.262208" lon="-4.976950">
        <ele>659.368</ele>
        <time>2021-10-16T17:00:14Z</time>
      </trkpt>
      <trkpt lat="38.261682" lon="-4.976980">
        <ele>661.614</ele>
        <time>2021-10-16T17:00:16Z</time>
      </trkpt>
      <trkpt lat="38.261421" lon="-4.976994">
        <ele>663.408</ele>
        <time>2021-10-16T17:00:17Z</time>
      </trkpt>
      <trkpt lat="38.260916" lon="-4.977030">
        <ele>667.140</ele>
        <time>2021-10-16T17:00:19Z</time>
      </trkpt>
      <trkpt lat="38.260658" lon="-4.977057">
        <ele>668.738</ele>
        <time>2021-10-16T17:00:20Z</time>
      </trkpt>
      <trkpt lat="38.260171" lon="-4.977120">
        <ele>671.947</ele>
        <time>2021-10-16T17:00:22Z</time>
      </trkpt>
      <trkpt lat="38.259928" lon="-4.977157">
        <ele>673.721</ele>
        <time>2021-10-16T17:00:23Z</time>
      </trkpt>
      <trkpt lat="38.259687" lon="-4.977200">
        <ele>675.076</ele>
        <time>2021-10-16T17:00:24Z</time>
      </trkpt>
      <trkpt lat="38.259206" lon="-4.977300">
        <ele>678.425</ele>
        <time>2021-10-16T17:00:26Z</time>
      </trkpt>
      <trkpt lat="38.258746" lon="-4.977419">
        <ele>681.067</ele>
        <time>2021-10-16T17:00:28Z</time>
      </trkpt>
      <trkpt lat="38.258272" lon="-4.977564">
        <ele>683.824</ele>
        <time>2021-10-16T17:00:30Z</time>
      </trkpt>
      <trkpt lat="38.257779" lon="-4.977735">
        <ele>688.485</ele>
        <time>2021-10-16T17:00:32Z</time>
      </trkpt>
      <trkpt lat="38.257320" lon="-4.977929">
        <ele>689.689</ele>
        <time>2021-10-16T17:00:34Z</time>
      </trkpt>
      <trkpt lat="38.257093" lon="-4.978043">
        <ele>690.417</ele>
        <time>2021-10-16T17:00:35Z</time>
      </trkpt>
      <trkpt lat="38.256877" lon="-4.978160">
        <ele>691.008</ele>
        <time>2021-10-16T17:00:36Z</time>
      </trkpt>
      <trkpt lat="38.256453" lon="-4.978398">
        <ele>690.666</ele>
        <time>2021-10-16T17:00:38Z</time>
      </trkpt>
      <trkpt lat="38.256032" lon="-4.978656">
        <ele>689.754</ele>
        <time>2021-10-16T17:00:40Z</time>
      </trkpt>
      <trkpt lat="38.255624" lon="-4.978940">
        <ele>688.323</ele>
        <time>2021-10-16T17:00:42Z</time>
      </trkpt>
      <trkpt lat="38.255425" lon="-4.979088">
        <ele>687.137</ele>
        <time>2021-10-16T17:00:43Z</time>
      </trkpt>
      <trkpt lat="38.255218" lon="-4.979246">
        <ele>685.392</ele>
        <time>2021-10-16T17:00:44Z</time>
      </trkpt>
      <trkpt lat="38.254813" lon="-4.979566">
        <ele>683.111</ele>
        <time>2021-10-16T17:00:46Z</time>
      </trkpt>
      <trkpt lat="38.254605" lon="-4.979735">
        <ele>681.073</ele>
        <time>2021-10-16T17:00:47Z</time>
      </trkpt>
      <trkpt lat="38.254200" lon="-4.980063">
        <ele>678.150</ele>
        <time>2021-10-16T17:00:49Z</time>
      </trkpt>
      <trkpt lat="38.253989" lon="-4.980228">
        <ele>676.356</ele>
        <time>2021-10-16T17:00:50Z</time>
      </trkpt>
      <trkpt lat="38.253554" lon="-4.980515">
        <ele>673.959</ele>
        <time>2021-10-16T17:00:52Z</time>
      </trkpt>
      <trkpt lat="38.253332" lon="-4.980635">
        <ele>672.614</ele>
        <time>2021-10-16T17:00:53Z</time>
      </trkpt>
      <trkpt lat="38.252899" lon="-4.980834">
        <ele>669.408</ele>
        <time>2021-10-16T17:00:55Z</time>
      </trkpt>
      <trkpt lat="38.252686" lon="-4.980933">
        <ele>668.073</ele>
        <time>2021-10-16T17:00:56Z</time>
      </trkpt>
      <trkpt lat="38.252278" lon="-4.981125">
        <ele>665.721</ele>
        <time>2021-10-16T17:00:58Z</time>
      </trkpt>
      <trkpt lat="38.252062" lon="-4.981227">
        <ele>664.520</ele>
        <time>2021-10-16T17:00:59Z</time>
      </trkpt>
      <trkpt lat="38.251615" lon="-4.981436">
        <ele>663.124</ele>
        <time>2021-10-16T17:01:01Z</time>
      </trkpt>
      <trkpt lat="38.251380" lon="-4.981546">
        <ele>661.779</ele>
        <time>2021-10-16T17:01:02Z</time>
      </trkpt>
      <trkpt lat="38.250913" lon="-4.981745">
        <ele>659.328</ele>
        <time>2021-10-16T17:01:04Z</time>
      </trkpt>
      <trkpt lat="38.250411" lon="-4.981921">
        <ele>657.140</ele>
        <time>2021-10-16T17:01:06Z</time>
      </trkpt>
      <trkpt lat="38.250155" lon="-4.981988">
        <ele>655.637</ele>
        <time>2021-10-16T17:01:07Z</time>
      </trkpt>
      <trkpt lat="38.249901" lon="-4.982031">
        <ele>654.386</ele>
        <time>2021-10-16T17:01:08Z</time>
      </trkpt>
      <trkpt lat="38.249439" lon="-4.982052">
        <ele>651.560</ele>
        <time>2021-10-16T17:01:10Z</time>
      </trkpt>
      <trkpt lat="38.249211" lon="-4.982045">
        <ele>650.026</ele>
        <time>2021-10-16T17:01:11Z</time>
      </trkpt>
      <trkpt lat="38.248983" lon="-4.982035">
        <ele>649.308</ele>
        <time>2021-10-16T17:01:12Z</time>
      </trkpt>
      <trkpt lat="38.248757" lon="-4.982017">
        <ele>648.786</ele>
        <time>2021-10-16T17:01:13Z</time>
      </trkpt>
      <trkpt lat="38.248526" lon="-4.982002">
        <ele>647.534</ele>
        <time>2021-10-16T17:01:14Z</time>
      </trkpt>
      <trkpt lat="38.248076" lon="-4.981998">
        <ele>646.183</ele>
        <time>2021-10-16T17:01:16Z</time>
      </trkpt>
      <trkpt lat="38.247839" lon="-4.982013">
        <ele>645.527</ele>
        <time>2021-10-16T17:01:17Z</time>
      </trkpt>
      <trkpt lat="38.247601" lon="-4.982040">
        <ele>644.062</ele>
        <time>2021-10-16T17:01:18Z</time>
      </trkpt>
      <trkpt lat="38.247108" lon="-4.982133">
        <ele>642.431</ele>
        <time>2021-10-16T17:01:20Z</time>
      </trkpt>
      <trkpt lat="38.246616" lon="-4.982265">
        <ele>638.923</ele>
        <time>2021-10-16T17:01:22Z</time>
      </trkpt>
      <trkpt lat="38.246118" lon="-4.982411">
        <ele>636.490</ele>
        <time>2021-10-16T17:01:24Z</time>
      </trkpt>
      <trkpt lat="38.245874" lon="-4.982481">
        <ele>636.092</ele>
        <time>2021-10-16T17:01:25Z</time>
      </trkpt>
      <trkpt lat="38.245627" lon="-4.982552">
        <ele>635.273</ele>
        <time>2021-10-16T17:01:26Z</time>
      </trkpt>
      <trkpt lat="38.245175" lon="-4.982702">
        <ele>632.920</ele>
        <time>2021-10-16T17:01:28Z</time>
      </trkpt>
      <trkpt lat="38.244943" lon="-4.982794">
        <ele>631.308</ele>
        <time>2021-10-16T17:01:29Z</time>
      </trkpt>
      <trkpt lat="38.244705" lon="-4.982897">
        <ele>629.957</ele>
        <time>2021-10-16T17:01:30Z</time>
      </trkpt>
      <trkpt lat="38.244470" lon="-4.983016">
        <ele>628.865</ele>
        <time>2021-10-16T17:01:31Z</time>
      </trkpt>
      <trkpt lat="38.244229" lon="-4.983150">
        <ele>627.724</ele>
        <time>2021-10-16T17:01:32Z</time>
      </trkpt>
      <trkpt lat="38.243766" lon="-4.983446">
        <ele>624.998</ele>
        <time>2021-10-16T17:01:34Z</time>
      </trkpt>
      <trkpt lat="38.243529" lon="-4.983617">
        <ele>623.773</ele>
        <time>2021-10-16T17:01:35Z</time>
      </trkpt>
      <trkpt lat="38.243063" lon="-4.983993">
        <ele>619.922</ele>
        <time>2021-10-16T17:01:37Z</time>
      </trkpt>
      <trkpt lat="38.242813" lon="-4.984199">
        <ele>618.264</ele>
        <time>2021-10-16T17:01:38Z</time>
      </trkpt>
      <trkpt lat="38.242317" lon="-4.984605">
        <ele>615.461</ele>
        <time>2021-10-16T17:01:40Z</time>
      </trkpt>
      <trkpt lat="38.242060" lon="-4.984812">
        <ele>614.798</ele>
        <time>2021-10-16T17:01:41Z</time>
      </trkpt>
      <trkpt lat="38.241816" lon="-4.985008">
        <ele>613.415</ele>
        <time>2021-10-16T17:01:42Z</time>
      </trkpt>
      <trkpt lat="38.241582" lon="-4.985197">
        <ele>612.626</ele>
        <time>2021-10-16T17:01:43Z</time>
      </trkpt>
      <trkpt lat="38.241351" lon="-4.985384">
        <ele>611.408</ele>
        <time>2021-10-16T17:01:44Z</time>
      </trkpt>
      <trkpt lat="38.240940" lon="-4.985720">
        <ele>608.757</ele>
        <time>2021-10-16T17:01:46Z</time>
      </trkpt>
      <trkpt lat="38.240537" lon="-4.986055">
        <ele>606.475</ele>
        <time>2021-10-16T17:01:48Z</time>
      </trkpt>
      <trkpt lat="38.240099" lon="-4.986393">
        <ele>604.554</ele>
        <time>2021-10-16T17:01:50Z</time>
      </trkpt>
      <trkpt lat="38.239628" lon="-4.986688">
        <ele>603.678</ele>
        <time>2021-10-16T17:01:52Z</time>
      </trkpt>
      <trkpt lat="38.239377" lon="-4.986827">
        <ele>603.063</ele>
        <time>2021-10-16T17:01:53Z</time>
      </trkpt>
      <trkpt lat="38.238876" lon="-4.987108">
        <ele>600.072</ele>
        <time>2021-10-16T17:01:55Z</time>
      </trkpt>
      <trkpt lat="38.238622" lon="-4.987257">
        <ele>599.124</ele>
        <time>2021-10-16T17:01:56Z</time>
      </trkpt>
      <trkpt lat="38.238142" lon="-4.987528">
        <ele>598.081</ele>
        <time>2021-10-16T17:01:58Z</time>
      </trkpt>
      <trkpt lat="38.237905" lon="-4.987658">
        <ele>597.239</ele>
        <time>2021-10-16T17:01:59Z</time>
      </trkpt>
      <trkpt lat="38.237676" lon="-4.987784">
        <ele>596.501</ele>
        <time>2021-10-16T17:02:00Z</time>
      </trkpt>
      <trkpt lat="38.237214" lon="-4.988051">
        <ele>594.721</ele>
        <time>2021-10-16T17:02:02Z</time>
      </trkpt>
      <trkpt lat="38.236778" lon="-4.988374">
        <ele>592.908</ele>
        <time>2021-10-16T17:02:04Z</time>
      </trkpt>
      <trkpt lat="38.236346" lon="-4.988764">
        <ele>591.121</ele>
        <time>2021-10-16T17:02:06Z</time>
      </trkpt>
      <trkpt lat="38.235927" lon="-4.989195">
        <ele>589.029</ele>
        <time>2021-10-16T17:02:08Z</time>
      </trkpt>
      <trkpt lat="38.235550" lon="-4.989605">
        <ele>587.198</ele>
        <time>2021-10-16T17:02:10Z</time>
      </trkpt>
      <trkpt lat="38.235367" lon="-4.989801">
        <ele>585.762</ele>
        <time>2021-10-16T17:02:11Z</time>
      </trkpt>
      <trkpt lat="38.235004" lon="-4.990179">
        <ele>584.837</ele>
        <time>2021-10-16T17:02:13Z</time>
      </trkpt>
      <trkpt lat="38.234806" lon="-4.990366">
        <ele>583.876</ele>
        <time>2021-10-16T17:02:14Z</time>
      </trkpt>
      <trkpt lat="38.234391" lon="-4.990670">
        <ele>583.358</ele>
        <time>2021-10-16T17:02:16Z</time>
      </trkpt>
      <trkpt lat="38.233915" lon="-4.990882">
        <ele>582.915</ele>
        <time>2021-10-16T17:02:18Z</time>
      </trkpt>
      <trkpt lat="38.233663" lon="-4.990953">
        <ele>582.824</ele>
        <time>2021-10-16T17:02:19Z</time>
      </trkpt>
      <trkpt lat="38.233400" lon="-4.991000">
        <ele>582.404</ele>
        <time>2021-10-16T17:02:20Z</time>
      </trkpt>
      <trkpt lat="38.232897" lon="-4.991053">
        <ele>581.214</ele>
        <time>2021-10-16T17:02:22Z</time>
      </trkpt>
      <trkpt lat="38.232652" lon="-4.991079">
        <ele>580.308</ele>
        <time>2021-10-16T17:02:23Z</time>
      </trkpt>
      <trkpt lat="38.232409" lon="-4.991112">
        <ele>580.310</ele>
        <time>2021-10-16T17:02:24Z</time>
      </trkpt>
      <trkpt lat="38.231921" lon="-4.991198">
        <ele>579.198</ele>
        <time>2021-10-16T17:02:26Z</time>
      </trkpt>
      <trkpt lat="38.231459" lon="-4.991341">
        <ele>577.937</ele>
        <time>2021-10-16T17:02:28Z</time>
      </trkpt>
      <trkpt lat="38.231229" lon="-4.991443">
        <ele>578.461</ele>
        <time>2021-10-16T17:02:29Z</time>
      </trkpt>
      <trkpt lat="38.230774" lon="-4.991666">
        <ele>578.236</ele>
        <time>2021-10-16T17:02:31Z</time>
      </trkpt>
      <trkpt lat="38.230539" lon="-4.991770">
        <ele>578.725</ele>
        <time>2021-10-16T17:02:32Z</time>
      </trkpt>
      <trkpt lat="38.230080" lon="-4.991926">
        <ele>579.557</ele>
        <time>2021-10-16T17:02:34Z</time>
      </trkpt>
      <trkpt lat="38.229606" lon="-4.992007">
        <ele>580.114</ele>
        <time>2021-10-16T17:02:36Z</time>
      </trkpt>
      <trkpt lat="38.229365" lon="-4.992007">
        <ele>579.843</ele>
        <time>2021-10-16T17:02:37Z</time>
      </trkpt>
      <trkpt lat="38.229117" lon="-4.991979">
        <ele>580.264</ele>
        <time>2021-10-16T17:02:38Z</time>
      </trkpt>
      <trkpt lat="38.228627" lon="-4.991846">
        <ele>581.410</ele>
        <time>2021-10-16T17:02:40Z</time>
      </trkpt>
      <trkpt lat="38.228378" lon="-4.991744">
        <ele>582.608</ele>
        <time>2021-10-16T17:02:41Z</time>
      </trkpt>
      <trkpt lat="38.227905" lon="-4.991467">
        <ele>585.812</ele>
        <time>2021-10-16T17:02:43Z</time>
      </trkpt>
      <trkpt lat="38.227675" lon="-4.991288">
        <ele>586.460</ele>
        <time>2021-10-16T17:02:44Z</time>
      </trkpt>
      <trkpt lat="38.227252" lon="-4.990912">
        <ele>588.249</ele>
        <time>2021-10-16T17:02:46Z</time>
      </trkpt>
      <trkpt lat="38.227042" lon="-4.990719">
        <ele>590.413</ele>
        <time>2021-10-16T17:02:47Z</time>
      </trkpt>
      <trkpt lat="38.226620" lon="-4.990363">
        <ele>593.398</ele>
        <time>2021-10-16T17:02:49Z</time>
      </trkpt>
      <trkpt lat="38.226397" lon="-4.990203">
        <ele>594.427</ele>
        <time>2021-10-16T17:02:50Z</time>
      </trkpt>
      <trkpt lat="38.225950" lon="-4.989945">
        <ele>597.029</ele>
        <time>2021-10-16T17:02:52Z</time>
      </trkpt>
      <trkpt lat="38.225462" lon="-4.989756">
        <ele>599.126</ele>
        <time>2021-10-16T17:02:54Z</time>
      </trkpt>
      <trkpt lat="38.225205" lon="-4.989691">
        <ele>599.569</ele>
        <time>2021-10-16T17:02:55Z</time>
      </trkpt>
      <trkpt lat="38.224938" lon="-4.989646">
        <ele>600.404</ele>
        <time>2021-10-16T17:02:56Z</time>
      </trkpt>
      <trkpt lat="38.224428" lon="-4.989614">
        <ele>602.524</ele>
        <time>2021-10-16T17:02:58Z</time>
      </trkpt>
      <trkpt lat="38.224165" lon="-4.989623">
        <ele>602.308</ele>
        <time>2021-10-16T17:02:59Z</time>
      </trkpt>
      <trkpt lat="38.223903" lon="-4.989656">
        <ele>601.824</ele>
        <time>2021-10-16T17:03:00Z</time>
      </trkpt>
      <trkpt lat="38.223377" lon="-4.989794">
        <ele>602.032</ele>
        <time>2021-10-16T17:03:02Z</time>
      </trkpt>
      <trkpt lat="38.222882" lon="-4.990012">
        <ele>601.611</ele>
        <time>2021-10-16T17:03:04Z</time>
      </trkpt>
      <trkpt lat="38.222636" lon="-4.990154">
        <ele>601.565</ele>
        <time>2021-10-16T17:03:05Z</time>
      </trkpt>
      <trkpt lat="38.222399" lon="-4.990312">
        <ele>601.640</ele>
        <time>2021-10-16T17:03:06Z</time>
      </trkpt>
      <trkpt lat="38.221945" lon="-4.990681">
        <ele>601.079</ele>
        <time>2021-10-16T17:03:08Z</time>
      </trkpt>
      <trkpt lat="38.221512" lon="-4.991063">
        <ele>600.831</ele>
        <time>2021-10-16T17:03:10Z</time>
      </trkpt>
      <trkpt lat="38.221065" lon="-4.991436">
        <ele>599.558</ele>
        <time>2021-10-16T17:03:12Z</time>
      </trkpt>
      <trkpt lat="38.220612" lon="-4.991792">
        <ele>600.162</ele>
        <time>2021-10-16T17:03:14Z</time>
      </trkpt>
      <trkpt lat="38.220156" lon="-4.992085">
        <ele>601.583</ele>
        <time>2021-10-16T17:03:16Z</time>
      </trkpt>
      <trkpt lat="38.219917" lon="-4.992218">
        <ele>602.411</ele>
        <time>2021-10-16T17:03:17Z</time>
      </trkpt>
      <trkpt lat="38.219680" lon="-4.992338">
        <ele>603.108</ele>
        <time>2021-10-16T17:03:18Z</time>
      </trkpt>
      <trkpt lat="38.219193" lon="-4.992554">
        <ele>606.034</ele>
        <time>2021-10-16T17:03:20Z</time>
      </trkpt>
      <trkpt lat="38.218707" lon="-4.992713">
        <ele>607.542</ele>
        <time>2021-10-16T17:03:22Z</time>
      </trkpt>
      <trkpt lat="38.218207" lon="-4.992839">
        <ele>607.461</ele>
        <time>2021-10-16T17:03:24Z</time>
      </trkpt>
      <trkpt lat="38.217692" lon="-4.992930">
        <ele>607.085</ele>
        <time>2021-10-16T17:03:26Z</time>
      </trkpt>
      <trkpt lat="38.217168" lon="-4.992977">
        <ele>605.970</ele>
        <time>2021-10-16T17:03:28Z</time>
      </trkpt>
      <trkpt lat="38.216893" lon="-4.992978">
        <ele>604.359</ele>
        <time>2021-10-16T17:03:29Z</time>
      </trkpt>
      <trkpt lat="38.216335" lon="-4.992943">
        <ele>601.721</ele>
        <time>2021-10-16T17:03:31Z</time>
      </trkpt>
      <trkpt lat="38.216041" lon="-4.992906">
        <ele>600.958</ele>
        <time>2021-10-16T17:03:32Z</time>
      </trkpt>
      <trkpt lat="38.215475" lon="-4.992814">
        <ele>597.259</ele>
        <time>2021-10-16T17:03:34Z</time>
      </trkpt>
      <trkpt lat="38.215181" lon="-4.992763">
        <ele>595.403</ele>
        <time>2021-10-16T17:03:35Z</time>
      </trkpt>
      <trkpt lat="38.214881" lon="-4.992713">
        <ele>593.823</ele>
        <time>2021-10-16T17:03:36Z</time>
      </trkpt>
      <trkpt lat="38.214284" lon="-4.992628">
        <ele>590.308</ele>
        <time>2021-10-16T17:03:38Z</time>
      </trkpt>
      <trkpt lat="38.213710" lon="-4.992551">
        <ele>587.613</ele>
        <time>2021-10-16T17:03:40Z</time>
      </trkpt>
      <trkpt lat="38.213422" lon="-4.992510">
        <ele>587.331</ele>
        <time>2021-10-16T17:03:41Z</time>
      </trkpt>
      <trkpt lat="38.212872" lon="-4.992431">
        <ele>585.210</ele>
        <time>2021-10-16T17:03:43Z</time>
      </trkpt>
      <trkpt lat="38.212597" lon="-4.992390">
        <ele>584.824</ele>
        <time>2021-10-16T17:03:44Z</time>
      </trkpt>
      <trkpt lat="38.212092" lon="-4.992314">
        <ele>584.759</ele>
        <time>2021-10-16T17:03:46Z</time>
      </trkpt>
      <trkpt lat="38.211838" lon="-4.992275">
        <ele>585.218</ele>
        <time>2021-10-16T17:03:47Z</time>
      </trkpt>
      <trkpt lat="38.211587" lon="-4.992233">
        <ele>585.450</ele>
        <time>2021-10-16T17:03:48Z</time>
      </trkpt>
      <trkpt lat="38.211080" lon="-4.992149">
        <ele>586.517</ele>
        <time>2021-10-16T17:03:50Z</time>
      </trkpt>
      <trkpt lat="38.210576" lon="-4.992066">
        <ele>588.061</ele>
        <time>2021-10-16T17:03:52Z</time>
      </trkpt>
      <trkpt lat="38.210062" lon="-4.991993">
        <ele>589.021</ele>
        <time>2021-10-16T17:03:54Z</time>
      </trkpt>
      <trkpt lat="38.209560" lon="-4.991924">
        <ele>590.113</ele>
        <time>2021-10-16T17:03:56Z</time>
      </trkpt>
      <trkpt lat="38.209085" lon="-4.991858">
        <ele>591.608</ele>
        <time>2021-10-16T17:03:58Z</time>
      </trkpt>
      <trkpt lat="38.208600" lon="-4.991790">
        <ele>592.814</ele>
        <time>2021-10-16T17:04:00Z</time>
      </trkpt>
      <trkpt lat="38.208107" lon="-4.991710">
        <ele>594.592</ele>
        <time>2021-10-16T17:04:02Z</time>
      </trkpt>
      <trkpt lat="38.207622" lon="-4.991632">
        <ele>595.111</ele>
        <time>2021-10-16T17:04:04Z</time>
      </trkpt>
      <trkpt lat="38.207373" lon="-4.991595">
        <ele>595.725</ele>
        <time>2021-10-16T17:04:05Z</time>
      </trkpt>
      <trkpt lat="38.207122" lon="-4.991561">
        <ele>596.160</ele>
        <time>2021-10-16T17:04:06Z</time>
      </trkpt>
      <trkpt lat="38.206872" lon="-4.991534">
        <ele>597.229</ele>
        <time>2021-10-16T17:04:07Z</time>
      </trkpt>
      <trkpt lat="38.206614" lon="-4.991513">
        <ele>597.951</ele>
        <time>2021-10-16T17:04:08Z</time>
      </trkpt>
      <trkpt lat="38.206103" lon="-4.991500">
        <ele>597.898</ele>
        <time>2021-10-16T17:04:10Z</time>
      </trkpt>
      <trkpt lat="38.205569" lon="-4.991526">
        <ele>599.494</ele>
        <time>2021-10-16T17:04:12Z</time>
      </trkpt>
      <trkpt lat="38.205294" lon="-4.991555">
        <ele>599.757</ele>
        <time>2021-10-16T17:04:13Z</time>
      </trkpt>
      <trkpt lat="38.205009" lon="-4.991593">
        <ele>600.722</ele>
        <time>2021-10-16T17:04:14Z</time>
      </trkpt>
      <trkpt lat="38.204459" lon="-4.991706">
        <ele>602.608</ele>
        <time>2021-10-16T17:04:16Z</time>
      </trkpt>
      <trkpt lat="38.204171" lon="-4.991785">
        <ele>603.097</ele>
        <time>2021-10-16T17:04:17Z</time>
      </trkpt>
      <trkpt lat="38.203600" lon="-4.991981">
        <ele>604.825</ele>
        <time>2021-10-16T17:04:19Z</time>
      </trkpt>
      <trkpt lat="38.203305" lon="-4.992097">
        <ele>605.834</ele>
        <time>2021-10-16T17:04:20Z</time>
      </trkpt>
      <trkpt lat="38.202758" lon="-4.992354">
        <ele>607.728</ele>
        <time>2021-10-16T17:04:22Z</time>
      </trkpt>
      <trkpt lat="38.202220" lon="-4.992652">
        <ele>608.843</ele>
        <time>2021-10-16T17:04:24Z</time>
      </trkpt>
      <trkpt lat="38.201705" lon="-4.992968">
        <ele>610.522</ele>
        <time>2021-10-16T17:04:26Z</time>
      </trkpt>
      <trkpt lat="38.201228" lon="-4.993274">
        <ele>612.424</ele>
        <time>2021-10-16T17:04:28Z</time>
      </trkpt>
      <trkpt lat="38.200982" lon="-4.993427">
        <ele>613.781</ele>
        <time>2021-10-16T17:04:29Z</time>
      </trkpt>
      <trkpt lat="38.200738" lon="-4.993574">
        <ele>615.066</ele>
        <time>2021-10-16T17:04:30Z</time>
      </trkpt>
      <trkpt lat="38.200496" lon="-4.993721">
        <ele>617.029</ele>
        <time>2021-10-16T17:04:31Z</time>
      </trkpt>
      <trkpt lat="38.200252" lon="-4.993871">
        <ele>619.221</ele>
        <time>2021-10-16T17:04:32Z</time>
      </trkpt>
      <trkpt lat="38.199796" lon="-4.994164">
        <ele>622.308</ele>
        <time>2021-10-16T17:04:34Z</time>
      </trkpt>
      <trkpt lat="38.199563" lon="-4.994313">
        <ele>624.244</ele>
        <time>2021-10-16T17:04:35Z</time>
      </trkpt>
      <trkpt lat="38.199333" lon="-4.994459">
        <ele>625.742</ele>
        <time>2021-10-16T17:04:36Z</time>
      </trkpt>
      <trkpt lat="38.198885" lon="-4.994744">
        <ele>629.211</ele>
        <time>2021-10-16T17:04:38Z</time>
      </trkpt>
      <trkpt lat="38.198463" lon="-4.995011">
        <ele>631.725</ele>
        <time>2021-10-16T17:04:40Z</time>
      </trkpt>
      <trkpt lat="38.198250" lon="-4.995145">
        <ele>632.830</ele>
        <time>2021-10-16T17:04:41Z</time>
      </trkpt>
      <trkpt lat="38.197833" lon="-4.995400">
        <ele>635.989</ele>
        <time>2021-10-16T17:04:43Z</time>
      </trkpt>
      <trkpt lat="38.197619" lon="-4.995529">
        <ele>636.561</ele>
        <time>2021-10-16T17:04:44Z</time>
      </trkpt>
      <trkpt lat="38.197218" lon="-4.995780">
        <ele>638.338</ele>
        <time>2021-10-16T17:04:46Z</time>
      </trkpt>
      <trkpt lat="38.196813" lon="-4.996042">
        <ele>639.019</ele>
        <time>2021-10-16T17:04:48Z</time>
      </trkpt>
      <trkpt lat="38.196604" lon="-4.996172">
        <ele>638.909</ele>
        <time>2021-10-16T17:04:49Z</time>
      </trkpt>
      <trkpt lat="38.196390" lon="-4.996305">
        <ele>639.219</ele>
        <time>2021-10-16T17:04:50Z</time>
      </trkpt>
      <trkpt lat="38.195973" lon="-4.996563">
        <ele>640.008</ele>
        <time>2021-10-16T17:04:52Z</time>
      </trkpt>
      <trkpt lat="38.195762" lon="-4.996696">
        <ele>639.929</ele>
        <time>2021-10-16T17:04:53Z</time>
      </trkpt>
      <trkpt lat="38.195551" lon="-4.996829">
        <ele>639.457</ele>
        <time>2021-10-16T17:04:54Z</time>
      </trkpt>
      <trkpt lat="38.195119" lon="-4.997101">
        <ele>638.626</ele>
        <time>2021-10-16T17:04:56Z</time>
      </trkpt>
      <trkpt lat="38.194688" lon="-4.997353">
        <ele>638.560</ele>
        <time>2021-10-16T17:04:58Z</time>
      </trkpt>
      <trkpt lat="38.194465" lon="-4.997472">
        <ele>637.595</ele>
        <time>2021-10-16T17:04:59Z</time>
      </trkpt>
      <trkpt lat="38.194009" lon="-4.997662">
        <ele>635.894</ele>
        <time>2021-10-16T17:05:01Z</time>
      </trkpt>
      <trkpt lat="38.193768" lon="-4.997726">
        <ele>634.536</ele>
        <time>2021-10-16T17:05:02Z</time>
      </trkpt>
      <trkpt lat="38.193297" lon="-4.997802">
        <ele>631.883</ele>
        <time>2021-10-16T17:05:04Z</time>
      </trkpt>
      <trkpt lat="38.193058" lon="-4.997816">
        <ele>630.166</ele>
        <time>2021-10-16T17:05:05Z</time>
      </trkpt>
      <trkpt lat="38.192579" lon="-4.997781">
        <ele>627.629</ele>
        <time>2021-10-16T17:05:07Z</time>
      </trkpt>
      <trkpt lat="38.192330" lon="-4.997733">
        <ele>626.021</ele>
        <time>2021-10-16T17:05:08Z</time>
      </trkpt>
      <trkpt lat="38.191862" lon="-4.997583">
        <ele>622.608</ele>
        <time>2021-10-16T17:05:10Z</time>
      </trkpt>
      <trkpt lat="38.191625" lon="-4.997477">
        <ele>620.664</ele>
        <time>2021-10-16T17:05:11Z</time>
      </trkpt>
      <trkpt lat="38.191389" lon="-4.997352">
        <ele>619.272</ele>
        <time>2021-10-16T17:05:12Z</time>
      </trkpt>
      <trkpt lat="38.190931" lon="-4.997024">
        <ele>615.471</ele>
        <time>2021-10-16T17:05:14Z</time>
      </trkpt>
      <trkpt lat="38.190522" lon="-4.996616">
        <ele>612.195</ele>
        <time>2021-10-16T17:05:16Z</time>
      </trkpt>
      <trkpt lat="38.190151" lon="-4.996151">
        <ele>607.440</ele>
        <time>2021-10-16T17:05:18Z</time>
      </trkpt>
      <trkpt lat="38.189973" lon="-4.995915">
        <ele>605.539</ele>
        <time>2021-10-16T17:05:19Z</time>
      </trkpt>
      <trkpt lat="38.189788" lon="-4.995680">
        <ele>603.811</ele>
        <time>2021-10-16T17:05:20Z</time>
      </trkpt>
      <trkpt lat="38.189401" lon="-4.995282">
        <ele>601.758</ele>
        <time>2021-10-16T17:05:22Z</time>
      </trkpt>
      <trkpt lat="38.188950" lon="-4.994985">
        <ele>597.979</ele>
        <time>2021-10-16T17:05:24Z</time>
      </trkpt>
      <trkpt lat="38.188453" lon="-4.994808">
        <ele>595.405</ele>
        <time>2021-10-16T17:05:26Z</time>
      </trkpt>
      <trkpt lat="38.187946" lon="-4.994789">
        <ele>592.325</ele>
        <time>2021-10-16T17:05:28Z</time>
      </trkpt>
      <trkpt lat="38.187686" lon="-4.994844">
        <ele>590.508</ele>
        <time>2021-10-16T17:05:29Z</time>
      </trkpt>
      <trkpt lat="38.187433" lon="-4.994943">
        <ele>588.555</ele>
        <time>2021-10-16T17:05:30Z</time>
      </trkpt>
      <trkpt lat="38.186949" lon="-4.995239">
        <ele>584.783</ele>
        <time>2021-10-16T17:05:32Z</time>
      </trkpt>
      <trkpt lat="38.186505" lon="-4.995613">
        <ele>581.642</ele>
        <time>2021-10-16T17:05:34Z</time>
      </trkpt>
      <trkpt lat="38.186056" lon="-4.996003">
        <ele>578.336</ele>
        <time>2021-10-16T17:05:36Z</time>
      </trkpt>
      <trkpt lat="38.185829" lon="-4.996191">
        <ele>576.341</ele>
        <time>2021-10-16T17:05:37Z</time>
      </trkpt>
      <trkpt lat="38.185608" lon="-4.996381">
        <ele>574.340</ele>
        <time>2021-10-16T17:05:38Z</time>
      </trkpt>
      <trkpt lat="38.185215" lon="-4.996773">
        <ele>571.462</ele>
        <time>2021-10-16T17:05:40Z</time>
      </trkpt>
      <trkpt lat="38.185036" lon="-4.997013">
        <ele>569.269</ele>
        <time>2021-10-16T17:05:41Z</time>
      </trkpt>
      <trkpt lat="38.184873" lon="-4.997281">
        <ele>567.257</ele>
        <time>2021-10-16T17:05:42Z</time>
      </trkpt>
      <trkpt lat="38.184595" lon="-4.997890">
        <ele>563.700</ele>
        <time>2021-10-16T17:05:44Z</time>
      </trkpt>
      <trkpt lat="38.184387" lon="-4.998522">
        <ele>559.820</ele>
        <time>2021-10-16T17:05:46Z</time>
      </trkpt>
      <trkpt lat="38.184290" lon="-4.998836">
        <ele>558.108</ele>
        <time>2021-10-16T17:05:47Z</time>
      </trkpt>
      <trkpt lat="38.184098" lon="-4.999462">
        <ele>553.833</ele>
        <time>2021-10-16T17:05:49Z</time>
      </trkpt>
      <trkpt lat="38.183996" lon="-4.999793">
        <ele>551.891</ele>
        <time>2021-10-16T17:05:50Z</time>
      </trkpt>
      <trkpt lat="38.183791" lon="-5.000419">
        <ele>547.380</ele>
        <time>2021-10-16T17:05:52Z</time>
      </trkpt>
      <trkpt lat="38.183557" lon="-5.001001">
        <ele>544.034</ele>
        <time>2021-10-16T17:05:54Z</time>
      </trkpt>
      <trkpt lat="38.183412" lon="-5.001264">
        <ele>542.469</ele>
        <time>2021-10-16T17:05:55Z</time>
      </trkpt>
      <trkpt lat="38.183243" lon="-5.001507">
        <ele>541.128</ele>
        <time>2021-10-16T17:05:56Z</time>
      </trkpt>
      <trkpt lat="38.182831" lon="-5.001904">
        <ele>539.110</ele>
        <time>2021-10-16T17:05:58Z</time>
      </trkpt>
      <trkpt lat="38.182359" lon="-5.002186">
        <ele>536.597</ele>
        <time>2021-10-16T17:06:00Z</time>
      </trkpt>
      <trkpt lat="38.182107" lon="-5.002279">
        <ele>536.397</ele>
        <time>2021-10-16T17:06:01Z</time>
      </trkpt>
      <trkpt lat="38.181847" lon="-5.002346">
        <ele>536.523</ele>
        <time>2021-10-16T17:06:02Z</time>
      </trkpt>
      <trkpt lat="38.181349" lon="-5.002446">
        <ele>536.725</ele>
        <time>2021-10-16T17:06:04Z</time>
      </trkpt>
      <trkpt lat="38.180897" lon="-5.002621">
        <ele>538.008</ele>
        <time>2021-10-16T17:06:06Z</time>
      </trkpt>
      <trkpt lat="38.180692" lon="-5.002754">
        <ele>537.497</ele>
        <time>2021-10-16T17:06:07Z</time>
      </trkpt>
      <trkpt lat="38.180495" lon="-5.002912">
        <ele>537.145</ele>
        <time>2021-10-16T17:06:08Z</time>
      </trkpt>
      <trkpt lat="38.180138" lon="-5.003299">
        <ele>537.944</ele>
        <time>2021-10-16T17:06:10Z</time>
      </trkpt>
      <trkpt lat="38.179969" lon="-5.003532">
        <ele>538.668</ele>
        <time>2021-10-16T17:06:11Z</time>
      </trkpt>
      <trkpt lat="38.179813" lon="-5.003764">
        <ele>538.523</ele>
        <time>2021-10-16T17:06:12Z</time>
      </trkpt>
      <trkpt lat="38.179490" lon="-5.004195">
        <ele>539.312</ele>
        <time>2021-10-16T17:06:14Z</time>
      </trkpt>
      <trkpt lat="38.179130" lon="-5.004552">
        <ele>540.464</ele>
        <time>2021-10-16T17:06:16Z</time>
      </trkpt>
      <trkpt lat="38.178926" lon="-5.004704">
        <ele>541.071</ele>
        <time>2021-10-16T17:06:17Z</time>
      </trkpt>
      <trkpt lat="38.178708" lon="-5.004825">
        <ele>541.113</ele>
        <time>2021-10-16T17:06:18Z</time>
      </trkpt>
      <trkpt lat="38.178474" lon="-5.004923">
        <ele>541.143</ele>
        <time>2021-10-16T17:06:19Z</time>
      </trkpt>
      <trkpt lat="38.178227" lon="-5.004998">
        <ele>541.607</ele>
        <time>2021-10-16T17:06:20Z</time>
      </trkpt>
      <trkpt lat="38.177727" lon="-5.005054">
        <ele>540.708</ele>
        <time>2021-10-16T17:06:22Z</time>
      </trkpt>
      <trkpt lat="38.177465" lon="-5.005040">
        <ele>540.199</ele>
        <time>2021-10-16T17:06:23Z</time>
      </trkpt>
      <trkpt lat="38.176952" lon="-5.004915">
        <ele>539.067</ele>
        <time>2021-10-16T17:06:25Z</time>
      </trkpt>
      <trkpt lat="38.176691" lon="-5.004807">
        <ele>537.936</ele>
        <time>2021-10-16T17:06:26Z</time>
      </trkpt>
      <trkpt lat="38.176212" lon="-5.004512">
        <ele>535.760</ele>
        <time>2021-10-16T17:06:28Z</time>
      </trkpt>
      <trkpt lat="38.175976" lon="-5.004324">
        <ele>533.695</ele>
        <time>2021-10-16T17:06:29Z</time>
      </trkpt>
      <trkpt lat="38.175746" lon="-5.004114">
        <ele>531.154</ele>
        <time>2021-10-16T17:06:30Z</time>
      </trkpt>
      <trkpt lat="38.175519" lon="-5.003889">
        <ele>528.466</ele>
        <time>2021-10-16T17:06:31Z</time>
      </trkpt>
      <trkpt lat="38.175290" lon="-5.003649">
        <ele>525.643</ele>
        <time>2021-10-16T17:06:32Z</time>
      </trkpt>
      <trkpt lat="38.174865" lon="-5.003158">
        <ele>521.172</ele>
        <time>2021-10-16T17:06:34Z</time>
      </trkpt>
      <trkpt lat="38.174455" lon="-5.002610">
        <ele>517.013</ele>
        <time>2021-10-16T17:06:36Z</time>
      </trkpt>
      <trkpt lat="38.174262" lon="-5.002322">
        <ele>515.014</ele>
        <time>2021-10-16T17:06:37Z</time>
      </trkpt>
      <trkpt lat="38.174077" lon="-5.002028">
        <ele>512.708</ele>
        <time>2021-10-16T17:06:38Z</time>
      </trkpt>
      <trkpt lat="38.173755" lon="-5.001482">
        <ele>508.835</ele>
        <time>2021-10-16T17:06:40Z</time>
      </trkpt>
      <trkpt lat="38.173429" lon="-5.000972">
        <ele>505.443</ele>
        <time>2021-10-16T17:06:42Z</time>
      </trkpt>
      <trkpt lat="38.173253" lon="-5.000751">
        <ele>504.162</ele>
        <time>2021-10-16T17:06:43Z</time>
      </trkpt>
      <trkpt lat="38.173054" lon="-5.000557">
        <ele>502.856</ele>
        <time>2021-10-16T17:06:44Z</time>
      </trkpt>
      <trkpt lat="38.172624" lon="-5.000271">
        <ele>498.671</ele>
        <time>2021-10-16T17:06:46Z</time>
      </trkpt>
      <trkpt lat="38.172385" lon="-5.000155">
        <ele>496.970</ele>
        <time>2021-10-16T17:06:47Z</time>
      </trkpt>
      <trkpt lat="38.171900" lon="-4.999959">
        <ele>494.192</ele>
        <time>2021-10-16T17:06:49Z</time>
      </trkpt>
      <trkpt lat="38.171662" lon="-4.999837">
        <ele>492.289</ele>
        <time>2021-10-16T17:06:50Z</time>
      </trkpt>
      <trkpt lat="38.171240" lon="-4.999509">
        <ele>490.773</ele>
        <time>2021-10-16T17:06:52Z</time>
      </trkpt>
      <trkpt lat="38.171045" lon="-4.999298">
        <ele>490.185</ele>
        <time>2021-10-16T17:06:53Z</time>
      </trkpt>
      <trkpt lat="38.170867" lon="-4.999059">
        <ele>489.013</ele>
        <time>2021-10-16T17:06:54Z</time>
      </trkpt>
      <trkpt lat="38.170588" lon="-4.998507">
        <ele>488.108</ele>
        <time>2021-10-16T17:06:56Z</time>
      </trkpt>
      <trkpt lat="38.170425" lon="-4.997934">
        <ele>488.285</ele>
        <time>2021-10-16T17:06:58Z</time>
      </trkpt>
      <trkpt lat="38.170370" lon="-4.997635">
        <ele>487.653</ele>
        <time>2021-10-16T17:06:59Z</time>
      </trkpt>
      <trkpt lat="38.170347" lon="-4.997027">
        <ele>486.792</ele>
        <time>2021-10-16T17:07:01Z</time>
      </trkpt>
      <trkpt lat="38.170364" lon="-4.996711">
        <ele>485.766</ele>
        <time>2021-10-16T17:07:02Z</time>
      </trkpt>
      <trkpt lat="38.170374" lon="-4.996131">
        <ele>484.431</ele>
        <time>2021-10-16T17:07:04Z</time>
      </trkpt>
      <trkpt lat="38.170327" lon="-4.995580">
        <ele>483.920</ele>
        <time>2021-10-16T17:07:06Z</time>
      </trkpt>
      <trkpt lat="38.170274" lon="-4.995317">
        <ele>483.082</ele>
        <time>2021-10-16T17:07:07Z</time>
      </trkpt>
      <trkpt lat="38.170198" lon="-4.995052">
        <ele>482.669</ele>
        <time>2021-10-16T17:07:08Z</time>
      </trkpt>
      <trkpt lat="38.169996" lon="-4.994546">
        <ele>479.936</ele>
        <time>2021-10-16T17:07:10Z</time>
      </trkpt>
      <trkpt lat="38.169874" lon="-4.994286">
        <ele>479.317</ele>
        <time>2021-10-16T17:07:11Z</time>
      </trkpt>
      <trkpt lat="38.169608" lon="-4.993774">
        <ele>477.218</ele>
        <time>2021-10-16T17:07:13Z</time>
      </trkpt>
      <trkpt lat="38.169450" lon="-4.993513">
        <ele>476.408</ele>
        <time>2021-10-16T17:07:14Z</time>
      </trkpt>
      <trkpt lat="38.169107" lon="-4.993040">
        <ele>474.381</ele>
        <time>2021-10-16T17:07:16Z</time>
      </trkpt>
      <trkpt lat="38.168910" lon="-4.992807">
        <ele>472.859</ele>
        <time>2021-10-16T17:07:17Z</time>
      </trkpt>
      <trkpt lat="38.168493" lon="-4.992358">
        <ele>470.698</ele>
        <time>2021-10-16T17:07:19Z</time>
      </trkpt>
      <trkpt lat="38.168259" lon="-4.992141">
        <ele>469.142</ele>
        <time>2021-10-16T17:07:20Z</time>
      </trkpt>
      <trkpt lat="38.167793" lon="-4.991782">
        <ele>466.347</ele>
        <time>2021-10-16T17:07:22Z</time>
      </trkpt>
      <trkpt lat="38.167549" lon="-4.991621">
        <ele>465.546</ele>
        <time>2021-10-16T17:07:23Z</time>
      </trkpt>
      <trkpt lat="38.167304" lon="-4.991466">
        <ele>464.068</ele>
        <time>2021-10-16T17:07:24Z</time>
      </trkpt>
      <trkpt lat="38.167058" lon="-4.991316">
        <ele>462.495</ele>
        <time>2021-10-16T17:07:25Z</time>
      </trkpt>
      <trkpt lat="38.166805" lon="-4.991161">
        <ele>461.055</ele>
        <time>2021-10-16T17:07:26Z</time>
      </trkpt>
      <trkpt lat="38.166324" lon="-4.990865">
        <ele>459.207</ele>
        <time>2021-10-16T17:07:28Z</time>
      </trkpt>
      <trkpt lat="38.165820" lon="-4.990555">
        <ele>458.017</ele>
        <time>2021-10-16T17:07:30Z</time>
      </trkpt>
      <trkpt lat="38.165300" lon="-4.990245">
        <ele>456.108</ele>
        <time>2021-10-16T17:07:32Z</time>
      </trkpt>
      <trkpt lat="38.164785" lon="-4.989933">
        <ele>455.873</ele>
        <time>2021-10-16T17:07:34Z</time>
      </trkpt>
      <trkpt lat="38.164261" lon="-4.989607">
        <ele>454.311</ele>
        <time>2021-10-16T17:07:36Z</time>
      </trkpt>
      <trkpt lat="38.163725" lon="-4.989281">
        <ele>452.930</ele>
        <time>2021-10-16T17:07:38Z</time>
      </trkpt>
      <trkpt lat="38.163214" lon="-4.988969">
        <ele>451.634</ele>
        <time>2021-10-16T17:07:40Z</time>
      </trkpt>
      <trkpt lat="38.162705" lon="-4.988653">
        <ele>450.059</ele>
        <time>2021-10-16T17:07:42Z</time>
      </trkpt>
      <trkpt lat="38.162456" lon="-4.988502">
        <ele>449.098</ele>
        <time>2021-10-16T17:07:43Z</time>
      </trkpt>
      <trkpt lat="38.162206" lon="-4.988349">
        <ele>448.170</ele>
        <time>2021-10-16T17:07:44Z</time>
      </trkpt>
      <trkpt lat="38.161743" lon="-4.988055">
        <ele>447.677</ele>
        <time>2021-10-16T17:07:46Z</time>
      </trkpt>
      <trkpt lat="38.161280" lon="-4.987763">
        <ele>446.274</ele>
        <time>2021-10-16T17:07:48Z</time>
      </trkpt>
      <trkpt lat="38.161047" lon="-4.987616">
        <ele>445.356</ele>
        <time>2021-10-16T17:07:49Z</time>
      </trkpt>
      <trkpt lat="38.160808" lon="-4.987466">
        <ele>444.921</ele>
        <time>2021-10-16T17:07:50Z</time>
      </trkpt>
      <trkpt lat="38.160341" lon="-4.987181">
        <ele>443.908</ele>
        <time>2021-10-16T17:07:52Z</time>
      </trkpt>
      <trkpt lat="38.159862" lon="-4.986883">
        <ele>443.245</ele>
        <time>2021-10-16T17:07:54Z</time>
      </trkpt>
      <trkpt lat="38.159619" lon="-4.986726">
        <ele>442.393</ele>
        <time>2021-10-16T17:07:55Z</time>
      </trkpt>
      <trkpt lat="38.159366" lon="-4.986556">
        <ele>442.022</ele>
        <time>2021-10-16T17:07:56Z</time>
      </trkpt>
      <trkpt lat="38.158891" lon="-4.986218">
        <ele>440.936</ele>
        <time>2021-10-16T17:07:58Z</time>
      </trkpt>
      <trkpt lat="38.158410" lon="-4.985839">
        <ele>439.231</ele>
        <time>2021-10-16T17:08:00Z</time>
      </trkpt>
      <trkpt lat="38.157936" lon="-4.985427">
        <ele>438.710</ele>
        <time>2021-10-16T17:08:02Z</time>
      </trkpt>
      <trkpt lat="38.157487" lon="-4.984992">
        <ele>436.632</ele>
        <time>2021-10-16T17:08:04Z</time>
      </trkpt>
      <trkpt lat="38.157042" lon="-4.984528">
        <ele>435.389</ele>
        <time>2021-10-16T17:08:06Z</time>
      </trkpt>
      <trkpt lat="38.156606" lon="-4.984038">
        <ele>434.946</ele>
        <time>2021-10-16T17:08:08Z</time>
      </trkpt>
      <trkpt lat="38.156190" lon="-4.983557">
        <ele>432.688</ele>
        <time>2021-10-16T17:08:10Z</time>
      </trkpt>
      <trkpt lat="38.155979" lon="-4.983311">
        <ele>432.116</ele>
        <time>2021-10-16T17:08:11Z</time>
      </trkpt>
      <trkpt lat="38.155773" lon="-4.983064">
        <ele>431.508</ele>
        <time>2021-10-16T17:08:12Z</time>
      </trkpt>
      <trkpt lat="38.155357" lon="-4.982564">
        <ele>429.792</ele>
        <time>2021-10-16T17:08:14Z</time>
      </trkpt>
      <trkpt lat="38.154959" lon="-4.982083">
        <ele>428.520</ele>
        <time>2021-10-16T17:08:16Z</time>
      </trkpt>
      <trkpt lat="38.154754" lon="-4.981836">
        <ele>428.129</ele>
        <time>2021-10-16T17:08:17Z</time>
      </trkpt>
      <trkpt lat="38.154347" lon="-4.981351">
        <ele>426.023</ele>
        <time>2021-10-16T17:08:19Z</time>
      </trkpt>
      <trkpt lat="38.154136" lon="-4.981105">
        <ele>425.858</ele>
        <time>2021-10-16T17:08:20Z</time>
      </trkpt>
      <trkpt lat="38.153731" lon="-4.980641">
        <ele>425.497</ele>
        <time>2021-10-16T17:08:22Z</time>
      </trkpt>
      <trkpt lat="38.153524" lon="-4.980404">
        <ele>425.239</ele>
        <time>2021-10-16T17:08:23Z</time>
      </trkpt>
      <trkpt lat="38.153123" lon="-4.979936">
        <ele>425.396</ele>
        <time>2021-10-16T17:08:25Z</time>
      </trkpt>
      <trkpt lat="38.152926" lon="-4.979698">
        <ele>425.332</ele>
        <time>2021-10-16T17:08:26Z</time>
      </trkpt>
      <trkpt lat="38.152561" lon="-4.979266">
        <ele>426.892</ele>
        <time>2021-10-16T17:08:28Z</time>
      </trkpt>
      <trkpt lat="38.152373" lon="-4.979051">
        <ele>426.411</ele>
        <time>2021-10-16T17:08:29Z</time>
      </trkpt>
      <trkpt lat="38.152011" lon="-4.978631">
        <ele>426.608</ele>
        <time>2021-10-16T17:08:31Z</time>
      </trkpt>
      <trkpt lat="38.151824" lon="-4.978412">
        <ele>426.531</ele>
        <time>2021-10-16T17:08:32Z</time>
      </trkpt>
      <trkpt lat="38.151471" lon="-4.977988">
        <ele>427.659</ele>
        <time>2021-10-16T17:08:34Z</time>
      </trkpt>
      <trkpt lat="38.151112" lon="-4.977553">
        <ele>428.368</ele>
        <time>2021-10-16T17:08:36Z</time>
      </trkpt>
      <trkpt lat="38.150934" lon="-4.977330">
        <ele>427.682</ele>
        <time>2021-10-16T17:08:37Z</time>
      </trkpt>
      <trkpt lat="38.150750" lon="-4.977099">
        <ele>427.477</ele>
        <time>2021-10-16T17:08:38Z</time>
      </trkpt>
      <trkpt lat="38.150395" lon="-4.976649">
        <ele>428.266</ele>
        <time>2021-10-16T17:08:40Z</time>
      </trkpt>
      <trkpt lat="38.150213" lon="-4.976409">
        <ele>427.868</ele>
        <time>2021-10-16T17:08:41Z</time>
      </trkpt>
      <trkpt lat="38.149855" lon="-4.975913">
        <ele>428.175</ele>
        <time>2021-10-16T17:08:43Z</time>
      </trkpt>
      <trkpt lat="38.149675" lon="-4.975651">
        <ele>427.085</ele>
        <time>2021-10-16T17:08:44Z</time>
      </trkpt>
      <trkpt lat="38.149340" lon="-4.975137">
        <ele>427.189</ele>
        <time>2021-10-16T17:08:46Z</time>
      </trkpt>
      <trkpt lat="38.149171" lon="-4.974873">
        <ele>427.117</ele>
        <time>2021-10-16T17:08:47Z</time>
      </trkpt>
      <trkpt lat="38.148833" lon="-4.974333">
        <ele>424.508</ele>
        <time>2021-10-16T17:08:49Z</time>
      </trkpt>
      <trkpt lat="38.148661" lon="-4.974050">
        <ele>424.396</ele>
        <time>2021-10-16T17:08:50Z</time>
      </trkpt>
      <trkpt lat="38.148329" lon="-4.973500">
        <ele>422.514</ele>
        <time>2021-10-16T17:08:52Z</time>
      </trkpt>
      <trkpt lat="38.148162" lon="-4.973223">
        <ele>421.653</ele>
        <time>2021-10-16T17:08:53Z</time>
      </trkpt>
      <trkpt lat="38.147996" lon="-4.972951">
        <ele>420.987</ele>
        <time>2021-10-16T17:08:54Z</time>
      </trkpt>
      <trkpt lat="38.147657" lon="-4.972413">
        <ele>418.552</ele>
        <time>2021-10-16T17:08:56Z</time>
      </trkpt>
      <trkpt lat="38.147341" lon="-4.971894">
        <ele>417.051</ele>
        <time>2021-10-16T17:08:58Z</time>
      </trkpt>
      <trkpt lat="38.147180" lon="-4.971622">
        <ele>415.833</ele>
        <time>2021-10-16T17:08:59Z</time>
      </trkpt>
      <trkpt lat="38.146866" lon="-4.971099">
        <ele>414.940</ele>
        <time>2021-10-16T17:09:01Z</time>
      </trkpt>
      <trkpt lat="38.146710" lon="-4.970841">
        <ele>413.982</ele>
        <time>2021-10-16T17:09:02Z</time>
      </trkpt>
      <trkpt lat="38.146412" lon="-4.970344">
        <ele>412.843</ele>
        <time>2021-10-16T17:09:04Z</time>
      </trkpt>
      <trkpt lat="38.146108" lon="-4.969839">
        <ele>411.317</ele>
        <time>2021-10-16T17:09:06Z</time>
      </trkpt>
      <trkpt lat="38.145951" lon="-4.969581">
        <ele>409.808</ele>
        <time>2021-10-16T17:09:07Z</time>
      </trkpt>
      <trkpt lat="38.145788" lon="-4.969313">
        <ele>408.256</ele>
        <time>2021-10-16T17:09:08Z</time>
      </trkpt>
      <trkpt lat="38.145479" lon="-4.968801">
        <ele>407.724</ele>
        <time>2021-10-16T17:09:10Z</time>
      </trkpt>
      <trkpt lat="38.145319" lon="-4.968533">
        <ele>407.373</ele>
        <time>2021-10-16T17:09:11Z</time>
      </trkpt>
      <trkpt lat="38.144998" lon="-4.967999">
        <ele>406.077</ele>
        <time>2021-10-16T17:09:13Z</time>
      </trkpt>
      <trkpt lat="38.144834" lon="-4.967722">
        <ele>405.782</ele>
        <time>2021-10-16T17:09:14Z</time>
      </trkpt>
      <trkpt lat="38.144520" lon="-4.967193">
        <ele>406.751</ele>
        <time>2021-10-16T17:09:16Z</time>
      </trkpt>
      <trkpt lat="38.144359" lon="-4.966922">
        <ele>405.623</ele>
        <time>2021-10-16T17:09:17Z</time>
      </trkpt>
      <trkpt lat="38.144037" lon="-4.966391">
        <ele>406.490</ele>
        <time>2021-10-16T17:09:19Z</time>
      </trkpt>
      <trkpt lat="38.143873" lon="-4.966119">
        <ele>407.137</ele>
        <time>2021-10-16T17:09:20Z</time>
      </trkpt>
      <trkpt lat="38.143565" lon="-4.965614">
        <ele>407.949</ele>
        <time>2021-10-16T17:09:22Z</time>
      </trkpt>
      <trkpt lat="38.143259" lon="-4.965111">
        <ele>408.713</ele>
        <time>2021-10-16T17:09:24Z</time>
      </trkpt>
      <trkpt lat="38.143104" lon="-4.964856">
        <ele>409.608</ele>
        <time>2021-10-16T17:09:25Z</time>
      </trkpt>
      <trkpt lat="38.142945" lon="-4.964595">
        <ele>410.441</ele>
        <time>2021-10-16T17:09:26Z</time>
      </trkpt>
      <trkpt lat="38.142639" lon="-4.964093">
        <ele>410.989</ele>
        <time>2021-10-16T17:09:28Z</time>
      </trkpt>
      <trkpt lat="38.142479" lon="-4.963826">
        <ele>411.248</ele>
        <time>2021-10-16T17:09:29Z</time>
      </trkpt>
      <trkpt lat="38.142159" lon="-4.963293">
        <ele>411.572</ele>
        <time>2021-10-16T17:09:31Z</time>
      </trkpt>
      <trkpt lat="38.141991" lon="-4.963016">
        <ele>412.577</ele>
        <time>2021-10-16T17:09:32Z</time>
      </trkpt>
      <trkpt lat="38.141671" lon="-4.962487">
        <ele>411.636</ele>
        <time>2021-10-16T17:09:34Z</time>
      </trkpt>
      <trkpt lat="38.141507" lon="-4.962214">
        <ele>412.638</ele>
        <time>2021-10-16T17:09:35Z</time>
      </trkpt>
      <trkpt lat="38.141183" lon="-4.961671">
        <ele>414.065</ele>
        <time>2021-10-16T17:09:37Z</time>
      </trkpt>
      <trkpt lat="38.141022" lon="-4.961394">
        <ele>414.228</ele>
        <time>2021-10-16T17:09:38Z</time>
      </trkpt>
      <trkpt lat="38.140708" lon="-4.960862">
        <ele>415.589</ele>
        <time>2021-10-16T17:09:40Z</time>
      </trkpt>
      <trkpt lat="38.140379" lon="-4.960323">
        <ele>416.417</ele>
        <time>2021-10-16T17:09:42Z</time>
      </trkpt>
      <trkpt lat="38.140043" lon="-4.959771">
        <ele>416.408</ele>
        <time>2021-10-16T17:09:44Z</time>
      </trkpt>
      <trkpt lat="38.139719" lon="-4.959234">
        <ele>417.190</ele>
        <time>2021-10-16T17:09:46Z</time>
      </trkpt>
      <trkpt lat="38.139392" lon="-4.958672">
        <ele>417.468</ele>
        <time>2021-10-16T17:09:48Z</time>
      </trkpt>
      <trkpt lat="38.139068" lon="-4.958100">
        <ele>418.337</ele>
        <time>2021-10-16T17:09:50Z</time>
      </trkpt>
      <trkpt lat="38.138762" lon="-4.957544">
        <ele>418.651</ele>
        <time>2021-10-16T17:09:52Z</time>
      </trkpt>
      <trkpt lat="38.138609" lon="-4.957250">
        <ele>418.886</ele>
        <time>2021-10-16T17:09:53Z</time>
      </trkpt>
      <trkpt lat="38.138315" lon="-4.956649">
        <ele>418.225</ele>
        <time>2021-10-16T17:09:55Z</time>
      </trkpt>
      <trkpt lat="38.138169" lon="-4.956333">
        <ele>418.127</ele>
        <time>2021-10-16T17:09:56Z</time>
      </trkpt>
      <trkpt lat="38.137910" lon="-4.955737">
        <ele>417.564</ele>
        <time>2021-10-16T17:09:58Z</time>
      </trkpt>
      <trkpt lat="38.137780" lon="-4.955432">
        <ele>417.723</ele>
        <time>2021-10-16T17:09:59Z</time>
      </trkpt>
      <trkpt lat="38.137533" lon="-4.954809">
        <ele>417.283</ele>
        <time>2021-10-16T17:10:01Z</time>
      </trkpt>
      <trkpt lat="38.137412" lon="-4.954484">
        <ele>416.711</ele>
        <time>2021-10-16T17:10:02Z</time>
      </trkpt>
      <trkpt lat="38.137185" lon="-4.953852">
        <ele>416.208</ele>
        <time>2021-10-16T17:10:04Z</time>
      </trkpt>
      <trkpt lat="38.136972" lon="-4.953187">
        <ele>416.510</ele>
        <time>2021-10-16T17:10:06Z</time>
      </trkpt>
      <trkpt lat="38.136868" lon="-4.952847">
        <ele>416.468</ele>
        <time>2021-10-16T17:10:07Z</time>
      </trkpt>
      <trkpt lat="38.136760" lon="-4.952498">
        <ele>416.357</ele>
        <time>2021-10-16T17:10:08Z</time>
      </trkpt>
      <trkpt lat="38.136557" lon="-4.951838">
        <ele>416.391</ele>
        <time>2021-10-16T17:10:10Z</time>
      </trkpt>
      <trkpt lat="38.136454" lon="-4.951502">
        <ele>416.046</ele>
        <time>2021-10-16T17:10:11Z</time>
      </trkpt>
      <trkpt lat="38.136248" lon="-4.950840">
        <ele>414.875</ele>
        <time>2021-10-16T17:10:13Z</time>
      </trkpt>
      <trkpt lat="38.136143" lon="-4.950499">
        <ele>414.597</ele>
        <time>2021-10-16T17:10:14Z</time>
      </trkpt>
      <trkpt lat="38.135944" lon="-4.949856">
        <ele>413.994</ele>
        <time>2021-10-16T17:10:16Z</time>
      </trkpt>
      <trkpt lat="38.135846" lon="-4.949541">
        <ele>413.222</ele>
        <time>2021-10-16T17:10:17Z</time>
      </trkpt>
      <trkpt lat="38.135752" lon="-4.949242">
        <ele>413.062</ele>
        <time>2021-10-16T17:10:18Z</time>
      </trkpt>
      <trkpt lat="38.135563" lon="-4.948662">
        <ele>413.008</ele>
        <time>2021-10-16T17:10:20Z</time>
      </trkpt>
      <trkpt lat="38.135386" lon="-4.948106">
        <ele>412.108</ele>
        <time>2021-10-16T17:10:22Z</time>
      </trkpt>
      <trkpt lat="38.135208" lon="-4.947532">
        <ele>412.070</ele>
        <time>2021-10-16T17:10:24Z</time>
      </trkpt>
      <trkpt lat="38.135028" lon="-4.946945">
        <ele>411.888</ele>
        <time>2021-10-16T17:10:26Z</time>
      </trkpt>
      <trkpt lat="38.134853" lon="-4.946377">
        <ele>410.987</ele>
        <time>2021-10-16T17:10:28Z</time>
      </trkpt>
      <trkpt lat="38.134762" lon="-4.946084">
        <ele>411.061</ele>
        <time>2021-10-16T17:10:29Z</time>
      </trkpt>
      <trkpt lat="38.134572" lon="-4.945495">
        <ele>410.356</ele>
        <time>2021-10-16T17:10:31Z</time>
      </trkpt>
      <trkpt lat="38.134474" lon="-4.945186">
        <ele>410.475</ele>
        <time>2021-10-16T17:10:32Z</time>
      </trkpt>
      <trkpt lat="38.134288" lon="-4.944574">
        <ele>409.757</ele>
        <time>2021-10-16T17:10:34Z</time>
      </trkpt>
      <trkpt lat="38.134191" lon="-4.944254">
        <ele>410.174</ele>
        <time>2021-10-16T17:10:35Z</time>
      </trkpt>
      <trkpt lat="38.133994" lon="-4.943605">
        <ele>409.978</ele>
        <time>2021-10-16T17:10:37Z</time>
      </trkpt>
      <trkpt lat="38.133891" lon="-4.943268">
        <ele>409.533</ele>
        <time>2021-10-16T17:10:38Z</time>
      </trkpt>
      <trkpt lat="38.133693" lon="-4.942623">
        <ele>409.726</ele>
        <time>2021-10-16T17:10:40Z</time>
      </trkpt>
      <trkpt lat="38.133492" lon="-4.941984">
        <ele>410.708</ele>
        <time>2021-10-16T17:10:42Z</time>
      </trkpt>
      <trkpt lat="38.133294" lon="-4.941367">
        <ele>411.375</ele>
        <time>2021-10-16T17:10:44Z</time>
      </trkpt>
      <trkpt lat="38.133110" lon="-4.940791">
        <ele>411.753</ele>
        <time>2021-10-16T17:10:46Z</time>
      </trkpt>
      <trkpt lat="38.133020" lon="-4.940501">
        <ele>412.072</ele>
        <time>2021-10-16T17:10:47Z</time>
      </trkpt>
      <trkpt lat="38.132930" lon="-4.940209">
        <ele>412.016</ele>
        <time>2021-10-16T17:10:48Z</time>
      </trkpt>
      <trkpt lat="38.132751" lon="-4.939631">
        <ele>412.871</ele>
        <time>2021-10-16T17:10:50Z</time>
      </trkpt>
      <trkpt lat="38.132580" lon="-4.939074">
        <ele>414.580</ele>
        <time>2021-10-16T17:10:52Z</time>
      </trkpt>
      <trkpt lat="38.132493" lon="-4.938792">
        <ele>414.692</ele>
        <time>2021-10-16T17:10:53Z</time>
      </trkpt>
      <trkpt lat="38.132406" lon="-4.938511">
        <ele>415.059</ele>
        <time>2021-10-16T17:10:54Z</time>
      </trkpt>
      <trkpt lat="38.132316" lon="-4.938233">
        <ele>415.225</ele>
        <time>2021-10-16T17:10:55Z</time>
      </trkpt>
      <trkpt lat="38.132228" lon="-4.937948">
        <ele>415.926</ele>
        <time>2021-10-16T17:10:56Z</time>
      </trkpt>
      <trkpt lat="38.132056" lon="-4.937394">
        <ele>416.408</ele>
        <time>2021-10-16T17:10:58Z</time>
      </trkpt>
      <trkpt lat="38.131872" lon="-4.936817">
        <ele>417.108</ele>
        <time>2021-10-16T17:11:00Z</time>
      </trkpt>
      <trkpt lat="38.131778" lon="-4.936524">
        <ele>417.430</ele>
        <time>2021-10-16T17:11:01Z</time>
      </trkpt>
      <trkpt lat="38.131688" lon="-4.936214">
        <ele>417.678</ele>
        <time>2021-10-16T17:11:02Z</time>
      </trkpt>
      <trkpt lat="38.131520" lon="-4.935618">
        <ele>418.647</ele>
        <time>2021-10-16T17:11:04Z</time>
      </trkpt>
      <trkpt lat="38.131365" lon="-4.934994">
        <ele>419.081</ele>
        <time>2021-10-16T17:11:06Z</time>
      </trkpt>
      <trkpt lat="38.131224" lon="-4.934355">
        <ele>419.796</ele>
        <time>2021-10-16T17:11:08Z</time>
      </trkpt>
      <trkpt lat="38.131104" lon="-4.933726">
        <ele>419.295</ele>
        <time>2021-10-16T17:11:10Z</time>
      </trkpt>
      <trkpt lat="38.131004" lon="-4.933066">
        <ele>420.127</ele>
        <time>2021-10-16T17:11:12Z</time>
      </trkpt>
      <trkpt lat="38.130920" lon="-4.932380">
        <ele>420.934</ele>
        <time>2021-10-16T17:11:14Z</time>
      </trkpt>
      <trkpt lat="38.130841" lon="-4.931716">
        <ele>422.355</ele>
        <time>2021-10-16T17:11:16Z</time>
      </trkpt>
      <trkpt lat="38.130806" lon="-4.931374">
        <ele>422.607</ele>
        <time>2021-10-16T17:11:17Z</time>
      </trkpt>
      <trkpt lat="38.130771" lon="-4.931031">
        <ele>422.917</ele>
        <time>2021-10-16T17:11:18Z</time>
      </trkpt>
      <trkpt lat="38.130702" lon="-4.930334">
        <ele>424.108</ele>
        <time>2021-10-16T17:11:20Z</time>
      </trkpt>
      <trkpt lat="38.130633" lon="-4.929653">
        <ele>424.793</ele>
        <time>2021-10-16T17:11:22Z</time>
      </trkpt>
      <trkpt lat="38.130563" lon="-4.928968">
        <ele>424.791</ele>
        <time>2021-10-16T17:11:24Z</time>
      </trkpt>
      <trkpt lat="38.130528" lon="-4.928626">
        <ele>425.380</ele>
        <time>2021-10-16T17:11:25Z</time>
      </trkpt>
      <trkpt lat="38.130493" lon="-4.928279">
        <ele>426.334</ele>
        <time>2021-10-16T17:11:26Z</time>
      </trkpt>
      <trkpt lat="38.130427" lon="-4.927619">
        <ele>426.629</ele>
        <time>2021-10-16T17:11:28Z</time>
      </trkpt>
      <trkpt lat="38.130393" lon="-4.927282">
        <ele>427.128</ele>
        <time>2021-10-16T17:11:29Z</time>
      </trkpt>
      <trkpt lat="38.130360" lon="-4.926947">
        <ele>427.230</ele>
        <time>2021-10-16T17:11:30Z</time>
      </trkpt>
      <trkpt lat="38.130327" lon="-4.926613">
        <ele>427.047</ele>
        <time>2021-10-16T17:11:31Z</time>
      </trkpt>
      <trkpt lat="38.130293" lon="-4.926271">
        <ele>427.055</ele>
        <time>2021-10-16T17:11:32Z</time>
      </trkpt>
      <trkpt lat="38.130227" lon="-4.925603">
        <ele>428.307</ele>
        <time>2021-10-16T17:11:34Z</time>
      </trkpt>
      <trkpt lat="38.130158" lon="-4.924921">
        <ele>428.117</ele>
        <time>2021-10-16T17:11:36Z</time>
      </trkpt>
      <trkpt lat="38.130123" lon="-4.924577">
        <ele>428.408</ele>
        <time>2021-10-16T17:11:37Z</time>
      </trkpt>
      <trkpt lat="38.130087" lon="-4.924223">
        <ele>428.943</ele>
        <time>2021-10-16T17:11:38Z</time>
      </trkpt>
      <trkpt lat="38.130018" lon="-4.923548">
        <ele>430.071</ele>
        <time>2021-10-16T17:11:40Z</time>
      </trkpt>
      <trkpt lat="38.129986" lon="-4.923194">
        <ele>429.920</ele>
        <time>2021-10-16T17:11:41Z</time>
      </trkpt>
      <trkpt lat="38.129919" lon="-4.922490">
        <ele>431.144</ele>
        <time>2021-10-16T17:11:43Z</time>
      </trkpt>
      <trkpt lat="38.129882" lon="-4.922125">
        <ele>431.029</ele>
        <time>2021-10-16T17:11:44Z</time>
      </trkpt>
      <trkpt lat="38.129811" lon="-4.921429">
        <ele>432.188</ele>
        <time>2021-10-16T17:11:46Z</time>
      </trkpt>
      <trkpt lat="38.129775" lon="-4.921075">
        <ele>432.570</ele>
        <time>2021-10-16T17:11:47Z</time>
      </trkpt>
      <trkpt lat="38.129715" lon="-4.920403">
        <ele>433.247</ele>
        <time>2021-10-16T17:11:49Z</time>
      </trkpt>
      <trkpt lat="38.129697" lon="-4.920068">
        <ele>433.435</ele>
        <time>2021-10-16T17:11:50Z</time>
      </trkpt>
      <trkpt lat="38.129686" lon="-4.919448">
        <ele>433.986</ele>
        <time>2021-10-16T17:11:52Z</time>
      </trkpt>
      <trkpt lat="38.129698" lon="-4.918823">
        <ele>434.114</ele>
        <time>2021-10-16T17:11:54Z</time>
      </trkpt>
      <trkpt lat="38.129742" lon="-4.918199">
        <ele>434.208</ele>
        <time>2021-10-16T17:11:56Z</time>
      </trkpt>
      <trkpt lat="38.129807" lon="-4.917600">
        <ele>434.681</ele>
        <time>2021-10-16T17:11:58Z</time>
      </trkpt>
      <trkpt lat="38.129895" lon="-4.916981">
        <ele>434.519</ele>
        <time>2021-10-16T17:12:00Z</time>
      </trkpt>
      <trkpt lat="38.129943" lon="-4.916667">
        <ele>434.138</ele>
        <time>2021-10-16T17:12:01Z</time>
      </trkpt>
      <trkpt lat="38.129994" lon="-4.916341">
        <ele>433.782</ele>
        <time>2021-10-16T17:12:02Z</time>
      </trkpt>
      <trkpt lat="38.130102" lon="-4.915706">
        <ele>433.647</ele>
        <time>2021-10-16T17:12:04Z</time>
      </trkpt>
      <trkpt lat="38.130199" lon="-4.915039">
        <ele>434.036</ele>
        <time>2021-10-16T17:12:06Z</time>
      </trkpt>
      <trkpt lat="38.130256" lon="-4.914329">
        <ele>433.718</ele>
        <time>2021-10-16T17:12:08Z</time>
      </trkpt>
      <trkpt lat="38.130257" lon="-4.913628">
        <ele>432.965</ele>
        <time>2021-10-16T17:12:10Z</time>
      </trkpt>
      <trkpt lat="38.130243" lon="-4.913264">
        <ele>433.069</ele>
        <time>2021-10-16T17:12:11Z</time>
      </trkpt>
      <trkpt lat="38.130179" lon="-4.912552">
        <ele>432.204</ele>
        <time>2021-10-16T17:12:13Z</time>
      </trkpt>
      <trkpt lat="38.130125" lon="-4.912207">
        <ele>432.424</ele>
        <time>2021-10-16T17:12:14Z</time>
      </trkpt>
      <trkpt lat="38.129991" lon="-4.911588">
        <ele>432.708</ele>
        <time>2021-10-16T17:12:16Z</time>
      </trkpt>
      <trkpt lat="38.129824" lon="-4.910993">
        <ele>432.374</ele>
        <time>2021-10-16T17:12:18Z</time>
      </trkpt>
      <trkpt lat="38.129614" lon="-4.910383">
        <ele>431.892</ele>
        <time>2021-10-16T17:12:20Z</time>
      </trkpt>
      <trkpt lat="38.129370" lon="-4.909798">
        <ele>432.891</ele>
        <time>2021-10-16T17:12:22Z</time>
      </trkpt>
      <trkpt lat="38.129115" lon="-4.909199">
        <ele>433.295</ele>
        <time>2021-10-16T17:12:24Z</time>
      </trkpt>
      <trkpt lat="38.128996" lon="-4.908902">
        <ele>433.170</ele>
        <time>2021-10-16T17:12:25Z</time>
      </trkpt>
      <trkpt lat="38.128879" lon="-4.908597">
        <ele>432.829</ele>
        <time>2021-10-16T17:12:26Z</time>
      </trkpt>
      <trkpt lat="38.128688" lon="-4.908030">
        <ele>434.051</ele>
        <time>2021-10-16T17:12:28Z</time>
      </trkpt>
      <trkpt lat="38.128510" lon="-4.907466">
        <ele>433.878</ele>
        <time>2021-10-16T17:12:30Z</time>
      </trkpt>
      <trkpt lat="38.128424" lon="-4.907184">
        <ele>433.123</ele>
        <time>2021-10-16T17:12:31Z</time>
      </trkpt>
      <trkpt lat="38.128337" lon="-4.906897">
        <ele>432.983</ele>
        <time>2021-10-16T17:12:32Z</time>
      </trkpt>
      <trkpt lat="38.128175" lon="-4.906343">
        <ele>433.211</ele>
        <time>2021-10-16T17:12:34Z</time>
      </trkpt>
      <trkpt lat="38.127998" lon="-4.905784">
        <ele>433.108</ele>
        <time>2021-10-16T17:12:36Z</time>
      </trkpt>
      <trkpt lat="38.127806" lon="-4.905212">
        <ele>434.440</ele>
        <time>2021-10-16T17:12:38Z</time>
      </trkpt>
      <trkpt lat="38.127603" lon="-4.904654">
        <ele>434.958</ele>
        <time>2021-10-16T17:12:40Z</time>
      </trkpt>
      <trkpt lat="38.127485" lon="-4.904368">
        <ele>435.267</ele>
        <time>2021-10-16T17:12:41Z</time>
      </trkpt>
      <trkpt lat="38.127221" lon="-4.903806">
        <ele>436.691</ele>
        <time>2021-10-16T17:12:43Z</time>
      </trkpt>
      <trkpt lat="38.127079" lon="-4.903517">
        <ele>437.726</ele>
        <time>2021-10-16T17:12:44Z</time>
      </trkpt>
      <trkpt lat="38.126796" lon="-4.902976">
        <ele>439.555</ele>
        <time>2021-10-16T17:12:46Z</time>
      </trkpt>
      <trkpt lat="38.126646" lon="-4.902708">
        <ele>440.317</ele>
        <time>2021-10-16T17:12:47Z</time>
      </trkpt>
      <trkpt lat="38.126338" lon="-4.902203">
        <ele>441.054</ele>
        <time>2021-10-16T17:12:49Z</time>
      </trkpt>
      <trkpt lat="38.126175" lon="-4.901957">
        <ele>442.629</ele>
        <time>2021-10-16T17:12:50Z</time>
      </trkpt>
      <trkpt lat="38.125862" lon="-4.901512">
        <ele>444.400</ele>
        <time>2021-10-16T17:12:52Z</time>
      </trkpt>
      <trkpt lat="38.125696" lon="-4.901291">
        <ele>445.520</ele>
        <time>2021-10-16T17:12:53Z</time>
      </trkpt>
      <trkpt lat="38.125525" lon="-4.901077">
        <ele>446.108</ele>
        <time>2021-10-16T17:12:54Z</time>
      </trkpt>
      <trkpt lat="38.125354" lon="-4.900863">
        <ele>447.210</ele>
        <time>2021-10-16T17:12:55Z</time>
      </trkpt>
      <trkpt lat="38.125177" lon="-4.900647">
        <ele>448.148</ele>
        <time>2021-10-16T17:12:56Z</time>
      </trkpt>
      <trkpt lat="38.124827" lon="-4.900234">
        <ele>449.427</ele>
        <time>2021-10-16T17:12:58Z</time>
      </trkpt>
      <trkpt lat="38.124646" lon="-4.900025">
        <ele>449.871</ele>
        <time>2021-10-16T17:12:59Z</time>
      </trkpt>
      <trkpt lat="38.124279" lon="-4.899606">
        <ele>451.576</ele>
        <time>2021-10-16T17:13:01Z</time>
      </trkpt>
      <trkpt lat="38.124085" lon="-4.899385">
        <ele>451.915</ele>
        <time>2021-10-16T17:13:02Z</time>
      </trkpt>
      <trkpt lat="38.123703" lon="-4.898947">
        <ele>454.147</ele>
        <time>2021-10-16T17:13:04Z</time>
      </trkpt>
      <trkpt lat="38.123301" lon="-4.898466">
        <ele>457.074</ele>
        <time>2021-10-16T17:13:06Z</time>
      </trkpt>
      <trkpt lat="38.122879" lon="-4.897961">
        <ele>459.469</ele>
        <time>2021-10-16T17:13:08Z</time>
      </trkpt>
      <trkpt lat="38.122466" lon="-4.897472">
        <ele>463.104</ele>
        <time>2021-10-16T17:13:10Z</time>
      </trkpt>
      <trkpt lat="38.122258" lon="-4.897226">
        <ele>465.224</ele>
        <time>2021-10-16T17:13:11Z</time>
      </trkpt>
      <trkpt lat="38.122049" lon="-4.896986">
        <ele>466.408</ele>
        <time>2021-10-16T17:13:12Z</time>
      </trkpt>
      <trkpt lat="38.121638" lon="-4.896506">
        <ele>470.374</ele>
        <time>2021-10-16T17:13:14Z</time>
      </trkpt>
      <trkpt lat="38.121274" lon="-4.896009">
        <ele>473.612</ele>
        <time>2021-10-16T17:13:16Z</time>
      </trkpt>
      <trkpt lat="38.120947" lon="-4.895452">
        <ele>477.161</ele>
        <time>2021-10-16T17:13:18Z</time>
      </trkpt>
      <trkpt lat="38.120805" lon="-4.895150">
        <ele>478.485</ele>
        <time>2021-10-16T17:13:19Z</time>
      </trkpt>
      <trkpt lat="38.120674" lon="-4.894830">
        <ele>479.790</ele>
        <time>2021-10-16T17:13:20Z</time>
      </trkpt>
      <trkpt lat="38.120475" lon="-4.894183">
        <ele>483.359</ele>
        <time>2021-10-16T17:13:22Z</time>
      </trkpt>
      <trkpt lat="38.120399" lon="-4.893833">
        <ele>485.451</ele>
        <time>2021-10-16T17:13:23Z</time>
      </trkpt>
      <trkpt lat="38.120292" lon="-4.893096">
        <ele>489.498</ele>
        <time>2021-10-16T17:13:25Z</time>
      </trkpt>
      <trkpt lat="38.120252" lon="-4.892698">
        <ele>491.351</ele>
        <time>2021-10-16T17:13:26Z</time>
      </trkpt>
      <trkpt lat="38.120184" lon="-4.891932">
        <ele>495.201</ele>
        <time>2021-10-16T17:13:28Z</time>
      </trkpt>
      <trkpt lat="38.120095" lon="-4.891181">
        <ele>500.411</ele>
        <time>2021-10-16T17:13:30Z</time>
      </trkpt>
      <trkpt lat="38.120026" lon="-4.890815">
        <ele>502.508</ele>
        <time>2021-10-16T17:13:31Z</time>
      </trkpt>
      <trkpt lat="38.119935" lon="-4.890454">
        <ele>504.213</ele>
        <time>2021-10-16T17:13:32Z</time>
      </trkpt>
      <trkpt lat="38.119696" lon="-4.889813">
        <ele>507.891</ele>
        <time>2021-10-16T17:13:34Z</time>
      </trkpt>
      <trkpt lat="38.119529" lon="-4.889523">
        <ele>510.430</ele>
        <time>2021-10-16T17:13:35Z</time>
      </trkpt>
      <trkpt lat="38.119336" lon="-4.889261">
        <ele>512.274</ele>
        <time>2021-10-16T17:13:36Z</time>
      </trkpt>
      <trkpt lat="38.119123" lon="-4.889025">
        <ele>513.129</ele>
        <time>2021-10-16T17:13:37Z</time>
      </trkpt>
      <trkpt lat="38.118890" lon="-4.888809">
        <ele>514.958</ele>
        <time>2021-10-16T17:13:38Z</time>
      </trkpt>
      <trkpt lat="38.118411" lon="-4.888493">
        <ele>519.520</ele>
        <time>2021-10-16T17:13:40Z</time>
      </trkpt>
      <trkpt lat="38.118150" lon="-4.888378">
        <ele>521.247</ele>
        <time>2021-10-16T17:13:41Z</time>
      </trkpt>
      <trkpt lat="38.117886" lon="-4.888291">
        <ele>523.347</ele>
        <time>2021-10-16T17:13:42Z</time>
      </trkpt>
      <trkpt lat="38.117343" lon="-4.888231">
        <ele>526.529</ele>
        <time>2021-10-16T17:13:44Z</time>
      </trkpt>
      <trkpt lat="38.116802" lon="-4.888319">
        <ele>532.021</ele>
        <time>2021-10-16T17:13:46Z</time>
      </trkpt>
      <trkpt lat="38.116532" lon="-4.888382">
        <ele>534.308</ele>
        <time>2021-10-16T17:13:47Z</time>
      </trkpt>
      <trkpt lat="38.116002" lon="-4.888471">
        <ele>537.962</ele>
        <time>2021-10-16T17:13:49Z</time>
      </trkpt>
      <trkpt lat="38.115729" lon="-4.888478">
        <ele>539.170</ele>
        <time>2021-10-16T17:13:50Z</time>
      </trkpt>
      <trkpt lat="38.115214" lon="-4.888400">
        <ele>542.019</ele>
        <time>2021-10-16T17:13:52Z</time>
      </trkpt>
      <trkpt lat="38.114702" lon="-4.888172">
        <ele>545.283</ele>
        <time>2021-10-16T17:13:54Z</time>
      </trkpt>
      <trkpt lat="38.114218" lon="-4.887805">
        <ele>549.498</ele>
        <time>2021-10-16T17:13:56Z</time>
      </trkpt>
      <trkpt lat="38.113796" lon="-4.887324">
        <ele>552.847</ele>
        <time>2021-10-16T17:13:58Z</time>
      </trkpt>
      <trkpt lat="38.113608" lon="-4.887039">
        <ele>554.599</ele>
        <time>2021-10-16T17:13:59Z</time>
      </trkpt>
      <trkpt lat="38.113302" lon="-4.886404">
        <ele>558.516</ele>
        <time>2021-10-16T17:14:01Z</time>
      </trkpt>
      <trkpt lat="38.113168" lon="-4.886054">
        <ele>560.266</ele>
        <time>2021-10-16T17:14:02Z</time>
      </trkpt>
      <trkpt lat="38.112917" lon="-4.885381">
        <ele>564.329</ele>
        <time>2021-10-16T17:14:04Z</time>
      </trkpt>
      <trkpt lat="38.112661" lon="-4.884706">
        <ele>568.221</ele>
        <time>2021-10-16T17:14:06Z</time>
      </trkpt>
      <trkpt lat="38.112534" lon="-4.884373">
        <ele>570.408</ele>
        <time>2021-10-16T17:14:07Z</time>
      </trkpt>
      <trkpt lat="38.112402" lon="-4.884029">
        <ele>572.844</ele>
        <time>2021-10-16T17:14:08Z</time>
      </trkpt>
      <trkpt lat="38.112145" lon="-4.883374">
        <ele>576.812</ele>
        <time>2021-10-16T17:14:10Z</time>
      </trkpt>
      <trkpt lat="38.111872" lon="-4.882690">
        <ele>579.951</ele>
        <time>2021-10-16T17:14:12Z</time>
      </trkpt>
      <trkpt lat="38.111549" lon="-4.882016">
        <ele>583.695</ele>
        <time>2021-10-16T17:14:14Z</time>
      </trkpt>
      <trkpt lat="38.111153" lon="-4.881380">
        <ele>587.110</ele>
        <time>2021-10-16T17:14:16Z</time>
      </trkpt>
      <trkpt lat="38.110668" lon="-4.880794">
        <ele>588.749</ele>
        <time>2021-10-16T17:14:18Z</time>
      </trkpt>
      <trkpt lat="38.110140" lon="-4.880323">
        <ele>590.121</ele>
        <time>2021-10-16T17:14:20Z</time>
      </trkpt>
      <trkpt lat="38.109593" lon="-4.879973">
        <ele>590.728</ele>
        <time>2021-10-16T17:14:22Z</time>
      </trkpt>
      <trkpt lat="38.109294" lon="-4.879831">
        <ele>590.528</ele>
        <time>2021-10-16T17:14:23Z</time>
      </trkpt>
      <trkpt lat="38.108996" lon="-4.879717">
        <ele>590.989</ele>
        <time>2021-10-16T17:14:24Z</time>
      </trkpt>
      <trkpt lat="38.108391" lon="-4.879561">
        <ele>591.217</ele>
        <time>2021-10-16T17:14:26Z</time>
      </trkpt>
      <trkpt lat="38.107795" lon="-4.879480">
        <ele>589.508</ele>
        <time>2021-10-16T17:14:28Z</time>
      </trkpt>
      <trkpt lat="38.107187" lon="-4.879431">
        <ele>587.260</ele>
        <time>2021-10-16T17:14:30Z</time>
      </trkpt>
      <trkpt lat="38.106878" lon="-4.879417">
        <ele>586.038</ele>
        <time>2021-10-16T17:14:31Z</time>
      </trkpt>
      <trkpt lat="38.106563" lon="-4.879402">
        <ele>584.627</ele>
        <time>2021-10-16T17:14:32Z</time>
      </trkpt>
      <trkpt lat="38.105954" lon="-4.879374">
        <ele>582.381</ele>
        <time>2021-10-16T17:14:34Z</time>
      </trkpt>
      <trkpt lat="38.105644" lon="-4.879354">
        <ele>580.886</ele>
        <time>2021-10-16T17:14:35Z</time>
      </trkpt>
      <trkpt lat="38.105331" lon="-4.879311">
        <ele>579.445</ele>
        <time>2021-10-16T17:14:36Z</time>
      </trkpt>
      <trkpt lat="38.104703" lon="-4.879158">
        <ele>577.017</ele>
        <time>2021-10-16T17:14:38Z</time>
      </trkpt>
      <trkpt lat="38.104111" lon="-4.878919">
        <ele>575.424</ele>
        <time>2021-10-16T17:14:40Z</time>
      </trkpt>
      <trkpt lat="38.103817" lon="-4.878757">
        <ele>574.639</ele>
        <time>2021-10-16T17:14:41Z</time>
      </trkpt>
      <trkpt lat="38.103262" lon="-4.878344">
        <ele>572.801</ele>
        <time>2021-10-16T17:14:43Z</time>
      </trkpt>
      <trkpt lat="38.102994" lon="-4.878095">
        <ele>572.021</ele>
        <time>2021-10-16T17:14:44Z</time>
      </trkpt>
      <trkpt lat="38.102513" lon="-4.877564">
        <ele>571.808</ele>
        <time>2021-10-16T17:14:46Z</time>
      </trkpt>
      <trkpt lat="38.102038" lon="-4.877023">
        <ele>570.891</ele>
        <time>2021-10-16T17:14:48Z</time>
      </trkpt>
      <trkpt lat="38.101803" lon="-4.876756">
        <ele>571.619</ele>
        <time>2021-10-16T17:14:49Z</time>
      </trkpt>
      <trkpt lat="38.101565" lon="-4.876487">
        <ele>572.258</ele>
        <time>2021-10-16T17:14:50Z</time>
      </trkpt>
      <trkpt lat="38.101115" lon="-4.875977">
        <ele>573.422</ele>
        <time>2021-10-16T17:14:52Z</time>
      </trkpt>
      <trkpt lat="38.100890" lon="-4.875714">
        <ele>574.147</ele>
        <time>2021-10-16T17:14:53Z</time>
      </trkpt>
      <trkpt lat="38.100447" lon="-4.875198">
        <ele>575.476</ele>
        <time>2021-10-16T17:14:55Z</time>
      </trkpt>
      <trkpt lat="38.100216" lon="-4.874936">
        <ele>576.138</ele>
        <time>2021-10-16T17:14:56Z</time>
      </trkpt>
      <trkpt lat="38.099786" lon="-4.874450">
        <ele>576.875</ele>
        <time>2021-10-16T17:14:58Z</time>
      </trkpt>
      <trkpt lat="38.099568" lon="-4.874204">
        <ele>577.015</ele>
        <time>2021-10-16T17:14:59Z</time>
      </trkpt>
      <trkpt lat="38.099142" lon="-4.873712">
        <ele>578.765</ele>
        <time>2021-10-16T17:15:01Z</time>
      </trkpt>
      <trkpt lat="38.098924" lon="-4.873460">
        <ele>578.711</ele>
        <time>2021-10-16T17:15:02Z</time>
      </trkpt>
      <trkpt lat="38.098505" lon="-4.872981">
        <ele>580.208</ele>
        <time>2021-10-16T17:15:04Z</time>
      </trkpt>
      <trkpt lat="38.098075" lon="-4.872497">
        <ele>580.789</ele>
        <time>2021-10-16T17:15:06Z</time>
      </trkpt>
      <trkpt lat="38.097625" lon="-4.872001">
        <ele>580.867</ele>
        <time>2021-10-16T17:15:08Z</time>
      </trkpt>
      <trkpt lat="38.097180" lon="-4.871534">
        <ele>582.336</ele>
        <time>2021-10-16T17:15:10Z</time>
      </trkpt>
      <trkpt lat="38.096709" lon="-4.871091">
        <ele>581.710</ele>
        <time>2021-10-16T17:15:12Z</time>
      </trkpt>
      <trkpt lat="38.096466" lon="-4.870878">
        <ele>581.865</ele>
        <time>2021-10-16T17:15:13Z</time>
      </trkpt>
      <trkpt lat="38.096212" lon="-4.870669">
        <ele>581.144</ele>
        <time>2021-10-16T17:15:14Z</time>
      </trkpt>
      <trkpt lat="38.095727" lon="-4.870271">
        <ele>580.156</ele>
        <time>2021-10-16T17:15:16Z</time>
      </trkpt>
      <trkpt lat="38.095484" lon="-4.870069">
        <ele>579.313</ele>
        <time>2021-10-16T17:15:17Z</time>
      </trkpt>
      <trkpt lat="38.095012" lon="-4.869662">
        <ele>578.031</ele>
        <time>2021-10-16T17:15:19Z</time>
      </trkpt>
      <trkpt lat="38.094780" lon="-4.869442">
        <ele>577.461</ele>
        <time>2021-10-16T17:15:20Z</time>
      </trkpt>
      <trkpt lat="38.094356" lon="-4.869014">
        <ele>577.107</ele>
        <time>2021-10-16T17:15:22Z</time>
      </trkpt>
      <trkpt lat="38.094145" lon="-4.868783">
        <ele>575.608</ele>
        <time>2021-10-16T17:15:23Z</time>
      </trkpt>
      <trkpt lat="38.093722" lon="-4.868292">
        <ele>574.281</ele>
        <time>2021-10-16T17:15:25Z</time>
      </trkpt>
      <trkpt lat="38.093501" lon="-4.868031">
        <ele>573.649</ele>
        <time>2021-10-16T17:15:26Z</time>
      </trkpt>
      <trkpt lat="38.093083" lon="-4.867520">
        <ele>572.538</ele>
        <time>2021-10-16T17:15:28Z</time>
      </trkpt>
      <trkpt lat="38.092662" lon="-4.866978">
        <ele>570.942</ele>
        <time>2021-10-16T17:15:30Z</time>
      </trkpt>
      <trkpt lat="38.092244" lon="-4.866435">
        <ele>569.277</ele>
        <time>2021-10-16T17:15:32Z</time>
      </trkpt>
      <trkpt lat="38.091865" lon="-4.865945">
        <ele>568.726</ele>
        <time>2021-10-16T17:15:34Z</time>
      </trkpt>
      <trkpt lat="38.091498" lon="-4.865472">
        <ele>567.568</ele>
        <time>2021-10-16T17:15:36Z</time>
      </trkpt>
      <trkpt lat="38.091315" lon="-4.865237">
        <ele>567.015</ele>
        <time>2021-10-16T17:15:37Z</time>
      </trkpt>
      <trkpt lat="38.091128" lon="-4.864997">
        <ele>566.883</ele>
        <time>2021-10-16T17:15:38Z</time>
      </trkpt>
      <trkpt lat="38.090776" lon="-4.864547">
        <ele>566.325</ele>
        <time>2021-10-16T17:15:40Z</time>
      </trkpt>
      <trkpt lat="38.090594" lon="-4.864319">
        <ele>564.817</ele>
        <time>2021-10-16T17:15:41Z</time>
      </trkpt>
      <trkpt lat="38.090232" lon="-4.863854">
        <ele>563.208</ele>
        <time>2021-10-16T17:15:43Z</time>
      </trkpt>
      <trkpt lat="38.090044" lon="-4.863612">
        <ele>562.486</ele>
        <time>2021-10-16T17:15:44Z</time>
      </trkpt>
      <trkpt lat="38.089698" lon="-4.863170">
        <ele>561.144</ele>
        <time>2021-10-16T17:15:46Z</time>
      </trkpt>
      <trkpt lat="38.089528" lon="-4.862959">
        <ele>560.693</ele>
        <time>2021-10-16T17:15:47Z</time>
      </trkpt>
      <trkpt lat="38.089365" lon="-4.862755">
        <ele>560.497</ele>
        <time>2021-10-16T17:15:48Z</time>
      </trkpt>
      <trkpt lat="38.089206" lon="-4.862550">
        <ele>560.392</ele>
        <time>2021-10-16T17:15:49Z</time>
      </trkpt>
      <trkpt lat="38.089041" lon="-4.862335">
        <ele>559.591</ele>
        <time>2021-10-16T17:15:50Z</time>
      </trkpt>
      <trkpt lat="38.088728" lon="-4.861920">
        <ele>558.663</ele>
        <time>2021-10-16T17:15:52Z</time>
      </trkpt>
      <trkpt lat="38.088550" lon="-4.861688">
        <ele>558.370</ele>
        <time>2021-10-16T17:15:53Z</time>
      </trkpt>
      <trkpt lat="38.088177" lon="-4.861217">
        <ele>556.848</ele>
        <time>2021-10-16T17:15:55Z</time>
      </trkpt>
      <trkpt lat="38.087981" lon="-4.860972">
        <ele>556.461</ele>
        <time>2021-10-16T17:15:56Z</time>
      </trkpt>
      <trkpt lat="38.087591" lon="-4.860476">
        <ele>555.717</ele>
        <time>2021-10-16T17:15:58Z</time>
      </trkpt>
      <trkpt lat="38.087388" lon="-4.860214">
        <ele>555.208</ele>
        <time>2021-10-16T17:15:59Z</time>
      </trkpt>
      <trkpt lat="38.087180" lon="-4.859946">
        <ele>554.942</ele>
        <time>2021-10-16T17:16:00Z</time>
      </trkpt>
      <trkpt lat="38.086744" lon="-4.859386">
        <ele>553.630</ele>
        <time>2021-10-16T17:16:02Z</time>
      </trkpt>
      <trkpt lat="38.086304" lon="-4.858824">
        <ele>552.319</ele>
        <time>2021-10-16T17:16:04Z</time>
      </trkpt>
      <trkpt lat="38.086076" lon="-4.858533">
        <ele>551.853</ele>
        <time>2021-10-16T17:16:05Z</time>
      </trkpt>
      <trkpt lat="38.085615" lon="-4.857942">
        <ele>550.778</ele>
        <time>2021-10-16T17:16:07Z</time>
      </trkpt>
      <trkpt lat="38.085374" lon="-4.857634">
        <ele>550.187</ele>
        <time>2021-10-16T17:16:08Z</time>
      </trkpt>
      <trkpt lat="38.084910" lon="-4.857039">
        <ele>548.819</ele>
        <time>2021-10-16T17:16:10Z</time>
      </trkpt>
      <trkpt lat="38.084683" lon="-4.856748">
        <ele>548.246</ele>
        <time>2021-10-16T17:16:11Z</time>
      </trkpt>
      <trkpt lat="38.084248" lon="-4.856178">
        <ele>546.257</ele>
        <time>2021-10-16T17:16:13Z</time>
      </trkpt>
      <trkpt lat="38.084021" lon="-4.855875">
        <ele>545.500</ele>
        <time>2021-10-16T17:16:14Z</time>
      </trkpt>
      <trkpt lat="38.083580" lon="-4.855290">
        <ele>544.220</ele>
        <time>2021-10-16T17:16:16Z</time>
      </trkpt>
      <trkpt lat="38.083350" lon="-4.855000">
        <ele>543.608</ele>
        <time>2021-10-16T17:16:17Z</time>
      </trkpt>
      <trkpt lat="38.082892" lon="-4.854453">
        <ele>543.233</ele>
        <time>2021-10-16T17:16:19Z</time>
      </trkpt>
      <trkpt lat="38.082660" lon="-4.854175">
        <ele>543.091</ele>
        <time>2021-10-16T17:16:20Z</time>
      </trkpt>
      <trkpt lat="38.082234" lon="-4.853636">
        <ele>542.330</ele>
        <time>2021-10-16T17:16:22Z</time>
      </trkpt>
      <trkpt lat="38.082020" lon="-4.853360">
        <ele>541.844</ele>
        <time>2021-10-16T17:16:23Z</time>
      </trkpt>
      <trkpt lat="38.081809" lon="-4.853085">
        <ele>541.489</ele>
        <time>2021-10-16T17:16:24Z</time>
      </trkpt>
      <trkpt lat="38.081390" lon="-4.852541">
        <ele>541.588</ele>
        <time>2021-10-16T17:16:26Z</time>
      </trkpt>
      <trkpt lat="38.080984" lon="-4.852027">
        <ele>540.660</ele>
        <time>2021-10-16T17:16:28Z</time>
      </trkpt>
      <trkpt lat="38.080566" lon="-4.851520">
        <ele>539.677</ele>
        <time>2021-10-16T17:16:30Z</time>
      </trkpt>
      <trkpt lat="38.080360" lon="-4.851263">
        <ele>539.034</ele>
        <time>2021-10-16T17:16:31Z</time>
      </trkpt>
      <trkpt lat="38.080157" lon="-4.851001">
        <ele>538.855</ele>
        <time>2021-10-16T17:16:32Z</time>
      </trkpt>
      <trkpt lat="38.079764" lon="-4.850490">
        <ele>538.810</ele>
        <time>2021-10-16T17:16:34Z</time>
      </trkpt>
      <trkpt lat="38.079564" lon="-4.850229">
        <ele>538.508</ele>
        <time>2021-10-16T17:16:35Z</time>
      </trkpt>
      <trkpt lat="38.079362" lon="-4.849969">
        <ele>538.481</ele>
        <time>2021-10-16T17:16:36Z</time>
      </trkpt>
      <trkpt lat="38.079156" lon="-4.849713">
        <ele>538.499</ele>
        <time>2021-10-16T17:16:37Z</time>
      </trkpt>
      <trkpt lat="38.078948" lon="-4.849452">
        <ele>538.178</ele>
        <time>2021-10-16T17:16:38Z</time>
      </trkpt>
      <trkpt lat="38.078547" lon="-4.848940">
        <ele>537.342</ele>
        <time>2021-10-16T17:16:40Z</time>
      </trkpt>
      <trkpt lat="38.078340" lon="-4.848679">
        <ele>536.917</ele>
        <time>2021-10-16T17:16:41Z</time>
      </trkpt>
      <trkpt lat="38.078137" lon="-4.848421">
        <ele>536.636</ele>
        <time>2021-10-16T17:16:42Z</time>
      </trkpt>
      <trkpt lat="38.077729" lon="-4.847900">
        <ele>536.858</ele>
        <time>2021-10-16T17:16:44Z</time>
      </trkpt>
      <trkpt lat="38.077333" lon="-4.847395">
        <ele>536.155</ele>
        <time>2021-10-16T17:16:46Z</time>
      </trkpt>
      <trkpt lat="38.076937" lon="-4.846894">
        <ele>536.034</ele>
        <time>2021-10-16T17:16:48Z</time>
      </trkpt>
      <trkpt lat="38.076741" lon="-4.846643">
        <ele>536.055</ele>
        <time>2021-10-16T17:16:49Z</time>
      </trkpt>
      <trkpt lat="38.076544" lon="-4.846391">
        <ele>535.810</ele>
        <time>2021-10-16T17:16:50Z</time>
      </trkpt>
      <trkpt lat="38.076163" lon="-4.845900">
        <ele>535.508</ele>
        <time>2021-10-16T17:16:52Z</time>
      </trkpt>
      <trkpt lat="38.075970" lon="-4.845648">
        <ele>535.691</ele>
        <time>2021-10-16T17:16:53Z</time>
      </trkpt>
      <trkpt lat="38.075594" lon="-4.845130">
        <ele>535.329</ele>
        <time>2021-10-16T17:16:55Z</time>
      </trkpt>
      <trkpt lat="38.075402" lon="-4.844861">
        <ele>534.548</ele>
        <time>2021-10-16T17:16:56Z</time>
      </trkpt>
      <trkpt lat="38.075037" lon="-4.844337">
        <ele>534.022</ele>
        <time>2021-10-16T17:16:58Z</time>
      </trkpt>
      <trkpt lat="38.074661" lon="-4.843796">
        <ele>533.617</ele>
        <time>2021-10-16T17:17:00Z</time>
      </trkpt>
      <trkpt lat="38.074293" lon="-4.843243">
        <ele>531.936</ele>
        <time>2021-10-16T17:17:02Z</time>
      </trkpt>
      <trkpt lat="38.073946" lon="-4.842708">
        <ele>530.918</ele>
        <time>2021-10-16T17:17:04Z</time>
      </trkpt>
      <trkpt lat="38.073604" lon="-4.842164">
        <ele>529.725</ele>
        <time>2021-10-16T17:17:06Z</time>
      </trkpt>
      <trkpt lat="38.073259" lon="-4.841616">
        <ele>529.318</ele>
        <time>2021-10-16T17:17:08Z</time>
      </trkpt>
      <trkpt lat="38.072926" lon="-4.841087">
        <ele>528.598</ele>
        <time>2021-10-16T17:17:10Z</time>
      </trkpt>
      <trkpt lat="38.072584" lon="-4.840538">
        <ele>526.717</ele>
        <time>2021-10-16T17:17:12Z</time>
      </trkpt>
      <trkpt lat="38.072412" lon="-4.840259">
        <ele>526.108</ele>
        <time>2021-10-16T17:17:13Z</time>
      </trkpt>
      <trkpt lat="38.072235" lon="-4.839972">
        <ele>525.789</ele>
        <time>2021-10-16T17:17:14Z</time>
      </trkpt>
      <trkpt lat="38.071889" lon="-4.839414">
        <ele>524.527</ele>
        <time>2021-10-16T17:17:16Z</time>
      </trkpt>
      <trkpt lat="38.071524" lon="-4.838846">
        <ele>523.556</ele>
        <time>2021-10-16T17:17:18Z</time>
      </trkpt>
      <trkpt lat="38.071163" lon="-4.838278">
        <ele>522.830</ele>
        <time>2021-10-16T17:17:20Z</time>
      </trkpt>
      <trkpt lat="38.070827" lon="-4.837737">
        <ele>520.915</ele>
        <time>2021-10-16T17:17:22Z</time>
      </trkpt>
      <trkpt lat="38.070656" lon="-4.837461">
        <ele>520.564</ele>
        <time>2021-10-16T17:17:23Z</time>
      </trkpt>
      <trkpt lat="38.070485" lon="-4.837187">
        <ele>520.146</ele>
        <time>2021-10-16T17:17:24Z</time>
      </trkpt>
      <trkpt lat="38.070139" lon="-4.836638">
        <ele>519.823</ele>
        <time>2021-10-16T17:17:26Z</time>
      </trkpt>
      <trkpt lat="38.069799" lon="-4.836111">
        <ele>518.776</ele>
        <time>2021-10-16T17:17:28Z</time>
      </trkpt>
      <trkpt lat="38.069626" lon="-4.835838">
        <ele>518.290</ele>
        <time>2021-10-16T17:17:29Z</time>
      </trkpt>
      <trkpt lat="38.069282" lon="-4.835286">
        <ele>517.219</ele>
        <time>2021-10-16T17:17:31Z</time>
      </trkpt>
      <trkpt lat="38.069110" lon="-4.835003">
        <ele>516.508</ele>
        <time>2021-10-16T17:17:32Z</time>
      </trkpt>
      <trkpt lat="38.068764" lon="-4.834448">
        <ele>515.345</ele>
        <time>2021-10-16T17:17:34Z</time>
      </trkpt>
      <trkpt lat="38.068406" lon="-4.833884">
        <ele>514.363</ele>
        <time>2021-10-16T17:17:36Z</time>
      </trkpt>
      <trkpt lat="38.068220" lon="-4.833599">
        <ele>513.372</ele>
        <time>2021-10-16T17:17:37Z</time>
      </trkpt>
      <trkpt lat="38.068030" lon="-4.833304">
        <ele>512.876</ele>
        <time>2021-10-16T17:17:38Z</time>
      </trkpt>
      <trkpt lat="38.067679" lon="-4.832723">
        <ele>512.541</ele>
        <time>2021-10-16T17:17:40Z</time>
      </trkpt>
      <trkpt lat="38.067499" lon="-4.832429">
        <ele>511.810</ele>
        <time>2021-10-16T17:17:41Z</time>
      </trkpt>
      <trkpt lat="38.067155" lon="-4.831882">
        <ele>511.112</ele>
        <time>2021-10-16T17:17:43Z</time>
      </trkpt>
      <trkpt lat="38.066986" lon="-4.831620">
        <ele>510.529</ele>
        <time>2021-10-16T17:17:44Z</time>
      </trkpt>
      <trkpt lat="38.066684" lon="-4.831150">
        <ele>509.882</ele>
        <time>2021-10-16T17:17:46Z</time>
      </trkpt>
      <trkpt lat="38.066537" lon="-4.830914">
        <ele>509.743</ele>
        <time>2021-10-16T17:17:47Z</time>
      </trkpt>
      <trkpt lat="38.066392" lon="-4.830680">
        <ele>509.817</ele>
        <time>2021-10-16T17:17:48Z</time>
      </trkpt>
      <trkpt lat="38.066103" lon="-4.830216">
        <ele>509.708</ele>
        <time>2021-10-16T17:17:50Z</time>
      </trkpt>
      <trkpt lat="38.065823" lon="-4.829775">
        <ele>509.366</ele>
        <time>2021-10-16T17:17:52Z</time>
      </trkpt>
      <trkpt lat="38.065531" lon="-4.829320">
        <ele>509.264</ele>
        <time>2021-10-16T17:17:54Z</time>
      </trkpt>
      <trkpt lat="38.065242" lon="-4.828859">
        <ele>509.253</ele>
        <time>2021-10-16T17:17:56Z</time>
      </trkpt>
      <trkpt lat="38.064987" lon="-4.828454">
        <ele>508.717</ele>
        <time>2021-10-16T17:17:58Z</time>
      </trkpt>
      <trkpt lat="38.064861" lon="-4.828255">
        <ele>508.552</ele>
        <time>2021-10-16T17:17:59Z</time>
      </trkpt>
      <trkpt lat="38.064733" lon="-4.828051">
        <ele>508.551</ele>
        <time>2021-10-16T17:18:00Z</time>
      </trkpt>
      <trkpt lat="38.064603" lon="-4.827841">
        <ele>508.353</ele>
        <time>2021-10-16T17:18:01Z</time>
      </trkpt>
      <trkpt lat="38.064467" lon="-4.827619">
        <ele>507.670</ele>
        <time>2021-10-16T17:18:02Z</time>
      </trkpt>
      <trkpt lat="38.064188" lon="-4.827181">
        <ele>507.189</ele>
        <time>2021-10-16T17:18:04Z</time>
      </trkpt>
      <trkpt lat="38.063893" lon="-4.826725">
        <ele>506.006</ele>
        <time>2021-10-16T17:18:06Z</time>
      </trkpt>
      <trkpt lat="38.063747" lon="-4.826492">
        <ele>505.926</ele>
        <time>2021-10-16T17:18:07Z</time>
      </trkpt>
      <trkpt lat="38.063598" lon="-4.826253">
        <ele>505.608</ele>
        <time>2021-10-16T17:18:08Z</time>
      </trkpt>
      <trkpt lat="38.063313" lon="-4.825798">
        <ele>505.166</ele>
        <time>2021-10-16T17:18:10Z</time>
      </trkpt>
      <trkpt lat="38.063025" lon="-4.825340">
        <ele>505.294</ele>
        <time>2021-10-16T17:18:12Z</time>
      </trkpt>
      <trkpt lat="38.062881" lon="-4.825112">
        <ele>505.173</ele>
        <time>2021-10-16T17:18:13Z</time>
      </trkpt>
      <trkpt lat="38.062731" lon="-4.824874">
        <ele>505.397</ele>
        <time>2021-10-16T17:18:14Z</time>
      </trkpt>
      <trkpt lat="38.062436" lon="-4.824413">
        <ele>504.312</ele>
        <time>2021-10-16T17:18:16Z</time>
      </trkpt>
      <trkpt lat="38.062131" lon="-4.823924">
        <ele>504.421</ele>
        <time>2021-10-16T17:18:18Z</time>
      </trkpt>
      <trkpt lat="38.061824" lon="-4.823418">
        <ele>503.533</ele>
        <time>2021-10-16T17:18:20Z</time>
      </trkpt>
      <trkpt lat="38.061518" lon="-4.822943">
        <ele>503.820</ele>
        <time>2021-10-16T17:18:22Z</time>
      </trkpt>
      <trkpt lat="38.061365" lon="-4.822705">
        <ele>503.542</ele>
        <time>2021-10-16T17:18:23Z</time>
      </trkpt>
      <trkpt lat="38.061216" lon="-4.822466">
        <ele>502.722</ele>
        <time>2021-10-16T17:18:24Z</time>
      </trkpt>
      <trkpt lat="38.060916" lon="-4.821991">
        <ele>503.014</ele>
        <time>2021-10-16T17:18:26Z</time>
      </trkpt>
      <trkpt lat="38.060617" lon="-4.821521">
        <ele>502.708</ele>
        <time>2021-10-16T17:18:28Z</time>
      </trkpt>
      <trkpt lat="38.060462" lon="-4.821276">
        <ele>502.822</ele>
        <time>2021-10-16T17:18:29Z</time>
      </trkpt>
      <trkpt lat="38.060149" lon="-4.820768">
        <ele>502.810</ele>
        <time>2021-10-16T17:18:31Z</time>
      </trkpt>
      <trkpt lat="38.059989" lon="-4.820512">
        <ele>502.829</ele>
        <time>2021-10-16T17:18:32Z</time>
      </trkpt>
      <trkpt lat="38.059675" lon="-4.820012">
        <ele>502.563</ele>
        <time>2021-10-16T17:18:34Z</time>
      </trkpt>
      <trkpt lat="38.059514" lon="-4.819758">
        <ele>502.638</ele>
        <time>2021-10-16T17:18:35Z</time>
      </trkpt>
      <trkpt lat="38.059352" lon="-4.819509">
        <ele>502.677</ele>
        <time>2021-10-16T17:18:36Z</time>
      </trkpt>
      <trkpt lat="38.059048" lon="-4.819038">
        <ele>502.579</ele>
        <time>2021-10-16T17:18:38Z</time>
      </trkpt>
      <trkpt lat="38.058791" lon="-4.818622">
        <ele>501.976</ele>
        <time>2021-10-16T17:18:40Z</time>
      </trkpt>
      <trkpt lat="38.058667" lon="-4.818424">
        <ele>502.061</ele>
        <time>2021-10-16T17:18:41Z</time>
      </trkpt>
      <trkpt lat="38.058422" lon="-4.818036">
        <ele>502.021</ele>
        <time>2021-10-16T17:18:43Z</time>
      </trkpt>
      <trkpt lat="38.058289" lon="-4.817824">
        <ele>501.813</ele>
        <time>2021-10-16T17:18:44Z</time>
      </trkpt>
      <trkpt lat="38.058037" lon="-4.817422">
        <ele>501.508</ele>
        <time>2021-10-16T17:18:46Z</time>
      </trkpt>
      <trkpt lat="38.057779" lon="-4.817004">
        <ele>502.344</ele>
        <time>2021-10-16T17:18:48Z</time>
      </trkpt>
      <trkpt lat="38.057645" lon="-4.816795">
        <ele>502.172</ele>
        <time>2021-10-16T17:18:49Z</time>
      </trkpt>
      <trkpt lat="38.057504" lon="-4.816579">
        <ele>502.591</ele>
        <time>2021-10-16T17:18:50Z</time>
      </trkpt>
      <trkpt lat="38.057234" lon="-4.816156">
        <ele>502.725</ele>
        <time>2021-10-16T17:18:52Z</time>
      </trkpt>
      <trkpt lat="38.056956" lon="-4.815717">
        <ele>503.830</ele>
        <time>2021-10-16T17:18:54Z</time>
      </trkpt>
      <trkpt lat="38.056818" lon="-4.815499">
        <ele>503.849</ele>
        <time>2021-10-16T17:18:55Z</time>
      </trkpt>
      <trkpt lat="38.056676" lon="-4.815275">
        <ele>503.981</ele>
        <time>2021-10-16T17:18:56Z</time>
      </trkpt>
      <trkpt lat="38.056407" lon="-4.814849">
        <ele>503.638</ele>
        <time>2021-10-16T17:18:58Z</time>
      </trkpt>
      <trkpt lat="38.056267" lon="-4.814627">
        <ele>503.898</ele>
        <time>2021-10-16T17:18:59Z</time>
      </trkpt>
      <trkpt lat="38.056130" lon="-4.814409">
        <ele>504.315</ele>
        <time>2021-10-16T17:19:00Z</time>
      </trkpt>
      <trkpt lat="38.055861" lon="-4.813990">
        <ele>504.226</ele>
        <time>2021-10-16T17:19:02Z</time>
      </trkpt>
      <trkpt lat="38.055624" lon="-4.813615">
        <ele>504.108</ele>
        <time>2021-10-16T17:19:04Z</time>
      </trkpt>
      <trkpt lat="38.055505" lon="-4.813434">
        <ele>504.587</ele>
        <time>2021-10-16T17:19:05Z</time>
      </trkpt>
      <trkpt lat="38.055259" lon="-4.813075">
        <ele>504.995</ele>
        <time>2021-10-16T17:19:07Z</time>
      </trkpt>
      <trkpt lat="38.055122" lon="-4.812882">
        <ele>505.164</ele>
        <time>2021-10-16T17:19:08Z</time>
      </trkpt>
      <trkpt lat="38.054839" lon="-4.812509">
        <ele>505.428</ele>
        <time>2021-10-16T17:19:10Z</time>
      </trkpt>
      <trkpt lat="38.054543" lon="-4.812155">
        <ele>505.253</ele>
        <time>2021-10-16T17:19:12Z</time>
      </trkpt>
      <trkpt lat="38.054396" lon="-4.811983">
        <ele>505.942</ele>
        <time>2021-10-16T17:19:13Z</time>
      </trkpt>
      <trkpt lat="38.054243" lon="-4.811814">
        <ele>506.194</ele>
        <time>2021-10-16T17:19:14Z</time>
      </trkpt>
      <trkpt lat="38.053932" lon="-4.811498">
        <ele>506.361</ele>
        <time>2021-10-16T17:19:16Z</time>
      </trkpt>
      <trkpt lat="38.053764" lon="-4.811335">
        <ele>506.797</ele>
        <time>2021-10-16T17:19:17Z</time>
      </trkpt>
      <trkpt lat="38.053416" lon="-4.811021">
        <ele>506.723</ele>
        <time>2021-10-16T17:19:19Z</time>
      </trkpt>
      <trkpt lat="38.053230" lon="-4.810863">
        <ele>506.825</ele>
        <time>2021-10-16T17:19:20Z</time>
      </trkpt>
      <trkpt lat="38.052857" lon="-4.810577">
        <ele>507.408</ele>
        <time>2021-10-16T17:19:22Z</time>
      </trkpt>
      <trkpt lat="38.052657" lon="-4.810437">
        <ele>507.277</ele>
        <time>2021-10-16T17:19:23Z</time>
      </trkpt>
      <trkpt lat="38.052248" lon="-4.810179">
        <ele>507.035</ele>
        <time>2021-10-16T17:19:25Z</time>
      </trkpt>
      <trkpt lat="38.052035" lon="-4.810055">
        <ele>507.764</ele>
        <time>2021-10-16T17:19:26Z</time>
      </trkpt>
      <trkpt lat="38.051641" lon="-4.809853">
        <ele>507.738</ele>
        <time>2021-10-16T17:19:28Z</time>
      </trkpt>
      <trkpt lat="38.051244" lon="-4.809672">
        <ele>507.553</ele>
        <time>2021-10-16T17:19:30Z</time>
      </trkpt>
      <trkpt lat="38.050823" lon="-4.809517">
        <ele>507.892</ele>
        <time>2021-10-16T17:19:32Z</time>
      </trkpt>
      <trkpt lat="38.050404" lon="-4.809381">
        <ele>508.454</ele>
        <time>2021-10-16T17:19:34Z</time>
      </trkpt>
      <trkpt lat="38.050184" lon="-4.809319">
        <ele>508.331</ele>
        <time>2021-10-16T17:19:35Z</time>
      </trkpt>
      <trkpt lat="38.049732" lon="-4.809212">
        <ele>507.863</ele>
        <time>2021-10-16T17:19:37Z</time>
      </trkpt>
      <trkpt lat="38.049492" lon="-4.809161">
        <ele>508.044</ele>
        <time>2021-10-16T17:19:38Z</time>
      </trkpt>
      <trkpt lat="38.049043" lon="-4.809068">
        <ele>507.518</ele>
        <time>2021-10-16T17:19:40Z</time>
      </trkpt>
      <trkpt lat="38.048822" lon="-4.809029">
        <ele>506.808</ele>
        <time>2021-10-16T17:19:41Z</time>
      </trkpt>
      <trkpt lat="38.048402" lon="-4.808969">
        <ele>506.774</ele>
        <time>2021-10-16T17:19:43Z</time>
      </trkpt>
      <trkpt lat="38.048186" lon="-4.808939">
        <ele>505.912</ele>
        <time>2021-10-16T17:19:44Z</time>
      </trkpt>
      <trkpt lat="38.047761" lon="-4.808874">
        <ele>506.461</ele>
        <time>2021-10-16T17:19:46Z</time>
      </trkpt>
      <trkpt lat="38.047541" lon="-4.808838">
        <ele>506.395</ele>
        <time>2021-10-16T17:19:47Z</time>
      </trkpt>
      <trkpt lat="38.047099" lon="-4.808772">
        <ele>505.130</ele>
        <time>2021-10-16T17:19:49Z</time>
      </trkpt>
      <trkpt lat="38.046866" lon="-4.808739">
        <ele>503.979</ele>
        <time>2021-10-16T17:19:50Z</time>
      </trkpt>
      <trkpt lat="38.046422" lon="-4.808674">
        <ele>503.991</ele>
        <time>2021-10-16T17:19:52Z</time>
      </trkpt>
      <trkpt lat="38.045961" lon="-4.808600">
        <ele>502.218</ele>
        <time>2021-10-16T17:19:54Z</time>
      </trkpt>
      <trkpt lat="38.045485" lon="-4.808521">
        <ele>500.616</ele>
        <time>2021-10-16T17:19:56Z</time>
      </trkpt>
      <trkpt lat="38.045022" lon="-4.808452">
        <ele>498.576</ele>
        <time>2021-10-16T17:19:58Z</time>
      </trkpt>
      <trkpt lat="38.044556" lon="-4.808383">
        <ele>497.413</ele>
        <time>2021-10-16T17:20:00Z</time>
      </trkpt>
      <trkpt lat="38.044326" lon="-4.808350">
        <ele>497.108</ele>
        <time>2021-10-16T17:20:01Z</time>
      </trkpt>
      <trkpt lat="38.044095" lon="-4.808313">
        <ele>496.849</ele>
        <time>2021-10-16T17:20:02Z</time>
      </trkpt>
      <trkpt lat="38.043658" lon="-4.808243">
        <ele>495.587</ele>
        <time>2021-10-16T17:20:04Z</time>
      </trkpt>
      <trkpt lat="38.043216" lon="-4.808166">
        <ele>494.836</ele>
        <time>2021-10-16T17:20:06Z</time>
      </trkpt>
      <trkpt lat="38.042765" lon="-4.808088">
        <ele>492.910</ele>
        <time>2021-10-16T17:20:08Z</time>
      </trkpt>
      <trkpt lat="38.042316" lon="-4.808020">
        <ele>492.145</ele>
        <time>2021-10-16T17:20:10Z</time>
      </trkpt>
      <trkpt lat="38.042084" lon="-4.807984">
        <ele>491.314</ele>
        <time>2021-10-16T17:20:11Z</time>
      </trkpt>
      <trkpt lat="38.041615" lon="-4.807907">
        <ele>489.366</ele>
        <time>2021-10-16T17:20:13Z</time>
      </trkpt>
      <trkpt lat="38.041372" lon="-4.807868">
        <ele>488.453</ele>
        <time>2021-10-16T17:20:14Z</time>
      </trkpt>
      <trkpt lat="38.040893" lon="-4.807801">
        <ele>487.635</ele>
        <time>2021-10-16T17:20:16Z</time>
      </trkpt>
      <trkpt lat="38.040644" lon="-4.807766">
        <ele>487.886</ele>
        <time>2021-10-16T17:20:17Z</time>
      </trkpt>
      <trkpt lat="38.040152" lon="-4.807690">
        <ele>487.314</ele>
        <time>2021-10-16T17:20:19Z</time>
      </trkpt>
      <trkpt lat="38.039903" lon="-4.807650">
        <ele>486.708</ele>
        <time>2021-10-16T17:20:20Z</time>
      </trkpt>
      <trkpt lat="38.039423" lon="-4.807575">
        <ele>485.681</ele>
        <time>2021-10-16T17:20:22Z</time>
      </trkpt>
      <trkpt lat="38.039179" lon="-4.807540">
        <ele>485.619</ele>
        <time>2021-10-16T17:20:23Z</time>
      </trkpt>
      <trkpt lat="38.038940" lon="-4.807504">
        <ele>484.848</ele>
        <time>2021-10-16T17:20:24Z</time>
      </trkpt>
      <trkpt lat="38.038468" lon="-4.807429">
        <ele>484.082</ele>
        <time>2021-10-16T17:20:26Z</time>
      </trkpt>
      <trkpt lat="38.038050" lon="-4.807364">
        <ele>483.827</ele>
        <time>2021-10-16T17:20:28Z</time>
      </trkpt>
      <trkpt lat="38.037658" lon="-4.807303">
        <ele>484.286</ele>
        <time>2021-10-16T17:20:30Z</time>
      </trkpt>
      <trkpt lat="38.037270" lon="-4.807249">
        <ele>484.218</ele>
        <time>2021-10-16T17:20:32Z</time>
      </trkpt>
      <trkpt lat="38.036887" lon="-4.807221">
        <ele>485.225</ele>
        <time>2021-10-16T17:20:34Z</time>
      </trkpt>
      <trkpt lat="38.036692" lon="-4.807219">
        <ele>485.816</ele>
        <time>2021-10-16T17:20:35Z</time>
      </trkpt>
      <trkpt lat="38.036497" lon="-4.807224">
        <ele>486.476</ele>
        <time>2021-10-16T17:20:36Z</time>
      </trkpt>
      <trkpt lat="38.036104" lon="-4.807253">
        <ele>487.713</ele>
        <time>2021-10-16T17:20:38Z</time>
      </trkpt>
      <trkpt lat="38.035720" lon="-4.807310">
        <ele>489.208</ele>
        <time>2021-10-16T17:20:40Z</time>
      </trkpt>
      <trkpt lat="38.035325" lon="-4.807404">
        <ele>490.719</ele>
        <time>2021-10-16T17:20:42Z</time>
      </trkpt>
      <trkpt lat="38.034924" lon="-4.807535">
        <ele>493.027</ele>
        <time>2021-10-16T17:20:44Z</time>
      </trkpt>
      <trkpt lat="38.034534" lon="-4.807691">
        <ele>495.316</ele>
        <time>2021-10-16T17:20:46Z</time>
      </trkpt>
      <trkpt lat="38.034335" lon="-4.807778">
        <ele>495.710</ele>
        <time>2021-10-16T17:20:47Z</time>
      </trkpt>
      <trkpt lat="38.033936" lon="-4.807959">
        <ele>498.525</ele>
        <time>2021-10-16T17:20:49Z</time>
      </trkpt>
      <trkpt lat="38.033727" lon="-4.808058">
        <ele>499.844</ele>
        <time>2021-10-16T17:20:50Z</time>
      </trkpt>
      <trkpt lat="38.033325" lon="-4.808244">
        <ele>502.186</ele>
        <time>2021-10-16T17:20:52Z</time>
      </trkpt>
      <trkpt lat="38.032942" lon="-4.808425">
        <ele>504.163</ele>
        <time>2021-10-16T17:20:54Z</time>
      </trkpt>
      <trkpt lat="38.032584" lon="-4.808590">
        <ele>505.927</ele>
        <time>2021-10-16T17:20:56Z</time>
      </trkpt>
      <trkpt lat="38.032219" lon="-4.808748">
        <ele>509.068</ele>
        <time>2021-10-16T17:20:58Z</time>
      </trkpt>
      <trkpt lat="38.032024" lon="-4.808829">
        <ele>509.614</ele>
        <time>2021-10-16T17:20:59Z</time>
      </trkpt>
      <trkpt lat="38.031628" lon="-4.808999">
        <ele>511.208</ele>
        <time>2021-10-16T17:21:01Z</time>
      </trkpt>
      <trkpt lat="38.031422" lon="-4.809090">
        <ele>511.810</ele>
        <time>2021-10-16T17:21:02Z</time>
      </trkpt>
      <trkpt lat="38.031020" lon="-4.809258">
        <ele>512.918</ele>
        <time>2021-10-16T17:21:04Z</time>
      </trkpt>
      <trkpt lat="38.030599" lon="-4.809417">
        <ele>514.587</ele>
        <time>2021-10-16T17:21:06Z</time>
      </trkpt>
      <trkpt lat="38.030165" lon="-4.809562">
        <ele>515.331</ele>
        <time>2021-10-16T17:21:08Z</time>
      </trkpt>
      <trkpt lat="38.029736" lon="-4.809707">
        <ele>515.246</ele>
        <time>2021-10-16T17:21:10Z</time>
      </trkpt>
      <trkpt lat="38.029513" lon="-4.809778">
        <ele>515.745</ele>
        <time>2021-10-16T17:21:11Z</time>
      </trkpt>
      <trkpt lat="38.029293" lon="-4.809841">
        <ele>516.267</ele>
        <time>2021-10-16T17:21:12Z</time>
      </trkpt>
      <trkpt lat="38.028871" lon="-4.809953">
        <ele>515.564</ele>
        <time>2021-10-16T17:21:14Z</time>
      </trkpt>
      <trkpt lat="38.028496" lon="-4.810043">
        <ele>515.166</ele>
        <time>2021-10-16T17:21:16Z</time>
      </trkpt>
      <trkpt lat="38.028122" lon="-4.810112">
        <ele>514.629</ele>
        <time>2021-10-16T17:21:18Z</time>
      </trkpt>
      <trkpt lat="38.027937" lon="-4.810141">
        <ele>514.321</ele>
        <time>2021-10-16T17:21:19Z</time>
      </trkpt>
      <trkpt lat="38.027751" lon="-4.810167">
        <ele>513.508</ele>
        <time>2021-10-16T17:21:20Z</time>
      </trkpt>
      <trkpt lat="38.027394" lon="-4.810218">
        <ele>513.374</ele>
        <time>2021-10-16T17:21:22Z</time>
      </trkpt>
      <trkpt lat="38.027208" lon="-4.810242">
        <ele>513.292</ele>
        <time>2021-10-16T17:21:23Z</time>
      </trkpt>
      <trkpt lat="38.027022" lon="-4.810261">
        <ele>512.991</ele>
        <time>2021-10-16T17:21:24Z</time>
      </trkpt>
      <trkpt lat="38.026634" lon="-4.810285">
        <ele>511.885</ele>
        <time>2021-10-16T17:21:26Z</time>
      </trkpt>
      <trkpt lat="38.026247" lon="-4.810299">
        <ele>510.630</ele>
        <time>2021-10-16T17:21:28Z</time>
      </trkpt>
      <trkpt lat="38.026043" lon="-4.810305">
        <ele>510.069</ele>
        <time>2021-10-16T17:21:29Z</time>
      </trkpt>
      <trkpt lat="38.025632" lon="-4.810316">
        <ele>507.851</ele>
        <time>2021-10-16T17:21:31Z</time>
      </trkpt>
      <trkpt lat="38.025415" lon="-4.810316">
        <ele>507.398</ele>
        <time>2021-10-16T17:21:32Z</time>
      </trkpt>
      <trkpt lat="38.025001" lon="-4.810303">
        <ele>506.099</ele>
        <time>2021-10-16T17:21:34Z</time>
      </trkpt>
      <trkpt lat="38.024790" lon="-4.810290">
        <ele>505.307</ele>
        <time>2021-10-16T17:21:35Z</time>
      </trkpt>
      <trkpt lat="38.024374" lon="-4.810257">
        <ele>503.727</ele>
        <time>2021-10-16T17:21:37Z</time>
      </trkpt>
      <trkpt lat="38.024161" lon="-4.810234">
        <ele>502.708</ele>
        <time>2021-10-16T17:21:38Z</time>
      </trkpt>
      <trkpt lat="38.023763" lon="-4.810185">
        <ele>501.477</ele>
        <time>2021-10-16T17:21:40Z</time>
      </trkpt>
      <trkpt lat="38.023361" lon="-4.810127">
        <ele>499.555</ele>
        <time>2021-10-16T17:21:42Z</time>
      </trkpt>
      <trkpt lat="38.023158" lon="-4.810091">
        <ele>498.694</ele>
        <time>2021-10-16T17:21:43Z</time>
      </trkpt>
      <trkpt lat="38.022955" lon="-4.810052">
        <ele>497.668</ele>
        <time>2021-10-16T17:21:44Z</time>
      </trkpt>
      <trkpt lat="38.022568" lon="-4.809968">
        <ele>497.013</ele>
        <time>2021-10-16T17:21:46Z</time>
      </trkpt>
      <trkpt lat="38.022370" lon="-4.809921">
        <ele>496.662</ele>
        <time>2021-10-16T17:21:47Z</time>
      </trkpt>
      <trkpt lat="38.021976" lon="-4.809814">
        <ele>494.544</ele>
        <time>2021-10-16T17:21:49Z</time>
      </trkpt>
      <trkpt lat="38.021774" lon="-4.809754">
        <ele>493.731</ele>
        <time>2021-10-16T17:21:50Z</time>
      </trkpt>
      <trkpt lat="38.021387" lon="-4.809635">
        <ele>492.381</ele>
        <time>2021-10-16T17:21:52Z</time>
      </trkpt>
      <trkpt lat="38.021188" lon="-4.809566">
        <ele>491.861</ele>
        <time>2021-10-16T17:21:53Z</time>
      </trkpt>
      <trkpt lat="38.020792" lon="-4.809425">
        <ele>489.617</ele>
        <time>2021-10-16T17:21:55Z</time>
      </trkpt>
      <trkpt lat="38.020585" lon="-4.809350">
        <ele>488.608</ele>
        <time>2021-10-16T17:21:56Z</time>
      </trkpt>
      <trkpt lat="38.020177" lon="-4.809180">
        <ele>487.266</ele>
        <time>2021-10-16T17:21:58Z</time>
      </trkpt>
      <trkpt lat="38.019963" lon="-4.809086">
        <ele>486.264</ele>
        <time>2021-10-16T17:21:59Z</time>
      </trkpt>
      <trkpt lat="38.019528" lon="-4.808886">
        <ele>484.693</ele>
        <time>2021-10-16T17:22:01Z</time>
      </trkpt>
      <trkpt lat="38.019298" lon="-4.808774">
        <ele>484.447</ele>
        <time>2021-10-16T17:22:02Z</time>
      </trkpt>
      <trkpt lat="38.018868" lon="-4.808566">
        <ele>481.862</ele>
        <time>2021-10-16T17:22:04Z</time>
      </trkpt>
      <trkpt lat="38.018429" lon="-4.808348">
        <ele>480.061</ele>
        <time>2021-10-16T17:22:06Z</time>
      </trkpt>
      <trkpt lat="38.018215" lon="-4.808235">
        <ele>478.773</ele>
        <time>2021-10-16T17:22:07Z</time>
      </trkpt>
      <trkpt lat="38.017998" lon="-4.808115">
        <ele>478.120</ele>
        <time>2021-10-16T17:22:08Z</time>
      </trkpt>
      <trkpt lat="38.017581" lon="-4.807884">
        <ele>476.688</ele>
        <time>2021-10-16T17:22:10Z</time>
      </trkpt>
      <trkpt lat="38.017366" lon="-4.807766">
        <ele>476.024</ele>
        <time>2021-10-16T17:22:11Z</time>
      </trkpt>
      <trkpt lat="38.016938" lon="-4.807530">
        <ele>474.226</ele>
        <time>2021-10-16T17:22:13Z</time>
      </trkpt>
      <trkpt lat="38.016719" lon="-4.807410">
        <ele>473.208</ele>
        <time>2021-10-16T17:22:14Z</time>
      </trkpt>
      <trkpt lat="38.016298" lon="-4.807178">
        <ele>470.996</ele>
        <time>2021-10-16T17:22:16Z</time>
      </trkpt>
      <trkpt lat="38.015867" lon="-4.806933">
        <ele>468.424</ele>
        <time>2021-10-16T17:22:18Z</time>
      </trkpt>
      <trkpt lat="38.015408" lon="-4.806669">
        <ele>466.723</ele>
        <time>2021-10-16T17:22:20Z</time>
      </trkpt>
      <trkpt lat="38.014939" lon="-4.806405">
        <ele>465.617</ele>
        <time>2021-10-16T17:22:22Z</time>
      </trkpt>
      <trkpt lat="38.014449" lon="-4.806141">
        <ele>464.122</ele>
        <time>2021-10-16T17:22:24Z</time>
      </trkpt>
      <trkpt lat="38.013974" lon="-4.805866">
        <ele>462.591</ele>
        <time>2021-10-16T17:22:26Z</time>
      </trkpt>
      <trkpt lat="38.013545" lon="-4.805635">
        <ele>460.643</ele>
        <time>2021-10-16T17:22:28Z</time>
      </trkpt>
      <trkpt lat="38.013339" lon="-4.805514">
        <ele>459.760</ele>
        <time>2021-10-16T17:22:29Z</time>
      </trkpt>
      <trkpt lat="38.013135" lon="-4.805408">
        <ele>459.283</ele>
        <time>2021-10-16T17:22:30Z</time>
      </trkpt>
      <trkpt lat="38.012716" lon="-4.805170">
        <ele>456.725</ele>
        <time>2021-10-16T17:22:32Z</time>
      </trkpt>
      <trkpt lat="38.012289" lon="-4.804940">
        <ele>456.317</ele>
        <time>2021-10-16T17:22:34Z</time>
      </trkpt>
      <trkpt lat="38.011864" lon="-4.804701">
        <ele>454.208</ele>
        <time>2021-10-16T17:22:36Z</time>
      </trkpt>
      <trkpt lat="38.011445" lon="-4.804465">
        <ele>452.776</ele>
        <time>2021-10-16T17:22:38Z</time>
      </trkpt>
      <trkpt lat="38.011031" lon="-4.804233">
        <ele>451.364</ele>
        <time>2021-10-16T17:22:40Z</time>
      </trkpt>
      <trkpt lat="38.010815" lon="-4.804111">
        <ele>450.023</ele>
        <time>2021-10-16T17:22:41Z</time>
      </trkpt>
      <trkpt lat="38.010371" lon="-4.803863">
        <ele>447.397</ele>
        <time>2021-10-16T17:22:43Z</time>
      </trkpt>
      <trkpt lat="38.010138" lon="-4.803734">
        <ele>447.112</ele>
        <time>2021-10-16T17:22:44Z</time>
      </trkpt>
      <trkpt lat="38.009690" lon="-4.803489">
        <ele>444.621</ele>
        <time>2021-10-16T17:22:46Z</time>
      </trkpt>
      <trkpt lat="38.009234" lon="-4.803237">
        <ele>444.783</ele>
        <time>2021-10-16T17:22:48Z</time>
      </trkpt>
      <trkpt lat="38.009011" lon="-4.803109">
        <ele>444.070</ele>
        <time>2021-10-16T17:22:49Z</time>
      </trkpt>
      <trkpt lat="38.008784" lon="-4.802979">
        <ele>442.864</ele>
        <time>2021-10-16T17:22:50Z</time>
      </trkpt>
      <trkpt lat="38.008349" lon="-4.802735">
        <ele>440.206</ele>
        <time>2021-10-16T17:22:52Z</time>
      </trkpt>
      <trkpt lat="38.007921" lon="-4.802499">
        <ele>439.016</ele>
        <time>2021-10-16T17:22:54Z</time>
      </trkpt>
      <trkpt lat="38.007515" lon="-4.802274">
        <ele>437.308</ele>
        <time>2021-10-16T17:22:56Z</time>
      </trkpt>
      <trkpt lat="38.007132" lon="-4.802054">
        <ele>435.724</ele>
        <time>2021-10-16T17:22:58Z</time>
      </trkpt>
      <trkpt lat="38.006935" lon="-4.801940">
        <ele>434.792</ele>
        <time>2021-10-16T17:22:59Z</time>
      </trkpt>
      <trkpt lat="38.006522" lon="-4.801711">
        <ele>432.251</ele>
        <time>2021-10-16T17:23:01Z</time>
      </trkpt>
      <trkpt lat="38.006311" lon="-4.801590">
        <ele>431.265</ele>
        <time>2021-10-16T17:23:02Z</time>
      </trkpt>
      <trkpt lat="38.005884" lon="-4.801356">
        <ele>429.320</ele>
        <time>2021-10-16T17:23:04Z</time>
      </trkpt>
      <trkpt lat="38.005452" lon="-4.801117">
        <ele>427.479</ele>
        <time>2021-10-16T17:23:06Z</time>
      </trkpt>
      <trkpt lat="38.005239" lon="-4.800995">
        <ele>426.111</ele>
        <time>2021-10-16T17:23:07Z</time>
      </trkpt>
      <trkpt lat="38.005021" lon="-4.800870">
        <ele>424.928</ele>
        <time>2021-10-16T17:23:08Z</time>
      </trkpt>
      <trkpt lat="38.004622" lon="-4.800648">
        <ele>423.037</ele>
        <time>2021-10-16T17:23:10Z</time>
      </trkpt>
      <trkpt lat="38.004426" lon="-4.800539">
        <ele>422.349</ele>
        <time>2021-10-16T17:23:11Z</time>
      </trkpt>
      <trkpt lat="38.004048" lon="-4.800328">
        <ele>421.913</ele>
        <time>2021-10-16T17:23:13Z</time>
      </trkpt>
      <trkpt lat="38.003851" lon="-4.800214">
        <ele>421.608</ele>
        <time>2021-10-16T17:23:14Z</time>
      </trkpt>
      <trkpt lat="38.003458" lon="-4.799986">
        <ele>420.891</ele>
        <time>2021-10-16T17:23:16Z</time>
      </trkpt>
      <trkpt lat="38.003252" lon="-4.799867">
        <ele>420.839</ele>
        <time>2021-10-16T17:23:17Z</time>
      </trkpt>
      <trkpt lat="38.002831" lon="-4.799626">
        <ele>420.958</ele>
        <time>2021-10-16T17:23:19Z</time>
      </trkpt>
      <trkpt lat="38.002611" lon="-4.799500">
        <ele>421.152</ele>
        <time>2021-10-16T17:23:20Z</time>
      </trkpt>
      <trkpt lat="38.002182" lon="-4.799263">
        <ele>422.917</ele>
        <time>2021-10-16T17:23:22Z</time>
      </trkpt>
      <trkpt lat="38.001958" lon="-4.799142">
        <ele>423.436</ele>
        <time>2021-10-16T17:23:23Z</time>
      </trkpt>
      <trkpt lat="38.001731" lon="-4.799019">
        <ele>424.478</ele>
        <time>2021-10-16T17:23:24Z</time>
      </trkpt>
      <trkpt lat="38.001504" lon="-4.798893">
        <ele>425.535</ele>
        <time>2021-10-16T17:23:25Z</time>
      </trkpt>
      <trkpt lat="38.001271" lon="-4.798758">
        <ele>426.362</ele>
        <time>2021-10-16T17:23:26Z</time>
      </trkpt>
      <trkpt lat="38.000820" lon="-4.798508">
        <ele>428.983</ele>
        <time>2021-10-16T17:23:28Z</time>
      </trkpt>
      <trkpt lat="38.000357" lon="-4.798252">
        <ele>432.011</ele>
        <time>2021-10-16T17:23:30Z</time>
      </trkpt>
      <trkpt lat="37.999895" lon="-4.797974">
        <ele>435.408</ele>
        <time>2021-10-16T17:23:32Z</time>
      </trkpt>
      <trkpt lat="37.999445" lon="-4.797679">
        <ele>439.034</ele>
        <time>2021-10-16T17:23:34Z</time>
      </trkpt>
      <trkpt lat="37.999001" lon="-4.797351">
        <ele>442.232</ele>
        <time>2021-10-16T17:23:36Z</time>
      </trkpt>
      <trkpt lat="37.998789" lon="-4.797177">
        <ele>443.931</ele>
        <time>2021-10-16T17:23:37Z</time>
      </trkpt>
      <trkpt lat="37.998581" lon="-4.796999">
        <ele>445.955</ele>
        <time>2021-10-16T17:23:38Z</time>
      </trkpt>
      <trkpt lat="37.998218" lon="-4.796654">
        <ele>448.740</ele>
        <time>2021-10-16T17:23:40Z</time>
      </trkpt>
      <trkpt lat="37.997859" lon="-4.796268">
        <ele>451.439</ele>
        <time>2021-10-16T17:23:42Z</time>
      </trkpt>
      <trkpt lat="37.997671" lon="-4.796052">
        <ele>453.121</ele>
        <time>2021-10-16T17:23:43Z</time>
      </trkpt>
      <trkpt lat="37.997474" lon="-4.795810">
        <ele>455.538</ele>
        <time>2021-10-16T17:23:44Z</time>
      </trkpt>
      <trkpt lat="37.997085" lon="-4.795305">
        <ele>459.042</ele>
        <time>2021-10-16T17:23:46Z</time>
      </trkpt>
      <trkpt lat="37.996881" lon="-4.795016">
        <ele>460.722</ele>
        <time>2021-10-16T17:23:47Z</time>
      </trkpt>
      <trkpt lat="37.996685" lon="-4.794719">
        <ele>462.914</ele>
        <time>2021-10-16T17:23:48Z</time>
      </trkpt>
      <trkpt lat="37.996354" lon="-4.794168">
        <ele>466.408</ele>
        <time>2021-10-16T17:23:50Z</time>
      </trkpt>
      <trkpt lat="37.996097" lon="-4.793662">
        <ele>468.992</ele>
        <time>2021-10-16T17:23:52Z</time>
      </trkpt>
      <trkpt lat="37.995974" lon="-4.793393">
        <ele>470.950</ele>
        <time>2021-10-16T17:23:53Z</time>
      </trkpt>
      <trkpt lat="37.995853" lon="-4.793117">
        <ele>473.079</ele>
        <time>2021-10-16T17:23:54Z</time>
      </trkpt>
      <trkpt lat="37.995624" lon="-4.792551">
        <ele>476.043</ele>
        <time>2021-10-16T17:23:56Z</time>
      </trkpt>
      <trkpt lat="37.995422" lon="-4.791984">
        <ele>479.098</ele>
        <time>2021-10-16T17:23:58Z</time>
      </trkpt>
      <trkpt lat="37.995314" lon="-4.791676">
        <ele>480.857</ele>
        <time>2021-10-16T17:23:59Z</time>
      </trkpt>
      <trkpt lat="37.995082" lon="-4.791027">
        <ele>485.299</ele>
        <time>2021-10-16T17:24:01Z</time>
      </trkpt>
      <trkpt lat="37.994951" lon="-4.790670">
        <ele>487.416</ele>
        <time>2021-10-16T17:24:02Z</time>
      </trkpt>
      <trkpt lat="37.994675" lon="-4.789985">
        <ele>491.215</ele>
        <time>2021-10-16T17:24:04Z</time>
      </trkpt>
      <trkpt lat="37.994530" lon="-4.789643">
        <ele>493.365</ele>
        <time>2021-10-16T17:24:05Z</time>
      </trkpt>
      <trkpt lat="37.994377" lon="-4.789307">
        <ele>494.911</ele>
        <time>2021-10-16T17:24:06Z</time>
      </trkpt>
      <trkpt lat="37.994038" lon="-4.788627">
        <ele>497.808</ele>
        <time>2021-10-16T17:24:08Z</time>
      </trkpt>
      <trkpt lat="37.993642" lon="-4.787978">
        <ele>501.969</ele>
        <time>2021-10-16T17:24:10Z</time>
      </trkpt>
      <trkpt lat="37.993207" lon="-4.787422">
        <ele>506.687</ele>
        <time>2021-10-16T17:24:12Z</time>
      </trkpt>
      <trkpt lat="37.992993" lon="-4.787190">
        <ele>508.236</ele>
        <time>2021-10-16T17:24:13Z</time>
      </trkpt>
      <trkpt lat="37.992769" lon="-4.786973">
        <ele>509.380</ele>
        <time>2021-10-16T17:24:14Z</time>
      </trkpt>
      <trkpt lat="37.992308" lon="-4.786606">
        <ele>511.185</ele>
        <time>2021-10-16T17:24:16Z</time>
      </trkpt>
      <trkpt lat="37.992062" lon="-4.786435">
        <ele>511.624</ele>
        <time>2021-10-16T17:24:17Z</time>
      </trkpt>
      <trkpt lat="37.991554" lon="-4.786147">
        <ele>512.926</ele>
        <time>2021-10-16T17:24:19Z</time>
      </trkpt>
      <trkpt lat="37.991280" lon="-4.786021">
        <ele>512.983</ele>
        <time>2021-10-16T17:24:20Z</time>
      </trkpt>
      <trkpt lat="37.990749" lon="-4.785838">
        <ele>514.055</ele>
        <time>2021-10-16T17:24:22Z</time>
      </trkpt>
      <trkpt lat="37.990201" lon="-4.785733">
        <ele>513.707</ele>
        <time>2021-10-16T17:24:24Z</time>
      </trkpt>
      <trkpt lat="37.989667" lon="-4.785691">
        <ele>513.417</ele>
        <time>2021-10-16T17:24:26Z</time>
      </trkpt>
      <trkpt lat="37.989163" lon="-4.785711">
        <ele>511.508</ele>
        <time>2021-10-16T17:24:28Z</time>
      </trkpt>
      <trkpt lat="37.988653" lon="-4.785795">
        <ele>510.473</ele>
        <time>2021-10-16T17:24:30Z</time>
      </trkpt>
      <trkpt lat="37.988407" lon="-4.785860">
        <ele>509.821</ele>
        <time>2021-10-16T17:24:31Z</time>
      </trkpt>
      <trkpt lat="37.988167" lon="-4.785934">
        <ele>509.160</ele>
        <time>2021-10-16T17:24:32Z</time>
      </trkpt>
      <trkpt lat="37.987735" lon="-4.786097">
        <ele>506.034</ele>
        <time>2021-10-16T17:24:34Z</time>
      </trkpt>
      <trkpt lat="37.987526" lon="-4.786183">
        <ele>505.119</ele>
        <time>2021-10-16T17:24:35Z</time>
      </trkpt>
      <trkpt lat="37.987128" lon="-4.786354">
        <ele>502.888</ele>
        <time>2021-10-16T17:24:37Z</time>
      </trkpt>
      <trkpt lat="37.986929" lon="-4.786449">
        <ele>501.630</ele>
        <time>2021-10-16T17:24:38Z</time>
      </trkpt>
      <trkpt lat="37.986550" lon="-4.786646">
        <ele>499.347</ele>
        <time>2021-10-16T17:24:40Z</time>
      </trkpt>
      <trkpt lat="37.986353" lon="-4.786746">
        <ele>498.227</ele>
        <time>2021-10-16T17:24:41Z</time>
      </trkpt>
      <trkpt lat="37.985955" lon="-4.786945">
        <ele>495.368</ele>
        <time>2021-10-16T17:24:43Z</time>
      </trkpt>
      <trkpt lat="37.985752" lon="-4.787044">
        <ele>493.614</ele>
        <time>2021-10-16T17:24:44Z</time>
      </trkpt>
      <trkpt lat="37.985377" lon="-4.787220">
        <ele>490.408</ele>
        <time>2021-10-16T17:24:46Z</time>
      </trkpt>
      <trkpt lat="37.985006" lon="-4.787376">
        <ele>488.510</ele>
        <time>2021-10-16T17:24:48Z</time>
      </trkpt>
      <trkpt lat="37.984638" lon="-4.787495">
        <ele>485.378</ele>
        <time>2021-10-16T17:24:50Z</time>
      </trkpt>
      <trkpt lat="37.984312" lon="-4.787557">
        <ele>484.347</ele>
        <time>2021-10-16T17:24:52Z</time>
      </trkpt>
      <trkpt lat="37.984158" lon="-4.787569">
        <ele>483.431</ele>
        <time>2021-10-16T17:24:53Z</time>
      </trkpt>
      <trkpt lat="37.984007" lon="-4.787567">
        <ele>482.386</ele>
        <time>2021-10-16T17:24:54Z</time>
      </trkpt>
      <trkpt lat="37.983858" lon="-4.787552">
        <ele>481.295</ele>
        <time>2021-10-16T17:24:55Z</time>
      </trkpt>
      <trkpt lat="37.983704" lon="-4.787527">
        <ele>479.667</ele>
        <time>2021-10-16T17:24:56Z</time>
      </trkpt>
      <trkpt lat="37.983416" lon="-4.787447">
        <ele>477.164</ele>
        <time>2021-10-16T17:24:58Z</time>
      </trkpt>
      <trkpt lat="37.983269" lon="-4.787392">
        <ele>476.188</ele>
        <time>2021-10-16T17:24:59Z</time>
      </trkpt>
      <trkpt lat="37.982969" lon="-4.787248">
        <ele>474.024</ele>
        <time>2021-10-16T17:25:01Z</time>
      </trkpt>
      <trkpt lat="37.982816" lon="-4.787154">
        <ele>473.026</ele>
        <time>2021-10-16T17:25:02Z</time>
      </trkpt>
      <trkpt lat="37.982524" lon="-4.786925">
        <ele>470.808</ele>
        <time>2021-10-16T17:25:04Z</time>
      </trkpt>
      <trkpt lat="37.982379" lon="-4.786786">
        <ele>470.186</ele>
        <time>2021-10-16T17:25:05Z</time>
      </trkpt>
      <trkpt lat="37.982241" lon="-4.786634">
        <ele>469.564</ele>
        <time>2021-10-16T17:25:06Z</time>
      </trkpt>
      <trkpt lat="37.982109" lon="-4.786470">
        <ele>468.113</ele>
        <time>2021-10-16T17:25:07Z</time>
      </trkpt>
      <trkpt lat="37.981986" lon="-4.786295">
        <ele>467.047</ele>
        <time>2021-10-16T17:25:08Z</time>
      </trkpt>
      <trkpt lat="37.981782" lon="-4.785939">
        <ele>464.372</ele>
        <time>2021-10-16T17:25:10Z</time>
      </trkpt>
      <trkpt lat="37.981694" lon="-4.785746">
        <ele>463.341</ele>
        <time>2021-10-16T17:25:11Z</time>
      </trkpt>
      <trkpt lat="37.981546" lon="-4.785356">
        <ele>460.333</ele>
        <time>2021-10-16T17:25:13Z</time>
      </trkpt>
      <trkpt lat="37.981469" lon="-4.785147">
        <ele>460.070</ele>
        <time>2021-10-16T17:25:14Z</time>
      </trkpt>
      <trkpt lat="37.981323" lon="-4.784724">
        <ele>458.027</ele>
        <time>2021-10-16T17:25:16Z</time>
      </trkpt>
      <trkpt lat="37.981195" lon="-4.784267">
        <ele>455.768</ele>
        <time>2021-10-16T17:25:18Z</time>
      </trkpt>
      <trkpt lat="37.981070" lon="-4.783790">
        <ele>453.314</ele>
        <time>2021-10-16T17:25:20Z</time>
      </trkpt>
      <trkpt lat="37.980939" lon="-4.783317">
        <ele>449.608</ele>
        <time>2021-10-16T17:25:22Z</time>
      </trkpt>
      <trkpt lat="37.980801" lon="-4.782824">
        <ele>447.590</ele>
        <time>2021-10-16T17:25:24Z</time>
      </trkpt>
      <trkpt lat="37.980671" lon="-4.782329">
        <ele>444.188</ele>
        <time>2021-10-16T17:25:26Z</time>
      </trkpt>
      <trkpt lat="37.980552" lon="-4.781874">
        <ele>440.947</ele>
        <time>2021-10-16T17:25:28Z</time>
      </trkpt>
      <trkpt lat="37.980492" lon="-4.781649">
        <ele>439.721</ele>
        <time>2021-10-16T17:25:29Z</time>
      </trkpt>
      <trkpt lat="37.980373" lon="-4.781211">
        <ele>437.316</ele>
        <time>2021-10-16T17:25:31Z</time>
      </trkpt>
      <trkpt lat="37.980313" lon="-4.780990">
        <ele>436.525</ele>
        <time>2021-10-16T17:25:32Z</time>
      </trkpt>
      <trkpt lat="37.980201" lon="-4.780573">
        <ele>434.077</ele>
        <time>2021-10-16T17:25:34Z</time>
      </trkpt>
      <trkpt lat="37.980084" lon="-4.780153">
        <ele>432.394</ele>
        <time>2021-10-16T17:25:36Z</time>
      </trkpt>
      <trkpt lat="37.980026" lon="-4.779947">
        <ele>431.343</ele>
        <time>2021-10-16T17:25:37Z</time>
      </trkpt>
      <trkpt lat="37.979968" lon="-4.779738">
        <ele>430.164</ele>
        <time>2021-10-16T17:25:38Z</time>
      </trkpt>
      <trkpt lat="37.979861" lon="-4.779351">
        <ele>427.310</ele>
        <time>2021-10-16T17:25:40Z</time>
      </trkpt>
      <trkpt lat="37.979809" lon="-4.779155">
        <ele>425.908</ele>
        <time>2021-10-16T17:25:41Z</time>
      </trkpt>
      <trkpt lat="37.979757" lon="-4.778960">
        <ele>424.842</ele>
        <time>2021-10-16T17:25:42Z</time>
      </trkpt>
      <trkpt lat="37.979644" lon="-4.778563">
        <ele>422.530</ele>
        <time>2021-10-16T17:25:44Z</time>
      </trkpt>
      <trkpt lat="37.979531" lon="-4.778148">
        <ele>420.419</ele>
        <time>2021-10-16T17:25:46Z</time>
      </trkpt>
      <trkpt lat="37.979475" lon="-4.777933">
        <ele>418.923</ele>
        <time>2021-10-16T17:25:47Z</time>
      </trkpt>
      <trkpt lat="37.979418" lon="-4.777714">
        <ele>417.438</ele>
        <time>2021-10-16T17:25:48Z</time>
      </trkpt>
      <trkpt lat="37.979360" lon="-4.777499">
        <ele>416.827</ele>
        <time>2021-10-16T17:25:49Z</time>
      </trkpt>
      <trkpt lat="37.979301" lon="-4.777286">
        <ele>415.819</ele>
        <time>2021-10-16T17:25:50Z</time>
      </trkpt>
      <trkpt lat="37.979192" lon="-4.776885">
        <ele>414.026</ele>
        <time>2021-10-16T17:25:52Z</time>
      </trkpt>
      <trkpt lat="37.979137" lon="-4.776682">
        <ele>412.634</ele>
        <time>2021-10-16T17:25:53Z</time>
      </trkpt>
      <trkpt lat="37.979085" lon="-4.776481">
        <ele>411.855</ele>
        <time>2021-10-16T17:25:54Z</time>
      </trkpt>
      <trkpt lat="37.978981" lon="-4.776086">
        <ele>409.410</ele>
        <time>2021-10-16T17:25:56Z</time>
      </trkpt>
      <trkpt lat="37.978875" lon="-4.775715">
        <ele>407.208</ele>
        <time>2021-10-16T17:25:58Z</time>
      </trkpt>
      <trkpt lat="37.978776" lon="-4.775349">
        <ele>404.431</ele>
        <time>2021-10-16T17:26:00Z</time>
      </trkpt>
      <trkpt lat="37.978728" lon="-4.775165">
        <ele>403.089</ele>
        <time>2021-10-16T17:26:01Z</time>
      </trkpt>
      <trkpt lat="37.978674" lon="-4.774980">
        <ele>402.148</ele>
        <time>2021-10-16T17:26:02Z</time>
      </trkpt>
      <trkpt lat="37.978554" lon="-4.774622">
        <ele>399.652</ele>
        <time>2021-10-16T17:26:04Z</time>
      </trkpt>
      <trkpt lat="37.978407" lon="-4.774244">
        <ele>397.337</ele>
        <time>2021-10-16T17:26:06Z</time>
      </trkpt>
      <trkpt lat="37.978218" lon="-4.773860">
        <ele>395.176</ele>
        <time>2021-10-16T17:26:08Z</time>
      </trkpt>
      <trkpt lat="37.977993" lon="-4.773503">
        <ele>393.448</ele>
        <time>2021-10-16T17:26:10Z</time>
      </trkpt>
      <trkpt lat="37.977866" lon="-4.773327">
        <ele>392.095</ele>
        <time>2021-10-16T17:26:11Z</time>
      </trkpt>
      <trkpt lat="37.977732" lon="-4.773152">
        <ele>390.742</ele>
        <time>2021-10-16T17:26:12Z</time>
      </trkpt>
      <trkpt lat="37.977445" lon="-4.772831">
        <ele>387.722</ele>
        <time>2021-10-16T17:26:14Z</time>
      </trkpt>
      <trkpt lat="37.977139" lon="-4.772564">
        <ele>384.914</ele>
        <time>2021-10-16T17:26:16Z</time>
      </trkpt>
      <trkpt lat="37.976968" lon="-4.772444">
        <ele>383.508</ele>
        <time>2021-10-16T17:26:17Z</time>
      </trkpt>
      <trkpt lat="37.976791" lon="-4.772328">
        <ele>382.022</ele>
        <time>2021-10-16T17:26:18Z</time>
      </trkpt>
      <trkpt lat="37.976429" lon="-4.772097">
        <ele>379.140</ele>
        <time>2021-10-16T17:26:20Z</time>
      </trkpt>
      <trkpt lat="37.976077" lon="-4.771886">
        <ele>376.419</ele>
        <time>2021-10-16T17:26:22Z</time>
      </trkpt>
      <trkpt lat="37.975894" lon="-4.771776">
        <ele>374.823</ele>
        <time>2021-10-16T17:26:23Z</time>
      </trkpt>
      <trkpt lat="37.975713" lon="-4.771662">
        <ele>374.188</ele>
        <time>2021-10-16T17:26:24Z</time>
      </trkpt>
      <trkpt lat="37.975352" lon="-4.771443">
        <ele>370.917</ele>
        <time>2021-10-16T17:26:26Z</time>
      </trkpt>
      <trkpt lat="37.975010" lon="-4.771237">
        <ele>369.889</ele>
        <time>2021-10-16T17:26:28Z</time>
      </trkpt>
      <trkpt lat="37.974674" lon="-4.771034">
        <ele>367.966</ele>
        <time>2021-10-16T17:26:30Z</time>
      </trkpt>
      <trkpt lat="37.974335" lon="-4.770827">
        <ele>365.499</ele>
        <time>2021-10-16T17:26:32Z</time>
      </trkpt>
      <trkpt lat="37.973995" lon="-4.770617">
        <ele>362.907</ele>
        <time>2021-10-16T17:26:34Z</time>
      </trkpt>
      <trkpt lat="37.973637" lon="-4.770415">
        <ele>360.627</ele>
        <time>2021-10-16T17:26:36Z</time>
      </trkpt>
      <trkpt lat="37.973453" lon="-4.770312">
        <ele>359.608</ele>
        <time>2021-10-16T17:26:37Z</time>
      </trkpt>
      <trkpt lat="37.973262" lon="-4.770206">
        <ele>358.717</ele>
        <time>2021-10-16T17:26:38Z</time>
      </trkpt>
      <trkpt lat="37.972887" lon="-4.770009">
        <ele>355.795</ele>
        <time>2021-10-16T17:26:40Z</time>
      </trkpt>
      <trkpt lat="37.972693" lon="-4.769920">
        <ele>354.884</ele>
        <time>2021-10-16T17:26:41Z</time>
      </trkpt>
      <trkpt lat="37.972500" lon="-4.769837">
        <ele>354.098</ele>
        <time>2021-10-16T17:26:42Z</time>
      </trkpt>
      <trkpt lat="37.972106" lon="-4.769688">
        <ele>350.873</ele>
        <time>2021-10-16T17:26:44Z</time>
      </trkpt>
      <trkpt lat="37.971707" lon="-4.769565">
        <ele>347.962</ele>
        <time>2021-10-16T17:26:46Z</time>
      </trkpt>
      <trkpt lat="37.971293" lon="-4.769454">
        <ele>345.744</ele>
        <time>2021-10-16T17:26:48Z</time>
      </trkpt>
      <trkpt lat="37.970875" lon="-4.769351">
        <ele>342.271</ele>
        <time>2021-10-16T17:26:50Z</time>
      </trkpt>
      <trkpt lat="37.970467" lon="-4.769249">
        <ele>338.872</ele>
        <time>2021-10-16T17:26:52Z</time>
      </trkpt>
      <trkpt lat="37.970259" lon="-4.769200">
        <ele>337.213</ele>
        <time>2021-10-16T17:26:53Z</time>
      </trkpt>
      <trkpt lat="37.969846" lon="-4.769106">
        <ele>334.914</ele>
        <time>2021-10-16T17:26:55Z</time>
      </trkpt>
      <trkpt lat="37.969634" lon="-4.769055">
        <ele>333.208</ele>
        <time>2021-10-16T17:26:56Z</time>
      </trkpt>
      <trkpt lat="37.969227" lon="-4.768956">
        <ele>330.495</ele>
        <time>2021-10-16T17:26:58Z</time>
      </trkpt>
      <trkpt lat="37.968809" lon="-4.768851">
        <ele>328.593</ele>
        <time>2021-10-16T17:27:00Z</time>
      </trkpt>
      <trkpt lat="37.968596" lon="-4.768794">
        <ele>327.112</ele>
        <time>2021-10-16T17:27:01Z</time>
      </trkpt>
      <trkpt lat="37.968377" lon="-4.768736">
        <ele>326.166</ele>
        <time>2021-10-16T17:27:02Z</time>
      </trkpt>
      <trkpt lat="37.967972" lon="-4.768637">
        <ele>323.571</ele>
        <time>2021-10-16T17:27:04Z</time>
      </trkpt>
      <trkpt lat="37.967770" lon="-4.768589">
        <ele>322.230</ele>
        <time>2021-10-16T17:27:05Z</time>
      </trkpt>
      <trkpt lat="37.967367" lon="-4.768493">
        <ele>318.932</ele>
        <time>2021-10-16T17:27:07Z</time>
      </trkpt>
      <trkpt lat="37.967163" lon="-4.768445">
        <ele>317.889</ele>
        <time>2021-10-16T17:27:08Z</time>
      </trkpt>
      <trkpt lat="37.966781" lon="-4.768356">
        <ele>315.346</ele>
        <time>2021-10-16T17:27:10Z</time>
      </trkpt>
      <trkpt lat="37.966583" lon="-4.768309">
        <ele>314.488</ele>
        <time>2021-10-16T17:27:11Z</time>
      </trkpt>
      <trkpt lat="37.966183" lon="-4.768213">
        <ele>311.716</ele>
        <time>2021-10-16T17:27:13Z</time>
      </trkpt>
      <trkpt lat="37.965976" lon="-4.768163">
        <ele>310.408</ele>
        <time>2021-10-16T17:27:14Z</time>
      </trkpt>
      <trkpt lat="37.965577" lon="-4.768061">
        <ele>308.972</ele>
        <time>2021-10-16T17:27:16Z</time>
      </trkpt>
      <trkpt lat="37.965366" lon="-4.768009">
        <ele>308.020</ele>
        <time>2021-10-16T17:27:17Z</time>
      </trkpt>
      <trkpt lat="37.964948" lon="-4.767914">
        <ele>306.559</ele>
        <time>2021-10-16T17:27:19Z</time>
      </trkpt>
      <trkpt lat="37.964732" lon="-4.767870">
        <ele>305.293</ele>
        <time>2021-10-16T17:27:20Z</time>
      </trkpt>
      <trkpt lat="37.964315" lon="-4.767784">
        <ele>304.228</ele>
        <time>2021-10-16T17:27:22Z</time>
      </trkpt>
      <trkpt lat="37.963890" lon="-4.767695">
        <ele>301.837</ele>
        <time>2021-10-16T17:27:24Z</time>
      </trkpt>
      <trkpt lat="37.963453" lon="-4.767594">
        <ele>299.489</ele>
        <time>2021-10-16T17:27:26Z</time>
      </trkpt>
      <trkpt lat="37.963030" lon="-4.767494">
        <ele>296.776</ele>
        <time>2021-10-16T17:27:28Z</time>
      </trkpt>
      <trkpt lat="37.962812" lon="-4.767444">
        <ele>295.686</ele>
        <time>2021-10-16T17:27:29Z</time>
      </trkpt>
      <trkpt lat="37.962597" lon="-4.767399">
        <ele>294.160</ele>
        <time>2021-10-16T17:27:30Z</time>
      </trkpt>
      <trkpt lat="37.962161" lon="-4.767310">
        <ele>292.226</ele>
        <time>2021-10-16T17:27:32Z</time>
      </trkpt>
      <trkpt lat="37.961733" lon="-4.767218">
        <ele>287.908</ele>
        <time>2021-10-16T17:27:34Z</time>
      </trkpt>
      <trkpt lat="37.961514" lon="-4.767167">
        <ele>286.426</ele>
        <time>2021-10-16T17:27:35Z</time>
      </trkpt>
      <trkpt lat="37.961299" lon="-4.767120">
        <ele>285.894</ele>
        <time>2021-10-16T17:27:36Z</time>
      </trkpt>
      <trkpt lat="37.960880" lon="-4.767028">
        <ele>283.013</ele>
        <time>2021-10-16T17:27:38Z</time>
      </trkpt>
      <trkpt lat="37.960494" lon="-4.766943">
        <ele>280.427</ele>
        <time>2021-10-16T17:27:40Z</time>
      </trkpt>
      <trkpt lat="37.960115" lon="-4.766866">
        <ele>276.532</ele>
        <time>2021-10-16T17:27:42Z</time>
      </trkpt>
      <trkpt lat="37.959752" lon="-4.766793">
        <ele>275.031</ele>
        <time>2021-10-16T17:27:44Z</time>
      </trkpt>
      <trkpt lat="37.959407" lon="-4.766723">
        <ele>272.783</ele>
        <time>2021-10-16T17:27:46Z</time>
      </trkpt>
      <trkpt lat="37.959072" lon="-4.766649">
        <ele>271.490</ele>
        <time>2021-10-16T17:27:48Z</time>
      </trkpt>
      <trkpt lat="37.958910" lon="-4.766614">
        <ele>270.578</ele>
        <time>2021-10-16T17:27:49Z</time>
      </trkpt>
      <trkpt lat="37.958746" lon="-4.766578">
        <ele>268.733</ele>
        <time>2021-10-16T17:27:50Z</time>
      </trkpt>
      <trkpt lat="37.958438" lon="-4.766512">
        <ele>266.726</ele>
        <time>2021-10-16T17:27:52Z</time>
      </trkpt>
      <trkpt lat="37.958120" lon="-4.766443">
        <ele>264.408</ele>
        <time>2021-10-16T17:27:54Z</time>
      </trkpt>
      <trkpt lat="37.957956" lon="-4.766407">
        <ele>263.345</ele>
        <time>2021-10-16T17:27:55Z</time>
      </trkpt>
      <trkpt lat="37.957786" lon="-4.766371">
        <ele>261.983</ele>
        <time>2021-10-16T17:27:56Z</time>
      </trkpt>
      <trkpt lat="37.957451" lon="-4.766297">
        <ele>259.672</ele>
        <time>2021-10-16T17:27:58Z</time>
      </trkpt>
      <trkpt lat="37.957276" lon="-4.766255">
        <ele>258.046</ele>
        <time>2021-10-16T17:27:59Z</time>
      </trkpt>
      <trkpt lat="37.956914" lon="-4.766175">
        <ele>255.971</ele>
        <time>2021-10-16T17:28:01Z</time>
      </trkpt>
      <trkpt lat="37.956721" lon="-4.766133">
        <ele>255.090</ele>
        <time>2021-10-16T17:28:02Z</time>
      </trkpt>
      <trkpt lat="37.956327" lon="-4.766051">
        <ele>252.952</ele>
        <time>2021-10-16T17:28:04Z</time>
      </trkpt>
      <trkpt lat="37.956112" lon="-4.766006">
        <ele>252.069</ele>
        <time>2021-10-16T17:28:05Z</time>
      </trkpt>
      <trkpt lat="37.955890" lon="-4.765957">
        <ele>250.474</ele>
        <time>2021-10-16T17:28:06Z</time>
      </trkpt>
      <trkpt lat="37.955420" lon="-4.765851">
        <ele>247.756</ele>
        <time>2021-10-16T17:28:08Z</time>
      </trkpt>
      <trkpt lat="37.954962" lon="-4.765753">
        <ele>244.121</ele>
        <time>2021-10-16T17:28:10Z</time>
      </trkpt>
      <trkpt lat="37.954481" lon="-4.765650">
        <ele>240.908</ele>
        <time>2021-10-16T17:28:12Z</time>
      </trkpt>
      <trkpt lat="37.953985" lon="-4.765543">
        <ele>238.715</ele>
        <time>2021-10-16T17:28:14Z</time>
      </trkpt>
      <trkpt lat="37.953530" lon="-4.765448">
        <ele>234.963</ele>
        <time>2021-10-16T17:28:16Z</time>
      </trkpt>
      <trkpt lat="37.953091" lon="-4.765370">
        <ele>231.852</ele>
        <time>2021-10-16T17:28:18Z</time>
      </trkpt>
      <trkpt lat="37.952660" lon="-4.765319">
        <ele>229.256</ele>
        <time>2021-10-16T17:28:20Z</time>
      </trkpt>
      <trkpt lat="37.952239" lon="-4.765289">
        <ele>226.871</ele>
        <time>2021-10-16T17:28:22Z</time>
      </trkpt>
      <trkpt lat="37.952018" lon="-4.765281">
        <ele>225.760</ele>
        <time>2021-10-16T17:28:23Z</time>
      </trkpt>
      <trkpt lat="37.951798" lon="-4.765277">
        <ele>225.262</ele>
        <time>2021-10-16T17:28:24Z</time>
      </trkpt>
      <trkpt lat="37.951361" lon="-4.765267">
        <ele>223.159</ele>
        <time>2021-10-16T17:28:26Z</time>
      </trkpt>
      <trkpt lat="37.950927" lon="-4.765257">
        <ele>220.956</ele>
        <time>2021-10-16T17:28:28Z</time>
      </trkpt>
      <trkpt lat="37.950491" lon="-4.765245">
        <ele>219.359</ele>
        <time>2021-10-16T17:28:30Z</time>
      </trkpt>
      <trkpt lat="37.950272" lon="-4.765239">
        <ele>218.514</ele>
        <time>2021-10-16T17:28:31Z</time>
      </trkpt>
      <trkpt lat="37.950051" lon="-4.765232">
        <ele>217.508</ele>
        <time>2021-10-16T17:28:32Z</time>
      </trkpt>
      <trkpt lat="37.949622" lon="-4.765223">
        <ele>215.693</ele>
        <time>2021-10-16T17:28:34Z</time>
      </trkpt>
      <trkpt lat="37.949193" lon="-4.765205">
        <ele>213.681</ele>
        <time>2021-10-16T17:28:36Z</time>
      </trkpt>
      <trkpt lat="37.948986" lon="-4.765190">
        <ele>212.810</ele>
        <time>2021-10-16T17:28:37Z</time>
      </trkpt>
      <trkpt lat="37.948785" lon="-4.765172">
        <ele>212.014</ele>
        <time>2021-10-16T17:28:38Z</time>
      </trkpt>
      <trkpt lat="37.948406" lon="-4.765113">
        <ele>210.919</ele>
        <time>2021-10-16T17:28:40Z</time>
      </trkpt>
      <trkpt lat="37.948021" lon="-4.765029">
        <ele>208.288</ele>
        <time>2021-10-16T17:28:42Z</time>
      </trkpt>
      <trkpt lat="37.947824" lon="-4.764979">
        <ele>207.480</ele>
        <time>2021-10-16T17:28:43Z</time>
      </trkpt>
      <trkpt lat="37.947622" lon="-4.764923">
        <ele>206.617</ele>
        <time>2021-10-16T17:28:44Z</time>
      </trkpt>
      <trkpt lat="37.947239" lon="-4.764803">
        <ele>205.154</ele>
        <time>2021-10-16T17:28:46Z</time>
      </trkpt>
      <trkpt lat="37.947051" lon="-4.764734">
        <ele>203.756</ele>
        <time>2021-10-16T17:28:47Z</time>
      </trkpt>
      <trkpt lat="37.946698" lon="-4.764587">
        <ele>202.111</ele>
        <time>2021-10-16T17:28:49Z</time>
      </trkpt>
      <trkpt lat="37.946526" lon="-4.764507">
        <ele>201.508</ele>
        <time>2021-10-16T17:28:50Z</time>
      </trkpt>
      <trkpt lat="37.946225" lon="-4.764349">
        <ele>199.993</ele>
        <time>2021-10-16T17:28:52Z</time>
      </trkpt>
      <trkpt lat="37.946077" lon="-4.764268">
        <ele>199.181</ele>
        <time>2021-10-16T17:28:53Z</time>
      </trkpt>
      <trkpt lat="37.945793" lon="-4.764106">
        <ele>198.240</ele>
        <time>2021-10-16T17:28:55Z</time>
      </trkpt>
      <trkpt lat="37.945650" lon="-4.764023">
        <ele>197.174</ele>
        <time>2021-10-16T17:28:56Z</time>
      </trkpt>
      <trkpt lat="37.945388" lon="-4.763864">
        <ele>196.239</ele>
        <time>2021-10-16T17:28:58Z</time>
      </trkpt>
      <trkpt lat="37.945120" lon="-4.763702">
        <ele>195.298</ele>
        <time>2021-10-16T17:29:00Z</time>
      </trkpt>
      <trkpt lat="37.944980" lon="-4.763620">
        <ele>194.750</ele>
        <time>2021-10-16T17:29:01Z</time>
      </trkpt>
      <trkpt lat="37.944829" lon="-4.763532">
        <ele>193.587</ele>
        <time>2021-10-16T17:29:02Z</time>
      </trkpt>
      <trkpt lat="37.944532" lon="-4.763360">
        <ele>192.849</ele>
        <time>2021-10-16T17:29:04Z</time>
      </trkpt>
      <trkpt lat="37.944210" lon="-4.763194">
        <ele>191.502</ele>
        <time>2021-10-16T17:29:06Z</time>
      </trkpt>
      <trkpt lat="37.943869" lon="-4.763039">
        <ele>191.522</ele>
        <time>2021-10-16T17:29:08Z</time>
      </trkpt>
      <trkpt lat="37.943547" lon="-4.762902">
        <ele>191.508</ele>
        <time>2021-10-16T17:29:10Z</time>
      </trkpt>
      <trkpt lat="37.943391" lon="-4.762843">
        <ele>191.632</ele>
        <time>2021-10-16T17:29:11Z</time>
      </trkpt>
      <trkpt lat="37.943087" lon="-4.762736">
        <ele>192.030</ele>
        <time>2021-10-16T17:29:13Z</time>
      </trkpt>
      <trkpt lat="37.942932" lon="-4.762686">
        <ele>192.439</ele>
        <time>2021-10-16T17:29:14Z</time>
      </trkpt>
      <trkpt lat="37.942632" lon="-4.762595">
        <ele>192.713</ele>
        <time>2021-10-16T17:29:16Z</time>
      </trkpt>
      <trkpt lat="37.942330" lon="-4.762520">
        <ele>193.788</ele>
        <time>2021-10-16T17:29:18Z</time>
      </trkpt>
      <trkpt lat="37.942023" lon="-4.762457">
        <ele>195.367</ele>
        <time>2021-10-16T17:29:20Z</time>
      </trkpt>
      <trkpt lat="37.941717" lon="-4.762413">
        <ele>195.589</ele>
        <time>2021-10-16T17:29:22Z</time>
      </trkpt>
      <trkpt lat="37.941558" lon="-4.762402">
        <ele>196.176</ele>
        <time>2021-10-16T17:29:23Z</time>
      </trkpt>
      <trkpt lat="37.941239" lon="-4.762382">
        <ele>197.157</ele>
        <time>2021-10-16T17:29:25Z</time>
      </trkpt>
      <trkpt lat="37.941073" lon="-4.762376">
        <ele>197.300</ele>
        <time>2021-10-16T17:29:26Z</time>
      </trkpt>
      <trkpt lat="37.940747" lon="-4.762366">
        <ele>198.120</ele>
        <time>2021-10-16T17:29:28Z</time>
      </trkpt>
      <trkpt lat="37.940413" lon="-4.762376">
        <ele>198.408</ele>
        <time>2021-10-16T17:29:30Z</time>
      </trkpt>
      <trkpt lat="37.940080" lon="-4.762408">
        <ele>199.573</ele>
        <time>2021-10-16T17:29:32Z</time>
      </trkpt>
      <trkpt lat="37.939776" lon="-4.762452">
        <ele>199.131</ele>
        <time>2021-10-16T17:29:34Z</time>
      </trkpt>
      <trkpt lat="37.939493" lon="-4.762501">
        <ele>198.940</ele>
        <time>2021-10-16T17:29:36Z</time>
      </trkpt>
      <trkpt lat="37.939223" lon="-4.762552">
        <ele>197.644</ele>
        <time>2021-10-16T17:29:38Z</time>
      </trkpt>
      <trkpt lat="37.938958" lon="-4.762622">
        <ele>197.099</ele>
        <time>2021-10-16T17:29:40Z</time>
      </trkpt>
      <trkpt lat="37.938686" lon="-4.762709">
        <ele>196.538</ele>
        <time>2021-10-16T17:29:42Z</time>
      </trkpt>
      <trkpt lat="37.938556" lon="-4.762758">
        <ele>196.070</ele>
        <time>2021-10-16T17:29:43Z</time>
      </trkpt>
      <trkpt lat="37.938415" lon="-4.762808">
        <ele>195.497</ele>
        <time>2021-10-16T17:29:44Z</time>
      </trkpt>
      <trkpt lat="37.938112" lon="-4.762915">
        <ele>194.849</ele>
        <time>2021-10-16T17:29:46Z</time>
      </trkpt>
      <trkpt lat="37.937744" lon="-4.763073">
        <ele>193.902</ele>
        <time>2021-10-16T17:29:48Z</time>
      </trkpt>
      <trkpt lat="37.937542" lon="-4.763169">
        <ele>192.722</ele>
        <time>2021-10-16T17:29:49Z</time>
      </trkpt>
      <trkpt lat="37.937330" lon="-4.763269">
        <ele>191.808</ele>
        <time>2021-10-16T17:29:50Z</time>
      </trkpt>
      <trkpt lat="37.936921" lon="-4.763469">
        <ele>191.292</ele>
        <time>2021-10-16T17:29:52Z</time>
      </trkpt>
      <trkpt lat="37.936714" lon="-4.763572">
        <ele>190.090</ele>
        <time>2021-10-16T17:29:53Z</time>
      </trkpt>
      <trkpt lat="37.936505" lon="-4.763674">
        <ele>188.829</ele>
        <time>2021-10-16T17:29:54Z</time>
      </trkpt>
      <trkpt lat="37.936073" lon="-4.763874">
        <ele>186.353</ele>
        <time>2021-10-16T17:29:56Z</time>
      </trkpt>
      <trkpt lat="37.935676" lon="-4.764064">
        <ele>184.048</ele>
        <time>2021-10-16T17:29:58Z</time>
      </trkpt>
      <trkpt lat="37.935484" lon="-4.764160">
        <ele>183.537</ele>
        <time>2021-10-16T17:29:59Z</time>
      </trkpt>
      <trkpt lat="37.935301" lon="-4.764252">
        <ele>182.979</ele>
        <time>2021-10-16T17:30:00Z</time>
      </trkpt>
      <trkpt lat="37.935132" lon="-4.764341">
        <ele>181.926</ele>
        <time>2021-10-16T17:30:01Z</time>
      </trkpt>
      <trkpt lat="37.934961" lon="-4.764427">
        <ele>181.277</ele>
        <time>2021-10-16T17:30:02Z</time>
      </trkpt>
      <trkpt lat="37.934649" lon="-4.764586">
        <ele>180.061</ele>
        <time>2021-10-16T17:30:04Z</time>
      </trkpt>
      <trkpt lat="37.934359" lon="-4.764730">
        <ele>178.727</ele>
        <time>2021-10-16T17:30:06Z</time>
      </trkpt>
      <trkpt lat="37.934077" lon="-4.764871">
        <ele>177.408</ele>
        <time>2021-10-16T17:30:08Z</time>
      </trkpt>
      <trkpt lat="37.933805" lon="-4.765003">
        <ele>175.615</ele>
        <time>2021-10-16T17:30:10Z</time>
      </trkpt>
      <trkpt lat="37.933662" lon="-4.765073">
        <ele>174.963</ele>
        <time>2021-10-16T17:30:11Z</time>
      </trkpt>
      <trkpt lat="37.933370" lon="-4.765223">
        <ele>174.382</ele>
        <time>2021-10-16T17:30:13Z</time>
      </trkpt>
      <trkpt lat="37.933226" lon="-4.765294">
        <ele>173.116</ele>
        <time>2021-10-16T17:30:14Z</time>
      </trkpt>
      <trkpt lat="37.932945" lon="-4.765428">
        <ele>171.851</ele>
        <time>2021-10-16T17:30:16Z</time>
      </trkpt>
      <trkpt lat="37.932630" lon="-4.765577">
        <ele>169.290</ele>
        <time>2021-10-16T17:30:18Z</time>
      </trkpt>
      <trkpt lat="37.932460" lon="-4.765657">
        <ele>168.852</ele>
        <time>2021-10-16T17:30:19Z</time>
      </trkpt>
      <trkpt lat="37.932280" lon="-4.765735">
        <ele>168.299</ele>
        <time>2021-10-16T17:30:20Z</time>
      </trkpt>
      <trkpt lat="37.931933" lon="-4.765862">
        <ele>167.138</ele>
        <time>2021-10-16T17:30:22Z</time>
      </trkpt>
      <trkpt lat="37.931756" lon="-4.765922">
        <ele>165.970</ele>
        <time>2021-10-16T17:30:23Z</time>
      </trkpt>
      <trkpt lat="37.931426" lon="-4.766035">
        <ele>164.717</ele>
        <time>2021-10-16T17:30:25Z</time>
      </trkpt>
      <trkpt lat="37.931259" lon="-4.766084">
        <ele>164.208</ele>
        <time>2021-10-16T17:30:26Z</time>
      </trkpt>
      <trkpt lat="37.930933" lon="-4.766172">
        <ele>162.381</ele>
        <time>2021-10-16T17:30:28Z</time>
      </trkpt>
      <trkpt lat="37.930582" lon="-4.766261">
        <ele>161.989</ele>
        <time>2021-10-16T17:30:30Z</time>
      </trkpt>
      <trkpt lat="37.930396" lon="-4.766303">
        <ele>160.978</ele>
        <time>2021-10-16T17:30:31Z</time>
      </trkpt>
      <trkpt lat="37.930194" lon="-4.766337">
        <ele>159.972</ele>
        <time>2021-10-16T17:30:32Z</time>
      </trkpt>
      <trkpt lat="37.929750" lon="-4.766392">
        <ele>157.967</ele>
        <time>2021-10-16T17:30:34Z</time>
      </trkpt>
      <trkpt lat="37.929313" lon="-4.766432">
        <ele>157.236</ele>
        <time>2021-10-16T17:30:36Z</time>
      </trkpt>
      <trkpt lat="37.928900" lon="-4.766442">
        <ele>155.938</ele>
        <time>2021-10-16T17:30:38Z</time>
      </trkpt>
      <trkpt lat="37.928536" lon="-4.766434">
        <ele>154.575</ele>
        <time>2021-10-16T17:30:40Z</time>
      </trkpt>
      <trkpt lat="37.928207" lon="-4.766422">
        <ele>152.839</ele>
        <time>2021-10-16T17:30:42Z</time>
      </trkpt>
      <trkpt lat="37.928053" lon="-4.766410">
        <ele>152.501</ele>
        <time>2021-10-16T17:30:43Z</time>
      </trkpt>
      <trkpt lat="37.927896" lon="-4.766391">
        <ele>152.021</ele>
        <time>2021-10-16T17:30:44Z</time>
      </trkpt>
      <trkpt lat="37.927604" lon="-4.766350">
        <ele>151.008</ele>
        <time>2021-10-16T17:30:46Z</time>
      </trkpt>
      <trkpt lat="37.927454" lon="-4.766330">
        <ele>151.211</ele>
        <time>2021-10-16T17:30:47Z</time>
      </trkpt>
      <trkpt lat="37.927155" lon="-4.766278">
        <ele>150.869</ele>
        <time>2021-10-16T17:30:49Z</time>
      </trkpt>
      <trkpt lat="37.927002" lon="-4.766248">
        <ele>150.718</ele>
        <time>2021-10-16T17:30:50Z</time>
      </trkpt>
      <trkpt lat="37.926700" lon="-4.766183">
        <ele>150.712</ele>
        <time>2021-10-16T17:30:52Z</time>
      </trkpt>
      <trkpt lat="37.926537" lon="-4.766148">
        <ele>150.327</ele>
        <time>2021-10-16T17:30:53Z</time>
      </trkpt>
      <trkpt lat="37.926200" lon="-4.766075">
        <ele>150.026</ele>
        <time>2021-10-16T17:30:55Z</time>
      </trkpt>
      <trkpt lat="37.926025" lon="-4.766036">
        <ele>149.858</ele>
        <time>2021-10-16T17:30:56Z</time>
      </trkpt>
      <trkpt lat="37.925673" lon="-4.765957">
        <ele>148.915</ele>
        <time>2021-10-16T17:30:58Z</time>
      </trkpt>
      <trkpt lat="37.925312" lon="-4.765879">
        <ele>148.459</ele>
        <time>2021-10-16T17:31:00Z</time>
      </trkpt>
      <trkpt lat="37.925128" lon="-4.765839">
        <ele>147.903</ele>
        <time>2021-10-16T17:31:01Z</time>
      </trkpt>
      <trkpt lat="37.924940" lon="-4.765798">
        <ele>148.023</ele>
        <time>2021-10-16T17:31:02Z</time>
      </trkpt>
      <trkpt lat="37.924569" lon="-4.765717">
        <ele>147.108</ele>
        <time>2021-10-16T17:31:04Z</time>
      </trkpt>
      <trkpt lat="37.924191" lon="-4.765630">
        <ele>146.833</ele>
        <time>2021-10-16T17:31:06Z</time>
      </trkpt>
      <trkpt lat="37.923806" lon="-4.765547">
        <ele>146.221</ele>
        <time>2021-10-16T17:31:08Z</time>
      </trkpt>
      <trkpt lat="37.923439" lon="-4.765463">
        <ele>145.680</ele>
        <time>2021-10-16T17:31:10Z</time>
      </trkpt>
      <trkpt lat="37.923259" lon="-4.765417">
        <ele>145.674</ele>
        <time>2021-10-16T17:31:11Z</time>
      </trkpt>
      <trkpt lat="37.922923" lon="-4.765327">
        <ele>145.599</ele>
        <time>2021-10-16T17:31:13Z</time>
      </trkpt>
      <trkpt lat="37.922759" lon="-4.765275">
        <ele>145.838</ele>
        <time>2021-10-16T17:31:14Z</time>
      </trkpt>
      <trkpt lat="37.922440" lon="-4.765155">
        <ele>146.440</ele>
        <time>2021-10-16T17:31:16Z</time>
      </trkpt>
      <trkpt lat="37.922103" lon="-4.764996">
        <ele>145.937</ele>
        <time>2021-10-16T17:31:18Z</time>
      </trkpt>
      <trkpt lat="37.921931" lon="-4.764901">
        <ele>146.517</ele>
        <time>2021-10-16T17:31:19Z</time>
      </trkpt>
      <trkpt lat="37.921755" lon="-4.764792">
        <ele>146.787</ele>
        <time>2021-10-16T17:31:20Z</time>
      </trkpt>
      <trkpt lat="37.921413" lon="-4.764559">
        <ele>145.715</ele>
        <time>2021-10-16T17:31:22Z</time>
      </trkpt>
      <trkpt lat="37.921074" lon="-4.764280">
        <ele>145.208</ele>
        <time>2021-10-16T17:31:24Z</time>
      </trkpt>
      <trkpt lat="37.920910" lon="-4.764127">
        <ele>145.459</ele>
        <time>2021-10-16T17:31:25Z</time>
      </trkpt>
      <trkpt lat="37.920750" lon="-4.763972">
        <ele>145.357</ele>
        <time>2021-10-16T17:31:26Z</time>
      </trkpt>
      <trkpt lat="37.920489" lon="-4.763688">
        <ele>144.956</ele>
        <time>2021-10-16T17:31:28Z</time>
      </trkpt>
      <trkpt lat="37.920239" lon="-4.763366">
        <ele>145.540</ele>
        <time>2021-10-16T17:31:30Z</time>
      </trkpt>
      <trkpt lat="37.920110" lon="-4.763187">
        <ele>144.565</ele>
        <time>2021-10-16T17:31:31Z</time>
      </trkpt>
      <trkpt lat="37.919978" lon="-4.762990">
        <ele>144.054</ele>
        <time>2021-10-16T17:31:32Z</time>
      </trkpt>
      <trkpt lat="37.919730" lon="-4.762574">
        <ele>143.676</ele>
        <time>2021-10-16T17:31:34Z</time>
      </trkpt>
      <trkpt lat="37.919604" lon="-4.762356">
        <ele>143.273</ele>
        <time>2021-10-16T17:31:35Z</time>
      </trkpt>
      <trkpt lat="37.919480" lon="-4.762143">
        <ele>143.091</ele>
        <time>2021-10-16T17:31:36Z</time>
      </trkpt>
      <trkpt lat="37.919218" lon="-4.761736">
        <ele>142.581</ele>
        <time>2021-10-16T17:31:38Z</time>
      </trkpt>
      <trkpt lat="37.918957" lon="-4.761387">
        <ele>141.819</ele>
        <time>2021-10-16T17:31:40Z</time>
      </trkpt>
      <trkpt lat="37.918816" lon="-4.761219">
        <ele>141.908</ele>
        <time>2021-10-16T17:31:41Z</time>
      </trkpt>
      <trkpt lat="37.918513" lon="-4.760905">
        <ele>141.647</ele>
        <time>2021-10-16T17:31:43Z</time>
      </trkpt>
      <trkpt lat="37.918338" lon="-4.760747">
        <ele>141.425</ele>
        <time>2021-10-16T17:31:44Z</time>
      </trkpt>
      <trkpt lat="37.917996" lon="-4.760473">
        <ele>141.414</ele>
        <time>2021-10-16T17:31:46Z</time>
      </trkpt>
      <trkpt lat="37.917817" lon="-4.760348">
        <ele>141.048</ele>
        <time>2021-10-16T17:31:47Z</time>
      </trkpt>
      <trkpt lat="37.917466" lon="-4.760148">
        <ele>140.483</ele>
        <time>2021-10-16T17:31:49Z</time>
      </trkpt>
      <trkpt lat="37.917287" lon="-4.760062">
        <ele>139.842</ele>
        <time>2021-10-16T17:31:50Z</time>
      </trkpt>
      <trkpt lat="37.916958" lon="-4.759929">
        <ele>139.154</ele>
        <time>2021-10-16T17:31:52Z</time>
      </trkpt>
      <trkpt lat="37.916786" lon="-4.759856">
        <ele>138.941</ele>
        <time>2021-10-16T17:31:53Z</time>
      </trkpt>
      <trkpt lat="37.916456" lon="-4.759683">
        <ele>138.098</ele>
        <time>2021-10-16T17:31:55Z</time>
      </trkpt>
      <trkpt lat="37.916292" lon="-4.759580">
        <ele>138.015</ele>
        <time>2021-10-16T17:31:56Z</time>
      </trkpt>
      <trkpt lat="37.915979" lon="-4.759349">
        <ele>137.626</ele>
        <time>2021-10-16T17:31:58Z</time>
      </trkpt>
      <trkpt lat="37.915611" lon="-4.759038">
        <ele>137.008</ele>
        <time>2021-10-16T17:32:00Z</time>
      </trkpt>
      <trkpt lat="37.915228" lon="-4.758609">
        <ele>136.787</ele>
        <time>2021-10-16T17:32:02Z</time>
      </trkpt>
      <trkpt lat="37.914908" lon="-4.758083">
        <ele>135.315</ele>
        <time>2021-10-16T17:32:04Z</time>
      </trkpt>
      <trkpt lat="37.914759" lon="-4.757787">
        <ele>134.254</ele>
        <time>2021-10-16T17:32:05Z</time>
      </trkpt>
      <trkpt lat="37.914620" lon="-4.757479">
        <ele>133.338</ele>
        <time>2021-10-16T17:32:06Z</time>
      </trkpt>
      <trkpt lat="37.914493" lon="-4.757158">
        <ele>132.893</ele>
        <time>2021-10-16T17:32:07Z</time>
      </trkpt>
      <trkpt lat="37.914378" lon="-4.756821">
        <ele>131.982</ele>
        <time>2021-10-16T17:32:08Z</time>
      </trkpt>
      <trkpt lat="37.914195" lon="-4.756154">
        <ele>128.984</ele>
        <time>2021-10-16T17:32:10Z</time>
      </trkpt>
      <trkpt lat="37.913988" lon="-4.755509">
        <ele>127.551</ele>
        <time>2021-10-16T17:32:12Z</time>
      </trkpt>
      <trkpt lat="37.913867" lon="-4.755208">
        <ele>126.339</ele>
        <time>2021-10-16T17:32:13Z</time>
      </trkpt>
      <trkpt lat="37.913726" lon="-4.754916">
        <ele>125.201</ele>
        <time>2021-10-16T17:32:14Z</time>
      </trkpt>
      <trkpt lat="37.913402" lon="-4.754409">
        <ele>122.521</ele>
        <time>2021-10-16T17:32:16Z</time>
      </trkpt>
      <trkpt lat="37.913022" lon="-4.753957">
        <ele>119.308</ele>
        <time>2021-10-16T17:32:18Z</time>
      </trkpt>
      <trkpt lat="37.912602" lon="-4.753585">
        <ele>115.711</ele>
        <time>2021-10-16T17:32:20Z</time>
      </trkpt>
      <trkpt lat="37.912162" lon="-4.753308">
        <ele>112.679</ele>
        <time>2021-10-16T17:32:22Z</time>
      </trkpt>
      <trkpt lat="37.911928" lon="-4.753197">
        <ele>111.328</ele>
        <time>2021-10-16T17:32:23Z</time>
      </trkpt>
      <trkpt lat="37.911449" lon="-4.753039">
        <ele>107.162</ele>
        <time>2021-10-16T17:32:25Z</time>
      </trkpt>
      <trkpt lat="37.911194" lon="-4.752993">
        <ele>105.287</ele>
        <time>2021-10-16T17:32:26Z</time>
      </trkpt>
      <trkpt lat="37.910702" lon="-4.752962">
        <ele>102.066</ele>
        <time>2021-10-16T17:32:28Z</time>
      </trkpt>
      <trkpt lat="37.910213" lon="-4.753018">
        <ele>99.988</ele>
        <time>2021-10-16T17:32:30Z</time>
      </trkpt>
      <trkpt lat="37.909737" lon="-4.753149">
        <ele>97.245</ele>
        <time>2021-10-16T17:32:32Z</time>
      </trkpt>
      <trkpt lat="37.909288" lon="-4.753347">
        <ele>95.041</ele>
        <time>2021-10-16T17:32:34Z</time>
      </trkpt>
      <trkpt lat="37.909064" lon="-4.753458">
        <ele>93.681</ele>
        <time>2021-10-16T17:32:35Z</time>
      </trkpt>
      <trkpt lat="37.908840" lon="-4.753559">
        <ele>92.809</ele>
        <time>2021-10-16T17:32:36Z</time>
      </trkpt>
      <trkpt lat="37.908614" lon="-4.753647">
        <ele>92.108</ele>
        <time>2021-10-16T17:32:37Z</time>
      </trkpt>
      <trkpt lat="37.908384" lon="-4.753726">
        <ele>91.372</ele>
        <time>2021-10-16T17:32:38Z</time>
      </trkpt>
      <trkpt lat="37.907960" lon="-4.753870">
        <ele>89.250</ele>
        <time>2021-10-16T17:32:40Z</time>
      </trkpt>
      <trkpt lat="37.907556" lon="-4.754012">
        <ele>87.269</ele>
        <time>2021-10-16T17:32:42Z</time>
      </trkpt>
      <trkpt lat="37.907350" lon="-4.754083">
        <ele>86.623</ele>
        <time>2021-10-16T17:32:43Z</time>
      </trkpt>
      <trkpt lat="37.907137" lon="-4.754150">
        <ele>85.838</ele>
        <time>2021-10-16T17:32:44Z</time>
      </trkpt>
      <trkpt lat="37.906711" lon="-4.754246">
        <ele>84.647</ele>
        <time>2021-10-16T17:32:46Z</time>
      </trkpt>
      <trkpt lat="37.906264" lon="-4.754282">
        <ele>83.419</ele>
        <time>2021-10-16T17:32:48Z</time>
      </trkpt>
      <trkpt lat="37.906040" lon="-4.754262">
        <ele>82.896</ele>
        <time>2021-10-16T17:32:49Z</time>
      </trkpt>
      <trkpt lat="37.905818" lon="-4.754206">
        <ele>82.623</ele>
        <time>2021-10-16T17:32:50Z</time>
      </trkpt>
      <trkpt lat="37.905401" lon="-4.754013">
        <ele>83.283</ele>
        <time>2021-10-16T17:32:52Z</time>
      </trkpt>
      <trkpt lat="37.905198" lon="-4.753876">
        <ele>82.911</ele>
        <time>2021-10-16T17:32:53Z</time>
      </trkpt>
      <trkpt lat="37.905008" lon="-4.753712">
        <ele>82.608</ele>
        <time>2021-10-16T17:32:54Z</time>
      </trkpt>
      <trkpt lat="37.904833" lon="-4.753523">
        <ele>83.630</ele>
        <time>2021-10-16T17:32:55Z</time>
      </trkpt>
      <trkpt lat="37.904671" lon="-4.753306">
        <ele>84.058</ele>
        <time>2021-10-16T17:32:56Z</time>
      </trkpt>
      <trkpt lat="37.904398" lon="-4.752814">
        <ele>84.467</ele>
        <time>2021-10-16T17:32:58Z</time>
      </trkpt>
      <trkpt lat="37.904272" lon="-4.752528">
        <ele>84.681</ele>
        <time>2021-10-16T17:32:59Z</time>
      </trkpt>
      <trkpt lat="37.904159" lon="-4.752249">
        <ele>84.896</ele>
        <time>2021-10-16T17:33:00Z</time>
      </trkpt>
      <trkpt lat="37.904050" lon="-4.751989">
        <ele>85.365</ele>
        <time>2021-10-16T17:33:01Z</time>
      </trkpt>
      <trkpt lat="37.903933" lon="-4.751733">
        <ele>85.317</ele>
        <time>2021-10-16T17:33:02Z</time>
      </trkpt>
      <trkpt lat="37.903658" lon="-4.751273">
        <ele>84.434</ele>
        <time>2021-10-16T17:33:04Z</time>
      </trkpt>
      <trkpt lat="37.903491" lon="-4.751061">
        <ele>84.635</ele>
        <time>2021-10-16T17:33:05Z</time>
      </trkpt>
      <trkpt lat="37.903313" lon="-4.750874">
        <ele>84.586</ele>
        <time>2021-10-16T17:33:06Z</time>
      </trkpt>
      <trkpt lat="37.903129" lon="-4.750712">
        <ele>83.914</ele>
        <time>2021-10-16T17:33:07Z</time>
      </trkpt>
      <trkpt lat="37.902932" lon="-4.750562">
        <ele>83.608</ele>
        <time>2021-10-16T17:33:08Z</time>
      </trkpt>
      <trkpt lat="37.902524" lon="-4.750324">
        <ele>81.951</ele>
        <time>2021-10-16T17:33:10Z</time>
      </trkpt>
      <trkpt lat="37.902310" lon="-4.750209">
        <ele>80.789</ele>
        <time>2021-10-16T17:33:11Z</time>
      </trkpt>
      <trkpt lat="37.901864" lon="-4.749959">
        <ele>78.378</ele>
        <time>2021-10-16T17:33:13Z</time>
      </trkpt>
      <trkpt lat="37.901620" lon="-4.749813">
        <ele>76.942</ele>
        <time>2021-10-16T17:33:14Z</time>
      </trkpt>
      <trkpt lat="37.901121" lon="-4.749517">
        <ele>74.767</ele>
        <time>2021-10-16T17:33:16Z</time>
      </trkpt>
      <trkpt lat="37.900850" lon="-4.749365">
        <ele>73.826</ele>
        <time>2021-10-16T17:33:17Z</time>
      </trkpt>
      <trkpt lat="37.900575" lon="-4.749221">
        <ele>72.328</ele>
        <time>2021-10-16T17:33:18Z</time>
      </trkpt>
      <trkpt lat="37.900028" lon="-4.748934">
        <ele>70.625</ele>
        <time>2021-10-16T17:33:20Z</time>
      </trkpt>
      <trkpt lat="37.899507" lon="-4.748662">
        <ele>70.529</ele>
        <time>2021-10-16T17:33:22Z</time>
      </trkpt>
      <trkpt lat="37.899239" lon="-4.748522">
        <ele>70.500</ele>
        <time>2021-10-16T17:33:23Z</time>
      </trkpt>
      <trkpt lat="37.898705" lon="-4.748240">
        <ele>69.020</ele>
        <time>2021-10-16T17:33:25Z</time>
      </trkpt>
      <trkpt lat="37.898432" lon="-4.748095">
        <ele>69.008</ele>
        <time>2021-10-16T17:33:26Z</time>
      </trkpt>
      <trkpt lat="37.897898" lon="-4.747812">
        <ele>67.970</ele>
        <time>2021-10-16T17:33:28Z</time>
      </trkpt>
      <trkpt lat="37.897603" lon="-4.747655">
        <ele>67.618</ele>
        <time>2021-10-16T17:33:29Z</time>
      </trkpt>
      <trkpt lat="37.896981" lon="-4.747326">
        <ele>66.497</ele>
        <time>2021-10-16T17:33:31Z</time>
      </trkpt>
      <trkpt lat="37.896675" lon="-4.747167">
        <ele>66.171</ele>
        <time>2021-10-16T17:33:32Z</time>
      </trkpt>
      <trkpt lat="37.896135" lon="-4.746895">
        <ele>65.276</ele>
        <time>2021-10-16T17:33:34Z</time>
      </trkpt>
      <trkpt lat="37.895881" lon="-4.746770">
        <ele>65.065</ele>
        <time>2021-10-16T17:33:35Z</time>
      </trkpt>
      <trkpt lat="37.895421" lon="-4.746540">
        <ele>64.837</ele>
        <time>2021-10-16T17:33:37Z</time>
      </trkpt>
      <trkpt lat="37.895203" lon="-4.746426">
        <ele>64.214</ele>
        <time>2021-10-16T17:33:38Z</time>
      </trkpt>
      <trkpt lat="37.894819" lon="-4.746227">
        <ele>63.371</ele>
        <time>2021-10-16T17:33:40Z</time>
      </trkpt>
      <trkpt lat="37.894632" lon="-4.746128">
        <ele>63.141</ele>
        <time>2021-10-16T17:33:41Z</time>
      </trkpt>
      <trkpt lat="37.894446" lon="-4.746027">
        <ele>62.715</ele>
        <time>2021-10-16T17:33:42Z</time>
      </trkpt>
      <trkpt lat="37.894257" lon="-4.745925">
        <ele>62.008</ele>
        <time>2021-10-16T17:33:43Z</time>
      </trkpt>
      <trkpt lat="37.894066" lon="-4.745830">
        <ele>61.815</ele>
        <time>2021-10-16T17:33:44Z</time>
      </trkpt>
      <trkpt lat="37.893682" lon="-4.745671">
        <ele>61.683</ele>
        <time>2021-10-16T17:33:46Z</time>
      </trkpt>
      <trkpt lat="37.893260" lon="-4.745559">
        <ele>60.542</ele>
        <time>2021-10-16T17:33:48Z</time>
      </trkpt>
      <trkpt lat="37.892818" lon="-4.745510">
        <ele>59.986</ele>
        <time>2021-10-16T17:33:50Z</time>
      </trkpt>
      <trkpt lat="37.892392" lon="-4.745536">
        <ele>60.131</ele>
        <time>2021-10-16T17:33:52Z</time>
      </trkpt>
      <trkpt lat="37.892176" lon="-4.745553">
        <ele>59.890</ele>
        <time>2021-10-16T17:33:53Z</time>
      </trkpt>
      <trkpt lat="37.891751" lon="-4.745571">
        <ele>59.762</ele>
        <time>2021-10-16T17:33:55Z</time>
      </trkpt>
      <trkpt lat="37.891541" lon="-4.745561">
        <ele>59.929</ele>
        <time>2021-10-16T17:33:56Z</time>
      </trkpt>
      <trkpt lat="37.891170" lon="-4.745507">
        <ele>60.124</ele>
        <time>2021-10-16T17:33:58Z</time>
      </trkpt>
      <trkpt lat="37.890818" lon="-4.745428">
        <ele>60.204</ele>
        <time>2021-10-16T17:34:00Z</time>
      </trkpt>
      <trkpt lat="37.890478" lon="-4.745370">
        <ele>60.914</ele>
        <time>2021-10-16T17:34:02Z</time>
      </trkpt>
      <trkpt lat="37.890151" lon="-4.745378">
        <ele>60.108</ele>
        <time>2021-10-16T17:34:04Z</time>
      </trkpt>
      <trkpt lat="37.889816" lon="-4.745474">
        <ele>57.870</ele>
        <time>2021-10-16T17:34:06Z</time>
      </trkpt>
      <trkpt lat="37.889653" lon="-4.745568">
        <ele>57.228</ele>
        <time>2021-10-16T17:34:07Z</time>
      </trkpt>
      <trkpt lat="37.889498" lon="-4.745701">
        <ele>56.027</ele>
        <time>2021-10-16T17:34:08Z</time>
      </trkpt>
      <trkpt lat="37.889244" lon="-4.746046">
        <ele>54.431</ele>
        <time>2021-10-16T17:34:10Z</time>
      </trkpt>
      <trkpt lat="37.889017" lon="-4.746439">
        <ele>54.756</ele>
        <time>2021-10-16T17:34:12Z</time>
      </trkpt>
      <trkpt lat="37.888778" lon="-4.746846">
        <ele>54.995</ele>
        <time>2021-10-16T17:34:14Z</time>
      </trkpt>
      <trkpt lat="37.888539" lon="-4.747251">
        <ele>54.837</ele>
        <time>2021-10-16T17:34:16Z</time>
      </trkpt>
      <trkpt lat="37.888409" lon="-4.747463">
        <ele>55.344</ele>
        <time>2021-10-16T17:34:17Z</time>
      </trkpt>
      <trkpt lat="37.888277" lon="-4.747680">
        <ele>54.922</ele>
        <time>2021-10-16T17:34:18Z</time>
      </trkpt>
      <trkpt lat="37.888016" lon="-4.748127">
        <ele>53.562</ele>
        <time>2021-10-16T17:34:20Z</time>
      </trkpt>
      <trkpt lat="37.887776" lon="-4.748552">
        <ele>52.708</ele>
        <time>2021-10-16T17:34:22Z</time>
      </trkpt>
      <trkpt lat="37.887658" lon="-4.748760">
        <ele>52.708</ele>
        <time>2021-10-16T17:34:23Z</time>
      </trkpt>
      <trkpt lat="37.887425" lon="-4.749161">
        <ele>52.680</ele>
        <time>2021-10-16T17:34:25Z</time>
      </trkpt>
      <trkpt lat="37.887308" lon="-4.749363">
        <ele>53.068</ele>
        <time>2021-10-16T17:34:26Z</time>
      </trkpt>
      <trkpt lat="37.887080" lon="-4.749741">
        <ele>53.477</ele>
        <time>2021-10-16T17:34:28Z</time>
      </trkpt>
      <trkpt lat="37.886957" lon="-4.749934">
        <ele>53.751</ele>
        <time>2021-10-16T17:34:29Z</time>
      </trkpt>
      <trkpt lat="37.886828" lon="-4.750128">
        <ele>54.926</ele>
        <time>2021-10-16T17:34:30Z</time>
      </trkpt>
      <trkpt lat="37.886693" lon="-4.750325">
        <ele>55.485</ele>
        <time>2021-10-16T17:34:31Z</time>
      </trkpt>
      <trkpt lat="37.886553" lon="-4.750523">
        <ele>55.887</ele>
        <time>2021-10-16T17:34:32Z</time>
      </trkpt>
      <trkpt lat="37.886291" lon="-4.750880">
        <ele>57.034</ele>
        <time>2021-10-16T17:34:34Z</time>
      </trkpt>
      <trkpt lat="37.886154" lon="-4.751061">
        <ele>57.652</ele>
        <time>2021-10-16T17:34:35Z</time>
      </trkpt>
      <trkpt lat="37.885878" lon="-4.751424">
        <ele>58.053</ele>
        <time>2021-10-16T17:34:37Z</time>
      </trkpt>
      <trkpt lat="37.885730" lon="-4.751611">
        <ele>58.008</ele>
        <time>2021-10-16T17:34:38Z</time>
      </trkpt>
      <trkpt lat="37.885424" lon="-4.751972">
        <ele>58.008</ele>
        <time>2021-10-16T17:34:40Z</time>
      </trkpt>
      <trkpt lat="37.885085" lon="-4.752352">
        <ele>57.393</ele>
        <time>2021-10-16T17:34:42Z</time>
      </trkpt>
      <trkpt lat="37.884891" lon="-4.752543">
        <ele>57.251</ele>
        <time>2021-10-16T17:34:43Z</time>
      </trkpt>
      <trkpt lat="37.884675" lon="-4.752749">
        <ele>57.220</ele>
        <time>2021-10-16T17:34:44Z</time>
      </trkpt>
      <trkpt lat="37.884216" lon="-4.753199">
        <ele>56.514</ele>
        <time>2021-10-16T17:34:46Z</time>
      </trkpt>
      <trkpt lat="37.883696" lon="-4.753695">
        <ele>56.759</ele>
        <time>2021-10-16T17:34:48Z</time>
      </trkpt>
      <trkpt lat="37.883416" lon="-4.753950">
        <ele>56.498</ele>
        <time>2021-10-16T17:34:49Z</time>
      </trkpt>
      <trkpt lat="37.882511" lon="-4.754708">
        <ele>56.580</ele>
        <time>2021-10-16T17:34:52Z</time>
      </trkpt>
      <trkpt lat="37.882207" lon="-4.754946">
        <ele>56.287</ele>
        <time>2021-10-16T17:34:53Z</time>
      </trkpt>
      <trkpt lat="37.881926" lon="-4.755158">
        <ele>56.037</ele>
        <time>2021-10-16T17:34:54Z</time>
      </trkpt>
      <trkpt lat="37.881393" lon="-4.755539">
        <ele>56.149</ele>
        <time>2021-10-16T17:34:56Z</time>
      </trkpt>
      <trkpt lat="37.880909" lon="-4.755887">
        <ele>56.313</ele>
        <time>2021-10-16T17:34:58Z</time>
      </trkpt>
      <trkpt lat="37.880431" lon="-4.756235">
        <ele>55.708</ele>
        <time>2021-10-16T17:35:00Z</time>
      </trkpt>
      <trkpt lat="37.880191" lon="-4.756406">
        <ele>55.691</ele>
        <time>2021-10-16T17:35:01Z</time>
      </trkpt>
      <trkpt lat="37.879951" lon="-4.756577">
        <ele>55.239</ele>
        <time>2021-10-16T17:35:02Z</time>
      </trkpt>
      <trkpt lat="37.879493" lon="-4.756902">
        <ele>55.068</ele>
        <time>2021-10-16T17:35:04Z</time>
      </trkpt>
      <trkpt lat="37.879267" lon="-4.757063">
        <ele>54.682</ele>
        <time>2021-10-16T17:35:05Z</time>
      </trkpt>
      <trkpt lat="37.878824" lon="-4.757387">
        <ele>54.017</ele>
        <time>2021-10-16T17:35:07Z</time>
      </trkpt>
      <trkpt lat="37.878601" lon="-4.757552">
        <ele>53.876</ele>
        <time>2021-10-16T17:35:08Z</time>
      </trkpt>
      <trkpt lat="37.878164" lon="-4.757863">
        <ele>53.428</ele>
        <time>2021-10-16T17:35:10Z</time>
      </trkpt>
      <trkpt lat="37.877712" lon="-4.758185">
        <ele>53.115</ele>
        <time>2021-10-16T17:35:12Z</time>
      </trkpt>
      <trkpt lat="37.877253" lon="-4.758513">
        <ele>52.588</ele>
        <time>2021-10-16T17:35:14Z</time>
      </trkpt>
      <trkpt lat="37.876813" lon="-4.758831">
        <ele>51.424</ele>
        <time>2021-10-16T17:35:16Z</time>
      </trkpt>
      <trkpt lat="37.876370" lon="-4.759162">
        <ele>51.426</ele>
        <time>2021-10-16T17:35:18Z</time>
      </trkpt>
      <trkpt lat="37.876150" lon="-4.759325">
        <ele>51.108</ele>
        <time>2021-10-16T17:35:19Z</time>
      </trkpt>
      <trkpt lat="37.875927" lon="-4.759491">
        <ele>51.176</ele>
        <time>2021-10-16T17:35:20Z</time>
      </trkpt>
      <trkpt lat="37.875521" lon="-4.759804">
        <ele>50.564</ele>
        <time>2021-10-16T17:35:22Z</time>
      </trkpt>
      <trkpt lat="37.875322" lon="-4.759957">
        <ele>50.593</ele>
        <time>2021-10-16T17:35:23Z</time>
      </trkpt>
      <trkpt lat="37.874930" lon="-4.760248">
        <ele>50.877</ele>
        <time>2021-10-16T17:35:25Z</time>
      </trkpt>
      <trkpt lat="37.874727" lon="-4.760397">
        <ele>51.152</ele>
        <time>2021-10-16T17:35:26Z</time>
      </trkpt>
      <trkpt lat="37.874333" lon="-4.760676">
        <ele>49.691</ele>
        <time>2021-10-16T17:35:28Z</time>
      </trkpt>
      <trkpt lat="37.874133" lon="-4.760819">
        <ele>49.793</ele>
        <time>2021-10-16T17:35:29Z</time>
      </trkpt>
      <trkpt lat="37.873740" lon="-4.761100">
        <ele>49.090</ele>
        <time>2021-10-16T17:35:31Z</time>
      </trkpt>
      <trkpt lat="37.873540" lon="-4.761243">
        <ele>48.635</ele>
        <time>2021-10-16T17:35:32Z</time>
      </trkpt>
      <trkpt lat="37.873151" lon="-4.761528">
        <ele>47.686</ele>
        <time>2021-10-16T17:35:34Z</time>
      </trkpt>
      <trkpt lat="37.872951" lon="-4.761675">
        <ele>47.214</ele>
        <time>2021-10-16T17:35:35Z</time>
      </trkpt>
      <trkpt lat="37.872747" lon="-4.761820">
        <ele>47.008</ele>
        <time>2021-10-16T17:35:36Z</time>
      </trkpt>
      <trkpt lat="37.872332" lon="-4.762117">
        <ele>46.671</ele>
        <time>2021-10-16T17:35:38Z</time>
      </trkpt>
      <trkpt lat="37.871943" lon="-4.762397">
        <ele>46.449</ele>
        <time>2021-10-16T17:35:40Z</time>
      </trkpt>
      <trkpt lat="37.871758" lon="-4.762531">
        <ele>47.038</ele>
        <time>2021-10-16T17:35:41Z</time>
      </trkpt>
      <trkpt lat="37.871388" lon="-4.762807">
        <ele>47.222</ele>
        <time>2021-10-16T17:35:43Z</time>
      </trkpt>
      <trkpt lat="37.871198" lon="-4.762949">
        <ele>47.067</ele>
        <time>2021-10-16T17:35:44Z</time>
      </trkpt>
      <trkpt lat="37.870829" lon="-4.763241">
        <ele>47.946</ele>
        <time>2021-10-16T17:35:46Z</time>
      </trkpt>
      <trkpt lat="37.870448" lon="-4.763533">
        <ele>48.518</ele>
        <time>2021-10-16T17:35:48Z</time>
      </trkpt>
      <trkpt lat="37.870054" lon="-4.763806">
        <ele>48.665</ele>
        <time>2021-10-16T17:35:50Z</time>
      </trkpt>
      <trkpt lat="37.869694" lon="-4.764066">
        <ele>48.744</ele>
        <time>2021-10-16T17:35:52Z</time>
      </trkpt>
      <trkpt lat="37.869523" lon="-4.764193">
        <ele>49.505</ele>
        <time>2021-10-16T17:35:53Z</time>
      </trkpt>
      <trkpt lat="37.869186" lon="-4.764428">
        <ele>50.815</ele>
        <time>2021-10-16T17:35:55Z</time>
      </trkpt>
      <trkpt lat="37.869011" lon="-4.764550">
        <ele>51.008</ele>
        <time>2021-10-16T17:35:56Z</time>
      </trkpt>
      <trkpt lat="37.868672" lon="-4.764790">
        <ele>51.562</ele>
        <time>2021-10-16T17:35:58Z</time>
      </trkpt>
      <trkpt lat="37.868495" lon="-4.764913">
        <ele>51.960</ele>
        <time>2021-10-16T17:35:59Z</time>
      </trkpt>
      <trkpt lat="37.868139" lon="-4.765161">
        <ele>53.029</ele>
        <time>2021-10-16T17:36:01Z</time>
      </trkpt>
      <trkpt lat="37.867953" lon="-4.765291">
        <ele>53.273</ele>
        <time>2021-10-16T17:36:02Z</time>
      </trkpt>
      <trkpt lat="37.867599" lon="-4.765547">
        <ele>53.928</ele>
        <time>2021-10-16T17:36:04Z</time>
      </trkpt>
      <trkpt lat="37.867242" lon="-4.765805">
        <ele>54.567</ele>
        <time>2021-10-16T17:36:06Z</time>
      </trkpt>
      <trkpt lat="37.866887" lon="-4.766070">
        <ele>54.929</ele>
        <time>2021-10-16T17:36:08Z</time>
      </trkpt>
      <trkpt lat="37.866541" lon="-4.766319">
        <ele>55.876</ele>
        <time>2021-10-16T17:36:10Z</time>
      </trkpt>
      <trkpt lat="37.866367" lon="-4.766450">
        <ele>55.812</ele>
        <time>2021-10-16T17:36:11Z</time>
      </trkpt>
      <trkpt lat="37.866193" lon="-4.766585">
        <ele>56.132</ele>
        <time>2021-10-16T17:36:12Z</time>
      </trkpt>
      <trkpt lat="37.865833" lon="-4.766862">
        <ele>56.805</ele>
        <time>2021-10-16T17:36:14Z</time>
      </trkpt>
      <trkpt lat="37.865473" lon="-4.767134">
        <ele>57.508</ele>
        <time>2021-10-16T17:36:16Z</time>
      </trkpt>
      <trkpt lat="37.865286" lon="-4.767281">
        <ele>58.049</ele>
        <time>2021-10-16T17:36:17Z</time>
      </trkpt>
      <trkpt lat="37.865099" lon="-4.767432">
        <ele>57.967</ele>
        <time>2021-10-16T17:36:18Z</time>
      </trkpt>
      <trkpt lat="37.864913" lon="-4.767582">
        <ele>58.686</ele>
        <time>2021-10-16T17:36:19Z</time>
      </trkpt>
      <trkpt lat="37.864728" lon="-4.767725">
        <ele>59.190</ele>
        <time>2021-10-16T17:36:20Z</time>
      </trkpt>
      <trkpt lat="37.864406" lon="-4.767967">
        <ele>59.925</ele>
        <time>2021-10-16T17:36:22Z</time>
      </trkpt>
      <trkpt lat="37.864246" lon="-4.768084">
        <ele>59.174</ele>
        <time>2021-10-16T17:36:23Z</time>
      </trkpt>
      <trkpt lat="37.864086" lon="-4.768202">
        <ele>59.436</ele>
        <time>2021-10-16T17:36:24Z</time>
      </trkpt>
      <trkpt lat="37.863754" lon="-4.768455">
        <ele>59.383</ele>
        <time>2021-10-16T17:36:26Z</time>
      </trkpt>
      <trkpt lat="37.863411" lon="-4.768698">
        <ele>60.115</ele>
        <time>2021-10-16T17:36:28Z</time>
      </trkpt>
      <trkpt lat="37.863221" lon="-4.768833">
        <ele>60.465</ele>
        <time>2021-10-16T17:36:29Z</time>
      </trkpt>
      <trkpt lat="37.863025" lon="-4.768971">
        <ele>60.811</ele>
        <time>2021-10-16T17:36:30Z</time>
      </trkpt>
      <trkpt lat="37.862636" lon="-4.769240">
        <ele>62.808</ele>
        <time>2021-10-16T17:36:32Z</time>
      </trkpt>
      <trkpt lat="37.862280" lon="-4.769515">
        <ele>63.339</ele>
        <time>2021-10-16T17:36:34Z</time>
      </trkpt>
      <trkpt lat="37.861940" lon="-4.769820">
        <ele>64.337</ele>
        <time>2021-10-16T17:36:36Z</time>
      </trkpt>
      <trkpt lat="37.861776" lon="-4.769982">
        <ele>64.956</ele>
        <time>2021-10-16T17:36:37Z</time>
      </trkpt>
      <trkpt lat="37.861610" lon="-4.770152">
        <ele>65.110</ele>
        <time>2021-10-16T17:36:38Z</time>
      </trkpt>
      <trkpt lat="37.861304" lon="-4.770504">
        <ele>64.795</ele>
        <time>2021-10-16T17:36:40Z</time>
      </trkpt>
      <trkpt lat="37.861009" lon="-4.770875">
        <ele>64.974</ele>
        <time>2021-10-16T17:36:42Z</time>
      </trkpt>
      <trkpt lat="37.860746" lon="-4.771250">
        <ele>64.376</ele>
        <time>2021-10-16T17:36:44Z</time>
      </trkpt>
      <trkpt lat="37.860526" lon="-4.771573">
        <ele>64.483</ele>
        <time>2021-10-16T17:36:46Z</time>
      </trkpt>
      <trkpt lat="37.860425" lon="-4.771722">
        <ele>64.653</ele>
        <time>2021-10-16T17:36:47Z</time>
      </trkpt>
      <trkpt lat="37.860245" lon="-4.771992">
        <ele>64.404</ele>
        <time>2021-10-16T17:36:49Z</time>
      </trkpt>
      <trkpt lat="37.860169" lon="-4.772118">
        <ele>64.114</ele>
        <time>2021-10-16T17:36:50Z</time>
      </trkpt>
      <trkpt lat="37.860083" lon="-4.772351">
        <ele>63.208</ele>
        <time>2021-10-16T17:36:52Z</time>
      </trkpt>
      <trkpt lat="37.860080" lon="-4.772477">
        <ele>62.773</ele>
        <time>2021-10-16T17:36:53Z</time>
      </trkpt>
      <trkpt lat="37.860107" lon="-4.772604">
        <ele>62.681</ele>
        <time>2021-10-16T17:36:54Z</time>
      </trkpt>
      <trkpt lat="37.860255" lon="-4.772801">
        <ele>62.630</ele>
        <time>2021-10-16T17:36:56Z</time>
      </trkpt>
      <trkpt lat="37.860475" lon="-4.772835">
        <ele>62.564</ele>
        <time>2021-10-16T17:36:58Z</time>
      </trkpt>
      <trkpt lat="37.860681" lon="-4.772731">
        <ele>64.039</ele>
        <time>2021-10-16T17:37:00Z</time>
      </trkpt>
      <trkpt lat="37.860752" lon="-4.772626">
        <ele>64.478</ele>
        <time>2021-10-16T17:37:01Z</time>
      </trkpt>
      <trkpt lat="37.860793" lon="-4.772491">
        <ele>65.230</ele>
        <time>2021-10-16T17:37:02Z</time>
      </trkpt>
      <trkpt lat="37.860783" lon="-4.772200">
        <ele>65.957</ele>
        <time>2021-10-16T17:37:04Z</time>
      </trkpt>
      <trkpt lat="37.860722" lon="-4.772064">
        <ele>67.051</ele>
        <time>2021-10-16T17:37:05Z</time>
      </trkpt>
      <trkpt lat="37.860623" lon="-4.771961">
        <ele>67.701</ele>
        <time>2021-10-16T17:37:06Z</time>
      </trkpt>
      <trkpt lat="37.860363" lon="-4.771807">
        <ele>69.611</ele>
        <time>2021-10-16T17:37:08Z</time>
      </trkpt>
      <trkpt lat="37.860056" lon="-4.771615">
        <ele>71.108</ele>
        <time>2021-10-16T17:37:10Z</time>
      </trkpt>
      <trkpt lat="37.859876" lon="-4.771487">
        <ele>71.783</ele>
        <time>2021-10-16T17:37:11Z</time>
      </trkpt>
      <trkpt lat="37.859457" lon="-4.771205">
        <ele>72.841</ele>
        <time>2021-10-16T17:37:13Z</time>
      </trkpt>
      <trkpt lat="37.859218" lon="-4.771055">
        <ele>72.730</ele>
        <time>2021-10-16T17:37:14Z</time>
      </trkpt>
      <trkpt lat="37.858747" lon="-4.770759">
        <ele>72.154</ele>
        <time>2021-10-16T17:37:16Z</time>
      </trkpt>
      <trkpt lat="37.858308" lon="-4.770483">
        <ele>72.229</ele>
        <time>2021-10-16T17:37:18Z</time>
      </trkpt>
      <trkpt lat="37.857913" lon="-4.770232">
        <ele>72.618</ele>
        <time>2021-10-16T17:37:20Z</time>
      </trkpt>
      <trkpt lat="37.857569" lon="-4.770015">
        <ele>73.250</ele>
        <time>2021-10-16T17:37:22Z</time>
      </trkpt>
      <trkpt lat="37.857395" lon="-4.769906">
        <ele>73.047</ele>
        <time>2021-10-16T17:37:23Z</time>
      </trkpt>
      <trkpt lat="37.857052" lon="-4.769688">
        <ele>73.651</ele>
        <time>2021-10-16T17:37:25Z</time>
      </trkpt>
      <trkpt lat="37.856874" lon="-4.769574">
        <ele>73.801</ele>
        <time>2021-10-16T17:37:26Z</time>
      </trkpt>
      <trkpt lat="37.856544" lon="-4.769356">
        <ele>74.111</ele>
        <time>2021-10-16T17:37:28Z</time>
      </trkpt>
      <trkpt lat="37.856386" lon="-4.769247">
        <ele>74.008</ele>
        <time>2021-10-16T17:37:29Z</time>
      </trkpt>
      <trkpt lat="37.856083" lon="-4.769021">
        <ele>73.583</ele>
        <time>2021-10-16T17:37:31Z</time>
      </trkpt>
      <trkpt lat="37.855927" lon="-4.768899">
        <ele>73.421</ele>
        <time>2021-10-16T17:37:32Z</time>
      </trkpt>
      <trkpt lat="37.855609" lon="-4.768651">
        <ele>72.810</ele>
        <time>2021-10-16T17:37:34Z</time>
      </trkpt>
      <trkpt lat="37.855260" lon="-4.768395">
        <ele>72.224</ele>
        <time>2021-10-16T17:37:36Z</time>
      </trkpt>
      <trkpt lat="37.855076" lon="-4.768276">
        <ele>71.539</ele>
        <time>2021-10-16T17:37:37Z</time>
      </trkpt>
      <trkpt lat="37.854886" lon="-4.768158">
        <ele>71.148</ele>
        <time>2021-10-16T17:37:38Z</time>
      </trkpt>
      <trkpt lat="37.854515" lon="-4.767930">
        <ele>71.630</ele>
        <time>2021-10-16T17:37:40Z</time>
      </trkpt>
      <trkpt lat="37.854326" lon="-4.767810">
        <ele>71.957</ele>
        <time>2021-10-16T17:37:41Z</time>
      </trkpt>
      <trkpt lat="37.854143" lon="-4.767688">
        <ele>71.854</ele>
        <time>2021-10-16T17:37:42Z</time>
      </trkpt>
      <trkpt lat="37.853783" lon="-4.767446">
        <ele>72.256</ele>
        <time>2021-10-16T17:37:44Z</time>
      </trkpt>
      <trkpt lat="37.853450" lon="-4.767170">
        <ele>73.711</ele>
        <time>2021-10-16T17:37:46Z</time>
      </trkpt>
      <trkpt lat="37.853138" lon="-4.766835">
        <ele>74.008</ele>
        <time>2021-10-16T17:37:48Z</time>
      </trkpt>
      <trkpt lat="37.852995" lon="-4.766653">
        <ele>74.263</ele>
        <time>2021-10-16T17:37:49Z</time>
      </trkpt>
      <trkpt lat="37.852860" lon="-4.766466">
        <ele>75.081</ele>
        <time>2021-10-16T17:37:50Z</time>
      </trkpt>
      <trkpt lat="37.852609" lon="-4.766120">
        <ele>74.740</ele>
        <time>2021-10-16T17:37:52Z</time>
      </trkpt>
      <trkpt lat="37.852349" lon="-4.765761">
        <ele>75.194</ele>
        <time>2021-10-16T17:37:54Z</time>
      </trkpt>
      <trkpt lat="37.852215" lon="-4.765581">
        <ele>74.889</ele>
        <time>2021-10-16T17:37:55Z</time>
      </trkpt>
      <trkpt lat="37.852076" lon="-4.765397">
        <ele>75.288</ele>
        <time>2021-10-16T17:37:56Z</time>
      </trkpt>
      <trkpt lat="37.851803" lon="-4.765037">
        <ele>76.250</ele>
        <time>2021-10-16T17:37:58Z</time>
      </trkpt>
      <trkpt lat="37.851664" lon="-4.764846">
        <ele>76.577</ele>
        <time>2021-10-16T17:37:59Z</time>
      </trkpt>
      <trkpt lat="37.851381" lon="-4.764465">
        <ele>77.349</ele>
        <time>2021-10-16T17:38:01Z</time>
      </trkpt>
      <trkpt lat="37.851232" lon="-4.764274">
        <ele>77.402</ele>
        <time>2021-10-16T17:38:02Z</time>
      </trkpt>
      <trkpt lat="37.850939" lon="-4.763898">
        <ele>79.122</ele>
        <time>2021-10-16T17:38:04Z</time>
      </trkpt>
      <trkpt lat="37.850790" lon="-4.763702">
        <ele>79.708</ele>
        <time>2021-10-16T17:38:05Z</time>
      </trkpt>
      <trkpt lat="37.850641" lon="-4.763505">
        <ele>80.552</ele>
        <time>2021-10-16T17:38:06Z</time>
      </trkpt>
      <trkpt lat="37.850340" lon="-4.763106">
        <ele>81.590</ele>
        <time>2021-10-16T17:38:08Z</time>
      </trkpt>
      <trkpt lat="37.850046" lon="-4.762716">
        <ele>81.859</ele>
        <time>2021-10-16T17:38:10Z</time>
      </trkpt>
      <trkpt lat="37.849898" lon="-4.762520">
        <ele>82.163</ele>
        <time>2021-10-16T17:38:11Z</time>
      </trkpt>
      <trkpt lat="37.849754" lon="-4.762330">
        <ele>82.688</ele>
        <time>2021-10-16T17:38:12Z</time>
      </trkpt>
      <trkpt lat="37.849611" lon="-4.762141">
        <ele>82.837</ele>
        <time>2021-10-16T17:38:13Z</time>
      </trkpt>
      <trkpt lat="37.849467" lon="-4.761950">
        <ele>83.389</ele>
        <time>2021-10-16T17:38:14Z</time>
      </trkpt>
      <trkpt lat="37.849187" lon="-4.761575">
        <ele>84.346</ele>
        <time>2021-10-16T17:38:16Z</time>
      </trkpt>
      <trkpt lat="37.848895" lon="-4.761184">
        <ele>85.869</ele>
        <time>2021-10-16T17:38:18Z</time>
      </trkpt>
      <trkpt lat="37.848600" lon="-4.760790">
        <ele>86.204</ele>
        <time>2021-10-16T17:38:20Z</time>
      </trkpt>
      <trkpt lat="37.848319" lon="-4.760417">
        <ele>87.324</ele>
        <time>2021-10-16T17:38:22Z</time>
      </trkpt>
      <trkpt lat="37.848176" lon="-4.760228">
        <ele>87.408</ele>
        <time>2021-10-16T17:38:23Z</time>
      </trkpt>
      <trkpt lat="37.847897" lon="-4.759854">
        <ele>87.784</ele>
        <time>2021-10-16T17:38:25Z</time>
      </trkpt>
      <trkpt lat="37.847764" lon="-4.759651">
        <ele>87.822</ele>
        <time>2021-10-16T17:38:26Z</time>
      </trkpt>
      <trkpt lat="37.847538" lon="-4.759227">
        <ele>87.811</ele>
        <time>2021-10-16T17:38:28Z</time>
      </trkpt>
      <trkpt lat="37.847436" lon="-4.758997">
        <ele>88.055</ele>
        <time>2021-10-16T17:38:29Z</time>
      </trkpt>
      <trkpt lat="37.847257" lon="-4.758528">
        <ele>88.440</ele>
        <time>2021-10-16T17:38:31Z</time>
      </trkpt>
      <trkpt lat="37.847174" lon="-4.758289">
        <ele>88.769</ele>
        <time>2021-10-16T17:38:32Z</time>
      </trkpt>
      <trkpt lat="37.847028" lon="-4.757814">
        <ele>89.991</ele>
        <time>2021-10-16T17:38:34Z</time>
      </trkpt>
      <trkpt lat="37.846887" lon="-4.757328">
        <ele>91.918</ele>
        <time>2021-10-16T17:38:36Z</time>
      </trkpt>
      <trkpt lat="37.846814" lon="-4.757085">
        <ele>92.818</ele>
        <time>2021-10-16T17:38:37Z</time>
      </trkpt>
      <trkpt lat="37.846740" lon="-4.756835">
        <ele>93.798</ele>
        <time>2021-10-16T17:38:38Z</time>
      </trkpt>
      <trkpt lat="37.846594" lon="-4.756348">
        <ele>95.517</ele>
        <time>2021-10-16T17:38:40Z</time>
      </trkpt>
      <trkpt lat="37.846439" lon="-4.755835">
        <ele>96.808</ele>
        <time>2021-10-16T17:38:42Z</time>
      </trkpt>
      <trkpt lat="37.846281" lon="-4.755302">
        <ele>97.189</ele>
        <time>2021-10-16T17:38:44Z</time>
      </trkpt>
      <trkpt lat="37.846126" lon="-4.754775">
        <ele>96.637</ele>
        <time>2021-10-16T17:38:46Z</time>
      </trkpt>
      <trkpt lat="37.845966" lon="-4.754229">
        <ele>96.376</ele>
        <time>2021-10-16T17:38:48Z</time>
      </trkpt>
      <trkpt lat="37.845888" lon="-4.753964">
        <ele>96.210</ele>
        <time>2021-10-16T17:38:49Z</time>
      </trkpt>
      <trkpt lat="37.845810" lon="-4.753696">
        <ele>96.055</ele>
        <time>2021-10-16T17:38:50Z</time>
      </trkpt>
      <trkpt lat="37.845667" lon="-4.753183">
        <ele>96.584</ele>
        <time>2021-10-16T17:38:52Z</time>
      </trkpt>
      <trkpt lat="37.845514" lon="-4.752655">
        <ele>96.586</ele>
        <time>2021-10-16T17:38:54Z</time>
      </trkpt>
      <trkpt lat="37.845435" lon="-4.752387">
        <ele>96.983</ele>
        <time>2021-10-16T17:38:55Z</time>
      </trkpt>
      <trkpt lat="37.845347" lon="-4.752106">
        <ele>97.885</ele>
        <time>2021-10-16T17:38:56Z</time>
      </trkpt>
      <trkpt lat="37.845181" lon="-4.751570">
        <ele>98.989</ele>
        <time>2021-10-16T17:38:58Z</time>
      </trkpt>
      <trkpt lat="37.845097" lon="-4.751296">
        <ele>100.117</ele>
        <time>2021-10-16T17:38:59Z</time>
      </trkpt>
      <trkpt lat="37.845014" lon="-4.751015">
        <ele>100.908</ele>
        <time>2021-10-16T17:39:00Z</time>
      </trkpt>
      <trkpt lat="37.844838" lon="-4.750434">
        <ele>102.646</ele>
        <time>2021-10-16T17:39:02Z</time>
      </trkpt>
      <trkpt lat="37.844657" lon="-4.749853">
        <ele>104.114</ele>
        <time>2021-10-16T17:39:04Z</time>
      </trkpt>
      <trkpt lat="37.844562" lon="-4.749547">
        <ele>104.443</ele>
        <time>2021-10-16T17:39:05Z</time>
      </trkpt>
      <trkpt lat="37.844374" lon="-4.748923">
        <ele>105.957</ele>
        <time>2021-10-16T17:39:07Z</time>
      </trkpt>
      <trkpt lat="37.844273" lon="-4.748595">
        <ele>106.232</ele>
        <time>2021-10-16T17:39:08Z</time>
      </trkpt>
      <trkpt lat="37.844084" lon="-4.747961">
        <ele>108.221</ele>
        <time>2021-10-16T17:39:10Z</time>
      </trkpt>
      <trkpt lat="37.843891" lon="-4.747323">
        <ele>110.433</ele>
        <time>2021-10-16T17:39:12Z</time>
      </trkpt>
      <trkpt lat="37.843682" lon="-4.746736">
        <ele>114.680</ele>
        <time>2021-10-16T17:39:14Z</time>
      </trkpt>
      <trkpt lat="37.843436" lon="-4.746243">
        <ele>117.761</ele>
        <time>2021-10-16T17:39:16Z</time>
      </trkpt>
      <trkpt lat="37.843282" lon="-4.746008">
        <ele>118.421</ele>
        <time>2021-10-16T17:39:17Z</time>
      </trkpt>
      <trkpt lat="37.842901" lon="-4.745619">
        <ele>120.113</ele>
        <time>2021-10-16T17:39:19Z</time>
      </trkpt>
      <trkpt lat="37.842675" lon="-4.745457">
        <ele>120.408</ele>
        <time>2021-10-16T17:39:20Z</time>
      </trkpt>
      <trkpt lat="37.842203" lon="-4.745221">
        <ele>120.844</ele>
        <time>2021-10-16T17:39:22Z</time>
      </trkpt>
      <trkpt lat="37.841951" lon="-4.745119">
        <ele>121.012</ele>
        <time>2021-10-16T17:39:23Z</time>
      </trkpt>
      <trkpt lat="37.841453" lon="-4.744921">
        <ele>122.541</ele>
        <time>2021-10-16T17:39:25Z</time>
      </trkpt>
      <trkpt lat="37.841199" lon="-4.744817">
        <ele>124.525</ele>
        <time>2021-10-16T17:39:26Z</time>
      </trkpt>
      <trkpt lat="37.840723" lon="-4.744623">
        <ele>126.640</ele>
        <time>2021-10-16T17:39:28Z</time>
      </trkpt>
      <trkpt lat="37.840254" lon="-4.744403">
        <ele>128.869</ele>
        <time>2021-10-16T17:39:30Z</time>
      </trkpt>
      <trkpt lat="37.840024" lon="-4.744264">
        <ele>129.491</ele>
        <time>2021-10-16T17:39:31Z</time>
      </trkpt>
      <trkpt lat="37.839793" lon="-4.744106">
        <ele>130.048</ele>
        <time>2021-10-16T17:39:32Z</time>
      </trkpt>
      <trkpt lat="37.839358" lon="-4.743773">
        <ele>131.857</ele>
        <time>2021-10-16T17:39:34Z</time>
      </trkpt>
      <trkpt lat="37.838910" lon="-4.743428">
        <ele>135.500</ele>
        <time>2021-10-16T17:39:36Z</time>
      </trkpt>
      <trkpt lat="37.838682" lon="-4.743258">
        <ele>136.520</ele>
        <time>2021-10-16T17:39:37Z</time>
      </trkpt>
      <trkpt lat="37.838450" lon="-4.743083">
        <ele>138.208</ele>
        <time>2021-10-16T17:39:38Z</time>
      </trkpt>
      <trkpt lat="37.838003" lon="-4.742737">
        <ele>142.013</ele>
        <time>2021-10-16T17:39:40Z</time>
      </trkpt>
      <trkpt lat="37.837540" lon="-4.742387">
        <ele>145.191</ele>
        <time>2021-10-16T17:39:42Z</time>
      </trkpt>
      <trkpt lat="37.837301" lon="-4.742210">
        <ele>146.310</ele>
        <time>2021-10-16T17:39:43Z</time>
      </trkpt>
      <trkpt lat="37.837056" lon="-4.742026">
        <ele>147.634</ele>
        <time>2021-10-16T17:39:44Z</time>
      </trkpt>
      <trkpt lat="37.836592" lon="-4.741653">
        <ele>149.799</ele>
        <time>2021-10-16T17:39:46Z</time>
      </trkpt>
      <trkpt lat="37.836366" lon="-4.741448">
        <ele>150.218</ele>
        <time>2021-10-16T17:39:47Z</time>
      </trkpt>
      <trkpt lat="37.835952" lon="-4.741003">
        <ele>150.660</ele>
        <time>2021-10-16T17:39:49Z</time>
      </trkpt>
      <trkpt lat="37.835758" lon="-4.740773">
        <ele>151.477</ele>
        <time>2021-10-16T17:39:50Z</time>
      </trkpt>
      <trkpt lat="37.835392" lon="-4.740359">
        <ele>152.563</ele>
        <time>2021-10-16T17:39:52Z</time>
      </trkpt>
      <trkpt lat="37.835198" lon="-4.740166">
        <ele>153.644</ele>
        <time>2021-10-16T17:39:53Z</time>
      </trkpt>
      <trkpt lat="37.834786" lon="-4.739854">
        <ele>154.818</ele>
        <time>2021-10-16T17:39:55Z</time>
      </trkpt>
      <trkpt lat="37.834558" lon="-4.739731">
        <ele>155.308</ele>
        <time>2021-10-16T17:39:56Z</time>
      </trkpt>
      <trkpt lat="37.834104" lon="-4.739535">
        <ele>156.594</ele>
        <time>2021-10-16T17:39:58Z</time>
      </trkpt>
      <trkpt lat="37.833863" lon="-4.739441">
        <ele>157.372</ele>
        <time>2021-10-16T17:39:59Z</time>
      </trkpt>
      <trkpt lat="37.833391" lon="-4.739273">
        <ele>158.391</ele>
        <time>2021-10-16T17:40:01Z</time>
      </trkpt>
      <trkpt lat="37.833153" lon="-4.739209">
        <ele>158.625</ele>
        <time>2021-10-16T17:40:02Z</time>
      </trkpt>
      <trkpt lat="37.832703" lon="-4.739195">
        <ele>158.650</ele>
        <time>2021-10-16T17:40:04Z</time>
      </trkpt>
      <trkpt lat="37.832475" lon="-4.739235">
        <ele>158.719</ele>
        <time>2021-10-16T17:40:05Z</time>
      </trkpt>
      <trkpt lat="37.832028" lon="-4.739350">
        <ele>159.281</ele>
        <time>2021-10-16T17:40:07Z</time>
      </trkpt>
      <trkpt lat="37.831796" lon="-4.739408">
        <ele>159.228</ele>
        <time>2021-10-16T17:40:08Z</time>
      </trkpt>
      <trkpt lat="37.831335" lon="-4.739515">
        <ele>160.222</ele>
        <time>2021-10-16T17:40:10Z</time>
      </trkpt>
      <trkpt lat="37.831093" lon="-4.739568">
        <ele>161.162</ele>
        <time>2021-10-16T17:40:11Z</time>
      </trkpt>
      <trkpt lat="37.830605" lon="-4.739657">
        <ele>161.408</ele>
        <time>2021-10-16T17:40:13Z</time>
      </trkpt>
      <trkpt lat="37.830352" lon="-4.739682">
        <ele>161.808</ele>
        <time>2021-10-16T17:40:14Z</time>
      </trkpt>
      <trkpt lat="37.829856" lon="-4.739690">
        <ele>163.840</ele>
        <time>2021-10-16T17:40:16Z</time>
      </trkpt>
      <trkpt lat="37.829602" lon="-4.739669">
        <ele>164.688</ele>
        <time>2021-10-16T17:40:17Z</time>
      </trkpt>
      <trkpt lat="37.829099" lon="-4.739576">
        <ele>165.987</ele>
        <time>2021-10-16T17:40:19Z</time>
      </trkpt>
      <trkpt lat="37.828848" lon="-4.739497">
        <ele>166.621</ele>
        <time>2021-10-16T17:40:20Z</time>
      </trkpt>
      <trkpt lat="37.828376" lon="-4.739281">
        <ele>168.846</ele>
        <time>2021-10-16T17:40:22Z</time>
      </trkpt>
      <trkpt lat="37.827909" lon="-4.739010">
        <ele>169.555</ele>
        <time>2021-10-16T17:40:24Z</time>
      </trkpt>
      <trkpt lat="37.827673" lon="-4.738867">
        <ele>170.297</ele>
        <time>2021-10-16T17:40:25Z</time>
      </trkpt>
      <trkpt lat="37.827427" lon="-4.738718">
        <ele>170.554</ele>
        <time>2021-10-16T17:40:26Z</time>
      </trkpt>
      <trkpt lat="37.826953" lon="-4.738426">
        <ele>169.746</ele>
        <time>2021-10-16T17:40:28Z</time>
      </trkpt>
      <trkpt lat="37.826706" lon="-4.738277">
        <ele>169.888</ele>
        <time>2021-10-16T17:40:29Z</time>
      </trkpt>
      <trkpt lat="37.826207" lon="-4.737991">
        <ele>169.516</ele>
        <time>2021-10-16T17:40:31Z</time>
      </trkpt>
      <trkpt lat="37.825946" lon="-4.737847">
        <ele>169.408</ele>
        <time>2021-10-16T17:40:32Z</time>
      </trkpt>
      <trkpt lat="37.825434" lon="-4.737596">
        <ele>169.292</ele>
        <time>2021-10-16T17:40:34Z</time>
      </trkpt>
      <trkpt lat="37.825165" lon="-4.737485">
        <ele>169.020</ele>
        <time>2021-10-16T17:40:35Z</time>
      </trkpt>
      <trkpt lat="37.824624" lon="-4.737293">
        <ele>169.049</ele>
        <time>2021-10-16T17:40:37Z</time>
      </trkpt>
      <trkpt lat="37.824346" lon="-4.737213">
        <ele>168.913</ele>
        <time>2021-10-16T17:40:38Z</time>
      </trkpt>
      <trkpt lat="37.823810" lon="-4.737100">
        <ele>168.978</ele>
        <time>2021-10-16T17:40:40Z</time>
      </trkpt>
      <trkpt lat="37.823259" lon="-4.737024">
        <ele>168.857</ele>
        <time>2021-10-16T17:40:42Z</time>
      </trkpt>
      <trkpt lat="37.822979" lon="-4.737000">
        <ele>169.099</ele>
        <time>2021-10-16T17:40:43Z</time>
      </trkpt>
      <trkpt lat="37.822689" lon="-4.736986">
        <ele>169.176</ele>
        <time>2021-10-16T17:40:44Z</time>
      </trkpt>
      <trkpt lat="37.822126" lon="-4.736971">
        <ele>169.054</ele>
        <time>2021-10-16T17:40:46Z</time>
      </trkpt>
      <trkpt lat="37.821833" lon="-4.736963">
        <ele>169.156</ele>
        <time>2021-10-16T17:40:47Z</time>
      </trkpt>
      <trkpt lat="37.821542" lon="-4.736952">
        <ele>168.911</ele>
        <time>2021-10-16T17:40:48Z</time>
      </trkpt>
      <trkpt lat="37.820963" lon="-4.736908">
        <ele>169.708</ele>
        <time>2021-10-16T17:40:50Z</time>
      </trkpt>
      <trkpt lat="37.820418" lon="-4.736797">
        <ele>170.393</ele>
        <time>2021-10-16T17:40:52Z</time>
      </trkpt>
      <trkpt lat="37.820145" lon="-4.736712">
        <ele>170.931</ele>
        <time>2021-10-16T17:40:53Z</time>
      </trkpt>
      <trkpt lat="37.819610" lon="-4.736496">
        <ele>172.280</ele>
        <time>2021-10-16T17:40:55Z</time>
      </trkpt>
      <trkpt lat="37.819341" lon="-4.736370">
        <ele>173.184</ele>
        <time>2021-10-16T17:40:56Z</time>
      </trkpt>
      <trkpt lat="37.818820" lon="-4.736123">
        <ele>175.959</ele>
        <time>2021-10-16T17:40:58Z</time>
      </trkpt>
      <trkpt lat="37.818555" lon="-4.736005">
        <ele>177.178</ele>
        <time>2021-10-16T17:40:59Z</time>
      </trkpt>
      <trkpt lat="37.818029" lon="-4.735782">
        <ele>179.640</ele>
        <time>2021-10-16T17:41:01Z</time>
      </trkpt>
      <trkpt lat="37.817761" lon="-4.735666">
        <ele>181.017</ele>
        <time>2021-10-16T17:41:02Z</time>
      </trkpt>
      <trkpt lat="37.817267" lon="-4.735449">
        <ele>181.039</ele>
        <time>2021-10-16T17:41:04Z</time>
      </trkpt>
      <trkpt lat="37.816778" lon="-4.735240">
        <ele>177.401</ele>
        <time>2021-10-16T17:41:06Z</time>
      </trkpt>
      <trkpt lat="37.816530" lon="-4.735130">
        <ele>176.021</ele>
        <time>2021-10-16T17:41:07Z</time>
      </trkpt>
      <trkpt lat="37.816280" lon="-4.735005">
        <ele>174.608</ele>
        <time>2021-10-16T17:41:08Z</time>
      </trkpt>
      <trkpt lat="37.815830" lon="-4.734702">
        <ele>172.091</ele>
        <time>2021-10-16T17:41:10Z</time>
      </trkpt>
      <trkpt lat="37.815620" lon="-4.734506">
        <ele>171.089</ele>
        <time>2021-10-16T17:41:11Z</time>
      </trkpt>
      <trkpt lat="37.815427" lon="-4.734281">
        <ele>169.018</ele>
        <time>2021-10-16T17:41:12Z</time>
      </trkpt>
      <trkpt lat="37.815103" lon="-4.733743">
        <ele>165.342</ele>
        <time>2021-10-16T17:41:14Z</time>
      </trkpt>
      <trkpt lat="37.814831" lon="-4.733159">
        <ele>161.487</ele>
        <time>2021-10-16T17:41:16Z</time>
      </trkpt>
      <trkpt lat="37.814690" lon="-4.732859">
        <ele>159.326</ele>
        <time>2021-10-16T17:41:17Z</time>
      </trkpt>
      <trkpt lat="37.814395" lon="-4.732264">
        <ele>155.458</ele>
        <time>2021-10-16T17:41:19Z</time>
      </trkpt>
      <trkpt lat="37.814232" lon="-4.731976">
        <ele>153.285</ele>
        <time>2021-10-16T17:41:20Z</time>
      </trkpt>
      <trkpt lat="37.813863" lon="-4.731510">
        <ele>149.172</ele>
        <time>2021-10-16T17:41:22Z</time>
      </trkpt>
      <trkpt lat="37.813431" lon="-4.731189">
        <ele>145.713</ele>
        <time>2021-10-16T17:41:24Z</time>
      </trkpt>
      <trkpt lat="37.812948" lon="-4.730934">
        <ele>143.014</ele>
        <time>2021-10-16T17:41:26Z</time>
      </trkpt>
      <trkpt lat="37.812454" lon="-4.730683">
        <ele>139.908</ele>
        <time>2021-10-16T17:41:28Z</time>
      </trkpt>
      <trkpt lat="37.812195" lon="-4.730543">
        <ele>138.035</ele>
        <time>2021-10-16T17:41:29Z</time>
      </trkpt>
      <trkpt lat="37.811675" lon="-4.730262">
        <ele>135.063</ele>
        <time>2021-10-16T17:41:31Z</time>
      </trkpt>
      <trkpt lat="37.811410" lon="-4.730118">
        <ele>133.952</ele>
        <time>2021-10-16T17:41:32Z</time>
      </trkpt>
      <trkpt lat="37.810884" lon="-4.729841">
        <ele>132.476</ele>
        <time>2021-10-16T17:41:34Z</time>
      </trkpt>
      <trkpt lat="37.810340" lon="-4.729559">
        <ele>129.891</ele>
        <time>2021-10-16T17:41:36Z</time>
      </trkpt>
      <trkpt lat="37.809790" lon="-4.729260">
        <ele>127.340</ele>
        <time>2021-10-16T17:41:38Z</time>
      </trkpt>
      <trkpt lat="37.809257" lon="-4.728967">
        <ele>124.132</ele>
        <time>2021-10-16T17:41:40Z</time>
      </trkpt>
      <trkpt lat="37.808984" lon="-4.728820">
        <ele>122.749</ele>
        <time>2021-10-16T17:41:41Z</time>
      </trkpt>
      <trkpt lat="37.808713" lon="-4.728675">
        <ele>121.244</ele>
        <time>2021-10-16T17:41:42Z</time>
      </trkpt>
      <trkpt lat="37.808441" lon="-4.728533">
        <ele>119.705</ele>
        <time>2021-10-16T17:41:43Z</time>
      </trkpt>
      <trkpt lat="37.808163" lon="-4.728383">
        <ele>118.315</ele>
        <time>2021-10-16T17:41:44Z</time>
      </trkpt>
      <trkpt lat="37.807629" lon="-4.728108">
        <ele>115.608</ele>
        <time>2021-10-16T17:41:46Z</time>
      </trkpt>
      <trkpt lat="37.807353" lon="-4.727965">
        <ele>114.482</ele>
        <time>2021-10-16T17:41:47Z</time>
      </trkpt>
      <trkpt lat="37.806811" lon="-4.727674">
        <ele>112.560</ele>
        <time>2021-10-16T17:41:49Z</time>
      </trkpt>
      <trkpt lat="37.806528" lon="-4.727524">
        <ele>111.489</ele>
        <time>2021-10-16T17:41:50Z</time>
      </trkpt>
      <trkpt lat="37.805982" lon="-4.727222">
        <ele>109.563</ele>
        <time>2021-10-16T17:41:52Z</time>
      </trkpt>
      <trkpt lat="37.805700" lon="-4.727067">
        <ele>108.688</ele>
        <time>2021-10-16T17:41:53Z</time>
      </trkpt>
      <trkpt lat="37.805127" lon="-4.726756">
        <ele>106.257</ele>
        <time>2021-10-16T17:41:55Z</time>
      </trkpt>
      <trkpt lat="37.804828" lon="-4.726599">
        <ele>105.429</ele>
        <time>2021-10-16T17:41:56Z</time>
      </trkpt>
      <trkpt lat="37.804255" lon="-4.726298">
        <ele>104.276</ele>
        <time>2021-10-16T17:41:58Z</time>
      </trkpt>
      <trkpt lat="37.803959" lon="-4.726142">
        <ele>103.911</ele>
        <time>2021-10-16T17:41:59Z</time>
      </trkpt>
      <trkpt lat="37.803370" lon="-4.725833">
        <ele>103.521</ele>
        <time>2021-10-16T17:42:01Z</time>
      </trkpt>
      <trkpt lat="37.803069" lon="-4.725674">
        <ele>103.603</ele>
        <time>2021-10-16T17:42:02Z</time>
      </trkpt>
      <trkpt lat="37.802495" lon="-4.725368">
        <ele>104.008</ele>
        <time>2021-10-16T17:42:04Z</time>
      </trkpt>
      <trkpt lat="37.802201" lon="-4.725213">
        <ele>103.329</ele>
        <time>2021-10-16T17:42:05Z</time>
      </trkpt>
      <trkpt lat="37.801615" lon="-4.724897">
        <ele>103.897</ele>
        <time>2021-10-16T17:42:07Z</time>
      </trkpt>
      <trkpt lat="37.801316" lon="-4.724734">
        <ele>103.866</ele>
        <time>2021-10-16T17:42:08Z</time>
      </trkpt>
      <trkpt lat="37.800740" lon="-4.724424">
        <ele>103.860</ele>
        <time>2021-10-16T17:42:10Z</time>
      </trkpt>
      <trkpt lat="37.800156" lon="-4.724104">
        <ele>104.195</ele>
        <time>2021-10-16T17:42:12Z</time>
      </trkpt>
      <trkpt lat="37.799862" lon="-4.723934">
        <ele>104.874</ele>
        <time>2021-10-16T17:42:13Z</time>
      </trkpt>
      <trkpt lat="37.799569" lon="-4.723755">
        <ele>105.276</ele>
        <time>2021-10-16T17:42:14Z</time>
      </trkpt>
      <trkpt lat="37.799041" lon="-4.723377">
        <ele>106.353</ele>
        <time>2021-10-16T17:42:16Z</time>
      </trkpt>
      <trkpt lat="37.798561" lon="-4.722917">
        <ele>106.437</ele>
        <time>2021-10-16T17:42:18Z</time>
      </trkpt>
      <trkpt lat="37.798127" lon="-4.722379">
        <ele>107.149</ele>
        <time>2021-10-16T17:42:20Z</time>
      </trkpt>
      <trkpt lat="37.797765" lon="-4.721782">
        <ele>106.413</ele>
        <time>2021-10-16T17:42:22Z</time>
      </trkpt>
      <trkpt lat="37.797609" lon="-4.721461">
        <ele>106.708</ele>
        <time>2021-10-16T17:42:23Z</time>
      </trkpt>
      <trkpt lat="37.797472" lon="-4.721134">
        <ele>107.421</ele>
        <time>2021-10-16T17:42:24Z</time>
      </trkpt>
      <trkpt lat="37.797256" lon="-4.720447">
        <ele>107.639</ele>
        <time>2021-10-16T17:42:26Z</time>
      </trkpt>
      <trkpt lat="37.797098" lon="-4.719759">
        <ele>108.348</ele>
        <time>2021-10-16T17:42:28Z</time>
      </trkpt>
      <trkpt lat="37.796982" lon="-4.719039">
        <ele>109.652</ele>
        <time>2021-10-16T17:42:30Z</time>
      </trkpt>
      <trkpt lat="37.796873" lon="-4.718287">
        <ele>110.927</ele>
        <time>2021-10-16T17:42:32Z</time>
      </trkpt>
      <trkpt lat="37.796763" lon="-4.717532">
        <ele>111.936</ele>
        <time>2021-10-16T17:42:34Z</time>
      </trkpt>
      <trkpt lat="37.796653" lon="-4.716781">
        <ele>114.048</ele>
        <time>2021-10-16T17:42:36Z</time>
      </trkpt>
      <trkpt lat="37.796599" lon="-4.716407">
        <ele>115.495</ele>
        <time>2021-10-16T17:42:37Z</time>
      </trkpt>
      <trkpt lat="37.796545" lon="-4.716028">
        <ele>116.449</ele>
        <time>2021-10-16T17:42:38Z</time>
      </trkpt>
      <trkpt lat="37.796438" lon="-4.715321">
        <ele>117.902</ele>
        <time>2021-10-16T17:42:40Z</time>
      </trkpt>
      <trkpt lat="37.796339" lon="-4.714644">
        <ele>118.922</ele>
        <time>2021-10-16T17:42:42Z</time>
      </trkpt>
      <trkpt lat="37.796290" lon="-4.714317">
        <ele>119.408</ele>
        <time>2021-10-16T17:42:43Z</time>
      </trkpt>
      <trkpt lat="37.796241" lon="-4.713986">
        <ele>119.542</ele>
        <time>2021-10-16T17:42:44Z</time>
      </trkpt>
      <trkpt lat="37.796140" lon="-4.713354">
        <ele>121.110</ele>
        <time>2021-10-16T17:42:46Z</time>
      </trkpt>
      <trkpt lat="37.796036" lon="-4.712718">
        <ele>121.529</ele>
        <time>2021-10-16T17:42:48Z</time>
      </trkpt>
      <trkpt lat="37.795917" lon="-4.712085">
        <ele>122.643</ele>
        <time>2021-10-16T17:42:50Z</time>
      </trkpt>
      <trkpt lat="37.795768" lon="-4.711470">
        <ele>120.948</ele>
        <time>2021-10-16T17:42:52Z</time>
      </trkpt>
      <trkpt lat="37.795561" lon="-4.710844">
        <ele>117.917</ele>
        <time>2021-10-16T17:42:54Z</time>
      </trkpt>
      <trkpt lat="37.795448" lon="-4.710528">
        <ele>116.099</ele>
        <time>2021-10-16T17:42:55Z</time>
      </trkpt>
      <trkpt lat="37.795336" lon="-4.710214">
        <ele>113.826</ele>
        <time>2021-10-16T17:42:56Z</time>
      </trkpt>
      <trkpt lat="37.795104" lon="-4.709650">
        <ele>109.869</ele>
        <time>2021-10-16T17:42:58Z</time>
      </trkpt>
      <trkpt lat="37.794830" lon="-4.709095">
        <ele>106.704</ele>
        <time>2021-10-16T17:43:00Z</time>
      </trkpt>
      <trkpt lat="37.794688" lon="-4.708812">
        <ele>105.524</ele>
        <time>2021-10-16T17:43:01Z</time>
      </trkpt>
      <trkpt lat="37.794538" lon="-4.708520">
        <ele>104.408</ele>
        <time>2021-10-16T17:43:02Z</time>
      </trkpt>
      <trkpt lat="37.794250" lon="-4.707948">
        <ele>103.094</ele>
        <time>2021-10-16T17:43:04Z</time>
      </trkpt>
      <trkpt lat="37.794104" lon="-4.707657">
        <ele>102.712</ele>
        <time>2021-10-16T17:43:05Z</time>
      </trkpt>
      <trkpt lat="37.793962" lon="-4.707367">
        <ele>102.951</ele>
        <time>2021-10-16T17:43:06Z</time>
      </trkpt>
      <trkpt lat="37.793675" lon="-4.706787">
        <ele>104.275</ele>
        <time>2021-10-16T17:43:08Z</time>
      </trkpt>
      <trkpt lat="37.793404" lon="-4.706233">
        <ele>105.370</ele>
        <time>2021-10-16T17:43:10Z</time>
      </trkpt>
      <trkpt lat="37.793260" lon="-4.705948">
        <ele>104.899</ele>
        <time>2021-10-16T17:43:11Z</time>
      </trkpt>
      <trkpt lat="37.793116" lon="-4.705661">
        <ele>103.621</ele>
        <time>2021-10-16T17:43:12Z</time>
      </trkpt>
      <trkpt lat="37.792816" lon="-4.705067">
        <ele>101.798</ele>
        <time>2021-10-16T17:43:14Z</time>
      </trkpt>
      <trkpt lat="37.792519" lon="-4.704476">
        <ele>98.889</ele>
        <time>2021-10-16T17:43:16Z</time>
      </trkpt>
      <trkpt lat="37.792230" lon="-4.703908">
        <ele>96.506</ele>
        <time>2021-10-16T17:43:18Z</time>
      </trkpt>
      <trkpt lat="37.792079" lon="-4.703642">
        <ele>95.426</ele>
        <time>2021-10-16T17:43:19Z</time>
      </trkpt>
      <trkpt lat="37.791914" lon="-4.703388">
        <ele>95.208</ele>
        <time>2021-10-16T17:43:20Z</time>
      </trkpt>
      <trkpt lat="37.791546" lon="-4.702943">
        <ele>95.066</ele>
        <time>2021-10-16T17:43:22Z</time>
      </trkpt>
      <trkpt lat="37.791344" lon="-4.702732">
        <ele>95.854</ele>
        <time>2021-10-16T17:43:23Z</time>
      </trkpt>
      <trkpt lat="37.791141" lon="-4.702525">
        <ele>96.893</ele>
        <time>2021-10-16T17:43:24Z</time>
      </trkpt>
      <trkpt lat="37.790941" lon="-4.702319">
        <ele>97.947</ele>
        <time>2021-10-16T17:43:25Z</time>
      </trkpt>
      <trkpt lat="37.790747" lon="-4.702117">
        <ele>98.942</ele>
        <time>2021-10-16T17:43:26Z</time>
      </trkpt>
      <trkpt lat="37.790404" lon="-4.701721">
        <ele>100.471</ele>
        <time>2021-10-16T17:43:28Z</time>
      </trkpt>
      <trkpt lat="37.790120" lon="-4.701256">
        <ele>102.533</ele>
        <time>2021-10-16T17:43:30Z</time>
      </trkpt>
      <trkpt lat="37.790006" lon="-4.700997">
        <ele>102.130</ele>
        <time>2021-10-16T17:43:31Z</time>
      </trkpt>
      <trkpt lat="37.789903" lon="-4.700730">
        <ele>100.734</ele>
        <time>2021-10-16T17:43:32Z</time>
      </trkpt>
      <trkpt lat="37.789709" lon="-4.700214">
        <ele>99.155</ele>
        <time>2021-10-16T17:43:34Z</time>
      </trkpt>
      <trkpt lat="37.789610" lon="-4.699947">
        <ele>98.910</ele>
        <time>2021-10-16T17:43:35Z</time>
      </trkpt>
      <trkpt lat="37.789400" lon="-4.699423">
        <ele>99.308</ele>
        <time>2021-10-16T17:43:37Z</time>
      </trkpt>
      <trkpt lat="37.789287" lon="-4.699158">
        <ele>100.221</ele>
        <time>2021-10-16T17:43:38Z</time>
      </trkpt>
      <trkpt lat="37.789080" lon="-4.698644">
        <ele>101.149</ele>
        <time>2021-10-16T17:43:40Z</time>
      </trkpt>
      <trkpt lat="37.788881" lon="-4.698102">
        <ele>100.878</ele>
        <time>2021-10-16T17:43:42Z</time>
      </trkpt>
      <trkpt lat="37.788706" lon="-4.697540">
        <ele>100.232</ele>
        <time>2021-10-16T17:43:44Z</time>
      </trkpt>
      <trkpt lat="37.788595" lon="-4.696947">
        <ele>97.597</ele>
        <time>2021-10-16T17:43:46Z</time>
      </trkpt>
      <trkpt lat="37.788552" lon="-4.696636">
        <ele>95.996</ele>
        <time>2021-10-16T17:43:47Z</time>
      </trkpt>
      <trkpt lat="37.788498" lon="-4.696329">
        <ele>94.818</ele>
        <time>2021-10-16T17:43:48Z</time>
      </trkpt>
      <trkpt lat="37.788354" lon="-4.695737">
        <ele>91.745</ele>
        <time>2021-10-16T17:43:50Z</time>
      </trkpt>
      <trkpt lat="37.788136" lon="-4.695228">
        <ele>90.647</ele>
        <time>2021-10-16T17:43:52Z</time>
      </trkpt>
      <trkpt lat="37.788000" lon="-4.694997">
        <ele>89.729</ele>
        <time>2021-10-16T17:43:53Z</time>
      </trkpt>
      <trkpt lat="37.787846" lon="-4.694782">
        <ele>89.321</ele>
        <time>2021-10-16T17:43:54Z</time>
      </trkpt>
      <trkpt lat="37.787529" lon="-4.694354">
        <ele>89.708</ele>
        <time>2021-10-16T17:43:56Z</time>
      </trkpt>
      <trkpt lat="37.787234" lon="-4.693895">
        <ele>89.392</ele>
        <time>2021-10-16T17:43:58Z</time>
      </trkpt>
      <trkpt lat="37.787087" lon="-4.693648">
        <ele>89.260</ele>
        <time>2021-10-16T17:43:59Z</time>
      </trkpt>
      <trkpt lat="37.786939" lon="-4.693397">
        <ele>89.419</ele>
        <time>2021-10-16T17:44:00Z</time>
      </trkpt>
      <trkpt lat="37.786790" lon="-4.693142">
        <ele>89.563</ele>
        <time>2021-10-16T17:44:01Z</time>
      </trkpt>
      <trkpt lat="37.786634" lon="-4.692879">
        <ele>89.278</ele>
        <time>2021-10-16T17:44:02Z</time>
      </trkpt>
      <trkpt lat="37.786319" lon="-4.692387">
        <ele>89.057</ele>
        <time>2021-10-16T17:44:04Z</time>
      </trkpt>
      <trkpt lat="37.786142" lon="-4.692155">
        <ele>89.549</ele>
        <time>2021-10-16T17:44:05Z</time>
      </trkpt>
      <trkpt lat="37.785764" lon="-4.691768">
        <ele>89.236</ele>
        <time>2021-10-16T17:44:07Z</time>
      </trkpt>
      <trkpt lat="37.785543" lon="-4.691622">
        <ele>89.069</ele>
        <time>2021-10-16T17:44:08Z</time>
      </trkpt>
      <trkpt lat="37.785078" lon="-4.691415">
        <ele>88.504</ele>
        <time>2021-10-16T17:44:10Z</time>
      </trkpt>
      <trkpt lat="37.784588" lon="-4.691232">
        <ele>88.524</ele>
        <time>2021-10-16T17:44:12Z</time>
      </trkpt>
      <trkpt lat="37.784340" lon="-4.691138">
        <ele>87.908</ele>
        <time>2021-10-16T17:44:13Z</time>
      </trkpt>
      <trkpt lat="37.784086" lon="-4.691041">
        <ele>87.724</ele>
        <time>2021-10-16T17:44:14Z</time>
      </trkpt>
      <trkpt lat="37.783597" lon="-4.690853">
        <ele>88.582</ele>
        <time>2021-10-16T17:44:16Z</time>
      </trkpt>
      <trkpt lat="37.783346" lon="-4.690755">
        <ele>88.081</ele>
        <time>2021-10-16T17:44:17Z</time>
      </trkpt>
      <trkpt lat="37.782867" lon="-4.690555">
        <ele>87.535</ele>
        <time>2021-10-16T17:44:19Z</time>
      </trkpt>
      <trkpt lat="37.782631" lon="-4.690440">
        <ele>87.530</ele>
        <time>2021-10-16T17:44:20Z</time>
      </trkpt>
      <trkpt lat="37.782201" lon="-4.690168">
        <ele>88.849</ele>
        <time>2021-10-16T17:44:22Z</time>
      </trkpt>
      <trkpt lat="37.781786" lon="-4.689848">
        <ele>88.791</ele>
        <time>2021-10-16T17:44:24Z</time>
      </trkpt>
      <trkpt lat="37.781399" lon="-4.689472">
        <ele>89.668</ele>
        <time>2021-10-16T17:44:26Z</time>
      </trkpt>
      <trkpt lat="37.781035" lon="-4.689098">
        <ele>90.927</ele>
        <time>2021-10-16T17:44:28Z</time>
      </trkpt>
      <trkpt lat="37.780692" lon="-4.688710">
        <ele>91.568</ele>
        <time>2021-10-16T17:44:30Z</time>
      </trkpt>
      <trkpt lat="37.780428" lon="-4.688244">
        <ele>90.914</ele>
        <time>2021-10-16T17:44:32Z</time>
      </trkpt>
      <trkpt lat="37.780230" lon="-4.687701">
        <ele>90.208</ele>
        <time>2021-10-16T17:44:34Z</time>
      </trkpt>
      <trkpt lat="37.780128" lon="-4.687410">
        <ele>90.880</ele>
        <time>2021-10-16T17:44:35Z</time>
      </trkpt>
      <trkpt lat="37.780024" lon="-4.687109">
        <ele>91.418</ele>
        <time>2021-10-16T17:44:36Z</time>
      </trkpt>
      <trkpt lat="37.779917" lon="-4.686805">
        <ele>91.797</ele>
        <time>2021-10-16T17:44:37Z</time>
      </trkpt>
      <trkpt lat="37.779806" lon="-4.686493">
        <ele>91.961</ele>
        <time>2021-10-16T17:44:38Z</time>
      </trkpt>
      <trkpt lat="37.779587" lon="-4.685896">
        <ele>92.236</ele>
        <time>2021-10-16T17:44:40Z</time>
      </trkpt>
      <trkpt lat="37.779473" lon="-4.685594">
        <ele>93.195</ele>
        <time>2021-10-16T17:44:41Z</time>
      </trkpt>
      <trkpt lat="37.779211" lon="-4.685036">
        <ele>92.717</ele>
        <time>2021-10-16T17:44:43Z</time>
      </trkpt>
      <trkpt lat="37.779054" lon="-4.684790">
        <ele>93.394</ele>
        <time>2021-10-16T17:44:44Z</time>
      </trkpt>
      <trkpt lat="37.778693" lon="-4.684391">
        <ele>94.462</ele>
        <time>2021-10-16T17:44:46Z</time>
      </trkpt>
      <trkpt lat="37.778494" lon="-4.684200">
        <ele>94.783</ele>
        <time>2021-10-16T17:44:47Z</time>
      </trkpt>
      <trkpt lat="37.778120" lon="-4.683816">
        <ele>95.611</ele>
        <time>2021-10-16T17:44:49Z</time>
      </trkpt>
      <trkpt lat="37.777949" lon="-4.683606">
        <ele>96.008</ele>
        <time>2021-10-16T17:44:50Z</time>
      </trkpt>
      <trkpt lat="37.777665" lon="-4.683148">
        <ele>95.394</ele>
        <time>2021-10-16T17:44:52Z</time>
      </trkpt>
      <trkpt lat="37.777543" lon="-4.682888">
        <ele>96.132</ele>
        <time>2021-10-16T17:44:53Z</time>
      </trkpt>
      <trkpt lat="37.777425" lon="-4.682621">
        <ele>96.661</ele>
        <time>2021-10-16T17:44:54Z</time>
      </trkpt>
      <trkpt lat="37.777177" lon="-4.682075">
        <ele>96.285</ele>
        <time>2021-10-16T17:44:56Z</time>
      </trkpt>
      <trkpt lat="37.776897" lon="-4.681612">
        <ele>96.570</ele>
        <time>2021-10-16T17:44:58Z</time>
      </trkpt>
      <trkpt lat="37.776734" lon="-4.681410">
        <ele>96.679</ele>
        <time>2021-10-16T17:44:59Z</time>
      </trkpt>
      <trkpt lat="37.776354" lon="-4.681068">
        <ele>97.341</ele>
        <time>2021-10-16T17:45:01Z</time>
      </trkpt>
      <trkpt lat="37.776133" lon="-4.680930">
        <ele>97.578</ele>
        <time>2021-10-16T17:45:02Z</time>
      </trkpt>
      <trkpt lat="37.775676" lon="-4.680698">
        <ele>97.616</ele>
        <time>2021-10-16T17:45:04Z</time>
      </trkpt>
      <trkpt lat="37.775433" lon="-4.680585">
        <ele>97.376</ele>
        <time>2021-10-16T17:45:05Z</time>
      </trkpt>
      <trkpt lat="37.775185" lon="-4.680473">
        <ele>97.513</ele>
        <time>2021-10-16T17:45:06Z</time>
      </trkpt>
      <trkpt lat="37.774935" lon="-4.680357">
        <ele>97.308</ele>
        <time>2021-10-16T17:45:07Z</time>
      </trkpt>
      <trkpt lat="37.774676" lon="-4.680235">
        <ele>96.499</ele>
        <time>2021-10-16T17:45:08Z</time>
      </trkpt>
      <trkpt lat="37.774171" lon="-4.679996">
        <ele>96.547</ele>
        <time>2021-10-16T17:45:10Z</time>
      </trkpt>
      <trkpt lat="37.773910" lon="-4.679873">
        <ele>97.146</ele>
        <time>2021-10-16T17:45:11Z</time>
      </trkpt>
      <trkpt lat="37.773386" lon="-4.679632">
        <ele>97.630</ele>
        <time>2021-10-16T17:45:13Z</time>
      </trkpt>
      <trkpt lat="37.773117" lon="-4.679510">
        <ele>97.145</ele>
        <time>2021-10-16T17:45:14Z</time>
      </trkpt>
      <trkpt lat="37.772609" lon="-4.679259">
        <ele>98.014</ele>
        <time>2021-10-16T17:45:16Z</time>
      </trkpt>
      <trkpt lat="37.772103" lon="-4.678956">
        <ele>97.986</ele>
        <time>2021-10-16T17:45:18Z</time>
      </trkpt>
      <trkpt lat="37.771592" lon="-4.678585">
        <ele>98.433</ele>
        <time>2021-10-16T17:45:20Z</time>
      </trkpt>
      <trkpt lat="37.771085" lon="-4.678192">
        <ele>99.347</ele>
        <time>2021-10-16T17:45:22Z</time>
      </trkpt>
      <trkpt lat="37.770822" lon="-4.677986">
        <ele>99.829</ele>
        <time>2021-10-16T17:45:23Z</time>
      </trkpt>
      <trkpt lat="37.770557" lon="-4.677780">
        <ele>100.921</ele>
        <time>2021-10-16T17:45:24Z</time>
      </trkpt>
      <trkpt lat="37.770296" lon="-4.677580">
        <ele>101.908</ele>
        <time>2021-10-16T17:45:25Z</time>
      </trkpt>
      <trkpt lat="37.770030" lon="-4.677378">
        <ele>102.412</ele>
        <time>2021-10-16T17:45:26Z</time>
      </trkpt>
      <trkpt lat="37.769532" lon="-4.676995">
        <ele>103.240</ele>
        <time>2021-10-16T17:45:28Z</time>
      </trkpt>
      <trkpt lat="37.769047" lon="-4.676567">
        <ele>105.419</ele>
        <time>2021-10-16T17:45:30Z</time>
      </trkpt>
      <trkpt lat="37.768819" lon="-4.676330">
        <ele>104.943</ele>
        <time>2021-10-16T17:45:31Z</time>
      </trkpt>
      <trkpt lat="37.768596" lon="-4.676071">
        <ele>104.638</ele>
        <time>2021-10-16T17:45:32Z</time>
      </trkpt>
      <trkpt lat="37.768181" lon="-4.675548">
        <ele>103.977</ele>
        <time>2021-10-16T17:45:34Z</time>
      </trkpt>
      <trkpt lat="37.767965" lon="-4.675277">
        <ele>103.189</ele>
        <time>2021-10-16T17:45:35Z</time>
      </trkpt>
      <trkpt lat="37.767749" lon="-4.675008">
        <ele>101.936</ele>
        <time>2021-10-16T17:45:36Z</time>
      </trkpt>
      <trkpt lat="37.767318" lon="-4.674467">
        <ele>101.256</ele>
        <time>2021-10-16T17:45:38Z</time>
      </trkpt>
      <trkpt lat="37.766910" lon="-4.673946">
        <ele>100.259</ele>
        <time>2021-10-16T17:45:40Z</time>
      </trkpt>
      <trkpt lat="37.766508" lon="-4.673429">
        <ele>100.014</ele>
        <time>2021-10-16T17:45:42Z</time>
      </trkpt>
      <trkpt lat="37.766103" lon="-4.672919">
        <ele>100.008</ele>
        <time>2021-10-16T17:45:44Z</time>
      </trkpt>
      <trkpt lat="37.765709" lon="-4.672433">
        <ele>99.813</ele>
        <time>2021-10-16T17:45:46Z</time>
      </trkpt>
      <trkpt lat="37.765509" lon="-4.672187">
        <ele>100.521</ele>
        <time>2021-10-16T17:45:47Z</time>
      </trkpt>
      <trkpt lat="37.765112" lon="-4.671697">
        <ele>101.380</ele>
        <time>2021-10-16T17:45:49Z</time>
      </trkpt>
      <trkpt lat="37.764909" lon="-4.671446">
        <ele>102.484</ele>
        <time>2021-10-16T17:45:50Z</time>
      </trkpt>
      <trkpt lat="37.764511" lon="-4.670967">
        <ele>100.959</ele>
        <time>2021-10-16T17:45:52Z</time>
      </trkpt>
      <trkpt lat="37.764065" lon="-4.670529">
        <ele>101.658</ele>
        <time>2021-10-16T17:45:54Z</time>
      </trkpt>
      <trkpt lat="37.763560" lon="-4.670179">
        <ele>102.350</ele>
        <time>2021-10-16T17:45:56Z</time>
      </trkpt>
      <trkpt lat="37.763064" lon="-4.669854">
        <ele>102.737</ele>
        <time>2021-10-16T17:45:58Z</time>
      </trkpt>
      <trkpt lat="37.762559" lon="-4.669523">
        <ele>103.623</ele>
        <time>2021-10-16T17:46:00Z</time>
      </trkpt>
      <trkpt lat="37.762054" lon="-4.669194">
        <ele>103.683</ele>
        <time>2021-10-16T17:46:02Z</time>
      </trkpt>
      <trkpt lat="37.761569" lon="-4.668879">
        <ele>104.411</ele>
        <time>2021-10-16T17:46:04Z</time>
      </trkpt>
      <trkpt lat="37.761112" lon="-4.668558">
        <ele>104.908</ele>
        <time>2021-10-16T17:46:06Z</time>
      </trkpt>
      <trkpt lat="37.760907" lon="-4.668375">
        <ele>105.960</ele>
        <time>2021-10-16T17:46:07Z</time>
      </trkpt>
      <trkpt lat="37.760712" lon="-4.668162">
        <ele>106.628</ele>
        <time>2021-10-16T17:46:08Z</time>
      </trkpt>
      <trkpt lat="37.760388" lon="-4.667662">
        <ele>107.147</ele>
        <time>2021-10-16T17:46:10Z</time>
      </trkpt>
      <trkpt lat="37.760146" lon="-4.667048">
        <ele>105.981</ele>
        <time>2021-10-16T17:46:12Z</time>
      </trkpt>
      <trkpt lat="37.760045" lon="-4.666712">
        <ele>106.466</ele>
        <time>2021-10-16T17:46:13Z</time>
      </trkpt>
      <trkpt lat="37.759951" lon="-4.666366">
        <ele>106.465</ele>
        <time>2021-10-16T17:46:14Z</time>
      </trkpt>
      <trkpt lat="37.759777" lon="-4.665719">
        <ele>106.537</ele>
        <time>2021-10-16T17:46:16Z</time>
      </trkpt>
      <trkpt lat="37.759665" lon="-4.665075">
        <ele>109.714</ele>
        <time>2021-10-16T17:46:18Z</time>
      </trkpt>
      <trkpt lat="37.759675" lon="-4.664412">
        <ele>112.864</ele>
        <time>2021-10-16T17:46:20Z</time>
      </trkpt>
      <trkpt lat="37.759763" lon="-4.663753">
        <ele>116.206</ele>
        <time>2021-10-16T17:46:22Z</time>
      </trkpt>
      <trkpt lat="37.759807" lon="-4.663415">
        <ele>117.816</ele>
        <time>2021-10-16T17:46:23Z</time>
      </trkpt>
      <trkpt lat="37.759849" lon="-4.663075">
        <ele>118.908</ele>
        <time>2021-10-16T17:46:24Z</time>
      </trkpt>
      <trkpt lat="37.759927" lon="-4.662381">
        <ele>123.024</ele>
        <time>2021-10-16T17:46:26Z</time>
      </trkpt>
      <trkpt lat="37.759964" lon="-4.661745">
        <ele>125.682</ele>
        <time>2021-10-16T17:46:28Z</time>
      </trkpt>
      <trkpt lat="37.759931" lon="-4.661104">
        <ele>127.771</ele>
        <time>2021-10-16T17:46:30Z</time>
      </trkpt>
      <trkpt lat="37.759889" lon="-4.660775">
        <ele>128.445</ele>
        <time>2021-10-16T17:46:31Z</time>
      </trkpt>
      <trkpt lat="37.759834" lon="-4.660431">
        <ele>129.630</ele>
        <time>2021-10-16T17:46:32Z</time>
      </trkpt>
      <trkpt lat="37.759732" lon="-4.659768">
        <ele>131.649</ele>
        <time>2021-10-16T17:46:34Z</time>
      </trkpt>
      <trkpt lat="37.759627" lon="-4.659091">
        <ele>132.011</ele>
        <time>2021-10-16T17:46:36Z</time>
      </trkpt>
      <trkpt lat="37.759477" lon="-4.658442">
        <ele>133.038</ele>
        <time>2021-10-16T17:46:38Z</time>
      </trkpt>
      <trkpt lat="37.759229" lon="-4.657862">
        <ele>133.465</ele>
        <time>2021-10-16T17:46:40Z</time>
      </trkpt>
      <trkpt lat="37.758858" lon="-4.657342">
        <ele>133.068</ele>
        <time>2021-10-16T17:46:42Z</time>
      </trkpt>
      <trkpt lat="37.758385" lon="-4.656906">
        <ele>132.214</ele>
        <time>2021-10-16T17:46:44Z</time>
      </trkpt>
      <trkpt lat="37.757901" lon="-4.656520">
        <ele>130.908</ele>
        <time>2021-10-16T17:46:46Z</time>
      </trkpt>
      <trkpt lat="37.757653" lon="-4.656320">
        <ele>130.584</ele>
        <time>2021-10-16T17:46:47Z</time>
      </trkpt>
      <trkpt lat="37.757411" lon="-4.656122">
        <ele>130.782</ele>
        <time>2021-10-16T17:46:48Z</time>
      </trkpt>
      <trkpt lat="37.756934" lon="-4.655719">
        <ele>130.421</ele>
        <time>2021-10-16T17:46:50Z</time>
      </trkpt>
      <trkpt lat="37.756474" lon="-4.655347">
        <ele>128.985</ele>
        <time>2021-10-16T17:46:52Z</time>
      </trkpt>
      <trkpt lat="37.755997" lon="-4.655027">
        <ele>127.910</ele>
        <time>2021-10-16T17:46:54Z</time>
      </trkpt>
      <trkpt lat="37.755746" lon="-4.654915">
        <ele>127.319</ele>
        <time>2021-10-16T17:46:55Z</time>
      </trkpt>
      <trkpt lat="37.755482" lon="-4.654846">
        <ele>127.191</ele>
        <time>2021-10-16T17:46:56Z</time>
      </trkpt>
      <trkpt lat="37.754984" lon="-4.654826">
        <ele>127.638</ele>
        <time>2021-10-16T17:46:58Z</time>
      </trkpt>
      <trkpt lat="37.754741" lon="-4.654869">
        <ele>127.541</ele>
        <time>2021-10-16T17:46:59Z</time>
      </trkpt>
      <trkpt lat="37.754300" lon="-4.655035">
        <ele>127.281</ele>
        <time>2021-10-16T17:47:01Z</time>
      </trkpt>
      <trkpt lat="37.754080" lon="-4.655157">
        <ele>126.209</ele>
        <time>2021-10-16T17:47:02Z</time>
      </trkpt>
      <trkpt lat="37.753650" lon="-4.655435">
        <ele>126.108</ele>
        <time>2021-10-16T17:47:04Z</time>
      </trkpt>
      <trkpt lat="37.753419" lon="-4.655581">
        <ele>126.352</ele>
        <time>2021-10-16T17:47:05Z</time>
      </trkpt>
      <trkpt lat="37.753180" lon="-4.655729">
        <ele>125.580</ele>
        <time>2021-10-16T17:47:06Z</time>
      </trkpt>
      <trkpt lat="37.752680" lon="-4.656027">
        <ele>125.219</ele>
        <time>2021-10-16T17:47:08Z</time>
      </trkpt>
      <trkpt lat="37.752188" lon="-4.656328">
        <ele>124.773</ele>
        <time>2021-10-16T17:47:10Z</time>
      </trkpt>
      <trkpt lat="37.751699" lon="-4.656627">
        <ele>125.548</ele>
        <time>2021-10-16T17:47:12Z</time>
      </trkpt>
      <trkpt lat="37.751457" lon="-4.656781">
        <ele>125.867</ele>
        <time>2021-10-16T17:47:13Z</time>
      </trkpt>
      <trkpt lat="37.751222" lon="-4.656929">
        <ele>125.989</ele>
        <time>2021-10-16T17:47:14Z</time>
      </trkpt>
      <trkpt lat="37.750782" lon="-4.657191">
        <ele>125.316</ele>
        <time>2021-10-16T17:47:16Z</time>
      </trkpt>
      <trkpt lat="37.750319" lon="-4.657400">
        <ele>125.318</ele>
        <time>2021-10-16T17:47:18Z</time>
      </trkpt>
      <trkpt lat="37.750074" lon="-4.657470">
        <ele>125.098</ele>
        <time>2021-10-16T17:47:19Z</time>
      </trkpt>
      <trkpt lat="37.749813" lon="-4.657500">
        <ele>125.217</ele>
        <time>2021-10-16T17:47:20Z</time>
      </trkpt>
      <trkpt lat="37.749296" lon="-4.657444">
        <ele>124.508</ele>
        <time>2021-10-16T17:47:22Z</time>
      </trkpt>
      <trkpt lat="37.749034" lon="-4.657364">
        <ele>124.519</ele>
        <time>2021-10-16T17:47:23Z</time>
      </trkpt>
      <trkpt lat="37.748547" lon="-4.657072">
        <ele>123.957</ele>
        <time>2021-10-16T17:47:25Z</time>
      </trkpt>
      <trkpt lat="37.748313" lon="-4.656864">
        <ele>124.386</ele>
        <time>2021-10-16T17:47:26Z</time>
      </trkpt>
      <trkpt lat="37.747903" lon="-4.656404">
        <ele>123.340</ele>
        <time>2021-10-16T17:47:28Z</time>
      </trkpt>
      <trkpt lat="37.747699" lon="-4.656153">
        <ele>122.665</ele>
        <time>2021-10-16T17:47:29Z</time>
      </trkpt>
      <trkpt lat="37.747285" lon="-4.655672">
        <ele>122.994</ele>
        <time>2021-10-16T17:47:31Z</time>
      </trkpt>
      <trkpt lat="37.747077" lon="-4.655438">
        <ele>121.986</ele>
        <time>2021-10-16T17:47:32Z</time>
      </trkpt>
      <trkpt lat="37.746687" lon="-4.655014">
        <ele>119.813</ele>
        <time>2021-10-16T17:47:34Z</time>
      </trkpt>
      <trkpt lat="37.746276" lon="-4.654603">
        <ele>118.274</ele>
        <time>2021-10-16T17:47:36Z</time>
      </trkpt>
      <trkpt lat="37.745836" lon="-4.654260">
        <ele>116.356</ele>
        <time>2021-10-16T17:47:38Z</time>
      </trkpt>
      <trkpt lat="37.745391" lon="-4.653983">
        <ele>117.621</ele>
        <time>2021-10-16T17:47:40Z</time>
      </trkpt>
      <trkpt lat="37.744921" lon="-4.653717">
        <ele>119.508</ele>
        <time>2021-10-16T17:47:42Z</time>
      </trkpt>
      <trkpt lat="37.744683" lon="-4.653581">
        <ele>120.365</ele>
        <time>2021-10-16T17:47:43Z</time>
      </trkpt>
      <trkpt lat="37.744440" lon="-4.653440">
        <ele>121.773</ele>
        <time>2021-10-16T17:47:44Z</time>
      </trkpt>
      <trkpt lat="37.743976" lon="-4.653159">
        <ele>122.732</ele>
        <time>2021-10-16T17:47:46Z</time>
      </trkpt>
      <trkpt lat="37.743510" lon="-4.652873">
        <ele>124.466</ele>
        <time>2021-10-16T17:47:48Z</time>
      </trkpt>
      <trkpt lat="37.743277" lon="-4.652733">
        <ele>124.971</ele>
        <time>2021-10-16T17:47:49Z</time>
      </trkpt>
      <trkpt lat="37.743038" lon="-4.652587">
        <ele>124.950</ele>
        <time>2021-10-16T17:47:50Z</time>
      </trkpt>
      <trkpt lat="37.742565" lon="-4.652300">
        <ele>125.292</ele>
        <time>2021-10-16T17:47:52Z</time>
      </trkpt>
      <trkpt lat="37.742083" lon="-4.652007">
        <ele>126.829</ele>
        <time>2021-10-16T17:47:54Z</time>
      </trkpt>
      <trkpt lat="37.741597" lon="-4.651721">
        <ele>127.274</ele>
        <time>2021-10-16T17:47:56Z</time>
      </trkpt>
      <trkpt lat="37.741119" lon="-4.651438">
        <ele>128.456</ele>
        <time>2021-10-16T17:47:58Z</time>
      </trkpt>
      <trkpt lat="37.740872" lon="-4.651289">
        <ele>129.521</ele>
        <time>2021-10-16T17:47:59Z</time>
      </trkpt>
      <trkpt lat="37.740628" lon="-4.651143">
        <ele>129.908</ele>
        <time>2021-10-16T17:48:00Z</time>
      </trkpt>
      <trkpt lat="37.740391" lon="-4.651000">
        <ele>129.635</ele>
        <time>2021-10-16T17:48:01Z</time>
      </trkpt>
      <trkpt lat="37.740155" lon="-4.650849">
        <ele>130.463</ele>
        <time>2021-10-16T17:48:02Z</time>
      </trkpt>
      <trkpt lat="37.739736" lon="-4.650520">
        <ele>132.122</ele>
        <time>2021-10-16T17:48:04Z</time>
      </trkpt>
      <trkpt lat="37.739352" lon="-4.650079">
        <ele>132.846</ele>
        <time>2021-10-16T17:48:06Z</time>
      </trkpt>
      <trkpt lat="37.739180" lon="-4.649815">
        <ele>132.961</ele>
        <time>2021-10-16T17:48:07Z</time>
      </trkpt>
      <trkpt lat="37.739012" lon="-4.649527">
        <ele>133.030</ele>
        <time>2021-10-16T17:48:08Z</time>
      </trkpt>
      <trkpt lat="37.738697" lon="-4.648934">
        <ele>133.982</ele>
        <time>2021-10-16T17:48:10Z</time>
      </trkpt>
      <trkpt lat="37.738534" lon="-4.648630">
        <ele>133.789</ele>
        <time>2021-10-16T17:48:11Z</time>
      </trkpt>
      <trkpt lat="37.738205" lon="-4.648017">
        <ele>132.845</ele>
        <time>2021-10-16T17:48:13Z</time>
      </trkpt>
      <trkpt lat="37.738036" lon="-4.647701">
        <ele>132.747</ele>
        <time>2021-10-16T17:48:14Z</time>
      </trkpt>
      <trkpt lat="37.737707" lon="-4.647104">
        <ele>133.511</ele>
        <time>2021-10-16T17:48:16Z</time>
      </trkpt>
      <trkpt lat="37.737357" lon="-4.646529">
        <ele>133.108</ele>
        <time>2021-10-16T17:48:18Z</time>
      </trkpt>
      <trkpt lat="37.737189" lon="-4.646240">
        <ele>133.172</ele>
        <time>2021-10-16T17:48:19Z</time>
      </trkpt>
      <trkpt lat="37.737024" lon="-4.645942">
        <ele>132.580</ele>
        <time>2021-10-16T17:48:20Z</time>
      </trkpt>
      <trkpt lat="37.736711" lon="-4.645374">
        <ele>132.859</ele>
        <time>2021-10-16T17:48:22Z</time>
      </trkpt>
      <trkpt lat="37.736549" lon="-4.645086">
        <ele>133.113</ele>
        <time>2021-10-16T17:48:23Z</time>
      </trkpt>
      <trkpt lat="37.736236" lon="-4.644523">
        <ele>133.018</ele>
        <time>2021-10-16T17:48:25Z</time>
      </trkpt>
      <trkpt lat="37.736084" lon="-4.644243">
        <ele>133.767</ele>
        <time>2021-10-16T17:48:26Z</time>
      </trkpt>
      <trkpt lat="37.735810" lon="-4.643755">
        <ele>133.499</ele>
        <time>2021-10-16T17:48:28Z</time>
      </trkpt>
      <trkpt lat="37.735678" lon="-4.643521">
        <ele>133.546</ele>
        <time>2021-10-16T17:48:29Z</time>
      </trkpt>
      <trkpt lat="37.735439" lon="-4.643083">
        <ele>133.414</ele>
        <time>2021-10-16T17:48:31Z</time>
      </trkpt>
      <trkpt lat="37.735330" lon="-4.642852">
        <ele>132.954</ele>
        <time>2021-10-16T17:48:32Z</time>
      </trkpt>
      <trkpt lat="37.735175" lon="-4.642361">
        <ele>132.609</ele>
        <time>2021-10-16T17:48:34Z</time>
      </trkpt>
      <trkpt lat="37.735120" lon="-4.642091">
        <ele>132.708</ele>
        <time>2021-10-16T17:48:35Z</time>
      </trkpt>
      <trkpt lat="37.735013" lon="-4.641524">
        <ele>133.659</ele>
        <time>2021-10-16T17:48:37Z</time>
      </trkpt>
      <trkpt lat="37.734951" lon="-4.641217">
        <ele>133.547</ele>
        <time>2021-10-16T17:48:38Z</time>
      </trkpt>
      <trkpt lat="37.734827" lon="-4.640621">
        <ele>133.626</ele>
        <time>2021-10-16T17:48:40Z</time>
      </trkpt>
      <trkpt lat="37.734705" lon="-4.640006">
        <ele>134.090</ele>
        <time>2021-10-16T17:48:42Z</time>
      </trkpt>
      <trkpt lat="37.734584" lon="-4.639389">
        <ele>136.045</ele>
        <time>2021-10-16T17:48:44Z</time>
      </trkpt>
      <trkpt lat="37.734449" lon="-4.638803">
        <ele>136.214</ele>
        <time>2021-10-16T17:48:46Z</time>
      </trkpt>
      <trkpt lat="37.734359" lon="-4.638534">
        <ele>136.626</ele>
        <time>2021-10-16T17:48:47Z</time>
      </trkpt>
      <trkpt lat="37.734245" lon="-4.638298">
        <ele>136.693</ele>
        <time>2021-10-16T17:48:48Z</time>
      </trkpt>
      <trkpt lat="37.734111" lon="-4.638099">
        <ele>136.811</ele>
        <time>2021-10-16T17:48:49Z</time>
      </trkpt>
      <trkpt lat="37.733965" lon="-4.637925">
        <ele>136.521</ele>
        <time>2021-10-16T17:48:50Z</time>
      </trkpt>
      <trkpt lat="37.733688" lon="-4.637625">
        <ele>136.803</ele>
        <time>2021-10-16T17:48:52Z</time>
      </trkpt>
      <trkpt lat="37.733435" lon="-4.637344">
        <ele>137.008</ele>
        <time>2021-10-16T17:48:54Z</time>
      </trkpt>
      <trkpt lat="37.733204" lon="-4.637078">
        <ele>136.959</ele>
        <time>2021-10-16T17:48:56Z</time>
      </trkpt>
      <trkpt lat="37.732981" lon="-4.636817">
        <ele>138.477</ele>
        <time>2021-10-16T17:48:58Z</time>
      </trkpt>
      <trkpt lat="37.732748" lon="-4.636539">
        <ele>137.936</ele>
        <time>2021-10-16T17:49:00Z</time>
      </trkpt>
      <trkpt lat="37.732505" lon="-4.636246">
        <ele>138.450</ele>
        <time>2021-10-16T17:49:02Z</time>
      </trkpt>
      <trkpt lat="37.732252" lon="-4.635940">
        <ele>137.035</ele>
        <time>2021-10-16T17:49:04Z</time>
      </trkpt>
      <trkpt lat="37.731976" lon="-4.635636">
        <ele>135.744</ele>
        <time>2021-10-16T17:49:06Z</time>
      </trkpt>
      <trkpt lat="37.731682" lon="-4.635382">
        <ele>133.396</ele>
        <time>2021-10-16T17:49:08Z</time>
      </trkpt>
      <trkpt lat="37.731351" lon="-4.635191">
        <ele>132.453</ele>
        <time>2021-10-16T17:49:10Z</time>
      </trkpt>
      <trkpt lat="37.730962" lon="-4.635067">
        <ele>129.847</ele>
        <time>2021-10-16T17:49:12Z</time>
      </trkpt>
      <trkpt lat="37.730538" lon="-4.635060">
        <ele>127.629</ele>
        <time>2021-10-16T17:49:14Z</time>
      </trkpt>
      <trkpt lat="37.730123" lon="-4.635189">
        <ele>125.221</ele>
        <time>2021-10-16T17:49:16Z</time>
      </trkpt>
      <trkpt lat="37.729920" lon="-4.635298">
        <ele>124.308</ele>
        <time>2021-10-16T17:49:17Z</time>
      </trkpt>
      <trkpt lat="37.729721" lon="-4.635429">
        <ele>123.412</ele>
        <time>2021-10-16T17:49:18Z</time>
      </trkpt>
      <trkpt lat="37.729523" lon="-4.635567">
        <ele>121.950</ele>
        <time>2021-10-16T17:49:19Z</time>
      </trkpt>
      <trkpt lat="37.729321" lon="-4.635710">
        <ele>120.199</ele>
        <time>2021-10-16T17:49:20Z</time>
      </trkpt>
      <trkpt lat="37.728930" lon="-4.635996">
        <ele>118.023</ele>
        <time>2021-10-16T17:49:22Z</time>
      </trkpt>
      <trkpt lat="37.728526" lon="-4.636293">
        <ele>116.218</ele>
        <time>2021-10-16T17:49:24Z</time>
      </trkpt>
      <trkpt lat="37.728137" lon="-4.636575">
        <ele>115.137</ele>
        <time>2021-10-16T17:49:26Z</time>
      </trkpt>
      <trkpt lat="37.727777" lon="-4.636830">
        <ele>113.799</ele>
        <time>2021-10-16T17:49:28Z</time>
      </trkpt>
      <trkpt lat="37.727409" lon="-4.637090">
        <ele>113.116</ele>
        <time>2021-10-16T17:49:30Z</time>
      </trkpt>
      <trkpt lat="37.727226" lon="-4.637215">
        <ele>112.561</ele>
        <time>2021-10-16T17:49:31Z</time>
      </trkpt>
      <trkpt lat="37.727040" lon="-4.637342">
        <ele>112.421</ele>
        <time>2021-10-16T17:49:32Z</time>
      </trkpt>
      <trkpt lat="37.726676" lon="-4.637565">
        <ele>112.513</ele>
        <time>2021-10-16T17:49:34Z</time>
      </trkpt>
      <trkpt lat="37.726275" lon="-4.637722">
        <ele>112.908</ele>
        <time>2021-10-16T17:49:36Z</time>
      </trkpt>
      <trkpt lat="37.725832" lon="-4.637780">
        <ele>112.464</ele>
        <time>2021-10-16T17:49:38Z</time>
      </trkpt>
      <trkpt lat="37.725366" lon="-4.637723">
        <ele>111.912</ele>
        <time>2021-10-16T17:49:40Z</time>
      </trkpt>
      <trkpt lat="37.725118" lon="-4.637655">
        <ele>111.441</ele>
        <time>2021-10-16T17:49:41Z</time>
      </trkpt>
      <trkpt lat="37.724865" lon="-4.637577">
        <ele>111.445</ele>
        <time>2021-10-16T17:49:42Z</time>
      </trkpt>
      <trkpt lat="37.724609" lon="-4.637488">
        <ele>111.030</ele>
        <time>2021-10-16T17:49:43Z</time>
      </trkpt>
      <trkpt lat="37.724342" lon="-4.637391">
        <ele>110.769</ele>
        <time>2021-10-16T17:49:44Z</time>
      </trkpt>
      <trkpt lat="37.723820" lon="-4.637207">
        <ele>111.341</ele>
        <time>2021-10-16T17:49:46Z</time>
      </trkpt>
      <trkpt lat="37.723301" lon="-4.637034">
        <ele>110.718</ele>
        <time>2021-10-16T17:49:48Z</time>
      </trkpt>
      <trkpt lat="37.723047" lon="-4.636946">
        <ele>111.046</ele>
        <time>2021-10-16T17:49:49Z</time>
      </trkpt>
      <trkpt lat="37.722788" lon="-4.636856">
        <ele>111.488</ele>
        <time>2021-10-16T17:49:50Z</time>
      </trkpt>
      <trkpt lat="37.722304" lon="-4.636689">
        <ele>111.916</ele>
        <time>2021-10-16T17:49:52Z</time>
      </trkpt>
      <trkpt lat="37.722061" lon="-4.636595">
        <ele>112.308</ele>
        <time>2021-10-16T17:49:53Z</time>
      </trkpt>
      <trkpt lat="37.721586" lon="-4.636350">
        <ele>111.562</ele>
        <time>2021-10-16T17:49:55Z</time>
      </trkpt>
      <trkpt lat="37.721345" lon="-4.636188">
        <ele>111.110</ele>
        <time>2021-10-16T17:49:56Z</time>
      </trkpt>
      <trkpt lat="37.720894" lon="-4.635800">
        <ele>111.139</ele>
        <time>2021-10-16T17:49:58Z</time>
      </trkpt>
      <trkpt lat="37.720457" lon="-4.635313">
        <ele>110.123</ele>
        <time>2021-10-16T17:50:00Z</time>
      </trkpt>
      <trkpt lat="37.720242" lon="-4.635046">
        <ele>110.038</ele>
        <time>2021-10-16T17:50:01Z</time>
      </trkpt>
      <trkpt lat="37.720027" lon="-4.634772">
        <ele>110.387</ele>
        <time>2021-10-16T17:50:02Z</time>
      </trkpt>
      <trkpt lat="37.719612" lon="-4.634242">
        <ele>109.529</ele>
        <time>2021-10-16T17:50:04Z</time>
      </trkpt>
      <trkpt lat="37.719397" lon="-4.633976">
        <ele>109.726</ele>
        <time>2021-10-16T17:50:05Z</time>
      </trkpt>
      <trkpt lat="37.719184" lon="-4.633712">
        <ele>110.376</ele>
        <time>2021-10-16T17:50:06Z</time>
      </trkpt>
      <trkpt lat="37.718758" lon="-4.633185">
        <ele>109.690</ele>
        <time>2021-10-16T17:50:08Z</time>
      </trkpt>
      <trkpt lat="37.718346" lon="-4.632671">
        <ele>110.219</ele>
        <time>2021-10-16T17:50:10Z</time>
      </trkpt>
      <trkpt lat="37.718138" lon="-4.632413">
        <ele>110.008</ele>
        <time>2021-10-16T17:50:11Z</time>
      </trkpt>
      <trkpt lat="37.717724" lon="-4.631915">
        <ele>111.225</ele>
        <time>2021-10-16T17:50:13Z</time>
      </trkpt>
      <trkpt lat="37.717521" lon="-4.631670">
        <ele>112.123</ele>
        <time>2021-10-16T17:50:14Z</time>
      </trkpt>
      <trkpt lat="37.717164" lon="-4.631223">
        <ele>112.672</ele>
        <time>2021-10-16T17:50:16Z</time>
      </trkpt>
      <trkpt lat="37.716803" lon="-4.630776">
        <ele>114.316</ele>
        <time>2021-10-16T17:50:18Z</time>
      </trkpt>
      <trkpt lat="37.716412" lon="-4.630334">
        <ele>115.341</ele>
        <time>2021-10-16T17:50:20Z</time>
      </trkpt>
      <trkpt lat="37.715974" lon="-4.629977">
        <ele>116.710</ele>
        <time>2021-10-16T17:50:22Z</time>
      </trkpt>
      <trkpt lat="37.715729" lon="-4.629828">
        <ele>117.442</ele>
        <time>2021-10-16T17:50:23Z</time>
      </trkpt>
      <trkpt lat="37.715478" lon="-4.629686">
        <ele>117.999</ele>
        <time>2021-10-16T17:50:24Z</time>
      </trkpt>
      <trkpt lat="37.715224" lon="-4.629547">
        <ele>118.279</ele>
        <time>2021-10-16T17:50:25Z</time>
      </trkpt>
      <trkpt lat="37.714964" lon="-4.629403">
        <ele>117.705</ele>
        <time>2021-10-16T17:50:26Z</time>
      </trkpt>
      <trkpt lat="37.714472" lon="-4.629131">
        <ele>117.925</ele>
        <time>2021-10-16T17:50:28Z</time>
      </trkpt>
      <trkpt lat="37.713986" lon="-4.628868">
        <ele>117.708</ele>
        <time>2021-10-16T17:50:30Z</time>
      </trkpt>
      <trkpt lat="37.713752" lon="-4.628739">
        <ele>118.015</ele>
        <time>2021-10-16T17:50:31Z</time>
      </trkpt>
      <trkpt lat="37.713516" lon="-4.628608">
        <ele>117.923</ele>
        <time>2021-10-16T17:50:32Z</time>
      </trkpt>
      <trkpt lat="37.713088" lon="-4.628330">
        <ele>117.412</ele>
        <time>2021-10-16T17:50:34Z</time>
      </trkpt>
      <trkpt lat="37.712714" lon="-4.627964">
        <ele>115.636</ele>
        <time>2021-10-16T17:50:36Z</time>
      </trkpt>
      <trkpt lat="37.712551" lon="-4.627733">
        <ele>115.331</ele>
        <time>2021-10-16T17:50:37Z</time>
      </trkpt>
      <trkpt lat="37.712397" lon="-4.627472">
        <ele>115.270</ele>
        <time>2021-10-16T17:50:38Z</time>
      </trkpt>
      <trkpt lat="37.712167" lon="-4.626896">
        <ele>115.472</ele>
        <time>2021-10-16T17:50:40Z</time>
      </trkpt>
      <trkpt lat="37.712001" lon="-4.626253">
        <ele>115.789</ele>
        <time>2021-10-16T17:50:42Z</time>
      </trkpt>
      <trkpt lat="37.711837" lon="-4.625585">
        <ele>116.816</ele>
        <time>2021-10-16T17:50:44Z</time>
      </trkpt>
      <trkpt lat="37.711663" lon="-4.624938">
        <ele>116.476</ele>
        <time>2021-10-16T17:50:46Z</time>
      </trkpt>
      <trkpt lat="37.711453" lon="-4.624303">
        <ele>116.613</ele>
        <time>2021-10-16T17:50:48Z</time>
      </trkpt>
      <trkpt lat="37.711155" lon="-4.623747">
        <ele>116.308</ele>
        <time>2021-10-16T17:50:50Z</time>
      </trkpt>
      <trkpt lat="37.710776" lon="-4.623311">
        <ele>116.699</ele>
        <time>2021-10-16T17:50:52Z</time>
      </trkpt>
      <trkpt lat="37.710561" lon="-4.623123">
        <ele>116.487</ele>
        <time>2021-10-16T17:50:53Z</time>
      </trkpt>
      <trkpt lat="37.710339" lon="-4.622953">
        <ele>116.466</ele>
        <time>2021-10-16T17:50:54Z</time>
      </trkpt>
      <trkpt lat="37.710116" lon="-4.622784">
        <ele>116.920</ele>
        <time>2021-10-16T17:50:55Z</time>
      </trkpt>
      <trkpt lat="37.709886" lon="-4.622607">
        <ele>117.495</ele>
        <time>2021-10-16T17:50:56Z</time>
      </trkpt>
      <trkpt lat="37.709444" lon="-4.622263">
        <ele>116.754</ele>
        <time>2021-10-16T17:50:58Z</time>
      </trkpt>
      <trkpt lat="37.708985" lon="-4.621912">
        <ele>117.476</ele>
        <time>2021-10-16T17:51:00Z</time>
      </trkpt>
      <trkpt lat="37.708750" lon="-4.621725">
        <ele>117.513</ele>
        <time>2021-10-16T17:51:01Z</time>
      </trkpt>
      <trkpt lat="37.708503" lon="-4.621530">
        <ele>117.419</ele>
        <time>2021-10-16T17:51:02Z</time>
      </trkpt>
      <trkpt lat="37.708013" lon="-4.621155">
        <ele>118.009</ele>
        <time>2021-10-16T17:51:04Z</time>
      </trkpt>
      <trkpt lat="37.707762" lon="-4.620962">
        <ele>118.019</ele>
        <time>2021-10-16T17:51:05Z</time>
      </trkpt>
      <trkpt lat="37.707271" lon="-4.620584">
        <ele>117.908</ele>
        <time>2021-10-16T17:51:07Z</time>
      </trkpt>
      <trkpt lat="37.707019" lon="-4.620389">
        <ele>117.749</ele>
        <time>2021-10-16T17:51:08Z</time>
      </trkpt>
      <trkpt lat="37.706558" lon="-4.620022">
        <ele>117.417</ele>
        <time>2021-10-16T17:51:10Z</time>
      </trkpt>
      <trkpt lat="37.706120" lon="-4.619638">
        <ele>117.756</ele>
        <time>2021-10-16T17:51:12Z</time>
      </trkpt>
      <trkpt lat="37.705921" lon="-4.619418">
        <ele>117.710</ele>
        <time>2021-10-16T17:51:13Z</time>
      </trkpt>
      <trkpt lat="37.705734" lon="-4.619169">
        <ele>117.125</ele>
        <time>2021-10-16T17:51:14Z</time>
      </trkpt>
      <trkpt lat="37.705443" lon="-4.618622">
        <ele>117.434</ele>
        <time>2021-10-16T17:51:16Z</time>
      </trkpt>
      <trkpt lat="37.705330" lon="-4.618313">
        <ele>117.156</ele>
        <time>2021-10-16T17:51:17Z</time>
      </trkpt>
      <trkpt lat="37.705233" lon="-4.617993">
        <ele>117.453</ele>
        <time>2021-10-16T17:51:18Z</time>
      </trkpt>
      <trkpt lat="37.705150" lon="-4.617665">
        <ele>117.586</ele>
        <time>2021-10-16T17:51:19Z</time>
      </trkpt>
      <trkpt lat="37.705066" lon="-4.617323">
        <ele>117.760</ele>
        <time>2021-10-16T17:51:20Z</time>
      </trkpt>
      <trkpt lat="37.704905" lon="-4.616657">
        <ele>117.426</ele>
        <time>2021-10-16T17:51:22Z</time>
      </trkpt>
      <trkpt lat="37.704733" lon="-4.615972">
        <ele>118.208</ele>
        <time>2021-10-16T17:51:24Z</time>
      </trkpt>
      <trkpt lat="37.704561" lon="-4.615276">
        <ele>118.336</ele>
        <time>2021-10-16T17:51:26Z</time>
      </trkpt>
      <trkpt lat="37.704380" lon="-4.614614">
        <ele>118.684</ele>
        <time>2021-10-16T17:51:28Z</time>
      </trkpt>
      <trkpt lat="37.704142" lon="-4.613973">
        <ele>118.943</ele>
        <time>2021-10-16T17:51:30Z</time>
      </trkpt>
      <trkpt lat="37.703854" lon="-4.613366">
        <ele>118.337</ele>
        <time>2021-10-16T17:51:32Z</time>
      </trkpt>
      <trkpt lat="37.703574" lon="-4.612794">
        <ele>119.742</ele>
        <time>2021-10-16T17:51:34Z</time>
      </trkpt>
      <trkpt lat="37.703290" lon="-4.612257">
        <ele>121.291</ele>
        <time>2021-10-16T17:51:36Z</time>
      </trkpt>
      <trkpt lat="37.702962" lon="-4.611788">
        <ele>123.063</ele>
        <time>2021-10-16T17:51:38Z</time>
      </trkpt>
      <trkpt lat="37.702613" lon="-4.611343">
        <ele>122.480</ele>
        <time>2021-10-16T17:51:40Z</time>
      </trkpt>
      <trkpt lat="37.702433" lon="-4.611109">
        <ele>122.463</ele>
        <time>2021-10-16T17:51:41Z</time>
      </trkpt>
      <trkpt lat="37.702069" lon="-4.610624">
        <ele>122.344</ele>
        <time>2021-10-16T17:51:43Z</time>
      </trkpt>
      <trkpt lat="37.701892" lon="-4.610353">
        <ele>122.418</ele>
        <time>2021-10-16T17:51:44Z</time>
      </trkpt>
      <trkpt lat="37.701578" lon="-4.609783">
        <ele>121.808</ele>
        <time>2021-10-16T17:51:46Z</time>
      </trkpt>
      <trkpt lat="37.701265" lon="-4.609190">
        <ele>120.544</ele>
        <time>2021-10-16T17:51:48Z</time>
      </trkpt>
      <trkpt lat="37.700947" lon="-4.608594">
        <ele>120.212</ele>
        <time>2021-10-16T17:51:50Z</time>
      </trkpt>
      <trkpt lat="37.700641" lon="-4.608020">
        <ele>120.271</ele>
        <time>2021-10-16T17:51:52Z</time>
      </trkpt>
      <trkpt lat="37.700333" lon="-4.607449">
        <ele>120.465</ele>
        <time>2021-10-16T17:51:54Z</time>
      </trkpt>
      <trkpt lat="37.700025" lon="-4.606877">
        <ele>120.480</ele>
        <time>2021-10-16T17:51:56Z</time>
      </trkpt>
      <trkpt lat="37.699737" lon="-4.606339">
        <ele>119.759</ele>
        <time>2021-10-16T17:51:58Z</time>
      </trkpt>
      <trkpt lat="37.699471" lon="-4.605830">
        <ele>120.181</ele>
        <time>2021-10-16T17:52:00Z</time>
      </trkpt>
      <trkpt lat="37.699342" lon="-4.605583">
        <ele>119.868</ele>
        <time>2021-10-16T17:52:01Z</time>
      </trkpt>
      <trkpt lat="37.699210" lon="-4.605333">
        <ele>119.584</ele>
        <time>2021-10-16T17:52:02Z</time>
      </trkpt>
      <trkpt lat="37.698950" lon="-4.604877">
        <ele>119.707</ele>
        <time>2021-10-16T17:52:04Z</time>
      </trkpt>
      <trkpt lat="37.698647" lon="-4.604470">
        <ele>119.317</ele>
        <time>2021-10-16T17:52:06Z</time>
      </trkpt>
      <trkpt lat="37.698290" lon="-4.604127">
        <ele>119.108</ele>
        <time>2021-10-16T17:52:08Z</time>
      </trkpt>
      <trkpt lat="37.697937" lon="-4.603786">
        <ele>119.036</ele>
        <time>2021-10-16T17:52:10Z</time>
      </trkpt>
      <trkpt lat="37.697757" lon="-4.603608">
        <ele>119.764</ele>
        <time>2021-10-16T17:52:11Z</time>
      </trkpt>
      <trkpt lat="37.697575" lon="-4.603433">
        <ele>120.683</ele>
        <time>2021-10-16T17:52:12Z</time>
      </trkpt>
      <trkpt lat="37.697206" lon="-4.603079">
        <ele>119.817</ele>
        <time>2021-10-16T17:52:14Z</time>
      </trkpt>
      <trkpt lat="37.696849" lon="-4.602743">
        <ele>120.222</ele>
        <time>2021-10-16T17:52:16Z</time>
      </trkpt>
      <trkpt lat="37.696469" lon="-4.602454">
        <ele>121.381</ele>
        <time>2021-10-16T17:52:18Z</time>
      </trkpt>
      <trkpt lat="37.696041" lon="-4.602256">
        <ele>122.223</ele>
        <time>2021-10-16T17:52:20Z</time>
      </trkpt>
      <trkpt lat="37.695584" lon="-4.602120">
        <ele>123.680</ele>
        <time>2021-10-16T17:52:22Z</time>
      </trkpt>
      <trkpt lat="37.695105" lon="-4.601946">
        <ele>125.692</ele>
        <time>2021-10-16T17:52:24Z</time>
      </trkpt>
      <trkpt lat="37.694866" lon="-4.601825">
        <ele>126.773</ele>
        <time>2021-10-16T17:52:25Z</time>
      </trkpt>
      <trkpt lat="37.694634" lon="-4.601673">
        <ele>126.920</ele>
        <time>2021-10-16T17:52:26Z</time>
      </trkpt>
      <trkpt lat="37.694236" lon="-4.601300">
        <ele>127.608</ele>
        <time>2021-10-16T17:52:28Z</time>
      </trkpt>
      <trkpt lat="37.693900" lon="-4.600807">
        <ele>127.457</ele>
        <time>2021-10-16T17:52:30Z</time>
      </trkpt>
      <trkpt lat="37.693765" lon="-4.600521">
        <ele>127.445</ele>
        <time>2021-10-16T17:52:31Z</time>
      </trkpt>
      <trkpt lat="37.693637" lon="-4.600214">
        <ele>126.794</ele>
        <time>2021-10-16T17:52:32Z</time>
      </trkpt>
      <trkpt lat="37.693397" lon="-4.599632">
        <ele>126.238</ele>
        <time>2021-10-16T17:52:34Z</time>
      </trkpt>
      <trkpt lat="37.693150" lon="-4.599111">
        <ele>125.753</ele>
        <time>2021-10-16T17:52:36Z</time>
      </trkpt>
      <trkpt lat="37.692865" lon="-4.598672">
        <ele>126.182</ele>
        <time>2021-10-16T17:52:38Z</time>
      </trkpt>
      <trkpt lat="37.692532" lon="-4.598325">
        <ele>127.264</ele>
        <time>2021-10-16T17:52:40Z</time>
      </trkpt>
      <trkpt lat="37.692346" lon="-4.598178">
        <ele>126.911</ele>
        <time>2021-10-16T17:52:41Z</time>
      </trkpt>
      <trkpt lat="37.692156" lon="-4.598047">
        <ele>127.434</ele>
        <time>2021-10-16T17:52:42Z</time>
      </trkpt>
      <trkpt lat="37.691965" lon="-4.597920">
        <ele>128.255</ele>
        <time>2021-10-16T17:52:43Z</time>
      </trkpt>
      <trkpt lat="37.691772" lon="-4.597795">
        <ele>129.010</ele>
        <time>2021-10-16T17:52:44Z</time>
      </trkpt>
      <trkpt lat="37.691413" lon="-4.597559">
        <ele>129.708</ele>
        <time>2021-10-16T17:52:46Z</time>
      </trkpt>
      <trkpt lat="37.691233" lon="-4.597442">
        <ele>130.451</ele>
        <time>2021-10-16T17:52:47Z</time>
      </trkpt>
      <trkpt lat="37.691056" lon="-4.597323">
        <ele>130.759</ele>
        <time>2021-10-16T17:52:48Z</time>
      </trkpt>
      <trkpt lat="37.690707" lon="-4.597091">
        <ele>132.438</ele>
        <time>2021-10-16T17:52:50Z</time>
      </trkpt>
      <trkpt lat="37.690383" lon="-4.596866">
        <ele>133.422</ele>
        <time>2021-10-16T17:52:52Z</time>
      </trkpt>
      <trkpt lat="37.690053" lon="-4.596637">
        <ele>134.987</ele>
        <time>2021-10-16T17:52:54Z</time>
      </trkpt>
      <trkpt lat="37.689719" lon="-4.596402">
        <ele>136.176</ele>
        <time>2021-10-16T17:52:56Z</time>
      </trkpt>
      <trkpt lat="37.689386" lon="-4.596177">
        <ele>138.058</ele>
        <time>2021-10-16T17:52:58Z</time>
      </trkpt>
      <trkpt lat="37.689022" lon="-4.595939">
        <ele>139.625</ele>
        <time>2021-10-16T17:53:00Z</time>
      </trkpt>
      <trkpt lat="37.688639" lon="-4.595675">
        <ele>140.689</ele>
        <time>2021-10-16T17:53:02Z</time>
      </trkpt>
      <trkpt lat="37.688252" lon="-4.595412">
        <ele>142.506</ele>
        <time>2021-10-16T17:53:04Z</time>
      </trkpt>
      <trkpt lat="37.688049" lon="-4.595278">
        <ele>143.826</ele>
        <time>2021-10-16T17:53:05Z</time>
      </trkpt>
      <trkpt lat="37.687647" lon="-4.594990">
        <ele>145.208</ele>
        <time>2021-10-16T17:53:07Z</time>
      </trkpt>
      <trkpt lat="37.687461" lon="-4.594807">
        <ele>146.836</ele>
        <time>2021-10-16T17:53:08Z</time>
      </trkpt>
      <trkpt lat="37.687158" lon="-4.594362">
        <ele>147.234</ele>
        <time>2021-10-16T17:53:10Z</time>
      </trkpt>
      <trkpt lat="37.687030" lon="-4.594097">
        <ele>148.723</ele>
        <time>2021-10-16T17:53:11Z</time>
      </trkpt>
      <trkpt lat="37.686853" lon="-4.593502">
        <ele>149.727</ele>
        <time>2021-10-16T17:53:13Z</time>
      </trkpt>
      <trkpt lat="37.686803" lon="-4.593171">
        <ele>150.882</ele>
        <time>2021-10-16T17:53:14Z</time>
      </trkpt>
      <trkpt lat="37.686746" lon="-4.592508">
        <ele>153.061</ele>
        <time>2021-10-16T17:53:16Z</time>
      </trkpt>
      <trkpt lat="37.686726" lon="-4.592175">
        <ele>154.283</ele>
        <time>2021-10-16T17:53:17Z</time>
      </trkpt>
      <trkpt lat="37.686686" lon="-4.591528">
        <ele>155.830</ele>
        <time>2021-10-16T17:53:19Z</time>
      </trkpt>
      <trkpt lat="37.686663" lon="-4.591199">
        <ele>156.663</ele>
        <time>2021-10-16T17:53:20Z</time>
      </trkpt>
      <trkpt lat="37.686618" lon="-4.590569">
        <ele>158.644</ele>
        <time>2021-10-16T17:53:22Z</time>
      </trkpt>
      <trkpt lat="37.686574" lon="-4.589918">
        <ele>160.418</ele>
        <time>2021-10-16T17:53:24Z</time>
      </trkpt>
      <trkpt lat="37.686530" lon="-4.589259">
        <ele>162.508</ele>
        <time>2021-10-16T17:53:26Z</time>
      </trkpt>
      <trkpt lat="37.686470" lon="-4.588619">
        <ele>163.814</ele>
        <time>2021-10-16T17:53:28Z</time>
      </trkpt>
      <trkpt lat="37.686384" lon="-4.588009">
        <ele>166.692</ele>
        <time>2021-10-16T17:53:30Z</time>
      </trkpt>
      <trkpt lat="37.686267" lon="-4.587429">
        <ele>169.661</ele>
        <time>2021-10-16T17:53:32Z</time>
      </trkpt>
      <trkpt lat="37.686139" lon="-4.586887">
        <ele>172.465</ele>
        <time>2021-10-16T17:53:34Z</time>
      </trkpt>
      <trkpt lat="37.686075" lon="-4.586616">
        <ele>174.030</ele>
        <time>2021-10-16T17:53:35Z</time>
      </trkpt>
      <trkpt lat="37.686013" lon="-4.586349">
        <ele>175.199</ele>
        <time>2021-10-16T17:53:36Z</time>
      </trkpt>
      <trkpt lat="37.685884" lon="-4.585830">
        <ele>178.951</ele>
        <time>2021-10-16T17:53:38Z</time>
      </trkpt>
      <trkpt lat="37.685764" lon="-4.585312">
        <ele>180.838</ele>
        <time>2021-10-16T17:53:40Z</time>
      </trkpt>
      <trkpt lat="37.685701" lon="-4.585045">
        <ele>181.287</ele>
        <time>2021-10-16T17:53:41Z</time>
      </trkpt>
      <trkpt lat="37.685637" lon="-4.584771">
        <ele>182.042</ele>
        <time>2021-10-16T17:53:42Z</time>
      </trkpt>
      <trkpt lat="37.685506" lon="-4.584205">
        <ele>185.726</ele>
        <time>2021-10-16T17:53:44Z</time>
      </trkpt>
      <trkpt lat="37.685383" lon="-4.583663">
        <ele>187.108</ele>
        <time>2021-10-16T17:53:46Z</time>
      </trkpt>
      <trkpt lat="37.685259" lon="-4.583129">
        <ele>189.386</ele>
        <time>2021-10-16T17:53:48Z</time>
      </trkpt>
      <trkpt lat="37.685196" lon="-4.582862">
        <ele>189.724</ele>
        <time>2021-10-16T17:53:49Z</time>
      </trkpt>
      <trkpt lat="37.685130" lon="-4.582588">
        <ele>190.893</ele>
        <time>2021-10-16T17:53:50Z</time>
      </trkpt>
      <trkpt lat="37.684999" lon="-4.582041">
        <ele>191.757</ele>
        <time>2021-10-16T17:53:52Z</time>
      </trkpt>
      <trkpt lat="37.684872" lon="-4.581485">
        <ele>193.212</ele>
        <time>2021-10-16T17:53:54Z</time>
      </trkpt>
      <trkpt lat="37.684748" lon="-4.580926">
        <ele>193.661</ele>
        <time>2021-10-16T17:53:56Z</time>
      </trkpt>
      <trkpt lat="37.684622" lon="-4.580392">
        <ele>194.463</ele>
        <time>2021-10-16T17:53:58Z</time>
      </trkpt>
      <trkpt lat="37.684488" lon="-4.579851">
        <ele>196.820</ele>
        <time>2021-10-16T17:54:00Z</time>
      </trkpt>
      <trkpt lat="37.684351" lon="-4.579296">
        <ele>197.827</ele>
        <time>2021-10-16T17:54:02Z</time>
      </trkpt>
      <trkpt lat="37.684272" lon="-4.578752">
        <ele>199.668</ele>
        <time>2021-10-16T17:54:04Z</time>
      </trkpt>
      <trkpt lat="37.684279" lon="-4.578487">
        <ele>200.914</ele>
        <time>2021-10-16T17:54:05Z</time>
      </trkpt>
      <trkpt lat="37.684380" lon="-4.578013">
        <ele>203.608</ele>
        <time>2021-10-16T17:54:07Z</time>
      </trkpt>
      <trkpt lat="37.684445" lon="-4.577778">
        <ele>205.070</ele>
        <time>2021-10-16T17:54:08Z</time>
      </trkpt>
      <trkpt lat="37.684488" lon="-4.577297">
        <ele>206.768</ele>
        <time>2021-10-16T17:54:10Z</time>
      </trkpt>
      <trkpt lat="37.684471" lon="-4.577030">
        <ele>207.837</ele>
        <time>2021-10-16T17:54:11Z</time>
      </trkpt>
      <trkpt lat="37.684415" lon="-4.576476">
        <ele>210.491</ele>
        <time>2021-10-16T17:54:13Z</time>
      </trkpt>
      <trkpt lat="37.684360" lon="-4.576193">
        <ele>212.056</ele>
        <time>2021-10-16T17:54:14Z</time>
      </trkpt>
      <trkpt lat="37.684189" lon="-4.575668">
        <ele>215.755</ele>
        <time>2021-10-16T17:54:16Z</time>
      </trkpt>
      <trkpt lat="37.683987" lon="-4.575162">
        <ele>218.827</ele>
        <time>2021-10-16T17:54:18Z</time>
      </trkpt>
      <trkpt lat="37.683796" lon="-4.574662">
        <ele>221.634</ele>
        <time>2021-10-16T17:54:20Z</time>
      </trkpt>
      <trkpt lat="37.683615" lon="-4.574198">
        <ele>224.569</ele>
        <time>2021-10-16T17:54:22Z</time>
      </trkpt>
      <trkpt lat="37.683525" lon="-4.573961">
        <ele>226.004</ele>
        <time>2021-10-16T17:54:23Z</time>
      </trkpt>
      <trkpt lat="37.683352" lon="-4.573482">
        <ele>228.724</ele>
        <time>2021-10-16T17:54:25Z</time>
      </trkpt>
      <trkpt lat="37.683270" lon="-4.573229">
        <ele>230.508</ele>
        <time>2021-10-16T17:54:26Z</time>
      </trkpt>
      <trkpt lat="37.683171" lon="-4.572717">
        <ele>233.784</ele>
        <time>2021-10-16T17:54:28Z</time>
      </trkpt>
      <trkpt lat="37.683148" lon="-4.572433">
        <ele>234.882</ele>
        <time>2021-10-16T17:54:29Z</time>
      </trkpt>
      <trkpt lat="37.683126" lon="-4.572146">
        <ele>235.981</ele>
        <time>2021-10-16T17:54:30Z</time>
      </trkpt>
      <trkpt lat="37.683098" lon="-4.571865">
        <ele>237.015</ele>
        <time>2021-10-16T17:54:31Z</time>
      </trkpt>
      <trkpt lat="37.683066" lon="-4.571595">
        <ele>238.180</ele>
        <time>2021-10-16T17:54:32Z</time>
      </trkpt>
      <trkpt lat="37.682986" lon="-4.571124">
        <ele>241.629</ele>
        <time>2021-10-16T17:54:34Z</time>
      </trkpt>
      <trkpt lat="37.682823" lon="-4.570690">
        <ele>245.091</ele>
        <time>2021-10-16T17:54:36Z</time>
      </trkpt>
      <trkpt lat="37.682699" lon="-4.570501">
        <ele>246.468</ele>
        <time>2021-10-16T17:54:37Z</time>
      </trkpt>
      <trkpt lat="37.682560" lon="-4.570315">
        <ele>247.579</ele>
        <time>2021-10-16T17:54:38Z</time>
      </trkpt>
      <trkpt lat="37.682290" lon="-4.569942">
        <ele>249.405</ele>
        <time>2021-10-16T17:54:40Z</time>
      </trkpt>
      <trkpt lat="37.682023" lon="-4.569568">
        <ele>251.825</ele>
        <time>2021-10-16T17:54:42Z</time>
      </trkpt>
      <trkpt lat="37.681789" lon="-4.569249">
        <ele>254.408</ele>
        <time>2021-10-16T17:54:44Z</time>
      </trkpt>
      <trkpt lat="37.681564" lon="-4.568976">
        <ele>255.095</ele>
        <time>2021-10-16T17:54:46Z</time>
      </trkpt>
      <trkpt lat="37.681295" lon="-4.568727">
        <ele>256.053</ele>
        <time>2021-10-16T17:54:48Z</time>
      </trkpt>
      <trkpt lat="37.681150" lon="-4.568601">
        <ele>257.112</ele>
        <time>2021-10-16T17:54:49Z</time>
      </trkpt>
      <trkpt lat="37.681007" lon="-4.568459">
        <ele>258.326</ele>
        <time>2021-10-16T17:54:50Z</time>
      </trkpt>
      <trkpt lat="37.680758" lon="-4.568115">
        <ele>260.091</ele>
        <time>2021-10-16T17:54:52Z</time>
      </trkpt>
      <trkpt lat="37.680564" lon="-4.567676">
        <ele>261.450</ele>
        <time>2021-10-16T17:54:54Z</time>
      </trkpt>
      <trkpt lat="37.680478" lon="-4.567447">
        <ele>262.012</ele>
        <time>2021-10-16T17:54:55Z</time>
      </trkpt>
      <trkpt lat="37.680378" lon="-4.567215">
        <ele>263.329</ele>
        <time>2021-10-16T17:54:56Z</time>
      </trkpt>
      <trkpt lat="37.680127" lon="-4.566814">
        <ele>264.836</ele>
        <time>2021-10-16T17:54:58Z</time>
      </trkpt>
      <trkpt lat="37.679985" lon="-4.566619">
        <ele>265.017</ele>
        <time>2021-10-16T17:54:59Z</time>
      </trkpt>
      <trkpt lat="37.679700" lon="-4.566220">
        <ele>266.618</ele>
        <time>2021-10-16T17:55:01Z</time>
      </trkpt>
      <trkpt lat="37.679558" lon="-4.566011">
        <ele>267.208</ele>
        <time>2021-10-16T17:55:02Z</time>
      </trkpt>
      <trkpt lat="37.679275" lon="-4.565597">
        <ele>269.211</ele>
        <time>2021-10-16T17:55:04Z</time>
      </trkpt>
      <trkpt lat="37.678986" lon="-4.565173">
        <ele>270.589</ele>
        <time>2021-10-16T17:55:06Z</time>
      </trkpt>
      <trkpt lat="37.678844" lon="-4.564965">
        <ele>270.928</ele>
        <time>2021-10-16T17:55:07Z</time>
      </trkpt>
      <trkpt lat="37.678701" lon="-4.564756">
        <ele>271.122</ele>
        <time>2021-10-16T17:55:08Z</time>
      </trkpt>
      <trkpt lat="37.678425" lon="-4.564346">
        <ele>272.927</ele>
        <time>2021-10-16T17:55:10Z</time>
      </trkpt>
      <trkpt lat="37.678283" lon="-4.564140">
        <ele>273.296</ele>
        <time>2021-10-16T17:55:11Z</time>
      </trkpt>
      <trkpt lat="37.678137" lon="-4.563936">
        <ele>273.968</ele>
        <time>2021-10-16T17:55:12Z</time>
      </trkpt>
      <trkpt lat="37.677841" lon="-4.563520">
        <ele>275.255</ele>
        <time>2021-10-16T17:55:14Z</time>
      </trkpt>
      <trkpt lat="37.677551" lon="-4.563108">
        <ele>275.521</ele>
        <time>2021-10-16T17:55:16Z</time>
      </trkpt>
      <trkpt lat="37.677250" lon="-4.562673">
        <ele>276.741</ele>
        <time>2021-10-16T17:55:18Z</time>
      </trkpt>
      <trkpt lat="37.677094" lon="-4.562454">
        <ele>276.705</ele>
        <time>2021-10-16T17:55:19Z</time>
      </trkpt>
      <trkpt lat="37.676927" lon="-4.562239">
        <ele>277.908</ele>
        <time>2021-10-16T17:55:20Z</time>
      </trkpt>
      <trkpt lat="37.676571" lon="-4.561867">
        <ele>278.420</ele>
        <time>2021-10-16T17:55:22Z</time>
      </trkpt>
      <trkpt lat="37.676375" lon="-4.561694">
        <ele>279.498</ele>
        <time>2021-10-16T17:55:23Z</time>
      </trkpt>
      <trkpt lat="37.676177" lon="-4.561523">
        <ele>280.427</ele>
        <time>2021-10-16T17:55:24Z</time>
      </trkpt>
      <trkpt lat="37.675981" lon="-4.561351">
        <ele>280.711</ele>
        <time>2021-10-16T17:55:25Z</time>
      </trkpt>
      <trkpt lat="37.675782" lon="-4.561179">
        <ele>281.466</ele>
        <time>2021-10-16T17:55:26Z</time>
      </trkpt>
      <trkpt lat="37.675429" lon="-4.560870">
        <ele>283.935</ele>
        <time>2021-10-16T17:55:28Z</time>
      </trkpt>
      <trkpt lat="37.675111" lon="-4.560593">
        <ele>285.677</ele>
        <time>2021-10-16T17:55:30Z</time>
      </trkpt>
      <trkpt lat="37.674958" lon="-4.560458">
        <ele>286.334</ele>
        <time>2021-10-16T17:55:31Z</time>
      </trkpt>
      <trkpt lat="37.674810" lon="-4.560325">
        <ele>286.734</ele>
        <time>2021-10-16T17:55:32Z</time>
      </trkpt>
      <trkpt lat="37.674574" lon="-4.560062">
        <ele>287.055</ele>
        <time>2021-10-16T17:55:34Z</time>
      </trkpt>
      <trkpt lat="37.674421" lon="-4.559750">
        <ele>287.010</ele>
        <time>2021-10-16T17:55:36Z</time>
      </trkpt>
      <trkpt lat="37.674325" lon="-4.559403">
        <ele>286.308</ele>
        <time>2021-10-16T17:55:38Z</time>
      </trkpt>
      <trkpt lat="37.674266" lon="-4.559047">
        <ele>284.531</ele>
        <time>2021-10-16T17:55:40Z</time>
      </trkpt>
      <trkpt lat="37.674223" lon="-4.558690">
        <ele>282.589</ele>
        <time>2021-10-16T17:55:42Z</time>
      </trkpt>
      <trkpt lat="37.674207" lon="-4.558515">
        <ele>282.078</ele>
        <time>2021-10-16T17:55:43Z</time>
      </trkpt>
      <trkpt lat="37.674197" lon="-4.558334">
        <ele>281.582</ele>
        <time>2021-10-16T17:55:44Z</time>
      </trkpt>
      <trkpt lat="37.674188" lon="-4.558001">
        <ele>278.817</ele>
        <time>2021-10-16T17:55:46Z</time>
      </trkpt>
      <trkpt lat="37.674208" lon="-4.557675">
        <ele>278.236</ele>
        <time>2021-10-16T17:55:48Z</time>
      </trkpt>
      <trkpt lat="37.674238" lon="-4.557521">
        <ele>277.388</ele>
        <time>2021-10-16T17:55:49Z</time>
      </trkpt>
      <trkpt lat="37.674283" lon="-4.557366">
        <ele>277.315</ele>
        <time>2021-10-16T17:55:50Z</time>
      </trkpt>
      <trkpt lat="37.674420" lon="-4.557077">
        <ele>277.526</ele>
        <time>2021-10-16T17:55:52Z</time>
      </trkpt>
      <trkpt lat="37.674577" lon="-4.556776">
        <ele>278.847</ele>
        <time>2021-10-16T17:55:54Z</time>
      </trkpt>
      <trkpt lat="37.674636" lon="-4.556642">
        <ele>278.711</ele>
        <time>2021-10-16T17:55:55Z</time>
      </trkpt>
      <trkpt lat="37.674680" lon="-4.556511">
        <ele>278.608</ele>
        <time>2021-10-16T17:55:56Z</time>
      </trkpt>
      <trkpt lat="37.674743" lon="-4.556294">
        <ele>278.430</ele>
        <time>2021-10-16T17:55:58Z</time>
      </trkpt>
      <trkpt lat="37.674794" lon="-4.556111">
        <ele>279.228</ele>
        <time>2021-10-16T17:56:00Z</time>
      </trkpt>
      <trkpt lat="37.674822" lon="-4.556028">
        <ele>279.757</ele>
        <time>2021-10-16T17:56:01Z</time>
      </trkpt>
      <trkpt lat="37.674852" lon="-4.555953">
        <ele>279.791</ele>
        <time>2021-10-16T17:56:02Z</time>
      </trkpt>
      <trkpt lat="37.674903" lon="-4.555833">
        <ele>279.986</ele>
        <time>2021-10-16T17:56:04Z</time>
      </trkpt>
      <trkpt lat="37.674918" lon="-4.555765">
        <ele>279.155</ele>
        <time>2021-10-16T17:56:06Z</time>
      </trkpt>
      <trkpt lat="37.674907" lon="-4.555703">
        <ele>279.157</ele>
        <time>2021-10-16T17:56:08Z</time>
      </trkpt>
      <trkpt lat="37.674894" lon="-4.555646">
        <ele>279.414</ele>
        <time>2021-10-16T17:56:10Z</time>
      </trkpt>
      <trkpt lat="37.674924" lon="-4.555589">
        <ele>297.412</ele>
        <time>2021-10-16T18:03:07Z</time>
      </trkpt>
      <trkpt lat="37.674994" lon="-4.555557">
        <ele>322.232</ele>
        <time>2021-10-16T18:23:05Z</time>
      </trkpt>
      <trkpt lat="37.675042" lon="-4.555531">
        <ele>334.905</ele>
        <time>2021-10-16T18:23:50Z</time>
      </trkpt>
      <trkpt lat="37.675117" lon="-4.555536">
        <ele>334.908</ele>
        <time>2021-10-16T18:23:52Z</time>
      </trkpt>
      <trkpt lat="37.675192" lon="-4.555552">
        <ele>335.059</ele>
        <time>2021-10-16T18:23:54Z</time>
      </trkpt>
      <trkpt lat="37.675241" lon="-4.555543">
        <ele>334.797</ele>
        <time>2021-10-16T18:23:56Z</time>
      </trkpt>
      <trkpt lat="37.675285" lon="-4.555503">
        <ele>334.756</ele>
        <time>2021-10-16T18:23:58Z</time>
      </trkpt>
      <trkpt lat="37.675374" lon="-4.555352">
        <ele>334.620</ele>
        <time>2021-10-16T18:24:00Z</time>
      </trkpt>
      <trkpt lat="37.675490" lon="-4.555128">
        <ele>334.745</ele>
        <time>2021-10-16T18:24:02Z</time>
      </trkpt>
      <trkpt lat="37.675615" lon="-4.554915">
        <ele>334.834</ele>
        <time>2021-10-16T18:24:04Z</time>
      </trkpt>
      <trkpt lat="37.675684" lon="-4.554793">
        <ele>334.846</ele>
        <time>2021-10-16T18:24:05Z</time>
      </trkpt>
      <trkpt lat="37.675828" lon="-4.554518">
        <ele>334.853</ele>
        <time>2021-10-16T18:24:07Z</time>
      </trkpt>
      <trkpt lat="37.675908" lon="-4.554367">
        <ele>334.812</ele>
        <time>2021-10-16T18:24:08Z</time>
      </trkpt>
      <trkpt lat="37.676080" lon="-4.554067">
        <ele>334.832</ele>
        <time>2021-10-16T18:24:10Z</time>
      </trkpt>
      <trkpt lat="37.676272" lon="-4.553773">
        <ele>334.805</ele>
        <time>2021-10-16T18:24:12Z</time>
      </trkpt>
      <trkpt lat="37.676498" lon="-4.553480">
        <ele>334.808</ele>
        <time>2021-10-16T18:24:14Z</time>
      </trkpt>
      <trkpt lat="37.676759" lon="-4.553198">
        <ele>334.769</ele>
        <time>2021-10-16T18:24:16Z</time>
      </trkpt>
      <trkpt lat="37.677028" lon="-4.552951">
        <ele>334.677</ele>
        <time>2021-10-16T18:24:18Z</time>
      </trkpt>
      <trkpt lat="37.677167" lon="-4.552826">
        <ele>334.656</ele>
        <time>2021-10-16T18:24:19Z</time>
      </trkpt>
      <trkpt lat="37.677304" lon="-4.552699">
        <ele>334.650</ele>
        <time>2021-10-16T18:24:20Z</time>
      </trkpt>
      <trkpt lat="37.677586" lon="-4.552451">
        <ele>334.635</ele>
        <time>2021-10-16T18:24:22Z</time>
      </trkpt>
      <trkpt lat="37.677734" lon="-4.552324">
        <ele>334.634</ele>
        <time>2021-10-16T18:24:23Z</time>
      </trkpt>
      <trkpt lat="37.677886" lon="-4.552193">
        <ele>334.616</ele>
        <time>2021-10-16T18:24:24Z</time>
      </trkpt>
      <trkpt lat="37.678207" lon="-4.551911">
        <ele>334.763</ele>
        <time>2021-10-16T18:24:26Z</time>
      </trkpt>
      <trkpt lat="37.678531" lon="-4.551631">
        <ele>334.752</ele>
        <time>2021-10-16T18:24:28Z</time>
      </trkpt>
      <trkpt lat="37.678868" lon="-4.551343">
        <ele>334.753</ele>
        <time>2021-10-16T18:24:30Z</time>
      </trkpt>
      <trkpt lat="37.679188" lon="-4.551063">
        <ele>334.708</ele>
        <time>2021-10-16T18:24:32Z</time>
      </trkpt>
      <trkpt lat="37.679433" lon="-4.550843">
        <ele>334.708</ele>
        <time>2021-10-16T18:24:34Z</time>
      </trkpt>
      <trkpt lat="37.679548" lon="-4.550733">
        <ele>334.843</ele>
        <time>2021-10-16T18:24:35Z</time>
      </trkpt>
      <trkpt lat="37.679769" lon="-4.550489">
        <ele>334.811</ele>
        <time>2021-10-16T18:24:37Z</time>
      </trkpt>
      <trkpt lat="37.679880" lon="-4.550351">
        <ele>334.850</ele>
        <time>2021-10-16T18:24:38Z</time>
      </trkpt>
      <trkpt lat="37.680105" lon="-4.550048">
        <ele>334.884</ele>
        <time>2021-10-16T18:24:40Z</time>
      </trkpt>
      <trkpt lat="37.680226" lon="-4.549874">
        <ele>334.839</ele>
        <time>2021-10-16T18:24:41Z</time>
      </trkpt>
      <trkpt lat="37.680485" lon="-4.549513">
        <ele>334.888</ele>
        <time>2021-10-16T18:24:43Z</time>
      </trkpt>
      <trkpt lat="37.680620" lon="-4.549324">
        <ele>334.820</ele>
        <time>2021-10-16T18:24:44Z</time>
      </trkpt>
      <trkpt lat="37.680894" lon="-4.548945">
        <ele>334.897</ele>
        <time>2021-10-16T18:24:46Z</time>
      </trkpt>
      <trkpt lat="37.681188" lon="-4.548549">
        <ele>334.871</ele>
        <time>2021-10-16T18:24:48Z</time>
      </trkpt>
      <trkpt lat="37.681494" lon="-4.548131">
        <ele>327.141</ele>
        <time>2021-10-16T18:24:50Z</time>
      </trkpt>
      <trkpt lat="37.681805" lon="-4.547698">
        <ele>319.015</ele>
        <time>2021-10-16T18:24:52Z</time>
      </trkpt>
      <trkpt lat="37.682097" lon="-4.547280">
        <ele>318.608</ele>
        <time>2021-10-16T18:24:54Z</time>
      </trkpt>
      <trkpt lat="37.682240" lon="-4.547083">
        <ele>318.425</ele>
        <time>2021-10-16T18:24:55Z</time>
      </trkpt>
      <trkpt lat="37.682387" lon="-4.546878">
        <ele>317.333</ele>
        <time>2021-10-16T18:24:56Z</time>
      </trkpt>
      <trkpt lat="37.682668" lon="-4.546475">
        <ele>317.272</ele>
        <time>2021-10-16T18:24:58Z</time>
      </trkpt>
      <trkpt lat="37.682961" lon="-4.546052">
        <ele>315.616</ele>
        <time>2021-10-16T18:25:00Z</time>
      </trkpt>
      <trkpt lat="37.683109" lon="-4.545834">
        <ele>315.641</ele>
        <time>2021-10-16T18:25:01Z</time>
      </trkpt>
      <trkpt lat="37.683262" lon="-4.545606">
        <ele>316.550</ele>
        <time>2021-10-16T18:25:02Z</time>
      </trkpt>
      <trkpt lat="37.683547" lon="-4.545143">
        <ele>316.932</ele>
        <time>2021-10-16T18:25:04Z</time>
      </trkpt>
      <trkpt lat="37.683686" lon="-4.544887">
        <ele>316.919</ele>
        <time>2021-10-16T18:25:05Z</time>
      </trkpt>
      <trkpt lat="37.683956" lon="-4.544348">
        <ele>314.948</ele>
        <time>2021-10-16T18:25:07Z</time>
      </trkpt>
      <trkpt lat="37.684083" lon="-4.544069">
        <ele>314.261</ele>
        <time>2021-10-16T18:25:08Z</time>
      </trkpt>
      <trkpt lat="37.684317" lon="-4.543530">
        <ele>312.417</ele>
        <time>2021-10-16T18:25:10Z</time>
      </trkpt>
      <trkpt lat="37.684438" lon="-4.543262">
        <ele>312.008</ele>
        <time>2021-10-16T18:25:11Z</time>
      </trkpt>
      <trkpt lat="37.684688" lon="-4.542736">
        <ele>309.772</ele>
        <time>2021-10-16T18:25:13Z</time>
      </trkpt>
      <trkpt lat="37.684804" lon="-4.542486">
        <ele>309.520</ele>
        <time>2021-10-16T18:25:14Z</time>
      </trkpt>
      <trkpt lat="37.685019" lon="-4.542014">
        <ele>306.839</ele>
        <time>2021-10-16T18:25:16Z</time>
      </trkpt>
      <trkpt lat="37.685124" lon="-4.541792">
        <ele>305.873</ele>
        <time>2021-10-16T18:25:17Z</time>
      </trkpt>
      <trkpt lat="37.685226" lon="-4.541575">
        <ele>305.048</ele>
        <time>2021-10-16T18:25:18Z</time>
      </trkpt>
      <trkpt lat="37.685425" lon="-4.541119">
        <ele>303.567</ele>
        <time>2021-10-16T18:25:20Z</time>
      </trkpt>
      <trkpt lat="37.685618" lon="-4.540608">
        <ele>302.569</ele>
        <time>2021-10-16T18:25:22Z</time>
      </trkpt>
      <trkpt lat="37.685704" lon="-4.540327">
        <ele>302.056</ele>
        <time>2021-10-16T18:25:23Z</time>
      </trkpt>
      <trkpt lat="37.685869" lon="-4.539742">
        <ele>301.136</ele>
        <time>2021-10-16T18:25:25Z</time>
      </trkpt>
      <trkpt lat="37.685951" lon="-4.539435">
        <ele>300.717</ele>
        <time>2021-10-16T18:25:26Z</time>
      </trkpt>
      <trkpt lat="37.686066" lon="-4.538831">
        <ele>299.718</ele>
        <time>2021-10-16T18:25:28Z</time>
      </trkpt>
      <trkpt lat="37.686095" lon="-4.538515">
        <ele>299.808</ele>
        <time>2021-10-16T18:25:29Z</time>
      </trkpt>
      <trkpt lat="37.686112" lon="-4.538199">
        <ele>299.791</ele>
        <time>2021-10-16T18:25:30Z</time>
      </trkpt>
      <trkpt lat="37.686144" lon="-4.537555">
        <ele>299.529</ele>
        <time>2021-10-16T18:25:32Z</time>
      </trkpt>
      <trkpt lat="37.686166" lon="-4.536926">
        <ele>299.028</ele>
        <time>2021-10-16T18:25:34Z</time>
      </trkpt>
      <trkpt lat="37.686172" lon="-4.536606">
        <ele>298.892</ele>
        <time>2021-10-16T18:25:35Z</time>
      </trkpt>
      <trkpt lat="37.686184" lon="-4.535984">
        <ele>298.187</ele>
        <time>2021-10-16T18:25:37Z</time>
      </trkpt>
      <trkpt lat="37.686190" lon="-4.535674">
        <ele>297.236</ele>
        <time>2021-10-16T18:25:38Z</time>
      </trkpt>
      <trkpt lat="37.686209" lon="-4.535066">
        <ele>296.748</ele>
        <time>2021-10-16T18:25:40Z</time>
      </trkpt>
      <trkpt lat="37.686229" lon="-4.534760">
        <ele>296.665</ele>
        <time>2021-10-16T18:25:41Z</time>
      </trkpt>
      <trkpt lat="37.686317" lon="-4.534156">
        <ele>296.345</ele>
        <time>2021-10-16T18:25:43Z</time>
      </trkpt>
      <trkpt lat="37.686394" lon="-4.533857">
        <ele>296.547</ele>
        <time>2021-10-16T18:25:44Z</time>
      </trkpt>
      <trkpt lat="37.686602" lon="-4.533286">
        <ele>295.811</ele>
        <time>2021-10-16T18:25:46Z</time>
      </trkpt>
      <trkpt lat="37.686713" lon="-4.533007">
        <ele>295.308</ele>
        <time>2021-10-16T18:25:47Z</time>
      </trkpt>
      <trkpt lat="37.686923" lon="-4.532476">
        <ele>293.912</ele>
        <time>2021-10-16T18:25:49Z</time>
      </trkpt>
      <trkpt lat="37.687024" lon="-4.532214">
        <ele>292.710</ele>
        <time>2021-10-16T18:25:50Z</time>
      </trkpt>
      <trkpt lat="37.687221" lon="-4.531718">
        <ele>290.119</ele>
        <time>2021-10-16T18:25:52Z</time>
      </trkpt>
      <trkpt lat="37.687396" lon="-4.531241">
        <ele>287.933</ele>
        <time>2021-10-16T18:25:54Z</time>
      </trkpt>
      <trkpt lat="37.687522" lon="-4.530761">
        <ele>285.848</ele>
        <time>2021-10-16T18:25:56Z</time>
      </trkpt>
      <trkpt lat="37.687570" lon="-4.530276">
        <ele>284.037</ele>
        <time>2021-10-16T18:25:58Z</time>
      </trkpt>
      <trkpt lat="37.687563" lon="-4.529770">
        <ele>281.549</ele>
        <time>2021-10-16T18:26:00Z</time>
      </trkpt>
      <trkpt lat="37.687550" lon="-4.529525">
        <ele>280.086</ele>
        <time>2021-10-16T18:26:01Z</time>
      </trkpt>
      <trkpt lat="37.687530" lon="-4.529286">
        <ele>278.539</ele>
        <time>2021-10-16T18:26:02Z</time>
      </trkpt>
      <trkpt lat="37.687447" lon="-4.528859">
        <ele>277.501</ele>
        <time>2021-10-16T18:26:04Z</time>
      </trkpt>
      <trkpt lat="37.687270" lon="-4.528474">
        <ele>274.221</ele>
        <time>2021-10-16T18:26:06Z</time>
      </trkpt>
      <trkpt lat="37.687143" lon="-4.528314">
        <ele>272.408</ele>
        <time>2021-10-16T18:26:07Z</time>
      </trkpt>
      <trkpt lat="37.686990" lon="-4.528176">
        <ele>271.631</ele>
        <time>2021-10-16T18:26:08Z</time>
      </trkpt>
      <trkpt lat="37.686631" lon="-4.528000">
        <ele>270.759</ele>
        <time>2021-10-16T18:26:10Z</time>
      </trkpt>
      <trkpt lat="37.686430" lon="-4.527967">
        <ele>269.428</ele>
        <time>2021-10-16T18:26:11Z</time>
      </trkpt>
      <trkpt lat="37.686019" lon="-4.527979">
        <ele>269.372</ele>
        <time>2021-10-16T18:26:13Z</time>
      </trkpt>
      <trkpt lat="37.685815" lon="-4.527977">
        <ele>268.147</ele>
        <time>2021-10-16T18:26:14Z</time>
      </trkpt>
      <trkpt lat="37.685422" lon="-4.527859">
        <ele>267.756</ele>
        <time>2021-10-16T18:26:16Z</time>
      </trkpt>
      <trkpt lat="37.685095" lon="-4.527599">
        <ele>265.998</ele>
        <time>2021-10-16T18:26:18Z</time>
      </trkpt>
      <trkpt lat="37.684967" lon="-4.527414">
        <ele>265.155</ele>
        <time>2021-10-16T18:26:19Z</time>
      </trkpt>
      <trkpt lat="37.684860" lon="-4.527204">
        <ele>263.875</ele>
        <time>2021-10-16T18:26:20Z</time>
      </trkpt>
      <trkpt lat="37.684696" lon="-4.526743">
        <ele>261.728</ele>
        <time>2021-10-16T18:26:22Z</time>
      </trkpt>
      <trkpt lat="37.684606" lon="-4.526524">
        <ele>260.220</ele>
        <time>2021-10-16T18:26:23Z</time>
      </trkpt>
      <trkpt lat="37.684354" lon="-4.526181">
        <ele>258.708</ele>
        <time>2021-10-16T18:26:25Z</time>
      </trkpt>
      <trkpt lat="37.684187" lon="-4.526050">
        <ele>257.435</ele>
        <time>2021-10-16T18:26:26Z</time>
      </trkpt>
      <trkpt lat="37.683849" lon="-4.525811">
        <ele>255.573</ele>
        <time>2021-10-16T18:26:28Z</time>
      </trkpt>
      <trkpt lat="37.683500" lon="-4.525555">
        <ele>255.432</ele>
        <time>2021-10-16T18:26:30Z</time>
      </trkpt>
      <trkpt lat="37.683334" lon="-4.525431">
        <ele>254.376</ele>
        <time>2021-10-16T18:26:31Z</time>
      </trkpt>
      <trkpt lat="37.683172" lon="-4.525309">
        <ele>253.321</ele>
        <time>2021-10-16T18:26:32Z</time>
      </trkpt>
      <trkpt lat="37.682887" lon="-4.525079">
        <ele>251.780</ele>
        <time>2021-10-16T18:26:34Z</time>
      </trkpt>
      <trkpt lat="37.682761" lon="-4.524932">
        <ele>251.522</ele>
        <time>2021-10-16T18:26:35Z</time>
      </trkpt>
      <trkpt lat="37.682590" lon="-4.524567">
        <ele>250.039</ele>
        <time>2021-10-16T18:26:37Z</time>
      </trkpt>
      <trkpt lat="37.682560" lon="-4.524349">
        <ele>249.651</ele>
        <time>2021-10-16T18:26:38Z</time>
      </trkpt>
      <trkpt lat="37.682571" lon="-4.523872">
        <ele>248.601</ele>
        <time>2021-10-16T18:26:40Z</time>
      </trkpt>
      <trkpt lat="37.682543" lon="-4.523382">
        <ele>246.911</ele>
        <time>2021-10-16T18:26:42Z</time>
      </trkpt>
      <trkpt lat="37.682385" lon="-4.522969">
        <ele>244.508</ele>
        <time>2021-10-16T18:26:44Z</time>
      </trkpt>
      <trkpt lat="37.682127" lon="-4.522657">
        <ele>241.823</ele>
        <time>2021-10-16T18:26:46Z</time>
      </trkpt>
      <trkpt lat="37.681992" lon="-4.522507">
        <ele>240.881</ele>
        <time>2021-10-16T18:26:47Z</time>
      </trkpt>
      <trkpt lat="37.681877" lon="-4.522344">
        <ele>240.170</ele>
        <time>2021-10-16T18:26:48Z</time>
      </trkpt>
      <trkpt lat="37.681788" lon="-4.522170">
        <ele>238.724</ele>
        <time>2021-10-16T18:26:49Z</time>
      </trkpt>
      <trkpt lat="37.681730" lon="-4.521987">
        <ele>237.649</ele>
        <time>2021-10-16T18:26:50Z</time>
      </trkpt>
      <trkpt lat="37.681724" lon="-4.521616">
        <ele>236.088</ele>
        <time>2021-10-16T18:26:52Z</time>
      </trkpt>
      <trkpt lat="37.681784" lon="-4.521422">
        <ele>235.290</ele>
        <time>2021-10-16T18:26:53Z</time>
      </trkpt>
      <trkpt lat="37.681867" lon="-4.521220">
        <ele>234.957</ele>
        <time>2021-10-16T18:26:54Z</time>
      </trkpt>
      <trkpt lat="37.681952" lon="-4.521006">
        <ele>233.845</ele>
        <time>2021-10-16T18:26:55Z</time>
      </trkpt>
      <trkpt lat="37.682035" lon="-4.520781">
        <ele>232.447</ele>
        <time>2021-10-16T18:26:56Z</time>
      </trkpt>
      <trkpt lat="37.682162" lon="-4.520329">
        <ele>229.311</ele>
        <time>2021-10-16T18:26:58Z</time>
      </trkpt>
      <trkpt lat="37.682192" lon="-4.519838">
        <ele>226.408</ele>
        <time>2021-10-16T18:27:00Z</time>
      </trkpt>
      <trkpt lat="37.682179" lon="-4.519585">
        <ele>225.842</ele>
        <time>2021-10-16T18:27:01Z</time>
      </trkpt>
      <trkpt lat="37.682162" lon="-4.519323">
        <ele>225.320</ele>
        <time>2021-10-16T18:27:02Z</time>
      </trkpt>
      <trkpt lat="37.682168" lon="-4.518803">
        <ele>224.259</ele>
        <time>2021-10-16T18:27:04Z</time>
      </trkpt>
      <trkpt lat="37.682189" lon="-4.518522">
        <ele>222.993</ele>
        <time>2021-10-16T18:27:05Z</time>
      </trkpt>
      <trkpt lat="37.682245" lon="-4.517926">
        <ele>219.998</ele>
        <time>2021-10-16T18:27:07Z</time>
      </trkpt>
      <trkpt lat="37.682274" lon="-4.517613">
        <ele>218.677</ele>
        <time>2021-10-16T18:27:08Z</time>
      </trkpt>
      <trkpt lat="37.682329" lon="-4.517002">
        <ele>216.069</ele>
        <time>2021-10-16T18:27:10Z</time>
      </trkpt>
      <trkpt lat="37.682380" lon="-4.516412">
        <ele>213.196</ele>
        <time>2021-10-16T18:27:12Z</time>
      </trkpt>
      <trkpt lat="37.682431" lon="-4.515814">
        <ele>210.596</ele>
        <time>2021-10-16T18:27:14Z</time>
      </trkpt>
      <trkpt lat="37.682494" lon="-4.515209">
        <ele>208.331</ele>
        <time>2021-10-16T18:27:16Z</time>
      </trkpt>
      <trkpt lat="37.682585" lon="-4.514643">
        <ele>206.324</ele>
        <time>2021-10-16T18:27:18Z</time>
      </trkpt>
      <trkpt lat="37.682653" lon="-4.514366">
        <ele>204.608</ele>
        <time>2021-10-16T18:27:19Z</time>
      </trkpt>
      <trkpt lat="37.682740" lon="-4.514099">
        <ele>202.957</ele>
        <time>2021-10-16T18:27:20Z</time>
      </trkpt>
      <trkpt lat="37.682975" lon="-4.513609">
        <ele>200.515</ele>
        <time>2021-10-16T18:27:22Z</time>
      </trkpt>
      <trkpt lat="37.683105" lon="-4.513378">
        <ele>199.924</ele>
        <time>2021-10-16T18:27:23Z</time>
      </trkpt>
      <trkpt lat="37.683362" lon="-4.512931">
        <ele>196.798</ele>
        <time>2021-10-16T18:27:25Z</time>
      </trkpt>
      <trkpt lat="37.683494" lon="-4.512698">
        <ele>195.513</ele>
        <time>2021-10-16T18:27:26Z</time>
      </trkpt>
      <trkpt lat="37.683739" lon="-4.512249">
        <ele>192.582</ele>
        <time>2021-10-16T18:27:28Z</time>
      </trkpt>
      <trkpt lat="37.683992" lon="-4.511796">
        <ele>189.154</ele>
        <time>2021-10-16T18:27:30Z</time>
      </trkpt>
      <trkpt lat="37.684246" lon="-4.511346">
        <ele>185.451</ele>
        <time>2021-10-16T18:27:32Z</time>
      </trkpt>
      <trkpt lat="37.684478" lon="-4.510925">
        <ele>182.134</ele>
        <time>2021-10-16T18:27:34Z</time>
      </trkpt>
      <trkpt lat="37.684591" lon="-4.510715">
        <ele>179.655</ele>
        <time>2021-10-16T18:27:35Z</time>
      </trkpt>
      <trkpt lat="37.684810" lon="-4.510310">
        <ele>177.010</ele>
        <time>2021-10-16T18:27:37Z</time>
      </trkpt>
      <trkpt lat="37.684916" lon="-4.510108">
        <ele>175.908</ele>
        <time>2021-10-16T18:27:38Z</time>
      </trkpt>
      <trkpt lat="37.685113" lon="-4.509722">
        <ele>172.671</ele>
        <time>2021-10-16T18:27:40Z</time>
      </trkpt>
      <trkpt lat="37.685205" lon="-4.509529">
        <ele>171.939</ele>
        <time>2021-10-16T18:27:41Z</time>
      </trkpt>
      <trkpt lat="37.685292" lon="-4.509334">
        <ele>171.118</ele>
        <time>2021-10-16T18:27:42Z</time>
      </trkpt>
      <trkpt lat="37.685439" lon="-4.508915">
        <ele>171.182</ele>
        <time>2021-10-16T18:27:44Z</time>
      </trkpt>
      <trkpt lat="37.685539" lon="-4.508440">
        <ele>169.697</ele>
        <time>2021-10-16T18:27:46Z</time>
      </trkpt>
      <trkpt lat="37.685619" lon="-4.507914">
        <ele>169.256</ele>
        <time>2021-10-16T18:27:48Z</time>
      </trkpt>
      <trkpt lat="37.685702" lon="-4.507362">
        <ele>169.778</ele>
        <time>2021-10-16T18:27:50Z</time>
      </trkpt>
      <trkpt lat="37.685789" lon="-4.506819">
        <ele>169.345</ele>
        <time>2021-10-16T18:27:52Z</time>
      </trkpt>
      <trkpt lat="37.685843" lon="-4.506554">
        <ele>169.835</ele>
        <time>2021-10-16T18:27:53Z</time>
      </trkpt>
      <trkpt lat="37.685912" lon="-4.506292">
        <ele>169.986</ele>
        <time>2021-10-16T18:27:54Z</time>
      </trkpt>
      <trkpt lat="37.686120" lon="-4.505804">
        <ele>171.814</ele>
        <time>2021-10-16T18:27:56Z</time>
      </trkpt>
      <trkpt lat="37.686405" lon="-4.505421">
        <ele>173.108</ele>
        <time>2021-10-16T18:27:58Z</time>
      </trkpt>
      <trkpt lat="37.686576" lon="-4.505259">
        <ele>173.651</ele>
        <time>2021-10-16T18:27:59Z</time>
      </trkpt>
      <trkpt lat="37.686921" lon="-4.504941">
        <ele>176.439</ele>
        <time>2021-10-16T18:28:01Z</time>
      </trkpt>
      <trkpt lat="37.687083" lon="-4.504752">
        <ele>175.968</ele>
        <time>2021-10-16T18:28:02Z</time>
      </trkpt>
      <trkpt lat="37.687353" lon="-4.504319">
        <ele>179.522</ele>
        <time>2021-10-16T18:28:04Z</time>
      </trkpt>
      <trkpt lat="37.687568" lon="-4.503805">
        <ele>179.837</ele>
        <time>2021-10-16T18:28:06Z</time>
      </trkpt>
      <trkpt lat="37.687727" lon="-4.503232">
        <ele>179.626</ele>
        <time>2021-10-16T18:28:08Z</time>
      </trkpt>
      <trkpt lat="37.687809" lon="-4.502626">
        <ele>179.118</ele>
        <time>2021-10-16T18:28:10Z</time>
      </trkpt>
      <trkpt lat="37.687828" lon="-4.502317">
        <ele>178.545</ele>
        <time>2021-10-16T18:28:11Z</time>
      </trkpt>
      <trkpt lat="37.687849" lon="-4.502006">
        <ele>178.133</ele>
        <time>2021-10-16T18:28:12Z</time>
      </trkpt>
      <trkpt lat="37.687872" lon="-4.501687">
        <ele>177.423</ele>
        <time>2021-10-16T18:28:13Z</time>
      </trkpt>
      <trkpt lat="37.687896" lon="-4.501367">
        <ele>175.615</ele>
        <time>2021-10-16T18:28:14Z</time>
      </trkpt>
      <trkpt lat="37.687953" lon="-4.500730">
        <ele>175.008</ele>
        <time>2021-10-16T18:28:16Z</time>
      </trkpt>
      <trkpt lat="37.687978" lon="-4.500413">
        <ele>173.731</ele>
        <time>2021-10-16T18:28:17Z</time>
      </trkpt>
      <trkpt lat="37.688028" lon="-4.499786">
        <ele>171.669</ele>
        <time>2021-10-16T18:28:19Z</time>
      </trkpt>
      <trkpt lat="37.688050" lon="-4.499474">
        <ele>170.778</ele>
        <time>2021-10-16T18:28:20Z</time>
      </trkpt>
      <trkpt lat="37.688095" lon="-4.498858">
        <ele>168.772</ele>
        <time>2021-10-16T18:28:22Z</time>
      </trkpt>
      <trkpt lat="37.688119" lon="-4.498546">
        <ele>167.447</ele>
        <time>2021-10-16T18:28:23Z</time>
      </trkpt>
      <trkpt lat="37.688172" lon="-4.497936">
        <ele>167.556</ele>
        <time>2021-10-16T18:28:25Z</time>
      </trkpt>
      <trkpt lat="37.688195" lon="-4.497626">
        <ele>168.388</ele>
        <time>2021-10-16T18:28:26Z</time>
      </trkpt>
      <trkpt lat="37.688239" lon="-4.497040">
        <ele>167.665</ele>
        <time>2021-10-16T18:28:28Z</time>
      </trkpt>
      <trkpt lat="37.688282" lon="-4.496458">
        <ele>167.083</ele>
        <time>2021-10-16T18:28:30Z</time>
      </trkpt>
      <trkpt lat="37.688305" lon="-4.496168">
        <ele>166.425</ele>
        <time>2021-10-16T18:28:31Z</time>
      </trkpt>
      <trkpt lat="37.688329" lon="-4.495873">
        <ele>166.417</ele>
        <time>2021-10-16T18:28:32Z</time>
      </trkpt>
      <trkpt lat="37.688379" lon="-4.495322">
        <ele>165.708</ele>
        <time>2021-10-16T18:28:34Z</time>
      </trkpt>
      <trkpt lat="37.688427" lon="-4.495042">
        <ele>165.896</ele>
        <time>2021-10-16T18:28:35Z</time>
      </trkpt>
      <trkpt lat="37.688499" lon="-4.494765">
        <ele>165.614</ele>
        <time>2021-10-16T18:28:36Z</time>
      </trkpt>
      <trkpt lat="37.688708" lon="-4.494232">
        <ele>167.253</ele>
        <time>2021-10-16T18:28:38Z</time>
      </trkpt>
      <trkpt lat="37.688924" lon="-4.493700">
        <ele>167.787</ele>
        <time>2021-10-16T18:28:40Z</time>
      </trkpt>
      <trkpt lat="37.689082" lon="-4.493132">
        <ele>169.642</ele>
        <time>2021-10-16T18:28:42Z</time>
      </trkpt>
      <trkpt lat="37.689125" lon="-4.492836">
        <ele>170.981</ele>
        <time>2021-10-16T18:28:43Z</time>
      </trkpt>
      <trkpt lat="37.689146" lon="-4.492535">
        <ele>171.773</ele>
        <time>2021-10-16T18:28:44Z</time>
      </trkpt>
      <trkpt lat="37.689139" lon="-4.491930">
        <ele>174.250</ele>
        <time>2021-10-16T18:28:46Z</time>
      </trkpt>
      <trkpt lat="37.689105" lon="-4.491625">
        <ele>175.113</ele>
        <time>2021-10-16T18:28:47Z</time>
      </trkpt>
      <trkpt lat="37.688969" lon="-4.491038">
        <ele>178.243</ele>
        <time>2021-10-16T18:28:49Z</time>
      </trkpt>
      <trkpt lat="37.688866" lon="-4.490756">
        <ele>178.707</ele>
        <time>2021-10-16T18:28:50Z</time>
      </trkpt>
      <trkpt lat="37.688602" lon="-4.490235">
        <ele>180.708</ele>
        <time>2021-10-16T18:28:52Z</time>
      </trkpt>
      <trkpt lat="37.688440" lon="-4.489996">
        <ele>181.049</ele>
        <time>2021-10-16T18:28:53Z</time>
      </trkpt>
      <trkpt lat="37.688264" lon="-4.489777">
        <ele>181.277</ele>
        <time>2021-10-16T18:28:54Z</time>
      </trkpt>
      <trkpt lat="37.687870" lon="-4.489384">
        <ele>181.916</ele>
        <time>2021-10-16T18:28:56Z</time>
      </trkpt>
      <trkpt lat="37.687440" lon="-4.489081">
        <ele>182.340</ele>
        <time>2021-10-16T18:28:58Z</time>
      </trkpt>
      <trkpt lat="37.687205" lon="-4.488952">
        <ele>181.855</ele>
        <time>2021-10-16T18:28:59Z</time>
      </trkpt>
      <trkpt lat="37.686955" lon="-4.488829">
        <ele>182.274</ele>
        <time>2021-10-16T18:29:00Z</time>
      </trkpt>
      <trkpt lat="37.686453" lon="-4.488568">
        <ele>182.286</ele>
        <time>2021-10-16T18:29:02Z</time>
      </trkpt>
      <trkpt lat="37.686000" lon="-4.488257">
        <ele>182.013</ele>
        <time>2021-10-16T18:29:04Z</time>
      </trkpt>
      <trkpt lat="37.685601" lon="-4.487820">
        <ele>182.085</ele>
        <time>2021-10-16T18:29:06Z</time>
      </trkpt>
      <trkpt lat="37.685428" lon="-4.487567">
        <ele>181.889</ele>
        <time>2021-10-16T18:29:07Z</time>
      </trkpt>
      <trkpt lat="37.685278" lon="-4.487294">
        <ele>181.517</ele>
        <time>2021-10-16T18:29:08Z</time>
      </trkpt>
      <trkpt lat="37.685052" lon="-4.486690">
        <ele>181.308</ele>
        <time>2021-10-16T18:29:10Z</time>
      </trkpt>
      <trkpt lat="37.684909" lon="-4.486034">
        <ele>181.686</ele>
        <time>2021-10-16T18:29:12Z</time>
      </trkpt>
      <trkpt lat="37.684852" lon="-4.485702">
        <ele>181.764</ele>
        <time>2021-10-16T18:29:13Z</time>
      </trkpt>
      <trkpt lat="37.684794" lon="-4.485378">
        <ele>181.783</ele>
        <time>2021-10-16T18:29:14Z</time>
      </trkpt>
      <trkpt lat="37.684688" lon="-4.484791">
        <ele>181.777</ele>
        <time>2021-10-16T18:29:16Z</time>
      </trkpt>
      <trkpt lat="37.684607" lon="-4.484235">
        <ele>181.632</ele>
        <time>2021-10-16T18:29:18Z</time>
      </trkpt>
      <trkpt lat="37.684584" lon="-4.483948">
        <ele>181.211</ele>
        <time>2021-10-16T18:29:19Z</time>
      </trkpt>
      <trkpt lat="37.684570" lon="-4.483652">
        <ele>180.163</ele>
        <time>2021-10-16T18:29:20Z</time>
      </trkpt>
      <trkpt lat="37.684547" lon="-4.483052">
        <ele>178.780</ele>
        <time>2021-10-16T18:29:22Z</time>
      </trkpt>
      <trkpt lat="37.684521" lon="-4.482451">
        <ele>176.886</ele>
        <time>2021-10-16T18:29:24Z</time>
      </trkpt>
      <trkpt lat="37.684509" lon="-4.482166">
        <ele>175.660</ele>
        <time>2021-10-16T18:29:25Z</time>
      </trkpt>
      <trkpt lat="37.684500" lon="-4.481880">
        <ele>175.026</ele>
        <time>2021-10-16T18:29:26Z</time>
      </trkpt>
      <trkpt lat="37.684484" lon="-4.481356">
        <ele>173.908</ele>
        <time>2021-10-16T18:29:28Z</time>
      </trkpt>
      <trkpt lat="37.684467" lon="-4.480834">
        <ele>173.866</ele>
        <time>2021-10-16T18:29:30Z</time>
      </trkpt>
      <trkpt lat="37.684458" lon="-4.480579">
        <ele>172.924</ele>
        <time>2021-10-16T18:29:31Z</time>
      </trkpt>
      <trkpt lat="37.684448" lon="-4.480319">
        <ele>173.413</ele>
        <time>2021-10-16T18:29:32Z</time>
      </trkpt>
      <trkpt lat="37.684431" lon="-4.479835">
        <ele>172.747</ele>
        <time>2021-10-16T18:29:34Z</time>
      </trkpt>
      <trkpt lat="37.684415" lon="-4.479372">
        <ele>173.032</ele>
        <time>2021-10-16T18:29:36Z</time>
      </trkpt>
      <trkpt lat="37.684410" lon="-4.479143">
        <ele>173.061</ele>
        <time>2021-10-16T18:29:37Z</time>
      </trkpt>
      <trkpt lat="37.684404" lon="-4.478912">
        <ele>173.343</ele>
        <time>2021-10-16T18:29:38Z</time>
      </trkpt>
      <trkpt lat="37.684388" lon="-4.478466">
        <ele>172.930</ele>
        <time>2021-10-16T18:29:40Z</time>
      </trkpt>
      <trkpt lat="37.684381" lon="-4.478255">
        <ele>173.649</ele>
        <time>2021-10-16T18:29:41Z</time>
      </trkpt>
      <trkpt lat="37.684365" lon="-4.477830">
        <ele>172.902</ele>
        <time>2021-10-16T18:29:43Z</time>
      </trkpt>
      <trkpt lat="37.684358" lon="-4.477604">
        <ele>172.522</ele>
        <time>2021-10-16T18:29:44Z</time>
      </trkpt>
      <trkpt lat="37.684342" lon="-4.477140">
        <ele>173.508</ele>
        <time>2021-10-16T18:29:46Z</time>
      </trkpt>
      <trkpt lat="37.684331" lon="-4.476664">
        <ele>174.172</ele>
        <time>2021-10-16T18:29:48Z</time>
      </trkpt>
      <trkpt lat="37.684320" lon="-4.476201">
        <ele>174.070</ele>
        <time>2021-10-16T18:29:50Z</time>
      </trkpt>
      <trkpt lat="37.684310" lon="-4.475738">
        <ele>173.519</ele>
        <time>2021-10-16T18:29:52Z</time>
      </trkpt>
      <trkpt lat="37.684301" lon="-4.475239">
        <ele>173.713</ele>
        <time>2021-10-16T18:29:54Z</time>
      </trkpt>
      <trkpt lat="37.684288" lon="-4.474691">
        <ele>173.718</ele>
        <time>2021-10-16T18:29:56Z</time>
      </trkpt>
      <trkpt lat="37.684276" lon="-4.474129">
        <ele>174.577</ele>
        <time>2021-10-16T18:29:58Z</time>
      </trkpt>
      <trkpt lat="37.684265" lon="-4.473831">
        <ele>174.169</ele>
        <time>2021-10-16T18:29:59Z</time>
      </trkpt>
      <trkpt lat="37.684246" lon="-4.473238">
        <ele>173.866</ele>
        <time>2021-10-16T18:30:01Z</time>
      </trkpt>
      <trkpt lat="37.684238" lon="-4.472946">
        <ele>173.432</ele>
        <time>2021-10-16T18:30:02Z</time>
      </trkpt>
      <trkpt lat="37.684227" lon="-4.472398">
        <ele>172.992</ele>
        <time>2021-10-16T18:30:04Z</time>
      </trkpt>
      <trkpt lat="37.684219" lon="-4.472119">
        <ele>172.811</ele>
        <time>2021-10-16T18:30:05Z</time>
      </trkpt>
      <trkpt lat="37.684208" lon="-4.471570">
        <ele>172.608</ele>
        <time>2021-10-16T18:30:07Z</time>
      </trkpt>
      <trkpt lat="37.684202" lon="-4.471292">
        <ele>173.231</ele>
        <time>2021-10-16T18:30:08Z</time>
      </trkpt>
      <trkpt lat="37.684191" lon="-4.470740">
        <ele>173.949</ele>
        <time>2021-10-16T18:30:10Z</time>
      </trkpt>
      <trkpt lat="37.684181" lon="-4.470182">
        <ele>174.648</ele>
        <time>2021-10-16T18:30:12Z</time>
      </trkpt>
      <trkpt lat="37.684175" lon="-4.469902">
        <ele>174.272</ele>
        <time>2021-10-16T18:30:13Z</time>
      </trkpt>
      <trkpt lat="37.684167" lon="-4.469618">
        <ele>174.617</ele>
        <time>2021-10-16T18:30:14Z</time>
      </trkpt>
      <trkpt lat="37.684136" lon="-4.469054">
        <ele>174.946</ele>
        <time>2021-10-16T18:30:16Z</time>
      </trkpt>
      <trkpt lat="37.684116" lon="-4.468768">
        <ele>175.038</ele>
        <time>2021-10-16T18:30:17Z</time>
      </trkpt>
      <trkpt lat="37.684067" lon="-4.468207">
        <ele>174.715</ele>
        <time>2021-10-16T18:30:19Z</time>
      </trkpt>
      <trkpt lat="37.684036" lon="-4.467926">
        <ele>174.546</ele>
        <time>2021-10-16T18:30:20Z</time>
      </trkpt>
      <trkpt lat="37.683957" lon="-4.467372">
        <ele>174.588</ele>
        <time>2021-10-16T18:30:22Z</time>
      </trkpt>
      <trkpt lat="37.683914" lon="-4.467090">
        <ele>175.216</ele>
        <time>2021-10-16T18:30:23Z</time>
      </trkpt>
      <trkpt lat="37.683821" lon="-4.466520">
        <ele>175.108</ele>
        <time>2021-10-16T18:30:25Z</time>
      </trkpt>
      <trkpt lat="37.683767" lon="-4.466228">
        <ele>175.732</ele>
        <time>2021-10-16T18:30:26Z</time>
      </trkpt>
      <trkpt lat="37.683651" lon="-4.465685">
        <ele>175.350</ele>
        <time>2021-10-16T18:30:28Z</time>
      </trkpt>
      <trkpt lat="37.683589" lon="-4.465410">
        <ele>174.899</ele>
        <time>2021-10-16T18:30:29Z</time>
      </trkpt>
      <trkpt lat="37.683521" lon="-4.465139">
        <ele>174.533</ele>
        <time>2021-10-16T18:30:30Z</time>
      </trkpt>
      <trkpt lat="37.683376" lon="-4.464591">
        <ele>175.438</ele>
        <time>2021-10-16T18:30:32Z</time>
      </trkpt>
      <trkpt lat="37.683237" lon="-4.464062">
        <ele>176.397</ele>
        <time>2021-10-16T18:30:34Z</time>
      </trkpt>
      <trkpt lat="37.683164" lon="-4.463788">
        <ele>176.639</ele>
        <time>2021-10-16T18:30:35Z</time>
      </trkpt>
      <trkpt lat="37.683087" lon="-4.463514">
        <ele>177.126</ele>
        <time>2021-10-16T18:30:36Z</time>
      </trkpt>
      <trkpt lat="37.683009" lon="-4.463243">
        <ele>177.848</ele>
        <time>2021-10-16T18:30:37Z</time>
      </trkpt>
      <trkpt lat="37.682926" lon="-4.462972">
        <ele>179.061</ele>
        <time>2021-10-16T18:30:38Z</time>
      </trkpt>
      <trkpt lat="37.682751" lon="-4.462431">
        <ele>179.417</ele>
        <time>2021-10-16T18:30:40Z</time>
      </trkpt>
      <trkpt lat="37.682654" lon="-4.462161">
        <ele>179.908</ele>
        <time>2021-10-16T18:30:41Z</time>
      </trkpt>
      <trkpt lat="37.682452" lon="-4.461620">
        <ele>181.432</ele>
        <time>2021-10-16T18:30:43Z</time>
      </trkpt>
      <trkpt lat="37.682346" lon="-4.461348">
        <ele>181.290</ele>
        <time>2021-10-16T18:30:44Z</time>
      </trkpt>
      <trkpt lat="37.682135" lon="-4.460820">
        <ele>180.239</ele>
        <time>2021-10-16T18:30:46Z</time>
      </trkpt>
      <trkpt lat="37.682029" lon="-4.460549">
        <ele>180.543</ele>
        <time>2021-10-16T18:30:47Z</time>
      </trkpt>
      <trkpt lat="37.681933" lon="-4.460279">
        <ele>179.878</ele>
        <time>2021-10-16T18:30:48Z</time>
      </trkpt>
      <trkpt lat="37.681842" lon="-4.460011">
        <ele>179.057</ele>
        <time>2021-10-16T18:30:49Z</time>
      </trkpt>
      <trkpt lat="37.681755" lon="-4.459741">
        <ele>178.569</ele>
        <time>2021-10-16T18:30:50Z</time>
      </trkpt>
      <trkpt lat="37.681592" lon="-4.459186">
        <ele>176.626</ele>
        <time>2021-10-16T18:30:52Z</time>
      </trkpt>
      <trkpt lat="37.681520" lon="-4.458900">
        <ele>175.953</ele>
        <time>2021-10-16T18:30:53Z</time>
      </trkpt>
      <trkpt lat="37.681429" lon="-4.458332">
        <ele>175.104</ele>
        <time>2021-10-16T18:30:55Z</time>
      </trkpt>
      <trkpt lat="37.681424" lon="-4.458039">
        <ele>174.914</ele>
        <time>2021-10-16T18:30:56Z</time>
      </trkpt>
      <trkpt lat="37.681493" lon="-4.457468">
        <ele>175.108</ele>
        <time>2021-10-16T18:30:58Z</time>
      </trkpt>
      <trkpt lat="37.681563" lon="-4.457187">
        <ele>175.773</ele>
        <time>2021-10-16T18:30:59Z</time>
      </trkpt>
      <trkpt lat="37.681652" lon="-4.456915">
        <ele>175.981</ele>
        <time>2021-10-16T18:31:00Z</time>
      </trkpt>
      <trkpt lat="37.681866" lon="-4.456425">
        <ele>176.580</ele>
        <time>2021-10-16T18:31:02Z</time>
      </trkpt>
      <trkpt lat="37.682035" lon="-4.456000">
        <ele>176.954</ele>
        <time>2021-10-16T18:31:04Z</time>
      </trkpt>
      <trkpt lat="37.682130" lon="-4.455539">
        <ele>177.679</ele>
        <time>2021-10-16T18:31:06Z</time>
      </trkpt>
      <trkpt lat="37.682164" lon="-4.455099">
        <ele>178.768</ele>
        <time>2021-10-16T18:31:08Z</time>
      </trkpt>
      <trkpt lat="37.682139" lon="-4.454681">
        <ele>180.270</ele>
        <time>2021-10-16T18:31:10Z</time>
      </trkpt>
      <trkpt lat="37.682103" lon="-4.454464">
        <ele>180.427</ele>
        <time>2021-10-16T18:31:11Z</time>
      </trkpt>
      <trkpt lat="37.681999" lon="-4.454007">
        <ele>182.082</ele>
        <time>2021-10-16T18:31:13Z</time>
      </trkpt>
      <trkpt lat="37.681940" lon="-4.453763">
        <ele>181.843</ele>
        <time>2021-10-16T18:31:14Z</time>
      </trkpt>
      <trkpt lat="37.681822" lon="-4.453247">
        <ele>182.117</ele>
        <time>2021-10-16T18:31:16Z</time>
      </trkpt>
      <trkpt lat="37.681694" lon="-4.452663">
        <ele>182.708</ele>
        <time>2021-10-16T18:31:18Z</time>
      </trkpt>
      <trkpt lat="37.681620" lon="-4.452341">
        <ele>183.366</ele>
        <time>2021-10-16T18:31:19Z</time>
      </trkpt>
      <trkpt lat="37.681539" lon="-4.451997">
        <ele>183.754</ele>
        <time>2021-10-16T18:31:20Z</time>
      </trkpt>
      <trkpt lat="37.681380" lon="-4.451254">
        <ele>184.383</ele>
        <time>2021-10-16T18:31:22Z</time>
      </trkpt>
      <trkpt lat="37.681291" lon="-4.450861">
        <ele>184.147</ele>
        <time>2021-10-16T18:31:23Z</time>
      </trkpt>
      <trkpt lat="37.681090" lon="-4.450078">
        <ele>185.162</ele>
        <time>2021-10-16T18:31:25Z</time>
      </trkpt>
      <trkpt lat="37.680986" lon="-4.449679">
        <ele>185.151</ele>
        <time>2021-10-16T18:31:26Z</time>
      </trkpt>
      <trkpt lat="37.680809" lon="-4.448927">
        <ele>185.343</ele>
        <time>2021-10-16T18:31:28Z</time>
      </trkpt>
      <trkpt lat="37.680725" lon="-4.448565">
        <ele>185.490</ele>
        <time>2021-10-16T18:31:29Z</time>
      </trkpt>
      <trkpt lat="37.680569" lon="-4.447894">
        <ele>185.879</ele>
        <time>2021-10-16T18:31:31Z</time>
      </trkpt>
      <trkpt lat="37.680491" lon="-4.447553">
        <ele>185.605</ele>
        <time>2021-10-16T18:31:32Z</time>
      </trkpt>
      <trkpt lat="37.680359" lon="-4.446932">
        <ele>186.125</ele>
        <time>2021-10-16T18:31:34Z</time>
      </trkpt>
      <trkpt lat="37.680249" lon="-4.446320">
        <ele>185.908</ele>
        <time>2021-10-16T18:31:36Z</time>
      </trkpt>
      <trkpt lat="37.680238" lon="-4.445698">
        <ele>186.755</ele>
        <time>2021-10-16T18:31:38Z</time>
      </trkpt>
      <trkpt lat="37.680343" lon="-4.445084">
        <ele>187.743</ele>
        <time>2021-10-16T18:31:40Z</time>
      </trkpt>
      <trkpt lat="37.680505" lon="-4.444491">
        <ele>187.582</ele>
        <time>2021-10-16T18:31:42Z</time>
      </trkpt>
      <trkpt lat="37.680607" lon="-4.443887">
        <ele>188.036</ele>
        <time>2021-10-16T18:31:44Z</time>
      </trkpt>
      <trkpt lat="37.680577" lon="-4.443270">
        <ele>189.871</ele>
        <time>2021-10-16T18:31:46Z</time>
      </trkpt>
      <trkpt lat="37.680504" lon="-4.442964">
        <ele>190.660</ele>
        <time>2021-10-16T18:31:47Z</time>
      </trkpt>
      <trkpt lat="37.680265" lon="-4.442403">
        <ele>189.992</ele>
        <time>2021-10-16T18:31:49Z</time>
      </trkpt>
      <trkpt lat="37.680107" lon="-4.442156">
        <ele>189.039</ele>
        <time>2021-10-16T18:31:50Z</time>
      </trkpt>
      <trkpt lat="37.679741" lon="-4.441724">
        <ele>188.612</ele>
        <time>2021-10-16T18:31:52Z</time>
      </trkpt>
      <trkpt lat="37.679336" lon="-4.441330">
        <ele>187.832</ele>
        <time>2021-10-16T18:31:54Z</time>
      </trkpt>
      <trkpt lat="37.678933" lon="-4.440931">
        <ele>188.205</ele>
        <time>2021-10-16T18:31:56Z</time>
      </trkpt>
      <trkpt lat="37.678597" lon="-4.440561">
        <ele>188.308</ele>
        <time>2021-10-16T18:31:58Z</time>
      </trkpt>
      <trkpt lat="37.678451" lon="-4.440357">
        <ele>187.689</ele>
        <time>2021-10-16T18:31:59Z</time>
      </trkpt>
      <trkpt lat="37.678315" lon="-4.440136">
        <ele>187.587</ele>
        <time>2021-10-16T18:32:00Z</time>
      </trkpt>
      <trkpt lat="37.678080" lon="-4.439626">
        <ele>187.836</ele>
        <time>2021-10-16T18:32:02Z</time>
      </trkpt>
      <trkpt lat="37.677904" lon="-4.439032">
        <ele>186.720</ele>
        <time>2021-10-16T18:32:04Z</time>
      </trkpt>
      <trkpt lat="37.677819" lon="-4.438696">
        <ele>186.735</ele>
        <time>2021-10-16T18:32:05Z</time>
      </trkpt>
      <trkpt lat="37.677636" lon="-4.438003">
        <ele>186.864</ele>
        <time>2021-10-16T18:32:07Z</time>
      </trkpt>
      <trkpt lat="37.677537" lon="-4.437647">
        <ele>186.696</ele>
        <time>2021-10-16T18:32:08Z</time>
      </trkpt>
      <trkpt lat="37.677345" lon="-4.436915">
        <ele>186.293</ele>
        <time>2021-10-16T18:32:10Z</time>
      </trkpt>
      <trkpt lat="37.677152" lon="-4.436183">
        <ele>184.064</ele>
        <time>2021-10-16T18:32:12Z</time>
      </trkpt>
      <trkpt lat="37.677055" lon="-4.435816">
        <ele>184.206</ele>
        <time>2021-10-16T18:32:13Z</time>
      </trkpt>
      <trkpt lat="37.676958" lon="-4.435449">
        <ele>184.016</ele>
        <time>2021-10-16T18:32:14Z</time>
      </trkpt>
      <trkpt lat="37.676860" lon="-4.435085">
        <ele>184.408</ele>
        <time>2021-10-16T18:32:15Z</time>
      </trkpt>
      <trkpt lat="37.676663" lon="-4.434356">
        <ele>183.824</ele>
        <time>2021-10-16T18:32:17Z</time>
      </trkpt>
      <trkpt lat="37.676564" lon="-4.433989">
        <ele>183.532</ele>
        <time>2021-10-16T18:32:18Z</time>
      </trkpt>
      <trkpt lat="37.676465" lon="-4.433623">
        <ele>184.311</ele>
        <time>2021-10-16T18:32:19Z</time>
      </trkpt>
      <trkpt lat="37.676366" lon="-4.433258">
        <ele>184.975</ele>
        <time>2021-10-16T18:32:20Z</time>
      </trkpt>
      <trkpt lat="37.676167" lon="-4.432527">
        <ele>185.480</ele>
        <time>2021-10-16T18:32:22Z</time>
      </trkpt>
      <trkpt lat="37.676066" lon="-4.432157">
        <ele>184.629</ele>
        <time>2021-10-16T18:32:23Z</time>
      </trkpt>
      <trkpt lat="37.675869" lon="-4.431425">
        <ele>183.981</ele>
        <time>2021-10-16T18:32:25Z</time>
      </trkpt>
      <trkpt lat="37.675770" lon="-4.431054">
        <ele>183.948</ele>
        <time>2021-10-16T18:32:26Z</time>
      </trkpt>
      <trkpt lat="37.675579" lon="-4.430353">
        <ele>183.241</ele>
        <time>2021-10-16T18:32:28Z</time>
      </trkpt>
      <trkpt lat="37.675478" lon="-4.430012">
        <ele>183.181</ele>
        <time>2021-10-16T18:32:29Z</time>
      </trkpt>
      <trkpt lat="37.675366" lon="-4.429691">
        <ele>183.209</ele>
        <time>2021-10-16T18:32:30Z</time>
      </trkpt>
      <trkpt lat="37.675115" lon="-4.429090">
        <ele>182.708</ele>
        <time>2021-10-16T18:32:32Z</time>
      </trkpt>
      <trkpt lat="37.674860" lon="-4.428519">
        <ele>181.922</ele>
        <time>2021-10-16T18:32:34Z</time>
      </trkpt>
      <trkpt lat="37.674732" lon="-4.428226">
        <ele>183.020</ele>
        <time>2021-10-16T18:32:35Z</time>
      </trkpt>
      <trkpt lat="37.674476" lon="-4.427640">
        <ele>182.899</ele>
        <time>2021-10-16T18:32:37Z</time>
      </trkpt>
      <trkpt lat="37.674347" lon="-4.427340">
        <ele>182.833</ele>
        <time>2021-10-16T18:32:38Z</time>
      </trkpt>
      <trkpt lat="37.674114" lon="-4.426738">
        <ele>183.778</ele>
        <time>2021-10-16T18:32:40Z</time>
      </trkpt>
      <trkpt lat="37.673928" lon="-4.426106">
        <ele>184.677</ele>
        <time>2021-10-16T18:32:42Z</time>
      </trkpt>
      <trkpt lat="37.673860" lon="-4.425771">
        <ele>183.789</ele>
        <time>2021-10-16T18:32:43Z</time>
      </trkpt>
      <trkpt lat="37.673790" lon="-4.425434">
        <ele>183.576</ele>
        <time>2021-10-16T18:32:44Z</time>
      </trkpt>
      <trkpt lat="37.673657" lon="-4.424791">
        <ele>182.632</ele>
        <time>2021-10-16T18:32:46Z</time>
      </trkpt>
      <trkpt lat="37.673533" lon="-4.424198">
        <ele>182.592</ele>
        <time>2021-10-16T18:32:48Z</time>
      </trkpt>
      <trkpt lat="37.673412" lon="-4.423625">
        <ele>183.411</ele>
        <time>2021-10-16T18:32:50Z</time>
      </trkpt>
      <trkpt lat="37.673295" lon="-4.423056">
        <ele>184.008</ele>
        <time>2021-10-16T18:32:52Z</time>
      </trkpt>
      <trkpt lat="37.673230" lon="-4.422765">
        <ele>184.191</ele>
        <time>2021-10-16T18:32:53Z</time>
      </trkpt>
      <trkpt lat="37.673099" lon="-4.422168">
        <ele>186.779</ele>
        <time>2021-10-16T18:32:55Z</time>
      </trkpt>
      <trkpt lat="37.673029" lon="-4.421847">
        <ele>186.838</ele>
        <time>2021-10-16T18:32:56Z</time>
      </trkpt>
      <trkpt lat="37.672903" lon="-4.421263">
        <ele>187.552</ele>
        <time>2021-10-16T18:32:58Z</time>
      </trkpt>
      <trkpt lat="37.672788" lon="-4.420696">
        <ele>188.937</ele>
        <time>2021-10-16T18:33:00Z</time>
      </trkpt>
      <trkpt lat="37.672708" lon="-4.420125">
        <ele>190.526</ele>
        <time>2021-10-16T18:33:02Z</time>
      </trkpt>
      <trkpt lat="37.672671" lon="-4.419552">
        <ele>190.518</ele>
        <time>2021-10-16T18:33:04Z</time>
      </trkpt>
      <trkpt lat="37.672631" lon="-4.418931">
        <ele>191.735</ele>
        <time>2021-10-16T18:33:06Z</time>
      </trkpt>
      <trkpt lat="37.672575" lon="-4.418281">
        <ele>191.495</ele>
        <time>2021-10-16T18:33:08Z</time>
      </trkpt>
      <trkpt lat="37.672525" lon="-4.417624">
        <ele>192.249</ele>
        <time>2021-10-16T18:33:10Z</time>
      </trkpt>
      <trkpt lat="37.672501" lon="-4.417292">
        <ele>193.023</ele>
        <time>2021-10-16T18:33:11Z</time>
      </trkpt>
      <trkpt lat="37.672452" lon="-4.416634">
        <ele>193.108</ele>
        <time>2021-10-16T18:33:13Z</time>
      </trkpt>
      <trkpt lat="37.672428" lon="-4.416306">
        <ele>193.667</ele>
        <time>2021-10-16T18:33:14Z</time>
      </trkpt>
      <trkpt lat="37.672382" lon="-4.415681">
        <ele>192.865</ele>
        <time>2021-10-16T18:33:16Z</time>
      </trkpt>
      <trkpt lat="37.672360" lon="-4.415375">
        <ele>192.944</ele>
        <time>2021-10-16T18:33:17Z</time>
      </trkpt>
      <trkpt lat="37.672338" lon="-4.415073">
        <ele>193.388</ele>
        <time>2021-10-16T18:33:18Z</time>
      </trkpt>
      <trkpt lat="37.672316" lon="-4.414770">
        <ele>193.463</ele>
        <time>2021-10-16T18:33:19Z</time>
      </trkpt>
      <trkpt lat="37.672298" lon="-4.414465">
        <ele>193.392</ele>
        <time>2021-10-16T18:33:20Z</time>
      </trkpt>
      <trkpt lat="37.672260" lon="-4.413853">
        <ele>192.144</ele>
        <time>2021-10-16T18:33:22Z</time>
      </trkpt>
      <trkpt lat="37.672239" lon="-4.413546">
        <ele>191.891</ele>
        <time>2021-10-16T18:33:23Z</time>
      </trkpt>
      <trkpt lat="37.672191" lon="-4.412951">
        <ele>191.377</ele>
        <time>2021-10-16T18:33:25Z</time>
      </trkpt>
      <trkpt lat="37.672150" lon="-4.412657">
        <ele>190.761</ele>
        <time>2021-10-16T18:33:26Z</time>
      </trkpt>
      <trkpt lat="37.672021" lon="-4.412104">
        <ele>189.127</ele>
        <time>2021-10-16T18:33:28Z</time>
      </trkpt>
      <trkpt lat="37.671927" lon="-4.411830">
        <ele>188.208</ele>
        <time>2021-10-16T18:33:29Z</time>
      </trkpt>
      <trkpt lat="37.671711" lon="-4.411293">
        <ele>188.635</ele>
        <time>2021-10-16T18:33:31Z</time>
      </trkpt>
      <trkpt lat="37.671598" lon="-4.411014">
        <ele>188.763</ele>
        <time>2021-10-16T18:33:32Z</time>
      </trkpt>
      <trkpt lat="37.671375" lon="-4.410452">
        <ele>189.142</ele>
        <time>2021-10-16T18:33:34Z</time>
      </trkpt>
      <trkpt lat="37.671256" lon="-4.410154">
        <ele>189.556</ele>
        <time>2021-10-16T18:33:35Z</time>
      </trkpt>
      <trkpt lat="37.671135" lon="-4.409849">
        <ele>189.161</ele>
        <time>2021-10-16T18:33:36Z</time>
      </trkpt>
      <trkpt lat="37.670891" lon="-4.409224">
        <ele>190.090</ele>
        <time>2021-10-16T18:33:38Z</time>
      </trkpt>
      <trkpt lat="37.670642" lon="-4.408593">
        <ele>191.282</ele>
        <time>2021-10-16T18:33:40Z</time>
      </trkpt>
      <trkpt lat="37.670518" lon="-4.408276">
        <ele>191.419</ele>
        <time>2021-10-16T18:33:41Z</time>
      </trkpt>
      <trkpt lat="37.670286" lon="-4.407690">
        <ele>192.187</ele>
        <time>2021-10-16T18:33:43Z</time>
      </trkpt>
      <trkpt lat="37.670176" lon="-4.407420">
        <ele>191.942</ele>
        <time>2021-10-16T18:33:44Z</time>
      </trkpt>
      <trkpt lat="37.669971" lon="-4.406901">
        <ele>192.026</ele>
        <time>2021-10-16T18:33:46Z</time>
      </trkpt>
      <trkpt lat="37.669761" lon="-4.406371">
        <ele>192.508</ele>
        <time>2021-10-16T18:33:48Z</time>
      </trkpt>
      <trkpt lat="37.669648" lon="-4.406106">
        <ele>192.136</ele>
        <time>2021-10-16T18:33:49Z</time>
      </trkpt>
      <trkpt lat="37.669525" lon="-4.405847">
        <ele>192.564</ele>
        <time>2021-10-16T18:33:50Z</time>
      </trkpt>
      <trkpt lat="37.669245" lon="-4.405350">
        <ele>194.573</ele>
        <time>2021-10-16T18:33:52Z</time>
      </trkpt>
      <trkpt lat="37.669086" lon="-4.405108">
        <ele>196.057</ele>
        <time>2021-10-16T18:33:53Z</time>
      </trkpt>
      <trkpt lat="37.668926" lon="-4.404867">
        <ele>197.012</ele>
        <time>2021-10-16T18:33:54Z</time>
      </trkpt>
      <trkpt lat="37.668770" lon="-4.404626">
        <ele>198.211</ele>
        <time>2021-10-16T18:33:55Z</time>
      </trkpt>
      <trkpt lat="37.668614" lon="-4.404383">
        <ele>199.513</ele>
        <time>2021-10-16T18:33:56Z</time>
      </trkpt>
      <trkpt lat="37.668323" lon="-4.403937">
        <ele>201.140</ele>
        <time>2021-10-16T18:33:58Z</time>
      </trkpt>
      <trkpt lat="37.668185" lon="-4.403729">
        <ele>202.489</ele>
        <time>2021-10-16T18:33:59Z</time>
      </trkpt>
      <trkpt lat="37.667931" lon="-4.403350">
        <ele>205.806</ele>
        <time>2021-10-16T18:34:01Z</time>
      </trkpt>
      <trkpt lat="37.667797" lon="-4.403149">
        <ele>206.326</ele>
        <time>2021-10-16T18:34:02Z</time>
      </trkpt>
      <trkpt lat="37.667528" lon="-4.402744">
        <ele>207.008</ele>
        <time>2021-10-16T18:34:04Z</time>
      </trkpt>
      <trkpt lat="37.667384" lon="-4.402524">
        <ele>207.696</ele>
        <time>2021-10-16T18:34:05Z</time>
      </trkpt>
      <trkpt lat="37.667084" lon="-4.402068">
        <ele>208.614</ele>
        <time>2021-10-16T18:34:07Z</time>
      </trkpt>
      <trkpt lat="37.666930" lon="-4.401832">
        <ele>209.073</ele>
        <time>2021-10-16T18:34:08Z</time>
      </trkpt>
      <trkpt lat="37.666653" lon="-4.401352">
        <ele>209.967</ele>
        <time>2021-10-16T18:34:10Z</time>
      </trkpt>
      <trkpt lat="37.666538" lon="-4.401095">
        <ele>210.542</ele>
        <time>2021-10-16T18:34:11Z</time>
      </trkpt>
      <trkpt lat="37.666372" lon="-4.400529">
        <ele>210.561</ele>
        <time>2021-10-16T18:34:13Z</time>
      </trkpt>
      <trkpt lat="37.666326" lon="-4.400228">
        <ele>209.863</ele>
        <time>2021-10-16T18:34:14Z</time>
      </trkpt>
      <trkpt lat="37.666315" lon="-4.399629">
        <ele>208.380</ele>
        <time>2021-10-16T18:34:16Z</time>
      </trkpt>
      <trkpt lat="37.666408" lon="-4.399025">
        <ele>206.933</ele>
        <time>2021-10-16T18:34:18Z</time>
      </trkpt>
      <trkpt lat="37.666492" lon="-4.398729">
        <ele>206.223</ele>
        <time>2021-10-16T18:34:19Z</time>
      </trkpt>
      <trkpt lat="37.666739" lon="-4.398181">
        <ele>205.115</ele>
        <time>2021-10-16T18:34:21Z</time>
      </trkpt>
      <trkpt lat="37.667068" lon="-4.397686">
        <ele>204.208</ele>
        <time>2021-10-16T18:34:23Z</time>
      </trkpt>
      <trkpt lat="37.667242" lon="-4.397446">
        <ele>202.771</ele>
        <time>2021-10-16T18:34:24Z</time>
      </trkpt>
      <trkpt lat="37.667409" lon="-4.397201">
        <ele>201.559</ele>
        <time>2021-10-16T18:34:25Z</time>
      </trkpt>
      <trkpt lat="37.667565" lon="-4.396944">
        <ele>200.878</ele>
        <time>2021-10-16T18:34:26Z</time>
      </trkpt>
      <trkpt lat="37.667787" lon="-4.396432">
        <ele>199.412</ele>
        <time>2021-10-16T18:34:28Z</time>
      </trkpt>
      <trkpt lat="37.667866" lon="-4.396145">
        <ele>199.077</ele>
        <time>2021-10-16T18:34:29Z</time>
      </trkpt>
      <trkpt lat="37.667956" lon="-4.395540">
        <ele>197.496</ele>
        <time>2021-10-16T18:34:31Z</time>
      </trkpt>
      <trkpt lat="37.667959" lon="-4.395202">
        <ele>196.768</ele>
        <time>2021-10-16T18:34:32Z</time>
      </trkpt>
      <trkpt lat="37.667912" lon="-4.394545">
        <ele>194.945</ele>
        <time>2021-10-16T18:34:34Z</time>
      </trkpt>
      <trkpt lat="37.667885" lon="-4.394203">
        <ele>195.028</ele>
        <time>2021-10-16T18:34:35Z</time>
      </trkpt>
      <trkpt lat="37.667860" lon="-4.393857">
        <ele>194.789</ele>
        <time>2021-10-16T18:34:36Z</time>
      </trkpt>
      <trkpt lat="37.667808" lon="-4.393162">
        <ele>194.017</ele>
        <time>2021-10-16T18:34:38Z</time>
      </trkpt>
      <trkpt lat="37.667760" lon="-4.392475">
        <ele>194.208</ele>
        <time>2021-10-16T18:34:40Z</time>
      </trkpt>
      <trkpt lat="37.667732" lon="-4.392126">
        <ele>195.280</ele>
        <time>2021-10-16T18:34:41Z</time>
      </trkpt>
      <trkpt lat="37.667683" lon="-4.391455">
        <ele>195.218</ele>
        <time>2021-10-16T18:34:43Z</time>
      </trkpt>
      <trkpt lat="37.667657" lon="-4.391123">
        <ele>195.387</ele>
        <time>2021-10-16T18:34:44Z</time>
      </trkpt>
      <trkpt lat="37.667608" lon="-4.390481">
        <ele>196.261</ele>
        <time>2021-10-16T18:34:46Z</time>
      </trkpt>
      <trkpt lat="37.667544" lon="-4.389843">
        <ele>195.736</ele>
        <time>2021-10-16T18:34:48Z</time>
      </trkpt>
      <trkpt lat="37.667485" lon="-4.389529">
        <ele>195.225</ele>
        <time>2021-10-16T18:34:49Z</time>
      </trkpt>
      <trkpt lat="37.667400" lon="-4.389225">
        <ele>195.597</ele>
        <time>2021-10-16T18:34:50Z</time>
      </trkpt>
      <trkpt lat="37.667149" lon="-4.388666">
        <ele>195.934</ele>
        <time>2021-10-16T18:34:52Z</time>
      </trkpt>
      <trkpt lat="37.666798" lon="-4.388187">
        <ele>196.429</ele>
        <time>2021-10-16T18:34:54Z</time>
      </trkpt>
      <trkpt lat="37.666596" lon="-4.387975">
        <ele>196.700</ele>
        <time>2021-10-16T18:34:55Z</time>
      </trkpt>
      <trkpt lat="37.666385" lon="-4.387762">
        <ele>196.420</ele>
        <time>2021-10-16T18:34:56Z</time>
      </trkpt>
      <trkpt lat="37.665977" lon="-4.387344">
        <ele>197.108</ele>
        <time>2021-10-16T18:34:58Z</time>
      </trkpt>
      <trkpt lat="37.665766" lon="-4.387125">
        <ele>197.950</ele>
        <time>2021-10-16T18:34:59Z</time>
      </trkpt>
      <trkpt lat="37.665338" lon="-4.386697">
        <ele>199.878</ele>
        <time>2021-10-16T18:35:01Z</time>
      </trkpt>
      <trkpt lat="37.665116" lon="-4.386475">
        <ele>200.967</ele>
        <time>2021-10-16T18:35:02Z</time>
      </trkpt>
      <trkpt lat="37.664689" lon="-4.386057">
        <ele>201.911</ele>
        <time>2021-10-16T18:35:04Z</time>
      </trkpt>
      <trkpt lat="37.664280" lon="-4.385661">
        <ele>203.516</ele>
        <time>2021-10-16T18:35:06Z</time>
      </trkpt>
      <trkpt lat="37.664089" lon="-4.385479">
        <ele>203.485</ele>
        <time>2021-10-16T18:35:07Z</time>
      </trkpt>
      <trkpt lat="37.663898" lon="-4.385311">
        <ele>203.237</ele>
        <time>2021-10-16T18:35:08Z</time>
      </trkpt>
      <trkpt lat="37.663489" lon="-4.385013">
        <ele>203.094</ele>
        <time>2021-10-16T18:35:10Z</time>
      </trkpt>
      <trkpt lat="37.663265" lon="-4.384893">
        <ele>202.942</ele>
        <time>2021-10-16T18:35:11Z</time>
      </trkpt>
      <trkpt lat="37.663035" lon="-4.384783">
        <ele>202.522</ele>
        <time>2021-10-16T18:35:12Z</time>
      </trkpt>
      <trkpt lat="37.662799" lon="-4.384667">
        <ele>201.614</ele>
        <time>2021-10-16T18:35:13Z</time>
      </trkpt>
      <trkpt lat="37.662560" lon="-4.384548">
        <ele>201.008</ele>
        <time>2021-10-16T18:35:14Z</time>
      </trkpt>
      <trkpt lat="37.662073" lon="-4.384309">
        <ele>201.422</ele>
        <time>2021-10-16T18:35:16Z</time>
      </trkpt>
      <trkpt lat="37.661572" lon="-4.384062">
        <ele>201.780</ele>
        <time>2021-10-16T18:35:18Z</time>
      </trkpt>
      <trkpt lat="37.661064" lon="-4.383810">
        <ele>203.179</ele>
        <time>2021-10-16T18:35:20Z</time>
      </trkpt>
      <trkpt lat="37.660550" lon="-4.383571">
        <ele>204.023</ele>
        <time>2021-10-16T18:35:22Z</time>
      </trkpt>
      <trkpt lat="37.660283" lon="-4.383463">
        <ele>204.518</ele>
        <time>2021-10-16T18:35:23Z</time>
      </trkpt>
      <trkpt lat="37.659744" lon="-4.383259">
        <ele>205.087</ele>
        <time>2021-10-16T18:35:25Z</time>
      </trkpt>
      <trkpt lat="37.659470" lon="-4.383157">
        <ele>205.779</ele>
        <time>2021-10-16T18:35:26Z</time>
      </trkpt>
      <trkpt lat="37.658980" lon="-4.382979">
        <ele>206.096</ele>
        <time>2021-10-16T18:35:28Z</time>
      </trkpt>
      <trkpt lat="37.658509" lon="-4.382809">
        <ele>206.112</ele>
        <time>2021-10-16T18:35:30Z</time>
      </trkpt>
      <trkpt lat="37.658273" lon="-4.382724">
        <ele>206.332</ele>
        <time>2021-10-16T18:35:31Z</time>
      </trkpt>
      <trkpt lat="37.658028" lon="-4.382639">
        <ele>206.305</ele>
        <time>2021-10-16T18:35:32Z</time>
      </trkpt>
      <trkpt lat="37.657556" lon="-4.382475">
        <ele>207.008</ele>
        <time>2021-10-16T18:35:34Z</time>
      </trkpt>
      <trkpt lat="37.657078" lon="-4.382298">
        <ele>207.529</ele>
        <time>2021-10-16T18:35:36Z</time>
      </trkpt>
      <trkpt lat="37.656845" lon="-4.382214">
        <ele>207.337</ele>
        <time>2021-10-16T18:35:37Z</time>
      </trkpt>
      <trkpt lat="37.656617" lon="-4.382131">
        <ele>207.186</ele>
        <time>2021-10-16T18:35:38Z</time>
      </trkpt>
      <trkpt lat="37.656185" lon="-4.381966">
        <ele>208.430</ele>
        <time>2021-10-16T18:35:40Z</time>
      </trkpt>
      <trkpt lat="37.655782" lon="-4.381816">
        <ele>209.065</ele>
        <time>2021-10-16T18:35:42Z</time>
      </trkpt>
      <trkpt lat="37.655363" lon="-4.381670">
        <ele>209.164</ele>
        <time>2021-10-16T18:35:44Z</time>
      </trkpt>
      <trkpt lat="37.654940" lon="-4.381513">
        <ele>210.076</ele>
        <time>2021-10-16T18:35:46Z</time>
      </trkpt>
      <trkpt lat="37.654726" lon="-4.381431">
        <ele>210.463</ele>
        <time>2021-10-16T18:35:47Z</time>
      </trkpt>
      <trkpt lat="37.654291" lon="-4.381280">
        <ele>211.012</ele>
        <time>2021-10-16T18:35:49Z</time>
      </trkpt>
      <trkpt lat="37.654075" lon="-4.381203">
        <ele>211.132</ele>
        <time>2021-10-16T18:35:50Z</time>
      </trkpt>
      <trkpt lat="37.653666" lon="-4.381052">
        <ele>212.505</ele>
        <time>2021-10-16T18:35:52Z</time>
      </trkpt>
      <trkpt lat="37.653461" lon="-4.380978">
        <ele>212.608</ele>
        <time>2021-10-16T18:35:53Z</time>
      </trkpt>
      <trkpt lat="37.653253" lon="-4.380906">
        <ele>212.819</ele>
        <time>2021-10-16T18:35:54Z</time>
      </trkpt>
      <trkpt lat="37.652829" lon="-4.380752">
        <ele>213.567</ele>
        <time>2021-10-16T18:35:56Z</time>
      </trkpt>
      <trkpt lat="37.652422" lon="-4.380607">
        <ele>214.376</ele>
        <time>2021-10-16T18:35:58Z</time>
      </trkpt>
      <trkpt lat="37.652010" lon="-4.380465">
        <ele>215.390</ele>
        <time>2021-10-16T18:36:00Z</time>
      </trkpt>
      <trkpt lat="37.651802" lon="-4.380393">
        <ele>216.175</ele>
        <time>2021-10-16T18:36:01Z</time>
      </trkpt>
      <trkpt lat="37.651588" lon="-4.380317">
        <ele>216.314</ele>
        <time>2021-10-16T18:36:02Z</time>
      </trkpt>
      <trkpt lat="37.651172" lon="-4.380165">
        <ele>216.556</ele>
        <time>2021-10-16T18:36:04Z</time>
      </trkpt>
      <trkpt lat="37.650958" lon="-4.380089">
        <ele>216.453</ele>
        <time>2021-10-16T18:36:05Z</time>
      </trkpt>
      <trkpt lat="37.650536" lon="-4.379934">
        <ele>217.355</ele>
        <time>2021-10-16T18:36:07Z</time>
      </trkpt>
      <trkpt lat="37.650332" lon="-4.379859">
        <ele>217.307</ele>
        <time>2021-10-16T18:36:08Z</time>
      </trkpt>
      <trkpt lat="37.649920" lon="-4.379713">
        <ele>218.017</ele>
        <time>2021-10-16T18:36:10Z</time>
      </trkpt>
      <trkpt lat="37.649710" lon="-4.379635">
        <ele>218.908</ele>
        <time>2021-10-16T18:36:11Z</time>
      </trkpt>
      <trkpt lat="37.649287" lon="-4.379484">
        <ele>219.983</ele>
        <time>2021-10-16T18:36:13Z</time>
      </trkpt>
      <trkpt lat="37.649072" lon="-4.379404">
        <ele>220.461</ele>
        <time>2021-10-16T18:36:14Z</time>
      </trkpt>
      <trkpt lat="37.648649" lon="-4.379257">
        <ele>221.020</ele>
        <time>2021-10-16T18:36:16Z</time>
      </trkpt>
      <trkpt lat="37.648222" lon="-4.379103">
        <ele>221.944</ele>
        <time>2021-10-16T18:36:18Z</time>
      </trkpt>
      <trkpt lat="37.648003" lon="-4.379021">
        <ele>222.629</ele>
        <time>2021-10-16T18:36:19Z</time>
      </trkpt>
      <trkpt lat="37.647783" lon="-4.378925">
        <ele>222.798</ele>
        <time>2021-10-16T18:36:20Z</time>
      </trkpt>
      <trkpt lat="37.647353" lon="-4.378692">
        <ele>223.930</ele>
        <time>2021-10-16T18:36:22Z</time>
      </trkpt>
      <trkpt lat="37.647136" lon="-4.378556">
        <ele>224.847</ele>
        <time>2021-10-16T18:36:23Z</time>
      </trkpt>
      <trkpt lat="37.646920" lon="-4.378409">
        <ele>225.136</ele>
        <time>2021-10-16T18:36:24Z</time>
      </trkpt>
      <trkpt lat="37.646484" lon="-4.378085">
        <ele>225.817</ele>
        <time>2021-10-16T18:36:26Z</time>
      </trkpt>
      <trkpt lat="37.646075" lon="-4.377743">
        <ele>226.218</ele>
        <time>2021-10-16T18:36:28Z</time>
      </trkpt>
      <trkpt lat="37.645862" lon="-4.377565">
        <ele>226.508</ele>
        <time>2021-10-16T18:36:29Z</time>
      </trkpt>
      <trkpt lat="37.645646" lon="-4.377393">
        <ele>226.761</ele>
        <time>2021-10-16T18:36:30Z</time>
      </trkpt>
      <trkpt lat="37.645430" lon="-4.377224">
        <ele>227.269</ele>
        <time>2021-10-16T18:36:31Z</time>
      </trkpt>
      <trkpt lat="37.645208" lon="-4.377045">
        <ele>227.598</ele>
        <time>2021-10-16T18:36:32Z</time>
      </trkpt>
      <trkpt lat="37.644791" lon="-4.376709">
        <ele>228.592</ele>
        <time>2021-10-16T18:36:34Z</time>
      </trkpt>
      <trkpt lat="37.644366" lon="-4.376372">
        <ele>229.687</ele>
        <time>2021-10-16T18:36:36Z</time>
      </trkpt>
      <trkpt lat="37.644155" lon="-4.376209">
        <ele>230.066</ele>
        <time>2021-10-16T18:36:37Z</time>
      </trkpt>
      <trkpt lat="37.643948" lon="-4.376049">
        <ele>230.198</ele>
        <time>2021-10-16T18:36:38Z</time>
      </trkpt>
      <trkpt lat="37.643551" lon="-4.375740">
        <ele>230.325</ele>
        <time>2021-10-16T18:36:40Z</time>
      </trkpt>
      <trkpt lat="37.643160" lon="-4.375437">
        <ele>230.973</ele>
        <time>2021-10-16T18:36:42Z</time>
      </trkpt>
      <trkpt lat="37.642789" lon="-4.375121">
        <ele>231.885</ele>
        <time>2021-10-16T18:36:44Z</time>
      </trkpt>
      <trkpt lat="37.642460" lon="-4.374759">
        <ele>231.313</ele>
        <time>2021-10-16T18:36:46Z</time>
      </trkpt>
      <trkpt lat="37.642185" lon="-4.374327">
        <ele>231.908</ele>
        <time>2021-10-16T18:36:48Z</time>
      </trkpt>
      <trkpt lat="37.641972" lon="-4.373817">
        <ele>232.595</ele>
        <time>2021-10-16T18:36:50Z</time>
      </trkpt>
      <trkpt lat="37.641812" lon="-4.373253">
        <ele>232.023</ele>
        <time>2021-10-16T18:36:52Z</time>
      </trkpt>
      <trkpt lat="37.641731" lon="-4.372962">
        <ele>231.812</ele>
        <time>2021-10-16T18:36:53Z</time>
      </trkpt>
      <trkpt lat="37.641561" lon="-4.372391">
        <ele>232.066</ele>
        <time>2021-10-16T18:36:55Z</time>
      </trkpt>
      <trkpt lat="37.641472" lon="-4.372098">
        <ele>231.861</ele>
        <time>2021-10-16T18:36:56Z</time>
      </trkpt>
      <trkpt lat="37.641301" lon="-4.371536">
        <ele>233.240</ele>
        <time>2021-10-16T18:36:58Z</time>
      </trkpt>
      <trkpt lat="37.641211" lon="-4.371251">
        <ele>233.562</ele>
        <time>2021-10-16T18:36:59Z</time>
      </trkpt>
      <trkpt lat="37.641114" lon="-4.370967">
        <ele>234.269</ele>
        <time>2021-10-16T18:37:00Z</time>
      </trkpt>
      <trkpt lat="37.640869" lon="-4.370409">
        <ele>235.739</ele>
        <time>2021-10-16T18:37:02Z</time>
      </trkpt>
      <trkpt lat="37.640542" lon="-4.369899">
        <ele>237.001</ele>
        <time>2021-10-16T18:37:04Z</time>
      </trkpt>
      <trkpt lat="37.640123" lon="-4.369477">
        <ele>238.221</ele>
        <time>2021-10-16T18:37:06Z</time>
      </trkpt>
      <trkpt lat="37.639918" lon="-4.369273">
        <ele>239.208</ele>
        <time>2021-10-16T18:37:07Z</time>
      </trkpt>
      <trkpt lat="37.639723" lon="-4.369057">
        <ele>240.241</ele>
        <time>2021-10-16T18:37:08Z</time>
      </trkpt>
      <trkpt lat="37.639365" lon="-4.368593">
        <ele>241.069</ele>
        <time>2021-10-16T18:37:10Z</time>
      </trkpt>
      <trkpt lat="37.639010" lon="-4.368120">
        <ele>241.848</ele>
        <time>2021-10-16T18:37:12Z</time>
      </trkpt>
      <trkpt lat="37.638824" lon="-4.367890">
        <ele>242.812</ele>
        <time>2021-10-16T18:37:13Z</time>
      </trkpt>
      <trkpt lat="37.638629" lon="-4.367669">
        <ele>243.577</ele>
        <time>2021-10-16T18:37:14Z</time>
      </trkpt>
      <trkpt lat="37.638222" lon="-4.367255">
        <ele>244.746</ele>
        <time>2021-10-16T18:37:16Z</time>
      </trkpt>
      <trkpt lat="37.638005" lon="-4.367052">
        <ele>246.268</ele>
        <time>2021-10-16T18:37:17Z</time>
      </trkpt>
      <trkpt lat="37.637577" lon="-4.366647">
        <ele>247.895</ele>
        <time>2021-10-16T18:37:19Z</time>
      </trkpt>
      <trkpt lat="37.637362" lon="-4.366440">
        <ele>247.944</ele>
        <time>2021-10-16T18:37:20Z</time>
      </trkpt>
      <trkpt lat="37.636933" lon="-4.366028">
        <ele>249.105</ele>
        <time>2021-10-16T18:37:22Z</time>
      </trkpt>
      <trkpt lat="37.636714" lon="-4.365819">
        <ele>249.915</ele>
        <time>2021-10-16T18:37:23Z</time>
      </trkpt>
      <trkpt lat="37.636496" lon="-4.365612">
        <ele>250.208</ele>
        <time>2021-10-16T18:37:24Z</time>
      </trkpt>
      <trkpt lat="37.636278" lon="-4.365405">
        <ele>250.772</ele>
        <time>2021-10-16T18:37:25Z</time>
      </trkpt>
      <trkpt lat="37.636057" lon="-4.365196">
        <ele>251.420</ele>
        <time>2021-10-16T18:37:26Z</time>
      </trkpt>
      <trkpt lat="37.635638" lon="-4.364810">
        <ele>251.169</ele>
        <time>2021-10-16T18:37:28Z</time>
      </trkpt>
      <trkpt lat="37.635436" lon="-4.364625">
        <ele>251.743</ele>
        <time>2021-10-16T18:37:29Z</time>
      </trkpt>
      <trkpt lat="37.635233" lon="-4.364444">
        <ele>252.058</ele>
        <time>2021-10-16T18:37:30Z</time>
      </trkpt>
      <trkpt lat="37.634819" lon="-4.364073">
        <ele>251.257</ele>
        <time>2021-10-16T18:37:32Z</time>
      </trkpt>
      <trkpt lat="37.634421" lon="-4.363715">
        <ele>252.249</ele>
        <time>2021-10-16T18:37:34Z</time>
      </trkpt>
      <trkpt lat="37.634007" lon="-4.363356">
        <ele>251.166</ele>
        <time>2021-10-16T18:37:36Z</time>
      </trkpt>
      <trkpt lat="37.633799" lon="-4.363170">
        <ele>252.235</ele>
        <time>2021-10-16T18:37:37Z</time>
      </trkpt>
      <trkpt lat="37.633590" lon="-4.362985">
        <ele>252.786</ele>
        <time>2021-10-16T18:37:38Z</time>
      </trkpt>
      <trkpt lat="37.633177" lon="-4.362627">
        <ele>253.614</ele>
        <time>2021-10-16T18:37:40Z</time>
      </trkpt>
      <trkpt lat="37.632974" lon="-4.362451">
        <ele>253.308</ele>
        <time>2021-10-16T18:37:41Z</time>
      </trkpt>
      <trkpt lat="37.632588" lon="-4.362111">
        <ele>254.361</ele>
        <time>2021-10-16T18:37:43Z</time>
      </trkpt>
      <trkpt lat="37.632392" lon="-4.361940">
        <ele>254.359</ele>
        <time>2021-10-16T18:37:44Z</time>
      </trkpt>
      <trkpt lat="37.631994" lon="-4.361590">
        <ele>255.628</ele>
        <time>2021-10-16T18:37:46Z</time>
      </trkpt>
      <trkpt lat="37.631596" lon="-4.361237">
        <ele>256.522</ele>
        <time>2021-10-16T18:37:48Z</time>
      </trkpt>
      <trkpt lat="37.631211" lon="-4.360900">
        <ele>258.327</ele>
        <time>2021-10-16T18:37:50Z</time>
      </trkpt>
      <trkpt lat="37.630839" lon="-4.360566">
        <ele>260.526</ele>
        <time>2021-10-16T18:37:52Z</time>
      </trkpt>
      <trkpt lat="37.630655" lon="-4.360393">
        <ele>261.928</ele>
        <time>2021-10-16T18:37:53Z</time>
      </trkpt>
      <trkpt lat="37.630472" lon="-4.360212">
        <ele>262.865</ele>
        <time>2021-10-16T18:37:54Z</time>
      </trkpt>
      <trkpt lat="37.630108" lon="-4.359809">
        <ele>264.459</ele>
        <time>2021-10-16T18:37:56Z</time>
      </trkpt>
      <trkpt lat="37.629774" lon="-4.359379">
        <ele>266.203</ele>
        <time>2021-10-16T18:37:58Z</time>
      </trkpt>
      <trkpt lat="37.629455" lon="-4.358905">
        <ele>267.823</ele>
        <time>2021-10-16T18:38:00Z</time>
      </trkpt>
      <trkpt lat="37.629164" lon="-4.358391">
        <ele>269.808</ele>
        <time>2021-10-16T18:38:02Z</time>
      </trkpt>
      <trkpt lat="37.628913" lon="-4.357855">
        <ele>271.643</ele>
        <time>2021-10-16T18:38:04Z</time>
      </trkpt>
      <trkpt lat="37.628794" lon="-4.357566">
        <ele>272.211</ele>
        <time>2021-10-16T18:38:05Z</time>
      </trkpt>
      <trkpt lat="37.628682" lon="-4.357270">
        <ele>273.360</ele>
        <time>2021-10-16T18:38:06Z</time>
      </trkpt>
      <trkpt lat="37.628578" lon="-4.356965">
        <ele>274.024</ele>
        <time>2021-10-16T18:38:07Z</time>
      </trkpt>
      <trkpt lat="37.628487" lon="-4.356652">
        <ele>274.719</ele>
        <time>2021-10-16T18:38:08Z</time>
      </trkpt>
      <trkpt lat="37.628346" lon="-4.356037">
        <ele>276.138</ele>
        <time>2021-10-16T18:38:10Z</time>
      </trkpt>
      <trkpt lat="37.628291" lon="-4.355739">
        <ele>277.430</ele>
        <time>2021-10-16T18:38:11Z</time>
      </trkpt>
      <trkpt lat="37.628246" lon="-4.355448">
        <ele>278.157</ele>
        <time>2021-10-16T18:38:12Z</time>
      </trkpt>
      <trkpt lat="37.628178" lon="-4.354853">
        <ele>278.469</ele>
        <time>2021-10-16T18:38:14Z</time>
      </trkpt>
      <trkpt lat="37.628143" lon="-4.354252">
        <ele>279.804</ele>
        <time>2021-10-16T18:38:16Z</time>
      </trkpt>
      <trkpt lat="37.628139" lon="-4.353944">
        <ele>280.524</ele>
        <time>2021-10-16T18:38:17Z</time>
      </trkpt>
      <trkpt lat="37.628163" lon="-4.353330">
        <ele>281.708</ele>
        <time>2021-10-16T18:38:19Z</time>
      </trkpt>
      <trkpt lat="37.628193" lon="-4.353016">
        <ele>282.854</ele>
        <time>2021-10-16T18:38:20Z</time>
      </trkpt>
      <trkpt lat="37.628278" lon="-4.352423">
        <ele>284.872</ele>
        <time>2021-10-16T18:38:22Z</time>
      </trkpt>
      <trkpt lat="37.628322" lon="-4.352139">
        <ele>285.071</ele>
        <time>2021-10-16T18:38:23Z</time>
      </trkpt>
      <trkpt lat="37.628415" lon="-4.351570">
        <ele>286.185</ele>
        <time>2021-10-16T18:38:25Z</time>
      </trkpt>
      <trkpt lat="37.628463" lon="-4.351268">
        <ele>287.210</ele>
        <time>2021-10-16T18:38:26Z</time>
      </trkpt>
      <trkpt lat="37.628551" lon="-4.350669">
        <ele>288.519</ele>
        <time>2021-10-16T18:38:28Z</time>
      </trkpt>
      <trkpt lat="37.628596" lon="-4.350351">
        <ele>289.291</ele>
        <time>2021-10-16T18:38:29Z</time>
      </trkpt>
      <trkpt lat="37.628636" lon="-4.350026">
        <ele>289.758</ele>
        <time>2021-10-16T18:38:30Z</time>
      </trkpt>
      <trkpt lat="37.628706" lon="-4.349347">
        <ele>291.276</ele>
        <time>2021-10-16T18:38:32Z</time>
      </trkpt>
      <trkpt lat="37.628754" lon="-4.348691">
        <ele>293.090</ele>
        <time>2021-10-16T18:38:34Z</time>
      </trkpt>
      <trkpt lat="37.628784" lon="-4.348034">
        <ele>295.619</ele>
        <time>2021-10-16T18:38:36Z</time>
      </trkpt>
      <trkpt lat="37.628799" lon="-4.347387">
        <ele>297.808</ele>
        <time>2021-10-16T18:38:38Z</time>
      </trkpt>
      <trkpt lat="37.628814" lon="-4.346754">
        <ele>300.475</ele>
        <time>2021-10-16T18:38:40Z</time>
      </trkpt>
      <trkpt lat="37.628823" lon="-4.346127">
        <ele>302.733</ele>
        <time>2021-10-16T18:38:42Z</time>
      </trkpt>
      <trkpt lat="37.628830" lon="-4.345815">
        <ele>303.462</ele>
        <time>2021-10-16T18:38:43Z</time>
      </trkpt>
      <trkpt lat="37.628836" lon="-4.345504">
        <ele>303.476</ele>
        <time>2021-10-16T18:38:44Z</time>
      </trkpt>
      <trkpt lat="37.628847" lon="-4.344886">
        <ele>306.411</ele>
        <time>2021-10-16T18:38:46Z</time>
      </trkpt>
      <trkpt lat="37.628852" lon="-4.344272">
        <ele>307.730</ele>
        <time>2021-10-16T18:38:48Z</time>
      </trkpt>
      <trkpt lat="37.628863" lon="-4.343654">
        <ele>310.582</ele>
        <time>2021-10-16T18:38:50Z</time>
      </trkpt>
      <trkpt lat="37.628875" lon="-4.343035">
        <ele>311.949</ele>
        <time>2021-10-16T18:38:52Z</time>
      </trkpt>
      <trkpt lat="37.628880" lon="-4.342722">
        <ele>313.284</ele>
        <time>2021-10-16T18:38:53Z</time>
      </trkpt>
      <trkpt lat="37.628882" lon="-4.342412">
        <ele>314.107</ele>
        <time>2021-10-16T18:38:54Z</time>
      </trkpt>
      <trkpt lat="37.628896" lon="-4.341776">
        <ele>317.017</ele>
        <time>2021-10-16T18:38:56Z</time>
      </trkpt>
      <trkpt lat="37.628907" lon="-4.341161">
        <ele>319.108</ele>
        <time>2021-10-16T18:38:58Z</time>
      </trkpt>
      <trkpt lat="37.628912" lon="-4.340845">
        <ele>320.116</ele>
        <time>2021-10-16T18:38:59Z</time>
      </trkpt>
      <trkpt lat="37.628918" lon="-4.340226">
        <ele>322.574</ele>
        <time>2021-10-16T18:39:01Z</time>
      </trkpt>
      <trkpt lat="37.628922" lon="-4.339909">
        <ele>323.473</ele>
        <time>2021-10-16T18:39:02Z</time>
      </trkpt>
      <trkpt lat="37.628933" lon="-4.339300">
        <ele>325.047</ele>
        <time>2021-10-16T18:39:04Z</time>
      </trkpt>
      <trkpt lat="37.628940" lon="-4.338684">
        <ele>326.782</ele>
        <time>2021-10-16T18:39:06Z</time>
      </trkpt>
      <trkpt lat="37.628951" lon="-4.338063">
        <ele>329.341</ele>
        <time>2021-10-16T18:39:08Z</time>
      </trkpt>
      <trkpt lat="37.628958" lon="-4.337437">
        <ele>332.133</ele>
        <time>2021-10-16T18:39:10Z</time>
      </trkpt>
      <trkpt lat="37.628961" lon="-4.337119">
        <ele>333.680</ele>
        <time>2021-10-16T18:39:11Z</time>
      </trkpt>
      <trkpt lat="37.628968" lon="-4.336800">
        <ele>335.064</ele>
        <time>2021-10-16T18:39:12Z</time>
      </trkpt>
      <trkpt lat="37.628973" lon="-4.336486">
        <ele>336.206</ele>
        <time>2021-10-16T18:39:13Z</time>
      </trkpt>
      <trkpt lat="37.628974" lon="-4.336171">
        <ele>337.116</ele>
        <time>2021-10-16T18:39:14Z</time>
      </trkpt>
      <trkpt lat="37.628975" lon="-4.335556">
        <ele>339.508</ele>
        <time>2021-10-16T18:39:16Z</time>
      </trkpt>
      <trkpt lat="37.628971" lon="-4.335255">
        <ele>340.944</ele>
        <time>2021-10-16T18:39:17Z</time>
      </trkpt>
      <trkpt lat="37.628967" lon="-4.334650">
        <ele>342.492</ele>
        <time>2021-10-16T18:39:19Z</time>
      </trkpt>
      <trkpt lat="37.628977" lon="-4.334044">
        <ele>344.481</ele>
        <time>2021-10-16T18:39:21Z</time>
      </trkpt>
      <trkpt lat="37.628983" lon="-4.333739">
        <ele>345.425</ele>
        <time>2021-10-16T18:39:22Z</time>
      </trkpt>
      <trkpt lat="37.628986" lon="-4.333448">
        <ele>347.190</ele>
        <time>2021-10-16T18:39:23Z</time>
      </trkpt>
      <trkpt lat="37.628993" lon="-4.332900">
        <ele>348.979</ele>
        <time>2021-10-16T18:39:25Z</time>
      </trkpt>
      <trkpt lat="37.629000" lon="-4.332614">
        <ele>349.931</ele>
        <time>2021-10-16T18:39:26Z</time>
      </trkpt>
      <trkpt lat="37.629013" lon="-4.332058">
        <ele>350.238</ele>
        <time>2021-10-16T18:39:28Z</time>
      </trkpt>
      <trkpt lat="37.629018" lon="-4.331778">
        <ele>351.157</ele>
        <time>2021-10-16T18:39:29Z</time>
      </trkpt>
      <trkpt lat="37.629023" lon="-4.331502">
        <ele>352.100</ele>
        <time>2021-10-16T18:39:30Z</time>
      </trkpt>
      <trkpt lat="37.629029" lon="-4.330950">
        <ele>354.520</ele>
        <time>2021-10-16T18:39:32Z</time>
      </trkpt>
      <trkpt lat="37.629036" lon="-4.330418">
        <ele>355.808</ele>
        <time>2021-10-16T18:39:34Z</time>
      </trkpt>
      <trkpt lat="37.629040" lon="-4.330145">
        <ele>356.833</ele>
        <time>2021-10-16T18:39:35Z</time>
      </trkpt>
      <trkpt lat="37.629043" lon="-4.329580">
        <ele>358.341</ele>
        <time>2021-10-16T18:39:37Z</time>
      </trkpt>
      <trkpt lat="37.629046" lon="-4.329275">
        <ele>359.120</ele>
        <time>2021-10-16T18:39:38Z</time>
      </trkpt>
      <trkpt lat="37.629058" lon="-4.328631">
        <ele>361.844</ele>
        <time>2021-10-16T18:39:40Z</time>
      </trkpt>
      <trkpt lat="37.629066" lon="-4.328283">
        <ele>363.339</ele>
        <time>2021-10-16T18:39:41Z</time>
      </trkpt>
      <trkpt lat="37.629078" lon="-4.327593">
        <ele>364.658</ele>
        <time>2021-10-16T18:39:43Z</time>
      </trkpt>
      <trkpt lat="37.629081" lon="-4.327241">
        <ele>366.020</ele>
        <time>2021-10-16T18:39:44Z</time>
      </trkpt>
      <trkpt lat="37.629086" lon="-4.326533">
        <ele>368.187</ele>
        <time>2021-10-16T18:39:46Z</time>
      </trkpt>
      <trkpt lat="37.629089" lon="-4.326171">
        <ele>368.914</ele>
        <time>2021-10-16T18:39:47Z</time>
      </trkpt>
      <trkpt lat="37.629098" lon="-4.325444">
        <ele>370.954</ele>
        <time>2021-10-16T18:39:49Z</time>
      </trkpt>
      <trkpt lat="37.629106" lon="-4.325068">
        <ele>372.009</ele>
        <time>2021-10-16T18:39:50Z</time>
      </trkpt>
      <trkpt lat="37.629120" lon="-4.324310">
        <ele>374.008</ele>
        <time>2021-10-16T18:39:52Z</time>
      </trkpt>
      <trkpt lat="37.629127" lon="-4.323921">
        <ele>375.369</ele>
        <time>2021-10-16T18:39:53Z</time>
      </trkpt>
      <trkpt lat="37.629141" lon="-4.323141">
        <ele>377.967</ele>
        <time>2021-10-16T18:39:55Z</time>
      </trkpt>
      <trkpt lat="37.629150" lon="-4.322738">
        <ele>378.956</ele>
        <time>2021-10-16T18:39:56Z</time>
      </trkpt>
      <trkpt lat="37.629173" lon="-4.321964">
        <ele>381.020</ele>
        <time>2021-10-16T18:39:58Z</time>
      </trkpt>
      <trkpt lat="37.629220" lon="-4.321190">
        <ele>383.755</ele>
        <time>2021-10-16T18:40:00Z</time>
      </trkpt>
      <trkpt lat="37.629254" lon="-4.320803">
        <ele>384.494</ele>
        <time>2021-10-16T18:40:01Z</time>
      </trkpt>
      <trkpt lat="37.629299" lon="-4.320405">
        <ele>385.546</ele>
        <time>2021-10-16T18:40:02Z</time>
      </trkpt>
      <trkpt lat="37.629398" lon="-4.319664">
        <ele>387.053</ele>
        <time>2021-10-16T18:40:04Z</time>
      </trkpt>
      <trkpt lat="37.629461" lon="-4.319286">
        <ele>388.532</ele>
        <time>2021-10-16T18:40:05Z</time>
      </trkpt>
      <trkpt lat="37.629530" lon="-4.318913">
        <ele>389.992</ele>
        <time>2021-10-16T18:40:06Z</time>
      </trkpt>
      <trkpt lat="37.629686" lon="-4.318177">
        <ele>393.311</ele>
        <time>2021-10-16T18:40:08Z</time>
      </trkpt>
      <trkpt lat="37.629861" lon="-4.317471">
        <ele>397.108</ele>
        <time>2021-10-16T18:40:10Z</time>
      </trkpt>
      <trkpt lat="37.629950" lon="-4.317148">
        <ele>398.671</ele>
        <time>2021-10-16T18:40:11Z</time>
      </trkpt>
      <trkpt lat="37.630041" lon="-4.316836">
        <ele>400.259</ele>
        <time>2021-10-16T18:40:12Z</time>
      </trkpt>
      <trkpt lat="37.630133" lon="-4.316536">
        <ele>402.058</ele>
        <time>2021-10-16T18:40:13Z</time>
      </trkpt>
      <trkpt lat="37.630223" lon="-4.316252">
        <ele>403.032</ele>
        <time>2021-10-16T18:40:14Z</time>
      </trkpt>
      <trkpt lat="37.630376" lon="-4.315766">
        <ele>407.427</ele>
        <time>2021-10-16T18:40:16Z</time>
      </trkpt>
      <trkpt lat="37.630516" lon="-4.315328">
        <ele>409.076</ele>
        <time>2021-10-16T18:40:18Z</time>
      </trkpt>
      <trkpt lat="37.630591" lon="-4.315094">
        <ele>410.168</ele>
        <time>2021-10-16T18:40:19Z</time>
      </trkpt>
      <trkpt lat="37.630672" lon="-4.314840">
        <ele>411.545</ele>
        <time>2021-10-16T18:40:20Z</time>
      </trkpt>
      <trkpt lat="37.630838" lon="-4.314285">
        <ele>412.753</ele>
        <time>2021-10-16T18:40:22Z</time>
      </trkpt>
      <trkpt lat="37.630993" lon="-4.313674">
        <ele>415.104</ele>
        <time>2021-10-16T18:40:24Z</time>
      </trkpt>
      <trkpt lat="37.631125" lon="-4.313030">
        <ele>418.214</ele>
        <time>2021-10-16T18:40:26Z</time>
      </trkpt>
      <trkpt lat="37.631229" lon="-4.312389">
        <ele>420.808</ele>
        <time>2021-10-16T18:40:28Z</time>
      </trkpt>
      <trkpt lat="37.631265" lon="-4.312054">
        <ele>422.013</ele>
        <time>2021-10-16T18:40:29Z</time>
      </trkpt>
      <trkpt lat="37.631309" lon="-4.311364">
        <ele>424.761</ele>
        <time>2021-10-16T18:40:31Z</time>
      </trkpt>
      <trkpt lat="37.631317" lon="-4.311006">
        <ele>426.580</ele>
        <time>2021-10-16T18:40:32Z</time>
      </trkpt>
      <trkpt lat="37.631308" lon="-4.310313">
        <ele>429.844</ele>
        <time>2021-10-16T18:40:34Z</time>
      </trkpt>
      <trkpt lat="37.631262" lon="-4.309594">
        <ele>433.049</ele>
        <time>2021-10-16T18:40:36Z</time>
      </trkpt>
      <trkpt lat="37.631165" lon="-4.308872">
        <ele>436.088</ele>
        <time>2021-10-16T18:40:38Z</time>
      </trkpt>
      <trkpt lat="37.631027" lon="-4.308157">
        <ele>438.420</ele>
        <time>2021-10-16T18:40:40Z</time>
      </trkpt>
      <trkpt lat="37.630942" lon="-4.307802">
        <ele>440.617</ele>
        <time>2021-10-16T18:40:41Z</time>
      </trkpt>
      <trkpt lat="37.630743" lon="-4.307103">
        <ele>443.682</ele>
        <time>2021-10-16T18:40:43Z</time>
      </trkpt>
      <trkpt lat="37.630630" lon="-4.306761">
        <ele>444.743</ele>
        <time>2021-10-16T18:40:44Z</time>
      </trkpt>
      <trkpt lat="37.630385" lon="-4.306117">
        <ele>447.817</ele>
        <time>2021-10-16T18:40:46Z</time>
      </trkpt>
      <trkpt lat="37.630253" lon="-4.305811">
        <ele>448.308</ele>
        <time>2021-10-16T18:40:47Z</time>
      </trkpt>
      <trkpt lat="37.630113" lon="-4.305512">
        <ele>448.966</ele>
        <time>2021-10-16T18:40:48Z</time>
      </trkpt>
      <trkpt lat="37.629967" lon="-4.305225">
        <ele>450.254</ele>
        <time>2021-10-16T18:40:49Z</time>
      </trkpt>
      <trkpt lat="37.629821" lon="-4.304956">
        <ele>450.813</ele>
        <time>2021-10-16T18:40:50Z</time>
      </trkpt>
      <trkpt lat="37.629509" lon="-4.304446">
        <ele>451.317</ele>
        <time>2021-10-16T18:40:52Z</time>
      </trkpt>
      <trkpt lat="37.629161" lon="-4.303941">
        <ele>452.052</ele>
        <time>2021-10-16T18:40:54Z</time>
      </trkpt>
      <trkpt lat="37.628762" lon="-4.303428">
        <ele>452.591</ele>
        <time>2021-10-16T18:40:56Z</time>
      </trkpt>
      <trkpt lat="37.628348" lon="-4.302964">
        <ele>452.033</ele>
        <time>2021-10-16T18:40:58Z</time>
      </trkpt>
      <trkpt lat="37.627925" lon="-4.302551">
        <ele>451.850</ele>
        <time>2021-10-16T18:41:00Z</time>
      </trkpt>
      <trkpt lat="37.627707" lon="-4.302359">
        <ele>451.068</ele>
        <time>2021-10-16T18:41:01Z</time>
      </trkpt>
      <trkpt lat="37.627474" lon="-4.302171">
        <ele>449.942</ele>
        <time>2021-10-16T18:41:02Z</time>
      </trkpt>
      <trkpt lat="37.627011" lon="-4.301847">
        <ele>449.026</ele>
        <time>2021-10-16T18:41:04Z</time>
      </trkpt>
      <trkpt lat="37.626511" lon="-4.301553">
        <ele>446.608</ele>
        <time>2021-10-16T18:41:06Z</time>
      </trkpt>
      <trkpt lat="37.625997" lon="-4.301277">
        <ele>444.464</ele>
        <time>2021-10-16T18:41:08Z</time>
      </trkpt>
      <trkpt lat="37.625493" lon="-4.301046">
        <ele>439.052</ele>
        <time>2021-10-16T18:41:10Z</time>
      </trkpt>
      <trkpt lat="37.625248" lon="-4.300969">
        <ele>437.851</ele>
        <time>2021-10-16T18:41:11Z</time>
      </trkpt>
      <trkpt lat="37.625012" lon="-4.300906">
        <ele>437.365</ele>
        <time>2021-10-16T18:41:12Z</time>
      </trkpt>
      <trkpt lat="37.624541" lon="-4.300801">
        <ele>434.530</ele>
        <time>2021-10-16T18:41:14Z</time>
      </trkpt>
      <trkpt lat="37.624050" lon="-4.300723">
        <ele>432.939</ele>
        <time>2021-10-16T18:41:16Z</time>
      </trkpt>
      <trkpt lat="37.623533" lon="-4.300676">
        <ele>430.681</ele>
        <time>2021-10-16T18:41:18Z</time>
      </trkpt>
      <trkpt lat="37.623268" lon="-4.300667">
        <ele>428.588</ele>
        <time>2021-10-16T18:41:19Z</time>
      </trkpt>
      <trkpt lat="37.623004" lon="-4.300664">
        <ele>426.982</ele>
        <time>2021-10-16T18:41:20Z</time>
      </trkpt>
      <trkpt lat="37.622742" lon="-4.300670">
        <ele>425.843</ele>
        <time>2021-10-16T18:41:21Z</time>
      </trkpt>
      <trkpt lat="37.622232" lon="-4.300681">
        <ele>422.517</ele>
        <time>2021-10-16T18:41:23Z</time>
      </trkpt>
      <trkpt lat="37.621977" lon="-4.300687">
        <ele>421.108</ele>
        <time>2021-10-16T18:41:24Z</time>
      </trkpt>
      <trkpt lat="37.621465" lon="-4.300695">
        <ele>418.196</ele>
        <time>2021-10-16T18:41:26Z</time>
      </trkpt>
      <trkpt lat="37.620968" lon="-4.300703">
        <ele>415.554</ele>
        <time>2021-10-16T18:41:28Z</time>
      </trkpt>
      <trkpt lat="37.620454" lon="-4.300709">
        <ele>412.433</ele>
        <time>2021-10-16T18:41:30Z</time>
      </trkpt>
      <trkpt lat="37.619922" lon="-4.300715">
        <ele>410.397</ele>
        <time>2021-10-16T18:41:32Z</time>
      </trkpt>
      <trkpt lat="37.619403" lon="-4.300726">
        <ele>407.412</ele>
        <time>2021-10-16T18:41:34Z</time>
      </trkpt>
      <trkpt lat="37.619144" lon="-4.300727">
        <ele>405.971</ele>
        <time>2021-10-16T18:41:35Z</time>
      </trkpt>
      <trkpt lat="37.618887" lon="-4.300728">
        <ele>404.673</ele>
        <time>2021-10-16T18:41:36Z</time>
      </trkpt>
      <trkpt lat="37.618374" lon="-4.300732">
        <ele>401.770</ele>
        <time>2021-10-16T18:41:38Z</time>
      </trkpt>
      <trkpt lat="37.618115" lon="-4.300734">
        <ele>400.145</ele>
        <time>2021-10-16T18:41:39Z</time>
      </trkpt>
      <trkpt lat="37.617856" lon="-4.300737">
        <ele>398.447</ele>
        <time>2021-10-16T18:41:40Z</time>
      </trkpt>
      <trkpt lat="37.617599" lon="-4.300739">
        <ele>397.111</ele>
        <time>2021-10-16T18:41:41Z</time>
      </trkpt>
      <trkpt lat="37.617341" lon="-4.300740">
        <ele>395.508</ele>
        <time>2021-10-16T18:41:42Z</time>
      </trkpt>
      <trkpt lat="37.616830" lon="-4.300742">
        <ele>394.572</ele>
        <time>2021-10-16T18:41:44Z</time>
      </trkpt>
      <trkpt lat="37.616324" lon="-4.300746">
        <ele>391.780</ele>
        <time>2021-10-16T18:41:46Z</time>
      </trkpt>
      <trkpt lat="37.615822" lon="-4.300753">
        <ele>390.719</ele>
        <time>2021-10-16T18:41:48Z</time>
      </trkpt>
      <trkpt lat="37.615576" lon="-4.300757">
        <ele>390.473</ele>
        <time>2021-10-16T18:41:49Z</time>
      </trkpt>
      <trkpt lat="37.615331" lon="-4.300762">
        <ele>390.828</ele>
        <time>2021-10-16T18:41:50Z</time>
      </trkpt>
      <trkpt lat="37.614847" lon="-4.300773">
        <ele>390.827</ele>
        <time>2021-10-16T18:41:52Z</time>
      </trkpt>
      <trkpt lat="37.614607" lon="-4.300775">
        <ele>390.649</ele>
        <time>2021-10-16T18:41:53Z</time>
      </trkpt>
      <trkpt lat="37.614372" lon="-4.300777">
        <ele>390.726</ele>
        <time>2021-10-16T18:41:54Z</time>
      </trkpt>
      <trkpt lat="37.613920" lon="-4.300783">
        <ele>391.783</ele>
        <time>2021-10-16T18:41:56Z</time>
      </trkpt>
      <trkpt lat="37.613515" lon="-4.300791">
        <ele>393.125</ele>
        <time>2021-10-16T18:41:58Z</time>
      </trkpt>
      <trkpt lat="37.613113" lon="-4.300798">
        <ele>395.217</ele>
        <time>2021-10-16T18:42:00Z</time>
      </trkpt>
      <trkpt lat="37.612910" lon="-4.300803">
        <ele>396.308</ele>
        <time>2021-10-16T18:42:01Z</time>
      </trkpt>
      <trkpt lat="37.612698" lon="-4.300811">
        <ele>396.926</ele>
        <time>2021-10-16T18:42:02Z</time>
      </trkpt>
      <trkpt lat="37.612288" lon="-4.300825">
        <ele>398.674</ele>
        <time>2021-10-16T18:42:04Z</time>
      </trkpt>
      <trkpt lat="37.612083" lon="-4.300838">
        <ele>399.963</ele>
        <time>2021-10-16T18:42:05Z</time>
      </trkpt>
      <trkpt lat="37.611882" lon="-4.300855">
        <ele>400.897</ele>
        <time>2021-10-16T18:42:06Z</time>
      </trkpt>
      <trkpt lat="37.611478" lon="-4.300882">
        <ele>402.162</ele>
        <time>2021-10-16T18:42:08Z</time>
      </trkpt>
      <trkpt lat="37.611065" lon="-4.300933">
        <ele>404.421</ele>
        <time>2021-10-16T18:42:10Z</time>
      </trkpt>
      <trkpt lat="37.610846" lon="-4.300962">
        <ele>405.593</ele>
        <time>2021-10-16T18:42:11Z</time>
      </trkpt>
      <trkpt lat="37.610614" lon="-4.300998">
        <ele>406.710</ele>
        <time>2021-10-16T18:42:12Z</time>
      </trkpt>
      <trkpt lat="37.610107" lon="-4.301097">
        <ele>408.383</ele>
        <time>2021-10-16T18:42:14Z</time>
      </trkpt>
      <trkpt lat="37.609552" lon="-4.301240">
        <ele>410.225</ele>
        <time>2021-10-16T18:42:16Z</time>
      </trkpt>
      <trkpt lat="37.609017" lon="-4.301396">
        <ele>411.917</ele>
        <time>2021-10-16T18:42:18Z</time>
      </trkpt>
      <trkpt lat="37.608543" lon="-4.301552">
        <ele>413.908</ele>
        <time>2021-10-16T18:42:20Z</time>
      </trkpt>
      <trkpt lat="37.608100" lon="-4.301719">
        <ele>414.826</ele>
        <time>2021-10-16T18:42:22Z</time>
      </trkpt>
      <trkpt lat="37.607876" lon="-4.301811">
        <ele>414.274</ele>
        <time>2021-10-16T18:42:23Z</time>
      </trkpt>
      <trkpt lat="37.607425" lon="-4.302018">
        <ele>415.683</ele>
        <time>2021-10-16T18:42:25Z</time>
      </trkpt>
      <trkpt lat="37.607189" lon="-4.302137">
        <ele>416.047</ele>
        <time>2021-10-16T18:42:26Z</time>
      </trkpt>
      <trkpt lat="37.606729" lon="-4.302379">
        <ele>415.372</ele>
        <time>2021-10-16T18:42:28Z</time>
      </trkpt>
      <trkpt lat="37.606484" lon="-4.302506">
        <ele>414.261</ele>
        <time>2021-10-16T18:42:29Z</time>
      </trkpt>
      <trkpt lat="37.605979" lon="-4.302765">
        <ele>413.833</ele>
        <time>2021-10-16T18:42:31Z</time>
      </trkpt>
      <trkpt lat="37.605719" lon="-4.302901">
        <ele>413.280</ele>
        <time>2021-10-16T18:42:32Z</time>
      </trkpt>
      <trkpt lat="37.605223" lon="-4.303163">
        <ele>412.683</ele>
        <time>2021-10-16T18:42:34Z</time>
      </trkpt>
      <trkpt lat="37.604970" lon="-4.303294">
        <ele>412.425</ele>
        <time>2021-10-16T18:42:35Z</time>
      </trkpt>
      <trkpt lat="37.604721" lon="-4.303415">
        <ele>412.417</ele>
        <time>2021-10-16T18:42:36Z</time>
      </trkpt>
      <trkpt lat="37.604236" lon="-4.303623">
        <ele>411.008</ele>
        <time>2021-10-16T18:42:38Z</time>
      </trkpt>
      <trkpt lat="37.603770" lon="-4.303793">
        <ele>411.186</ele>
        <time>2021-10-16T18:42:40Z</time>
      </trkpt>
      <trkpt lat="37.603539" lon="-4.303864">
        <ele>410.694</ele>
        <time>2021-10-16T18:42:41Z</time>
      </trkpt>
      <trkpt lat="37.603084" lon="-4.303987">
        <ele>410.133</ele>
        <time>2021-10-16T18:42:43Z</time>
      </trkpt>
      <trkpt lat="37.602849" lon="-4.304038">
        <ele>410.067</ele>
        <time>2021-10-16T18:42:44Z</time>
      </trkpt>
      <trkpt lat="37.602364" lon="-4.304117">
        <ele>408.942</ele>
        <time>2021-10-16T18:42:46Z</time>
      </trkpt>
      <trkpt lat="37.601864" lon="-4.304165">
        <ele>409.071</ele>
        <time>2021-10-16T18:42:48Z</time>
      </trkpt>
      <trkpt lat="37.601610" lon="-4.304182">
        <ele>408.853</ele>
        <time>2021-10-16T18:42:49Z</time>
      </trkpt>
      <trkpt lat="37.601353" lon="-4.304197">
        <ele>409.190</ele>
        <time>2021-10-16T18:42:50Z</time>
      </trkpt>
      <trkpt lat="37.600839" lon="-4.304194">
        <ele>409.415</ele>
        <time>2021-10-16T18:42:52Z</time>
      </trkpt>
      <trkpt lat="37.600580" lon="-4.304182">
        <ele>409.865</ele>
        <time>2021-10-16T18:42:53Z</time>
      </trkpt>
      <trkpt lat="37.600085" lon="-4.304134">
        <ele>409.311</ele>
        <time>2021-10-16T18:42:55Z</time>
      </trkpt>
      <trkpt lat="37.599848" lon="-4.304102">
        <ele>409.508</ele>
        <time>2021-10-16T18:42:56Z</time>
      </trkpt>
      <trkpt lat="37.599412" lon="-4.304017">
        <ele>409.959</ele>
        <time>2021-10-16T18:42:58Z</time>
      </trkpt>
      <trkpt lat="37.599183" lon="-4.303971">
        <ele>410.387</ele>
        <time>2021-10-16T18:42:59Z</time>
      </trkpt>
      <trkpt lat="37.598722" lon="-4.303844">
        <ele>409.436</ele>
        <time>2021-10-16T18:43:01Z</time>
      </trkpt>
      <trkpt lat="37.598480" lon="-4.303760">
        <ele>409.410</ele>
        <time>2021-10-16T18:43:02Z</time>
      </trkpt>
      <trkpt lat="37.598007" lon="-4.303581">
        <ele>408.995</ele>
        <time>2021-10-16T18:43:04Z</time>
      </trkpt>
      <trkpt lat="37.597758" lon="-4.303477">
        <ele>408.364</ele>
        <time>2021-10-16T18:43:05Z</time>
      </trkpt>
      <trkpt lat="37.597511" lon="-4.303366">
        <ele>407.576</ele>
        <time>2021-10-16T18:43:06Z</time>
      </trkpt>
      <trkpt lat="37.597015" lon="-4.303115">
        <ele>407.593</ele>
        <time>2021-10-16T18:43:08Z</time>
      </trkpt>
      <trkpt lat="37.596525" lon="-4.302829">
        <ele>407.735</ele>
        <time>2021-10-16T18:43:10Z</time>
      </trkpt>
      <trkpt lat="37.596283" lon="-4.302671">
        <ele>406.986</ele>
        <time>2021-10-16T18:43:11Z</time>
      </trkpt>
      <trkpt lat="37.596051" lon="-4.302512">
        <ele>406.714</ele>
        <time>2021-10-16T18:43:12Z</time>
      </trkpt>
      <trkpt lat="37.595834" lon="-4.302354">
        <ele>406.908</ele>
        <time>2021-10-16T18:43:13Z</time>
      </trkpt>
      <trkpt lat="37.595621" lon="-4.302196">
        <ele>406.711</ele>
        <time>2021-10-16T18:43:14Z</time>
      </trkpt>
      <trkpt lat="37.595221" lon="-4.301864">
        <ele>406.419</ele>
        <time>2021-10-16T18:43:16Z</time>
      </trkpt>
      <trkpt lat="37.594858" lon="-4.301531">
        <ele>405.318</ele>
        <time>2021-10-16T18:43:18Z</time>
      </trkpt>
      <trkpt lat="37.594525" lon="-4.301198">
        <ele>405.192</ele>
        <time>2021-10-16T18:43:20Z</time>
      </trkpt>
      <trkpt lat="37.594215" lon="-4.300862">
        <ele>403.917</ele>
        <time>2021-10-16T18:43:22Z</time>
      </trkpt>
      <trkpt lat="37.593897" lon="-4.300491">
        <ele>403.486</ele>
        <time>2021-10-16T18:43:24Z</time>
      </trkpt>
      <trkpt lat="37.593590" lon="-4.300088">
        <ele>402.268</ele>
        <time>2021-10-16T18:43:26Z</time>
      </trkpt>
      <trkpt lat="37.593294" lon="-4.299676">
        <ele>401.615</ele>
        <time>2021-10-16T18:43:28Z</time>
      </trkpt>
      <trkpt lat="37.593149" lon="-4.299474">
        <ele>401.371</ele>
        <time>2021-10-16T18:43:29Z</time>
      </trkpt>
      <trkpt lat="37.592867" lon="-4.299076">
        <ele>401.941</ele>
        <time>2021-10-16T18:43:31Z</time>
      </trkpt>
      <trkpt lat="37.592721" lon="-4.298867">
        <ele>401.815</ele>
        <time>2021-10-16T18:43:32Z</time>
      </trkpt>
      <trkpt lat="37.592446" lon="-4.298465">
        <ele>401.208</ele>
        <time>2021-10-16T18:43:34Z</time>
      </trkpt>
      <trkpt lat="37.592301" lon="-4.298258">
        <ele>402.145</ele>
        <time>2021-10-16T18:43:35Z</time>
      </trkpt>
      <trkpt lat="37.592020" lon="-4.297850">
        <ele>402.663</ele>
        <time>2021-10-16T18:43:37Z</time>
      </trkpt>
      <trkpt lat="37.591882" lon="-4.297648">
        <ele>403.182</ele>
        <time>2021-10-16T18:43:38Z</time>
      </trkpt>
      <trkpt lat="37.591747" lon="-4.297450">
        <ele>403.766</ele>
        <time>2021-10-16T18:43:39Z</time>
      </trkpt>
      <trkpt lat="37.591495" lon="-4.297081">
        <ele>403.471</ele>
        <time>2021-10-16T18:43:41Z</time>
      </trkpt>
      <trkpt lat="37.591254" lon="-4.296734">
        <ele>403.340</ele>
        <time>2021-10-16T18:43:43Z</time>
      </trkpt>
      <trkpt lat="37.591128" lon="-4.296573">
        <ele>403.672</ele>
        <time>2021-10-16T18:43:44Z</time>
      </trkpt>
      <trkpt lat="37.590860" lon="-4.296279">
        <ele>402.839</ele>
        <time>2021-10-16T18:43:46Z</time>
      </trkpt>
      <trkpt lat="37.590714" lon="-4.296142">
        <ele>401.921</ele>
        <time>2021-10-16T18:43:47Z</time>
      </trkpt>
      <trkpt lat="37.590418" lon="-4.295899">
        <ele>400.541</ele>
        <time>2021-10-16T18:43:49Z</time>
      </trkpt>
      <trkpt lat="37.590265" lon="-4.295782">
        <ele>399.105</ele>
        <time>2021-10-16T18:43:50Z</time>
      </trkpt>
      <trkpt lat="37.589952" lon="-4.295539">
        <ele>398.208</ele>
        <time>2021-10-16T18:43:52Z</time>
      </trkpt>
      <trkpt lat="37.589628" lon="-4.295269">
        <ele>396.460</ele>
        <time>2021-10-16T18:43:54Z</time>
      </trkpt>
      <trkpt lat="37.589461" lon="-4.295123">
        <ele>395.748</ele>
        <time>2021-10-16T18:43:55Z</time>
      </trkpt>
      <trkpt lat="37.589287" lon="-4.294964">
        <ele>395.177</ele>
        <time>2021-10-16T18:43:56Z</time>
      </trkpt>
      <trkpt lat="37.588955" lon="-4.294645">
        <ele>394.481</ele>
        <time>2021-10-16T18:43:58Z</time>
      </trkpt>
      <trkpt lat="37.588619" lon="-4.294306">
        <ele>393.636</ele>
        <time>2021-10-16T18:44:00Z</time>
      </trkpt>
      <trkpt lat="37.588443" lon="-4.294127">
        <ele>393.125</ele>
        <time>2021-10-16T18:44:01Z</time>
      </trkpt>
      <trkpt lat="37.588257" lon="-4.293930">
        <ele>392.757</ele>
        <time>2021-10-16T18:44:02Z</time>
      </trkpt>
      <trkpt lat="37.587888" lon="-4.293533">
        <ele>392.174</ele>
        <time>2021-10-16T18:44:04Z</time>
      </trkpt>
      <trkpt lat="37.587485" lon="-4.293120">
        <ele>392.153</ele>
        <time>2021-10-16T18:44:06Z</time>
      </trkpt>
      <trkpt lat="37.587064" lon="-4.292725">
        <ele>392.004</ele>
        <time>2021-10-16T18:44:08Z</time>
      </trkpt>
      <trkpt lat="37.586646" lon="-4.292335">
        <ele>392.214</ele>
        <time>2021-10-16T18:44:10Z</time>
      </trkpt>
      <trkpt lat="37.586440" lon="-4.292127">
        <ele>391.908</ele>
        <time>2021-10-16T18:44:11Z</time>
      </trkpt>
      <trkpt lat="37.586230" lon="-4.291916">
        <ele>392.143</ele>
        <time>2021-10-16T18:44:12Z</time>
      </trkpt>
      <trkpt lat="37.585799" lon="-4.291485">
        <ele>391.631</ele>
        <time>2021-10-16T18:44:14Z</time>
      </trkpt>
      <trkpt lat="37.585357" lon="-4.291046">
        <ele>392.680</ele>
        <time>2021-10-16T18:44:16Z</time>
      </trkpt>
      <trkpt lat="37.584918" lon="-4.290616">
        <ele>394.084</ele>
        <time>2021-10-16T18:44:18Z</time>
      </trkpt>
      <trkpt lat="37.584524" lon="-4.290220">
        <ele>394.219</ele>
        <time>2021-10-16T18:44:20Z</time>
      </trkpt>
      <trkpt lat="37.584169" lon="-4.289798">
        <ele>395.738</ele>
        <time>2021-10-16T18:44:22Z</time>
      </trkpt>
      <trkpt lat="37.583852" lon="-4.289277">
        <ele>395.930</ele>
        <time>2021-10-16T18:44:24Z</time>
      </trkpt>
      <trkpt lat="37.583711" lon="-4.288990">
        <ele>396.127</ele>
        <time>2021-10-16T18:44:25Z</time>
      </trkpt>
      <trkpt lat="37.583575" lon="-4.288685">
        <ele>396.652</ele>
        <time>2021-10-16T18:44:26Z</time>
      </trkpt>
      <trkpt lat="37.583314" lon="-4.288089">
        <ele>397.553</ele>
        <time>2021-10-16T18:44:28Z</time>
      </trkpt>
      <trkpt lat="37.583181" lon="-4.287793">
        <ele>396.908</ele>
        <time>2021-10-16T18:44:29Z</time>
      </trkpt>
      <trkpt lat="37.582929" lon="-4.287235">
        <ele>396.908</ele>
        <time>2021-10-16T18:44:31Z</time>
      </trkpt>
      <trkpt lat="37.582802" lon="-4.286957">
        <ele>397.723</ele>
        <time>2021-10-16T18:44:32Z</time>
      </trkpt>
      <trkpt lat="37.582557" lon="-4.286426">
        <ele>398.431</ele>
        <time>2021-10-16T18:44:34Z</time>
      </trkpt>
      <trkpt lat="37.582314" lon="-4.285892">
        <ele>399.130</ele>
        <time>2021-10-16T18:44:36Z</time>
      </trkpt>
      <trkpt lat="37.582072" lon="-4.285361">
        <ele>400.384</ele>
        <time>2021-10-16T18:44:38Z</time>
      </trkpt>
      <trkpt lat="37.581829" lon="-4.284839">
        <ele>401.949</ele>
        <time>2021-10-16T18:44:40Z</time>
      </trkpt>
      <trkpt lat="37.581582" lon="-4.284312">
        <ele>402.898</ele>
        <time>2021-10-16T18:44:42Z</time>
      </trkpt>
      <trkpt lat="37.581461" lon="-4.284041">
        <ele>403.050</ele>
        <time>2021-10-16T18:44:43Z</time>
      </trkpt>
      <trkpt lat="37.581337" lon="-4.283762">
        <ele>403.187</ele>
        <time>2021-10-16T18:44:44Z</time>
      </trkpt>
      <trkpt lat="37.581082" lon="-4.283189">
        <ele>403.633</ele>
        <time>2021-10-16T18:44:46Z</time>
      </trkpt>
      <trkpt lat="37.580820" lon="-4.282610">
        <ele>405.523</ele>
        <time>2021-10-16T18:44:48Z</time>
      </trkpt>
      <trkpt lat="37.580567" lon="-4.282060">
        <ele>406.515</ele>
        <time>2021-10-16T18:44:50Z</time>
      </trkpt>
      <trkpt lat="37.580339" lon="-4.281557">
        <ele>406.708</ele>
        <time>2021-10-16T18:44:52Z</time>
      </trkpt>
      <trkpt lat="37.580227" lon="-4.281308">
        <ele>407.921</ele>
        <time>2021-10-16T18:44:53Z</time>
      </trkpt>
      <trkpt lat="37.580119" lon="-4.281066">
        <ele>408.669</ele>
        <time>2021-10-16T18:44:54Z</time>
      </trkpt>
      <trkpt lat="37.580011" lon="-4.280826">
        <ele>408.528</ele>
        <time>2021-10-16T18:44:55Z</time>
      </trkpt>
      <trkpt lat="37.579900" lon="-4.280581">
        <ele>408.912</ele>
        <time>2021-10-16T18:44:56Z</time>
      </trkpt>
      <trkpt lat="37.579683" lon="-4.280118">
        <ele>410.367</ele>
        <time>2021-10-16T18:44:58Z</time>
      </trkpt>
      <trkpt lat="37.579465" lon="-4.279648">
        <ele>411.266</ele>
        <time>2021-10-16T18:45:00Z</time>
      </trkpt>
      <trkpt lat="37.579362" lon="-4.279423">
        <ele>411.928</ele>
        <time>2021-10-16T18:45:01Z</time>
      </trkpt>
      <trkpt lat="37.579260" lon="-4.279202">
        <ele>412.845</ele>
        <time>2021-10-16T18:45:02Z</time>
      </trkpt>
      <trkpt lat="37.579057" lon="-4.278764">
        <ele>413.249</ele>
        <time>2021-10-16T18:45:04Z</time>
      </trkpt>
      <trkpt lat="37.578852" lon="-4.278304">
        <ele>415.002</ele>
        <time>2021-10-16T18:45:06Z</time>
      </trkpt>
      <trkpt lat="37.578645" lon="-4.277809">
        <ele>416.422</ele>
        <time>2021-10-16T18:45:08Z</time>
      </trkpt>
      <trkpt lat="37.578445" lon="-4.277293">
        <ele>417.008</ele>
        <time>2021-10-16T18:45:10Z</time>
      </trkpt>
      <trkpt lat="37.578348" lon="-4.277035">
        <ele>417.732</ele>
        <time>2021-10-16T18:45:11Z</time>
      </trkpt>
      <trkpt lat="37.578254" lon="-4.276784">
        <ele>418.010</ele>
        <time>2021-10-16T18:45:12Z</time>
      </trkpt>
      <trkpt lat="37.578068" lon="-4.276267">
        <ele>419.859</ele>
        <time>2021-10-16T18:45:14Z</time>
      </trkpt>
      <trkpt lat="37.577877" lon="-4.275758">
        <ele>419.933</ele>
        <time>2021-10-16T18:45:16Z</time>
      </trkpt>
      <trkpt lat="37.577785" lon="-4.275512">
        <ele>420.958</ele>
        <time>2021-10-16T18:45:17Z</time>
      </trkpt>
      <trkpt lat="37.577694" lon="-4.275273">
        <ele>422.247</ele>
        <time>2021-10-16T18:45:18Z</time>
      </trkpt>
      <trkpt lat="37.577602" lon="-4.275032">
        <ele>422.329</ele>
        <time>2021-10-16T18:45:19Z</time>
      </trkpt>
      <trkpt lat="37.577422" lon="-4.274559">
        <ele>422.826</ele>
        <time>2021-10-16T18:45:21Z</time>
      </trkpt>
      <trkpt lat="37.577331" lon="-4.274319">
        <ele>423.315</ele>
        <time>2021-10-16T18:45:22Z</time>
      </trkpt>
      <trkpt lat="37.577242" lon="-4.274082">
        <ele>423.965</ele>
        <time>2021-10-16T18:45:23Z</time>
      </trkpt>
      <trkpt lat="37.577150" lon="-4.273840">
        <ele>424.611</ele>
        <time>2021-10-16T18:45:24Z</time>
      </trkpt>
      <trkpt lat="37.576954" lon="-4.273330">
        <ele>424.508</ele>
        <time>2021-10-16T18:45:26Z</time>
      </trkpt>
      <trkpt lat="37.576752" lon="-4.272802">
        <ele>425.099</ele>
        <time>2021-10-16T18:45:28Z</time>
      </trkpt>
      <trkpt lat="37.576538" lon="-4.272233">
        <ele>426.267</ele>
        <time>2021-10-16T18:45:30Z</time>
      </trkpt>
      <trkpt lat="37.576316" lon="-4.271644">
        <ele>427.166</ele>
        <time>2021-10-16T18:45:32Z</time>
      </trkpt>
      <trkpt lat="37.576101" lon="-4.271074">
        <ele>428.440</ele>
        <time>2021-10-16T18:45:34Z</time>
      </trkpt>
      <trkpt lat="37.575990" lon="-4.270780">
        <ele>428.775</ele>
        <time>2021-10-16T18:45:35Z</time>
      </trkpt>
      <trkpt lat="37.575768" lon="-4.270188">
        <ele>428.434</ele>
        <time>2021-10-16T18:45:37Z</time>
      </trkpt>
      <trkpt lat="37.575657" lon="-4.269892">
        <ele>429.156</ele>
        <time>2021-10-16T18:45:38Z</time>
      </trkpt>
      <trkpt lat="37.575435" lon="-4.269304">
        <ele>429.623</ele>
        <time>2021-10-16T18:45:40Z</time>
      </trkpt>
      <trkpt lat="37.575322" lon="-4.269002">
        <ele>430.285</ele>
        <time>2021-10-16T18:45:41Z</time>
      </trkpt>
      <trkpt lat="37.575089" lon="-4.268390">
        <ele>431.589</ele>
        <time>2021-10-16T18:45:43Z</time>
      </trkpt>
      <trkpt lat="37.574856" lon="-4.267775">
        <ele>433.517</ele>
        <time>2021-10-16T18:45:45Z</time>
      </trkpt>
      <trkpt lat="37.574623" lon="-4.267166">
        <ele>435.408</ele>
        <time>2021-10-16T18:45:47Z</time>
      </trkpt>
      <trkpt lat="37.574506" lon="-4.266867">
        <ele>436.216</ele>
        <time>2021-10-16T18:45:48Z</time>
      </trkpt>
      <trkpt lat="37.574397" lon="-4.266579">
        <ele>437.064</ele>
        <time>2021-10-16T18:45:49Z</time>
      </trkpt>
      <trkpt lat="37.574192" lon="-4.266039">
        <ele>438.153</ele>
        <time>2021-10-16T18:45:51Z</time>
      </trkpt>
      <trkpt lat="37.573992" lon="-4.265497">
        <ele>440.377</ele>
        <time>2021-10-16T18:45:53Z</time>
      </trkpt>
      <trkpt lat="37.573897" lon="-4.265227">
        <ele>441.252</ele>
        <time>2021-10-16T18:45:54Z</time>
      </trkpt>
      <trkpt lat="37.573810" lon="-4.264955">
        <ele>441.561</ele>
        <time>2021-10-16T18:45:55Z</time>
      </trkpt>
      <trkpt lat="37.573725" lon="-4.264678">
        <ele>442.163</ele>
        <time>2021-10-16T18:45:56Z</time>
      </trkpt>
      <trkpt lat="37.573593" lon="-4.264156">
        <ele>443.040</ele>
        <time>2021-10-16T18:45:58Z</time>
      </trkpt>
      <trkpt lat="37.573542" lon="-4.263908">
        <ele>444.242</ele>
        <time>2021-10-16T18:45:59Z</time>
      </trkpt>
      <trkpt lat="37.573500" lon="-4.263675">
        <ele>445.622</ele>
        <time>2021-10-16T18:46:00Z</time>
      </trkpt>
      <trkpt lat="37.573465" lon="-4.263449">
        <ele>445.914</ele>
        <time>2021-10-16T18:46:01Z</time>
      </trkpt>
      <trkpt lat="37.573432" lon="-4.263215">
        <ele>447.008</ele>
        <time>2021-10-16T18:46:02Z</time>
      </trkpt>
      <trkpt lat="37.573381" lon="-4.262795">
        <ele>448.632</ele>
        <time>2021-10-16T18:46:04Z</time>
      </trkpt>
      <trkpt lat="37.573361" lon="-4.262599">
        <ele>448.830</ele>
        <time>2021-10-16T18:46:05Z</time>
      </trkpt>
      <trkpt lat="37.573321" lon="-4.262229">
        <ele>450.349</ele>
        <time>2021-10-16T18:46:07Z</time>
      </trkpt>
      <trkpt lat="37.573303" lon="-4.262048">
        <ele>450.863</ele>
        <time>2021-10-16T18:46:08Z</time>
      </trkpt>
      <trkpt lat="37.573264" lon="-4.261696">
        <ele>452.428</ele>
        <time>2021-10-16T18:46:10Z</time>
      </trkpt>
      <trkpt lat="37.573223" lon="-4.261316">
        <ele>451.717</ele>
        <time>2021-10-16T18:46:12Z</time>
      </trkpt>
      <trkpt lat="37.573178" lon="-4.260888">
        <ele>452.849</ele>
        <time>2021-10-16T18:46:14Z</time>
      </trkpt>
      <trkpt lat="37.573130" lon="-4.260372">
        <ele>451.716</ele>
        <time>2021-10-16T18:46:16Z</time>
      </trkpt>
      <trkpt lat="37.573104" lon="-4.260068">
        <ele>451.734</ele>
        <time>2021-10-16T18:46:17Z</time>
      </trkpt>
      <trkpt lat="37.573070" lon="-4.259737">
        <ele>451.455</ele>
        <time>2021-10-16T18:46:18Z</time>
      </trkpt>
      <trkpt lat="37.572990" lon="-4.259030">
        <ele>450.310</ele>
        <time>2021-10-16T18:46:20Z</time>
      </trkpt>
      <trkpt lat="37.572910" lon="-4.258306">
        <ele>449.308</ele>
        <time>2021-10-16T18:46:22Z</time>
      </trkpt>
      <trkpt lat="37.572865" lon="-4.257957">
        <ele>448.661</ele>
        <time>2021-10-16T18:46:23Z</time>
      </trkpt>
      <trkpt lat="37.572783" lon="-4.257312">
        <ele>447.129</ele>
        <time>2021-10-16T18:46:25Z</time>
      </trkpt>
      <trkpt lat="37.572747" lon="-4.257001">
        <ele>446.688</ele>
        <time>2021-10-16T18:46:26Z</time>
      </trkpt>
      <trkpt lat="37.572692" lon="-4.256440">
        <ele>446.442</ele>
        <time>2021-10-16T18:46:28Z</time>
      </trkpt>
      <trkpt lat="37.572628" lon="-4.255870">
        <ele>444.577</ele>
        <time>2021-10-16T18:46:30Z</time>
      </trkpt>
      <trkpt lat="37.572563" lon="-4.255341">
        <ele>444.426</ele>
        <time>2021-10-16T18:46:32Z</time>
      </trkpt>
      <trkpt lat="37.572502" lon="-4.254933">
        <ele>442.918</ele>
        <time>2021-10-16T18:46:34Z</time>
      </trkpt>
      <trkpt lat="37.572460" lon="-4.254751">
        <ele>441.585</ele>
        <time>2021-10-16T18:46:35Z</time>
      </trkpt>
      <trkpt lat="37.572362" lon="-4.254422">
        <ele>440.534</ele>
        <time>2021-10-16T18:46:37Z</time>
      </trkpt>
      <trkpt lat="37.572305" lon="-4.254279">
        <ele>439.355</ele>
        <time>2021-10-16T18:46:38Z</time>
      </trkpt>
      <trkpt lat="37.572241" lon="-4.254146">
        <ele>439.110</ele>
        <time>2021-10-16T18:46:39Z</time>
      </trkpt>
      <trkpt lat="37.572092" lon="-4.253890">
        <ele>438.008</ele>
        <time>2021-10-16T18:46:41Z</time>
      </trkpt>
      <trkpt lat="37.572011" lon="-4.253767">
        <ele>437.861</ele>
        <time>2021-10-16T18:46:42Z</time>
      </trkpt>
      <trkpt lat="37.571807" lon="-4.253486">
        <ele>437.859</ele>
        <time>2021-10-16T18:46:44Z</time>
      </trkpt>
      <trkpt lat="37.571559" lon="-4.253136">
        <ele>436.088</ele>
        <time>2021-10-16T18:46:46Z</time>
      </trkpt>
      <trkpt lat="37.571259" lon="-4.252730">
        <ele>436.092</ele>
        <time>2021-10-16T18:46:48Z</time>
      </trkpt>
      <trkpt lat="37.571091" lon="-4.252516">
        <ele>435.077</ele>
        <time>2021-10-16T18:46:49Z</time>
      </trkpt>
      <trkpt lat="37.570914" lon="-4.252289">
        <ele>434.136</ele>
        <time>2021-10-16T18:46:50Z</time>
      </trkpt>
      <trkpt lat="37.570545" lon="-4.251787">
        <ele>431.648</ele>
        <time>2021-10-16T18:46:52Z</time>
      </trkpt>
      <trkpt lat="37.570355" lon="-4.251524">
        <ele>430.775</ele>
        <time>2021-10-16T18:46:53Z</time>
      </trkpt>
      <trkpt lat="37.569967" lon="-4.250987">
        <ele>429.267</ele>
        <time>2021-10-16T18:46:55Z</time>
      </trkpt>
      <trkpt lat="37.569760" lon="-4.250706">
        <ele>427.981</ele>
        <time>2021-10-16T18:46:56Z</time>
      </trkpt>
      <trkpt lat="37.569370" lon="-4.250175">
        <ele>426.219</ele>
        <time>2021-10-16T18:46:58Z</time>
      </trkpt>
      <trkpt lat="37.569172" lon="-4.249903">
        <ele>425.908</ele>
        <time>2021-10-16T18:46:59Z</time>
      </trkpt>
      <trkpt lat="37.568977" lon="-4.249630">
        <ele>426.294</ele>
        <time>2021-10-16T18:47:00Z</time>
      </trkpt>
      <trkpt lat="37.568574" lon="-4.249082">
        <ele>424.562</ele>
        <time>2021-10-16T18:47:02Z</time>
      </trkpt>
      <trkpt lat="37.568186" lon="-4.248546">
        <ele>423.071</ele>
        <time>2021-10-16T18:47:04Z</time>
      </trkpt>
      <trkpt lat="37.568003" lon="-4.248254">
        <ele>421.975</ele>
        <time>2021-10-16T18:47:05Z</time>
      </trkpt>
      <trkpt lat="37.567710" lon="-4.247606">
        <ele>420.260</ele>
        <time>2021-10-16T18:47:07Z</time>
      </trkpt>
      <trkpt lat="37.567605" lon="-4.247246">
        <ele>419.499</ele>
        <time>2021-10-16T18:47:08Z</time>
      </trkpt>
      <trkpt lat="37.567446" lon="-4.246505">
        <ele>418.321</ele>
        <time>2021-10-16T18:47:10Z</time>
      </trkpt>
      <trkpt lat="37.567337" lon="-4.245722">
        <ele>416.418</ele>
        <time>2021-10-16T18:47:12Z</time>
      </trkpt>
      <trkpt lat="37.567301" lon="-4.244915">
        <ele>413.361</ele>
        <time>2021-10-16T18:47:14Z</time>
      </trkpt>
      <trkpt lat="37.567304" lon="-4.244112">
        <ele>410.221</ele>
        <time>2021-10-16T18:47:16Z</time>
      </trkpt>
      <trkpt lat="37.567303" lon="-4.243712">
        <ele>409.013</ele>
        <time>2021-10-16T18:47:17Z</time>
      </trkpt>
      <trkpt lat="37.567299" lon="-4.243309">
        <ele>408.208</ele>
        <time>2021-10-16T18:47:18Z</time>
      </trkpt>
      <trkpt lat="37.567293" lon="-4.242530">
        <ele>406.414</ele>
        <time>2021-10-16T18:47:20Z</time>
      </trkpt>
      <trkpt lat="37.567321" lon="-4.241759">
        <ele>406.462</ele>
        <time>2021-10-16T18:47:22Z</time>
      </trkpt>
      <trkpt lat="37.567423" lon="-4.241008">
        <ele>405.551</ele>
        <time>2021-10-16T18:47:24Z</time>
      </trkpt>
      <trkpt lat="37.567511" lon="-4.240643">
        <ele>405.785</ele>
        <time>2021-10-16T18:47:25Z</time>
      </trkpt>
      <trkpt lat="37.567615" lon="-4.240280">
        <ele>405.510</ele>
        <time>2021-10-16T18:47:26Z</time>
      </trkpt>
      <trkpt lat="37.567805" lon="-4.239615">
        <ele>404.919</ele>
        <time>2021-10-16T18:47:28Z</time>
      </trkpt>
      <trkpt lat="37.567977" lon="-4.238987">
        <ele>404.651</ele>
        <time>2021-10-16T18:47:30Z</time>
      </trkpt>
      <trkpt lat="37.568061" lon="-4.238678">
        <ele>404.288</ele>
        <time>2021-10-16T18:47:31Z</time>
      </trkpt>
      <trkpt lat="37.568145" lon="-4.238363">
        <ele>403.967</ele>
        <time>2021-10-16T18:47:32Z</time>
      </trkpt>
      <trkpt lat="37.568276" lon="-4.237770">
        <ele>403.981</ele>
        <time>2021-10-16T18:47:34Z</time>
      </trkpt>
      <trkpt lat="37.568314" lon="-4.237464">
        <ele>404.419</ele>
        <time>2021-10-16T18:47:35Z</time>
      </trkpt>
      <trkpt lat="37.568339" lon="-4.237163">
        <ele>404.708</ele>
        <time>2021-10-16T18:47:36Z</time>
      </trkpt>
      <trkpt lat="37.568359" lon="-4.236561">
        <ele>405.334</ele>
        <time>2021-10-16T18:47:38Z</time>
      </trkpt>
      <trkpt lat="37.568375" lon="-4.235976">
        <ele>406.172</ele>
        <time>2021-10-16T18:47:40Z</time>
      </trkpt>
      <trkpt lat="37.568379" lon="-4.235696">
        <ele>407.261</ele>
        <time>2021-10-16T18:47:41Z</time>
      </trkpt>
      <trkpt lat="37.568383" lon="-4.235187">
        <ele>408.995</ele>
        <time>2021-10-16T18:47:43Z</time>
      </trkpt>
      <trkpt lat="37.568374" lon="-4.234948">
        <ele>410.140</ele>
        <time>2021-10-16T18:47:44Z</time>
      </trkpt>
      <trkpt lat="37.568318" lon="-4.234516">
        <ele>410.979</ele>
        <time>2021-10-16T18:47:46Z</time>
      </trkpt>
      <trkpt lat="37.568274" lon="-4.234295">
        <ele>411.671</ele>
        <time>2021-10-16T18:47:47Z</time>
      </trkpt>
      <trkpt lat="37.568220" lon="-4.234068">
        <ele>412.788</ele>
        <time>2021-10-16T18:47:48Z</time>
      </trkpt>
      <trkpt lat="37.568163" lon="-4.233848">
        <ele>413.292</ele>
        <time>2021-10-16T18:47:49Z</time>
      </trkpt>
      <trkpt lat="37.568104" lon="-4.233634">
        <ele>414.273</ele>
        <time>2021-10-16T18:47:50Z</time>
      </trkpt>
      <trkpt lat="37.567968" lon="-4.233212">
        <ele>415.120</ele>
        <time>2021-10-16T18:47:52Z</time>
      </trkpt>
      <trkpt lat="37.567888" lon="-4.233000">
        <ele>415.508</ele>
        <time>2021-10-16T18:47:53Z</time>
      </trkpt>
      <trkpt lat="37.567731" lon="-4.232586">
        <ele>417.357</ele>
        <time>2021-10-16T18:47:55Z</time>
      </trkpt>
      <trkpt lat="37.567650" lon="-4.232367">
        <ele>417.895</ele>
        <time>2021-10-16T18:47:56Z</time>
      </trkpt>
      <trkpt lat="37.567494" lon="-4.231949">
        <ele>417.554</ele>
        <time>2021-10-16T18:47:58Z</time>
      </trkpt>
      <trkpt lat="37.567416" lon="-4.231735">
        <ele>418.368</ele>
        <time>2021-10-16T18:47:59Z</time>
      </trkpt>
      <trkpt lat="37.567255" lon="-4.231305">
        <ele>419.153</ele>
        <time>2021-10-16T18:48:01Z</time>
      </trkpt>
      <trkpt lat="37.567170" lon="-4.231082">
        <ele>417.982</ele>
        <time>2021-10-16T18:48:02Z</time>
      </trkpt>
      <trkpt lat="37.567017" lon="-4.230676">
        <ele>417.994</ele>
        <time>2021-10-16T18:48:04Z</time>
      </trkpt>
      <trkpt lat="37.566945" lon="-4.230481">
        <ele>417.571</ele>
        <time>2021-10-16T18:48:05Z</time>
      </trkpt>
      <trkpt lat="37.566796" lon="-4.230044">
        <ele>418.322</ele>
        <time>2021-10-16T18:48:07Z</time>
      </trkpt>
      <trkpt lat="37.566704" lon="-4.229797">
        <ele>418.462</ele>
        <time>2021-10-16T18:48:08Z</time>
      </trkpt>
      <trkpt lat="37.566488" lon="-4.229271">
        <ele>418.208</ele>
        <time>2021-10-16T18:48:10Z</time>
      </trkpt>
      <trkpt lat="37.566264" lon="-4.228683">
        <ele>418.708</ele>
        <time>2021-10-16T18:48:12Z</time>
      </trkpt>
      <trkpt lat="37.566046" lon="-4.228084">
        <ele>417.950</ele>
        <time>2021-10-16T18:48:14Z</time>
      </trkpt>
      <trkpt lat="37.565822" lon="-4.227490">
        <ele>418.738</ele>
        <time>2021-10-16T18:48:16Z</time>
      </trkpt>
      <trkpt lat="37.565596" lon="-4.226887">
        <ele>418.467</ele>
        <time>2021-10-16T18:48:18Z</time>
      </trkpt>
      <trkpt lat="37.565482" lon="-4.226583">
        <ele>418.351</ele>
        <time>2021-10-16T18:48:19Z</time>
      </trkpt>
      <trkpt lat="37.565370" lon="-4.226275">
        <ele>418.466</ele>
        <time>2021-10-16T18:48:20Z</time>
      </trkpt>
      <trkpt lat="37.565153" lon="-4.225675">
        <ele>417.595</ele>
        <time>2021-10-16T18:48:22Z</time>
      </trkpt>
      <trkpt lat="37.565050" lon="-4.225379">
        <ele>417.757</ele>
        <time>2021-10-16T18:48:23Z</time>
      </trkpt>
      <trkpt lat="37.564864" lon="-4.224796">
        <ele>417.334</ele>
        <time>2021-10-16T18:48:25Z</time>
      </trkpt>
      <trkpt lat="37.564793" lon="-4.224489">
        <ele>417.775</ele>
        <time>2021-10-16T18:48:26Z</time>
      </trkpt>
      <trkpt lat="37.564721" lon="-4.223871">
        <ele>417.028</ele>
        <time>2021-10-16T18:48:28Z</time>
      </trkpt>
      <trkpt lat="37.564707" lon="-4.223541">
        <ele>416.420</ele>
        <time>2021-10-16T18:48:29Z</time>
      </trkpt>
      <trkpt lat="37.564690" lon="-4.222870">
        <ele>416.308</ele>
        <time>2021-10-16T18:48:31Z</time>
      </trkpt>
      <trkpt lat="37.564683" lon="-4.222523">
        <ele>415.985</ele>
        <time>2021-10-16T18:48:32Z</time>
      </trkpt>
      <trkpt lat="37.564666" lon="-4.221860">
        <ele>416.393</ele>
        <time>2021-10-16T18:48:34Z</time>
      </trkpt>
      <trkpt lat="37.564646" lon="-4.221188">
        <ele>414.252</ele>
        <time>2021-10-16T18:48:36Z</time>
      </trkpt>
      <trkpt lat="37.564635" lon="-4.220859">
        <ele>414.636</ele>
        <time>2021-10-16T18:48:37Z</time>
      </trkpt>
      <trkpt lat="37.564625" lon="-4.220539">
        <ele>414.581</ele>
        <time>2021-10-16T18:48:38Z</time>
      </trkpt>
      <trkpt lat="37.564613" lon="-4.219916">
        <ele>413.820</ele>
        <time>2021-10-16T18:48:40Z</time>
      </trkpt>
      <trkpt lat="37.564606" lon="-4.219619">
        <ele>413.872</ele>
        <time>2021-10-16T18:48:41Z</time>
      </trkpt>
      <trkpt lat="37.564587" lon="-4.219062">
        <ele>414.269</ele>
        <time>2021-10-16T18:48:43Z</time>
      </trkpt>
      <trkpt lat="37.564582" lon="-4.218783">
        <ele>413.944</ele>
        <time>2021-10-16T18:48:44Z</time>
      </trkpt>
      <trkpt lat="37.564577" lon="-4.218229">
        <ele>413.705</ele>
        <time>2021-10-16T18:48:46Z</time>
      </trkpt>
      <trkpt lat="37.564571" lon="-4.217952">
        <ele>413.015</ele>
        <time>2021-10-16T18:48:47Z</time>
      </trkpt>
      <trkpt lat="37.564537" lon="-4.217419">
        <ele>412.708</ele>
        <time>2021-10-16T18:48:49Z</time>
      </trkpt>
      <trkpt lat="37.564504" lon="-4.217150">
        <ele>412.562</ele>
        <time>2021-10-16T18:48:50Z</time>
      </trkpt>
      <trkpt lat="37.564417" lon="-4.216628">
        <ele>411.220</ele>
        <time>2021-10-16T18:48:52Z</time>
      </trkpt>
      <trkpt lat="37.564371" lon="-4.216363">
        <ele>410.329</ele>
        <time>2021-10-16T18:48:53Z</time>
      </trkpt>
      <trkpt lat="37.564325" lon="-4.216095">
        <ele>409.643</ele>
        <time>2021-10-16T18:48:54Z</time>
      </trkpt>
      <trkpt lat="37.564234" lon="-4.215551">
        <ele>409.428</ele>
        <time>2021-10-16T18:48:56Z</time>
      </trkpt>
      <trkpt lat="37.564146" lon="-4.215022">
        <ele>409.397</ele>
        <time>2021-10-16T18:48:58Z</time>
      </trkpt>
      <trkpt lat="37.564055" lon="-4.214485">
        <ele>408.039</ele>
        <time>2021-10-16T18:49:00Z</time>
      </trkpt>
      <trkpt lat="37.563975" lon="-4.213960">
        <ele>409.056</ele>
        <time>2021-10-16T18:49:02Z</time>
      </trkpt>
      <trkpt lat="37.563905" lon="-4.213486">
        <ele>408.447</ele>
        <time>2021-10-16T18:49:04Z</time>
      </trkpt>
      <trkpt lat="37.563869" lon="-4.213261">
        <ele>408.529</ele>
        <time>2021-10-16T18:49:05Z</time>
      </trkpt>
      <trkpt lat="37.563796" lon="-4.212825">
        <ele>408.521</ele>
        <time>2021-10-16T18:49:07Z</time>
      </trkpt>
      <trkpt lat="37.563758" lon="-4.212606">
        <ele>407.808</ele>
        <time>2021-10-16T18:49:08Z</time>
      </trkpt>
      <trkpt lat="37.563676" lon="-4.212195">
        <ele>407.552</ele>
        <time>2021-10-16T18:49:10Z</time>
      </trkpt>
      <trkpt lat="37.563537" lon="-4.211819">
        <ele>407.760</ele>
        <time>2021-10-16T18:49:12Z</time>
      </trkpt>
      <trkpt lat="37.563443" lon="-4.211639">
        <ele>407.849</ele>
        <time>2021-10-16T18:49:13Z</time>
      </trkpt>
      <trkpt lat="37.563352" lon="-4.211457">
        <ele>408.063</ele>
        <time>2021-10-16T18:49:14Z</time>
      </trkpt>
      <trkpt lat="37.563187" lon="-4.211080">
        <ele>408.228</ele>
        <time>2021-10-16T18:49:16Z</time>
      </trkpt>
      <trkpt lat="37.563026" lon="-4.210690">
        <ele>406.767</ele>
        <time>2021-10-16T18:49:18Z</time>
      </trkpt>
      <trkpt lat="37.562943" lon="-4.210487">
        <ele>406.479</ele>
        <time>2021-10-16T18:49:19Z</time>
      </trkpt>
      <trkpt lat="37.562846" lon="-4.210277">
        <ele>406.676</ele>
        <time>2021-10-16T18:49:20Z</time>
      </trkpt>
      <trkpt lat="37.562589" lon="-4.209807">
        <ele>406.279</ele>
        <time>2021-10-16T18:49:22Z</time>
      </trkpt>
      <trkpt lat="37.562283" lon="-4.209303">
        <ele>406.205</ele>
        <time>2021-10-16T18:49:24Z</time>
      </trkpt>
      <trkpt lat="37.562129" lon="-4.209059">
        <ele>407.125</ele>
        <time>2021-10-16T18:49:25Z</time>
      </trkpt>
      <trkpt lat="37.561983" lon="-4.208833">
        <ele>407.708</ele>
        <time>2021-10-16T18:49:26Z</time>
      </trkpt>
      <trkpt lat="37.561694" lon="-4.208436">
        <ele>409.155</ele>
        <time>2021-10-16T18:49:28Z</time>
      </trkpt>
      <trkpt lat="37.561530" lon="-4.208262">
        <ele>410.663</ele>
        <time>2021-10-16T18:49:29Z</time>
      </trkpt>
      <trkpt lat="37.561212" lon="-4.207956">
        <ele>411.012</ele>
        <time>2021-10-16T18:49:31Z</time>
      </trkpt>
      <trkpt lat="37.561063" lon="-4.207784">
        <ele>410.776</ele>
        <time>2021-10-16T18:49:32Z</time>
      </trkpt>
      <trkpt lat="37.560826" lon="-4.207386">
        <ele>409.811</ele>
        <time>2021-10-16T18:49:34Z</time>
      </trkpt>
      <trkpt lat="37.560742" lon="-4.207152">
        <ele>409.420</ele>
        <time>2021-10-16T18:49:35Z</time>
      </trkpt>
      <trkpt lat="37.560684" lon="-4.206895">
        <ele>408.292</ele>
        <time>2021-10-16T18:49:36Z</time>
      </trkpt>
      <trkpt lat="37.560671" lon="-4.206287">
        <ele>406.849</ele>
        <time>2021-10-16T18:49:38Z</time>
      </trkpt>
      <trkpt lat="37.560714" lon="-4.205609">
        <ele>403.442</ele>
        <time>2021-10-16T18:49:40Z</time>
      </trkpt>
      <trkpt lat="37.560726" lon="-4.205264">
        <ele>401.522</ele>
        <time>2021-10-16T18:49:41Z</time>
      </trkpt>
      <trkpt lat="37.560722" lon="-4.204613">
        <ele>399.114</ele>
        <time>2021-10-16T18:49:43Z</time>
      </trkpt>
      <trkpt lat="37.560704" lon="-4.204313">
        <ele>397.008</ele>
        <time>2021-10-16T18:49:44Z</time>
      </trkpt>
      <trkpt lat="37.560640" lon="-4.203786">
        <ele>394.372</ele>
        <time>2021-10-16T18:49:46Z</time>
      </trkpt>
      <trkpt lat="37.560583" lon="-4.203547">
        <ele>393.640</ele>
        <time>2021-10-16T18:49:47Z</time>
      </trkpt>
      <trkpt lat="37.560390" lon="-4.203088">
        <ele>392.069</ele>
        <time>2021-10-16T18:49:49Z</time>
      </trkpt>
      <trkpt lat="37.560255" lon="-4.202850">
        <ele>390.273</ele>
        <time>2021-10-16T18:49:50Z</time>
      </trkpt>
      <trkpt lat="37.559952" lon="-4.202336">
        <ele>389.158</ele>
        <time>2021-10-16T18:49:52Z</time>
      </trkpt>
      <trkpt lat="37.559791" lon="-4.202058">
        <ele>387.297</ele>
        <time>2021-10-16T18:49:53Z</time>
      </trkpt>
      <trkpt lat="37.559624" lon="-4.201770">
        <ele>386.919</ele>
        <time>2021-10-16T18:49:54Z</time>
      </trkpt>
      <trkpt lat="37.559270" lon="-4.201171">
        <ele>386.686</ele>
        <time>2021-10-16T18:49:56Z</time>
      </trkpt>
      <trkpt lat="37.558919" lon="-4.200572">
        <ele>385.131</ele>
        <time>2021-10-16T18:49:58Z</time>
      </trkpt>
      <trkpt lat="37.558738" lon="-4.200262">
        <ele>384.461</ele>
        <time>2021-10-16T18:49:59Z</time>
      </trkpt>
      <trkpt lat="37.558381" lon="-4.199652">
        <ele>382.307</ele>
        <time>2021-10-16T18:50:01Z</time>
      </trkpt>
      <trkpt lat="37.558203" lon="-4.199338">
        <ele>382.008</ele>
        <time>2021-10-16T18:50:02Z</time>
      </trkpt>
      <trkpt lat="37.557877" lon="-4.198722">
        <ele>380.561</ele>
        <time>2021-10-16T18:50:04Z</time>
      </trkpt>
      <trkpt lat="37.557585" lon="-4.198074">
        <ele>381.179</ele>
        <time>2021-10-16T18:50:06Z</time>
      </trkpt>
      <trkpt lat="37.557454" lon="-4.197745">
        <ele>381.378</ele>
        <time>2021-10-16T18:50:07Z</time>
      </trkpt>
      <trkpt lat="37.557331" lon="-4.197430">
        <ele>380.922</ele>
        <time>2021-10-16T18:50:08Z</time>
      </trkpt>
      <trkpt lat="37.557092" lon="-4.196842">
        <ele>381.757</ele>
        <time>2021-10-16T18:50:10Z</time>
      </trkpt>
      <trkpt lat="37.556965" lon="-4.196530">
        <ele>381.646</ele>
        <time>2021-10-16T18:50:11Z</time>
      </trkpt>
      <trkpt lat="37.556704" lon="-4.195868">
        <ele>379.448</ele>
        <time>2021-10-16T18:50:13Z</time>
      </trkpt>
      <trkpt lat="37.556576" lon="-4.195527">
        <ele>378.715</ele>
        <time>2021-10-16T18:50:14Z</time>
      </trkpt>
      <trkpt lat="37.556314" lon="-4.194857">
        <ele>376.516</ele>
        <time>2021-10-16T18:50:16Z</time>
      </trkpt>
      <trkpt lat="37.556176" lon="-4.194528">
        <ele>376.076</ele>
        <time>2021-10-16T18:50:17Z</time>
      </trkpt>
      <trkpt lat="37.556033" lon="-4.194210">
        <ele>375.213</ele>
        <time>2021-10-16T18:50:18Z</time>
      </trkpt>
      <trkpt lat="37.555755" lon="-4.193586">
        <ele>373.408</ele>
        <time>2021-10-16T18:50:20Z</time>
      </trkpt>
      <trkpt lat="37.555484" lon="-4.193003">
        <ele>371.929</ele>
        <time>2021-10-16T18:50:22Z</time>
      </trkpt>
      <trkpt lat="37.555340" lon="-4.192707">
        <ele>370.377</ele>
        <time>2021-10-16T18:50:23Z</time>
      </trkpt>
      <trkpt lat="37.555020" lon="-4.192131">
        <ele>367.416</ele>
        <time>2021-10-16T18:50:25Z</time>
      </trkpt>
      <trkpt lat="37.554839" lon="-4.191839">
        <ele>365.350</ele>
        <time>2021-10-16T18:50:26Z</time>
      </trkpt>
      <trkpt lat="37.554492" lon="-4.191276">
        <ele>361.645</ele>
        <time>2021-10-16T18:50:28Z</time>
      </trkpt>
      <trkpt lat="37.554313" lon="-4.190984">
        <ele>360.534</ele>
        <time>2021-10-16T18:50:29Z</time>
      </trkpt>
      <trkpt lat="37.554136" lon="-4.190694">
        <ele>358.766</ele>
        <time>2021-10-16T18:50:30Z</time>
      </trkpt>
      <trkpt lat="37.553961" lon="-4.190406">
        <ele>357.113</ele>
        <time>2021-10-16T18:50:31Z</time>
      </trkpt>
      <trkpt lat="37.553781" lon="-4.190110">
        <ele>356.232</ele>
        <time>2021-10-16T18:50:32Z</time>
      </trkpt>
      <trkpt lat="37.553456" lon="-4.189570">
        <ele>352.192</ele>
        <time>2021-10-16T18:50:34Z</time>
      </trkpt>
      <trkpt lat="37.553297" lon="-4.189309">
        <ele>350.111</ele>
        <time>2021-10-16T18:50:35Z</time>
      </trkpt>
      <trkpt lat="37.553143" lon="-4.189057">
        <ele>348.608</ele>
        <time>2021-10-16T18:50:36Z</time>
      </trkpt>
      <trkpt lat="37.552842" lon="-4.188574">
        <ele>347.281</ele>
        <time>2021-10-16T18:50:38Z</time>
      </trkpt>
      <trkpt lat="37.552574" lon="-4.188156">
        <ele>346.189</ele>
        <time>2021-10-16T18:50:40Z</time>
      </trkpt>
      <trkpt lat="37.552454" lon="-4.187960">
        <ele>346.228</ele>
        <time>2021-10-16T18:50:41Z</time>
      </trkpt>
      <trkpt lat="37.552343" lon="-4.187764">
        <ele>346.432</ele>
        <time>2021-10-16T18:50:42Z</time>
      </trkpt>
      <trkpt lat="37.552173" lon="-4.187291">
        <ele>346.787</ele>
        <time>2021-10-16T18:50:44Z</time>
      </trkpt>
      <trkpt lat="37.552096" lon="-4.186654">
        <ele>346.766</ele>
        <time>2021-10-16T18:50:46Z</time>
      </trkpt>
      <trkpt lat="37.552093" lon="-4.186305">
        <ele>346.698</ele>
        <time>2021-10-16T18:50:47Z</time>
      </trkpt>
      <trkpt lat="37.552093" lon="-4.185961">
        <ele>346.555</ele>
        <time>2021-10-16T18:50:48Z</time>
      </trkpt>
      <trkpt lat="37.552048" lon="-4.185281">
        <ele>350.492</ele>
        <time>2021-10-16T18:50:50Z</time>
      </trkpt>
      <trkpt lat="37.551933" lon="-4.184595">
        <ele>355.073</ele>
        <time>2021-10-16T18:50:52Z</time>
      </trkpt>
      <trkpt lat="37.551804" lon="-4.183894">
        <ele>359.020</ele>
        <time>2021-10-16T18:50:54Z</time>
      </trkpt>
      <trkpt lat="37.551740" lon="-4.183537">
        <ele>361.308</ele>
        <time>2021-10-16T18:50:55Z</time>
      </trkpt>
      <trkpt lat="37.551671" lon="-4.183157">
        <ele>363.057</ele>
        <time>2021-10-16T18:50:56Z</time>
      </trkpt>
      <trkpt lat="37.551532" lon="-4.182426">
        <ele>366.255</ele>
        <time>2021-10-16T18:50:58Z</time>
      </trkpt>
      <trkpt lat="37.551464" lon="-4.182060">
        <ele>367.334</ele>
        <time>2021-10-16T18:50:59Z</time>
      </trkpt>
      <trkpt lat="37.551400" lon="-4.181699">
        <ele>369.288</ele>
        <time>2021-10-16T18:51:00Z</time>
      </trkpt>
      <trkpt lat="37.551263" lon="-4.180964">
        <ele>373.153</ele>
        <time>2021-10-16T18:51:02Z</time>
      </trkpt>
      <trkpt lat="37.551130" lon="-4.180245">
        <ele>377.222</ele>
        <time>2021-10-16T18:51:04Z</time>
      </trkpt>
      <trkpt lat="37.551067" lon="-4.179884">
        <ele>379.934</ele>
        <time>2021-10-16T18:51:05Z</time>
      </trkpt>
      <trkpt lat="37.550938" lon="-4.179207">
        <ele>386.721</ele>
        <time>2021-10-16T18:51:07Z</time>
      </trkpt>
      <trkpt lat="37.550854" lon="-4.178880">
        <ele>390.446</ele>
        <time>2021-10-16T18:51:08Z</time>
      </trkpt>
      <trkpt lat="37.550643" lon="-4.178236">
        <ele>397.488</ele>
        <time>2021-10-16T18:51:10Z</time>
      </trkpt>
      <trkpt lat="37.550526" lon="-4.177904">
        <ele>401.116</ele>
        <time>2021-10-16T18:51:11Z</time>
      </trkpt>
      <trkpt lat="37.550412" lon="-4.177575">
        <ele>403.908</ele>
        <time>2021-10-16T18:51:12Z</time>
      </trkpt>
      <trkpt lat="37.550196" lon="-4.176972">
        <ele>408.922</ele>
        <time>2021-10-16T18:51:14Z</time>
      </trkpt>
      <trkpt lat="37.549958" lon="-4.176420">
        <ele>412.910</ele>
        <time>2021-10-16T18:51:16Z</time>
      </trkpt>
      <trkpt lat="37.549837" lon="-4.176170">
        <ele>413.719</ele>
        <time>2021-10-16T18:51:17Z</time>
      </trkpt>
      <trkpt lat="37.549597" lon="-4.175696">
        <ele>415.643</ele>
        <time>2021-10-16T18:51:19Z</time>
      </trkpt>
      <trkpt lat="37.549463" lon="-4.175448">
        <ele>416.798</ele>
        <time>2021-10-16T18:51:20Z</time>
      </trkpt>
      <trkpt lat="37.549160" lon="-4.174927">
        <ele>416.787</ele>
        <time>2021-10-16T18:51:22Z</time>
      </trkpt>
      <trkpt lat="37.548999" lon="-4.174654">
        <ele>416.329</ele>
        <time>2021-10-16T18:51:23Z</time>
      </trkpt>
      <trkpt lat="37.548658" lon="-4.174126">
        <ele>415.416</ele>
        <time>2021-10-16T18:51:25Z</time>
      </trkpt>
      <trkpt lat="37.548464" lon="-4.173885">
        <ele>414.843</ele>
        <time>2021-10-16T18:51:26Z</time>
      </trkpt>
      <trkpt lat="37.548045" lon="-4.173527">
        <ele>414.764</ele>
        <time>2021-10-16T18:51:28Z</time>
      </trkpt>
      <trkpt lat="37.547812" lon="-4.173389">
        <ele>415.710</ele>
        <time>2021-10-16T18:51:29Z</time>
      </trkpt>
      <trkpt lat="37.547580" lon="-4.173301">
        <ele>416.608</ele>
        <time>2021-10-16T18:51:30Z</time>
      </trkpt>
      <trkpt lat="37.547362" lon="-4.173246">
        <ele>417.262</ele>
        <time>2021-10-16T18:51:31Z</time>
      </trkpt>
      <trkpt lat="37.547158" lon="-4.173205">
        <ele>417.290</ele>
        <time>2021-10-16T18:51:32Z</time>
      </trkpt>
      <trkpt lat="37.546798" lon="-4.173065">
        <ele>417.039</ele>
        <time>2021-10-16T18:51:34Z</time>
      </trkpt>
      <trkpt lat="37.546626" lon="-4.172919">
        <ele>416.723</ele>
        <time>2021-10-16T18:51:35Z</time>
      </trkpt>
      <trkpt lat="37.546459" lon="-4.172714">
        <ele>415.878</ele>
        <time>2021-10-16T18:51:36Z</time>
      </trkpt>
      <trkpt lat="37.546293" lon="-4.172466">
        <ele>415.337</ele>
        <time>2021-10-16T18:51:37Z</time>
      </trkpt>
      <trkpt lat="37.546123" lon="-4.172210">
        <ele>414.039</ele>
        <time>2021-10-16T18:51:38Z</time>
      </trkpt>
      <trkpt lat="37.545790" lon="-4.171780">
        <ele>411.036</ele>
        <time>2021-10-16T18:51:40Z</time>
      </trkpt>
      <trkpt lat="37.545453" lon="-4.171492">
        <ele>410.642</ele>
        <time>2021-10-16T18:51:42Z</time>
      </trkpt>
      <trkpt lat="37.545284" lon="-4.171427">
        <ele>410.222</ele>
        <time>2021-10-16T18:51:43Z</time>
      </trkpt>
      <trkpt lat="37.545115" lon="-4.171404">
        <ele>410.114</ele>
        <time>2021-10-16T18:51:44Z</time>
      </trkpt>
      <trkpt lat="37.544780" lon="-4.171277">
        <ele>408.908</ele>
        <time>2021-10-16T18:51:46Z</time>
      </trkpt>
      <trkpt lat="37.544611" lon="-4.171130">
        <ele>408.792</ele>
        <time>2021-10-16T18:51:47Z</time>
      </trkpt>
      <trkpt lat="37.544438" lon="-4.170934">
        <ele>408.090</ele>
        <time>2021-10-16T18:51:48Z</time>
      </trkpt>
      <trkpt lat="37.544267" lon="-4.170706">
        <ele>407.329</ele>
        <time>2021-10-16T18:51:49Z</time>
      </trkpt>
      <trkpt lat="37.544096" lon="-4.170454">
        <ele>406.983</ele>
        <time>2021-10-16T18:51:50Z</time>
      </trkpt>
      <trkpt lat="37.543728" lon="-4.169954">
        <ele>406.328</ele>
        <time>2021-10-16T18:51:52Z</time>
      </trkpt>
      <trkpt lat="37.543314" lon="-4.169495">
        <ele>408.267</ele>
        <time>2021-10-16T18:51:54Z</time>
      </trkpt>
      <trkpt lat="37.543105" lon="-4.169291">
        <ele>409.759</ele>
        <time>2021-10-16T18:51:55Z</time>
      </trkpt>
      <trkpt lat="37.542907" lon="-4.169100">
        <ele>411.476</ele>
        <time>2021-10-16T18:51:56Z</time>
      </trkpt>
      <trkpt lat="37.542565" lon="-4.168737">
        <ele>414.164</ele>
        <time>2021-10-16T18:51:58Z</time>
      </trkpt>
      <trkpt lat="37.542215" lon="-4.168342">
        <ele>413.906</ele>
        <time>2021-10-16T18:52:00Z</time>
      </trkpt>
      <trkpt lat="37.542014" lon="-4.168151">
        <ele>414.616</ele>
        <time>2021-10-16T18:52:01Z</time>
      </trkpt>
      <trkpt lat="37.541798" lon="-4.167977">
        <ele>415.608</ele>
        <time>2021-10-16T18:52:02Z</time>
      </trkpt>
      <trkpt lat="37.541378" lon="-4.167656">
        <ele>419.834</ele>
        <time>2021-10-16T18:52:04Z</time>
      </trkpt>
      <trkpt lat="37.541194" lon="-4.167472">
        <ele>421.932</ele>
        <time>2021-10-16T18:52:05Z</time>
      </trkpt>
      <trkpt lat="37.540882" lon="-4.167042">
        <ele>425.561</ele>
        <time>2021-10-16T18:52:07Z</time>
      </trkpt>
      <trkpt lat="37.540746" lon="-4.166785">
        <ele>426.075</ele>
        <time>2021-10-16T18:52:08Z</time>
      </trkpt>
      <trkpt lat="37.540487" lon="-4.166255">
        <ele>427.960</ele>
        <time>2021-10-16T18:52:10Z</time>
      </trkpt>
      <trkpt lat="37.540168" lon="-4.165718">
        <ele>429.399</ele>
        <time>2021-10-16T18:52:12Z</time>
      </trkpt>
      <trkpt lat="37.539995" lon="-4.165447">
        <ele>429.591</ele>
        <time>2021-10-16T18:52:13Z</time>
      </trkpt>
      <trkpt lat="37.539818" lon="-4.165173">
        <ele>429.588</ele>
        <time>2021-10-16T18:52:14Z</time>
      </trkpt>
      <trkpt lat="37.539471" lon="-4.164617">
        <ele>428.688</ele>
        <time>2021-10-16T18:52:16Z</time>
      </trkpt>
      <trkpt lat="37.539131" lon="-4.164066">
        <ele>428.824</ele>
        <time>2021-10-16T18:52:18Z</time>
      </trkpt>
      <trkpt lat="37.538817" lon="-4.163496">
        <ele>428.726</ele>
        <time>2021-10-16T18:52:20Z</time>
      </trkpt>
      <trkpt lat="37.538546" lon="-4.162895">
        <ele>429.708</ele>
        <time>2021-10-16T18:52:22Z</time>
      </trkpt>
      <trkpt lat="37.538309" lon="-4.162317">
        <ele>430.516</ele>
        <time>2021-10-16T18:52:24Z</time>
      </trkpt>
      <trkpt lat="37.538196" lon="-4.162055">
        <ele>431.324</ele>
        <time>2021-10-16T18:52:25Z</time>
      </trkpt>
      <trkpt lat="37.538067" lon="-4.161804">
        <ele>432.143</ele>
        <time>2021-10-16T18:52:26Z</time>
      </trkpt>
      <trkpt lat="37.537769" lon="-4.161352">
        <ele>433.287</ele>
        <time>2021-10-16T18:52:28Z</time>
      </trkpt>
      <trkpt lat="37.537584" lon="-4.161136">
        <ele>433.842</ele>
        <time>2021-10-16T18:52:29Z</time>
      </trkpt>
      <trkpt lat="37.537182" lon="-4.160738">
        <ele>435.481</ele>
        <time>2021-10-16T18:52:31Z</time>
      </trkpt>
      <trkpt lat="37.536986" lon="-4.160550">
        <ele>435.783</ele>
        <time>2021-10-16T18:52:32Z</time>
      </trkpt>
      <trkpt lat="37.536634" lon="-4.160269">
        <ele>437.710</ele>
        <time>2021-10-16T18:52:34Z</time>
      </trkpt>
      <trkpt lat="37.536428" lon="-4.160160">
        <ele>438.397</ele>
        <time>2021-10-16T18:52:35Z</time>
      </trkpt>
      <trkpt lat="37.536210" lon="-4.160059">
        <ele>438.823</ele>
        <time>2021-10-16T18:52:36Z</time>
      </trkpt>
      <trkpt lat="37.535794" lon="-4.159805">
        <ele>439.825</ele>
        <time>2021-10-16T18:52:38Z</time>
      </trkpt>
      <trkpt lat="37.535612" lon="-4.159676">
        <ele>440.908</ele>
        <time>2021-10-16T18:52:39Z</time>
      </trkpt>
      <trkpt lat="37.535279" lon="-4.159394">
        <ele>442.237</ele>
        <time>2021-10-16T18:52:41Z</time>
      </trkpt>
      <trkpt lat="37.534977" lon="-4.159040">
        <ele>441.045</ele>
        <time>2021-10-16T18:52:43Z</time>
      </trkpt>
      <trkpt lat="37.534828" lon="-4.158855">
        <ele>440.614</ele>
        <time>2021-10-16T18:52:44Z</time>
      </trkpt>
      <trkpt lat="37.534553" lon="-4.158517">
        <ele>440.178</ele>
        <time>2021-10-16T18:52:46Z</time>
      </trkpt>
      <trkpt lat="37.534422" lon="-4.158357">
        <ele>439.523</ele>
        <time>2021-10-16T18:52:47Z</time>
      </trkpt>
      <trkpt lat="37.534293" lon="-4.158206">
        <ele>438.092</ele>
        <time>2021-10-16T18:52:48Z</time>
      </trkpt>
      <trkpt lat="37.534168" lon="-4.158062">
        <ele>437.214</ele>
        <time>2021-10-16T18:52:49Z</time>
      </trkpt>
      <trkpt lat="37.534050" lon="-4.157925">
        <ele>437.021</ele>
        <time>2021-10-16T18:52:50Z</time>
      </trkpt>
      <trkpt lat="37.533840" lon="-4.157665">
        <ele>437.291</ele>
        <time>2021-10-16T18:52:52Z</time>
      </trkpt>
      <trkpt lat="37.533666" lon="-4.157413">
        <ele>436.681</ele>
        <time>2021-10-16T18:52:54Z</time>
      </trkpt>
      <trkpt lat="37.533527" lon="-4.157189">
        <ele>437.019</ele>
        <time>2021-10-16T18:52:56Z</time>
      </trkpt>
      <trkpt lat="37.533417" lon="-4.157012">
        <ele>437.008</ele>
        <time>2021-10-16T18:52:58Z</time>
      </trkpt>
      <trkpt lat="37.533364" lon="-4.156936">
        <ele>436.817</ele>
        <time>2021-10-16T18:52:59Z</time>
      </trkpt>
      <trkpt lat="37.533279" lon="-4.156820">
        <ele>437.215</ele>
        <time>2021-10-16T18:53:01Z</time>
      </trkpt>
      <trkpt lat="37.533248" lon="-4.156777">
        <ele>437.164</ele>
        <time>2021-10-16T18:53:02Z</time>
      </trkpt>
      <trkpt lat="37.533220" lon="-4.156725">
        <ele>437.368</ele>
        <time>2021-10-16T18:53:04Z</time>
      </trkpt>
      <trkpt lat="37.533183" lon="-4.156665">
        <ele>437.343</ele>
        <time>2021-10-16T18:53:06Z</time>
      </trkpt>
      <trkpt lat="37.533172" lon="-4.156608">
        <ele>436.992</ele>
        <time>2021-10-16T18:53:38Z</time>
      </trkpt>
      <trkpt lat="37.533245" lon="-4.156514">
        <ele>436.964</ele>
        <time>2021-10-16T18:53:40Z</time>
      </trkpt>
      <trkpt lat="37.533428" lon="-4.156446">
        <ele>436.861</ele>
        <time>2021-10-16T18:53:42Z</time>
      </trkpt>
      <trkpt lat="37.533538" lon="-4.156413">
        <ele>437.528</ele>
        <time>2021-10-16T18:53:43Z</time>
      </trkpt>
      <trkpt lat="37.533659" lon="-4.156376">
        <ele>437.889</ele>
        <time>2021-10-16T18:53:44Z</time>
      </trkpt>
      <trkpt lat="37.533936" lon="-4.156296">
        <ele>437.217</ele>
        <time>2021-10-16T18:53:46Z</time>
      </trkpt>
      <trkpt lat="37.534097" lon="-4.156257">
        <ele>436.908</ele>
        <time>2021-10-16T18:53:47Z</time>
      </trkpt>
      <trkpt lat="37.534269" lon="-4.156228">
        <ele>436.980</ele>
        <time>2021-10-16T18:53:48Z</time>
      </trkpt>
      <trkpt lat="37.534655" lon="-4.156196">
        <ele>435.968</ele>
        <time>2021-10-16T18:53:50Z</time>
      </trkpt>
      <trkpt lat="37.535079" lon="-4.156205">
        <ele>434.037</ele>
        <time>2021-10-16T18:53:52Z</time>
      </trkpt>
      <trkpt lat="37.535310" lon="-4.156217">
        <ele>432.391</ele>
        <time>2021-10-16T18:53:53Z</time>
      </trkpt>
      <trkpt lat="37.535551" lon="-4.156233">
        <ele>431.176</ele>
        <time>2021-10-16T18:53:54Z</time>
      </trkpt>
      <trkpt lat="37.536059" lon="-4.156272">
        <ele>428.515</ele>
        <time>2021-10-16T18:53:56Z</time>
      </trkpt>
      <trkpt lat="37.536581" lon="-4.156315">
        <ele>425.637</ele>
        <time>2021-10-16T18:53:58Z</time>
      </trkpt>
      <trkpt lat="37.536855" lon="-4.156336">
        <ele>424.234</ele>
        <time>2021-10-16T18:53:59Z</time>
      </trkpt>
      <trkpt lat="37.537129" lon="-4.156355">
        <ele>423.329</ele>
        <time>2021-10-16T18:54:00Z</time>
      </trkpt>
      <trkpt lat="37.537693" lon="-4.156396">
        <ele>421.000</ele>
        <time>2021-10-16T18:54:02Z</time>
      </trkpt>
      <trkpt lat="37.538245" lon="-4.156437">
        <ele>418.320</ele>
        <time>2021-10-16T18:54:04Z</time>
      </trkpt>
      <trkpt lat="37.538528" lon="-4.156459">
        <ele>417.708</ele>
        <time>2021-10-16T18:54:05Z</time>
      </trkpt>
      <trkpt lat="37.538809" lon="-4.156482">
        <ele>417.050</ele>
        <time>2021-10-16T18:54:06Z</time>
      </trkpt>
      <trkpt lat="37.539375" lon="-4.156541">
        <ele>415.758</ele>
        <time>2021-10-16T18:54:08Z</time>
      </trkpt>
      <trkpt lat="37.539936" lon="-4.156628">
        <ele>414.197</ele>
        <time>2021-10-16T18:54:10Z</time>
      </trkpt>
      <trkpt lat="37.540223" lon="-4.156686">
        <ele>413.291</ele>
        <time>2021-10-16T18:54:11Z</time>
      </trkpt>
      <trkpt lat="37.540793" lon="-4.156816">
        <ele>412.256</ele>
        <time>2021-10-16T18:54:13Z</time>
      </trkpt>
      <trkpt lat="37.541079" lon="-4.156884">
        <ele>411.265</ele>
        <time>2021-10-16T18:54:14Z</time>
      </trkpt>
      <trkpt lat="37.541654" lon="-4.157026">
        <ele>409.917</ele>
        <time>2021-10-16T18:54:16Z</time>
      </trkpt>
      <trkpt lat="37.541945" lon="-4.157099">
        <ele>409.564</ele>
        <time>2021-10-16T18:54:17Z</time>
      </trkpt>
      <trkpt lat="37.542521" lon="-4.157243">
        <ele>407.761</ele>
        <time>2021-10-16T18:54:19Z</time>
      </trkpt>
      <trkpt lat="37.542812" lon="-4.157316">
        <ele>406.421</ele>
        <time>2021-10-16T18:54:20Z</time>
      </trkpt>
      <trkpt lat="37.543387" lon="-4.157469">
        <ele>405.813</ele>
        <time>2021-10-16T18:54:22Z</time>
      </trkpt>
      <trkpt lat="37.543968" lon="-4.157619">
        <ele>403.808</ele>
        <time>2021-10-16T18:54:24Z</time>
      </trkpt>
      <trkpt lat="37.544258" lon="-4.157694">
        <ele>402.924</ele>
        <time>2021-10-16T18:54:25Z</time>
      </trkpt>
      <trkpt lat="37.544560" lon="-4.157771">
        <ele>402.222</ele>
        <time>2021-10-16T18:54:26Z</time>
      </trkpt>
      <trkpt lat="37.545137" lon="-4.157919">
        <ele>401.331</ele>
        <time>2021-10-16T18:54:28Z</time>
      </trkpt>
      <trkpt lat="37.545433" lon="-4.157996">
        <ele>401.255</ele>
        <time>2021-10-16T18:54:29Z</time>
      </trkpt>
      <trkpt lat="37.546021" lon="-4.158148">
        <ele>400.350</ele>
        <time>2021-10-16T18:54:31Z</time>
      </trkpt>
      <trkpt lat="37.546327" lon="-4.158227">
        <ele>400.019</ele>
        <time>2021-10-16T18:54:32Z</time>
      </trkpt>
      <trkpt lat="37.546902" lon="-4.158377">
        <ele>399.341</ele>
        <time>2021-10-16T18:54:34Z</time>
      </trkpt>
      <trkpt lat="37.547194" lon="-4.158453">
        <ele>398.918</ele>
        <time>2021-10-16T18:54:35Z</time>
      </trkpt>
      <trkpt lat="37.547484" lon="-4.158527">
        <ele>398.552</ele>
        <time>2021-10-16T18:54:36Z</time>
      </trkpt>
      <trkpt lat="37.547774" lon="-4.158601">
        <ele>398.253</ele>
        <time>2021-10-16T18:54:37Z</time>
      </trkpt>
      <trkpt lat="37.548348" lon="-4.158748">
        <ele>397.008</ele>
        <time>2021-10-16T18:54:39Z</time>
      </trkpt>
      <trkpt lat="37.548629" lon="-4.158819">
        <ele>396.308</ele>
        <time>2021-10-16T18:54:40Z</time>
      </trkpt>
      <trkpt lat="37.549151" lon="-4.158942">
        <ele>395.433</ele>
        <time>2021-10-16T18:54:42Z</time>
      </trkpt>
      <trkpt lat="37.549666" lon="-4.159110">
        <ele>394.551</ele>
        <time>2021-10-16T18:54:44Z</time>
      </trkpt>
      <trkpt lat="37.550163" lon="-4.159390">
        <ele>393.320</ele>
        <time>2021-10-16T18:54:46Z</time>
      </trkpt>
      <trkpt lat="37.550644" lon="-4.159804">
        <ele>391.584</ele>
        <time>2021-10-16T18:54:48Z</time>
      </trkpt>
      <trkpt lat="37.550883" lon="-4.160034">
        <ele>390.819</ele>
        <time>2021-10-16T18:54:49Z</time>
      </trkpt>
      <trkpt lat="37.551127" lon="-4.160264">
        <ele>390.778</ele>
        <time>2021-10-16T18:54:50Z</time>
      </trkpt>
      <trkpt lat="37.551617" lon="-4.160715">
        <ele>389.110</ele>
        <time>2021-10-16T18:54:52Z</time>
      </trkpt>
      <trkpt lat="37.552103" lon="-4.161167">
        <ele>387.557</ele>
        <time>2021-10-16T18:54:54Z</time>
      </trkpt>
      <trkpt lat="37.552583" lon="-4.161609">
        <ele>386.752</ele>
        <time>2021-10-16T18:54:56Z</time>
      </trkpt>
      <trkpt lat="37.553031" lon="-4.162029">
        <ele>384.653</ele>
        <time>2021-10-16T18:54:58Z</time>
      </trkpt>
      <trkpt lat="37.553262" lon="-4.162246">
        <ele>383.908</ele>
        <time>2021-10-16T18:54:59Z</time>
      </trkpt>
      <trkpt lat="37.553733" lon="-4.162684">
        <ele>382.408</ele>
        <time>2021-10-16T18:55:01Z</time>
      </trkpt>
      <trkpt lat="37.553976" lon="-4.162904">
        <ele>382.093</ele>
        <time>2021-10-16T18:55:02Z</time>
      </trkpt>
      <trkpt lat="37.554434" lon="-4.163331">
        <ele>380.451</ele>
        <time>2021-10-16T18:55:04Z</time>
      </trkpt>
      <trkpt lat="37.554669" lon="-4.163552">
        <ele>379.550</ele>
        <time>2021-10-16T18:55:05Z</time>
      </trkpt>
      <trkpt lat="37.554903" lon="-4.163769">
        <ele>378.594</ele>
        <time>2021-10-16T18:55:06Z</time>
      </trkpt>
      <trkpt lat="37.555136" lon="-4.163985">
        <ele>377.559</ele>
        <time>2021-10-16T18:55:07Z</time>
      </trkpt>
      <trkpt lat="37.555370" lon="-4.164200">
        <ele>376.258</ele>
        <time>2021-10-16T18:55:08Z</time>
      </trkpt>
      <trkpt lat="37.555831" lon="-4.164633">
        <ele>374.050</ele>
        <time>2021-10-16T18:55:10Z</time>
      </trkpt>
      <trkpt lat="37.556293" lon="-4.165063">
        <ele>371.147</ele>
        <time>2021-10-16T18:55:12Z</time>
      </trkpt>
      <trkpt lat="37.556513" lon="-4.165263">
        <ele>368.976</ele>
        <time>2021-10-16T18:55:13Z</time>
      </trkpt>
      <trkpt lat="37.556726" lon="-4.165448">
        <ele>366.990</ele>
        <time>2021-10-16T18:55:14Z</time>
      </trkpt>
      <trkpt lat="37.557170" lon="-4.165772">
        <ele>363.719</ele>
        <time>2021-10-16T18:55:16Z</time>
      </trkpt>
      <trkpt lat="37.557412" lon="-4.165888">
        <ele>361.908</ele>
        <time>2021-10-16T18:55:17Z</time>
      </trkpt>
      <trkpt lat="37.557669" lon="-4.165967">
        <ele>361.075</ele>
        <time>2021-10-16T18:55:18Z</time>
      </trkpt>
      <trkpt lat="37.557936" lon="-4.165994">
        <ele>359.463</ele>
        <time>2021-10-16T18:55:19Z</time>
      </trkpt>
      <trkpt lat="37.558201" lon="-4.165966">
        <ele>358.242</ele>
        <time>2021-10-16T18:55:20Z</time>
      </trkpt>
      <trkpt lat="37.558721" lon="-4.165763">
        <ele>355.826</ele>
        <time>2021-10-16T18:55:22Z</time>
      </trkpt>
      <trkpt lat="37.558976" lon="-4.165608">
        <ele>355.331</ele>
        <time>2021-10-16T18:55:23Z</time>
      </trkpt>
      <trkpt lat="37.559482" lon="-4.165289">
        <ele>353.290</ele>
        <time>2021-10-16T18:55:25Z</time>
      </trkpt>
      <trkpt lat="37.559755" lon="-4.165150">
        <ele>352.252</ele>
        <time>2021-10-16T18:55:26Z</time>
      </trkpt>
      <trkpt lat="37.560293" lon="-4.164971">
        <ele>350.489</ele>
        <time>2021-10-16T18:55:28Z</time>
      </trkpt>
      <trkpt lat="37.560568" lon="-4.164925">
        <ele>349.274</ele>
        <time>2021-10-16T18:55:29Z</time>
      </trkpt>
      <trkpt lat="37.560841" lon="-4.164911">
        <ele>347.756</ele>
        <time>2021-10-16T18:55:30Z</time>
      </trkpt>
      <trkpt lat="37.561373" lon="-4.164957">
        <ele>345.621</ele>
        <time>2021-10-16T18:55:32Z</time>
      </trkpt>
      <trkpt lat="37.561861" lon="-4.165007">
        <ele>341.308</ele>
        <time>2021-10-16T18:55:34Z</time>
      </trkpt>
      <trkpt lat="37.562365" lon="-4.164942">
        <ele>337.215</ele>
        <time>2021-10-16T18:55:36Z</time>
      </trkpt>
      <trkpt lat="37.562874" lon="-4.164743">
        <ele>333.613</ele>
        <time>2021-10-16T18:55:38Z</time>
      </trkpt>
      <trkpt lat="37.563358" lon="-4.164588">
        <ele>331.032</ele>
        <time>2021-10-16T18:55:40Z</time>
      </trkpt>
      <trkpt lat="37.563861" lon="-4.164572">
        <ele>328.166</ele>
        <time>2021-10-16T18:55:42Z</time>
      </trkpt>
      <trkpt lat="37.564115" lon="-4.164651">
        <ele>327.241</ele>
        <time>2021-10-16T18:55:43Z</time>
      </trkpt>
      <trkpt lat="37.564378" lon="-4.164768">
        <ele>326.690</ele>
        <time>2021-10-16T18:55:44Z</time>
      </trkpt>
      <trkpt lat="37.564919" lon="-4.164955">
        <ele>324.162</ele>
        <time>2021-10-16T18:55:46Z</time>
      </trkpt>
      <trkpt lat="37.565198" lon="-4.165012">
        <ele>323.229</ele>
        <time>2021-10-16T18:55:47Z</time>
      </trkpt>
      <trkpt lat="37.565471" lon="-4.165055">
        <ele>322.055</ele>
        <time>2021-10-16T18:55:48Z</time>
      </trkpt>
      <trkpt lat="37.565980" lon="-4.165092">
        <ele>321.107</ele>
        <time>2021-10-16T18:55:50Z</time>
      </trkpt>
      <trkpt lat="37.566516" lon="-4.165018">
        <ele>320.717</ele>
        <time>2021-10-16T18:55:52Z</time>
      </trkpt>
      <trkpt lat="37.567071" lon="-4.164795">
        <ele>319.808</ele>
        <time>2021-10-16T18:55:54Z</time>
      </trkpt>
      <trkpt lat="37.567345" lon="-4.164664">
        <ele>320.023</ele>
        <time>2021-10-16T18:55:55Z</time>
      </trkpt>
      <trkpt lat="37.567629" lon="-4.164539">
        <ele>319.781</ele>
        <time>2021-10-16T18:55:56Z</time>
      </trkpt>
      <trkpt lat="37.568158" lon="-4.164301">
        <ele>318.810</ele>
        <time>2021-10-16T18:55:58Z</time>
      </trkpt>
      <trkpt lat="37.568414" lon="-4.164155">
        <ele>318.264</ele>
        <time>2021-10-16T18:55:59Z</time>
      </trkpt>
      <trkpt lat="37.568657" lon="-4.163981">
        <ele>317.739</ele>
        <time>2021-10-16T18:56:00Z</time>
      </trkpt>
      <trkpt lat="37.569101" lon="-4.163604">
        <ele>318.558</ele>
        <time>2021-10-16T18:56:02Z</time>
      </trkpt>
      <trkpt lat="37.569557" lon="-4.163306">
        <ele>318.730</ele>
        <time>2021-10-16T18:56:04Z</time>
      </trkpt>
      <trkpt lat="37.570094" lon="-4.163132">
        <ele>318.247</ele>
        <time>2021-10-16T18:56:06Z</time>
      </trkpt>
      <trkpt lat="37.570665" lon="-4.163094">
        <ele>318.172</ele>
        <time>2021-10-16T18:56:08Z</time>
      </trkpt>
      <trkpt lat="37.571191" lon="-4.162982">
        <ele>317.113</ele>
        <time>2021-10-16T18:56:10Z</time>
      </trkpt>
      <trkpt lat="37.571685" lon="-4.162715">
        <ele>317.314</ele>
        <time>2021-10-16T18:56:12Z</time>
      </trkpt>
      <trkpt lat="37.572163" lon="-4.162394">
        <ele>317.008</ele>
        <time>2021-10-16T18:56:14Z</time>
      </trkpt>
      <trkpt lat="37.572646" lon="-4.162164">
        <ele>317.595</ele>
        <time>2021-10-16T18:56:16Z</time>
      </trkpt>
      <trkpt lat="37.572904" lon="-4.162099">
        <ele>317.773</ele>
        <time>2021-10-16T18:56:17Z</time>
      </trkpt>
      <trkpt lat="37.573428" lon="-4.162104">
        <ele>317.412</ele>
        <time>2021-10-16T18:56:19Z</time>
      </trkpt>
      <trkpt lat="37.573695" lon="-4.162158">
        <ele>318.326</ele>
        <time>2021-10-16T18:56:20Z</time>
      </trkpt>
      <trkpt lat="37.574227" lon="-4.162229">
        <ele>318.831</ele>
        <time>2021-10-16T18:56:22Z</time>
      </trkpt>
      <trkpt lat="37.574744" lon="-4.162161">
        <ele>318.550</ele>
        <time>2021-10-16T18:56:24Z</time>
      </trkpt>
      <trkpt lat="37.575252" lon="-4.161946">
        <ele>319.382</ele>
        <time>2021-10-16T18:56:26Z</time>
      </trkpt>
      <trkpt lat="37.575750" lon="-4.161691">
        <ele>318.259</ele>
        <time>2021-10-16T18:56:28Z</time>
      </trkpt>
      <trkpt lat="37.576006" lon="-4.161563">
        <ele>318.767</ele>
        <time>2021-10-16T18:56:29Z</time>
      </trkpt>
      <trkpt lat="37.576491" lon="-4.161329">
        <ele>319.381</ele>
        <time>2021-10-16T18:56:31Z</time>
      </trkpt>
      <trkpt lat="37.576718" lon="-4.161220">
        <ele>319.419</ele>
        <time>2021-10-16T18:56:32Z</time>
      </trkpt>
      <trkpt lat="37.577107" lon="-4.161025">
        <ele>320.108</ele>
        <time>2021-10-16T18:56:34Z</time>
      </trkpt>
      <trkpt lat="37.577466" lon="-4.160848">
        <ele>320.014</ele>
        <time>2021-10-16T18:56:36Z</time>
      </trkpt>
      <trkpt lat="37.577629" lon="-4.160767">
        <ele>319.822</ele>
        <time>2021-10-16T18:56:37Z</time>
      </trkpt>
      <trkpt lat="37.577783" lon="-4.160690">
        <ele>319.451</ele>
        <time>2021-10-16T18:56:38Z</time>
      </trkpt>
      <trkpt lat="37.578064" lon="-4.160546">
        <ele>319.235</ele>
        <time>2021-10-16T18:56:40Z</time>
      </trkpt>
      <trkpt lat="37.578301" lon="-4.160416">
        <ele>320.130</ele>
        <time>2021-10-16T18:56:42Z</time>
      </trkpt>
      <trkpt lat="37.578411" lon="-4.160350">
        <ele>320.179</ele>
        <time>2021-10-16T18:56:43Z</time>
      </trkpt>
      <trkpt lat="37.578511" lon="-4.160290">
        <ele>320.181</ele>
        <time>2021-10-16T18:56:44Z</time>
      </trkpt>
      <trkpt lat="37.578676" lon="-4.160187">
        <ele>318.068</ele>
        <time>2021-10-16T18:56:46Z</time>
      </trkpt>
      <trkpt lat="37.578746" lon="-4.160137">
        <ele>317.671</ele>
        <time>2021-10-16T18:56:47Z</time>
      </trkpt>
      <trkpt lat="37.578804" lon="-4.160086">
        <ele>317.041</ele>
        <time>2021-10-16T18:56:48Z</time>
      </trkpt>
      <trkpt lat="37.578871" lon="-4.159975">
        <ele>316.015</ele>
        <time>2021-10-16T18:56:50Z</time>
      </trkpt>
      <trkpt lat="37.578868" lon="-4.159873">
        <ele>315.508</ele>
        <time>2021-10-16T18:56:52Z</time>
      </trkpt>
      <trkpt lat="37.578842" lon="-4.159806">
        <ele>315.595</ele>
        <time>2021-10-16T18:56:54Z</time>
      </trkpt>
      <trkpt lat="37.578779" lon="-4.159735">
        <ele>315.583</ele>
        <time>2021-10-16T18:56:56Z</time>
      </trkpt>
      <trkpt lat="37.578664" lon="-4.159636">
        <ele>315.992</ele>
        <time>2021-10-16T18:56:58Z</time>
      </trkpt>
      <trkpt lat="37.578515" lon="-4.159536">
        <ele>317.456</ele>
        <time>2021-10-16T18:57:00Z</time>
      </trkpt>
      <trkpt lat="37.578427" lon="-4.159477">
        <ele>317.671</ele>
        <time>2021-10-16T18:57:01Z</time>
      </trkpt>
      <trkpt lat="37.578332" lon="-4.159408">
        <ele>318.030</ele>
        <time>2021-10-16T18:57:02Z</time>
      </trkpt>
      <trkpt lat="37.578132" lon="-4.159263">
        <ele>318.522</ele>
        <time>2021-10-16T18:57:04Z</time>
      </trkpt>
      <trkpt lat="37.577879" lon="-4.159093">
        <ele>318.329</ele>
        <time>2021-10-16T18:57:06Z</time>
      </trkpt>
      <trkpt lat="37.577727" lon="-4.158990">
        <ele>318.153</ele>
        <time>2021-10-16T18:57:07Z</time>
      </trkpt>
      <trkpt lat="37.577559" lon="-4.158875">
        <ele>318.804</ele>
        <time>2021-10-16T18:57:08Z</time>
      </trkpt>
      <trkpt lat="37.577164" lon="-4.158594">
        <ele>318.314</ele>
        <time>2021-10-16T18:57:10Z</time>
      </trkpt>
      <trkpt lat="37.576944" lon="-4.158437">
        <ele>318.208</ele>
        <time>2021-10-16T18:57:11Z</time>
      </trkpt>
      <trkpt lat="37.576491" lon="-4.158070">
        <ele>320.623</ele>
        <time>2021-10-16T18:57:13Z</time>
      </trkpt>
      <trkpt lat="37.576279" lon="-4.157839">
        <ele>321.431</ele>
        <time>2021-10-16T18:57:14Z</time>
      </trkpt>
      <trkpt lat="37.575944" lon="-4.157271">
        <ele>324.030</ele>
        <time>2021-10-16T18:57:16Z</time>
      </trkpt>
      <trkpt lat="37.575842" lon="-4.156915">
        <ele>325.694</ele>
        <time>2021-10-16T18:57:17Z</time>
      </trkpt>
      <trkpt lat="37.575779" lon="-4.156517">
        <ele>327.459</ele>
        <time>2021-10-16T18:57:18Z</time>
      </trkpt>
      <trkpt lat="37.575721" lon="-4.155681">
        <ele>332.158</ele>
        <time>2021-10-16T18:57:20Z</time>
      </trkpt>
      <trkpt lat="37.575699" lon="-4.154886">
        <ele>335.910</ele>
        <time>2021-10-16T18:57:22Z</time>
      </trkpt>
      <trkpt lat="37.575790" lon="-4.154138">
        <ele>339.577</ele>
        <time>2021-10-16T18:57:24Z</time>
      </trkpt>
      <trkpt lat="37.576065" lon="-4.153451">
        <ele>343.651</ele>
        <time>2021-10-16T18:57:26Z</time>
      </trkpt>
      <trkpt lat="37.576488" lon="-4.152938">
        <ele>347.301</ele>
        <time>2021-10-16T18:57:28Z</time>
      </trkpt>
      <trkpt lat="37.576752" lon="-4.152735">
        <ele>349.611</ele>
        <time>2021-10-16T18:57:29Z</time>
      </trkpt>
      <trkpt lat="37.577346" lon="-4.152477">
        <ele>354.108</ele>
        <time>2021-10-16T18:57:31Z</time>
      </trkpt>
      <trkpt lat="37.577670" lon="-4.152392">
        <ele>355.663</ele>
        <time>2021-10-16T18:57:32Z</time>
      </trkpt>
      <trkpt lat="37.578236" lon="-4.152169">
        <ele>359.911</ele>
        <time>2021-10-16T18:57:34Z</time>
      </trkpt>
      <trkpt lat="37.578698" lon="-4.151786">
        <ele>363.030</ele>
        <time>2021-10-16T18:57:36Z</time>
      </trkpt>
      <trkpt lat="37.578880" lon="-4.151531">
        <ele>365.164</ele>
        <time>2021-10-16T18:57:37Z</time>
      </trkpt>
      <trkpt lat="37.579023" lon="-4.151228">
        <ele>366.759</ele>
        <time>2021-10-16T18:57:38Z</time>
      </trkpt>
      <trkpt lat="37.579252" lon="-4.150526">
        <ele>370.598</ele>
        <time>2021-10-16T18:57:40Z</time>
      </trkpt>
      <trkpt lat="37.579368" lon="-4.150186">
        <ele>371.640</ele>
        <time>2021-10-16T18:57:41Z</time>
      </trkpt>
      <trkpt lat="37.579604" lon="-4.149532">
        <ele>372.827</ele>
        <time>2021-10-16T18:57:43Z</time>
      </trkpt>
      <trkpt lat="37.579727" lon="-4.149201">
        <ele>373.245</ele>
        <time>2021-10-16T18:57:44Z</time>
      </trkpt>
      <trkpt lat="37.579970" lon="-4.148553">
        <ele>375.447</ele>
        <time>2021-10-16T18:57:46Z</time>
      </trkpt>
      <trkpt lat="37.580210" lon="-4.147915">
        <ele>377.011</ele>
        <time>2021-10-16T18:57:48Z</time>
      </trkpt>
      <trkpt lat="37.580329" lon="-4.147597">
        <ele>377.808</ele>
        <time>2021-10-16T18:57:49Z</time>
      </trkpt>
      <trkpt lat="37.580449" lon="-4.147277">
        <ele>378.082</ele>
        <time>2021-10-16T18:57:50Z</time>
      </trkpt>
      <trkpt lat="37.580691" lon="-4.146634">
        <ele>379.730</ele>
        <time>2021-10-16T18:57:52Z</time>
      </trkpt>
      <trkpt lat="37.580939" lon="-4.145986">
        <ele>380.679</ele>
        <time>2021-10-16T18:57:54Z</time>
      </trkpt>
      <trkpt lat="37.581186" lon="-4.145343">
        <ele>382.293</ele>
        <time>2021-10-16T18:57:56Z</time>
      </trkpt>
      <trkpt lat="37.581421" lon="-4.144732">
        <ele>383.438</ele>
        <time>2021-10-16T18:57:58Z</time>
      </trkpt>
      <trkpt lat="37.581539" lon="-4.144423">
        <ele>384.757</ele>
        <time>2021-10-16T18:57:59Z</time>
      </trkpt>
      <trkpt lat="37.581651" lon="-4.144127">
        <ele>386.249</ele>
        <time>2021-10-16T18:58:00Z</time>
      </trkpt>
      <trkpt lat="37.581761" lon="-4.143825">
        <ele>387.346</ele>
        <time>2021-10-16T18:58:01Z</time>
      </trkpt>
      <trkpt lat="37.581881" lon="-4.143495">
        <ele>388.867</ele>
        <time>2021-10-16T18:58:02Z</time>
      </trkpt>
      <trkpt lat="37.582158" lon="-4.142841">
        <ele>391.881</ele>
        <time>2021-10-16T18:58:04Z</time>
      </trkpt>
      <trkpt lat="37.582556" lon="-4.142226">
        <ele>395.219</ele>
        <time>2021-10-16T18:58:06Z</time>
      </trkpt>
      <trkpt lat="37.582816" lon="-4.141965">
        <ele>397.108</ele>
        <time>2021-10-16T18:58:07Z</time>
      </trkpt>
      <trkpt lat="37.583103" lon="-4.141726">
        <ele>398.994</ele>
        <time>2021-10-16T18:58:08Z</time>
      </trkpt>
      <trkpt lat="37.583672" lon="-4.141226">
        <ele>402.762</ele>
        <time>2021-10-16T18:58:10Z</time>
      </trkpt>
      <trkpt lat="37.584454" lon="-4.140244">
        <ele>407.151</ele>
        <time>2021-10-16T18:58:13Z</time>
      </trkpt>
      <trkpt lat="37.584684" lon="-4.139867">
        <ele>409.915</ele>
        <time>2021-10-16T18:58:14Z</time>
      </trkpt>
      <trkpt lat="37.585238" lon="-4.138648">
        <ele>412.730</ele>
        <time>2021-10-16T18:58:17Z</time>
      </trkpt>
      <trkpt lat="37.585381" lon="-4.138254">
        <ele>416.499</ele>
        <time>2021-10-16T18:58:18Z</time>
      </trkpt>
      <trkpt lat="37.585516" lon="-4.137894">
        <ele>418.451</ele>
        <time>2021-10-16T18:58:19Z</time>
      </trkpt>
      <trkpt lat="37.585645" lon="-4.137553">
        <ele>419.838</ele>
        <time>2021-10-16T18:58:20Z</time>
      </trkpt>
      <trkpt lat="37.585873" lon="-4.136928">
        <ele>420.562</ele>
        <time>2021-10-16T18:58:22Z</time>
      </trkpt>
      <trkpt lat="37.585980" lon="-4.136632">
        <ele>420.983</ele>
        <time>2021-10-16T18:58:23Z</time>
      </trkpt>
      <trkpt lat="37.586193" lon="-4.136060">
        <ele>421.711</ele>
        <time>2021-10-16T18:58:25Z</time>
      </trkpt>
      <trkpt lat="37.586301" lon="-4.135770">
        <ele>422.508</ele>
        <time>2021-10-16T18:58:26Z</time>
      </trkpt>
      <trkpt lat="37.586497" lon="-4.135214">
        <ele>423.054</ele>
        <time>2021-10-16T18:58:28Z</time>
      </trkpt>
      <trkpt lat="37.586689" lon="-4.134652">
        <ele>423.712</ele>
        <time>2021-10-16T18:58:30Z</time>
      </trkpt>
      <trkpt lat="37.586871" lon="-4.134103">
        <ele>424.881</ele>
        <time>2021-10-16T18:58:32Z</time>
      </trkpt>
      <trkpt lat="37.587036" lon="-4.133569">
        <ele>425.345</ele>
        <time>2021-10-16T18:58:34Z</time>
      </trkpt>
      <trkpt lat="37.587192" lon="-4.133018">
        <ele>425.470</ele>
        <time>2021-10-16T18:58:36Z</time>
      </trkpt>
      <trkpt lat="37.587293" lon="-4.132448">
        <ele>425.369</ele>
        <time>2021-10-16T18:58:38Z</time>
      </trkpt>
      <trkpt lat="37.587318" lon="-4.131871">
        <ele>425.921</ele>
        <time>2021-10-16T18:58:40Z</time>
      </trkpt>
      <trkpt lat="37.587306" lon="-4.131579">
        <ele>427.138</ele>
        <time>2021-10-16T18:58:41Z</time>
      </trkpt>
      <trkpt lat="37.587277" lon="-4.131289">
        <ele>427.683</ele>
        <time>2021-10-16T18:58:42Z</time>
      </trkpt>
      <trkpt lat="37.587156" lon="-4.130716">
        <ele>429.725</ele>
        <time>2021-10-16T18:58:44Z</time>
      </trkpt>
      <trkpt lat="37.586994" lon="-4.130147">
        <ele>431.317</ele>
        <time>2021-10-16T18:58:46Z</time>
      </trkpt>
      <trkpt lat="37.586912" lon="-4.129859">
        <ele>432.208</ele>
        <time>2021-10-16T18:58:47Z</time>
      </trkpt>
      <trkpt lat="37.586834" lon="-4.129569">
        <ele>433.236</ele>
        <time>2021-10-16T18:58:48Z</time>
      </trkpt>
      <trkpt lat="37.586686" lon="-4.128977">
        <ele>435.564</ele>
        <time>2021-10-16T18:58:50Z</time>
      </trkpt>
      <trkpt lat="37.586538" lon="-4.128390">
        <ele>436.073</ele>
        <time>2021-10-16T18:58:52Z</time>
      </trkpt>
      <trkpt lat="37.586458" lon="-4.128093">
        <ele>436.747</ele>
        <time>2021-10-16T18:58:53Z</time>
      </trkpt>
      <trkpt lat="37.586374" lon="-4.127795">
        <ele>437.952</ele>
        <time>2021-10-16T18:58:54Z</time>
      </trkpt>
      <trkpt lat="37.586206" lon="-4.127174">
        <ele>439.061</ele>
        <time>2021-10-16T18:58:56Z</time>
      </trkpt>
      <trkpt lat="37.586038" lon="-4.126547">
        <ele>440.143</ele>
        <time>2021-10-16T18:58:58Z</time>
      </trkpt>
      <trkpt lat="37.585946" lon="-4.126216">
        <ele>440.550</ele>
        <time>2021-10-16T18:58:59Z</time>
      </trkpt>
      <trkpt lat="37.585763" lon="-4.125537">
        <ele>442.158</ele>
        <time>2021-10-16T18:59:01Z</time>
      </trkpt>
      <trkpt lat="37.585666" lon="-4.125180">
        <ele>442.452</ele>
        <time>2021-10-16T18:59:02Z</time>
      </trkpt>
      <trkpt lat="37.585482" lon="-4.124500">
        <ele>442.917</ele>
        <time>2021-10-16T18:59:04Z</time>
      </trkpt>
      <trkpt lat="37.585387" lon="-4.124152">
        <ele>443.408</ele>
        <time>2021-10-16T18:59:05Z</time>
      </trkpt>
      <trkpt lat="37.585291" lon="-4.123813">
        <ele>444.513</ele>
        <time>2021-10-16T18:59:06Z</time>
      </trkpt>
      <trkpt lat="37.585195" lon="-4.123475">
        <ele>445.221</ele>
        <time>2021-10-16T18:59:07Z</time>
      </trkpt>
      <trkpt lat="37.585010" lon="-4.122800">
        <ele>446.410</ele>
        <time>2021-10-16T18:59:09Z</time>
      </trkpt>
      <trkpt lat="37.584821" lon="-4.122124">
        <ele>448.184</ele>
        <time>2021-10-16T18:59:11Z</time>
      </trkpt>
      <trkpt lat="37.584729" lon="-4.121779">
        <ele>450.099</ele>
        <time>2021-10-16T18:59:12Z</time>
      </trkpt>
      <trkpt lat="37.584537" lon="-4.121094">
        <ele>452.988</ele>
        <time>2021-10-16T18:59:14Z</time>
      </trkpt>
      <trkpt lat="37.584348" lon="-4.120411">
        <ele>455.620</ele>
        <time>2021-10-16T18:59:16Z</time>
      </trkpt>
      <trkpt lat="37.584163" lon="-4.119718">
        <ele>457.677</ele>
        <time>2021-10-16T18:59:18Z</time>
      </trkpt>
      <trkpt lat="37.584067" lon="-4.119373">
        <ele>458.618</ele>
        <time>2021-10-16T18:59:19Z</time>
      </trkpt>
      <trkpt lat="37.583974" lon="-4.119025">
        <ele>460.298</ele>
        <time>2021-10-16T18:59:20Z</time>
      </trkpt>
      <trkpt lat="37.583786" lon="-4.118326">
        <ele>463.217</ele>
        <time>2021-10-16T18:59:22Z</time>
      </trkpt>
      <trkpt lat="37.583690" lon="-4.117971">
        <ele>464.008</ele>
        <time>2021-10-16T18:59:23Z</time>
      </trkpt>
      <trkpt lat="37.583500" lon="-4.117266">
        <ele>466.599</ele>
        <time>2021-10-16T18:59:25Z</time>
      </trkpt>
      <trkpt lat="37.583402" lon="-4.116900">
        <ele>468.027</ele>
        <time>2021-10-16T18:59:26Z</time>
      </trkpt>
      <trkpt lat="37.583220" lon="-4.116196">
        <ele>471.286</ele>
        <time>2021-10-16T18:59:28Z</time>
      </trkpt>
      <trkpt lat="37.583046" lon="-4.115469">
        <ele>474.440</ele>
        <time>2021-10-16T18:59:30Z</time>
      </trkpt>
      <trkpt lat="37.582874" lon="-4.114744">
        <ele>476.395</ele>
        <time>2021-10-16T18:59:32Z</time>
      </trkpt>
      <trkpt lat="37.582715" lon="-4.114054">
        <ele>479.634</ele>
        <time>2021-10-16T18:59:34Z</time>
      </trkpt>
      <trkpt lat="37.582637" lon="-4.113692">
        <ele>480.336</ele>
        <time>2021-10-16T18:59:35Z</time>
      </trkpt>
      <trkpt lat="37.582485" lon="-4.112966">
        <ele>483.373</ele>
        <time>2021-10-16T18:59:37Z</time>
      </trkpt>
      <trkpt lat="37.582411" lon="-4.112600">
        <ele>484.439</ele>
        <time>2021-10-16T18:59:38Z</time>
      </trkpt>
      <trkpt lat="37.582338" lon="-4.112235">
        <ele>485.501</ele>
        <time>2021-10-16T18:59:39Z</time>
      </trkpt>
      <trkpt lat="37.582198" lon="-4.111508">
        <ele>488.021</ele>
        <time>2021-10-16T18:59:41Z</time>
      </trkpt>
      <trkpt lat="37.582064" lon="-4.110777">
        <ele>489.608</ele>
        <time>2021-10-16T18:59:43Z</time>
      </trkpt>
      <trkpt lat="37.581943" lon="-4.110067">
        <ele>491.721</ele>
        <time>2021-10-16T18:59:45Z</time>
      </trkpt>
      <trkpt lat="37.581829" lon="-4.109372">
        <ele>493.799</ele>
        <time>2021-10-16T18:59:47Z</time>
      </trkpt>
      <trkpt lat="37.581772" lon="-4.109025">
        <ele>494.518</ele>
        <time>2021-10-16T18:59:48Z</time>
      </trkpt>
      <trkpt lat="37.581715" lon="-4.108680">
        <ele>495.792</ele>
        <time>2021-10-16T18:59:49Z</time>
      </trkpt>
      <trkpt lat="37.581657" lon="-4.108333">
        <ele>496.817</ele>
        <time>2021-10-16T18:59:50Z</time>
      </trkpt>
      <trkpt lat="37.581536" lon="-4.107633">
        <ele>498.556</ele>
        <time>2021-10-16T18:59:52Z</time>
      </trkpt>
      <trkpt lat="37.581412" lon="-4.106920">
        <ele>499.068</ele>
        <time>2021-10-16T18:59:54Z</time>
      </trkpt>
      <trkpt lat="37.581349" lon="-4.106563">
        <ele>500.225</ele>
        <time>2021-10-16T18:59:55Z</time>
      </trkpt>
      <trkpt lat="37.581282" lon="-4.106194">
        <ele>501.075</ele>
        <time>2021-10-16T18:59:56Z</time>
      </trkpt>
      <trkpt lat="37.581147" lon="-4.105487">
        <ele>502.728</ele>
        <time>2021-10-16T18:59:58Z</time>
      </trkpt>
      <trkpt lat="37.581002" lon="-4.104764">
        <ele>503.920</ele>
        <time>2021-10-16T19:00:00Z</time>
      </trkpt>
      <trkpt lat="37.580927" lon="-4.104404">
        <ele>504.508</ele>
        <time>2021-10-16T19:00:01Z</time>
      </trkpt>
      <trkpt lat="37.580849" lon="-4.104033">
        <ele>505.915</ele>
        <time>2021-10-16T19:00:02Z</time>
      </trkpt>
      <trkpt lat="37.580697" lon="-4.103328">
        <ele>508.193</ele>
        <time>2021-10-16T19:00:04Z</time>
      </trkpt>
      <trkpt lat="37.580621" lon="-4.102964">
        <ele>508.762</ele>
        <time>2021-10-16T19:00:05Z</time>
      </trkpt>
      <trkpt lat="37.580458" lon="-4.102248">
        <ele>510.666</ele>
        <time>2021-10-16T19:00:07Z</time>
      </trkpt>
      <trkpt lat="37.580373" lon="-4.101892">
        <ele>511.051</ele>
        <time>2021-10-16T19:00:08Z</time>
      </trkpt>
      <trkpt lat="37.580200" lon="-4.101191">
        <ele>513.230</ele>
        <time>2021-10-16T19:00:10Z</time>
      </trkpt>
      <trkpt lat="37.580026" lon="-4.100498">
        <ele>515.762</ele>
        <time>2021-10-16T19:00:12Z</time>
      </trkpt>
      <trkpt lat="37.579940" lon="-4.100154">
        <ele>516.849</ele>
        <time>2021-10-16T19:00:13Z</time>
      </trkpt>
      <trkpt lat="37.579854" lon="-4.099809">
        <ele>517.791</ele>
        <time>2021-10-16T19:00:14Z</time>
      </trkpt>
      <trkpt lat="37.579684" lon="-4.099122">
        <ele>520.481</ele>
        <time>2021-10-16T19:00:16Z</time>
      </trkpt>
      <trkpt lat="37.579604" lon="-4.098778">
        <ele>521.319</ele>
        <time>2021-10-16T19:00:17Z</time>
      </trkpt>
      <trkpt lat="37.579523" lon="-4.098437">
        <ele>522.308</ele>
        <time>2021-10-16T19:00:18Z</time>
      </trkpt>
      <trkpt lat="37.579358" lon="-4.097759">
        <ele>524.467</ele>
        <time>2021-10-16T19:00:20Z</time>
      </trkpt>
      <trkpt lat="37.579198" lon="-4.097090">
        <ele>525.645</ele>
        <time>2021-10-16T19:00:22Z</time>
      </trkpt>
      <trkpt lat="37.579117" lon="-4.096752">
        <ele>526.794</ele>
        <time>2021-10-16T19:00:23Z</time>
      </trkpt>
      <trkpt lat="37.579037" lon="-4.096414">
        <ele>527.348</ele>
        <time>2021-10-16T19:00:24Z</time>
      </trkpt>
      <trkpt lat="37.578882" lon="-4.095719">
        <ele>528.733</ele>
        <time>2021-10-16T19:00:26Z</time>
      </trkpt>
      <trkpt lat="37.578741" lon="-4.095041">
        <ele>529.522</ele>
        <time>2021-10-16T19:00:28Z</time>
      </trkpt>
      <trkpt lat="37.578669" lon="-4.094691">
        <ele>530.264</ele>
        <time>2021-10-16T19:00:29Z</time>
      </trkpt>
      <trkpt lat="37.578528" lon="-4.093994">
        <ele>531.321</ele>
        <time>2021-10-16T19:00:31Z</time>
      </trkpt>
      <trkpt lat="37.578460" lon="-4.093631">
        <ele>532.773</ele>
        <time>2021-10-16T19:00:32Z</time>
      </trkpt>
      <trkpt lat="37.578338" lon="-4.092940">
        <ele>535.085</ele>
        <time>2021-10-16T19:00:34Z</time>
      </trkpt>
      <trkpt lat="37.578218" lon="-4.092231">
        <ele>536.713</ele>
        <time>2021-10-16T19:00:36Z</time>
      </trkpt>
      <trkpt lat="37.578101" lon="-4.091523">
        <ele>538.808</ele>
        <time>2021-10-16T19:00:38Z</time>
      </trkpt>
      <trkpt lat="37.577977" lon="-4.090825">
        <ele>540.645</ele>
        <time>2021-10-16T19:00:40Z</time>
      </trkpt>
      <trkpt lat="37.577857" lon="-4.090122">
        <ele>543.253</ele>
        <time>2021-10-16T19:00:42Z</time>
      </trkpt>
      <trkpt lat="37.577795" lon="-4.089775">
        <ele>543.952</ele>
        <time>2021-10-16T19:00:43Z</time>
      </trkpt>
      <trkpt lat="37.577729" lon="-4.089427">
        <ele>545.036</ele>
        <time>2021-10-16T19:00:44Z</time>
      </trkpt>
      <trkpt lat="37.577597" lon="-4.088737">
        <ele>547.181</ele>
        <time>2021-10-16T19:00:46Z</time>
      </trkpt>
      <trkpt lat="37.577464" lon="-4.088044">
        <ele>548.020</ele>
        <time>2021-10-16T19:00:48Z</time>
      </trkpt>
      <trkpt lat="37.577397" lon="-4.087698">
        <ele>548.182</ele>
        <time>2021-10-16T19:00:49Z</time>
      </trkpt>
      <trkpt lat="37.577325" lon="-4.087350">
        <ele>548.599</ele>
        <time>2021-10-16T19:00:50Z</time>
      </trkpt>
      <trkpt lat="37.577185" lon="-4.086661">
        <ele>550.031</ele>
        <time>2021-10-16T19:00:52Z</time>
      </trkpt>
      <trkpt lat="37.577043" lon="-4.085965">
        <ele>550.961</ele>
        <time>2021-10-16T19:00:54Z</time>
      </trkpt>
      <trkpt lat="37.576976" lon="-4.085614">
        <ele>551.107</ele>
        <time>2021-10-16T19:00:55Z</time>
      </trkpt>
      <trkpt lat="37.576905" lon="-4.085252">
        <ele>552.408</ele>
        <time>2021-10-16T19:00:56Z</time>
      </trkpt>
      <trkpt lat="37.576763" lon="-4.084566">
        <ele>553.461</ele>
        <time>2021-10-16T19:00:58Z</time>
      </trkpt>
      <trkpt lat="37.576621" lon="-4.083863">
        <ele>554.489</ele>
        <time>2021-10-16T19:01:00Z</time>
      </trkpt>
      <trkpt lat="37.576549" lon="-4.083509">
        <ele>555.798</ele>
        <time>2021-10-16T19:01:01Z</time>
      </trkpt>
      <trkpt lat="37.576475" lon="-4.083144">
        <ele>556.532</ele>
        <time>2021-10-16T19:01:02Z</time>
      </trkpt>
      <trkpt lat="37.576332" lon="-4.082443">
        <ele>557.647</ele>
        <time>2021-10-16T19:01:04Z</time>
      </trkpt>
      <trkpt lat="37.576258" lon="-4.082081">
        <ele>558.826</ele>
        <time>2021-10-16T19:01:05Z</time>
      </trkpt>
      <trkpt lat="37.576120" lon="-4.081362">
        <ele>559.358</ele>
        <time>2021-10-16T19:01:07Z</time>
      </trkpt>
      <trkpt lat="37.576050" lon="-4.080995">
        <ele>560.465</ele>
        <time>2021-10-16T19:01:08Z</time>
      </trkpt>
      <trkpt lat="37.575909" lon="-4.080268">
        <ele>561.487</ele>
        <time>2021-10-16T19:01:10Z</time>
      </trkpt>
      <trkpt lat="37.575758" lon="-4.079537">
        <ele>562.842</ele>
        <time>2021-10-16T19:01:12Z</time>
      </trkpt>
      <trkpt lat="37.575606" lon="-4.078805">
        <ele>563.826</ele>
        <time>2021-10-16T19:01:14Z</time>
      </trkpt>
      <trkpt lat="37.575460" lon="-4.078088">
        <ele>565.708</ele>
        <time>2021-10-16T19:01:16Z</time>
      </trkpt>
      <trkpt lat="37.575388" lon="-4.077729">
        <ele>566.266</ele>
        <time>2021-10-16T19:01:17Z</time>
      </trkpt>
      <trkpt lat="37.575316" lon="-4.077370">
        <ele>566.724</ele>
        <time>2021-10-16T19:01:18Z</time>
      </trkpt>
      <trkpt lat="37.575244" lon="-4.077011">
        <ele>567.473</ele>
        <time>2021-10-16T19:01:19Z</time>
      </trkpt>
      <trkpt lat="37.575171" lon="-4.076650">
        <ele>568.137</ele>
        <time>2021-10-16T19:01:20Z</time>
      </trkpt>
      <trkpt lat="37.575025" lon="-4.075937">
        <ele>569.692</ele>
        <time>2021-10-16T19:01:22Z</time>
      </trkpt>
      <trkpt lat="37.574952" lon="-4.075580">
        <ele>570.261</ele>
        <time>2021-10-16T19:01:23Z</time>
      </trkpt>
      <trkpt lat="37.574809" lon="-4.074873">
        <ele>570.843</ele>
        <time>2021-10-16T19:01:25Z</time>
      </trkpt>
      <trkpt lat="37.574736" lon="-4.074511">
        <ele>571.340</ele>
        <time>2021-10-16T19:01:26Z</time>
      </trkpt>
      <trkpt lat="37.574600" lon="-4.073827">
        <ele>572.474</ele>
        <time>2021-10-16T19:01:28Z</time>
      </trkpt>
      <trkpt lat="37.574474" lon="-4.073120">
        <ele>573.856</ele>
        <time>2021-10-16T19:01:30Z</time>
      </trkpt>
      <trkpt lat="37.574375" lon="-4.072392">
        <ele>575.521</ele>
        <time>2021-10-16T19:01:32Z</time>
      </trkpt>
      <trkpt lat="37.574332" lon="-4.071671">
        <ele>577.508</ele>
        <time>2021-10-16T19:01:34Z</time>
      </trkpt>
      <trkpt lat="37.574330" lon="-4.071299">
        <ele>578.585</ele>
        <time>2021-10-16T19:01:35Z</time>
      </trkpt>
      <trkpt lat="37.574335" lon="-4.070928">
        <ele>579.323</ele>
        <time>2021-10-16T19:01:36Z</time>
      </trkpt>
      <trkpt lat="37.574358" lon="-4.070193">
        <ele>580.652</ele>
        <time>2021-10-16T19:01:38Z</time>
      </trkpt>
      <trkpt lat="37.574360" lon="-4.069470">
        <ele>581.856</ele>
        <time>2021-10-16T19:01:40Z</time>
      </trkpt>
      <trkpt lat="37.574295" lon="-4.068752">
        <ele>583.111</ele>
        <time>2021-10-16T19:01:42Z</time>
      </trkpt>
      <trkpt lat="37.574159" lon="-4.068052">
        <ele>584.230</ele>
        <time>2021-10-16T19:01:44Z</time>
      </trkpt>
      <trkpt lat="37.573946" lon="-4.067383">
        <ele>585.632</ele>
        <time>2021-10-16T19:01:46Z</time>
      </trkpt>
      <trkpt lat="37.573814" lon="-4.067064">
        <ele>586.689</ele>
        <time>2021-10-16T19:01:47Z</time>
      </trkpt>
      <trkpt lat="37.573513" lon="-4.066453">
        <ele>587.639</ele>
        <time>2021-10-16T19:01:49Z</time>
      </trkpt>
      <trkpt lat="37.573346" lon="-4.066163">
        <ele>588.401</ele>
        <time>2021-10-16T19:01:50Z</time>
      </trkpt>
      <trkpt lat="37.572991" lon="-4.065602">
        <ele>589.521</ele>
        <time>2021-10-16T19:01:52Z</time>
      </trkpt>
      <trkpt lat="37.572634" lon="-4.065042">
        <ele>589.308</ele>
        <time>2021-10-16T19:01:54Z</time>
      </trkpt>
      <trkpt lat="37.572268" lon="-4.064489">
        <ele>589.441</ele>
        <time>2021-10-16T19:01:56Z</time>
      </trkpt>
      <trkpt lat="37.571908" lon="-4.063976">
        <ele>587.499</ele>
        <time>2021-10-16T19:01:58Z</time>
      </trkpt>
      <trkpt lat="37.571721" lon="-4.063712">
        <ele>586.928</ele>
        <time>2021-10-16T19:01:59Z</time>
      </trkpt>
      <trkpt lat="37.571530" lon="-4.063450">
        <ele>586.252</ele>
        <time>2021-10-16T19:02:00Z</time>
      </trkpt>
      <trkpt lat="37.571337" lon="-4.063189">
        <ele>584.977</ele>
        <time>2021-10-16T19:02:01Z</time>
      </trkpt>
      <trkpt lat="37.571135" lon="-4.062924">
        <ele>584.236</ele>
        <time>2021-10-16T19:02:02Z</time>
      </trkpt>
      <trkpt lat="37.570741" lon="-4.062427">
        <ele>583.548</ele>
        <time>2021-10-16T19:02:04Z</time>
      </trkpt>
      <trkpt lat="37.570531" lon="-4.062183">
        <ele>583.265</ele>
        <time>2021-10-16T19:02:05Z</time>
      </trkpt>
      <trkpt lat="37.570109" lon="-4.061720">
        <ele>585.289</ele>
        <time>2021-10-16T19:02:07Z</time>
      </trkpt>
      <trkpt lat="37.569892" lon="-4.061494">
        <ele>585.806</ele>
        <time>2021-10-16T19:02:08Z</time>
      </trkpt>
      <trkpt lat="37.569456" lon="-4.061064">
        <ele>588.526</ele>
        <time>2021-10-16T19:02:10Z</time>
      </trkpt>
      <trkpt lat="37.569009" lon="-4.060649">
        <ele>591.708</ele>
        <time>2021-10-16T19:02:12Z</time>
      </trkpt>
      <trkpt lat="37.568544" lon="-4.060249">
        <ele>594.156</ele>
        <time>2021-10-16T19:02:14Z</time>
      </trkpt>
      <trkpt lat="37.568069" lon="-4.059872">
        <ele>597.254</ele>
        <time>2021-10-16T19:02:16Z</time>
      </trkpt>
      <trkpt lat="37.567825" lon="-4.059689">
        <ele>598.343</ele>
        <time>2021-10-16T19:02:17Z</time>
      </trkpt>
      <trkpt lat="37.567328" lon="-4.059340">
        <ele>599.817</ele>
        <time>2021-10-16T19:02:19Z</time>
      </trkpt>
      <trkpt lat="37.567069" lon="-4.059168">
        <ele>600.432</ele>
        <time>2021-10-16T19:02:20Z</time>
      </trkpt>
      <trkpt lat="37.566549" lon="-4.058842">
        <ele>600.451</ele>
        <time>2021-10-16T19:02:22Z</time>
      </trkpt>
      <trkpt lat="37.566281" lon="-4.058684">
        <ele>600.633</ele>
        <time>2021-10-16T19:02:23Z</time>
      </trkpt>
      <trkpt lat="37.566014" lon="-4.058530">
        <ele>599.570</ele>
        <time>2021-10-16T19:02:24Z</time>
      </trkpt>
      <trkpt lat="37.565477" lon="-4.058217">
        <ele>597.998</ele>
        <time>2021-10-16T19:02:26Z</time>
      </trkpt>
      <trkpt lat="37.564954" lon="-4.057932">
        <ele>597.415</ele>
        <time>2021-10-16T19:02:28Z</time>
      </trkpt>
      <trkpt lat="37.564395" lon="-4.057710">
        <ele>595.226</ele>
        <time>2021-10-16T19:02:30Z</time>
      </trkpt>
      <trkpt lat="37.564103" lon="-4.057633">
        <ele>595.308</ele>
        <time>2021-10-16T19:02:31Z</time>
      </trkpt>
      <trkpt lat="37.563794" lon="-4.057572">
        <ele>595.417</ele>
        <time>2021-10-16T19:02:32Z</time>
      </trkpt>
      <trkpt lat="37.563187" lon="-4.057527">
        <ele>594.715</ele>
        <time>2021-10-16T19:02:34Z</time>
      </trkpt>
      <trkpt lat="37.562875" lon="-4.057534">
        <ele>595.144</ele>
        <time>2021-10-16T19:02:35Z</time>
      </trkpt>
      <trkpt lat="37.562568" lon="-4.057545">
        <ele>595.998</ele>
        <time>2021-10-16T19:02:36Z</time>
      </trkpt>
      <trkpt lat="37.561969" lon="-4.057541">
        <ele>597.543</ele>
        <time>2021-10-16T19:02:38Z</time>
      </trkpt>
      <trkpt lat="37.561389" lon="-4.057466">
        <ele>598.042</ele>
        <time>2021-10-16T19:02:40Z</time>
      </trkpt>
      <trkpt lat="37.561100" lon="-4.057390">
        <ele>599.074</ele>
        <time>2021-10-16T19:02:41Z</time>
      </trkpt>
      <trkpt lat="37.560554" lon="-4.057161">
        <ele>601.091</ele>
        <time>2021-10-16T19:02:43Z</time>
      </trkpt>
      <trkpt lat="37.560295" lon="-4.057002">
        <ele>601.018</ele>
        <time>2021-10-16T19:02:44Z</time>
      </trkpt>
      <trkpt lat="37.560051" lon="-4.056813">
        <ele>601.598</ele>
        <time>2021-10-16T19:02:45Z</time>
      </trkpt>
      <trkpt lat="37.559598" lon="-4.056356">
        <ele>600.217</ele>
        <time>2021-10-16T19:02:47Z</time>
      </trkpt>
      <trkpt lat="37.559203" lon="-4.055810">
        <ele>599.008</ele>
        <time>2021-10-16T19:02:49Z</time>
      </trkpt>
      <trkpt lat="37.559029" lon="-4.055510">
        <ele>598.369</ele>
        <time>2021-10-16T19:02:50Z</time>
      </trkpt>
      <trkpt lat="37.558708" lon="-4.054885">
        <ele>596.817</ele>
        <time>2021-10-16T19:02:52Z</time>
      </trkpt>
      <trkpt lat="37.558551" lon="-4.054565">
        <ele>596.396</ele>
        <time>2021-10-16T19:02:53Z</time>
      </trkpt>
      <trkpt lat="37.558393" lon="-4.054244">
        <ele>595.130</ele>
        <time>2021-10-16T19:02:54Z</time>
      </trkpt>
      <trkpt lat="37.558075" lon="-4.053587">
        <ele>594.185</ele>
        <time>2021-10-16T19:02:56Z</time>
      </trkpt>
      <trkpt lat="37.557773" lon="-4.052960">
        <ele>593.934</ele>
        <time>2021-10-16T19:02:58Z</time>
      </trkpt>
      <trkpt lat="37.557618" lon="-4.052643">
        <ele>594.346</ele>
        <time>2021-10-16T19:02:59Z</time>
      </trkpt>
      <trkpt lat="37.557312" lon="-4.052026">
        <ele>596.143</ele>
        <time>2021-10-16T19:03:01Z</time>
      </trkpt>
      <trkpt lat="37.557155" lon="-4.051708">
        <ele>596.927</ele>
        <time>2021-10-16T19:03:02Z</time>
      </trkpt>
      <trkpt lat="37.556854" lon="-4.051118">
        <ele>597.368</ele>
        <time>2021-10-16T19:03:04Z</time>
      </trkpt>
      <trkpt lat="37.556691" lon="-4.050824">
        <ele>597.514</ele>
        <time>2021-10-16T19:03:05Z</time>
      </trkpt>
      <trkpt lat="37.556524" lon="-4.050532">
        <ele>596.708</ele>
        <time>2021-10-16T19:03:06Z</time>
      </trkpt>
      <trkpt lat="37.556180" lon="-4.049964">
        <ele>595.540</ele>
        <time>2021-10-16T19:03:08Z</time>
      </trkpt>
      <trkpt lat="37.555817" lon="-4.049414">
        <ele>593.458</ele>
        <time>2021-10-16T19:03:10Z</time>
      </trkpt>
      <trkpt lat="37.555629" lon="-4.049152">
        <ele>592.137</ele>
        <time>2021-10-16T19:03:11Z</time>
      </trkpt>
      <trkpt lat="37.555444" lon="-4.048896">
        <ele>591.811</ele>
        <time>2021-10-16T19:03:12Z</time>
      </trkpt>
      <trkpt lat="37.555255" lon="-4.048644">
        <ele>590.796</ele>
        <time>2021-10-16T19:03:13Z</time>
      </trkpt>
      <trkpt lat="37.555065" lon="-4.048394">
        <ele>589.555</ele>
        <time>2021-10-16T19:03:14Z</time>
      </trkpt>
      <trkpt lat="37.554682" lon="-4.047900">
        <ele>587.117</ele>
        <time>2021-10-16T19:03:16Z</time>
      </trkpt>
      <trkpt lat="37.554478" lon="-4.047665">
        <ele>585.954</ele>
        <time>2021-10-16T19:03:17Z</time>
      </trkpt>
      <trkpt lat="37.554264" lon="-4.047440">
        <ele>584.475</ele>
        <time>2021-10-16T19:03:18Z</time>
      </trkpt>
      <trkpt lat="37.554039" lon="-4.047235">
        <ele>583.028</ele>
        <time>2021-10-16T19:03:19Z</time>
      </trkpt>
      <trkpt lat="37.553804" lon="-4.047044">
        <ele>581.820</ele>
        <time>2021-10-16T19:03:20Z</time>
      </trkpt>
      <trkpt lat="37.553315" lon="-4.046712">
        <ele>579.408</ele>
        <time>2021-10-16T19:03:22Z</time>
      </trkpt>
      <trkpt lat="37.553059" lon="-4.046568">
        <ele>578.355</ele>
        <time>2021-10-16T19:03:23Z</time>
      </trkpt>
      <trkpt lat="37.552533" lon="-4.046325">
        <ele>574.953</ele>
        <time>2021-10-16T19:03:25Z</time>
      </trkpt>
      <trkpt lat="37.552252" lon="-4.046223">
        <ele>573.272</ele>
        <time>2021-10-16T19:03:26Z</time>
      </trkpt>
      <trkpt lat="37.551710" lon="-4.046054">
        <ele>569.276</ele>
        <time>2021-10-16T19:03:28Z</time>
      </trkpt>
      <trkpt lat="37.551157" lon="-4.045880">
        <ele>566.271</ele>
        <time>2021-10-16T19:03:30Z</time>
      </trkpt>
      <trkpt lat="37.550881" lon="-4.045781">
        <ele>564.370</ele>
        <time>2021-10-16T19:03:31Z</time>
      </trkpt>
      <trkpt lat="37.550603" lon="-4.045664">
        <ele>562.132</ele>
        <time>2021-10-16T19:03:32Z</time>
      </trkpt>
      <trkpt lat="37.550109" lon="-4.045370">
        <ele>559.589</ele>
        <time>2021-10-16T19:03:34Z</time>
      </trkpt>
      <trkpt lat="37.549878" lon="-4.045169">
        <ele>557.827</ele>
        <time>2021-10-16T19:03:35Z</time>
      </trkpt>
      <trkpt lat="37.549472" lon="-4.044680">
        <ele>552.368</ele>
        <time>2021-10-16T19:03:37Z</time>
      </trkpt>
      <trkpt lat="37.549298" lon="-4.044399">
        <ele>549.614</ele>
        <time>2021-10-16T19:03:38Z</time>
      </trkpt>
      <trkpt lat="37.549020" lon="-4.043778">
        <ele>545.108</ele>
        <time>2021-10-16T19:03:40Z</time>
      </trkpt>
      <trkpt lat="37.548900" lon="-4.043455">
        <ele>543.220</ele>
        <time>2021-10-16T19:03:41Z</time>
      </trkpt>
      <trkpt lat="37.548782" lon="-4.043139">
        <ele>540.588</ele>
        <time>2021-10-16T19:03:42Z</time>
      </trkpt>
      <trkpt lat="37.548544" lon="-4.042523">
        <ele>534.997</ele>
        <time>2021-10-16T19:03:44Z</time>
      </trkpt>
      <trkpt lat="37.548307" lon="-4.041927">
        <ele>529.651</ele>
        <time>2021-10-16T19:03:46Z</time>
      </trkpt>
      <trkpt lat="37.548068" lon="-4.041347">
        <ele>525.416</ele>
        <time>2021-10-16T19:03:48Z</time>
      </trkpt>
      <trkpt lat="37.547835" lon="-4.040787">
        <ele>521.195</ele>
        <time>2021-10-16T19:03:50Z</time>
      </trkpt>
      <trkpt lat="37.547602" lon="-4.040245">
        <ele>517.927</ele>
        <time>2021-10-16T19:03:52Z</time>
      </trkpt>
      <trkpt lat="37.547485" lon="-4.039973">
        <ele>516.414</ele>
        <time>2021-10-16T19:03:53Z</time>
      </trkpt>
      <trkpt lat="37.547368" lon="-4.039701">
        <ele>515.362</ele>
        <time>2021-10-16T19:03:54Z</time>
      </trkpt>
      <trkpt lat="37.547252" lon="-4.039431">
        <ele>513.283</ele>
        <time>2021-10-16T19:03:55Z</time>
      </trkpt>
      <trkpt lat="37.547129" lon="-4.039150">
        <ele>511.211</ele>
        <time>2021-10-16T19:03:56Z</time>
      </trkpt>
      <trkpt lat="37.546872" lon="-4.038601">
        <ele>508.508</ele>
        <time>2021-10-16T19:03:58Z</time>
      </trkpt>
      <trkpt lat="37.546727" lon="-4.038309">
        <ele>506.724</ele>
        <time>2021-10-16T19:03:59Z</time>
      </trkpt>
      <trkpt lat="37.546575" lon="-4.038010">
        <ele>505.092</ele>
        <time>2021-10-16T19:04:00Z</time>
      </trkpt>
      <trkpt lat="37.546252" lon="-4.037371">
        <ele>501.941</ele>
        <time>2021-10-16T19:04:02Z</time>
      </trkpt>
      <trkpt lat="37.545941" lon="-4.036775">
        <ele>499.475</ele>
        <time>2021-10-16T19:04:04Z</time>
      </trkpt>
      <trkpt lat="37.545620" lon="-4.036186">
        <ele>499.080</ele>
        <time>2021-10-16T19:04:06Z</time>
      </trkpt>
      <trkpt lat="37.545450" lon="-4.035872">
        <ele>499.469</ele>
        <time>2021-10-16T19:04:07Z</time>
      </trkpt>
      <trkpt lat="37.545279" lon="-4.035536">
        <ele>500.441</ele>
        <time>2021-10-16T19:04:08Z</time>
      </trkpt>
      <trkpt lat="37.545002" lon="-4.034786">
        <ele>499.028</ele>
        <time>2021-10-16T19:04:10Z</time>
      </trkpt>
      <trkpt lat="37.544849" lon="-4.033952">
        <ele>498.923</ele>
        <time>2021-10-16T19:04:12Z</time>
      </trkpt>
      <trkpt lat="37.544803" lon="-4.033525">
        <ele>497.783</ele>
        <time>2021-10-16T19:04:13Z</time>
      </trkpt>
      <trkpt lat="37.544761" lon="-4.033111">
        <ele>497.711</ele>
        <time>2021-10-16T19:04:14Z</time>
      </trkpt>
      <trkpt lat="37.544675" lon="-4.032341">
        <ele>497.908</ele>
        <time>2021-10-16T19:04:16Z</time>
      </trkpt>
      <trkpt lat="37.544631" lon="-4.031971">
        <ele>498.990</ele>
        <time>2021-10-16T19:04:17Z</time>
      </trkpt>
      <trkpt lat="37.544546" lon="-4.031253">
        <ele>501.228</ele>
        <time>2021-10-16T19:04:19Z</time>
      </trkpt>
      <trkpt lat="37.544503" lon="-4.030899">
        <ele>502.287</ele>
        <time>2021-10-16T19:04:20Z</time>
      </trkpt>
      <trkpt lat="37.544420" lon="-4.030207">
        <ele>505.731</ele>
        <time>2021-10-16T19:04:22Z</time>
      </trkpt>
      <trkpt lat="37.544339" lon="-4.029522">
        <ele>507.776</ele>
        <time>2021-10-16T19:04:24Z</time>
      </trkpt>
      <trkpt lat="37.544304" lon="-4.029180">
        <ele>508.165</ele>
        <time>2021-10-16T19:04:25Z</time>
      </trkpt>
      <trkpt lat="37.544268" lon="-4.028828">
        <ele>508.547</ele>
        <time>2021-10-16T19:04:26Z</time>
      </trkpt>
      <trkpt lat="37.544207" lon="-4.028162">
        <ele>508.814</ele>
        <time>2021-10-16T19:04:28Z</time>
      </trkpt>
      <trkpt lat="37.544145" lon="-4.027497">
        <ele>509.267</ele>
        <time>2021-10-16T19:04:30Z</time>
      </trkpt>
      <trkpt lat="37.544081" lon="-4.026849">
        <ele>508.681</ele>
        <time>2021-10-16T19:04:32Z</time>
      </trkpt>
      <trkpt lat="37.544017" lon="-4.026229">
        <ele>508.619</ele>
        <time>2021-10-16T19:04:34Z</time>
      </trkpt>
      <trkpt lat="37.543985" lon="-4.025910">
        <ele>508.508</ele>
        <time>2021-10-16T19:04:35Z</time>
      </trkpt>
      <trkpt lat="37.543924" lon="-4.025281">
        <ele>509.274</ele>
        <time>2021-10-16T19:04:37Z</time>
      </trkpt>
      <trkpt lat="37.543891" lon="-4.024962">
        <ele>509.172</ele>
        <time>2021-10-16T19:04:38Z</time>
      </trkpt>
      <trkpt lat="37.543835" lon="-4.024330">
        <ele>509.341</ele>
        <time>2021-10-16T19:04:40Z</time>
      </trkpt>
      <trkpt lat="37.543811" lon="-4.024011">
        <ele>509.585</ele>
        <time>2021-10-16T19:04:41Z</time>
      </trkpt>
      <trkpt lat="37.543786" lon="-4.023691">
        <ele>509.460</ele>
        <time>2021-10-16T19:04:42Z</time>
      </trkpt>
      <trkpt lat="37.543723" lon="-4.023054">
        <ele>509.829</ele>
        <time>2021-10-16T19:04:44Z</time>
      </trkpt>
      <trkpt lat="37.543670" lon="-4.022413">
        <ele>510.061</ele>
        <time>2021-10-16T19:04:46Z</time>
      </trkpt>
      <trkpt lat="37.543644" lon="-4.022087">
        <ele>510.398</ele>
        <time>2021-10-16T19:04:47Z</time>
      </trkpt>
      <trkpt lat="37.543593" lon="-4.021443">
        <ele>511.849</ele>
        <time>2021-10-16T19:04:49Z</time>
      </trkpt>
      <trkpt lat="37.543567" lon="-4.021117">
        <ele>511.802</ele>
        <time>2021-10-16T19:04:50Z</time>
      </trkpt>
      <trkpt lat="37.543518" lon="-4.020464">
        <ele>512.322</ele>
        <time>2021-10-16T19:04:52Z</time>
      </trkpt>
      <trkpt lat="37.543465" lon="-4.019804">
        <ele>511.508</ele>
        <time>2021-10-16T19:04:54Z</time>
      </trkpt>
      <trkpt lat="37.543436" lon="-4.019473">
        <ele>511.732</ele>
        <time>2021-10-16T19:04:55Z</time>
      </trkpt>
      <trkpt lat="37.543409" lon="-4.019130">
        <ele>511.870</ele>
        <time>2021-10-16T19:04:56Z</time>
      </trkpt>
      <trkpt lat="37.543358" lon="-4.018470">
        <ele>510.839</ele>
        <time>2021-10-16T19:04:58Z</time>
      </trkpt>
      <trkpt lat="37.543299" lon="-4.017784">
        <ele>508.893</ele>
        <time>2021-10-16T19:05:00Z</time>
      </trkpt>
      <trkpt lat="37.543272" lon="-4.017448">
        <ele>508.818</ele>
        <time>2021-10-16T19:05:01Z</time>
      </trkpt>
      <trkpt lat="37.543242" lon="-4.017112">
        <ele>507.577</ele>
        <time>2021-10-16T19:05:02Z</time>
      </trkpt>
      <trkpt lat="37.543190" lon="-4.016481">
        <ele>505.979</ele>
        <time>2021-10-16T19:05:04Z</time>
      </trkpt>
      <trkpt lat="37.543131" lon="-4.015820">
        <ele>505.456</ele>
        <time>2021-10-16T19:05:06Z</time>
      </trkpt>
      <trkpt lat="37.543100" lon="-4.015487">
        <ele>505.067</ele>
        <time>2021-10-16T19:05:07Z</time>
      </trkpt>
      <trkpt lat="37.543070" lon="-4.015155">
        <ele>505.281</ele>
        <time>2021-10-16T19:05:08Z</time>
      </trkpt>
      <trkpt lat="37.543018" lon="-4.014497">
        <ele>505.519</ele>
        <time>2021-10-16T19:05:10Z</time>
      </trkpt>
      <trkpt lat="37.543026" lon="-4.013841">
        <ele>506.508</ele>
        <time>2021-10-16T19:05:12Z</time>
      </trkpt>
      <trkpt lat="37.543075" lon="-4.013514">
        <ele>506.774</ele>
        <time>2021-10-16T19:05:13Z</time>
      </trkpt>
      <trkpt lat="37.543149" lon="-4.013192">
        <ele>506.912</ele>
        <time>2021-10-16T19:05:14Z</time>
      </trkpt>
      <trkpt lat="37.543293" lon="-4.012604">
        <ele>507.671</ele>
        <time>2021-10-16T19:05:16Z</time>
      </trkpt>
      <trkpt lat="37.543359" lon="-4.012331">
        <ele>507.035</ele>
        <time>2021-10-16T19:05:17Z</time>
      </trkpt>
      <trkpt lat="37.543468" lon="-4.011807">
        <ele>506.910</ele>
        <time>2021-10-16T19:05:19Z</time>
      </trkpt>
      <trkpt lat="37.543492" lon="-4.011526">
        <ele>506.599</ele>
        <time>2021-10-16T19:05:20Z</time>
      </trkpt>
      <trkpt lat="37.543449" lon="-4.010944">
        <ele>507.231</ele>
        <time>2021-10-16T19:05:22Z</time>
      </trkpt>
      <trkpt lat="37.543252" lon="-4.010364">
        <ele>508.858</ele>
        <time>2021-10-16T19:05:24Z</time>
      </trkpt>
      <trkpt lat="37.543125" lon="-4.010081">
        <ele>509.214</ele>
        <time>2021-10-16T19:05:25Z</time>
      </trkpt>
      <trkpt lat="37.542993" lon="-4.009795">
        <ele>508.354</ele>
        <time>2021-10-16T19:05:26Z</time>
      </trkpt>
      <trkpt lat="37.542740" lon="-4.009254">
        <ele>508.309</ele>
        <time>2021-10-16T19:05:28Z</time>
      </trkpt>
      <trkpt lat="37.542599" lon="-4.008986">
        <ele>508.308</ele>
        <time>2021-10-16T19:05:29Z</time>
      </trkpt>
      <trkpt lat="37.542277" lon="-4.008472">
        <ele>507.599</ele>
        <time>2021-10-16T19:05:31Z</time>
      </trkpt>
      <trkpt lat="37.542091" lon="-4.008213">
        <ele>507.987</ele>
        <time>2021-10-16T19:05:32Z</time>
      </trkpt>
      <trkpt lat="37.541722" lon="-4.007738">
        <ele>508.756</ele>
        <time>2021-10-16T19:05:34Z</time>
      </trkpt>
      <trkpt lat="37.541534" lon="-4.007496">
        <ele>510.230</ele>
        <time>2021-10-16T19:05:35Z</time>
      </trkpt>
      <trkpt lat="37.541184" lon="-4.007044">
        <ele>511.585</ele>
        <time>2021-10-16T19:05:37Z</time>
      </trkpt>
      <trkpt lat="37.541018" lon="-4.006813">
        <ele>512.194</ele>
        <time>2021-10-16T19:05:38Z</time>
      </trkpt>
      <trkpt lat="37.540718" lon="-4.006329">
        <ele>513.996</ele>
        <time>2021-10-16T19:05:40Z</time>
      </trkpt>
      <trkpt lat="37.540586" lon="-4.006073">
        <ele>515.363</ele>
        <time>2021-10-16T19:05:41Z</time>
      </trkpt>
      <trkpt lat="37.540362" lon="-4.005527">
        <ele>516.042</ele>
        <time>2021-10-16T19:05:43Z</time>
      </trkpt>
      <trkpt lat="37.540270" lon="-4.005235">
        <ele>517.322</ele>
        <time>2021-10-16T19:05:44Z</time>
      </trkpt>
      <trkpt lat="37.540124" lon="-4.004624">
        <ele>519.814</ele>
        <time>2021-10-16T19:05:46Z</time>
      </trkpt>
      <trkpt lat="37.540071" lon="-4.004303">
        <ele>520.708</ele>
        <time>2021-10-16T19:05:47Z</time>
      </trkpt>
      <trkpt lat="37.540020" lon="-4.003660">
        <ele>524.382</ele>
        <time>2021-10-16T19:05:49Z</time>
      </trkpt>
      <trkpt lat="37.540017" lon="-4.003334">
        <ele>525.070</ele>
        <time>2021-10-16T19:05:50Z</time>
      </trkpt>
      <trkpt lat="37.540061" lon="-4.002690">
        <ele>527.229</ele>
        <time>2021-10-16T19:05:52Z</time>
      </trkpt>
      <trkpt lat="37.540103" lon="-4.002368">
        <ele>529.013</ele>
        <time>2021-10-16T19:05:53Z</time>
      </trkpt>
      <trkpt lat="37.540210" lon="-4.001732">
        <ele>531.598</ele>
        <time>2021-10-16T19:05:55Z</time>
      </trkpt>
      <trkpt lat="37.540268" lon="-4.001407">
        <ele>533.297</ele>
        <time>2021-10-16T19:05:56Z</time>
      </trkpt>
      <trkpt lat="37.540377" lon="-4.000792">
        <ele>537.199</ele>
        <time>2021-10-16T19:05:58Z</time>
      </trkpt>
      <trkpt lat="37.540427" lon="-4.000483">
        <ele>538.636</ele>
        <time>2021-10-16T19:05:59Z</time>
      </trkpt>
      <trkpt lat="37.540481" lon="-4.000178">
        <ele>540.416</ele>
        <time>2021-10-16T19:06:00Z</time>
      </trkpt>
      <trkpt lat="37.540594" lon="-3.999579">
        <ele>544.876</ele>
        <time>2021-10-16T19:06:02Z</time>
      </trkpt>
      <trkpt lat="37.540672" lon="-3.999030">
        <ele>547.613</ele>
        <time>2021-10-16T19:06:04Z</time>
      </trkpt>
      <trkpt lat="37.540687" lon="-3.998509">
        <ele>550.308</ele>
        <time>2021-10-16T19:06:06Z</time>
      </trkpt>
      <trkpt lat="37.540631" lon="-3.998035">
        <ele>552.339</ele>
        <time>2021-10-16T19:06:08Z</time>
      </trkpt>
      <trkpt lat="37.540523" lon="-3.997605">
        <ele>554.987</ele>
        <time>2021-10-16T19:06:10Z</time>
      </trkpt>
      <trkpt lat="37.540457" lon="-3.997414">
        <ele>556.156</ele>
        <time>2021-10-16T19:06:11Z</time>
      </trkpt>
      <trkpt lat="37.540392" lon="-3.997247">
        <ele>557.810</ele>
        <time>2021-10-16T19:06:12Z</time>
      </trkpt>
      <trkpt lat="37.540331" lon="-3.997111">
        <ele>559.185</ele>
        <time>2021-10-16T19:06:13Z</time>
      </trkpt>
      <trkpt lat="37.540276" lon="-3.997006">
        <ele>559.724</ele>
        <time>2021-10-16T19:06:14Z</time>
      </trkpt>
      <trkpt lat="37.540205" lon="-3.996879">
        <ele>560.046</ele>
        <time>2021-10-16T19:06:16Z</time>
      </trkpt>
      <trkpt lat="37.540174" lon="-3.996830">
        <ele>560.883</ele>
        <time>2021-10-16T19:06:18Z</time>
      </trkpt>
      <trkpt lat="37.540136" lon="-3.996784">
        <ele>562.535</ele>
        <time>2021-10-16T19:06:23Z</time>
      </trkpt>
      <trkpt lat="37.540106" lon="-3.996721">
        <ele>563.286</ele>
        <time>2021-10-16T19:06:26Z</time>
      </trkpt>
      <trkpt lat="37.540032" lon="-3.996617">
        <ele>563.914</ele>
        <time>2021-10-16T19:06:27Z</time>
      </trkpt>
      <trkpt lat="37.539989" lon="-3.996550">
        <ele>564.408</ele>
        <time>2021-10-16T19:06:28Z</time>
      </trkpt>
      <trkpt lat="37.539912" lon="-3.996419">
        <ele>598.891</ele>
        <time>2021-10-16T19:06:30Z</time>
      </trkpt>
      <trkpt lat="37.539834" lon="-3.996287">
        <ele>598.839</ele>
        <time>2021-10-16T19:06:32Z</time>
      </trkpt>
      <trkpt lat="37.539753" lon="-3.996153">
        <ele>598.868</ele>
        <time>2021-10-16T19:06:34Z</time>
      </trkpt>
      <trkpt lat="37.539702" lon="-3.996066">
        <ele>598.842</ele>
        <time>2021-10-16T19:06:35Z</time>
      </trkpt>
      <trkpt lat="37.539593" lon="-3.995874">
        <ele>598.837</ele>
        <time>2021-10-16T19:06:37Z</time>
      </trkpt>
      <trkpt lat="37.539530" lon="-3.995763">
        <ele>598.816</ele>
        <time>2021-10-16T19:06:38Z</time>
      </trkpt>
      <trkpt lat="37.539383" lon="-3.995508">
        <ele>598.858</ele>
        <time>2021-10-16T19:06:40Z</time>
      </trkpt>
      <trkpt lat="37.539314" lon="-3.995386">
        <ele>598.835</ele>
        <time>2021-10-16T19:06:41Z</time>
      </trkpt>
      <trkpt lat="37.539244" lon="-3.995261">
        <ele>598.882</ele>
        <time>2021-10-16T19:06:42Z</time>
      </trkpt>
      <trkpt lat="37.539090" lon="-3.994982">
        <ele>598.843</ele>
        <time>2021-10-16T19:06:44Z</time>
      </trkpt>
      <trkpt lat="37.538920" lon="-3.994681">
        <ele>598.817</ele>
        <time>2021-10-16T19:06:46Z</time>
      </trkpt>
      <trkpt lat="37.538834" lon="-3.994523">
        <ele>598.808</ele>
        <time>2021-10-16T19:06:47Z</time>
      </trkpt>
      <trkpt lat="37.538686" lon="-3.994174">
        <ele>598.846</ele>
        <time>2021-10-16T19:06:49Z</time>
      </trkpt>
      <trkpt lat="37.538607" lon="-3.993980">
        <ele>598.874</ele>
        <time>2021-10-16T19:06:50Z</time>
      </trkpt>
      <trkpt lat="37.538429" lon="-3.993488">
        <ele>598.813</ele>
        <time>2021-10-16T19:06:52Z</time>
      </trkpt>
      <trkpt lat="37.538335" lon="-3.993189">
        <ele>598.857</ele>
        <time>2021-10-16T19:06:53Z</time>
      </trkpt>
      <trkpt lat="37.538152" lon="-3.992502">
        <ele>598.822</ele>
        <time>2021-10-16T19:06:55Z</time>
      </trkpt>
      <trkpt lat="37.538065" lon="-3.992097">
        <ele>598.821</ele>
        <time>2021-10-16T19:06:56Z</time>
      </trkpt>
      <trkpt lat="37.537885" lon="-3.991292">
        <ele>598.883</ele>
        <time>2021-10-16T19:06:58Z</time>
      </trkpt>
      <trkpt lat="37.537645" lon="-3.990488">
        <ele>598.850</ele>
        <time>2021-10-16T19:07:00Z</time>
      </trkpt>
      <trkpt lat="37.537495" lon="-3.990104">
        <ele>598.821</ele>
        <time>2021-10-16T19:07:01Z</time>
      </trkpt>
      <trkpt lat="37.537312" lon="-3.989721">
        <ele>598.841</ele>
        <time>2021-10-16T19:07:02Z</time>
      </trkpt>
      <trkpt lat="37.536863" lon="-3.989064">
        <ele>598.905</ele>
        <time>2021-10-16T19:07:04Z</time>
      </trkpt>
      <trkpt lat="37.536599" lon="-3.988757">
        <ele>598.908</ele>
        <time>2021-10-16T19:07:05Z</time>
      </trkpt>
      <trkpt lat="37.536337" lon="-3.988456">
        <ele>598.930</ele>
        <time>2021-10-16T19:07:06Z</time>
      </trkpt>
      <trkpt lat="37.535858" lon="-3.987830">
        <ele>598.918</ele>
        <time>2021-10-16T19:07:08Z</time>
      </trkpt>
      <trkpt lat="37.535503" lon="-3.987114">
        <ele>598.997</ele>
        <time>2021-10-16T19:07:10Z</time>
      </trkpt>
      <trkpt lat="37.535298" lon="-3.986312">
        <ele>598.941</ele>
        <time>2021-10-16T19:07:12Z</time>
      </trkpt>
      <trkpt lat="37.535273" lon="-3.985422">
        <ele>598.956</ele>
        <time>2021-10-16T19:07:14Z</time>
      </trkpt>
      <trkpt lat="37.535384" lon="-3.983602">
        <ele>598.915</ele>
        <time>2021-10-16T19:07:18Z</time>
      </trkpt>
      <trkpt lat="37.535306" lon="-3.982758">
        <ele>598.947</ele>
        <time>2021-10-16T19:07:20Z</time>
      </trkpt>
      <trkpt lat="37.535061" lon="-3.981977">
        <ele>598.944</ele>
        <time>2021-10-16T19:07:22Z</time>
      </trkpt>
      <trkpt lat="37.534629" lon="-3.981301">
        <ele>621.888</ele>
        <time>2021-10-16T19:07:24Z</time>
      </trkpt>
      <trkpt lat="37.534376" lon="-3.981003">
        <ele>645.324</ele>
        <time>2021-10-16T19:07:25Z</time>
      </trkpt>
      <trkpt lat="37.534089" lon="-3.980755">
        <ele>646.626</ele>
        <time>2021-10-16T19:07:26Z</time>
      </trkpt>
      <trkpt lat="37.533463" lon="-3.980429">
        <ele>649.808</ele>
        <time>2021-10-16T19:07:28Z</time>
      </trkpt>
      <trkpt lat="37.533120" lon="-3.980322">
        <ele>650.376</ele>
        <time>2021-10-16T19:07:29Z</time>
      </trkpt>
      <trkpt lat="37.532774" lon="-3.980236">
        <ele>650.614</ele>
        <time>2021-10-16T19:07:30Z</time>
      </trkpt>
      <trkpt lat="37.532099" lon="-3.980106">
        <ele>652.453</ele>
        <time>2021-10-16T19:07:32Z</time>
      </trkpt>
      <trkpt lat="37.531486" lon="-3.979997">
        <ele>652.367</ele>
        <time>2021-10-16T19:07:34Z</time>
      </trkpt>
      <trkpt lat="37.530901" lon="-3.979885">
        <ele>653.392</ele>
        <time>2021-10-16T19:07:36Z</time>
      </trkpt>
      <trkpt lat="37.530327" lon="-3.979776">
        <ele>652.751</ele>
        <time>2021-10-16T19:07:38Z</time>
      </trkpt>
      <trkpt lat="37.529768" lon="-3.979660">
        <ele>651.633</ele>
        <time>2021-10-16T19:07:40Z</time>
      </trkpt>
      <trkpt lat="37.529218" lon="-3.979522">
        <ele>649.650</ele>
        <time>2021-10-16T19:07:42Z</time>
      </trkpt>
      <trkpt lat="37.528690" lon="-3.979319">
        <ele>648.767</ele>
        <time>2021-10-16T19:07:44Z</time>
      </trkpt>
      <trkpt lat="37.528200" lon="-3.979024">
        <ele>646.981</ele>
        <time>2021-10-16T19:07:46Z</time>
      </trkpt>
      <trkpt lat="37.527971" lon="-3.978848">
        <ele>646.319</ele>
        <time>2021-10-16T19:07:47Z</time>
      </trkpt>
      <trkpt lat="37.527539" lon="-3.978444">
        <ele>642.408</ele>
        <time>2021-10-16T19:07:49Z</time>
      </trkpt>
      <trkpt lat="37.527330" lon="-3.978224">
        <ele>641.414</ele>
        <time>2021-10-16T19:07:50Z</time>
      </trkpt>
      <trkpt lat="37.526932" lon="-3.977792">
        <ele>639.592</ele>
        <time>2021-10-16T19:07:52Z</time>
      </trkpt>
      <trkpt lat="37.526733" lon="-3.977585">
        <ele>638.271</ele>
        <time>2021-10-16T19:07:53Z</time>
      </trkpt>
      <trkpt lat="37.526322" lon="-3.977203">
        <ele>636.765</ele>
        <time>2021-10-16T19:07:55Z</time>
      </trkpt>
      <trkpt lat="37.526101" lon="-3.977018">
        <ele>635.510</ele>
        <time>2021-10-16T19:07:56Z</time>
      </trkpt>
      <trkpt lat="37.525665" lon="-3.976720">
        <ele>635.419</ele>
        <time>2021-10-16T19:07:58Z</time>
      </trkpt>
      <trkpt lat="37.525199" lon="-3.976460">
        <ele>633.981</ele>
        <time>2021-10-16T19:08:00Z</time>
      </trkpt>
      <trkpt lat="37.524712" lon="-3.976253">
        <ele>632.228</ele>
        <time>2021-10-16T19:08:02Z</time>
      </trkpt>
      <trkpt lat="37.524240" lon="-3.976129">
        <ele>632.099</ele>
        <time>2021-10-16T19:08:04Z</time>
      </trkpt>
      <trkpt lat="37.523752" lon="-3.976052">
        <ele>631.107</ele>
        <time>2021-10-16T19:08:06Z</time>
      </trkpt>
      <trkpt lat="37.523503" lon="-3.976034">
        <ele>630.227</ele>
        <time>2021-10-16T19:08:07Z</time>
      </trkpt>
      <trkpt lat="37.523254" lon="-3.976035">
        <ele>630.408</ele>
        <time>2021-10-16T19:08:08Z</time>
      </trkpt>
      <trkpt lat="37.522753" lon="-3.976067">
        <ele>630.467</ele>
        <time>2021-10-16T19:08:10Z</time>
      </trkpt>
      <trkpt lat="37.522502" lon="-3.976101">
        <ele>630.815</ele>
        <time>2021-10-16T19:08:11Z</time>
      </trkpt>
      <trkpt lat="37.522248" lon="-3.976152">
        <ele>630.954</ele>
        <time>2021-10-16T19:08:12Z</time>
      </trkpt>
      <trkpt lat="37.521736" lon="-3.976290">
        <ele>631.548</ele>
        <time>2021-10-16T19:08:14Z</time>
      </trkpt>
      <trkpt lat="37.521231" lon="-3.976447">
        <ele>632.073</ele>
        <time>2021-10-16T19:08:16Z</time>
      </trkpt>
      <trkpt lat="37.520980" lon="-3.976534">
        <ele>632.792</ele>
        <time>2021-10-16T19:08:17Z</time>
      </trkpt>
      <trkpt lat="37.520492" lon="-3.976722">
        <ele>633.224</ele>
        <time>2021-10-16T19:08:19Z</time>
      </trkpt>
      <trkpt lat="37.520250" lon="-3.976824">
        <ele>633.651</ele>
        <time>2021-10-16T19:08:20Z</time>
      </trkpt>
      <trkpt lat="37.519772" lon="-3.977039">
        <ele>635.517</ele>
        <time>2021-10-16T19:08:22Z</time>
      </trkpt>
      <trkpt lat="37.519530" lon="-3.977151">
        <ele>635.787</ele>
        <time>2021-10-16T19:08:23Z</time>
      </trkpt>
      <trkpt lat="37.519052" lon="-3.977388">
        <ele>638.015</ele>
        <time>2021-10-16T19:08:25Z</time>
      </trkpt>
      <trkpt lat="37.518799" lon="-3.977516">
        <ele>638.808</ele>
        <time>2021-10-16T19:08:26Z</time>
      </trkpt>
      <trkpt lat="37.518310" lon="-3.977763">
        <ele>640.219</ele>
        <time>2021-10-16T19:08:28Z</time>
      </trkpt>
      <trkpt lat="37.517804" lon="-3.978013">
        <ele>642.867</ele>
        <time>2021-10-16T19:08:30Z</time>
      </trkpt>
      <trkpt lat="37.517549" lon="-3.978137">
        <ele>643.846</ele>
        <time>2021-10-16T19:08:31Z</time>
      </trkpt>
      <trkpt lat="37.517283" lon="-3.978259">
        <ele>645.320</ele>
        <time>2021-10-16T19:08:32Z</time>
      </trkpt>
      <trkpt lat="37.516770" lon="-3.978465">
        <ele>647.165</ele>
        <time>2021-10-16T19:08:34Z</time>
      </trkpt>
      <trkpt lat="37.516499" lon="-3.978554">
        <ele>648.944</ele>
        <time>2021-10-16T19:08:35Z</time>
      </trkpt>
      <trkpt lat="37.516226" lon="-3.978635">
        <ele>650.726</ele>
        <time>2021-10-16T19:08:36Z</time>
      </trkpt>
      <trkpt lat="37.515954" lon="-3.978705">
        <ele>652.063</ele>
        <time>2021-10-16T19:08:37Z</time>
      </trkpt>
      <trkpt lat="37.515416" lon="-3.978788">
        <ele>653.831</ele>
        <time>2021-10-16T19:08:39Z</time>
      </trkpt>
      <trkpt lat="37.515139" lon="-3.978801">
        <ele>656.061</ele>
        <time>2021-10-16T19:08:40Z</time>
      </trkpt>
      <trkpt lat="37.514587" lon="-3.978815">
        <ele>659.207</ele>
        <time>2021-10-16T19:08:42Z</time>
      </trkpt>
      <trkpt lat="37.514308" lon="-3.978825">
        <ele>661.208</ele>
        <time>2021-10-16T19:08:43Z</time>
      </trkpt>
      <trkpt lat="37.514027" lon="-3.978836">
        <ele>662.691</ele>
        <time>2021-10-16T19:08:44Z</time>
      </trkpt>
      <trkpt lat="37.513470" lon="-3.978865">
        <ele>664.689</ele>
        <time>2021-10-16T19:08:46Z</time>
      </trkpt>
      <trkpt lat="37.512904" lon="-3.978901">
        <ele>667.268</ele>
        <time>2021-10-16T19:08:48Z</time>
      </trkpt>
      <trkpt lat="37.512335" lon="-3.978937">
        <ele>670.542</ele>
        <time>2021-10-16T19:08:50Z</time>
      </trkpt>
      <trkpt lat="37.511766" lon="-3.978967">
        <ele>673.057</ele>
        <time>2021-10-16T19:08:52Z</time>
      </trkpt>
      <trkpt lat="37.511195" lon="-3.979009">
        <ele>675.366</ele>
        <time>2021-10-16T19:08:54Z</time>
      </trkpt>
      <trkpt lat="37.510910" lon="-3.979031">
        <ele>676.868</ele>
        <time>2021-10-16T19:08:55Z</time>
      </trkpt>
      <trkpt lat="37.510617" lon="-3.979054">
        <ele>678.215</ele>
        <time>2021-10-16T19:08:56Z</time>
      </trkpt>
      <trkpt lat="37.510057" lon="-3.979096">
        <ele>680.179</ele>
        <time>2021-10-16T19:08:58Z</time>
      </trkpt>
      <trkpt lat="37.509769" lon="-3.979111">
        <ele>681.105</ele>
        <time>2021-10-16T19:08:59Z</time>
      </trkpt>
      <trkpt lat="37.509197" lon="-3.979143">
        <ele>683.425</ele>
        <time>2021-10-16T19:09:01Z</time>
      </trkpt>
      <trkpt lat="37.508897" lon="-3.979165">
        <ele>684.508</ele>
        <time>2021-10-16T19:09:02Z</time>
      </trkpt>
      <trkpt lat="37.508340" lon="-3.979191">
        <ele>688.445</ele>
        <time>2021-10-16T19:09:04Z</time>
      </trkpt>
      <trkpt lat="37.508051" lon="-3.979191">
        <ele>689.933</ele>
        <time>2021-10-16T19:09:05Z</time>
      </trkpt>
      <trkpt lat="37.507474" lon="-3.979146">
        <ele>692.772</ele>
        <time>2021-10-16T19:09:07Z</time>
      </trkpt>
      <trkpt lat="37.506904" lon="-3.979025">
        <ele>694.886</ele>
        <time>2021-10-16T19:09:09Z</time>
      </trkpt>
      <trkpt lat="37.506342" lon="-3.978847">
        <ele>697.021</ele>
        <time>2021-10-16T19:09:11Z</time>
      </trkpt>
      <trkpt lat="37.506062" lon="-3.978744">
        <ele>698.520</ele>
        <time>2021-10-16T19:09:12Z</time>
      </trkpt>
      <trkpt lat="37.505507" lon="-3.978508">
        <ele>701.792</ele>
        <time>2021-10-16T19:09:14Z</time>
      </trkpt>
      <trkpt lat="37.504971" lon="-3.978225">
        <ele>704.119</ele>
        <time>2021-10-16T19:09:16Z</time>
      </trkpt>
      <trkpt lat="37.504450" lon="-3.977875">
        <ele>706.948</ele>
        <time>2021-10-16T19:09:18Z</time>
      </trkpt>
      <trkpt lat="37.503946" lon="-3.977504">
        <ele>710.961</ele>
        <time>2021-10-16T19:09:20Z</time>
      </trkpt>
      <trkpt lat="37.503498" lon="-3.977092">
        <ele>714.017</ele>
        <time>2021-10-16T19:09:22Z</time>
      </trkpt>
      <trkpt lat="37.503290" lon="-3.976881">
        <ele>715.408</ele>
        <time>2021-10-16T19:09:23Z</time>
      </trkpt>
      <trkpt lat="37.502899" lon="-3.976467">
        <ele>717.292</ele>
        <time>2021-10-16T19:09:25Z</time>
      </trkpt>
      <trkpt lat="37.502704" lon="-3.976261">
        <ele>717.890</ele>
        <time>2021-10-16T19:09:26Z</time>
      </trkpt>
      <trkpt lat="37.502366" lon="-3.975902">
        <ele>720.349</ele>
        <time>2021-10-16T19:09:28Z</time>
      </trkpt>
      <trkpt lat="37.502188" lon="-3.975726">
        <ele>721.463</ele>
        <time>2021-10-16T19:09:29Z</time>
      </trkpt>
      <trkpt lat="37.501817" lon="-3.975394">
        <ele>722.698</ele>
        <time>2021-10-16T19:09:31Z</time>
      </trkpt>
      <trkpt lat="37.501612" lon="-3.975229">
        <ele>723.427</ele>
        <time>2021-10-16T19:09:32Z</time>
      </trkpt>
      <trkpt lat="37.501203" lon="-3.974938">
        <ele>725.149</ele>
        <time>2021-10-16T19:09:34Z</time>
      </trkpt>
      <trkpt lat="37.500761" lon="-3.974650">
        <ele>727.816</ele>
        <time>2021-10-16T19:09:36Z</time>
      </trkpt>
      <trkpt lat="37.500541" lon="-3.974504">
        <ele>728.823</ele>
        <time>2021-10-16T19:09:37Z</time>
      </trkpt>
      <trkpt lat="37.500321" lon="-3.974362">
        <ele>729.583</ele>
        <time>2021-10-16T19:09:38Z</time>
      </trkpt>
      <trkpt lat="37.499926" lon="-3.974083">
        <ele>732.211</ele>
        <time>2021-10-16T19:09:40Z</time>
      </trkpt>
      <trkpt lat="37.499740" lon="-3.973953">
        <ele>733.008</ele>
        <time>2021-10-16T19:09:41Z</time>
      </trkpt>
      <trkpt lat="37.499367" lon="-3.973686">
        <ele>735.040</ele>
        <time>2021-10-16T19:09:43Z</time>
      </trkpt>
      <trkpt lat="37.499176" lon="-3.973546">
        <ele>736.338</ele>
        <time>2021-10-16T19:09:44Z</time>
      </trkpt>
      <trkpt lat="37.498812" lon="-3.973259">
        <ele>739.577</ele>
        <time>2021-10-16T19:09:46Z</time>
      </trkpt>
      <trkpt lat="37.498462" lon="-3.972939">
        <ele>741.641</ele>
        <time>2021-10-16T19:09:48Z</time>
      </trkpt>
      <trkpt lat="37.498129" lon="-3.972592">
        <ele>743.356</ele>
        <time>2021-10-16T19:09:50Z</time>
      </trkpt>
      <trkpt lat="37.497832" lon="-3.972206">
        <ele>745.835</ele>
        <time>2021-10-16T19:09:52Z</time>
      </trkpt>
      <trkpt lat="37.497561" lon="-3.971777">
        <ele>748.037</ele>
        <time>2021-10-16T19:09:54Z</time>
      </trkpt>
      <trkpt lat="37.497319" lon="-3.971311">
        <ele>749.884</ele>
        <time>2021-10-16T19:09:56Z</time>
      </trkpt>
      <trkpt lat="37.497129" lon="-3.970833">
        <ele>751.494</ele>
        <time>2021-10-16T19:09:58Z</time>
      </trkpt>
      <trkpt lat="37.497035" lon="-3.970584">
        <ele>752.557</ele>
        <time>2021-10-16T19:09:59Z</time>
      </trkpt>
      <trkpt lat="37.496951" lon="-3.970334">
        <ele>753.822</ele>
        <time>2021-10-16T19:10:00Z</time>
      </trkpt>
      <trkpt lat="37.496875" lon="-3.970084">
        <ele>755.208</ele>
        <time>2021-10-16T19:10:01Z</time>
      </trkpt>
      <trkpt lat="37.496790" lon="-3.969831">
        <ele>756.327</ele>
        <time>2021-10-16T19:10:02Z</time>
      </trkpt>
      <trkpt lat="37.496611" lon="-3.969359">
        <ele>757.645</ele>
        <time>2021-10-16T19:10:04Z</time>
      </trkpt>
      <trkpt lat="37.496517" lon="-3.969120">
        <ele>758.714</ele>
        <time>2021-10-16T19:10:05Z</time>
      </trkpt>
      <trkpt lat="37.496418" lon="-3.968886">
        <ele>759.528</ele>
        <time>2021-10-16T19:10:06Z</time>
      </trkpt>
      <trkpt lat="37.496211" lon="-3.968417">
        <ele>761.983</ele>
        <time>2021-10-16T19:10:08Z</time>
      </trkpt>
      <trkpt lat="37.495995" lon="-3.967954">
        <ele>763.252</ele>
        <time>2021-10-16T19:10:10Z</time>
      </trkpt>
      <trkpt lat="37.495887" lon="-3.967715">
        <ele>763.974</ele>
        <time>2021-10-16T19:10:11Z</time>
      </trkpt>
      <trkpt lat="37.495649" lon="-3.967243">
        <ele>765.361</ele>
        <time>2021-10-16T19:10:13Z</time>
      </trkpt>
      <trkpt lat="37.495517" lon="-3.967013">
        <ele>766.117</ele>
        <time>2021-10-16T19:10:14Z</time>
      </trkpt>
      <trkpt lat="37.495235" lon="-3.966564">
        <ele>768.187</ele>
        <time>2021-10-16T19:10:16Z</time>
      </trkpt>
      <trkpt lat="37.494922" lon="-3.966140">
        <ele>770.715</ele>
        <time>2021-10-16T19:10:18Z</time>
      </trkpt>
      <trkpt lat="37.494556" lon="-3.965766">
        <ele>772.908</ele>
        <time>2021-10-16T19:10:20Z</time>
      </trkpt>
      <trkpt lat="37.494168" lon="-3.965433">
        <ele>775.679</ele>
        <time>2021-10-16T19:10:22Z</time>
      </trkpt>
      <trkpt lat="37.493772" lon="-3.965143">
        <ele>777.817</ele>
        <time>2021-10-16T19:10:24Z</time>
      </trkpt>
      <trkpt lat="37.493570" lon="-3.965004">
        <ele>779.326</ele>
        <time>2021-10-16T19:10:25Z</time>
      </trkpt>
      <trkpt lat="37.493356" lon="-3.964866">
        <ele>780.780</ele>
        <time>2021-10-16T19:10:26Z</time>
      </trkpt>
      <trkpt lat="37.492956" lon="-3.964641">
        <ele>784.115</ele>
        <time>2021-10-16T19:10:28Z</time>
      </trkpt>
      <trkpt lat="37.492541" lon="-3.964434">
        <ele>787.864</ele>
        <time>2021-10-16T19:10:30Z</time>
      </trkpt>
      <trkpt lat="37.492331" lon="-3.964336">
        <ele>788.516</ele>
        <time>2021-10-16T19:10:31Z</time>
      </trkpt>
      <trkpt lat="37.492109" lon="-3.964234">
        <ele>789.393</ele>
        <time>2021-10-16T19:10:32Z</time>
      </trkpt>
      <trkpt lat="37.491708" lon="-3.964041">
        <ele>791.521</ele>
        <time>2021-10-16T19:10:34Z</time>
      </trkpt>
      <trkpt lat="37.491498" lon="-3.963941">
        <ele>792.541</ele>
        <time>2021-10-16T19:10:35Z</time>
      </trkpt>
      <trkpt lat="37.491073" lon="-3.963745">
        <ele>795.105</ele>
        <time>2021-10-16T19:10:37Z</time>
      </trkpt>
      <trkpt lat="37.490856" lon="-3.963647">
        <ele>796.508</ele>
        <time>2021-10-16T19:10:38Z</time>
      </trkpt>
      <trkpt lat="37.490425" lon="-3.963442">
        <ele>798.080</ele>
        <time>2021-10-16T19:10:40Z</time>
      </trkpt>
      <trkpt lat="37.490208" lon="-3.963329">
        <ele>799.568</ele>
        <time>2021-10-16T19:10:41Z</time>
      </trkpt>
      <trkpt lat="37.489985" lon="-3.963224">
        <ele>801.227</ele>
        <time>2021-10-16T19:10:42Z</time>
      </trkpt>
      <trkpt lat="37.489537" lon="-3.963022">
        <ele>803.721</ele>
        <time>2021-10-16T19:10:44Z</time>
      </trkpt>
      <trkpt lat="37.489090" lon="-3.962828">
        <ele>805.456</ele>
        <time>2021-10-16T19:10:46Z</time>
      </trkpt>
      <trkpt lat="37.488865" lon="-3.962728">
        <ele>807.275</ele>
        <time>2021-10-16T19:10:47Z</time>
      </trkpt>
      <trkpt lat="37.488643" lon="-3.962627">
        <ele>809.317</ele>
        <time>2021-10-16T19:10:48Z</time>
      </trkpt>
      <trkpt lat="37.488202" lon="-3.962415">
        <ele>811.074</ele>
        <time>2021-10-16T19:10:50Z</time>
      </trkpt>
      <trkpt lat="37.487766" lon="-3.962208">
        <ele>813.667</ele>
        <time>2021-10-16T19:10:52Z</time>
      </trkpt>
      <trkpt lat="37.487543" lon="-3.962107">
        <ele>815.081</ele>
        <time>2021-10-16T19:10:53Z</time>
      </trkpt>
      <trkpt lat="37.487321" lon="-3.962012">
        <ele>815.819</ele>
        <time>2021-10-16T19:10:54Z</time>
      </trkpt>
      <trkpt lat="37.486871" lon="-3.961812">
        <ele>816.608</ele>
        <time>2021-10-16T19:10:56Z</time>
      </trkpt>
      <trkpt lat="37.486440" lon="-3.961660">
        <ele>817.914</ele>
        <time>2021-10-16T19:10:58Z</time>
      </trkpt>
      <trkpt lat="37.486215" lon="-3.961599">
        <ele>818.022</ele>
        <time>2021-10-16T19:10:59Z</time>
      </trkpt>
      <trkpt lat="37.485995" lon="-3.961541">
        <ele>818.011</ele>
        <time>2021-10-16T19:11:00Z</time>
      </trkpt>
      <trkpt lat="37.485551" lon="-3.961454">
        <ele>818.445</ele>
        <time>2021-10-16T19:11:02Z</time>
      </trkpt>
      <trkpt lat="37.485122" lon="-3.961389">
        <ele>818.240</ele>
        <time>2021-10-16T19:11:04Z</time>
      </trkpt>
      <trkpt lat="37.484675" lon="-3.961343">
        <ele>817.579</ele>
        <time>2021-10-16T19:11:06Z</time>
      </trkpt>
      <trkpt lat="37.484447" lon="-3.961341">
        <ele>817.951</ele>
        <time>2021-10-16T19:11:07Z</time>
      </trkpt>
      <trkpt lat="37.484216" lon="-3.961348">
        <ele>818.088</ele>
        <time>2021-10-16T19:11:08Z</time>
      </trkpt>
      <trkpt lat="37.483988" lon="-3.961363">
        <ele>817.997</ele>
        <time>2021-10-16T19:11:09Z</time>
      </trkpt>
      <trkpt lat="37.483530" lon="-3.961415">
        <ele>819.023</ele>
        <time>2021-10-16T19:11:11Z</time>
      </trkpt>
      <trkpt lat="37.483034" lon="-3.961494">
        <ele>819.625</ele>
        <time>2021-10-16T19:11:13Z</time>
      </trkpt>
      <trkpt lat="37.482766" lon="-3.961553">
        <ele>819.808</ele>
        <time>2021-10-16T19:11:14Z</time>
      </trkpt>
      <trkpt lat="37.482206" lon="-3.961699">
        <ele>821.297</ele>
        <time>2021-10-16T19:11:16Z</time>
      </trkpt>
      <trkpt lat="37.481595" lon="-3.961894">
        <ele>821.315</ele>
        <time>2021-10-16T19:11:18Z</time>
      </trkpt>
      <trkpt lat="37.480990" lon="-3.962084">
        <ele>822.254</ele>
        <time>2021-10-16T19:11:20Z</time>
      </trkpt>
      <trkpt lat="37.480407" lon="-3.962230">
        <ele>821.848</ele>
        <time>2021-10-16T19:11:22Z</time>
      </trkpt>
      <trkpt lat="37.479832" lon="-3.962340">
        <ele>822.283</ele>
        <time>2021-10-16T19:11:24Z</time>
      </trkpt>
      <trkpt lat="37.479551" lon="-3.962376">
        <ele>821.732</ele>
        <time>2021-10-16T19:11:25Z</time>
      </trkpt>
      <trkpt lat="37.479266" lon="-3.962399">
        <ele>821.874</ele>
        <time>2021-10-16T19:11:26Z</time>
      </trkpt>
      <trkpt lat="37.478743" lon="-3.962401">
        <ele>823.571</ele>
        <time>2021-10-16T19:11:28Z</time>
      </trkpt>
      <trkpt lat="37.478472" lon="-3.962372">
        <ele>824.349</ele>
        <time>2021-10-16T19:11:29Z</time>
      </trkpt>
      <trkpt lat="37.478207" lon="-3.962312">
        <ele>824.502</ele>
        <time>2021-10-16T19:11:30Z</time>
      </trkpt>
      <trkpt lat="37.477688" lon="-3.962112">
        <ele>825.622</ele>
        <time>2021-10-16T19:11:32Z</time>
      </trkpt>
      <trkpt lat="37.477169" lon="-3.962001">
        <ele>825.708</ele>
        <time>2021-10-16T19:11:34Z</time>
      </trkpt>
      <trkpt lat="37.476890" lon="-3.961972">
        <ele>825.422</ele>
        <time>2021-10-16T19:11:35Z</time>
      </trkpt>
      <trkpt lat="37.476362" lon="-3.961841">
        <ele>824.590</ele>
        <time>2021-10-16T19:11:37Z</time>
      </trkpt>
      <trkpt lat="37.476099" lon="-3.961760">
        <ele>824.239</ele>
        <time>2021-10-16T19:11:38Z</time>
      </trkpt>
      <trkpt lat="37.475596" lon="-3.961565">
        <ele>823.813</ele>
        <time>2021-10-16T19:11:40Z</time>
      </trkpt>
      <trkpt lat="37.475345" lon="-3.961448">
        <ele>823.798</ele>
        <time>2021-10-16T19:11:41Z</time>
      </trkpt>
      <trkpt lat="37.474851" lon="-3.961181">
        <ele>823.117</ele>
        <time>2021-10-16T19:11:43Z</time>
      </trkpt>
      <trkpt lat="37.474608" lon="-3.961021">
        <ele>822.299</ele>
        <time>2021-10-16T19:11:44Z</time>
      </trkpt>
      <trkpt lat="37.474175" lon="-3.960611">
        <ele>820.816</ele>
        <time>2021-10-16T19:11:46Z</time>
      </trkpt>
      <trkpt lat="37.473804" lon="-3.960121">
        <ele>818.932</ele>
        <time>2021-10-16T19:11:48Z</time>
      </trkpt>
      <trkpt lat="37.473379" lon="-3.959686">
        <ele>817.492</ele>
        <time>2021-10-16T19:11:50Z</time>
      </trkpt>
      <trkpt lat="37.472946" lon="-3.959261">
        <ele>815.711</ele>
        <time>2021-10-16T19:11:52Z</time>
      </trkpt>
      <trkpt lat="37.472482" lon="-3.958881">
        <ele>815.508</ele>
        <time>2021-10-16T19:11:54Z</time>
      </trkpt>
      <trkpt lat="37.472271" lon="-3.958662">
        <ele>814.581</ele>
        <time>2021-10-16T19:11:55Z</time>
      </trkpt>
      <trkpt lat="37.472053" lon="-3.958432">
        <ele>813.859</ele>
        <time>2021-10-16T19:11:56Z</time>
      </trkpt>
      <trkpt lat="37.471647" lon="-3.958010">
        <ele>812.278</ele>
        <time>2021-10-16T19:11:58Z</time>
      </trkpt>
      <trkpt lat="37.471218" lon="-3.957603">
        <ele>812.222</ele>
        <time>2021-10-16T19:12:00Z</time>
      </trkpt>
      <trkpt lat="37.471008" lon="-3.957391">
        <ele>811.627</ele>
        <time>2021-10-16T19:12:01Z</time>
      </trkpt>
      <trkpt lat="37.470792" lon="-3.957165">
        <ele>810.656</ele>
        <time>2021-10-16T19:12:02Z</time>
      </trkpt>
      <trkpt lat="37.470398" lon="-3.956747">
        <ele>809.848</ele>
        <time>2021-10-16T19:12:04Z</time>
      </trkpt>
      <trkpt lat="37.470195" lon="-3.956535">
        <ele>809.565</ele>
        <time>2021-10-16T19:12:05Z</time>
      </trkpt>
      <trkpt lat="37.469797" lon="-3.956118">
        <ele>807.828</ele>
        <time>2021-10-16T19:12:07Z</time>
      </trkpt>
      <trkpt lat="37.469596" lon="-3.955907">
        <ele>807.389</ele>
        <time>2021-10-16T19:12:08Z</time>
      </trkpt>
      <trkpt lat="37.469206" lon="-3.955503">
        <ele>806.217</ele>
        <time>2021-10-16T19:12:10Z</time>
      </trkpt>
      <trkpt lat="37.469014" lon="-3.955299">
        <ele>806.008</ele>
        <time>2021-10-16T19:12:11Z</time>
      </trkpt>
      <trkpt lat="37.468821" lon="-3.955099">
        <ele>805.720</ele>
        <time>2021-10-16T19:12:12Z</time>
      </trkpt>
      <trkpt lat="37.468438" lon="-3.954690">
        <ele>803.978</ele>
        <time>2021-10-16T19:12:14Z</time>
      </trkpt>
      <trkpt lat="37.468063" lon="-3.954293">
        <ele>802.287</ele>
        <time>2021-10-16T19:12:16Z</time>
      </trkpt>
      <trkpt lat="37.467873" lon="-3.954091">
        <ele>802.141</ele>
        <time>2021-10-16T19:12:17Z</time>
      </trkpt>
      <trkpt lat="37.467510" lon="-3.953693">
        <ele>801.636</ele>
        <time>2021-10-16T19:12:19Z</time>
      </trkpt>
      <trkpt lat="37.467329" lon="-3.953496">
        <ele>801.835</ele>
        <time>2021-10-16T19:12:20Z</time>
      </trkpt>
      <trkpt lat="37.466975" lon="-3.953108">
        <ele>802.247</ele>
        <time>2021-10-16T19:12:22Z</time>
      </trkpt>
      <trkpt lat="37.466612" lon="-3.952727">
        <ele>803.654</ele>
        <time>2021-10-16T19:12:24Z</time>
      </trkpt>
      <trkpt lat="37.466422" lon="-3.952534">
        <ele>804.564</ele>
        <time>2021-10-16T19:12:25Z</time>
      </trkpt>
      <trkpt lat="37.466223" lon="-3.952326">
        <ele>806.106</ele>
        <time>2021-10-16T19:12:26Z</time>
      </trkpt>
      <trkpt lat="37.465849" lon="-3.951931">
        <ele>807.716</ele>
        <time>2021-10-16T19:12:28Z</time>
      </trkpt>
      <trkpt lat="37.465460" lon="-3.951527">
        <ele>809.308</ele>
        <time>2021-10-16T19:12:30Z</time>
      </trkpt>
      <trkpt lat="37.465063" lon="-3.951144">
        <ele>810.394</ele>
        <time>2021-10-16T19:12:32Z</time>
      </trkpt>
      <trkpt lat="37.464684" lon="-3.950807">
        <ele>811.192</ele>
        <time>2021-10-16T19:12:34Z</time>
      </trkpt>
      <trkpt lat="37.464490" lon="-3.950644">
        <ele>811.821</ele>
        <time>2021-10-16T19:12:35Z</time>
      </trkpt>
      <trkpt lat="37.464298" lon="-3.950492">
        <ele>811.855</ele>
        <time>2021-10-16T19:12:36Z</time>
      </trkpt>
      <trkpt lat="37.463913" lon="-3.950212">
        <ele>812.350</ele>
        <time>2021-10-16T19:12:38Z</time>
      </trkpt>
      <trkpt lat="37.463522" lon="-3.949960">
        <ele>811.679</ele>
        <time>2021-10-16T19:12:40Z</time>
      </trkpt>
      <trkpt lat="37.463116" lon="-3.949736">
        <ele>811.121</ele>
        <time>2021-10-16T19:12:42Z</time>
      </trkpt>
      <trkpt lat="37.462911" lon="-3.949632">
        <ele>810.758</ele>
        <time>2021-10-16T19:12:43Z</time>
      </trkpt>
      <trkpt lat="37.462709" lon="-3.949533">
        <ele>810.482</ele>
        <time>2021-10-16T19:12:44Z</time>
      </trkpt>
      <trkpt lat="37.462328" lon="-3.949350">
        <ele>809.043</ele>
        <time>2021-10-16T19:12:46Z</time>
      </trkpt>
      <trkpt lat="37.461940" lon="-3.949176">
        <ele>808.617</ele>
        <time>2021-10-16T19:12:48Z</time>
      </trkpt>
      <trkpt lat="37.461556" lon="-3.949012">
        <ele>807.608</ele>
        <time>2021-10-16T19:12:50Z</time>
      </trkpt>
      <trkpt lat="37.461175" lon="-3.948850">
        <ele>806.676</ele>
        <time>2021-10-16T19:12:52Z</time>
      </trkpt>
      <trkpt lat="37.460980" lon="-3.948763">
        <ele>806.234</ele>
        <time>2021-10-16T19:12:53Z</time>
      </trkpt>
      <trkpt lat="37.460788" lon="-3.948673">
        <ele>806.763</ele>
        <time>2021-10-16T19:12:54Z</time>
      </trkpt>
      <trkpt lat="37.460404" lon="-3.948489">
        <ele>806.967</ele>
        <time>2021-10-16T19:12:56Z</time>
      </trkpt>
      <trkpt lat="37.460074" lon="-3.948350">
        <ele>807.822</ele>
        <time>2021-10-16T19:12:58Z</time>
      </trkpt>
      <trkpt lat="37.459757" lon="-3.948219">
        <ele>808.071</ele>
        <time>2021-10-16T19:13:00Z</time>
      </trkpt>
      <trkpt lat="37.459593" lon="-3.948149">
        <ele>808.613</ele>
        <time>2021-10-16T19:13:01Z</time>
      </trkpt>
      <trkpt lat="37.459419" lon="-3.948076">
        <ele>808.970</ele>
        <time>2021-10-16T19:13:02Z</time>
      </trkpt>
      <trkpt lat="37.459087" lon="-3.947922">
        <ele>810.058</ele>
        <time>2021-10-16T19:13:04Z</time>
      </trkpt>
      <trkpt lat="37.458737" lon="-3.947727">
        <ele>811.752</ele>
        <time>2021-10-16T19:13:06Z</time>
      </trkpt>
      <trkpt lat="37.458560" lon="-3.947618">
        <ele>812.917</ele>
        <time>2021-10-16T19:13:07Z</time>
      </trkpt>
      <trkpt lat="37.458384" lon="-3.947500">
        <ele>813.608</ele>
        <time>2021-10-16T19:13:08Z</time>
      </trkpt>
      <trkpt lat="37.458045" lon="-3.947242">
        <ele>814.413</ele>
        <time>2021-10-16T19:13:10Z</time>
      </trkpt>
      <trkpt lat="37.457732" lon="-3.946977">
        <ele>815.771</ele>
        <time>2021-10-16T19:13:12Z</time>
      </trkpt>
      <trkpt lat="37.457585" lon="-3.946838">
        <ele>815.860</ele>
        <time>2021-10-16T19:13:13Z</time>
      </trkpt>
      <trkpt lat="37.457442" lon="-3.946693">
        <ele>816.414</ele>
        <time>2021-10-16T19:13:14Z</time>
      </trkpt>
      <trkpt lat="37.457165" lon="-3.946394">
        <ele>817.279</ele>
        <time>2021-10-16T19:13:16Z</time>
      </trkpt>
      <trkpt lat="37.457025" lon="-3.946234">
        <ele>817.528</ele>
        <time>2021-10-16T19:13:17Z</time>
      </trkpt>
      <trkpt lat="37.456885" lon="-3.946070">
        <ele>817.730</ele>
        <time>2021-10-16T19:13:18Z</time>
      </trkpt>
      <trkpt lat="37.456602" lon="-3.945718">
        <ele>819.137</ele>
        <time>2021-10-16T19:13:20Z</time>
      </trkpt>
      <trkpt lat="37.456343" lon="-3.945343">
        <ele>820.556</ele>
        <time>2021-10-16T19:13:22Z</time>
      </trkpt>
      <trkpt lat="37.456223" lon="-3.945149">
        <ele>820.959</ele>
        <time>2021-10-16T19:13:23Z</time>
      </trkpt>
      <trkpt lat="37.456006" lon="-3.944783">
        <ele>823.214</ele>
        <time>2021-10-16T19:13:25Z</time>
      </trkpt>
      <trkpt lat="37.455904" lon="-3.944596">
        <ele>822.808</ele>
        <time>2021-10-16T19:13:26Z</time>
      </trkpt>
      <trkpt lat="37.455728" lon="-3.944252">
        <ele>824.963</ele>
        <time>2021-10-16T19:13:28Z</time>
      </trkpt>
      <trkpt lat="37.455634" lon="-3.944062">
        <ele>824.851</ele>
        <time>2021-10-16T19:13:29Z</time>
      </trkpt>
      <trkpt lat="37.455540" lon="-3.943863">
        <ele>824.940</ele>
        <time>2021-10-16T19:13:30Z</time>
      </trkpt>
      <trkpt lat="37.455342" lon="-3.943427">
        <ele>827.444</ele>
        <time>2021-10-16T19:13:32Z</time>
      </trkpt>
      <trkpt lat="37.455155" lon="-3.942997">
        <ele>827.729</ele>
        <time>2021-10-16T19:13:34Z</time>
      </trkpt>
      <trkpt lat="37.455060" lon="-3.942770">
        <ele>828.438</ele>
        <time>2021-10-16T19:13:35Z</time>
      </trkpt>
      <trkpt lat="37.454961" lon="-3.942547">
        <ele>829.130</ele>
        <time>2021-10-16T19:13:36Z</time>
      </trkpt>
      <trkpt lat="37.454755" lon="-3.942106">
        <ele>830.467</ele>
        <time>2021-10-16T19:13:38Z</time>
      </trkpt>
      <trkpt lat="37.454553" lon="-3.941678">
        <ele>830.921</ele>
        <time>2021-10-16T19:13:40Z</time>
      </trkpt>
      <trkpt lat="37.454359" lon="-3.941254">
        <ele>831.541</ele>
        <time>2021-10-16T19:13:42Z</time>
      </trkpt>
      <trkpt lat="37.454260" lon="-3.941046">
        <ele>832.105</ele>
        <time>2021-10-16T19:13:43Z</time>
      </trkpt>
      <trkpt lat="37.454163" lon="-3.940843">
        <ele>832.608</ele>
        <time>2021-10-16T19:13:44Z</time>
      </trkpt>
      <trkpt lat="37.453972" lon="-3.940449">
        <ele>833.930</ele>
        <time>2021-10-16T19:13:46Z</time>
      </trkpt>
      <trkpt lat="37.453782" lon="-3.940057">
        <ele>833.748</ele>
        <time>2021-10-16T19:13:48Z</time>
      </trkpt>
      <trkpt lat="37.453688" lon="-3.939860">
        <ele>834.537</ele>
        <time>2021-10-16T19:13:49Z</time>
      </trkpt>
      <trkpt lat="37.453504" lon="-3.939481">
        <ele>835.111</ele>
        <time>2021-10-16T19:13:51Z</time>
      </trkpt>
      <trkpt lat="37.453327" lon="-3.939100">
        <ele>835.036</ele>
        <time>2021-10-16T19:13:53Z</time>
      </trkpt>
      <trkpt lat="37.453236" lon="-3.938911">
        <ele>835.575</ele>
        <time>2021-10-16T19:13:54Z</time>
      </trkpt>
      <trkpt lat="37.453051" lon="-3.938525">
        <ele>836.067</ele>
        <time>2021-10-16T19:13:56Z</time>
      </trkpt>
      <trkpt lat="37.452882" lon="-3.938151">
        <ele>836.344</ele>
        <time>2021-10-16T19:13:58Z</time>
      </trkpt>
      <trkpt lat="37.452704" lon="-3.937774">
        <ele>837.332</ele>
        <time>2021-10-16T19:14:00Z</time>
      </trkpt>
      <trkpt lat="37.452511" lon="-3.937418">
        <ele>838.192</ele>
        <time>2021-10-16T19:14:02Z</time>
      </trkpt>
      <trkpt lat="37.452314" lon="-3.937114">
        <ele>840.011</ele>
        <time>2021-10-16T19:14:04Z</time>
      </trkpt>
      <trkpt lat="37.452218" lon="-3.936975">
        <ele>841.908</ele>
        <time>2021-10-16T19:14:05Z</time>
      </trkpt>
      <trkpt lat="37.452131" lon="-3.936845">
        <ele>843.131</ele>
        <time>2021-10-16T19:14:06Z</time>
      </trkpt>
      <trkpt lat="37.452059" lon="-3.936729">
        <ele>844.449</ele>
        <time>2021-10-16T19:14:07Z</time>
      </trkpt>
      <trkpt lat="37.451997" lon="-3.936627">
        <ele>845.188</ele>
        <time>2021-10-16T19:14:08Z</time>
      </trkpt>
      <trkpt lat="37.451903" lon="-3.936466">
        <ele>848.092</ele>
        <time>2021-10-16T19:14:10Z</time>
      </trkpt>
      <trkpt lat="37.451852" lon="-3.936356">
        <ele>849.127</ele>
        <time>2021-10-16T19:14:12Z</time>
      </trkpt>
      <trkpt lat="37.451826" lon="-3.936295">
        <ele>850.346</ele>
        <time>2021-10-16T19:14:14Z</time>
      </trkpt>
      <trkpt lat="37.451809" lon="-3.936214">
        <ele>872.568</ele>
        <time>2021-10-16T19:14:28Z</time>
      </trkpt>
      <trkpt lat="37.451805" lon="-3.936136">
        <ele>893.245</ele>
        <time>2021-10-16T19:14:29Z</time>
      </trkpt>
      <trkpt lat="37.451816" lon="-3.936018">
        <ele>906.393</ele>
        <time>2021-10-16T19:14:30Z</time>
      </trkpt>
      <trkpt lat="37.451864" lon="-3.935784">
        <ele>906.365</ele>
        <time>2021-10-16T19:14:32Z</time>
      </trkpt>
      <trkpt lat="37.451934" lon="-3.935558">
        <ele>906.321</ele>
        <time>2021-10-16T19:14:34Z</time>
      </trkpt>
      <trkpt lat="37.451957" lon="-3.935484">
        <ele>906.308</ele>
        <time>2021-10-16T19:14:35Z</time>
      </trkpt>
      <trkpt lat="37.451985" lon="-3.935347">
        <ele>906.347</ele>
        <time>2021-10-16T19:14:37Z</time>
      </trkpt>
      <trkpt lat="37.451989" lon="-3.935278">
        <ele>906.375</ele>
        <time>2021-10-16T19:14:38Z</time>
      </trkpt>
      <trkpt lat="37.451992" lon="-3.935150">
        <ele>906.354</ele>
        <time>2021-10-16T19:14:40Z</time>
      </trkpt>
      <trkpt lat="37.452007" lon="-3.935086">
        <ele>906.348</ele>
        <time>2021-10-16T19:14:41Z</time>
      </trkpt>
      <trkpt lat="37.452038" lon="-3.935030">
        <ele>906.343</ele>
        <time>2021-10-16T19:14:42Z</time>
      </trkpt>
      <trkpt lat="37.452140" lon="-3.934958">
        <ele>906.332</ele>
        <time>2021-10-16T19:14:44Z</time>
      </trkpt>
      <trkpt lat="37.452278" lon="-3.934962">
        <ele>906.344</ele>
        <time>2021-10-16T19:14:46Z</time>
      </trkpt>
      <trkpt lat="37.452390" lon="-3.934972">
        <ele>906.341</ele>
        <time>2021-10-16T19:14:48Z</time>
      </trkpt>
      <trkpt lat="37.452452" lon="-3.934945">
        <ele>906.396</ele>
        <time>2021-10-16T19:14:50Z</time>
      </trkpt>
      <trkpt lat="37.452488" lon="-3.934871">
        <ele>906.331</ele>
        <time>2021-10-16T19:14:52Z</time>
      </trkpt>
      <trkpt lat="37.452527" lon="-3.934781">
        <ele>906.324</ele>
        <time>2021-10-16T19:14:54Z</time>
      </trkpt>
      <trkpt lat="37.452565" lon="-3.934740">
        <ele>906.308</ele>
        <time>2021-10-16T19:14:56Z</time>
      </trkpt>
      <trkpt lat="37.452610" lon="-3.934775">
        <ele>906.347</ele>
        <time>2021-10-16T19:15:00Z</time>
      </trkpt>
      <trkpt lat="37.452551" lon="-3.934819">
        <ele>906.345</ele>
        <time>2021-10-16T19:15:02Z</time>
      </trkpt>
      <trkpt lat="37.452470" lon="-3.934847">
        <ele>906.384</ele>
        <time>2021-10-16T19:15:04Z</time>
      </trkpt>
      <trkpt lat="37.452423" lon="-3.934867">
        <ele>906.238</ele>
        <time>2021-10-16T19:15:06Z</time>
      </trkpt>
      <trkpt lat="37.452571" lon="-3.935003">
        <ele>906.483</ele>
        <time>2021-10-16T20:10:44Z</time>
      </trkpt>
      <trkpt lat="37.452564" lon="-3.935077">
        <ele>906.482</ele>
        <time>2021-10-16T20:12:31Z</time>
      </trkpt>
      <trkpt lat="37.452530" lon="-3.935138">
        <ele>906.424</ele>
        <time>2021-10-16T20:12:34Z</time>
      </trkpt>
      <trkpt lat="37.452487" lon="-3.935179">
        <ele>906.471</ele>
        <time>2021-10-16T20:12:46Z</time>
      </trkpt>
      <trkpt lat="37.452444" lon="-3.935209">
        <ele>906.336</ele>
        <time>2021-10-16T20:12:48Z</time>
      </trkpt>
      <trkpt lat="37.452408" lon="-3.935248">
        <ele>906.217</ele>
        <time>2021-10-16T20:12:50Z</time>
      </trkpt>
      <trkpt lat="37.452376" lon="-3.935316">
        <ele>906.218</ele>
        <time>2021-10-16T20:12:52Z</time>
      </trkpt>
      <trkpt lat="37.452338" lon="-3.935388">
        <ele>906.208</ele>
        <time>2021-10-16T20:12:54Z</time>
      </trkpt>
      <trkpt lat="37.452305" lon="-3.935430">
        <ele>906.291</ele>
        <time>2021-10-16T20:12:55Z</time>
      </trkpt>
      <trkpt lat="37.452256" lon="-3.935473">
        <ele>906.169</ele>
        <time>2021-10-16T20:12:56Z</time>
      </trkpt>
      <trkpt lat="37.452143" lon="-3.935530">
        <ele>906.098</ele>
        <time>2021-10-16T20:12:58Z</time>
      </trkpt>
      <trkpt lat="37.452084" lon="-3.935562">
        <ele>906.042</ele>
        <time>2021-10-16T20:12:59Z</time>
      </trkpt>
      <trkpt lat="37.451993" lon="-3.935668">
        <ele>906.057</ele>
        <time>2021-10-16T20:13:01Z</time>
      </trkpt>
      <trkpt lat="37.451957" lon="-3.935746">
        <ele>906.026</ele>
        <time>2021-10-16T20:13:02Z</time>
      </trkpt>
      <trkpt lat="37.451898" lon="-3.935910">
        <ele>906.018</ele>
        <time>2021-10-16T20:13:04Z</time>
      </trkpt>
      <trkpt lat="37.451830" lon="-3.936057">
        <ele>906.095</ele>
        <time>2021-10-16T20:13:06Z</time>
      </trkpt>
      <trkpt lat="37.451757" lon="-3.936108">
        <ele>906.025</ele>
        <time>2021-10-16T20:13:08Z</time>
      </trkpt>
      <trkpt lat="37.451693" lon="-3.936071">
        <ele>906.026</ele>
        <time>2021-10-16T20:13:10Z</time>
      </trkpt>
      <trkpt lat="37.451670" lon="-3.936018">
        <ele>906.108</ele>
        <time>2021-10-16T20:13:11Z</time>
      </trkpt>
      <trkpt lat="37.451647" lon="-3.935940">
        <ele>906.108</ele>
        <time>2021-10-16T20:13:12Z</time>
      </trkpt>
      <trkpt lat="37.451599" lon="-3.935749">
        <ele>906.150</ele>
        <time>2021-10-16T20:13:14Z</time>
      </trkpt>
      <trkpt lat="37.451537" lon="-3.935536">
        <ele>906.168</ele>
        <time>2021-10-16T20:13:16Z</time>
      </trkpt>
      <trkpt lat="37.451471" lon="-3.935297">
        <ele>906.187</ele>
        <time>2021-10-16T20:13:18Z</time>
      </trkpt>
      <trkpt lat="37.451441" lon="-3.935171">
        <ele>906.121</ele>
        <time>2021-10-16T20:13:19Z</time>
      </trkpt>
      <trkpt lat="37.451413" lon="-3.935042">
        <ele>906.136</ele>
        <time>2021-10-16T20:13:20Z</time>
      </trkpt>
      <trkpt lat="37.451365" lon="-3.934763">
        <ele>906.145</ele>
        <time>2021-10-16T20:13:22Z</time>
      </trkpt>
      <trkpt lat="37.451329" lon="-3.934456">
        <ele>906.197</ele>
        <time>2021-10-16T20:13:24Z</time>
      </trkpt>
      <trkpt lat="37.451301" lon="-3.934145">
        <ele>906.164</ele>
        <time>2021-10-16T20:13:26Z</time>
      </trkpt>
      <trkpt lat="37.451275" lon="-3.933832">
        <ele>906.148</ele>
        <time>2021-10-16T20:13:28Z</time>
      </trkpt>
      <trkpt lat="37.451252" lon="-3.933551">
        <ele>906.161</ele>
        <time>2021-10-16T20:13:30Z</time>
      </trkpt>
      <trkpt lat="37.451235" lon="-3.933275">
        <ele>906.117</ele>
        <time>2021-10-16T20:13:32Z</time>
      </trkpt>
      <trkpt lat="37.451230" lon="-3.932961">
        <ele>906.108</ele>
        <time>2021-10-16T20:13:34Z</time>
      </trkpt>
      <trkpt lat="37.451227" lon="-3.932791">
        <ele>906.172</ele>
        <time>2021-10-16T20:13:35Z</time>
      </trkpt>
      <trkpt lat="37.451216" lon="-3.932445">
        <ele>906.170</ele>
        <time>2021-10-16T20:13:37Z</time>
      </trkpt>
      <trkpt lat="37.451210" lon="-3.932265">
        <ele>906.199</ele>
        <time>2021-10-16T20:13:38Z</time>
      </trkpt>
      <trkpt lat="37.451197" lon="-3.931886">
        <ele>906.113</ele>
        <time>2021-10-16T20:13:40Z</time>
      </trkpt>
      <trkpt lat="37.451185" lon="-3.931474">
        <ele>906.168</ele>
        <time>2021-10-16T20:13:42Z</time>
      </trkpt>
      <trkpt lat="37.451171" lon="-3.931047">
        <ele>906.157</ele>
        <time>2021-10-16T20:13:44Z</time>
      </trkpt>
      <trkpt lat="37.451155" lon="-3.930618">
        <ele>906.179</ele>
        <time>2021-10-16T20:13:46Z</time>
      </trkpt>
      <trkpt lat="37.451137" lon="-3.930174">
        <ele>906.026</ele>
        <time>2021-10-16T20:13:48Z</time>
      </trkpt>
      <trkpt lat="37.451127" lon="-3.929948">
        <ele>906.097</ele>
        <time>2021-10-16T20:13:49Z</time>
      </trkpt>
      <trkpt lat="37.451117" lon="-3.929717">
        <ele>906.023</ele>
        <time>2021-10-16T20:13:50Z</time>
      </trkpt>
      <trkpt lat="37.451095" lon="-3.929258">
        <ele>906.025</ele>
        <time>2021-10-16T20:13:52Z</time>
      </trkpt>
      <trkpt lat="37.451084" lon="-3.929027">
        <ele>906.008</ele>
        <time>2021-10-16T20:13:53Z</time>
      </trkpt>
      <trkpt lat="37.451055" lon="-3.928570">
        <ele>906.177</ele>
        <time>2021-10-16T20:13:55Z</time>
      </trkpt>
      <trkpt lat="37.451037" lon="-3.928336">
        <ele>906.185</ele>
        <time>2021-10-16T20:13:56Z</time>
      </trkpt>
      <trkpt lat="37.450997" lon="-3.927881">
        <ele>906.154</ele>
        <time>2021-10-16T20:13:58Z</time>
      </trkpt>
      <trkpt lat="37.450971" lon="-3.927646">
        <ele>906.158</ele>
        <time>2021-10-16T20:13:59Z</time>
      </trkpt>
      <trkpt lat="37.450943" lon="-3.927409">
        <ele>906.183</ele>
        <time>2021-10-16T20:14:00Z</time>
      </trkpt>
      <trkpt lat="37.450884" lon="-3.926927">
        <ele>906.152</ele>
        <time>2021-10-16T20:14:02Z</time>
      </trkpt>
      <trkpt lat="37.450813" lon="-3.926450">
        <ele>906.174</ele>
        <time>2021-10-16T20:14:04Z</time>
      </trkpt>
      <trkpt lat="37.450724" lon="-3.925961">
        <ele>906.121</ele>
        <time>2021-10-16T20:14:06Z</time>
      </trkpt>
      <trkpt lat="37.450629" lon="-3.925486">
        <ele>906.151</ele>
        <time>2021-10-16T20:14:08Z</time>
      </trkpt>
      <trkpt lat="37.450527" lon="-3.925016">
        <ele>843.601</ele>
        <time>2021-10-16T20:14:10Z</time>
      </trkpt>
      <trkpt lat="37.450418" lon="-3.924546">
        <ele>843.111</ele>
        <time>2021-10-16T20:14:12Z</time>
      </trkpt>
      <trkpt lat="37.450359" lon="-3.924308">
        <ele>842.408</ele>
        <time>2021-10-16T20:14:13Z</time>
      </trkpt>
      <trkpt lat="37.450297" lon="-3.924069">
        <ele>842.313</ele>
        <time>2021-10-16T20:14:14Z</time>
      </trkpt>
      <trkpt lat="37.450176" lon="-3.923592">
        <ele>840.841</ele>
        <time>2021-10-16T20:14:16Z</time>
      </trkpt>
      <trkpt lat="37.450110" lon="-3.923344">
        <ele>840.730</ele>
        <time>2021-10-16T20:14:17Z</time>
      </trkpt>
      <trkpt lat="37.450043" lon="-3.923096">
        <ele>840.194</ele>
        <time>2021-10-16T20:14:18Z</time>
      </trkpt>
      <trkpt lat="37.449907" lon="-3.922595">
        <ele>838.879</ele>
        <time>2021-10-16T20:14:20Z</time>
      </trkpt>
      <trkpt lat="37.449766" lon="-3.922098">
        <ele>838.478</ele>
        <time>2021-10-16T20:14:22Z</time>
      </trkpt>
      <trkpt lat="37.449687" lon="-3.921849">
        <ele>838.230</ele>
        <time>2021-10-16T20:14:23Z</time>
      </trkpt>
      <trkpt lat="37.449525" lon="-3.921351">
        <ele>838.297</ele>
        <time>2021-10-16T20:14:25Z</time>
      </trkpt>
      <trkpt lat="37.449437" lon="-3.921098">
        <ele>838.475</ele>
        <time>2021-10-16T20:14:26Z</time>
      </trkpt>
      <trkpt lat="37.449265" lon="-3.920628">
        <ele>838.628</ele>
        <time>2021-10-16T20:14:28Z</time>
      </trkpt>
      <trkpt lat="37.449082" lon="-3.920173">
        <ele>839.720</ele>
        <time>2021-10-16T20:14:30Z</time>
      </trkpt>
      <trkpt lat="37.448987" lon="-3.919952">
        <ele>840.108</ele>
        <time>2021-10-16T20:14:31Z</time>
      </trkpt>
      <trkpt lat="37.448886" lon="-3.919728">
        <ele>840.315</ele>
        <time>2021-10-16T20:14:32Z</time>
      </trkpt>
      <trkpt lat="37.448688" lon="-3.919309">
        <ele>840.853</ele>
        <time>2021-10-16T20:14:34Z</time>
      </trkpt>
      <trkpt lat="37.448476" lon="-3.918890">
        <ele>841.132</ele>
        <time>2021-10-16T20:14:36Z</time>
      </trkpt>
      <trkpt lat="37.448253" lon="-3.918479">
        <ele>841.176</ele>
        <time>2021-10-16T20:14:38Z</time>
      </trkpt>
      <trkpt lat="37.448025" lon="-3.918073">
        <ele>840.851</ele>
        <time>2021-10-16T20:14:40Z</time>
      </trkpt>
      <trkpt lat="37.447781" lon="-3.917673">
        <ele>840.890</ele>
        <time>2021-10-16T20:14:42Z</time>
      </trkpt>
      <trkpt lat="37.447523" lon="-3.917279">
        <ele>842.062</ele>
        <time>2021-10-16T20:14:44Z</time>
      </trkpt>
      <trkpt lat="37.447255" lon="-3.916895">
        <ele>841.439</ele>
        <time>2021-10-16T20:14:46Z</time>
      </trkpt>
      <trkpt lat="37.446975" lon="-3.916519">
        <ele>841.188</ele>
        <time>2021-10-16T20:14:48Z</time>
      </trkpt>
      <trkpt lat="37.446682" lon="-3.916153">
        <ele>841.324</ele>
        <time>2021-10-16T20:14:50Z</time>
      </trkpt>
      <trkpt lat="37.446385" lon="-3.915805">
        <ele>841.026</ele>
        <time>2021-10-16T20:14:52Z</time>
      </trkpt>
      <trkpt lat="37.446090" lon="-3.915470">
        <ele>840.508</ele>
        <time>2021-10-16T20:14:54Z</time>
      </trkpt>
      <trkpt lat="37.445786" lon="-3.915129">
        <ele>840.516</ele>
        <time>2021-10-16T20:14:56Z</time>
      </trkpt>
      <trkpt lat="37.445489" lon="-3.914795">
        <ele>840.994</ele>
        <time>2021-10-16T20:14:58Z</time>
      </trkpt>
      <trkpt lat="37.445337" lon="-3.914625">
        <ele>840.663</ele>
        <time>2021-10-16T20:14:59Z</time>
      </trkpt>
      <trkpt lat="37.445185" lon="-3.914453">
        <ele>839.787</ele>
        <time>2021-10-16T20:15:00Z</time>
      </trkpt>
      <trkpt lat="37.444881" lon="-3.914098">
        <ele>839.032</ele>
        <time>2021-10-16T20:15:02Z</time>
      </trkpt>
      <trkpt lat="37.444595" lon="-3.913746">
        <ele>838.321</ele>
        <time>2021-10-16T20:15:04Z</time>
      </trkpt>
      <trkpt lat="37.444305" lon="-3.913378">
        <ele>838.093</ele>
        <time>2021-10-16T20:15:06Z</time>
      </trkpt>
      <trkpt lat="37.444163" lon="-3.913188">
        <ele>837.310</ele>
        <time>2021-10-16T20:15:07Z</time>
      </trkpt>
      <trkpt lat="37.444022" lon="-3.912992">
        <ele>836.872</ele>
        <time>2021-10-16T20:15:08Z</time>
      </trkpt>
      <trkpt lat="37.443748" lon="-3.912604">
        <ele>835.513</ele>
        <time>2021-10-16T20:15:10Z</time>
      </trkpt>
      <trkpt lat="37.443490" lon="-3.912224">
        <ele>835.214</ele>
        <time>2021-10-16T20:15:12Z</time>
      </trkpt>
      <trkpt lat="37.443234" lon="-3.911829">
        <ele>834.108</ele>
        <time>2021-10-16T20:15:14Z</time>
      </trkpt>
      <trkpt lat="37.442983" lon="-3.911421">
        <ele>833.035</ele>
        <time>2021-10-16T20:15:16Z</time>
      </trkpt>
      <trkpt lat="37.442737" lon="-3.910995">
        <ele>832.553</ele>
        <time>2021-10-16T20:15:18Z</time>
      </trkpt>
      <trkpt lat="37.442512" lon="-3.910583">
        <ele>832.962</ele>
        <time>2021-10-16T20:15:20Z</time>
      </trkpt>
      <trkpt lat="37.442307" lon="-3.910184">
        <ele>832.126</ele>
        <time>2021-10-16T20:15:22Z</time>
      </trkpt>
      <trkpt lat="37.442203" lon="-3.909977">
        <ele>831.661</ele>
        <time>2021-10-16T20:15:23Z</time>
      </trkpt>
      <trkpt lat="37.442101" lon="-3.909765">
        <ele>831.170</ele>
        <time>2021-10-16T20:15:24Z</time>
      </trkpt>
      <trkpt lat="37.441892" lon="-3.909318">
        <ele>829.012</ele>
        <time>2021-10-16T20:15:26Z</time>
      </trkpt>
      <trkpt lat="37.441694" lon="-3.908873">
        <ele>827.069</ele>
        <time>2021-10-16T20:15:28Z</time>
      </trkpt>
      <trkpt lat="37.441595" lon="-3.908648">
        <ele>825.973</ele>
        <time>2021-10-16T20:15:29Z</time>
      </trkpt>
      <trkpt lat="37.441500" lon="-3.908425">
        <ele>824.585</ele>
        <time>2021-10-16T20:15:30Z</time>
      </trkpt>
      <trkpt lat="37.441307" lon="-3.907974">
        <ele>823.013</ele>
        <time>2021-10-16T20:15:32Z</time>
      </trkpt>
      <trkpt lat="37.441124" lon="-3.907533">
        <ele>821.308</ele>
        <time>2021-10-16T20:15:34Z</time>
      </trkpt>
      <trkpt lat="37.441029" lon="-3.907306">
        <ele>821.325</ele>
        <time>2021-10-16T20:15:35Z</time>
      </trkpt>
      <trkpt lat="37.440835" lon="-3.906852">
        <ele>819.983</ele>
        <time>2021-10-16T20:15:37Z</time>
      </trkpt>
      <trkpt lat="37.440734" lon="-3.906620">
        <ele>819.772</ele>
        <time>2021-10-16T20:15:38Z</time>
      </trkpt>
      <trkpt lat="37.440535" lon="-3.906180">
        <ele>818.416</ele>
        <time>2021-10-16T20:15:40Z</time>
      </trkpt>
      <trkpt lat="37.440325" lon="-3.905736">
        <ele>817.361</ele>
        <time>2021-10-16T20:15:42Z</time>
      </trkpt>
      <trkpt lat="37.440101" lon="-3.905301">
        <ele>816.960</ele>
        <time>2021-10-16T20:15:44Z</time>
      </trkpt>
      <trkpt lat="37.439863" lon="-3.904886">
        <ele>814.982</ele>
        <time>2021-10-16T20:15:46Z</time>
      </trkpt>
      <trkpt lat="37.439736" lon="-3.904676">
        <ele>813.739</ele>
        <time>2021-10-16T20:15:47Z</time>
      </trkpt>
      <trkpt lat="37.439609" lon="-3.904471">
        <ele>813.288</ele>
        <time>2021-10-16T20:15:48Z</time>
      </trkpt>
      <trkpt lat="37.439366" lon="-3.904078">
        <ele>811.224</ele>
        <time>2021-10-16T20:15:50Z</time>
      </trkpt>
      <trkpt lat="37.439147" lon="-3.903712">
        <ele>809.526</ele>
        <time>2021-10-16T20:15:52Z</time>
      </trkpt>
      <trkpt lat="37.438936" lon="-3.903348">
        <ele>806.708</ele>
        <time>2021-10-16T20:15:54Z</time>
      </trkpt>
      <trkpt lat="37.438718" lon="-3.903002">
        <ele>804.836</ele>
        <time>2021-10-16T20:15:56Z</time>
      </trkpt>
      <trkpt lat="37.438484" lon="-3.902681">
        <ele>801.794</ele>
        <time>2021-10-16T20:15:58Z</time>
      </trkpt>
      <trkpt lat="37.438355" lon="-3.902509">
        <ele>800.943</ele>
        <time>2021-10-16T20:15:59Z</time>
      </trkpt>
      <trkpt lat="37.438219" lon="-3.902333">
        <ele>800.337</ele>
        <time>2021-10-16T20:16:00Z</time>
      </trkpt>
      <trkpt lat="37.437931" lon="-3.901989">
        <ele>800.172</ele>
        <time>2021-10-16T20:16:02Z</time>
      </trkpt>
      <trkpt lat="37.437640" lon="-3.901657">
        <ele>799.011</ele>
        <time>2021-10-16T20:16:04Z</time>
      </trkpt>
      <trkpt lat="37.437492" lon="-3.901487">
        <ele>798.443</ele>
        <time>2021-10-16T20:16:05Z</time>
      </trkpt>
      <trkpt lat="37.437349" lon="-3.901322">
        <ele>797.880</ele>
        <time>2021-10-16T20:16:06Z</time>
      </trkpt>
      <trkpt lat="37.437072" lon="-3.900995">
        <ele>797.276</ele>
        <time>2021-10-16T20:16:08Z</time>
      </trkpt>
      <trkpt lat="37.436813" lon="-3.900694">
        <ele>797.590</ele>
        <time>2021-10-16T20:16:10Z</time>
      </trkpt>
      <trkpt lat="37.436531" lon="-3.900392">
        <ele>797.919</ele>
        <time>2021-10-16T20:16:12Z</time>
      </trkpt>
      <trkpt lat="37.436202" lon="-3.900111">
        <ele>797.108</ele>
        <time>2021-10-16T20:16:14Z</time>
      </trkpt>
      <trkpt lat="37.435846" lon="-3.899892">
        <ele>796.595</ele>
        <time>2021-10-16T20:16:16Z</time>
      </trkpt>
      <trkpt lat="37.435453" lon="-3.899730">
        <ele>796.693</ele>
        <time>2021-10-16T20:16:18Z</time>
      </trkpt>
      <trkpt lat="37.435043" lon="-3.899609">
        <ele>796.712</ele>
        <time>2021-10-16T20:16:20Z</time>
      </trkpt>
      <trkpt lat="37.434631" lon="-3.899492">
        <ele>796.146</ele>
        <time>2021-10-16T20:16:22Z</time>
      </trkpt>
      <trkpt lat="37.434216" lon="-3.899358">
        <ele>795.441</ele>
        <time>2021-10-16T20:16:24Z</time>
      </trkpt>
      <trkpt lat="37.433813" lon="-3.899168">
        <ele>794.840</ele>
        <time>2021-10-16T20:16:26Z</time>
      </trkpt>
      <trkpt lat="37.433457" lon="-3.898906">
        <ele>795.122</ele>
        <time>2021-10-16T20:16:28Z</time>
      </trkpt>
      <trkpt lat="37.433151" lon="-3.898567">
        <ele>794.969</ele>
        <time>2021-10-16T20:16:30Z</time>
      </trkpt>
      <trkpt lat="37.433022" lon="-3.898374">
        <ele>794.846</ele>
        <time>2021-10-16T20:16:31Z</time>
      </trkpt>
      <trkpt lat="37.432906" lon="-3.898162">
        <ele>794.088</ele>
        <time>2021-10-16T20:16:32Z</time>
      </trkpt>
      <trkpt lat="37.432728" lon="-3.897731">
        <ele>794.616</ele>
        <time>2021-10-16T20:16:34Z</time>
      </trkpt>
      <trkpt lat="37.432606" lon="-3.897260">
        <ele>795.108</ele>
        <time>2021-10-16T20:16:36Z</time>
      </trkpt>
      <trkpt lat="37.432521" lon="-3.896752">
        <ele>794.892</ele>
        <time>2021-10-16T20:16:38Z</time>
      </trkpt>
      <trkpt lat="37.432441" lon="-3.896244">
        <ele>793.720</ele>
        <time>2021-10-16T20:16:40Z</time>
      </trkpt>
      <trkpt lat="37.432399" lon="-3.895980">
        <ele>793.389</ele>
        <time>2021-10-16T20:16:41Z</time>
      </trkpt>
      <trkpt lat="37.432316" lon="-3.895452">
        <ele>792.463</ele>
        <time>2021-10-16T20:16:43Z</time>
      </trkpt>
      <trkpt lat="37.432275" lon="-3.895182">
        <ele>792.038</ele>
        <time>2021-10-16T20:16:44Z</time>
      </trkpt>
      <trkpt lat="37.432190" lon="-3.894661">
        <ele>791.187</ele>
        <time>2021-10-16T20:16:46Z</time>
      </trkpt>
      <trkpt lat="37.432149" lon="-3.894396">
        <ele>790.569</ele>
        <time>2021-10-16T20:16:47Z</time>
      </trkpt>
      <trkpt lat="37.432110" lon="-3.894131">
        <ele>790.586</ele>
        <time>2021-10-16T20:16:48Z</time>
      </trkpt>
      <trkpt lat="37.432025" lon="-3.893591">
        <ele>789.446</ele>
        <time>2021-10-16T20:16:50Z</time>
      </trkpt>
      <trkpt lat="37.431944" lon="-3.893054">
        <ele>788.188</ele>
        <time>2021-10-16T20:16:52Z</time>
      </trkpt>
      <trkpt lat="37.431860" lon="-3.892500">
        <ele>787.116</ele>
        <time>2021-10-16T20:16:54Z</time>
      </trkpt>
      <trkpt lat="37.431770" lon="-3.891938">
        <ele>784.508</ele>
        <time>2021-10-16T20:16:56Z</time>
      </trkpt>
      <trkpt lat="37.431670" lon="-3.891403">
        <ele>783.382</ele>
        <time>2021-10-16T20:16:58Z</time>
      </trkpt>
      <trkpt lat="37.431536" lon="-3.890875">
        <ele>782.780</ele>
        <time>2021-10-16T20:17:00Z</time>
      </trkpt>
      <trkpt lat="37.431366" lon="-3.890361">
        <ele>781.859</ele>
        <time>2021-10-16T20:17:02Z</time>
      </trkpt>
      <trkpt lat="37.431166" lon="-3.889884">
        <ele>780.483</ele>
        <time>2021-10-16T20:17:04Z</time>
      </trkpt>
      <trkpt lat="37.430940" lon="-3.889410">
        <ele>780.128</ele>
        <time>2021-10-16T20:17:06Z</time>
      </trkpt>
      <trkpt lat="37.430704" lon="-3.888926">
        <ele>780.117</ele>
        <time>2021-10-16T20:17:08Z</time>
      </trkpt>
      <trkpt lat="37.430477" lon="-3.888460">
        <ele>780.659</ele>
        <time>2021-10-16T20:17:10Z</time>
      </trkpt>
      <trkpt lat="37.430362" lon="-3.888225">
        <ele>780.446</ele>
        <time>2021-10-16T20:17:11Z</time>
      </trkpt>
      <trkpt lat="37.430248" lon="-3.887992">
        <ele>779.568</ele>
        <time>2021-10-16T20:17:12Z</time>
      </trkpt>
      <trkpt lat="37.430019" lon="-3.887527">
        <ele>778.942</ele>
        <time>2021-10-16T20:17:14Z</time>
      </trkpt>
      <trkpt lat="37.429796" lon="-3.887079">
        <ele>778.826</ele>
        <time>2021-10-16T20:17:16Z</time>
      </trkpt>
      <trkpt lat="37.429564" lon="-3.886622">
        <ele>777.308</ele>
        <time>2021-10-16T20:17:18Z</time>
      </trkpt>
      <trkpt lat="37.429332" lon="-3.886151">
        <ele>778.354</ele>
        <time>2021-10-16T20:17:20Z</time>
      </trkpt>
      <trkpt lat="37.429120" lon="-3.885676">
        <ele>779.642</ele>
        <time>2021-10-16T20:17:22Z</time>
      </trkpt>
      <trkpt lat="37.429022" lon="-3.885429">
        <ele>779.441</ele>
        <time>2021-10-16T20:17:23Z</time>
      </trkpt>
      <trkpt lat="37.428861" lon="-3.884915">
        <ele>778.955</ele>
        <time>2021-10-16T20:17:25Z</time>
      </trkpt>
      <trkpt lat="37.428799" lon="-3.884642">
        <ele>778.840</ele>
        <time>2021-10-16T20:17:26Z</time>
      </trkpt>
      <trkpt lat="37.428701" lon="-3.884116">
        <ele>779.489</ele>
        <time>2021-10-16T20:17:28Z</time>
      </trkpt>
      <trkpt lat="37.428608" lon="-3.883573">
        <ele>778.381</ele>
        <time>2021-10-16T20:17:30Z</time>
      </trkpt>
      <trkpt lat="37.428555" lon="-3.883307">
        <ele>778.728</ele>
        <time>2021-10-16T20:17:31Z</time>
      </trkpt>
      <trkpt lat="37.428489" lon="-3.883037">
        <ele>778.836</ele>
        <time>2021-10-16T20:17:32Z</time>
      </trkpt>
      <trkpt lat="37.428313" lon="-3.882551">
        <ele>778.817</ele>
        <time>2021-10-16T20:17:34Z</time>
      </trkpt>
      <trkpt lat="37.428198" lon="-3.882317">
        <ele>777.418</ele>
        <time>2021-10-16T20:17:35Z</time>
      </trkpt>
      <trkpt lat="37.427928" lon="-3.881886">
        <ele>777.508</ele>
        <time>2021-10-16T20:17:37Z</time>
      </trkpt>
      <trkpt lat="37.427770" lon="-3.881683">
        <ele>777.271</ele>
        <time>2021-10-16T20:17:38Z</time>
      </trkpt>
      <trkpt lat="37.427449" lon="-3.881319">
        <ele>777.969</ele>
        <time>2021-10-16T20:17:40Z</time>
      </trkpt>
      <trkpt lat="37.427283" lon="-3.881132">
        <ele>778.178</ele>
        <time>2021-10-16T20:17:41Z</time>
      </trkpt>
      <trkpt lat="37.427119" lon="-3.880942">
        <ele>777.652</ele>
        <time>2021-10-16T20:17:42Z</time>
      </trkpt>
      <trkpt lat="37.426799" lon="-3.880541">
        <ele>777.057</ele>
        <time>2021-10-16T20:17:44Z</time>
      </trkpt>
      <trkpt lat="37.426509" lon="-3.880154">
        <ele>776.566</ele>
        <time>2021-10-16T20:17:46Z</time>
      </trkpt>
      <trkpt lat="37.426368" lon="-3.879958">
        <ele>775.668</ele>
        <time>2021-10-16T20:17:47Z</time>
      </trkpt>
      <trkpt lat="37.426230" lon="-3.879762">
        <ele>775.345</ele>
        <time>2021-10-16T20:17:48Z</time>
      </trkpt>
      <trkpt lat="37.425955" lon="-3.879370">
        <ele>775.571</ele>
        <time>2021-10-16T20:17:50Z</time>
      </trkpt>
      <trkpt lat="37.425708" lon="-3.878971">
        <ele>774.741</ele>
        <time>2021-10-16T20:17:52Z</time>
      </trkpt>
      <trkpt lat="37.425500" lon="-3.878518">
        <ele>775.415</ele>
        <time>2021-10-16T20:17:54Z</time>
      </trkpt>
      <trkpt lat="37.425411" lon="-3.878283">
        <ele>775.508</ele>
        <time>2021-10-16T20:17:55Z</time>
      </trkpt>
      <trkpt lat="37.425323" lon="-3.878037">
        <ele>775.225</ele>
        <time>2021-10-16T20:17:56Z</time>
      </trkpt>
      <trkpt lat="37.425150" lon="-3.877569">
        <ele>775.983</ele>
        <time>2021-10-16T20:17:58Z</time>
      </trkpt>
      <trkpt lat="37.425061" lon="-3.877327">
        <ele>776.332</ele>
        <time>2021-10-16T20:17:59Z</time>
      </trkpt>
      <trkpt lat="37.424971" lon="-3.877084">
        <ele>776.336</ele>
        <time>2021-10-16T20:18:00Z</time>
      </trkpt>
      <trkpt lat="37.424788" lon="-3.876587">
        <ele>776.141</ele>
        <time>2021-10-16T20:18:02Z</time>
      </trkpt>
      <trkpt lat="37.424609" lon="-3.876100">
        <ele>774.930</ele>
        <time>2021-10-16T20:18:04Z</time>
      </trkpt>
      <trkpt lat="37.424520" lon="-3.875845">
        <ele>774.222</ele>
        <time>2021-10-16T20:18:05Z</time>
      </trkpt>
      <trkpt lat="37.424343" lon="-3.875328">
        <ele>773.579</ele>
        <time>2021-10-16T20:18:07Z</time>
      </trkpt>
      <trkpt lat="37.424254" lon="-3.875058">
        <ele>772.912</ele>
        <time>2021-10-16T20:18:08Z</time>
      </trkpt>
      <trkpt lat="37.424084" lon="-3.874556">
        <ele>771.932</ele>
        <time>2021-10-16T20:18:10Z</time>
      </trkpt>
      <trkpt lat="37.423999" lon="-3.874309">
        <ele>771.605</ele>
        <time>2021-10-16T20:18:11Z</time>
      </trkpt>
      <trkpt lat="37.423914" lon="-3.874063">
        <ele>771.108</ele>
        <time>2021-10-16T20:18:12Z</time>
      </trkpt>
      <trkpt lat="37.423744" lon="-3.873560">
        <ele>771.119</ele>
        <time>2021-10-16T20:18:14Z</time>
      </trkpt>
      <trkpt lat="37.423580" lon="-3.873092">
        <ele>770.437</ele>
        <time>2021-10-16T20:18:16Z</time>
      </trkpt>
      <trkpt lat="37.423502" lon="-3.872870">
        <ele>770.526</ele>
        <time>2021-10-16T20:18:17Z</time>
      </trkpt>
      <trkpt lat="37.423428" lon="-3.872658">
        <ele>770.640</ele>
        <time>2021-10-16T20:18:18Z</time>
      </trkpt>
      <trkpt lat="37.423285" lon="-3.872231">
        <ele>770.065</ele>
        <time>2021-10-16T20:18:20Z</time>
      </trkpt>
      <trkpt lat="37.423142" lon="-3.871812">
        <ele>769.014</ele>
        <time>2021-10-16T20:18:22Z</time>
      </trkpt>
      <trkpt lat="37.423064" lon="-3.871589">
        <ele>768.856</ele>
        <time>2021-10-16T20:18:23Z</time>
      </trkpt>
      <trkpt lat="37.422902" lon="-3.871130">
        <ele>768.713</ele>
        <time>2021-10-16T20:18:25Z</time>
      </trkpt>
      <trkpt lat="37.422815" lon="-3.870886">
        <ele>769.148</ele>
        <time>2021-10-16T20:18:26Z</time>
      </trkpt>
      <trkpt lat="37.422649" lon="-3.870419">
        <ele>768.461</ele>
        <time>2021-10-16T20:18:28Z</time>
      </trkpt>
      <trkpt lat="37.422565" lon="-3.870178">
        <ele>768.917</ele>
        <time>2021-10-16T20:18:29Z</time>
      </trkpt>
      <trkpt lat="37.422399" lon="-3.869693">
        <ele>769.308</ele>
        <time>2021-10-16T20:18:31Z</time>
      </trkpt>
      <trkpt lat="37.422312" lon="-3.869442">
        <ele>770.172</ele>
        <time>2021-10-16T20:18:32Z</time>
      </trkpt>
      <trkpt lat="37.422143" lon="-3.868956">
        <ele>771.690</ele>
        <time>2021-10-16T20:18:34Z</time>
      </trkpt>
      <trkpt lat="37.421955" lon="-3.868472">
        <ele>771.689</ele>
        <time>2021-10-16T20:18:36Z</time>
      </trkpt>
      <trkpt lat="37.421730" lon="-3.868027">
        <ele>772.273</ele>
        <time>2021-10-16T20:18:38Z</time>
      </trkpt>
      <trkpt lat="37.421466" lon="-3.867642">
        <ele>770.678</ele>
        <time>2021-10-16T20:18:40Z</time>
      </trkpt>
      <trkpt lat="37.421320" lon="-3.867456">
        <ele>770.117</ele>
        <time>2021-10-16T20:18:41Z</time>
      </trkpt>
      <trkpt lat="37.421174" lon="-3.867268">
        <ele>771.179</ele>
        <time>2021-10-16T20:18:42Z</time>
      </trkpt>
      <trkpt lat="37.420883" lon="-3.866873">
        <ele>769.586</ele>
        <time>2021-10-16T20:18:44Z</time>
      </trkpt>
      <trkpt lat="37.420618" lon="-3.866467">
        <ele>769.221</ele>
        <time>2021-10-16T20:18:46Z</time>
      </trkpt>
      <trkpt lat="37.420375" lon="-3.866024">
        <ele>768.641</ele>
        <time>2021-10-16T20:18:48Z</time>
      </trkpt>
      <trkpt lat="37.420263" lon="-3.865796">
        <ele>768.505</ele>
        <time>2021-10-16T20:18:49Z</time>
      </trkpt>
      <trkpt lat="37.420155" lon="-3.865560">
        <ele>768.308</ele>
        <time>2021-10-16T20:18:50Z</time>
      </trkpt>
      <trkpt lat="37.419950" lon="-3.865108">
        <ele>767.680</ele>
        <time>2021-10-16T20:18:52Z</time>
      </trkpt>
      <trkpt lat="37.419842" lon="-3.864877">
        <ele>767.868</ele>
        <time>2021-10-16T20:18:53Z</time>
      </trkpt>
      <trkpt lat="37.419629" lon="-3.864415">
        <ele>767.177</ele>
        <time>2021-10-16T20:18:55Z</time>
      </trkpt>
      <trkpt lat="37.419522" lon="-3.864175">
        <ele>767.271</ele>
        <time>2021-10-16T20:18:56Z</time>
      </trkpt>
      <trkpt lat="37.419318" lon="-3.863712">
        <ele>767.386</ele>
        <time>2021-10-16T20:18:58Z</time>
      </trkpt>
      <trkpt lat="37.419214" lon="-3.863472">
        <ele>767.055</ele>
        <time>2021-10-16T20:18:59Z</time>
      </trkpt>
      <trkpt lat="37.419000" lon="-3.862994">
        <ele>766.737</ele>
        <time>2021-10-16T20:19:01Z</time>
      </trkpt>
      <trkpt lat="37.418890" lon="-3.862751">
        <ele>766.664</ele>
        <time>2021-10-16T20:19:02Z</time>
      </trkpt>
      <trkpt lat="37.418683" lon="-3.862303">
        <ele>765.674</ele>
        <time>2021-10-16T20:19:04Z</time>
      </trkpt>
      <trkpt lat="37.418574" lon="-3.862079">
        <ele>765.656</ele>
        <time>2021-10-16T20:19:05Z</time>
      </trkpt>
      <trkpt lat="37.418459" lon="-3.861860">
        <ele>765.121</ele>
        <time>2021-10-16T20:19:06Z</time>
      </trkpt>
      <trkpt lat="37.418199" lon="-3.861449">
        <ele>764.508</ele>
        <time>2021-10-16T20:19:08Z</time>
      </trkpt>
      <trkpt lat="37.417904" lon="-3.861088">
        <ele>763.975</ele>
        <time>2021-10-16T20:19:10Z</time>
      </trkpt>
      <trkpt lat="37.417737" lon="-3.860919">
        <ele>763.233</ele>
        <time>2021-10-16T20:19:11Z</time>
      </trkpt>
      <trkpt lat="37.417564" lon="-3.860764">
        <ele>763.392</ele>
        <time>2021-10-16T20:19:12Z</time>
      </trkpt>
      <trkpt lat="37.417382" lon="-3.860624">
        <ele>763.766</ele>
        <time>2021-10-16T20:19:13Z</time>
      </trkpt>
      <trkpt lat="37.417189" lon="-3.860497">
        <ele>763.491</ele>
        <time>2021-10-16T20:19:14Z</time>
      </trkpt>
      <trkpt lat="37.416805" lon="-3.860277">
        <ele>763.280</ele>
        <time>2021-10-16T20:19:16Z</time>
      </trkpt>
      <trkpt lat="37.416409" lon="-3.860056">
        <ele>763.712</ele>
        <time>2021-10-16T20:19:18Z</time>
      </trkpt>
      <trkpt lat="37.416010" lon="-3.859829">
        <ele>763.079</ele>
        <time>2021-10-16T20:19:20Z</time>
      </trkpt>
      <trkpt lat="37.415624" lon="-3.859607">
        <ele>763.036</ele>
        <time>2021-10-16T20:19:22Z</time>
      </trkpt>
      <trkpt lat="37.415236" lon="-3.859380">
        <ele>763.317</ele>
        <time>2021-10-16T20:19:24Z</time>
      </trkpt>
      <trkpt lat="37.414837" lon="-3.859153">
        <ele>762.818</ele>
        <time>2021-10-16T20:19:26Z</time>
      </trkpt>
      <trkpt lat="37.414446" lon="-3.858931">
        <ele>763.008</ele>
        <time>2021-10-16T20:19:28Z</time>
      </trkpt>
      <trkpt lat="37.414046" lon="-3.858701">
        <ele>763.461</ele>
        <time>2021-10-16T20:19:30Z</time>
      </trkpt>
      <trkpt lat="37.413844" lon="-3.858586">
        <ele>763.649</ele>
        <time>2021-10-16T20:19:31Z</time>
      </trkpt>
      <trkpt lat="37.413637" lon="-3.858469">
        <ele>763.648</ele>
        <time>2021-10-16T20:19:32Z</time>
      </trkpt>
      <trkpt lat="37.413239" lon="-3.858285">
        <ele>764.282</ele>
        <time>2021-10-16T20:19:34Z</time>
      </trkpt>
      <trkpt lat="37.412830" lon="-3.858174">
        <ele>765.147</ele>
        <time>2021-10-16T20:19:36Z</time>
      </trkpt>
      <trkpt lat="37.412625" lon="-3.858154">
        <ele>765.796</ele>
        <time>2021-10-16T20:19:37Z</time>
      </trkpt>
      <trkpt lat="37.412416" lon="-3.858158">
        <ele>766.288</ele>
        <time>2021-10-16T20:19:38Z</time>
      </trkpt>
      <trkpt lat="37.412021" lon="-3.858234">
        <ele>766.245</ele>
        <time>2021-10-16T20:19:40Z</time>
      </trkpt>
      <trkpt lat="37.411820" lon="-3.858294">
        <ele>766.363</ele>
        <time>2021-10-16T20:19:41Z</time>
      </trkpt>
      <trkpt lat="37.411423" lon="-3.858420">
        <ele>766.444</ele>
        <time>2021-10-16T20:19:43Z</time>
      </trkpt>
      <trkpt lat="37.411216" lon="-3.858470">
        <ele>766.618</ele>
        <time>2021-10-16T20:19:44Z</time>
      </trkpt>
      <trkpt lat="37.410812" lon="-3.858514">
        <ele>766.108</ele>
        <time>2021-10-16T20:19:46Z</time>
      </trkpt>
      <trkpt lat="37.410394" lon="-3.858493">
        <ele>767.554</ele>
        <time>2021-10-16T20:19:48Z</time>
      </trkpt>
      <trkpt lat="37.409972" lon="-3.858424">
        <ele>768.152</ele>
        <time>2021-10-16T20:19:50Z</time>
      </trkpt>
      <trkpt lat="37.409566" lon="-3.858346">
        <ele>768.851</ele>
        <time>2021-10-16T20:19:52Z</time>
      </trkpt>
      <trkpt lat="37.409359" lon="-3.858305">
        <ele>769.195</ele>
        <time>2021-10-16T20:19:53Z</time>
      </trkpt>
      <trkpt lat="37.409153" lon="-3.858261">
        <ele>769.190</ele>
        <time>2021-10-16T20:19:54Z</time>
      </trkpt>
      <trkpt lat="37.408735" lon="-3.858170">
        <ele>769.959</ele>
        <time>2021-10-16T20:19:56Z</time>
      </trkpt>
      <trkpt lat="37.408329" lon="-3.858080">
        <ele>770.051</ele>
        <time>2021-10-16T20:19:58Z</time>
      </trkpt>
      <trkpt lat="37.408121" lon="-3.858036">
        <ele>770.368</ele>
        <time>2021-10-16T20:19:59Z</time>
      </trkpt>
      <trkpt lat="37.407913" lon="-3.857992">
        <ele>770.857</ele>
        <time>2021-10-16T20:20:00Z</time>
      </trkpt>
      <trkpt lat="37.407705" lon="-3.857948">
        <ele>770.900</ele>
        <time>2021-10-16T20:20:01Z</time>
      </trkpt>
      <trkpt lat="37.407493" lon="-3.857905">
        <ele>771.420</ele>
        <time>2021-10-16T20:20:02Z</time>
      </trkpt>
      <trkpt lat="37.407089" lon="-3.857828">
        <ele>772.608</ele>
        <time>2021-10-16T20:20:04Z</time>
      </trkpt>
      <trkpt lat="37.406885" lon="-3.857790">
        <ele>773.053</ele>
        <time>2021-10-16T20:20:05Z</time>
      </trkpt>
      <trkpt lat="37.406682" lon="-3.857753">
        <ele>774.121</ele>
        <time>2021-10-16T20:20:06Z</time>
      </trkpt>
      <trkpt lat="37.406268" lon="-3.857693">
        <ele>774.770</ele>
        <time>2021-10-16T20:20:08Z</time>
      </trkpt>
      <trkpt lat="37.405867" lon="-3.857648">
        <ele>776.474</ele>
        <time>2021-10-16T20:20:10Z</time>
      </trkpt>
      <trkpt lat="37.405666" lon="-3.857626">
        <ele>776.399</ele>
        <time>2021-10-16T20:20:11Z</time>
      </trkpt>
      <trkpt lat="37.405469" lon="-3.857608">
        <ele>776.068</ele>
        <time>2021-10-16T20:20:12Z</time>
      </trkpt>
      <trkpt lat="37.405075" lon="-3.857580">
        <ele>776.240</ele>
        <time>2021-10-16T20:20:14Z</time>
      </trkpt>
      <trkpt lat="37.404693" lon="-3.857553">
        <ele>776.737</ele>
        <time>2021-10-16T20:20:16Z</time>
      </trkpt>
      <trkpt lat="37.404498" lon="-3.857538">
        <ele>777.246</ele>
        <time>2021-10-16T20:20:17Z</time>
      </trkpt>
      <trkpt lat="37.404303" lon="-3.857516">
        <ele>777.788</ele>
        <time>2021-10-16T20:20:18Z</time>
      </trkpt>
      <trkpt lat="37.403905" lon="-3.857442">
        <ele>778.516</ele>
        <time>2021-10-16T20:20:20Z</time>
      </trkpt>
      <trkpt lat="37.403515" lon="-3.857329">
        <ele>779.608</ele>
        <time>2021-10-16T20:20:22Z</time>
      </trkpt>
      <trkpt lat="37.403318" lon="-3.857252">
        <ele>780.172</ele>
        <time>2021-10-16T20:20:23Z</time>
      </trkpt>
      <trkpt lat="37.402933" lon="-3.857058">
        <ele>781.210</ele>
        <time>2021-10-16T20:20:25Z</time>
      </trkpt>
      <trkpt lat="37.402740" lon="-3.856940">
        <ele>781.789</ele>
        <time>2021-10-16T20:20:26Z</time>
      </trkpt>
      <trkpt lat="37.402381" lon="-3.856701">
        <ele>782.893</ele>
        <time>2021-10-16T20:20:28Z</time>
      </trkpt>
      <trkpt lat="37.402198" lon="-3.856581">
        <ele>783.298</ele>
        <time>2021-10-16T20:20:29Z</time>
      </trkpt>
      <trkpt lat="37.402012" lon="-3.856474">
        <ele>783.717</ele>
        <time>2021-10-16T20:20:30Z</time>
      </trkpt>
      <trkpt lat="37.401820" lon="-3.856386">
        <ele>783.739</ele>
        <time>2021-10-16T20:20:31Z</time>
      </trkpt>
      <trkpt lat="37.401618" lon="-3.856316">
        <ele>784.126</ele>
        <time>2021-10-16T20:20:32Z</time>
      </trkpt>
      <trkpt lat="37.401222" lon="-3.856258">
        <ele>785.175</ele>
        <time>2021-10-16T20:20:34Z</time>
      </trkpt>
      <trkpt lat="37.401019" lon="-3.856263">
        <ele>785.228</ele>
        <time>2021-10-16T20:20:35Z</time>
      </trkpt>
      <trkpt lat="37.400817" lon="-3.856290">
        <ele>785.320</ele>
        <time>2021-10-16T20:20:36Z</time>
      </trkpt>
      <trkpt lat="37.400421" lon="-3.856402">
        <ele>787.908</ele>
        <time>2021-10-16T20:20:38Z</time>
      </trkpt>
      <trkpt lat="37.400063" lon="-3.856570">
        <ele>790.265</ele>
        <time>2021-10-16T20:20:40Z</time>
      </trkpt>
      <trkpt lat="37.399887" lon="-3.856666">
        <ele>791.463</ele>
        <time>2021-10-16T20:20:41Z</time>
      </trkpt>
      <trkpt lat="37.399715" lon="-3.856763">
        <ele>792.672</ele>
        <time>2021-10-16T20:20:42Z</time>
      </trkpt>
      <trkpt lat="37.399372" lon="-3.856951">
        <ele>794.376</ele>
        <time>2021-10-16T20:20:44Z</time>
      </trkpt>
      <trkpt lat="37.399024" lon="-3.857107">
        <ele>795.391</ele>
        <time>2021-10-16T20:20:46Z</time>
      </trkpt>
      <trkpt lat="37.398837" lon="-3.857171">
        <ele>796.250</ele>
        <time>2021-10-16T20:20:47Z</time>
      </trkpt>
      <trkpt lat="37.398648" lon="-3.857221">
        <ele>796.612</ele>
        <time>2021-10-16T20:20:48Z</time>
      </trkpt>
      <trkpt lat="37.398255" lon="-3.857287">
        <ele>796.769</ele>
        <time>2021-10-16T20:20:50Z</time>
      </trkpt>
      <trkpt lat="37.397872" lon="-3.857337">
        <ele>796.279</ele>
        <time>2021-10-16T20:20:52Z</time>
      </trkpt>
      <trkpt lat="37.397674" lon="-3.857359">
        <ele>796.505</ele>
        <time>2021-10-16T20:20:53Z</time>
      </trkpt>
      <trkpt lat="37.397273" lon="-3.857396">
        <ele>796.225</ele>
        <time>2021-10-16T20:20:55Z</time>
      </trkpt>
      <trkpt lat="37.397065" lon="-3.857417">
        <ele>796.408</ele>
        <time>2021-10-16T20:20:56Z</time>
      </trkpt>
      <trkpt lat="37.396667" lon="-3.857461">
        <ele>796.915</ele>
        <time>2021-10-16T20:20:58Z</time>
      </trkpt>
      <trkpt lat="37.396462" lon="-3.857482">
        <ele>797.083</ele>
        <time>2021-10-16T20:20:59Z</time>
      </trkpt>
      <trkpt lat="37.396059" lon="-3.857524">
        <ele>797.562</ele>
        <time>2021-10-16T20:21:01Z</time>
      </trkpt>
      <trkpt lat="37.395854" lon="-3.857548">
        <ele>797.116</ele>
        <time>2021-10-16T20:21:02Z</time>
      </trkpt>
      <trkpt lat="37.395463" lon="-3.857585">
        <ele>796.791</ele>
        <time>2021-10-16T20:21:04Z</time>
      </trkpt>
      <trkpt lat="37.395262" lon="-3.857601">
        <ele>796.570</ele>
        <time>2021-10-16T20:21:05Z</time>
      </trkpt>
      <trkpt lat="37.394863" lon="-3.857636">
        <ele>796.852</ele>
        <time>2021-10-16T20:21:07Z</time>
      </trkpt>
      <trkpt lat="37.394658" lon="-3.857654">
        <ele>797.229</ele>
        <time>2021-10-16T20:21:08Z</time>
      </trkpt>
      <trkpt lat="37.394268" lon="-3.857694">
        <ele>797.362</ele>
        <time>2021-10-16T20:21:10Z</time>
      </trkpt>
      <trkpt lat="37.394065" lon="-3.857713">
        <ele>797.283</ele>
        <time>2021-10-16T20:21:11Z</time>
      </trkpt>
      <trkpt lat="37.393863" lon="-3.857727">
        <ele>797.011</ele>
        <time>2021-10-16T20:21:12Z</time>
      </trkpt>
      <trkpt lat="37.393662" lon="-3.857736">
        <ele>797.508</ele>
        <time>2021-10-16T20:21:13Z</time>
      </trkpt>
      <trkpt lat="37.393454" lon="-3.857735">
        <ele>798.634</ele>
        <time>2021-10-16T20:21:14Z</time>
      </trkpt>
      <trkpt lat="37.393052" lon="-3.857695">
        <ele>799.012</ele>
        <time>2021-10-16T20:21:16Z</time>
      </trkpt>
      <trkpt lat="37.392650" lon="-3.857612">
        <ele>799.791</ele>
        <time>2021-10-16T20:21:18Z</time>
      </trkpt>
      <trkpt lat="37.392257" lon="-3.857475">
        <ele>800.425</ele>
        <time>2021-10-16T20:21:20Z</time>
      </trkpt>
      <trkpt lat="37.391891" lon="-3.857292">
        <ele>802.010</ele>
        <time>2021-10-16T20:21:22Z</time>
      </trkpt>
      <trkpt lat="37.391533" lon="-3.857093">
        <ele>803.519</ele>
        <time>2021-10-16T20:21:24Z</time>
      </trkpt>
      <trkpt lat="37.391360" lon="-3.856992">
        <ele>804.491</ele>
        <time>2021-10-16T20:21:25Z</time>
      </trkpt>
      <trkpt lat="37.391187" lon="-3.856892">
        <ele>804.558</ele>
        <time>2021-10-16T20:21:26Z</time>
      </trkpt>
      <trkpt lat="37.390871" lon="-3.856712">
        <ele>805.681</ele>
        <time>2021-10-16T20:21:28Z</time>
      </trkpt>
      <trkpt lat="37.390715" lon="-3.856621">
        <ele>804.761</ele>
        <time>2021-10-16T20:21:29Z</time>
      </trkpt>
      <trkpt lat="37.390406" lon="-3.856437">
        <ele>805.417</ele>
        <time>2021-10-16T20:21:31Z</time>
      </trkpt>
      <trkpt lat="37.390243" lon="-3.856345">
        <ele>805.008</ele>
        <time>2021-10-16T20:21:32Z</time>
      </trkpt>
      <trkpt lat="37.389925" lon="-3.856166">
        <ele>805.096</ele>
        <time>2021-10-16T20:21:34Z</time>
      </trkpt>
      <trkpt lat="37.389599" lon="-3.855977">
        <ele>805.864</ele>
        <time>2021-10-16T20:21:36Z</time>
      </trkpt>
      <trkpt lat="37.389430" lon="-3.855881">
        <ele>806.273</ele>
        <time>2021-10-16T20:21:37Z</time>
      </trkpt>
      <trkpt lat="37.389261" lon="-3.855784">
        <ele>807.347</ele>
        <time>2021-10-16T20:21:38Z</time>
      </trkpt>
      <trkpt lat="37.388940" lon="-3.855592">
        <ele>808.472</ele>
        <time>2021-10-16T20:21:40Z</time>
      </trkpt>
      <trkpt lat="37.388610" lon="-3.855378">
        <ele>808.741</ele>
        <time>2021-10-16T20:21:42Z</time>
      </trkpt>
      <trkpt lat="37.388290" lon="-3.855130">
        <ele>808.883</ele>
        <time>2021-10-16T20:21:44Z</time>
      </trkpt>
      <trkpt lat="37.388017" lon="-3.854842">
        <ele>810.320</ele>
        <time>2021-10-16T20:21:46Z</time>
      </trkpt>
      <trkpt lat="37.387777" lon="-3.854500">
        <ele>812.049</ele>
        <time>2021-10-16T20:21:48Z</time>
      </trkpt>
      <trkpt lat="37.387582" lon="-3.854113">
        <ele>813.702</ele>
        <time>2021-10-16T20:21:50Z</time>
      </trkpt>
      <trkpt lat="37.387447" lon="-3.853721">
        <ele>815.222</ele>
        <time>2021-10-16T20:21:52Z</time>
      </trkpt>
      <trkpt lat="37.387396" lon="-3.853519">
        <ele>816.308</ele>
        <time>2021-10-16T20:21:53Z</time>
      </trkpt>
      <trkpt lat="37.387324" lon="-3.853126">
        <ele>817.392</ele>
        <time>2021-10-16T20:21:55Z</time>
      </trkpt>
      <trkpt lat="37.387290" lon="-3.852932">
        <ele>818.030</ele>
        <time>2021-10-16T20:21:56Z</time>
      </trkpt>
      <trkpt lat="37.387230" lon="-3.852583">
        <ele>820.279</ele>
        <time>2021-10-16T20:21:58Z</time>
      </trkpt>
      <trkpt lat="37.387160" lon="-3.852218">
        <ele>821.273</ele>
        <time>2021-10-16T20:22:00Z</time>
      </trkpt>
      <trkpt lat="37.387089" lon="-3.851851">
        <ele>822.458</ele>
        <time>2021-10-16T20:22:02Z</time>
      </trkpt>
      <trkpt lat="37.387026" lon="-3.851504">
        <ele>824.267</ele>
        <time>2021-10-16T20:22:04Z</time>
      </trkpt>
      <trkpt lat="37.386961" lon="-3.851142">
        <ele>824.679</ele>
        <time>2021-10-16T20:22:06Z</time>
      </trkpt>
      <trkpt lat="37.386891" lon="-3.850755">
        <ele>825.776</ele>
        <time>2021-10-16T20:22:08Z</time>
      </trkpt>
      <trkpt lat="37.386815" lon="-3.850362">
        <ele>827.842</ele>
        <time>2021-10-16T20:22:10Z</time>
      </trkpt>
      <trkpt lat="37.386776" lon="-3.850158">
        <ele>828.222</ele>
        <time>2021-10-16T20:22:11Z</time>
      </trkpt>
      <trkpt lat="37.386741" lon="-3.849957">
        <ele>829.114</ele>
        <time>2021-10-16T20:22:12Z</time>
      </trkpt>
      <trkpt lat="37.386669" lon="-3.849555">
        <ele>830.308</ele>
        <time>2021-10-16T20:22:14Z</time>
      </trkpt>
      <trkpt lat="37.386598" lon="-3.849170">
        <ele>831.762</ele>
        <time>2021-10-16T20:22:16Z</time>
      </trkpt>
      <trkpt lat="37.386563" lon="-3.848973">
        <ele>832.540</ele>
        <time>2021-10-16T20:22:17Z</time>
      </trkpt>
      <trkpt lat="37.386525" lon="-3.848776">
        <ele>833.219</ele>
        <time>2021-10-16T20:22:18Z</time>
      </trkpt>
      <trkpt lat="37.386485" lon="-3.848579">
        <ele>833.973</ele>
        <time>2021-10-16T20:22:19Z</time>
      </trkpt>
      <trkpt lat="37.386436" lon="-3.848378">
        <ele>834.958</ele>
        <time>2021-10-16T20:22:20Z</time>
      </trkpt>
      <trkpt lat="37.386324" lon="-3.847991">
        <ele>836.667</ele>
        <time>2021-10-16T20:22:22Z</time>
      </trkpt>
      <trkpt lat="37.386196" lon="-3.847603">
        <ele>837.859</ele>
        <time>2021-10-16T20:22:24Z</time>
      </trkpt>
      <trkpt lat="37.386124" lon="-3.847413">
        <ele>838.986</ele>
        <time>2021-10-16T20:22:25Z</time>
      </trkpt>
      <trkpt lat="37.386045" lon="-3.847219">
        <ele>839.486</ele>
        <time>2021-10-16T20:22:26Z</time>
      </trkpt>
      <trkpt lat="37.385894" lon="-3.846864">
        <ele>841.660</ele>
        <time>2021-10-16T20:22:28Z</time>
      </trkpt>
      <trkpt lat="37.385753" lon="-3.846523">
        <ele>844.426</ele>
        <time>2021-10-16T20:22:30Z</time>
      </trkpt>
      <trkpt lat="37.385689" lon="-3.846351">
        <ele>845.008</ele>
        <time>2021-10-16T20:22:31Z</time>
      </trkpt>
      <trkpt lat="37.385627" lon="-3.846168">
        <ele>845.266</ele>
        <time>2021-10-16T20:22:32Z</time>
      </trkpt>
      <trkpt lat="37.385524" lon="-3.845799">
        <ele>845.844</ele>
        <time>2021-10-16T20:22:34Z</time>
      </trkpt>
      <trkpt lat="37.385484" lon="-3.845604">
        <ele>846.983</ele>
        <time>2021-10-16T20:22:35Z</time>
      </trkpt>
      <trkpt lat="37.385430" lon="-3.845200">
        <ele>848.787</ele>
        <time>2021-10-16T20:22:37Z</time>
      </trkpt>
      <trkpt lat="37.385414" lon="-3.844982">
        <ele>849.542</ele>
        <time>2021-10-16T20:22:38Z</time>
      </trkpt>
      <trkpt lat="37.385408" lon="-3.844556">
        <ele>851.221</ele>
        <time>2021-10-16T20:22:40Z</time>
      </trkpt>
      <trkpt lat="37.385438" lon="-3.844112">
        <ele>853.683</ele>
        <time>2021-10-16T20:22:42Z</time>
      </trkpt>
      <trkpt lat="37.385517" lon="-3.843669">
        <ele>854.690</ele>
        <time>2021-10-16T20:22:44Z</time>
      </trkpt>
      <trkpt lat="37.385628" lon="-3.843253">
        <ele>856.785</ele>
        <time>2021-10-16T20:22:46Z</time>
      </trkpt>
      <trkpt lat="37.385755" lon="-3.842842">
        <ele>857.589</ele>
        <time>2021-10-16T20:22:48Z</time>
      </trkpt>
      <trkpt lat="37.385885" lon="-3.842421">
        <ele>858.117</ele>
        <time>2021-10-16T20:22:50Z</time>
      </trkpt>
      <trkpt lat="37.386003" lon="-3.841995">
        <ele>858.208</ele>
        <time>2021-10-16T20:22:52Z</time>
      </trkpt>
      <trkpt lat="37.386056" lon="-3.841773">
        <ele>858.126</ele>
        <time>2021-10-16T20:22:53Z</time>
      </trkpt>
      <trkpt lat="37.386133" lon="-3.841317">
        <ele>857.524</ele>
        <time>2021-10-16T20:22:55Z</time>
      </trkpt>
      <trkpt lat="37.386162" lon="-3.841077">
        <ele>857.473</ele>
        <time>2021-10-16T20:22:56Z</time>
      </trkpt>
      <trkpt lat="37.386193" lon="-3.840610">
        <ele>855.547</ele>
        <time>2021-10-16T20:22:58Z</time>
      </trkpt>
      <trkpt lat="37.386186" lon="-3.840128">
        <ele>853.452</ele>
        <time>2021-10-16T20:23:00Z</time>
      </trkpt>
      <trkpt lat="37.386154" lon="-3.839646">
        <ele>850.731</ele>
        <time>2021-10-16T20:23:02Z</time>
      </trkpt>
      <trkpt lat="37.386107" lon="-3.839173">
        <ele>850.163</ele>
        <time>2021-10-16T20:23:04Z</time>
      </trkpt>
      <trkpt lat="37.386048" lon="-3.838680">
        <ele>848.730</ele>
        <time>2021-10-16T20:23:06Z</time>
      </trkpt>
      <trkpt lat="37.385979" lon="-3.838176">
        <ele>847.661</ele>
        <time>2021-10-16T20:23:08Z</time>
      </trkpt>
      <trkpt lat="37.385901" lon="-3.837695">
        <ele>847.221</ele>
        <time>2021-10-16T20:23:10Z</time>
      </trkpt>
      <trkpt lat="37.385857" lon="-3.837452">
        <ele>846.813</ele>
        <time>2021-10-16T20:23:11Z</time>
      </trkpt>
      <trkpt lat="37.385813" lon="-3.837209">
        <ele>847.108</ele>
        <time>2021-10-16T20:23:12Z</time>
      </trkpt>
      <trkpt lat="37.385726" lon="-3.836717">
        <ele>846.654</ele>
        <time>2021-10-16T20:23:14Z</time>
      </trkpt>
      <trkpt lat="37.385641" lon="-3.836242">
        <ele>845.472</ele>
        <time>2021-10-16T20:23:16Z</time>
      </trkpt>
      <trkpt lat="37.385598" lon="-3.836001">
        <ele>845.091</ele>
        <time>2021-10-16T20:23:17Z</time>
      </trkpt>
      <trkpt lat="37.385555" lon="-3.835762">
        <ele>845.055</ele>
        <time>2021-10-16T20:23:18Z</time>
      </trkpt>
      <trkpt lat="37.385469" lon="-3.835280">
        <ele>843.520</ele>
        <time>2021-10-16T20:23:20Z</time>
      </trkpt>
      <trkpt lat="37.385388" lon="-3.834814">
        <ele>843.069</ele>
        <time>2021-10-16T20:23:22Z</time>
      </trkpt>
      <trkpt lat="37.385304" lon="-3.834337">
        <ele>841.981</ele>
        <time>2021-10-16T20:23:24Z</time>
      </trkpt>
      <trkpt lat="37.385217" lon="-3.833854">
        <ele>840.888</ele>
        <time>2021-10-16T20:23:26Z</time>
      </trkpt>
      <trkpt lat="37.385132" lon="-3.833386">
        <ele>839.816</ele>
        <time>2021-10-16T20:23:28Z</time>
      </trkpt>
      <trkpt lat="37.385045" lon="-3.832909">
        <ele>838.576</ele>
        <time>2021-10-16T20:23:30Z</time>
      </trkpt>
      <trkpt lat="37.385003" lon="-3.832669">
        <ele>837.713</ele>
        <time>2021-10-16T20:23:31Z</time>
      </trkpt>
      <trkpt lat="37.384960" lon="-3.832422">
        <ele>836.808</ele>
        <time>2021-10-16T20:23:32Z</time>
      </trkpt>
      <trkpt lat="37.384877" lon="-3.831943">
        <ele>835.199</ele>
        <time>2021-10-16T20:23:34Z</time>
      </trkpt>
      <trkpt lat="37.384790" lon="-3.831448">
        <ele>833.497</ele>
        <time>2021-10-16T20:23:36Z</time>
      </trkpt>
      <trkpt lat="37.384749" lon="-3.831201">
        <ele>832.166</ele>
        <time>2021-10-16T20:23:37Z</time>
      </trkpt>
      <trkpt lat="37.384706" lon="-3.830956">
        <ele>831.340</ele>
        <time>2021-10-16T20:23:38Z</time>
      </trkpt>
      <trkpt lat="37.384624" lon="-3.830486">
        <ele>830.535</ele>
        <time>2021-10-16T20:23:40Z</time>
      </trkpt>
      <trkpt lat="37.384575" lon="-3.830244">
        <ele>829.044</ele>
        <time>2021-10-16T20:23:41Z</time>
      </trkpt>
      <trkpt lat="37.384516" lon="-3.830005">
        <ele>828.266</ele>
        <time>2021-10-16T20:23:42Z</time>
      </trkpt>
      <trkpt lat="37.384343" lon="-3.829546">
        <ele>827.193</ele>
        <time>2021-10-16T20:23:44Z</time>
      </trkpt>
      <trkpt lat="37.384112" lon="-3.829151">
        <ele>825.614</ele>
        <time>2021-10-16T20:23:46Z</time>
      </trkpt>
      <trkpt lat="37.383847" lon="-3.828776">
        <ele>825.054</ele>
        <time>2021-10-16T20:23:48Z</time>
      </trkpt>
      <trkpt lat="37.383712" lon="-3.828590">
        <ele>824.309</ele>
        <time>2021-10-16T20:23:49Z</time>
      </trkpt>
      <trkpt lat="37.383573" lon="-3.828397">
        <ele>823.608</ele>
        <time>2021-10-16T20:23:50Z</time>
      </trkpt>
      <trkpt lat="37.383310" lon="-3.828026">
        <ele>823.159</ele>
        <time>2021-10-16T20:23:52Z</time>
      </trkpt>
      <trkpt lat="37.383044" lon="-3.827643">
        <ele>821.777</ele>
        <time>2021-10-16T20:23:54Z</time>
      </trkpt>
      <trkpt lat="37.382909" lon="-3.827453">
        <ele>820.936</ele>
        <time>2021-10-16T20:23:55Z</time>
      </trkpt>
      <trkpt lat="37.382771" lon="-3.827255">
        <ele>820.120</ele>
        <time>2021-10-16T20:23:56Z</time>
      </trkpt>
      <trkpt lat="37.382507" lon="-3.826880">
        <ele>817.845</ele>
        <time>2021-10-16T20:23:58Z</time>
      </trkpt>
      <trkpt lat="37.382241" lon="-3.826494">
        <ele>816.614</ele>
        <time>2021-10-16T20:24:00Z</time>
      </trkpt>
      <trkpt lat="37.382108" lon="-3.826297">
        <ele>815.586</ele>
        <time>2021-10-16T20:24:01Z</time>
      </trkpt>
      <trkpt lat="37.381971" lon="-3.826097">
        <ele>813.863</ele>
        <time>2021-10-16T20:24:02Z</time>
      </trkpt>
      <trkpt lat="37.381719" lon="-3.825729">
        <ele>813.018</ele>
        <time>2021-10-16T20:24:04Z</time>
      </trkpt>
      <trkpt lat="37.381473" lon="-3.825359">
        <ele>810.498</ele>
        <time>2021-10-16T20:24:06Z</time>
      </trkpt>
      <trkpt lat="37.381214" lon="-3.824974">
        <ele>807.317</ele>
        <time>2021-10-16T20:24:08Z</time>
      </trkpt>
      <trkpt lat="37.380953" lon="-3.824588">
        <ele>804.308</ele>
        <time>2021-10-16T20:24:10Z</time>
      </trkpt>
      <trkpt lat="37.380682" lon="-3.824188">
        <ele>801.539</ele>
        <time>2021-10-16T20:24:12Z</time>
      </trkpt>
      <trkpt lat="37.380405" lon="-3.823782">
        <ele>800.397</ele>
        <time>2021-10-16T20:24:14Z</time>
      </trkpt>
      <trkpt lat="37.380140" lon="-3.823394">
        <ele>798.446</ele>
        <time>2021-10-16T20:24:16Z</time>
      </trkpt>
      <trkpt lat="37.380007" lon="-3.823197">
        <ele>797.260</ele>
        <time>2021-10-16T20:24:17Z</time>
      </trkpt>
      <trkpt lat="37.379874" lon="-3.823000">
        <ele>796.125</ele>
        <time>2021-10-16T20:24:18Z</time>
      </trkpt>
      <trkpt lat="37.379606" lon="-3.822606">
        <ele>794.844</ele>
        <time>2021-10-16T20:24:20Z</time>
      </trkpt>
      <trkpt lat="37.379339" lon="-3.822234">
        <ele>793.976</ele>
        <time>2021-10-16T20:24:22Z</time>
      </trkpt>
      <trkpt lat="37.379197" lon="-3.822048">
        <ele>793.123</ele>
        <time>2021-10-16T20:24:23Z</time>
      </trkpt>
      <trkpt lat="37.378899" lon="-3.821697">
        <ele>792.122</ele>
        <time>2021-10-16T20:24:25Z</time>
      </trkpt>
      <trkpt lat="37.378739" lon="-3.821523">
        <ele>791.362</ele>
        <time>2021-10-16T20:24:26Z</time>
      </trkpt>
      <trkpt lat="37.378426" lon="-3.821208">
        <ele>790.408</ele>
        <time>2021-10-16T20:24:28Z</time>
      </trkpt>
      <trkpt lat="37.378262" lon="-3.821052">
        <ele>789.408</ele>
        <time>2021-10-16T20:24:29Z</time>
      </trkpt>
      <trkpt lat="37.377933" lon="-3.820745">
        <ele>787.130</ele>
        <time>2021-10-16T20:24:31Z</time>
      </trkpt>
      <trkpt lat="37.377761" lon="-3.820593">
        <ele>785.958</ele>
        <time>2021-10-16T20:24:32Z</time>
      </trkpt>
      <trkpt lat="37.377423" lon="-3.820322">
        <ele>784.587</ele>
        <time>2021-10-16T20:24:34Z</time>
      </trkpt>
      <trkpt lat="37.377072" lon="-3.820086">
        <ele>782.121</ele>
        <time>2021-10-16T20:24:36Z</time>
      </trkpt>
      <trkpt lat="37.376717" lon="-3.819866">
        <ele>780.296</ele>
        <time>2021-10-16T20:24:38Z</time>
      </trkpt>
      <trkpt lat="37.376360" lon="-3.819679">
        <ele>779.555</ele>
        <time>2021-10-16T20:24:40Z</time>
      </trkpt>
      <trkpt lat="37.375975" lon="-3.819576">
        <ele>778.587</ele>
        <time>2021-10-16T20:24:42Z</time>
      </trkpt>
      <trkpt lat="37.375583" lon="-3.819554">
        <ele>779.074</ele>
        <time>2021-10-16T20:24:44Z</time>
      </trkpt>
      <trkpt lat="37.375203" lon="-3.819548">
        <ele>779.979</ele>
        <time>2021-10-16T20:24:46Z</time>
      </trkpt>
      <trkpt lat="37.375008" lon="-3.819548">
        <ele>780.005</ele>
        <time>2021-10-16T20:24:47Z</time>
      </trkpt>
      <trkpt lat="37.374810" lon="-3.819545">
        <ele>779.525</ele>
        <time>2021-10-16T20:24:48Z</time>
      </trkpt>
      <trkpt lat="37.374614" lon="-3.819537">
        <ele>779.308</ele>
        <time>2021-10-16T20:24:49Z</time>
      </trkpt>
      <trkpt lat="37.374415" lon="-3.819529">
        <ele>779.675</ele>
        <time>2021-10-16T20:24:50Z</time>
      </trkpt>
      <trkpt lat="37.374044" lon="-3.819515">
        <ele>779.763</ele>
        <time>2021-10-16T20:24:52Z</time>
      </trkpt>
      <trkpt lat="37.373858" lon="-3.819513">
        <ele>779.962</ele>
        <time>2021-10-16T20:24:53Z</time>
      </trkpt>
      <trkpt lat="37.373496" lon="-3.819555">
        <ele>779.446</ele>
        <time>2021-10-16T20:24:55Z</time>
      </trkpt>
      <trkpt lat="37.373319" lon="-3.819609">
        <ele>779.281</ele>
        <time>2021-10-16T20:24:56Z</time>
      </trkpt>
      <trkpt lat="37.373007" lon="-3.819779">
        <ele>779.760</ele>
        <time>2021-10-16T20:24:58Z</time>
      </trkpt>
      <trkpt lat="37.372853" lon="-3.819899">
        <ele>779.812</ele>
        <time>2021-10-16T20:24:59Z</time>
      </trkpt>
      <trkpt lat="37.372555" lon="-3.820176">
        <ele>779.689</ele>
        <time>2021-10-16T20:25:01Z</time>
      </trkpt>
      <trkpt lat="37.372401" lon="-3.820327">
        <ele>780.087</ele>
        <time>2021-10-16T20:25:02Z</time>
      </trkpt>
      <trkpt lat="37.372100" lon="-3.820619">
        <ele>779.242</ele>
        <time>2021-10-16T20:25:04Z</time>
      </trkpt>
      <trkpt lat="37.371791" lon="-3.820918">
        <ele>779.526</ele>
        <time>2021-10-16T20:25:06Z</time>
      </trkpt>
      <trkpt lat="37.371639" lon="-3.821070">
        <ele>779.108</ele>
        <time>2021-10-16T20:25:07Z</time>
      </trkpt>
      <trkpt lat="37.371486" lon="-3.821221">
        <ele>778.846</ele>
        <time>2021-10-16T20:25:08Z</time>
      </trkpt>
      <trkpt lat="37.371202" lon="-3.821494">
        <ele>779.094</ele>
        <time>2021-10-16T20:25:10Z</time>
      </trkpt>
      <trkpt lat="37.371052" lon="-3.821624">
        <ele>778.853</ele>
        <time>2021-10-16T20:25:11Z</time>
      </trkpt>
      <trkpt lat="37.370892" lon="-3.821740">
        <ele>778.647</ele>
        <time>2021-10-16T20:25:12Z</time>
      </trkpt>
      <trkpt lat="37.370544" lon="-3.821937">
        <ele>778.222</ele>
        <time>2021-10-16T20:25:14Z</time>
      </trkpt>
      <trkpt lat="37.370193" lon="-3.822103">
        <ele>777.921</ele>
        <time>2021-10-16T20:25:16Z</time>
      </trkpt>
      <trkpt lat="37.370007" lon="-3.822188">
        <ele>777.473</ele>
        <time>2021-10-16T20:25:17Z</time>
      </trkpt>
      <trkpt lat="37.369643" lon="-3.822352">
        <ele>776.190</ele>
        <time>2021-10-16T20:25:19Z</time>
      </trkpt>
      <trkpt lat="37.369456" lon="-3.822435">
        <ele>775.578</ele>
        <time>2021-10-16T20:25:20Z</time>
      </trkpt>
      <trkpt lat="37.369104" lon="-3.822591">
        <ele>774.933</ele>
        <time>2021-10-16T20:25:22Z</time>
      </trkpt>
      <trkpt lat="37.368751" lon="-3.822749">
        <ele>773.626</ele>
        <time>2021-10-16T20:25:24Z</time>
      </trkpt>
      <trkpt lat="37.368573" lon="-3.822829">
        <ele>772.408</ele>
        <time>2021-10-16T20:25:25Z</time>
      </trkpt>
      <trkpt lat="37.368391" lon="-3.822914">
        <ele>772.325</ele>
        <time>2021-10-16T20:25:26Z</time>
      </trkpt>
      <trkpt lat="37.368041" lon="-3.823077">
        <ele>771.053</ele>
        <time>2021-10-16T20:25:28Z</time>
      </trkpt>
      <trkpt lat="37.367681" lon="-3.823261">
        <ele>769.672</ele>
        <time>2021-10-16T20:25:30Z</time>
      </trkpt>
      <trkpt lat="37.367503" lon="-3.823367">
        <ele>768.846</ele>
        <time>2021-10-16T20:25:31Z</time>
      </trkpt>
      <trkpt lat="37.367325" lon="-3.823487">
        <ele>768.471</ele>
        <time>2021-10-16T20:25:32Z</time>
      </trkpt>
      <trkpt lat="37.366999" lon="-3.823733">
        <ele>766.920</ele>
        <time>2021-10-16T20:25:34Z</time>
      </trkpt>
      <trkpt lat="37.366683" lon="-3.823988">
        <ele>765.752</ele>
        <time>2021-10-16T20:25:36Z</time>
      </trkpt>
      <trkpt lat="37.366376" lon="-3.824235">
        <ele>764.749</ele>
        <time>2021-10-16T20:25:38Z</time>
      </trkpt>
      <trkpt lat="37.366095" lon="-3.824465">
        <ele>761.913</ele>
        <time>2021-10-16T20:25:40Z</time>
      </trkpt>
      <trkpt lat="37.365956" lon="-3.824577">
        <ele>760.643</ele>
        <time>2021-10-16T20:25:41Z</time>
      </trkpt>
      <trkpt lat="37.365818" lon="-3.824686">
        <ele>761.007</ele>
        <time>2021-10-16T20:25:42Z</time>
      </trkpt>
      <trkpt lat="37.365677" lon="-3.824789">
        <ele>761.208</ele>
        <time>2021-10-16T20:25:43Z</time>
      </trkpt>
      <trkpt lat="37.365532" lon="-3.824893">
        <ele>760.589</ele>
        <time>2021-10-16T20:25:44Z</time>
      </trkpt>
      <trkpt lat="37.365240" lon="-3.825068">
        <ele>759.217</ele>
        <time>2021-10-16T20:25:46Z</time>
      </trkpt>
      <trkpt lat="37.364918" lon="-3.825183">
        <ele>758.526</ele>
        <time>2021-10-16T20:25:48Z</time>
      </trkpt>
      <trkpt lat="37.364578" lon="-3.825211">
        <ele>758.440</ele>
        <time>2021-10-16T20:25:50Z</time>
      </trkpt>
      <trkpt lat="37.364271" lon="-3.825167">
        <ele>758.985</ele>
        <time>2021-10-16T20:25:52Z</time>
      </trkpt>
      <trkpt lat="37.364123" lon="-3.825122">
        <ele>758.874</ele>
        <time>2021-10-16T20:25:53Z</time>
      </trkpt>
      <trkpt lat="37.363837" lon="-3.825008">
        <ele>759.446</ele>
        <time>2021-10-16T20:25:55Z</time>
      </trkpt>
      <trkpt lat="37.363693" lon="-3.824940">
        <ele>759.983</ele>
        <time>2021-10-16T20:25:56Z</time>
      </trkpt>
      <trkpt lat="37.363412" lon="-3.824795">
        <ele>759.381</ele>
        <time>2021-10-16T20:25:58Z</time>
      </trkpt>
      <trkpt lat="37.363264" lon="-3.824717">
        <ele>760.661</ele>
        <time>2021-10-16T20:25:59Z</time>
      </trkpt>
      <trkpt lat="37.363119" lon="-3.824642">
        <ele>760.817</ele>
        <time>2021-10-16T20:26:00Z</time>
      </trkpt>
      <trkpt lat="37.362836" lon="-3.824494">
        <ele>760.708</ele>
        <time>2021-10-16T20:26:02Z</time>
      </trkpt>
      <trkpt lat="37.362565" lon="-3.824353">
        <ele>760.776</ele>
        <time>2021-10-16T20:26:04Z</time>
      </trkpt>
      <trkpt lat="37.362284" lon="-3.824208">
        <ele>761.174</ele>
        <time>2021-10-16T20:26:06Z</time>
      </trkpt>
      <trkpt lat="37.362140" lon="-3.824138">
        <ele>760.723</ele>
        <time>2021-10-16T20:26:07Z</time>
      </trkpt>
      <trkpt lat="37.361990" lon="-3.824070">
        <ele>761.097</ele>
        <time>2021-10-16T20:26:08Z</time>
      </trkpt>
      <trkpt lat="37.361693" lon="-3.823946">
        <ele>761.482</ele>
        <time>2021-10-16T20:26:10Z</time>
      </trkpt>
      <trkpt lat="37.361537" lon="-3.823888">
        <ele>761.571</ele>
        <time>2021-10-16T20:26:11Z</time>
      </trkpt>
      <trkpt lat="37.361377" lon="-3.823831">
        <ele>761.613</ele>
        <time>2021-10-16T20:26:12Z</time>
      </trkpt>
      <trkpt lat="37.361215" lon="-3.823777">
        <ele>761.740</ele>
        <time>2021-10-16T20:26:13Z</time>
      </trkpt>
      <trkpt lat="37.361046" lon="-3.823724">
        <ele>761.659</ele>
        <time>2021-10-16T20:26:14Z</time>
      </trkpt>
      <trkpt lat="37.360720" lon="-3.823630">
        <ele>761.003</ele>
        <time>2021-10-16T20:26:16Z</time>
      </trkpt>
      <trkpt lat="37.360397" lon="-3.823537">
        <ele>760.823</ele>
        <time>2021-10-16T20:26:18Z</time>
      </trkpt>
      <trkpt lat="37.360071" lon="-3.823447">
        <ele>760.708</ele>
        <time>2021-10-16T20:26:20Z</time>
      </trkpt>
      <trkpt lat="37.359749" lon="-3.823358">
        <ele>760.723</ele>
        <time>2021-10-16T20:26:22Z</time>
      </trkpt>
      <trkpt lat="37.359583" lon="-3.823310">
        <ele>761.031</ele>
        <time>2021-10-16T20:26:23Z</time>
      </trkpt>
      <trkpt lat="37.359250" lon="-3.823214">
        <ele>760.880</ele>
        <time>2021-10-16T20:26:25Z</time>
      </trkpt>
      <trkpt lat="37.359078" lon="-3.823167">
        <ele>760.844</ele>
        <time>2021-10-16T20:26:26Z</time>
      </trkpt>
      <trkpt lat="37.358750" lon="-3.823076">
        <ele>761.479</ele>
        <time>2021-10-16T20:26:28Z</time>
      </trkpt>
      <trkpt lat="37.358581" lon="-3.823033">
        <ele>761.268</ele>
        <time>2021-10-16T20:26:29Z</time>
      </trkpt>
      <trkpt lat="37.358236" lon="-3.822971">
        <ele>760.940</ele>
        <time>2021-10-16T20:26:31Z</time>
      </trkpt>
      <trkpt lat="37.358055" lon="-3.822959">
        <ele>760.777</ele>
        <time>2021-10-16T20:26:32Z</time>
      </trkpt>
      <trkpt lat="37.357715" lon="-3.822981">
        <ele>760.378</ele>
        <time>2021-10-16T20:26:34Z</time>
      </trkpt>
      <trkpt lat="37.357375" lon="-3.823039">
        <ele>759.633</ele>
        <time>2021-10-16T20:26:36Z</time>
      </trkpt>
      <trkpt lat="37.357033" lon="-3.823101">
        <ele>759.726</ele>
        <time>2021-10-16T20:26:38Z</time>
      </trkpt>
      <trkpt lat="37.356702" lon="-3.823164">
        <ele>759.208</ele>
        <time>2021-10-16T20:26:40Z</time>
      </trkpt>
      <trkpt lat="37.356364" lon="-3.823228">
        <ele>759.435</ele>
        <time>2021-10-16T20:26:42Z</time>
      </trkpt>
      <trkpt lat="37.356195" lon="-3.823260">
        <ele>759.293</ele>
        <time>2021-10-16T20:26:43Z</time>
      </trkpt>
      <trkpt lat="37.356024" lon="-3.823292">
        <ele>759.262</ele>
        <time>2021-10-16T20:26:44Z</time>
      </trkpt>
      <trkpt lat="37.355706" lon="-3.823352">
        <ele>759.136</ele>
        <time>2021-10-16T20:26:46Z</time>
      </trkpt>
      <trkpt lat="37.355379" lon="-3.823435">
        <ele>759.271</ele>
        <time>2021-10-16T20:26:48Z</time>
      </trkpt>
      <trkpt lat="37.355215" lon="-3.823502">
        <ele>759.060</ele>
        <time>2021-10-16T20:26:49Z</time>
      </trkpt>
      <trkpt lat="37.355048" lon="-3.823592">
        <ele>758.582</ele>
        <time>2021-10-16T20:26:50Z</time>
      </trkpt>
      <trkpt lat="37.354754" lon="-3.823831">
        <ele>758.569</ele>
        <time>2021-10-16T20:26:52Z</time>
      </trkpt>
      <trkpt lat="37.354617" lon="-3.823983">
        <ele>758.654</ele>
        <time>2021-10-16T20:26:53Z</time>
      </trkpt>
      <trkpt lat="37.354496" lon="-3.824153">
        <ele>758.356</ele>
        <time>2021-10-16T20:26:54Z</time>
      </trkpt>
      <trkpt lat="37.354388" lon="-3.824334">
        <ele>758.111</ele>
        <time>2021-10-16T20:26:55Z</time>
      </trkpt>
      <trkpt lat="37.354289" lon="-3.824531">
        <ele>758.008</ele>
        <time>2021-10-16T20:26:56Z</time>
      </trkpt>
      <trkpt lat="37.354105" lon="-3.824909">
        <ele>757.053</ele>
        <time>2021-10-16T20:26:58Z</time>
      </trkpt>
      <trkpt lat="37.354009" lon="-3.825093">
        <ele>756.931</ele>
        <time>2021-10-16T20:26:59Z</time>
      </trkpt>
      <trkpt lat="37.353906" lon="-3.825260">
        <ele>757.390</ele>
        <time>2021-10-16T20:27:00Z</time>
      </trkpt>
      <trkpt lat="37.353786" lon="-3.825408">
        <ele>757.774</ele>
        <time>2021-10-16T20:27:01Z</time>
      </trkpt>
      <trkpt lat="37.353649" lon="-3.825545">
        <ele>758.269</ele>
        <time>2021-10-16T20:27:02Z</time>
      </trkpt>
      <trkpt lat="37.353356" lon="-3.825743">
        <ele>759.558</ele>
        <time>2021-10-16T20:27:04Z</time>
      </trkpt>
      <trkpt lat="37.353194" lon="-3.825817">
        <ele>760.150</ele>
        <time>2021-10-16T20:27:05Z</time>
      </trkpt>
      <trkpt lat="37.353029" lon="-3.825879">
        <ele>761.067</ele>
        <time>2021-10-16T20:27:06Z</time>
      </trkpt>
      <trkpt lat="37.352691" lon="-3.826008">
        <ele>762.587</ele>
        <time>2021-10-16T20:27:08Z</time>
      </trkpt>
      <trkpt lat="37.352368" lon="-3.826165">
        <ele>764.742</ele>
        <time>2021-10-16T20:27:10Z</time>
      </trkpt>
      <trkpt lat="37.352209" lon="-3.826260">
        <ele>765.826</ele>
        <time>2021-10-16T20:27:11Z</time>
      </trkpt>
      <trkpt lat="37.352054" lon="-3.826366">
        <ele>766.708</ele>
        <time>2021-10-16T20:27:12Z</time>
      </trkpt>
      <trkpt lat="37.351756" lon="-3.826619">
        <ele>768.456</ele>
        <time>2021-10-16T20:27:14Z</time>
      </trkpt>
      <trkpt lat="37.351499" lon="-3.826914">
        <ele>769.284</ele>
        <time>2021-10-16T20:27:16Z</time>
      </trkpt>
      <trkpt lat="37.351378" lon="-3.827078">
        <ele>770.273</ele>
        <time>2021-10-16T20:27:17Z</time>
      </trkpt>
      <trkpt lat="37.351259" lon="-3.827243">
        <ele>771.497</ele>
        <time>2021-10-16T20:27:18Z</time>
      </trkpt>
      <trkpt lat="37.351023" lon="-3.827584">
        <ele>773.272</ele>
        <time>2021-10-16T20:27:20Z</time>
      </trkpt>
      <trkpt lat="37.350796" lon="-3.827915">
        <ele>774.741</ele>
        <time>2021-10-16T20:27:22Z</time>
      </trkpt>
      <trkpt lat="37.350679" lon="-3.828084">
        <ele>775.273</ele>
        <time>2021-10-16T20:27:23Z</time>
      </trkpt>
      <trkpt lat="37.350564" lon="-3.828251">
        <ele>775.920</ele>
        <time>2021-10-16T20:27:24Z</time>
      </trkpt>
      <trkpt lat="37.350340" lon="-3.828584">
        <ele>777.662</ele>
        <time>2021-10-16T20:27:26Z</time>
      </trkpt>
      <trkpt lat="37.350132" lon="-3.828891">
        <ele>779.383</ele>
        <time>2021-10-16T20:27:28Z</time>
      </trkpt>
      <trkpt lat="37.350030" lon="-3.829041">
        <ele>780.111</ele>
        <time>2021-10-16T20:27:29Z</time>
      </trkpt>
      <trkpt lat="37.349928" lon="-3.829189">
        <ele>780.808</ele>
        <time>2021-10-16T20:27:30Z</time>
      </trkpt>
      <trkpt lat="37.349825" lon="-3.829334">
        <ele>781.474</ele>
        <time>2021-10-16T20:27:31Z</time>
      </trkpt>
      <trkpt lat="37.349718" lon="-3.829484">
        <ele>781.812</ele>
        <time>2021-10-16T20:27:32Z</time>
      </trkpt>
      <trkpt lat="37.349513" lon="-3.829778">
        <ele>783.741</ele>
        <time>2021-10-16T20:27:34Z</time>
      </trkpt>
      <trkpt lat="37.349300" lon="-3.830081">
        <ele>785.325</ele>
        <time>2021-10-16T20:27:36Z</time>
      </trkpt>
      <trkpt lat="37.349193" lon="-3.830235">
        <ele>786.560</ele>
        <time>2021-10-16T20:27:37Z</time>
      </trkpt>
      <trkpt lat="37.349084" lon="-3.830394">
        <ele>787.789</ele>
        <time>2021-10-16T20:27:38Z</time>
      </trkpt>
      <trkpt lat="37.348881" lon="-3.830680">
        <ele>788.461</ele>
        <time>2021-10-16T20:27:40Z</time>
      </trkpt>
      <trkpt lat="37.348679" lon="-3.830968">
        <ele>790.338</ele>
        <time>2021-10-16T20:27:42Z</time>
      </trkpt>
      <trkpt lat="37.348578" lon="-3.831116">
        <ele>790.651</ele>
        <time>2021-10-16T20:27:43Z</time>
      </trkpt>
      <trkpt lat="37.348473" lon="-3.831270">
        <ele>791.201</ele>
        <time>2021-10-16T20:27:44Z</time>
      </trkpt>
      <trkpt lat="37.348267" lon="-3.831564">
        <ele>792.811</ele>
        <time>2021-10-16T20:27:46Z</time>
      </trkpt>
      <trkpt lat="37.348047" lon="-3.831853">
        <ele>793.608</ele>
        <time>2021-10-16T20:27:48Z</time>
      </trkpt>
      <trkpt lat="37.347812" lon="-3.832115">
        <ele>795.423</ele>
        <time>2021-10-16T20:27:50Z</time>
      </trkpt>
      <trkpt lat="37.347566" lon="-3.832330">
        <ele>796.331</ele>
        <time>2021-10-16T20:27:52Z</time>
      </trkpt>
      <trkpt lat="37.347430" lon="-3.832423">
        <ele>796.740</ele>
        <time>2021-10-16T20:27:53Z</time>
      </trkpt>
      <trkpt lat="37.347292" lon="-3.832507">
        <ele>797.074</ele>
        <time>2021-10-16T20:27:54Z</time>
      </trkpt>
      <trkpt lat="37.347001" lon="-3.832650">
        <ele>798.529</ele>
        <time>2021-10-16T20:27:56Z</time>
      </trkpt>
      <trkpt lat="37.346708" lon="-3.832752">
        <ele>799.058</ele>
        <time>2021-10-16T20:27:58Z</time>
      </trkpt>
      <trkpt lat="37.346398" lon="-3.832820">
        <ele>800.680</ele>
        <time>2021-10-16T20:28:00Z</time>
      </trkpt>
      <trkpt lat="37.346076" lon="-3.832839">
        <ele>802.447</ele>
        <time>2021-10-16T20:28:02Z</time>
      </trkpt>
      <trkpt lat="37.345759" lon="-3.832805">
        <ele>803.162</ele>
        <time>2021-10-16T20:28:04Z</time>
      </trkpt>
      <trkpt lat="37.345597" lon="-3.832768">
        <ele>804.583</ele>
        <time>2021-10-16T20:28:05Z</time>
      </trkpt>
      <trkpt lat="37.345437" lon="-3.832722">
        <ele>804.911</ele>
        <time>2021-10-16T20:28:06Z</time>
      </trkpt>
      <trkpt lat="37.345113" lon="-3.832612">
        <ele>806.308</ele>
        <time>2021-10-16T20:28:08Z</time>
      </trkpt>
      <trkpt lat="37.344800" lon="-3.832500">
        <ele>807.764</ele>
        <time>2021-10-16T20:28:10Z</time>
      </trkpt>
      <trkpt lat="37.344483" lon="-3.832382">
        <ele>809.132</ele>
        <time>2021-10-16T20:28:12Z</time>
      </trkpt>
      <trkpt lat="37.344323" lon="-3.832324">
        <ele>809.661</ele>
        <time>2021-10-16T20:28:13Z</time>
      </trkpt>
      <trkpt lat="37.344161" lon="-3.832268">
        <ele>809.715</ele>
        <time>2021-10-16T20:28:14Z</time>
      </trkpt>
      <trkpt lat="37.343848" lon="-3.832171">
        <ele>811.170</ele>
        <time>2021-10-16T20:28:16Z</time>
      </trkpt>
      <trkpt lat="37.343685" lon="-3.832132">
        <ele>812.189</ele>
        <time>2021-10-16T20:28:17Z</time>
      </trkpt>
      <trkpt lat="37.343522" lon="-3.832105">
        <ele>812.521</ele>
        <time>2021-10-16T20:28:18Z</time>
      </trkpt>
      <trkpt lat="37.343185" lon="-3.832094">
        <ele>812.818</ele>
        <time>2021-10-16T20:28:20Z</time>
      </trkpt>
      <trkpt lat="37.342863" lon="-3.832162">
        <ele>814.415</ele>
        <time>2021-10-16T20:28:22Z</time>
      </trkpt>
      <trkpt lat="37.342701" lon="-3.832218">
        <ele>814.865</ele>
        <time>2021-10-16T20:28:23Z</time>
      </trkpt>
      <trkpt lat="37.342541" lon="-3.832279">
        <ele>814.911</ele>
        <time>2021-10-16T20:28:24Z</time>
      </trkpt>
      <trkpt lat="37.342381" lon="-3.832340">
        <ele>815.108</ele>
        <time>2021-10-16T20:28:25Z</time>
      </trkpt>
      <trkpt lat="37.342215" lon="-3.832395">
        <ele>815.669</ele>
        <time>2021-10-16T20:28:26Z</time>
      </trkpt>
      <trkpt lat="37.341918" lon="-3.832459">
        <ele>815.487</ele>
        <time>2021-10-16T20:28:28Z</time>
      </trkpt>
      <trkpt lat="37.341784" lon="-3.832475">
        <ele>815.246</ele>
        <time>2021-10-16T20:28:29Z</time>
      </trkpt>
      <trkpt lat="37.341660" lon="-3.832483">
        <ele>815.160</ele>
        <time>2021-10-16T20:28:30Z</time>
      </trkpt>
      <trkpt lat="37.341539" lon="-3.832484">
        <ele>814.925</ele>
        <time>2021-10-16T20:28:31Z</time>
      </trkpt>
      <trkpt lat="37.341415" lon="-3.832483">
        <ele>814.994</ele>
        <time>2021-10-16T20:28:32Z</time>
      </trkpt>
      <trkpt lat="37.341190" lon="-3.832477">
        <ele>814.196</ele>
        <time>2021-10-16T20:28:34Z</time>
      </trkpt>
      <trkpt lat="37.341081" lon="-3.832474">
        <ele>813.643</ele>
        <time>2021-10-16T20:28:35Z</time>
      </trkpt>
      <trkpt lat="37.340873" lon="-3.832467">
        <ele>813.024</ele>
        <time>2021-10-16T20:28:37Z</time>
      </trkpt>
      <trkpt lat="37.340768" lon="-3.832464">
        <ele>812.604</ele>
        <time>2021-10-16T20:28:38Z</time>
      </trkpt>
      <trkpt lat="37.340575" lon="-3.832458">
        <ele>812.014</ele>
        <time>2021-10-16T20:28:40Z</time>
      </trkpt>
      <trkpt lat="37.340478" lon="-3.832456">
        <ele>811.608</ele>
        <time>2021-10-16T20:28:41Z</time>
      </trkpt>
      <trkpt lat="37.340291" lon="-3.832457">
        <ele>810.750</ele>
        <time>2021-10-16T20:28:43Z</time>
      </trkpt>
      <trkpt lat="37.340196" lon="-3.832457">
        <ele>810.588</ele>
        <time>2021-10-16T20:28:44Z</time>
      </trkpt>
      <trkpt lat="37.340016" lon="-3.832451">
        <ele>809.217</ele>
        <time>2021-10-16T20:28:46Z</time>
      </trkpt>
      <trkpt lat="37.339927" lon="-3.832446">
        <ele>808.771</ele>
        <time>2021-10-16T20:28:47Z</time>
      </trkpt>
      <trkpt lat="37.339837" lon="-3.832440">
        <ele>808.526</ele>
        <time>2021-10-16T20:28:48Z</time>
      </trkpt>
      <trkpt lat="37.339649" lon="-3.832432">
        <ele>807.255</ele>
        <time>2021-10-16T20:28:50Z</time>
      </trkpt>
      <trkpt lat="37.339450" lon="-3.832432">
        <ele>806.137</ele>
        <time>2021-10-16T20:28:52Z</time>
      </trkpt>
      <trkpt lat="37.339352" lon="-3.832432">
        <ele>805.474</ele>
        <time>2021-10-16T20:28:53Z</time>
      </trkpt>
      <trkpt lat="37.339262" lon="-3.832430">
        <ele>804.926</ele>
        <time>2021-10-16T20:28:54Z</time>
      </trkpt>
      <trkpt lat="37.339094" lon="-3.832426">
        <ele>803.847</ele>
        <time>2021-10-16T20:28:56Z</time>
      </trkpt>
      <trkpt lat="37.338938" lon="-3.832422">
        <ele>803.311</ele>
        <time>2021-10-16T20:28:58Z</time>
      </trkpt>
      <trkpt lat="37.338856" lon="-3.832420">
        <ele>803.108</ele>
        <time>2021-10-16T20:28:59Z</time>
      </trkpt>
      <trkpt lat="37.338770" lon="-3.832419">
        <ele>803.120</ele>
        <time>2021-10-16T20:29:00Z</time>
      </trkpt>
      <trkpt lat="37.338678" lon="-3.832415">
        <ele>803.258</ele>
        <time>2021-10-16T20:29:01Z</time>
      </trkpt>
      <trkpt lat="37.338579" lon="-3.832413">
        <ele>803.017</ele>
        <time>2021-10-16T20:29:02Z</time>
      </trkpt>
      <trkpt lat="37.338386" lon="-3.832403">
        <ele>802.911</ele>
        <time>2021-10-16T20:29:04Z</time>
      </trkpt>
      <trkpt lat="37.338290" lon="-3.832397">
        <ele>803.016</ele>
        <time>2021-10-16T20:29:05Z</time>
      </trkpt>
      <trkpt lat="37.338197" lon="-3.832392">
        <ele>803.445</ele>
        <time>2021-10-16T20:29:06Z</time>
      </trkpt>
      <trkpt lat="37.338026" lon="-3.832393">
        <ele>803.967</ele>
        <time>2021-10-16T20:29:08Z</time>
      </trkpt>
      <trkpt lat="37.337885" lon="-3.832397">
        <ele>804.254</ele>
        <time>2021-10-16T20:29:10Z</time>
      </trkpt>
      <trkpt lat="37.337821" lon="-3.832398">
        <ele>804.157</ele>
        <time>2021-10-16T20:29:11Z</time>
      </trkpt>
      <trkpt lat="37.337759" lon="-3.832399">
        <ele>804.400</ele>
        <time>2021-10-16T20:29:12Z</time>
      </trkpt>
      <trkpt lat="37.337624" lon="-3.832399">
        <ele>804.820</ele>
        <time>2021-10-16T20:29:14Z</time>
      </trkpt>
      <trkpt lat="37.337471" lon="-3.832394">
        <ele>806.308</ele>
        <time>2021-10-16T20:29:16Z</time>
      </trkpt>
      <trkpt lat="37.337394" lon="-3.832392">
        <ele>807.083</ele>
        <time>2021-10-16T20:29:17Z</time>
      </trkpt>
      <trkpt lat="37.337263" lon="-3.832393">
        <ele>808.291</ele>
        <time>2021-10-16T20:29:19Z</time>
      </trkpt>
      <trkpt lat="37.337199" lon="-3.832392">
        <ele>808.820</ele>
        <time>2021-10-16T20:29:20Z</time>
      </trkpt>
      <trkpt lat="37.337065" lon="-3.832388">
        <ele>809.184</ele>
        <time>2021-10-16T20:29:22Z</time>
      </trkpt>
      <trkpt lat="37.336993" lon="-3.832386">
        <ele>809.299</ele>
        <time>2021-10-16T20:29:23Z</time>
      </trkpt>
      <trkpt lat="37.336914" lon="-3.832383">
        <ele>809.958</ele>
        <time>2021-10-16T20:29:24Z</time>
      </trkpt>
      <trkpt lat="37.336743" lon="-3.832377">
        <ele>810.220</ele>
        <time>2021-10-16T20:29:26Z</time>
      </trkpt>
      <trkpt lat="37.336561" lon="-3.832375">
        <ele>810.077</ele>
        <time>2021-10-16T20:29:28Z</time>
      </trkpt>
      <trkpt lat="37.336464" lon="-3.832373">
        <ele>810.236</ele>
        <time>2021-10-16T20:29:29Z</time>
      </trkpt>
      <trkpt lat="37.336365" lon="-3.832369">
        <ele>810.617</ele>
        <time>2021-10-16T20:29:30Z</time>
      </trkpt>
      <trkpt lat="37.336166" lon="-3.832355">
        <ele>811.818</ele>
        <time>2021-10-16T20:29:32Z</time>
      </trkpt>
      <trkpt lat="37.335973" lon="-3.832337">
        <ele>813.008</ele>
        <time>2021-10-16T20:29:34Z</time>
      </trkpt>
      <trkpt lat="37.335874" lon="-3.832330">
        <ele>813.231</ele>
        <time>2021-10-16T20:29:35Z</time>
      </trkpt>
      <trkpt lat="37.335692" lon="-3.832318">
        <ele>813.729</ele>
        <time>2021-10-16T20:29:37Z</time>
      </trkpt>
      <trkpt lat="37.335605" lon="-3.832315">
        <ele>813.788</ele>
        <time>2021-10-16T20:29:38Z</time>
      </trkpt>
      <trkpt lat="37.335434" lon="-3.832313">
        <ele>814.382</ele>
        <time>2021-10-16T20:29:40Z</time>
      </trkpt>
      <trkpt lat="37.335254" lon="-3.832312">
        <ele>814.787</ele>
        <time>2021-10-16T20:29:42Z</time>
      </trkpt>
      <trkpt lat="37.335160" lon="-3.832311">
        <ele>815.146</ele>
        <time>2021-10-16T20:29:43Z</time>
      </trkpt>
      <trkpt lat="37.335061" lon="-3.832310">
        <ele>816.468</ele>
        <time>2021-10-16T20:29:44Z</time>
      </trkpt>
      <trkpt lat="37.334858" lon="-3.832312">
        <ele>816.875</ele>
        <time>2021-10-16T20:29:46Z</time>
      </trkpt>
      <trkpt lat="37.334749" lon="-3.832312">
        <ele>817.464</ele>
        <time>2021-10-16T20:29:47Z</time>
      </trkpt>
      <trkpt lat="37.334539" lon="-3.832307">
        <ele>819.406</ele>
        <time>2021-10-16T20:29:49Z</time>
      </trkpt>
      <trkpt lat="37.334434" lon="-3.832304">
        <ele>819.716</ele>
        <time>2021-10-16T20:29:50Z</time>
      </trkpt>
      <trkpt lat="37.334231" lon="-3.832298">
        <ele>820.508</ele>
        <time>2021-10-16T20:29:52Z</time>
      </trkpt>
      <trkpt lat="37.334006" lon="-3.832284">
        <ele>822.094</ele>
        <time>2021-10-16T20:29:54Z</time>
      </trkpt>
      <trkpt lat="37.333884" lon="-3.832264">
        <ele>822.982</ele>
        <time>2021-10-16T20:29:55Z</time>
      </trkpt>
      <trkpt lat="37.333755" lon="-3.832236">
        <ele>824.151</ele>
        <time>2021-10-16T20:29:56Z</time>
      </trkpt>
      <trkpt lat="37.333522" lon="-3.832155">
        <ele>825.825</ele>
        <time>2021-10-16T20:29:58Z</time>
      </trkpt>
      <trkpt lat="37.333410" lon="-3.832103">
        <ele>826.840</ele>
        <time>2021-10-16T20:29:59Z</time>
      </trkpt>
      <trkpt lat="37.333187" lon="-3.831992">
        <ele>827.749</ele>
        <time>2021-10-16T20:30:01Z</time>
      </trkpt>
      <trkpt lat="37.333067" lon="-3.831933">
        <ele>828.651</ele>
        <time>2021-10-16T20:30:02Z</time>
      </trkpt>
      <trkpt lat="37.332827" lon="-3.831814">
        <ele>831.048</ele>
        <time>2021-10-16T20:30:04Z</time>
      </trkpt>
      <trkpt lat="37.332699" lon="-3.831751">
        <ele>831.436</ele>
        <time>2021-10-16T20:30:05Z</time>
      </trkpt>
      <trkpt lat="37.332436" lon="-3.831623">
        <ele>833.017</ele>
        <time>2021-10-16T20:30:07Z</time>
      </trkpt>
      <trkpt lat="37.332299" lon="-3.831556">
        <ele>834.018</ele>
        <time>2021-10-16T20:30:08Z</time>
      </trkpt>
      <trkpt lat="37.332036" lon="-3.831431">
        <ele>834.508</ele>
        <time>2021-10-16T20:30:10Z</time>
      </trkpt>
      <trkpt lat="37.331902" lon="-3.831367">
        <ele>835.411</ele>
        <time>2021-10-16T20:30:11Z</time>
      </trkpt>
      <trkpt lat="37.331634" lon="-3.831255">
        <ele>836.189</ele>
        <time>2021-10-16T20:30:13Z</time>
      </trkpt>
      <trkpt lat="37.331497" lon="-3.831209">
        <ele>836.718</ele>
        <time>2021-10-16T20:30:14Z</time>
      </trkpt>
      <trkpt lat="37.331225" lon="-3.831166">
        <ele>837.882</ele>
        <time>2021-10-16T20:30:16Z</time>
      </trkpt>
      <trkpt lat="37.331082" lon="-3.831167">
        <ele>837.897</ele>
        <time>2021-10-16T20:30:17Z</time>
      </trkpt>
      <trkpt lat="37.330795" lon="-3.831221">
        <ele>839.316</ele>
        <time>2021-10-16T20:30:19Z</time>
      </trkpt>
      <trkpt lat="37.330648" lon="-3.831273">
        <ele>840.318</ele>
        <time>2021-10-16T20:30:20Z</time>
      </trkpt>
      <trkpt lat="37.330376" lon="-3.831407">
        <ele>841.225</ele>
        <time>2021-10-16T20:30:22Z</time>
      </trkpt>
      <trkpt lat="37.330244" lon="-3.831482">
        <ele>841.956</ele>
        <time>2021-10-16T20:30:23Z</time>
      </trkpt>
      <trkpt lat="37.330113" lon="-3.831557">
        <ele>841.959</ele>
        <time>2021-10-16T20:30:24Z</time>
      </trkpt>
      <trkpt lat="37.329983" lon="-3.831630">
        <ele>841.814</ele>
        <time>2021-10-16T20:30:25Z</time>
      </trkpt>
      <trkpt lat="37.329848" lon="-3.831705">
        <ele>842.108</ele>
        <time>2021-10-16T20:30:26Z</time>
      </trkpt>
      <trkpt lat="37.329586" lon="-3.831842">
        <ele>842.113</ele>
        <time>2021-10-16T20:30:28Z</time>
      </trkpt>
      <trkpt lat="37.329327" lon="-3.831961">
        <ele>842.961</ele>
        <time>2021-10-16T20:30:30Z</time>
      </trkpt>
      <trkpt lat="37.329049" lon="-3.832056">
        <ele>842.490</ele>
        <time>2021-10-16T20:30:32Z</time>
      </trkpt>
      <trkpt lat="37.328769" lon="-3.832121">
        <ele>841.744</ele>
        <time>2021-10-16T20:30:34Z</time>
      </trkpt>
      <trkpt lat="37.328623" lon="-3.832144">
        <ele>841.119</ele>
        <time>2021-10-16T20:30:35Z</time>
      </trkpt>
      <trkpt lat="37.328477" lon="-3.832164">
        <ele>839.938</ele>
        <time>2021-10-16T20:30:36Z</time>
      </trkpt>
      <trkpt lat="37.328175" lon="-3.832193">
        <ele>839.810</ele>
        <time>2021-10-16T20:30:38Z</time>
      </trkpt>
      <trkpt lat="37.327877" lon="-3.832216">
        <ele>839.757</ele>
        <time>2021-10-16T20:30:40Z</time>
      </trkpt>
      <trkpt lat="37.327587" lon="-3.832237">
        <ele>839.885</ele>
        <time>2021-10-16T20:30:42Z</time>
      </trkpt>
      <trkpt lat="37.327443" lon="-3.832245">
        <ele>840.289</ele>
        <time>2021-10-16T20:30:43Z</time>
      </trkpt>
      <trkpt lat="37.327296" lon="-3.832255">
        <ele>840.217</ele>
        <time>2021-10-16T20:30:44Z</time>
      </trkpt>
      <trkpt lat="37.327016" lon="-3.832276">
        <ele>839.708</ele>
        <time>2021-10-16T20:30:46Z</time>
      </trkpt>
      <trkpt lat="37.326869" lon="-3.832290">
        <ele>839.396</ele>
        <time>2021-10-16T20:30:47Z</time>
      </trkpt>
      <trkpt lat="37.326720" lon="-3.832304">
        <ele>839.844</ele>
        <time>2021-10-16T20:30:48Z</time>
      </trkpt>
      <trkpt lat="37.326411" lon="-3.832338">
        <ele>838.983</ele>
        <time>2021-10-16T20:30:50Z</time>
      </trkpt>
      <trkpt lat="37.326104" lon="-3.832397">
        <ele>840.037</ele>
        <time>2021-10-16T20:30:52Z</time>
      </trkpt>
      <trkpt lat="37.325793" lon="-3.832493">
        <ele>840.322</ele>
        <time>2021-10-16T20:30:54Z</time>
      </trkpt>
      <trkpt lat="37.325485" lon="-3.832647">
        <ele>838.961</ele>
        <time>2021-10-16T20:30:56Z</time>
      </trkpt>
      <trkpt lat="37.325203" lon="-3.832838">
        <ele>838.763</ele>
        <time>2021-10-16T20:30:58Z</time>
      </trkpt>
      <trkpt lat="37.324920" lon="-3.833051">
        <ele>838.670</ele>
        <time>2021-10-16T20:31:00Z</time>
      </trkpt>
      <trkpt lat="37.324780" lon="-3.833164">
        <ele>838.446</ele>
        <time>2021-10-16T20:31:01Z</time>
      </trkpt>
      <trkpt lat="37.324638" lon="-3.833281">
        <ele>838.088</ele>
        <time>2021-10-16T20:31:02Z</time>
      </trkpt>
      <trkpt lat="37.324382" lon="-3.833504">
        <ele>837.316</ele>
        <time>2021-10-16T20:31:04Z</time>
      </trkpt>
      <trkpt lat="37.324257" lon="-3.833625">
        <ele>836.808</ele>
        <time>2021-10-16T20:31:05Z</time>
      </trkpt>
      <trkpt lat="37.324036" lon="-3.833891">
        <ele>837.112</ele>
        <time>2021-10-16T20:31:07Z</time>
      </trkpt>
      <trkpt lat="37.323938" lon="-3.834046">
        <ele>836.730</ele>
        <time>2021-10-16T20:31:08Z</time>
      </trkpt>
      <trkpt lat="37.323785" lon="-3.834373">
        <ele>836.399</ele>
        <time>2021-10-16T20:31:10Z</time>
      </trkpt>
      <trkpt lat="37.323725" lon="-3.834557">
        <ele>836.583</ele>
        <time>2021-10-16T20:31:11Z</time>
      </trkpt>
      <trkpt lat="37.323678" lon="-3.834749">
        <ele>836.328</ele>
        <time>2021-10-16T20:31:12Z</time>
      </trkpt>
      <trkpt lat="37.323642" lon="-3.834947">
        <ele>836.097</ele>
        <time>2021-10-16T20:31:13Z</time>
      </trkpt>
      <trkpt lat="37.323612" lon="-3.835151">
        <ele>835.859</ele>
        <time>2021-10-16T20:31:14Z</time>
      </trkpt>
      <trkpt lat="37.323551" lon="-3.835539">
        <ele>836.276</ele>
        <time>2021-10-16T20:31:16Z</time>
      </trkpt>
      <trkpt lat="37.323510" lon="-3.835738">
        <ele>835.822</ele>
        <time>2021-10-16T20:31:17Z</time>
      </trkpt>
      <trkpt lat="37.323394" lon="-3.836115">
        <ele>836.162</ele>
        <time>2021-10-16T20:31:19Z</time>
      </trkpt>
      <trkpt lat="37.323312" lon="-3.836297">
        <ele>835.708</ele>
        <time>2021-10-16T20:31:20Z</time>
      </trkpt>
      <trkpt lat="37.323129" lon="-3.836624">
        <ele>834.808</ele>
        <time>2021-10-16T20:31:22Z</time>
      </trkpt>
      <trkpt lat="37.323030" lon="-3.836783">
        <ele>834.540</ele>
        <time>2021-10-16T20:31:23Z</time>
      </trkpt>
      <trkpt lat="37.322934" lon="-3.836937">
        <ele>834.538</ele>
        <time>2021-10-16T20:31:24Z</time>
      </trkpt>
      <trkpt lat="37.322840" lon="-3.837090">
        <ele>835.197</ele>
        <time>2021-10-16T20:31:25Z</time>
      </trkpt>
      <trkpt lat="37.322745" lon="-3.837243">
        <ele>834.831</ele>
        <time>2021-10-16T20:31:26Z</time>
      </trkpt>
      <trkpt lat="37.322550" lon="-3.837527">
        <ele>834.526</ele>
        <time>2021-10-16T20:31:28Z</time>
      </trkpt>
      <trkpt lat="37.322333" lon="-3.837787">
        <ele>834.225</ele>
        <time>2021-10-16T20:31:30Z</time>
      </trkpt>
      <trkpt lat="37.322211" lon="-3.837899">
        <ele>834.067</ele>
        <time>2021-10-16T20:31:31Z</time>
      </trkpt>
      <trkpt lat="37.322077" lon="-3.837998">
        <ele>834.134</ele>
        <time>2021-10-16T20:31:32Z</time>
      </trkpt>
      <trkpt lat="37.321802" lon="-3.838130">
        <ele>833.969</ele>
        <time>2021-10-16T20:31:34Z</time>
      </trkpt>
      <trkpt lat="37.321656" lon="-3.838173">
        <ele>833.404</ele>
        <time>2021-10-16T20:31:35Z</time>
      </trkpt>
      <trkpt lat="37.321359" lon="-3.838195">
        <ele>833.624</ele>
        <time>2021-10-16T20:31:37Z</time>
      </trkpt>
      <trkpt lat="37.321212" lon="-3.838179">
        <ele>833.208</ele>
        <time>2021-10-16T20:31:38Z</time>
      </trkpt>
      <trkpt lat="37.320939" lon="-3.838094">
        <ele>833.824</ele>
        <time>2021-10-16T20:31:40Z</time>
      </trkpt>
      <trkpt lat="37.320804" lon="-3.838025">
        <ele>834.262</ele>
        <time>2021-10-16T20:31:41Z</time>
      </trkpt>
      <trkpt lat="37.320554" lon="-3.837839">
        <ele>833.541</ele>
        <time>2021-10-16T20:31:43Z</time>
      </trkpt>
      <trkpt lat="37.320435" lon="-3.837715">
        <ele>832.915</ele>
        <time>2021-10-16T20:31:44Z</time>
      </trkpt>
      <trkpt lat="37.320233" lon="-3.837433">
        <ele>833.290</ele>
        <time>2021-10-16T20:31:46Z</time>
      </trkpt>
      <trkpt lat="37.320147" lon="-3.837270">
        <ele>832.519</ele>
        <time>2021-10-16T20:31:47Z</time>
      </trkpt>
      <trkpt lat="37.320019" lon="-3.836904">
        <ele>832.371</ele>
        <time>2021-10-16T20:31:49Z</time>
      </trkpt>
      <trkpt lat="37.319979" lon="-3.836697">
        <ele>832.228</ele>
        <time>2021-10-16T20:31:50Z</time>
      </trkpt>
      <trkpt lat="37.319948" lon="-3.836301">
        <ele>832.831</ele>
        <time>2021-10-16T20:31:52Z</time>
      </trkpt>
      <trkpt lat="37.319953" lon="-3.836106">
        <ele>831.761</ele>
        <time>2021-10-16T20:31:53Z</time>
      </trkpt>
      <trkpt lat="37.319967" lon="-3.835917">
        <ele>830.707</ele>
        <time>2021-10-16T20:31:54Z</time>
      </trkpt>
      <trkpt lat="37.319992" lon="-3.835534">
        <ele>830.008</ele>
        <time>2021-10-16T20:31:56Z</time>
      </trkpt>
      <trkpt lat="37.319992" lon="-3.835156">
        <ele>829.371</ele>
        <time>2021-10-16T20:31:58Z</time>
      </trkpt>
      <trkpt lat="37.319939" lon="-3.834764">
        <ele>828.539</ele>
        <time>2021-10-16T20:32:00Z</time>
      </trkpt>
      <trkpt lat="37.319820" lon="-3.834377">
        <ele>825.778</ele>
        <time>2021-10-16T20:32:02Z</time>
      </trkpt>
      <trkpt lat="37.319641" lon="-3.834038">
        <ele>825.872</ele>
        <time>2021-10-16T20:32:04Z</time>
      </trkpt>
      <trkpt lat="37.319403" lon="-3.833737">
        <ele>825.797</ele>
        <time>2021-10-16T20:32:06Z</time>
      </trkpt>
      <trkpt lat="37.319125" lon="-3.833478">
        <ele>824.066</ele>
        <time>2021-10-16T20:32:08Z</time>
      </trkpt>
      <trkpt lat="37.318843" lon="-3.833235">
        <ele>822.688</ele>
        <time>2021-10-16T20:32:10Z</time>
      </trkpt>
      <trkpt lat="37.318697" lon="-3.833106">
        <ele>822.095</ele>
        <time>2021-10-16T20:32:11Z</time>
      </trkpt>
      <trkpt lat="37.318417" lon="-3.832860">
        <ele>820.857</ele>
        <time>2021-10-16T20:32:13Z</time>
      </trkpt>
      <trkpt lat="37.318273" lon="-3.832737">
        <ele>820.200</ele>
        <time>2021-10-16T20:32:14Z</time>
      </trkpt>
      <trkpt lat="37.318007" lon="-3.832513">
        <ele>818.220</ele>
        <time>2021-10-16T20:32:16Z</time>
      </trkpt>
      <trkpt lat="37.317737" lon="-3.832288">
        <ele>817.108</ele>
        <time>2021-10-16T20:32:18Z</time>
      </trkpt>
      <trkpt lat="37.317469" lon="-3.832040">
        <ele>815.033</ele>
        <time>2021-10-16T20:32:20Z</time>
      </trkpt>
      <trkpt lat="37.317200" lon="-3.831801">
        <ele>813.141</ele>
        <time>2021-10-16T20:32:22Z</time>
      </trkpt>
      <trkpt lat="37.317059" lon="-3.831679">
        <ele>812.380</ele>
        <time>2021-10-16T20:32:23Z</time>
      </trkpt>
      <trkpt lat="37.316791" lon="-3.831434">
        <ele>810.834</ele>
        <time>2021-10-16T20:32:25Z</time>
      </trkpt>
      <trkpt lat="37.316658" lon="-3.831309">
        <ele>809.859</ele>
        <time>2021-10-16T20:32:26Z</time>
      </trkpt>
      <trkpt lat="37.316409" lon="-3.831069">
        <ele>807.888</ele>
        <time>2021-10-16T20:32:28Z</time>
      </trkpt>
      <trkpt lat="37.316280" lon="-3.830940">
        <ele>806.990</ele>
        <time>2021-10-16T20:32:29Z</time>
      </trkpt>
      <trkpt lat="37.316017" lon="-3.830673">
        <ele>804.527</ele>
        <time>2021-10-16T20:32:31Z</time>
      </trkpt>
      <trkpt lat="37.315879" lon="-3.830530">
        <ele>804.094</ele>
        <time>2021-10-16T20:32:32Z</time>
      </trkpt>
      <trkpt lat="37.315616" lon="-3.830255">
        <ele>802.957</ele>
        <time>2021-10-16T20:32:34Z</time>
      </trkpt>
      <trkpt lat="37.315350" lon="-3.829971">
        <ele>801.922</ele>
        <time>2021-10-16T20:32:36Z</time>
      </trkpt>
      <trkpt lat="37.315084" lon="-3.829683">
        <ele>800.408</ele>
        <time>2021-10-16T20:32:38Z</time>
      </trkpt>
      <trkpt lat="37.314830" lon="-3.829407">
        <ele>799.167</ele>
        <time>2021-10-16T20:32:40Z</time>
      </trkpt>
      <trkpt lat="37.314568" lon="-3.829136">
        <ele>796.995</ele>
        <time>2021-10-16T20:32:42Z</time>
      </trkpt>
      <trkpt lat="37.314296" lon="-3.828863">
        <ele>795.474</ele>
        <time>2021-10-16T20:32:44Z</time>
      </trkpt>
      <trkpt lat="37.314026" lon="-3.828605">
        <ele>794.488</ele>
        <time>2021-10-16T20:32:46Z</time>
      </trkpt>
      <trkpt lat="37.313881" lon="-3.828474">
        <ele>793.753</ele>
        <time>2021-10-16T20:32:47Z</time>
      </trkpt>
      <trkpt lat="37.313597" lon="-3.828229">
        <ele>792.852</ele>
        <time>2021-10-16T20:32:49Z</time>
      </trkpt>
      <trkpt lat="37.313454" lon="-3.828104">
        <ele>792.324</ele>
        <time>2021-10-16T20:32:50Z</time>
      </trkpt>
      <trkpt lat="37.313192" lon="-3.827846">
        <ele>791.781</ele>
        <time>2021-10-16T20:32:52Z</time>
      </trkpt>
      <trkpt lat="37.313066" lon="-3.827693">
        <ele>791.176</ele>
        <time>2021-10-16T20:32:53Z</time>
      </trkpt>
      <trkpt lat="37.312841" lon="-3.827318">
        <ele>790.390</ele>
        <time>2021-10-16T20:32:55Z</time>
      </trkpt>
      <trkpt lat="37.312742" lon="-3.827091">
        <ele>789.719</ele>
        <time>2021-10-16T20:32:56Z</time>
      </trkpt>
      <trkpt lat="37.312568" lon="-3.826661">
        <ele>788.908</ele>
        <time>2021-10-16T20:32:58Z</time>
      </trkpt>
      <trkpt lat="37.312479" lon="-3.826452">
        <ele>788.595</ele>
        <time>2021-10-16T20:32:59Z</time>
      </trkpt>
      <trkpt lat="37.312395" lon="-3.826246">
        <ele>788.563</ele>
        <time>2021-10-16T20:33:00Z</time>
      </trkpt>
      <trkpt lat="37.312234" lon="-3.825844">
        <ele>787.292</ele>
        <time>2021-10-16T20:33:02Z</time>
      </trkpt>
      <trkpt lat="37.312085" lon="-3.825477">
        <ele>786.196</ele>
        <time>2021-10-16T20:33:04Z</time>
      </trkpt>
      <trkpt lat="37.311930" lon="-3.825107">
        <ele>784.821</ele>
        <time>2021-10-16T20:33:06Z</time>
      </trkpt>
      <trkpt lat="37.311763" lon="-3.824749">
        <ele>783.920</ele>
        <time>2021-10-16T20:33:08Z</time>
      </trkpt>
      <trkpt lat="37.311563" lon="-3.824427">
        <ele>783.412</ele>
        <time>2021-10-16T20:33:10Z</time>
      </trkpt>
      <trkpt lat="37.311445" lon="-3.824277">
        <ele>783.099</ele>
        <time>2021-10-16T20:33:11Z</time>
      </trkpt>
      <trkpt lat="37.311317" lon="-3.824134">
        <ele>783.384</ele>
        <time>2021-10-16T20:33:12Z</time>
      </trkpt>
      <trkpt lat="37.311039" lon="-3.823852">
        <ele>782.607</ele>
        <time>2021-10-16T20:33:14Z</time>
      </trkpt>
      <trkpt lat="37.310757" lon="-3.823572">
        <ele>782.117</ele>
        <time>2021-10-16T20:33:16Z</time>
      </trkpt>
      <trkpt lat="37.310608" lon="-3.823425">
        <ele>782.308</ele>
        <time>2021-10-16T20:33:17Z</time>
      </trkpt>
      <trkpt lat="37.310315" lon="-3.823132">
        <ele>782.176</ele>
        <time>2021-10-16T20:33:19Z</time>
      </trkpt>
      <trkpt lat="37.310172" lon="-3.822982">
        <ele>782.714</ele>
        <time>2021-10-16T20:33:20Z</time>
      </trkpt>
      <trkpt lat="37.309925" lon="-3.822700">
        <ele>781.793</ele>
        <time>2021-10-16T20:33:22Z</time>
      </trkpt>
      <trkpt lat="37.309697" lon="-3.822390">
        <ele>782.547</ele>
        <time>2021-10-16T20:33:24Z</time>
      </trkpt>
      <trkpt lat="37.309471" lon="-3.822058">
        <ele>782.362</ele>
        <time>2021-10-16T20:33:26Z</time>
      </trkpt>
      <trkpt lat="37.309254" lon="-3.821727">
        <ele>781.241</ele>
        <time>2021-10-16T20:33:28Z</time>
      </trkpt>
      <trkpt lat="37.309146" lon="-3.821563">
        <ele>780.923</ele>
        <time>2021-10-16T20:33:29Z</time>
      </trkpt>
      <trkpt lat="37.308946" lon="-3.821248">
        <ele>779.750</ele>
        <time>2021-10-16T20:33:31Z</time>
      </trkpt>
      <trkpt lat="37.308845" lon="-3.821090">
        <ele>779.755</ele>
        <time>2021-10-16T20:33:32Z</time>
      </trkpt>
      <trkpt lat="37.308646" lon="-3.820787">
        <ele>779.207</ele>
        <time>2021-10-16T20:33:34Z</time>
      </trkpt>
      <trkpt lat="37.308437" lon="-3.820471">
        <ele>778.017</ele>
        <time>2021-10-16T20:33:36Z</time>
      </trkpt>
      <trkpt lat="37.308222" lon="-3.820162">
        <ele>777.108</ele>
        <time>2021-10-16T20:33:38Z</time>
      </trkpt>
      <trkpt lat="37.307988" lon="-3.819890">
        <ele>775.423</ele>
        <time>2021-10-16T20:33:40Z</time>
      </trkpt>
      <trkpt lat="37.307699" lon="-3.819665">
        <ele>774.721</ele>
        <time>2021-10-16T20:33:42Z</time>
      </trkpt>
      <trkpt lat="37.307363" lon="-3.819528">
        <ele>773.710</ele>
        <time>2021-10-16T20:33:44Z</time>
      </trkpt>
      <trkpt lat="37.307022" lon="-3.819482">
        <ele>773.614</ele>
        <time>2021-10-16T20:33:46Z</time>
      </trkpt>
      <trkpt lat="37.306851" lon="-3.819476">
        <ele>773.189</ele>
        <time>2021-10-16T20:33:47Z</time>
      </trkpt>
      <trkpt lat="37.306515" lon="-3.819471">
        <ele>771.848</ele>
        <time>2021-10-16T20:33:49Z</time>
      </trkpt>
      <trkpt lat="37.306343" lon="-3.819472">
        <ele>771.770</ele>
        <time>2021-10-16T20:33:50Z</time>
      </trkpt>
      <trkpt lat="37.306014" lon="-3.819473">
        <ele>771.497</ele>
        <time>2021-10-16T20:33:52Z</time>
      </trkpt>
      <trkpt lat="37.305846" lon="-3.819472">
        <ele>771.241</ele>
        <time>2021-10-16T20:33:53Z</time>
      </trkpt>
      <trkpt lat="37.305685" lon="-3.819472">
        <ele>770.681</ele>
        <time>2021-10-16T20:33:54Z</time>
      </trkpt>
      <trkpt lat="37.305379" lon="-3.819464">
        <ele>770.309</ele>
        <time>2021-10-16T20:33:56Z</time>
      </trkpt>
      <trkpt lat="37.305100" lon="-3.819433">
        <ele>769.608</ele>
        <time>2021-10-16T20:33:58Z</time>
      </trkpt>
      <trkpt lat="37.304822" lon="-3.819358">
        <ele>768.722</ele>
        <time>2021-10-16T20:34:00Z</time>
      </trkpt>
      <trkpt lat="37.304547" lon="-3.819215">
        <ele>767.620</ele>
        <time>2021-10-16T20:34:02Z</time>
      </trkpt>
      <trkpt lat="37.304303" lon="-3.819013">
        <ele>764.319</ele>
        <time>2021-10-16T20:34:04Z</time>
      </trkpt>
      <trkpt lat="37.304174" lon="-3.818883">
        <ele>763.443</ele>
        <time>2021-10-16T20:34:05Z</time>
      </trkpt>
      <trkpt lat="37.304035" lon="-3.818726">
        <ele>762.638</ele>
        <time>2021-10-16T20:34:06Z</time>
      </trkpt>
      <trkpt lat="37.303696" lon="-3.818338">
        <ele>760.257</ele>
        <time>2021-10-16T20:34:08Z</time>
      </trkpt>
      <trkpt lat="37.303288" lon="-3.817898">
        <ele>756.819</ele>
        <time>2021-10-16T20:34:10Z</time>
      </trkpt>
      <trkpt lat="37.303051" lon="-3.817644">
        <ele>755.966</ele>
        <time>2021-10-16T20:34:11Z</time>
      </trkpt>
      <trkpt lat="37.302801" lon="-3.817376">
        <ele>754.799</ele>
        <time>2021-10-16T20:34:12Z</time>
      </trkpt>
      <trkpt lat="37.302300" lon="-3.816848">
        <ele>751.407</ele>
        <time>2021-10-16T20:34:14Z</time>
      </trkpt>
      <trkpt lat="37.301858" lon="-3.816389">
        <ele>750.127</ele>
        <time>2021-10-16T20:34:16Z</time>
      </trkpt>
      <trkpt lat="37.301449" lon="-3.815978">
        <ele>749.808</ele>
        <time>2021-10-16T20:34:18Z</time>
      </trkpt>
      <trkpt lat="37.301040" lon="-3.815633">
        <ele>749.687</ele>
        <time>2021-10-16T20:34:20Z</time>
      </trkpt>
      <trkpt lat="37.300625" lon="-3.815436">
        <ele>749.845</ele>
        <time>2021-10-16T20:34:22Z</time>
      </trkpt>
      <trkpt lat="37.300194" lon="-3.815337">
        <ele>750.824</ele>
        <time>2021-10-16T20:34:24Z</time>
      </trkpt>
      <trkpt lat="37.299771" lon="-3.815239">
        <ele>750.128</ele>
        <time>2021-10-16T20:34:26Z</time>
      </trkpt>
      <trkpt lat="37.299369" lon="-3.815105">
        <ele>750.713</ele>
        <time>2021-10-16T20:34:28Z</time>
      </trkpt>
      <trkpt lat="37.298974" lon="-3.814896">
        <ele>750.782</ele>
        <time>2021-10-16T20:34:30Z</time>
      </trkpt>
      <trkpt lat="37.298785" lon="-3.814763">
        <ele>751.054</ele>
        <time>2021-10-16T20:34:31Z</time>
      </trkpt>
      <trkpt lat="37.298597" lon="-3.814613">
        <ele>752.541</ele>
        <time>2021-10-16T20:34:32Z</time>
      </trkpt>
      <trkpt lat="37.298274" lon="-3.814286">
        <ele>754.778</ele>
        <time>2021-10-16T20:34:34Z</time>
      </trkpt>
      <trkpt lat="37.298127" lon="-3.814095">
        <ele>756.633</ele>
        <time>2021-10-16T20:34:35Z</time>
      </trkpt>
      <trkpt lat="37.297866" lon="-3.813674">
        <ele>758.426</ele>
        <time>2021-10-16T20:34:37Z</time>
      </trkpt>
      <trkpt lat="37.297754" lon="-3.813434">
        <ele>760.508</ele>
        <time>2021-10-16T20:34:38Z</time>
      </trkpt>
      <trkpt lat="37.297570" lon="-3.812948">
        <ele>761.565</ele>
        <time>2021-10-16T20:34:40Z</time>
      </trkpt>
      <trkpt lat="37.297477" lon="-3.812697">
        <ele>762.683</ele>
        <time>2021-10-16T20:34:41Z</time>
      </trkpt>
      <trkpt lat="37.297315" lon="-3.812175">
        <ele>765.432</ele>
        <time>2021-10-16T20:34:43Z</time>
      </trkpt>
      <trkpt lat="37.297231" lon="-3.811904">
        <ele>767.366</ele>
        <time>2021-10-16T20:34:44Z</time>
      </trkpt>
      <trkpt lat="37.297071" lon="-3.811392">
        <ele>769.571</ele>
        <time>2021-10-16T20:34:46Z</time>
      </trkpt>
      <trkpt lat="37.296990" lon="-3.811131">
        <ele>770.470</ele>
        <time>2021-10-16T20:34:47Z</time>
      </trkpt>
      <trkpt lat="37.296837" lon="-3.810622">
        <ele>771.992</ele>
        <time>2021-10-16T20:34:49Z</time>
      </trkpt>
      <trkpt lat="37.296757" lon="-3.810374">
        <ele>773.059</ele>
        <time>2021-10-16T20:34:50Z</time>
      </trkpt>
      <trkpt lat="37.296593" lon="-3.809943">
        <ele>775.281</ele>
        <time>2021-10-16T20:34:52Z</time>
      </trkpt>
      <trkpt lat="37.296501" lon="-3.809733">
        <ele>775.461</ele>
        <time>2021-10-16T20:34:53Z</time>
      </trkpt>
      <trkpt lat="37.296299" lon="-3.809334">
        <ele>774.417</ele>
        <time>2021-10-16T20:34:55Z</time>
      </trkpt>
      <trkpt lat="37.296185" lon="-3.809148">
        <ele>773.608</ele>
        <time>2021-10-16T20:34:56Z</time>
      </trkpt>
      <trkpt lat="37.295954" lon="-3.808825">
        <ele>772.926</ele>
        <time>2021-10-16T20:34:58Z</time>
      </trkpt>
      <trkpt lat="37.295828" lon="-3.808669">
        <ele>772.934</ele>
        <time>2021-10-16T20:34:59Z</time>
      </trkpt>
      <trkpt lat="37.295561" lon="-3.808378">
        <ele>772.633</ele>
        <time>2021-10-16T20:35:01Z</time>
      </trkpt>
      <trkpt lat="37.295411" lon="-3.808243">
        <ele>772.427</ele>
        <time>2021-10-16T20:35:02Z</time>
      </trkpt>
      <trkpt lat="37.295107" lon="-3.808008">
        <ele>771.042</ele>
        <time>2021-10-16T20:35:04Z</time>
      </trkpt>
      <trkpt lat="37.294777" lon="-3.807782">
        <ele>770.021</ele>
        <time>2021-10-16T20:35:06Z</time>
      </trkpt>
      <trkpt lat="37.294426" lon="-3.807583">
        <ele>768.413</ele>
        <time>2021-10-16T20:35:08Z</time>
      </trkpt>
      <trkpt lat="37.294067" lon="-3.807411">
        <ele>766.670</ele>
        <time>2021-10-16T20:35:10Z</time>
      </trkpt>
      <trkpt lat="37.293690" lon="-3.807245">
        <ele>764.261</ele>
        <time>2021-10-16T20:35:12Z</time>
      </trkpt>
      <trkpt lat="37.293500" lon="-3.807161">
        <ele>763.221</ele>
        <time>2021-10-16T20:35:13Z</time>
      </trkpt>
      <trkpt lat="37.293303" lon="-3.807079">
        <ele>762.013</ele>
        <time>2021-10-16T20:35:14Z</time>
      </trkpt>
      <trkpt lat="37.292921" lon="-3.806931">
        <ele>759.108</ele>
        <time>2021-10-16T20:35:16Z</time>
      </trkpt>
      <trkpt lat="37.292545" lon="-3.806772">
        <ele>755.864</ele>
        <time>2021-10-16T20:35:18Z</time>
      </trkpt>
      <trkpt lat="37.292364" lon="-3.806695">
        <ele>754.892</ele>
        <time>2021-10-16T20:35:19Z</time>
      </trkpt>
      <trkpt lat="37.292181" lon="-3.806617">
        <ele>754.151</ele>
        <time>2021-10-16T20:35:20Z</time>
      </trkpt>
      <trkpt lat="37.291840" lon="-3.806467">
        <ele>751.485</ele>
        <time>2021-10-16T20:35:22Z</time>
      </trkpt>
      <trkpt lat="37.291664" lon="-3.806387">
        <ele>749.440</ele>
        <time>2021-10-16T20:35:23Z</time>
      </trkpt>
      <trkpt lat="37.291322" lon="-3.806228">
        <ele>747.819</ele>
        <time>2021-10-16T20:35:25Z</time>
      </trkpt>
      <trkpt lat="37.291139" lon="-3.806146">
        <ele>746.961</ele>
        <time>2021-10-16T20:35:26Z</time>
      </trkpt>
      <trkpt lat="37.290792" lon="-3.805993">
        <ele>746.838</ele>
        <time>2021-10-16T20:35:28Z</time>
      </trkpt>
      <trkpt lat="37.290435" lon="-3.805831">
        <ele>746.287</ele>
        <time>2021-10-16T20:35:30Z</time>
      </trkpt>
      <trkpt lat="37.290252" lon="-3.805747">
        <ele>745.642</ele>
        <time>2021-10-16T20:35:31Z</time>
      </trkpt>
      <trkpt lat="37.290066" lon="-3.805663">
        <ele>745.026</ele>
        <time>2021-10-16T20:35:32Z</time>
      </trkpt>
      <trkpt lat="37.289723" lon="-3.805511">
        <ele>743.908</ele>
        <time>2021-10-16T20:35:34Z</time>
      </trkpt>
      <trkpt lat="37.289385" lon="-3.805363">
        <ele>741.566</ele>
        <time>2021-10-16T20:35:36Z</time>
      </trkpt>
      <trkpt lat="37.289219" lon="-3.805290">
        <ele>740.874</ele>
        <time>2021-10-16T20:35:37Z</time>
      </trkpt>
      <trkpt lat="37.289050" lon="-3.805215">
        <ele>739.783</ele>
        <time>2021-10-16T20:35:38Z</time>
      </trkpt>
      <trkpt lat="37.288715" lon="-3.805066">
        <ele>737.997</ele>
        <time>2021-10-16T20:35:40Z</time>
      </trkpt>
      <trkpt lat="37.288542" lon="-3.804990">
        <ele>736.912</ele>
        <time>2021-10-16T20:35:41Z</time>
      </trkpt>
      <trkpt lat="37.288367" lon="-3.804913">
        <ele>735.991</ele>
        <time>2021-10-16T20:35:42Z</time>
      </trkpt>
      <trkpt lat="37.288014" lon="-3.804757">
        <ele>733.423</ele>
        <time>2021-10-16T20:35:44Z</time>
      </trkpt>
      <trkpt lat="37.287670" lon="-3.804605">
        <ele>731.070</ele>
        <time>2021-10-16T20:35:46Z</time>
      </trkpt>
      <trkpt lat="37.287497" lon="-3.804530">
        <ele>729.829</ele>
        <time>2021-10-16T20:35:47Z</time>
      </trkpt>
      <trkpt lat="37.287158" lon="-3.804382">
        <ele>727.400</ele>
        <time>2021-10-16T20:35:49Z</time>
      </trkpt>
      <trkpt lat="37.286983" lon="-3.804305">
        <ele>726.120</ele>
        <time>2021-10-16T20:35:50Z</time>
      </trkpt>
      <trkpt lat="37.286643" lon="-3.804154">
        <ele>724.008</ele>
        <time>2021-10-16T20:35:52Z</time>
      </trkpt>
      <trkpt lat="37.286286" lon="-3.803998">
        <ele>721.930</ele>
        <time>2021-10-16T20:35:54Z</time>
      </trkpt>
      <trkpt lat="37.285915" lon="-3.803831">
        <ele>720.428</ele>
        <time>2021-10-16T20:35:56Z</time>
      </trkpt>
      <trkpt lat="37.285548" lon="-3.803667">
        <ele>718.277</ele>
        <time>2021-10-16T20:35:58Z</time>
      </trkpt>
      <trkpt lat="37.285172" lon="-3.803492">
        <ele>716.361</ele>
        <time>2021-10-16T20:36:00Z</time>
      </trkpt>
      <trkpt lat="37.284983" lon="-3.803404">
        <ele>715.696</ele>
        <time>2021-10-16T20:36:01Z</time>
      </trkpt>
      <trkpt lat="37.284787" lon="-3.803312">
        <ele>715.065</ele>
        <time>2021-10-16T20:36:02Z</time>
      </trkpt>
      <trkpt lat="37.284416" lon="-3.803127">
        <ele>713.747</ele>
        <time>2021-10-16T20:36:04Z</time>
      </trkpt>
      <trkpt lat="37.284041" lon="-3.802930">
        <ele>712.044</ele>
        <time>2021-10-16T20:36:06Z</time>
      </trkpt>
      <trkpt lat="37.283665" lon="-3.802719">
        <ele>710.583</ele>
        <time>2021-10-16T20:36:08Z</time>
      </trkpt>
      <trkpt lat="37.283311" lon="-3.802492">
        <ele>709.725</ele>
        <time>2021-10-16T20:36:10Z</time>
      </trkpt>
      <trkpt lat="37.283132" lon="-3.802370">
        <ele>709.217</ele>
        <time>2021-10-16T20:36:11Z</time>
      </trkpt>
      <trkpt lat="37.282774" lon="-3.802111">
        <ele>707.308</ele>
        <time>2021-10-16T20:36:13Z</time>
      </trkpt>
      <trkpt lat="37.282587" lon="-3.801964">
        <ele>706.476</ele>
        <time>2021-10-16T20:36:14Z</time>
      </trkpt>
      <trkpt lat="37.282245" lon="-3.801674">
        <ele>704.884</ele>
        <time>2021-10-16T20:36:16Z</time>
      </trkpt>
      <trkpt lat="37.282069" lon="-3.801518">
        <ele>704.023</ele>
        <time>2021-10-16T20:36:17Z</time>
      </trkpt>
      <trkpt lat="37.281733" lon="-3.801198">
        <ele>701.627</ele>
        <time>2021-10-16T20:36:19Z</time>
      </trkpt>
      <trkpt lat="37.281561" lon="-3.801028">
        <ele>700.912</ele>
        <time>2021-10-16T20:36:20Z</time>
      </trkpt>
      <trkpt lat="37.281237" lon="-3.800693">
        <ele>700.121</ele>
        <time>2021-10-16T20:36:22Z</time>
      </trkpt>
      <trkpt lat="37.281074" lon="-3.800515">
        <ele>699.653</ele>
        <time>2021-10-16T20:36:23Z</time>
      </trkpt>
      <trkpt lat="37.280761" lon="-3.800163">
        <ele>698.280</ele>
        <time>2021-10-16T20:36:25Z</time>
      </trkpt>
      <trkpt lat="37.280601" lon="-3.799978">
        <ele>697.622</ele>
        <time>2021-10-16T20:36:26Z</time>
      </trkpt>
      <trkpt lat="37.280299" lon="-3.799624">
        <ele>696.462</ele>
        <time>2021-10-16T20:36:28Z</time>
      </trkpt>
      <trkpt lat="37.280145" lon="-3.799440">
        <ele>695.608</ele>
        <time>2021-10-16T20:36:29Z</time>
      </trkpt>
      <trkpt lat="37.279994" lon="-3.799260">
        <ele>694.708</ele>
        <time>2021-10-16T20:36:30Z</time>
      </trkpt>
      <trkpt lat="37.279846" lon="-3.799084">
        <ele>694.110</ele>
        <time>2021-10-16T20:36:31Z</time>
      </trkpt>
      <trkpt lat="37.279694" lon="-3.798902">
        <ele>693.678</ele>
        <time>2021-10-16T20:36:32Z</time>
      </trkpt>
      <trkpt lat="37.279419" lon="-3.798568">
        <ele>692.317</ele>
        <time>2021-10-16T20:36:34Z</time>
      </trkpt>
      <trkpt lat="37.279284" lon="-3.798403">
        <ele>691.951</ele>
        <time>2021-10-16T20:36:35Z</time>
      </trkpt>
      <trkpt lat="37.279152" lon="-3.798243">
        <ele>691.416</ele>
        <time>2021-10-16T20:36:36Z</time>
      </trkpt>
      <trkpt lat="37.278893" lon="-3.797939">
        <ele>690.035</ele>
        <time>2021-10-16T20:36:38Z</time>
      </trkpt>
      <trkpt lat="37.278631" lon="-3.797658">
        <ele>688.897</ele>
        <time>2021-10-16T20:36:40Z</time>
      </trkpt>
      <trkpt lat="37.278488" lon="-3.797520">
        <ele>688.014</ele>
        <time>2021-10-16T20:36:41Z</time>
      </trkpt>
      <trkpt lat="37.278340" lon="-3.797389">
        <ele>687.381</ele>
        <time>2021-10-16T20:36:42Z</time>
      </trkpt>
      <trkpt lat="37.278019" lon="-3.797143">
        <ele>685.061</ele>
        <time>2021-10-16T20:36:44Z</time>
      </trkpt>
      <trkpt lat="37.277691" lon="-3.796929">
        <ele>682.917</ele>
        <time>2021-10-16T20:36:46Z</time>
      </trkpt>
      <trkpt lat="37.277525" lon="-3.796823">
        <ele>681.508</ele>
        <time>2021-10-16T20:36:47Z</time>
      </trkpt>
      <trkpt lat="37.277362" lon="-3.796721">
        <ele>680.886</ele>
        <time>2021-10-16T20:36:48Z</time>
      </trkpt>
      <trkpt lat="37.277041" lon="-3.796504">
        <ele>678.584</ele>
        <time>2021-10-16T20:36:50Z</time>
      </trkpt>
      <trkpt lat="37.276733" lon="-3.796265">
        <ele>675.663</ele>
        <time>2021-10-16T20:36:52Z</time>
      </trkpt>
      <trkpt lat="37.276430" lon="-3.795976">
        <ele>672.727</ele>
        <time>2021-10-16T20:36:54Z</time>
      </trkpt>
      <trkpt lat="37.276146" lon="-3.795616">
        <ele>670.382</ele>
        <time>2021-10-16T20:36:56Z</time>
      </trkpt>
      <trkpt lat="37.275895" lon="-3.795220">
        <ele>667.981</ele>
        <time>2021-10-16T20:36:58Z</time>
      </trkpt>
      <trkpt lat="37.275776" lon="-3.795005">
        <ele>666.623</ele>
        <time>2021-10-16T20:36:59Z</time>
      </trkpt>
      <trkpt lat="37.275665" lon="-3.794782">
        <ele>664.740</ele>
        <time>2021-10-16T20:37:00Z</time>
      </trkpt>
      <trkpt lat="37.275454" lon="-3.794315">
        <ele>662.051</ele>
        <time>2021-10-16T20:37:02Z</time>
      </trkpt>
      <trkpt lat="37.275262" lon="-3.793853">
        <ele>659.401</ele>
        <time>2021-10-16T20:37:04Z</time>
      </trkpt>
      <trkpt lat="37.275067" lon="-3.793385">
        <ele>657.011</ele>
        <time>2021-10-16T20:37:06Z</time>
      </trkpt>
      <trkpt lat="37.274967" lon="-3.793156">
        <ele>655.208</ele>
        <time>2021-10-16T20:37:07Z</time>
      </trkpt>
      <trkpt lat="37.274862" lon="-3.792929">
        <ele>653.223</ele>
        <time>2021-10-16T20:37:08Z</time>
      </trkpt>
      <trkpt lat="37.274645" lon="-3.792526">
        <ele>650.181</ele>
        <time>2021-10-16T20:37:10Z</time>
      </trkpt>
      <trkpt lat="37.274523" lon="-3.792338">
        <ele>649.010</ele>
        <time>2021-10-16T20:37:11Z</time>
      </trkpt>
      <trkpt lat="37.274396" lon="-3.792161">
        <ele>648.094</ele>
        <time>2021-10-16T20:37:12Z</time>
      </trkpt>
      <trkpt lat="37.274119" lon="-3.791825">
        <ele>644.589</ele>
        <time>2021-10-16T20:37:14Z</time>
      </trkpt>
      <trkpt lat="37.273808" lon="-3.791519">
        <ele>642.778</ele>
        <time>2021-10-16T20:37:16Z</time>
      </trkpt>
      <trkpt lat="37.273634" lon="-3.791379">
        <ele>641.580</ele>
        <time>2021-10-16T20:37:17Z</time>
      </trkpt>
      <trkpt lat="37.273261" lon="-3.791140">
        <ele>639.117</ele>
        <time>2021-10-16T20:37:19Z</time>
      </trkpt>
      <trkpt lat="37.273057" lon="-3.791037">
        <ele>638.296</ele>
        <time>2021-10-16T20:37:20Z</time>
      </trkpt>
      <trkpt lat="37.272654" lon="-3.790877">
        <ele>636.631</ele>
        <time>2021-10-16T20:37:22Z</time>
      </trkpt>
      <trkpt lat="37.272444" lon="-3.790805">
        <ele>635.924</ele>
        <time>2021-10-16T20:37:23Z</time>
      </trkpt>
      <trkpt lat="37.272234" lon="-3.790738">
        <ele>634.908</ele>
        <time>2021-10-16T20:37:24Z</time>
      </trkpt>
      <trkpt lat="37.271800" lon="-3.790609">
        <ele>631.737</ele>
        <time>2021-10-16T20:37:26Z</time>
      </trkpt>
      <trkpt lat="37.271376" lon="-3.790487">
        <ele>628.475</ele>
        <time>2021-10-16T20:37:28Z</time>
      </trkpt>
      <trkpt lat="37.271159" lon="-3.790425">
        <ele>627.064</ele>
        <time>2021-10-16T20:37:29Z</time>
      </trkpt>
      <trkpt lat="37.270946" lon="-3.790363">
        <ele>625.678</ele>
        <time>2021-10-16T20:37:30Z</time>
      </trkpt>
      <trkpt lat="37.270533" lon="-3.790244">
        <ele>622.913</ele>
        <time>2021-10-16T20:37:32Z</time>
      </trkpt>
      <trkpt lat="37.270153" lon="-3.790134">
        <ele>620.172</ele>
        <time>2021-10-16T20:37:34Z</time>
      </trkpt>
      <trkpt lat="37.269781" lon="-3.790023">
        <ele>618.254</ele>
        <time>2021-10-16T20:37:36Z</time>
      </trkpt>
      <trkpt lat="37.269408" lon="-3.789911">
        <ele>615.571</ele>
        <time>2021-10-16T20:37:38Z</time>
      </trkpt>
      <trkpt lat="37.269046" lon="-3.789802">
        <ele>613.317</ele>
        <time>2021-10-16T20:37:40Z</time>
      </trkpt>
      <trkpt lat="37.268855" lon="-3.789745">
        <ele>612.187</ele>
        <time>2021-10-16T20:37:41Z</time>
      </trkpt>
      <trkpt lat="37.268659" lon="-3.789689">
        <ele>611.015</ele>
        <time>2021-10-16T20:37:42Z</time>
      </trkpt>
      <trkpt lat="37.268272" lon="-3.789569">
        <ele>607.608</ele>
        <time>2021-10-16T20:37:44Z</time>
      </trkpt>
      <trkpt lat="37.267879" lon="-3.789446">
        <ele>604.219</ele>
        <time>2021-10-16T20:37:46Z</time>
      </trkpt>
      <trkpt lat="37.267483" lon="-3.789327">
        <ele>602.767</ele>
        <time>2021-10-16T20:37:48Z</time>
      </trkpt>
      <trkpt lat="37.267286" lon="-3.789267">
        <ele>601.746</ele>
        <time>2021-10-16T20:37:49Z</time>
      </trkpt>
      <trkpt lat="37.267084" lon="-3.789202">
        <ele>600.690</ele>
        <time>2021-10-16T20:37:50Z</time>
      </trkpt>
      <trkpt lat="37.266696" lon="-3.789072">
        <ele>598.765</ele>
        <time>2021-10-16T20:37:52Z</time>
      </trkpt>
      <trkpt lat="37.266504" lon="-3.788999">
        <ele>597.964</ele>
        <time>2021-10-16T20:37:53Z</time>
      </trkpt>
      <trkpt lat="37.266319" lon="-3.788918">
        <ele>597.086</ele>
        <time>2021-10-16T20:37:54Z</time>
      </trkpt>
      <trkpt lat="37.265950" lon="-3.788728">
        <ele>595.163</ele>
        <time>2021-10-16T20:37:56Z</time>
      </trkpt>
      <trkpt lat="37.265605" lon="-3.788502">
        <ele>593.145</ele>
        <time>2021-10-16T20:37:58Z</time>
      </trkpt>
      <trkpt lat="37.265434" lon="-3.788363">
        <ele>592.247</ele>
        <time>2021-10-16T20:37:59Z</time>
      </trkpt>
      <trkpt lat="37.265101" lon="-3.788043">
        <ele>590.911</ele>
        <time>2021-10-16T20:38:01Z</time>
      </trkpt>
      <trkpt lat="37.264937" lon="-3.787858">
        <ele>589.808</ele>
        <time>2021-10-16T20:38:02Z</time>
      </trkpt>
      <trkpt lat="37.264654" lon="-3.787481">
        <ele>587.622</ele>
        <time>2021-10-16T20:38:04Z</time>
      </trkpt>
      <trkpt lat="37.264404" lon="-3.787058">
        <ele>585.420</ele>
        <time>2021-10-16T20:38:06Z</time>
      </trkpt>
      <trkpt lat="37.264295" lon="-3.786837">
        <ele>584.419</ele>
        <time>2021-10-16T20:38:07Z</time>
      </trkpt>
      <trkpt lat="37.264193" lon="-3.786607">
        <ele>583.873</ele>
        <time>2021-10-16T20:38:08Z</time>
      </trkpt>
      <trkpt lat="37.264025" lon="-3.786150">
        <ele>580.218</ele>
        <time>2021-10-16T20:38:10Z</time>
      </trkpt>
      <trkpt lat="37.263903" lon="-3.785669">
        <ele>579.267</ele>
        <time>2021-10-16T20:38:12Z</time>
      </trkpt>
      <trkpt lat="37.263856" lon="-3.785425">
        <ele>578.579</ele>
        <time>2021-10-16T20:38:13Z</time>
      </trkpt>
      <trkpt lat="37.263813" lon="-3.785174">
        <ele>577.336</ele>
        <time>2021-10-16T20:38:14Z</time>
      </trkpt>
      <trkpt lat="37.263741" lon="-3.784689">
        <ele>575.041</ele>
        <time>2021-10-16T20:38:16Z</time>
      </trkpt>
      <trkpt lat="37.263706" lon="-3.784441">
        <ele>574.181</ele>
        <time>2021-10-16T20:38:17Z</time>
      </trkpt>
      <trkpt lat="37.263637" lon="-3.783960">
        <ele>572.509</ele>
        <time>2021-10-16T20:38:19Z</time>
      </trkpt>
      <trkpt lat="37.263603" lon="-3.783721">
        <ele>571.308</ele>
        <time>2021-10-16T20:38:20Z</time>
      </trkpt>
      <trkpt lat="37.263538" lon="-3.783278">
        <ele>569.322</ele>
        <time>2021-10-16T20:38:22Z</time>
      </trkpt>
      <trkpt lat="37.263480" lon="-3.782836">
        <ele>567.720</ele>
        <time>2021-10-16T20:38:24Z</time>
      </trkpt>
      <trkpt lat="37.263419" lon="-3.782398">
        <ele>567.079</ele>
        <time>2021-10-16T20:38:26Z</time>
      </trkpt>
      <trkpt lat="37.263354" lon="-3.781961">
        <ele>563.973</ele>
        <time>2021-10-16T20:38:28Z</time>
      </trkpt>
      <trkpt lat="37.263324" lon="-3.781733">
        <ele>563.268</ele>
        <time>2021-10-16T20:38:29Z</time>
      </trkpt>
      <trkpt lat="37.263293" lon="-3.781503">
        <ele>562.047</ele>
        <time>2021-10-16T20:38:30Z</time>
      </trkpt>
      <trkpt lat="37.263232" lon="-3.781033">
        <ele>560.299</ele>
        <time>2021-10-16T20:38:32Z</time>
      </trkpt>
      <trkpt lat="37.263167" lon="-3.780589">
        <ele>558.916</ele>
        <time>2021-10-16T20:38:34Z</time>
      </trkpt>
      <trkpt lat="37.263133" lon="-3.780369">
        <ele>558.295</ele>
        <time>2021-10-16T20:38:35Z</time>
      </trkpt>
      <trkpt lat="37.263101" lon="-3.780152">
        <ele>557.349</ele>
        <time>2021-10-16T20:38:36Z</time>
      </trkpt>
      <trkpt lat="37.263034" lon="-3.779723">
        <ele>554.823</ele>
        <time>2021-10-16T20:38:38Z</time>
      </trkpt>
      <trkpt lat="37.262974" lon="-3.779317">
        <ele>554.108</ele>
        <time>2021-10-16T20:38:40Z</time>
      </trkpt>
      <trkpt lat="37.262944" lon="-3.779109">
        <ele>552.947</ele>
        <time>2021-10-16T20:38:41Z</time>
      </trkpt>
      <trkpt lat="37.262882" lon="-3.778691">
        <ele>551.155</ele>
        <time>2021-10-16T20:38:43Z</time>
      </trkpt>
      <trkpt lat="37.262851" lon="-3.778481">
        <ele>550.264</ele>
        <time>2021-10-16T20:38:44Z</time>
      </trkpt>
      <trkpt lat="37.262794" lon="-3.778085">
        <ele>548.528</ele>
        <time>2021-10-16T20:38:46Z</time>
      </trkpt>
      <trkpt lat="37.262764" lon="-3.777885">
        <ele>547.553</ele>
        <time>2021-10-16T20:38:47Z</time>
      </trkpt>
      <trkpt lat="37.262734" lon="-3.777682">
        <ele>546.942</ele>
        <time>2021-10-16T20:38:48Z</time>
      </trkpt>
      <trkpt lat="37.262672" lon="-3.777267">
        <ele>545.294</ele>
        <time>2021-10-16T20:38:50Z</time>
      </trkpt>
      <trkpt lat="37.262617" lon="-3.776876">
        <ele>544.491</ele>
        <time>2021-10-16T20:38:52Z</time>
      </trkpt>
      <trkpt lat="37.262562" lon="-3.776492">
        <ele>542.992</ele>
        <time>2021-10-16T20:38:54Z</time>
      </trkpt>
      <trkpt lat="37.262510" lon="-3.776110">
        <ele>541.673</ele>
        <time>2021-10-16T20:38:56Z</time>
      </trkpt>
      <trkpt lat="37.262458" lon="-3.775732">
        <ele>540.220</ele>
        <time>2021-10-16T20:38:58Z</time>
      </trkpt>
      <trkpt lat="37.262430" lon="-3.775536">
        <ele>539.308</ele>
        <time>2021-10-16T20:38:59Z</time>
      </trkpt>
      <trkpt lat="37.262375" lon="-3.775148">
        <ele>537.977</ele>
        <time>2021-10-16T20:39:01Z</time>
      </trkpt>
      <trkpt lat="37.262348" lon="-3.774954">
        <ele>537.985</ele>
        <time>2021-10-16T20:39:02Z</time>
      </trkpt>
      <trkpt lat="37.262296" lon="-3.774588">
        <ele>536.584</ele>
        <time>2021-10-16T20:39:04Z</time>
      </trkpt>
      <trkpt lat="37.262234" lon="-3.774183">
        <ele>534.778</ele>
        <time>2021-10-16T20:39:06Z</time>
      </trkpt>
      <trkpt lat="37.262170" lon="-3.773739">
        <ele>533.723</ele>
        <time>2021-10-16T20:39:08Z</time>
      </trkpt>
      <trkpt lat="37.262105" lon="-3.773309">
        <ele>533.462</ele>
        <time>2021-10-16T20:39:10Z</time>
      </trkpt>
      <trkpt lat="37.262028" lon="-3.772895">
        <ele>532.534</ele>
        <time>2021-10-16T20:39:12Z</time>
      </trkpt>
      <trkpt lat="37.261932" lon="-3.772481">
        <ele>530.761</ele>
        <time>2021-10-16T20:39:14Z</time>
      </trkpt>
      <trkpt lat="37.261819" lon="-3.772092">
        <ele>529.268</ele>
        <time>2021-10-16T20:39:16Z</time>
      </trkpt>
      <trkpt lat="37.261751" lon="-3.771899">
        <ele>528.642</ele>
        <time>2021-10-16T20:39:17Z</time>
      </trkpt>
      <trkpt lat="37.261595" lon="-3.771529">
        <ele>527.826</ele>
        <time>2021-10-16T20:39:19Z</time>
      </trkpt>
      <trkpt lat="37.261507" lon="-3.771344">
        <ele>527.308</ele>
        <time>2021-10-16T20:39:20Z</time>
      </trkpt>
      <trkpt lat="37.261328" lon="-3.771016">
        <ele>526.134</ele>
        <time>2021-10-16T20:39:22Z</time>
      </trkpt>
      <trkpt lat="37.261234" lon="-3.770860">
        <ele>525.772</ele>
        <time>2021-10-16T20:39:23Z</time>
      </trkpt>
      <trkpt lat="37.261139" lon="-3.770717">
        <ele>525.471</ele>
        <time>2021-10-16T20:39:24Z</time>
      </trkpt>
      <trkpt lat="37.261043" lon="-3.770582">
        <ele>525.325</ele>
        <time>2021-10-16T20:39:25Z</time>
      </trkpt>
      <trkpt lat="37.260937" lon="-3.770449">
        <ele>525.160</ele>
        <time>2021-10-16T20:39:26Z</time>
      </trkpt>
      <trkpt lat="37.260726" lon="-3.770203">
        <ele>524.379</ele>
        <time>2021-10-16T20:39:28Z</time>
      </trkpt>
      <trkpt lat="37.260498" lon="-3.769959">
        <ele>523.591</ele>
        <time>2021-10-16T20:39:30Z</time>
      </trkpt>
      <trkpt lat="37.260382" lon="-3.769842">
        <ele>523.958</ele>
        <time>2021-10-16T20:39:31Z</time>
      </trkpt>
      <trkpt lat="37.260265" lon="-3.769723">
        <ele>523.627</ele>
        <time>2021-10-16T20:39:32Z</time>
      </trkpt>
      <trkpt lat="37.260053" lon="-3.769512">
        <ele>522.368</ele>
        <time>2021-10-16T20:39:34Z</time>
      </trkpt>
      <trkpt lat="37.259946" lon="-3.769406">
        <ele>522.214</ele>
        <time>2021-10-16T20:39:35Z</time>
      </trkpt>
      <trkpt lat="37.259839" lon="-3.769299">
        <ele>521.208</ele>
        <time>2021-10-16T20:39:36Z</time>
      </trkpt>
      <trkpt lat="37.259729" lon="-3.769187">
        <ele>520.250</ele>
        <time>2021-10-16T20:39:37Z</time>
      </trkpt>
      <trkpt lat="37.259615" lon="-3.769068">
        <ele>520.268</ele>
        <time>2021-10-16T20:39:38Z</time>
      </trkpt>
      <trkpt lat="37.259401" lon="-3.768822">
        <ele>520.737</ele>
        <time>2021-10-16T20:39:40Z</time>
      </trkpt>
      <trkpt lat="37.259299" lon="-3.768694">
        <ele>520.081</ele>
        <time>2021-10-16T20:39:41Z</time>
      </trkpt>
      <trkpt lat="37.259201" lon="-3.768564">
        <ele>518.826</ele>
        <time>2021-10-16T20:39:42Z</time>
      </trkpt>
      <trkpt lat="37.259010" lon="-3.768295">
        <ele>518.185</ele>
        <time>2021-10-16T20:39:44Z</time>
      </trkpt>
      <trkpt lat="37.258825" lon="-3.768014">
        <ele>517.477</ele>
        <time>2021-10-16T20:39:46Z</time>
      </trkpt>
      <trkpt lat="37.258651" lon="-3.767707">
        <ele>516.034</ele>
        <time>2021-10-16T20:39:48Z</time>
      </trkpt>
      <trkpt lat="37.258570" lon="-3.767550">
        <ele>515.976</ele>
        <time>2021-10-16T20:39:49Z</time>
      </trkpt>
      <trkpt lat="37.258490" lon="-3.767393">
        <ele>515.290</ele>
        <time>2021-10-16T20:39:50Z</time>
      </trkpt>
      <trkpt lat="37.258349" lon="-3.767105">
        <ele>514.419</ele>
        <time>2021-10-16T20:39:52Z</time>
      </trkpt>
      <trkpt lat="37.258280" lon="-3.766960">
        <ele>514.708</ele>
        <time>2021-10-16T20:39:53Z</time>
      </trkpt>
      <trkpt lat="37.258213" lon="-3.766817">
        <ele>514.695</ele>
        <time>2021-10-16T20:39:54Z</time>
      </trkpt>
      <trkpt lat="37.258148" lon="-3.766674">
        <ele>514.723</ele>
        <time>2021-10-16T20:39:55Z</time>
      </trkpt>
      <trkpt lat="37.258079" lon="-3.766528">
        <ele>514.542</ele>
        <time>2021-10-16T20:39:56Z</time>
      </trkpt>
      <trkpt lat="37.257951" lon="-3.766249">
        <ele>515.226</ele>
        <time>2021-10-16T20:39:58Z</time>
      </trkpt>
      <trkpt lat="37.257828" lon="-3.765974">
        <ele>514.921</ele>
        <time>2021-10-16T20:40:00Z</time>
      </trkpt>
      <trkpt lat="37.257767" lon="-3.765845">
        <ele>514.950</ele>
        <time>2021-10-16T20:40:01Z</time>
      </trkpt>
      <trkpt lat="37.257699" lon="-3.765718">
        <ele>515.192</ele>
        <time>2021-10-16T20:40:02Z</time>
      </trkpt>
      <trkpt lat="37.257531" lon="-3.765486">
        <ele>515.579</ele>
        <time>2021-10-16T20:40:04Z</time>
      </trkpt>
      <trkpt lat="37.257315" lon="-3.765271">
        <ele>515.943</ele>
        <time>2021-10-16T20:40:06Z</time>
      </trkpt>
      <trkpt lat="37.257057" lon="-3.765090">
        <ele>516.564</ele>
        <time>2021-10-16T20:40:08Z</time>
      </trkpt>
      <trkpt lat="37.256768" lon="-3.764978">
        <ele>518.910</ele>
        <time>2021-10-16T20:40:10Z</time>
      </trkpt>
      <trkpt lat="37.256610" lon="-3.764934">
        <ele>519.608</ele>
        <time>2021-10-16T20:40:11Z</time>
      </trkpt>
      <trkpt lat="37.256277" lon="-3.764861">
        <ele>521.082</ele>
        <time>2021-10-16T20:40:13Z</time>
      </trkpt>
      <trkpt lat="37.256103" lon="-3.764815">
        <ele>521.570</ele>
        <time>2021-10-16T20:40:14Z</time>
      </trkpt>
      <trkpt lat="37.255781" lon="-3.764693">
        <ele>522.089</ele>
        <time>2021-10-16T20:40:16Z</time>
      </trkpt>
      <trkpt lat="37.255615" lon="-3.764611">
        <ele>522.083</ele>
        <time>2021-10-16T20:40:17Z</time>
      </trkpt>
      <trkpt lat="37.255448" lon="-3.764514">
        <ele>521.958</ele>
        <time>2021-10-16T20:40:18Z</time>
      </trkpt>
      <trkpt lat="37.255106" lon="-3.764281">
        <ele>520.397</ele>
        <time>2021-10-16T20:40:20Z</time>
      </trkpt>
      <trkpt lat="37.254761" lon="-3.764043">
        <ele>519.039</ele>
        <time>2021-10-16T20:40:22Z</time>
      </trkpt>
      <trkpt lat="37.254414" lon="-3.763811">
        <ele>518.146</ele>
        <time>2021-10-16T20:40:24Z</time>
      </trkpt>
      <trkpt lat="37.254063" lon="-3.763581">
        <ele>517.953</ele>
        <time>2021-10-16T20:40:26Z</time>
      </trkpt>
      <trkpt lat="37.253718" lon="-3.763371">
        <ele>519.004</ele>
        <time>2021-10-16T20:40:28Z</time>
      </trkpt>
      <trkpt lat="37.253537" lon="-3.763275">
        <ele>520.014</ele>
        <time>2021-10-16T20:40:29Z</time>
      </trkpt>
      <trkpt lat="37.253166" lon="-3.763098">
        <ele>520.108</ele>
        <time>2021-10-16T20:40:31Z</time>
      </trkpt>
      <trkpt lat="37.252960" lon="-3.763014">
        <ele>520.563</ele>
        <time>2021-10-16T20:40:32Z</time>
      </trkpt>
      <trkpt lat="37.252560" lon="-3.762867">
        <ele>521.731</ele>
        <time>2021-10-16T20:40:34Z</time>
      </trkpt>
      <trkpt lat="37.252137" lon="-3.762734">
        <ele>521.770</ele>
        <time>2021-10-16T20:40:36Z</time>
      </trkpt>
      <trkpt lat="37.251693" lon="-3.762624">
        <ele>522.874</ele>
        <time>2021-10-16T20:40:38Z</time>
      </trkpt>
      <trkpt lat="37.251254" lon="-3.762544">
        <ele>523.179</ele>
        <time>2021-10-16T20:40:40Z</time>
      </trkpt>
      <trkpt lat="37.250795" lon="-3.762487">
        <ele>523.728</ele>
        <time>2021-10-16T20:40:42Z</time>
      </trkpt>
      <trkpt lat="37.250563" lon="-3.762469">
        <ele>524.170</ele>
        <time>2021-10-16T20:40:43Z</time>
      </trkpt>
      <trkpt lat="37.250321" lon="-3.762455">
        <ele>524.247</ele>
        <time>2021-10-16T20:40:44Z</time>
      </trkpt>
      <trkpt lat="37.249855" lon="-3.762442">
        <ele>523.913</ele>
        <time>2021-10-16T20:40:46Z</time>
      </trkpt>
      <trkpt lat="37.249612" lon="-3.762442">
        <ele>523.543</ele>
        <time>2021-10-16T20:40:47Z</time>
      </trkpt>
      <trkpt lat="37.249121" lon="-3.762445">
        <ele>522.707</ele>
        <time>2021-10-16T20:40:49Z</time>
      </trkpt>
      <trkpt lat="37.248867" lon="-3.762443">
        <ele>521.808</ele>
        <time>2021-10-16T20:40:50Z</time>
      </trkpt>
      <trkpt lat="37.248387" lon="-3.762432">
        <ele>520.719</ele>
        <time>2021-10-16T20:40:52Z</time>
      </trkpt>
      <trkpt lat="37.248141" lon="-3.762418">
        <ele>520.317</ele>
        <time>2021-10-16T20:40:53Z</time>
      </trkpt>
      <trkpt lat="37.247897" lon="-3.762397">
        <ele>519.256</ele>
        <time>2021-10-16T20:40:54Z</time>
      </trkpt>
      <trkpt lat="37.247408" lon="-3.762321">
        <ele>518.380</ele>
        <time>2021-10-16T20:40:56Z</time>
      </trkpt>
      <trkpt lat="37.246950" lon="-3.762214">
        <ele>517.455</ele>
        <time>2021-10-16T20:40:58Z</time>
      </trkpt>
      <trkpt lat="37.246491" lon="-3.762064">
        <ele>516.344</ele>
        <time>2021-10-16T20:41:00Z</time>
      </trkpt>
      <trkpt lat="37.246260" lon="-3.761967">
        <ele>516.386</ele>
        <time>2021-10-16T20:41:01Z</time>
      </trkpt>
      <trkpt lat="37.246024" lon="-3.761862">
        <ele>516.453</ele>
        <time>2021-10-16T20:41:02Z</time>
      </trkpt>
      <trkpt lat="37.245579" lon="-3.761638">
        <ele>515.578</ele>
        <time>2021-10-16T20:41:04Z</time>
      </trkpt>
      <trkpt lat="37.245355" lon="-3.761509">
        <ele>515.633</ele>
        <time>2021-10-16T20:41:05Z</time>
      </trkpt>
      <trkpt lat="37.245136" lon="-3.761366">
        <ele>515.426</ele>
        <time>2021-10-16T20:41:06Z</time>
      </trkpt>
      <trkpt lat="37.244702" lon="-3.761047">
        <ele>515.408</ele>
        <time>2021-10-16T20:41:08Z</time>
      </trkpt>
      <trkpt lat="37.244300" lon="-3.760706">
        <ele>515.995</ele>
        <time>2021-10-16T20:41:10Z</time>
      </trkpt>
      <trkpt lat="37.244095" lon="-3.760515">
        <ele>515.943</ele>
        <time>2021-10-16T20:41:11Z</time>
      </trkpt>
      <trkpt lat="37.243707" lon="-3.760105">
        <ele>515.542</ele>
        <time>2021-10-16T20:41:13Z</time>
      </trkpt>
      <trkpt lat="37.243514" lon="-3.759880">
        <ele>515.236</ele>
        <time>2021-10-16T20:41:14Z</time>
      </trkpt>
      <trkpt lat="37.243171" lon="-3.759430">
        <ele>515.061</ele>
        <time>2021-10-16T20:41:16Z</time>
      </trkpt>
      <trkpt lat="37.242846" lon="-3.758943">
        <ele>514.590</ele>
        <time>2021-10-16T20:41:18Z</time>
      </trkpt>
      <trkpt lat="37.242693" lon="-3.758691">
        <ele>514.212</ele>
        <time>2021-10-16T20:41:19Z</time>
      </trkpt>
      <trkpt lat="37.242543" lon="-3.758426">
        <ele>513.219</ele>
        <time>2021-10-16T20:41:20Z</time>
      </trkpt>
      <trkpt lat="37.242272" lon="-3.757913">
        <ele>512.714</ele>
        <time>2021-10-16T20:41:22Z</time>
      </trkpt>
      <trkpt lat="37.241998" lon="-3.757386">
        <ele>511.254</ele>
        <time>2021-10-16T20:41:24Z</time>
      </trkpt>
      <trkpt lat="37.241735" lon="-3.756853">
        <ele>510.509</ele>
        <time>2021-10-16T20:41:26Z</time>
      </trkpt>
      <trkpt lat="37.241473" lon="-3.756347">
        <ele>511.108</ele>
        <time>2021-10-16T20:41:28Z</time>
      </trkpt>
      <trkpt lat="37.241204" lon="-3.755836">
        <ele>510.689</ele>
        <time>2021-10-16T20:41:30Z</time>
      </trkpt>
      <trkpt lat="37.241067" lon="-3.755576">
        <ele>510.717</ele>
        <time>2021-10-16T20:41:31Z</time>
      </trkpt>
      <trkpt lat="37.240928" lon="-3.755313">
        <ele>511.186</ele>
        <time>2021-10-16T20:41:32Z</time>
      </trkpt>
      <trkpt lat="37.240657" lon="-3.754816">
        <ele>510.640</ele>
        <time>2021-10-16T20:41:34Z</time>
      </trkpt>
      <trkpt lat="37.240516" lon="-3.754559">
        <ele>510.675</ele>
        <time>2021-10-16T20:41:35Z</time>
      </trkpt>
      <trkpt lat="37.240231" lon="-3.754056">
        <ele>510.184</ele>
        <time>2021-10-16T20:41:37Z</time>
      </trkpt>
      <trkpt lat="37.240084" lon="-3.753800">
        <ele>509.976</ele>
        <time>2021-10-16T20:41:38Z</time>
      </trkpt>
      <trkpt lat="37.239803" lon="-3.753311">
        <ele>509.263</ele>
        <time>2021-10-16T20:41:40Z</time>
      </trkpt>
      <trkpt lat="37.239655" lon="-3.753062">
        <ele>509.197</ele>
        <time>2021-10-16T20:41:41Z</time>
      </trkpt>
      <trkpt lat="37.239361" lon="-3.752568">
        <ele>509.523</ele>
        <time>2021-10-16T20:41:43Z</time>
      </trkpt>
      <trkpt lat="37.239206" lon="-3.752316">
        <ele>509.825</ele>
        <time>2021-10-16T20:41:44Z</time>
      </trkpt>
      <trkpt lat="37.238913" lon="-3.751839">
        <ele>509.908</ele>
        <time>2021-10-16T20:41:46Z</time>
      </trkpt>
      <trkpt lat="37.238613" lon="-3.751357">
        <ele>509.517</ele>
        <time>2021-10-16T20:41:48Z</time>
      </trkpt>
      <trkpt lat="37.238308" lon="-3.750878">
        <ele>509.945</ele>
        <time>2021-10-16T20:41:50Z</time>
      </trkpt>
      <trkpt lat="37.238012" lon="-3.750413">
        <ele>510.054</ele>
        <time>2021-10-16T20:41:52Z</time>
      </trkpt>
      <trkpt lat="37.237704" lon="-3.749948">
        <ele>510.238</ele>
        <time>2021-10-16T20:41:54Z</time>
      </trkpt>
      <trkpt lat="37.237389" lon="-3.749476">
        <ele>509.733</ele>
        <time>2021-10-16T20:41:56Z</time>
      </trkpt>
      <trkpt lat="37.237085" lon="-3.749023">
        <ele>509.342</ele>
        <time>2021-10-16T20:41:58Z</time>
      </trkpt>
      <trkpt lat="37.236927" lon="-3.748793">
        <ele>509.644</ele>
        <time>2021-10-16T20:41:59Z</time>
      </trkpt>
      <trkpt lat="37.236610" lon="-3.748335">
        <ele>509.791</ele>
        <time>2021-10-16T20:42:01Z</time>
      </trkpt>
      <trkpt lat="37.236441" lon="-3.748099">
        <ele>509.428</ele>
        <time>2021-10-16T20:42:02Z</time>
      </trkpt>
      <trkpt lat="37.236122" lon="-3.747655">
        <ele>509.189</ele>
        <time>2021-10-16T20:42:04Z</time>
      </trkpt>
      <trkpt lat="37.235792" lon="-3.747205">
        <ele>509.017</ele>
        <time>2021-10-16T20:42:06Z</time>
      </trkpt>
      <trkpt lat="37.235625" lon="-3.746974">
        <ele>508.708</ele>
        <time>2021-10-16T20:42:07Z</time>
      </trkpt>
      <trkpt lat="37.235454" lon="-3.746737">
        <ele>508.540</ele>
        <time>2021-10-16T20:42:08Z</time>
      </trkpt>
      <trkpt lat="37.235125" lon="-3.746291">
        <ele>508.388</ele>
        <time>2021-10-16T20:42:10Z</time>
      </trkpt>
      <trkpt lat="37.234779" lon="-3.745839">
        <ele>508.097</ele>
        <time>2021-10-16T20:42:12Z</time>
      </trkpt>
      <trkpt lat="37.234609" lon="-3.745616">
        <ele>508.221</ele>
        <time>2021-10-16T20:42:13Z</time>
      </trkpt>
      <trkpt lat="37.234435" lon="-3.745387">
        <ele>509.226</ele>
        <time>2021-10-16T20:42:14Z</time>
      </trkpt>
      <trkpt lat="37.234101" lon="-3.744950">
        <ele>509.465</ele>
        <time>2021-10-16T20:42:16Z</time>
      </trkpt>
      <trkpt lat="37.233932" lon="-3.744727">
        <ele>509.327</ele>
        <time>2021-10-16T20:42:17Z</time>
      </trkpt>
      <trkpt lat="37.233595" lon="-3.744285">
        <ele>509.884</ele>
        <time>2021-10-16T20:42:19Z</time>
      </trkpt>
      <trkpt lat="37.233422" lon="-3.744060">
        <ele>509.851</ele>
        <time>2021-10-16T20:42:20Z</time>
      </trkpt>
      <trkpt lat="37.233093" lon="-3.743632">
        <ele>510.801</ele>
        <time>2021-10-16T20:42:22Z</time>
      </trkpt>
      <trkpt lat="37.232922" lon="-3.743414">
        <ele>510.611</ele>
        <time>2021-10-16T20:42:23Z</time>
      </trkpt>
      <trkpt lat="37.232585" lon="-3.742978">
        <ele>510.908</ele>
        <time>2021-10-16T20:42:25Z</time>
      </trkpt>
      <trkpt lat="37.232411" lon="-3.742752">
        <ele>510.953</ele>
        <time>2021-10-16T20:42:26Z</time>
      </trkpt>
      <trkpt lat="37.232088" lon="-3.742322">
        <ele>510.921</ele>
        <time>2021-10-16T20:42:28Z</time>
      </trkpt>
      <trkpt lat="37.231922" lon="-3.742101">
        <ele>510.720</ele>
        <time>2021-10-16T20:42:29Z</time>
      </trkpt>
      <trkpt lat="37.231756" lon="-3.741880">
        <ele>510.854</ele>
        <time>2021-10-16T20:42:30Z</time>
      </trkpt>
      <trkpt lat="37.231421" lon="-3.741438">
        <ele>511.069</ele>
        <time>2021-10-16T20:42:32Z</time>
      </trkpt>
      <trkpt lat="37.231097" lon="-3.741011">
        <ele>510.938</ele>
        <time>2021-10-16T20:42:34Z</time>
      </trkpt>
      <trkpt lat="37.230766" lon="-3.740579">
        <ele>511.430</ele>
        <time>2021-10-16T20:42:36Z</time>
      </trkpt>
      <trkpt lat="37.230430" lon="-3.740139">
        <ele>511.277</ele>
        <time>2021-10-16T20:42:38Z</time>
      </trkpt>
      <trkpt lat="37.230109" lon="-3.739719">
        <ele>511.971</ele>
        <time>2021-10-16T20:42:40Z</time>
      </trkpt>
      <trkpt lat="37.229944" lon="-3.739504">
        <ele>511.641</ele>
        <time>2021-10-16T20:42:41Z</time>
      </trkpt>
      <trkpt lat="37.229619" lon="-3.739081">
        <ele>511.915</ele>
        <time>2021-10-16T20:42:43Z</time>
      </trkpt>
      <trkpt lat="37.229450" lon="-3.738865">
        <ele>511.908</ele>
        <time>2021-10-16T20:42:44Z</time>
      </trkpt>
      <trkpt lat="37.229129" lon="-3.738444">
        <ele>512.295</ele>
        <time>2021-10-16T20:42:46Z</time>
      </trkpt>
      <trkpt lat="37.228800" lon="-3.738015">
        <ele>512.583</ele>
        <time>2021-10-16T20:42:48Z</time>
      </trkpt>
      <trkpt lat="37.228635" lon="-3.737799">
        <ele>512.962</ele>
        <time>2021-10-16T20:42:49Z</time>
      </trkpt>
      <trkpt lat="37.228468" lon="-3.737577">
        <ele>513.386</ele>
        <time>2021-10-16T20:42:50Z</time>
      </trkpt>
      <trkpt lat="37.228148" lon="-3.737155">
        <ele>513.721</ele>
        <time>2021-10-16T20:42:52Z</time>
      </trkpt>
      <trkpt lat="37.227823" lon="-3.736725">
        <ele>514.130</ele>
        <time>2021-10-16T20:42:54Z</time>
      </trkpt>
      <trkpt lat="37.227505" lon="-3.736280">
        <ele>515.042</ele>
        <time>2021-10-16T20:42:56Z</time>
      </trkpt>
      <trkpt lat="37.227206" lon="-3.735845">
        <ele>515.749</ele>
        <time>2021-10-16T20:42:58Z</time>
      </trkpt>
      <trkpt lat="37.227055" lon="-3.735616">
        <ele>516.496</ele>
        <time>2021-10-16T20:42:59Z</time>
      </trkpt>
      <trkpt lat="37.226763" lon="-3.735160">
        <ele>516.731</ele>
        <time>2021-10-16T20:43:01Z</time>
      </trkpt>
      <trkpt lat="37.226616" lon="-3.734919">
        <ele>516.424</ele>
        <time>2021-10-16T20:43:02Z</time>
      </trkpt>
      <trkpt lat="37.226341" lon="-3.734449">
        <ele>517.008</ele>
        <time>2021-10-16T20:43:04Z</time>
      </trkpt>
      <trkpt lat="37.226069" lon="-3.733938">
        <ele>517.247</ele>
        <time>2021-10-16T20:43:06Z</time>
      </trkpt>
      <trkpt lat="37.225797" lon="-3.733412">
        <ele>516.785</ele>
        <time>2021-10-16T20:43:08Z</time>
      </trkpt>
      <trkpt lat="37.225542" lon="-3.732879">
        <ele>517.244</ele>
        <time>2021-10-16T20:43:10Z</time>
      </trkpt>
      <trkpt lat="37.225416" lon="-3.732599">
        <ele>517.778</ele>
        <time>2021-10-16T20:43:11Z</time>
      </trkpt>
      <trkpt lat="37.225290" lon="-3.732319">
        <ele>517.923</ele>
        <time>2021-10-16T20:43:12Z</time>
      </trkpt>
      <trkpt lat="37.225167" lon="-3.732041">
        <ele>517.782</ele>
        <time>2021-10-16T20:43:13Z</time>
      </trkpt>
      <trkpt lat="37.225044" lon="-3.731754">
        <ele>517.994</ele>
        <time>2021-10-16T20:43:14Z</time>
      </trkpt>
      <trkpt lat="37.224816" lon="-3.731206">
        <ele>518.151</ele>
        <time>2021-10-16T20:43:16Z</time>
      </trkpt>
      <trkpt lat="37.224702" lon="-3.730925">
        <ele>518.699</ele>
        <time>2021-10-16T20:43:17Z</time>
      </trkpt>
      <trkpt lat="37.224592" lon="-3.730644">
        <ele>518.407</ele>
        <time>2021-10-16T20:43:18Z</time>
      </trkpt>
      <trkpt lat="37.224381" lon="-3.730072">
        <ele>518.027</ele>
        <time>2021-10-16T20:43:20Z</time>
      </trkpt>
      <trkpt lat="37.224180" lon="-3.729516">
        <ele>517.708</ele>
        <time>2021-10-16T20:43:22Z</time>
      </trkpt>
      <trkpt lat="37.223981" lon="-3.728950">
        <ele>517.767</ele>
        <time>2021-10-16T20:43:24Z</time>
      </trkpt>
      <trkpt lat="37.223880" lon="-3.728669">
        <ele>517.715</ele>
        <time>2021-10-16T20:43:25Z</time>
      </trkpt>
      <trkpt lat="37.223775" lon="-3.728378">
        <ele>518.084</ele>
        <time>2021-10-16T20:43:26Z</time>
      </trkpt>
      <trkpt lat="37.223577" lon="-3.727837">
        <ele>518.728</ele>
        <time>2021-10-16T20:43:28Z</time>
      </trkpt>
      <trkpt lat="37.223475" lon="-3.727559">
        <ele>518.953</ele>
        <time>2021-10-16T20:43:29Z</time>
      </trkpt>
      <trkpt lat="37.223268" lon="-3.727011">
        <ele>518.772</ele>
        <time>2021-10-16T20:43:31Z</time>
      </trkpt>
      <trkpt lat="37.223158" lon="-3.726729">
        <ele>518.924</ele>
        <time>2021-10-16T20:43:32Z</time>
      </trkpt>
      <trkpt lat="37.222945" lon="-3.726199">
        <ele>518.981</ele>
        <time>2021-10-16T20:43:34Z</time>
      </trkpt>
      <trkpt lat="37.222832" lon="-3.725928">
        <ele>518.694</ele>
        <time>2021-10-16T20:43:35Z</time>
      </trkpt>
      <trkpt lat="37.222601" lon="-3.725393">
        <ele>520.157</ele>
        <time>2021-10-16T20:43:37Z</time>
      </trkpt>
      <trkpt lat="37.222480" lon="-3.725119">
        <ele>519.622</ele>
        <time>2021-10-16T20:43:38Z</time>
      </trkpt>
      <trkpt lat="37.222237" lon="-3.724600">
        <ele>519.708</ele>
        <time>2021-10-16T20:43:40Z</time>
      </trkpt>
      <trkpt lat="37.222109" lon="-3.724340">
        <ele>520.027</ele>
        <time>2021-10-16T20:43:41Z</time>
      </trkpt>
      <trkpt lat="37.221981" lon="-3.724081">
        <ele>520.015</ele>
        <time>2021-10-16T20:43:42Z</time>
      </trkpt>
      <trkpt lat="37.221713" lon="-3.723561">
        <ele>519.794</ele>
        <time>2021-10-16T20:43:44Z</time>
      </trkpt>
      <trkpt lat="37.221444" lon="-3.723068">
        <ele>519.968</ele>
        <time>2021-10-16T20:43:46Z</time>
      </trkpt>
      <trkpt lat="37.221301" lon="-3.722815">
        <ele>519.953</ele>
        <time>2021-10-16T20:43:47Z</time>
      </trkpt>
      <trkpt lat="37.221156" lon="-3.722567">
        <ele>520.062</ele>
        <time>2021-10-16T20:43:48Z</time>
      </trkpt>
      <trkpt lat="37.220859" lon="-3.722073">
        <ele>520.044</ele>
        <time>2021-10-16T20:43:50Z</time>
      </trkpt>
      <trkpt lat="37.220559" lon="-3.721603">
        <ele>520.991</ele>
        <time>2021-10-16T20:43:52Z</time>
      </trkpt>
      <trkpt lat="37.220402" lon="-3.721368">
        <ele>520.524</ele>
        <time>2021-10-16T20:43:53Z</time>
      </trkpt>
      <trkpt lat="37.220084" lon="-3.720900">
        <ele>521.204</ele>
        <time>2021-10-16T20:43:55Z</time>
      </trkpt>
      <trkpt lat="37.219917" lon="-3.720658">
        <ele>521.414</ele>
        <time>2021-10-16T20:43:56Z</time>
      </trkpt>
      <trkpt lat="37.219589" lon="-3.720218">
        <ele>521.208</ele>
        <time>2021-10-16T20:43:58Z</time>
      </trkpt>
      <trkpt lat="37.219244" lon="-3.719773">
        <ele>521.390</ele>
        <time>2021-10-16T20:44:00Z</time>
      </trkpt>
      <trkpt lat="37.219069" lon="-3.719554">
        <ele>520.888</ele>
        <time>2021-10-16T20:44:01Z</time>
      </trkpt>
      <trkpt lat="37.218887" lon="-3.719329">
        <ele>520.597</ele>
        <time>2021-10-16T20:44:02Z</time>
      </trkpt>
      <trkpt lat="37.218539" lon="-3.718911">
        <ele>521.011</ele>
        <time>2021-10-16T20:44:04Z</time>
      </trkpt>
      <trkpt lat="37.218355" lon="-3.718701">
        <ele>521.226</ele>
        <time>2021-10-16T20:44:05Z</time>
      </trkpt>
      <trkpt lat="37.217983" lon="-3.718292">
        <ele>521.545</ele>
        <time>2021-10-16T20:44:07Z</time>
      </trkpt>
      <trkpt lat="37.217790" lon="-3.718088">
        <ele>521.817</ele>
        <time>2021-10-16T20:44:08Z</time>
      </trkpt>
      <trkpt lat="37.217418" lon="-3.717708">
        <ele>522.124</ele>
        <time>2021-10-16T20:44:10Z</time>
      </trkpt>
      <trkpt lat="37.217227" lon="-3.717518">
        <ele>523.111</ele>
        <time>2021-10-16T20:44:11Z</time>
      </trkpt>
      <trkpt lat="37.216844" lon="-3.717151">
        <ele>523.721</ele>
        <time>2021-10-16T20:44:13Z</time>
      </trkpt>
      <trkpt lat="37.216644" lon="-3.716967">
        <ele>524.603</ele>
        <time>2021-10-16T20:44:14Z</time>
      </trkpt>
      <trkpt lat="37.216256" lon="-3.716628">
        <ele>525.408</ele>
        <time>2021-10-16T20:44:16Z</time>
      </trkpt>
      <trkpt lat="37.216054" lon="-3.716457">
        <ele>525.849</ele>
        <time>2021-10-16T20:44:17Z</time>
      </trkpt>
      <trkpt lat="37.215851" lon="-3.716288">
        <ele>526.417</ele>
        <time>2021-10-16T20:44:18Z</time>
      </trkpt>
      <trkpt lat="37.215646" lon="-3.716120">
        <ele>527.166</ele>
        <time>2021-10-16T20:44:19Z</time>
      </trkpt>
      <trkpt lat="37.215433" lon="-3.715950">
        <ele>528.360</ele>
        <time>2021-10-16T20:44:20Z</time>
      </trkpt>
      <trkpt lat="37.215016" lon="-3.715634">
        <ele>529.355</ele>
        <time>2021-10-16T20:44:22Z</time>
      </trkpt>
      <trkpt lat="37.214580" lon="-3.715324">
        <ele>529.834</ele>
        <time>2021-10-16T20:44:24Z</time>
      </trkpt>
      <trkpt lat="37.214129" lon="-3.715014">
        <ele>530.536</ele>
        <time>2021-10-16T20:44:26Z</time>
      </trkpt>
      <trkpt lat="37.213702" lon="-3.714722">
        <ele>531.063</ele>
        <time>2021-10-16T20:44:28Z</time>
      </trkpt>
      <trkpt lat="37.213481" lon="-3.714570">
        <ele>531.341</ele>
        <time>2021-10-16T20:44:29Z</time>
      </trkpt>
      <trkpt lat="37.213046" lon="-3.714280">
        <ele>531.881</ele>
        <time>2021-10-16T20:44:31Z</time>
      </trkpt>
      <trkpt lat="37.212821" lon="-3.714134">
        <ele>532.309</ele>
        <time>2021-10-16T20:44:32Z</time>
      </trkpt>
      <trkpt lat="37.212398" lon="-3.713852">
        <ele>532.408</ele>
        <time>2021-10-16T20:44:34Z</time>
      </trkpt>
      <trkpt lat="37.211965" lon="-3.713557">
        <ele>533.052</ele>
        <time>2021-10-16T20:44:36Z</time>
      </trkpt>
      <trkpt lat="37.211750" lon="-3.713404">
        <ele>533.470</ele>
        <time>2021-10-16T20:44:37Z</time>
      </trkpt>
      <trkpt lat="37.211529" lon="-3.713246">
        <ele>534.039</ele>
        <time>2021-10-16T20:44:38Z</time>
      </trkpt>
      <trkpt lat="37.211109" lon="-3.712936">
        <ele>534.123</ele>
        <time>2021-10-16T20:44:40Z</time>
      </trkpt>
      <trkpt lat="37.210900" lon="-3.712765">
        <ele>534.488</ele>
        <time>2021-10-16T20:44:41Z</time>
      </trkpt>
      <trkpt lat="37.210487" lon="-3.712406">
        <ele>533.717</ele>
        <time>2021-10-16T20:44:43Z</time>
      </trkpt>
      <trkpt lat="37.210276" lon="-3.712213">
        <ele>533.989</ele>
        <time>2021-10-16T20:44:44Z</time>
      </trkpt>
      <trkpt lat="37.209876" lon="-3.711831">
        <ele>532.826</ele>
        <time>2021-10-16T20:44:46Z</time>
      </trkpt>
      <trkpt lat="37.209677" lon="-3.711632">
        <ele>532.197</ele>
        <time>2021-10-16T20:44:47Z</time>
      </trkpt>
      <trkpt lat="37.209293" lon="-3.711225">
        <ele>531.523</ele>
        <time>2021-10-16T20:44:49Z</time>
      </trkpt>
      <trkpt lat="37.209102" lon="-3.711008">
        <ele>531.225</ele>
        <time>2021-10-16T20:44:50Z</time>
      </trkpt>
      <trkpt lat="37.208747" lon="-3.710581">
        <ele>530.708</ele>
        <time>2021-10-16T20:44:52Z</time>
      </trkpt>
      <trkpt lat="37.208395" lon="-3.710134">
        <ele>530.117</ele>
        <time>2021-10-16T20:44:54Z</time>
      </trkpt>
      <trkpt lat="37.208223" lon="-3.709905">
        <ele>530.215</ele>
        <time>2021-10-16T20:44:55Z</time>
      </trkpt>
      <trkpt lat="37.208048" lon="-3.709669">
        <ele>530.494</ele>
        <time>2021-10-16T20:44:56Z</time>
      </trkpt>
      <trkpt lat="37.207736" lon="-3.709212">
        <ele>530.928</ele>
        <time>2021-10-16T20:44:58Z</time>
      </trkpt>
      <trkpt lat="37.207435" lon="-3.708732">
        <ele>531.483</ele>
        <time>2021-10-16T20:45:00Z</time>
      </trkpt>
      <trkpt lat="37.207290" lon="-3.708487">
        <ele>531.712</ele>
        <time>2021-10-16T20:45:01Z</time>
      </trkpt>
      <trkpt lat="37.207143" lon="-3.708231">
        <ele>531.614</ele>
        <time>2021-10-16T20:45:02Z</time>
      </trkpt>
      <trkpt lat="37.206874" lon="-3.707738">
        <ele>531.691</ele>
        <time>2021-10-16T20:45:04Z</time>
      </trkpt>
      <trkpt lat="37.206744" lon="-3.707478">
        <ele>531.982</ele>
        <time>2021-10-16T20:45:05Z</time>
      </trkpt>
      <trkpt lat="37.206487" lon="-3.706954">
        <ele>532.043</ele>
        <time>2021-10-16T20:45:07Z</time>
      </trkpt>
      <trkpt lat="37.206361" lon="-3.706682">
        <ele>532.217</ele>
        <time>2021-10-16T20:45:08Z</time>
      </trkpt>
      <trkpt lat="37.206131" lon="-3.706151">
        <ele>532.308</ele>
        <time>2021-10-16T20:45:10Z</time>
      </trkpt>
      <trkpt lat="37.206019" lon="-3.705876">
        <ele>532.386</ele>
        <time>2021-10-16T20:45:11Z</time>
      </trkpt>
      <trkpt lat="37.205911" lon="-3.705600">
        <ele>532.934</ele>
        <time>2021-10-16T20:45:12Z</time>
      </trkpt>
      <trkpt lat="37.205706" lon="-3.705031">
        <ele>533.293</ele>
        <time>2021-10-16T20:45:14Z</time>
      </trkpt>
      <trkpt lat="37.205526" lon="-3.704475">
        <ele>533.337</ele>
        <time>2021-10-16T20:45:16Z</time>
      </trkpt>
      <trkpt lat="37.205439" lon="-3.704188">
        <ele>533.382</ele>
        <time>2021-10-16T20:45:17Z</time>
      </trkpt>
      <trkpt lat="37.205273" lon="-3.703617">
        <ele>533.961</ele>
        <time>2021-10-16T20:45:19Z</time>
      </trkpt>
      <trkpt lat="37.205196" lon="-3.703318">
        <ele>534.283</ele>
        <time>2021-10-16T20:45:20Z</time>
      </trkpt>
      <trkpt lat="37.205062" lon="-3.702744">
        <ele>533.910</ele>
        <time>2021-10-16T20:45:22Z</time>
      </trkpt>
      <trkpt lat="37.204938" lon="-3.702153">
        <ele>534.429</ele>
        <time>2021-10-16T20:45:24Z</time>
      </trkpt>
      <trkpt lat="37.204882" lon="-3.701855">
        <ele>534.500</ele>
        <time>2021-10-16T20:45:25Z</time>
      </trkpt>
      <trkpt lat="37.204828" lon="-3.701548">
        <ele>534.620</ele>
        <time>2021-10-16T20:45:26Z</time>
      </trkpt>
      <trkpt lat="37.204738" lon="-3.700956">
        <ele>534.708</ele>
        <time>2021-10-16T20:45:28Z</time>
      </trkpt>
      <trkpt lat="37.204668" lon="-3.700348">
        <ele>535.050</ele>
        <time>2021-10-16T20:45:30Z</time>
      </trkpt>
      <trkpt lat="37.204639" lon="-3.700045">
        <ele>535.318</ele>
        <time>2021-10-16T20:45:31Z</time>
      </trkpt>
      <trkpt lat="37.204614" lon="-3.699734">
        <ele>535.267</ele>
        <time>2021-10-16T20:45:32Z</time>
      </trkpt>
      <trkpt lat="37.204580" lon="-3.699143">
        <ele>536.681</ele>
        <time>2021-10-16T20:45:34Z</time>
      </trkpt>
      <trkpt lat="37.204568" lon="-3.698842">
        <ele>536.796</ele>
        <time>2021-10-16T20:45:35Z</time>
      </trkpt>
      <trkpt lat="37.204559" lon="-3.698544">
        <ele>536.755</ele>
        <time>2021-10-16T20:45:36Z</time>
      </trkpt>
      <trkpt lat="37.204551" lon="-3.697940">
        <ele>537.617</ele>
        <time>2021-10-16T20:45:38Z</time>
      </trkpt>
      <trkpt lat="37.204560" lon="-3.697356">
        <ele>538.134</ele>
        <time>2021-10-16T20:45:40Z</time>
      </trkpt>
      <trkpt lat="37.204586" lon="-3.696793">
        <ele>537.462</ele>
        <time>2021-10-16T20:45:42Z</time>
      </trkpt>
      <trkpt lat="37.204605" lon="-3.696516">
        <ele>537.683</ele>
        <time>2021-10-16T20:45:43Z</time>
      </trkpt>
      <trkpt lat="37.204627" lon="-3.696234">
        <ele>537.711</ele>
        <time>2021-10-16T20:45:44Z</time>
      </trkpt>
      <trkpt lat="37.204671" lon="-3.695694">
        <ele>537.708</ele>
        <time>2021-10-16T20:45:46Z</time>
      </trkpt>
      <trkpt lat="37.204697" lon="-3.695415">
        <ele>538.634</ele>
        <time>2021-10-16T20:45:47Z</time>
      </trkpt>
      <trkpt lat="37.204768" lon="-3.694860">
        <ele>538.352</ele>
        <time>2021-10-16T20:45:49Z</time>
      </trkpt>
      <trkpt lat="37.204809" lon="-3.694581">
        <ele>538.781</ele>
        <time>2021-10-16T20:45:50Z</time>
      </trkpt>
      <trkpt lat="37.204886" lon="-3.694065">
        <ele>538.965</ele>
        <time>2021-10-16T20:45:52Z</time>
      </trkpt>
      <trkpt lat="37.204967" lon="-3.693534">
        <ele>538.430</ele>
        <time>2021-10-16T20:45:54Z</time>
      </trkpt>
      <trkpt lat="37.205011" lon="-3.693271">
        <ele>538.319</ele>
        <time>2021-10-16T20:45:55Z</time>
      </trkpt>
      <trkpt lat="37.205055" lon="-3.693000">
        <ele>538.581</ele>
        <time>2021-10-16T20:45:56Z</time>
      </trkpt>
      <trkpt lat="37.205130" lon="-3.692489">
        <ele>538.648</ele>
        <time>2021-10-16T20:45:58Z</time>
      </trkpt>
      <trkpt lat="37.205205" lon="-3.691958">
        <ele>538.817</ele>
        <time>2021-10-16T20:46:00Z</time>
      </trkpt>
      <trkpt lat="37.205280" lon="-3.691415">
        <ele>538.787</ele>
        <time>2021-10-16T20:46:02Z</time>
      </trkpt>
      <trkpt lat="37.205347" lon="-3.690890">
        <ele>539.115</ele>
        <time>2021-10-16T20:46:04Z</time>
      </trkpt>
      <trkpt lat="37.205380" lon="-3.690619">
        <ele>539.008</ele>
        <time>2021-10-16T20:46:05Z</time>
      </trkpt>
      <trkpt lat="37.205411" lon="-3.690351">
        <ele>539.599</ele>
        <time>2021-10-16T20:46:06Z</time>
      </trkpt>
      <trkpt lat="37.205468" lon="-3.689798">
        <ele>539.357</ele>
        <time>2021-10-16T20:46:08Z</time>
      </trkpt>
      <trkpt lat="37.205515" lon="-3.689256">
        <ele>540.076</ele>
        <time>2021-10-16T20:46:10Z</time>
      </trkpt>
      <trkpt lat="37.205536" lon="-3.688973">
        <ele>540.370</ele>
        <time>2021-10-16T20:46:11Z</time>
      </trkpt>
      <trkpt lat="37.205571" lon="-3.688407">
        <ele>540.135</ele>
        <time>2021-10-16T20:46:13Z</time>
      </trkpt>
      <trkpt lat="37.205583" lon="-3.688113">
        <ele>540.344</ele>
        <time>2021-10-16T20:46:14Z</time>
      </trkpt>
      <trkpt lat="37.205596" lon="-3.687551">
        <ele>540.556</ele>
        <time>2021-10-16T20:46:16Z</time>
      </trkpt>
      <trkpt lat="37.205600" lon="-3.687267">
        <ele>540.883</ele>
        <time>2021-10-16T20:46:17Z</time>
      </trkpt>
      <trkpt lat="37.205597" lon="-3.686707">
        <ele>541.083</ele>
        <time>2021-10-16T20:46:19Z</time>
      </trkpt>
      <trkpt lat="37.205589" lon="-3.686419">
        <ele>540.825</ele>
        <time>2021-10-16T20:46:20Z</time>
      </trkpt>
      <trkpt lat="37.205558" lon="-3.685884">
        <ele>541.117</ele>
        <time>2021-10-16T20:46:22Z</time>
      </trkpt>
      <trkpt lat="37.205544" lon="-3.685621">
        <ele>541.608</ele>
        <time>2021-10-16T20:46:23Z</time>
      </trkpt>
      <trkpt lat="37.205512" lon="-3.685139">
        <ele>542.066</ele>
        <time>2021-10-16T20:46:25Z</time>
      </trkpt>
      <trkpt lat="37.205492" lon="-3.684905">
        <ele>542.264</ele>
        <time>2021-10-16T20:46:26Z</time>
      </trkpt>
      <trkpt lat="37.205434" lon="-3.684468">
        <ele>543.073</ele>
        <time>2021-10-16T20:46:28Z</time>
      </trkpt>
      <trkpt lat="37.205406" lon="-3.684244">
        <ele>543.077</ele>
        <time>2021-10-16T20:46:29Z</time>
      </trkpt>
      <trkpt lat="37.205362" lon="-3.683784">
        <ele>543.512</ele>
        <time>2021-10-16T20:46:31Z</time>
      </trkpt>
      <trkpt lat="37.205336" lon="-3.683535">
        <ele>543.881</ele>
        <time>2021-10-16T20:46:32Z</time>
      </trkpt>
      <trkpt lat="37.205280" lon="-3.683049">
        <ele>544.053</ele>
        <time>2021-10-16T20:46:34Z</time>
      </trkpt>
      <trkpt lat="37.205245" lon="-3.682794">
        <ele>544.260</ele>
        <time>2021-10-16T20:46:35Z</time>
      </trkpt>
      <trkpt lat="37.205166" lon="-3.682276">
        <ele>544.885</ele>
        <time>2021-10-16T20:46:37Z</time>
      </trkpt>
      <trkpt lat="37.205126" lon="-3.682006">
        <ele>544.789</ele>
        <time>2021-10-16T20:46:38Z</time>
      </trkpt>
      <trkpt lat="37.205042" lon="-3.681500">
        <ele>544.917</ele>
        <time>2021-10-16T20:46:40Z</time>
      </trkpt>
      <trkpt lat="37.204994" lon="-3.681242">
        <ele>545.308</ele>
        <time>2021-10-16T20:46:41Z</time>
      </trkpt>
      <trkpt lat="37.204943" lon="-3.680986">
        <ele>545.836</ele>
        <time>2021-10-16T20:46:42Z</time>
      </trkpt>
      <trkpt lat="37.204836" lon="-3.680475">
        <ele>545.734</ele>
        <time>2021-10-16T20:46:44Z</time>
      </trkpt>
      <trkpt lat="37.204726" lon="-3.679989">
        <ele>546.353</ele>
        <time>2021-10-16T20:46:46Z</time>
      </trkpt>
      <trkpt lat="37.204665" lon="-3.679740">
        <ele>546.597</ele>
        <time>2021-10-16T20:46:47Z</time>
      </trkpt>
      <trkpt lat="37.204603" lon="-3.679493">
        <ele>546.792</ele>
        <time>2021-10-16T20:46:48Z</time>
      </trkpt>
      <trkpt lat="37.204466" lon="-3.678990">
        <ele>547.561</ele>
        <time>2021-10-16T20:46:50Z</time>
      </trkpt>
      <trkpt lat="37.204323" lon="-3.678507">
        <ele>548.493</ele>
        <time>2021-10-16T20:46:52Z</time>
      </trkpt>
      <trkpt lat="37.204248" lon="-3.678258">
        <ele>548.410</ele>
        <time>2021-10-16T20:46:53Z</time>
      </trkpt>
      <trkpt lat="37.204172" lon="-3.678019">
        <ele>548.437</ele>
        <time>2021-10-16T20:46:54Z</time>
      </trkpt>
      <trkpt lat="37.204018" lon="-3.677573">
        <ele>548.349</ele>
        <time>2021-10-16T20:46:56Z</time>
      </trkpt>
      <trkpt lat="37.203879" lon="-3.677207">
        <ele>548.613</ele>
        <time>2021-10-16T20:46:58Z</time>
      </trkpt>
      <trkpt lat="37.203757" lon="-3.676887">
        <ele>548.008</ele>
        <time>2021-10-16T20:47:00Z</time>
      </trkpt>
      <trkpt lat="37.203697" lon="-3.676753">
        <ele>547.441</ele>
        <time>2021-10-16T20:47:01Z</time>
      </trkpt>
      <trkpt lat="37.203629" lon="-3.676622">
        <ele>548.079</ele>
        <time>2021-10-16T20:47:02Z</time>
      </trkpt>
      <trkpt lat="37.203460" lon="-3.676425">
        <ele>548.588</ele>
        <time>2021-10-16T20:47:04Z</time>
      </trkpt>
      <trkpt lat="37.203353" lon="-3.676365">
        <ele>548.862</ele>
        <time>2021-10-16T20:47:05Z</time>
      </trkpt>
      <trkpt lat="37.203238" lon="-3.676348">
        <ele>548.947</ele>
        <time>2021-10-16T20:47:06Z</time>
      </trkpt>
      <trkpt lat="37.202995" lon="-3.676461">
        <ele>550.156</ele>
        <time>2021-10-16T20:47:08Z</time>
      </trkpt>
      <trkpt lat="37.202806" lon="-3.676686">
        <ele>552.518</ele>
        <time>2021-10-16T20:47:10Z</time>
      </trkpt>
      <trkpt lat="37.202748" lon="-3.676837">
        <ele>553.555</ele>
        <time>2021-10-16T20:47:11Z</time>
      </trkpt>
      <trkpt lat="37.202721" lon="-3.676999">
        <ele>554.177</ele>
        <time>2021-10-16T20:47:12Z</time>
      </trkpt>
      <trkpt lat="37.202719" lon="-3.677162">
        <ele>554.461</ele>
        <time>2021-10-16T20:47:13Z</time>
      </trkpt>
      <trkpt lat="37.202755" lon="-3.677327">
        <ele>554.727</ele>
        <time>2021-10-16T20:47:14Z</time>
      </trkpt>
      <trkpt lat="37.202930" lon="-3.677583">
        <ele>555.008</ele>
        <time>2021-10-16T20:47:16Z</time>
      </trkpt>
      <trkpt lat="37.203201" lon="-3.677710">
        <ele>557.825</ele>
        <time>2021-10-16T20:47:18Z</time>
      </trkpt>
      <trkpt lat="37.203344" lon="-3.677709">
        <ele>558.293</ele>
        <time>2021-10-16T20:47:19Z</time>
      </trkpt>
      <trkpt lat="37.203482" lon="-3.677664">
        <ele>558.482</ele>
        <time>2021-10-16T20:47:20Z</time>
      </trkpt>
      <trkpt lat="37.203749" lon="-3.677494">
        <ele>559.256</ele>
        <time>2021-10-16T20:47:22Z</time>
      </trkpt>
      <trkpt lat="37.204048" lon="-3.677279">
        <ele>560.231</ele>
        <time>2021-10-16T20:47:24Z</time>
      </trkpt>
      <trkpt lat="37.204350" lon="-3.677091">
        <ele>560.350</ele>
        <time>2021-10-16T20:47:26Z</time>
      </trkpt>
      <trkpt lat="37.204626" lon="-3.676920">
        <ele>561.292</ele>
        <time>2021-10-16T20:47:28Z</time>
      </trkpt>
      <trkpt lat="37.204771" lon="-3.676825">
        <ele>561.589</ele>
        <time>2021-10-16T20:47:29Z</time>
      </trkpt>
      <trkpt lat="37.205073" lon="-3.676623">
        <ele>561.845</ele>
        <time>2021-10-16T20:47:31Z</time>
      </trkpt>
      <trkpt lat="37.205235" lon="-3.676518">
        <ele>562.347</ele>
        <time>2021-10-16T20:47:32Z</time>
      </trkpt>
      <trkpt lat="37.205558" lon="-3.676309">
        <ele>563.011</ele>
        <time>2021-10-16T20:47:34Z</time>
      </trkpt>
      <trkpt lat="37.205733" lon="-3.676201">
        <ele>563.808</ele>
        <time>2021-10-16T20:47:35Z</time>
      </trkpt>
      <trkpt lat="37.205911" lon="-3.676091">
        <ele>564.072</ele>
        <time>2021-10-16T20:47:36Z</time>
      </trkpt>
      <trkpt lat="37.206089" lon="-3.675982">
        <ele>563.420</ele>
        <time>2021-10-16T20:47:37Z</time>
      </trkpt>
      <trkpt lat="37.206274" lon="-3.675873">
        <ele>564.039</ele>
        <time>2021-10-16T20:47:38Z</time>
      </trkpt>
      <trkpt lat="37.206625" lon="-3.675667">
        <ele>564.263</ele>
        <time>2021-10-16T20:47:40Z</time>
      </trkpt>
      <trkpt lat="37.206976" lon="-3.675467">
        <ele>564.668</ele>
        <time>2021-10-16T20:47:42Z</time>
      </trkpt>
      <trkpt lat="37.207140" lon="-3.675369">
        <ele>564.787</ele>
        <time>2021-10-16T20:47:43Z</time>
      </trkpt>
      <trkpt lat="37.207302" lon="-3.675272">
        <ele>564.479</ele>
        <time>2021-10-16T20:47:44Z</time>
      </trkpt>
      <trkpt lat="37.207597" lon="-3.675091">
        <ele>564.066</ele>
        <time>2021-10-16T20:47:46Z</time>
      </trkpt>
      <trkpt lat="37.207737" lon="-3.675003">
        <ele>564.038</ele>
        <time>2021-10-16T20:47:47Z</time>
      </trkpt>
      <trkpt lat="37.207995" lon="-3.674853">
        <ele>564.470</ele>
        <time>2021-10-16T20:47:49Z</time>
      </trkpt>
      <trkpt lat="37.208119" lon="-3.674787">
        <ele>564.417</ele>
        <time>2021-10-16T20:47:50Z</time>
      </trkpt>
      <trkpt lat="37.208338" lon="-3.674668">
        <ele>564.508</ele>
        <time>2021-10-16T20:47:52Z</time>
      </trkpt>
      <trkpt lat="37.208567" lon="-3.674540">
        <ele>564.231</ele>
        <time>2021-10-16T20:47:54Z</time>
      </trkpt>
      <trkpt lat="37.208687" lon="-3.674472">
        <ele>564.719</ele>
        <time>2021-10-16T20:47:55Z</time>
      </trkpt>
      <trkpt lat="37.208810" lon="-3.674396">
        <ele>564.288</ele>
        <time>2021-10-16T20:47:56Z</time>
      </trkpt>
      <trkpt lat="37.209015" lon="-3.674231">
        <ele>564.142</ele>
        <time>2021-10-16T20:47:58Z</time>
      </trkpt>
      <trkpt lat="37.209142" lon="-3.674039">
        <ele>563.937</ele>
        <time>2021-10-16T20:48:00Z</time>
      </trkpt>
      <trkpt lat="37.209168" lon="-3.673932">
        <ele>563.466</ele>
        <time>2021-10-16T20:48:01Z</time>
      </trkpt>
      <trkpt lat="37.209172" lon="-3.673817">
        <ele>563.018</ele>
        <time>2021-10-16T20:48:02Z</time>
      </trkpt>
      <trkpt lat="37.209106" lon="-3.673615">
        <ele>562.185</ele>
        <time>2021-10-16T20:48:04Z</time>
      </trkpt>
      <trkpt lat="37.209045" lon="-3.673533">
        <ele>561.823</ele>
        <time>2021-10-16T20:48:05Z</time>
      </trkpt>
      <trkpt lat="37.208969" lon="-3.673474">
        <ele>561.383</ele>
        <time>2021-10-16T20:48:06Z</time>
      </trkpt>
      <trkpt lat="37.208792" lon="-3.673435">
        <ele>560.611</ele>
        <time>2021-10-16T20:48:08Z</time>
      </trkpt>
      <trkpt lat="37.208604" lon="-3.673512">
        <ele>559.508</ele>
        <time>2021-10-16T20:48:10Z</time>
      </trkpt>
      <trkpt lat="37.208516" lon="-3.673588">
        <ele>559.220</ele>
        <time>2021-10-16T20:48:11Z</time>
      </trkpt>
      <trkpt lat="37.208446" lon="-3.673662">
        <ele>558.838</ele>
        <time>2021-10-16T20:48:12Z</time>
      </trkpt>
      <trkpt lat="37.208358" lon="-3.673771">
        <ele>557.687</ele>
        <time>2021-10-16T20:48:14Z</time>
      </trkpt>
      <trkpt lat="37.208338" lon="-3.673822">
        <ele>557.721</ele>
        <time>2021-10-16T20:48:16Z</time>
      </trkpt>
      <trkpt lat="37.208307" lon="-3.673922">
        <ele>557.656</ele>
        <time>2021-10-16T20:48:18Z</time>
      </trkpt>
      <trkpt lat="37.208256" lon="-3.674111">
        <ele>557.395</ele>
        <time>2021-10-16T20:48:20Z</time>
      </trkpt>
      <trkpt lat="37.208150" lon="-3.674224">
        <ele>556.257</ele>
        <time>2021-10-16T20:48:22Z</time>
      </trkpt>
      <trkpt lat="37.207990" lon="-3.674225">
        <ele>555.824</ele>
        <time>2021-10-16T20:48:24Z</time>
      </trkpt>
      <trkpt lat="37.207912" lon="-3.674182">
        <ele>555.674</ele>
        <time>2021-10-16T20:48:25Z</time>
      </trkpt>
      <trkpt lat="37.207841" lon="-3.674097">
        <ele>555.456</ele>
        <time>2021-10-16T20:48:26Z</time>
      </trkpt>
      <trkpt lat="37.207696" lon="-3.673870">
        <ele>555.421</ele>
        <time>2021-10-16T20:48:28Z</time>
      </trkpt>
      <trkpt lat="37.207503" lon="-3.673649">
        <ele>554.908</ele>
        <time>2021-10-16T20:48:30Z</time>
      </trkpt>
      <trkpt lat="37.207338" lon="-3.673331">
        <ele>555.525</ele>
        <time>2021-10-16T20:48:32Z</time>
      </trkpt>
      <trkpt lat="37.207197" lon="-3.672970">
        <ele>554.963</ele>
        <time>2021-10-16T20:48:34Z</time>
      </trkpt>
      <trkpt lat="37.207118" lon="-3.672772">
        <ele>555.472</ele>
        <time>2021-10-16T20:48:35Z</time>
      </trkpt>
      <trkpt lat="37.207036" lon="-3.672568">
        <ele>555.556</ele>
        <time>2021-10-16T20:48:36Z</time>
      </trkpt>
      <trkpt lat="37.206860" lon="-3.672147">
        <ele>555.661</ele>
        <time>2021-10-16T20:48:38Z</time>
      </trkpt>
      <trkpt lat="37.206686" lon="-3.671744">
        <ele>555.330</ele>
        <time>2021-10-16T20:48:40Z</time>
      </trkpt>
      <trkpt lat="37.206598" lon="-3.671540">
        <ele>555.452</ele>
        <time>2021-10-16T20:48:41Z</time>
      </trkpt>
      <trkpt lat="37.206512" lon="-3.671339">
        <ele>555.269</ele>
        <time>2021-10-16T20:48:42Z</time>
      </trkpt>
      <trkpt lat="37.206346" lon="-3.670941">
        <ele>555.258</ele>
        <time>2021-10-16T20:48:44Z</time>
      </trkpt>
      <trkpt lat="37.206194" lon="-3.670586">
        <ele>555.652</ele>
        <time>2021-10-16T20:48:46Z</time>
      </trkpt>
      <trkpt lat="37.206122" lon="-3.670419">
        <ele>555.717</ele>
        <time>2021-10-16T20:48:47Z</time>
      </trkpt>
      <trkpt lat="37.205987" lon="-3.670108">
        <ele>556.108</ele>
        <time>2021-10-16T20:48:49Z</time>
      </trkpt>
      <trkpt lat="37.205919" lon="-3.669950">
        <ele>556.533</ele>
        <time>2021-10-16T20:48:50Z</time>
      </trkpt>
      <trkpt lat="37.205790" lon="-3.669643">
        <ele>556.421</ele>
        <time>2021-10-16T20:48:52Z</time>
      </trkpt>
      <trkpt lat="37.205726" lon="-3.669485">
        <ele>556.770</ele>
        <time>2021-10-16T20:48:53Z</time>
      </trkpt>
      <trkpt lat="37.205664" lon="-3.669333">
        <ele>557.434</ele>
        <time>2021-10-16T20:48:54Z</time>
      </trkpt>
      <trkpt lat="37.205563" lon="-3.669036">
        <ele>557.429</ele>
        <time>2021-10-16T20:48:56Z</time>
      </trkpt>
      <trkpt lat="37.205502" lon="-3.668743">
        <ele>558.298</ele>
        <time>2021-10-16T20:48:58Z</time>
      </trkpt>
      <trkpt lat="37.205460" lon="-3.668437">
        <ele>557.940</ele>
        <time>2021-10-16T20:49:00Z</time>
      </trkpt>
      <trkpt lat="37.205447" lon="-3.668285">
        <ele>557.927</ele>
        <time>2021-10-16T20:49:01Z</time>
      </trkpt>
      <trkpt lat="37.205443" lon="-3.668124">
        <ele>558.188</ele>
        <time>2021-10-16T20:49:02Z</time>
      </trkpt>
      <trkpt lat="37.205453" lon="-3.667812">
        <ele>558.924</ele>
        <time>2021-10-16T20:49:04Z</time>
      </trkpt>
      <trkpt lat="37.205457" lon="-3.667644">
        <ele>559.026</ele>
        <time>2021-10-16T20:49:05Z</time>
      </trkpt>
      <trkpt lat="37.205458" lon="-3.667471">
        <ele>559.808</ele>
        <time>2021-10-16T20:49:06Z</time>
      </trkpt>
      <trkpt lat="37.205466" lon="-3.667111">
        <ele>562.076</ele>
        <time>2021-10-16T20:49:08Z</time>
      </trkpt>
      <trkpt lat="37.205466" lon="-3.666803">
        <ele>563.594</ele>
        <time>2021-10-16T20:49:10Z</time>
      </trkpt>
      <trkpt lat="37.205467" lon="-3.666662">
        <ele>563.513</ele>
        <time>2021-10-16T20:49:11Z</time>
      </trkpt>
      <trkpt lat="37.205470" lon="-3.666390">
        <ele>563.917</ele>
        <time>2021-10-16T20:49:13Z</time>
      </trkpt>
      <trkpt lat="37.205472" lon="-3.666242">
        <ele>564.852</ele>
        <time>2021-10-16T20:49:14Z</time>
      </trkpt>
      <trkpt lat="37.205475" lon="-3.665950">
        <ele>565.311</ele>
        <time>2021-10-16T20:49:16Z</time>
      </trkpt>
      <trkpt lat="37.205477" lon="-3.665800">
        <ele>565.553</ele>
        <time>2021-10-16T20:49:17Z</time>
      </trkpt>
      <trkpt lat="37.205480" lon="-3.665652">
        <ele>565.560</ele>
        <time>2021-10-16T20:49:18Z</time>
      </trkpt>
      <trkpt lat="37.205485" lon="-3.665358">
        <ele>565.716</ele>
        <time>2021-10-16T20:49:20Z</time>
      </trkpt>
      <trkpt lat="37.205488" lon="-3.665036">
        <ele>564.776</ele>
        <time>2021-10-16T20:49:22Z</time>
      </trkpt>
      <trkpt lat="37.205487" lon="-3.664852">
        <ele>564.113</ele>
        <time>2021-10-16T20:49:23Z</time>
      </trkpt>
      <trkpt lat="37.205490" lon="-3.664459">
        <ele>562.008</ele>
        <time>2021-10-16T20:49:25Z</time>
      </trkpt>
      <trkpt lat="37.205488" lon="-3.664246">
        <ele>561.379</ele>
        <time>2021-10-16T20:49:26Z</time>
      </trkpt>
      <trkpt lat="37.205480" lon="-3.663842">
        <ele>560.997</ele>
        <time>2021-10-16T20:49:28Z</time>
      </trkpt>
      <trkpt lat="37.205472" lon="-3.663646">
        <ele>561.176</ele>
        <time>2021-10-16T20:49:29Z</time>
      </trkpt>
      <trkpt lat="37.205463" lon="-3.663458">
        <ele>561.540</ele>
        <time>2021-10-16T20:49:30Z</time>
      </trkpt>
      <trkpt lat="37.205452" lon="-3.663282">
        <ele>562.115</ele>
        <time>2021-10-16T20:49:31Z</time>
      </trkpt>
      <trkpt lat="37.205442" lon="-3.663107">
        <ele>562.674</ele>
        <time>2021-10-16T20:49:32Z</time>
      </trkpt>
      <trkpt lat="37.205423" lon="-3.662775">
        <ele>563.326</ele>
        <time>2021-10-16T20:49:34Z</time>
      </trkpt>
      <trkpt lat="37.205399" lon="-3.662430">
        <ele>563.393</ele>
        <time>2021-10-16T20:49:36Z</time>
      </trkpt>
      <trkpt lat="37.205383" lon="-3.662251">
        <ele>563.654</ele>
        <time>2021-10-16T20:49:37Z</time>
      </trkpt>
      <trkpt lat="37.205366" lon="-3.662058">
        <ele>564.056</ele>
        <time>2021-10-16T20:49:38Z</time>
      </trkpt>
      <trkpt lat="37.205328" lon="-3.661646">
        <ele>563.911</ele>
        <time>2021-10-16T20:49:40Z</time>
      </trkpt>
      <trkpt lat="37.205306" lon="-3.661422">
        <ele>563.808</ele>
        <time>2021-10-16T20:49:41Z</time>
      </trkpt>
      <trkpt lat="37.205255" lon="-3.660960">
        <ele>563.573</ele>
        <time>2021-10-16T20:49:43Z</time>
      </trkpt>
      <trkpt lat="37.205224" lon="-3.660711">
        <ele>562.831</ele>
        <time>2021-10-16T20:49:44Z</time>
      </trkpt>
      <trkpt lat="37.205160" lon="-3.660224">
        <ele>564.280</ele>
        <time>2021-10-16T20:49:46Z</time>
      </trkpt>
      <trkpt lat="37.205124" lon="-3.659969">
        <ele>563.934</ele>
        <time>2021-10-16T20:49:47Z</time>
      </trkpt>
      <trkpt lat="37.205039" lon="-3.659454">
        <ele>564.219</ele>
        <time>2021-10-16T20:49:49Z</time>
      </trkpt>
      <trkpt lat="37.204991" lon="-3.659190">
        <ele>563.958</ele>
        <time>2021-10-16T20:49:50Z</time>
      </trkpt>
      <trkpt lat="37.204899" lon="-3.658703">
        <ele>564.330</ele>
        <time>2021-10-16T20:49:52Z</time>
      </trkpt>
      <trkpt lat="37.204805" lon="-3.658219">
        <ele>564.197</ele>
        <time>2021-10-16T20:49:54Z</time>
      </trkpt>
      <trkpt lat="37.204694" lon="-3.657738">
        <ele>563.876</ele>
        <time>2021-10-16T20:49:56Z</time>
      </trkpt>
      <trkpt lat="37.204579" lon="-3.657289">
        <ele>564.990</ele>
        <time>2021-10-16T20:49:58Z</time>
      </trkpt>
      <trkpt lat="37.204529" lon="-3.657072">
        <ele>564.319</ele>
        <time>2021-10-16T20:49:59Z</time>
      </trkpt>
      <trkpt lat="37.204442" lon="-3.656705">
        <ele>564.308</ele>
        <time>2021-10-16T20:50:01Z</time>
      </trkpt>
      <trkpt lat="37.204399" lon="-3.656543">
        <ele>564.995</ele>
        <time>2021-10-16T20:50:02Z</time>
      </trkpt>
      <trkpt lat="37.204319" lon="-3.656283">
        <ele>565.143</ele>
        <time>2021-10-16T20:50:04Z</time>
      </trkpt>
      <trkpt lat="37.204281" lon="-3.656169">
        <ele>565.122</ele>
        <time>2021-10-16T20:50:05Z</time>
      </trkpt>
      <trkpt lat="37.204242" lon="-3.656064">
        <ele>565.016</ele>
        <time>2021-10-16T20:50:06Z</time>
      </trkpt>
      <trkpt lat="37.204159" lon="-3.655861">
        <ele>565.151</ele>
        <time>2021-10-16T20:50:08Z</time>
      </trkpt>
      <trkpt lat="37.204086" lon="-3.655698">
        <ele>565.420</ele>
        <time>2021-10-16T20:50:10Z</time>
      </trkpt>
      <trkpt lat="37.204053" lon="-3.655633">
        <ele>565.742</ele>
        <time>2021-10-16T20:50:11Z</time>
      </trkpt>
      <trkpt lat="37.203980" lon="-3.655526">
        <ele>565.939</ele>
        <time>2021-10-16T20:50:13Z</time>
      </trkpt>
      <trkpt lat="37.203926" lon="-3.655476">
        <ele>566.196</ele>
        <time>2021-10-16T20:50:14Z</time>
      </trkpt>
      <trkpt lat="37.203804" lon="-3.655385">
        <ele>567.131</ele>
        <time>2021-10-16T20:50:16Z</time>
      </trkpt>
      <trkpt lat="37.203705" lon="-3.655236">
        <ele>567.724</ele>
        <time>2021-10-16T20:50:18Z</time>
      </trkpt>
      <trkpt lat="37.203667" lon="-3.655130">
        <ele>568.008</ele>
        <time>2021-10-16T20:50:19Z</time>
      </trkpt>
      <trkpt lat="37.203630" lon="-3.655004">
        <ele>568.527</ele>
        <time>2021-10-16T20:50:20Z</time>
      </trkpt>
      <trkpt lat="37.203522" lon="-3.654742">
        <ele>568.525</ele>
        <time>2021-10-16T20:50:22Z</time>
      </trkpt>
      <trkpt lat="37.203440" lon="-3.654614">
        <ele>568.344</ele>
        <time>2021-10-16T20:50:23Z</time>
      </trkpt>
      <trkpt lat="37.203235" lon="-3.654357">
        <ele>568.158</ele>
        <time>2021-10-16T20:50:25Z</time>
      </trkpt>
      <trkpt lat="37.203120" lon="-3.654216">
        <ele>568.243</ele>
        <time>2021-10-16T20:50:26Z</time>
      </trkpt>
      <trkpt lat="37.202903" lon="-3.653947">
        <ele>568.812</ele>
        <time>2021-10-16T20:50:28Z</time>
      </trkpt>
      <trkpt lat="37.202793" lon="-3.653810">
        <ele>568.714</ele>
        <time>2021-10-16T20:50:29Z</time>
      </trkpt>
      <trkpt lat="37.202681" lon="-3.653671">
        <ele>568.781</ele>
        <time>2021-10-16T20:50:30Z</time>
      </trkpt>
      <trkpt lat="37.202565" lon="-3.653527">
        <ele>568.464</ele>
        <time>2021-10-16T20:50:31Z</time>
      </trkpt>
      <trkpt lat="37.202443" lon="-3.653374">
        <ele>568.006</ele>
        <time>2021-10-16T20:50:32Z</time>
      </trkpt>
      <trkpt lat="37.202201" lon="-3.653071">
        <ele>568.316</ele>
        <time>2021-10-16T20:50:34Z</time>
      </trkpt>
      <trkpt lat="37.202071" lon="-3.652911">
        <ele>568.708</ele>
        <time>2021-10-16T20:50:35Z</time>
      </trkpt>
      <trkpt lat="37.201940" lon="-3.652749">
        <ele>568.724</ele>
        <time>2021-10-16T20:50:36Z</time>
      </trkpt>
      <trkpt lat="37.201807" lon="-3.652585">
        <ele>568.322</ele>
        <time>2021-10-16T20:50:37Z</time>
      </trkpt>
      <trkpt lat="37.201668" lon="-3.652413">
        <ele>568.041</ele>
        <time>2021-10-16T20:50:38Z</time>
      </trkpt>
      <trkpt lat="37.201399" lon="-3.652082">
        <ele>568.025</ele>
        <time>2021-10-16T20:50:40Z</time>
      </trkpt>
      <trkpt lat="37.201262" lon="-3.651914">
        <ele>568.420</ele>
        <time>2021-10-16T20:50:41Z</time>
      </trkpt>
      <trkpt lat="37.201127" lon="-3.651747">
        <ele>568.649</ele>
        <time>2021-10-16T20:50:42Z</time>
      </trkpt>
      <trkpt lat="37.200865" lon="-3.651415">
        <ele>569.641</ele>
        <time>2021-10-16T20:50:44Z</time>
      </trkpt>
      <trkpt lat="37.200624" lon="-3.651109">
        <ele>569.098</ele>
        <time>2021-10-16T20:50:46Z</time>
      </trkpt>
      <trkpt lat="37.200498" lon="-3.650945">
        <ele>569.252</ele>
        <time>2021-10-16T20:50:47Z</time>
      </trkpt>
      <trkpt lat="37.200251" lon="-3.650586">
        <ele>569.453</ele>
        <time>2021-10-16T20:50:49Z</time>
      </trkpt>
      <trkpt lat="37.200127" lon="-3.650389">
        <ele>569.608</ele>
        <time>2021-10-16T20:50:50Z</time>
      </trkpt>
      <trkpt lat="37.199914" lon="-3.650055">
        <ele>570.208</ele>
        <time>2021-10-16T20:50:52Z</time>
      </trkpt>
      <trkpt lat="37.199818" lon="-3.649910">
        <ele>570.743</ele>
        <time>2021-10-16T20:50:53Z</time>
      </trkpt>
      <trkpt lat="37.199638" lon="-3.649651">
        <ele>571.451</ele>
        <time>2021-10-16T20:50:55Z</time>
      </trkpt>
      <trkpt lat="37.199542" lon="-3.649533">
        <ele>571.740</ele>
        <time>2021-10-16T20:50:56Z</time>
      </trkpt>
      <trkpt lat="37.199338" lon="-3.649363">
        <ele>571.664</ele>
        <time>2021-10-16T20:50:58Z</time>
      </trkpt>
      <trkpt lat="37.199227" lon="-3.649322">
        <ele>571.639</ele>
        <time>2021-10-16T20:50:59Z</time>
      </trkpt>
      <trkpt lat="37.198997" lon="-3.649305">
        <ele>572.278</ele>
        <time>2021-10-16T20:51:01Z</time>
      </trkpt>
      <trkpt lat="37.198882" lon="-3.649286">
        <ele>572.210</ele>
        <time>2021-10-16T20:51:02Z</time>
      </trkpt>
      <trkpt lat="37.198685" lon="-3.649163">
        <ele>572.057</ele>
        <time>2021-10-16T20:51:04Z</time>
      </trkpt>
      <trkpt lat="37.198596" lon="-3.649065">
        <ele>572.883</ele>
        <time>2021-10-16T20:51:05Z</time>
      </trkpt>
      <trkpt lat="37.198504" lon="-3.648964">
        <ele>573.825</ele>
        <time>2021-10-16T20:51:06Z</time>
      </trkpt>
      <trkpt lat="37.198272" lon="-3.648815">
        <ele>574.017</ele>
        <time>2021-10-16T20:51:08Z</time>
      </trkpt>
      <trkpt lat="37.197999" lon="-3.648704">
        <ele>574.008</ele>
        <time>2021-10-16T20:51:10Z</time>
      </trkpt>
      <trkpt lat="37.197689" lon="-3.648604">
        <ele>573.276</ele>
        <time>2021-10-16T20:51:12Z</time>
      </trkpt>
      <trkpt lat="37.197536" lon="-3.648557">
        <ele>572.614</ele>
        <time>2021-10-16T20:51:13Z</time>
      </trkpt>
      <trkpt lat="37.197389" lon="-3.648516">
        <ele>572.933</ele>
        <time>2021-10-16T20:51:14Z</time>
      </trkpt>
      <trkpt lat="37.197140" lon="-3.648411">
        <ele>573.357</ele>
        <time>2021-10-16T20:51:16Z</time>
      </trkpt>
      <trkpt lat="37.197019" lon="-3.648338">
        <ele>572.912</ele>
        <time>2021-10-16T20:51:17Z</time>
      </trkpt>
      <trkpt lat="37.196815" lon="-3.648159">
        <ele>572.821</ele>
        <time>2021-10-16T20:51:19Z</time>
      </trkpt>
      <trkpt lat="37.196778" lon="-3.648021">
        <ele>573.753</ele>
        <time>2021-10-16T20:51:20Z</time>
      </trkpt>
      <trkpt lat="37.196855" lon="-3.647668">
        <ele>574.520</ele>
        <time>2021-10-16T20:51:22Z</time>
      </trkpt>
      <trkpt lat="37.196933" lon="-3.647505">
        <ele>576.531</ele>
        <time>2021-10-16T20:51:23Z</time>
      </trkpt>
      <trkpt lat="37.197159" lon="-3.647238">
        <ele>576.661</ele>
        <time>2021-10-16T20:51:25Z</time>
      </trkpt>
      <trkpt lat="37.197298" lon="-3.647120">
        <ele>577.407</ele>
        <time>2021-10-16T20:51:26Z</time>
      </trkpt>
      <trkpt lat="37.197565" lon="-3.646872">
        <ele>578.408</ele>
        <time>2021-10-16T20:51:28Z</time>
      </trkpt>
      <trkpt lat="37.197681" lon="-3.646730">
        <ele>578.941</ele>
        <time>2021-10-16T20:51:29Z</time>
      </trkpt>
      <trkpt lat="37.197775" lon="-3.646559">
        <ele>579.149</ele>
        <time>2021-10-16T20:51:30Z</time>
      </trkpt>
      <trkpt lat="37.197855" lon="-3.646375">
        <ele>579.378</ele>
        <time>2021-10-16T20:51:31Z</time>
      </trkpt>
      <trkpt lat="37.197928" lon="-3.646183">
        <ele>579.792</ele>
        <time>2021-10-16T20:51:32Z</time>
      </trkpt>
      <trkpt lat="37.198036" lon="-3.645785">
        <ele>580.827</ele>
        <time>2021-10-16T20:51:34Z</time>
      </trkpt>
      <trkpt lat="37.198127" lon="-3.645355">
        <ele>581.946</ele>
        <time>2021-10-16T20:51:36Z</time>
      </trkpt>
      <trkpt lat="37.198164" lon="-3.645134">
        <ele>582.618</ele>
        <time>2021-10-16T20:51:37Z</time>
      </trkpt>
      <trkpt lat="37.198192" lon="-3.644902">
        <ele>583.675</ele>
        <time>2021-10-16T20:51:38Z</time>
      </trkpt>
      <trkpt lat="37.198221" lon="-3.644450">
        <ele>583.814</ele>
        <time>2021-10-16T20:51:40Z</time>
      </trkpt>
      <trkpt lat="37.198227" lon="-3.644216">
        <ele>583.954</ele>
        <time>2021-10-16T20:51:41Z</time>
      </trkpt>
      <trkpt lat="37.198225" lon="-3.643985">
        <ele>583.909</ele>
        <time>2021-10-16T20:51:42Z</time>
      </trkpt>
      <trkpt lat="37.198208" lon="-3.643529">
        <ele>584.608</ele>
        <time>2021-10-16T20:51:44Z</time>
      </trkpt>
      <trkpt lat="37.198170" lon="-3.643099">
        <ele>586.829</ele>
        <time>2021-10-16T20:51:46Z</time>
      </trkpt>
      <trkpt lat="37.198149" lon="-3.642878">
        <ele>586.667</ele>
        <time>2021-10-16T20:51:47Z</time>
      </trkpt>
      <trkpt lat="37.198125" lon="-3.642658">
        <ele>586.946</ele>
        <time>2021-10-16T20:51:48Z</time>
      </trkpt>
      <trkpt lat="37.198101" lon="-3.642434">
        <ele>587.440</ele>
        <time>2021-10-16T20:51:49Z</time>
      </trkpt>
      <trkpt lat="37.198077" lon="-3.642201">
        <ele>587.555</ele>
        <time>2021-10-16T20:51:50Z</time>
      </trkpt>
      <trkpt lat="37.198023" lon="-3.641749">
        <ele>588.944</ele>
        <time>2021-10-16T20:51:52Z</time>
      </trkpt>
      <trkpt lat="37.197992" lon="-3.641516">
        <ele>589.046</ele>
        <time>2021-10-16T20:51:53Z</time>
      </trkpt>
      <trkpt lat="37.197960" lon="-3.641282">
        <ele>589.243</ele>
        <time>2021-10-16T20:51:54Z</time>
      </trkpt>
      <trkpt lat="37.197902" lon="-3.640810">
        <ele>591.038</ele>
        <time>2021-10-16T20:51:56Z</time>
      </trkpt>
      <trkpt lat="37.197864" lon="-3.640347">
        <ele>591.370</ele>
        <time>2021-10-16T20:51:58Z</time>
      </trkpt>
      <trkpt lat="37.197847" lon="-3.639872">
        <ele>591.717</ele>
        <time>2021-10-16T20:52:00Z</time>
      </trkpt>
      <trkpt lat="37.197858" lon="-3.639391">
        <ele>591.708</ele>
        <time>2021-10-16T20:52:02Z</time>
      </trkpt>
      <trkpt lat="37.197882" lon="-3.638936">
        <ele>591.391</ele>
        <time>2021-10-16T20:52:04Z</time>
      </trkpt>
      <trkpt lat="37.197912" lon="-3.638510">
        <ele>591.449</ele>
        <time>2021-10-16T20:52:06Z</time>
      </trkpt>
      <trkpt lat="37.197938" lon="-3.638089">
        <ele>591.748</ele>
        <time>2021-10-16T20:52:08Z</time>
      </trkpt>
      <trkpt lat="37.197946" lon="-3.637670">
        <ele>592.092</ele>
        <time>2021-10-16T20:52:10Z</time>
      </trkpt>
      <trkpt lat="37.197939" lon="-3.637448">
        <ele>592.357</ele>
        <time>2021-10-16T20:52:11Z</time>
      </trkpt>
      <trkpt lat="37.197903" lon="-3.637001">
        <ele>592.586</ele>
        <time>2021-10-16T20:52:13Z</time>
      </trkpt>
      <trkpt lat="37.197867" lon="-3.636772">
        <ele>592.768</ele>
        <time>2021-10-16T20:52:14Z</time>
      </trkpt>
      <trkpt lat="37.197775" lon="-3.636341">
        <ele>591.375</ele>
        <time>2021-10-16T20:52:16Z</time>
      </trkpt>
      <trkpt lat="37.197654" lon="-3.635962">
        <ele>592.242</ele>
        <time>2021-10-16T20:52:18Z</time>
      </trkpt>
      <trkpt lat="37.197588" lon="-3.635781">
        <ele>592.622</ele>
        <time>2021-10-16T20:52:19Z</time>
      </trkpt>
      <trkpt lat="37.197519" lon="-3.635592">
        <ele>592.114</ele>
        <time>2021-10-16T20:52:20Z</time>
      </trkpt>
      <trkpt lat="37.197388" lon="-3.635221">
        <ele>592.908</ele>
        <time>2021-10-16T20:52:22Z</time>
      </trkpt>
      <trkpt lat="37.197322" lon="-3.635026">
        <ele>593.232</ele>
        <time>2021-10-16T20:52:23Z</time>
      </trkpt>
      <trkpt lat="37.197195" lon="-3.634637">
        <ele>593.610</ele>
        <time>2021-10-16T20:52:25Z</time>
      </trkpt>
      <trkpt lat="37.197130" lon="-3.634444">
        <ele>593.649</ele>
        <time>2021-10-16T20:52:26Z</time>
      </trkpt>
      <trkpt lat="37.197017" lon="-3.634116">
        <ele>593.923</ele>
        <time>2021-10-16T20:52:28Z</time>
      </trkpt>
      <trkpt lat="37.196964" lon="-3.633958">
        <ele>594.838</ele>
        <time>2021-10-16T20:52:29Z</time>
      </trkpt>
      <trkpt lat="37.196858" lon="-3.633654">
        <ele>595.247</ele>
        <time>2021-10-16T20:52:31Z</time>
      </trkpt>
      <trkpt lat="37.196799" lon="-3.633488">
        <ele>595.439</ele>
        <time>2021-10-16T20:52:32Z</time>
      </trkpt>
      <trkpt lat="37.196697" lon="-3.633197">
        <ele>595.536</ele>
        <time>2021-10-16T20:52:34Z</time>
      </trkpt>
      <trkpt lat="37.196653" lon="-3.633060">
        <ele>595.646</ele>
        <time>2021-10-16T20:52:35Z</time>
      </trkpt>
      <trkpt lat="37.196609" lon="-3.632934">
        <ele>596.588</ele>
        <time>2021-10-16T20:52:36Z</time>
      </trkpt>
      <trkpt lat="37.196564" lon="-3.632818">
        <ele>596.516</ele>
        <time>2021-10-16T20:52:37Z</time>
      </trkpt>
      <trkpt lat="37.196516" lon="-3.632708">
        <ele>595.408</ele>
        <time>2021-10-16T20:52:38Z</time>
      </trkpt>
      <trkpt lat="37.196436" lon="-3.632557">
        <ele>595.442</ele>
        <time>2021-10-16T20:52:40Z</time>
      </trkpt>
      <trkpt lat="37.196406" lon="-3.632507">
        <ele>595.410</ele>
        <time>2021-10-16T20:52:41Z</time>
      </trkpt>
      <trkpt lat="37.196367" lon="-3.632449">
        <ele>594.899</ele>
        <time>2021-10-16T20:52:43Z</time>
      </trkpt>
      <trkpt lat="37.196312" lon="-3.632381">
        <ele>594.873</ele>
        <time>2021-10-16T20:52:46Z</time>
      </trkpt>
      <trkpt lat="37.196260" lon="-3.632331">
        <ele>594.828</ele>
        <time>2021-10-16T20:52:47Z</time>
      </trkpt>
      <trkpt lat="37.196083" lon="-3.632277">
        <ele>594.837</ele>
        <time>2021-10-16T20:52:49Z</time>
      </trkpt>
      <trkpt lat="37.195971" lon="-3.632276">
        <ele>594.999</ele>
        <time>2021-10-16T20:52:50Z</time>
      </trkpt>
      <trkpt lat="37.195721" lon="-3.632297">
        <ele>595.666</ele>
        <time>2021-10-16T20:52:52Z</time>
      </trkpt>
      <trkpt lat="37.195574" lon="-3.632313">
        <ele>596.543</ele>
        <time>2021-10-16T20:52:53Z</time>
      </trkpt>
      <trkpt lat="37.195420" lon="-3.632330">
        <ele>598.764</ele>
        <time>2021-10-16T20:52:54Z</time>
      </trkpt>
      <trkpt lat="37.195259" lon="-3.632350">
        <ele>600.010</ele>
        <time>2021-10-16T20:52:55Z</time>
      </trkpt>
      <trkpt lat="37.195085" lon="-3.632371">
        <ele>601.208</ele>
        <time>2021-10-16T20:52:56Z</time>
      </trkpt>
      <trkpt lat="37.194725" lon="-3.632420">
        <ele>601.232</ele>
        <time>2021-10-16T20:52:58Z</time>
      </trkpt>
      <trkpt lat="37.194321" lon="-3.632499">
        <ele>601.210</ele>
        <time>2021-10-16T20:53:00Z</time>
      </trkpt>
      <trkpt lat="37.193866" lon="-3.632610">
        <ele>599.969</ele>
        <time>2021-10-16T20:53:02Z</time>
      </trkpt>
      <trkpt lat="37.193392" lon="-3.632739">
        <ele>599.343</ele>
        <time>2021-10-16T20:53:04Z</time>
      </trkpt>
      <trkpt lat="37.193135" lon="-3.632810">
        <ele>598.948</ele>
        <time>2021-10-16T20:53:05Z</time>
      </trkpt>
      <trkpt lat="37.192873" lon="-3.632882">
        <ele>598.697</ele>
        <time>2021-10-16T20:53:06Z</time>
      </trkpt>
      <trkpt lat="37.192349" lon="-3.633015">
        <ele>599.329</ele>
        <time>2021-10-16T20:53:08Z</time>
      </trkpt>
      <trkpt lat="37.191834" lon="-3.633111">
        <ele>599.356</ele>
        <time>2021-10-16T20:53:10Z</time>
      </trkpt>
      <trkpt lat="37.191566" lon="-3.633162">
        <ele>599.836</ele>
        <time>2021-10-16T20:53:11Z</time>
      </trkpt>
      <trkpt lat="37.191029" lon="-3.633295">
        <ele>600.017</ele>
        <time>2021-10-16T20:53:13Z</time>
      </trkpt>
      <trkpt lat="37.190753" lon="-3.633358">
        <ele>600.518</ele>
        <time>2021-10-16T20:53:14Z</time>
      </trkpt>
      <trkpt lat="37.190225" lon="-3.633437">
        <ele>601.008</ele>
        <time>2021-10-16T20:53:16Z</time>
      </trkpt>
      <trkpt lat="37.189954" lon="-3.633444">
        <ele>601.391</ele>
        <time>2021-10-16T20:53:17Z</time>
      </trkpt>
      <trkpt lat="37.189411" lon="-3.633409">
        <ele>601.389</ele>
        <time>2021-10-16T20:53:19Z</time>
      </trkpt>
      <trkpt lat="37.189132" lon="-3.633360">
        <ele>600.178</ele>
        <time>2021-10-16T20:53:20Z</time>
      </trkpt>
      <trkpt lat="37.188607" lon="-3.633222">
        <ele>598.632</ele>
        <time>2021-10-16T20:53:22Z</time>
      </trkpt>
      <trkpt lat="37.188084" lon="-3.633016">
        <ele>596.717</ele>
        <time>2021-10-16T20:53:24Z</time>
      </trkpt>
      <trkpt lat="37.187829" lon="-3.632889">
        <ele>596.246</ele>
        <time>2021-10-16T20:53:25Z</time>
      </trkpt>
      <trkpt lat="37.187571" lon="-3.632745">
        <ele>595.438</ele>
        <time>2021-10-16T20:53:26Z</time>
      </trkpt>
      <trkpt lat="37.187097" lon="-3.632418">
        <ele>594.225</ele>
        <time>2021-10-16T20:53:28Z</time>
      </trkpt>
      <trkpt lat="37.186865" lon="-3.632229">
        <ele>593.723</ele>
        <time>2021-10-16T20:53:29Z</time>
      </trkpt>
      <trkpt lat="37.186640" lon="-3.632026">
        <ele>592.783</ele>
        <time>2021-10-16T20:53:30Z</time>
      </trkpt>
      <trkpt lat="37.186424" lon="-3.631809">
        <ele>592.411</ele>
        <time>2021-10-16T20:53:31Z</time>
      </trkpt>
      <trkpt lat="37.186211" lon="-3.631572">
        <ele>592.308</ele>
        <time>2021-10-16T20:53:32Z</time>
      </trkpt>
      <trkpt lat="37.185843" lon="-3.631097">
        <ele>591.750</ele>
        <time>2021-10-16T20:53:34Z</time>
      </trkpt>
      <trkpt lat="37.185521" lon="-3.630589">
        <ele>591.938</ele>
        <time>2021-10-16T20:53:36Z</time>
      </trkpt>
      <trkpt lat="37.185236" lon="-3.630077">
        <ele>591.867</ele>
        <time>2021-10-16T20:53:38Z</time>
      </trkpt>
      <trkpt lat="37.184986" lon="-3.629571">
        <ele>592.551</ele>
        <time>2021-10-16T20:53:40Z</time>
      </trkpt>
      <trkpt lat="37.184865" lon="-3.629310">
        <ele>593.036</ele>
        <time>2021-10-16T20:53:41Z</time>
      </trkpt>
      <trkpt lat="37.184626" lon="-3.628784">
        <ele>593.895</ele>
        <time>2021-10-16T20:53:43Z</time>
      </trkpt>
      <trkpt lat="37.184501" lon="-3.628510">
        <ele>594.667</ele>
        <time>2021-10-16T20:53:44Z</time>
      </trkpt>
      <trkpt lat="37.184257" lon="-3.627981">
        <ele>595.514</ele>
        <time>2021-10-16T20:53:46Z</time>
      </trkpt>
      <trkpt lat="37.184132" lon="-3.627706">
        <ele>596.036</ele>
        <time>2021-10-16T20:53:47Z</time>
      </trkpt>
      <trkpt lat="37.183882" lon="-3.627155">
        <ele>597.217</ele>
        <time>2021-10-16T20:53:49Z</time>
      </trkpt>
      <trkpt lat="37.183751" lon="-3.626868">
        <ele>597.918</ele>
        <time>2021-10-16T20:53:50Z</time>
      </trkpt>
      <trkpt lat="37.183500" lon="-3.626323">
        <ele>599.208</ele>
        <time>2021-10-16T20:53:52Z</time>
      </trkpt>
      <trkpt lat="37.183240" lon="-3.625765">
        <ele>599.851</ele>
        <time>2021-10-16T20:53:54Z</time>
      </trkpt>
      <trkpt lat="37.182974" lon="-3.625198">
        <ele>600.569</ele>
        <time>2021-10-16T20:53:56Z</time>
      </trkpt>
      <trkpt lat="37.182721" lon="-3.624649">
        <ele>601.878</ele>
        <time>2021-10-16T20:53:58Z</time>
      </trkpt>
      <trkpt lat="37.182590" lon="-3.624364">
        <ele>601.922</ele>
        <time>2021-10-16T20:53:59Z</time>
      </trkpt>
      <trkpt lat="37.182332" lon="-3.623796">
        <ele>602.947</ele>
        <time>2021-10-16T20:54:01Z</time>
      </trkpt>
      <trkpt lat="37.182199" lon="-3.623502">
        <ele>603.236</ele>
        <time>2021-10-16T20:54:02Z</time>
      </trkpt>
      <trkpt lat="37.181938" lon="-3.622948">
        <ele>604.238</ele>
        <time>2021-10-16T20:54:04Z</time>
      </trkpt>
      <trkpt lat="37.181657" lon="-3.622401">
        <ele>605.465</ele>
        <time>2021-10-16T20:54:06Z</time>
      </trkpt>
      <trkpt lat="37.181519" lon="-3.622142">
        <ele>605.993</ele>
        <time>2021-10-16T20:54:07Z</time>
      </trkpt>
      <trkpt lat="37.181387" lon="-3.621879">
        <ele>606.165</ele>
        <time>2021-10-16T20:54:08Z</time>
      </trkpt>
      <trkpt lat="37.181150" lon="-3.621380">
        <ele>606.821</ele>
        <time>2021-10-16T20:54:10Z</time>
      </trkpt>
      <trkpt lat="37.180911" lon="-3.620890">
        <ele>607.408</ele>
        <time>2021-10-16T20:54:12Z</time>
      </trkpt>
      <trkpt lat="37.180797" lon="-3.620662">
        <ele>607.567</ele>
        <time>2021-10-16T20:54:13Z</time>
      </trkpt>
      <trkpt lat="37.180682" lon="-3.620438">
        <ele>607.465</ele>
        <time>2021-10-16T20:54:14Z</time>
      </trkpt>
      <trkpt lat="37.180469" lon="-3.620015">
        <ele>607.874</ele>
        <time>2021-10-16T20:54:16Z</time>
      </trkpt>
      <trkpt lat="37.180255" lon="-3.619579">
        <ele>607.038</ele>
        <time>2021-10-16T20:54:18Z</time>
      </trkpt>
      <trkpt lat="37.180032" lon="-3.619135">
        <ele>606.963</ele>
        <time>2021-10-16T20:54:20Z</time>
      </trkpt>
      <trkpt lat="37.179800" lon="-3.618708">
        <ele>606.752</ele>
        <time>2021-10-16T20:54:22Z</time>
      </trkpt>
      <trkpt lat="37.179567" lon="-3.618300">
        <ele>607.154</ele>
        <time>2021-10-16T20:54:24Z</time>
      </trkpt>
      <trkpt lat="37.179349" lon="-3.617927">
        <ele>605.641</ele>
        <time>2021-10-16T20:54:26Z</time>
      </trkpt>
      <trkpt lat="37.179147" lon="-3.617601">
        <ele>605.657</ele>
        <time>2021-10-16T20:54:28Z</time>
      </trkpt>
      <trkpt lat="37.179045" lon="-3.617446">
        <ele>605.400</ele>
        <time>2021-10-16T20:54:29Z</time>
      </trkpt>
      <trkpt lat="37.178839" lon="-3.617137">
        <ele>606.320</ele>
        <time>2021-10-16T20:54:31Z</time>
      </trkpt>
      <trkpt lat="37.178725" lon="-3.616971">
        <ele>606.508</ele>
        <time>2021-10-16T20:54:32Z</time>
      </trkpt>
      <trkpt lat="37.178503" lon="-3.616659">
        <ele>606.273</ele>
        <time>2021-10-16T20:54:34Z</time>
      </trkpt>
      <trkpt lat="37.178386" lon="-3.616504">
        <ele>606.461</ele>
        <time>2021-10-16T20:54:35Z</time>
      </trkpt>
      <trkpt lat="37.178271" lon="-3.616359">
        <ele>606.920</ele>
        <time>2021-10-16T20:54:36Z</time>
      </trkpt>
      <trkpt lat="37.178160" lon="-3.616221">
        <ele>606.824</ele>
        <time>2021-10-16T20:54:37Z</time>
      </trkpt>
      <trkpt lat="37.178047" lon="-3.616087">
        <ele>606.759</ele>
        <time>2021-10-16T20:54:38Z</time>
      </trkpt>
      <trkpt lat="37.177836" lon="-3.615855">
        <ele>607.118</ele>
        <time>2021-10-16T20:54:40Z</time>
      </trkpt>
      <trkpt lat="37.177728" lon="-3.615743">
        <ele>607.360</ele>
        <time>2021-10-16T20:54:41Z</time>
      </trkpt>
      <trkpt lat="37.177516" lon="-3.615525">
        <ele>607.257</ele>
        <time>2021-10-16T20:54:43Z</time>
      </trkpt>
      <trkpt lat="37.177414" lon="-3.615417">
        <ele>606.527</ele>
        <time>2021-10-16T20:54:44Z</time>
      </trkpt>
      <trkpt lat="37.177227" lon="-3.615216">
        <ele>604.768</ele>
        <time>2021-10-16T20:54:46Z</time>
      </trkpt>
      <trkpt lat="37.177133" lon="-3.615117">
        <ele>604.714</ele>
        <time>2021-10-16T20:54:47Z</time>
      </trkpt>
      <trkpt lat="37.176950" lon="-3.614930">
        <ele>603.708</ele>
        <time>2021-10-16T20:54:49Z</time>
      </trkpt>
      <trkpt lat="37.176864" lon="-3.614842">
        <ele>603.410</ele>
        <time>2021-10-16T20:54:50Z</time>
      </trkpt>
      <trkpt lat="37.176715" lon="-3.614691">
        <ele>603.088</ele>
        <time>2021-10-16T20:54:52Z</time>
      </trkpt>
      <trkpt lat="37.176598" lon="-3.614574">
        <ele>602.067</ele>
        <time>2021-10-16T20:54:54Z</time>
      </trkpt>
      <trkpt lat="37.176559" lon="-3.614541">
        <ele>601.891</ele>
        <time>2021-10-16T20:54:55Z</time>
      </trkpt>
      <trkpt lat="37.176505" lon="-3.614520">
        <ele>601.576</ele>
        <time>2021-10-16T20:54:58Z</time>
      </trkpt>
      <trkpt lat="37.176461" lon="-3.614504">
        <ele>601.565</ele>
        <time>2021-10-16T20:55:01Z</time>
      </trkpt>
      <trkpt lat="37.176363" lon="-3.614480">
        <ele>601.667</ele>
        <time>2021-10-16T20:55:03Z</time>
      </trkpt>
      <trkpt lat="37.176278" lon="-3.614452">
        <ele>601.824</ele>
        <time>2021-10-16T20:55:04Z</time>
      </trkpt>
      <trkpt lat="37.176138" lon="-3.614344">
        <ele>656.595</ele>
        <time>2021-10-16T20:55:06Z</time>
      </trkpt>
      <trkpt lat="37.176100" lon="-3.614265">
        <ele>656.949</ele>
        <time>2021-10-16T20:55:07Z</time>
      </trkpt>
      <trkpt lat="37.176086" lon="-3.614169">
        <ele>656.923</ele>
        <time>2021-10-16T20:55:08Z</time>
      </trkpt>
      <trkpt lat="37.176116" lon="-3.613962">
        <ele>656.908</ele>
        <time>2021-10-16T20:55:10Z</time>
      </trkpt>
      <trkpt lat="37.176147" lon="-3.613844">
        <ele>656.987</ele>
        <time>2021-10-16T20:55:11Z</time>
      </trkpt>
      <trkpt lat="37.176203" lon="-3.613729">
        <ele>656.965</ele>
        <time>2021-10-16T20:55:12Z</time>
      </trkpt>
      <trkpt lat="37.176348" lon="-3.613526">
        <ele>656.954</ele>
        <time>2021-10-16T20:55:14Z</time>
      </trkpt>
      <trkpt lat="37.176465" lon="-3.613371">
        <ele>656.938</ele>
        <time>2021-10-16T20:55:16Z</time>
      </trkpt>
      <trkpt lat="37.176524" lon="-3.613295">
        <ele>656.973</ele>
        <time>2021-10-16T20:55:17Z</time>
      </trkpt>
      <trkpt lat="37.176636" lon="-3.613191">
        <ele>656.942</ele>
        <time>2021-10-16T20:55:19Z</time>
      </trkpt>
      <trkpt lat="37.176693" lon="-3.613167">
        <ele>656.944</ele>
        <time>2021-10-16T20:55:20Z</time>
      </trkpt>
      <trkpt lat="37.176792" lon="-3.613150">
        <ele>656.931</ele>
        <time>2021-10-16T20:55:22Z</time>
      </trkpt>
      <trkpt lat="37.176842" lon="-3.613120">
        <ele>656.944</ele>
        <time>2021-10-16T20:55:24Z</time>
      </trkpt>
      <trkpt lat="37.176866" lon="-3.613044">
        <ele>657.805</ele>
        <time>2021-10-16T20:55:59Z</time>
      </trkpt>
      <trkpt lat="37.176895" lon="-3.612959">
        <ele>657.815</ele>
        <time>2021-10-16T20:56:01Z</time>
      </trkpt>
      <trkpt lat="37.176920" lon="-3.612903">
        <ele>657.808</ele>
        <time>2021-10-16T20:56:02Z</time>
      </trkpt>
      <trkpt lat="37.176960" lon="-3.612804">
        <ele>657.832</ele>
        <time>2021-10-16T20:56:04Z</time>
      </trkpt>
      <trkpt lat="37.176994" lon="-3.612715">
        <ele>657.880</ele>
        <time>2021-10-16T20:56:06Z</time>
      </trkpt>
      <trkpt lat="37.177033" lon="-3.612612">
        <ele>657.869</ele>
        <time>2021-10-16T20:56:08Z</time>
      </trkpt>
      <trkpt lat="37.177070" lon="-3.612521">
        <ele>657.863</ele>
        <time>2021-10-16T20:56:10Z</time>
      </trkpt>
      <trkpt lat="37.177098" lon="-3.612447">
        <ele>657.878</ele>
        <time>2021-10-16T20:56:12Z</time>
      </trkpt>
      <trkpt lat="37.177122" lon="-3.612382">
        <ele>657.867</ele>
        <time>2021-10-16T20:56:15Z</time>
      </trkpt>
      <trkpt lat="37.177142" lon="-3.612330">
        <ele>657.859</ele>
        <time>2021-10-16T20:56:18Z</time>
      </trkpt>
      <trkpt lat="37.177162" lon="-3.612257">
        <ele>657.926</ele>
        <time>2021-10-16T20:57:15Z</time>
      </trkpt>
      <trkpt lat="37.177184" lon="-3.612193">
        <ele>657.911</ele>
        <time>2021-10-16T20:57:16Z</time>
      </trkpt>
      <trkpt lat="37.177212" lon="-3.612125">
        <ele>657.921</ele>
        <time>2021-10-16T20:57:17Z</time>
      </trkpt>
      <trkpt lat="37.177240" lon="-3.612057">
        <ele>657.903</ele>
        <time>2021-10-16T20:57:18Z</time>
      </trkpt>
      <trkpt lat="37.177290" lon="-3.611936">
        <ele>658.008</ele>
        <time>2021-10-16T20:57:20Z</time>
      </trkpt>
      <trkpt lat="37.177338" lon="-3.611827">
        <ele>658.069</ele>
        <time>2021-10-16T20:57:22Z</time>
      </trkpt>
      <trkpt lat="37.177364" lon="-3.611768">
        <ele>658.037</ele>
        <time>2021-10-16T20:57:23Z</time>
      </trkpt>
      <trkpt lat="37.177392" lon="-3.611707">
        <ele>658.086</ele>
        <time>2021-10-16T20:57:24Z</time>
      </trkpt>
      <trkpt lat="37.177445" lon="-3.611594">
        <ele>658.090</ele>
        <time>2021-10-16T20:57:26Z</time>
      </trkpt>
      <trkpt lat="37.177485" lon="-3.611507">
        <ele>658.025</ele>
        <time>2021-10-16T20:57:28Z</time>
      </trkpt>
      <trkpt lat="37.177512" lon="-3.611444">
        <ele>658.074</ele>
        <time>2021-10-16T20:57:29Z</time>
      </trkpt>
      <trkpt lat="37.177570" lon="-3.611317">
        <ele>658.056</ele>
        <time>2021-10-16T20:57:31Z</time>
      </trkpt>
      <trkpt lat="37.177599" lon="-3.611251">
        <ele>658.053</ele>
        <time>2021-10-16T20:57:32Z</time>
      </trkpt>
      <trkpt lat="37.177650" lon="-3.611131">
        <ele>658.059</ele>
        <time>2021-10-16T20:57:34Z</time>
      </trkpt>
      <trkpt lat="37.177703" lon="-3.611011">
        <ele>658.003</ele>
        <time>2021-10-16T20:57:36Z</time>
      </trkpt>
      <trkpt lat="37.177732" lon="-3.610948">
        <ele>658.023</ele>
        <time>2021-10-16T20:57:37Z</time>
      </trkpt>
      <trkpt lat="37.177765" lon="-3.610879">
        <ele>658.008</ele>
        <time>2021-10-16T20:57:38Z</time>
      </trkpt>
      <trkpt lat="37.177829" lon="-3.610736">
        <ele>658.073</ele>
        <time>2021-10-16T20:57:40Z</time>
      </trkpt>
      <trkpt lat="37.177860" lon="-3.610647">
        <ele>658.061</ele>
        <time>2021-10-16T20:57:41Z</time>
      </trkpt>
      <trkpt lat="37.177892" lon="-3.610548">
        <ele>658.010</ele>
        <time>2021-10-16T20:57:42Z</time>
      </trkpt>
      <trkpt lat="37.177927" lon="-3.610439">
        <ele>658.014</ele>
        <time>2021-10-16T20:57:43Z</time>
      </trkpt>
      <trkpt lat="37.177962" lon="-3.610322">
        <ele>658.019</ele>
        <time>2021-10-16T20:57:44Z</time>
      </trkpt>
      <trkpt lat="37.178025" lon="-3.610120">
        <ele>658.058</ele>
        <time>2021-10-16T20:57:46Z</time>
      </trkpt>
      <trkpt lat="37.178093" lon="-3.609917">
        <ele>658.090</ele>
        <time>2021-10-16T20:57:48Z</time>
      </trkpt>
      <trkpt lat="37.178174" lon="-3.609701">
        <ele>657.957</ele>
        <time>2021-10-16T20:57:50Z</time>
      </trkpt>
      <trkpt lat="37.178265" lon="-3.609466">
        <ele>657.923</ele>
        <time>2021-10-16T20:57:52Z</time>
      </trkpt>
      <trkpt lat="37.178399" lon="-3.609243">
        <ele>657.983</ele>
        <time>2021-10-16T20:57:54Z</time>
      </trkpt>
      <trkpt lat="37.178547" lon="-3.609056">
        <ele>658.011</ele>
        <time>2021-10-16T20:57:56Z</time>
      </trkpt>
      <trkpt lat="37.178671" lon="-3.608909">
        <ele>658.008</ele>
        <time>2021-10-16T20:57:58Z</time>
      </trkpt>
      <trkpt lat="37.178724" lon="-3.608842">
        <ele>658.020</ele>
        <time>2021-10-16T20:57:59Z</time>
      </trkpt>
      <trkpt lat="37.178814" lon="-3.608729">
        <ele>658.088</ele>
        <time>2021-10-16T20:58:01Z</time>
      </trkpt>
      <trkpt lat="37.178857" lon="-3.608675">
        <ele>637.857</ele>
        <time>2021-10-16T20:58:02Z</time>
      </trkpt>
      <trkpt lat="37.178905" lon="-3.608572">
        <ele>611.071</ele>
        <time>2021-10-16T20:58:04Z</time>
      </trkpt>
      <trkpt lat="37.178883" lon="-3.608457">
        <ele>611.286</ele>
        <time>2021-10-16T20:58:06Z</time>
      </trkpt>
      <trkpt lat="37.178846" lon="-3.608402">
        <ele>611.525</ele>
        <time>2021-10-16T20:58:07Z</time>
      </trkpt>
      <trkpt lat="37.178803" lon="-3.608347">
        <ele>611.657</ele>
        <time>2021-10-16T20:58:08Z</time>
      </trkpt>
      <trkpt lat="37.178723" lon="-3.608234">
        <ele>612.294</ele>
        <time>2021-10-16T20:58:10Z</time>
      </trkpt>
      <trkpt lat="37.178682" lon="-3.608169">
        <ele>612.457</ele>
        <time>2021-10-16T20:58:11Z</time>
      </trkpt>
      <trkpt lat="37.178601" lon="-3.608031">
        <ele>613.200</ele>
        <time>2021-10-16T20:58:13Z</time>
      </trkpt>
      <trkpt lat="37.178557" lon="-3.607955">
        <ele>613.920</ele>
        <time>2021-10-16T20:58:14Z</time>
      </trkpt>
      <trkpt lat="37.178477" lon="-3.607819">
        <ele>614.808</ele>
        <time>2021-10-16T20:58:16Z</time>
      </trkpt>
      <trkpt lat="37.178440" lon="-3.607746">
        <ele>615.153</ele>
        <time>2021-10-16T20:58:17Z</time>
      </trkpt>
      <trkpt lat="37.178360" lon="-3.607615">
        <ele>615.471</ele>
        <time>2021-10-16T20:58:19Z</time>
      </trkpt>
      <trkpt lat="37.178316" lon="-3.607549">
        <ele>615.880</ele>
        <time>2021-10-16T20:58:20Z</time>
      </trkpt>
      <trkpt lat="37.178231" lon="-3.607414">
        <ele>616.464</ele>
        <time>2021-10-16T20:58:22Z</time>
      </trkpt>
      <trkpt lat="37.178137" lon="-3.607275">
        <ele>617.119</ele>
        <time>2021-10-16T20:58:24Z</time>
      </trkpt>
      <trkpt lat="37.178093" lon="-3.607198">
        <ele>617.738</ele>
        <time>2021-10-16T20:58:25Z</time>
      </trkpt>
      <trkpt lat="37.178048" lon="-3.607120">
        <ele>618.090</ele>
        <time>2021-10-16T20:58:26Z</time>
      </trkpt>
      <trkpt lat="37.177974" lon="-3.606998">
        <ele>618.587</ele>
        <time>2021-10-16T20:58:28Z</time>
      </trkpt>
      <trkpt lat="37.177942" lon="-3.606942">
        <ele>619.066</ele>
        <time>2021-10-16T20:58:29Z</time>
      </trkpt>
      <trkpt lat="37.177869" lon="-3.606827">
        <ele>618.829</ele>
        <time>2021-10-16T20:58:31Z</time>
      </trkpt>
      <trkpt lat="37.177827" lon="-3.606766">
        <ele>619.121</ele>
        <time>2021-10-16T20:58:32Z</time>
      </trkpt>
      <trkpt lat="37.177759" lon="-3.606666">
        <ele>618.808</ele>
        <time>2021-10-16T20:58:34Z</time>
      </trkpt>
      <trkpt lat="37.177733" lon="-3.606618">
        <ele>619.124</ele>
        <time>2021-10-16T20:58:35Z</time>
      </trkpt>
      <trkpt lat="37.177700" lon="-3.606540">
        <ele>619.542</ele>
        <time>2021-10-16T20:58:37Z</time>
      </trkpt>
      <trkpt lat="37.177669" lon="-3.606482">
        <ele>619.621</ele>
        <time>2021-10-16T20:58:38Z</time>
      </trkpt>
      <trkpt lat="37.177621" lon="-3.606394">
        <ele>619.645</ele>
        <time>2021-10-16T20:58:40Z</time>
      </trkpt>
      <trkpt lat="37.177570" lon="-3.606319">
        <ele>619.490</ele>
        <time>2021-10-16T20:58:42Z</time>
      </trkpt>
      <trkpt lat="37.177520" lon="-3.606284">
        <ele>617.869</ele>
        <time>2021-10-16T20:58:45Z</time>
      </trkpt>
      <trkpt lat="37.177489" lon="-3.606220">
        <ele>617.871</ele>
        <time>2021-10-16T20:58:47Z</time>
      </trkpt>
      <trkpt lat="37.177440" lon="-3.606156">
        <ele>617.828</ele>
        <time>2021-10-16T20:58:49Z</time>
      </trkpt>
      <trkpt lat="37.177393" lon="-3.606096">
        <ele>617.836</ele>
        <time>2021-10-16T20:58:50Z</time>
      </trkpt>
      <trkpt lat="37.177338" lon="-3.606016">
        <ele>617.817</ele>
        <time>2021-10-16T20:58:52Z</time>
      </trkpt>
      <trkpt lat="37.177330" lon="-3.605954">
        <ele>617.818</ele>
        <time>2021-10-16T20:58:54Z</time>
      </trkpt>
      <trkpt lat="37.177290" lon="-3.605929">
        <ele>617.808</ele>
        <time>2021-10-16T20:58:56Z</time>
      </trkpt>
      <trkpt lat="37.177245" lon="-3.605915">
        <ele>617.911</ele>
        <time>2021-10-16T21:00:07Z</time>
      </trkpt>
      <trkpt lat="37.177206" lon="-3.605855">
        <ele>617.919</ele>
        <time>2021-10-16T21:00:08Z</time>
      </trkpt>
      <trkpt lat="37.177103" lon="-3.605708">
        <ele>617.948</ele>
        <time>2021-10-16T21:00:10Z</time>
      </trkpt>
      <trkpt lat="37.177046" lon="-3.605635">
        <ele>617.922</ele>
        <time>2021-10-16T21:00:11Z</time>
      </trkpt>
      <trkpt lat="37.176988" lon="-3.605562">
        <ele>618.017</ele>
        <time>2021-10-16T21:00:12Z</time>
      </trkpt>
      <trkpt lat="37.176893" lon="-3.605426">
        <ele>618.096</ele>
        <time>2021-10-16T21:00:14Z</time>
      </trkpt>
      <trkpt lat="37.176804" lon="-3.605295">
        <ele>618.098</ele>
        <time>2021-10-16T21:00:16Z</time>
      </trkpt>
      <trkpt lat="37.176762" lon="-3.605230">
        <ele>618.065</ele>
        <time>2021-10-16T21:00:17Z</time>
      </trkpt>
      <trkpt lat="37.176684" lon="-3.605119">
        <ele>618.093</ele>
        <time>2021-10-16T21:00:19Z</time>
      </trkpt>
      <trkpt lat="37.176646" lon="-3.605056">
        <ele>618.065</ele>
        <time>2021-10-16T21:00:20Z</time>
      </trkpt>
      <trkpt lat="37.176561" lon="-3.604930">
        <ele>618.021</ele>
        <time>2021-10-16T21:00:22Z</time>
      </trkpt>
      <trkpt lat="37.176510" lon="-3.604857">
        <ele>618.008</ele>
        <time>2021-10-16T21:00:23Z</time>
      </trkpt>
      <trkpt lat="37.176419" lon="-3.604714">
        <ele>618.067</ele>
        <time>2021-10-16T21:00:25Z</time>
      </trkpt>
      <trkpt lat="37.176382" lon="-3.604650">
        <ele>618.015</ele>
        <time>2021-10-16T21:00:26Z</time>
      </trkpt>
      <trkpt lat="37.176312" lon="-3.604523">
        <ele>618.064</ele>
        <time>2021-10-16T21:00:28Z</time>
      </trkpt>
      <trkpt lat="37.176233" lon="-3.604387">
        <ele>618.038</ele>
        <time>2021-10-16T21:00:30Z</time>
      </trkpt>
      <trkpt lat="37.176192" lon="-3.604324">
        <ele>618.023</ele>
        <time>2021-10-16T21:00:31Z</time>
      </trkpt>
      <trkpt lat="37.176155" lon="-3.604265">
        <ele>618.072</ele>
        <time>2021-10-16T21:00:32Z</time>
      </trkpt>
      <trkpt lat="37.176102" lon="-3.604196">
        <ele>618.014</ele>
        <time>2021-10-16T21:00:34Z</time>
      </trkpt>
      <trkpt lat="37.176059" lon="-3.604126">
        <ele>618.061</ele>
        <time>2021-10-16T21:00:36Z</time>
      </trkpt>
      <trkpt lat="37.176016" lon="-3.604054">
        <ele>618.068</ele>
        <time>2021-10-16T21:00:38Z</time>
      </trkpt>
      <trkpt lat="37.175958" lon="-3.603975">
        <ele>618.042</ele>
        <time>2021-10-16T21:00:40Z</time>
      </trkpt>
      <trkpt lat="37.175923" lon="-3.603925">
        <ele>618.026</ele>
        <time>2021-10-16T21:00:41Z</time>
      </trkpt>
      <trkpt lat="37.175875" lon="-3.603844">
        <ele>618.008</ele>
        <time>2021-10-16T21:00:43Z</time>
      </trkpt>
      <trkpt lat="37.175831" lon="-3.603788">
        <ele>618.084</ele>
        <time>2021-10-16T21:00:45Z</time>
      </trkpt>
      <trkpt lat="37.175814" lon="-3.603705">
        <ele>618.032</ele>
        <time>2021-10-16T21:00:48Z</time>
      </trkpt>
      <trkpt lat="37.175836" lon="-3.603627">
        <ele>618.061</ele>
        <time>2021-10-16T21:00:50Z</time>
      </trkpt>
      <trkpt lat="37.175884" lon="-3.603497">
        <ele>617.965</ele>
        <time>2021-10-16T21:00:52Z</time>
      </trkpt>
      <trkpt lat="37.175915" lon="-3.603436">
        <ele>617.930</ele>
        <time>2021-10-16T21:00:53Z</time>
      </trkpt>
      <trkpt lat="37.175967" lon="-3.603362">
        <ele>617.919</ele>
        <time>2021-10-16T21:00:55Z</time>
      </trkpt>
      <trkpt lat="37.176001" lon="-3.603321">
        <ele>617.921</ele>
        <time>2021-10-16T21:01:01Z</time>
      </trkpt>
      <trkpt lat="37.176042" lon="-3.603347">
        <ele>617.998</ele>
        <time>2021-10-16T21:01:03Z</time>
      </trkpt>
      <trkpt lat="37.176113" lon="-3.603402">
        <ele>617.941</ele>
        <time>2021-10-16T21:01:05Z</time>
      </trkpt>
      <trkpt lat="37.176171" lon="-3.603438">
        <ele>617.981</ele>
        <time>2021-10-16T21:01:07Z</time>
      </trkpt>
      <trkpt lat="37.176220" lon="-3.603417">
        <ele>634.909</ele>
        <time>2021-10-16T21:01:16Z</time>
      </trkpt>
      <trkpt lat="37.176237" lon="-3.603339">
        <ele>635.008</ele>
        <time>2021-10-16T21:01:18Z</time>
      </trkpt>
      <trkpt lat="37.176311" lon="-3.603241">
        <ele>635.022</ele>
        <time>2021-10-16T21:01:19Z</time>
      </trkpt>
      <trkpt lat="37.176420" lon="-3.603141">
        <ele>635.140</ele>
        <time>2021-10-16T21:01:20Z</time>
      </trkpt>
      <trkpt lat="37.176520" lon="-3.603093">
        <ele>632.389</ele>
        <time>2021-10-16T21:01:22Z</time>
      </trkpt>
      <trkpt lat="37.176470" lon="-3.603128">
        <ele>632.323</ele>
        <time>2021-10-16T21:01:23Z</time>
      </trkpt>
      <trkpt lat="37.176393" lon="-3.603178">
        <ele>632.388</ele>
        <time>2021-10-16T21:01:25Z</time>
      </trkpt>
      <trkpt lat="37.176345" lon="-3.603239">
        <ele>633.077</ele>
        <time>2021-10-16T21:01:28Z</time>
      </trkpt>
      <trkpt lat="37.176316" lon="-3.603307">
        <ele>633.029</ele>
        <time>2021-10-16T21:01:29Z</time>
      </trkpt>
      <trkpt lat="37.176288" lon="-3.603371">
        <ele>633.086</ele>
        <time>2021-10-16T21:01:31Z</time>
      </trkpt>
      <trkpt lat="37.176261" lon="-3.603416">
        <ele>631.551</ele>
        <time>2021-10-16T21:02:21Z</time>
      </trkpt>
      <trkpt lat="37.176296" lon="-3.603455">
        <ele>631.501</ele>
        <time>2021-10-16T21:02:33Z</time>
      </trkpt>
      <trkpt lat="37.176242" lon="-3.603456">
        <ele>631.511</ele>
        <time>2021-10-16T21:02:45Z</time>
      </trkpt>
      <trkpt lat="37.176280" lon="-3.603416">
        <ele>631.408</ele>
        <time>2021-10-16T21:07:58Z</time>
      </trkpt>
      <trkpt lat="37.176232" lon="-3.603438">
        <ele>631.523</ele>
        <time>2021-10-16T21:08:34Z</time>
      </trkpt>
    </trkseg>
  </trk>
</gpx>
